<?xml version="1.0" encoding="UTF-8" standalone="no" ?>
<gpx xmlns="http://www.topografix.com/GPX/1/1" xmlns:xsi="http://www.w3.org/2001/XMLSchema-instance" xsi:schemaLocation="http://www.topografix.com/GPX/1/1 http://www.topografix.com/GPX/1/1/gpx.xsd" version="1.1" creator="VisuGPX - https://www.visugpx.com">
  <metadata>
    <name>voyage total </name>
  </metadata>
  <trk>
    <name><![CDATA[T20]]></name>
    <trkseg>
      <trkpt lat="50.64533" lon="3.05953">
        <ele>22.7</ele>
        <time>2020-06-24T07:12:27Z</time>
      </trkpt>
      <trkpt lat="50.6453" lon="3.05962">
        <ele>22.6</ele>
        <time>2020-06-24T07:12:28Z</time>
      </trkpt>
      <trkpt lat="50.6453" lon="3.05965">
        <ele>22.6</ele>
        <time>2020-06-24T07:12:29Z</time>
      </trkpt>
      <trkpt lat="50.64529" lon="3.05968">
        <ele>22.6</ele>
        <time>2020-06-24T07:12:30Z</time>
      </trkpt>
      <trkpt lat="50.64529" lon="3.0597">
        <ele>22.6</ele>
        <time>2020-06-24T07:12:31Z</time>
      </trkpt>
      <trkpt lat="50.64528" lon="3.05973">
        <ele>22.5</ele>
        <time>2020-06-24T07:12:32Z</time>
      </trkpt>
      <trkpt lat="50.64528" lon="3.05975">
        <ele>22.5</ele>
        <time>2020-06-24T07:12:33Z</time>
      </trkpt>
      <trkpt lat="50.64527" lon="3.05978">
        <ele>22.5</ele>
        <time>2020-06-24T07:12:34Z</time>
      </trkpt>
      <trkpt lat="50.64527" lon="3.0598">
        <ele>22.5</ele>
        <time>2020-06-24T07:12:35Z</time>
      </trkpt>
      <trkpt lat="50.64526" lon="3.05983">
        <ele>22.5</ele>
        <time>2020-06-24T07:12:36Z</time>
      </trkpt>
      <trkpt lat="50.64526" lon="3.05986">
        <ele>22.4</ele>
        <time>2020-06-24T07:12:37Z</time>
      </trkpt>
      <trkpt lat="50.64525" lon="3.05988">
        <ele>22.4</ele>
        <time>2020-06-24T07:12:38Z</time>
      </trkpt>
      <trkpt lat="50.64525" lon="3.05991">
        <ele>22.3</ele>
        <time>2020-06-24T07:14:19Z</time>
      </trkpt>
      <trkpt lat="50.64524" lon="3.05993">
        <ele>22.3</ele>
        <time>2020-06-24T07:14:20Z</time>
      </trkpt>
      <trkpt lat="50.64525" lon="3.05998">
        <ele>22.2</ele>
        <time>2020-06-24T07:14:21Z</time>
      </trkpt>
      <trkpt lat="50.64525" lon="3.05999">
        <ele>22.2</ele>
        <time>2020-06-24T07:14:22Z</time>
      </trkpt>
      <trkpt lat="50.64526" lon="3.06004">
        <ele>22.1</ele>
        <time>2020-06-24T07:14:23Z</time>
      </trkpt>
      <trkpt lat="50.64527" lon="3.06006">
        <ele>22.1</ele>
        <time>2020-06-24T07:14:24Z</time>
      </trkpt>
      <trkpt lat="50.64528" lon="3.06012">
        <ele>21.9</ele>
        <time>2020-06-24T07:14:25Z</time>
      </trkpt>
      <trkpt lat="50.64527" lon="3.06015">
        <ele>21.9</ele>
        <time>2020-06-24T07:14:26Z</time>
      </trkpt>
      <trkpt lat="50.64527" lon="3.06019">
        <ele>21.8</ele>
        <time>2020-06-24T07:14:27Z</time>
      </trkpt>
      <trkpt lat="50.64529" lon="3.06025">
        <ele>21.7</ele>
        <time>2020-06-24T07:14:28Z</time>
      </trkpt>
      <trkpt lat="50.64529" lon="3.06027">
        <ele>21.6</ele>
        <time>2020-06-24T07:14:29Z</time>
      </trkpt>
      <trkpt lat="50.64531" lon="3.06033">
        <ele>21.5</ele>
        <time>2020-06-24T07:14:30Z</time>
      </trkpt>
      <trkpt lat="50.64532" lon="3.06035">
        <ele>21.5</ele>
        <time>2020-06-24T07:14:31Z</time>
      </trkpt>
      <trkpt lat="50.64528" lon="3.06041">
        <ele>21.3</ele>
        <time>2020-06-24T07:14:32Z</time>
      </trkpt>
      <trkpt lat="50.6453" lon="3.06046">
        <ele>21.1</ele>
        <time>2020-06-24T07:14:33Z</time>
      </trkpt>
      <trkpt lat="50.6453" lon="3.06048">
        <ele>21.1</ele>
        <time>2020-06-24T07:14:34Z</time>
      </trkpt>
      <trkpt lat="50.64529" lon="3.06053">
        <ele>21.1</ele>
        <time>2020-06-24T07:14:35Z</time>
      </trkpt>
      <trkpt lat="50.64528" lon="3.06057">
        <ele>21.1</ele>
        <time>2020-06-24T07:14:36Z</time>
      </trkpt>
      <trkpt lat="50.64524" lon="3.06059">
        <ele>21.1</ele>
        <time>2020-06-24T07:14:37Z</time>
      </trkpt>
      <trkpt lat="50.64522" lon="3.0606">
        <ele>21.1</ele>
        <time>2020-06-24T07:14:38Z</time>
      </trkpt>
      <trkpt lat="50.64519" lon="3.06061">
        <ele>21.1</ele>
        <time>2020-06-24T07:14:39Z</time>
      </trkpt>
      <trkpt lat="50.64518" lon="3.06062">
        <ele>21.1</ele>
        <time>2020-06-24T07:14:40Z</time>
      </trkpt>
      <trkpt lat="50.64513" lon="3.06064">
        <ele>21.1</ele>
        <time>2020-06-24T07:14:41Z</time>
      </trkpt>
      <trkpt lat="50.64512" lon="3.06065">
        <ele>21.1</ele>
        <time>2020-06-24T07:14:42Z</time>
      </trkpt>
      <trkpt lat="50.64508" lon="3.06067">
        <ele>21.1</ele>
        <time>2020-06-24T07:14:43Z</time>
      </trkpt>
      <trkpt lat="50.64506" lon="3.06069">
        <ele>21.1</ele>
        <time>2020-06-24T07:14:44Z</time>
      </trkpt>
      <trkpt lat="50.64503" lon="3.06072">
        <ele>21.1</ele>
        <time>2020-06-24T07:14:45Z</time>
      </trkpt>
      <trkpt lat="50.645" lon="3.06074">
        <ele>21.1</ele>
        <time>2020-06-24T07:14:46Z</time>
      </trkpt>
      <trkpt lat="50.64497" lon="3.06077">
        <ele>21.1</ele>
        <time>2020-06-24T07:14:47Z</time>
      </trkpt>
      <trkpt lat="50.64495" lon="3.06078">
        <ele>21.1</ele>
        <time>2020-06-24T07:14:48Z</time>
      </trkpt>
      <trkpt lat="50.64493" lon="3.06081">
        <ele>21.1</ele>
        <time>2020-06-24T07:14:49Z</time>
      </trkpt>
      <trkpt lat="50.6449" lon="3.06084">
        <ele>21.1</ele>
        <time>2020-06-24T07:14:50Z</time>
      </trkpt>
      <trkpt lat="50.64488" lon="3.06085">
        <ele>21.1</ele>
        <time>2020-06-24T07:14:51Z</time>
      </trkpt>
      <trkpt lat="50.64486" lon="3.06086">
        <ele>21.1</ele>
        <time>2020-06-24T07:14:52Z</time>
      </trkpt>
      <trkpt lat="50.64485" lon="3.06087">
        <ele>21.1</ele>
        <time>2020-06-24T07:14:53Z</time>
      </trkpt>
      <trkpt lat="50.64484" lon="3.06088">
        <ele>21.1</ele>
        <time>2020-06-24T07:14:54Z</time>
      </trkpt>
      <trkpt lat="50.64484" lon="3.06089">
        <ele>21.1</ele>
        <time>2020-06-24T07:14:55Z</time>
      </trkpt>
      <trkpt lat="50.64483" lon="3.0609">
        <ele>21.2</ele>
        <time>2020-06-24T07:14:56Z</time>
      </trkpt>
      <trkpt lat="50.64481" lon="3.06091">
        <ele>21.2</ele>
        <time>2020-06-24T07:14:57Z</time>
      </trkpt>
      <trkpt lat="50.6448" lon="3.06091">
        <ele>21.3</ele>
        <time>2020-06-24T07:14:58Z</time>
      </trkpt>
      <trkpt lat="50.64479" lon="3.06091">
        <ele>21.3</ele>
        <time>2020-06-24T07:14:59Z</time>
      </trkpt>
      <trkpt lat="50.64477" lon="3.0609">
        <ele>21.4</ele>
        <time>2020-06-24T07:15:00Z</time>
      </trkpt>
      <trkpt lat="50.64476" lon="3.06089">
        <ele>21.4</ele>
        <time>2020-06-24T07:15:01Z</time>
      </trkpt>
      <trkpt lat="50.64474" lon="3.06089">
        <ele>21.4</ele>
        <time>2020-06-24T07:15:02Z</time>
      </trkpt>
      <trkpt lat="50.64473" lon="3.0609">
        <ele>21.4</ele>
        <time>2020-06-24T07:15:03Z</time>
      </trkpt>
      <trkpt lat="50.64473" lon="3.06091">
        <ele>21.4</ele>
        <time>2020-06-24T07:15:04Z</time>
      </trkpt>
      <trkpt lat="50.64472" lon="3.06092">
        <ele>21.4</ele>
        <time>2020-06-24T07:15:05Z</time>
      </trkpt>
      <trkpt lat="50.6447" lon="3.06094">
        <ele>21.4</ele>
        <time>2020-06-24T07:15:06Z</time>
      </trkpt>
      <trkpt lat="50.64467" lon="3.06097">
        <ele>21.3</ele>
        <time>2020-06-24T07:15:07Z</time>
      </trkpt>
      <trkpt lat="50.64466" lon="3.06098">
        <ele>21.3</ele>
        <time>2020-06-24T07:15:08Z</time>
      </trkpt>
      <trkpt lat="50.64462" lon="3.06102">
        <ele>21.3</ele>
        <time>2020-06-24T07:15:09Z</time>
      </trkpt>
      <trkpt lat="50.64461" lon="3.06103">
        <ele>21.3</ele>
        <time>2020-06-24T07:15:10Z</time>
      </trkpt>
      <trkpt lat="50.64458" lon="3.06105">
        <ele>21.3</ele>
        <time>2020-06-24T07:15:11Z</time>
      </trkpt>
      <trkpt lat="50.64458" lon="3.06105">
        <ele>21.3</ele>
        <time>2020-06-24T07:15:12Z</time>
      </trkpt>
      <trkpt lat="50.64457" lon="3.06107">
        <ele>21.2</ele>
        <time>2020-06-24T07:15:13Z</time>
      </trkpt>
      <trkpt lat="50.64455" lon="3.06108">
        <ele>21.2</ele>
        <time>2020-06-24T07:15:14Z</time>
      </trkpt>
      <trkpt lat="50.64451" lon="3.0611">
        <ele>21.2</ele>
        <time>2020-06-24T07:15:15Z</time>
      </trkpt>
      <trkpt lat="50.64449" lon="3.06111">
        <ele>21.2</ele>
        <time>2020-06-24T07:15:16Z</time>
      </trkpt>
      <trkpt lat="50.64445" lon="3.06111">
        <ele>21.2</ele>
        <time>2020-06-24T07:15:17Z</time>
      </trkpt>
      <trkpt lat="50.64442" lon="3.06112">
        <ele>21.2</ele>
        <time>2020-06-24T07:15:18Z</time>
      </trkpt>
      <trkpt lat="50.64439" lon="3.06116">
        <ele>21.1</ele>
        <time>2020-06-24T07:15:19Z</time>
      </trkpt>
      <trkpt lat="50.64436" lon="3.0612">
        <ele>21.1</ele>
        <time>2020-06-24T07:15:20Z</time>
      </trkpt>
      <trkpt lat="50.64433" lon="3.06123">
        <ele>21</ele>
        <time>2020-06-24T07:15:21Z</time>
      </trkpt>
      <trkpt lat="50.6443" lon="3.06126">
        <ele>21</ele>
        <time>2020-06-24T07:15:22Z</time>
      </trkpt>
      <trkpt lat="50.64426" lon="3.06129">
        <ele>21</ele>
        <time>2020-06-24T07:15:23Z</time>
      </trkpt>
      <trkpt lat="50.64423" lon="3.06133">
        <ele>20.9</ele>
        <time>2020-06-24T07:15:24Z</time>
      </trkpt>
      <trkpt lat="50.64419" lon="3.06136">
        <ele>20.9</ele>
        <time>2020-06-24T07:15:25Z</time>
      </trkpt>
      <trkpt lat="50.64416" lon="3.0614">
        <ele>20.8</ele>
        <time>2020-06-24T07:15:26Z</time>
      </trkpt>
      <trkpt lat="50.64413" lon="3.06145">
        <ele>20.8</ele>
        <time>2020-06-24T07:15:27Z</time>
      </trkpt>
      <trkpt lat="50.64409" lon="3.06149">
        <ele>20.7</ele>
        <time>2020-06-24T07:15:28Z</time>
      </trkpt>
      <trkpt lat="50.64405" lon="3.06154">
        <ele>20.6</ele>
        <time>2020-06-24T07:15:29Z</time>
      </trkpt>
      <trkpt lat="50.64401" lon="3.06157">
        <ele>20.5</ele>
        <time>2020-06-24T07:15:30Z</time>
      </trkpt>
      <trkpt lat="50.64397" lon="3.06162">
        <ele>20.4</ele>
        <time>2020-06-24T07:15:31Z</time>
      </trkpt>
      <trkpt lat="50.64393" lon="3.06168">
        <ele>20.3</ele>
        <time>2020-06-24T07:15:32Z</time>
      </trkpt>
      <trkpt lat="50.64389" lon="3.06172">
        <ele>20.2</ele>
        <time>2020-06-24T07:15:33Z</time>
      </trkpt>
      <trkpt lat="50.64384" lon="3.06175">
        <ele>20.1</ele>
        <time>2020-06-24T07:15:34Z</time>
      </trkpt>
      <trkpt lat="50.64378" lon="3.06177">
        <ele>20</ele>
        <time>2020-06-24T07:15:35Z</time>
      </trkpt>
      <trkpt lat="50.64373" lon="3.06181">
        <ele>19.9</ele>
        <time>2020-06-24T07:15:36Z</time>
      </trkpt>
      <trkpt lat="50.64369" lon="3.06185">
        <ele>19.8</ele>
        <time>2020-06-24T07:15:37Z</time>
      </trkpt>
      <trkpt lat="50.64365" lon="3.06189">
        <ele>19.8</ele>
        <time>2020-06-24T07:15:38Z</time>
      </trkpt>
      <trkpt lat="50.64361" lon="3.06195">
        <ele>19.7</ele>
        <time>2020-06-24T07:15:39Z</time>
      </trkpt>
      <trkpt lat="50.64357" lon="3.06197">
        <ele>19.8</ele>
        <time>2020-06-24T07:15:40Z</time>
      </trkpt>
      <trkpt lat="50.64353" lon="3.06201">
        <ele>19.8</ele>
        <time>2020-06-24T07:15:41Z</time>
      </trkpt>
      <trkpt lat="50.64348" lon="3.06204">
        <ele>19.8</ele>
        <time>2020-06-24T07:15:42Z</time>
      </trkpt>
      <trkpt lat="50.64344" lon="3.06208">
        <ele>19.9</ele>
        <time>2020-06-24T07:15:43Z</time>
      </trkpt>
      <trkpt lat="50.6434" lon="3.06212">
        <ele>19.9</ele>
        <time>2020-06-24T07:15:44Z</time>
      </trkpt>
      <trkpt lat="50.64335" lon="3.06215">
        <ele>19.9</ele>
        <time>2020-06-24T07:15:45Z</time>
      </trkpt>
      <trkpt lat="50.6433" lon="3.0622">
        <ele>20</ele>
        <time>2020-06-24T07:15:46Z</time>
      </trkpt>
      <trkpt lat="50.64326" lon="3.06224">
        <ele>20</ele>
        <time>2020-06-24T07:15:47Z</time>
      </trkpt>
      <trkpt lat="50.64322" lon="3.06229">
        <ele>20.1</ele>
        <time>2020-06-24T07:15:48Z</time>
      </trkpt>
      <trkpt lat="50.64318" lon="3.06234">
        <ele>20.1</ele>
        <time>2020-06-24T07:15:49Z</time>
      </trkpt>
      <trkpt lat="50.64314" lon="3.06239">
        <ele>20.2</ele>
        <time>2020-06-24T07:15:50Z</time>
      </trkpt>
      <trkpt lat="50.6431" lon="3.06243">
        <ele>20.2</ele>
        <time>2020-06-24T07:15:51Z</time>
      </trkpt>
      <trkpt lat="50.64306" lon="3.06248">
        <ele>20.3</ele>
        <time>2020-06-24T07:15:52Z</time>
      </trkpt>
      <trkpt lat="50.64303" lon="3.06252">
        <ele>20.4</ele>
        <time>2020-06-24T07:15:53Z</time>
      </trkpt>
      <trkpt lat="50.64298" lon="3.06257">
        <ele>20.4</ele>
        <time>2020-06-24T07:15:54Z</time>
      </trkpt>
      <trkpt lat="50.64294" lon="3.06261">
        <ele>20.5</ele>
        <time>2020-06-24T07:15:55Z</time>
      </trkpt>
      <trkpt lat="50.6429" lon="3.06264">
        <ele>20.5</ele>
        <time>2020-06-24T07:15:56Z</time>
      </trkpt>
      <trkpt lat="50.64286" lon="3.06267">
        <ele>20.6</ele>
        <time>2020-06-24T07:15:57Z</time>
      </trkpt>
      <trkpt lat="50.64282" lon="3.0627">
        <ele>20.6</ele>
        <time>2020-06-24T07:15:58Z</time>
      </trkpt>
      <trkpt lat="50.64278" lon="3.06272">
        <ele>20.7</ele>
        <time>2020-06-24T07:15:59Z</time>
      </trkpt>
      <trkpt lat="50.64274" lon="3.06277">
        <ele>20.7</ele>
        <time>2020-06-24T07:16:00Z</time>
      </trkpt>
      <trkpt lat="50.64271" lon="3.06281">
        <ele>20.8</ele>
        <time>2020-06-24T07:16:01Z</time>
      </trkpt>
      <trkpt lat="50.64267" lon="3.06285">
        <ele>20.9</ele>
        <time>2020-06-24T07:16:02Z</time>
      </trkpt>
      <trkpt lat="50.64264" lon="3.06288">
        <ele>20.9</ele>
        <time>2020-06-24T07:16:03Z</time>
      </trkpt>
      <trkpt lat="50.64261" lon="3.06291">
        <ele>21</ele>
        <time>2020-06-24T07:16:04Z</time>
      </trkpt>
      <trkpt lat="50.64258" lon="3.06293">
        <ele>21</ele>
        <time>2020-06-24T07:16:05Z</time>
      </trkpt>
      <trkpt lat="50.64255" lon="3.06295">
        <ele>21.1</ele>
        <time>2020-06-24T07:16:06Z</time>
      </trkpt>
      <trkpt lat="50.64252" lon="3.06298">
        <ele>21.1</ele>
        <time>2020-06-24T07:16:07Z</time>
      </trkpt>
      <trkpt lat="50.64251" lon="3.06298">
        <ele>21.1</ele>
        <time>2020-06-24T07:16:08Z</time>
      </trkpt>
      <trkpt lat="50.64247" lon="3.06295">
        <ele>21.8</ele>
        <time>2020-06-24T07:16:09Z</time>
      </trkpt>
      <trkpt lat="50.64246" lon="3.06294">
        <ele>21.9</ele>
        <time>2020-06-24T07:16:10Z</time>
      </trkpt>
      <trkpt lat="50.64244" lon="3.06291">
        <ele>22</ele>
        <time>2020-06-24T07:16:11Z</time>
      </trkpt>
      <trkpt lat="50.64241" lon="3.06288">
        <ele>22.2</ele>
        <time>2020-06-24T07:16:12Z</time>
      </trkpt>
      <trkpt lat="50.6424" lon="3.06287">
        <ele>22.3</ele>
        <time>2020-06-24T07:16:13Z</time>
      </trkpt>
      <trkpt lat="50.64238" lon="3.06284">
        <ele>22.5</ele>
        <time>2020-06-24T07:16:14Z</time>
      </trkpt>
      <trkpt lat="50.64237" lon="3.06283">
        <ele>22.5</ele>
        <time>2020-06-24T07:16:15Z</time>
      </trkpt>
      <trkpt lat="50.64234" lon="3.06282">
        <ele>22.7</ele>
        <time>2020-06-24T07:16:16Z</time>
      </trkpt>
      <trkpt lat="50.64233" lon="3.06281">
        <ele>22.8</ele>
        <time>2020-06-24T07:16:17Z</time>
      </trkpt>
      <trkpt lat="50.64232" lon="3.06279">
        <ele>22.9</ele>
        <time>2020-06-24T07:16:18Z</time>
      </trkpt>
      <trkpt lat="50.64231" lon="3.06277">
        <ele>23</ele>
        <time>2020-06-24T07:16:19Z</time>
      </trkpt>
      <trkpt lat="50.64229" lon="3.06276">
        <ele>23.1</ele>
        <time>2020-06-24T07:16:20Z</time>
      </trkpt>
      <trkpt lat="50.64226" lon="3.06274">
        <ele>23.3</ele>
        <time>2020-06-24T07:16:21Z</time>
      </trkpt>
      <trkpt lat="50.64225" lon="3.06273">
        <ele>23.3</ele>
        <time>2020-06-24T07:16:22Z</time>
      </trkpt>
      <trkpt lat="50.64223" lon="3.0627">
        <ele>23.5</ele>
        <time>2020-06-24T07:16:23Z</time>
      </trkpt>
      <trkpt lat="50.64223" lon="3.06268">
        <ele>23.6</ele>
        <time>2020-06-24T07:16:24Z</time>
      </trkpt>
      <trkpt lat="50.6422" lon="3.06265">
        <ele>23.8</ele>
        <time>2020-06-24T07:16:25Z</time>
      </trkpt>
      <trkpt lat="50.64219" lon="3.06265">
        <ele>23.9</ele>
        <time>2020-06-24T07:16:26Z</time>
      </trkpt>
      <trkpt lat="50.64217" lon="3.06261">
        <ele>24</ele>
        <time>2020-06-24T07:16:27Z</time>
      </trkpt>
      <trkpt lat="50.64216" lon="3.0626">
        <ele>24.1</ele>
        <time>2020-06-24T07:16:28Z</time>
      </trkpt>
      <trkpt lat="50.64215" lon="3.06258">
        <ele>24.2</ele>
        <time>2020-06-24T07:16:29Z</time>
      </trkpt>
      <trkpt lat="50.64214" lon="3.06256">
        <ele>24.3</ele>
        <time>2020-06-24T07:16:30Z</time>
      </trkpt>
      <trkpt lat="50.64212" lon="3.06252">
        <ele>24.4</ele>
        <time>2020-06-24T07:16:31Z</time>
      </trkpt>
      <trkpt lat="50.64212" lon="3.06251">
        <ele>24.4</ele>
        <time>2020-06-24T07:16:32Z</time>
      </trkpt>
      <trkpt lat="50.64209" lon="3.06248">
        <ele>24.6</ele>
        <time>2020-06-24T07:16:33Z</time>
      </trkpt>
      <trkpt lat="50.64208" lon="3.06246">
        <ele>24.6</ele>
        <time>2020-06-24T07:16:34Z</time>
      </trkpt>
      <trkpt lat="50.64206" lon="3.06242">
        <ele>24.7</ele>
        <time>2020-06-24T07:16:35Z</time>
      </trkpt>
      <trkpt lat="50.64206" lon="3.06241">
        <ele>24.7</ele>
        <time>2020-06-24T07:16:36Z</time>
      </trkpt>
      <trkpt lat="50.64205" lon="3.06236">
        <ele>24.8</ele>
        <time>2020-06-24T07:16:37Z</time>
      </trkpt>
      <trkpt lat="50.64205" lon="3.06234">
        <ele>24.9</ele>
        <time>2020-06-24T07:16:38Z</time>
      </trkpt>
      <trkpt lat="50.64203" lon="3.0623">
        <ele>24.9</ele>
        <time>2020-06-24T07:16:39Z</time>
      </trkpt>
      <trkpt lat="50.64202" lon="3.06229">
        <ele>24.9</ele>
        <time>2020-06-24T07:16:40Z</time>
      </trkpt>
      <trkpt lat="50.64201" lon="3.06224">
        <ele>24.9</ele>
        <time>2020-06-24T07:16:41Z</time>
      </trkpt>
      <trkpt lat="50.64201" lon="3.06222">
        <ele>24.9</ele>
        <time>2020-06-24T07:16:42Z</time>
      </trkpt>
      <trkpt lat="50.642" lon="3.06217">
        <ele>24.9</ele>
        <time>2020-06-24T07:16:43Z</time>
      </trkpt>
      <trkpt lat="50.64199" lon="3.06215">
        <ele>24.9</ele>
        <time>2020-06-24T07:16:44Z</time>
      </trkpt>
      <trkpt lat="50.64197" lon="3.06211">
        <ele>24.9</ele>
        <time>2020-06-24T07:16:45Z</time>
      </trkpt>
      <trkpt lat="50.64196" lon="3.06209">
        <ele>24.9</ele>
        <time>2020-06-24T07:16:46Z</time>
      </trkpt>
      <trkpt lat="50.64194" lon="3.06206">
        <ele>24.9</ele>
        <time>2020-06-24T07:16:47Z</time>
      </trkpt>
      <trkpt lat="50.64193" lon="3.06202">
        <ele>24.9</ele>
        <time>2020-06-24T07:16:48Z</time>
      </trkpt>
      <trkpt lat="50.64192" lon="3.06196">
        <ele>25</ele>
        <time>2020-06-24T07:16:49Z</time>
      </trkpt>
      <trkpt lat="50.64192" lon="3.06194">
        <ele>25</ele>
        <time>2020-06-24T07:16:50Z</time>
      </trkpt>
      <trkpt lat="50.64196" lon="3.06186">
        <ele>25</ele>
        <time>2020-06-24T07:16:51Z</time>
      </trkpt>
      <trkpt lat="50.64194" lon="3.06182">
        <ele>25.1</ele>
        <time>2020-06-24T07:16:52Z</time>
      </trkpt>
      <trkpt lat="50.64192" lon="3.06178">
        <ele>25.1</ele>
        <time>2020-06-24T07:16:53Z</time>
      </trkpt>
      <trkpt lat="50.64192" lon="3.06176">
        <ele>25.1</ele>
        <time>2020-06-24T07:16:54Z</time>
      </trkpt>
      <trkpt lat="50.6419" lon="3.06171">
        <ele>25.1</ele>
        <time>2020-06-24T07:16:55Z</time>
      </trkpt>
      <trkpt lat="50.6419" lon="3.06169">
        <ele>25.1</ele>
        <time>2020-06-24T07:16:56Z</time>
      </trkpt>
      <trkpt lat="50.64189" lon="3.06166">
        <ele>25.2</ele>
        <time>2020-06-24T07:16:57Z</time>
      </trkpt>
      <trkpt lat="50.64189" lon="3.06164">
        <ele>25.2</ele>
        <time>2020-06-24T07:16:58Z</time>
      </trkpt>
      <trkpt lat="50.64188" lon="3.0616">
        <ele>25.2</ele>
        <time>2020-06-24T07:16:59Z</time>
      </trkpt>
      <trkpt lat="50.64188" lon="3.06158">
        <ele>25.2</ele>
        <time>2020-06-24T07:17:00Z</time>
      </trkpt>
      <trkpt lat="50.64187" lon="3.06154">
        <ele>25.2</ele>
        <time>2020-06-24T07:17:01Z</time>
      </trkpt>
      <trkpt lat="50.64186" lon="3.06153">
        <ele>25.2</ele>
        <time>2020-06-24T07:17:02Z</time>
      </trkpt>
      <trkpt lat="50.64186" lon="3.06148">
        <ele>25.2</ele>
        <time>2020-06-24T07:17:03Z</time>
      </trkpt>
      <trkpt lat="50.64185" lon="3.06146">
        <ele>25.2</ele>
        <time>2020-06-24T07:17:04Z</time>
      </trkpt>
      <trkpt lat="50.64184" lon="3.06142">
        <ele>25.2</ele>
        <time>2020-06-24T07:17:05Z</time>
      </trkpt>
      <trkpt lat="50.64183" lon="3.0614">
        <ele>25.2</ele>
        <time>2020-06-24T07:17:06Z</time>
      </trkpt>
      <trkpt lat="50.64181" lon="3.06138">
        <ele>25.1</ele>
        <time>2020-06-24T07:17:07Z</time>
      </trkpt>
      <trkpt lat="50.64178" lon="3.06135">
        <ele>25.1</ele>
        <time>2020-06-24T07:17:08Z</time>
      </trkpt>
      <trkpt lat="50.64176" lon="3.06131">
        <ele>25.1</ele>
        <time>2020-06-24T07:17:09Z</time>
      </trkpt>
      <trkpt lat="50.64174" lon="3.06127">
        <ele>25.1</ele>
        <time>2020-06-24T07:17:10Z</time>
      </trkpt>
      <trkpt lat="50.64173" lon="3.06122">
        <ele>25</ele>
        <time>2020-06-24T07:17:11Z</time>
      </trkpt>
      <trkpt lat="50.6417" lon="3.06119">
        <ele>25</ele>
        <time>2020-06-24T07:17:12Z</time>
      </trkpt>
      <trkpt lat="50.64168" lon="3.06115">
        <ele>24.9</ele>
        <time>2020-06-24T07:17:13Z</time>
      </trkpt>
      <trkpt lat="50.64165" lon="3.06112">
        <ele>24.9</ele>
        <time>2020-06-24T07:17:14Z</time>
      </trkpt>
      <trkpt lat="50.64162" lon="3.06109">
        <ele>24.8</ele>
        <time>2020-06-24T07:17:15Z</time>
      </trkpt>
      <trkpt lat="50.6416" lon="3.06104">
        <ele>24.8</ele>
        <time>2020-06-24T07:17:16Z</time>
      </trkpt>
      <trkpt lat="50.64158" lon="3.061">
        <ele>24.7</ele>
        <time>2020-06-24T07:17:17Z</time>
      </trkpt>
      <trkpt lat="50.64156" lon="3.06096">
        <ele>24.7</ele>
        <time>2020-06-24T07:17:18Z</time>
      </trkpt>
      <trkpt lat="50.64154" lon="3.06092">
        <ele>24.7</ele>
        <time>2020-06-24T07:17:19Z</time>
      </trkpt>
      <trkpt lat="50.64153" lon="3.06088">
        <ele>24.6</ele>
        <time>2020-06-24T07:17:20Z</time>
      </trkpt>
      <trkpt lat="50.64155" lon="3.06075">
        <ele>24.5</ele>
        <time>2020-06-24T07:17:21Z</time>
      </trkpt>
      <trkpt lat="50.64153" lon="3.06071">
        <ele>24.5</ele>
        <time>2020-06-24T07:17:22Z</time>
      </trkpt>
      <trkpt lat="50.64151" lon="3.06067">
        <ele>24.4</ele>
        <time>2020-06-24T07:17:23Z</time>
      </trkpt>
      <trkpt lat="50.64148" lon="3.06064">
        <ele>24.4</ele>
        <time>2020-06-24T07:17:24Z</time>
      </trkpt>
      <trkpt lat="50.64146" lon="3.06059">
        <ele>24.3</ele>
        <time>2020-06-24T07:17:25Z</time>
      </trkpt>
      <trkpt lat="50.64144" lon="3.06054">
        <ele>24.3</ele>
        <time>2020-06-24T07:17:26Z</time>
      </trkpt>
      <trkpt lat="50.64141" lon="3.06051">
        <ele>24.2</ele>
        <time>2020-06-24T07:17:27Z</time>
      </trkpt>
      <trkpt lat="50.64139" lon="3.06046">
        <ele>24.2</ele>
        <time>2020-06-24T07:17:28Z</time>
      </trkpt>
      <trkpt lat="50.64136" lon="3.06041">
        <ele>24.2</ele>
        <time>2020-06-24T07:17:29Z</time>
      </trkpt>
      <trkpt lat="50.64134" lon="3.06037">
        <ele>24.1</ele>
        <time>2020-06-24T07:17:30Z</time>
      </trkpt>
      <trkpt lat="50.64132" lon="3.06032">
        <ele>24.1</ele>
        <time>2020-06-24T07:17:31Z</time>
      </trkpt>
      <trkpt lat="50.6413" lon="3.06026">
        <ele>24</ele>
        <time>2020-06-24T07:17:32Z</time>
      </trkpt>
      <trkpt lat="50.64128" lon="3.06022">
        <ele>24</ele>
        <time>2020-06-24T07:17:33Z</time>
      </trkpt>
      <trkpt lat="50.64127" lon="3.06017">
        <ele>24</ele>
        <time>2020-06-24T07:17:34Z</time>
      </trkpt>
      <trkpt lat="50.64124" lon="3.06012">
        <ele>23.9</ele>
        <time>2020-06-24T07:17:35Z</time>
      </trkpt>
      <trkpt lat="50.64123" lon="3.06006">
        <ele>23.9</ele>
        <time>2020-06-24T07:17:36Z</time>
      </trkpt>
      <trkpt lat="50.64121" lon="3.06002">
        <ele>23.9</ele>
        <time>2020-06-24T07:17:37Z</time>
      </trkpt>
      <trkpt lat="50.64119" lon="3.05998">
        <ele>23.9</ele>
        <time>2020-06-24T07:17:38Z</time>
      </trkpt>
      <trkpt lat="50.64118" lon="3.05994">
        <ele>23.8</ele>
        <time>2020-06-24T07:17:39Z</time>
      </trkpt>
      <trkpt lat="50.64115" lon="3.05991">
        <ele>23.8</ele>
        <time>2020-06-24T07:17:40Z</time>
      </trkpt>
      <trkpt lat="50.64114" lon="3.0599">
        <ele>23.8</ele>
        <time>2020-06-24T07:17:41Z</time>
      </trkpt>
      <trkpt lat="50.64112" lon="3.05984">
        <ele>23.8</ele>
        <time>2020-06-24T07:17:42Z</time>
      </trkpt>
      <trkpt lat="50.64112" lon="3.05982">
        <ele>23.8</ele>
        <time>2020-06-24T07:17:43Z</time>
      </trkpt>
      <trkpt lat="50.6411" lon="3.05978">
        <ele>23.7</ele>
        <time>2020-06-24T07:17:44Z</time>
      </trkpt>
      <trkpt lat="50.64107" lon="3.05976">
        <ele>23.7</ele>
        <time>2020-06-24T07:17:45Z</time>
      </trkpt>
      <trkpt lat="50.64107" lon="3.05971">
        <ele>23.7</ele>
        <time>2020-06-24T07:17:46Z</time>
      </trkpt>
      <trkpt lat="50.64107" lon="3.05968">
        <ele>23.7</ele>
        <time>2020-06-24T07:17:47Z</time>
      </trkpt>
      <trkpt lat="50.64107" lon="3.05966">
        <ele>23.7</ele>
        <time>2020-06-24T07:17:48Z</time>
      </trkpt>
      <trkpt lat="50.64107" lon="3.05964">
        <ele>23.6</ele>
        <time>2020-06-24T07:17:49Z</time>
      </trkpt>
      <trkpt lat="50.64106" lon="3.05964">
        <ele>23.6</ele>
        <time>2020-06-24T07:17:50Z</time>
      </trkpt>
      <trkpt lat="50.64105" lon="3.05965">
        <ele>23.6</ele>
        <time>2020-06-24T07:17:51Z</time>
      </trkpt>
      <trkpt lat="50.64105" lon="3.05966">
        <ele>23.6</ele>
        <time>2020-06-24T07:17:52Z</time>
      </trkpt>
      <trkpt lat="50.64104" lon="3.05968">
        <ele>23.6</ele>
        <time>2020-06-24T07:17:53Z</time>
      </trkpt>
      <trkpt lat="50.64103" lon="3.05971">
        <ele>23.6</ele>
        <time>2020-06-24T07:17:54Z</time>
      </trkpt>
      <trkpt lat="50.64103" lon="3.05972">
        <ele>23.6</ele>
        <time>2020-06-24T07:17:55Z</time>
      </trkpt>
      <trkpt lat="50.64102" lon="3.05973">
        <ele>23.6</ele>
        <time>2020-06-24T07:17:56Z</time>
      </trkpt>
      <trkpt lat="50.64099" lon="3.05978">
        <ele>23.6</ele>
        <time>2020-06-24T07:17:57Z</time>
      </trkpt>
      <trkpt lat="50.64098" lon="3.05979">
        <ele>23.6</ele>
        <time>2020-06-24T07:17:58Z</time>
      </trkpt>
      <trkpt lat="50.64096" lon="3.05982">
        <ele>23.5</ele>
        <time>2020-06-24T07:17:59Z</time>
      </trkpt>
      <trkpt lat="50.64092" lon="3.05985">
        <ele>23.5</ele>
        <time>2020-06-24T07:18:00Z</time>
      </trkpt>
      <trkpt lat="50.64091" lon="3.05987">
        <ele>23.5</ele>
        <time>2020-06-24T07:18:01Z</time>
      </trkpt>
      <trkpt lat="50.64089" lon="3.05991">
        <ele>23.6</ele>
        <time>2020-06-24T07:18:02Z</time>
      </trkpt>
      <trkpt lat="50.64086" lon="3.05995">
        <ele>23.6</ele>
        <time>2020-06-24T07:18:03Z</time>
      </trkpt>
      <trkpt lat="50.64083" lon="3.05999">
        <ele>23.6</ele>
        <time>2020-06-24T07:18:04Z</time>
      </trkpt>
      <trkpt lat="50.6408" lon="3.06002">
        <ele>23.6</ele>
        <time>2020-06-24T07:18:05Z</time>
      </trkpt>
      <trkpt lat="50.64078" lon="3.06007">
        <ele>23.6</ele>
        <time>2020-06-24T07:18:06Z</time>
      </trkpt>
      <trkpt lat="50.64074" lon="3.06008">
        <ele>23.6</ele>
        <time>2020-06-24T07:18:07Z</time>
      </trkpt>
      <trkpt lat="50.64071" lon="3.06011">
        <ele>23.5</ele>
        <time>2020-06-24T07:18:08Z</time>
      </trkpt>
      <trkpt lat="50.6407" lon="3.06016">
        <ele>23.5</ele>
        <time>2020-06-24T07:18:09Z</time>
      </trkpt>
      <trkpt lat="50.64068" lon="3.0602">
        <ele>23.5</ele>
        <time>2020-06-24T07:18:10Z</time>
      </trkpt>
      <trkpt lat="50.64066" lon="3.06024">
        <ele>23.4</ele>
        <time>2020-06-24T07:18:11Z</time>
      </trkpt>
      <trkpt lat="50.64063" lon="3.06028">
        <ele>23.5</ele>
        <time>2020-06-24T07:18:12Z</time>
      </trkpt>
      <trkpt lat="50.64061" lon="3.06032">
        <ele>23.5</ele>
        <time>2020-06-24T07:18:13Z</time>
      </trkpt>
      <trkpt lat="50.64058" lon="3.06036">
        <ele>23.6</ele>
        <time>2020-06-24T07:18:14Z</time>
      </trkpt>
      <trkpt lat="50.64056" lon="3.0604">
        <ele>23.7</ele>
        <time>2020-06-24T07:18:15Z</time>
      </trkpt>
      <trkpt lat="50.64053" lon="3.06044">
        <ele>23.7</ele>
        <time>2020-06-24T07:18:16Z</time>
      </trkpt>
      <trkpt lat="50.6405" lon="3.06048">
        <ele>23.8</ele>
        <time>2020-06-24T07:18:17Z</time>
      </trkpt>
      <trkpt lat="50.64047" lon="3.06052">
        <ele>23.8</ele>
        <time>2020-06-24T07:18:18Z</time>
      </trkpt>
      <trkpt lat="50.64045" lon="3.06057">
        <ele>23.9</ele>
        <time>2020-06-24T07:18:19Z</time>
      </trkpt>
      <trkpt lat="50.64043" lon="3.06061">
        <ele>23.9</ele>
        <time>2020-06-24T07:18:20Z</time>
      </trkpt>
      <trkpt lat="50.64041" lon="3.06065">
        <ele>24</ele>
        <time>2020-06-24T07:18:21Z</time>
      </trkpt>
      <trkpt lat="50.64039" lon="3.06069">
        <ele>24</ele>
        <time>2020-06-24T07:18:22Z</time>
      </trkpt>
      <trkpt lat="50.64037" lon="3.06073">
        <ele>24</ele>
        <time>2020-06-24T07:18:23Z</time>
      </trkpt>
      <trkpt lat="50.64036" lon="3.06077">
        <ele>24.1</ele>
        <time>2020-06-24T07:18:24Z</time>
      </trkpt>
      <trkpt lat="50.64034" lon="3.06081">
        <ele>24.1</ele>
        <time>2020-06-24T07:18:25Z</time>
      </trkpt>
      <trkpt lat="50.64032" lon="3.06084">
        <ele>24.1</ele>
        <time>2020-06-24T07:18:26Z</time>
      </trkpt>
      <trkpt lat="50.64029" lon="3.06088">
        <ele>24.2</ele>
        <time>2020-06-24T07:18:27Z</time>
      </trkpt>
      <trkpt lat="50.64027" lon="3.06091">
        <ele>24.2</ele>
        <time>2020-06-24T07:18:28Z</time>
      </trkpt>
      <trkpt lat="50.64024" lon="3.06096">
        <ele>24.2</ele>
        <time>2020-06-24T07:18:29Z</time>
      </trkpt>
      <trkpt lat="50.64022" lon="3.061">
        <ele>24.3</ele>
        <time>2020-06-24T07:18:30Z</time>
      </trkpt>
      <trkpt lat="50.64018" lon="3.06103">
        <ele>24.3</ele>
        <time>2020-06-24T07:18:31Z</time>
      </trkpt>
      <trkpt lat="50.64016" lon="3.06107">
        <ele>24.3</ele>
        <time>2020-06-24T07:18:32Z</time>
      </trkpt>
      <trkpt lat="50.64013" lon="3.06111">
        <ele>24.4</ele>
        <time>2020-06-24T07:18:33Z</time>
      </trkpt>
      <trkpt lat="50.6401" lon="3.06114">
        <ele>24.4</ele>
        <time>2020-06-24T07:18:34Z</time>
      </trkpt>
      <trkpt lat="50.64007" lon="3.06117">
        <ele>24.4</ele>
        <time>2020-06-24T07:18:35Z</time>
      </trkpt>
      <trkpt lat="50.64003" lon="3.06119">
        <ele>24.5</ele>
        <time>2020-06-24T07:18:36Z</time>
      </trkpt>
      <trkpt lat="50.64002" lon="3.06124">
        <ele>24.5</ele>
        <time>2020-06-24T07:18:37Z</time>
      </trkpt>
      <trkpt lat="50.64" lon="3.06128">
        <ele>24.5</ele>
        <time>2020-06-24T07:18:38Z</time>
      </trkpt>
      <trkpt lat="50.63998" lon="3.06131">
        <ele>24.6</ele>
        <time>2020-06-24T07:18:39Z</time>
      </trkpt>
      <trkpt lat="50.63995" lon="3.06134">
        <ele>24.7</ele>
        <time>2020-06-24T07:18:40Z</time>
      </trkpt>
      <trkpt lat="50.63991" lon="3.06136">
        <ele>24.9</ele>
        <time>2020-06-24T07:18:41Z</time>
      </trkpt>
      <trkpt lat="50.63988" lon="3.0614">
        <ele>25</ele>
        <time>2020-06-24T07:18:42Z</time>
      </trkpt>
      <trkpt lat="50.63985" lon="3.06143">
        <ele>25</ele>
        <time>2020-06-24T07:18:43Z</time>
      </trkpt>
      <trkpt lat="50.63983" lon="3.06146">
        <ele>24.9</ele>
        <time>2020-06-24T07:18:44Z</time>
      </trkpt>
      <trkpt lat="50.6398" lon="3.06149">
        <ele>24.9</ele>
        <time>2020-06-24T07:18:45Z</time>
      </trkpt>
      <trkpt lat="50.63978" lon="3.06151">
        <ele>24.9</ele>
        <time>2020-06-24T07:18:46Z</time>
      </trkpt>
      <trkpt lat="50.63974" lon="3.06152">
        <ele>24.7</ele>
        <time>2020-06-24T07:18:47Z</time>
      </trkpt>
      <trkpt lat="50.63971" lon="3.06149">
        <ele>24.7</ele>
        <time>2020-06-24T07:18:48Z</time>
      </trkpt>
      <trkpt lat="50.63968" lon="3.06146">
        <ele>24.7</ele>
        <time>2020-06-24T07:18:49Z</time>
      </trkpt>
      <trkpt lat="50.63965" lon="3.06145">
        <ele>24.7</ele>
        <time>2020-06-24T07:18:50Z</time>
      </trkpt>
      <trkpt lat="50.63963" lon="3.06142">
        <ele>24.6</ele>
        <time>2020-06-24T07:18:51Z</time>
      </trkpt>
      <trkpt lat="50.6396" lon="3.0614">
        <ele>24.6</ele>
        <time>2020-06-24T07:18:52Z</time>
      </trkpt>
      <trkpt lat="50.63957" lon="3.06141">
        <ele>24.6</ele>
        <time>2020-06-24T07:18:53Z</time>
      </trkpt>
      <trkpt lat="50.63954" lon="3.06141">
        <ele>24.6</ele>
        <time>2020-06-24T07:18:54Z</time>
      </trkpt>
      <trkpt lat="50.63953" lon="3.06141">
        <ele>24.6</ele>
        <time>2020-06-24T07:18:55Z</time>
      </trkpt>
      <trkpt lat="50.6395" lon="3.06142">
        <ele>24.6</ele>
        <time>2020-06-24T07:18:56Z</time>
      </trkpt>
      <trkpt lat="50.63946" lon="3.06143">
        <ele>24.5</ele>
        <time>2020-06-24T07:18:57Z</time>
      </trkpt>
      <trkpt lat="50.63943" lon="3.06146">
        <ele>24.5</ele>
        <time>2020-06-24T07:18:58Z</time>
      </trkpt>
      <trkpt lat="50.63941" lon="3.06147">
        <ele>24.5</ele>
        <time>2020-06-24T07:18:59Z</time>
      </trkpt>
      <trkpt lat="50.6394" lon="3.06147">
        <ele>24.5</ele>
        <time>2020-06-24T07:19:00Z</time>
      </trkpt>
      <trkpt lat="50.63939" lon="3.06149">
        <ele>24.5</ele>
        <time>2020-06-24T07:19:01Z</time>
      </trkpt>
      <trkpt lat="50.63938" lon="3.06151">
        <ele>24.5</ele>
        <time>2020-06-24T07:19:02Z</time>
      </trkpt>
      <trkpt lat="50.63938" lon="3.06152">
        <ele>24.5</ele>
        <time>2020-06-24T07:19:03Z</time>
      </trkpt>
      <trkpt lat="50.63937" lon="3.06155">
        <ele>24.5</ele>
        <time>2020-06-24T07:19:04Z</time>
      </trkpt>
      <trkpt lat="50.63936" lon="3.06157">
        <ele>24.5</ele>
        <time>2020-06-24T07:19:05Z</time>
      </trkpt>
      <trkpt lat="50.63934" lon="3.06161">
        <ele>24.4</ele>
        <time>2020-06-24T07:19:06Z</time>
      </trkpt>
      <trkpt lat="50.63934" lon="3.06162">
        <ele>24.4</ele>
        <time>2020-06-24T07:19:07Z</time>
      </trkpt>
      <trkpt lat="50.63932" lon="3.06167">
        <ele>24.4</ele>
        <time>2020-06-24T07:19:08Z</time>
      </trkpt>
      <trkpt lat="50.63931" lon="3.06168">
        <ele>24.4</ele>
        <time>2020-06-24T07:19:09Z</time>
      </trkpt>
      <trkpt lat="50.63929" lon="3.06172">
        <ele>24.4</ele>
        <time>2020-06-24T07:19:10Z</time>
      </trkpt>
      <trkpt lat="50.63928" lon="3.06173">
        <ele>24.4</ele>
        <time>2020-06-24T07:19:11Z</time>
      </trkpt>
      <trkpt lat="50.63926" lon="3.06177">
        <ele>24.4</ele>
        <time>2020-06-24T07:19:12Z</time>
      </trkpt>
      <trkpt lat="50.63926" lon="3.06178">
        <ele>24.3</ele>
        <time>2020-06-24T07:19:13Z</time>
      </trkpt>
      <trkpt lat="50.63925" lon="3.0618">
        <ele>24.3</ele>
        <time>2020-06-24T07:19:14Z</time>
      </trkpt>
      <trkpt lat="50.63924" lon="3.06183">
        <ele>24.3</ele>
        <time>2020-06-24T07:19:15Z</time>
      </trkpt>
      <trkpt lat="50.63923" lon="3.06185">
        <ele>24.3</ele>
        <time>2020-06-24T07:19:16Z</time>
      </trkpt>
      <trkpt lat="50.63923" lon="3.06187">
        <ele>24.3</ele>
        <time>2020-06-24T07:19:17Z</time>
      </trkpt>
      <trkpt lat="50.6392" lon="3.06187">
        <ele>24.3</ele>
        <time>2020-06-24T07:19:18Z</time>
      </trkpt>
      <trkpt lat="50.6392" lon="3.06187">
        <ele>24.3</ele>
        <time>2020-06-24T07:19:19Z</time>
      </trkpt>
      <trkpt lat="50.63919" lon="3.06187">
        <ele>24.3</ele>
        <time>2020-06-24T07:19:20Z</time>
      </trkpt>
      <trkpt lat="50.63916" lon="3.06188">
        <ele>24.2</ele>
        <time>2020-06-24T07:19:21Z</time>
      </trkpt>
      <trkpt lat="50.63915" lon="3.06189">
        <ele>24.2</ele>
        <time>2020-06-24T07:19:22Z</time>
      </trkpt>
      <trkpt lat="50.63912" lon="3.06191">
        <ele>24.2</ele>
        <time>2020-06-24T07:19:23Z</time>
      </trkpt>
      <trkpt lat="50.63911" lon="3.06191">
        <ele>24.2</ele>
        <time>2020-06-24T07:19:24Z</time>
      </trkpt>
      <trkpt lat="50.63908" lon="3.06193">
        <ele>24.2</ele>
        <time>2020-06-24T07:19:25Z</time>
      </trkpt>
      <trkpt lat="50.63907" lon="3.06194">
        <ele>24.2</ele>
        <time>2020-06-24T07:19:26Z</time>
      </trkpt>
      <trkpt lat="50.63904" lon="3.06195">
        <ele>24.2</ele>
        <time>2020-06-24T07:19:27Z</time>
      </trkpt>
      <trkpt lat="50.63902" lon="3.06195">
        <ele>24.1</ele>
        <time>2020-06-24T07:19:28Z</time>
      </trkpt>
      <trkpt lat="50.63901" lon="3.06196">
        <ele>24.1</ele>
        <time>2020-06-24T07:19:29Z</time>
      </trkpt>
      <trkpt lat="50.63899" lon="3.06197">
        <ele>24.1</ele>
        <time>2020-06-24T07:19:30Z</time>
      </trkpt>
      <trkpt lat="50.63898" lon="3.06198">
        <ele>24.1</ele>
        <time>2020-06-24T07:19:31Z</time>
      </trkpt>
      <trkpt lat="50.63897" lon="3.06201">
        <ele>24.1</ele>
        <time>2020-06-24T07:19:32Z</time>
      </trkpt>
      <trkpt lat="50.63894" lon="3.06203">
        <ele>24.1</ele>
        <time>2020-06-24T07:19:33Z</time>
      </trkpt>
      <trkpt lat="50.63893" lon="3.06204">
        <ele>24.1</ele>
        <time>2020-06-24T07:19:34Z</time>
      </trkpt>
      <trkpt lat="50.6389" lon="3.06206">
        <ele>24.1</ele>
        <time>2020-06-24T07:19:35Z</time>
      </trkpt>
      <trkpt lat="50.63888" lon="3.06208">
        <ele>24.1</ele>
        <time>2020-06-24T07:19:36Z</time>
      </trkpt>
      <trkpt lat="50.63885" lon="3.06211">
        <ele>24.1</ele>
        <time>2020-06-24T07:19:37Z</time>
      </trkpt>
      <trkpt lat="50.63882" lon="3.06213">
        <ele>24.1</ele>
        <time>2020-06-24T07:19:38Z</time>
      </trkpt>
      <trkpt lat="50.63879" lon="3.06216">
        <ele>24.2</ele>
        <time>2020-06-24T07:19:39Z</time>
      </trkpt>
      <trkpt lat="50.63878" lon="3.0622">
        <ele>24.2</ele>
        <time>2020-06-24T07:19:40Z</time>
      </trkpt>
      <trkpt lat="50.63876" lon="3.06224">
        <ele>24.2</ele>
        <time>2020-06-24T07:19:41Z</time>
      </trkpt>
      <trkpt lat="50.63874" lon="3.06228">
        <ele>24.3</ele>
        <time>2020-06-24T07:19:42Z</time>
      </trkpt>
      <trkpt lat="50.63872" lon="3.06232">
        <ele>24.3</ele>
        <time>2020-06-24T07:19:43Z</time>
      </trkpt>
      <trkpt lat="50.63869" lon="3.06236">
        <ele>24.3</ele>
        <time>2020-06-24T07:19:44Z</time>
      </trkpt>
      <trkpt lat="50.63867" lon="3.06239">
        <ele>24.4</ele>
        <time>2020-06-24T07:19:45Z</time>
      </trkpt>
      <trkpt lat="50.63865" lon="3.06242">
        <ele>24.4</ele>
        <time>2020-06-24T07:19:46Z</time>
      </trkpt>
      <trkpt lat="50.63862" lon="3.06246">
        <ele>24.5</ele>
        <time>2020-06-24T07:19:47Z</time>
      </trkpt>
      <trkpt lat="50.63859" lon="3.0625">
        <ele>24.5</ele>
        <time>2020-06-24T07:19:48Z</time>
      </trkpt>
      <trkpt lat="50.63856" lon="3.06252">
        <ele>24.6</ele>
        <time>2020-06-24T07:19:49Z</time>
      </trkpt>
      <trkpt lat="50.63853" lon="3.06254">
        <ele>24.6</ele>
        <time>2020-06-24T07:19:50Z</time>
      </trkpt>
      <trkpt lat="50.63852" lon="3.06258">
        <ele>24.7</ele>
        <time>2020-06-24T07:19:51Z</time>
      </trkpt>
      <trkpt lat="50.6385" lon="3.06262">
        <ele>24.7</ele>
        <time>2020-06-24T07:19:52Z</time>
      </trkpt>
      <trkpt lat="50.63849" lon="3.06263">
        <ele>24.7</ele>
        <time>2020-06-24T07:19:53Z</time>
      </trkpt>
      <trkpt lat="50.63847" lon="3.06268">
        <ele>24.8</ele>
        <time>2020-06-24T07:19:54Z</time>
      </trkpt>
      <trkpt lat="50.63846" lon="3.0627">
        <ele>24.8</ele>
        <time>2020-06-24T07:19:55Z</time>
      </trkpt>
      <trkpt lat="50.63844" lon="3.06274">
        <ele>24.9</ele>
        <time>2020-06-24T07:19:56Z</time>
      </trkpt>
      <trkpt lat="50.63843" lon="3.06278">
        <ele>25</ele>
        <time>2020-06-24T07:19:57Z</time>
      </trkpt>
      <trkpt lat="50.63841" lon="3.06283">
        <ele>25</ele>
        <time>2020-06-24T07:19:58Z</time>
      </trkpt>
      <trkpt lat="50.63839" lon="3.06286">
        <ele>25.1</ele>
        <time>2020-06-24T07:19:59Z</time>
      </trkpt>
      <trkpt lat="50.63838" lon="3.06291">
        <ele>25.1</ele>
        <time>2020-06-24T07:20:00Z</time>
      </trkpt>
      <trkpt lat="50.63837" lon="3.06296">
        <ele>25.1</ele>
        <time>2020-06-24T07:20:01Z</time>
      </trkpt>
      <trkpt lat="50.63836" lon="3.063">
        <ele>25.2</ele>
        <time>2020-06-24T07:20:02Z</time>
      </trkpt>
      <trkpt lat="50.63835" lon="3.06305">
        <ele>25.2</ele>
        <time>2020-06-24T07:20:03Z</time>
      </trkpt>
      <trkpt lat="50.63835" lon="3.0631">
        <ele>25.2</ele>
        <time>2020-06-24T07:20:04Z</time>
      </trkpt>
      <trkpt lat="50.63833" lon="3.06315">
        <ele>25.3</ele>
        <time>2020-06-24T07:20:05Z</time>
      </trkpt>
      <trkpt lat="50.63831" lon="3.06321">
        <ele>25.3</ele>
        <time>2020-06-24T07:20:06Z</time>
      </trkpt>
      <trkpt lat="50.63829" lon="3.06327">
        <ele>25.3</ele>
        <time>2020-06-24T07:20:07Z</time>
      </trkpt>
      <trkpt lat="50.63829" lon="3.06333">
        <ele>25.3</ele>
        <time>2020-06-24T07:20:08Z</time>
      </trkpt>
      <trkpt lat="50.63829" lon="3.06339">
        <ele>25.4</ele>
        <time>2020-06-24T07:20:09Z</time>
      </trkpt>
      <trkpt lat="50.63828" lon="3.06344">
        <ele>25.4</ele>
        <time>2020-06-24T07:20:10Z</time>
      </trkpt>
      <trkpt lat="50.63826" lon="3.06348">
        <ele>25.4</ele>
        <time>2020-06-24T07:20:11Z</time>
      </trkpt>
      <trkpt lat="50.63824" lon="3.06351">
        <ele>25.4</ele>
        <time>2020-06-24T07:20:12Z</time>
      </trkpt>
      <trkpt lat="50.63821" lon="3.06355">
        <ele>25.4</ele>
        <time>2020-06-24T07:20:13Z</time>
      </trkpt>
      <trkpt lat="50.6382" lon="3.06355">
        <ele>25.4</ele>
        <time>2020-06-24T07:20:14Z</time>
      </trkpt>
      <trkpt lat="50.63817" lon="3.06355">
        <ele>25.4</ele>
        <time>2020-06-24T07:20:15Z</time>
      </trkpt>
      <trkpt lat="50.63815" lon="3.06355">
        <ele>25.4</ele>
        <time>2020-06-24T07:20:16Z</time>
      </trkpt>
      <trkpt lat="50.63811" lon="3.06355">
        <ele>25.4</ele>
        <time>2020-06-24T07:20:17Z</time>
      </trkpt>
      <trkpt lat="50.63808" lon="3.06356">
        <ele>25.5</ele>
        <time>2020-06-24T07:20:18Z</time>
      </trkpt>
      <trkpt lat="50.63806" lon="3.06359">
        <ele>25.5</ele>
        <time>2020-06-24T07:20:19Z</time>
      </trkpt>
      <trkpt lat="50.63802" lon="3.0636">
        <ele>25.5</ele>
        <time>2020-06-24T07:20:20Z</time>
      </trkpt>
      <trkpt lat="50.63801" lon="3.0636">
        <ele>25.5</ele>
        <time>2020-06-24T07:20:21Z</time>
      </trkpt>
      <trkpt lat="50.63799" lon="3.0636">
        <ele>25.5</ele>
        <time>2020-06-24T07:20:22Z</time>
      </trkpt>
      <trkpt lat="50.63798" lon="3.0636">
        <ele>25.5</ele>
        <time>2020-06-24T07:20:23Z</time>
      </trkpt>
      <trkpt lat="50.63797" lon="3.06361">
        <ele>25.5</ele>
        <time>2020-06-24T07:20:24Z</time>
      </trkpt>
      <trkpt lat="50.63797" lon="3.06362">
        <ele>25.5</ele>
        <time>2020-06-24T07:20:25Z</time>
      </trkpt>
      <trkpt lat="50.63796" lon="3.06362">
        <ele>25.5</ele>
        <time>2020-06-24T07:20:26Z</time>
      </trkpt>
      <trkpt lat="50.63795" lon="3.06364">
        <ele>25.5</ele>
        <time>2020-06-24T07:20:27Z</time>
      </trkpt>
      <trkpt lat="50.63795" lon="3.06363">
        <ele>25.5</ele>
        <time>2020-06-24T07:20:28Z</time>
      </trkpt>
      <trkpt lat="50.63795" lon="3.06364">
        <ele>25.5</ele>
        <time>2020-06-24T07:20:29Z</time>
      </trkpt>
      <trkpt lat="50.63794" lon="3.06364">
        <ele>25.5</ele>
        <time>2020-06-24T07:20:30Z</time>
      </trkpt>
      <trkpt lat="50.63794" lon="3.06365">
        <ele>25.5</ele>
        <time>2020-06-24T07:20:31Z</time>
      </trkpt>
      <trkpt lat="50.63794" lon="3.06369">
        <ele>25.5</ele>
        <time>2020-06-24T07:20:32Z</time>
      </trkpt>
      <trkpt lat="50.63794" lon="3.06369">
        <ele>25.5</ele>
        <time>2020-06-24T07:20:33Z</time>
      </trkpt>
      <trkpt lat="50.63793" lon="3.06367">
        <ele>25.5</ele>
        <time>2020-06-24T07:20:34Z</time>
      </trkpt>
      <trkpt lat="50.63793" lon="3.06367">
        <ele>25.5</ele>
        <time>2020-06-24T07:20:35Z</time>
      </trkpt>
      <trkpt lat="50.63793" lon="3.0637">
        <ele>25.5</ele>
        <time>2020-06-24T07:20:36Z</time>
      </trkpt>
      <trkpt lat="50.63792" lon="3.0637">
        <ele>25.5</ele>
        <time>2020-06-24T07:20:37Z</time>
      </trkpt>
      <trkpt lat="50.63793" lon="3.06372">
        <ele>25.5</ele>
        <time>2020-06-24T07:20:38Z</time>
      </trkpt>
      <trkpt lat="50.63793" lon="3.06374">
        <ele>25.5</ele>
        <time>2020-06-24T07:20:39Z</time>
      </trkpt>
      <trkpt lat="50.63793" lon="3.06375">
        <ele>25.5</ele>
        <time>2020-06-24T07:20:40Z</time>
      </trkpt>
      <trkpt lat="50.63792" lon="3.06374">
        <ele>25.5</ele>
        <time>2020-06-24T07:20:41Z</time>
      </trkpt>
      <trkpt lat="50.63792" lon="3.06374">
        <ele>25.5</ele>
        <time>2020-06-24T07:20:42Z</time>
      </trkpt>
      <trkpt lat="50.63792" lon="3.06374">
        <ele>25.5</ele>
        <time>2020-06-24T07:20:43Z</time>
      </trkpt>
      <trkpt lat="50.63792" lon="3.06375">
        <ele>25.5</ele>
        <time>2020-06-24T07:20:44Z</time>
      </trkpt>
      <trkpt lat="50.63792" lon="3.06377">
        <ele>25.5</ele>
        <time>2020-06-24T07:20:45Z</time>
      </trkpt>
      <trkpt lat="50.63793" lon="3.06379">
        <ele>25.4</ele>
        <time>2020-06-24T07:20:46Z</time>
      </trkpt>
      <trkpt lat="50.63793" lon="3.0638">
        <ele>25.4</ele>
        <time>2020-06-24T07:20:47Z</time>
      </trkpt>
      <trkpt lat="50.63793" lon="3.06381">
        <ele>25.4</ele>
        <time>2020-06-24T07:20:48Z</time>
      </trkpt>
      <trkpt lat="50.63793" lon="3.06383">
        <ele>25.4</ele>
        <time>2020-06-24T07:20:49Z</time>
      </trkpt>
      <trkpt lat="50.63793" lon="3.06385">
        <ele>25.4</ele>
        <time>2020-06-24T07:20:50Z</time>
      </trkpt>
      <trkpt lat="50.63793" lon="3.06385">
        <ele>25.4</ele>
        <time>2020-06-24T07:20:51Z</time>
      </trkpt>
      <trkpt lat="50.63792" lon="3.06386">
        <ele>25.4</ele>
        <time>2020-06-24T07:20:52Z</time>
      </trkpt>
      <trkpt lat="50.63792" lon="3.06387">
        <ele>25.4</ele>
        <time>2020-06-24T07:20:53Z</time>
      </trkpt>
      <trkpt lat="50.63792" lon="3.06387">
        <ele>25.4</ele>
        <time>2020-06-24T07:20:54Z</time>
      </trkpt>
      <trkpt lat="50.63784" lon="3.06387">
        <ele>25.3</ele>
        <time>2020-06-24T07:21:49Z</time>
      </trkpt>
      <trkpt lat="50.63784" lon="3.06384">
        <ele>25.3</ele>
        <time>2020-06-24T07:21:50Z</time>
      </trkpt>
      <trkpt lat="50.63784" lon="3.06384">
        <ele>25.7</ele>
        <time>2020-06-24T07:21:51Z</time>
      </trkpt>
      <trkpt lat="50.63783" lon="3.06383">
        <ele>25.7</ele>
        <time>2020-06-24T07:21:52Z</time>
      </trkpt>
      <trkpt lat="50.63784" lon="3.06384">
        <ele>25.7</ele>
        <time>2020-06-24T07:21:53Z</time>
      </trkpt>
      <trkpt lat="50.63783" lon="3.06385">
        <ele>25.8</ele>
        <time>2020-06-24T07:21:54Z</time>
      </trkpt>
      <trkpt lat="50.63783" lon="3.06387">
        <ele>25.8</ele>
        <time>2020-06-24T07:21:55Z</time>
      </trkpt>
      <trkpt lat="50.63782" lon="3.06389">
        <ele>25.8</ele>
        <time>2020-06-24T07:21:56Z</time>
      </trkpt>
      <trkpt lat="50.63781" lon="3.0639">
        <ele>25.8</ele>
        <time>2020-06-24T07:21:57Z</time>
      </trkpt>
      <trkpt lat="50.63781" lon="3.06391">
        <ele>25.9</ele>
        <time>2020-06-24T07:21:58Z</time>
      </trkpt>
      <trkpt lat="50.6378" lon="3.06392">
        <ele>25.9</ele>
        <time>2020-06-24T07:21:59Z</time>
      </trkpt>
      <trkpt lat="50.63779" lon="3.06392">
        <ele>25.9</ele>
        <time>2020-06-24T07:22:00Z</time>
      </trkpt>
      <trkpt lat="50.63779" lon="3.06391">
        <ele>25.9</ele>
        <time>2020-06-24T07:22:01Z</time>
      </trkpt>
      <trkpt lat="50.63778" lon="3.06391">
        <ele>25.9</ele>
        <time>2020-06-24T07:22:02Z</time>
      </trkpt>
      <trkpt lat="50.63778" lon="3.0639">
        <ele>25.9</ele>
        <time>2020-06-24T07:22:03Z</time>
      </trkpt>
      <trkpt lat="50.63778" lon="3.0639">
        <ele>25.9</ele>
        <time>2020-06-24T07:22:04Z</time>
      </trkpt>
      <trkpt lat="50.63777" lon="3.0639">
        <ele>25.9</ele>
        <time>2020-06-24T07:22:05Z</time>
      </trkpt>
      <trkpt lat="50.63777" lon="3.0639">
        <ele>25.9</ele>
        <time>2020-06-24T07:22:06Z</time>
      </trkpt>
      <trkpt lat="50.63777" lon="3.0639">
        <ele>25.9</ele>
        <time>2020-06-24T07:22:07Z</time>
      </trkpt>
      <trkpt lat="50.63777" lon="3.0639">
        <ele>26</ele>
        <time>2020-06-24T07:22:08Z</time>
      </trkpt>
      <trkpt lat="50.63777" lon="3.0639">
        <ele>26</ele>
        <time>2020-06-24T07:22:09Z</time>
      </trkpt>
      <trkpt lat="50.63777" lon="3.0639">
        <ele>26</ele>
        <time>2020-06-24T07:22:10Z</time>
      </trkpt>
      <trkpt lat="50.63776" lon="3.0639">
        <ele>26</ele>
        <time>2020-06-24T07:22:11Z</time>
      </trkpt>
      <trkpt lat="50.63776" lon="3.06391">
        <ele>26</ele>
        <time>2020-06-24T07:22:12Z</time>
      </trkpt>
      <trkpt lat="50.63776" lon="3.06391">
        <ele>26</ele>
        <time>2020-06-24T07:22:13Z</time>
      </trkpt>
      <trkpt lat="50.63776" lon="3.06391">
        <ele>26</ele>
        <time>2020-06-24T07:22:14Z</time>
      </trkpt>
      <trkpt lat="50.63772" lon="3.06388">
        <ele>26.1</ele>
        <time>2020-06-24T07:25:06Z</time>
      </trkpt>
      <trkpt lat="50.63771" lon="3.06389">
        <ele>26.1</ele>
        <time>2020-06-24T07:25:07Z</time>
      </trkpt>
      <trkpt lat="50.63771" lon="3.0639">
        <ele>26.1</ele>
        <time>2020-06-24T07:25:08Z</time>
      </trkpt>
      <trkpt lat="50.63771" lon="3.0639">
        <ele>26.1</ele>
        <time>2020-06-24T07:25:09Z</time>
      </trkpt>
      <trkpt lat="50.63771" lon="3.0639">
        <ele>26.1</ele>
        <time>2020-06-24T07:25:10Z</time>
      </trkpt>
      <trkpt lat="50.63771" lon="3.0639">
        <ele>26.1</ele>
        <time>2020-06-24T07:25:11Z</time>
      </trkpt>
      <trkpt lat="50.63771" lon="3.0639">
        <ele>26.1</ele>
        <time>2020-06-24T07:25:12Z</time>
      </trkpt>
      <trkpt lat="50.63771" lon="3.0639">
        <ele>26.1</ele>
        <time>2020-06-24T07:25:13Z</time>
      </trkpt>
      <trkpt lat="50.63771" lon="3.0639">
        <ele>26.1</ele>
        <time>2020-06-24T07:25:14Z</time>
      </trkpt>
      <trkpt lat="50.63771" lon="3.0639">
        <ele>26.1</ele>
        <time>2020-06-24T07:25:15Z</time>
      </trkpt>
      <trkpt lat="50.63771" lon="3.0639">
        <ele>26.1</ele>
        <time>2020-06-24T07:25:16Z</time>
      </trkpt>
      <trkpt lat="50.6377" lon="3.06391">
        <ele>26.1</ele>
        <time>2020-06-24T07:25:17Z</time>
      </trkpt>
      <trkpt lat="50.63769" lon="3.0639">
        <ele>26.1</ele>
        <time>2020-06-24T07:25:18Z</time>
      </trkpt>
      <trkpt lat="50.63769" lon="3.06389">
        <ele>26.1</ele>
        <time>2020-06-24T07:25:19Z</time>
      </trkpt>
      <trkpt lat="50.63769" lon="3.06388">
        <ele>26.2</ele>
        <time>2020-06-24T07:25:20Z</time>
      </trkpt>
      <trkpt lat="50.6377" lon="3.06387">
        <ele>26.2</ele>
        <time>2020-06-24T07:25:21Z</time>
      </trkpt>
      <trkpt lat="50.6377" lon="3.06386">
        <ele>26.2</ele>
        <time>2020-06-24T07:25:22Z</time>
      </trkpt>
      <trkpt lat="50.6377" lon="3.06386">
        <ele>26.2</ele>
        <time>2020-06-24T07:25:23Z</time>
      </trkpt>
      <trkpt lat="50.6377" lon="3.06385">
        <ele>26.2</ele>
        <time>2020-06-24T07:25:24Z</time>
      </trkpt>
      <trkpt lat="50.6377" lon="3.06384">
        <ele>26.2</ele>
        <time>2020-06-24T07:25:25Z</time>
      </trkpt>
      <trkpt lat="50.6377" lon="3.06383">
        <ele>26.2</ele>
        <time>2020-06-24T07:25:26Z</time>
      </trkpt>
      <trkpt lat="50.6377" lon="3.06382">
        <ele>26.2</ele>
        <time>2020-06-24T07:25:27Z</time>
      </trkpt>
      <trkpt lat="50.6377" lon="3.06381">
        <ele>26.2</ele>
        <time>2020-06-24T07:25:28Z</time>
      </trkpt>
      <trkpt lat="50.63771" lon="3.06381">
        <ele>26.3</ele>
        <time>2020-06-24T07:27:08Z</time>
      </trkpt>
      <trkpt lat="50.63771" lon="3.0638">
        <ele>26.3</ele>
        <time>2020-06-24T07:27:09Z</time>
      </trkpt>
      <trkpt lat="50.63769" lon="3.06378">
        <ele>26.3</ele>
        <time>2020-06-24T07:27:10Z</time>
      </trkpt>
      <trkpt lat="50.63768" lon="3.06377">
        <ele>26.3</ele>
        <time>2020-06-24T07:27:11Z</time>
      </trkpt>
      <trkpt lat="50.63767" lon="3.06376">
        <ele>26.4</ele>
        <time>2020-06-24T07:27:12Z</time>
      </trkpt>
      <trkpt lat="50.63766" lon="3.06375">
        <ele>26.4</ele>
        <time>2020-06-24T07:27:13Z</time>
      </trkpt>
      <trkpt lat="50.63766" lon="3.06374">
        <ele>26.4</ele>
        <time>2020-06-24T07:27:14Z</time>
      </trkpt>
      <trkpt lat="50.63766" lon="3.06371">
        <ele>26.4</ele>
        <time>2020-06-24T07:27:15Z</time>
      </trkpt>
      <trkpt lat="50.63765" lon="3.06369">
        <ele>26.5</ele>
        <time>2020-06-24T07:27:16Z</time>
      </trkpt>
      <trkpt lat="50.63765" lon="3.06368">
        <ele>26.6</ele>
        <time>2020-06-24T07:27:17Z</time>
      </trkpt>
      <trkpt lat="50.63764" lon="3.06363">
        <ele>26.8</ele>
        <time>2020-06-24T07:27:18Z</time>
      </trkpt>
      <trkpt lat="50.63763" lon="3.06361">
        <ele>26.9</ele>
        <time>2020-06-24T07:27:19Z</time>
      </trkpt>
      <trkpt lat="50.63761" lon="3.06358">
        <ele>27.1</ele>
        <time>2020-06-24T07:27:20Z</time>
      </trkpt>
      <trkpt lat="50.63758" lon="3.06356">
        <ele>27.3</ele>
        <time>2020-06-24T07:27:21Z</time>
      </trkpt>
      <trkpt lat="50.63756" lon="3.06354">
        <ele>27.5</ele>
        <time>2020-06-24T07:27:22Z</time>
      </trkpt>
      <trkpt lat="50.63753" lon="3.06352">
        <ele>27.8</ele>
        <time>2020-06-24T07:27:23Z</time>
      </trkpt>
      <trkpt lat="50.63752" lon="3.06345">
        <ele>28.1</ele>
        <time>2020-06-24T07:27:24Z</time>
      </trkpt>
      <trkpt lat="50.63752" lon="3.06335">
        <ele>24.8</ele>
        <time>2020-06-24T07:27:25Z</time>
      </trkpt>
      <trkpt lat="50.63752" lon="3.06327">
        <ele>24.8</ele>
        <time>2020-06-24T07:27:26Z</time>
      </trkpt>
      <trkpt lat="50.63749" lon="3.06325">
        <ele>24.8</ele>
        <time>2020-06-24T07:27:27Z</time>
      </trkpt>
      <trkpt lat="50.63748" lon="3.06325">
        <ele>24.8</ele>
        <time>2020-06-24T07:27:28Z</time>
      </trkpt>
      <trkpt lat="50.63747" lon="3.06323">
        <ele>24.8</ele>
        <time>2020-06-24T07:27:29Z</time>
      </trkpt>
      <trkpt lat="50.63746" lon="3.06322">
        <ele>24.8</ele>
        <time>2020-06-24T07:27:30Z</time>
      </trkpt>
      <trkpt lat="50.63745" lon="3.06321">
        <ele>24.8</ele>
        <time>2020-06-24T07:27:31Z</time>
      </trkpt>
      <trkpt lat="50.63745" lon="3.06321">
        <ele>24.8</ele>
        <time>2020-06-24T07:27:32Z</time>
      </trkpt>
      <trkpt lat="50.6374" lon="3.06321">
        <ele>24.6</ele>
        <time>2020-06-24T07:27:33Z</time>
      </trkpt>
      <trkpt lat="50.63739" lon="3.06322">
        <ele>24.5</ele>
        <time>2020-06-24T07:27:34Z</time>
      </trkpt>
      <trkpt lat="50.63736" lon="3.0632">
        <ele>24.4</ele>
        <time>2020-06-24T07:27:35Z</time>
      </trkpt>
      <trkpt lat="50.63733" lon="3.06319">
        <ele>24.3</ele>
        <time>2020-06-24T07:27:36Z</time>
      </trkpt>
      <trkpt lat="50.6373" lon="3.0632">
        <ele>24.2</ele>
        <time>2020-06-24T07:27:37Z</time>
      </trkpt>
      <trkpt lat="50.63727" lon="3.0632">
        <ele>24.1</ele>
        <time>2020-06-24T07:27:38Z</time>
      </trkpt>
      <trkpt lat="50.63724" lon="3.06319">
        <ele>24</ele>
        <time>2020-06-24T07:27:39Z</time>
      </trkpt>
      <trkpt lat="50.63721" lon="3.06319">
        <ele>24.2</ele>
        <time>2020-06-24T07:27:40Z</time>
      </trkpt>
      <trkpt lat="50.6372" lon="3.06319">
        <ele>24.3</ele>
        <time>2020-06-24T07:27:41Z</time>
      </trkpt>
      <trkpt lat="50.63717" lon="3.0632">
        <ele>24.4</ele>
        <time>2020-06-24T07:27:42Z</time>
      </trkpt>
      <trkpt lat="50.63715" lon="3.0632">
        <ele>24.6</ele>
        <time>2020-06-24T07:27:43Z</time>
      </trkpt>
      <trkpt lat="50.63713" lon="3.06321">
        <ele>24.8</ele>
        <time>2020-06-24T07:27:44Z</time>
      </trkpt>
      <trkpt lat="50.63709" lon="3.06323">
        <ele>25</ele>
        <time>2020-06-24T07:27:45Z</time>
      </trkpt>
      <trkpt lat="50.63706" lon="3.06325">
        <ele>25.1</ele>
        <time>2020-06-24T07:27:46Z</time>
      </trkpt>
      <trkpt lat="50.63703" lon="3.06327">
        <ele>25.3</ele>
        <time>2020-06-24T07:27:47Z</time>
      </trkpt>
      <trkpt lat="50.637" lon="3.06327">
        <ele>25.5</ele>
        <time>2020-06-24T07:27:48Z</time>
      </trkpt>
      <trkpt lat="50.63696" lon="3.06328">
        <ele>25.7</ele>
        <time>2020-06-24T07:27:49Z</time>
      </trkpt>
      <trkpt lat="50.63695" lon="3.06328">
        <ele>25.8</ele>
        <time>2020-06-24T07:27:50Z</time>
      </trkpt>
      <trkpt lat="50.63692" lon="3.06327">
        <ele>26</ele>
        <time>2020-06-24T07:27:51Z</time>
      </trkpt>
      <trkpt lat="50.63689" lon="3.06329">
        <ele>26.2</ele>
        <time>2020-06-24T07:27:52Z</time>
      </trkpt>
      <trkpt lat="50.63685" lon="3.06329">
        <ele>26.4</ele>
        <time>2020-06-24T07:27:53Z</time>
      </trkpt>
      <trkpt lat="50.63681" lon="3.06329">
        <ele>26.5</ele>
        <time>2020-06-24T07:27:54Z</time>
      </trkpt>
      <trkpt lat="50.63677" lon="3.06331">
        <ele>26.8</ele>
        <time>2020-06-24T07:27:55Z</time>
      </trkpt>
      <trkpt lat="50.63674" lon="3.06334">
        <ele>26.9</ele>
        <time>2020-06-24T07:27:56Z</time>
      </trkpt>
      <trkpt lat="50.6367" lon="3.06335">
        <ele>27.1</ele>
        <time>2020-06-24T07:27:57Z</time>
      </trkpt>
      <trkpt lat="50.63667" lon="3.06337">
        <ele>27.3</ele>
        <time>2020-06-24T07:27:58Z</time>
      </trkpt>
      <trkpt lat="50.63664" lon="3.06339">
        <ele>27.5</ele>
        <time>2020-06-24T07:27:59Z</time>
      </trkpt>
      <trkpt lat="50.63661" lon="3.06341">
        <ele>27.6</ele>
        <time>2020-06-24T07:28:00Z</time>
      </trkpt>
      <trkpt lat="50.63658" lon="3.06343">
        <ele>27.8</ele>
        <time>2020-06-24T07:28:01Z</time>
      </trkpt>
      <trkpt lat="50.63655" lon="3.06346">
        <ele>27.9</ele>
        <time>2020-06-24T07:28:02Z</time>
      </trkpt>
      <trkpt lat="50.63651" lon="3.06347">
        <ele>28.1</ele>
        <time>2020-06-24T07:28:03Z</time>
      </trkpt>
      <trkpt lat="50.63648" lon="3.06349">
        <ele>28.2</ele>
        <time>2020-06-24T07:28:04Z</time>
      </trkpt>
      <trkpt lat="50.63644" lon="3.0635">
        <ele>28.4</ele>
        <time>2020-06-24T07:28:05Z</time>
      </trkpt>
      <trkpt lat="50.63641" lon="3.06352">
        <ele>28.5</ele>
        <time>2020-06-24T07:28:06Z</time>
      </trkpt>
      <trkpt lat="50.63638" lon="3.06353">
        <ele>28.7</ele>
        <time>2020-06-24T07:28:07Z</time>
      </trkpt>
      <trkpt lat="50.63635" lon="3.06353">
        <ele>28.8</ele>
        <time>2020-06-24T07:28:08Z</time>
      </trkpt>
      <trkpt lat="50.63631" lon="3.06354">
        <ele>29</ele>
        <time>2020-06-24T07:28:09Z</time>
      </trkpt>
      <trkpt lat="50.63629" lon="3.06354">
        <ele>28.9</ele>
        <time>2020-06-24T07:28:10Z</time>
      </trkpt>
      <trkpt lat="50.63625" lon="3.06355">
        <ele>28.8</ele>
        <time>2020-06-24T07:28:11Z</time>
      </trkpt>
      <trkpt lat="50.63624" lon="3.06356">
        <ele>28.7</ele>
        <time>2020-06-24T07:28:12Z</time>
      </trkpt>
      <trkpt lat="50.6362" lon="3.06358">
        <ele>28.6</ele>
        <time>2020-06-24T07:28:13Z</time>
      </trkpt>
      <trkpt lat="50.63619" lon="3.06359">
        <ele>28.5</ele>
        <time>2020-06-24T07:28:14Z</time>
      </trkpt>
      <trkpt lat="50.63616" lon="3.06362">
        <ele>28.4</ele>
        <time>2020-06-24T07:28:15Z</time>
      </trkpt>
      <trkpt lat="50.63613" lon="3.06364">
        <ele>28.3</ele>
        <time>2020-06-24T07:28:16Z</time>
      </trkpt>
      <trkpt lat="50.6361" lon="3.06366">
        <ele>28.1</ele>
        <time>2020-06-24T07:28:17Z</time>
      </trkpt>
      <trkpt lat="50.63607" lon="3.06368">
        <ele>28</ele>
        <time>2020-06-24T07:28:18Z</time>
      </trkpt>
      <trkpt lat="50.63605" lon="3.0637">
        <ele>27.9</ele>
        <time>2020-06-24T07:28:19Z</time>
      </trkpt>
      <trkpt lat="50.63602" lon="3.06373">
        <ele>27.7</ele>
        <time>2020-06-24T07:28:20Z</time>
      </trkpt>
      <trkpt lat="50.636" lon="3.06374">
        <ele>27.6</ele>
        <time>2020-06-24T07:28:21Z</time>
      </trkpt>
      <trkpt lat="50.63597" lon="3.06378">
        <ele>27.5</ele>
        <time>2020-06-24T07:28:22Z</time>
      </trkpt>
      <trkpt lat="50.63596" lon="3.06379">
        <ele>27.4</ele>
        <time>2020-06-24T07:28:23Z</time>
      </trkpt>
      <trkpt lat="50.63593" lon="3.06382">
        <ele>27.3</ele>
        <time>2020-06-24T07:28:24Z</time>
      </trkpt>
      <trkpt lat="50.6359" lon="3.06384">
        <ele>27.1</ele>
        <time>2020-06-24T07:28:25Z</time>
      </trkpt>
      <trkpt lat="50.63587" lon="3.06387">
        <ele>26.9</ele>
        <time>2020-06-24T07:28:26Z</time>
      </trkpt>
      <trkpt lat="50.63586" lon="3.06388">
        <ele>26.9</ele>
        <time>2020-06-24T07:28:27Z</time>
      </trkpt>
      <trkpt lat="50.63582" lon="3.0639">
        <ele>26.7</ele>
        <time>2020-06-24T07:28:28Z</time>
      </trkpt>
      <trkpt lat="50.63581" lon="3.06391">
        <ele>26.6</ele>
        <time>2020-06-24T07:28:29Z</time>
      </trkpt>
      <trkpt lat="50.63579" lon="3.06394">
        <ele>26.4</ele>
        <time>2020-06-24T07:28:30Z</time>
      </trkpt>
      <trkpt lat="50.63576" lon="3.06395">
        <ele>26.3</ele>
        <time>2020-06-24T07:28:31Z</time>
      </trkpt>
      <trkpt lat="50.63573" lon="3.06396">
        <ele>26.1</ele>
        <time>2020-06-24T07:28:32Z</time>
      </trkpt>
      <trkpt lat="50.6357" lon="3.06397">
        <ele>25.9</ele>
        <time>2020-06-24T07:28:33Z</time>
      </trkpt>
      <trkpt lat="50.63567" lon="3.06398">
        <ele>25.7</ele>
        <time>2020-06-24T07:28:34Z</time>
      </trkpt>
      <trkpt lat="50.63564" lon="3.06399">
        <ele>25.7</ele>
        <time>2020-06-24T07:28:35Z</time>
      </trkpt>
      <trkpt lat="50.63561" lon="3.06401">
        <ele>25.6</ele>
        <time>2020-06-24T07:28:36Z</time>
      </trkpt>
      <trkpt lat="50.6356" lon="3.06402">
        <ele>25.6</ele>
        <time>2020-06-24T07:28:37Z</time>
      </trkpt>
      <trkpt lat="50.63556" lon="3.06404">
        <ele>25.6</ele>
        <time>2020-06-24T07:28:38Z</time>
      </trkpt>
      <trkpt lat="50.63555" lon="3.06405">
        <ele>25.5</ele>
        <time>2020-06-24T07:28:39Z</time>
      </trkpt>
      <trkpt lat="50.63554" lon="3.06414">
        <ele>25.4</ele>
        <time>2020-06-24T07:28:40Z</time>
      </trkpt>
      <trkpt lat="50.63552" lon="3.06416">
        <ele>25.4</ele>
        <time>2020-06-24T07:28:41Z</time>
      </trkpt>
      <trkpt lat="50.63549" lon="3.06419">
        <ele>25.3</ele>
        <time>2020-06-24T07:28:42Z</time>
      </trkpt>
      <trkpt lat="50.63547" lon="3.06423">
        <ele>25.3</ele>
        <time>2020-06-24T07:28:43Z</time>
      </trkpt>
      <trkpt lat="50.63546" lon="3.06424">
        <ele>25.3</ele>
        <time>2020-06-24T07:28:44Z</time>
      </trkpt>
      <trkpt lat="50.63544" lon="3.06428">
        <ele>25.2</ele>
        <time>2020-06-24T07:28:45Z</time>
      </trkpt>
      <trkpt lat="50.63543" lon="3.0643">
        <ele>25.2</ele>
        <time>2020-06-24T07:28:46Z</time>
      </trkpt>
      <trkpt lat="50.6354" lon="3.06432">
        <ele>25.1</ele>
        <time>2020-06-24T07:28:47Z</time>
      </trkpt>
      <trkpt lat="50.63539" lon="3.06433">
        <ele>25.1</ele>
        <time>2020-06-24T07:28:48Z</time>
      </trkpt>
      <trkpt lat="50.63537" lon="3.06437">
        <ele>25.1</ele>
        <time>2020-06-24T07:28:49Z</time>
      </trkpt>
      <trkpt lat="50.63536" lon="3.06438">
        <ele>25.1</ele>
        <time>2020-06-24T07:28:50Z</time>
      </trkpt>
      <trkpt lat="50.63534" lon="3.06443">
        <ele>25</ele>
        <time>2020-06-24T07:28:51Z</time>
      </trkpt>
      <trkpt lat="50.63534" lon="3.06444">
        <ele>25</ele>
        <time>2020-06-24T07:28:52Z</time>
      </trkpt>
      <trkpt lat="50.63532" lon="3.06446">
        <ele>25</ele>
        <time>2020-06-24T07:28:53Z</time>
      </trkpt>
      <trkpt lat="50.63531" lon="3.06447">
        <ele>25</ele>
        <time>2020-06-24T07:28:54Z</time>
      </trkpt>
      <trkpt lat="50.6353" lon="3.06448">
        <ele>25</ele>
        <time>2020-06-24T07:28:55Z</time>
      </trkpt>
      <trkpt lat="50.6353" lon="3.0645">
        <ele>24.9</ele>
        <time>2020-06-24T07:28:56Z</time>
      </trkpt>
      <trkpt lat="50.63528" lon="3.06452">
        <ele>24.9</ele>
        <time>2020-06-24T07:28:57Z</time>
      </trkpt>
      <trkpt lat="50.63528" lon="3.06453">
        <ele>24.9</ele>
        <time>2020-06-24T07:28:58Z</time>
      </trkpt>
      <trkpt lat="50.63527" lon="3.06455">
        <ele>24.9</ele>
        <time>2020-06-24T07:28:59Z</time>
      </trkpt>
      <trkpt lat="50.63526" lon="3.06459">
        <ele>24.9</ele>
        <time>2020-06-24T07:29:00Z</time>
      </trkpt>
      <trkpt lat="50.63525" lon="3.06461">
        <ele>24.9</ele>
        <time>2020-06-24T07:29:01Z</time>
      </trkpt>
      <trkpt lat="50.63523" lon="3.06461">
        <ele>24.9</ele>
        <time>2020-06-24T07:29:02Z</time>
      </trkpt>
      <trkpt lat="50.63522" lon="3.06462">
        <ele>24.8</ele>
        <time>2020-06-24T07:29:03Z</time>
      </trkpt>
      <trkpt lat="50.6352" lon="3.06466">
        <ele>24.8</ele>
        <time>2020-06-24T07:29:04Z</time>
      </trkpt>
      <trkpt lat="50.63519" lon="3.06468">
        <ele>24.8</ele>
        <time>2020-06-24T07:29:05Z</time>
      </trkpt>
      <trkpt lat="50.63518" lon="3.06469">
        <ele>24.7</ele>
        <time>2020-06-24T07:29:06Z</time>
      </trkpt>
      <trkpt lat="50.63517" lon="3.06471">
        <ele>24.6</ele>
        <time>2020-06-24T07:29:07Z</time>
      </trkpt>
      <trkpt lat="50.63515" lon="3.06475">
        <ele>24.5</ele>
        <time>2020-06-24T07:29:08Z</time>
      </trkpt>
      <trkpt lat="50.63515" lon="3.06476">
        <ele>24.4</ele>
        <time>2020-06-24T07:29:09Z</time>
      </trkpt>
      <trkpt lat="50.63512" lon="3.06479">
        <ele>24.3</ele>
        <time>2020-06-24T07:29:10Z</time>
      </trkpt>
      <trkpt lat="50.63511" lon="3.0648">
        <ele>24.3</ele>
        <time>2020-06-24T07:29:11Z</time>
      </trkpt>
      <trkpt lat="50.63509" lon="3.06483">
        <ele>24.1</ele>
        <time>2020-06-24T07:29:12Z</time>
      </trkpt>
      <trkpt lat="50.63508" lon="3.06484">
        <ele>24.1</ele>
        <time>2020-06-24T07:29:13Z</time>
      </trkpt>
      <trkpt lat="50.63506" lon="3.06488">
        <ele>24.1</ele>
        <time>2020-06-24T07:29:14Z</time>
      </trkpt>
      <trkpt lat="50.63505" lon="3.06488">
        <ele>24.1</ele>
        <time>2020-06-24T07:29:15Z</time>
      </trkpt>
      <trkpt lat="50.63503" lon="3.06491">
        <ele>24</ele>
        <time>2020-06-24T07:29:16Z</time>
      </trkpt>
      <trkpt lat="50.63502" lon="3.06492">
        <ele>24</ele>
        <time>2020-06-24T07:29:17Z</time>
      </trkpt>
      <trkpt lat="50.635" lon="3.06496">
        <ele>24</ele>
        <time>2020-06-24T07:29:18Z</time>
      </trkpt>
      <trkpt lat="50.63499" lon="3.06497">
        <ele>24</ele>
        <time>2020-06-24T07:29:19Z</time>
      </trkpt>
      <trkpt lat="50.63497" lon="3.06499">
        <ele>24</ele>
        <time>2020-06-24T07:29:20Z</time>
      </trkpt>
      <trkpt lat="50.63496" lon="3.06498">
        <ele>23.9</ele>
        <time>2020-06-24T07:29:21Z</time>
      </trkpt>
      <trkpt lat="50.63493" lon="3.06497">
        <ele>23.9</ele>
        <time>2020-06-24T07:29:22Z</time>
      </trkpt>
      <trkpt lat="50.63491" lon="3.06497">
        <ele>23.9</ele>
        <time>2020-06-24T07:29:23Z</time>
      </trkpt>
      <trkpt lat="50.63489" lon="3.06497">
        <ele>23.9</ele>
        <time>2020-06-24T07:29:24Z</time>
      </trkpt>
      <trkpt lat="50.63488" lon="3.06498">
        <ele>23.9</ele>
        <time>2020-06-24T07:29:25Z</time>
      </trkpt>
      <trkpt lat="50.63487" lon="3.065">
        <ele>23.9</ele>
        <time>2020-06-24T07:29:26Z</time>
      </trkpt>
      <trkpt lat="50.63486" lon="3.06501">
        <ele>23.9</ele>
        <time>2020-06-24T07:29:27Z</time>
      </trkpt>
      <trkpt lat="50.63484" lon="3.06503">
        <ele>23.8</ele>
        <time>2020-06-24T07:29:28Z</time>
      </trkpt>
      <trkpt lat="50.63482" lon="3.06506">
        <ele>23.8</ele>
        <time>2020-06-24T07:29:29Z</time>
      </trkpt>
      <trkpt lat="50.63481" lon="3.06507">
        <ele>23.8</ele>
        <time>2020-06-24T07:29:30Z</time>
      </trkpt>
      <trkpt lat="50.63479" lon="3.06508">
        <ele>23.8</ele>
        <time>2020-06-24T07:29:31Z</time>
      </trkpt>
      <trkpt lat="50.63477" lon="3.06508">
        <ele>23.8</ele>
        <time>2020-06-24T07:29:32Z</time>
      </trkpt>
      <trkpt lat="50.63476" lon="3.06512">
        <ele>23.8</ele>
        <time>2020-06-24T07:29:33Z</time>
      </trkpt>
      <trkpt lat="50.63473" lon="3.06516">
        <ele>23.8</ele>
        <time>2020-06-24T07:29:34Z</time>
      </trkpt>
      <trkpt lat="50.63469" lon="3.06516">
        <ele>23.8</ele>
        <time>2020-06-24T07:29:35Z</time>
      </trkpt>
      <trkpt lat="50.63466" lon="3.06517">
        <ele>23.8</ele>
        <time>2020-06-24T07:29:36Z</time>
      </trkpt>
      <trkpt lat="50.63462" lon="3.0652">
        <ele>23.8</ele>
        <time>2020-06-24T07:29:37Z</time>
      </trkpt>
      <trkpt lat="50.63459" lon="3.06524">
        <ele>23.8</ele>
        <time>2020-06-24T07:29:38Z</time>
      </trkpt>
      <trkpt lat="50.63457" lon="3.06527">
        <ele>23.8</ele>
        <time>2020-06-24T07:29:39Z</time>
      </trkpt>
      <trkpt lat="50.63452" lon="3.06531">
        <ele>23.8</ele>
        <time>2020-06-24T07:29:40Z</time>
      </trkpt>
      <trkpt lat="50.63447" lon="3.06531">
        <ele>23.9</ele>
        <time>2020-06-24T07:29:41Z</time>
      </trkpt>
      <trkpt lat="50.63445" lon="3.06532">
        <ele>23.9</ele>
        <time>2020-06-24T07:29:42Z</time>
      </trkpt>
      <trkpt lat="50.63441" lon="3.06536">
        <ele>23.9</ele>
        <time>2020-06-24T07:29:43Z</time>
      </trkpt>
      <trkpt lat="50.63436" lon="3.0654">
        <ele>23.9</ele>
        <time>2020-06-24T07:29:44Z</time>
      </trkpt>
      <trkpt lat="50.63433" lon="3.06541">
        <ele>24</ele>
        <time>2020-06-24T07:29:45Z</time>
      </trkpt>
      <trkpt lat="50.6343" lon="3.06543">
        <ele>24</ele>
        <time>2020-06-24T07:29:46Z</time>
      </trkpt>
      <trkpt lat="50.63427" lon="3.06547">
        <ele>24</ele>
        <time>2020-06-24T07:29:47Z</time>
      </trkpt>
      <trkpt lat="50.63425" lon="3.06552">
        <ele>24</ele>
        <time>2020-06-24T07:29:48Z</time>
      </trkpt>
      <trkpt lat="50.63422" lon="3.06555">
        <ele>24.1</ele>
        <time>2020-06-24T07:29:49Z</time>
      </trkpt>
      <trkpt lat="50.6342" lon="3.06558">
        <ele>24.1</ele>
        <time>2020-06-24T07:29:50Z</time>
      </trkpt>
      <trkpt lat="50.63418" lon="3.06562">
        <ele>24.1</ele>
        <time>2020-06-24T07:29:51Z</time>
      </trkpt>
      <trkpt lat="50.63417" lon="3.06566">
        <ele>24.2</ele>
        <time>2020-06-24T07:29:52Z</time>
      </trkpt>
      <trkpt lat="50.63415" lon="3.06569">
        <ele>24.2</ele>
        <time>2020-06-24T07:29:53Z</time>
      </trkpt>
      <trkpt lat="50.63413" lon="3.06574">
        <ele>24.3</ele>
        <time>2020-06-24T07:29:54Z</time>
      </trkpt>
      <trkpt lat="50.6341" lon="3.06576">
        <ele>24.3</ele>
        <time>2020-06-24T07:29:55Z</time>
      </trkpt>
      <trkpt lat="50.63409" lon="3.06577">
        <ele>24.4</ele>
        <time>2020-06-24T07:29:56Z</time>
      </trkpt>
      <trkpt lat="50.63406" lon="3.0658">
        <ele>24.4</ele>
        <time>2020-06-24T07:29:57Z</time>
      </trkpt>
      <trkpt lat="50.63405" lon="3.06581">
        <ele>24.5</ele>
        <time>2020-06-24T07:29:58Z</time>
      </trkpt>
      <trkpt lat="50.63402" lon="3.06585">
        <ele>24.5</ele>
        <time>2020-06-24T07:29:59Z</time>
      </trkpt>
      <trkpt lat="50.63403" lon="3.0659">
        <ele>24.6</ele>
        <time>2020-06-24T07:30:00Z</time>
      </trkpt>
      <trkpt lat="50.634" lon="3.06594">
        <ele>24.7</ele>
        <time>2020-06-24T07:30:01Z</time>
      </trkpt>
      <trkpt lat="50.63399" lon="3.06598">
        <ele>24.7</ele>
        <time>2020-06-24T07:30:02Z</time>
      </trkpt>
      <trkpt lat="50.63397" lon="3.066">
        <ele>24.7</ele>
        <time>2020-06-24T07:30:03Z</time>
      </trkpt>
      <trkpt lat="50.63396" lon="3.06602">
        <ele>24.8</ele>
        <time>2020-06-24T07:30:04Z</time>
      </trkpt>
      <trkpt lat="50.63395" lon="3.06603">
        <ele>24.8</ele>
        <time>2020-06-24T07:30:05Z</time>
      </trkpt>
      <trkpt lat="50.63395" lon="3.06606">
        <ele>24.8</ele>
        <time>2020-06-24T07:30:06Z</time>
      </trkpt>
      <trkpt lat="50.63394" lon="3.06609">
        <ele>24.9</ele>
        <time>2020-06-24T07:30:07Z</time>
      </trkpt>
      <trkpt lat="50.63394" lon="3.0661">
        <ele>24.9</ele>
        <time>2020-06-24T07:30:08Z</time>
      </trkpt>
      <trkpt lat="50.63393" lon="3.06613">
        <ele>24.9</ele>
        <time>2020-06-24T07:30:09Z</time>
      </trkpt>
      <trkpt lat="50.63393" lon="3.06615">
        <ele>25</ele>
        <time>2020-06-24T07:30:10Z</time>
      </trkpt>
      <trkpt lat="50.63393" lon="3.06616">
        <ele>25</ele>
        <time>2020-06-24T07:30:11Z</time>
      </trkpt>
      <trkpt lat="50.63393" lon="3.06618">
        <ele>25</ele>
        <time>2020-06-24T07:30:12Z</time>
      </trkpt>
      <trkpt lat="50.63392" lon="3.06621">
        <ele>25.1</ele>
        <time>2020-06-24T07:30:13Z</time>
      </trkpt>
      <trkpt lat="50.6339" lon="3.06625">
        <ele>25.1</ele>
        <time>2020-06-24T07:30:14Z</time>
      </trkpt>
      <trkpt lat="50.63389" lon="3.06626">
        <ele>25.1</ele>
        <time>2020-06-24T07:30:15Z</time>
      </trkpt>
      <trkpt lat="50.63388" lon="3.06629">
        <ele>25.2</ele>
        <time>2020-06-24T07:30:16Z</time>
      </trkpt>
      <trkpt lat="50.63387" lon="3.06631">
        <ele>25.2</ele>
        <time>2020-06-24T07:30:17Z</time>
      </trkpt>
      <trkpt lat="50.63385" lon="3.06631">
        <ele>25.3</ele>
        <time>2020-06-24T07:30:18Z</time>
      </trkpt>
      <trkpt lat="50.63384" lon="3.0663">
        <ele>25.3</ele>
        <time>2020-06-24T07:30:19Z</time>
      </trkpt>
      <trkpt lat="50.63382" lon="3.06629">
        <ele>25.3</ele>
        <time>2020-06-24T07:30:20Z</time>
      </trkpt>
      <trkpt lat="50.63381" lon="3.06628">
        <ele>25.3</ele>
        <time>2020-06-24T07:30:21Z</time>
      </trkpt>
      <trkpt lat="50.6338" lon="3.06629">
        <ele>25.4</ele>
        <time>2020-06-24T07:30:22Z</time>
      </trkpt>
      <trkpt lat="50.63379" lon="3.06629">
        <ele>25.4</ele>
        <time>2020-06-24T07:30:23Z</time>
      </trkpt>
      <trkpt lat="50.63379" lon="3.0663">
        <ele>25.4</ele>
        <time>2020-06-24T07:30:24Z</time>
      </trkpt>
      <trkpt lat="50.63377" lon="3.06631">
        <ele>25.4</ele>
        <time>2020-06-24T07:30:25Z</time>
      </trkpt>
      <trkpt lat="50.63375" lon="3.06632">
        <ele>25.4</ele>
        <time>2020-06-24T07:30:26Z</time>
      </trkpt>
      <trkpt lat="50.63373" lon="3.06637">
        <ele>25.4</ele>
        <time>2020-06-24T07:30:27Z</time>
      </trkpt>
      <trkpt lat="50.63373" lon="3.06638">
        <ele>25.4</ele>
        <time>2020-06-24T07:30:28Z</time>
      </trkpt>
      <trkpt lat="50.63371" lon="3.06641">
        <ele>25.5</ele>
        <time>2020-06-24T07:30:29Z</time>
      </trkpt>
      <trkpt lat="50.6337" lon="3.06642">
        <ele>25.5</ele>
        <time>2020-06-24T07:30:30Z</time>
      </trkpt>
      <trkpt lat="50.63366" lon="3.06644">
        <ele>25.5</ele>
        <time>2020-06-24T07:30:31Z</time>
      </trkpt>
      <trkpt lat="50.63365" lon="3.06644">
        <ele>25.5</ele>
        <time>2020-06-24T07:30:32Z</time>
      </trkpt>
      <trkpt lat="50.63362" lon="3.06647">
        <ele>25.6</ele>
        <time>2020-06-24T07:30:33Z</time>
      </trkpt>
      <trkpt lat="50.63359" lon="3.06649">
        <ele>25.6</ele>
        <time>2020-06-24T07:30:34Z</time>
      </trkpt>
      <trkpt lat="50.63355" lon="3.06651">
        <ele>25.6</ele>
        <time>2020-06-24T07:30:35Z</time>
      </trkpt>
      <trkpt lat="50.63352" lon="3.06655">
        <ele>25.7</ele>
        <time>2020-06-24T07:30:36Z</time>
      </trkpt>
      <trkpt lat="50.63349" lon="3.06655">
        <ele>25.7</ele>
        <time>2020-06-24T07:30:37Z</time>
      </trkpt>
      <trkpt lat="50.63345" lon="3.06657">
        <ele>25.7</ele>
        <time>2020-06-24T07:30:38Z</time>
      </trkpt>
      <trkpt lat="50.63341" lon="3.06658">
        <ele>25.7</ele>
        <time>2020-06-24T07:30:39Z</time>
      </trkpt>
      <trkpt lat="50.63336" lon="3.06658">
        <ele>25.8</ele>
        <time>2020-06-24T07:30:40Z</time>
      </trkpt>
      <trkpt lat="50.63331" lon="3.06658">
        <ele>25.7</ele>
        <time>2020-06-24T07:30:41Z</time>
      </trkpt>
      <trkpt lat="50.63328" lon="3.06658">
        <ele>25.7</ele>
        <time>2020-06-24T07:30:42Z</time>
      </trkpt>
      <trkpt lat="50.63323" lon="3.06658">
        <ele>25.7</ele>
        <time>2020-06-24T07:30:43Z</time>
      </trkpt>
      <trkpt lat="50.63319" lon="3.06658">
        <ele>25.7</ele>
        <time>2020-06-24T07:30:44Z</time>
      </trkpt>
      <trkpt lat="50.63314" lon="3.06659">
        <ele>25.7</ele>
        <time>2020-06-24T07:30:45Z</time>
      </trkpt>
      <trkpt lat="50.6331" lon="3.06657">
        <ele>25.8</ele>
        <time>2020-06-24T07:30:46Z</time>
      </trkpt>
      <trkpt lat="50.63304" lon="3.06658">
        <ele>25.9</ele>
        <time>2020-06-24T07:30:47Z</time>
      </trkpt>
      <trkpt lat="50.63299" lon="3.06659">
        <ele>25.9</ele>
        <time>2020-06-24T07:30:48Z</time>
      </trkpt>
      <trkpt lat="50.63295" lon="3.06658">
        <ele>25.9</ele>
        <time>2020-06-24T07:30:49Z</time>
      </trkpt>
      <trkpt lat="50.63291" lon="3.06657">
        <ele>26</ele>
        <time>2020-06-24T07:30:50Z</time>
      </trkpt>
      <trkpt lat="50.63286" lon="3.06655">
        <ele>26</ele>
        <time>2020-06-24T07:30:51Z</time>
      </trkpt>
      <trkpt lat="50.63282" lon="3.06652">
        <ele>26.1</ele>
        <time>2020-06-24T07:30:52Z</time>
      </trkpt>
      <trkpt lat="50.63277" lon="3.0665">
        <ele>26.1</ele>
        <time>2020-06-24T07:30:53Z</time>
      </trkpt>
      <trkpt lat="50.63274" lon="3.06647">
        <ele>26.1</ele>
        <time>2020-06-24T07:30:54Z</time>
      </trkpt>
      <trkpt lat="50.6327" lon="3.06644">
        <ele>26.2</ele>
        <time>2020-06-24T07:30:55Z</time>
      </trkpt>
      <trkpt lat="50.63267" lon="3.06643">
        <ele>26.2</ele>
        <time>2020-06-24T07:30:56Z</time>
      </trkpt>
      <trkpt lat="50.63263" lon="3.06642">
        <ele>26.2</ele>
        <time>2020-06-24T07:30:57Z</time>
      </trkpt>
      <trkpt lat="50.63259" lon="3.06639">
        <ele>26.2</ele>
        <time>2020-06-24T07:30:58Z</time>
      </trkpt>
      <trkpt lat="50.63256" lon="3.06637">
        <ele>26.2</ele>
        <time>2020-06-24T07:30:59Z</time>
      </trkpt>
      <trkpt lat="50.63254" lon="3.06636">
        <ele>26.2</ele>
        <time>2020-06-24T07:31:00Z</time>
      </trkpt>
      <trkpt lat="50.6325" lon="3.06635">
        <ele>26.2</ele>
        <time>2020-06-24T07:31:01Z</time>
      </trkpt>
      <trkpt lat="50.63246" lon="3.06635">
        <ele>26.2</ele>
        <time>2020-06-24T07:31:02Z</time>
      </trkpt>
      <trkpt lat="50.63242" lon="3.06635">
        <ele>26.2</ele>
        <time>2020-06-24T07:31:03Z</time>
      </trkpt>
      <trkpt lat="50.63237" lon="3.06635">
        <ele>26.2</ele>
        <time>2020-06-24T07:31:04Z</time>
      </trkpt>
      <trkpt lat="50.63232" lon="3.06635">
        <ele>26.2</ele>
        <time>2020-06-24T07:31:05Z</time>
      </trkpt>
      <trkpt lat="50.63227" lon="3.06634">
        <ele>26.1</ele>
        <time>2020-06-24T07:31:06Z</time>
      </trkpt>
      <trkpt lat="50.63222" lon="3.06633">
        <ele>26.1</ele>
        <time>2020-06-24T07:31:07Z</time>
      </trkpt>
      <trkpt lat="50.63218" lon="3.06632">
        <ele>26.1</ele>
        <time>2020-06-24T07:31:08Z</time>
      </trkpt>
      <trkpt lat="50.63214" lon="3.06632">
        <ele>26</ele>
        <time>2020-06-24T07:31:09Z</time>
      </trkpt>
      <trkpt lat="50.6321" lon="3.06629">
        <ele>26</ele>
        <time>2020-06-24T07:31:10Z</time>
      </trkpt>
      <trkpt lat="50.63205" lon="3.06626">
        <ele>26</ele>
        <time>2020-06-24T07:31:11Z</time>
      </trkpt>
      <trkpt lat="50.63201" lon="3.06623">
        <ele>26</ele>
        <time>2020-06-24T07:31:12Z</time>
      </trkpt>
      <trkpt lat="50.63196" lon="3.06621">
        <ele>25.9</ele>
        <time>2020-06-24T07:31:13Z</time>
      </trkpt>
      <trkpt lat="50.63192" lon="3.06612">
        <ele>25.9</ele>
        <time>2020-06-24T07:31:14Z</time>
      </trkpt>
      <trkpt lat="50.63188" lon="3.06607">
        <ele>25.9</ele>
        <time>2020-06-24T07:31:15Z</time>
      </trkpt>
      <trkpt lat="50.63185" lon="3.066">
        <ele>25.9</ele>
        <time>2020-06-24T07:31:16Z</time>
      </trkpt>
      <trkpt lat="50.63182" lon="3.066">
        <ele>25.9</ele>
        <time>2020-06-24T07:31:17Z</time>
      </trkpt>
      <trkpt lat="50.63179" lon="3.066">
        <ele>25.9</ele>
        <time>2020-06-24T07:31:18Z</time>
      </trkpt>
      <trkpt lat="50.63176" lon="3.06603">
        <ele>25.9</ele>
        <time>2020-06-24T07:31:19Z</time>
      </trkpt>
      <trkpt lat="50.63172" lon="3.06605">
        <ele>25.9</ele>
        <time>2020-06-24T07:31:20Z</time>
      </trkpt>
      <trkpt lat="50.63171" lon="3.06607">
        <ele>26.2</ele>
        <time>2020-06-24T07:31:21Z</time>
      </trkpt>
      <trkpt lat="50.63167" lon="3.06608">
        <ele>26.2</ele>
        <time>2020-06-24T07:31:22Z</time>
      </trkpt>
      <trkpt lat="50.63166" lon="3.06608">
        <ele>26.2</ele>
        <time>2020-06-24T07:31:23Z</time>
      </trkpt>
      <trkpt lat="50.63163" lon="3.06608">
        <ele>26.2</ele>
        <time>2020-06-24T07:31:24Z</time>
      </trkpt>
      <trkpt lat="50.63159" lon="3.06607">
        <ele>26.2</ele>
        <time>2020-06-24T07:31:25Z</time>
      </trkpt>
      <trkpt lat="50.63158" lon="3.06607">
        <ele>26.2</ele>
        <time>2020-06-24T07:31:26Z</time>
      </trkpt>
      <trkpt lat="50.63154" lon="3.06607">
        <ele>26.2</ele>
        <time>2020-06-24T07:31:27Z</time>
      </trkpt>
      <trkpt lat="50.63153" lon="3.06607">
        <ele>26.2</ele>
        <time>2020-06-24T07:31:28Z</time>
      </trkpt>
      <trkpt lat="50.6315" lon="3.06606">
        <ele>26.1</ele>
        <time>2020-06-24T07:31:29Z</time>
      </trkpt>
      <trkpt lat="50.63149" lon="3.06605">
        <ele>26.1</ele>
        <time>2020-06-24T07:31:30Z</time>
      </trkpt>
      <trkpt lat="50.63146" lon="3.06606">
        <ele>26.1</ele>
        <time>2020-06-24T07:31:31Z</time>
      </trkpt>
      <trkpt lat="50.63145" lon="3.06605">
        <ele>26</ele>
        <time>2020-06-24T07:31:32Z</time>
      </trkpt>
      <trkpt lat="50.63145" lon="3.06606">
        <ele>26</ele>
        <time>2020-06-24T07:31:33Z</time>
      </trkpt>
      <trkpt lat="50.63144" lon="3.06607">
        <ele>26</ele>
        <time>2020-06-24T07:31:34Z</time>
      </trkpt>
      <trkpt lat="50.63144" lon="3.06609">
        <ele>26</ele>
        <time>2020-06-24T07:31:35Z</time>
      </trkpt>
      <trkpt lat="50.63144" lon="3.06609">
        <ele>26</ele>
        <time>2020-06-24T07:31:36Z</time>
      </trkpt>
      <trkpt lat="50.63144" lon="3.0661">
        <ele>26</ele>
        <time>2020-06-24T07:31:37Z</time>
      </trkpt>
      <trkpt lat="50.63143" lon="3.06611">
        <ele>26</ele>
        <time>2020-06-24T07:31:38Z</time>
      </trkpt>
      <trkpt lat="50.63143" lon="3.06611">
        <ele>26</ele>
        <time>2020-06-24T07:31:39Z</time>
      </trkpt>
      <trkpt lat="50.63143" lon="3.06611">
        <ele>26</ele>
        <time>2020-06-24T07:31:40Z</time>
      </trkpt>
      <trkpt lat="50.63142" lon="3.0661">
        <ele>25.9</ele>
        <time>2020-06-24T07:31:41Z</time>
      </trkpt>
      <trkpt lat="50.63142" lon="3.06609">
        <ele>25.9</ele>
        <time>2020-06-24T07:31:42Z</time>
      </trkpt>
      <trkpt lat="50.63141" lon="3.0661">
        <ele>25.9</ele>
        <time>2020-06-24T07:31:43Z</time>
      </trkpt>
      <trkpt lat="50.63139" lon="3.06609">
        <ele>25.9</ele>
        <time>2020-06-24T07:31:44Z</time>
      </trkpt>
      <trkpt lat="50.63138" lon="3.06608">
        <ele>25.9</ele>
        <time>2020-06-24T07:31:45Z</time>
      </trkpt>
      <trkpt lat="50.63136" lon="3.06609">
        <ele>25.8</ele>
        <time>2020-06-24T07:31:46Z</time>
      </trkpt>
      <trkpt lat="50.63135" lon="3.0661">
        <ele>25.8</ele>
        <time>2020-06-24T07:31:47Z</time>
      </trkpt>
      <trkpt lat="50.63134" lon="3.06611">
        <ele>25.8</ele>
        <time>2020-06-24T07:31:48Z</time>
      </trkpt>
      <trkpt lat="50.63134" lon="3.06616">
        <ele>25.8</ele>
        <time>2020-06-24T07:31:49Z</time>
      </trkpt>
      <trkpt lat="50.63134" lon="3.06618">
        <ele>25.7</ele>
        <time>2020-06-24T07:31:50Z</time>
      </trkpt>
      <trkpt lat="50.63135" lon="3.06623">
        <ele>25.7</ele>
        <time>2020-06-24T07:31:51Z</time>
      </trkpt>
      <trkpt lat="50.63135" lon="3.06625">
        <ele>25.7</ele>
        <time>2020-06-24T07:31:52Z</time>
      </trkpt>
      <trkpt lat="50.63136" lon="3.0663">
        <ele>25.6</ele>
        <time>2020-06-24T07:31:53Z</time>
      </trkpt>
      <trkpt lat="50.63137" lon="3.06635">
        <ele>25.6</ele>
        <time>2020-06-24T07:31:54Z</time>
      </trkpt>
      <trkpt lat="50.63139" lon="3.06641">
        <ele>25.5</ele>
        <time>2020-06-24T07:31:55Z</time>
      </trkpt>
      <trkpt lat="50.6314" lon="3.06643">
        <ele>25.5</ele>
        <time>2020-06-24T07:31:56Z</time>
      </trkpt>
      <trkpt lat="50.63143" lon="3.06647">
        <ele>25.4</ele>
        <time>2020-06-24T07:31:57Z</time>
      </trkpt>
      <trkpt lat="50.63145" lon="3.0665">
        <ele>25.4</ele>
        <time>2020-06-24T07:31:58Z</time>
      </trkpt>
      <trkpt lat="50.63147" lon="3.06653">
        <ele>25.4</ele>
        <time>2020-06-24T07:31:59Z</time>
      </trkpt>
      <trkpt lat="50.6315" lon="3.06656">
        <ele>25.4</ele>
        <time>2020-06-24T07:32:00Z</time>
      </trkpt>
      <trkpt lat="50.63153" lon="3.0666">
        <ele>25.4</ele>
        <time>2020-06-24T07:32:01Z</time>
      </trkpt>
      <trkpt lat="50.63154" lon="3.06661">
        <ele>25.4</ele>
        <time>2020-06-24T07:32:02Z</time>
      </trkpt>
      <trkpt lat="50.63157" lon="3.06662">
        <ele>25.4</ele>
        <time>2020-06-24T07:32:03Z</time>
      </trkpt>
      <trkpt lat="50.6316" lon="3.06666">
        <ele>25.4</ele>
        <time>2020-06-24T07:32:04Z</time>
      </trkpt>
      <trkpt lat="50.63161" lon="3.06672">
        <ele>25.6</ele>
        <time>2020-06-24T07:32:05Z</time>
      </trkpt>
      <trkpt lat="50.63162" lon="3.06676">
        <ele>25.7</ele>
        <time>2020-06-24T07:32:06Z</time>
      </trkpt>
      <trkpt lat="50.63164" lon="3.06682">
        <ele>25.8</ele>
        <time>2020-06-24T07:32:07Z</time>
      </trkpt>
      <trkpt lat="50.63164" lon="3.06685">
        <ele>25.8</ele>
        <time>2020-06-24T07:32:08Z</time>
      </trkpt>
      <trkpt lat="50.63164" lon="3.06691">
        <ele>25.9</ele>
        <time>2020-06-24T07:32:09Z</time>
      </trkpt>
      <trkpt lat="50.63166" lon="3.06697">
        <ele>25.9</ele>
        <time>2020-06-24T07:32:10Z</time>
      </trkpt>
      <trkpt lat="50.63167" lon="3.06702">
        <ele>26</ele>
        <time>2020-06-24T07:32:11Z</time>
      </trkpt>
      <trkpt lat="50.63167" lon="3.06708">
        <ele>26.1</ele>
        <time>2020-06-24T07:32:12Z</time>
      </trkpt>
      <trkpt lat="50.63168" lon="3.06714">
        <ele>26.1</ele>
        <time>2020-06-24T07:32:13Z</time>
      </trkpt>
      <trkpt lat="50.63169" lon="3.0672">
        <ele>26.2</ele>
        <time>2020-06-24T07:32:14Z</time>
      </trkpt>
      <trkpt lat="50.6317" lon="3.06725">
        <ele>26.3</ele>
        <time>2020-06-24T07:32:15Z</time>
      </trkpt>
      <trkpt lat="50.6317" lon="3.0673">
        <ele>26.3</ele>
        <time>2020-06-24T07:32:16Z</time>
      </trkpt>
      <trkpt lat="50.63172" lon="3.06735">
        <ele>26.4</ele>
        <time>2020-06-24T07:32:17Z</time>
      </trkpt>
      <trkpt lat="50.63172" lon="3.06741">
        <ele>26.4</ele>
        <time>2020-06-24T07:32:18Z</time>
      </trkpt>
      <trkpt lat="50.63173" lon="3.06746">
        <ele>26.5</ele>
        <time>2020-06-24T07:32:19Z</time>
      </trkpt>
      <trkpt lat="50.63174" lon="3.06751">
        <ele>26.6</ele>
        <time>2020-06-24T07:32:20Z</time>
      </trkpt>
      <trkpt lat="50.63175" lon="3.06756">
        <ele>26.6</ele>
        <time>2020-06-24T07:32:21Z</time>
      </trkpt>
      <trkpt lat="50.63177" lon="3.06761">
        <ele>26.7</ele>
        <time>2020-06-24T07:32:22Z</time>
      </trkpt>
      <trkpt lat="50.63178" lon="3.06766">
        <ele>26.7</ele>
        <time>2020-06-24T07:32:23Z</time>
      </trkpt>
      <trkpt lat="50.63179" lon="3.0677">
        <ele>26.8</ele>
        <time>2020-06-24T07:32:24Z</time>
      </trkpt>
      <trkpt lat="50.63182" lon="3.06774">
        <ele>26.8</ele>
        <time>2020-06-24T07:32:25Z</time>
      </trkpt>
      <trkpt lat="50.63184" lon="3.06779">
        <ele>26.9</ele>
        <time>2020-06-24T07:32:26Z</time>
      </trkpt>
      <trkpt lat="50.63185" lon="3.06784">
        <ele>26.9</ele>
        <time>2020-06-24T07:32:27Z</time>
      </trkpt>
      <trkpt lat="50.63186" lon="3.0679">
        <ele>27</ele>
        <time>2020-06-24T07:32:28Z</time>
      </trkpt>
      <trkpt lat="50.63187" lon="3.06795">
        <ele>27.2</ele>
        <time>2020-06-24T07:32:29Z</time>
      </trkpt>
      <trkpt lat="50.63189" lon="3.06799">
        <ele>27.3</ele>
        <time>2020-06-24T07:32:30Z</time>
      </trkpt>
      <trkpt lat="50.6319" lon="3.06803">
        <ele>27.3</ele>
        <time>2020-06-24T07:32:31Z</time>
      </trkpt>
      <trkpt lat="50.63191" lon="3.06808">
        <ele>27.4</ele>
        <time>2020-06-24T07:32:32Z</time>
      </trkpt>
      <trkpt lat="50.63193" lon="3.06813">
        <ele>27.5</ele>
        <time>2020-06-24T07:32:33Z</time>
      </trkpt>
      <trkpt lat="50.63194" lon="3.06819">
        <ele>27.5</ele>
        <time>2020-06-24T07:32:34Z</time>
      </trkpt>
      <trkpt lat="50.63196" lon="3.06825">
        <ele>27.6</ele>
        <time>2020-06-24T07:32:35Z</time>
      </trkpt>
      <trkpt lat="50.63197" lon="3.06831">
        <ele>27.6</ele>
        <time>2020-06-24T07:32:36Z</time>
      </trkpt>
      <trkpt lat="50.63198" lon="3.06837">
        <ele>27.7</ele>
        <time>2020-06-24T07:32:37Z</time>
      </trkpt>
      <trkpt lat="50.632" lon="3.06843">
        <ele>27.9</ele>
        <time>2020-06-24T07:32:38Z</time>
      </trkpt>
      <trkpt lat="50.63202" lon="3.0685">
        <ele>27.9</ele>
        <time>2020-06-24T07:32:39Z</time>
      </trkpt>
      <trkpt lat="50.63202" lon="3.06856">
        <ele>28</ele>
        <time>2020-06-24T07:32:40Z</time>
      </trkpt>
      <trkpt lat="50.63203" lon="3.06862">
        <ele>28</ele>
        <time>2020-06-24T07:32:41Z</time>
      </trkpt>
      <trkpt lat="50.63204" lon="3.06868">
        <ele>28</ele>
        <time>2020-06-24T07:32:42Z</time>
      </trkpt>
      <trkpt lat="50.63205" lon="3.06874">
        <ele>28.1</ele>
        <time>2020-06-24T07:32:43Z</time>
      </trkpt>
      <trkpt lat="50.63206" lon="3.0688">
        <ele>28.1</ele>
        <time>2020-06-24T07:32:44Z</time>
      </trkpt>
      <trkpt lat="50.63207" lon="3.06887">
        <ele>28.1</ele>
        <time>2020-06-24T07:32:45Z</time>
      </trkpt>
      <trkpt lat="50.63208" lon="3.06893">
        <ele>28.1</ele>
        <time>2020-06-24T07:32:46Z</time>
      </trkpt>
      <trkpt lat="50.63209" lon="3.069">
        <ele>28</ele>
        <time>2020-06-24T07:32:47Z</time>
      </trkpt>
      <trkpt lat="50.63211" lon="3.06906">
        <ele>28</ele>
        <time>2020-06-24T07:32:48Z</time>
      </trkpt>
      <trkpt lat="50.63212" lon="3.06913">
        <ele>28</ele>
        <time>2020-06-24T07:32:49Z</time>
      </trkpt>
      <trkpt lat="50.63214" lon="3.0692">
        <ele>28</ele>
        <time>2020-06-24T07:32:50Z</time>
      </trkpt>
      <trkpt lat="50.63215" lon="3.06926">
        <ele>27.9</ele>
        <time>2020-06-24T07:32:51Z</time>
      </trkpt>
      <trkpt lat="50.63216" lon="3.06933">
        <ele>27.9</ele>
        <time>2020-06-24T07:32:52Z</time>
      </trkpt>
      <trkpt lat="50.63217" lon="3.06939">
        <ele>27.8</ele>
        <time>2020-06-24T07:32:53Z</time>
      </trkpt>
      <trkpt lat="50.63218" lon="3.06945">
        <ele>27.8</ele>
        <time>2020-06-24T07:32:54Z</time>
      </trkpt>
      <trkpt lat="50.63219" lon="3.06951">
        <ele>27.7</ele>
        <time>2020-06-24T07:32:55Z</time>
      </trkpt>
      <trkpt lat="50.6322" lon="3.06957">
        <ele>27.7</ele>
        <time>2020-06-24T07:32:56Z</time>
      </trkpt>
      <trkpt lat="50.63221" lon="3.06963">
        <ele>27.6</ele>
        <time>2020-06-24T07:32:57Z</time>
      </trkpt>
      <trkpt lat="50.63222" lon="3.0697">
        <ele>27.6</ele>
        <time>2020-06-24T07:32:58Z</time>
      </trkpt>
      <trkpt lat="50.63224" lon="3.06976">
        <ele>27.5</ele>
        <time>2020-06-24T07:32:59Z</time>
      </trkpt>
      <trkpt lat="50.63225" lon="3.06982">
        <ele>27.5</ele>
        <time>2020-06-24T07:33:00Z</time>
      </trkpt>
      <trkpt lat="50.63226" lon="3.06987">
        <ele>27.5</ele>
        <time>2020-06-24T07:33:01Z</time>
      </trkpt>
      <trkpt lat="50.63227" lon="3.06993">
        <ele>27.5</ele>
        <time>2020-06-24T07:33:02Z</time>
      </trkpt>
      <trkpt lat="50.63229" lon="3.06998">
        <ele>27.5</ele>
        <time>2020-06-24T07:33:03Z</time>
      </trkpt>
      <trkpt lat="50.6323" lon="3.07004">
        <ele>27.4</ele>
        <time>2020-06-24T07:33:04Z</time>
      </trkpt>
      <trkpt lat="50.63231" lon="3.07009">
        <ele>27.4</ele>
        <time>2020-06-24T07:33:05Z</time>
      </trkpt>
      <trkpt lat="50.63232" lon="3.07015">
        <ele>27.4</ele>
        <time>2020-06-24T07:33:06Z</time>
      </trkpt>
      <trkpt lat="50.63233" lon="3.07021">
        <ele>27.4</ele>
        <time>2020-06-24T07:33:07Z</time>
      </trkpt>
      <trkpt lat="50.63234" lon="3.07028">
        <ele>27.4</ele>
        <time>2020-06-24T07:33:08Z</time>
      </trkpt>
      <trkpt lat="50.63236" lon="3.07035">
        <ele>27.5</ele>
        <time>2020-06-24T07:33:09Z</time>
      </trkpt>
      <trkpt lat="50.63237" lon="3.07042">
        <ele>27.5</ele>
        <time>2020-06-24T07:33:10Z</time>
      </trkpt>
      <trkpt lat="50.63239" lon="3.07048">
        <ele>27.5</ele>
        <time>2020-06-24T07:33:11Z</time>
      </trkpt>
      <trkpt lat="50.63241" lon="3.07054">
        <ele>27.4</ele>
        <time>2020-06-24T07:33:12Z</time>
      </trkpt>
      <trkpt lat="50.63243" lon="3.07059">
        <ele>27.4</ele>
        <time>2020-06-24T07:33:13Z</time>
      </trkpt>
      <trkpt lat="50.63244" lon="3.07064">
        <ele>27.4</ele>
        <time>2020-06-24T07:33:14Z</time>
      </trkpt>
      <trkpt lat="50.63246" lon="3.07068">
        <ele>27.4</ele>
        <time>2020-06-24T07:33:15Z</time>
      </trkpt>
      <trkpt lat="50.63247" lon="3.07072">
        <ele>27.4</ele>
        <time>2020-06-24T07:33:16Z</time>
      </trkpt>
      <trkpt lat="50.63248" lon="3.07076">
        <ele>27.3</ele>
        <time>2020-06-24T07:33:17Z</time>
      </trkpt>
      <trkpt lat="50.6325" lon="3.07081">
        <ele>27.2</ele>
        <time>2020-06-24T07:33:18Z</time>
      </trkpt>
      <trkpt lat="50.63251" lon="3.07087">
        <ele>27.2</ele>
        <time>2020-06-24T07:33:19Z</time>
      </trkpt>
      <trkpt lat="50.63253" lon="3.07093">
        <ele>27</ele>
        <time>2020-06-24T07:33:20Z</time>
      </trkpt>
      <trkpt lat="50.63254" lon="3.071">
        <ele>27</ele>
        <time>2020-06-24T07:33:21Z</time>
      </trkpt>
      <trkpt lat="50.63255" lon="3.07107">
        <ele>26.9</ele>
        <time>2020-06-24T07:33:22Z</time>
      </trkpt>
      <trkpt lat="50.63257" lon="3.07113">
        <ele>26.9</ele>
        <time>2020-06-24T07:33:23Z</time>
      </trkpt>
      <trkpt lat="50.63258" lon="3.0712">
        <ele>26.9</ele>
        <time>2020-06-24T07:33:24Z</time>
      </trkpt>
      <trkpt lat="50.6326" lon="3.07127">
        <ele>26.9</ele>
        <time>2020-06-24T07:33:25Z</time>
      </trkpt>
      <trkpt lat="50.63261" lon="3.07134">
        <ele>26.9</ele>
        <time>2020-06-24T07:33:26Z</time>
      </trkpt>
      <trkpt lat="50.63263" lon="3.0714">
        <ele>26.9</ele>
        <time>2020-06-24T07:33:27Z</time>
      </trkpt>
      <trkpt lat="50.63264" lon="3.07146">
        <ele>26.9</ele>
        <time>2020-06-24T07:33:28Z</time>
      </trkpt>
      <trkpt lat="50.63265" lon="3.07153">
        <ele>26.9</ele>
        <time>2020-06-24T07:33:29Z</time>
      </trkpt>
      <trkpt lat="50.63266" lon="3.07159">
        <ele>26.8</ele>
        <time>2020-06-24T07:33:30Z</time>
      </trkpt>
      <trkpt lat="50.63267" lon="3.07166">
        <ele>26.8</ele>
        <time>2020-06-24T07:33:31Z</time>
      </trkpt>
      <trkpt lat="50.63269" lon="3.07173">
        <ele>26.7</ele>
        <time>2020-06-24T07:33:32Z</time>
      </trkpt>
      <trkpt lat="50.6327" lon="3.07178">
        <ele>26.7</ele>
        <time>2020-06-24T07:33:33Z</time>
      </trkpt>
      <trkpt lat="50.63271" lon="3.07184">
        <ele>26.7</ele>
        <time>2020-06-24T07:33:34Z</time>
      </trkpt>
      <trkpt lat="50.63273" lon="3.07189">
        <ele>26.7</ele>
        <time>2020-06-24T07:33:35Z</time>
      </trkpt>
      <trkpt lat="50.63275" lon="3.07196">
        <ele>26.7</ele>
        <time>2020-06-24T07:33:36Z</time>
      </trkpt>
      <trkpt lat="50.63276" lon="3.07204">
        <ele>26.7</ele>
        <time>2020-06-24T07:33:37Z</time>
      </trkpt>
      <trkpt lat="50.63278" lon="3.0721">
        <ele>26.7</ele>
        <time>2020-06-24T07:33:38Z</time>
      </trkpt>
      <trkpt lat="50.6328" lon="3.07217">
        <ele>26.7</ele>
        <time>2020-06-24T07:33:39Z</time>
      </trkpt>
      <trkpt lat="50.63281" lon="3.07224">
        <ele>26.7</ele>
        <time>2020-06-24T07:33:40Z</time>
      </trkpt>
      <trkpt lat="50.63283" lon="3.07231">
        <ele>26.7</ele>
        <time>2020-06-24T07:33:41Z</time>
      </trkpt>
      <trkpt lat="50.63285" lon="3.07237">
        <ele>26.8</ele>
        <time>2020-06-24T07:33:42Z</time>
      </trkpt>
      <trkpt lat="50.63287" lon="3.07244">
        <ele>26.8</ele>
        <time>2020-06-24T07:33:43Z</time>
      </trkpt>
      <trkpt lat="50.63288" lon="3.07251">
        <ele>26.8</ele>
        <time>2020-06-24T07:33:44Z</time>
      </trkpt>
      <trkpt lat="50.6329" lon="3.07257">
        <ele>26.8</ele>
        <time>2020-06-24T07:33:45Z</time>
      </trkpt>
      <trkpt lat="50.63291" lon="3.07263">
        <ele>26.9</ele>
        <time>2020-06-24T07:33:46Z</time>
      </trkpt>
      <trkpt lat="50.63292" lon="3.07269">
        <ele>26.9</ele>
        <time>2020-06-24T07:33:47Z</time>
      </trkpt>
      <trkpt lat="50.63293" lon="3.07276">
        <ele>26.9</ele>
        <time>2020-06-24T07:33:48Z</time>
      </trkpt>
      <trkpt lat="50.63294" lon="3.07282">
        <ele>26.9</ele>
        <time>2020-06-24T07:33:49Z</time>
      </trkpt>
      <trkpt lat="50.63295" lon="3.07289">
        <ele>26.9</ele>
        <time>2020-06-24T07:33:50Z</time>
      </trkpt>
      <trkpt lat="50.63296" lon="3.07295">
        <ele>26.8</ele>
        <time>2020-06-24T07:33:51Z</time>
      </trkpt>
      <trkpt lat="50.63297" lon="3.07302">
        <ele>26.9</ele>
        <time>2020-06-24T07:33:52Z</time>
      </trkpt>
      <trkpt lat="50.63299" lon="3.07308">
        <ele>26.9</ele>
        <time>2020-06-24T07:33:53Z</time>
      </trkpt>
      <trkpt lat="50.633" lon="3.07314">
        <ele>26.9</ele>
        <time>2020-06-24T07:33:54Z</time>
      </trkpt>
      <trkpt lat="50.633" lon="3.0732">
        <ele>26.9</ele>
        <time>2020-06-24T07:33:55Z</time>
      </trkpt>
      <trkpt lat="50.63301" lon="3.07326">
        <ele>26.9</ele>
        <time>2020-06-24T07:33:56Z</time>
      </trkpt>
      <trkpt lat="50.63302" lon="3.07331">
        <ele>26.8</ele>
        <time>2020-06-24T07:33:57Z</time>
      </trkpt>
      <trkpt lat="50.63303" lon="3.07335">
        <ele>26.8</ele>
        <time>2020-06-24T07:33:58Z</time>
      </trkpt>
      <trkpt lat="50.63303" lon="3.07341">
        <ele>26.8</ele>
        <time>2020-06-24T07:33:59Z</time>
      </trkpt>
      <trkpt lat="50.63304" lon="3.07346">
        <ele>26.8</ele>
        <time>2020-06-24T07:34:00Z</time>
      </trkpt>
      <trkpt lat="50.63306" lon="3.07352">
        <ele>26.7</ele>
        <time>2020-06-24T07:34:01Z</time>
      </trkpt>
      <trkpt lat="50.63306" lon="3.07354">
        <ele>26.7</ele>
        <time>2020-06-24T07:34:02Z</time>
      </trkpt>
      <trkpt lat="50.63307" lon="3.07359">
        <ele>26.7</ele>
        <time>2020-06-24T07:34:03Z</time>
      </trkpt>
      <trkpt lat="50.63308" lon="3.07364">
        <ele>26.7</ele>
        <time>2020-06-24T07:34:04Z</time>
      </trkpt>
      <trkpt lat="50.63309" lon="3.07369">
        <ele>26.7</ele>
        <time>2020-06-24T07:34:05Z</time>
      </trkpt>
      <trkpt lat="50.63309" lon="3.07375">
        <ele>26.7</ele>
        <time>2020-06-24T07:34:06Z</time>
      </trkpt>
      <trkpt lat="50.63309" lon="3.0738">
        <ele>26.6</ele>
        <time>2020-06-24T07:34:07Z</time>
      </trkpt>
      <trkpt lat="50.6331" lon="3.07386">
        <ele>26.6</ele>
        <time>2020-06-24T07:34:08Z</time>
      </trkpt>
      <trkpt lat="50.63311" lon="3.07388">
        <ele>26.6</ele>
        <time>2020-06-24T07:34:09Z</time>
      </trkpt>
      <trkpt lat="50.63312" lon="3.07392">
        <ele>26.6</ele>
        <time>2020-06-24T07:34:10Z</time>
      </trkpt>
      <trkpt lat="50.63312" lon="3.07398">
        <ele>26.7</ele>
        <time>2020-06-24T07:34:11Z</time>
      </trkpt>
      <trkpt lat="50.63313" lon="3.07403">
        <ele>26.7</ele>
        <time>2020-06-24T07:34:12Z</time>
      </trkpt>
      <trkpt lat="50.63315" lon="3.07408">
        <ele>26.7</ele>
        <time>2020-06-24T07:34:13Z</time>
      </trkpt>
      <trkpt lat="50.63316" lon="3.07413">
        <ele>26.7</ele>
        <time>2020-06-24T07:34:14Z</time>
      </trkpt>
      <trkpt lat="50.63317" lon="3.07418">
        <ele>26.7</ele>
        <time>2020-06-24T07:34:15Z</time>
      </trkpt>
      <trkpt lat="50.63318" lon="3.07423">
        <ele>26.7</ele>
        <time>2020-06-24T07:34:16Z</time>
      </trkpt>
      <trkpt lat="50.63319" lon="3.07428">
        <ele>26.7</ele>
        <time>2020-06-24T07:34:17Z</time>
      </trkpt>
      <trkpt lat="50.63319" lon="3.07433">
        <ele>26.9</ele>
        <time>2020-06-24T07:34:18Z</time>
      </trkpt>
      <trkpt lat="50.6332" lon="3.07439">
        <ele>26.9</ele>
        <time>2020-06-24T07:34:19Z</time>
      </trkpt>
      <trkpt lat="50.6332" lon="3.07442">
        <ele>26.9</ele>
        <time>2020-06-24T07:34:20Z</time>
      </trkpt>
      <trkpt lat="50.63319" lon="3.07447">
        <ele>27</ele>
        <time>2020-06-24T07:34:21Z</time>
      </trkpt>
      <trkpt lat="50.63319" lon="3.07449">
        <ele>27</ele>
        <time>2020-06-24T07:34:22Z</time>
      </trkpt>
      <trkpt lat="50.63318" lon="3.07454">
        <ele>27</ele>
        <time>2020-06-24T07:34:23Z</time>
      </trkpt>
      <trkpt lat="50.63318" lon="3.07456">
        <ele>27</ele>
        <time>2020-06-24T07:34:24Z</time>
      </trkpt>
      <trkpt lat="50.63315" lon="3.07461">
        <ele>34</ele>
        <time>2020-06-24T07:34:25Z</time>
      </trkpt>
      <trkpt lat="50.63315" lon="3.07463">
        <ele>34</ele>
        <time>2020-06-24T07:34:26Z</time>
      </trkpt>
      <trkpt lat="50.63311" lon="3.07465">
        <ele>33.5</ele>
        <time>2020-06-24T07:34:27Z</time>
      </trkpt>
      <trkpt lat="50.63307" lon="3.07466">
        <ele>33.3</ele>
        <time>2020-06-24T07:34:28Z</time>
      </trkpt>
      <trkpt lat="50.63303" lon="3.07468">
        <ele>33.1</ele>
        <time>2020-06-24T07:34:29Z</time>
      </trkpt>
      <trkpt lat="50.63299" lon="3.07471">
        <ele>33</ele>
        <time>2020-06-24T07:34:30Z</time>
      </trkpt>
      <trkpt lat="50.63295" lon="3.07474">
        <ele>32.8</ele>
        <time>2020-06-24T07:34:31Z</time>
      </trkpt>
      <trkpt lat="50.63291" lon="3.07476">
        <ele>32.6</ele>
        <time>2020-06-24T07:34:32Z</time>
      </trkpt>
      <trkpt lat="50.63287" lon="3.07478">
        <ele>32.4</ele>
        <time>2020-06-24T07:34:33Z</time>
      </trkpt>
      <trkpt lat="50.63283" lon="3.0748">
        <ele>32.3</ele>
        <time>2020-06-24T07:34:34Z</time>
      </trkpt>
      <trkpt lat="50.63279" lon="3.07482">
        <ele>32.2</ele>
        <time>2020-06-24T07:34:35Z</time>
      </trkpt>
      <trkpt lat="50.63275" lon="3.07485">
        <ele>32.1</ele>
        <time>2020-06-24T07:34:36Z</time>
      </trkpt>
      <trkpt lat="50.63272" lon="3.07486">
        <ele>32</ele>
        <time>2020-06-24T07:34:37Z</time>
      </trkpt>
      <trkpt lat="50.63268" lon="3.07488">
        <ele>31.9</ele>
        <time>2020-06-24T07:34:38Z</time>
      </trkpt>
      <trkpt lat="50.63265" lon="3.07489">
        <ele>31.9</ele>
        <time>2020-06-24T07:34:39Z</time>
      </trkpt>
      <trkpt lat="50.63262" lon="3.07492">
        <ele>31.8</ele>
        <time>2020-06-24T07:34:40Z</time>
      </trkpt>
      <trkpt lat="50.63259" lon="3.07495">
        <ele>31.6</ele>
        <time>2020-06-24T07:34:41Z</time>
      </trkpt>
      <trkpt lat="50.63255" lon="3.07497">
        <ele>31.5</ele>
        <time>2020-06-24T07:34:42Z</time>
      </trkpt>
      <trkpt lat="50.63252" lon="3.075">
        <ele>31.4</ele>
        <time>2020-06-24T07:34:43Z</time>
      </trkpt>
      <trkpt lat="50.63248" lon="3.07502">
        <ele>31.2</ele>
        <time>2020-06-24T07:34:44Z</time>
      </trkpt>
      <trkpt lat="50.63243" lon="3.07506">
        <ele>31.1</ele>
        <time>2020-06-24T07:34:45Z</time>
      </trkpt>
      <trkpt lat="50.63239" lon="3.07509">
        <ele>31</ele>
        <time>2020-06-24T07:34:46Z</time>
      </trkpt>
      <trkpt lat="50.63235" lon="3.07511">
        <ele>30.9</ele>
        <time>2020-06-24T07:34:47Z</time>
      </trkpt>
      <trkpt lat="50.6323" lon="3.07513">
        <ele>30.9</ele>
        <time>2020-06-24T07:34:48Z</time>
      </trkpt>
      <trkpt lat="50.63226" lon="3.07515">
        <ele>30.9</ele>
        <time>2020-06-24T07:34:49Z</time>
      </trkpt>
      <trkpt lat="50.63222" lon="3.07517">
        <ele>30.9</ele>
        <time>2020-06-24T07:34:50Z</time>
      </trkpt>
      <trkpt lat="50.63218" lon="3.07519">
        <ele>30.9</ele>
        <time>2020-06-24T07:34:51Z</time>
      </trkpt>
      <trkpt lat="50.63214" lon="3.07521">
        <ele>30.9</ele>
        <time>2020-06-24T07:34:52Z</time>
      </trkpt>
      <trkpt lat="50.6321" lon="3.07523">
        <ele>30.9</ele>
        <time>2020-06-24T07:34:53Z</time>
      </trkpt>
      <trkpt lat="50.63208" lon="3.07524">
        <ele>30.8</ele>
        <time>2020-06-24T07:34:54Z</time>
      </trkpt>
      <trkpt lat="50.63204" lon="3.07527">
        <ele>30.8</ele>
        <time>2020-06-24T07:34:55Z</time>
      </trkpt>
      <trkpt lat="50.63203" lon="3.07528">
        <ele>30.8</ele>
        <time>2020-06-24T07:34:56Z</time>
      </trkpt>
      <trkpt lat="50.632" lon="3.07528">
        <ele>30.7</ele>
        <time>2020-06-24T07:34:57Z</time>
      </trkpt>
      <trkpt lat="50.63198" lon="3.07529">
        <ele>30.7</ele>
        <time>2020-06-24T07:34:58Z</time>
      </trkpt>
      <trkpt lat="50.63194" lon="3.07532">
        <ele>30.6</ele>
        <time>2020-06-24T07:34:59Z</time>
      </trkpt>
      <trkpt lat="50.63193" lon="3.07533">
        <ele>30.4</ele>
        <time>2020-06-24T07:35:00Z</time>
      </trkpt>
      <trkpt lat="50.6319" lon="3.07537">
        <ele>30.2</ele>
        <time>2020-06-24T07:35:01Z</time>
      </trkpt>
      <trkpt lat="50.63188" lon="3.07539">
        <ele>30</ele>
        <time>2020-06-24T07:35:02Z</time>
      </trkpt>
      <trkpt lat="50.63185" lon="3.07541">
        <ele>29.8</ele>
        <time>2020-06-24T07:35:03Z</time>
      </trkpt>
      <trkpt lat="50.63182" lon="3.07542">
        <ele>29.7</ele>
        <time>2020-06-24T07:35:04Z</time>
      </trkpt>
      <trkpt lat="50.63178" lon="3.07545">
        <ele>29.5</ele>
        <time>2020-06-24T07:35:05Z</time>
      </trkpt>
      <trkpt lat="50.63175" lon="3.07547">
        <ele>29.4</ele>
        <time>2020-06-24T07:35:06Z</time>
      </trkpt>
      <trkpt lat="50.63172" lon="3.07548">
        <ele>29.3</ele>
        <time>2020-06-24T07:35:07Z</time>
      </trkpt>
      <trkpt lat="50.63168" lon="3.07549">
        <ele>29.2</ele>
        <time>2020-06-24T07:35:08Z</time>
      </trkpt>
      <trkpt lat="50.63163" lon="3.0755">
        <ele>29.1</ele>
        <time>2020-06-24T07:35:09Z</time>
      </trkpt>
      <trkpt lat="50.63159" lon="3.0755">
        <ele>29.1</ele>
        <time>2020-06-24T07:35:10Z</time>
      </trkpt>
      <trkpt lat="50.63155" lon="3.07553">
        <ele>29</ele>
        <time>2020-06-24T07:35:11Z</time>
      </trkpt>
      <trkpt lat="50.63151" lon="3.07554">
        <ele>28.9</ele>
        <time>2020-06-24T07:35:12Z</time>
      </trkpt>
      <trkpt lat="50.63146" lon="3.07556">
        <ele>28.9</ele>
        <time>2020-06-24T07:35:13Z</time>
      </trkpt>
      <trkpt lat="50.63142" lon="3.07557">
        <ele>28.8</ele>
        <time>2020-06-24T07:35:14Z</time>
      </trkpt>
      <trkpt lat="50.63137" lon="3.07558">
        <ele>28.6</ele>
        <time>2020-06-24T07:35:15Z</time>
      </trkpt>
      <trkpt lat="50.63132" lon="3.07559">
        <ele>28.5</ele>
        <time>2020-06-24T07:35:16Z</time>
      </trkpt>
      <trkpt lat="50.63128" lon="3.07561">
        <ele>28.4</ele>
        <time>2020-06-24T07:35:17Z</time>
      </trkpt>
      <trkpt lat="50.63123" lon="3.07562">
        <ele>28.3</ele>
        <time>2020-06-24T07:35:18Z</time>
      </trkpt>
      <trkpt lat="50.63119" lon="3.07564">
        <ele>28.2</ele>
        <time>2020-06-24T07:35:19Z</time>
      </trkpt>
      <trkpt lat="50.63115" lon="3.07566">
        <ele>28.1</ele>
        <time>2020-06-24T07:35:20Z</time>
      </trkpt>
      <trkpt lat="50.63111" lon="3.07566">
        <ele>27.9</ele>
        <time>2020-06-24T07:35:21Z</time>
      </trkpt>
      <trkpt lat="50.63107" lon="3.07568">
        <ele>27.8</ele>
        <time>2020-06-24T07:35:22Z</time>
      </trkpt>
      <trkpt lat="50.63104" lon="3.0757">
        <ele>27.7</ele>
        <time>2020-06-24T07:35:23Z</time>
      </trkpt>
      <trkpt lat="50.631" lon="3.07571">
        <ele>27.6</ele>
        <time>2020-06-24T07:35:24Z</time>
      </trkpt>
      <trkpt lat="50.63097" lon="3.07574">
        <ele>27.5</ele>
        <time>2020-06-24T07:35:25Z</time>
      </trkpt>
      <trkpt lat="50.63094" lon="3.07576">
        <ele>27.4</ele>
        <time>2020-06-24T07:35:26Z</time>
      </trkpt>
      <trkpt lat="50.6309" lon="3.07577">
        <ele>27.4</ele>
        <time>2020-06-24T07:35:27Z</time>
      </trkpt>
      <trkpt lat="50.63087" lon="3.07573">
        <ele>27.4</ele>
        <time>2020-06-24T07:35:28Z</time>
      </trkpt>
      <trkpt lat="50.63085" lon="3.07567">
        <ele>27.4</ele>
        <time>2020-06-24T07:35:29Z</time>
      </trkpt>
      <trkpt lat="50.63084" lon="3.07561">
        <ele>27.3</ele>
        <time>2020-06-24T07:35:30Z</time>
      </trkpt>
      <trkpt lat="50.63083" lon="3.07555">
        <ele>27.3</ele>
        <time>2020-06-24T07:35:31Z</time>
      </trkpt>
      <trkpt lat="50.63081" lon="3.07549">
        <ele>27.3</ele>
        <time>2020-06-24T07:35:32Z</time>
      </trkpt>
      <trkpt lat="50.6308" lon="3.07542">
        <ele>27.3</ele>
        <time>2020-06-24T07:35:33Z</time>
      </trkpt>
      <trkpt lat="50.63077" lon="3.07535">
        <ele>27.3</ele>
        <time>2020-06-24T07:35:34Z</time>
      </trkpt>
      <trkpt lat="50.63075" lon="3.07529">
        <ele>27.2</ele>
        <time>2020-06-24T07:35:35Z</time>
      </trkpt>
      <trkpt lat="50.63073" lon="3.07522">
        <ele>27.2</ele>
        <time>2020-06-24T07:35:36Z</time>
      </trkpt>
      <trkpt lat="50.63072" lon="3.07515">
        <ele>27.1</ele>
        <time>2020-06-24T07:35:37Z</time>
      </trkpt>
      <trkpt lat="50.63071" lon="3.07509">
        <ele>27.1</ele>
        <time>2020-06-24T07:35:38Z</time>
      </trkpt>
      <trkpt lat="50.63069" lon="3.07503">
        <ele>27.1</ele>
        <time>2020-06-24T07:35:39Z</time>
      </trkpt>
      <trkpt lat="50.63068" lon="3.07496">
        <ele>27.1</ele>
        <time>2020-06-24T07:35:40Z</time>
      </trkpt>
      <trkpt lat="50.63067" lon="3.07489">
        <ele>27.1</ele>
        <time>2020-06-24T07:35:41Z</time>
      </trkpt>
      <trkpt lat="50.63065" lon="3.07483">
        <ele>27.2</ele>
        <time>2020-06-24T07:35:42Z</time>
      </trkpt>
      <trkpt lat="50.63064" lon="3.07476">
        <ele>27.2</ele>
        <time>2020-06-24T07:35:43Z</time>
      </trkpt>
      <trkpt lat="50.63063" lon="3.07469">
        <ele>27.3</ele>
        <time>2020-06-24T07:35:44Z</time>
      </trkpt>
      <trkpt lat="50.63062" lon="3.07463">
        <ele>27.4</ele>
        <time>2020-06-24T07:35:45Z</time>
      </trkpt>
      <trkpt lat="50.63062" lon="3.07457">
        <ele>27.4</ele>
        <time>2020-06-24T07:35:46Z</time>
      </trkpt>
      <trkpt lat="50.63062" lon="3.07451">
        <ele>27.5</ele>
        <time>2020-06-24T07:35:47Z</time>
      </trkpt>
      <trkpt lat="50.63061" lon="3.07446">
        <ele>27.5</ele>
        <time>2020-06-24T07:35:48Z</time>
      </trkpt>
      <trkpt lat="50.63061" lon="3.0744">
        <ele>27.6</ele>
        <time>2020-06-24T07:35:49Z</time>
      </trkpt>
      <trkpt lat="50.6306" lon="3.07434">
        <ele>28.4</ele>
        <time>2020-06-24T07:35:50Z</time>
      </trkpt>
      <trkpt lat="50.63059" lon="3.07428">
        <ele>28.4</ele>
        <time>2020-06-24T07:35:51Z</time>
      </trkpt>
      <trkpt lat="50.63056" lon="3.07423">
        <ele>28.4</ele>
        <time>2020-06-24T07:35:52Z</time>
      </trkpt>
      <trkpt lat="50.63053" lon="3.0742">
        <ele>28.6</ele>
        <time>2020-06-24T07:35:53Z</time>
      </trkpt>
      <trkpt lat="50.63049" lon="3.07422">
        <ele>28.6</ele>
        <time>2020-06-24T07:35:54Z</time>
      </trkpt>
      <trkpt lat="50.63045" lon="3.07424">
        <ele>28.6</ele>
        <time>2020-06-24T07:35:55Z</time>
      </trkpt>
      <trkpt lat="50.6304" lon="3.07427">
        <ele>28.6</ele>
        <time>2020-06-24T07:35:56Z</time>
      </trkpt>
      <trkpt lat="50.63035" lon="3.0743">
        <ele>28.6</ele>
        <time>2020-06-24T07:35:57Z</time>
      </trkpt>
      <trkpt lat="50.6303" lon="3.07432">
        <ele>28.7</ele>
        <time>2020-06-24T07:35:58Z</time>
      </trkpt>
      <trkpt lat="50.63026" lon="3.07436">
        <ele>28.7</ele>
        <time>2020-06-24T07:35:59Z</time>
      </trkpt>
      <trkpt lat="50.63021" lon="3.07439">
        <ele>28.8</ele>
        <time>2020-06-24T07:36:00Z</time>
      </trkpt>
      <trkpt lat="50.63016" lon="3.07443">
        <ele>28.8</ele>
        <time>2020-06-24T07:36:01Z</time>
      </trkpt>
      <trkpt lat="50.63012" lon="3.07447">
        <ele>28.8</ele>
        <time>2020-06-24T07:36:02Z</time>
      </trkpt>
      <trkpt lat="50.63007" lon="3.0745">
        <ele>28.9</ele>
        <time>2020-06-24T07:36:03Z</time>
      </trkpt>
      <trkpt lat="50.63002" lon="3.07454">
        <ele>28.9</ele>
        <time>2020-06-24T07:36:04Z</time>
      </trkpt>
      <trkpt lat="50.62998" lon="3.07457">
        <ele>29</ele>
        <time>2020-06-24T07:36:05Z</time>
      </trkpt>
      <trkpt lat="50.62994" lon="3.0746">
        <ele>29.1</ele>
        <time>2020-06-24T07:36:06Z</time>
      </trkpt>
      <trkpt lat="50.6299" lon="3.07463">
        <ele>29.3</ele>
        <time>2020-06-24T07:36:07Z</time>
      </trkpt>
      <trkpt lat="50.62986" lon="3.07466">
        <ele>29.3</ele>
        <time>2020-06-24T07:36:08Z</time>
      </trkpt>
      <trkpt lat="50.62983" lon="3.07469">
        <ele>29.4</ele>
        <time>2020-06-24T07:36:09Z</time>
      </trkpt>
      <trkpt lat="50.6298" lon="3.07472">
        <ele>29.5</ele>
        <time>2020-06-24T07:36:10Z</time>
      </trkpt>
      <trkpt lat="50.62976" lon="3.07476">
        <ele>29.6</ele>
        <time>2020-06-24T07:36:11Z</time>
      </trkpt>
      <trkpt lat="50.62974" lon="3.07481">
        <ele>29.3</ele>
        <time>2020-06-24T07:36:12Z</time>
      </trkpt>
      <trkpt lat="50.62971" lon="3.07487">
        <ele>29</ele>
        <time>2020-06-24T07:36:13Z</time>
      </trkpt>
      <trkpt lat="50.62968" lon="3.07492">
        <ele>28.7</ele>
        <time>2020-06-24T07:36:14Z</time>
      </trkpt>
      <trkpt lat="50.62964" lon="3.07497">
        <ele>28.4</ele>
        <time>2020-06-24T07:36:15Z</time>
      </trkpt>
      <trkpt lat="50.62961" lon="3.07501">
        <ele>28.4</ele>
        <time>2020-06-24T07:36:16Z</time>
      </trkpt>
      <trkpt lat="50.62957" lon="3.07506">
        <ele>28.3</ele>
        <time>2020-06-24T07:36:17Z</time>
      </trkpt>
      <trkpt lat="50.62953" lon="3.07511">
        <ele>28.3</ele>
        <time>2020-06-24T07:36:18Z</time>
      </trkpt>
      <trkpt lat="50.6295" lon="3.07515">
        <ele>28.3</ele>
        <time>2020-06-24T07:36:19Z</time>
      </trkpt>
      <trkpt lat="50.62946" lon="3.07518">
        <ele>28.3</ele>
        <time>2020-06-24T07:36:20Z</time>
      </trkpt>
      <trkpt lat="50.62942" lon="3.07522">
        <ele>28.3</ele>
        <time>2020-06-24T07:36:21Z</time>
      </trkpt>
      <trkpt lat="50.62939" lon="3.07525">
        <ele>28.2</ele>
        <time>2020-06-24T07:36:22Z</time>
      </trkpt>
      <trkpt lat="50.62935" lon="3.07529">
        <ele>28.1</ele>
        <time>2020-06-24T07:36:23Z</time>
      </trkpt>
      <trkpt lat="50.62932" lon="3.07531">
        <ele>28.1</ele>
        <time>2020-06-24T07:36:24Z</time>
      </trkpt>
      <trkpt lat="50.62929" lon="3.07534">
        <ele>28</ele>
        <time>2020-06-24T07:36:25Z</time>
      </trkpt>
      <trkpt lat="50.62926" lon="3.07536">
        <ele>28</ele>
        <time>2020-06-24T07:36:26Z</time>
      </trkpt>
      <trkpt lat="50.62924" lon="3.07538">
        <ele>27.9</ele>
        <time>2020-06-24T07:36:27Z</time>
      </trkpt>
      <trkpt lat="50.6292" lon="3.0754">
        <ele>27.9</ele>
        <time>2020-06-24T07:36:28Z</time>
      </trkpt>
      <trkpt lat="50.62919" lon="3.0754">
        <ele>27.9</ele>
        <time>2020-06-24T07:36:29Z</time>
      </trkpt>
      <trkpt lat="50.62918" lon="3.07541">
        <ele>27.9</ele>
        <time>2020-06-24T07:36:30Z</time>
      </trkpt>
      <trkpt lat="50.62917" lon="3.07541">
        <ele>27.8</ele>
        <time>2020-06-24T07:36:31Z</time>
      </trkpt>
      <trkpt lat="50.62916" lon="3.07541">
        <ele>27.8</ele>
        <time>2020-06-24T07:36:32Z</time>
      </trkpt>
      <trkpt lat="50.62916" lon="3.07539">
        <ele>27.8</ele>
        <time>2020-06-24T07:36:33Z</time>
      </trkpt>
      <trkpt lat="50.62916" lon="3.07539">
        <ele>27.8</ele>
        <time>2020-06-24T07:36:34Z</time>
      </trkpt>
      <trkpt lat="50.62916" lon="3.07539">
        <ele>27.8</ele>
        <time>2020-06-24T07:36:35Z</time>
      </trkpt>
      <trkpt lat="50.62915" lon="3.07538">
        <ele>27.8</ele>
        <time>2020-06-24T07:36:36Z</time>
      </trkpt>
      <trkpt lat="50.62915" lon="3.07539">
        <ele>27.8</ele>
        <time>2020-06-24T07:36:37Z</time>
      </trkpt>
      <trkpt lat="50.62915" lon="3.07539">
        <ele>27.8</ele>
        <time>2020-06-24T07:36:38Z</time>
      </trkpt>
      <trkpt lat="50.62916" lon="3.0754">
        <ele>27.8</ele>
        <time>2020-06-24T07:36:39Z</time>
      </trkpt>
      <trkpt lat="50.62916" lon="3.0754">
        <ele>27.8</ele>
        <time>2020-06-24T07:36:40Z</time>
      </trkpt>
      <trkpt lat="50.62915" lon="3.0754">
        <ele>27.8</ele>
        <time>2020-06-24T07:36:41Z</time>
      </trkpt>
      <trkpt lat="50.62915" lon="3.0754">
        <ele>27.8</ele>
        <time>2020-06-24T07:36:42Z</time>
      </trkpt>
      <trkpt lat="50.62916" lon="3.0754">
        <ele>27.7</ele>
        <time>2020-06-24T07:36:43Z</time>
      </trkpt>
      <trkpt lat="50.62915" lon="3.0754">
        <ele>27.7</ele>
        <time>2020-06-24T07:36:44Z</time>
      </trkpt>
      <trkpt lat="50.62915" lon="3.07539">
        <ele>27.7</ele>
        <time>2020-06-24T07:36:45Z</time>
      </trkpt>
      <trkpt lat="50.62915" lon="3.07538">
        <ele>27.7</ele>
        <time>2020-06-24T07:36:46Z</time>
      </trkpt>
      <trkpt lat="50.62915" lon="3.07538">
        <ele>27.7</ele>
        <time>2020-06-24T07:36:47Z</time>
      </trkpt>
      <trkpt lat="50.62914" lon="3.07536">
        <ele>27.7</ele>
        <time>2020-06-24T07:36:48Z</time>
      </trkpt>
      <trkpt lat="50.62914" lon="3.07536">
        <ele>27.7</ele>
        <time>2020-06-24T07:36:49Z</time>
      </trkpt>
      <trkpt lat="50.62914" lon="3.07535">
        <ele>27.7</ele>
        <time>2020-06-24T07:36:50Z</time>
      </trkpt>
      <trkpt lat="50.62915" lon="3.07537">
        <ele>27.7</ele>
        <time>2020-06-24T07:36:51Z</time>
      </trkpt>
      <trkpt lat="50.62913" lon="3.07538">
        <ele>27.6</ele>
        <time>2020-06-24T07:36:52Z</time>
      </trkpt>
      <trkpt lat="50.62912" lon="3.0754">
        <ele>27.6</ele>
        <time>2020-06-24T07:36:53Z</time>
      </trkpt>
      <trkpt lat="50.62908" lon="3.07541">
        <ele>27.5</ele>
        <time>2020-06-24T07:36:54Z</time>
      </trkpt>
      <trkpt lat="50.62907" lon="3.07542">
        <ele>27.5</ele>
        <time>2020-06-24T07:36:55Z</time>
      </trkpt>
      <trkpt lat="50.62904" lon="3.07544">
        <ele>27.4</ele>
        <time>2020-06-24T07:36:56Z</time>
      </trkpt>
      <trkpt lat="50.629" lon="3.07546">
        <ele>27.4</ele>
        <time>2020-06-24T07:36:57Z</time>
      </trkpt>
      <trkpt lat="50.62897" lon="3.07549">
        <ele>27.4</ele>
        <time>2020-06-24T07:36:58Z</time>
      </trkpt>
      <trkpt lat="50.62893" lon="3.0755">
        <ele>27.5</ele>
        <time>2020-06-24T07:36:59Z</time>
      </trkpt>
      <trkpt lat="50.6289" lon="3.07551">
        <ele>27.5</ele>
        <time>2020-06-24T07:37:00Z</time>
      </trkpt>
      <trkpt lat="50.62887" lon="3.07553">
        <ele>27.5</ele>
        <time>2020-06-24T07:37:01Z</time>
      </trkpt>
      <trkpt lat="50.62882" lon="3.07554">
        <ele>27.5</ele>
        <time>2020-06-24T07:37:02Z</time>
      </trkpt>
      <trkpt lat="50.62879" lon="3.07556">
        <ele>27.5</ele>
        <time>2020-06-24T07:37:03Z</time>
      </trkpt>
      <trkpt lat="50.62874" lon="3.07559">
        <ele>27.5</ele>
        <time>2020-06-24T07:37:04Z</time>
      </trkpt>
      <trkpt lat="50.62871" lon="3.07562">
        <ele>27.5</ele>
        <time>2020-06-24T07:37:05Z</time>
      </trkpt>
      <trkpt lat="50.62867" lon="3.07565">
        <ele>27.5</ele>
        <time>2020-06-24T07:37:06Z</time>
      </trkpt>
      <trkpt lat="50.62863" lon="3.07568">
        <ele>27.6</ele>
        <time>2020-06-24T07:37:07Z</time>
      </trkpt>
      <trkpt lat="50.62859" lon="3.07571">
        <ele>27.6</ele>
        <time>2020-06-24T07:37:08Z</time>
      </trkpt>
      <trkpt lat="50.62855" lon="3.07574">
        <ele>27.7</ele>
        <time>2020-06-24T07:37:09Z</time>
      </trkpt>
      <trkpt lat="50.62851" lon="3.07576">
        <ele>27.7</ele>
        <time>2020-06-24T07:37:10Z</time>
      </trkpt>
      <trkpt lat="50.62847" lon="3.07576">
        <ele>27.8</ele>
        <time>2020-06-24T07:37:11Z</time>
      </trkpt>
      <trkpt lat="50.62843" lon="3.07578">
        <ele>27.9</ele>
        <time>2020-06-24T07:37:12Z</time>
      </trkpt>
      <trkpt lat="50.62839" lon="3.07579">
        <ele>27.9</ele>
        <time>2020-06-24T07:37:13Z</time>
      </trkpt>
      <trkpt lat="50.62835" lon="3.0758">
        <ele>27.9</ele>
        <time>2020-06-24T07:37:14Z</time>
      </trkpt>
      <trkpt lat="50.62831" lon="3.0758">
        <ele>27.9</ele>
        <time>2020-06-24T07:37:15Z</time>
      </trkpt>
      <trkpt lat="50.62827" lon="3.07581">
        <ele>27.9</ele>
        <time>2020-06-24T07:37:16Z</time>
      </trkpt>
      <trkpt lat="50.62823" lon="3.0758">
        <ele>28</ele>
        <time>2020-06-24T07:37:17Z</time>
      </trkpt>
      <trkpt lat="50.62819" lon="3.07581">
        <ele>28</ele>
        <time>2020-06-24T07:37:18Z</time>
      </trkpt>
      <trkpt lat="50.62815" lon="3.07582">
        <ele>28.1</ele>
        <time>2020-06-24T07:37:19Z</time>
      </trkpt>
      <trkpt lat="50.62811" lon="3.07585">
        <ele>28.1</ele>
        <time>2020-06-24T07:37:20Z</time>
      </trkpt>
      <trkpt lat="50.62806" lon="3.07587">
        <ele>28.1</ele>
        <time>2020-06-24T07:37:21Z</time>
      </trkpt>
      <trkpt lat="50.62802" lon="3.0759">
        <ele>28.1</ele>
        <time>2020-06-24T07:37:22Z</time>
      </trkpt>
      <trkpt lat="50.62797" lon="3.07593">
        <ele>28</ele>
        <time>2020-06-24T07:37:23Z</time>
      </trkpt>
      <trkpt lat="50.62793" lon="3.07597">
        <ele>28</ele>
        <time>2020-06-24T07:37:24Z</time>
      </trkpt>
      <trkpt lat="50.62789" lon="3.076">
        <ele>27.9</ele>
        <time>2020-06-24T07:37:25Z</time>
      </trkpt>
      <trkpt lat="50.62785" lon="3.07602">
        <ele>27.9</ele>
        <time>2020-06-24T07:37:26Z</time>
      </trkpt>
      <trkpt lat="50.62781" lon="3.07605">
        <ele>27.9</ele>
        <time>2020-06-24T07:37:27Z</time>
      </trkpt>
      <trkpt lat="50.62776" lon="3.07608">
        <ele>27.9</ele>
        <time>2020-06-24T07:37:28Z</time>
      </trkpt>
      <trkpt lat="50.62772" lon="3.07611">
        <ele>27.9</ele>
        <time>2020-06-24T07:37:29Z</time>
      </trkpt>
      <trkpt lat="50.62768" lon="3.07613">
        <ele>27.9</ele>
        <time>2020-06-24T07:37:30Z</time>
      </trkpt>
      <trkpt lat="50.62764" lon="3.07614">
        <ele>28</ele>
        <time>2020-06-24T07:37:31Z</time>
      </trkpt>
      <trkpt lat="50.62761" lon="3.07616">
        <ele>28</ele>
        <time>2020-06-24T07:37:32Z</time>
      </trkpt>
      <trkpt lat="50.62758" lon="3.07618">
        <ele>28</ele>
        <time>2020-06-24T07:37:33Z</time>
      </trkpt>
      <trkpt lat="50.62754" lon="3.0762">
        <ele>28.1</ele>
        <time>2020-06-24T07:37:34Z</time>
      </trkpt>
      <trkpt lat="50.62751" lon="3.0762">
        <ele>28.1</ele>
        <time>2020-06-24T07:37:35Z</time>
      </trkpt>
      <trkpt lat="50.62748" lon="3.0762">
        <ele>28.2</ele>
        <time>2020-06-24T07:37:36Z</time>
      </trkpt>
      <trkpt lat="50.62744" lon="3.07621">
        <ele>28.2</ele>
        <time>2020-06-24T07:37:37Z</time>
      </trkpt>
      <trkpt lat="50.62742" lon="3.07624">
        <ele>28.3</ele>
        <time>2020-06-24T07:37:38Z</time>
      </trkpt>
      <trkpt lat="50.6274" lon="3.07628">
        <ele>28.3</ele>
        <time>2020-06-24T07:37:39Z</time>
      </trkpt>
      <trkpt lat="50.62739" lon="3.07632">
        <ele>28.4</ele>
        <time>2020-06-24T07:37:40Z</time>
      </trkpt>
      <trkpt lat="50.62738" lon="3.07636">
        <ele>28.5</ele>
        <time>2020-06-24T07:37:41Z</time>
      </trkpt>
      <trkpt lat="50.62737" lon="3.07638">
        <ele>28.5</ele>
        <time>2020-06-24T07:37:42Z</time>
      </trkpt>
      <trkpt lat="50.62736" lon="3.07639">
        <ele>28.5</ele>
        <time>2020-06-24T07:37:43Z</time>
      </trkpt>
      <trkpt lat="50.62735" lon="3.07641">
        <ele>28.5</ele>
        <time>2020-06-24T07:37:44Z</time>
      </trkpt>
      <trkpt lat="50.62732" lon="3.07642">
        <ele>28.6</ele>
        <time>2020-06-24T07:37:45Z</time>
      </trkpt>
      <trkpt lat="50.62731" lon="3.07643">
        <ele>28.6</ele>
        <time>2020-06-24T07:37:46Z</time>
      </trkpt>
      <trkpt lat="50.62728" lon="3.07646">
        <ele>28.7</ele>
        <time>2020-06-24T07:37:47Z</time>
      </trkpt>
      <trkpt lat="50.62727" lon="3.07647">
        <ele>28.7</ele>
        <time>2020-06-24T07:37:48Z</time>
      </trkpt>
      <trkpt lat="50.62724" lon="3.07649">
        <ele>28.7</ele>
        <time>2020-06-24T07:37:49Z</time>
      </trkpt>
      <trkpt lat="50.62724" lon="3.0765">
        <ele>28.8</ele>
        <time>2020-06-24T07:37:50Z</time>
      </trkpt>
      <trkpt lat="50.62723" lon="3.07653">
        <ele>28.8</ele>
        <time>2020-06-24T07:37:51Z</time>
      </trkpt>
      <trkpt lat="50.62723" lon="3.07655">
        <ele>28.8</ele>
        <time>2020-06-24T07:37:52Z</time>
      </trkpt>
      <trkpt lat="50.62723" lon="3.07658">
        <ele>28.8</ele>
        <time>2020-06-24T07:37:53Z</time>
      </trkpt>
      <trkpt lat="50.62723" lon="3.07661">
        <ele>28.8</ele>
        <time>2020-06-24T07:37:54Z</time>
      </trkpt>
      <trkpt lat="50.62723" lon="3.07663">
        <ele>28.9</ele>
        <time>2020-06-24T07:37:55Z</time>
      </trkpt>
      <trkpt lat="50.62724" lon="3.07664">
        <ele>28.9</ele>
        <time>2020-06-24T07:37:56Z</time>
      </trkpt>
      <trkpt lat="50.62724" lon="3.07665">
        <ele>28.9</ele>
        <time>2020-06-24T07:37:57Z</time>
      </trkpt>
      <trkpt lat="50.62724" lon="3.07667">
        <ele>28.9</ele>
        <time>2020-06-24T07:37:58Z</time>
      </trkpt>
      <trkpt lat="50.62724" lon="3.07668">
        <ele>28.9</ele>
        <time>2020-06-24T07:37:59Z</time>
      </trkpt>
      <trkpt lat="50.62723" lon="3.0767">
        <ele>28.9</ele>
        <time>2020-06-24T07:38:00Z</time>
      </trkpt>
      <trkpt lat="50.62721" lon="3.07676">
        <ele>29</ele>
        <time>2020-06-24T07:38:01Z</time>
      </trkpt>
      <trkpt lat="50.62721" lon="3.07679">
        <ele>29</ele>
        <time>2020-06-24T07:38:02Z</time>
      </trkpt>
      <trkpt lat="50.62719" lon="3.07683">
        <ele>29</ele>
        <time>2020-06-24T07:38:03Z</time>
      </trkpt>
      <trkpt lat="50.62717" lon="3.07688">
        <ele>29</ele>
        <time>2020-06-24T07:38:04Z</time>
      </trkpt>
      <trkpt lat="50.62714" lon="3.07692">
        <ele>29</ele>
        <time>2020-06-24T07:38:05Z</time>
      </trkpt>
      <trkpt lat="50.62712" lon="3.07697">
        <ele>29</ele>
        <time>2020-06-24T07:38:06Z</time>
      </trkpt>
      <trkpt lat="50.62709" lon="3.07701">
        <ele>29</ele>
        <time>2020-06-24T07:38:07Z</time>
      </trkpt>
      <trkpt lat="50.62707" lon="3.07707">
        <ele>29</ele>
        <time>2020-06-24T07:38:08Z</time>
      </trkpt>
      <trkpt lat="50.62706" lon="3.07714">
        <ele>29</ele>
        <time>2020-06-24T07:38:09Z</time>
      </trkpt>
      <trkpt lat="50.62704" lon="3.0772">
        <ele>29</ele>
        <time>2020-06-24T07:38:10Z</time>
      </trkpt>
      <trkpt lat="50.62702" lon="3.07728">
        <ele>29.1</ele>
        <time>2020-06-24T07:38:11Z</time>
      </trkpt>
      <trkpt lat="50.627" lon="3.07736">
        <ele>29.1</ele>
        <time>2020-06-24T07:38:12Z</time>
      </trkpt>
      <trkpt lat="50.62697" lon="3.07744">
        <ele>29.2</ele>
        <time>2020-06-24T07:38:13Z</time>
      </trkpt>
      <trkpt lat="50.62695" lon="3.07755">
        <ele>29.3</ele>
        <time>2020-06-24T07:38:14Z</time>
      </trkpt>
      <trkpt lat="50.62694" lon="3.07764">
        <ele>29.3</ele>
        <time>2020-06-24T07:38:15Z</time>
      </trkpt>
      <trkpt lat="50.62693" lon="3.07773">
        <ele>29.4</ele>
        <time>2020-06-24T07:38:16Z</time>
      </trkpt>
      <trkpt lat="50.62691" lon="3.07781">
        <ele>29.4</ele>
        <time>2020-06-24T07:38:17Z</time>
      </trkpt>
      <trkpt lat="50.62689" lon="3.07789">
        <ele>29.5</ele>
        <time>2020-06-24T07:38:18Z</time>
      </trkpt>
      <trkpt lat="50.62688" lon="3.07797">
        <ele>29.6</ele>
        <time>2020-06-24T07:38:19Z</time>
      </trkpt>
      <trkpt lat="50.62687" lon="3.07803">
        <ele>29.7</ele>
        <time>2020-06-24T07:38:20Z</time>
      </trkpt>
      <trkpt lat="50.62685" lon="3.07809">
        <ele>29.7</ele>
        <time>2020-06-24T07:38:21Z</time>
      </trkpt>
      <trkpt lat="50.62684" lon="3.07816">
        <ele>29.8</ele>
        <time>2020-06-24T07:38:22Z</time>
      </trkpt>
      <trkpt lat="50.62682" lon="3.07822">
        <ele>29.9</ele>
        <time>2020-06-24T07:38:23Z</time>
      </trkpt>
      <trkpt lat="50.6268" lon="3.07828">
        <ele>30</ele>
        <time>2020-06-24T07:38:24Z</time>
      </trkpt>
      <trkpt lat="50.62678" lon="3.07834">
        <ele>30.1</ele>
        <time>2020-06-24T07:38:25Z</time>
      </trkpt>
      <trkpt lat="50.62676" lon="3.0784">
        <ele>30.2</ele>
        <time>2020-06-24T07:38:26Z</time>
      </trkpt>
      <trkpt lat="50.62675" lon="3.07847">
        <ele>30.3</ele>
        <time>2020-06-24T07:38:27Z</time>
      </trkpt>
      <trkpt lat="50.62674" lon="3.07853">
        <ele>30.3</ele>
        <time>2020-06-24T07:38:28Z</time>
      </trkpt>
      <trkpt lat="50.62672" lon="3.07859">
        <ele>30.4</ele>
        <time>2020-06-24T07:38:29Z</time>
      </trkpt>
      <trkpt lat="50.6267" lon="3.07866">
        <ele>30.5</ele>
        <time>2020-06-24T07:38:30Z</time>
      </trkpt>
      <trkpt lat="50.62669" lon="3.07873">
        <ele>30.6</ele>
        <time>2020-06-24T07:38:31Z</time>
      </trkpt>
      <trkpt lat="50.62668" lon="3.07879">
        <ele>30.7</ele>
        <time>2020-06-24T07:38:32Z</time>
      </trkpt>
      <trkpt lat="50.62668" lon="3.07885">
        <ele>30.8</ele>
        <time>2020-06-24T07:38:33Z</time>
      </trkpt>
      <trkpt lat="50.62668" lon="3.07891">
        <ele>30.9</ele>
        <time>2020-06-24T07:38:34Z</time>
      </trkpt>
      <trkpt lat="50.6267" lon="3.07897">
        <ele>31</ele>
        <time>2020-06-24T07:38:35Z</time>
      </trkpt>
      <trkpt lat="50.62671" lon="3.07898">
        <ele>31</ele>
        <time>2020-06-24T07:38:36Z</time>
      </trkpt>
      <trkpt lat="50.62673" lon="3.07903">
        <ele>31</ele>
        <time>2020-06-24T07:38:37Z</time>
      </trkpt>
      <trkpt lat="50.62676" lon="3.07909">
        <ele>31.1</ele>
        <time>2020-06-24T07:38:38Z</time>
      </trkpt>
      <trkpt lat="50.62677" lon="3.07916">
        <ele>31.1</ele>
        <time>2020-06-24T07:38:39Z</time>
      </trkpt>
      <trkpt lat="50.62677" lon="3.07919">
        <ele>31.1</ele>
        <time>2020-06-24T07:38:40Z</time>
      </trkpt>
      <trkpt lat="50.62676" lon="3.07923">
        <ele>31.1</ele>
        <time>2020-06-24T07:38:41Z</time>
      </trkpt>
      <trkpt lat="50.62674" lon="3.07926">
        <ele>31.3</ele>
        <time>2020-06-24T07:38:42Z</time>
      </trkpt>
      <trkpt lat="50.62672" lon="3.07929">
        <ele>31.3</ele>
        <time>2020-06-24T07:38:43Z</time>
      </trkpt>
      <trkpt lat="50.62668" lon="3.07928">
        <ele>31.4</ele>
        <time>2020-06-24T07:38:44Z</time>
      </trkpt>
      <trkpt lat="50.62664" lon="3.07931">
        <ele>31.5</ele>
        <time>2020-06-24T07:38:45Z</time>
      </trkpt>
      <trkpt lat="50.62661" lon="3.07933">
        <ele>31.5</ele>
        <time>2020-06-24T07:38:46Z</time>
      </trkpt>
      <trkpt lat="50.62658" lon="3.07937">
        <ele>31.6</ele>
        <time>2020-06-24T07:38:47Z</time>
      </trkpt>
      <trkpt lat="50.62656" lon="3.0794">
        <ele>31.7</ele>
        <time>2020-06-24T07:38:48Z</time>
      </trkpt>
      <trkpt lat="50.6265" lon="3.07943">
        <ele>31.8</ele>
        <time>2020-06-24T07:38:49Z</time>
      </trkpt>
      <trkpt lat="50.62646" lon="3.07946">
        <ele>31.9</ele>
        <time>2020-06-24T07:38:50Z</time>
      </trkpt>
      <trkpt lat="50.62642" lon="3.07949">
        <ele>32</ele>
        <time>2020-06-24T07:38:51Z</time>
      </trkpt>
      <trkpt lat="50.62638" lon="3.07953">
        <ele>32.2</ele>
        <time>2020-06-24T07:38:52Z</time>
      </trkpt>
      <trkpt lat="50.62633" lon="3.07953">
        <ele>32.3</ele>
        <time>2020-06-24T07:38:53Z</time>
      </trkpt>
      <trkpt lat="50.62628" lon="3.07953">
        <ele>32.5</ele>
        <time>2020-06-24T07:38:54Z</time>
      </trkpt>
      <trkpt lat="50.62623" lon="3.07954">
        <ele>32.9</ele>
        <time>2020-06-24T07:38:55Z</time>
      </trkpt>
      <trkpt lat="50.62618" lon="3.07957">
        <ele>33</ele>
        <time>2020-06-24T07:38:56Z</time>
      </trkpt>
      <trkpt lat="50.62612" lon="3.07956">
        <ele>33.1</ele>
        <time>2020-06-24T07:38:57Z</time>
      </trkpt>
      <trkpt lat="50.62608" lon="3.07956">
        <ele>33.1</ele>
        <time>2020-06-24T07:38:58Z</time>
      </trkpt>
      <trkpt lat="50.62604" lon="3.07957">
        <ele>33.1</ele>
        <time>2020-06-24T07:38:59Z</time>
      </trkpt>
      <trkpt lat="50.626" lon="3.07959">
        <ele>33.1</ele>
        <time>2020-06-24T07:39:00Z</time>
      </trkpt>
      <trkpt lat="50.62595" lon="3.07961">
        <ele>33.1</ele>
        <time>2020-06-24T07:39:01Z</time>
      </trkpt>
      <trkpt lat="50.6259" lon="3.07964">
        <ele>33.1</ele>
        <time>2020-06-24T07:39:02Z</time>
      </trkpt>
      <trkpt lat="50.62585" lon="3.07967">
        <ele>33.1</ele>
        <time>2020-06-24T07:39:03Z</time>
      </trkpt>
      <trkpt lat="50.6258" lon="3.0797">
        <ele>33.2</ele>
        <time>2020-06-24T07:39:04Z</time>
      </trkpt>
      <trkpt lat="50.62575" lon="3.07972">
        <ele>33.1</ele>
        <time>2020-06-24T07:39:05Z</time>
      </trkpt>
      <trkpt lat="50.6257" lon="3.07976">
        <ele>33.1</ele>
        <time>2020-06-24T07:39:06Z</time>
      </trkpt>
      <trkpt lat="50.62566" lon="3.07978">
        <ele>33.1</ele>
        <time>2020-06-24T07:39:07Z</time>
      </trkpt>
      <trkpt lat="50.62561" lon="3.0798">
        <ele>33.1</ele>
        <time>2020-06-24T07:39:08Z</time>
      </trkpt>
      <trkpt lat="50.62556" lon="3.07982">
        <ele>33.1</ele>
        <time>2020-06-24T07:39:09Z</time>
      </trkpt>
      <trkpt lat="50.62551" lon="3.07985">
        <ele>33</ele>
        <time>2020-06-24T07:39:10Z</time>
      </trkpt>
      <trkpt lat="50.62546" lon="3.07988">
        <ele>33</ele>
        <time>2020-06-24T07:39:11Z</time>
      </trkpt>
      <trkpt lat="50.62542" lon="3.07991">
        <ele>33</ele>
        <time>2020-06-24T07:39:12Z</time>
      </trkpt>
      <trkpt lat="50.62537" lon="3.07993">
        <ele>32.9</ele>
        <time>2020-06-24T07:39:13Z</time>
      </trkpt>
      <trkpt lat="50.62533" lon="3.07995">
        <ele>32.9</ele>
        <time>2020-06-24T07:39:14Z</time>
      </trkpt>
      <trkpt lat="50.62528" lon="3.07998">
        <ele>32.8</ele>
        <time>2020-06-24T07:39:15Z</time>
      </trkpt>
      <trkpt lat="50.62524" lon="3.08001">
        <ele>32.8</ele>
        <time>2020-06-24T07:39:16Z</time>
      </trkpt>
      <trkpt lat="50.62521" lon="3.08004">
        <ele>32.8</ele>
        <time>2020-06-24T07:39:17Z</time>
      </trkpt>
      <trkpt lat="50.62516" lon="3.08006">
        <ele>32.7</ele>
        <time>2020-06-24T07:39:18Z</time>
      </trkpt>
      <trkpt lat="50.62511" lon="3.08008">
        <ele>32.7</ele>
        <time>2020-06-24T07:39:19Z</time>
      </trkpt>
      <trkpt lat="50.62506" lon="3.0801">
        <ele>32.6</ele>
        <time>2020-06-24T07:39:20Z</time>
      </trkpt>
      <trkpt lat="50.62501" lon="3.08011">
        <ele>32.6</ele>
        <time>2020-06-24T07:39:21Z</time>
      </trkpt>
      <trkpt lat="50.62497" lon="3.08013">
        <ele>32.5</ele>
        <time>2020-06-24T07:39:22Z</time>
      </trkpt>
      <trkpt lat="50.62492" lon="3.08014">
        <ele>32.5</ele>
        <time>2020-06-24T07:39:23Z</time>
      </trkpt>
      <trkpt lat="50.62485" lon="3.08014">
        <ele>32.4</ele>
        <time>2020-06-24T07:39:24Z</time>
      </trkpt>
      <trkpt lat="50.62477" lon="3.08012">
        <ele>32.4</ele>
        <time>2020-06-24T07:39:25Z</time>
      </trkpt>
      <trkpt lat="50.62471" lon="3.08014">
        <ele>32.4</ele>
        <time>2020-06-24T07:39:26Z</time>
      </trkpt>
      <trkpt lat="50.62465" lon="3.08015">
        <ele>32.4</ele>
        <time>2020-06-24T07:39:27Z</time>
      </trkpt>
      <trkpt lat="50.6246" lon="3.08015">
        <ele>32.4</ele>
        <time>2020-06-24T07:39:28Z</time>
      </trkpt>
      <trkpt lat="50.62456" lon="3.08016">
        <ele>32.3</ele>
        <time>2020-06-24T07:39:29Z</time>
      </trkpt>
      <trkpt lat="50.6245" lon="3.08017">
        <ele>32.3</ele>
        <time>2020-06-24T07:39:30Z</time>
      </trkpt>
      <trkpt lat="50.62445" lon="3.08018">
        <ele>32.3</ele>
        <time>2020-06-24T07:39:31Z</time>
      </trkpt>
      <trkpt lat="50.6244" lon="3.0802">
        <ele>32.3</ele>
        <time>2020-06-24T07:39:32Z</time>
      </trkpt>
      <trkpt lat="50.62436" lon="3.08021">
        <ele>32.3</ele>
        <time>2020-06-24T07:39:33Z</time>
      </trkpt>
      <trkpt lat="50.62431" lon="3.08022">
        <ele>32.3</ele>
        <time>2020-06-24T07:39:34Z</time>
      </trkpt>
      <trkpt lat="50.62424" lon="3.08021">
        <ele>32.3</ele>
        <time>2020-06-24T07:39:35Z</time>
      </trkpt>
      <trkpt lat="50.62419" lon="3.08022">
        <ele>32.3</ele>
        <time>2020-06-24T07:39:36Z</time>
      </trkpt>
      <trkpt lat="50.62414" lon="3.08022">
        <ele>32.3</ele>
        <time>2020-06-24T07:39:37Z</time>
      </trkpt>
      <trkpt lat="50.6241" lon="3.08024">
        <ele>32.1</ele>
        <time>2020-06-24T07:39:38Z</time>
      </trkpt>
      <trkpt lat="50.62406" lon="3.08024">
        <ele>31.8</ele>
        <time>2020-06-24T07:39:39Z</time>
      </trkpt>
      <trkpt lat="50.62401" lon="3.08026">
        <ele>31.5</ele>
        <time>2020-06-24T07:39:40Z</time>
      </trkpt>
      <trkpt lat="50.62398" lon="3.08028">
        <ele>31.3</ele>
        <time>2020-06-24T07:39:41Z</time>
      </trkpt>
      <trkpt lat="50.62393" lon="3.0803">
        <ele>31.3</ele>
        <time>2020-06-24T07:39:42Z</time>
      </trkpt>
      <trkpt lat="50.6239" lon="3.08034">
        <ele>31.3</ele>
        <time>2020-06-24T07:39:43Z</time>
      </trkpt>
      <trkpt lat="50.62387" lon="3.08041">
        <ele>31.3</ele>
        <time>2020-06-24T07:39:44Z</time>
      </trkpt>
      <trkpt lat="50.62386" lon="3.08051">
        <ele>31.3</ele>
        <time>2020-06-24T07:39:45Z</time>
      </trkpt>
      <trkpt lat="50.62385" lon="3.0806">
        <ele>31.3</ele>
        <time>2020-06-24T07:39:46Z</time>
      </trkpt>
      <trkpt lat="50.62385" lon="3.08068">
        <ele>31.2</ele>
        <time>2020-06-24T07:39:47Z</time>
      </trkpt>
      <trkpt lat="50.62385" lon="3.08079">
        <ele>31.1</ele>
        <time>2020-06-24T07:39:48Z</time>
      </trkpt>
      <trkpt lat="50.62386" lon="3.08088">
        <ele>31.1</ele>
        <time>2020-06-24T07:39:49Z</time>
      </trkpt>
      <trkpt lat="50.62386" lon="3.08097">
        <ele>31.1</ele>
        <time>2020-06-24T07:39:50Z</time>
      </trkpt>
      <trkpt lat="50.62387" lon="3.08106">
        <ele>31</ele>
        <time>2020-06-24T07:39:51Z</time>
      </trkpt>
      <trkpt lat="50.62387" lon="3.08114">
        <ele>31</ele>
        <time>2020-06-24T07:39:52Z</time>
      </trkpt>
      <trkpt lat="50.62388" lon="3.08123">
        <ele>30.9</ele>
        <time>2020-06-24T07:39:53Z</time>
      </trkpt>
      <trkpt lat="50.62389" lon="3.08131">
        <ele>30.8</ele>
        <time>2020-06-24T07:39:54Z</time>
      </trkpt>
      <trkpt lat="50.62389" lon="3.0814">
        <ele>30.7</ele>
        <time>2020-06-24T07:39:55Z</time>
      </trkpt>
      <trkpt lat="50.6239" lon="3.08148">
        <ele>30.7</ele>
        <time>2020-06-24T07:39:56Z</time>
      </trkpt>
      <trkpt lat="50.62389" lon="3.08155">
        <ele>30.6</ele>
        <time>2020-06-24T07:39:57Z</time>
      </trkpt>
      <trkpt lat="50.62391" lon="3.08165">
        <ele>30.6</ele>
        <time>2020-06-24T07:39:58Z</time>
      </trkpt>
      <trkpt lat="50.6239" lon="3.08173">
        <ele>30.5</ele>
        <time>2020-06-24T07:39:59Z</time>
      </trkpt>
      <trkpt lat="50.62389" lon="3.08183">
        <ele>30.5</ele>
        <time>2020-06-24T07:40:00Z</time>
      </trkpt>
      <trkpt lat="50.62388" lon="3.08191">
        <ele>30.4</ele>
        <time>2020-06-24T07:40:01Z</time>
      </trkpt>
      <trkpt lat="50.62387" lon="3.08199">
        <ele>30.4</ele>
        <time>2020-06-24T07:40:02Z</time>
      </trkpt>
      <trkpt lat="50.62386" lon="3.08206">
        <ele>30.3</ele>
        <time>2020-06-24T07:40:03Z</time>
      </trkpt>
      <trkpt lat="50.62384" lon="3.08213">
        <ele>30.3</ele>
        <time>2020-06-24T07:40:04Z</time>
      </trkpt>
      <trkpt lat="50.62383" lon="3.08221">
        <ele>30.2</ele>
        <time>2020-06-24T07:40:05Z</time>
      </trkpt>
      <trkpt lat="50.62381" lon="3.08228">
        <ele>30.1</ele>
        <time>2020-06-24T07:40:06Z</time>
      </trkpt>
      <trkpt lat="50.62378" lon="3.08234">
        <ele>30.1</ele>
        <time>2020-06-24T07:40:07Z</time>
      </trkpt>
      <trkpt lat="50.62376" lon="3.08241">
        <ele>30</ele>
        <time>2020-06-24T07:40:08Z</time>
      </trkpt>
      <trkpt lat="50.62372" lon="3.08246">
        <ele>29.9</ele>
        <time>2020-06-24T07:40:09Z</time>
      </trkpt>
      <trkpt lat="50.62369" lon="3.08254">
        <ele>29.9</ele>
        <time>2020-06-24T07:40:10Z</time>
      </trkpt>
      <trkpt lat="50.62365" lon="3.0826">
        <ele>29.8</ele>
        <time>2020-06-24T07:40:11Z</time>
      </trkpt>
      <trkpt lat="50.62363" lon="3.08267">
        <ele>29.8</ele>
        <time>2020-06-24T07:40:12Z</time>
      </trkpt>
      <trkpt lat="50.6236" lon="3.08273">
        <ele>29.7</ele>
        <time>2020-06-24T07:40:13Z</time>
      </trkpt>
      <trkpt lat="50.62356" lon="3.08278">
        <ele>29.7</ele>
        <time>2020-06-24T07:40:14Z</time>
      </trkpt>
      <trkpt lat="50.62352" lon="3.08281">
        <ele>29.7</ele>
        <time>2020-06-24T07:40:15Z</time>
      </trkpt>
      <trkpt lat="50.62348" lon="3.08283">
        <ele>29.7</ele>
        <time>2020-06-24T07:40:16Z</time>
      </trkpt>
      <trkpt lat="50.62345" lon="3.08287">
        <ele>29.7</ele>
        <time>2020-06-24T07:40:17Z</time>
      </trkpt>
      <trkpt lat="50.62342" lon="3.08292">
        <ele>29.7</ele>
        <time>2020-06-24T07:40:18Z</time>
      </trkpt>
      <trkpt lat="50.6234" lon="3.08297">
        <ele>29.8</ele>
        <time>2020-06-24T07:40:19Z</time>
      </trkpt>
      <trkpt lat="50.62337" lon="3.08303">
        <ele>29.8</ele>
        <time>2020-06-24T07:40:20Z</time>
      </trkpt>
      <trkpt lat="50.62334" lon="3.08309">
        <ele>29.8</ele>
        <time>2020-06-24T07:40:21Z</time>
      </trkpt>
      <trkpt lat="50.62331" lon="3.08316">
        <ele>29.9</ele>
        <time>2020-06-24T07:40:22Z</time>
      </trkpt>
      <trkpt lat="50.62328" lon="3.08322">
        <ele>29.9</ele>
        <time>2020-06-24T07:40:23Z</time>
      </trkpt>
      <trkpt lat="50.62324" lon="3.08327">
        <ele>29.9</ele>
        <time>2020-06-24T07:40:24Z</time>
      </trkpt>
      <trkpt lat="50.62321" lon="3.08332">
        <ele>30</ele>
        <time>2020-06-24T07:40:25Z</time>
      </trkpt>
      <trkpt lat="50.62317" lon="3.08336">
        <ele>30</ele>
        <time>2020-06-24T07:40:26Z</time>
      </trkpt>
      <trkpt lat="50.62314" lon="3.08341">
        <ele>30</ele>
        <time>2020-06-24T07:40:27Z</time>
      </trkpt>
      <trkpt lat="50.62311" lon="3.08345">
        <ele>30</ele>
        <time>2020-06-24T07:40:28Z</time>
      </trkpt>
      <trkpt lat="50.62308" lon="3.08349">
        <ele>30.1</ele>
        <time>2020-06-24T07:40:29Z</time>
      </trkpt>
      <trkpt lat="50.62305" lon="3.08354">
        <ele>30.1</ele>
        <time>2020-06-24T07:40:30Z</time>
      </trkpt>
      <trkpt lat="50.62302" lon="3.08358">
        <ele>30.1</ele>
        <time>2020-06-24T07:40:31Z</time>
      </trkpt>
      <trkpt lat="50.623" lon="3.08363">
        <ele>30.1</ele>
        <time>2020-06-24T07:40:32Z</time>
      </trkpt>
      <trkpt lat="50.62296" lon="3.08368">
        <ele>30</ele>
        <time>2020-06-24T07:40:33Z</time>
      </trkpt>
      <trkpt lat="50.62292" lon="3.08374">
        <ele>30</ele>
        <time>2020-06-24T07:40:34Z</time>
      </trkpt>
      <trkpt lat="50.62289" lon="3.08379">
        <ele>30</ele>
        <time>2020-06-24T07:40:35Z</time>
      </trkpt>
      <trkpt lat="50.62286" lon="3.08384">
        <ele>30</ele>
        <time>2020-06-24T07:40:36Z</time>
      </trkpt>
      <trkpt lat="50.62282" lon="3.08388">
        <ele>30</ele>
        <time>2020-06-24T07:40:37Z</time>
      </trkpt>
      <trkpt lat="50.62275" lon="3.08395">
        <ele>30</ele>
        <time>2020-06-24T07:40:38Z</time>
      </trkpt>
      <trkpt lat="50.62273" lon="3.08398">
        <ele>30.1</ele>
        <time>2020-06-24T07:40:39Z</time>
      </trkpt>
      <trkpt lat="50.62269" lon="3.08407">
        <ele>30.1</ele>
        <time>2020-06-24T07:40:40Z</time>
      </trkpt>
      <trkpt lat="50.62267" lon="3.08419">
        <ele>30.2</ele>
        <time>2020-06-24T07:40:41Z</time>
      </trkpt>
      <trkpt lat="50.62265" lon="3.08429">
        <ele>30.4</ele>
        <time>2020-06-24T07:40:42Z</time>
      </trkpt>
      <trkpt lat="50.62262" lon="3.08438">
        <ele>30.5</ele>
        <time>2020-06-24T07:40:43Z</time>
      </trkpt>
      <trkpt lat="50.62258" lon="3.08447">
        <ele>30.6</ele>
        <time>2020-06-24T07:40:44Z</time>
      </trkpt>
      <trkpt lat="50.62254" lon="3.08455">
        <ele>30.8</ele>
        <time>2020-06-24T07:40:45Z</time>
      </trkpt>
      <trkpt lat="50.62249" lon="3.08461">
        <ele>30.9</ele>
        <time>2020-06-24T07:40:46Z</time>
      </trkpt>
      <trkpt lat="50.62246" lon="3.08466">
        <ele>31</ele>
        <time>2020-06-24T07:40:47Z</time>
      </trkpt>
      <trkpt lat="50.62243" lon="3.08471">
        <ele>31.1</ele>
        <time>2020-06-24T07:40:48Z</time>
      </trkpt>
      <trkpt lat="50.6224" lon="3.08478">
        <ele>31.2</ele>
        <time>2020-06-24T07:40:49Z</time>
      </trkpt>
      <trkpt lat="50.62236" lon="3.08484">
        <ele>31.3</ele>
        <time>2020-06-24T07:40:50Z</time>
      </trkpt>
      <trkpt lat="50.62233" lon="3.08491">
        <ele>31.5</ele>
        <time>2020-06-24T07:40:51Z</time>
      </trkpt>
      <trkpt lat="50.6223" lon="3.08498">
        <ele>31.7</ele>
        <time>2020-06-24T07:40:52Z</time>
      </trkpt>
      <trkpt lat="50.62226" lon="3.08504">
        <ele>31.8</ele>
        <time>2020-06-24T07:40:53Z</time>
      </trkpt>
      <trkpt lat="50.62222" lon="3.0851">
        <ele>32</ele>
        <time>2020-06-24T07:40:54Z</time>
      </trkpt>
      <trkpt lat="50.62219" lon="3.08516">
        <ele>32.1</ele>
        <time>2020-06-24T07:40:55Z</time>
      </trkpt>
      <trkpt lat="50.62216" lon="3.08521">
        <ele>32.3</ele>
        <time>2020-06-24T07:40:56Z</time>
      </trkpt>
      <trkpt lat="50.62212" lon="3.08527">
        <ele>32.4</ele>
        <time>2020-06-24T07:40:57Z</time>
      </trkpt>
      <trkpt lat="50.62209" lon="3.08533">
        <ele>32.5</ele>
        <time>2020-06-24T07:40:58Z</time>
      </trkpt>
      <trkpt lat="50.62205" lon="3.08538">
        <ele>32.7</ele>
        <time>2020-06-24T07:40:59Z</time>
      </trkpt>
      <trkpt lat="50.62201" lon="3.08544">
        <ele>32.8</ele>
        <time>2020-06-24T07:41:00Z</time>
      </trkpt>
      <trkpt lat="50.62198" lon="3.08549">
        <ele>32.9</ele>
        <time>2020-06-24T07:41:01Z</time>
      </trkpt>
      <trkpt lat="50.62195" lon="3.08554">
        <ele>33.1</ele>
        <time>2020-06-24T07:41:02Z</time>
      </trkpt>
      <trkpt lat="50.62191" lon="3.0856">
        <ele>33.2</ele>
        <time>2020-06-24T07:41:03Z</time>
      </trkpt>
      <trkpt lat="50.62188" lon="3.08565">
        <ele>33.3</ele>
        <time>2020-06-24T07:41:04Z</time>
      </trkpt>
      <trkpt lat="50.62185" lon="3.08571">
        <ele>33.5</ele>
        <time>2020-06-24T07:41:05Z</time>
      </trkpt>
      <trkpt lat="50.62182" lon="3.08577">
        <ele>33.6</ele>
        <time>2020-06-24T07:41:06Z</time>
      </trkpt>
      <trkpt lat="50.62178" lon="3.08582">
        <ele>33.8</ele>
        <time>2020-06-24T07:41:07Z</time>
      </trkpt>
      <trkpt lat="50.62175" lon="3.08587">
        <ele>33.9</ele>
        <time>2020-06-24T07:41:08Z</time>
      </trkpt>
      <trkpt lat="50.62172" lon="3.08592">
        <ele>34</ele>
        <time>2020-06-24T07:41:09Z</time>
      </trkpt>
      <trkpt lat="50.62169" lon="3.08599">
        <ele>34.1</ele>
        <time>2020-06-24T07:41:10Z</time>
      </trkpt>
      <trkpt lat="50.62166" lon="3.08604">
        <ele>34.2</ele>
        <time>2020-06-24T07:41:11Z</time>
      </trkpt>
      <trkpt lat="50.62163" lon="3.08609">
        <ele>34.3</ele>
        <time>2020-06-24T07:41:12Z</time>
      </trkpt>
      <trkpt lat="50.6216" lon="3.08614">
        <ele>34.3</ele>
        <time>2020-06-24T07:41:13Z</time>
      </trkpt>
      <trkpt lat="50.62157" lon="3.08617">
        <ele>34.5</ele>
        <time>2020-06-24T07:41:14Z</time>
      </trkpt>
      <trkpt lat="50.62155" lon="3.0862">
        <ele>34.6</ele>
        <time>2020-06-24T07:41:15Z</time>
      </trkpt>
      <trkpt lat="50.62152" lon="3.08622">
        <ele>34.7</ele>
        <time>2020-06-24T07:41:16Z</time>
      </trkpt>
      <trkpt lat="50.62149" lon="3.08625">
        <ele>34.9</ele>
        <time>2020-06-24T07:41:17Z</time>
      </trkpt>
      <trkpt lat="50.62148" lon="3.08626">
        <ele>34.9</ele>
        <time>2020-06-24T07:41:18Z</time>
      </trkpt>
      <trkpt lat="50.62146" lon="3.08632">
        <ele>35.1</ele>
        <time>2020-06-24T07:41:19Z</time>
      </trkpt>
      <trkpt lat="50.62145" lon="3.08633">
        <ele>35.2</ele>
        <time>2020-06-24T07:41:20Z</time>
      </trkpt>
      <trkpt lat="50.62144" lon="3.08639">
        <ele>35.3</ele>
        <time>2020-06-24T07:41:21Z</time>
      </trkpt>
      <trkpt lat="50.62144" lon="3.08641">
        <ele>35.4</ele>
        <time>2020-06-24T07:41:22Z</time>
      </trkpt>
      <trkpt lat="50.62142" lon="3.08646">
        <ele>35.5</ele>
        <time>2020-06-24T07:41:23Z</time>
      </trkpt>
      <trkpt lat="50.62142" lon="3.08648">
        <ele>35.6</ele>
        <time>2020-06-24T07:41:24Z</time>
      </trkpt>
      <trkpt lat="50.62139" lon="3.08653">
        <ele>35.7</ele>
        <time>2020-06-24T07:41:25Z</time>
      </trkpt>
      <trkpt lat="50.62138" lon="3.08654">
        <ele>35.7</ele>
        <time>2020-06-24T07:41:26Z</time>
      </trkpt>
      <trkpt lat="50.62137" lon="3.08659">
        <ele>35.8</ele>
        <time>2020-06-24T07:41:27Z</time>
      </trkpt>
      <trkpt lat="50.62133" lon="3.08671">
        <ele>35.6</ele>
        <time>2020-06-24T07:41:28Z</time>
      </trkpt>
      <trkpt lat="50.62131" lon="3.0868">
        <ele>35.3</ele>
        <time>2020-06-24T07:41:29Z</time>
      </trkpt>
      <trkpt lat="50.62132" lon="3.08688">
        <ele>35.3</ele>
        <time>2020-06-24T07:41:30Z</time>
      </trkpt>
      <trkpt lat="50.62133" lon="3.08695">
        <ele>35.3</ele>
        <time>2020-06-24T07:41:31Z</time>
      </trkpt>
      <trkpt lat="50.62136" lon="3.08702">
        <ele>35.3</ele>
        <time>2020-06-24T07:41:32Z</time>
      </trkpt>
      <trkpt lat="50.62138" lon="3.08709">
        <ele>35.3</ele>
        <time>2020-06-24T07:41:33Z</time>
      </trkpt>
      <trkpt lat="50.6214" lon="3.08717">
        <ele>35.3</ele>
        <time>2020-06-24T07:41:34Z</time>
      </trkpt>
      <trkpt lat="50.62141" lon="3.08724">
        <ele>35.3</ele>
        <time>2020-06-24T07:41:35Z</time>
      </trkpt>
      <trkpt lat="50.62144" lon="3.08731">
        <ele>35.3</ele>
        <time>2020-06-24T07:41:36Z</time>
      </trkpt>
      <trkpt lat="50.62146" lon="3.08738">
        <ele>35.3</ele>
        <time>2020-06-24T07:41:37Z</time>
      </trkpt>
      <trkpt lat="50.62149" lon="3.08745">
        <ele>35.3</ele>
        <time>2020-06-24T07:41:38Z</time>
      </trkpt>
      <trkpt lat="50.62152" lon="3.08753">
        <ele>35.4</ele>
        <time>2020-06-24T07:41:39Z</time>
      </trkpt>
      <trkpt lat="50.62154" lon="3.08761">
        <ele>35.4</ele>
        <time>2020-06-24T07:41:40Z</time>
      </trkpt>
      <trkpt lat="50.62156" lon="3.08768">
        <ele>35.5</ele>
        <time>2020-06-24T07:41:41Z</time>
      </trkpt>
      <trkpt lat="50.62158" lon="3.08777">
        <ele>35.5</ele>
        <time>2020-06-24T07:41:42Z</time>
      </trkpt>
      <trkpt lat="50.62161" lon="3.08785">
        <ele>35.5</ele>
        <time>2020-06-24T07:41:43Z</time>
      </trkpt>
      <trkpt lat="50.62163" lon="3.08792">
        <ele>35.6</ele>
        <time>2020-06-24T07:41:44Z</time>
      </trkpt>
      <trkpt lat="50.62164" lon="3.08799">
        <ele>35.6</ele>
        <time>2020-06-24T07:41:45Z</time>
      </trkpt>
      <trkpt lat="50.62166" lon="3.08806">
        <ele>35.6</ele>
        <time>2020-06-24T07:41:46Z</time>
      </trkpt>
      <trkpt lat="50.62169" lon="3.08812">
        <ele>35.6</ele>
        <time>2020-06-24T07:41:47Z</time>
      </trkpt>
      <trkpt lat="50.62171" lon="3.08819">
        <ele>35.7</ele>
        <time>2020-06-24T07:41:48Z</time>
      </trkpt>
      <trkpt lat="50.62174" lon="3.08827">
        <ele>35.7</ele>
        <time>2020-06-24T07:41:49Z</time>
      </trkpt>
      <trkpt lat="50.62176" lon="3.08834">
        <ele>35.7</ele>
        <time>2020-06-24T07:41:50Z</time>
      </trkpt>
      <trkpt lat="50.62178" lon="3.08841">
        <ele>35.7</ele>
        <time>2020-06-24T07:41:51Z</time>
      </trkpt>
      <trkpt lat="50.62181" lon="3.08849">
        <ele>35.7</ele>
        <time>2020-06-24T07:41:52Z</time>
      </trkpt>
      <trkpt lat="50.62184" lon="3.08857">
        <ele>35.7</ele>
        <time>2020-06-24T07:41:53Z</time>
      </trkpt>
      <trkpt lat="50.62186" lon="3.08866">
        <ele>35.7</ele>
        <time>2020-06-24T07:41:54Z</time>
      </trkpt>
      <trkpt lat="50.62188" lon="3.08873">
        <ele>35.7</ele>
        <time>2020-06-24T07:41:55Z</time>
      </trkpt>
      <trkpt lat="50.6219" lon="3.08881">
        <ele>35.6</ele>
        <time>2020-06-24T07:41:56Z</time>
      </trkpt>
      <trkpt lat="50.62193" lon="3.08888">
        <ele>35.6</ele>
        <time>2020-06-24T07:41:57Z</time>
      </trkpt>
      <trkpt lat="50.62195" lon="3.08895">
        <ele>35.5</ele>
        <time>2020-06-24T07:41:58Z</time>
      </trkpt>
      <trkpt lat="50.62198" lon="3.08901">
        <ele>35.5</ele>
        <time>2020-06-24T07:41:59Z</time>
      </trkpt>
      <trkpt lat="50.622" lon="3.08907">
        <ele>35.4</ele>
        <time>2020-06-24T07:42:00Z</time>
      </trkpt>
      <trkpt lat="50.62202" lon="3.08914">
        <ele>35.4</ele>
        <time>2020-06-24T07:42:01Z</time>
      </trkpt>
      <trkpt lat="50.62204" lon="3.0892">
        <ele>35.4</ele>
        <time>2020-06-24T07:42:02Z</time>
      </trkpt>
      <trkpt lat="50.62205" lon="3.08926">
        <ele>35.3</ele>
        <time>2020-06-24T07:42:03Z</time>
      </trkpt>
      <trkpt lat="50.62207" lon="3.08933">
        <ele>35.3</ele>
        <time>2020-06-24T07:42:04Z</time>
      </trkpt>
      <trkpt lat="50.62209" lon="3.08938">
        <ele>35.3</ele>
        <time>2020-06-24T07:42:05Z</time>
      </trkpt>
      <trkpt lat="50.62211" lon="3.08944">
        <ele>35.3</ele>
        <time>2020-06-24T07:42:06Z</time>
      </trkpt>
      <trkpt lat="50.62213" lon="3.0895">
        <ele>35.3</ele>
        <time>2020-06-24T07:42:07Z</time>
      </trkpt>
      <trkpt lat="50.62215" lon="3.08956">
        <ele>35.4</ele>
        <time>2020-06-24T07:42:08Z</time>
      </trkpt>
      <trkpt lat="50.62216" lon="3.08961">
        <ele>35.4</ele>
        <time>2020-06-24T07:42:09Z</time>
      </trkpt>
      <trkpt lat="50.62218" lon="3.08967">
        <ele>35.4</ele>
        <time>2020-06-24T07:42:10Z</time>
      </trkpt>
      <trkpt lat="50.6222" lon="3.08974">
        <ele>35.4</ele>
        <time>2020-06-24T07:42:11Z</time>
      </trkpt>
      <trkpt lat="50.62221" lon="3.08979">
        <ele>35.3</ele>
        <time>2020-06-24T07:42:12Z</time>
      </trkpt>
      <trkpt lat="50.62223" lon="3.08986">
        <ele>35.3</ele>
        <time>2020-06-24T07:42:13Z</time>
      </trkpt>
      <trkpt lat="50.62225" lon="3.08992">
        <ele>35.2</ele>
        <time>2020-06-24T07:42:14Z</time>
      </trkpt>
      <trkpt lat="50.62227" lon="3.08997">
        <ele>35.2</ele>
        <time>2020-06-24T07:42:15Z</time>
      </trkpt>
      <trkpt lat="50.62229" lon="3.09003">
        <ele>35.1</ele>
        <time>2020-06-24T07:42:16Z</time>
      </trkpt>
      <trkpt lat="50.62231" lon="3.09009">
        <ele>35.1</ele>
        <time>2020-06-24T07:42:17Z</time>
      </trkpt>
      <trkpt lat="50.62233" lon="3.09016">
        <ele>35</ele>
        <time>2020-06-24T07:42:18Z</time>
      </trkpt>
      <trkpt lat="50.62235" lon="3.09022">
        <ele>35</ele>
        <time>2020-06-24T07:42:19Z</time>
      </trkpt>
      <trkpt lat="50.62237" lon="3.09027">
        <ele>35</ele>
        <time>2020-06-24T07:42:20Z</time>
      </trkpt>
      <trkpt lat="50.62239" lon="3.09033">
        <ele>34.9</ele>
        <time>2020-06-24T07:42:21Z</time>
      </trkpt>
      <trkpt lat="50.6224" lon="3.09039">
        <ele>34.9</ele>
        <time>2020-06-24T07:42:22Z</time>
      </trkpt>
      <trkpt lat="50.62242" lon="3.09045">
        <ele>34.8</ele>
        <time>2020-06-24T07:42:23Z</time>
      </trkpt>
      <trkpt lat="50.62243" lon="3.09051">
        <ele>34.7</ele>
        <time>2020-06-24T07:42:24Z</time>
      </trkpt>
      <trkpt lat="50.62245" lon="3.09058">
        <ele>34.6</ele>
        <time>2020-06-24T07:42:25Z</time>
      </trkpt>
      <trkpt lat="50.62246" lon="3.09063">
        <ele>34.5</ele>
        <time>2020-06-24T07:42:26Z</time>
      </trkpt>
      <trkpt lat="50.62248" lon="3.09067">
        <ele>34.5</ele>
        <time>2020-06-24T07:42:27Z</time>
      </trkpt>
      <trkpt lat="50.62249" lon="3.09073">
        <ele>34.4</ele>
        <time>2020-06-24T07:42:28Z</time>
      </trkpt>
      <trkpt lat="50.62249" lon="3.09076">
        <ele>34.3</ele>
        <time>2020-06-24T07:42:29Z</time>
      </trkpt>
      <trkpt lat="50.6225" lon="3.0908">
        <ele>34.3</ele>
        <time>2020-06-24T07:42:30Z</time>
      </trkpt>
      <trkpt lat="50.62249" lon="3.09086">
        <ele>34.2</ele>
        <time>2020-06-24T07:42:31Z</time>
      </trkpt>
      <trkpt lat="50.62249" lon="3.09088">
        <ele>34.2</ele>
        <time>2020-06-24T07:42:32Z</time>
      </trkpt>
      <trkpt lat="50.62248" lon="3.09092">
        <ele>34.1</ele>
        <time>2020-06-24T07:42:33Z</time>
      </trkpt>
      <trkpt lat="50.62248" lon="3.09093">
        <ele>34.1</ele>
        <time>2020-06-24T07:42:34Z</time>
      </trkpt>
      <trkpt lat="50.62247" lon="3.09097">
        <ele>34</ele>
        <time>2020-06-24T07:42:35Z</time>
      </trkpt>
      <trkpt lat="50.62247" lon="3.09098">
        <ele>34</ele>
        <time>2020-06-24T07:42:36Z</time>
      </trkpt>
      <trkpt lat="50.62247" lon="3.09098">
        <ele>34</ele>
        <time>2020-06-24T07:42:37Z</time>
      </trkpt>
      <trkpt lat="50.62247" lon="3.09099">
        <ele>34</ele>
        <time>2020-06-24T07:42:38Z</time>
      </trkpt>
      <trkpt lat="50.62246" lon="3.091">
        <ele>34</ele>
        <time>2020-06-24T07:42:39Z</time>
      </trkpt>
      <trkpt lat="50.62246" lon="3.09101">
        <ele>33.9</ele>
        <time>2020-06-24T07:42:40Z</time>
      </trkpt>
      <trkpt lat="50.62246" lon="3.09102">
        <ele>33.9</ele>
        <time>2020-06-24T07:42:41Z</time>
      </trkpt>
      <trkpt lat="50.62246" lon="3.09102">
        <ele>33.9</ele>
        <time>2020-06-24T07:42:42Z</time>
      </trkpt>
      <trkpt lat="50.62245" lon="3.09103">
        <ele>33.9</ele>
        <time>2020-06-24T07:42:43Z</time>
      </trkpt>
      <trkpt lat="50.62245" lon="3.09104">
        <ele>33.9</ele>
        <time>2020-06-24T07:42:44Z</time>
      </trkpt>
      <trkpt lat="50.62245" lon="3.09105">
        <ele>33.9</ele>
        <time>2020-06-24T07:42:45Z</time>
      </trkpt>
      <trkpt lat="50.62245" lon="3.09106">
        <ele>33.9</ele>
        <time>2020-06-24T07:42:46Z</time>
      </trkpt>
      <trkpt lat="50.62244" lon="3.09107">
        <ele>33.8</ele>
        <time>2020-06-24T07:42:47Z</time>
      </trkpt>
      <trkpt lat="50.62244" lon="3.09107">
        <ele>33.8</ele>
        <time>2020-06-24T07:43:09Z</time>
      </trkpt>
      <trkpt lat="50.62244" lon="3.09108">
        <ele>33.8</ele>
        <time>2020-06-24T07:43:10Z</time>
      </trkpt>
      <trkpt lat="50.62242" lon="3.09112">
        <ele>33.7</ele>
        <time>2020-06-24T07:43:11Z</time>
      </trkpt>
      <trkpt lat="50.62241" lon="3.0912">
        <ele>33.7</ele>
        <time>2020-06-24T07:43:12Z</time>
      </trkpt>
      <trkpt lat="50.62239" lon="3.09128">
        <ele>33.5</ele>
        <time>2020-06-24T07:43:13Z</time>
      </trkpt>
      <trkpt lat="50.62237" lon="3.09135">
        <ele>33.4</ele>
        <time>2020-06-24T07:43:14Z</time>
      </trkpt>
      <trkpt lat="50.62235" lon="3.09143">
        <ele>33.2</ele>
        <time>2020-06-24T07:43:15Z</time>
      </trkpt>
      <trkpt lat="50.62233" lon="3.09151">
        <ele>33</ele>
        <time>2020-06-24T07:43:16Z</time>
      </trkpt>
      <trkpt lat="50.62231" lon="3.09158">
        <ele>32.8</ele>
        <time>2020-06-24T07:43:17Z</time>
      </trkpt>
      <trkpt lat="50.62229" lon="3.09165">
        <ele>32.7</ele>
        <time>2020-06-24T07:43:18Z</time>
      </trkpt>
      <trkpt lat="50.62227" lon="3.09171">
        <ele>32.5</ele>
        <time>2020-06-24T07:43:19Z</time>
      </trkpt>
      <trkpt lat="50.62225" lon="3.09177">
        <ele>32.3</ele>
        <time>2020-06-24T07:43:20Z</time>
      </trkpt>
      <trkpt lat="50.62222" lon="3.09184">
        <ele>32.1</ele>
        <time>2020-06-24T07:43:21Z</time>
      </trkpt>
      <trkpt lat="50.62219" lon="3.0919">
        <ele>31.9</ele>
        <time>2020-06-24T07:43:22Z</time>
      </trkpt>
      <trkpt lat="50.62217" lon="3.09197">
        <ele>31.7</ele>
        <time>2020-06-24T07:43:23Z</time>
      </trkpt>
      <trkpt lat="50.62214" lon="3.09205">
        <ele>31.5</ele>
        <time>2020-06-24T07:43:24Z</time>
      </trkpt>
      <trkpt lat="50.6221" lon="3.09212">
        <ele>31.3</ele>
        <time>2020-06-24T07:43:25Z</time>
      </trkpt>
      <trkpt lat="50.62208" lon="3.09218">
        <ele>31.2</ele>
        <time>2020-06-24T07:43:26Z</time>
      </trkpt>
      <trkpt lat="50.62205" lon="3.09225">
        <ele>31</ele>
        <time>2020-06-24T07:43:27Z</time>
      </trkpt>
      <trkpt lat="50.62202" lon="3.09233">
        <ele>30.9</ele>
        <time>2020-06-24T07:43:28Z</time>
      </trkpt>
      <trkpt lat="50.62199" lon="3.09242">
        <ele>30.8</ele>
        <time>2020-06-24T07:43:29Z</time>
      </trkpt>
      <trkpt lat="50.62195" lon="3.0925">
        <ele>30.6</ele>
        <time>2020-06-24T07:43:30Z</time>
      </trkpt>
      <trkpt lat="50.62191" lon="3.09259">
        <ele>30.5</ele>
        <time>2020-06-24T07:43:31Z</time>
      </trkpt>
      <trkpt lat="50.62188" lon="3.09268">
        <ele>30.4</ele>
        <time>2020-06-24T07:43:32Z</time>
      </trkpt>
      <trkpt lat="50.62184" lon="3.09276">
        <ele>30.4</ele>
        <time>2020-06-24T07:43:33Z</time>
      </trkpt>
      <trkpt lat="50.6218" lon="3.09285">
        <ele>30.3</ele>
        <time>2020-06-24T07:43:34Z</time>
      </trkpt>
      <trkpt lat="50.62176" lon="3.09296">
        <ele>30.3</ele>
        <time>2020-06-24T07:43:35Z</time>
      </trkpt>
      <trkpt lat="50.62172" lon="3.09308">
        <ele>30.3</ele>
        <time>2020-06-24T07:43:36Z</time>
      </trkpt>
      <trkpt lat="50.62168" lon="3.09318">
        <ele>30.3</ele>
        <time>2020-06-24T07:43:37Z</time>
      </trkpt>
      <trkpt lat="50.62165" lon="3.09326">
        <ele>30.3</ele>
        <time>2020-06-24T07:43:38Z</time>
      </trkpt>
      <trkpt lat="50.62162" lon="3.09334">
        <ele>30.3</ele>
        <time>2020-06-24T07:43:39Z</time>
      </trkpt>
      <trkpt lat="50.6216" lon="3.09339">
        <ele>30.2</ele>
        <time>2020-06-24T07:43:40Z</time>
      </trkpt>
      <trkpt lat="50.62157" lon="3.09345">
        <ele>30.2</ele>
        <time>2020-06-24T07:43:41Z</time>
      </trkpt>
      <trkpt lat="50.62156" lon="3.09352">
        <ele>30.2</ele>
        <time>2020-06-24T07:43:42Z</time>
      </trkpt>
      <trkpt lat="50.62153" lon="3.09358">
        <ele>30.2</ele>
        <time>2020-06-24T07:43:43Z</time>
      </trkpt>
      <trkpt lat="50.6215" lon="3.09365">
        <ele>30.2</ele>
        <time>2020-06-24T07:43:44Z</time>
      </trkpt>
      <trkpt lat="50.62148" lon="3.09372">
        <ele>30.2</ele>
        <time>2020-06-24T07:43:45Z</time>
      </trkpt>
      <trkpt lat="50.62147" lon="3.09377">
        <ele>30.3</ele>
        <time>2020-06-24T07:43:46Z</time>
      </trkpt>
      <trkpt lat="50.62147" lon="3.09382">
        <ele>30.3</ele>
        <time>2020-06-24T07:43:47Z</time>
      </trkpt>
      <trkpt lat="50.62147" lon="3.09383">
        <ele>30.3</ele>
        <time>2020-06-24T07:43:48Z</time>
      </trkpt>
      <trkpt lat="50.62146" lon="3.09391">
        <ele>30.3</ele>
        <time>2020-06-24T07:43:49Z</time>
      </trkpt>
      <trkpt lat="50.62144" lon="3.09397">
        <ele>30.3</ele>
        <time>2020-06-24T07:43:50Z</time>
      </trkpt>
      <trkpt lat="50.6214" lon="3.09405">
        <ele>30.3</ele>
        <time>2020-06-24T07:43:51Z</time>
      </trkpt>
      <trkpt lat="50.62138" lon="3.09414">
        <ele>30.4</ele>
        <time>2020-06-24T07:43:52Z</time>
      </trkpt>
      <trkpt lat="50.62135" lon="3.09425">
        <ele>30.4</ele>
        <time>2020-06-24T07:43:53Z</time>
      </trkpt>
      <trkpt lat="50.62133" lon="3.09435">
        <ele>30.4</ele>
        <time>2020-06-24T07:43:54Z</time>
      </trkpt>
      <trkpt lat="50.62131" lon="3.09444">
        <ele>30.5</ele>
        <time>2020-06-24T07:43:55Z</time>
      </trkpt>
      <trkpt lat="50.6213" lon="3.09452">
        <ele>30.4</ele>
        <time>2020-06-24T07:43:56Z</time>
      </trkpt>
      <trkpt lat="50.62128" lon="3.09458">
        <ele>30.4</ele>
        <time>2020-06-24T07:43:57Z</time>
      </trkpt>
      <trkpt lat="50.62126" lon="3.09463">
        <ele>30.4</ele>
        <time>2020-06-24T07:43:58Z</time>
      </trkpt>
      <trkpt lat="50.62125" lon="3.09468">
        <ele>30.4</ele>
        <time>2020-06-24T07:43:59Z</time>
      </trkpt>
      <trkpt lat="50.62122" lon="3.09474">
        <ele>30.4</ele>
        <time>2020-06-24T07:44:00Z</time>
      </trkpt>
      <trkpt lat="50.6212" lon="3.09479">
        <ele>30.4</ele>
        <time>2020-06-24T07:44:01Z</time>
      </trkpt>
      <trkpt lat="50.62118" lon="3.09484">
        <ele>30.4</ele>
        <time>2020-06-24T07:44:02Z</time>
      </trkpt>
      <trkpt lat="50.62115" lon="3.0949">
        <ele>30.4</ele>
        <time>2020-06-24T07:44:03Z</time>
      </trkpt>
      <trkpt lat="50.62113" lon="3.09495">
        <ele>30.4</ele>
        <time>2020-06-24T07:44:04Z</time>
      </trkpt>
      <trkpt lat="50.62111" lon="3.09502">
        <ele>30.4</ele>
        <time>2020-06-24T07:44:05Z</time>
      </trkpt>
      <trkpt lat="50.62109" lon="3.09508">
        <ele>30.4</ele>
        <time>2020-06-24T07:44:06Z</time>
      </trkpt>
      <trkpt lat="50.62106" lon="3.09515">
        <ele>30.5</ele>
        <time>2020-06-24T07:44:07Z</time>
      </trkpt>
      <trkpt lat="50.62104" lon="3.09523">
        <ele>30.5</ele>
        <time>2020-06-24T07:44:08Z</time>
      </trkpt>
      <trkpt lat="50.62102" lon="3.09531">
        <ele>30.5</ele>
        <time>2020-06-24T07:44:09Z</time>
      </trkpt>
      <trkpt lat="50.62099" lon="3.09539">
        <ele>30.6</ele>
        <time>2020-06-24T07:44:10Z</time>
      </trkpt>
      <trkpt lat="50.62097" lon="3.09546">
        <ele>30.7</ele>
        <time>2020-06-24T07:44:11Z</time>
      </trkpt>
      <trkpt lat="50.62094" lon="3.09555">
        <ele>30.8</ele>
        <time>2020-06-24T07:44:12Z</time>
      </trkpt>
      <trkpt lat="50.62091" lon="3.09563">
        <ele>30.9</ele>
        <time>2020-06-24T07:44:13Z</time>
      </trkpt>
      <trkpt lat="50.62087" lon="3.09571">
        <ele>31</ele>
        <time>2020-06-24T07:44:14Z</time>
      </trkpt>
      <trkpt lat="50.62084" lon="3.0958">
        <ele>31.4</ele>
        <time>2020-06-24T07:44:15Z</time>
      </trkpt>
      <trkpt lat="50.62081" lon="3.09587">
        <ele>31.7</ele>
        <time>2020-06-24T07:44:16Z</time>
      </trkpt>
      <trkpt lat="50.62077" lon="3.09593">
        <ele>32.1</ele>
        <time>2020-06-24T07:44:17Z</time>
      </trkpt>
      <trkpt lat="50.62073" lon="3.09601">
        <ele>32.5</ele>
        <time>2020-06-24T07:44:18Z</time>
      </trkpt>
      <trkpt lat="50.6207" lon="3.09606">
        <ele>32.8</ele>
        <time>2020-06-24T07:44:19Z</time>
      </trkpt>
      <trkpt lat="50.62067" lon="3.09612">
        <ele>33.2</ele>
        <time>2020-06-24T07:44:20Z</time>
      </trkpt>
      <trkpt lat="50.62064" lon="3.09617">
        <ele>33.6</ele>
        <time>2020-06-24T07:44:21Z</time>
      </trkpt>
      <trkpt lat="50.62061" lon="3.09624">
        <ele>34</ele>
        <time>2020-06-24T07:44:22Z</time>
      </trkpt>
      <trkpt lat="50.62056" lon="3.09633">
        <ele>34.7</ele>
        <time>2020-06-24T07:44:23Z</time>
      </trkpt>
      <trkpt lat="50.62053" lon="3.09641">
        <ele>35.2</ele>
        <time>2020-06-24T07:44:24Z</time>
      </trkpt>
      <trkpt lat="50.62049" lon="3.09648">
        <ele>35.3</ele>
        <time>2020-06-24T07:44:25Z</time>
      </trkpt>
      <trkpt lat="50.62045" lon="3.09656">
        <ele>35.4</ele>
        <time>2020-06-24T07:44:26Z</time>
      </trkpt>
      <trkpt lat="50.62042" lon="3.09662">
        <ele>35.5</ele>
        <time>2020-06-24T07:44:27Z</time>
      </trkpt>
      <trkpt lat="50.6204" lon="3.09669">
        <ele>35.5</ele>
        <time>2020-06-24T07:44:28Z</time>
      </trkpt>
      <trkpt lat="50.62036" lon="3.09677">
        <ele>35.6</ele>
        <time>2020-06-24T07:44:29Z</time>
      </trkpt>
      <trkpt lat="50.62033" lon="3.09684">
        <ele>35.7</ele>
        <time>2020-06-24T07:44:30Z</time>
      </trkpt>
      <trkpt lat="50.62031" lon="3.09691">
        <ele>35.8</ele>
        <time>2020-06-24T07:44:31Z</time>
      </trkpt>
      <trkpt lat="50.62028" lon="3.09698">
        <ele>35.9</ele>
        <time>2020-06-24T07:44:32Z</time>
      </trkpt>
      <trkpt lat="50.62026" lon="3.09705">
        <ele>36</ele>
        <time>2020-06-24T07:44:33Z</time>
      </trkpt>
      <trkpt lat="50.62023" lon="3.09711">
        <ele>36</ele>
        <time>2020-06-24T07:44:34Z</time>
      </trkpt>
      <trkpt lat="50.62021" lon="3.09717">
        <ele>36</ele>
        <time>2020-06-24T07:44:35Z</time>
      </trkpt>
      <trkpt lat="50.62019" lon="3.09724">
        <ele>36</ele>
        <time>2020-06-24T07:44:36Z</time>
      </trkpt>
      <trkpt lat="50.62017" lon="3.0973">
        <ele>36.1</ele>
        <time>2020-06-24T07:44:37Z</time>
      </trkpt>
      <trkpt lat="50.62014" lon="3.09737">
        <ele>36.2</ele>
        <time>2020-06-24T07:44:38Z</time>
      </trkpt>
      <trkpt lat="50.62011" lon="3.09745">
        <ele>36.2</ele>
        <time>2020-06-24T07:44:39Z</time>
      </trkpt>
      <trkpt lat="50.62009" lon="3.09751">
        <ele>36.2</ele>
        <time>2020-06-24T07:44:40Z</time>
      </trkpt>
      <trkpt lat="50.62006" lon="3.0976">
        <ele>36.2</ele>
        <time>2020-06-24T07:44:41Z</time>
      </trkpt>
      <trkpt lat="50.62003" lon="3.09769">
        <ele>36.2</ele>
        <time>2020-06-24T07:44:42Z</time>
      </trkpt>
      <trkpt lat="50.62" lon="3.09778">
        <ele>36.2</ele>
        <time>2020-06-24T07:44:43Z</time>
      </trkpt>
      <trkpt lat="50.61996" lon="3.09787">
        <ele>36.1</ele>
        <time>2020-06-24T07:44:44Z</time>
      </trkpt>
      <trkpt lat="50.61994" lon="3.09794">
        <ele>36.1</ele>
        <time>2020-06-24T07:44:45Z</time>
      </trkpt>
      <trkpt lat="50.61993" lon="3.09803">
        <ele>36</ele>
        <time>2020-06-24T07:44:46Z</time>
      </trkpt>
      <trkpt lat="50.6199" lon="3.09815">
        <ele>35.8</ele>
        <time>2020-06-24T07:44:47Z</time>
      </trkpt>
      <trkpt lat="50.61988" lon="3.09824">
        <ele>35.5</ele>
        <time>2020-06-24T07:44:48Z</time>
      </trkpt>
      <trkpt lat="50.61985" lon="3.09837">
        <ele>35.1</ele>
        <time>2020-06-24T07:44:49Z</time>
      </trkpt>
      <trkpt lat="50.61983" lon="3.09848">
        <ele>34.6</ele>
        <time>2020-06-24T07:44:50Z</time>
      </trkpt>
      <trkpt lat="50.61979" lon="3.0986">
        <ele>34.2</ele>
        <time>2020-06-24T07:44:51Z</time>
      </trkpt>
      <trkpt lat="50.61975" lon="3.09871">
        <ele>33.7</ele>
        <time>2020-06-24T07:44:52Z</time>
      </trkpt>
      <trkpt lat="50.6197" lon="3.09882">
        <ele>33.1</ele>
        <time>2020-06-24T07:44:53Z</time>
      </trkpt>
      <trkpt lat="50.61964" lon="3.09892">
        <ele>32.6</ele>
        <time>2020-06-24T07:44:54Z</time>
      </trkpt>
      <trkpt lat="50.61957" lon="3.09902">
        <ele>32.2</ele>
        <time>2020-06-24T07:44:55Z</time>
      </trkpt>
      <trkpt lat="50.61949" lon="3.09912">
        <ele>31.7</ele>
        <time>2020-06-24T07:44:56Z</time>
      </trkpt>
      <trkpt lat="50.61943" lon="3.09921">
        <ele>33.6</ele>
        <time>2020-06-24T07:44:57Z</time>
      </trkpt>
      <trkpt lat="50.61937" lon="3.09928">
        <ele>33.2</ele>
        <time>2020-06-24T07:44:58Z</time>
      </trkpt>
      <trkpt lat="50.61932" lon="3.09936">
        <ele>32.8</ele>
        <time>2020-06-24T07:44:59Z</time>
      </trkpt>
      <trkpt lat="50.61927" lon="3.09944">
        <ele>32.5</ele>
        <time>2020-06-24T07:45:00Z</time>
      </trkpt>
      <trkpt lat="50.61922" lon="3.09952">
        <ele>32.1</ele>
        <time>2020-06-24T07:45:01Z</time>
      </trkpt>
      <trkpt lat="50.61916" lon="3.09959">
        <ele>31.8</ele>
        <time>2020-06-24T07:45:02Z</time>
      </trkpt>
      <trkpt lat="50.6191" lon="3.09967">
        <ele>31.5</ele>
        <time>2020-06-24T07:45:03Z</time>
      </trkpt>
      <trkpt lat="50.61904" lon="3.09974">
        <ele>31.2</ele>
        <time>2020-06-24T07:45:04Z</time>
      </trkpt>
      <trkpt lat="50.61898" lon="3.09981">
        <ele>30.9</ele>
        <time>2020-06-24T07:45:05Z</time>
      </trkpt>
      <trkpt lat="50.61893" lon="3.09989">
        <ele>30.9</ele>
        <time>2020-06-24T07:45:06Z</time>
      </trkpt>
      <trkpt lat="50.61888" lon="3.09996">
        <ele>31</ele>
        <time>2020-06-24T07:45:07Z</time>
      </trkpt>
      <trkpt lat="50.61883" lon="3.10004">
        <ele>31</ele>
        <time>2020-06-24T07:45:08Z</time>
      </trkpt>
      <trkpt lat="50.61878" lon="3.10012">
        <ele>31.1</ele>
        <time>2020-06-24T07:45:09Z</time>
      </trkpt>
      <trkpt lat="50.61873" lon="3.1002">
        <ele>31.2</ele>
        <time>2020-06-24T07:45:10Z</time>
      </trkpt>
      <trkpt lat="50.61869" lon="3.10029">
        <ele>31.4</ele>
        <time>2020-06-24T07:45:11Z</time>
      </trkpt>
      <trkpt lat="50.61865" lon="3.10037">
        <ele>31.5</ele>
        <time>2020-06-24T07:45:12Z</time>
      </trkpt>
      <trkpt lat="50.61861" lon="3.10045">
        <ele>31.6</ele>
        <time>2020-06-24T07:45:13Z</time>
      </trkpt>
      <trkpt lat="50.61856" lon="3.10053">
        <ele>31.6</ele>
        <time>2020-06-24T07:45:14Z</time>
      </trkpt>
      <trkpt lat="50.61852" lon="3.10061">
        <ele>31.7</ele>
        <time>2020-06-24T07:45:15Z</time>
      </trkpt>
      <trkpt lat="50.61848" lon="3.10069">
        <ele>31.7</ele>
        <time>2020-06-24T07:45:16Z</time>
      </trkpt>
      <trkpt lat="50.61844" lon="3.10077">
        <ele>31.8</ele>
        <time>2020-06-24T07:45:17Z</time>
      </trkpt>
      <trkpt lat="50.6184" lon="3.10086">
        <ele>31.9</ele>
        <time>2020-06-24T07:45:18Z</time>
      </trkpt>
      <trkpt lat="50.61836" lon="3.10094">
        <ele>32</ele>
        <time>2020-06-24T07:45:19Z</time>
      </trkpt>
      <trkpt lat="50.61833" lon="3.10102">
        <ele>32.1</ele>
        <time>2020-06-24T07:45:20Z</time>
      </trkpt>
      <trkpt lat="50.6183" lon="3.10111">
        <ele>32.1</ele>
        <time>2020-06-24T07:45:21Z</time>
      </trkpt>
      <trkpt lat="50.61827" lon="3.1012">
        <ele>32.1</ele>
        <time>2020-06-24T07:45:22Z</time>
      </trkpt>
      <trkpt lat="50.61825" lon="3.1013">
        <ele>32.2</ele>
        <time>2020-06-24T07:45:23Z</time>
      </trkpt>
      <trkpt lat="50.61823" lon="3.10138">
        <ele>32.2</ele>
        <time>2020-06-24T07:45:24Z</time>
      </trkpt>
      <trkpt lat="50.6182" lon="3.10147">
        <ele>32.3</ele>
        <time>2020-06-24T07:45:25Z</time>
      </trkpt>
      <trkpt lat="50.61818" lon="3.10156">
        <ele>32.3</ele>
        <time>2020-06-24T07:45:26Z</time>
      </trkpt>
      <trkpt lat="50.61817" lon="3.10166">
        <ele>32.4</ele>
        <time>2020-06-24T07:45:27Z</time>
      </trkpt>
      <trkpt lat="50.61814" lon="3.10174">
        <ele>32.5</ele>
        <time>2020-06-24T07:45:28Z</time>
      </trkpt>
      <trkpt lat="50.61811" lon="3.10183">
        <ele>32.5</ele>
        <time>2020-06-24T07:45:29Z</time>
      </trkpt>
      <trkpt lat="50.61809" lon="3.10192">
        <ele>32.6</ele>
        <time>2020-06-24T07:45:30Z</time>
      </trkpt>
      <trkpt lat="50.61808" lon="3.10201">
        <ele>32.7</ele>
        <time>2020-06-24T07:45:31Z</time>
      </trkpt>
      <trkpt lat="50.61807" lon="3.1021">
        <ele>32.8</ele>
        <time>2020-06-24T07:45:32Z</time>
      </trkpt>
      <trkpt lat="50.61806" lon="3.10219">
        <ele>32.9</ele>
        <time>2020-06-24T07:45:33Z</time>
      </trkpt>
      <trkpt lat="50.61804" lon="3.10227">
        <ele>33</ele>
        <time>2020-06-24T07:45:34Z</time>
      </trkpt>
      <trkpt lat="50.61802" lon="3.10235">
        <ele>33.1</ele>
        <time>2020-06-24T07:45:35Z</time>
      </trkpt>
      <trkpt lat="50.61801" lon="3.10242">
        <ele>33.2</ele>
        <time>2020-06-24T07:45:36Z</time>
      </trkpt>
      <trkpt lat="50.618" lon="3.10249">
        <ele>33.2</ele>
        <time>2020-06-24T07:45:37Z</time>
      </trkpt>
      <trkpt lat="50.61798" lon="3.10255">
        <ele>33.3</ele>
        <time>2020-06-24T07:45:38Z</time>
      </trkpt>
      <trkpt lat="50.61795" lon="3.10261">
        <ele>33.4</ele>
        <time>2020-06-24T07:45:39Z</time>
      </trkpt>
      <trkpt lat="50.61791" lon="3.10265">
        <ele>34</ele>
        <time>2020-06-24T07:45:40Z</time>
      </trkpt>
      <trkpt lat="50.61789" lon="3.10271">
        <ele>33.9</ele>
        <time>2020-06-24T07:45:41Z</time>
      </trkpt>
      <trkpt lat="50.61788" lon="3.10278">
        <ele>33.8</ele>
        <time>2020-06-24T07:45:42Z</time>
      </trkpt>
      <trkpt lat="50.61786" lon="3.10284">
        <ele>33.7</ele>
        <time>2020-06-24T07:45:43Z</time>
      </trkpt>
      <trkpt lat="50.61785" lon="3.10291">
        <ele>33.7</ele>
        <time>2020-06-24T07:45:44Z</time>
      </trkpt>
      <trkpt lat="50.61786" lon="3.10297">
        <ele>33.8</ele>
        <time>2020-06-24T07:45:45Z</time>
      </trkpt>
      <trkpt lat="50.61787" lon="3.10303">
        <ele>33.8</ele>
        <time>2020-06-24T07:45:46Z</time>
      </trkpt>
      <trkpt lat="50.6179" lon="3.10308">
        <ele>33.8</ele>
        <time>2020-06-24T07:45:47Z</time>
      </trkpt>
      <trkpt lat="50.61793" lon="3.10313">
        <ele>33.9</ele>
        <time>2020-06-24T07:45:48Z</time>
      </trkpt>
      <trkpt lat="50.61796" lon="3.10319">
        <ele>34.4</ele>
        <time>2020-06-24T07:45:49Z</time>
      </trkpt>
      <trkpt lat="50.61799" lon="3.10325">
        <ele>34.3</ele>
        <time>2020-06-24T07:45:50Z</time>
      </trkpt>
      <trkpt lat="50.61803" lon="3.1033">
        <ele>34.2</ele>
        <time>2020-06-24T07:45:51Z</time>
      </trkpt>
      <trkpt lat="50.61805" lon="3.10336">
        <ele>34.1</ele>
        <time>2020-06-24T07:45:52Z</time>
      </trkpt>
      <trkpt lat="50.61806" lon="3.10342">
        <ele>34</ele>
        <time>2020-06-24T07:45:53Z</time>
      </trkpt>
      <trkpt lat="50.61806" lon="3.10349">
        <ele>33.9</ele>
        <time>2020-06-24T07:45:54Z</time>
      </trkpt>
      <trkpt lat="50.61804" lon="3.10356">
        <ele>33.8</ele>
        <time>2020-06-24T07:45:55Z</time>
      </trkpt>
      <trkpt lat="50.61803" lon="3.10363">
        <ele>33.7</ele>
        <time>2020-06-24T07:45:56Z</time>
      </trkpt>
      <trkpt lat="50.61802" lon="3.10371">
        <ele>33.5</ele>
        <time>2020-06-24T07:45:57Z</time>
      </trkpt>
      <trkpt lat="50.61801" lon="3.10378">
        <ele>33.6</ele>
        <time>2020-06-24T07:45:58Z</time>
      </trkpt>
      <trkpt lat="50.61799" lon="3.10386">
        <ele>33.6</ele>
        <time>2020-06-24T07:45:59Z</time>
      </trkpt>
      <trkpt lat="50.61798" lon="3.10394">
        <ele>33.7</ele>
        <time>2020-06-24T07:46:00Z</time>
      </trkpt>
      <trkpt lat="50.61797" lon="3.10402">
        <ele>33.8</ele>
        <time>2020-06-24T07:46:01Z</time>
      </trkpt>
      <trkpt lat="50.61797" lon="3.10411">
        <ele>34</ele>
        <time>2020-06-24T07:46:02Z</time>
      </trkpt>
      <trkpt lat="50.61796" lon="3.1042">
        <ele>34.3</ele>
        <time>2020-06-24T07:46:03Z</time>
      </trkpt>
      <trkpt lat="50.61796" lon="3.10428">
        <ele>34.3</ele>
        <time>2020-06-24T07:46:04Z</time>
      </trkpt>
      <trkpt lat="50.61795" lon="3.10436">
        <ele>34.4</ele>
        <time>2020-06-24T07:46:05Z</time>
      </trkpt>
      <trkpt lat="50.61794" lon="3.10444">
        <ele>34.5</ele>
        <time>2020-06-24T07:46:06Z</time>
      </trkpt>
      <trkpt lat="50.61795" lon="3.10453">
        <ele>34.6</ele>
        <time>2020-06-24T07:46:07Z</time>
      </trkpt>
      <trkpt lat="50.61794" lon="3.10461">
        <ele>34.7</ele>
        <time>2020-06-24T07:46:08Z</time>
      </trkpt>
      <trkpt lat="50.61796" lon="3.10469">
        <ele>34.8</ele>
        <time>2020-06-24T07:46:09Z</time>
      </trkpt>
      <trkpt lat="50.61795" lon="3.10477">
        <ele>34.9</ele>
        <time>2020-06-24T07:46:10Z</time>
      </trkpt>
      <trkpt lat="50.61794" lon="3.10485">
        <ele>35</ele>
        <time>2020-06-24T07:46:11Z</time>
      </trkpt>
      <trkpt lat="50.61794" lon="3.10493">
        <ele>35.2</ele>
        <time>2020-06-24T07:46:12Z</time>
      </trkpt>
      <trkpt lat="50.61794" lon="3.10502">
        <ele>35.4</ele>
        <time>2020-06-24T07:46:13Z</time>
      </trkpt>
      <trkpt lat="50.61795" lon="3.10512">
        <ele>35.6</ele>
        <time>2020-06-24T07:46:14Z</time>
      </trkpt>
      <trkpt lat="50.61795" lon="3.10519">
        <ele>35.8</ele>
        <time>2020-06-24T07:46:15Z</time>
      </trkpt>
      <trkpt lat="50.61794" lon="3.10527">
        <ele>36</ele>
        <time>2020-06-24T07:46:16Z</time>
      </trkpt>
      <trkpt lat="50.61794" lon="3.10536">
        <ele>36.2</ele>
        <time>2020-06-24T07:46:17Z</time>
      </trkpt>
      <trkpt lat="50.61794" lon="3.10544">
        <ele>36.4</ele>
        <time>2020-06-24T07:46:18Z</time>
      </trkpt>
      <trkpt lat="50.61794" lon="3.10551">
        <ele>36.6</ele>
        <time>2020-06-24T07:46:19Z</time>
      </trkpt>
      <trkpt lat="50.61793" lon="3.1056">
        <ele>36.8</ele>
        <time>2020-06-24T07:46:20Z</time>
      </trkpt>
      <trkpt lat="50.61793" lon="3.10566">
        <ele>36.9</ele>
        <time>2020-06-24T07:46:21Z</time>
      </trkpt>
      <trkpt lat="50.61793" lon="3.10574">
        <ele>37.1</ele>
        <time>2020-06-24T07:46:22Z</time>
      </trkpt>
      <trkpt lat="50.61794" lon="3.10581">
        <ele>37.2</ele>
        <time>2020-06-24T07:46:23Z</time>
      </trkpt>
      <trkpt lat="50.61794" lon="3.10588">
        <ele>37.4</ele>
        <time>2020-06-24T07:46:24Z</time>
      </trkpt>
      <trkpt lat="50.61794" lon="3.10596">
        <ele>37.5</ele>
        <time>2020-06-24T07:46:25Z</time>
      </trkpt>
      <trkpt lat="50.61793" lon="3.10601">
        <ele>37.6</ele>
        <time>2020-06-24T07:46:26Z</time>
      </trkpt>
      <trkpt lat="50.61793" lon="3.10607">
        <ele>37.8</ele>
        <time>2020-06-24T07:46:27Z</time>
      </trkpt>
      <trkpt lat="50.61792" lon="3.10615">
        <ele>38</ele>
        <time>2020-06-24T07:46:28Z</time>
      </trkpt>
      <trkpt lat="50.61792" lon="3.10625">
        <ele>38.2</ele>
        <time>2020-06-24T07:46:29Z</time>
      </trkpt>
      <trkpt lat="50.61792" lon="3.10632">
        <ele>38.4</ele>
        <time>2020-06-24T07:46:30Z</time>
      </trkpt>
      <trkpt lat="50.61792" lon="3.10639">
        <ele>38.5</ele>
        <time>2020-06-24T07:46:31Z</time>
      </trkpt>
      <trkpt lat="50.61792" lon="3.10647">
        <ele>38.7</ele>
        <time>2020-06-24T07:46:32Z</time>
      </trkpt>
      <trkpt lat="50.61793" lon="3.10654">
        <ele>38.9</ele>
        <time>2020-06-24T07:46:33Z</time>
      </trkpt>
      <trkpt lat="50.61793" lon="3.1066">
        <ele>39.1</ele>
        <time>2020-06-24T07:46:34Z</time>
      </trkpt>
      <trkpt lat="50.61794" lon="3.10668">
        <ele>39.2</ele>
        <time>2020-06-24T07:46:35Z</time>
      </trkpt>
      <trkpt lat="50.61794" lon="3.10674">
        <ele>39.4</ele>
        <time>2020-06-24T07:46:36Z</time>
      </trkpt>
      <trkpt lat="50.61795" lon="3.10681">
        <ele>39.5</ele>
        <time>2020-06-24T07:46:37Z</time>
      </trkpt>
      <trkpt lat="50.61795" lon="3.10688">
        <ele>39.6</ele>
        <time>2020-06-24T07:46:38Z</time>
      </trkpt>
      <trkpt lat="50.61796" lon="3.10695">
        <ele>39.7</ele>
        <time>2020-06-24T07:46:39Z</time>
      </trkpt>
      <trkpt lat="50.61796" lon="3.10702">
        <ele>39.8</ele>
        <time>2020-06-24T07:46:40Z</time>
      </trkpt>
      <trkpt lat="50.61797" lon="3.10711">
        <ele>39.8</ele>
        <time>2020-06-24T07:46:41Z</time>
      </trkpt>
      <trkpt lat="50.61798" lon="3.10717">
        <ele>39.8</ele>
        <time>2020-06-24T07:46:42Z</time>
      </trkpt>
      <trkpt lat="50.61798" lon="3.10726">
        <ele>39.9</ele>
        <time>2020-06-24T07:46:43Z</time>
      </trkpt>
      <trkpt lat="50.61798" lon="3.10733">
        <ele>39.9</ele>
        <time>2020-06-24T07:46:44Z</time>
      </trkpt>
      <trkpt lat="50.61797" lon="3.10742">
        <ele>39.9</ele>
        <time>2020-06-24T07:46:45Z</time>
      </trkpt>
      <trkpt lat="50.61798" lon="3.10749">
        <ele>40</ele>
        <time>2020-06-24T07:46:46Z</time>
      </trkpt>
      <trkpt lat="50.61797" lon="3.10757">
        <ele>40</ele>
        <time>2020-06-24T07:46:47Z</time>
      </trkpt>
      <trkpt lat="50.61797" lon="3.10765">
        <ele>40</ele>
        <time>2020-06-24T07:46:48Z</time>
      </trkpt>
      <trkpt lat="50.61797" lon="3.10773">
        <ele>40</ele>
        <time>2020-06-24T07:46:49Z</time>
      </trkpt>
      <trkpt lat="50.61797" lon="3.10781">
        <ele>40</ele>
        <time>2020-06-24T07:46:50Z</time>
      </trkpt>
      <trkpt lat="50.61797" lon="3.10788">
        <ele>39.9</ele>
        <time>2020-06-24T07:46:51Z</time>
      </trkpt>
      <trkpt lat="50.61797" lon="3.10796">
        <ele>39.9</ele>
        <time>2020-06-24T07:46:52Z</time>
      </trkpt>
      <trkpt lat="50.61798" lon="3.10804">
        <ele>39.8</ele>
        <time>2020-06-24T07:46:53Z</time>
      </trkpt>
      <trkpt lat="50.61798" lon="3.10812">
        <ele>39.7</ele>
        <time>2020-06-24T07:46:54Z</time>
      </trkpt>
      <trkpt lat="50.61798" lon="3.1082">
        <ele>39.6</ele>
        <time>2020-06-24T07:46:55Z</time>
      </trkpt>
      <trkpt lat="50.61798" lon="3.1083">
        <ele>39.6</ele>
        <time>2020-06-24T07:46:56Z</time>
      </trkpt>
      <trkpt lat="50.61797" lon="3.1084">
        <ele>39.5</ele>
        <time>2020-06-24T07:46:57Z</time>
      </trkpt>
      <trkpt lat="50.61797" lon="3.10848">
        <ele>39.4</ele>
        <time>2020-06-24T07:46:58Z</time>
      </trkpt>
      <trkpt lat="50.61796" lon="3.10857">
        <ele>39.3</ele>
        <time>2020-06-24T07:46:59Z</time>
      </trkpt>
      <trkpt lat="50.61796" lon="3.10866">
        <ele>39.3</ele>
        <time>2020-06-24T07:47:00Z</time>
      </trkpt>
      <trkpt lat="50.61795" lon="3.10874">
        <ele>39.2</ele>
        <time>2020-06-24T07:47:01Z</time>
      </trkpt>
      <trkpt lat="50.61795" lon="3.10882">
        <ele>39.2</ele>
        <time>2020-06-24T07:47:02Z</time>
      </trkpt>
      <trkpt lat="50.61795" lon="3.10889">
        <ele>39.1</ele>
        <time>2020-06-24T07:47:03Z</time>
      </trkpt>
      <trkpt lat="50.61795" lon="3.10896">
        <ele>39.1</ele>
        <time>2020-06-24T07:47:04Z</time>
      </trkpt>
      <trkpt lat="50.61794" lon="3.10905">
        <ele>39</ele>
        <time>2020-06-24T07:47:05Z</time>
      </trkpt>
      <trkpt lat="50.61794" lon="3.10913">
        <ele>39</ele>
        <time>2020-06-24T07:47:06Z</time>
      </trkpt>
      <trkpt lat="50.61792" lon="3.10921">
        <ele>38.9</ele>
        <time>2020-06-24T07:47:07Z</time>
      </trkpt>
      <trkpt lat="50.61792" lon="3.10928">
        <ele>38.8</ele>
        <time>2020-06-24T07:47:08Z</time>
      </trkpt>
      <trkpt lat="50.61791" lon="3.10936">
        <ele>38.7</ele>
        <time>2020-06-24T07:47:09Z</time>
      </trkpt>
      <trkpt lat="50.61791" lon="3.10945">
        <ele>38.3</ele>
        <time>2020-06-24T07:47:10Z</time>
      </trkpt>
      <trkpt lat="50.6179" lon="3.10955">
        <ele>38.1</ele>
        <time>2020-06-24T07:47:11Z</time>
      </trkpt>
      <trkpt lat="50.6179" lon="3.10965">
        <ele>37.9</ele>
        <time>2020-06-24T07:47:12Z</time>
      </trkpt>
      <trkpt lat="50.61789" lon="3.10974">
        <ele>37.8</ele>
        <time>2020-06-24T07:47:13Z</time>
      </trkpt>
      <trkpt lat="50.61788" lon="3.10983">
        <ele>37.7</ele>
        <time>2020-06-24T07:47:14Z</time>
      </trkpt>
      <trkpt lat="50.61788" lon="3.10992">
        <ele>37.5</ele>
        <time>2020-06-24T07:47:15Z</time>
      </trkpt>
      <trkpt lat="50.61788" lon="3.11002">
        <ele>37.4</ele>
        <time>2020-06-24T07:47:16Z</time>
      </trkpt>
      <trkpt lat="50.61789" lon="3.1101">
        <ele>37.3</ele>
        <time>2020-06-24T07:47:17Z</time>
      </trkpt>
      <trkpt lat="50.6179" lon="3.11019">
        <ele>37.3</ele>
        <time>2020-06-24T07:47:18Z</time>
      </trkpt>
      <trkpt lat="50.61791" lon="3.11026">
        <ele>37.2</ele>
        <time>2020-06-24T07:47:19Z</time>
      </trkpt>
      <trkpt lat="50.61792" lon="3.11035">
        <ele>37.2</ele>
        <time>2020-06-24T07:47:20Z</time>
      </trkpt>
      <trkpt lat="50.61793" lon="3.11044">
        <ele>37.1</ele>
        <time>2020-06-24T07:47:21Z</time>
      </trkpt>
      <trkpt lat="50.61794" lon="3.11053">
        <ele>37.1</ele>
        <time>2020-06-24T07:47:22Z</time>
      </trkpt>
      <trkpt lat="50.61794" lon="3.11064">
        <ele>37</ele>
        <time>2020-06-24T07:47:23Z</time>
      </trkpt>
      <trkpt lat="50.61794" lon="3.11075">
        <ele>37</ele>
        <time>2020-06-24T07:47:24Z</time>
      </trkpt>
      <trkpt lat="50.61794" lon="3.11086">
        <ele>36.9</ele>
        <time>2020-06-24T07:47:25Z</time>
      </trkpt>
      <trkpt lat="50.61796" lon="3.11096">
        <ele>36.9</ele>
        <time>2020-06-24T07:47:26Z</time>
      </trkpt>
      <trkpt lat="50.61797" lon="3.11107">
        <ele>36.9</ele>
        <time>2020-06-24T07:47:27Z</time>
      </trkpt>
      <trkpt lat="50.61796" lon="3.11118">
        <ele>36.9</ele>
        <time>2020-06-24T07:47:28Z</time>
      </trkpt>
      <trkpt lat="50.61796" lon="3.11129">
        <ele>36.9</ele>
        <time>2020-06-24T07:47:29Z</time>
      </trkpt>
      <trkpt lat="50.61796" lon="3.11138">
        <ele>36.9</ele>
        <time>2020-06-24T07:47:30Z</time>
      </trkpt>
      <trkpt lat="50.61796" lon="3.11148">
        <ele>36.9</ele>
        <time>2020-06-24T07:47:31Z</time>
      </trkpt>
      <trkpt lat="50.61796" lon="3.11156">
        <ele>37</ele>
        <time>2020-06-24T07:47:32Z</time>
      </trkpt>
      <trkpt lat="50.61796" lon="3.11167">
        <ele>37</ele>
        <time>2020-06-24T07:47:33Z</time>
      </trkpt>
      <trkpt lat="50.61797" lon="3.11177">
        <ele>37</ele>
        <time>2020-06-24T07:47:34Z</time>
      </trkpt>
      <trkpt lat="50.61797" lon="3.11188">
        <ele>37</ele>
        <time>2020-06-24T07:47:35Z</time>
      </trkpt>
      <trkpt lat="50.61797" lon="3.11199">
        <ele>37.1</ele>
        <time>2020-06-24T07:47:36Z</time>
      </trkpt>
      <trkpt lat="50.61797" lon="3.1121">
        <ele>37.1</ele>
        <time>2020-06-24T07:47:37Z</time>
      </trkpt>
      <trkpt lat="50.61797" lon="3.11221">
        <ele>37.1</ele>
        <time>2020-06-24T07:47:38Z</time>
      </trkpt>
      <trkpt lat="50.61798" lon="3.11233">
        <ele>37.1</ele>
        <time>2020-06-24T07:47:39Z</time>
      </trkpt>
      <trkpt lat="50.61798" lon="3.11242">
        <ele>37</ele>
        <time>2020-06-24T07:47:40Z</time>
      </trkpt>
      <trkpt lat="50.61798" lon="3.1125">
        <ele>37</ele>
        <time>2020-06-24T07:47:41Z</time>
      </trkpt>
      <trkpt lat="50.61797" lon="3.11259">
        <ele>37</ele>
        <time>2020-06-24T07:47:42Z</time>
      </trkpt>
      <trkpt lat="50.61797" lon="3.11269">
        <ele>37.1</ele>
        <time>2020-06-24T07:47:43Z</time>
      </trkpt>
      <trkpt lat="50.61797" lon="3.1128">
        <ele>37.1</ele>
        <time>2020-06-24T07:47:44Z</time>
      </trkpt>
      <trkpt lat="50.61796" lon="3.1129">
        <ele>37.1</ele>
        <time>2020-06-24T07:47:45Z</time>
      </trkpt>
      <trkpt lat="50.61796" lon="3.11299">
        <ele>37.1</ele>
        <time>2020-06-24T07:47:46Z</time>
      </trkpt>
      <trkpt lat="50.61796" lon="3.1131">
        <ele>37.1</ele>
        <time>2020-06-24T07:47:47Z</time>
      </trkpt>
      <trkpt lat="50.61796" lon="3.1132">
        <ele>37.1</ele>
        <time>2020-06-24T07:47:48Z</time>
      </trkpt>
      <trkpt lat="50.61796" lon="3.1133">
        <ele>37.1</ele>
        <time>2020-06-24T07:47:49Z</time>
      </trkpt>
      <trkpt lat="50.61795" lon="3.11342">
        <ele>37.1</ele>
        <time>2020-06-24T07:47:50Z</time>
      </trkpt>
      <trkpt lat="50.61795" lon="3.11354">
        <ele>37</ele>
        <time>2020-06-24T07:47:51Z</time>
      </trkpt>
      <trkpt lat="50.61794" lon="3.11364">
        <ele>37</ele>
        <time>2020-06-24T07:47:52Z</time>
      </trkpt>
      <trkpt lat="50.61794" lon="3.11374">
        <ele>37</ele>
        <time>2020-06-24T07:47:53Z</time>
      </trkpt>
      <trkpt lat="50.61794" lon="3.11385">
        <ele>36.9</ele>
        <time>2020-06-24T07:47:54Z</time>
      </trkpt>
      <trkpt lat="50.61794" lon="3.11395">
        <ele>36.9</ele>
        <time>2020-06-24T07:47:55Z</time>
      </trkpt>
      <trkpt lat="50.61793" lon="3.11405">
        <ele>36.9</ele>
        <time>2020-06-24T07:47:56Z</time>
      </trkpt>
      <trkpt lat="50.61792" lon="3.11415">
        <ele>36.9</ele>
        <time>2020-06-24T07:47:57Z</time>
      </trkpt>
      <trkpt lat="50.61791" lon="3.11426">
        <ele>36.9</ele>
        <time>2020-06-24T07:47:58Z</time>
      </trkpt>
      <trkpt lat="50.6179" lon="3.11436">
        <ele>36.9</ele>
        <time>2020-06-24T07:47:59Z</time>
      </trkpt>
      <trkpt lat="50.61789" lon="3.11446">
        <ele>36.9</ele>
        <time>2020-06-24T07:48:00Z</time>
      </trkpt>
      <trkpt lat="50.61788" lon="3.11456">
        <ele>36.9</ele>
        <time>2020-06-24T07:48:01Z</time>
      </trkpt>
      <trkpt lat="50.61787" lon="3.11466">
        <ele>36.9</ele>
        <time>2020-06-24T07:48:02Z</time>
      </trkpt>
      <trkpt lat="50.61786" lon="3.11475">
        <ele>36.9</ele>
        <time>2020-06-24T07:48:03Z</time>
      </trkpt>
      <trkpt lat="50.61786" lon="3.11485">
        <ele>36.9</ele>
        <time>2020-06-24T07:48:04Z</time>
      </trkpt>
      <trkpt lat="50.61784" lon="3.11495">
        <ele>36.9</ele>
        <time>2020-06-24T07:48:05Z</time>
      </trkpt>
      <trkpt lat="50.61783" lon="3.11505">
        <ele>36.9</ele>
        <time>2020-06-24T07:48:06Z</time>
      </trkpt>
      <trkpt lat="50.61782" lon="3.11514">
        <ele>37</ele>
        <time>2020-06-24T07:48:07Z</time>
      </trkpt>
      <trkpt lat="50.6178" lon="3.11523">
        <ele>37.1</ele>
        <time>2020-06-24T07:48:08Z</time>
      </trkpt>
      <trkpt lat="50.61778" lon="3.11532">
        <ele>37.1</ele>
        <time>2020-06-24T07:48:09Z</time>
      </trkpt>
      <trkpt lat="50.61775" lon="3.11545">
        <ele>37.2</ele>
        <time>2020-06-24T07:48:10Z</time>
      </trkpt>
      <trkpt lat="50.61773" lon="3.11554">
        <ele>37.2</ele>
        <time>2020-06-24T07:48:11Z</time>
      </trkpt>
      <trkpt lat="50.61771" lon="3.11562">
        <ele>37.2</ele>
        <time>2020-06-24T07:48:12Z</time>
      </trkpt>
      <trkpt lat="50.6177" lon="3.11571">
        <ele>37.2</ele>
        <time>2020-06-24T07:48:13Z</time>
      </trkpt>
      <trkpt lat="50.61768" lon="3.11579">
        <ele>37.2</ele>
        <time>2020-06-24T07:48:14Z</time>
      </trkpt>
      <trkpt lat="50.61766" lon="3.11589">
        <ele>37.3</ele>
        <time>2020-06-24T07:48:15Z</time>
      </trkpt>
      <trkpt lat="50.61764" lon="3.11598">
        <ele>37.3</ele>
        <time>2020-06-24T07:48:16Z</time>
      </trkpt>
      <trkpt lat="50.61762" lon="3.11607">
        <ele>37.3</ele>
        <time>2020-06-24T07:48:17Z</time>
      </trkpt>
      <trkpt lat="50.6176" lon="3.11616">
        <ele>37.3</ele>
        <time>2020-06-24T07:48:18Z</time>
      </trkpt>
      <trkpt lat="50.61759" lon="3.11626">
        <ele>37.3</ele>
        <time>2020-06-24T07:48:19Z</time>
      </trkpt>
      <trkpt lat="50.61757" lon="3.11635">
        <ele>37.3</ele>
        <time>2020-06-24T07:48:20Z</time>
      </trkpt>
      <trkpt lat="50.61755" lon="3.11644">
        <ele>37.3</ele>
        <time>2020-06-24T07:48:21Z</time>
      </trkpt>
      <trkpt lat="50.61753" lon="3.11653">
        <ele>37.3</ele>
        <time>2020-06-24T07:48:22Z</time>
      </trkpt>
      <trkpt lat="50.61751" lon="3.11661">
        <ele>37.4</ele>
        <time>2020-06-24T07:48:23Z</time>
      </trkpt>
      <trkpt lat="50.61749" lon="3.11669">
        <ele>37.4</ele>
        <time>2020-06-24T07:48:24Z</time>
      </trkpt>
      <trkpt lat="50.61747" lon="3.11678">
        <ele>37.5</ele>
        <time>2020-06-24T07:48:25Z</time>
      </trkpt>
      <trkpt lat="50.61744" lon="3.11687">
        <ele>37.6</ele>
        <time>2020-06-24T07:48:26Z</time>
      </trkpt>
      <trkpt lat="50.61742" lon="3.11695">
        <ele>37.6</ele>
        <time>2020-06-24T07:48:27Z</time>
      </trkpt>
      <trkpt lat="50.6174" lon="3.11703">
        <ele>37.7</ele>
        <time>2020-06-24T07:48:28Z</time>
      </trkpt>
      <trkpt lat="50.61738" lon="3.1171">
        <ele>37.7</ele>
        <time>2020-06-24T07:48:29Z</time>
      </trkpt>
      <trkpt lat="50.61736" lon="3.11717">
        <ele>37.7</ele>
        <time>2020-06-24T07:48:30Z</time>
      </trkpt>
      <trkpt lat="50.61735" lon="3.11724">
        <ele>37.7</ele>
        <time>2020-06-24T07:48:31Z</time>
      </trkpt>
      <trkpt lat="50.61733" lon="3.1173">
        <ele>37.8</ele>
        <time>2020-06-24T07:48:32Z</time>
      </trkpt>
      <trkpt lat="50.61731" lon="3.11736">
        <ele>37.8</ele>
        <time>2020-06-24T07:48:33Z</time>
      </trkpt>
      <trkpt lat="50.6173" lon="3.11742">
        <ele>37.8</ele>
        <time>2020-06-24T07:48:34Z</time>
      </trkpt>
      <trkpt lat="50.61728" lon="3.11747">
        <ele>37.8</ele>
        <time>2020-06-24T07:48:35Z</time>
      </trkpt>
      <trkpt lat="50.61725" lon="3.11752">
        <ele>37.8</ele>
        <time>2020-06-24T07:48:36Z</time>
      </trkpt>
      <trkpt lat="50.61723" lon="3.11758">
        <ele>37.8</ele>
        <time>2020-06-24T07:48:37Z</time>
      </trkpt>
      <trkpt lat="50.61721" lon="3.11762">
        <ele>37.8</ele>
        <time>2020-06-24T07:48:38Z</time>
      </trkpt>
      <trkpt lat="50.61719" lon="3.11769">
        <ele>37.8</ele>
        <time>2020-06-24T07:48:39Z</time>
      </trkpt>
      <trkpt lat="50.61717" lon="3.11774">
        <ele>37.7</ele>
        <time>2020-06-24T07:48:40Z</time>
      </trkpt>
      <trkpt lat="50.61715" lon="3.11782">
        <ele>37.7</ele>
        <time>2020-06-24T07:48:41Z</time>
      </trkpt>
      <trkpt lat="50.61713" lon="3.1179">
        <ele>37.7</ele>
        <time>2020-06-24T07:48:42Z</time>
      </trkpt>
      <trkpt lat="50.61711" lon="3.11797">
        <ele>37.7</ele>
        <time>2020-06-24T07:48:43Z</time>
      </trkpt>
      <trkpt lat="50.61709" lon="3.11804">
        <ele>37.6</ele>
        <time>2020-06-24T07:48:44Z</time>
      </trkpt>
      <trkpt lat="50.61705" lon="3.11814">
        <ele>37.6</ele>
        <time>2020-06-24T07:48:45Z</time>
      </trkpt>
      <trkpt lat="50.61702" lon="3.1182">
        <ele>37.6</ele>
        <time>2020-06-24T07:48:46Z</time>
      </trkpt>
      <trkpt lat="50.617" lon="3.11827">
        <ele>37.6</ele>
        <time>2020-06-24T07:48:47Z</time>
      </trkpt>
      <trkpt lat="50.61697" lon="3.11834">
        <ele>37.6</ele>
        <time>2020-06-24T07:48:48Z</time>
      </trkpt>
      <trkpt lat="50.61695" lon="3.1184">
        <ele>37.6</ele>
        <time>2020-06-24T07:48:49Z</time>
      </trkpt>
      <trkpt lat="50.61693" lon="3.11847">
        <ele>37.6</ele>
        <time>2020-06-24T07:48:50Z</time>
      </trkpt>
      <trkpt lat="50.6169" lon="3.11855">
        <ele>37.6</ele>
        <time>2020-06-24T07:48:51Z</time>
      </trkpt>
      <trkpt lat="50.61687" lon="3.1186">
        <ele>37.6</ele>
        <time>2020-06-24T07:48:52Z</time>
      </trkpt>
      <trkpt lat="50.61685" lon="3.1187">
        <ele>37.6</ele>
        <time>2020-06-24T07:48:53Z</time>
      </trkpt>
      <trkpt lat="50.61682" lon="3.11877">
        <ele>37.6</ele>
        <time>2020-06-24T07:48:54Z</time>
      </trkpt>
      <trkpt lat="50.6168" lon="3.11883">
        <ele>37.6</ele>
        <time>2020-06-24T07:48:55Z</time>
      </trkpt>
      <trkpt lat="50.61677" lon="3.1189">
        <ele>37.6</ele>
        <time>2020-06-24T07:48:56Z</time>
      </trkpt>
      <trkpt lat="50.61673" lon="3.11897">
        <ele>37.6</ele>
        <time>2020-06-24T07:48:57Z</time>
      </trkpt>
      <trkpt lat="50.61669" lon="3.11906">
        <ele>37.6</ele>
        <time>2020-06-24T07:48:58Z</time>
      </trkpt>
      <trkpt lat="50.61666" lon="3.11913">
        <ele>37.7</ele>
        <time>2020-06-24T07:48:59Z</time>
      </trkpt>
      <trkpt lat="50.61663" lon="3.1192">
        <ele>37.7</ele>
        <time>2020-06-24T07:49:00Z</time>
      </trkpt>
      <trkpt lat="50.6166" lon="3.11928">
        <ele>37.7</ele>
        <time>2020-06-24T07:49:01Z</time>
      </trkpt>
      <trkpt lat="50.61658" lon="3.11933">
        <ele>37.8</ele>
        <time>2020-06-24T07:49:02Z</time>
      </trkpt>
      <trkpt lat="50.61656" lon="3.11939">
        <ele>37.8</ele>
        <time>2020-06-24T07:49:03Z</time>
      </trkpt>
      <trkpt lat="50.61654" lon="3.11942">
        <ele>37.8</ele>
        <time>2020-06-24T07:49:04Z</time>
      </trkpt>
      <trkpt lat="50.61651" lon="3.11948">
        <ele>37.8</ele>
        <time>2020-06-24T07:49:05Z</time>
      </trkpt>
      <trkpt lat="50.61649" lon="3.11955">
        <ele>37.8</ele>
        <time>2020-06-24T07:49:06Z</time>
      </trkpt>
      <trkpt lat="50.61647" lon="3.11961">
        <ele>37.8</ele>
        <time>2020-06-24T07:49:07Z</time>
      </trkpt>
      <trkpt lat="50.61644" lon="3.11967">
        <ele>37.8</ele>
        <time>2020-06-24T07:49:08Z</time>
      </trkpt>
      <trkpt lat="50.61641" lon="3.11973">
        <ele>37.8</ele>
        <time>2020-06-24T07:49:09Z</time>
      </trkpt>
      <trkpt lat="50.61638" lon="3.11978">
        <ele>37.7</ele>
        <time>2020-06-24T07:49:10Z</time>
      </trkpt>
      <trkpt lat="50.61635" lon="3.11986">
        <ele>37.7</ele>
        <time>2020-06-24T07:49:11Z</time>
      </trkpt>
      <trkpt lat="50.61631" lon="3.11993">
        <ele>37.8</ele>
        <time>2020-06-24T07:49:12Z</time>
      </trkpt>
      <trkpt lat="50.61627" lon="3.12002">
        <ele>37.8</ele>
        <time>2020-06-24T07:49:13Z</time>
      </trkpt>
      <trkpt lat="50.61623" lon="3.12009">
        <ele>37.8</ele>
        <time>2020-06-24T07:49:14Z</time>
      </trkpt>
      <trkpt lat="50.61619" lon="3.12016">
        <ele>37.9</ele>
        <time>2020-06-24T07:49:15Z</time>
      </trkpt>
      <trkpt lat="50.61615" lon="3.12024">
        <ele>37.9</ele>
        <time>2020-06-24T07:49:16Z</time>
      </trkpt>
      <trkpt lat="50.61612" lon="3.12031">
        <ele>37.9</ele>
        <time>2020-06-24T07:49:17Z</time>
      </trkpt>
      <trkpt lat="50.61608" lon="3.12039">
        <ele>38</ele>
        <time>2020-06-24T07:49:18Z</time>
      </trkpt>
      <trkpt lat="50.61604" lon="3.12045">
        <ele>38</ele>
        <time>2020-06-24T07:49:19Z</time>
      </trkpt>
      <trkpt lat="50.61601" lon="3.12051">
        <ele>38.1</ele>
        <time>2020-06-24T07:49:20Z</time>
      </trkpt>
      <trkpt lat="50.61597" lon="3.12057">
        <ele>38.1</ele>
        <time>2020-06-24T07:49:21Z</time>
      </trkpt>
      <trkpt lat="50.61594" lon="3.12064">
        <ele>38.2</ele>
        <time>2020-06-24T07:49:22Z</time>
      </trkpt>
      <trkpt lat="50.6159" lon="3.1207">
        <ele>38.3</ele>
        <time>2020-06-24T07:49:23Z</time>
      </trkpt>
      <trkpt lat="50.61586" lon="3.12075">
        <ele>38.4</ele>
        <time>2020-06-24T07:49:24Z</time>
      </trkpt>
      <trkpt lat="50.61582" lon="3.12081">
        <ele>38.5</ele>
        <time>2020-06-24T07:49:25Z</time>
      </trkpt>
      <trkpt lat="50.61579" lon="3.12085">
        <ele>38.6</ele>
        <time>2020-06-24T07:49:26Z</time>
      </trkpt>
      <trkpt lat="50.61573" lon="3.12091">
        <ele>38.7</ele>
        <time>2020-06-24T07:49:27Z</time>
      </trkpt>
      <trkpt lat="50.61569" lon="3.12096">
        <ele>38.8</ele>
        <time>2020-06-24T07:49:28Z</time>
      </trkpt>
      <trkpt lat="50.61565" lon="3.121">
        <ele>38.8</ele>
        <time>2020-06-24T07:49:29Z</time>
      </trkpt>
      <trkpt lat="50.6156" lon="3.12105">
        <ele>38.9</ele>
        <time>2020-06-24T07:49:30Z</time>
      </trkpt>
      <trkpt lat="50.61557" lon="3.1211">
        <ele>39</ele>
        <time>2020-06-24T07:49:31Z</time>
      </trkpt>
      <trkpt lat="50.61552" lon="3.12117">
        <ele>39.2</ele>
        <time>2020-06-24T07:49:32Z</time>
      </trkpt>
      <trkpt lat="50.61548" lon="3.12123">
        <ele>39.3</ele>
        <time>2020-06-24T07:49:33Z</time>
      </trkpt>
      <trkpt lat="50.61544" lon="3.12126">
        <ele>39.4</ele>
        <time>2020-06-24T07:49:34Z</time>
      </trkpt>
      <trkpt lat="50.6154" lon="3.12131">
        <ele>39.5</ele>
        <time>2020-06-24T07:49:35Z</time>
      </trkpt>
      <trkpt lat="50.61536" lon="3.12136">
        <ele>39.6</ele>
        <time>2020-06-24T07:49:36Z</time>
      </trkpt>
      <trkpt lat="50.61531" lon="3.1214">
        <ele>39.8</ele>
        <time>2020-06-24T07:49:37Z</time>
      </trkpt>
      <trkpt lat="50.61528" lon="3.12145">
        <ele>40</ele>
        <time>2020-06-24T07:49:38Z</time>
      </trkpt>
      <trkpt lat="50.61525" lon="3.1215">
        <ele>40.1</ele>
        <time>2020-06-24T07:49:39Z</time>
      </trkpt>
      <trkpt lat="50.61521" lon="3.12155">
        <ele>40.1</ele>
        <time>2020-06-24T07:49:40Z</time>
      </trkpt>
      <trkpt lat="50.61518" lon="3.1216">
        <ele>40.1</ele>
        <time>2020-06-24T07:49:41Z</time>
      </trkpt>
      <trkpt lat="50.61515" lon="3.12166">
        <ele>40.1</ele>
        <time>2020-06-24T07:49:42Z</time>
      </trkpt>
      <trkpt lat="50.61511" lon="3.12171">
        <ele>40</ele>
        <time>2020-06-24T07:49:43Z</time>
      </trkpt>
      <trkpt lat="50.61507" lon="3.12176">
        <ele>40.1</ele>
        <time>2020-06-24T07:49:44Z</time>
      </trkpt>
      <trkpt lat="50.61502" lon="3.12181">
        <ele>40.1</ele>
        <time>2020-06-24T07:49:45Z</time>
      </trkpt>
      <trkpt lat="50.61498" lon="3.12187">
        <ele>40.1</ele>
        <time>2020-06-24T07:49:46Z</time>
      </trkpt>
      <trkpt lat="50.61494" lon="3.12192">
        <ele>40.2</ele>
        <time>2020-06-24T07:49:47Z</time>
      </trkpt>
      <trkpt lat="50.6149" lon="3.12198">
        <ele>40.3</ele>
        <time>2020-06-24T07:49:48Z</time>
      </trkpt>
      <trkpt lat="50.61486" lon="3.12203">
        <ele>40.3</ele>
        <time>2020-06-24T07:49:49Z</time>
      </trkpt>
      <trkpt lat="50.61481" lon="3.12209">
        <ele>40.4</ele>
        <time>2020-06-24T07:49:50Z</time>
      </trkpt>
      <trkpt lat="50.61476" lon="3.12213">
        <ele>40.4</ele>
        <time>2020-06-24T07:49:51Z</time>
      </trkpt>
      <trkpt lat="50.61471" lon="3.12217">
        <ele>40.5</ele>
        <time>2020-06-24T07:49:52Z</time>
      </trkpt>
      <trkpt lat="50.61466" lon="3.12223">
        <ele>40.6</ele>
        <time>2020-06-24T07:49:53Z</time>
      </trkpt>
      <trkpt lat="50.61462" lon="3.12228">
        <ele>40.6</ele>
        <time>2020-06-24T07:49:54Z</time>
      </trkpt>
      <trkpt lat="50.61457" lon="3.12232">
        <ele>40.7</ele>
        <time>2020-06-24T07:49:55Z</time>
      </trkpt>
      <trkpt lat="50.61453" lon="3.12238">
        <ele>40.7</ele>
        <time>2020-06-24T07:49:56Z</time>
      </trkpt>
      <trkpt lat="50.61448" lon="3.12242">
        <ele>40.8</ele>
        <time>2020-06-24T07:49:57Z</time>
      </trkpt>
      <trkpt lat="50.61444" lon="3.12248">
        <ele>40.9</ele>
        <time>2020-06-24T07:49:58Z</time>
      </trkpt>
      <trkpt lat="50.61439" lon="3.12253">
        <ele>40.9</ele>
        <time>2020-06-24T07:49:59Z</time>
      </trkpt>
      <trkpt lat="50.61434" lon="3.12258">
        <ele>41</ele>
        <time>2020-06-24T07:50:00Z</time>
      </trkpt>
      <trkpt lat="50.6143" lon="3.12263">
        <ele>41.1</ele>
        <time>2020-06-24T07:50:01Z</time>
      </trkpt>
      <trkpt lat="50.61426" lon="3.12268">
        <ele>41.1</ele>
        <time>2020-06-24T07:50:02Z</time>
      </trkpt>
      <trkpt lat="50.61423" lon="3.12272">
        <ele>41.2</ele>
        <time>2020-06-24T07:50:03Z</time>
      </trkpt>
      <trkpt lat="50.61418" lon="3.12276">
        <ele>41.3</ele>
        <time>2020-06-24T07:50:04Z</time>
      </trkpt>
      <trkpt lat="50.61413" lon="3.12281">
        <ele>41.3</ele>
        <time>2020-06-24T07:50:05Z</time>
      </trkpt>
      <trkpt lat="50.61409" lon="3.12286">
        <ele>41.4</ele>
        <time>2020-06-24T07:50:06Z</time>
      </trkpt>
      <trkpt lat="50.61405" lon="3.12292">
        <ele>41.4</ele>
        <time>2020-06-24T07:50:07Z</time>
      </trkpt>
      <trkpt lat="50.61401" lon="3.12298">
        <ele>41.5</ele>
        <time>2020-06-24T07:50:08Z</time>
      </trkpt>
      <trkpt lat="50.61397" lon="3.12303">
        <ele>41.5</ele>
        <time>2020-06-24T07:50:09Z</time>
      </trkpt>
      <trkpt lat="50.61394" lon="3.1231">
        <ele>41.6</ele>
        <time>2020-06-24T07:50:10Z</time>
      </trkpt>
      <trkpt lat="50.61389" lon="3.12315">
        <ele>41.6</ele>
        <time>2020-06-24T07:50:11Z</time>
      </trkpt>
      <trkpt lat="50.61384" lon="3.12321">
        <ele>41.7</ele>
        <time>2020-06-24T07:50:12Z</time>
      </trkpt>
      <trkpt lat="50.6138" lon="3.12326">
        <ele>41.8</ele>
        <time>2020-06-24T07:50:13Z</time>
      </trkpt>
      <trkpt lat="50.61376" lon="3.12331">
        <ele>41.8</ele>
        <time>2020-06-24T07:50:14Z</time>
      </trkpt>
      <trkpt lat="50.61372" lon="3.12335">
        <ele>41.9</ele>
        <time>2020-06-24T07:50:15Z</time>
      </trkpt>
      <trkpt lat="50.61367" lon="3.12341">
        <ele>42</ele>
        <time>2020-06-24T07:50:16Z</time>
      </trkpt>
      <trkpt lat="50.61364" lon="3.12347">
        <ele>42</ele>
        <time>2020-06-24T07:50:17Z</time>
      </trkpt>
      <trkpt lat="50.6136" lon="3.12352">
        <ele>42.1</ele>
        <time>2020-06-24T07:50:18Z</time>
      </trkpt>
      <trkpt lat="50.61356" lon="3.12357">
        <ele>42.1</ele>
        <time>2020-06-24T07:50:19Z</time>
      </trkpt>
      <trkpt lat="50.61353" lon="3.12363">
        <ele>42.2</ele>
        <time>2020-06-24T07:50:20Z</time>
      </trkpt>
      <trkpt lat="50.6135" lon="3.1237">
        <ele>42.3</ele>
        <time>2020-06-24T07:50:21Z</time>
      </trkpt>
      <trkpt lat="50.61347" lon="3.12377">
        <ele>42.4</ele>
        <time>2020-06-24T07:50:22Z</time>
      </trkpt>
      <trkpt lat="50.61344" lon="3.12384">
        <ele>42.5</ele>
        <time>2020-06-24T07:50:23Z</time>
      </trkpt>
      <trkpt lat="50.61341" lon="3.1239">
        <ele>42.6</ele>
        <time>2020-06-24T07:50:24Z</time>
      </trkpt>
      <trkpt lat="50.61338" lon="3.12396">
        <ele>42.7</ele>
        <time>2020-06-24T07:50:25Z</time>
      </trkpt>
      <trkpt lat="50.61334" lon="3.12401">
        <ele>42.8</ele>
        <time>2020-06-24T07:50:26Z</time>
      </trkpt>
      <trkpt lat="50.61332" lon="3.12406">
        <ele>42.9</ele>
        <time>2020-06-24T07:50:27Z</time>
      </trkpt>
      <trkpt lat="50.61328" lon="3.12411">
        <ele>42.9</ele>
        <time>2020-06-24T07:50:28Z</time>
      </trkpt>
      <trkpt lat="50.61324" lon="3.12411">
        <ele>42.8</ele>
        <time>2020-06-24T07:50:29Z</time>
      </trkpt>
      <trkpt lat="50.6132" lon="3.12413">
        <ele>42.8</ele>
        <time>2020-06-24T07:50:30Z</time>
      </trkpt>
      <trkpt lat="50.61317" lon="3.12411">
        <ele>42.8</ele>
        <time>2020-06-24T07:50:31Z</time>
      </trkpt>
      <trkpt lat="50.61313" lon="3.12409">
        <ele>42.8</ele>
        <time>2020-06-24T07:50:32Z</time>
      </trkpt>
      <trkpt lat="50.6131" lon="3.12407">
        <ele>42.8</ele>
        <time>2020-06-24T07:50:33Z</time>
      </trkpt>
      <trkpt lat="50.61308" lon="3.12405">
        <ele>42.8</ele>
        <time>2020-06-24T07:50:34Z</time>
      </trkpt>
      <trkpt lat="50.61304" lon="3.12402">
        <ele>42.7</ele>
        <time>2020-06-24T07:50:35Z</time>
      </trkpt>
      <trkpt lat="50.61303" lon="3.12401">
        <ele>42.7</ele>
        <time>2020-06-24T07:50:36Z</time>
      </trkpt>
      <trkpt lat="50.613" lon="3.12398">
        <ele>42.7</ele>
        <time>2020-06-24T07:50:37Z</time>
      </trkpt>
      <trkpt lat="50.61299" lon="3.12397">
        <ele>42.7</ele>
        <time>2020-06-24T07:50:38Z</time>
      </trkpt>
      <trkpt lat="50.61297" lon="3.12394">
        <ele>42.7</ele>
        <time>2020-06-24T07:50:39Z</time>
      </trkpt>
      <trkpt lat="50.61296" lon="3.12392">
        <ele>42.7</ele>
        <time>2020-06-24T07:50:40Z</time>
      </trkpt>
      <trkpt lat="50.61295" lon="3.1239">
        <ele>42.7</ele>
        <time>2020-06-24T07:50:41Z</time>
      </trkpt>
      <trkpt lat="50.61293" lon="3.12388">
        <ele>42.7</ele>
        <time>2020-06-24T07:50:42Z</time>
      </trkpt>
      <trkpt lat="50.61291" lon="3.12386">
        <ele>42.6</ele>
        <time>2020-06-24T07:50:43Z</time>
      </trkpt>
      <trkpt lat="50.6129" lon="3.12385">
        <ele>42.6</ele>
        <time>2020-06-24T07:50:44Z</time>
      </trkpt>
      <trkpt lat="50.6129" lon="3.12387">
        <ele>42.6</ele>
        <time>2020-06-24T07:50:45Z</time>
      </trkpt>
      <trkpt lat="50.61291" lon="3.12389">
        <ele>42.6</ele>
        <time>2020-06-24T07:50:46Z</time>
      </trkpt>
      <trkpt lat="50.61292" lon="3.12391">
        <ele>42.6</ele>
        <time>2020-06-24T07:50:47Z</time>
      </trkpt>
      <trkpt lat="50.61293" lon="3.12393">
        <ele>42.6</ele>
        <time>2020-06-24T07:50:48Z</time>
      </trkpt>
      <trkpt lat="50.61294" lon="3.12394">
        <ele>42.6</ele>
        <time>2020-06-24T07:50:49Z</time>
      </trkpt>
      <trkpt lat="50.61298" lon="3.12399">
        <ele>42.6</ele>
        <time>2020-06-24T07:50:50Z</time>
      </trkpt>
      <trkpt lat="50.61301" lon="3.12402">
        <ele>42.7</ele>
        <time>2020-06-24T07:50:51Z</time>
      </trkpt>
      <trkpt lat="50.61305" lon="3.12405">
        <ele>42.7</ele>
        <time>2020-06-24T07:50:52Z</time>
      </trkpt>
      <trkpt lat="50.61309" lon="3.12408">
        <ele>42.7</ele>
        <time>2020-06-24T07:50:53Z</time>
      </trkpt>
      <trkpt lat="50.61313" lon="3.1241">
        <ele>42.8</ele>
        <time>2020-06-24T07:50:54Z</time>
      </trkpt>
      <trkpt lat="50.61317" lon="3.12411">
        <ele>42.8</ele>
        <time>2020-06-24T07:50:55Z</time>
      </trkpt>
      <trkpt lat="50.6132" lon="3.12411">
        <ele>42.8</ele>
        <time>2020-06-24T07:50:56Z</time>
      </trkpt>
      <trkpt lat="50.61324" lon="3.12412">
        <ele>42.9</ele>
        <time>2020-06-24T07:50:57Z</time>
      </trkpt>
      <trkpt lat="50.61328" lon="3.12416">
        <ele>43</ele>
        <time>2020-06-24T07:50:58Z</time>
      </trkpt>
      <trkpt lat="50.6133" lon="3.12418">
        <ele>43.1</ele>
        <time>2020-06-24T07:50:59Z</time>
      </trkpt>
      <trkpt lat="50.6133" lon="3.12423">
        <ele>43.2</ele>
        <time>2020-06-24T07:51:00Z</time>
      </trkpt>
      <trkpt lat="50.61327" lon="3.12428">
        <ele>43.3</ele>
        <time>2020-06-24T07:51:01Z</time>
      </trkpt>
      <trkpt lat="50.61326" lon="3.1243">
        <ele>43.2</ele>
        <time>2020-06-24T07:51:02Z</time>
      </trkpt>
      <trkpt lat="50.61323" lon="3.12434">
        <ele>43.2</ele>
        <time>2020-06-24T07:51:03Z</time>
      </trkpt>
      <trkpt lat="50.61321" lon="3.12439">
        <ele>43.2</ele>
        <time>2020-06-24T07:51:04Z</time>
      </trkpt>
      <trkpt lat="50.61319" lon="3.12444">
        <ele>43.2</ele>
        <time>2020-06-24T07:51:05Z</time>
      </trkpt>
      <trkpt lat="50.61317" lon="3.12448">
        <ele>43.1</ele>
        <time>2020-06-24T07:51:06Z</time>
      </trkpt>
      <trkpt lat="50.61315" lon="3.12453">
        <ele>43.1</ele>
        <time>2020-06-24T07:51:07Z</time>
      </trkpt>
      <trkpt lat="50.61314" lon="3.12457">
        <ele>43</ele>
        <time>2020-06-24T07:51:08Z</time>
      </trkpt>
      <trkpt lat="50.61311" lon="3.12457">
        <ele>42.9</ele>
        <time>2020-06-24T07:51:09Z</time>
      </trkpt>
      <trkpt lat="50.61309" lon="3.12455">
        <ele>42.9</ele>
        <time>2020-06-24T07:51:10Z</time>
      </trkpt>
      <trkpt lat="50.61307" lon="3.12449">
        <ele>42.7</ele>
        <time>2020-06-24T07:51:11Z</time>
      </trkpt>
      <trkpt lat="50.61303" lon="3.12442">
        <ele>42.6</ele>
        <time>2020-06-24T07:51:12Z</time>
      </trkpt>
      <trkpt lat="50.61298" lon="3.12437">
        <ele>42.6</ele>
        <time>2020-06-24T07:51:13Z</time>
      </trkpt>
      <trkpt lat="50.61293" lon="3.12431">
        <ele>42.6</ele>
        <time>2020-06-24T07:51:14Z</time>
      </trkpt>
      <trkpt lat="50.6129" lon="3.12427">
        <ele>42.6</ele>
        <time>2020-06-24T07:51:15Z</time>
      </trkpt>
      <trkpt lat="50.61285" lon="3.12422">
        <ele>42.6</ele>
        <time>2020-06-24T07:51:16Z</time>
      </trkpt>
      <trkpt lat="50.61281" lon="3.12418">
        <ele>42.5</ele>
        <time>2020-06-24T07:51:17Z</time>
      </trkpt>
      <trkpt lat="50.61276" lon="3.12414">
        <ele>42.5</ele>
        <time>2020-06-24T07:51:18Z</time>
      </trkpt>
      <trkpt lat="50.61273" lon="3.1241">
        <ele>42.5</ele>
        <time>2020-06-24T07:51:19Z</time>
      </trkpt>
      <trkpt lat="50.61269" lon="3.12407">
        <ele>42.5</ele>
        <time>2020-06-24T07:51:20Z</time>
      </trkpt>
      <trkpt lat="50.61264" lon="3.12402">
        <ele>42.5</ele>
        <time>2020-06-24T07:51:21Z</time>
      </trkpt>
      <trkpt lat="50.61259" lon="3.12397">
        <ele>42.6</ele>
        <time>2020-06-24T07:51:22Z</time>
      </trkpt>
      <trkpt lat="50.61255" lon="3.12393">
        <ele>42.6</ele>
        <time>2020-06-24T07:51:23Z</time>
      </trkpt>
      <trkpt lat="50.61251" lon="3.12388">
        <ele>42.7</ele>
        <time>2020-06-24T07:51:24Z</time>
      </trkpt>
      <trkpt lat="50.61246" lon="3.12384">
        <ele>42.7</ele>
        <time>2020-06-24T07:51:25Z</time>
      </trkpt>
      <trkpt lat="50.61241" lon="3.12378">
        <ele>42.8</ele>
        <time>2020-06-24T07:51:26Z</time>
      </trkpt>
      <trkpt lat="50.61237" lon="3.12373">
        <ele>42.9</ele>
        <time>2020-06-24T07:51:27Z</time>
      </trkpt>
      <trkpt lat="50.61232" lon="3.12368">
        <ele>42.9</ele>
        <time>2020-06-24T07:51:28Z</time>
      </trkpt>
      <trkpt lat="50.61227" lon="3.12363">
        <ele>43</ele>
        <time>2020-06-24T07:51:29Z</time>
      </trkpt>
      <trkpt lat="50.61222" lon="3.12359">
        <ele>43</ele>
        <time>2020-06-24T07:51:30Z</time>
      </trkpt>
      <trkpt lat="50.61218" lon="3.12355">
        <ele>43.1</ele>
        <time>2020-06-24T07:51:31Z</time>
      </trkpt>
      <trkpt lat="50.61214" lon="3.12354">
        <ele>43.1</ele>
        <time>2020-06-24T07:51:32Z</time>
      </trkpt>
      <trkpt lat="50.61209" lon="3.12354">
        <ele>43.2</ele>
        <time>2020-06-24T07:51:33Z</time>
      </trkpt>
      <trkpt lat="50.61204" lon="3.12356">
        <ele>43.2</ele>
        <time>2020-06-24T07:51:34Z</time>
      </trkpt>
      <trkpt lat="50.61199" lon="3.12357">
        <ele>43.2</ele>
        <time>2020-06-24T07:51:35Z</time>
      </trkpt>
      <trkpt lat="50.61194" lon="3.12358">
        <ele>43.2</ele>
        <time>2020-06-24T07:51:36Z</time>
      </trkpt>
      <trkpt lat="50.61189" lon="3.12359">
        <ele>43.3</ele>
        <time>2020-06-24T07:51:37Z</time>
      </trkpt>
      <trkpt lat="50.61185" lon="3.1236">
        <ele>43.3</ele>
        <time>2020-06-24T07:51:38Z</time>
      </trkpt>
      <trkpt lat="50.6118" lon="3.12363">
        <ele>43.3</ele>
        <time>2020-06-24T07:51:39Z</time>
      </trkpt>
      <trkpt lat="50.61175" lon="3.12367">
        <ele>43.2</ele>
        <time>2020-06-24T07:51:40Z</time>
      </trkpt>
      <trkpt lat="50.6117" lon="3.12371">
        <ele>43.2</ele>
        <time>2020-06-24T07:51:41Z</time>
      </trkpt>
      <trkpt lat="50.61165" lon="3.12375">
        <ele>43.2</ele>
        <time>2020-06-24T07:51:42Z</time>
      </trkpt>
      <trkpt lat="50.6116" lon="3.12379">
        <ele>43.2</ele>
        <time>2020-06-24T07:51:43Z</time>
      </trkpt>
      <trkpt lat="50.61154" lon="3.12383">
        <ele>43.2</ele>
        <time>2020-06-24T07:51:44Z</time>
      </trkpt>
      <trkpt lat="50.6115" lon="3.12388">
        <ele>43.2</ele>
        <time>2020-06-24T07:51:45Z</time>
      </trkpt>
      <trkpt lat="50.61145" lon="3.12392">
        <ele>43.2</ele>
        <time>2020-06-24T07:51:46Z</time>
      </trkpt>
      <trkpt lat="50.6114" lon="3.12397">
        <ele>43.2</ele>
        <time>2020-06-24T07:51:47Z</time>
      </trkpt>
      <trkpt lat="50.61135" lon="3.12402">
        <ele>43.2</ele>
        <time>2020-06-24T07:51:48Z</time>
      </trkpt>
      <trkpt lat="50.6113" lon="3.12406">
        <ele>43.3</ele>
        <time>2020-06-24T07:51:49Z</time>
      </trkpt>
      <trkpt lat="50.61125" lon="3.1241">
        <ele>43.3</ele>
        <time>2020-06-24T07:51:50Z</time>
      </trkpt>
      <trkpt lat="50.6112" lon="3.12413">
        <ele>43.3</ele>
        <time>2020-06-24T07:51:51Z</time>
      </trkpt>
      <trkpt lat="50.61116" lon="3.12417">
        <ele>43.3</ele>
        <time>2020-06-24T07:51:52Z</time>
      </trkpt>
      <trkpt lat="50.61111" lon="3.1242">
        <ele>43.4</ele>
        <time>2020-06-24T07:51:53Z</time>
      </trkpt>
      <trkpt lat="50.61107" lon="3.12423">
        <ele>43.4</ele>
        <time>2020-06-24T07:51:54Z</time>
      </trkpt>
      <trkpt lat="50.61102" lon="3.12425">
        <ele>43.5</ele>
        <time>2020-06-24T07:51:55Z</time>
      </trkpt>
      <trkpt lat="50.61097" lon="3.12427">
        <ele>43.5</ele>
        <time>2020-06-24T07:51:56Z</time>
      </trkpt>
      <trkpt lat="50.61092" lon="3.1243">
        <ele>43.6</ele>
        <time>2020-06-24T07:51:57Z</time>
      </trkpt>
      <trkpt lat="50.61086" lon="3.1243">
        <ele>43.6</ele>
        <time>2020-06-24T07:51:58Z</time>
      </trkpt>
      <trkpt lat="50.6108" lon="3.12431">
        <ele>43.7</ele>
        <time>2020-06-24T07:51:59Z</time>
      </trkpt>
      <trkpt lat="50.61076" lon="3.12433">
        <ele>43.7</ele>
        <time>2020-06-24T07:52:00Z</time>
      </trkpt>
      <trkpt lat="50.6107" lon="3.12434">
        <ele>43.7</ele>
        <time>2020-06-24T07:52:01Z</time>
      </trkpt>
      <trkpt lat="50.61064" lon="3.12436">
        <ele>43.8</ele>
        <time>2020-06-24T07:52:02Z</time>
      </trkpt>
      <trkpt lat="50.61059" lon="3.12438">
        <ele>43.9</ele>
        <time>2020-06-24T07:52:03Z</time>
      </trkpt>
      <trkpt lat="50.61052" lon="3.12439">
        <ele>44</ele>
        <time>2020-06-24T07:52:04Z</time>
      </trkpt>
      <trkpt lat="50.61047" lon="3.12441">
        <ele>44</ele>
        <time>2020-06-24T07:52:05Z</time>
      </trkpt>
      <trkpt lat="50.61041" lon="3.12443">
        <ele>44.1</ele>
        <time>2020-06-24T07:52:06Z</time>
      </trkpt>
      <trkpt lat="50.61035" lon="3.12445">
        <ele>44.1</ele>
        <time>2020-06-24T07:52:07Z</time>
      </trkpt>
      <trkpt lat="50.6103" lon="3.12446">
        <ele>44.2</ele>
        <time>2020-06-24T07:52:08Z</time>
      </trkpt>
      <trkpt lat="50.61024" lon="3.12448">
        <ele>44.2</ele>
        <time>2020-06-24T07:52:09Z</time>
      </trkpt>
      <trkpt lat="50.61018" lon="3.12448">
        <ele>44.3</ele>
        <time>2020-06-24T07:52:10Z</time>
      </trkpt>
      <trkpt lat="50.61012" lon="3.12449">
        <ele>44.4</ele>
        <time>2020-06-24T07:52:11Z</time>
      </trkpt>
      <trkpt lat="50.61006" lon="3.1245">
        <ele>44.4</ele>
        <time>2020-06-24T07:52:12Z</time>
      </trkpt>
      <trkpt lat="50.61" lon="3.12453">
        <ele>44.4</ele>
        <time>2020-06-24T07:52:13Z</time>
      </trkpt>
      <trkpt lat="50.60995" lon="3.12455">
        <ele>44.5</ele>
        <time>2020-06-24T07:52:14Z</time>
      </trkpt>
      <trkpt lat="50.60989" lon="3.12458">
        <ele>44.5</ele>
        <time>2020-06-24T07:52:15Z</time>
      </trkpt>
      <trkpt lat="50.60984" lon="3.12461">
        <ele>44.6</ele>
        <time>2020-06-24T07:52:16Z</time>
      </trkpt>
      <trkpt lat="50.60978" lon="3.12464">
        <ele>44.6</ele>
        <time>2020-06-24T07:52:17Z</time>
      </trkpt>
      <trkpt lat="50.60973" lon="3.12467">
        <ele>44.7</ele>
        <time>2020-06-24T07:52:18Z</time>
      </trkpt>
      <trkpt lat="50.60967" lon="3.12469">
        <ele>44.8</ele>
        <time>2020-06-24T07:52:19Z</time>
      </trkpt>
      <trkpt lat="50.60962" lon="3.12472">
        <ele>44.9</ele>
        <time>2020-06-24T07:52:20Z</time>
      </trkpt>
      <trkpt lat="50.60957" lon="3.12476">
        <ele>44.9</ele>
        <time>2020-06-24T07:52:21Z</time>
      </trkpt>
      <trkpt lat="50.60952" lon="3.1248">
        <ele>45</ele>
        <time>2020-06-24T07:52:22Z</time>
      </trkpt>
      <trkpt lat="50.60946" lon="3.12484">
        <ele>45.1</ele>
        <time>2020-06-24T07:52:23Z</time>
      </trkpt>
      <trkpt lat="50.60941" lon="3.12489">
        <ele>45.2</ele>
        <time>2020-06-24T07:52:24Z</time>
      </trkpt>
      <trkpt lat="50.60937" lon="3.12493">
        <ele>45.2</ele>
        <time>2020-06-24T07:52:25Z</time>
      </trkpt>
      <trkpt lat="50.60932" lon="3.12497">
        <ele>45.3</ele>
        <time>2020-06-24T07:52:26Z</time>
      </trkpt>
      <trkpt lat="50.60928" lon="3.12502">
        <ele>45.3</ele>
        <time>2020-06-24T07:52:27Z</time>
      </trkpt>
      <trkpt lat="50.60923" lon="3.12506">
        <ele>45.4</ele>
        <time>2020-06-24T07:52:28Z</time>
      </trkpt>
      <trkpt lat="50.60918" lon="3.1251">
        <ele>45.4</ele>
        <time>2020-06-24T07:52:29Z</time>
      </trkpt>
      <trkpt lat="50.60914" lon="3.12515">
        <ele>45.5</ele>
        <time>2020-06-24T07:52:30Z</time>
      </trkpt>
      <trkpt lat="50.60909" lon="3.12519">
        <ele>45.6</ele>
        <time>2020-06-24T07:52:31Z</time>
      </trkpt>
      <trkpt lat="50.60905" lon="3.12525">
        <ele>45.7</ele>
        <time>2020-06-24T07:52:32Z</time>
      </trkpt>
      <trkpt lat="50.60901" lon="3.1253">
        <ele>45.8</ele>
        <time>2020-06-24T07:52:33Z</time>
      </trkpt>
      <trkpt lat="50.60897" lon="3.12535">
        <ele>45.9</ele>
        <time>2020-06-24T07:52:34Z</time>
      </trkpt>
      <trkpt lat="50.60893" lon="3.1254">
        <ele>46</ele>
        <time>2020-06-24T07:52:35Z</time>
      </trkpt>
      <trkpt lat="50.6089" lon="3.12544">
        <ele>46.1</ele>
        <time>2020-06-24T07:52:36Z</time>
      </trkpt>
      <trkpt lat="50.60885" lon="3.12548">
        <ele>46.2</ele>
        <time>2020-06-24T07:52:37Z</time>
      </trkpt>
      <trkpt lat="50.60882" lon="3.12552">
        <ele>46.2</ele>
        <time>2020-06-24T07:52:38Z</time>
      </trkpt>
      <trkpt lat="50.60878" lon="3.12557">
        <ele>46.2</ele>
        <time>2020-06-24T07:52:39Z</time>
      </trkpt>
      <trkpt lat="50.60875" lon="3.12561">
        <ele>46.3</ele>
        <time>2020-06-24T07:52:40Z</time>
      </trkpt>
      <trkpt lat="50.60873" lon="3.12564">
        <ele>46.2</ele>
        <time>2020-06-24T07:52:41Z</time>
      </trkpt>
      <trkpt lat="50.6087" lon="3.12567">
        <ele>46.2</ele>
        <time>2020-06-24T07:52:42Z</time>
      </trkpt>
      <trkpt lat="50.60869" lon="3.12568">
        <ele>46.2</ele>
        <time>2020-06-24T07:52:43Z</time>
      </trkpt>
      <trkpt lat="50.60865" lon="3.1257">
        <ele>46.2</ele>
        <time>2020-06-24T07:52:44Z</time>
      </trkpt>
      <trkpt lat="50.60864" lon="3.12572">
        <ele>46.2</ele>
        <time>2020-06-24T07:52:45Z</time>
      </trkpt>
      <trkpt lat="50.60861" lon="3.12574">
        <ele>46.2</ele>
        <time>2020-06-24T07:52:46Z</time>
      </trkpt>
      <trkpt lat="50.60857" lon="3.12577">
        <ele>46.2</ele>
        <time>2020-06-24T07:52:47Z</time>
      </trkpt>
      <trkpt lat="50.60853" lon="3.1258">
        <ele>46.2</ele>
        <time>2020-06-24T07:52:48Z</time>
      </trkpt>
      <trkpt lat="50.6085" lon="3.12584">
        <ele>46.1</ele>
        <time>2020-06-24T07:52:49Z</time>
      </trkpt>
      <trkpt lat="50.60845" lon="3.12587">
        <ele>46.1</ele>
        <time>2020-06-24T07:52:50Z</time>
      </trkpt>
      <trkpt lat="50.60841" lon="3.12591">
        <ele>46.1</ele>
        <time>2020-06-24T07:52:51Z</time>
      </trkpt>
      <trkpt lat="50.60837" lon="3.12595">
        <ele>46.1</ele>
        <time>2020-06-24T07:52:52Z</time>
      </trkpt>
      <trkpt lat="50.60833" lon="3.126">
        <ele>46.1</ele>
        <time>2020-06-24T07:52:53Z</time>
      </trkpt>
      <trkpt lat="50.6083" lon="3.12606">
        <ele>46.1</ele>
        <time>2020-06-24T07:52:54Z</time>
      </trkpt>
      <trkpt lat="50.60826" lon="3.12611">
        <ele>46.1</ele>
        <time>2020-06-24T07:52:55Z</time>
      </trkpt>
      <trkpt lat="50.60822" lon="3.12618">
        <ele>46.1</ele>
        <time>2020-06-24T07:52:56Z</time>
      </trkpt>
      <trkpt lat="50.60819" lon="3.12624">
        <ele>46.2</ele>
        <time>2020-06-24T07:52:57Z</time>
      </trkpt>
      <trkpt lat="50.60816" lon="3.12629">
        <ele>46.2</ele>
        <time>2020-06-24T07:52:58Z</time>
      </trkpt>
      <trkpt lat="50.60813" lon="3.12635">
        <ele>46.2</ele>
        <time>2020-06-24T07:52:59Z</time>
      </trkpt>
      <trkpt lat="50.6081" lon="3.12641">
        <ele>46.2</ele>
        <time>2020-06-24T07:53:00Z</time>
      </trkpt>
      <trkpt lat="50.60805" lon="3.12646">
        <ele>46.3</ele>
        <time>2020-06-24T07:53:01Z</time>
      </trkpt>
      <trkpt lat="50.60801" lon="3.12652">
        <ele>46.3</ele>
        <time>2020-06-24T07:53:02Z</time>
      </trkpt>
      <trkpt lat="50.60796" lon="3.12658">
        <ele>46.3</ele>
        <time>2020-06-24T07:53:03Z</time>
      </trkpt>
      <trkpt lat="50.60793" lon="3.12664">
        <ele>46.4</ele>
        <time>2020-06-24T07:53:04Z</time>
      </trkpt>
      <trkpt lat="50.60789" lon="3.12669">
        <ele>46.4</ele>
        <time>2020-06-24T07:53:05Z</time>
      </trkpt>
      <trkpt lat="50.60786" lon="3.12676">
        <ele>46.4</ele>
        <time>2020-06-24T07:53:06Z</time>
      </trkpt>
      <trkpt lat="50.60783" lon="3.12682">
        <ele>46.5</ele>
        <time>2020-06-24T07:53:07Z</time>
      </trkpt>
      <trkpt lat="50.6078" lon="3.12689">
        <ele>46.5</ele>
        <time>2020-06-24T07:53:08Z</time>
      </trkpt>
      <trkpt lat="50.60775" lon="3.12695">
        <ele>46.6</ele>
        <time>2020-06-24T07:53:09Z</time>
      </trkpt>
      <trkpt lat="50.60772" lon="3.127">
        <ele>46.6</ele>
        <time>2020-06-24T07:53:10Z</time>
      </trkpt>
      <trkpt lat="50.60768" lon="3.12705">
        <ele>46.6</ele>
        <time>2020-06-24T07:53:11Z</time>
      </trkpt>
      <trkpt lat="50.60764" lon="3.1271">
        <ele>46.6</ele>
        <time>2020-06-24T07:53:12Z</time>
      </trkpt>
      <trkpt lat="50.60761" lon="3.12714">
        <ele>46.6</ele>
        <time>2020-06-24T07:53:13Z</time>
      </trkpt>
      <trkpt lat="50.60758" lon="3.1272">
        <ele>46.6</ele>
        <time>2020-06-24T07:53:14Z</time>
      </trkpt>
      <trkpt lat="50.60754" lon="3.12725">
        <ele>46.6</ele>
        <time>2020-06-24T07:53:15Z</time>
      </trkpt>
      <trkpt lat="50.60751" lon="3.12731">
        <ele>46.6</ele>
        <time>2020-06-24T07:53:16Z</time>
      </trkpt>
      <trkpt lat="50.60748" lon="3.12737">
        <ele>46.6</ele>
        <time>2020-06-24T07:53:17Z</time>
      </trkpt>
      <trkpt lat="50.60744" lon="3.12743">
        <ele>46.6</ele>
        <time>2020-06-24T07:53:18Z</time>
      </trkpt>
      <trkpt lat="50.60741" lon="3.12749">
        <ele>46.6</ele>
        <time>2020-06-24T07:53:19Z</time>
      </trkpt>
      <trkpt lat="50.60736" lon="3.12754">
        <ele>46.6</ele>
        <time>2020-06-24T07:53:20Z</time>
      </trkpt>
      <trkpt lat="50.60734" lon="3.12761">
        <ele>46.5</ele>
        <time>2020-06-24T07:53:21Z</time>
      </trkpt>
      <trkpt lat="50.60732" lon="3.12766">
        <ele>46.5</ele>
        <time>2020-06-24T07:53:22Z</time>
      </trkpt>
      <trkpt lat="50.60729" lon="3.12771">
        <ele>46.5</ele>
        <time>2020-06-24T07:53:23Z</time>
      </trkpt>
      <trkpt lat="50.60727" lon="3.12776">
        <ele>46.5</ele>
        <time>2020-06-24T07:53:24Z</time>
      </trkpt>
      <trkpt lat="50.60723" lon="3.12782">
        <ele>46.5</ele>
        <time>2020-06-24T07:53:25Z</time>
      </trkpt>
      <trkpt lat="50.6072" lon="3.12789">
        <ele>46.4</ele>
        <time>2020-06-24T07:53:26Z</time>
      </trkpt>
      <trkpt lat="50.60716" lon="3.12795">
        <ele>46.4</ele>
        <time>2020-06-24T07:53:27Z</time>
      </trkpt>
      <trkpt lat="50.60712" lon="3.128">
        <ele>46.4</ele>
        <time>2020-06-24T07:53:28Z</time>
      </trkpt>
      <trkpt lat="50.60709" lon="3.12807">
        <ele>46.4</ele>
        <time>2020-06-24T07:53:29Z</time>
      </trkpt>
      <trkpt lat="50.60705" lon="3.12811">
        <ele>46.4</ele>
        <time>2020-06-24T07:53:30Z</time>
      </trkpt>
      <trkpt lat="50.60701" lon="3.12816">
        <ele>46.4</ele>
        <time>2020-06-24T07:53:31Z</time>
      </trkpt>
      <trkpt lat="50.60697" lon="3.12822">
        <ele>46.3</ele>
        <time>2020-06-24T07:53:32Z</time>
      </trkpt>
      <trkpt lat="50.60693" lon="3.12828">
        <ele>46.3</ele>
        <time>2020-06-24T07:53:33Z</time>
      </trkpt>
      <trkpt lat="50.60689" lon="3.12833">
        <ele>46.3</ele>
        <time>2020-06-24T07:53:34Z</time>
      </trkpt>
      <trkpt lat="50.60686" lon="3.12838">
        <ele>46.3</ele>
        <time>2020-06-24T07:53:35Z</time>
      </trkpt>
      <trkpt lat="50.60681" lon="3.12842">
        <ele>46.3</ele>
        <time>2020-06-24T07:53:36Z</time>
      </trkpt>
      <trkpt lat="50.60677" lon="3.12846">
        <ele>46.3</ele>
        <time>2020-06-24T07:53:37Z</time>
      </trkpt>
      <trkpt lat="50.60674" lon="3.1285">
        <ele>46.4</ele>
        <time>2020-06-24T07:53:38Z</time>
      </trkpt>
      <trkpt lat="50.60671" lon="3.12856">
        <ele>46.4</ele>
        <time>2020-06-24T07:53:39Z</time>
      </trkpt>
      <trkpt lat="50.60667" lon="3.1286">
        <ele>46.4</ele>
        <time>2020-06-24T07:53:40Z</time>
      </trkpt>
      <trkpt lat="50.60664" lon="3.12864">
        <ele>46.4</ele>
        <time>2020-06-24T07:53:41Z</time>
      </trkpt>
      <trkpt lat="50.60661" lon="3.12868">
        <ele>46.4</ele>
        <time>2020-06-24T07:53:42Z</time>
      </trkpt>
      <trkpt lat="50.60659" lon="3.1287">
        <ele>46.4</ele>
        <time>2020-06-24T07:53:43Z</time>
      </trkpt>
      <trkpt lat="50.60658" lon="3.12871">
        <ele>46.4</ele>
        <time>2020-06-24T07:53:44Z</time>
      </trkpt>
      <trkpt lat="50.60656" lon="3.12871">
        <ele>47.8</ele>
        <time>2020-06-24T07:53:45Z</time>
      </trkpt>
      <trkpt lat="50.60654" lon="3.12868">
        <ele>47.1</ele>
        <time>2020-06-24T07:53:46Z</time>
      </trkpt>
      <trkpt lat="50.60653" lon="3.12867">
        <ele>47</ele>
        <time>2020-06-24T07:53:47Z</time>
      </trkpt>
      <trkpt lat="50.60653" lon="3.12866">
        <ele>47</ele>
        <time>2020-06-24T07:53:48Z</time>
      </trkpt>
      <trkpt lat="50.60652" lon="3.12864">
        <ele>46.9</ele>
        <time>2020-06-24T07:53:49Z</time>
      </trkpt>
      <trkpt lat="50.6065" lon="3.12861">
        <ele>46.7</ele>
        <time>2020-06-24T07:53:50Z</time>
      </trkpt>
      <trkpt lat="50.60646" lon="3.12857">
        <ele>46.4</ele>
        <time>2020-06-24T07:53:51Z</time>
      </trkpt>
      <trkpt lat="50.60642" lon="3.12852">
        <ele>46</ele>
        <time>2020-06-24T07:53:52Z</time>
      </trkpt>
      <trkpt lat="50.60638" lon="3.12848">
        <ele>45.7</ele>
        <time>2020-06-24T07:53:53Z</time>
      </trkpt>
      <trkpt lat="50.60635" lon="3.12845">
        <ele>45.4</ele>
        <time>2020-06-24T07:53:54Z</time>
      </trkpt>
      <trkpt lat="50.60631" lon="3.12844">
        <ele>45.3</ele>
        <time>2020-06-24T07:53:55Z</time>
      </trkpt>
      <trkpt lat="50.60626" lon="3.12844">
        <ele>45.3</ele>
        <time>2020-06-24T07:53:56Z</time>
      </trkpt>
      <trkpt lat="50.6062" lon="3.12846">
        <ele>45.3</ele>
        <time>2020-06-24T07:53:57Z</time>
      </trkpt>
      <trkpt lat="50.60615" lon="3.12849">
        <ele>45.3</ele>
        <time>2020-06-24T07:53:58Z</time>
      </trkpt>
      <trkpt lat="50.6061" lon="3.12853">
        <ele>45.4</ele>
        <time>2020-06-24T07:53:59Z</time>
      </trkpt>
      <trkpt lat="50.60606" lon="3.12859">
        <ele>45.4</ele>
        <time>2020-06-24T07:54:00Z</time>
      </trkpt>
      <trkpt lat="50.60602" lon="3.12866">
        <ele>45.4</ele>
        <time>2020-06-24T07:54:01Z</time>
      </trkpt>
      <trkpt lat="50.606" lon="3.12874">
        <ele>45.4</ele>
        <time>2020-06-24T07:54:02Z</time>
      </trkpt>
      <trkpt lat="50.60599" lon="3.12883">
        <ele>45.4</ele>
        <time>2020-06-24T07:54:03Z</time>
      </trkpt>
      <trkpt lat="50.60598" lon="3.12892">
        <ele>45.5</ele>
        <time>2020-06-24T07:54:04Z</time>
      </trkpt>
      <trkpt lat="50.60599" lon="3.12901">
        <ele>45.5</ele>
        <time>2020-06-24T07:54:05Z</time>
      </trkpt>
      <trkpt lat="50.606" lon="3.12909">
        <ele>45.9</ele>
        <time>2020-06-24T07:54:06Z</time>
      </trkpt>
      <trkpt lat="50.60602" lon="3.12917">
        <ele>45.8</ele>
        <time>2020-06-24T07:54:07Z</time>
      </trkpt>
      <trkpt lat="50.60603" lon="3.12923">
        <ele>45.8</ele>
        <time>2020-06-24T07:54:08Z</time>
      </trkpt>
      <trkpt lat="50.60604" lon="3.1293">
        <ele>45.7</ele>
        <time>2020-06-24T07:54:09Z</time>
      </trkpt>
      <trkpt lat="50.60604" lon="3.12938">
        <ele>45.6</ele>
        <time>2020-06-24T07:54:10Z</time>
      </trkpt>
      <trkpt lat="50.60603" lon="3.12945">
        <ele>45.6</ele>
        <time>2020-06-24T07:54:11Z</time>
      </trkpt>
      <trkpt lat="50.606" lon="3.1295">
        <ele>45.6</ele>
        <time>2020-06-24T07:54:12Z</time>
      </trkpt>
      <trkpt lat="50.60597" lon="3.12957">
        <ele>45.6</ele>
        <time>2020-06-24T07:54:13Z</time>
      </trkpt>
      <trkpt lat="50.60594" lon="3.12962">
        <ele>45.7</ele>
        <time>2020-06-24T07:54:14Z</time>
      </trkpt>
      <trkpt lat="50.6059" lon="3.12968">
        <ele>45.7</ele>
        <time>2020-06-24T07:54:15Z</time>
      </trkpt>
      <trkpt lat="50.60587" lon="3.12975">
        <ele>45.8</ele>
        <time>2020-06-24T07:54:16Z</time>
      </trkpt>
      <trkpt lat="50.60583" lon="3.12981">
        <ele>45.9</ele>
        <time>2020-06-24T07:54:17Z</time>
      </trkpt>
      <trkpt lat="50.60579" lon="3.12988">
        <ele>46</ele>
        <time>2020-06-24T07:54:18Z</time>
      </trkpt>
      <trkpt lat="50.60575" lon="3.12995">
        <ele>46.1</ele>
        <time>2020-06-24T07:54:19Z</time>
      </trkpt>
      <trkpt lat="50.60571" lon="3.13001">
        <ele>46.2</ele>
        <time>2020-06-24T07:54:20Z</time>
      </trkpt>
      <trkpt lat="50.60567" lon="3.1301">
        <ele>46.3</ele>
        <time>2020-06-24T07:54:21Z</time>
      </trkpt>
      <trkpt lat="50.60564" lon="3.13016">
        <ele>46.4</ele>
        <time>2020-06-24T07:54:22Z</time>
      </trkpt>
      <trkpt lat="50.60559" lon="3.13024">
        <ele>46.5</ele>
        <time>2020-06-24T07:54:23Z</time>
      </trkpt>
      <trkpt lat="50.60555" lon="3.13029">
        <ele>46.4</ele>
        <time>2020-06-24T07:54:24Z</time>
      </trkpt>
      <trkpt lat="50.60552" lon="3.13036">
        <ele>46.2</ele>
        <time>2020-06-24T07:54:25Z</time>
      </trkpt>
      <trkpt lat="50.60549" lon="3.13045">
        <ele>46.1</ele>
        <time>2020-06-24T07:54:26Z</time>
      </trkpt>
      <trkpt lat="50.60545" lon="3.13053">
        <ele>45.9</ele>
        <time>2020-06-24T07:54:27Z</time>
      </trkpt>
      <trkpt lat="50.60542" lon="3.13064">
        <ele>45.6</ele>
        <time>2020-06-24T07:54:28Z</time>
      </trkpt>
      <trkpt lat="50.60539" lon="3.13073">
        <ele>45.3</ele>
        <time>2020-06-24T07:54:29Z</time>
      </trkpt>
      <trkpt lat="50.60535" lon="3.13082">
        <ele>45.1</ele>
        <time>2020-06-24T07:54:30Z</time>
      </trkpt>
      <trkpt lat="50.60532" lon="3.13091">
        <ele>44.8</ele>
        <time>2020-06-24T07:54:31Z</time>
      </trkpt>
      <trkpt lat="50.60528" lon="3.13101">
        <ele>44.6</ele>
        <time>2020-06-24T07:54:32Z</time>
      </trkpt>
      <trkpt lat="50.60524" lon="3.13112">
        <ele>44.2</ele>
        <time>2020-06-24T07:54:33Z</time>
      </trkpt>
      <trkpt lat="50.6052" lon="3.13122">
        <ele>44</ele>
        <time>2020-06-24T07:54:34Z</time>
      </trkpt>
      <trkpt lat="50.60516" lon="3.13132">
        <ele>43.9</ele>
        <time>2020-06-24T07:54:35Z</time>
      </trkpt>
      <trkpt lat="50.60512" lon="3.13141">
        <ele>43.8</ele>
        <time>2020-06-24T07:54:36Z</time>
      </trkpt>
      <trkpt lat="50.60507" lon="3.1315">
        <ele>43.4</ele>
        <time>2020-06-24T07:54:37Z</time>
      </trkpt>
      <trkpt lat="50.60503" lon="3.13158">
        <ele>43.5</ele>
        <time>2020-06-24T07:54:38Z</time>
      </trkpt>
      <trkpt lat="50.60498" lon="3.13164">
        <ele>43.5</ele>
        <time>2020-06-24T07:54:39Z</time>
      </trkpt>
      <trkpt lat="50.60492" lon="3.13168">
        <ele>43.5</ele>
        <time>2020-06-24T07:54:40Z</time>
      </trkpt>
      <trkpt lat="50.60486" lon="3.13172">
        <ele>43.5</ele>
        <time>2020-06-24T07:54:41Z</time>
      </trkpt>
      <trkpt lat="50.6048" lon="3.13177">
        <ele>44</ele>
        <time>2020-06-24T07:54:42Z</time>
      </trkpt>
      <trkpt lat="50.60475" lon="3.13184">
        <ele>43.6</ele>
        <time>2020-06-24T07:54:43Z</time>
      </trkpt>
      <trkpt lat="50.60471" lon="3.13192">
        <ele>43.2</ele>
        <time>2020-06-24T07:54:44Z</time>
      </trkpt>
      <trkpt lat="50.60468" lon="3.132">
        <ele>42.8</ele>
        <time>2020-06-24T07:54:45Z</time>
      </trkpt>
      <trkpt lat="50.60465" lon="3.13209">
        <ele>43.8</ele>
        <time>2020-06-24T07:54:46Z</time>
      </trkpt>
      <trkpt lat="50.60463" lon="3.13218">
        <ele>43.3</ele>
        <time>2020-06-24T07:54:47Z</time>
      </trkpt>
      <trkpt lat="50.60462" lon="3.13228">
        <ele>42.9</ele>
        <time>2020-06-24T07:54:48Z</time>
      </trkpt>
      <trkpt lat="50.6046" lon="3.13237">
        <ele>42.6</ele>
        <time>2020-06-24T07:54:49Z</time>
      </trkpt>
      <trkpt lat="50.60458" lon="3.13246">
        <ele>42.3</ele>
        <time>2020-06-24T07:54:50Z</time>
      </trkpt>
      <trkpt lat="50.60456" lon="3.13253">
        <ele>42</ele>
        <time>2020-06-24T07:54:51Z</time>
      </trkpt>
      <trkpt lat="50.60454" lon="3.13261">
        <ele>41.7</ele>
        <time>2020-06-24T07:54:52Z</time>
      </trkpt>
      <trkpt lat="50.60452" lon="3.13269">
        <ele>41.8</ele>
        <time>2020-06-24T07:54:53Z</time>
      </trkpt>
      <trkpt lat="50.60449" lon="3.13277">
        <ele>41.8</ele>
        <time>2020-06-24T07:54:54Z</time>
      </trkpt>
      <trkpt lat="50.60444" lon="3.13283">
        <ele>41.8</ele>
        <time>2020-06-24T07:54:55Z</time>
      </trkpt>
      <trkpt lat="50.6044" lon="3.13291">
        <ele>41.8</ele>
        <time>2020-06-24T07:54:56Z</time>
      </trkpt>
      <trkpt lat="50.60436" lon="3.13299">
        <ele>41.9</ele>
        <time>2020-06-24T07:54:57Z</time>
      </trkpt>
      <trkpt lat="50.60432" lon="3.13307">
        <ele>41.9</ele>
        <time>2020-06-24T07:54:58Z</time>
      </trkpt>
      <trkpt lat="50.60428" lon="3.13316">
        <ele>42</ele>
        <time>2020-06-24T07:54:59Z</time>
      </trkpt>
      <trkpt lat="50.60424" lon="3.13324">
        <ele>42</ele>
        <time>2020-06-24T07:55:00Z</time>
      </trkpt>
      <trkpt lat="50.6042" lon="3.13333">
        <ele>42.1</ele>
        <time>2020-06-24T07:55:01Z</time>
      </trkpt>
      <trkpt lat="50.60415" lon="3.13342">
        <ele>42.1</ele>
        <time>2020-06-24T07:55:02Z</time>
      </trkpt>
      <trkpt lat="50.60411" lon="3.13351">
        <ele>42</ele>
        <time>2020-06-24T07:55:03Z</time>
      </trkpt>
      <trkpt lat="50.60407" lon="3.1336">
        <ele>42</ele>
        <time>2020-06-24T07:55:04Z</time>
      </trkpt>
      <trkpt lat="50.60404" lon="3.13369">
        <ele>41.9</ele>
        <time>2020-06-24T07:55:05Z</time>
      </trkpt>
      <trkpt lat="50.604" lon="3.13378">
        <ele>41.8</ele>
        <time>2020-06-24T07:55:06Z</time>
      </trkpt>
      <trkpt lat="50.60397" lon="3.13388">
        <ele>41.8</ele>
        <time>2020-06-24T07:55:07Z</time>
      </trkpt>
      <trkpt lat="50.60392" lon="3.13396">
        <ele>41.7</ele>
        <time>2020-06-24T07:55:08Z</time>
      </trkpt>
      <trkpt lat="50.60387" lon="3.13404">
        <ele>41.6</ele>
        <time>2020-06-24T07:55:09Z</time>
      </trkpt>
      <trkpt lat="50.60383" lon="3.13412">
        <ele>41.5</ele>
        <time>2020-06-24T07:55:10Z</time>
      </trkpt>
      <trkpt lat="50.60379" lon="3.1342">
        <ele>41.5</ele>
        <time>2020-06-24T07:55:11Z</time>
      </trkpt>
      <trkpt lat="50.60374" lon="3.13428">
        <ele>41.4</ele>
        <time>2020-06-24T07:55:12Z</time>
      </trkpt>
      <trkpt lat="50.60369" lon="3.13435">
        <ele>41.4</ele>
        <time>2020-06-24T07:55:13Z</time>
      </trkpt>
      <trkpt lat="50.60364" lon="3.13442">
        <ele>41.3</ele>
        <time>2020-06-24T07:55:14Z</time>
      </trkpt>
      <trkpt lat="50.60359" lon="3.13449">
        <ele>41.2</ele>
        <time>2020-06-24T07:55:15Z</time>
      </trkpt>
      <trkpt lat="50.60355" lon="3.13457">
        <ele>41.1</ele>
        <time>2020-06-24T07:55:16Z</time>
      </trkpt>
      <trkpt lat="50.6035" lon="3.13464">
        <ele>41.1</ele>
        <time>2020-06-24T07:55:17Z</time>
      </trkpt>
      <trkpt lat="50.60344" lon="3.13472">
        <ele>41</ele>
        <time>2020-06-24T07:55:18Z</time>
      </trkpt>
      <trkpt lat="50.60339" lon="3.13479">
        <ele>41</ele>
        <time>2020-06-24T07:55:19Z</time>
      </trkpt>
      <trkpt lat="50.60334" lon="3.13487">
        <ele>40.9</ele>
        <time>2020-06-24T07:55:20Z</time>
      </trkpt>
      <trkpt lat="50.60329" lon="3.13495">
        <ele>40.9</ele>
        <time>2020-06-24T07:55:21Z</time>
      </trkpt>
      <trkpt lat="50.60324" lon="3.13502">
        <ele>40.9</ele>
        <time>2020-06-24T07:55:22Z</time>
      </trkpt>
      <trkpt lat="50.60319" lon="3.13509">
        <ele>40.9</ele>
        <time>2020-06-24T07:55:23Z</time>
      </trkpt>
      <trkpt lat="50.60313" lon="3.13516">
        <ele>40.9</ele>
        <time>2020-06-24T07:55:24Z</time>
      </trkpt>
      <trkpt lat="50.60307" lon="3.13522">
        <ele>40.9</ele>
        <time>2020-06-24T07:55:25Z</time>
      </trkpt>
      <trkpt lat="50.60302" lon="3.13529">
        <ele>41</ele>
        <time>2020-06-24T07:55:26Z</time>
      </trkpt>
      <trkpt lat="50.60296" lon="3.13535">
        <ele>41</ele>
        <time>2020-06-24T07:55:27Z</time>
      </trkpt>
      <trkpt lat="50.60291" lon="3.13541">
        <ele>41</ele>
        <time>2020-06-24T07:55:28Z</time>
      </trkpt>
      <trkpt lat="50.60285" lon="3.13549">
        <ele>41</ele>
        <time>2020-06-24T07:55:29Z</time>
      </trkpt>
      <trkpt lat="50.6028" lon="3.13556">
        <ele>40.9</ele>
        <time>2020-06-24T07:55:30Z</time>
      </trkpt>
      <trkpt lat="50.60275" lon="3.13564">
        <ele>40.9</ele>
        <time>2020-06-24T07:55:31Z</time>
      </trkpt>
      <trkpt lat="50.60272" lon="3.13573">
        <ele>40.9</ele>
        <time>2020-06-24T07:55:32Z</time>
      </trkpt>
      <trkpt lat="50.60269" lon="3.13582">
        <ele>40.9</ele>
        <time>2020-06-24T07:55:33Z</time>
      </trkpt>
      <trkpt lat="50.60265" lon="3.1359">
        <ele>41</ele>
        <time>2020-06-24T07:55:34Z</time>
      </trkpt>
      <trkpt lat="50.60263" lon="3.13599">
        <ele>41</ele>
        <time>2020-06-24T07:55:35Z</time>
      </trkpt>
      <trkpt lat="50.60262" lon="3.13608">
        <ele>41</ele>
        <time>2020-06-24T07:55:36Z</time>
      </trkpt>
      <trkpt lat="50.6026" lon="3.13617">
        <ele>41.1</ele>
        <time>2020-06-24T07:55:37Z</time>
      </trkpt>
      <trkpt lat="50.60258" lon="3.13625">
        <ele>41.2</ele>
        <time>2020-06-24T07:55:38Z</time>
      </trkpt>
      <trkpt lat="50.60256" lon="3.13633">
        <ele>41.3</ele>
        <time>2020-06-24T07:55:39Z</time>
      </trkpt>
      <trkpt lat="50.60255" lon="3.13641">
        <ele>41.4</ele>
        <time>2020-06-24T07:55:40Z</time>
      </trkpt>
      <trkpt lat="50.60254" lon="3.13649">
        <ele>41.4</ele>
        <time>2020-06-24T07:55:41Z</time>
      </trkpt>
      <trkpt lat="50.60253" lon="3.13658">
        <ele>41.5</ele>
        <time>2020-06-24T07:55:42Z</time>
      </trkpt>
      <trkpt lat="50.60253" lon="3.13666">
        <ele>41.6</ele>
        <time>2020-06-24T07:55:43Z</time>
      </trkpt>
      <trkpt lat="50.60253" lon="3.13674">
        <ele>41.7</ele>
        <time>2020-06-24T07:55:44Z</time>
      </trkpt>
      <trkpt lat="50.60253" lon="3.13682">
        <ele>41.8</ele>
        <time>2020-06-24T07:55:45Z</time>
      </trkpt>
      <trkpt lat="50.60253" lon="3.1369">
        <ele>41.9</ele>
        <time>2020-06-24T07:55:46Z</time>
      </trkpt>
      <trkpt lat="50.60254" lon="3.13698">
        <ele>42</ele>
        <time>2020-06-24T07:55:47Z</time>
      </trkpt>
      <trkpt lat="50.60254" lon="3.13705">
        <ele>42.1</ele>
        <time>2020-06-24T07:55:48Z</time>
      </trkpt>
      <trkpt lat="50.60254" lon="3.13712">
        <ele>42.2</ele>
        <time>2020-06-24T07:55:49Z</time>
      </trkpt>
      <trkpt lat="50.60254" lon="3.13719">
        <ele>42.3</ele>
        <time>2020-06-24T07:55:50Z</time>
      </trkpt>
      <trkpt lat="50.60254" lon="3.13724">
        <ele>42.4</ele>
        <time>2020-06-24T07:55:51Z</time>
      </trkpt>
      <trkpt lat="50.60253" lon="3.1373">
        <ele>42.5</ele>
        <time>2020-06-24T07:55:52Z</time>
      </trkpt>
      <trkpt lat="50.60253" lon="3.13731">
        <ele>42.5</ele>
        <time>2020-06-24T07:55:53Z</time>
      </trkpt>
      <trkpt lat="50.60252" lon="3.13733">
        <ele>42.6</ele>
        <time>2020-06-24T07:55:54Z</time>
      </trkpt>
      <trkpt lat="50.60252" lon="3.13735">
        <ele>42.7</ele>
        <time>2020-06-24T07:55:55Z</time>
      </trkpt>
      <trkpt lat="50.60252" lon="3.13737">
        <ele>42.7</ele>
        <time>2020-06-24T07:55:56Z</time>
      </trkpt>
      <trkpt lat="50.60252" lon="3.13738">
        <ele>42.7</ele>
        <time>2020-06-24T07:55:57Z</time>
      </trkpt>
      <trkpt lat="50.60253" lon="3.13738">
        <ele>42.7</ele>
        <time>2020-06-24T07:55:58Z</time>
      </trkpt>
      <trkpt lat="50.60254" lon="3.13737">
        <ele>42.7</ele>
        <time>2020-06-24T07:55:59Z</time>
      </trkpt>
      <trkpt lat="50.60254" lon="3.13737">
        <ele>42.7</ele>
        <time>2020-06-24T07:56:00Z</time>
      </trkpt>
      <trkpt lat="50.60255" lon="3.13737">
        <ele>42.7</ele>
        <time>2020-06-24T07:56:01Z</time>
      </trkpt>
      <trkpt lat="50.60256" lon="3.13738">
        <ele>42.7</ele>
        <time>2020-06-24T07:56:02Z</time>
      </trkpt>
      <trkpt lat="50.60257" lon="3.13738">
        <ele>42.7</ele>
        <time>2020-06-24T07:56:03Z</time>
      </trkpt>
      <trkpt lat="50.60258" lon="3.13739">
        <ele>42.7</ele>
        <time>2020-06-24T07:56:04Z</time>
      </trkpt>
      <trkpt lat="50.60259" lon="3.13739">
        <ele>42.7</ele>
        <time>2020-06-24T07:56:05Z</time>
      </trkpt>
      <trkpt lat="50.6026" lon="3.13739">
        <ele>42.7</ele>
        <time>2020-06-24T07:56:06Z</time>
      </trkpt>
      <trkpt lat="50.60261" lon="3.1374">
        <ele>42.7</ele>
        <time>2020-06-24T07:56:07Z</time>
      </trkpt>
      <trkpt lat="50.60262" lon="3.1374">
        <ele>42.7</ele>
        <time>2020-06-24T07:56:08Z</time>
      </trkpt>
      <trkpt lat="50.60263" lon="3.1374">
        <ele>42.7</ele>
        <time>2020-06-24T07:56:28Z</time>
      </trkpt>
      <trkpt lat="50.60264" lon="3.13741">
        <ele>42.6</ele>
        <time>2020-06-24T07:56:29Z</time>
      </trkpt>
      <trkpt lat="50.60266" lon="3.13743">
        <ele>42.5</ele>
        <time>2020-06-24T07:56:30Z</time>
      </trkpt>
      <trkpt lat="50.60269" lon="3.13745">
        <ele>42.4</ele>
        <time>2020-06-24T07:56:31Z</time>
      </trkpt>
      <trkpt lat="50.60272" lon="3.13747">
        <ele>42.4</ele>
        <time>2020-06-24T07:56:32Z</time>
      </trkpt>
      <trkpt lat="50.60275" lon="3.1375">
        <ele>42.4</ele>
        <time>2020-06-24T07:56:33Z</time>
      </trkpt>
      <trkpt lat="50.60278" lon="3.13752">
        <ele>42.4</ele>
        <time>2020-06-24T07:56:34Z</time>
      </trkpt>
      <trkpt lat="50.60279" lon="3.13756">
        <ele>42.4</ele>
        <time>2020-06-24T07:56:35Z</time>
      </trkpt>
      <trkpt lat="50.6028" lon="3.13757">
        <ele>42.4</ele>
        <time>2020-06-24T07:56:36Z</time>
      </trkpt>
      <trkpt lat="50.60282" lon="3.13761">
        <ele>42.4</ele>
        <time>2020-06-24T07:56:37Z</time>
      </trkpt>
      <trkpt lat="50.60282" lon="3.13763">
        <ele>42.4</ele>
        <time>2020-06-24T07:56:38Z</time>
      </trkpt>
      <trkpt lat="50.60284" lon="3.13765">
        <ele>42.4</ele>
        <time>2020-06-24T07:56:39Z</time>
      </trkpt>
      <trkpt lat="50.60285" lon="3.13766">
        <ele>42.4</ele>
        <time>2020-06-24T07:56:40Z</time>
      </trkpt>
      <trkpt lat="50.60285" lon="3.13769">
        <ele>42.4</ele>
        <time>2020-06-24T07:56:41Z</time>
      </trkpt>
      <trkpt lat="50.60286" lon="3.1377">
        <ele>42.5</ele>
        <time>2020-06-24T07:56:42Z</time>
      </trkpt>
      <trkpt lat="50.60287" lon="3.13775">
        <ele>42.5</ele>
        <time>2020-06-24T07:56:43Z</time>
      </trkpt>
      <trkpt lat="50.60286" lon="3.13777">
        <ele>42.6</ele>
        <time>2020-06-24T07:56:44Z</time>
      </trkpt>
      <trkpt lat="50.60286" lon="3.13781">
        <ele>42.6</ele>
        <time>2020-06-24T07:56:45Z</time>
      </trkpt>
      <trkpt lat="50.60285" lon="3.13783">
        <ele>42.8</ele>
        <time>2020-06-24T07:56:46Z</time>
      </trkpt>
      <trkpt lat="50.60285" lon="3.13788">
        <ele>42.8</ele>
        <time>2020-06-24T07:56:47Z</time>
      </trkpt>
      <trkpt lat="50.60285" lon="3.13789">
        <ele>42.8</ele>
        <time>2020-06-24T07:56:48Z</time>
      </trkpt>
      <trkpt lat="50.60285" lon="3.13795">
        <ele>42.8</ele>
        <time>2020-06-24T07:56:49Z</time>
      </trkpt>
      <trkpt lat="50.60286" lon="3.13797">
        <ele>42.8</ele>
        <time>2020-06-24T07:56:50Z</time>
      </trkpt>
      <trkpt lat="50.60289" lon="3.138">
        <ele>42.8</ele>
        <time>2020-06-24T07:56:51Z</time>
      </trkpt>
      <trkpt lat="50.60292" lon="3.13803">
        <ele>42.8</ele>
        <time>2020-06-24T07:56:52Z</time>
      </trkpt>
      <trkpt lat="50.60296" lon="3.13806">
        <ele>42.8</ele>
        <time>2020-06-24T07:56:53Z</time>
      </trkpt>
      <trkpt lat="50.603" lon="3.1381">
        <ele>42.8</ele>
        <time>2020-06-24T07:56:54Z</time>
      </trkpt>
      <trkpt lat="50.60303" lon="3.13815">
        <ele>42.8</ele>
        <time>2020-06-24T07:56:55Z</time>
      </trkpt>
      <trkpt lat="50.60307" lon="3.13818">
        <ele>42.8</ele>
        <time>2020-06-24T07:56:56Z</time>
      </trkpt>
      <trkpt lat="50.60312" lon="3.13821">
        <ele>42.8</ele>
        <time>2020-06-24T07:56:57Z</time>
      </trkpt>
      <trkpt lat="50.60317" lon="3.13822">
        <ele>42.9</ele>
        <time>2020-06-24T07:56:58Z</time>
      </trkpt>
      <trkpt lat="50.60322" lon="3.13825">
        <ele>42.9</ele>
        <time>2020-06-24T07:56:59Z</time>
      </trkpt>
      <trkpt lat="50.60327" lon="3.13828">
        <ele>42.9</ele>
        <time>2020-06-24T07:57:00Z</time>
      </trkpt>
      <trkpt lat="50.60331" lon="3.1383">
        <ele>42.8</ele>
        <time>2020-06-24T07:57:01Z</time>
      </trkpt>
      <trkpt lat="50.60335" lon="3.13832">
        <ele>42.8</ele>
        <time>2020-06-24T07:57:02Z</time>
      </trkpt>
      <trkpt lat="50.60339" lon="3.13835">
        <ele>42.8</ele>
        <time>2020-06-24T07:57:03Z</time>
      </trkpt>
      <trkpt lat="50.60343" lon="3.13837">
        <ele>42.8</ele>
        <time>2020-06-24T07:57:04Z</time>
      </trkpt>
      <trkpt lat="50.60347" lon="3.13839">
        <ele>42.8</ele>
        <time>2020-06-24T07:57:05Z</time>
      </trkpt>
      <trkpt lat="50.60351" lon="3.1384">
        <ele>42.7</ele>
        <time>2020-06-24T07:57:06Z</time>
      </trkpt>
      <trkpt lat="50.60354" lon="3.13841">
        <ele>42.7</ele>
        <time>2020-06-24T07:57:07Z</time>
      </trkpt>
      <trkpt lat="50.60358" lon="3.13841">
        <ele>42.7</ele>
        <time>2020-06-24T07:57:08Z</time>
      </trkpt>
      <trkpt lat="50.60362" lon="3.13842">
        <ele>42.7</ele>
        <time>2020-06-24T07:57:09Z</time>
      </trkpt>
      <trkpt lat="50.60366" lon="3.13843">
        <ele>42.7</ele>
        <time>2020-06-24T07:57:10Z</time>
      </trkpt>
      <trkpt lat="50.60369" lon="3.13845">
        <ele>42.7</ele>
        <time>2020-06-24T07:57:11Z</time>
      </trkpt>
      <trkpt lat="50.60373" lon="3.13845">
        <ele>42.7</ele>
        <time>2020-06-24T07:57:12Z</time>
      </trkpt>
      <trkpt lat="50.60376" lon="3.13845">
        <ele>42.7</ele>
        <time>2020-06-24T07:57:13Z</time>
      </trkpt>
      <trkpt lat="50.60378" lon="3.13844">
        <ele>42.7</ele>
        <time>2020-06-24T07:57:14Z</time>
      </trkpt>
      <trkpt lat="50.6038" lon="3.13847">
        <ele>42.7</ele>
        <time>2020-06-24T07:57:15Z</time>
      </trkpt>
      <trkpt lat="50.6038" lon="3.13849">
        <ele>42.7</ele>
        <time>2020-06-24T07:57:16Z</time>
      </trkpt>
      <trkpt lat="50.6038" lon="3.1385">
        <ele>42.7</ele>
        <time>2020-06-24T07:57:17Z</time>
      </trkpt>
      <trkpt lat="50.60378" lon="3.13849">
        <ele>42.7</ele>
        <time>2020-06-24T07:57:18Z</time>
      </trkpt>
      <trkpt lat="50.60377" lon="3.13849">
        <ele>42.7</ele>
        <time>2020-06-24T07:57:19Z</time>
      </trkpt>
      <trkpt lat="50.60374" lon="3.13848">
        <ele>42.7</ele>
        <time>2020-06-24T07:57:20Z</time>
      </trkpt>
      <trkpt lat="50.60371" lon="3.13847">
        <ele>42.7</ele>
        <time>2020-06-24T07:57:21Z</time>
      </trkpt>
      <trkpt lat="50.60366" lon="3.13844">
        <ele>42.7</ele>
        <time>2020-06-24T07:57:22Z</time>
      </trkpt>
      <trkpt lat="50.6036" lon="3.13842">
        <ele>42.7</ele>
        <time>2020-06-24T07:57:23Z</time>
      </trkpt>
      <trkpt lat="50.60352" lon="3.13839">
        <ele>42.7</ele>
        <time>2020-06-24T07:57:24Z</time>
      </trkpt>
      <trkpt lat="50.60346" lon="3.13835">
        <ele>42.7</ele>
        <time>2020-06-24T07:57:25Z</time>
      </trkpt>
      <trkpt lat="50.6034" lon="3.13833">
        <ele>42.8</ele>
        <time>2020-06-24T07:57:26Z</time>
      </trkpt>
      <trkpt lat="50.60335" lon="3.13832">
        <ele>42.8</ele>
        <time>2020-06-24T07:57:27Z</time>
      </trkpt>
      <trkpt lat="50.6033" lon="3.13829">
        <ele>42.8</ele>
        <time>2020-06-24T07:57:28Z</time>
      </trkpt>
      <trkpt lat="50.60325" lon="3.13825">
        <ele>42.9</ele>
        <time>2020-06-24T07:57:29Z</time>
      </trkpt>
      <trkpt lat="50.60319" lon="3.13822">
        <ele>42.9</ele>
        <time>2020-06-24T07:57:30Z</time>
      </trkpt>
      <trkpt lat="50.60314" lon="3.13818">
        <ele>42.8</ele>
        <time>2020-06-24T07:57:31Z</time>
      </trkpt>
      <trkpt lat="50.60309" lon="3.13815">
        <ele>42.8</ele>
        <time>2020-06-24T07:57:32Z</time>
      </trkpt>
      <trkpt lat="50.60304" lon="3.13811">
        <ele>42.8</ele>
        <time>2020-06-24T07:57:33Z</time>
      </trkpt>
      <trkpt lat="50.603" lon="3.13808">
        <ele>42.8</ele>
        <time>2020-06-24T07:57:34Z</time>
      </trkpt>
      <trkpt lat="50.60296" lon="3.13804">
        <ele>42.8</ele>
        <time>2020-06-24T07:57:35Z</time>
      </trkpt>
      <trkpt lat="50.60291" lon="3.13802">
        <ele>42.8</ele>
        <time>2020-06-24T07:57:36Z</time>
      </trkpt>
      <trkpt lat="50.60288" lon="3.138">
        <ele>42.9</ele>
        <time>2020-06-24T07:57:37Z</time>
      </trkpt>
      <trkpt lat="50.60285" lon="3.13801">
        <ele>42.9</ele>
        <time>2020-06-24T07:57:38Z</time>
      </trkpt>
      <trkpt lat="50.60281" lon="3.13805">
        <ele>43</ele>
        <time>2020-06-24T07:57:39Z</time>
      </trkpt>
      <trkpt lat="50.6028" lon="3.13813">
        <ele>43</ele>
        <time>2020-06-24T07:57:40Z</time>
      </trkpt>
      <trkpt lat="50.60282" lon="3.13821">
        <ele>42.7</ele>
        <time>2020-06-24T07:57:41Z</time>
      </trkpt>
      <trkpt lat="50.60282" lon="3.13829">
        <ele>42.6</ele>
        <time>2020-06-24T07:57:42Z</time>
      </trkpt>
      <trkpt lat="50.60283" lon="3.13837">
        <ele>42.5</ele>
        <time>2020-06-24T07:57:43Z</time>
      </trkpt>
      <trkpt lat="50.60284" lon="3.13845">
        <ele>42.4</ele>
        <time>2020-06-24T07:57:44Z</time>
      </trkpt>
      <trkpt lat="50.60285" lon="3.13853">
        <ele>42.4</ele>
        <time>2020-06-24T07:57:45Z</time>
      </trkpt>
      <trkpt lat="50.60285" lon="3.1386">
        <ele>42.3</ele>
        <time>2020-06-24T07:57:46Z</time>
      </trkpt>
      <trkpt lat="50.60285" lon="3.13868">
        <ele>42.3</ele>
        <time>2020-06-24T07:57:47Z</time>
      </trkpt>
      <trkpt lat="50.60286" lon="3.13876">
        <ele>42.3</ele>
        <time>2020-06-24T07:57:48Z</time>
      </trkpt>
      <trkpt lat="50.60287" lon="3.13882">
        <ele>42.3</ele>
        <time>2020-06-24T07:57:49Z</time>
      </trkpt>
      <trkpt lat="50.60288" lon="3.1389">
        <ele>42.3</ele>
        <time>2020-06-24T07:57:50Z</time>
      </trkpt>
      <trkpt lat="50.60289" lon="3.13897">
        <ele>42.3</ele>
        <time>2020-06-24T07:57:51Z</time>
      </trkpt>
      <trkpt lat="50.6029" lon="3.13905">
        <ele>42.3</ele>
        <time>2020-06-24T07:57:52Z</time>
      </trkpt>
      <trkpt lat="50.60291" lon="3.13913">
        <ele>42.3</ele>
        <time>2020-06-24T07:57:53Z</time>
      </trkpt>
      <trkpt lat="50.60291" lon="3.13921">
        <ele>42.3</ele>
        <time>2020-06-24T07:57:54Z</time>
      </trkpt>
      <trkpt lat="50.60292" lon="3.13929">
        <ele>42.3</ele>
        <time>2020-06-24T07:57:55Z</time>
      </trkpt>
      <trkpt lat="50.60293" lon="3.13937">
        <ele>42.4</ele>
        <time>2020-06-24T07:57:56Z</time>
      </trkpt>
      <trkpt lat="50.60294" lon="3.13945">
        <ele>42.4</ele>
        <time>2020-06-24T07:57:57Z</time>
      </trkpt>
      <trkpt lat="50.60294" lon="3.13953">
        <ele>42.4</ele>
        <time>2020-06-24T07:57:58Z</time>
      </trkpt>
      <trkpt lat="50.60295" lon="3.1396">
        <ele>42.4</ele>
        <time>2020-06-24T07:57:59Z</time>
      </trkpt>
      <trkpt lat="50.60295" lon="3.13967">
        <ele>42.4</ele>
        <time>2020-06-24T07:58:00Z</time>
      </trkpt>
      <trkpt lat="50.60296" lon="3.13974">
        <ele>42.4</ele>
        <time>2020-06-24T07:58:01Z</time>
      </trkpt>
      <trkpt lat="50.60296" lon="3.1398">
        <ele>42.5</ele>
        <time>2020-06-24T07:58:02Z</time>
      </trkpt>
      <trkpt lat="50.60297" lon="3.13987">
        <ele>42.5</ele>
        <time>2020-06-24T07:58:03Z</time>
      </trkpt>
      <trkpt lat="50.60297" lon="3.13993">
        <ele>42.5</ele>
        <time>2020-06-24T07:58:04Z</time>
      </trkpt>
      <trkpt lat="50.60297" lon="3.14">
        <ele>42.5</ele>
        <time>2020-06-24T07:58:05Z</time>
      </trkpt>
      <trkpt lat="50.60298" lon="3.14007">
        <ele>42.5</ele>
        <time>2020-06-24T07:58:06Z</time>
      </trkpt>
      <trkpt lat="50.60299" lon="3.14012">
        <ele>42.6</ele>
        <time>2020-06-24T07:58:07Z</time>
      </trkpt>
      <trkpt lat="50.603" lon="3.14018">
        <ele>42.6</ele>
        <time>2020-06-24T07:58:08Z</time>
      </trkpt>
      <trkpt lat="50.60301" lon="3.14024">
        <ele>42.6</ele>
        <time>2020-06-24T07:58:09Z</time>
      </trkpt>
      <trkpt lat="50.60301" lon="3.14031">
        <ele>42.6</ele>
        <time>2020-06-24T07:58:10Z</time>
      </trkpt>
      <trkpt lat="50.60302" lon="3.14038">
        <ele>42.6</ele>
        <time>2020-06-24T07:58:11Z</time>
      </trkpt>
      <trkpt lat="50.60303" lon="3.14046">
        <ele>42.6</ele>
        <time>2020-06-24T07:58:12Z</time>
      </trkpt>
      <trkpt lat="50.60306" lon="3.14054">
        <ele>42.7</ele>
        <time>2020-06-24T07:58:13Z</time>
      </trkpt>
      <trkpt lat="50.60308" lon="3.14062">
        <ele>42.7</ele>
        <time>2020-06-24T07:58:14Z</time>
      </trkpt>
      <trkpt lat="50.60309" lon="3.1407">
        <ele>42.7</ele>
        <time>2020-06-24T07:58:15Z</time>
      </trkpt>
      <trkpt lat="50.60311" lon="3.14078">
        <ele>42.7</ele>
        <time>2020-06-24T07:58:16Z</time>
      </trkpt>
      <trkpt lat="50.60313" lon="3.14086">
        <ele>42.7</ele>
        <time>2020-06-24T07:58:17Z</time>
      </trkpt>
      <trkpt lat="50.60315" lon="3.14094">
        <ele>42.7</ele>
        <time>2020-06-24T07:58:18Z</time>
      </trkpt>
      <trkpt lat="50.60317" lon="3.14102">
        <ele>42.8</ele>
        <time>2020-06-24T07:58:19Z</time>
      </trkpt>
      <trkpt lat="50.60319" lon="3.14109">
        <ele>42.8</ele>
        <time>2020-06-24T07:58:20Z</time>
      </trkpt>
      <trkpt lat="50.60321" lon="3.14117">
        <ele>42.8</ele>
        <time>2020-06-24T07:58:21Z</time>
      </trkpt>
      <trkpt lat="50.60324" lon="3.14125">
        <ele>42.8</ele>
        <time>2020-06-24T07:58:22Z</time>
      </trkpt>
      <trkpt lat="50.60326" lon="3.14132">
        <ele>42.7</ele>
        <time>2020-06-24T07:58:23Z</time>
      </trkpt>
      <trkpt lat="50.6033" lon="3.1414">
        <ele>42.7</ele>
        <time>2020-06-24T07:58:24Z</time>
      </trkpt>
      <trkpt lat="50.60333" lon="3.14148">
        <ele>42.7</ele>
        <time>2020-06-24T07:58:25Z</time>
      </trkpt>
      <trkpt lat="50.60336" lon="3.14156">
        <ele>42.7</ele>
        <time>2020-06-24T07:58:26Z</time>
      </trkpt>
      <trkpt lat="50.6034" lon="3.14164">
        <ele>42.6</ele>
        <time>2020-06-24T07:58:27Z</time>
      </trkpt>
      <trkpt lat="50.60344" lon="3.14171">
        <ele>42.6</ele>
        <time>2020-06-24T07:58:28Z</time>
      </trkpt>
      <trkpt lat="50.60348" lon="3.14179">
        <ele>42.6</ele>
        <time>2020-06-24T07:58:29Z</time>
      </trkpt>
      <trkpt lat="50.60351" lon="3.14185">
        <ele>42.6</ele>
        <time>2020-06-24T07:58:30Z</time>
      </trkpt>
      <trkpt lat="50.60355" lon="3.14191">
        <ele>42.6</ele>
        <time>2020-06-24T07:58:31Z</time>
      </trkpt>
      <trkpt lat="50.60358" lon="3.14197">
        <ele>42.6</ele>
        <time>2020-06-24T07:58:32Z</time>
      </trkpt>
      <trkpt lat="50.60362" lon="3.14203">
        <ele>42.6</ele>
        <time>2020-06-24T07:58:33Z</time>
      </trkpt>
      <trkpt lat="50.60365" lon="3.14207">
        <ele>42.6</ele>
        <time>2020-06-24T07:58:34Z</time>
      </trkpt>
      <trkpt lat="50.60368" lon="3.14213">
        <ele>42.6</ele>
        <time>2020-06-24T07:58:35Z</time>
      </trkpt>
      <trkpt lat="50.6037" lon="3.14217">
        <ele>42.7</ele>
        <time>2020-06-24T07:58:36Z</time>
      </trkpt>
      <trkpt lat="50.60373" lon="3.14223">
        <ele>42.7</ele>
        <time>2020-06-24T07:58:37Z</time>
      </trkpt>
      <trkpt lat="50.60374" lon="3.14226">
        <ele>42.7</ele>
        <time>2020-06-24T07:58:38Z</time>
      </trkpt>
      <trkpt lat="50.60375" lon="3.14232">
        <ele>42.7</ele>
        <time>2020-06-24T07:58:39Z</time>
      </trkpt>
      <trkpt lat="50.60376" lon="3.14238">
        <ele>42.7</ele>
        <time>2020-06-24T07:58:40Z</time>
      </trkpt>
      <trkpt lat="50.60376" lon="3.14241">
        <ele>42.8</ele>
        <time>2020-06-24T07:58:41Z</time>
      </trkpt>
      <trkpt lat="50.60373" lon="3.14244">
        <ele>42.9</ele>
        <time>2020-06-24T07:58:42Z</time>
      </trkpt>
      <trkpt lat="50.6037" lon="3.14249">
        <ele>42.9</ele>
        <time>2020-06-24T07:58:43Z</time>
      </trkpt>
      <trkpt lat="50.60367" lon="3.14251">
        <ele>42.4</ele>
        <time>2020-06-24T07:58:44Z</time>
      </trkpt>
      <trkpt lat="50.60365" lon="3.14254">
        <ele>42.4</ele>
        <time>2020-06-24T07:58:45Z</time>
      </trkpt>
      <trkpt lat="50.60362" lon="3.14256">
        <ele>42.3</ele>
        <time>2020-06-24T07:58:46Z</time>
      </trkpt>
      <trkpt lat="50.60361" lon="3.14257">
        <ele>42.3</ele>
        <time>2020-06-24T07:58:47Z</time>
      </trkpt>
      <trkpt lat="50.60361" lon="3.14258">
        <ele>42.3</ele>
        <time>2020-06-24T07:58:48Z</time>
      </trkpt>
      <trkpt lat="50.60361" lon="3.14259">
        <ele>42.3</ele>
        <time>2020-06-24T07:58:49Z</time>
      </trkpt>
      <trkpt lat="50.60361" lon="3.14258">
        <ele>42.3</ele>
        <time>2020-06-24T07:58:50Z</time>
      </trkpt>
      <trkpt lat="50.6036" lon="3.14258">
        <ele>42.3</ele>
        <time>2020-06-24T07:58:51Z</time>
      </trkpt>
      <trkpt lat="50.6036" lon="3.14257">
        <ele>42.3</ele>
        <time>2020-06-24T07:58:52Z</time>
      </trkpt>
      <trkpt lat="50.6036" lon="3.14257">
        <ele>42.3</ele>
        <time>2020-06-24T07:58:53Z</time>
      </trkpt>
      <trkpt lat="50.6036" lon="3.14258">
        <ele>42.3</ele>
        <time>2020-06-24T07:58:54Z</time>
      </trkpt>
      <trkpt lat="50.6036" lon="3.14257">
        <ele>42.3</ele>
        <time>2020-06-24T07:58:55Z</time>
      </trkpt>
      <trkpt lat="50.6036" lon="3.14257">
        <ele>42.3</ele>
        <time>2020-06-24T07:58:56Z</time>
      </trkpt>
      <trkpt lat="50.6036" lon="3.14258">
        <ele>42.3</ele>
        <time>2020-06-24T07:58:57Z</time>
      </trkpt>
      <trkpt lat="50.60359" lon="3.14258">
        <ele>42.3</ele>
        <time>2020-06-24T07:58:58Z</time>
      </trkpt>
      <trkpt lat="50.60358" lon="3.14258">
        <ele>42.3</ele>
        <time>2020-06-24T07:58:59Z</time>
      </trkpt>
      <trkpt lat="50.60357" lon="3.14258">
        <ele>42.3</ele>
        <time>2020-06-24T07:59:00Z</time>
      </trkpt>
      <trkpt lat="50.60357" lon="3.14257">
        <ele>42.3</ele>
        <time>2020-06-24T07:59:01Z</time>
      </trkpt>
      <trkpt lat="50.60358" lon="3.14258">
        <ele>42.3</ele>
        <time>2020-06-24T07:59:02Z</time>
      </trkpt>
      <trkpt lat="50.60359" lon="3.14258">
        <ele>42.3</ele>
        <time>2020-06-24T07:59:03Z</time>
      </trkpt>
      <trkpt lat="50.6036" lon="3.14258">
        <ele>42.3</ele>
        <time>2020-06-24T07:59:04Z</time>
      </trkpt>
      <trkpt lat="50.60361" lon="3.14257">
        <ele>42.3</ele>
        <time>2020-06-24T07:59:05Z</time>
      </trkpt>
      <trkpt lat="50.60361" lon="3.14257">
        <ele>42.3</ele>
        <time>2020-06-24T07:59:06Z</time>
      </trkpt>
      <trkpt lat="50.6036" lon="3.14258">
        <ele>42.2</ele>
        <time>2020-06-24T07:59:07Z</time>
      </trkpt>
      <trkpt lat="50.60359" lon="3.14258">
        <ele>42.2</ele>
        <time>2020-06-24T07:59:08Z</time>
      </trkpt>
      <trkpt lat="50.60359" lon="3.14258">
        <ele>42.2</ele>
        <time>2020-06-24T07:59:09Z</time>
      </trkpt>
      <trkpt lat="50.60358" lon="3.14258">
        <ele>42.2</ele>
        <time>2020-06-24T07:59:10Z</time>
      </trkpt>
      <trkpt lat="50.60358" lon="3.14258">
        <ele>42.2</ele>
        <time>2020-06-24T07:59:11Z</time>
      </trkpt>
      <trkpt lat="50.60357" lon="3.14259">
        <ele>42.2</ele>
        <time>2020-06-24T07:59:12Z</time>
      </trkpt>
      <trkpt lat="50.60356" lon="3.14259">
        <ele>42.2</ele>
        <time>2020-06-24T07:59:13Z</time>
      </trkpt>
      <trkpt lat="50.60353" lon="3.14262">
        <ele>42.2</ele>
        <time>2020-06-24T07:59:14Z</time>
      </trkpt>
      <trkpt lat="50.60351" lon="3.14264">
        <ele>42.1</ele>
        <time>2020-06-24T07:59:15Z</time>
      </trkpt>
      <trkpt lat="50.60348" lon="3.14268">
        <ele>42.1</ele>
        <time>2020-06-24T07:59:16Z</time>
      </trkpt>
      <trkpt lat="50.60344" lon="3.1427">
        <ele>42.1</ele>
        <time>2020-06-24T07:59:17Z</time>
      </trkpt>
      <trkpt lat="50.60341" lon="3.14271">
        <ele>42</ele>
        <time>2020-06-24T07:59:18Z</time>
      </trkpt>
      <trkpt lat="50.60338" lon="3.14274">
        <ele>42</ele>
        <time>2020-06-24T07:59:19Z</time>
      </trkpt>
      <trkpt lat="50.60335" lon="3.14278">
        <ele>42</ele>
        <time>2020-06-24T07:59:20Z</time>
      </trkpt>
      <trkpt lat="50.60332" lon="3.14282">
        <ele>41.9</ele>
        <time>2020-06-24T07:59:21Z</time>
      </trkpt>
      <trkpt lat="50.60329" lon="3.14287">
        <ele>41.9</ele>
        <time>2020-06-24T07:59:22Z</time>
      </trkpt>
      <trkpt lat="50.60326" lon="3.14293">
        <ele>41.8</ele>
        <time>2020-06-24T07:59:23Z</time>
      </trkpt>
      <trkpt lat="50.60322" lon="3.14297">
        <ele>41.8</ele>
        <time>2020-06-24T07:59:24Z</time>
      </trkpt>
      <trkpt lat="50.60318" lon="3.14302">
        <ele>41.8</ele>
        <time>2020-06-24T07:59:25Z</time>
      </trkpt>
      <trkpt lat="50.60313" lon="3.14306">
        <ele>41.7</ele>
        <time>2020-06-24T07:59:26Z</time>
      </trkpt>
      <trkpt lat="50.6031" lon="3.1431">
        <ele>41.7</ele>
        <time>2020-06-24T07:59:27Z</time>
      </trkpt>
      <trkpt lat="50.60306" lon="3.14314">
        <ele>41.7</ele>
        <time>2020-06-24T07:59:28Z</time>
      </trkpt>
      <trkpt lat="50.60302" lon="3.14317">
        <ele>41.7</ele>
        <time>2020-06-24T07:59:29Z</time>
      </trkpt>
      <trkpt lat="50.603" lon="3.1432">
        <ele>41.7</ele>
        <time>2020-06-24T07:59:30Z</time>
      </trkpt>
      <trkpt lat="50.60296" lon="3.14322">
        <ele>41.6</ele>
        <time>2020-06-24T07:59:31Z</time>
      </trkpt>
      <trkpt lat="50.60294" lon="3.14325">
        <ele>41.6</ele>
        <time>2020-06-24T07:59:32Z</time>
      </trkpt>
      <trkpt lat="50.60291" lon="3.14327">
        <ele>41.6</ele>
        <time>2020-06-24T07:59:33Z</time>
      </trkpt>
      <trkpt lat="50.60289" lon="3.1433">
        <ele>41.6</ele>
        <time>2020-06-24T07:59:34Z</time>
      </trkpt>
      <trkpt lat="50.60287" lon="3.14333">
        <ele>41.6</ele>
        <time>2020-06-24T07:59:35Z</time>
      </trkpt>
      <trkpt lat="50.60285" lon="3.14336">
        <ele>41.6</ele>
        <time>2020-06-24T07:59:36Z</time>
      </trkpt>
      <trkpt lat="50.60282" lon="3.1434">
        <ele>41.6</ele>
        <time>2020-06-24T07:59:37Z</time>
      </trkpt>
      <trkpt lat="50.60281" lon="3.14342">
        <ele>41.6</ele>
        <time>2020-06-24T07:59:38Z</time>
      </trkpt>
      <trkpt lat="50.60278" lon="3.14344">
        <ele>41.6</ele>
        <time>2020-06-24T07:59:39Z</time>
      </trkpt>
      <trkpt lat="50.60276" lon="3.14348">
        <ele>41.5</ele>
        <time>2020-06-24T07:59:40Z</time>
      </trkpt>
      <trkpt lat="50.60273" lon="3.1435">
        <ele>41.5</ele>
        <time>2020-06-24T07:59:41Z</time>
      </trkpt>
      <trkpt lat="50.6027" lon="3.14352">
        <ele>41.5</ele>
        <time>2020-06-24T07:59:42Z</time>
      </trkpt>
      <trkpt lat="50.60269" lon="3.14352">
        <ele>41.5</ele>
        <time>2020-06-24T07:59:43Z</time>
      </trkpt>
      <trkpt lat="50.60267" lon="3.14349">
        <ele>41.6</ele>
        <time>2020-06-24T07:59:44Z</time>
      </trkpt>
      <trkpt lat="50.60266" lon="3.14347">
        <ele>41.6</ele>
        <time>2020-06-24T07:59:45Z</time>
      </trkpt>
      <trkpt lat="50.60264" lon="3.14344">
        <ele>41.6</ele>
        <time>2020-06-24T07:59:46Z</time>
      </trkpt>
      <trkpt lat="50.60263" lon="3.14343">
        <ele>41.6</ele>
        <time>2020-06-24T07:59:47Z</time>
      </trkpt>
      <trkpt lat="50.60263" lon="3.14343">
        <ele>41.6</ele>
        <time>2020-06-24T07:59:48Z</time>
      </trkpt>
      <trkpt lat="50.60263" lon="3.14343">
        <ele>41.5</ele>
        <time>2020-06-24T07:59:49Z</time>
      </trkpt>
      <trkpt lat="50.60263" lon="3.14342">
        <ele>41.5</ele>
        <time>2020-06-24T07:59:50Z</time>
      </trkpt>
      <trkpt lat="50.60262" lon="3.14342">
        <ele>41.5</ele>
        <time>2020-06-24T07:59:51Z</time>
      </trkpt>
      <trkpt lat="50.60262" lon="3.14342">
        <ele>41.4</ele>
        <time>2020-06-24T07:59:52Z</time>
      </trkpt>
      <trkpt lat="50.60261" lon="3.14343">
        <ele>41.4</ele>
        <time>2020-06-24T07:59:53Z</time>
      </trkpt>
      <trkpt lat="50.60261" lon="3.14343">
        <ele>41.4</ele>
        <time>2020-06-24T07:59:54Z</time>
      </trkpt>
      <trkpt lat="50.6026" lon="3.14344">
        <ele>41.4</ele>
        <time>2020-06-24T07:59:55Z</time>
      </trkpt>
      <trkpt lat="50.60259" lon="3.14345">
        <ele>41.3</ele>
        <time>2020-06-24T07:59:56Z</time>
      </trkpt>
      <trkpt lat="50.60259" lon="3.14346">
        <ele>41.3</ele>
        <time>2020-06-24T07:59:57Z</time>
      </trkpt>
      <trkpt lat="50.60258" lon="3.14346">
        <ele>41.3</ele>
        <time>2020-06-24T07:59:58Z</time>
      </trkpt>
      <trkpt lat="50.60258" lon="3.14345">
        <ele>41.3</ele>
        <time>2020-06-24T07:59:59Z</time>
      </trkpt>
      <trkpt lat="50.60257" lon="3.14345">
        <ele>41.2</ele>
        <time>2020-06-24T08:00:00Z</time>
      </trkpt>
      <trkpt lat="50.60255" lon="3.14343">
        <ele>41.2</ele>
        <time>2020-06-24T08:00:01Z</time>
      </trkpt>
      <trkpt lat="50.60255" lon="3.14341">
        <ele>41.2</ele>
        <time>2020-06-24T08:00:02Z</time>
      </trkpt>
      <trkpt lat="50.60254" lon="3.1434">
        <ele>41.2</ele>
        <time>2020-06-24T08:00:03Z</time>
      </trkpt>
      <trkpt lat="50.60253" lon="3.14339">
        <ele>41.2</ele>
        <time>2020-06-24T08:00:04Z</time>
      </trkpt>
      <trkpt lat="50.60252" lon="3.14339">
        <ele>41.2</ele>
        <time>2020-06-24T08:00:05Z</time>
      </trkpt>
      <trkpt lat="50.60251" lon="3.14339">
        <ele>41.2</ele>
        <time>2020-06-24T08:00:06Z</time>
      </trkpt>
      <trkpt lat="50.6025" lon="3.14342">
        <ele>41.2</ele>
        <time>2020-06-24T08:00:07Z</time>
      </trkpt>
      <trkpt lat="50.60248" lon="3.14345">
        <ele>41.2</ele>
        <time>2020-06-24T08:00:08Z</time>
      </trkpt>
      <trkpt lat="50.60245" lon="3.14348">
        <ele>41.2</ele>
        <time>2020-06-24T08:00:09Z</time>
      </trkpt>
      <trkpt lat="50.60241" lon="3.14351">
        <ele>41.1</ele>
        <time>2020-06-24T08:00:10Z</time>
      </trkpt>
      <trkpt lat="50.60238" lon="3.14355">
        <ele>41.1</ele>
        <time>2020-06-24T08:00:11Z</time>
      </trkpt>
      <trkpt lat="50.60234" lon="3.14358">
        <ele>41.1</ele>
        <time>2020-06-24T08:00:12Z</time>
      </trkpt>
      <trkpt lat="50.60231" lon="3.14361">
        <ele>41.1</ele>
        <time>2020-06-24T08:00:13Z</time>
      </trkpt>
      <trkpt lat="50.60227" lon="3.14364">
        <ele>41.1</ele>
        <time>2020-06-24T08:00:14Z</time>
      </trkpt>
      <trkpt lat="50.60224" lon="3.14368">
        <ele>41</ele>
        <time>2020-06-24T08:00:15Z</time>
      </trkpt>
      <trkpt lat="50.6022" lon="3.14373">
        <ele>41</ele>
        <time>2020-06-24T08:00:16Z</time>
      </trkpt>
      <trkpt lat="50.60217" lon="3.14379">
        <ele>40.8</ele>
        <time>2020-06-24T08:00:17Z</time>
      </trkpt>
      <trkpt lat="50.60213" lon="3.14383">
        <ele>40.7</ele>
        <time>2020-06-24T08:00:18Z</time>
      </trkpt>
      <trkpt lat="50.6021" lon="3.14387">
        <ele>40.6</ele>
        <time>2020-06-24T08:00:19Z</time>
      </trkpt>
      <trkpt lat="50.60205" lon="3.1439">
        <ele>40.6</ele>
        <time>2020-06-24T08:00:20Z</time>
      </trkpt>
      <trkpt lat="50.602" lon="3.14392">
        <ele>40.5</ele>
        <time>2020-06-24T08:00:21Z</time>
      </trkpt>
      <trkpt lat="50.60197" lon="3.14394">
        <ele>40.5</ele>
        <time>2020-06-24T08:00:22Z</time>
      </trkpt>
      <trkpt lat="50.60193" lon="3.14394">
        <ele>40.4</ele>
        <time>2020-06-24T08:00:23Z</time>
      </trkpt>
      <trkpt lat="50.60189" lon="3.14394">
        <ele>40.4</ele>
        <time>2020-06-24T08:00:24Z</time>
      </trkpt>
      <trkpt lat="50.60186" lon="3.14395">
        <ele>40.4</ele>
        <time>2020-06-24T08:00:25Z</time>
      </trkpt>
      <trkpt lat="50.60184" lon="3.14397">
        <ele>40.4</ele>
        <time>2020-06-24T08:00:26Z</time>
      </trkpt>
      <trkpt lat="50.6018" lon="3.14399">
        <ele>40.3</ele>
        <time>2020-06-24T08:00:27Z</time>
      </trkpt>
      <trkpt lat="50.60179" lon="3.144">
        <ele>40.3</ele>
        <time>2020-06-24T08:00:28Z</time>
      </trkpt>
      <trkpt lat="50.60178" lon="3.14402">
        <ele>40.3</ele>
        <time>2020-06-24T08:00:29Z</time>
      </trkpt>
      <trkpt lat="50.60178" lon="3.14403">
        <ele>40.3</ele>
        <time>2020-06-24T08:00:30Z</time>
      </trkpt>
      <trkpt lat="50.60177" lon="3.14404">
        <ele>40.3</ele>
        <time>2020-06-24T08:00:31Z</time>
      </trkpt>
      <trkpt lat="50.60177" lon="3.14405">
        <ele>40.3</ele>
        <time>2020-06-24T08:00:32Z</time>
      </trkpt>
      <trkpt lat="50.60177" lon="3.14406">
        <ele>40.3</ele>
        <time>2020-06-24T08:00:33Z</time>
      </trkpt>
      <trkpt lat="50.60176" lon="3.14407">
        <ele>40.3</ele>
        <time>2020-06-24T08:00:34Z</time>
      </trkpt>
      <trkpt lat="50.60176" lon="3.14408">
        <ele>40.3</ele>
        <time>2020-06-24T08:00:35Z</time>
      </trkpt>
      <trkpt lat="50.60175" lon="3.14408">
        <ele>40.3</ele>
        <time>2020-06-24T08:00:36Z</time>
      </trkpt>
      <trkpt lat="50.60175" lon="3.14409">
        <ele>40.3</ele>
        <time>2020-06-24T08:00:37Z</time>
      </trkpt>
      <trkpt lat="50.60175" lon="3.1441">
        <ele>40.3</ele>
        <time>2020-06-24T08:00:38Z</time>
      </trkpt>
      <trkpt lat="50.60174" lon="3.14411">
        <ele>40.3</ele>
        <time>2020-06-24T08:00:39Z</time>
      </trkpt>
      <trkpt lat="50.60174" lon="3.14412">
        <ele>40.3</ele>
        <time>2020-06-24T08:01:22Z</time>
      </trkpt>
      <trkpt lat="50.60173" lon="3.14413">
        <ele>40.3</ele>
        <time>2020-06-24T08:01:23Z</time>
      </trkpt>
      <trkpt lat="50.6017" lon="3.14417">
        <ele>40.3</ele>
        <time>2020-06-24T08:01:24Z</time>
      </trkpt>
      <trkpt lat="50.60167" lon="3.14421">
        <ele>40.3</ele>
        <time>2020-06-24T08:01:25Z</time>
      </trkpt>
      <trkpt lat="50.60163" lon="3.14424">
        <ele>40.3</ele>
        <time>2020-06-24T08:01:26Z</time>
      </trkpt>
      <trkpt lat="50.60159" lon="3.14427">
        <ele>40.2</ele>
        <time>2020-06-24T08:01:27Z</time>
      </trkpt>
      <trkpt lat="50.60155" lon="3.1443">
        <ele>40.2</ele>
        <time>2020-06-24T08:01:28Z</time>
      </trkpt>
      <trkpt lat="50.60152" lon="3.14434">
        <ele>40.2</ele>
        <time>2020-06-24T08:01:29Z</time>
      </trkpt>
      <trkpt lat="50.60148" lon="3.14438">
        <ele>40.2</ele>
        <time>2020-06-24T08:01:30Z</time>
      </trkpt>
      <trkpt lat="50.60144" lon="3.14443">
        <ele>40.2</ele>
        <time>2020-06-24T08:01:31Z</time>
      </trkpt>
      <trkpt lat="50.60141" lon="3.14448">
        <ele>40.2</ele>
        <time>2020-06-24T08:01:32Z</time>
      </trkpt>
      <trkpt lat="50.60137" lon="3.14452">
        <ele>40.2</ele>
        <time>2020-06-24T08:01:33Z</time>
      </trkpt>
      <trkpt lat="50.60133" lon="3.14456">
        <ele>40.1</ele>
        <time>2020-06-24T08:01:34Z</time>
      </trkpt>
      <trkpt lat="50.60129" lon="3.14461">
        <ele>40.1</ele>
        <time>2020-06-24T08:01:35Z</time>
      </trkpt>
      <trkpt lat="50.60125" lon="3.14465">
        <ele>40.1</ele>
        <time>2020-06-24T08:01:36Z</time>
      </trkpt>
      <trkpt lat="50.60122" lon="3.1447">
        <ele>40.1</ele>
        <time>2020-06-24T08:01:37Z</time>
      </trkpt>
      <trkpt lat="50.60118" lon="3.14473">
        <ele>40</ele>
        <time>2020-06-24T08:01:38Z</time>
      </trkpt>
      <trkpt lat="50.60114" lon="3.14477">
        <ele>40</ele>
        <time>2020-06-24T08:01:39Z</time>
      </trkpt>
      <trkpt lat="50.6011" lon="3.14483">
        <ele>40</ele>
        <time>2020-06-24T08:01:40Z</time>
      </trkpt>
      <trkpt lat="50.60105" lon="3.14487">
        <ele>39.9</ele>
        <time>2020-06-24T08:01:41Z</time>
      </trkpt>
      <trkpt lat="50.60101" lon="3.14491">
        <ele>39.9</ele>
        <time>2020-06-24T08:01:42Z</time>
      </trkpt>
      <trkpt lat="50.60097" lon="3.14495">
        <ele>39.9</ele>
        <time>2020-06-24T08:01:43Z</time>
      </trkpt>
      <trkpt lat="50.60093" lon="3.14499">
        <ele>39.8</ele>
        <time>2020-06-24T08:01:44Z</time>
      </trkpt>
      <trkpt lat="50.60089" lon="3.14502">
        <ele>39.8</ele>
        <time>2020-06-24T08:01:45Z</time>
      </trkpt>
      <trkpt lat="50.60085" lon="3.14506">
        <ele>39.8</ele>
        <time>2020-06-24T08:01:46Z</time>
      </trkpt>
      <trkpt lat="50.60081" lon="3.1451">
        <ele>39.7</ele>
        <time>2020-06-24T08:01:47Z</time>
      </trkpt>
      <trkpt lat="50.60077" lon="3.14514">
        <ele>39.7</ele>
        <time>2020-06-24T08:01:48Z</time>
      </trkpt>
      <trkpt lat="50.60072" lon="3.14516">
        <ele>39.6</ele>
        <time>2020-06-24T08:01:49Z</time>
      </trkpt>
      <trkpt lat="50.60067" lon="3.14519">
        <ele>39.6</ele>
        <time>2020-06-24T08:01:50Z</time>
      </trkpt>
      <trkpt lat="50.60062" lon="3.14522">
        <ele>39.5</ele>
        <time>2020-06-24T08:01:51Z</time>
      </trkpt>
      <trkpt lat="50.60056" lon="3.14524">
        <ele>39.4</ele>
        <time>2020-06-24T08:01:52Z</time>
      </trkpt>
      <trkpt lat="50.60051" lon="3.14527">
        <ele>39.4</ele>
        <time>2020-06-24T08:01:53Z</time>
      </trkpt>
      <trkpt lat="50.60045" lon="3.14529">
        <ele>39.4</ele>
        <time>2020-06-24T08:01:54Z</time>
      </trkpt>
      <trkpt lat="50.6004" lon="3.14531">
        <ele>39.3</ele>
        <time>2020-06-24T08:01:55Z</time>
      </trkpt>
      <trkpt lat="50.60035" lon="3.14532">
        <ele>39.3</ele>
        <time>2020-06-24T08:01:56Z</time>
      </trkpt>
      <trkpt lat="50.6003" lon="3.14534">
        <ele>39.3</ele>
        <time>2020-06-24T08:01:57Z</time>
      </trkpt>
      <trkpt lat="50.60025" lon="3.14535">
        <ele>39.3</ele>
        <time>2020-06-24T08:01:58Z</time>
      </trkpt>
      <trkpt lat="50.6002" lon="3.14537">
        <ele>39.2</ele>
        <time>2020-06-24T08:01:59Z</time>
      </trkpt>
      <trkpt lat="50.60015" lon="3.14538">
        <ele>39.2</ele>
        <time>2020-06-24T08:02:00Z</time>
      </trkpt>
      <trkpt lat="50.6001" lon="3.14538">
        <ele>39.2</ele>
        <time>2020-06-24T08:02:01Z</time>
      </trkpt>
      <trkpt lat="50.60005" lon="3.14538">
        <ele>39.2</ele>
        <time>2020-06-24T08:02:02Z</time>
      </trkpt>
      <trkpt lat="50.60001" lon="3.14537">
        <ele>39.2</ele>
        <time>2020-06-24T08:02:03Z</time>
      </trkpt>
      <trkpt lat="50.59996" lon="3.14537">
        <ele>39.2</ele>
        <time>2020-06-24T08:02:04Z</time>
      </trkpt>
      <trkpt lat="50.59991" lon="3.14537">
        <ele>39.2</ele>
        <time>2020-06-24T08:02:05Z</time>
      </trkpt>
      <trkpt lat="50.59985" lon="3.14538">
        <ele>39.2</ele>
        <time>2020-06-24T08:02:06Z</time>
      </trkpt>
      <trkpt lat="50.5998" lon="3.14538">
        <ele>39.1</ele>
        <time>2020-06-24T08:02:07Z</time>
      </trkpt>
      <trkpt lat="50.59974" lon="3.14538">
        <ele>39.1</ele>
        <time>2020-06-24T08:02:08Z</time>
      </trkpt>
      <trkpt lat="50.59969" lon="3.14539">
        <ele>39.1</ele>
        <time>2020-06-24T08:02:09Z</time>
      </trkpt>
      <trkpt lat="50.59964" lon="3.14539">
        <ele>39.1</ele>
        <time>2020-06-24T08:02:10Z</time>
      </trkpt>
      <trkpt lat="50.59959" lon="3.14539">
        <ele>39.2</ele>
        <time>2020-06-24T08:02:11Z</time>
      </trkpt>
      <trkpt lat="50.59954" lon="3.14539">
        <ele>39.2</ele>
        <time>2020-06-24T08:02:12Z</time>
      </trkpt>
      <trkpt lat="50.59949" lon="3.1454">
        <ele>39.3</ele>
        <time>2020-06-24T08:02:13Z</time>
      </trkpt>
      <trkpt lat="50.59943" lon="3.14541">
        <ele>39.4</ele>
        <time>2020-06-24T08:02:14Z</time>
      </trkpt>
      <trkpt lat="50.59938" lon="3.14541">
        <ele>39.4</ele>
        <time>2020-06-24T08:02:15Z</time>
      </trkpt>
      <trkpt lat="50.59932" lon="3.1454">
        <ele>39.5</ele>
        <time>2020-06-24T08:02:16Z</time>
      </trkpt>
      <trkpt lat="50.59927" lon="3.1454">
        <ele>39.6</ele>
        <time>2020-06-24T08:02:17Z</time>
      </trkpt>
      <trkpt lat="50.59921" lon="3.1454">
        <ele>39.8</ele>
        <time>2020-06-24T08:02:18Z</time>
      </trkpt>
      <trkpt lat="50.59915" lon="3.1454">
        <ele>39.9</ele>
        <time>2020-06-24T08:02:19Z</time>
      </trkpt>
      <trkpt lat="50.5991" lon="3.1454">
        <ele>40</ele>
        <time>2020-06-24T08:02:20Z</time>
      </trkpt>
      <trkpt lat="50.59905" lon="3.14541">
        <ele>40.2</ele>
        <time>2020-06-24T08:02:21Z</time>
      </trkpt>
      <trkpt lat="50.599" lon="3.14541">
        <ele>40.3</ele>
        <time>2020-06-24T08:02:22Z</time>
      </trkpt>
      <trkpt lat="50.59894" lon="3.14541">
        <ele>40.5</ele>
        <time>2020-06-24T08:02:23Z</time>
      </trkpt>
      <trkpt lat="50.59888" lon="3.14541">
        <ele>40.6</ele>
        <time>2020-06-24T08:02:24Z</time>
      </trkpt>
      <trkpt lat="50.59883" lon="3.14541">
        <ele>40.6</ele>
        <time>2020-06-24T08:02:25Z</time>
      </trkpt>
      <trkpt lat="50.59878" lon="3.14543">
        <ele>40.8</ele>
        <time>2020-06-24T08:02:26Z</time>
      </trkpt>
      <trkpt lat="50.59873" lon="3.14544">
        <ele>40.9</ele>
        <time>2020-06-24T08:02:27Z</time>
      </trkpt>
      <trkpt lat="50.59869" lon="3.14544">
        <ele>41</ele>
        <time>2020-06-24T08:02:28Z</time>
      </trkpt>
      <trkpt lat="50.59864" lon="3.14545">
        <ele>41.2</ele>
        <time>2020-06-24T08:02:29Z</time>
      </trkpt>
      <trkpt lat="50.5986" lon="3.14546">
        <ele>41.3</ele>
        <time>2020-06-24T08:02:30Z</time>
      </trkpt>
      <trkpt lat="50.59856" lon="3.14546">
        <ele>41.4</ele>
        <time>2020-06-24T08:02:31Z</time>
      </trkpt>
      <trkpt lat="50.59851" lon="3.14546">
        <ele>41.5</ele>
        <time>2020-06-24T08:02:32Z</time>
      </trkpt>
      <trkpt lat="50.59848" lon="3.14547">
        <ele>41.5</ele>
        <time>2020-06-24T08:02:33Z</time>
      </trkpt>
      <trkpt lat="50.59844" lon="3.14548">
        <ele>41.6</ele>
        <time>2020-06-24T08:02:34Z</time>
      </trkpt>
      <trkpt lat="50.59841" lon="3.14549">
        <ele>41.7</ele>
        <time>2020-06-24T08:02:35Z</time>
      </trkpt>
      <trkpt lat="50.59837" lon="3.1455">
        <ele>41.7</ele>
        <time>2020-06-24T08:02:36Z</time>
      </trkpt>
      <trkpt lat="50.59833" lon="3.14549">
        <ele>41.8</ele>
        <time>2020-06-24T08:02:37Z</time>
      </trkpt>
      <trkpt lat="50.5983" lon="3.14548">
        <ele>41.8</ele>
        <time>2020-06-24T08:02:38Z</time>
      </trkpt>
      <trkpt lat="50.59826" lon="3.14548">
        <ele>41.9</ele>
        <time>2020-06-24T08:02:39Z</time>
      </trkpt>
      <trkpt lat="50.59821" lon="3.14547">
        <ele>41.9</ele>
        <time>2020-06-24T08:02:40Z</time>
      </trkpt>
      <trkpt lat="50.59817" lon="3.14548">
        <ele>42</ele>
        <time>2020-06-24T08:02:41Z</time>
      </trkpt>
      <trkpt lat="50.59813" lon="3.14548">
        <ele>42</ele>
        <time>2020-06-24T08:02:42Z</time>
      </trkpt>
      <trkpt lat="50.59809" lon="3.14549">
        <ele>42</ele>
        <time>2020-06-24T08:02:43Z</time>
      </trkpt>
      <trkpt lat="50.59806" lon="3.14548">
        <ele>42</ele>
        <time>2020-06-24T08:02:44Z</time>
      </trkpt>
      <trkpt lat="50.59801" lon="3.14548">
        <ele>42</ele>
        <time>2020-06-24T08:02:45Z</time>
      </trkpt>
      <trkpt lat="50.59797" lon="3.14546">
        <ele>42</ele>
        <time>2020-06-24T08:02:46Z</time>
      </trkpt>
      <trkpt lat="50.59793" lon="3.14546">
        <ele>41.9</ele>
        <time>2020-06-24T08:02:47Z</time>
      </trkpt>
      <trkpt lat="50.5979" lon="3.14546">
        <ele>41.9</ele>
        <time>2020-06-24T08:02:48Z</time>
      </trkpt>
      <trkpt lat="50.59785" lon="3.14545">
        <ele>41.9</ele>
        <time>2020-06-24T08:02:49Z</time>
      </trkpt>
      <trkpt lat="50.5978" lon="3.14545">
        <ele>41.8</ele>
        <time>2020-06-24T08:02:50Z</time>
      </trkpt>
      <trkpt lat="50.59774" lon="3.14545">
        <ele>41.7</ele>
        <time>2020-06-24T08:02:51Z</time>
      </trkpt>
      <trkpt lat="50.59769" lon="3.14546">
        <ele>41.6</ele>
        <time>2020-06-24T08:02:52Z</time>
      </trkpt>
      <trkpt lat="50.59763" lon="3.14546">
        <ele>41.5</ele>
        <time>2020-06-24T08:02:53Z</time>
      </trkpt>
      <trkpt lat="50.59757" lon="3.14546">
        <ele>41.3</ele>
        <time>2020-06-24T08:02:54Z</time>
      </trkpt>
      <trkpt lat="50.59752" lon="3.14546">
        <ele>41.2</ele>
        <time>2020-06-24T08:02:55Z</time>
      </trkpt>
      <trkpt lat="50.59746" lon="3.14546">
        <ele>41</ele>
        <time>2020-06-24T08:02:56Z</time>
      </trkpt>
      <trkpt lat="50.59741" lon="3.14545">
        <ele>40.9</ele>
        <time>2020-06-24T08:02:57Z</time>
      </trkpt>
      <trkpt lat="50.59735" lon="3.14544">
        <ele>40.7</ele>
        <time>2020-06-24T08:02:58Z</time>
      </trkpt>
      <trkpt lat="50.59728" lon="3.14544">
        <ele>40.5</ele>
        <time>2020-06-24T08:02:59Z</time>
      </trkpt>
      <trkpt lat="50.59723" lon="3.14545">
        <ele>40.3</ele>
        <time>2020-06-24T08:03:00Z</time>
      </trkpt>
      <trkpt lat="50.59716" lon="3.14545">
        <ele>40</ele>
        <time>2020-06-24T08:03:01Z</time>
      </trkpt>
      <trkpt lat="50.59709" lon="3.14544">
        <ele>39.8</ele>
        <time>2020-06-24T08:03:02Z</time>
      </trkpt>
      <trkpt lat="50.59703" lon="3.14544">
        <ele>39.5</ele>
        <time>2020-06-24T08:03:03Z</time>
      </trkpt>
      <trkpt lat="50.59695" lon="3.14545">
        <ele>39.2</ele>
        <time>2020-06-24T08:03:04Z</time>
      </trkpt>
      <trkpt lat="50.59689" lon="3.14548">
        <ele>38.9</ele>
        <time>2020-06-24T08:03:05Z</time>
      </trkpt>
      <trkpt lat="50.59682" lon="3.14552">
        <ele>38.7</ele>
        <time>2020-06-24T08:03:06Z</time>
      </trkpt>
      <trkpt lat="50.59674" lon="3.14555">
        <ele>38.4</ele>
        <time>2020-06-24T08:03:07Z</time>
      </trkpt>
      <trkpt lat="50.59664" lon="3.1456">
        <ele>38.1</ele>
        <time>2020-06-24T08:03:08Z</time>
      </trkpt>
      <trkpt lat="50.59656" lon="3.14565">
        <ele>37.9</ele>
        <time>2020-06-24T08:03:09Z</time>
      </trkpt>
      <trkpt lat="50.59648" lon="3.1457">
        <ele>37.6</ele>
        <time>2020-06-24T08:03:10Z</time>
      </trkpt>
      <trkpt lat="50.5964" lon="3.14576">
        <ele>37.4</ele>
        <time>2020-06-24T08:03:11Z</time>
      </trkpt>
      <trkpt lat="50.59632" lon="3.14582">
        <ele>37.2</ele>
        <time>2020-06-24T08:03:12Z</time>
      </trkpt>
      <trkpt lat="50.59625" lon="3.14589">
        <ele>37.1</ele>
        <time>2020-06-24T08:03:13Z</time>
      </trkpt>
      <trkpt lat="50.59618" lon="3.14596">
        <ele>37</ele>
        <time>2020-06-24T08:03:14Z</time>
      </trkpt>
      <trkpt lat="50.59611" lon="3.14604">
        <ele>36.9</ele>
        <time>2020-06-24T08:03:15Z</time>
      </trkpt>
      <trkpt lat="50.59605" lon="3.14611">
        <ele>36.9</ele>
        <time>2020-06-24T08:03:16Z</time>
      </trkpt>
      <trkpt lat="50.596" lon="3.14619">
        <ele>36.8</ele>
        <time>2020-06-24T08:03:17Z</time>
      </trkpt>
      <trkpt lat="50.59594" lon="3.14627">
        <ele>36.8</ele>
        <time>2020-06-24T08:03:18Z</time>
      </trkpt>
      <trkpt lat="50.5959" lon="3.14635">
        <ele>36.7</ele>
        <time>2020-06-24T08:03:19Z</time>
      </trkpt>
      <trkpt lat="50.59585" lon="3.14644">
        <ele>36.7</ele>
        <time>2020-06-24T08:03:20Z</time>
      </trkpt>
      <trkpt lat="50.59581" lon="3.14653">
        <ele>36.7</ele>
        <time>2020-06-24T08:03:21Z</time>
      </trkpt>
      <trkpt lat="50.59576" lon="3.14663">
        <ele>36.7</ele>
        <time>2020-06-24T08:03:22Z</time>
      </trkpt>
      <trkpt lat="50.59571" lon="3.14672">
        <ele>36.7</ele>
        <time>2020-06-24T08:03:23Z</time>
      </trkpt>
      <trkpt lat="50.59567" lon="3.14682">
        <ele>36.7</ele>
        <time>2020-06-24T08:03:24Z</time>
      </trkpt>
      <trkpt lat="50.59563" lon="3.14691">
        <ele>36.6</ele>
        <time>2020-06-24T08:03:25Z</time>
      </trkpt>
      <trkpt lat="50.59558" lon="3.147">
        <ele>36.6</ele>
        <time>2020-06-24T08:03:26Z</time>
      </trkpt>
      <trkpt lat="50.59554" lon="3.1471">
        <ele>36.5</ele>
        <time>2020-06-24T08:03:27Z</time>
      </trkpt>
      <trkpt lat="50.5955" lon="3.1472">
        <ele>36.5</ele>
        <time>2020-06-24T08:03:28Z</time>
      </trkpt>
      <trkpt lat="50.59546" lon="3.1473">
        <ele>36.4</ele>
        <time>2020-06-24T08:03:29Z</time>
      </trkpt>
      <trkpt lat="50.59542" lon="3.14739">
        <ele>36.3</ele>
        <time>2020-06-24T08:03:30Z</time>
      </trkpt>
      <trkpt lat="50.59538" lon="3.14749">
        <ele>36.3</ele>
        <time>2020-06-24T08:03:31Z</time>
      </trkpt>
      <trkpt lat="50.59533" lon="3.14758">
        <ele>36.3</ele>
        <time>2020-06-24T08:03:32Z</time>
      </trkpt>
      <trkpt lat="50.59529" lon="3.14767">
        <ele>36.2</ele>
        <time>2020-06-24T08:03:33Z</time>
      </trkpt>
      <trkpt lat="50.59525" lon="3.14776">
        <ele>36.2</ele>
        <time>2020-06-24T08:03:34Z</time>
      </trkpt>
      <trkpt lat="50.59521" lon="3.14786">
        <ele>36.2</ele>
        <time>2020-06-24T08:03:35Z</time>
      </trkpt>
      <trkpt lat="50.59516" lon="3.14795">
        <ele>36.1</ele>
        <time>2020-06-24T08:03:36Z</time>
      </trkpt>
      <trkpt lat="50.59512" lon="3.14805">
        <ele>36.1</ele>
        <time>2020-06-24T08:03:37Z</time>
      </trkpt>
      <trkpt lat="50.59507" lon="3.14814">
        <ele>36</ele>
        <time>2020-06-24T08:03:38Z</time>
      </trkpt>
      <trkpt lat="50.59503" lon="3.14824">
        <ele>36</ele>
        <time>2020-06-24T08:03:39Z</time>
      </trkpt>
      <trkpt lat="50.59499" lon="3.14833">
        <ele>36</ele>
        <time>2020-06-24T08:03:40Z</time>
      </trkpt>
      <trkpt lat="50.59495" lon="3.14842">
        <ele>36</ele>
        <time>2020-06-24T08:03:41Z</time>
      </trkpt>
      <trkpt lat="50.59491" lon="3.14852">
        <ele>36</ele>
        <time>2020-06-24T08:03:42Z</time>
      </trkpt>
      <trkpt lat="50.59487" lon="3.14861">
        <ele>35.9</ele>
        <time>2020-06-24T08:03:43Z</time>
      </trkpt>
      <trkpt lat="50.59483" lon="3.14871">
        <ele>35.9</ele>
        <time>2020-06-24T08:03:44Z</time>
      </trkpt>
      <trkpt lat="50.59479" lon="3.1488">
        <ele>35.9</ele>
        <time>2020-06-24T08:03:45Z</time>
      </trkpt>
      <trkpt lat="50.59474" lon="3.14889">
        <ele>35.8</ele>
        <time>2020-06-24T08:03:46Z</time>
      </trkpt>
      <trkpt lat="50.5947" lon="3.14898">
        <ele>35.8</ele>
        <time>2020-06-24T08:03:47Z</time>
      </trkpt>
      <trkpt lat="50.59466" lon="3.14907">
        <ele>35.7</ele>
        <time>2020-06-24T08:03:48Z</time>
      </trkpt>
      <trkpt lat="50.59461" lon="3.14916">
        <ele>35.6</ele>
        <time>2020-06-24T08:03:49Z</time>
      </trkpt>
      <trkpt lat="50.59457" lon="3.14925">
        <ele>35.5</ele>
        <time>2020-06-24T08:03:50Z</time>
      </trkpt>
      <trkpt lat="50.59453" lon="3.14934">
        <ele>35.4</ele>
        <time>2020-06-24T08:03:51Z</time>
      </trkpt>
      <trkpt lat="50.59448" lon="3.14942">
        <ele>35.4</ele>
        <time>2020-06-24T08:03:52Z</time>
      </trkpt>
      <trkpt lat="50.59444" lon="3.1495">
        <ele>35.4</ele>
        <time>2020-06-24T08:03:53Z</time>
      </trkpt>
      <trkpt lat="50.5944" lon="3.14958">
        <ele>35.4</ele>
        <time>2020-06-24T08:03:54Z</time>
      </trkpt>
      <trkpt lat="50.59435" lon="3.14966">
        <ele>35.4</ele>
        <time>2020-06-24T08:03:55Z</time>
      </trkpt>
      <trkpt lat="50.59431" lon="3.14973">
        <ele>35.4</ele>
        <time>2020-06-24T08:03:56Z</time>
      </trkpt>
      <trkpt lat="50.59426" lon="3.14979">
        <ele>35.5</ele>
        <time>2020-06-24T08:03:57Z</time>
      </trkpt>
      <trkpt lat="50.59421" lon="3.14986">
        <ele>35.5</ele>
        <time>2020-06-24T08:03:58Z</time>
      </trkpt>
      <trkpt lat="50.59417" lon="3.14993">
        <ele>35.5</ele>
        <time>2020-06-24T08:03:59Z</time>
      </trkpt>
      <trkpt lat="50.59412" lon="3.15001">
        <ele>35.5</ele>
        <time>2020-06-24T08:04:00Z</time>
      </trkpt>
      <trkpt lat="50.59408" lon="3.15007">
        <ele>35.6</ele>
        <time>2020-06-24T08:04:01Z</time>
      </trkpt>
      <trkpt lat="50.59404" lon="3.15014">
        <ele>35.6</ele>
        <time>2020-06-24T08:04:02Z</time>
      </trkpt>
      <trkpt lat="50.59399" lon="3.1502">
        <ele>35.6</ele>
        <time>2020-06-24T08:04:03Z</time>
      </trkpt>
      <trkpt lat="50.59395" lon="3.15025">
        <ele>35.6</ele>
        <time>2020-06-24T08:04:04Z</time>
      </trkpt>
      <trkpt lat="50.5939" lon="3.15032">
        <ele>35.6</ele>
        <time>2020-06-24T08:04:05Z</time>
      </trkpt>
      <trkpt lat="50.59386" lon="3.15038">
        <ele>35.6</ele>
        <time>2020-06-24T08:04:06Z</time>
      </trkpt>
      <trkpt lat="50.59382" lon="3.15044">
        <ele>35.6</ele>
        <time>2020-06-24T08:04:07Z</time>
      </trkpt>
      <trkpt lat="50.59377" lon="3.15049">
        <ele>35.6</ele>
        <time>2020-06-24T08:04:08Z</time>
      </trkpt>
      <trkpt lat="50.59373" lon="3.15054">
        <ele>35.6</ele>
        <time>2020-06-24T08:04:09Z</time>
      </trkpt>
      <trkpt lat="50.59368" lon="3.1506">
        <ele>35.7</ele>
        <time>2020-06-24T08:04:10Z</time>
      </trkpt>
      <trkpt lat="50.59364" lon="3.15065">
        <ele>35.7</ele>
        <time>2020-06-24T08:04:11Z</time>
      </trkpt>
      <trkpt lat="50.5936" lon="3.15071">
        <ele>35.8</ele>
        <time>2020-06-24T08:04:12Z</time>
      </trkpt>
      <trkpt lat="50.59355" lon="3.15077">
        <ele>35.8</ele>
        <time>2020-06-24T08:04:13Z</time>
      </trkpt>
      <trkpt lat="50.59351" lon="3.15082">
        <ele>35.9</ele>
        <time>2020-06-24T08:04:14Z</time>
      </trkpt>
      <trkpt lat="50.59346" lon="3.15088">
        <ele>35.9</ele>
        <time>2020-06-24T08:04:15Z</time>
      </trkpt>
      <trkpt lat="50.59342" lon="3.15094">
        <ele>35.9</ele>
        <time>2020-06-24T08:04:16Z</time>
      </trkpt>
      <trkpt lat="50.59337" lon="3.15099">
        <ele>36</ele>
        <time>2020-06-24T08:04:17Z</time>
      </trkpt>
      <trkpt lat="50.59333" lon="3.15104">
        <ele>36</ele>
        <time>2020-06-24T08:04:18Z</time>
      </trkpt>
      <trkpt lat="50.59329" lon="3.15111">
        <ele>36</ele>
        <time>2020-06-24T08:04:19Z</time>
      </trkpt>
      <trkpt lat="50.59324" lon="3.15116">
        <ele>36</ele>
        <time>2020-06-24T08:04:20Z</time>
      </trkpt>
      <trkpt lat="50.59319" lon="3.15121">
        <ele>36.1</ele>
        <time>2020-06-24T08:04:21Z</time>
      </trkpt>
      <trkpt lat="50.59315" lon="3.15127">
        <ele>36.1</ele>
        <time>2020-06-24T08:04:22Z</time>
      </trkpt>
      <trkpt lat="50.5931" lon="3.15132">
        <ele>36.1</ele>
        <time>2020-06-24T08:04:23Z</time>
      </trkpt>
      <trkpt lat="50.59305" lon="3.15138">
        <ele>36.2</ele>
        <time>2020-06-24T08:04:24Z</time>
      </trkpt>
      <trkpt lat="50.59301" lon="3.15144">
        <ele>36.2</ele>
        <time>2020-06-24T08:04:25Z</time>
      </trkpt>
      <trkpt lat="50.59296" lon="3.1515">
        <ele>36.2</ele>
        <time>2020-06-24T08:04:26Z</time>
      </trkpt>
      <trkpt lat="50.59291" lon="3.15155">
        <ele>36.2</ele>
        <time>2020-06-24T08:04:27Z</time>
      </trkpt>
      <trkpt lat="50.59286" lon="3.15161">
        <ele>36.2</ele>
        <time>2020-06-24T08:04:28Z</time>
      </trkpt>
      <trkpt lat="50.59281" lon="3.15167">
        <ele>36.2</ele>
        <time>2020-06-24T08:04:29Z</time>
      </trkpt>
      <trkpt lat="50.59277" lon="3.15172">
        <ele>36.2</ele>
        <time>2020-06-24T08:04:30Z</time>
      </trkpt>
      <trkpt lat="50.59272" lon="3.15178">
        <ele>36.3</ele>
        <time>2020-06-24T08:04:31Z</time>
      </trkpt>
      <trkpt lat="50.59267" lon="3.15184">
        <ele>36.3</ele>
        <time>2020-06-24T08:04:32Z</time>
      </trkpt>
      <trkpt lat="50.59262" lon="3.1519">
        <ele>36.3</ele>
        <time>2020-06-24T08:04:33Z</time>
      </trkpt>
      <trkpt lat="50.59257" lon="3.15196">
        <ele>36.4</ele>
        <time>2020-06-24T08:04:34Z</time>
      </trkpt>
      <trkpt lat="50.59252" lon="3.15202">
        <ele>36.4</ele>
        <time>2020-06-24T08:04:35Z</time>
      </trkpt>
      <trkpt lat="50.59248" lon="3.15207">
        <ele>36.4</ele>
        <time>2020-06-24T08:04:36Z</time>
      </trkpt>
      <trkpt lat="50.59243" lon="3.15213">
        <ele>36.3</ele>
        <time>2020-06-24T08:04:37Z</time>
      </trkpt>
      <trkpt lat="50.59238" lon="3.15219">
        <ele>36.3</ele>
        <time>2020-06-24T08:04:38Z</time>
      </trkpt>
      <trkpt lat="50.59233" lon="3.15225">
        <ele>36.3</ele>
        <time>2020-06-24T08:04:39Z</time>
      </trkpt>
      <trkpt lat="50.59228" lon="3.1523">
        <ele>36.3</ele>
        <time>2020-06-24T08:04:40Z</time>
      </trkpt>
      <trkpt lat="50.59224" lon="3.15236">
        <ele>36.3</ele>
        <time>2020-06-24T08:04:41Z</time>
      </trkpt>
      <trkpt lat="50.59219" lon="3.15242">
        <ele>36.3</ele>
        <time>2020-06-24T08:04:42Z</time>
      </trkpt>
      <trkpt lat="50.59214" lon="3.15248">
        <ele>36.3</ele>
        <time>2020-06-24T08:04:43Z</time>
      </trkpt>
      <trkpt lat="50.5921" lon="3.15254">
        <ele>36.3</ele>
        <time>2020-06-24T08:04:44Z</time>
      </trkpt>
      <trkpt lat="50.59205" lon="3.1526">
        <ele>36.3</ele>
        <time>2020-06-24T08:04:45Z</time>
      </trkpt>
      <trkpt lat="50.592" lon="3.15265">
        <ele>36.3</ele>
        <time>2020-06-24T08:04:46Z</time>
      </trkpt>
      <trkpt lat="50.59195" lon="3.15271">
        <ele>36.2</ele>
        <time>2020-06-24T08:04:47Z</time>
      </trkpt>
      <trkpt lat="50.59191" lon="3.15276">
        <ele>36.2</ele>
        <time>2020-06-24T08:04:48Z</time>
      </trkpt>
      <trkpt lat="50.59186" lon="3.15282">
        <ele>36.2</ele>
        <time>2020-06-24T08:04:49Z</time>
      </trkpt>
      <trkpt lat="50.59181" lon="3.15287">
        <ele>36.2</ele>
        <time>2020-06-24T08:04:50Z</time>
      </trkpt>
      <trkpt lat="50.59176" lon="3.15292">
        <ele>36.2</ele>
        <time>2020-06-24T08:04:51Z</time>
      </trkpt>
      <trkpt lat="50.59172" lon="3.15298">
        <ele>36.3</ele>
        <time>2020-06-24T08:04:52Z</time>
      </trkpt>
      <trkpt lat="50.59167" lon="3.15303">
        <ele>36.3</ele>
        <time>2020-06-24T08:04:53Z</time>
      </trkpt>
      <trkpt lat="50.59162" lon="3.15309">
        <ele>36.3</ele>
        <time>2020-06-24T08:04:54Z</time>
      </trkpt>
      <trkpt lat="50.59157" lon="3.15316">
        <ele>36.2</ele>
        <time>2020-06-24T08:04:55Z</time>
      </trkpt>
      <trkpt lat="50.59152" lon="3.15321">
        <ele>36.2</ele>
        <time>2020-06-24T08:04:56Z</time>
      </trkpt>
      <trkpt lat="50.59148" lon="3.15327">
        <ele>36.1</ele>
        <time>2020-06-24T08:04:57Z</time>
      </trkpt>
      <trkpt lat="50.59143" lon="3.15333">
        <ele>36.1</ele>
        <time>2020-06-24T08:04:58Z</time>
      </trkpt>
      <trkpt lat="50.59138" lon="3.15339">
        <ele>36.1</ele>
        <time>2020-06-24T08:04:59Z</time>
      </trkpt>
      <trkpt lat="50.59134" lon="3.15345">
        <ele>36.1</ele>
        <time>2020-06-24T08:05:00Z</time>
      </trkpt>
      <trkpt lat="50.59129" lon="3.15351">
        <ele>36.1</ele>
        <time>2020-06-24T08:05:01Z</time>
      </trkpt>
      <trkpt lat="50.59125" lon="3.15358">
        <ele>36</ele>
        <time>2020-06-24T08:05:02Z</time>
      </trkpt>
      <trkpt lat="50.5912" lon="3.15366">
        <ele>36</ele>
        <time>2020-06-24T08:05:03Z</time>
      </trkpt>
      <trkpt lat="50.59115" lon="3.15373">
        <ele>36</ele>
        <time>2020-06-24T08:05:04Z</time>
      </trkpt>
      <trkpt lat="50.59111" lon="3.15381">
        <ele>36</ele>
        <time>2020-06-24T08:05:05Z</time>
      </trkpt>
      <trkpt lat="50.59107" lon="3.15388">
        <ele>36</ele>
        <time>2020-06-24T08:05:06Z</time>
      </trkpt>
      <trkpt lat="50.59102" lon="3.15396">
        <ele>36</ele>
        <time>2020-06-24T08:05:07Z</time>
      </trkpt>
      <trkpt lat="50.59098" lon="3.15404">
        <ele>36</ele>
        <time>2020-06-24T08:05:08Z</time>
      </trkpt>
      <trkpt lat="50.59094" lon="3.15412">
        <ele>36</ele>
        <time>2020-06-24T08:05:09Z</time>
      </trkpt>
      <trkpt lat="50.5909" lon="3.15419">
        <ele>36</ele>
        <time>2020-06-24T08:05:10Z</time>
      </trkpt>
      <trkpt lat="50.59086" lon="3.15427">
        <ele>35.9</ele>
        <time>2020-06-24T08:05:11Z</time>
      </trkpt>
      <trkpt lat="50.59081" lon="3.15435">
        <ele>35.9</ele>
        <time>2020-06-24T08:05:12Z</time>
      </trkpt>
      <trkpt lat="50.59077" lon="3.15442">
        <ele>35.8</ele>
        <time>2020-06-24T08:05:13Z</time>
      </trkpt>
      <trkpt lat="50.59073" lon="3.1545">
        <ele>35.8</ele>
        <time>2020-06-24T08:05:14Z</time>
      </trkpt>
      <trkpt lat="50.59069" lon="3.15458">
        <ele>35.8</ele>
        <time>2020-06-24T08:05:15Z</time>
      </trkpt>
      <trkpt lat="50.59065" lon="3.15466">
        <ele>35.7</ele>
        <time>2020-06-24T08:05:16Z</time>
      </trkpt>
      <trkpt lat="50.59061" lon="3.15473">
        <ele>35.7</ele>
        <time>2020-06-24T08:05:17Z</time>
      </trkpt>
      <trkpt lat="50.59057" lon="3.15481">
        <ele>35.7</ele>
        <time>2020-06-24T08:05:18Z</time>
      </trkpt>
      <trkpt lat="50.59053" lon="3.15488">
        <ele>35.7</ele>
        <time>2020-06-24T08:05:19Z</time>
      </trkpt>
      <trkpt lat="50.59049" lon="3.15496">
        <ele>35.7</ele>
        <time>2020-06-24T08:05:20Z</time>
      </trkpt>
      <trkpt lat="50.59045" lon="3.15503">
        <ele>35.6</ele>
        <time>2020-06-24T08:05:21Z</time>
      </trkpt>
      <trkpt lat="50.59041" lon="3.15511">
        <ele>35.6</ele>
        <time>2020-06-24T08:05:22Z</time>
      </trkpt>
      <trkpt lat="50.59038" lon="3.15519">
        <ele>35.6</ele>
        <time>2020-06-24T08:05:23Z</time>
      </trkpt>
      <trkpt lat="50.59034" lon="3.15527">
        <ele>35.6</ele>
        <time>2020-06-24T08:05:24Z</time>
      </trkpt>
      <trkpt lat="50.5903" lon="3.15534">
        <ele>35.6</ele>
        <time>2020-06-24T08:05:25Z</time>
      </trkpt>
      <trkpt lat="50.59026" lon="3.15541">
        <ele>35.6</ele>
        <time>2020-06-24T08:05:26Z</time>
      </trkpt>
      <trkpt lat="50.59022" lon="3.15549">
        <ele>35.6</ele>
        <time>2020-06-24T08:05:27Z</time>
      </trkpt>
      <trkpt lat="50.59018" lon="3.15557">
        <ele>35.6</ele>
        <time>2020-06-24T08:05:28Z</time>
      </trkpt>
      <trkpt lat="50.59014" lon="3.15564">
        <ele>35.6</ele>
        <time>2020-06-24T08:05:29Z</time>
      </trkpt>
      <trkpt lat="50.5901" lon="3.15572">
        <ele>35.6</ele>
        <time>2020-06-24T08:05:30Z</time>
      </trkpt>
      <trkpt lat="50.59005" lon="3.1558">
        <ele>35.6</ele>
        <time>2020-06-24T08:05:31Z</time>
      </trkpt>
      <trkpt lat="50.59001" lon="3.15588">
        <ele>35.6</ele>
        <time>2020-06-24T08:05:32Z</time>
      </trkpt>
      <trkpt lat="50.58997" lon="3.15596">
        <ele>35.6</ele>
        <time>2020-06-24T08:05:33Z</time>
      </trkpt>
      <trkpt lat="50.58993" lon="3.15605">
        <ele>35.6</ele>
        <time>2020-06-24T08:05:34Z</time>
      </trkpt>
      <trkpt lat="50.58989" lon="3.15613">
        <ele>35.6</ele>
        <time>2020-06-24T08:05:35Z</time>
      </trkpt>
      <trkpt lat="50.58985" lon="3.15621">
        <ele>35.5</ele>
        <time>2020-06-24T08:05:36Z</time>
      </trkpt>
      <trkpt lat="50.58981" lon="3.15629">
        <ele>35.5</ele>
        <time>2020-06-24T08:05:37Z</time>
      </trkpt>
      <trkpt lat="50.58977" lon="3.15637">
        <ele>35.5</ele>
        <time>2020-06-24T08:05:38Z</time>
      </trkpt>
      <trkpt lat="50.58973" lon="3.15644">
        <ele>35.5</ele>
        <time>2020-06-24T08:05:39Z</time>
      </trkpt>
      <trkpt lat="50.58969" lon="3.15652">
        <ele>35.5</ele>
        <time>2020-06-24T08:05:40Z</time>
      </trkpt>
      <trkpt lat="50.58965" lon="3.1566">
        <ele>35.5</ele>
        <time>2020-06-24T08:05:41Z</time>
      </trkpt>
      <trkpt lat="50.5896" lon="3.15668">
        <ele>35.5</ele>
        <time>2020-06-24T08:05:42Z</time>
      </trkpt>
      <trkpt lat="50.58956" lon="3.15675">
        <ele>35.6</ele>
        <time>2020-06-24T08:05:43Z</time>
      </trkpt>
      <trkpt lat="50.58952" lon="3.15683">
        <ele>35.6</ele>
        <time>2020-06-24T08:05:44Z</time>
      </trkpt>
      <trkpt lat="50.58948" lon="3.15691">
        <ele>35.6</ele>
        <time>2020-06-24T08:05:45Z</time>
      </trkpt>
      <trkpt lat="50.58944" lon="3.15699">
        <ele>35.6</ele>
        <time>2020-06-24T08:05:46Z</time>
      </trkpt>
      <trkpt lat="50.5894" lon="3.15707">
        <ele>35.6</ele>
        <time>2020-06-24T08:05:47Z</time>
      </trkpt>
      <trkpt lat="50.58936" lon="3.15714">
        <ele>35.6</ele>
        <time>2020-06-24T08:05:48Z</time>
      </trkpt>
      <trkpt lat="50.58932" lon="3.15722">
        <ele>35.6</ele>
        <time>2020-06-24T08:05:49Z</time>
      </trkpt>
      <trkpt lat="50.58928" lon="3.1573">
        <ele>35.6</ele>
        <time>2020-06-24T08:05:50Z</time>
      </trkpt>
      <trkpt lat="50.58924" lon="3.15738">
        <ele>35.6</ele>
        <time>2020-06-24T08:05:51Z</time>
      </trkpt>
      <trkpt lat="50.5892" lon="3.15746">
        <ele>35.6</ele>
        <time>2020-06-24T08:05:52Z</time>
      </trkpt>
      <trkpt lat="50.58917" lon="3.15754">
        <ele>35.6</ele>
        <time>2020-06-24T08:05:53Z</time>
      </trkpt>
      <trkpt lat="50.58913" lon="3.15761">
        <ele>35.6</ele>
        <time>2020-06-24T08:05:54Z</time>
      </trkpt>
      <trkpt lat="50.58909" lon="3.15769">
        <ele>35.6</ele>
        <time>2020-06-24T08:05:55Z</time>
      </trkpt>
      <trkpt lat="50.58906" lon="3.15777">
        <ele>35.6</ele>
        <time>2020-06-24T08:05:56Z</time>
      </trkpt>
      <trkpt lat="50.58903" lon="3.15785">
        <ele>35.6</ele>
        <time>2020-06-24T08:05:57Z</time>
      </trkpt>
      <trkpt lat="50.589" lon="3.15794">
        <ele>35.7</ele>
        <time>2020-06-24T08:05:58Z</time>
      </trkpt>
      <trkpt lat="50.58898" lon="3.15803">
        <ele>35.7</ele>
        <time>2020-06-24T08:05:59Z</time>
      </trkpt>
      <trkpt lat="50.58895" lon="3.15811">
        <ele>35.7</ele>
        <time>2020-06-24T08:06:00Z</time>
      </trkpt>
      <trkpt lat="50.58891" lon="3.15819">
        <ele>35.7</ele>
        <time>2020-06-24T08:06:01Z</time>
      </trkpt>
      <trkpt lat="50.58888" lon="3.15827">
        <ele>35.6</ele>
        <time>2020-06-24T08:06:02Z</time>
      </trkpt>
      <trkpt lat="50.58885" lon="3.15836">
        <ele>35.6</ele>
        <time>2020-06-24T08:06:03Z</time>
      </trkpt>
      <trkpt lat="50.58881" lon="3.15844">
        <ele>35.6</ele>
        <time>2020-06-24T08:06:04Z</time>
      </trkpt>
      <trkpt lat="50.58878" lon="3.15853">
        <ele>35.6</ele>
        <time>2020-06-24T08:06:05Z</time>
      </trkpt>
      <trkpt lat="50.58875" lon="3.15861">
        <ele>35.6</ele>
        <time>2020-06-24T08:06:06Z</time>
      </trkpt>
      <trkpt lat="50.58872" lon="3.1587">
        <ele>35.6</ele>
        <time>2020-06-24T08:06:07Z</time>
      </trkpt>
      <trkpt lat="50.58868" lon="3.15878">
        <ele>35.6</ele>
        <time>2020-06-24T08:06:08Z</time>
      </trkpt>
      <trkpt lat="50.58865" lon="3.15886">
        <ele>35.6</ele>
        <time>2020-06-24T08:06:09Z</time>
      </trkpt>
      <trkpt lat="50.58861" lon="3.15894">
        <ele>35.6</ele>
        <time>2020-06-24T08:06:10Z</time>
      </trkpt>
      <trkpt lat="50.58858" lon="3.15903">
        <ele>35.6</ele>
        <time>2020-06-24T08:06:11Z</time>
      </trkpt>
      <trkpt lat="50.58854" lon="3.15911">
        <ele>35.6</ele>
        <time>2020-06-24T08:06:12Z</time>
      </trkpt>
      <trkpt lat="50.58851" lon="3.15919">
        <ele>35.7</ele>
        <time>2020-06-24T08:06:13Z</time>
      </trkpt>
      <trkpt lat="50.58847" lon="3.15926">
        <ele>35.7</ele>
        <time>2020-06-24T08:06:14Z</time>
      </trkpt>
      <trkpt lat="50.58845" lon="3.15934">
        <ele>35.7</ele>
        <time>2020-06-24T08:06:15Z</time>
      </trkpt>
      <trkpt lat="50.58842" lon="3.15942">
        <ele>35.7</ele>
        <time>2020-06-24T08:06:16Z</time>
      </trkpt>
      <trkpt lat="50.58839" lon="3.15949">
        <ele>35.7</ele>
        <time>2020-06-24T08:06:17Z</time>
      </trkpt>
      <trkpt lat="50.58836" lon="3.15956">
        <ele>35.8</ele>
        <time>2020-06-24T08:06:18Z</time>
      </trkpt>
      <trkpt lat="50.58834" lon="3.15964">
        <ele>35.7</ele>
        <time>2020-06-24T08:06:19Z</time>
      </trkpt>
      <trkpt lat="50.5883" lon="3.15971">
        <ele>35.6</ele>
        <time>2020-06-24T08:06:20Z</time>
      </trkpt>
      <trkpt lat="50.58827" lon="3.1598">
        <ele>35.5</ele>
        <time>2020-06-24T08:06:21Z</time>
      </trkpt>
      <trkpt lat="50.58825" lon="3.15988">
        <ele>35.5</ele>
        <time>2020-06-24T08:06:22Z</time>
      </trkpt>
      <trkpt lat="50.58821" lon="3.15996">
        <ele>35.4</ele>
        <time>2020-06-24T08:06:23Z</time>
      </trkpt>
      <trkpt lat="50.58818" lon="3.16004">
        <ele>35.5</ele>
        <time>2020-06-24T08:06:24Z</time>
      </trkpt>
      <trkpt lat="50.58815" lon="3.16012">
        <ele>35.5</ele>
        <time>2020-06-24T08:06:25Z</time>
      </trkpt>
      <trkpt lat="50.58812" lon="3.16019">
        <ele>35.5</ele>
        <time>2020-06-24T08:06:26Z</time>
      </trkpt>
      <trkpt lat="50.58808" lon="3.16027">
        <ele>35.6</ele>
        <time>2020-06-24T08:06:27Z</time>
      </trkpt>
      <trkpt lat="50.58805" lon="3.16036">
        <ele>35.6</ele>
        <time>2020-06-24T08:06:28Z</time>
      </trkpt>
      <trkpt lat="50.58803" lon="3.16045">
        <ele>35.7</ele>
        <time>2020-06-24T08:06:29Z</time>
      </trkpt>
      <trkpt lat="50.588" lon="3.16054">
        <ele>35.7</ele>
        <time>2020-06-24T08:06:30Z</time>
      </trkpt>
      <trkpt lat="50.58798" lon="3.16064">
        <ele>35.8</ele>
        <time>2020-06-24T08:06:31Z</time>
      </trkpt>
      <trkpt lat="50.58795" lon="3.16072">
        <ele>35.8</ele>
        <time>2020-06-24T08:06:32Z</time>
      </trkpt>
      <trkpt lat="50.58792" lon="3.1608">
        <ele>35.8</ele>
        <time>2020-06-24T08:06:33Z</time>
      </trkpt>
      <trkpt lat="50.58788" lon="3.16089">
        <ele>35.8</ele>
        <time>2020-06-24T08:06:34Z</time>
      </trkpt>
      <trkpt lat="50.58786" lon="3.16098">
        <ele>35.8</ele>
        <time>2020-06-24T08:06:35Z</time>
      </trkpt>
      <trkpt lat="50.58783" lon="3.16107">
        <ele>35.8</ele>
        <time>2020-06-24T08:06:36Z</time>
      </trkpt>
      <trkpt lat="50.5878" lon="3.16116">
        <ele>35.8</ele>
        <time>2020-06-24T08:06:37Z</time>
      </trkpt>
      <trkpt lat="50.58777" lon="3.16125">
        <ele>35.9</ele>
        <time>2020-06-24T08:06:38Z</time>
      </trkpt>
      <trkpt lat="50.58773" lon="3.16133">
        <ele>35.9</ele>
        <time>2020-06-24T08:06:39Z</time>
      </trkpt>
      <trkpt lat="50.5877" lon="3.16142">
        <ele>35.9</ele>
        <time>2020-06-24T08:06:40Z</time>
      </trkpt>
      <trkpt lat="50.58767" lon="3.1615">
        <ele>36</ele>
        <time>2020-06-24T08:06:41Z</time>
      </trkpt>
      <trkpt lat="50.58764" lon="3.16158">
        <ele>36</ele>
        <time>2020-06-24T08:06:42Z</time>
      </trkpt>
      <trkpt lat="50.58761" lon="3.16166">
        <ele>36</ele>
        <time>2020-06-24T08:06:43Z</time>
      </trkpt>
      <trkpt lat="50.58759" lon="3.16174">
        <ele>36.1</ele>
        <time>2020-06-24T08:06:44Z</time>
      </trkpt>
      <trkpt lat="50.58756" lon="3.16182">
        <ele>36.1</ele>
        <time>2020-06-24T08:06:45Z</time>
      </trkpt>
      <trkpt lat="50.58752" lon="3.16188">
        <ele>36.1</ele>
        <time>2020-06-24T08:06:46Z</time>
      </trkpt>
      <trkpt lat="50.58748" lon="3.16194">
        <ele>36.1</ele>
        <time>2020-06-24T08:06:47Z</time>
      </trkpt>
      <trkpt lat="50.58745" lon="3.16201">
        <ele>36.1</ele>
        <time>2020-06-24T08:06:48Z</time>
      </trkpt>
      <trkpt lat="50.58742" lon="3.16209">
        <ele>36.2</ele>
        <time>2020-06-24T08:06:49Z</time>
      </trkpt>
      <trkpt lat="50.5874" lon="3.16219">
        <ele>36.2</ele>
        <time>2020-06-24T08:06:50Z</time>
      </trkpt>
      <trkpt lat="50.58737" lon="3.16228">
        <ele>36.2</ele>
        <time>2020-06-24T08:06:51Z</time>
      </trkpt>
      <trkpt lat="50.58735" lon="3.16237">
        <ele>36.2</ele>
        <time>2020-06-24T08:06:52Z</time>
      </trkpt>
      <trkpt lat="50.58732" lon="3.16246">
        <ele>36.1</ele>
        <time>2020-06-24T08:06:53Z</time>
      </trkpt>
      <trkpt lat="50.58728" lon="3.16255">
        <ele>36.1</ele>
        <time>2020-06-24T08:06:54Z</time>
      </trkpt>
      <trkpt lat="50.58724" lon="3.16263">
        <ele>36.1</ele>
        <time>2020-06-24T08:06:55Z</time>
      </trkpt>
      <trkpt lat="50.58722" lon="3.16273">
        <ele>36</ele>
        <time>2020-06-24T08:06:56Z</time>
      </trkpt>
      <trkpt lat="50.58719" lon="3.16281">
        <ele>36</ele>
        <time>2020-06-24T08:06:57Z</time>
      </trkpt>
      <trkpt lat="50.58716" lon="3.16291">
        <ele>36</ele>
        <time>2020-06-24T08:06:58Z</time>
      </trkpt>
      <trkpt lat="50.58712" lon="3.16302">
        <ele>36</ele>
        <time>2020-06-24T08:06:59Z</time>
      </trkpt>
      <trkpt lat="50.58709" lon="3.16312">
        <ele>36</ele>
        <time>2020-06-24T08:07:00Z</time>
      </trkpt>
      <trkpt lat="50.58706" lon="3.16321">
        <ele>36</ele>
        <time>2020-06-24T08:07:01Z</time>
      </trkpt>
      <trkpt lat="50.58702" lon="3.1633">
        <ele>36</ele>
        <time>2020-06-24T08:07:02Z</time>
      </trkpt>
      <trkpt lat="50.587" lon="3.16339">
        <ele>36</ele>
        <time>2020-06-24T08:07:03Z</time>
      </trkpt>
      <trkpt lat="50.58697" lon="3.16348">
        <ele>36</ele>
        <time>2020-06-24T08:07:04Z</time>
      </trkpt>
      <trkpt lat="50.58693" lon="3.16358">
        <ele>36</ele>
        <time>2020-06-24T08:07:05Z</time>
      </trkpt>
      <trkpt lat="50.5869" lon="3.16366">
        <ele>36</ele>
        <time>2020-06-24T08:07:06Z</time>
      </trkpt>
      <trkpt lat="50.58686" lon="3.16376">
        <ele>36</ele>
        <time>2020-06-24T08:07:07Z</time>
      </trkpt>
      <trkpt lat="50.58683" lon="3.16386">
        <ele>36</ele>
        <time>2020-06-24T08:07:08Z</time>
      </trkpt>
      <trkpt lat="50.58679" lon="3.16395">
        <ele>36</ele>
        <time>2020-06-24T08:07:09Z</time>
      </trkpt>
      <trkpt lat="50.58676" lon="3.16404">
        <ele>36</ele>
        <time>2020-06-24T08:07:10Z</time>
      </trkpt>
      <trkpt lat="50.58672" lon="3.16412">
        <ele>36</ele>
        <time>2020-06-24T08:07:11Z</time>
      </trkpt>
      <trkpt lat="50.58668" lon="3.16422">
        <ele>36</ele>
        <time>2020-06-24T08:07:12Z</time>
      </trkpt>
      <trkpt lat="50.58664" lon="3.16431">
        <ele>36</ele>
        <time>2020-06-24T08:07:13Z</time>
      </trkpt>
      <trkpt lat="50.58661" lon="3.1644">
        <ele>36.1</ele>
        <time>2020-06-24T08:07:14Z</time>
      </trkpt>
      <trkpt lat="50.58658" lon="3.16449">
        <ele>36.1</ele>
        <time>2020-06-24T08:07:15Z</time>
      </trkpt>
      <trkpt lat="50.58655" lon="3.16458">
        <ele>36</ele>
        <time>2020-06-24T08:07:16Z</time>
      </trkpt>
      <trkpt lat="50.58651" lon="3.16466">
        <ele>36</ele>
        <time>2020-06-24T08:07:17Z</time>
      </trkpt>
      <trkpt lat="50.58647" lon="3.16475">
        <ele>36</ele>
        <time>2020-06-24T08:07:18Z</time>
      </trkpt>
      <trkpt lat="50.58643" lon="3.16484">
        <ele>36</ele>
        <time>2020-06-24T08:07:19Z</time>
      </trkpt>
      <trkpt lat="50.5864" lon="3.16493">
        <ele>35.9</ele>
        <time>2020-06-24T08:07:20Z</time>
      </trkpt>
      <trkpt lat="50.58636" lon="3.16503">
        <ele>35.7</ele>
        <time>2020-06-24T08:07:21Z</time>
      </trkpt>
      <trkpt lat="50.58633" lon="3.16512">
        <ele>35.7</ele>
        <time>2020-06-24T08:07:22Z</time>
      </trkpt>
      <trkpt lat="50.58629" lon="3.16522">
        <ele>35.7</ele>
        <time>2020-06-24T08:07:23Z</time>
      </trkpt>
      <trkpt lat="50.58626" lon="3.1653">
        <ele>35.6</ele>
        <time>2020-06-24T08:07:24Z</time>
      </trkpt>
      <trkpt lat="50.58622" lon="3.16537">
        <ele>35.6</ele>
        <time>2020-06-24T08:07:25Z</time>
      </trkpt>
      <trkpt lat="50.58618" lon="3.16544">
        <ele>35.6</ele>
        <time>2020-06-24T08:07:26Z</time>
      </trkpt>
      <trkpt lat="50.58615" lon="3.16552">
        <ele>35.6</ele>
        <time>2020-06-24T08:07:27Z</time>
      </trkpt>
      <trkpt lat="50.58612" lon="3.1656">
        <ele>35.6</ele>
        <time>2020-06-24T08:07:28Z</time>
      </trkpt>
      <trkpt lat="50.58608" lon="3.16569">
        <ele>35.6</ele>
        <time>2020-06-24T08:07:29Z</time>
      </trkpt>
      <trkpt lat="50.58604" lon="3.16578">
        <ele>35.6</ele>
        <time>2020-06-24T08:07:30Z</time>
      </trkpt>
      <trkpt lat="50.58601" lon="3.16586">
        <ele>35.6</ele>
        <time>2020-06-24T08:07:31Z</time>
      </trkpt>
      <trkpt lat="50.58597" lon="3.16595">
        <ele>35.6</ele>
        <time>2020-06-24T08:07:32Z</time>
      </trkpt>
      <trkpt lat="50.58593" lon="3.16604">
        <ele>35.6</ele>
        <time>2020-06-24T08:07:33Z</time>
      </trkpt>
      <trkpt lat="50.5859" lon="3.16612">
        <ele>35.6</ele>
        <time>2020-06-24T08:07:34Z</time>
      </trkpt>
      <trkpt lat="50.58586" lon="3.1662">
        <ele>35.7</ele>
        <time>2020-06-24T08:07:35Z</time>
      </trkpt>
      <trkpt lat="50.58583" lon="3.16628">
        <ele>35.7</ele>
        <time>2020-06-24T08:07:36Z</time>
      </trkpt>
      <trkpt lat="50.5858" lon="3.16637">
        <ele>35.7</ele>
        <time>2020-06-24T08:07:37Z</time>
      </trkpt>
      <trkpt lat="50.58577" lon="3.16646">
        <ele>35.7</ele>
        <time>2020-06-24T08:07:38Z</time>
      </trkpt>
      <trkpt lat="50.58575" lon="3.16655">
        <ele>35.7</ele>
        <time>2020-06-24T08:07:39Z</time>
      </trkpt>
      <trkpt lat="50.58572" lon="3.16664">
        <ele>35.7</ele>
        <time>2020-06-24T08:07:40Z</time>
      </trkpt>
      <trkpt lat="50.58569" lon="3.16673">
        <ele>35.7</ele>
        <time>2020-06-24T08:07:41Z</time>
      </trkpt>
      <trkpt lat="50.58566" lon="3.16682">
        <ele>35.7</ele>
        <time>2020-06-24T08:07:42Z</time>
      </trkpt>
      <trkpt lat="50.58564" lon="3.16691">
        <ele>35.8</ele>
        <time>2020-06-24T08:07:43Z</time>
      </trkpt>
      <trkpt lat="50.5856" lon="3.16699">
        <ele>35.9</ele>
        <time>2020-06-24T08:07:44Z</time>
      </trkpt>
      <trkpt lat="50.58557" lon="3.16708">
        <ele>35.8</ele>
        <time>2020-06-24T08:07:45Z</time>
      </trkpt>
      <trkpt lat="50.58554" lon="3.16717">
        <ele>35.8</ele>
        <time>2020-06-24T08:07:46Z</time>
      </trkpt>
      <trkpt lat="50.5855" lon="3.16725">
        <ele>35.7</ele>
        <time>2020-06-24T08:07:47Z</time>
      </trkpt>
      <trkpt lat="50.58545" lon="3.16732">
        <ele>35.7</ele>
        <time>2020-06-24T08:07:48Z</time>
      </trkpt>
      <trkpt lat="50.58541" lon="3.16739">
        <ele>35.7</ele>
        <time>2020-06-24T08:07:49Z</time>
      </trkpt>
      <trkpt lat="50.58536" lon="3.16745">
        <ele>35.6</ele>
        <time>2020-06-24T08:07:50Z</time>
      </trkpt>
      <trkpt lat="50.58531" lon="3.16753">
        <ele>35.6</ele>
        <time>2020-06-24T08:07:51Z</time>
      </trkpt>
      <trkpt lat="50.58526" lon="3.16761">
        <ele>35.6</ele>
        <time>2020-06-24T08:07:52Z</time>
      </trkpt>
      <trkpt lat="50.58521" lon="3.16768">
        <ele>35.6</ele>
        <time>2020-06-24T08:07:53Z</time>
      </trkpt>
      <trkpt lat="50.58515" lon="3.16776">
        <ele>35.5</ele>
        <time>2020-06-24T08:07:54Z</time>
      </trkpt>
      <trkpt lat="50.5851" lon="3.16784">
        <ele>35.6</ele>
        <time>2020-06-24T08:07:55Z</time>
      </trkpt>
      <trkpt lat="50.58506" lon="3.16793">
        <ele>35.6</ele>
        <time>2020-06-24T08:07:56Z</time>
      </trkpt>
      <trkpt lat="50.58502" lon="3.16801">
        <ele>35.7</ele>
        <time>2020-06-24T08:07:57Z</time>
      </trkpt>
      <trkpt lat="50.58499" lon="3.1681">
        <ele>35.7</ele>
        <time>2020-06-24T08:07:58Z</time>
      </trkpt>
      <trkpt lat="50.58495" lon="3.16818">
        <ele>35.7</ele>
        <time>2020-06-24T08:07:59Z</time>
      </trkpt>
      <trkpt lat="50.58491" lon="3.16826">
        <ele>35.8</ele>
        <time>2020-06-24T08:08:00Z</time>
      </trkpt>
      <trkpt lat="50.58486" lon="3.16833">
        <ele>35.8</ele>
        <time>2020-06-24T08:08:01Z</time>
      </trkpt>
      <trkpt lat="50.58483" lon="3.16841">
        <ele>35.8</ele>
        <time>2020-06-24T08:08:02Z</time>
      </trkpt>
      <trkpt lat="50.58479" lon="3.16849">
        <ele>35.8</ele>
        <time>2020-06-24T08:08:03Z</time>
      </trkpt>
      <trkpt lat="50.58476" lon="3.16857">
        <ele>35.9</ele>
        <time>2020-06-24T08:08:04Z</time>
      </trkpt>
      <trkpt lat="50.58473" lon="3.16866">
        <ele>35.9</ele>
        <time>2020-06-24T08:08:05Z</time>
      </trkpt>
      <trkpt lat="50.58469" lon="3.16874">
        <ele>35.9</ele>
        <time>2020-06-24T08:08:06Z</time>
      </trkpt>
      <trkpt lat="50.58464" lon="3.16882">
        <ele>36</ele>
        <time>2020-06-24T08:08:07Z</time>
      </trkpt>
      <trkpt lat="50.5846" lon="3.1689">
        <ele>36</ele>
        <time>2020-06-24T08:08:08Z</time>
      </trkpt>
      <trkpt lat="50.58455" lon="3.16897">
        <ele>36.1</ele>
        <time>2020-06-24T08:08:09Z</time>
      </trkpt>
      <trkpt lat="50.58451" lon="3.16905">
        <ele>36.1</ele>
        <time>2020-06-24T08:08:10Z</time>
      </trkpt>
      <trkpt lat="50.58446" lon="3.16913">
        <ele>36.1</ele>
        <time>2020-06-24T08:08:11Z</time>
      </trkpt>
      <trkpt lat="50.58442" lon="3.16922">
        <ele>36.2</ele>
        <time>2020-06-24T08:08:12Z</time>
      </trkpt>
      <trkpt lat="50.58438" lon="3.1693">
        <ele>36.2</ele>
        <time>2020-06-24T08:08:13Z</time>
      </trkpt>
      <trkpt lat="50.58435" lon="3.16939">
        <ele>36.1</ele>
        <time>2020-06-24T08:08:14Z</time>
      </trkpt>
      <trkpt lat="50.58431" lon="3.16948">
        <ele>36.1</ele>
        <time>2020-06-24T08:08:15Z</time>
      </trkpt>
      <trkpt lat="50.58427" lon="3.16957">
        <ele>36.1</ele>
        <time>2020-06-24T08:08:16Z</time>
      </trkpt>
      <trkpt lat="50.58424" lon="3.16966">
        <ele>36.1</ele>
        <time>2020-06-24T08:08:17Z</time>
      </trkpt>
      <trkpt lat="50.58419" lon="3.16973">
        <ele>36.1</ele>
        <time>2020-06-24T08:08:18Z</time>
      </trkpt>
      <trkpt lat="50.58415" lon="3.16981">
        <ele>36.1</ele>
        <time>2020-06-24T08:08:19Z</time>
      </trkpt>
      <trkpt lat="50.58411" lon="3.16989">
        <ele>36.1</ele>
        <time>2020-06-24T08:08:20Z</time>
      </trkpt>
      <trkpt lat="50.58408" lon="3.16997">
        <ele>36.1</ele>
        <time>2020-06-24T08:08:21Z</time>
      </trkpt>
      <trkpt lat="50.58404" lon="3.17005">
        <ele>36.1</ele>
        <time>2020-06-24T08:08:22Z</time>
      </trkpt>
      <trkpt lat="50.58401" lon="3.17014">
        <ele>36.2</ele>
        <time>2020-06-24T08:08:23Z</time>
      </trkpt>
      <trkpt lat="50.58396" lon="3.17021">
        <ele>36.2</ele>
        <time>2020-06-24T08:08:24Z</time>
      </trkpt>
      <trkpt lat="50.58392" lon="3.17028">
        <ele>36.2</ele>
        <time>2020-06-24T08:08:25Z</time>
      </trkpt>
      <trkpt lat="50.58389" lon="3.17037">
        <ele>36.2</ele>
        <time>2020-06-24T08:08:26Z</time>
      </trkpt>
      <trkpt lat="50.58385" lon="3.17046">
        <ele>36.1</ele>
        <time>2020-06-24T08:08:27Z</time>
      </trkpt>
      <trkpt lat="50.58381" lon="3.17054">
        <ele>36.1</ele>
        <time>2020-06-24T08:08:28Z</time>
      </trkpt>
      <trkpt lat="50.58377" lon="3.17063">
        <ele>36</ele>
        <time>2020-06-24T08:08:29Z</time>
      </trkpt>
      <trkpt lat="50.58373" lon="3.17072">
        <ele>36</ele>
        <time>2020-06-24T08:08:30Z</time>
      </trkpt>
      <trkpt lat="50.58369" lon="3.17081">
        <ele>36</ele>
        <time>2020-06-24T08:08:31Z</time>
      </trkpt>
      <trkpt lat="50.58365" lon="3.17089">
        <ele>36</ele>
        <time>2020-06-24T08:08:32Z</time>
      </trkpt>
      <trkpt lat="50.5836" lon="3.17097">
        <ele>36</ele>
        <time>2020-06-24T08:08:33Z</time>
      </trkpt>
      <trkpt lat="50.58356" lon="3.17106">
        <ele>35.9</ele>
        <time>2020-06-24T08:08:34Z</time>
      </trkpt>
      <trkpt lat="50.58352" lon="3.17114">
        <ele>35.9</ele>
        <time>2020-06-24T08:08:35Z</time>
      </trkpt>
      <trkpt lat="50.58348" lon="3.17123">
        <ele>35.9</ele>
        <time>2020-06-24T08:08:36Z</time>
      </trkpt>
      <trkpt lat="50.58344" lon="3.17132">
        <ele>36</ele>
        <time>2020-06-24T08:08:37Z</time>
      </trkpt>
      <trkpt lat="50.5834" lon="3.17141">
        <ele>36</ele>
        <time>2020-06-24T08:08:38Z</time>
      </trkpt>
      <trkpt lat="50.58336" lon="3.17149">
        <ele>36</ele>
        <time>2020-06-24T08:08:39Z</time>
      </trkpt>
      <trkpt lat="50.58331" lon="3.17158">
        <ele>36</ele>
        <time>2020-06-24T08:08:40Z</time>
      </trkpt>
      <trkpt lat="50.58327" lon="3.17166">
        <ele>36</ele>
        <time>2020-06-24T08:08:41Z</time>
      </trkpt>
      <trkpt lat="50.58323" lon="3.17175">
        <ele>36.1</ele>
        <time>2020-06-24T08:08:42Z</time>
      </trkpt>
      <trkpt lat="50.58319" lon="3.17183">
        <ele>36.1</ele>
        <time>2020-06-24T08:08:43Z</time>
      </trkpt>
      <trkpt lat="50.58315" lon="3.17192">
        <ele>36.3</ele>
        <time>2020-06-24T08:08:44Z</time>
      </trkpt>
      <trkpt lat="50.58311" lon="3.172">
        <ele>36.3</ele>
        <time>2020-06-24T08:08:45Z</time>
      </trkpt>
      <trkpt lat="50.58307" lon="3.17208">
        <ele>36.4</ele>
        <time>2020-06-24T08:08:46Z</time>
      </trkpt>
      <trkpt lat="50.58303" lon="3.17217">
        <ele>36.1</ele>
        <time>2020-06-24T08:08:47Z</time>
      </trkpt>
      <trkpt lat="50.58299" lon="3.17225">
        <ele>35.9</ele>
        <time>2020-06-24T08:08:48Z</time>
      </trkpt>
      <trkpt lat="50.58295" lon="3.17233">
        <ele>35.8</ele>
        <time>2020-06-24T08:08:49Z</time>
      </trkpt>
      <trkpt lat="50.58291" lon="3.17241">
        <ele>35.6</ele>
        <time>2020-06-24T08:08:50Z</time>
      </trkpt>
      <trkpt lat="50.58287" lon="3.1725">
        <ele>35.5</ele>
        <time>2020-06-24T08:08:51Z</time>
      </trkpt>
      <trkpt lat="50.58283" lon="3.17259">
        <ele>35.4</ele>
        <time>2020-06-24T08:08:52Z</time>
      </trkpt>
      <trkpt lat="50.58278" lon="3.17267">
        <ele>35.3</ele>
        <time>2020-06-24T08:08:53Z</time>
      </trkpt>
      <trkpt lat="50.58274" lon="3.17276">
        <ele>35.2</ele>
        <time>2020-06-24T08:08:54Z</time>
      </trkpt>
      <trkpt lat="50.5827" lon="3.17285">
        <ele>35.1</ele>
        <time>2020-06-24T08:08:55Z</time>
      </trkpt>
      <trkpt lat="50.58265" lon="3.17294">
        <ele>35</ele>
        <time>2020-06-24T08:08:56Z</time>
      </trkpt>
      <trkpt lat="50.58261" lon="3.17303">
        <ele>34.9</ele>
        <time>2020-06-24T08:08:57Z</time>
      </trkpt>
      <trkpt lat="50.58256" lon="3.17312">
        <ele>34.7</ele>
        <time>2020-06-24T08:08:58Z</time>
      </trkpt>
      <trkpt lat="50.58252" lon="3.17321">
        <ele>34.6</ele>
        <time>2020-06-24T08:08:59Z</time>
      </trkpt>
      <trkpt lat="50.58247" lon="3.17329">
        <ele>34.5</ele>
        <time>2020-06-24T08:09:00Z</time>
      </trkpt>
      <trkpt lat="50.58243" lon="3.17338">
        <ele>34.4</ele>
        <time>2020-06-24T08:09:01Z</time>
      </trkpt>
      <trkpt lat="50.58239" lon="3.17348">
        <ele>34.4</ele>
        <time>2020-06-24T08:09:02Z</time>
      </trkpt>
      <trkpt lat="50.58235" lon="3.17356">
        <ele>34.3</ele>
        <time>2020-06-24T08:09:03Z</time>
      </trkpt>
      <trkpt lat="50.58232" lon="3.17365">
        <ele>34.2</ele>
        <time>2020-06-24T08:09:04Z</time>
      </trkpt>
      <trkpt lat="50.58229" lon="3.17373">
        <ele>34.1</ele>
        <time>2020-06-24T08:09:05Z</time>
      </trkpt>
      <trkpt lat="50.58225" lon="3.1738">
        <ele>34</ele>
        <time>2020-06-24T08:09:06Z</time>
      </trkpt>
      <trkpt lat="50.58222" lon="3.17387">
        <ele>33.8</ele>
        <time>2020-06-24T08:09:07Z</time>
      </trkpt>
      <trkpt lat="50.58219" lon="3.17394">
        <ele>33.6</ele>
        <time>2020-06-24T08:09:08Z</time>
      </trkpt>
      <trkpt lat="50.58216" lon="3.17401">
        <ele>33.5</ele>
        <time>2020-06-24T08:09:09Z</time>
      </trkpt>
      <trkpt lat="50.58213" lon="3.17408">
        <ele>33.4</ele>
        <time>2020-06-24T08:09:10Z</time>
      </trkpt>
      <trkpt lat="50.58209" lon="3.17414">
        <ele>33.3</ele>
        <time>2020-06-24T08:09:11Z</time>
      </trkpt>
      <trkpt lat="50.58206" lon="3.17421">
        <ele>33.3</ele>
        <time>2020-06-24T08:09:12Z</time>
      </trkpt>
      <trkpt lat="50.58202" lon="3.17428">
        <ele>33.2</ele>
        <time>2020-06-24T08:09:13Z</time>
      </trkpt>
      <trkpt lat="50.58198" lon="3.17436">
        <ele>33.1</ele>
        <time>2020-06-24T08:09:14Z</time>
      </trkpt>
      <trkpt lat="50.58195" lon="3.17445">
        <ele>33</ele>
        <time>2020-06-24T08:09:15Z</time>
      </trkpt>
      <trkpt lat="50.58191" lon="3.17453">
        <ele>33</ele>
        <time>2020-06-24T08:09:16Z</time>
      </trkpt>
      <trkpt lat="50.58187" lon="3.17462">
        <ele>32.9</ele>
        <time>2020-06-24T08:09:17Z</time>
      </trkpt>
      <trkpt lat="50.58183" lon="3.17471">
        <ele>32.6</ele>
        <time>2020-06-24T08:09:18Z</time>
      </trkpt>
      <trkpt lat="50.58179" lon="3.1748">
        <ele>32.4</ele>
        <time>2020-06-24T08:09:19Z</time>
      </trkpt>
      <trkpt lat="50.58175" lon="3.17489">
        <ele>32.2</ele>
        <time>2020-06-24T08:09:20Z</time>
      </trkpt>
      <trkpt lat="50.5817" lon="3.17498">
        <ele>32</ele>
        <time>2020-06-24T08:09:21Z</time>
      </trkpt>
      <trkpt lat="50.58166" lon="3.17507">
        <ele>31.9</ele>
        <time>2020-06-24T08:09:22Z</time>
      </trkpt>
      <trkpt lat="50.58162" lon="3.17517">
        <ele>31.8</ele>
        <time>2020-06-24T08:09:23Z</time>
      </trkpt>
      <trkpt lat="50.58158" lon="3.17526">
        <ele>31.8</ele>
        <time>2020-06-24T08:09:24Z</time>
      </trkpt>
      <trkpt lat="50.58154" lon="3.17535">
        <ele>31.7</ele>
        <time>2020-06-24T08:09:25Z</time>
      </trkpt>
      <trkpt lat="50.5815" lon="3.17544">
        <ele>31.6</ele>
        <time>2020-06-24T08:09:26Z</time>
      </trkpt>
      <trkpt lat="50.58146" lon="3.17552">
        <ele>31.5</ele>
        <time>2020-06-24T08:09:27Z</time>
      </trkpt>
      <trkpt lat="50.58143" lon="3.1756">
        <ele>31.5</ele>
        <time>2020-06-24T08:09:28Z</time>
      </trkpt>
      <trkpt lat="50.58138" lon="3.17567">
        <ele>31.4</ele>
        <time>2020-06-24T08:09:29Z</time>
      </trkpt>
      <trkpt lat="50.58134" lon="3.17572">
        <ele>31.4</ele>
        <time>2020-06-24T08:09:30Z</time>
      </trkpt>
      <trkpt lat="50.58128" lon="3.17575">
        <ele>31.4</ele>
        <time>2020-06-24T08:09:31Z</time>
      </trkpt>
      <trkpt lat="50.58122" lon="3.17575">
        <ele>31.2</ele>
        <time>2020-06-24T08:09:32Z</time>
      </trkpt>
      <trkpt lat="50.58116" lon="3.17575">
        <ele>31.2</ele>
        <time>2020-06-24T08:09:33Z</time>
      </trkpt>
      <trkpt lat="50.5811" lon="3.17576">
        <ele>31.2</ele>
        <time>2020-06-24T08:09:34Z</time>
      </trkpt>
      <trkpt lat="50.58104" lon="3.17576">
        <ele>31.1</ele>
        <time>2020-06-24T08:09:35Z</time>
      </trkpt>
      <trkpt lat="50.58097" lon="3.17576">
        <ele>30.9</ele>
        <time>2020-06-24T08:09:36Z</time>
      </trkpt>
      <trkpt lat="50.58091" lon="3.17575">
        <ele>30.8</ele>
        <time>2020-06-24T08:09:37Z</time>
      </trkpt>
      <trkpt lat="50.58085" lon="3.17574">
        <ele>30.7</ele>
        <time>2020-06-24T08:09:38Z</time>
      </trkpt>
      <trkpt lat="50.58078" lon="3.17572">
        <ele>30.6</ele>
        <time>2020-06-24T08:09:39Z</time>
      </trkpt>
      <trkpt lat="50.58071" lon="3.17569">
        <ele>30.6</ele>
        <time>2020-06-24T08:09:40Z</time>
      </trkpt>
      <trkpt lat="50.58065" lon="3.17568">
        <ele>30.5</ele>
        <time>2020-06-24T08:09:41Z</time>
      </trkpt>
      <trkpt lat="50.58058" lon="3.17568">
        <ele>30.4</ele>
        <time>2020-06-24T08:09:42Z</time>
      </trkpt>
      <trkpt lat="50.58051" lon="3.17571">
        <ele>30.4</ele>
        <time>2020-06-24T08:09:43Z</time>
      </trkpt>
      <trkpt lat="50.58045" lon="3.17577">
        <ele>30.3</ele>
        <time>2020-06-24T08:09:44Z</time>
      </trkpt>
      <trkpt lat="50.58039" lon="3.17583">
        <ele>30.3</ele>
        <time>2020-06-24T08:09:45Z</time>
      </trkpt>
      <trkpt lat="50.58033" lon="3.17589">
        <ele>30.3</ele>
        <time>2020-06-24T08:09:46Z</time>
      </trkpt>
      <trkpt lat="50.58027" lon="3.17597">
        <ele>30.3</ele>
        <time>2020-06-24T08:09:47Z</time>
      </trkpt>
      <trkpt lat="50.58022" lon="3.17604">
        <ele>30.3</ele>
        <time>2020-06-24T08:09:48Z</time>
      </trkpt>
      <trkpt lat="50.58016" lon="3.17611">
        <ele>30.2</ele>
        <time>2020-06-24T08:09:49Z</time>
      </trkpt>
      <trkpt lat="50.5801" lon="3.17619">
        <ele>30.2</ele>
        <time>2020-06-24T08:09:50Z</time>
      </trkpt>
      <trkpt lat="50.58004" lon="3.17626">
        <ele>30.1</ele>
        <time>2020-06-24T08:09:51Z</time>
      </trkpt>
      <trkpt lat="50.57998" lon="3.17632">
        <ele>30.1</ele>
        <time>2020-06-24T08:09:52Z</time>
      </trkpt>
      <trkpt lat="50.57993" lon="3.17639">
        <ele>30</ele>
        <time>2020-06-24T08:09:53Z</time>
      </trkpt>
      <trkpt lat="50.57987" lon="3.17647">
        <ele>30</ele>
        <time>2020-06-24T08:09:54Z</time>
      </trkpt>
      <trkpt lat="50.57981" lon="3.17653">
        <ele>30</ele>
        <time>2020-06-24T08:09:55Z</time>
      </trkpt>
      <trkpt lat="50.57975" lon="3.1766">
        <ele>30</ele>
        <time>2020-06-24T08:09:56Z</time>
      </trkpt>
      <trkpt lat="50.57969" lon="3.17666">
        <ele>30</ele>
        <time>2020-06-24T08:09:57Z</time>
      </trkpt>
      <trkpt lat="50.57963" lon="3.17672">
        <ele>30</ele>
        <time>2020-06-24T08:09:58Z</time>
      </trkpt>
      <trkpt lat="50.57957" lon="3.17678">
        <ele>30.1</ele>
        <time>2020-06-24T08:09:59Z</time>
      </trkpt>
      <trkpt lat="50.57951" lon="3.17684">
        <ele>30.1</ele>
        <time>2020-06-24T08:10:00Z</time>
      </trkpt>
      <trkpt lat="50.57945" lon="3.1769">
        <ele>30.1</ele>
        <time>2020-06-24T08:10:01Z</time>
      </trkpt>
      <trkpt lat="50.57939" lon="3.17697">
        <ele>30.2</ele>
        <time>2020-06-24T08:10:02Z</time>
      </trkpt>
      <trkpt lat="50.57933" lon="3.17703">
        <ele>30.2</ele>
        <time>2020-06-24T08:10:03Z</time>
      </trkpt>
      <trkpt lat="50.57927" lon="3.1771">
        <ele>30.2</ele>
        <time>2020-06-24T08:10:04Z</time>
      </trkpt>
      <trkpt lat="50.5792" lon="3.17716">
        <ele>30.2</ele>
        <time>2020-06-24T08:10:05Z</time>
      </trkpt>
      <trkpt lat="50.57914" lon="3.17722">
        <ele>30.2</ele>
        <time>2020-06-24T08:10:06Z</time>
      </trkpt>
      <trkpt lat="50.57908" lon="3.17729">
        <ele>30.2</ele>
        <time>2020-06-24T08:10:07Z</time>
      </trkpt>
      <trkpt lat="50.57902" lon="3.17736">
        <ele>30.2</ele>
        <time>2020-06-24T08:10:08Z</time>
      </trkpt>
      <trkpt lat="50.57896" lon="3.17742">
        <ele>30.2</ele>
        <time>2020-06-24T08:10:09Z</time>
      </trkpt>
      <trkpt lat="50.5789" lon="3.17748">
        <ele>30.2</ele>
        <time>2020-06-24T08:10:10Z</time>
      </trkpt>
      <trkpt lat="50.57884" lon="3.17754">
        <ele>30.2</ele>
        <time>2020-06-24T08:10:11Z</time>
      </trkpt>
      <trkpt lat="50.57878" lon="3.17759">
        <ele>30.2</ele>
        <time>2020-06-24T08:10:12Z</time>
      </trkpt>
      <trkpt lat="50.57873" lon="3.17765">
        <ele>30.3</ele>
        <time>2020-06-24T08:10:13Z</time>
      </trkpt>
      <trkpt lat="50.57867" lon="3.1777">
        <ele>30.3</ele>
        <time>2020-06-24T08:10:14Z</time>
      </trkpt>
      <trkpt lat="50.57862" lon="3.17776">
        <ele>30.3</ele>
        <time>2020-06-24T08:10:15Z</time>
      </trkpt>
      <trkpt lat="50.57857" lon="3.17781">
        <ele>30.4</ele>
        <time>2020-06-24T08:10:16Z</time>
      </trkpt>
      <trkpt lat="50.57852" lon="3.17786">
        <ele>30.4</ele>
        <time>2020-06-24T08:10:17Z</time>
      </trkpt>
      <trkpt lat="50.57847" lon="3.17792">
        <ele>30.4</ele>
        <time>2020-06-24T08:10:18Z</time>
      </trkpt>
      <trkpt lat="50.57842" lon="3.17798">
        <ele>30.3</ele>
        <time>2020-06-24T08:10:19Z</time>
      </trkpt>
      <trkpt lat="50.57838" lon="3.17803">
        <ele>30.3</ele>
        <time>2020-06-24T08:10:20Z</time>
      </trkpt>
      <trkpt lat="50.57834" lon="3.17811">
        <ele>30.3</ele>
        <time>2020-06-24T08:10:21Z</time>
      </trkpt>
      <trkpt lat="50.57831" lon="3.17819">
        <ele>30.2</ele>
        <time>2020-06-24T08:10:22Z</time>
      </trkpt>
      <trkpt lat="50.57828" lon="3.17827">
        <ele>30.1</ele>
        <time>2020-06-24T08:10:23Z</time>
      </trkpt>
      <trkpt lat="50.57826" lon="3.17836">
        <ele>29.8</ele>
        <time>2020-06-24T08:10:24Z</time>
      </trkpt>
      <trkpt lat="50.57824" lon="3.17845">
        <ele>29.9</ele>
        <time>2020-06-24T08:10:25Z</time>
      </trkpt>
      <trkpt lat="50.57822" lon="3.17853">
        <ele>30.2</ele>
        <time>2020-06-24T08:10:26Z</time>
      </trkpt>
      <trkpt lat="50.5782" lon="3.17862">
        <ele>30.1</ele>
        <time>2020-06-24T08:10:27Z</time>
      </trkpt>
      <trkpt lat="50.5782" lon="3.17871">
        <ele>29.9</ele>
        <time>2020-06-24T08:10:28Z</time>
      </trkpt>
      <trkpt lat="50.5782" lon="3.17881">
        <ele>29.8</ele>
        <time>2020-06-24T08:10:29Z</time>
      </trkpt>
      <trkpt lat="50.57819" lon="3.17891">
        <ele>29.7</ele>
        <time>2020-06-24T08:10:30Z</time>
      </trkpt>
      <trkpt lat="50.57819" lon="3.179">
        <ele>29.5</ele>
        <time>2020-06-24T08:10:31Z</time>
      </trkpt>
      <trkpt lat="50.57819" lon="3.1791">
        <ele>29.5</ele>
        <time>2020-06-24T08:10:32Z</time>
      </trkpt>
      <trkpt lat="50.5782" lon="3.1792">
        <ele>29.5</ele>
        <time>2020-06-24T08:10:33Z</time>
      </trkpt>
      <trkpt lat="50.5782" lon="3.1793">
        <ele>29.4</ele>
        <time>2020-06-24T08:10:34Z</time>
      </trkpt>
      <trkpt lat="50.57822" lon="3.1794">
        <ele>29.4</ele>
        <time>2020-06-24T08:10:35Z</time>
      </trkpt>
      <trkpt lat="50.57825" lon="3.1795">
        <ele>29.4</ele>
        <time>2020-06-24T08:10:36Z</time>
      </trkpt>
      <trkpt lat="50.57829" lon="3.17959">
        <ele>29.4</ele>
        <time>2020-06-24T08:10:37Z</time>
      </trkpt>
      <trkpt lat="50.57833" lon="3.17968">
        <ele>29.4</ele>
        <time>2020-06-24T08:10:38Z</time>
      </trkpt>
      <trkpt lat="50.57837" lon="3.17976">
        <ele>29.3</ele>
        <time>2020-06-24T08:10:39Z</time>
      </trkpt>
      <trkpt lat="50.5784" lon="3.17984">
        <ele>29.3</ele>
        <time>2020-06-24T08:10:40Z</time>
      </trkpt>
      <trkpt lat="50.57844" lon="3.17993">
        <ele>29.3</ele>
        <time>2020-06-24T08:10:41Z</time>
      </trkpt>
      <trkpt lat="50.57848" lon="3.18001">
        <ele>29.3</ele>
        <time>2020-06-24T08:10:42Z</time>
      </trkpt>
      <trkpt lat="50.57852" lon="3.1801">
        <ele>29.3</ele>
        <time>2020-06-24T08:10:43Z</time>
      </trkpt>
      <trkpt lat="50.57856" lon="3.18018">
        <ele>29.4</ele>
        <time>2020-06-24T08:10:44Z</time>
      </trkpt>
      <trkpt lat="50.5786" lon="3.18027">
        <ele>29.5</ele>
        <time>2020-06-24T08:10:45Z</time>
      </trkpt>
      <trkpt lat="50.57864" lon="3.18035">
        <ele>29.6</ele>
        <time>2020-06-24T08:10:46Z</time>
      </trkpt>
      <trkpt lat="50.57869" lon="3.18043">
        <ele>29.7</ele>
        <time>2020-06-24T08:10:47Z</time>
      </trkpt>
      <trkpt lat="50.57873" lon="3.18051">
        <ele>29.7</ele>
        <time>2020-06-24T08:10:48Z</time>
      </trkpt>
      <trkpt lat="50.57877" lon="3.18059">
        <ele>29.7</ele>
        <time>2020-06-24T08:10:49Z</time>
      </trkpt>
      <trkpt lat="50.57882" lon="3.18067">
        <ele>29.6</ele>
        <time>2020-06-24T08:10:50Z</time>
      </trkpt>
      <trkpt lat="50.57886" lon="3.18075">
        <ele>29.6</ele>
        <time>2020-06-24T08:10:51Z</time>
      </trkpt>
      <trkpt lat="50.5789" lon="3.18083">
        <ele>29.6</ele>
        <time>2020-06-24T08:10:52Z</time>
      </trkpt>
      <trkpt lat="50.57894" lon="3.18092">
        <ele>29.6</ele>
        <time>2020-06-24T08:10:53Z</time>
      </trkpt>
      <trkpt lat="50.57898" lon="3.18101">
        <ele>29.6</ele>
        <time>2020-06-24T08:10:54Z</time>
      </trkpt>
      <trkpt lat="50.57901" lon="3.1811">
        <ele>29.6</ele>
        <time>2020-06-24T08:10:55Z</time>
      </trkpt>
      <trkpt lat="50.57905" lon="3.18119">
        <ele>29.7</ele>
        <time>2020-06-24T08:10:56Z</time>
      </trkpt>
      <trkpt lat="50.57909" lon="3.18128">
        <ele>29.7</ele>
        <time>2020-06-24T08:10:57Z</time>
      </trkpt>
      <trkpt lat="50.57912" lon="3.18137">
        <ele>29.7</ele>
        <time>2020-06-24T08:10:58Z</time>
      </trkpt>
      <trkpt lat="50.57916" lon="3.18146">
        <ele>29.7</ele>
        <time>2020-06-24T08:10:59Z</time>
      </trkpt>
      <trkpt lat="50.57918" lon="3.18155">
        <ele>29.8</ele>
        <time>2020-06-24T08:11:00Z</time>
      </trkpt>
      <trkpt lat="50.57921" lon="3.18164">
        <ele>29.8</ele>
        <time>2020-06-24T08:11:01Z</time>
      </trkpt>
      <trkpt lat="50.57924" lon="3.18173">
        <ele>29.8</ele>
        <time>2020-06-24T08:11:02Z</time>
      </trkpt>
      <trkpt lat="50.57926" lon="3.18181">
        <ele>29.8</ele>
        <time>2020-06-24T08:11:03Z</time>
      </trkpt>
      <trkpt lat="50.57929" lon="3.1819">
        <ele>29.8</ele>
        <time>2020-06-24T08:11:04Z</time>
      </trkpt>
      <trkpt lat="50.57931" lon="3.18198">
        <ele>29.8</ele>
        <time>2020-06-24T08:11:05Z</time>
      </trkpt>
      <trkpt lat="50.57933" lon="3.18206">
        <ele>29.7</ele>
        <time>2020-06-24T08:11:06Z</time>
      </trkpt>
      <trkpt lat="50.57935" lon="3.18215">
        <ele>29.7</ele>
        <time>2020-06-24T08:11:07Z</time>
      </trkpt>
      <trkpt lat="50.57936" lon="3.18223">
        <ele>29.7</ele>
        <time>2020-06-24T08:11:08Z</time>
      </trkpt>
      <trkpt lat="50.57938" lon="3.18231">
        <ele>29.6</ele>
        <time>2020-06-24T08:11:09Z</time>
      </trkpt>
      <trkpt lat="50.57939" lon="3.18239">
        <ele>29.6</ele>
        <time>2020-06-24T08:11:10Z</time>
      </trkpt>
      <trkpt lat="50.5794" lon="3.18248">
        <ele>29.6</ele>
        <time>2020-06-24T08:11:11Z</time>
      </trkpt>
      <trkpt lat="50.57942" lon="3.18256">
        <ele>29.6</ele>
        <time>2020-06-24T08:11:12Z</time>
      </trkpt>
      <trkpt lat="50.57944" lon="3.18264">
        <ele>29.5</ele>
        <time>2020-06-24T08:11:13Z</time>
      </trkpt>
      <trkpt lat="50.57947" lon="3.18272">
        <ele>29.6</ele>
        <time>2020-06-24T08:11:14Z</time>
      </trkpt>
      <trkpt lat="50.57949" lon="3.18281">
        <ele>29.6</ele>
        <time>2020-06-24T08:11:15Z</time>
      </trkpt>
      <trkpt lat="50.57951" lon="3.18289">
        <ele>29.6</ele>
        <time>2020-06-24T08:11:16Z</time>
      </trkpt>
      <trkpt lat="50.57951" lon="3.18298">
        <ele>29.7</ele>
        <time>2020-06-24T08:11:17Z</time>
      </trkpt>
      <trkpt lat="50.57951" lon="3.18305">
        <ele>29.7</ele>
        <time>2020-06-24T08:11:18Z</time>
      </trkpt>
      <trkpt lat="50.57948" lon="3.18311">
        <ele>29.7</ele>
        <time>2020-06-24T08:11:19Z</time>
      </trkpt>
      <trkpt lat="50.57943" lon="3.18317">
        <ele>29.7</ele>
        <time>2020-06-24T08:11:20Z</time>
      </trkpt>
      <trkpt lat="50.57938" lon="3.18322">
        <ele>29.7</ele>
        <time>2020-06-24T08:11:21Z</time>
      </trkpt>
      <trkpt lat="50.57934" lon="3.18329">
        <ele>29.7</ele>
        <time>2020-06-24T08:11:22Z</time>
      </trkpt>
      <trkpt lat="50.57929" lon="3.18335">
        <ele>29.7</ele>
        <time>2020-06-24T08:11:23Z</time>
      </trkpt>
      <trkpt lat="50.57925" lon="3.18342">
        <ele>29.7</ele>
        <time>2020-06-24T08:11:24Z</time>
      </trkpt>
      <trkpt lat="50.5792" lon="3.18347">
        <ele>29.8</ele>
        <time>2020-06-24T08:11:25Z</time>
      </trkpt>
      <trkpt lat="50.57915" lon="3.18352">
        <ele>29.9</ele>
        <time>2020-06-24T08:11:26Z</time>
      </trkpt>
      <trkpt lat="50.57911" lon="3.18358">
        <ele>29.9</ele>
        <time>2020-06-24T08:11:27Z</time>
      </trkpt>
      <trkpt lat="50.57907" lon="3.18363">
        <ele>30</ele>
        <time>2020-06-24T08:11:28Z</time>
      </trkpt>
      <trkpt lat="50.57903" lon="3.18371">
        <ele>30.1</ele>
        <time>2020-06-24T08:11:29Z</time>
      </trkpt>
      <trkpt lat="50.579" lon="3.1838">
        <ele>30.2</ele>
        <time>2020-06-24T08:11:30Z</time>
      </trkpt>
      <trkpt lat="50.57898" lon="3.18389">
        <ele>30.3</ele>
        <time>2020-06-24T08:11:31Z</time>
      </trkpt>
      <trkpt lat="50.57895" lon="3.18398">
        <ele>30.4</ele>
        <time>2020-06-24T08:11:32Z</time>
      </trkpt>
      <trkpt lat="50.57893" lon="3.18407">
        <ele>30.6</ele>
        <time>2020-06-24T08:11:33Z</time>
      </trkpt>
      <trkpt lat="50.57892" lon="3.18416">
        <ele>30.7</ele>
        <time>2020-06-24T08:11:34Z</time>
      </trkpt>
      <trkpt lat="50.57891" lon="3.18425">
        <ele>30.8</ele>
        <time>2020-06-24T08:11:35Z</time>
      </trkpt>
      <trkpt lat="50.57891" lon="3.18434">
        <ele>30.9</ele>
        <time>2020-06-24T08:11:36Z</time>
      </trkpt>
      <trkpt lat="50.57889" lon="3.18443">
        <ele>31</ele>
        <time>2020-06-24T08:11:37Z</time>
      </trkpt>
      <trkpt lat="50.57888" lon="3.18451">
        <ele>31.1</ele>
        <time>2020-06-24T08:11:38Z</time>
      </trkpt>
      <trkpt lat="50.57888" lon="3.1846">
        <ele>31.3</ele>
        <time>2020-06-24T08:11:39Z</time>
      </trkpt>
      <trkpt lat="50.57887" lon="3.18468">
        <ele>31.5</ele>
        <time>2020-06-24T08:11:40Z</time>
      </trkpt>
      <trkpt lat="50.57887" lon="3.18476">
        <ele>31.7</ele>
        <time>2020-06-24T08:11:41Z</time>
      </trkpt>
      <trkpt lat="50.57886" lon="3.18485">
        <ele>31.8</ele>
        <time>2020-06-24T08:11:42Z</time>
      </trkpt>
      <trkpt lat="50.57885" lon="3.18493">
        <ele>32</ele>
        <time>2020-06-24T08:11:43Z</time>
      </trkpt>
      <trkpt lat="50.57885" lon="3.18501">
        <ele>32.1</ele>
        <time>2020-06-24T08:11:44Z</time>
      </trkpt>
      <trkpt lat="50.57883" lon="3.18509">
        <ele>32.3</ele>
        <time>2020-06-24T08:11:45Z</time>
      </trkpt>
      <trkpt lat="50.57882" lon="3.18517">
        <ele>32.5</ele>
        <time>2020-06-24T08:11:46Z</time>
      </trkpt>
      <trkpt lat="50.57881" lon="3.18525">
        <ele>32.7</ele>
        <time>2020-06-24T08:11:47Z</time>
      </trkpt>
      <trkpt lat="50.5788" lon="3.18533">
        <ele>32.9</ele>
        <time>2020-06-24T08:11:48Z</time>
      </trkpt>
      <trkpt lat="50.57879" lon="3.18541">
        <ele>33.1</ele>
        <time>2020-06-24T08:11:49Z</time>
      </trkpt>
      <trkpt lat="50.57878" lon="3.18549">
        <ele>33.3</ele>
        <time>2020-06-24T08:11:50Z</time>
      </trkpt>
      <trkpt lat="50.57877" lon="3.18557">
        <ele>33.5</ele>
        <time>2020-06-24T08:11:51Z</time>
      </trkpt>
      <trkpt lat="50.57876" lon="3.18565">
        <ele>33.7</ele>
        <time>2020-06-24T08:11:52Z</time>
      </trkpt>
      <trkpt lat="50.57875" lon="3.18572">
        <ele>33.9</ele>
        <time>2020-06-24T08:11:53Z</time>
      </trkpt>
      <trkpt lat="50.57875" lon="3.18579">
        <ele>34.1</ele>
        <time>2020-06-24T08:11:54Z</time>
      </trkpt>
      <trkpt lat="50.57874" lon="3.18587">
        <ele>34.3</ele>
        <time>2020-06-24T08:11:55Z</time>
      </trkpt>
      <trkpt lat="50.57874" lon="3.18594">
        <ele>34.5</ele>
        <time>2020-06-24T08:11:56Z</time>
      </trkpt>
      <trkpt lat="50.57873" lon="3.18601">
        <ele>34.7</ele>
        <time>2020-06-24T08:11:57Z</time>
      </trkpt>
      <trkpt lat="50.57873" lon="3.1861">
        <ele>34.9</ele>
        <time>2020-06-24T08:11:58Z</time>
      </trkpt>
      <trkpt lat="50.57872" lon="3.18616">
        <ele>35</ele>
        <time>2020-06-24T08:11:59Z</time>
      </trkpt>
      <trkpt lat="50.5787" lon="3.18624">
        <ele>35.2</ele>
        <time>2020-06-24T08:12:00Z</time>
      </trkpt>
      <trkpt lat="50.57869" lon="3.1863">
        <ele>35.3</ele>
        <time>2020-06-24T08:12:01Z</time>
      </trkpt>
      <trkpt lat="50.57868" lon="3.18639">
        <ele>35.5</ele>
        <time>2020-06-24T08:12:02Z</time>
      </trkpt>
      <trkpt lat="50.57867" lon="3.18647">
        <ele>35.7</ele>
        <time>2020-06-24T08:12:03Z</time>
      </trkpt>
      <trkpt lat="50.57866" lon="3.18654">
        <ele>35.8</ele>
        <time>2020-06-24T08:12:04Z</time>
      </trkpt>
      <trkpt lat="50.57865" lon="3.1866">
        <ele>35.9</ele>
        <time>2020-06-24T08:12:05Z</time>
      </trkpt>
      <trkpt lat="50.57864" lon="3.18666">
        <ele>36</ele>
        <time>2020-06-24T08:12:06Z</time>
      </trkpt>
      <trkpt lat="50.57863" lon="3.18673">
        <ele>36.2</ele>
        <time>2020-06-24T08:12:07Z</time>
      </trkpt>
      <trkpt lat="50.57863" lon="3.1868">
        <ele>36.3</ele>
        <time>2020-06-24T08:12:08Z</time>
      </trkpt>
      <trkpt lat="50.57861" lon="3.18687">
        <ele>36.5</ele>
        <time>2020-06-24T08:12:09Z</time>
      </trkpt>
      <trkpt lat="50.5786" lon="3.18693">
        <ele>36.6</ele>
        <time>2020-06-24T08:12:10Z</time>
      </trkpt>
      <trkpt lat="50.57859" lon="3.18698">
        <ele>36.8</ele>
        <time>2020-06-24T08:12:11Z</time>
      </trkpt>
      <trkpt lat="50.57858" lon="3.18703">
        <ele>36.9</ele>
        <time>2020-06-24T08:12:12Z</time>
      </trkpt>
      <trkpt lat="50.57857" lon="3.18705">
        <ele>37</ele>
        <time>2020-06-24T08:12:13Z</time>
      </trkpt>
      <trkpt lat="50.57857" lon="3.18708">
        <ele>37</ele>
        <time>2020-06-24T08:12:14Z</time>
      </trkpt>
      <trkpt lat="50.57856" lon="3.18709">
        <ele>37.1</ele>
        <time>2020-06-24T08:12:15Z</time>
      </trkpt>
      <trkpt lat="50.57856" lon="3.1871">
        <ele>37.1</ele>
        <time>2020-06-24T08:12:16Z</time>
      </trkpt>
      <trkpt lat="50.57855" lon="3.18712">
        <ele>37.2</ele>
        <time>2020-06-24T08:12:17Z</time>
      </trkpt>
      <trkpt lat="50.57854" lon="3.18712">
        <ele>37.2</ele>
        <time>2020-06-24T08:12:18Z</time>
      </trkpt>
      <trkpt lat="50.57854" lon="3.18714">
        <ele>37.2</ele>
        <time>2020-06-24T08:12:19Z</time>
      </trkpt>
      <trkpt lat="50.57853" lon="3.18717">
        <ele>37.3</ele>
        <time>2020-06-24T08:12:20Z</time>
      </trkpt>
      <trkpt lat="50.57852" lon="3.18721">
        <ele>37.4</ele>
        <time>2020-06-24T08:12:21Z</time>
      </trkpt>
      <trkpt lat="50.57852" lon="3.18728">
        <ele>37.6</ele>
        <time>2020-06-24T08:12:22Z</time>
      </trkpt>
      <trkpt lat="50.57852" lon="3.18732">
        <ele>37.7</ele>
        <time>2020-06-24T08:12:23Z</time>
      </trkpt>
      <trkpt lat="50.57851" lon="3.18737">
        <ele>37.8</ele>
        <time>2020-06-24T08:12:24Z</time>
      </trkpt>
      <trkpt lat="50.5785" lon="3.18743">
        <ele>37.9</ele>
        <time>2020-06-24T08:12:25Z</time>
      </trkpt>
      <trkpt lat="50.57849" lon="3.18747">
        <ele>38</ele>
        <time>2020-06-24T08:12:26Z</time>
      </trkpt>
      <trkpt lat="50.57848" lon="3.18754">
        <ele>38.1</ele>
        <time>2020-06-24T08:12:27Z</time>
      </trkpt>
      <trkpt lat="50.57847" lon="3.18761">
        <ele>38.2</ele>
        <time>2020-06-24T08:12:28Z</time>
      </trkpt>
      <trkpt lat="50.57846" lon="3.18769">
        <ele>38.2</ele>
        <time>2020-06-24T08:12:29Z</time>
      </trkpt>
      <trkpt lat="50.57844" lon="3.18779">
        <ele>38.3</ele>
        <time>2020-06-24T08:12:30Z</time>
      </trkpt>
      <trkpt lat="50.57843" lon="3.18788">
        <ele>38.5</ele>
        <time>2020-06-24T08:12:31Z</time>
      </trkpt>
      <trkpt lat="50.57842" lon="3.18795">
        <ele>38.7</ele>
        <time>2020-06-24T08:12:32Z</time>
      </trkpt>
      <trkpt lat="50.57841" lon="3.18802">
        <ele>38.8</ele>
        <time>2020-06-24T08:12:33Z</time>
      </trkpt>
      <trkpt lat="50.5784" lon="3.18811">
        <ele>39</ele>
        <time>2020-06-24T08:12:34Z</time>
      </trkpt>
      <trkpt lat="50.57839" lon="3.18818">
        <ele>39.2</ele>
        <time>2020-06-24T08:12:35Z</time>
      </trkpt>
      <trkpt lat="50.57838" lon="3.18826">
        <ele>39.3</ele>
        <time>2020-06-24T08:12:36Z</time>
      </trkpt>
      <trkpt lat="50.57837" lon="3.18833">
        <ele>39.4</ele>
        <time>2020-06-24T08:12:37Z</time>
      </trkpt>
      <trkpt lat="50.57834" lon="3.18841">
        <ele>39.5</ele>
        <time>2020-06-24T08:12:38Z</time>
      </trkpt>
      <trkpt lat="50.57833" lon="3.18847">
        <ele>39.6</ele>
        <time>2020-06-24T08:12:39Z</time>
      </trkpt>
      <trkpt lat="50.57831" lon="3.18856">
        <ele>39.8</ele>
        <time>2020-06-24T08:12:40Z</time>
      </trkpt>
      <trkpt lat="50.5783" lon="3.18862">
        <ele>39.9</ele>
        <time>2020-06-24T08:12:41Z</time>
      </trkpt>
      <trkpt lat="50.57827" lon="3.18868">
        <ele>40.1</ele>
        <time>2020-06-24T08:12:42Z</time>
      </trkpt>
      <trkpt lat="50.57824" lon="3.18875">
        <ele>40.2</ele>
        <time>2020-06-24T08:12:43Z</time>
      </trkpt>
      <trkpt lat="50.5782" lon="3.18881">
        <ele>40.4</ele>
        <time>2020-06-24T08:12:44Z</time>
      </trkpt>
      <trkpt lat="50.57816" lon="3.18887">
        <ele>40.5</ele>
        <time>2020-06-24T08:12:45Z</time>
      </trkpt>
      <trkpt lat="50.57813" lon="3.18893">
        <ele>40.6</ele>
        <time>2020-06-24T08:12:46Z</time>
      </trkpt>
      <trkpt lat="50.5781" lon="3.18898">
        <ele>40.6</ele>
        <time>2020-06-24T08:12:47Z</time>
      </trkpt>
      <trkpt lat="50.57807" lon="3.18904">
        <ele>40.7</ele>
        <time>2020-06-24T08:12:48Z</time>
      </trkpt>
      <trkpt lat="50.57803" lon="3.1891">
        <ele>40.7</ele>
        <time>2020-06-24T08:12:49Z</time>
      </trkpt>
      <trkpt lat="50.57799" lon="3.18916">
        <ele>40.8</ele>
        <time>2020-06-24T08:12:50Z</time>
      </trkpt>
      <trkpt lat="50.57795" lon="3.18922">
        <ele>40.8</ele>
        <time>2020-06-24T08:12:51Z</time>
      </trkpt>
      <trkpt lat="50.57792" lon="3.18927">
        <ele>40.8</ele>
        <time>2020-06-24T08:12:52Z</time>
      </trkpt>
      <trkpt lat="50.57789" lon="3.18932">
        <ele>40.8</ele>
        <time>2020-06-24T08:12:53Z</time>
      </trkpt>
      <trkpt lat="50.57785" lon="3.18937">
        <ele>40.9</ele>
        <time>2020-06-24T08:12:54Z</time>
      </trkpt>
      <trkpt lat="50.57782" lon="3.18943">
        <ele>40.9</ele>
        <time>2020-06-24T08:12:55Z</time>
      </trkpt>
      <trkpt lat="50.57779" lon="3.1895">
        <ele>41</ele>
        <time>2020-06-24T08:12:56Z</time>
      </trkpt>
      <trkpt lat="50.57775" lon="3.18954">
        <ele>41</ele>
        <time>2020-06-24T08:12:57Z</time>
      </trkpt>
      <trkpt lat="50.57772" lon="3.1896">
        <ele>41</ele>
        <time>2020-06-24T08:12:58Z</time>
      </trkpt>
      <trkpt lat="50.57771" lon="3.18968">
        <ele>41.1</ele>
        <time>2020-06-24T08:12:59Z</time>
      </trkpt>
      <trkpt lat="50.57768" lon="3.18977">
        <ele>41.2</ele>
        <time>2020-06-24T08:13:00Z</time>
      </trkpt>
      <trkpt lat="50.57765" lon="3.18985">
        <ele>41.2</ele>
        <time>2020-06-24T08:13:01Z</time>
      </trkpt>
      <trkpt lat="50.57763" lon="3.18993">
        <ele>41.3</ele>
        <time>2020-06-24T08:13:02Z</time>
      </trkpt>
      <trkpt lat="50.57761" lon="3.19002">
        <ele>41.4</ele>
        <time>2020-06-24T08:13:03Z</time>
      </trkpt>
      <trkpt lat="50.57759" lon="3.19009">
        <ele>41.5</ele>
        <time>2020-06-24T08:13:04Z</time>
      </trkpt>
      <trkpt lat="50.57758" lon="3.19016">
        <ele>41.6</ele>
        <time>2020-06-24T08:13:05Z</time>
      </trkpt>
      <trkpt lat="50.57758" lon="3.19025">
        <ele>41.6</ele>
        <time>2020-06-24T08:13:06Z</time>
      </trkpt>
      <trkpt lat="50.57757" lon="3.19035">
        <ele>41.7</ele>
        <time>2020-06-24T08:13:07Z</time>
      </trkpt>
      <trkpt lat="50.57756" lon="3.19044">
        <ele>41.8</ele>
        <time>2020-06-24T08:13:08Z</time>
      </trkpt>
      <trkpt lat="50.57754" lon="3.19054">
        <ele>41.9</ele>
        <time>2020-06-24T08:13:09Z</time>
      </trkpt>
      <trkpt lat="50.57754" lon="3.19061">
        <ele>41.9</ele>
        <time>2020-06-24T08:13:10Z</time>
      </trkpt>
      <trkpt lat="50.57753" lon="3.19068">
        <ele>42</ele>
        <time>2020-06-24T08:13:11Z</time>
      </trkpt>
      <trkpt lat="50.57753" lon="3.19076">
        <ele>42</ele>
        <time>2020-06-24T08:13:12Z</time>
      </trkpt>
      <trkpt lat="50.57752" lon="3.19084">
        <ele>42.1</ele>
        <time>2020-06-24T08:13:13Z</time>
      </trkpt>
      <trkpt lat="50.5775" lon="3.19093">
        <ele>42.1</ele>
        <time>2020-06-24T08:13:14Z</time>
      </trkpt>
      <trkpt lat="50.57749" lon="3.191">
        <ele>42.2</ele>
        <time>2020-06-24T08:13:15Z</time>
      </trkpt>
      <trkpt lat="50.57748" lon="3.19109">
        <ele>42.3</ele>
        <time>2020-06-24T08:13:16Z</time>
      </trkpt>
      <trkpt lat="50.57748" lon="3.19118">
        <ele>42.3</ele>
        <time>2020-06-24T08:13:17Z</time>
      </trkpt>
      <trkpt lat="50.57745" lon="3.19126">
        <ele>42.4</ele>
        <time>2020-06-24T08:13:18Z</time>
      </trkpt>
      <trkpt lat="50.57744" lon="3.19136">
        <ele>42.5</ele>
        <time>2020-06-24T08:13:19Z</time>
      </trkpt>
      <trkpt lat="50.57743" lon="3.19144">
        <ele>42.6</ele>
        <time>2020-06-24T08:13:20Z</time>
      </trkpt>
      <trkpt lat="50.57742" lon="3.19152">
        <ele>42.7</ele>
        <time>2020-06-24T08:13:21Z</time>
      </trkpt>
      <trkpt lat="50.5774" lon="3.1916">
        <ele>42.8</ele>
        <time>2020-06-24T08:13:22Z</time>
      </trkpt>
      <trkpt lat="50.57738" lon="3.19171">
        <ele>42.9</ele>
        <time>2020-06-24T08:13:23Z</time>
      </trkpt>
      <trkpt lat="50.57738" lon="3.19181">
        <ele>43</ele>
        <time>2020-06-24T08:13:24Z</time>
      </trkpt>
      <trkpt lat="50.57736" lon="3.19191">
        <ele>43.2</ele>
        <time>2020-06-24T08:13:25Z</time>
      </trkpt>
      <trkpt lat="50.57736" lon="3.19201">
        <ele>43.3</ele>
        <time>2020-06-24T08:13:26Z</time>
      </trkpt>
      <trkpt lat="50.57734" lon="3.1921">
        <ele>43.4</ele>
        <time>2020-06-24T08:13:27Z</time>
      </trkpt>
      <trkpt lat="50.57733" lon="3.19219">
        <ele>43.4</ele>
        <time>2020-06-24T08:13:28Z</time>
      </trkpt>
      <trkpt lat="50.57731" lon="3.19228">
        <ele>43.5</ele>
        <time>2020-06-24T08:13:29Z</time>
      </trkpt>
      <trkpt lat="50.57729" lon="3.19238">
        <ele>43.6</ele>
        <time>2020-06-24T08:13:30Z</time>
      </trkpt>
      <trkpt lat="50.57728" lon="3.19247">
        <ele>43.7</ele>
        <time>2020-06-24T08:13:31Z</time>
      </trkpt>
      <trkpt lat="50.57725" lon="3.19256">
        <ele>43.8</ele>
        <time>2020-06-24T08:13:32Z</time>
      </trkpt>
      <trkpt lat="50.57723" lon="3.19266">
        <ele>43.9</ele>
        <time>2020-06-24T08:13:33Z</time>
      </trkpt>
      <trkpt lat="50.57719" lon="3.19275">
        <ele>44</ele>
        <time>2020-06-24T08:13:34Z</time>
      </trkpt>
      <trkpt lat="50.57717" lon="3.19284">
        <ele>44.2</ele>
        <time>2020-06-24T08:13:35Z</time>
      </trkpt>
      <trkpt lat="50.57715" lon="3.19292">
        <ele>44.3</ele>
        <time>2020-06-24T08:13:36Z</time>
      </trkpt>
      <trkpt lat="50.57712" lon="3.193">
        <ele>44.4</ele>
        <time>2020-06-24T08:13:37Z</time>
      </trkpt>
      <trkpt lat="50.57709" lon="3.19308">
        <ele>44.4</ele>
        <time>2020-06-24T08:13:38Z</time>
      </trkpt>
      <trkpt lat="50.57707" lon="3.19317">
        <ele>44.5</ele>
        <time>2020-06-24T08:13:39Z</time>
      </trkpt>
      <trkpt lat="50.57704" lon="3.19324">
        <ele>44.6</ele>
        <time>2020-06-24T08:13:40Z</time>
      </trkpt>
      <trkpt lat="50.57702" lon="3.19331">
        <ele>44.7</ele>
        <time>2020-06-24T08:13:41Z</time>
      </trkpt>
      <trkpt lat="50.577" lon="3.19339">
        <ele>44.8</ele>
        <time>2020-06-24T08:13:42Z</time>
      </trkpt>
      <trkpt lat="50.57698" lon="3.19347">
        <ele>44.9</ele>
        <time>2020-06-24T08:13:43Z</time>
      </trkpt>
      <trkpt lat="50.57695" lon="3.19354">
        <ele>44.9</ele>
        <time>2020-06-24T08:13:44Z</time>
      </trkpt>
      <trkpt lat="50.57692" lon="3.1936">
        <ele>44.9</ele>
        <time>2020-06-24T08:13:45Z</time>
      </trkpt>
      <trkpt lat="50.5769" lon="3.19365">
        <ele>44.9</ele>
        <time>2020-06-24T08:13:46Z</time>
      </trkpt>
      <trkpt lat="50.57687" lon="3.19371">
        <ele>44.9</ele>
        <time>2020-06-24T08:13:47Z</time>
      </trkpt>
      <trkpt lat="50.57684" lon="3.19376">
        <ele>45</ele>
        <time>2020-06-24T08:13:48Z</time>
      </trkpt>
      <trkpt lat="50.57681" lon="3.19377">
        <ele>45.1</ele>
        <time>2020-06-24T08:13:49Z</time>
      </trkpt>
      <trkpt lat="50.57677" lon="3.19376">
        <ele>45.1</ele>
        <time>2020-06-24T08:13:50Z</time>
      </trkpt>
      <trkpt lat="50.57671" lon="3.19377">
        <ele>45.2</ele>
        <time>2020-06-24T08:13:51Z</time>
      </trkpt>
      <trkpt lat="50.57668" lon="3.19378">
        <ele>45.2</ele>
        <time>2020-06-24T08:13:52Z</time>
      </trkpt>
      <trkpt lat="50.57664" lon="3.19382">
        <ele>45.2</ele>
        <time>2020-06-24T08:13:53Z</time>
      </trkpt>
      <trkpt lat="50.57661" lon="3.19389">
        <ele>45.3</ele>
        <time>2020-06-24T08:13:54Z</time>
      </trkpt>
      <trkpt lat="50.57659" lon="3.19395">
        <ele>45.3</ele>
        <time>2020-06-24T08:13:55Z</time>
      </trkpt>
      <trkpt lat="50.57658" lon="3.19401">
        <ele>45.2</ele>
        <time>2020-06-24T08:13:56Z</time>
      </trkpt>
      <trkpt lat="50.57657" lon="3.19407">
        <ele>45.2</ele>
        <time>2020-06-24T08:13:57Z</time>
      </trkpt>
      <trkpt lat="50.57658" lon="3.19414">
        <ele>45.2</ele>
        <time>2020-06-24T08:13:58Z</time>
      </trkpt>
      <trkpt lat="50.5766" lon="3.1942">
        <ele>45.1</ele>
        <time>2020-06-24T08:13:59Z</time>
      </trkpt>
      <trkpt lat="50.57663" lon="3.19426">
        <ele>45.1</ele>
        <time>2020-06-24T08:14:00Z</time>
      </trkpt>
      <trkpt lat="50.57666" lon="3.19432">
        <ele>45.1</ele>
        <time>2020-06-24T08:14:01Z</time>
      </trkpt>
      <trkpt lat="50.57669" lon="3.19439">
        <ele>45.1</ele>
        <time>2020-06-24T08:14:02Z</time>
      </trkpt>
      <trkpt lat="50.57672" lon="3.19445">
        <ele>45.1</ele>
        <time>2020-06-24T08:14:03Z</time>
      </trkpt>
      <trkpt lat="50.57674" lon="3.19453">
        <ele>45.2</ele>
        <time>2020-06-24T08:14:04Z</time>
      </trkpt>
      <trkpt lat="50.57675" lon="3.19461">
        <ele>45.2</ele>
        <time>2020-06-24T08:14:05Z</time>
      </trkpt>
      <trkpt lat="50.57674" lon="3.1947">
        <ele>45.2</ele>
        <time>2020-06-24T08:14:06Z</time>
      </trkpt>
      <trkpt lat="50.57673" lon="3.19479">
        <ele>45.3</ele>
        <time>2020-06-24T08:14:07Z</time>
      </trkpt>
      <trkpt lat="50.57671" lon="3.19488">
        <ele>45.3</ele>
        <time>2020-06-24T08:14:08Z</time>
      </trkpt>
      <trkpt lat="50.5767" lon="3.19497">
        <ele>45.4</ele>
        <time>2020-06-24T08:14:09Z</time>
      </trkpt>
      <trkpt lat="50.57667" lon="3.19505">
        <ele>45.4</ele>
        <time>2020-06-24T08:14:10Z</time>
      </trkpt>
      <trkpt lat="50.57666" lon="3.19515">
        <ele>45.5</ele>
        <time>2020-06-24T08:14:11Z</time>
      </trkpt>
      <trkpt lat="50.57664" lon="3.19523">
        <ele>45.5</ele>
        <time>2020-06-24T08:14:12Z</time>
      </trkpt>
      <trkpt lat="50.57662" lon="3.19531">
        <ele>45.5</ele>
        <time>2020-06-24T08:14:13Z</time>
      </trkpt>
      <trkpt lat="50.57659" lon="3.19539">
        <ele>45.6</ele>
        <time>2020-06-24T08:14:14Z</time>
      </trkpt>
      <trkpt lat="50.57656" lon="3.19547">
        <ele>45.6</ele>
        <time>2020-06-24T08:14:15Z</time>
      </trkpt>
      <trkpt lat="50.57654" lon="3.19556">
        <ele>45.6</ele>
        <time>2020-06-24T08:14:16Z</time>
      </trkpt>
      <trkpt lat="50.57651" lon="3.19565">
        <ele>45.7</ele>
        <time>2020-06-24T08:14:17Z</time>
      </trkpt>
      <trkpt lat="50.57649" lon="3.19574">
        <ele>45.7</ele>
        <time>2020-06-24T08:14:18Z</time>
      </trkpt>
      <trkpt lat="50.57646" lon="3.19582">
        <ele>45.7</ele>
        <time>2020-06-24T08:14:19Z</time>
      </trkpt>
      <trkpt lat="50.57644" lon="3.1959">
        <ele>45.7</ele>
        <time>2020-06-24T08:14:20Z</time>
      </trkpt>
      <trkpt lat="50.57641" lon="3.19598">
        <ele>45.7</ele>
        <time>2020-06-24T08:14:21Z</time>
      </trkpt>
      <trkpt lat="50.57638" lon="3.19607">
        <ele>45.8</ele>
        <time>2020-06-24T08:14:22Z</time>
      </trkpt>
      <trkpt lat="50.57635" lon="3.19616">
        <ele>45.8</ele>
        <time>2020-06-24T08:14:23Z</time>
      </trkpt>
      <trkpt lat="50.57632" lon="3.19625">
        <ele>45.8</ele>
        <time>2020-06-24T08:14:24Z</time>
      </trkpt>
      <trkpt lat="50.5763" lon="3.19633">
        <ele>45.9</ele>
        <time>2020-06-24T08:14:25Z</time>
      </trkpt>
      <trkpt lat="50.57627" lon="3.19641">
        <ele>45.9</ele>
        <time>2020-06-24T08:14:26Z</time>
      </trkpt>
      <trkpt lat="50.57625" lon="3.1965">
        <ele>46</ele>
        <time>2020-06-24T08:14:27Z</time>
      </trkpt>
      <trkpt lat="50.57622" lon="3.19658">
        <ele>46</ele>
        <time>2020-06-24T08:14:28Z</time>
      </trkpt>
      <trkpt lat="50.5762" lon="3.19667">
        <ele>46</ele>
        <time>2020-06-24T08:14:29Z</time>
      </trkpt>
      <trkpt lat="50.57618" lon="3.19676">
        <ele>46</ele>
        <time>2020-06-24T08:14:30Z</time>
      </trkpt>
      <trkpt lat="50.57615" lon="3.19686">
        <ele>46</ele>
        <time>2020-06-24T08:14:31Z</time>
      </trkpt>
      <trkpt lat="50.57613" lon="3.19694">
        <ele>45.9</ele>
        <time>2020-06-24T08:14:32Z</time>
      </trkpt>
      <trkpt lat="50.57611" lon="3.19703">
        <ele>45.9</ele>
        <time>2020-06-24T08:14:33Z</time>
      </trkpt>
      <trkpt lat="50.57609" lon="3.19712">
        <ele>45.9</ele>
        <time>2020-06-24T08:14:34Z</time>
      </trkpt>
      <trkpt lat="50.57607" lon="3.1972">
        <ele>45.8</ele>
        <time>2020-06-24T08:14:35Z</time>
      </trkpt>
      <trkpt lat="50.57605" lon="3.19726">
        <ele>45.8</ele>
        <time>2020-06-24T08:14:36Z</time>
      </trkpt>
      <trkpt lat="50.57603" lon="3.19733">
        <ele>45.8</ele>
        <time>2020-06-24T08:14:37Z</time>
      </trkpt>
      <trkpt lat="50.57601" lon="3.19741">
        <ele>45.7</ele>
        <time>2020-06-24T08:14:38Z</time>
      </trkpt>
      <trkpt lat="50.57597" lon="3.19749">
        <ele>45.7</ele>
        <time>2020-06-24T08:14:39Z</time>
      </trkpt>
      <trkpt lat="50.57594" lon="3.19756">
        <ele>45.7</ele>
        <time>2020-06-24T08:14:40Z</time>
      </trkpt>
      <trkpt lat="50.57591" lon="3.19765">
        <ele>45.6</ele>
        <time>2020-06-24T08:14:41Z</time>
      </trkpt>
      <trkpt lat="50.57589" lon="3.19774">
        <ele>45.6</ele>
        <time>2020-06-24T08:14:42Z</time>
      </trkpt>
      <trkpt lat="50.57586" lon="3.1978">
        <ele>45.6</ele>
        <time>2020-06-24T08:14:43Z</time>
      </trkpt>
      <trkpt lat="50.57583" lon="3.19788">
        <ele>45.5</ele>
        <time>2020-06-24T08:14:44Z</time>
      </trkpt>
      <trkpt lat="50.57579" lon="3.19799">
        <ele>45.5</ele>
        <time>2020-06-24T08:14:45Z</time>
      </trkpt>
      <trkpt lat="50.57576" lon="3.19807">
        <ele>45.4</ele>
        <time>2020-06-24T08:14:46Z</time>
      </trkpt>
      <trkpt lat="50.57573" lon="3.19817">
        <ele>45.3</ele>
        <time>2020-06-24T08:14:47Z</time>
      </trkpt>
      <trkpt lat="50.57569" lon="3.19825">
        <ele>45.2</ele>
        <time>2020-06-24T08:14:48Z</time>
      </trkpt>
      <trkpt lat="50.57566" lon="3.19834">
        <ele>45.1</ele>
        <time>2020-06-24T08:14:49Z</time>
      </trkpt>
      <trkpt lat="50.57563" lon="3.19842">
        <ele>45</ele>
        <time>2020-06-24T08:14:50Z</time>
      </trkpt>
      <trkpt lat="50.57559" lon="3.19851">
        <ele>44.9</ele>
        <time>2020-06-24T08:14:51Z</time>
      </trkpt>
      <trkpt lat="50.57556" lon="3.19859">
        <ele>44.8</ele>
        <time>2020-06-24T08:14:52Z</time>
      </trkpt>
      <trkpt lat="50.57553" lon="3.19866">
        <ele>44.7</ele>
        <time>2020-06-24T08:14:53Z</time>
      </trkpt>
      <trkpt lat="50.57549" lon="3.19874">
        <ele>44.6</ele>
        <time>2020-06-24T08:14:54Z</time>
      </trkpt>
      <trkpt lat="50.57545" lon="3.19882">
        <ele>44.5</ele>
        <time>2020-06-24T08:14:55Z</time>
      </trkpt>
      <trkpt lat="50.5754" lon="3.1989">
        <ele>44.3</ele>
        <time>2020-06-24T08:14:56Z</time>
      </trkpt>
      <trkpt lat="50.57535" lon="3.19898">
        <ele>44.2</ele>
        <time>2020-06-24T08:14:57Z</time>
      </trkpt>
      <trkpt lat="50.5753" lon="3.19906">
        <ele>44.1</ele>
        <time>2020-06-24T08:14:58Z</time>
      </trkpt>
      <trkpt lat="50.57526" lon="3.19915">
        <ele>44</ele>
        <time>2020-06-24T08:14:59Z</time>
      </trkpt>
      <trkpt lat="50.57521" lon="3.19923">
        <ele>43.9</ele>
        <time>2020-06-24T08:15:00Z</time>
      </trkpt>
      <trkpt lat="50.57517" lon="3.19931">
        <ele>43.9</ele>
        <time>2020-06-24T08:15:01Z</time>
      </trkpt>
      <trkpt lat="50.57512" lon="3.19939">
        <ele>43.8</ele>
        <time>2020-06-24T08:15:02Z</time>
      </trkpt>
      <trkpt lat="50.57508" lon="3.19947">
        <ele>43.7</ele>
        <time>2020-06-24T08:15:03Z</time>
      </trkpt>
      <trkpt lat="50.57503" lon="3.19956">
        <ele>43.6</ele>
        <time>2020-06-24T08:15:04Z</time>
      </trkpt>
      <trkpt lat="50.57497" lon="3.19963">
        <ele>43.5</ele>
        <time>2020-06-24T08:15:05Z</time>
      </trkpt>
      <trkpt lat="50.57492" lon="3.19972">
        <ele>43.4</ele>
        <time>2020-06-24T08:15:06Z</time>
      </trkpt>
      <trkpt lat="50.57487" lon="3.1998">
        <ele>43.3</ele>
        <time>2020-06-24T08:15:07Z</time>
      </trkpt>
      <trkpt lat="50.57482" lon="3.19986">
        <ele>43.2</ele>
        <time>2020-06-24T08:15:08Z</time>
      </trkpt>
      <trkpt lat="50.57478" lon="3.19993">
        <ele>43.1</ele>
        <time>2020-06-24T08:15:09Z</time>
      </trkpt>
      <trkpt lat="50.57473" lon="3.20001">
        <ele>43</ele>
        <time>2020-06-24T08:15:10Z</time>
      </trkpt>
      <trkpt lat="50.57468" lon="3.20008">
        <ele>43</ele>
        <time>2020-06-24T08:15:11Z</time>
      </trkpt>
      <trkpt lat="50.57463" lon="3.20015">
        <ele>42.9</ele>
        <time>2020-06-24T08:15:12Z</time>
      </trkpt>
      <trkpt lat="50.57458" lon="3.20023">
        <ele>42.8</ele>
        <time>2020-06-24T08:15:13Z</time>
      </trkpt>
      <trkpt lat="50.57453" lon="3.2003">
        <ele>42.7</ele>
        <time>2020-06-24T08:15:14Z</time>
      </trkpt>
      <trkpt lat="50.57449" lon="3.20038">
        <ele>42.6</ele>
        <time>2020-06-24T08:15:15Z</time>
      </trkpt>
      <trkpt lat="50.57444" lon="3.20045">
        <ele>42.5</ele>
        <time>2020-06-24T08:15:16Z</time>
      </trkpt>
      <trkpt lat="50.5744" lon="3.20052">
        <ele>42.5</ele>
        <time>2020-06-24T08:15:17Z</time>
      </trkpt>
      <trkpt lat="50.57436" lon="3.20058">
        <ele>42.5</ele>
        <time>2020-06-24T08:15:18Z</time>
      </trkpt>
      <trkpt lat="50.57432" lon="3.20064">
        <ele>42.6</ele>
        <time>2020-06-24T08:15:19Z</time>
      </trkpt>
      <trkpt lat="50.57428" lon="3.20068">
        <ele>42.6</ele>
        <time>2020-06-24T08:15:20Z</time>
      </trkpt>
      <trkpt lat="50.57424" lon="3.2007">
        <ele>42.6</ele>
        <time>2020-06-24T08:15:21Z</time>
      </trkpt>
      <trkpt lat="50.57419" lon="3.20069">
        <ele>42.7</ele>
        <time>2020-06-24T08:15:22Z</time>
      </trkpt>
      <trkpt lat="50.57413" lon="3.20068">
        <ele>42.7</ele>
        <time>2020-06-24T08:15:23Z</time>
      </trkpt>
      <trkpt lat="50.57409" lon="3.20074">
        <ele>42.8</ele>
        <time>2020-06-24T08:15:24Z</time>
      </trkpt>
      <trkpt lat="50.57406" lon="3.2008">
        <ele>42.8</ele>
        <time>2020-06-24T08:15:25Z</time>
      </trkpt>
      <trkpt lat="50.57406" lon="3.20088">
        <ele>42.8</ele>
        <time>2020-06-24T08:15:26Z</time>
      </trkpt>
      <trkpt lat="50.57407" lon="3.20095">
        <ele>43.2</ele>
        <time>2020-06-24T08:15:27Z</time>
      </trkpt>
      <trkpt lat="50.57407" lon="3.20103">
        <ele>43.2</ele>
        <time>2020-06-24T08:15:28Z</time>
      </trkpt>
      <trkpt lat="50.57407" lon="3.20111">
        <ele>43.1</ele>
        <time>2020-06-24T08:15:29Z</time>
      </trkpt>
      <trkpt lat="50.57407" lon="3.20118">
        <ele>43.1</ele>
        <time>2020-06-24T08:15:30Z</time>
      </trkpt>
      <trkpt lat="50.57407" lon="3.20126">
        <ele>43.1</ele>
        <time>2020-06-24T08:15:31Z</time>
      </trkpt>
      <trkpt lat="50.57405" lon="3.20134">
        <ele>43.1</ele>
        <time>2020-06-24T08:15:32Z</time>
      </trkpt>
      <trkpt lat="50.57403" lon="3.20141">
        <ele>43</ele>
        <time>2020-06-24T08:15:33Z</time>
      </trkpt>
      <trkpt lat="50.57401" lon="3.20148">
        <ele>43</ele>
        <time>2020-06-24T08:15:34Z</time>
      </trkpt>
      <trkpt lat="50.57397" lon="3.20155">
        <ele>43</ele>
        <time>2020-06-24T08:15:35Z</time>
      </trkpt>
      <trkpt lat="50.57395" lon="3.20163">
        <ele>42.9</ele>
        <time>2020-06-24T08:15:36Z</time>
      </trkpt>
      <trkpt lat="50.57392" lon="3.20171">
        <ele>42.9</ele>
        <time>2020-06-24T08:15:37Z</time>
      </trkpt>
      <trkpt lat="50.57389" lon="3.20179">
        <ele>42.8</ele>
        <time>2020-06-24T08:15:38Z</time>
      </trkpt>
      <trkpt lat="50.57385" lon="3.20186">
        <ele>42.8</ele>
        <time>2020-06-24T08:15:39Z</time>
      </trkpt>
      <trkpt lat="50.57382" lon="3.20194">
        <ele>42.8</ele>
        <time>2020-06-24T08:15:40Z</time>
      </trkpt>
      <trkpt lat="50.57379" lon="3.20201">
        <ele>42.8</ele>
        <time>2020-06-24T08:15:41Z</time>
      </trkpt>
      <trkpt lat="50.57376" lon="3.20209">
        <ele>42.9</ele>
        <time>2020-06-24T08:15:42Z</time>
      </trkpt>
      <trkpt lat="50.57374" lon="3.20216">
        <ele>42.9</ele>
        <time>2020-06-24T08:15:43Z</time>
      </trkpt>
      <trkpt lat="50.57372" lon="3.20223">
        <ele>42.9</ele>
        <time>2020-06-24T08:15:44Z</time>
      </trkpt>
      <trkpt lat="50.57369" lon="3.2023">
        <ele>42.9</ele>
        <time>2020-06-24T08:15:45Z</time>
      </trkpt>
      <trkpt lat="50.57368" lon="3.20237">
        <ele>42.9</ele>
        <time>2020-06-24T08:15:46Z</time>
      </trkpt>
      <trkpt lat="50.57365" lon="3.20244">
        <ele>43</ele>
        <time>2020-06-24T08:15:47Z</time>
      </trkpt>
      <trkpt lat="50.57361" lon="3.20252">
        <ele>43</ele>
        <time>2020-06-24T08:15:48Z</time>
      </trkpt>
      <trkpt lat="50.57358" lon="3.20261">
        <ele>43</ele>
        <time>2020-06-24T08:15:49Z</time>
      </trkpt>
      <trkpt lat="50.57354" lon="3.20269">
        <ele>43.1</ele>
        <time>2020-06-24T08:15:50Z</time>
      </trkpt>
      <trkpt lat="50.5735" lon="3.20278">
        <ele>43.1</ele>
        <time>2020-06-24T08:15:51Z</time>
      </trkpt>
      <trkpt lat="50.57346" lon="3.20286">
        <ele>43.2</ele>
        <time>2020-06-24T08:15:52Z</time>
      </trkpt>
      <trkpt lat="50.57343" lon="3.20294">
        <ele>43.3</ele>
        <time>2020-06-24T08:15:53Z</time>
      </trkpt>
      <trkpt lat="50.5734" lon="3.20303">
        <ele>43.3</ele>
        <time>2020-06-24T08:15:54Z</time>
      </trkpt>
      <trkpt lat="50.57336" lon="3.20311">
        <ele>43.4</ele>
        <time>2020-06-24T08:15:55Z</time>
      </trkpt>
      <trkpt lat="50.57333" lon="3.2032">
        <ele>43.5</ele>
        <time>2020-06-24T08:15:56Z</time>
      </trkpt>
      <trkpt lat="50.57329" lon="3.20327">
        <ele>43.6</ele>
        <time>2020-06-24T08:15:57Z</time>
      </trkpt>
      <trkpt lat="50.57326" lon="3.20336">
        <ele>43.6</ele>
        <time>2020-06-24T08:15:58Z</time>
      </trkpt>
      <trkpt lat="50.57323" lon="3.20344">
        <ele>43.7</ele>
        <time>2020-06-24T08:15:59Z</time>
      </trkpt>
      <trkpt lat="50.57319" lon="3.20353">
        <ele>43.8</ele>
        <time>2020-06-24T08:16:00Z</time>
      </trkpt>
      <trkpt lat="50.57316" lon="3.20361">
        <ele>43.9</ele>
        <time>2020-06-24T08:16:01Z</time>
      </trkpt>
      <trkpt lat="50.57313" lon="3.2037">
        <ele>44</ele>
        <time>2020-06-24T08:16:02Z</time>
      </trkpt>
      <trkpt lat="50.5731" lon="3.20378">
        <ele>44</ele>
        <time>2020-06-24T08:16:03Z</time>
      </trkpt>
      <trkpt lat="50.57307" lon="3.20386">
        <ele>44.1</ele>
        <time>2020-06-24T08:16:04Z</time>
      </trkpt>
      <trkpt lat="50.57304" lon="3.20395">
        <ele>44.1</ele>
        <time>2020-06-24T08:16:05Z</time>
      </trkpt>
      <trkpt lat="50.57302" lon="3.20404">
        <ele>44.1</ele>
        <time>2020-06-24T08:16:06Z</time>
      </trkpt>
      <trkpt lat="50.57299" lon="3.20412">
        <ele>44.2</ele>
        <time>2020-06-24T08:16:07Z</time>
      </trkpt>
      <trkpt lat="50.57295" lon="3.20419">
        <ele>44.2</ele>
        <time>2020-06-24T08:16:08Z</time>
      </trkpt>
      <trkpt lat="50.57292" lon="3.20427">
        <ele>44.3</ele>
        <time>2020-06-24T08:16:09Z</time>
      </trkpt>
      <trkpt lat="50.57289" lon="3.20435">
        <ele>44.3</ele>
        <time>2020-06-24T08:16:10Z</time>
      </trkpt>
      <trkpt lat="50.57287" lon="3.20443">
        <ele>44.4</ele>
        <time>2020-06-24T08:16:11Z</time>
      </trkpt>
      <trkpt lat="50.57283" lon="3.20452">
        <ele>44.4</ele>
        <time>2020-06-24T08:16:12Z</time>
      </trkpt>
      <trkpt lat="50.57281" lon="3.20461">
        <ele>44.4</ele>
        <time>2020-06-24T08:16:13Z</time>
      </trkpt>
      <trkpt lat="50.57278" lon="3.20469">
        <ele>44.5</ele>
        <time>2020-06-24T08:16:14Z</time>
      </trkpt>
      <trkpt lat="50.57275" lon="3.20477">
        <ele>44.5</ele>
        <time>2020-06-24T08:16:15Z</time>
      </trkpt>
      <trkpt lat="50.57272" lon="3.20485">
        <ele>44.6</ele>
        <time>2020-06-24T08:16:16Z</time>
      </trkpt>
      <trkpt lat="50.57269" lon="3.20493">
        <ele>44.6</ele>
        <time>2020-06-24T08:16:17Z</time>
      </trkpt>
      <trkpt lat="50.57267" lon="3.20503">
        <ele>44.6</ele>
        <time>2020-06-24T08:16:18Z</time>
      </trkpt>
      <trkpt lat="50.57264" lon="3.20511">
        <ele>44.7</ele>
        <time>2020-06-24T08:16:19Z</time>
      </trkpt>
      <trkpt lat="50.57262" lon="3.2052">
        <ele>44.7</ele>
        <time>2020-06-24T08:16:20Z</time>
      </trkpt>
      <trkpt lat="50.57259" lon="3.20529">
        <ele>44.7</ele>
        <time>2020-06-24T08:16:21Z</time>
      </trkpt>
      <trkpt lat="50.57256" lon="3.20537">
        <ele>44.7</ele>
        <time>2020-06-24T08:16:22Z</time>
      </trkpt>
      <trkpt lat="50.57253" lon="3.20546">
        <ele>44.7</ele>
        <time>2020-06-24T08:16:23Z</time>
      </trkpt>
      <trkpt lat="50.5725" lon="3.20554">
        <ele>44.7</ele>
        <time>2020-06-24T08:16:24Z</time>
      </trkpt>
      <trkpt lat="50.57246" lon="3.20562">
        <ele>44.7</ele>
        <time>2020-06-24T08:16:25Z</time>
      </trkpt>
      <trkpt lat="50.57242" lon="3.2057">
        <ele>44.7</ele>
        <time>2020-06-24T08:16:26Z</time>
      </trkpt>
      <trkpt lat="50.57239" lon="3.20579">
        <ele>44.7</ele>
        <time>2020-06-24T08:16:27Z</time>
      </trkpt>
      <trkpt lat="50.57235" lon="3.20588">
        <ele>44.7</ele>
        <time>2020-06-24T08:16:28Z</time>
      </trkpt>
      <trkpt lat="50.57232" lon="3.20596">
        <ele>44.7</ele>
        <time>2020-06-24T08:16:29Z</time>
      </trkpt>
      <trkpt lat="50.57228" lon="3.20605">
        <ele>44.7</ele>
        <time>2020-06-24T08:16:30Z</time>
      </trkpt>
      <trkpt lat="50.57225" lon="3.20613">
        <ele>44.7</ele>
        <time>2020-06-24T08:16:31Z</time>
      </trkpt>
      <trkpt lat="50.57221" lon="3.20621">
        <ele>44.6</ele>
        <time>2020-06-24T08:16:32Z</time>
      </trkpt>
      <trkpt lat="50.57218" lon="3.2063">
        <ele>44.6</ele>
        <time>2020-06-24T08:16:33Z</time>
      </trkpt>
      <trkpt lat="50.57214" lon="3.20639">
        <ele>44.6</ele>
        <time>2020-06-24T08:16:34Z</time>
      </trkpt>
      <trkpt lat="50.57211" lon="3.20648">
        <ele>44.6</ele>
        <time>2020-06-24T08:16:35Z</time>
      </trkpt>
      <trkpt lat="50.57207" lon="3.20656">
        <ele>44.6</ele>
        <time>2020-06-24T08:16:36Z</time>
      </trkpt>
      <trkpt lat="50.57204" lon="3.20664">
        <ele>44.6</ele>
        <time>2020-06-24T08:16:37Z</time>
      </trkpt>
      <trkpt lat="50.57201" lon="3.20673">
        <ele>44.6</ele>
        <time>2020-06-24T08:16:38Z</time>
      </trkpt>
      <trkpt lat="50.57197" lon="3.20681">
        <ele>44.5</ele>
        <time>2020-06-24T08:16:39Z</time>
      </trkpt>
      <trkpt lat="50.57194" lon="3.2069">
        <ele>44.5</ele>
        <time>2020-06-24T08:16:40Z</time>
      </trkpt>
      <trkpt lat="50.5719" lon="3.20699">
        <ele>44.4</ele>
        <time>2020-06-24T08:16:41Z</time>
      </trkpt>
      <trkpt lat="50.57187" lon="3.20707">
        <ele>44.4</ele>
        <time>2020-06-24T08:16:42Z</time>
      </trkpt>
      <trkpt lat="50.57181" lon="3.20715">
        <ele>44.4</ele>
        <time>2020-06-24T08:16:43Z</time>
      </trkpt>
      <trkpt lat="50.57178" lon="3.20723">
        <ele>44.3</ele>
        <time>2020-06-24T08:16:44Z</time>
      </trkpt>
      <trkpt lat="50.57175" lon="3.20732">
        <ele>44.2</ele>
        <time>2020-06-24T08:16:45Z</time>
      </trkpt>
      <trkpt lat="50.57172" lon="3.20741">
        <ele>44.1</ele>
        <time>2020-06-24T08:16:46Z</time>
      </trkpt>
      <trkpt lat="50.57169" lon="3.2075">
        <ele>44</ele>
        <time>2020-06-24T08:16:47Z</time>
      </trkpt>
      <trkpt lat="50.57166" lon="3.20759">
        <ele>44</ele>
        <time>2020-06-24T08:16:48Z</time>
      </trkpt>
      <trkpt lat="50.57164" lon="3.20768">
        <ele>44</ele>
        <time>2020-06-24T08:16:49Z</time>
      </trkpt>
      <trkpt lat="50.57161" lon="3.20777">
        <ele>43.9</ele>
        <time>2020-06-24T08:16:50Z</time>
      </trkpt>
      <trkpt lat="50.57157" lon="3.20785">
        <ele>43.9</ele>
        <time>2020-06-24T08:16:51Z</time>
      </trkpt>
      <trkpt lat="50.57154" lon="3.20794">
        <ele>43.8</ele>
        <time>2020-06-24T08:16:52Z</time>
      </trkpt>
      <trkpt lat="50.57151" lon="3.20803">
        <ele>43.8</ele>
        <time>2020-06-24T08:16:53Z</time>
      </trkpt>
      <trkpt lat="50.57147" lon="3.20812">
        <ele>43.7</ele>
        <time>2020-06-24T08:16:54Z</time>
      </trkpt>
      <trkpt lat="50.57144" lon="3.20821">
        <ele>43.7</ele>
        <time>2020-06-24T08:16:55Z</time>
      </trkpt>
      <trkpt lat="50.57141" lon="3.20831">
        <ele>43.6</ele>
        <time>2020-06-24T08:16:56Z</time>
      </trkpt>
      <trkpt lat="50.57138" lon="3.2084">
        <ele>43.6</ele>
        <time>2020-06-24T08:16:57Z</time>
      </trkpt>
      <trkpt lat="50.57135" lon="3.20849">
        <ele>43.6</ele>
        <time>2020-06-24T08:16:58Z</time>
      </trkpt>
      <trkpt lat="50.57132" lon="3.20859">
        <ele>43.6</ele>
        <time>2020-06-24T08:16:59Z</time>
      </trkpt>
      <trkpt lat="50.57129" lon="3.20868">
        <ele>43.6</ele>
        <time>2020-06-24T08:17:00Z</time>
      </trkpt>
      <trkpt lat="50.57126" lon="3.20878">
        <ele>43.6</ele>
        <time>2020-06-24T08:17:01Z</time>
      </trkpt>
      <trkpt lat="50.57122" lon="3.20887">
        <ele>43.6</ele>
        <time>2020-06-24T08:17:02Z</time>
      </trkpt>
      <trkpt lat="50.57118" lon="3.20895">
        <ele>43.5</ele>
        <time>2020-06-24T08:17:03Z</time>
      </trkpt>
      <trkpt lat="50.57114" lon="3.20904">
        <ele>43.5</ele>
        <time>2020-06-24T08:17:04Z</time>
      </trkpt>
      <trkpt lat="50.57111" lon="3.20912">
        <ele>43.4</ele>
        <time>2020-06-24T08:17:05Z</time>
      </trkpt>
      <trkpt lat="50.57106" lon="3.20919">
        <ele>43.3</ele>
        <time>2020-06-24T08:17:06Z</time>
      </trkpt>
      <trkpt lat="50.57102" lon="3.20927">
        <ele>43.2</ele>
        <time>2020-06-24T08:17:07Z</time>
      </trkpt>
      <trkpt lat="50.57098" lon="3.20935">
        <ele>43.1</ele>
        <time>2020-06-24T08:17:08Z</time>
      </trkpt>
      <trkpt lat="50.57094" lon="3.20941">
        <ele>43.1</ele>
        <time>2020-06-24T08:17:09Z</time>
      </trkpt>
      <trkpt lat="50.5709" lon="3.20948">
        <ele>43</ele>
        <time>2020-06-24T08:17:10Z</time>
      </trkpt>
      <trkpt lat="50.57085" lon="3.20954">
        <ele>42.9</ele>
        <time>2020-06-24T08:17:11Z</time>
      </trkpt>
      <trkpt lat="50.5708" lon="3.20961">
        <ele>42.9</ele>
        <time>2020-06-24T08:17:12Z</time>
      </trkpt>
      <trkpt lat="50.57074" lon="3.20965">
        <ele>42.8</ele>
        <time>2020-06-24T08:17:13Z</time>
      </trkpt>
      <trkpt lat="50.57069" lon="3.20971">
        <ele>42.8</ele>
        <time>2020-06-24T08:17:14Z</time>
      </trkpt>
      <trkpt lat="50.57065" lon="3.20977">
        <ele>42.7</ele>
        <time>2020-06-24T08:17:15Z</time>
      </trkpt>
      <trkpt lat="50.5706" lon="3.20984">
        <ele>42.7</ele>
        <time>2020-06-24T08:17:16Z</time>
      </trkpt>
      <trkpt lat="50.57055" lon="3.20989">
        <ele>42.6</ele>
        <time>2020-06-24T08:17:17Z</time>
      </trkpt>
      <trkpt lat="50.57051" lon="3.20995">
        <ele>42.5</ele>
        <time>2020-06-24T08:17:18Z</time>
      </trkpt>
      <trkpt lat="50.57046" lon="3.21001">
        <ele>42.5</ele>
        <time>2020-06-24T08:17:19Z</time>
      </trkpt>
      <trkpt lat="50.57042" lon="3.21007">
        <ele>42.4</ele>
        <time>2020-06-24T08:17:20Z</time>
      </trkpt>
      <trkpt lat="50.57037" lon="3.21012">
        <ele>42.3</ele>
        <time>2020-06-24T08:17:21Z</time>
      </trkpt>
      <trkpt lat="50.57033" lon="3.21016">
        <ele>42.3</ele>
        <time>2020-06-24T08:17:22Z</time>
      </trkpt>
      <trkpt lat="50.57029" lon="3.21019">
        <ele>42.2</ele>
        <time>2020-06-24T08:17:23Z</time>
      </trkpt>
      <trkpt lat="50.57025" lon="3.21022">
        <ele>42.2</ele>
        <time>2020-06-24T08:17:24Z</time>
      </trkpt>
      <trkpt lat="50.57022" lon="3.21024">
        <ele>42.1</ele>
        <time>2020-06-24T08:17:25Z</time>
      </trkpt>
      <trkpt lat="50.57019" lon="3.21027">
        <ele>42.1</ele>
        <time>2020-06-24T08:17:26Z</time>
      </trkpt>
      <trkpt lat="50.57016" lon="3.2103">
        <ele>42</ele>
        <time>2020-06-24T08:17:27Z</time>
      </trkpt>
      <trkpt lat="50.57013" lon="3.21032">
        <ele>42</ele>
        <time>2020-06-24T08:17:28Z</time>
      </trkpt>
      <trkpt lat="50.5701" lon="3.21035">
        <ele>41.9</ele>
        <time>2020-06-24T08:17:29Z</time>
      </trkpt>
      <trkpt lat="50.57009" lon="3.21036">
        <ele>41.9</ele>
        <time>2020-06-24T08:17:30Z</time>
      </trkpt>
      <trkpt lat="50.57006" lon="3.21037">
        <ele>41.8</ele>
        <time>2020-06-24T08:17:31Z</time>
      </trkpt>
      <trkpt lat="50.57005" lon="3.21037">
        <ele>41.8</ele>
        <time>2020-06-24T08:17:32Z</time>
      </trkpt>
      <trkpt lat="50.57004" lon="3.21038">
        <ele>41.8</ele>
        <time>2020-06-24T08:17:33Z</time>
      </trkpt>
      <trkpt lat="50.57002" lon="3.21038">
        <ele>41.8</ele>
        <time>2020-06-24T08:17:34Z</time>
      </trkpt>
      <trkpt lat="50.57002" lon="3.2104">
        <ele>41.8</ele>
        <time>2020-06-24T08:17:35Z</time>
      </trkpt>
      <trkpt lat="50.57001" lon="3.21042">
        <ele>41.8</ele>
        <time>2020-06-24T08:17:36Z</time>
      </trkpt>
      <trkpt lat="50.57001" lon="3.21044">
        <ele>41.7</ele>
        <time>2020-06-24T08:17:37Z</time>
      </trkpt>
      <trkpt lat="50.57" lon="3.21045">
        <ele>41.7</ele>
        <time>2020-06-24T08:17:38Z</time>
      </trkpt>
      <trkpt lat="50.57" lon="3.21046">
        <ele>41.7</ele>
        <time>2020-06-24T08:17:39Z</time>
      </trkpt>
      <trkpt lat="50.56999" lon="3.21046">
        <ele>41.7</ele>
        <time>2020-06-24T08:17:40Z</time>
      </trkpt>
      <trkpt lat="50.56999" lon="3.21046">
        <ele>41.7</ele>
        <time>2020-06-24T08:17:41Z</time>
      </trkpt>
      <trkpt lat="50.56999" lon="3.21045">
        <ele>41.7</ele>
        <time>2020-06-24T08:17:42Z</time>
      </trkpt>
      <trkpt lat="50.57" lon="3.21046">
        <ele>41.7</ele>
        <time>2020-06-24T08:17:43Z</time>
      </trkpt>
      <trkpt lat="50.57" lon="3.21047">
        <ele>41.7</ele>
        <time>2020-06-24T08:17:44Z</time>
      </trkpt>
      <trkpt lat="50.57" lon="3.21048">
        <ele>41.7</ele>
        <time>2020-06-24T08:17:45Z</time>
      </trkpt>
      <trkpt lat="50.57" lon="3.21049">
        <ele>41.7</ele>
        <time>2020-06-24T08:17:46Z</time>
      </trkpt>
      <trkpt lat="50.57" lon="3.21049">
        <ele>41.7</ele>
        <time>2020-06-24T08:17:47Z</time>
      </trkpt>
      <trkpt lat="50.57" lon="3.21051">
        <ele>41.7</ele>
        <time>2020-06-24T08:17:48Z</time>
      </trkpt>
      <trkpt lat="50.56999" lon="3.21053">
        <ele>41.6</ele>
        <time>2020-06-24T08:17:49Z</time>
      </trkpt>
      <trkpt lat="50.56998" lon="3.21055">
        <ele>41.6</ele>
        <time>2020-06-24T08:17:50Z</time>
      </trkpt>
      <trkpt lat="50.56997" lon="3.21056">
        <ele>41.6</ele>
        <time>2020-06-24T08:17:51Z</time>
      </trkpt>
      <trkpt lat="50.56995" lon="3.21059">
        <ele>41.6</ele>
        <time>2020-06-24T08:17:52Z</time>
      </trkpt>
      <trkpt lat="50.56992" lon="3.21064">
        <ele>41.5</ele>
        <time>2020-06-24T08:17:53Z</time>
      </trkpt>
      <trkpt lat="50.56991" lon="3.21066">
        <ele>41.5</ele>
        <time>2020-06-24T08:17:54Z</time>
      </trkpt>
      <trkpt lat="50.56989" lon="3.21069">
        <ele>41.5</ele>
        <time>2020-06-24T08:17:55Z</time>
      </trkpt>
      <trkpt lat="50.56987" lon="3.21073">
        <ele>41.4</ele>
        <time>2020-06-24T08:17:56Z</time>
      </trkpt>
      <trkpt lat="50.56985" lon="3.21077">
        <ele>41.4</ele>
        <time>2020-06-24T08:17:57Z</time>
      </trkpt>
      <trkpt lat="50.56983" lon="3.21081">
        <ele>41.3</ele>
        <time>2020-06-24T08:17:58Z</time>
      </trkpt>
      <trkpt lat="50.5698" lon="3.21085">
        <ele>41.3</ele>
        <time>2020-06-24T08:17:59Z</time>
      </trkpt>
      <trkpt lat="50.56978" lon="3.2109">
        <ele>41.2</ele>
        <time>2020-06-24T08:18:00Z</time>
      </trkpt>
      <trkpt lat="50.56976" lon="3.21094">
        <ele>41.1</ele>
        <time>2020-06-24T08:18:01Z</time>
      </trkpt>
      <trkpt lat="50.56973" lon="3.21098">
        <ele>41.1</ele>
        <time>2020-06-24T08:18:02Z</time>
      </trkpt>
      <trkpt lat="50.5697" lon="3.21101">
        <ele>41</ele>
        <time>2020-06-24T08:18:03Z</time>
      </trkpt>
      <trkpt lat="50.56967" lon="3.21105">
        <ele>41</ele>
        <time>2020-06-24T08:18:04Z</time>
      </trkpt>
      <trkpt lat="50.56965" lon="3.2111">
        <ele>40.9</ele>
        <time>2020-06-24T08:18:05Z</time>
      </trkpt>
      <trkpt lat="50.56962" lon="3.21115">
        <ele>40.8</ele>
        <time>2020-06-24T08:18:06Z</time>
      </trkpt>
      <trkpt lat="50.56959" lon="3.2112">
        <ele>40.8</ele>
        <time>2020-06-24T08:18:07Z</time>
      </trkpt>
      <trkpt lat="50.56956" lon="3.21125">
        <ele>40.7</ele>
        <time>2020-06-24T08:18:08Z</time>
      </trkpt>
      <trkpt lat="50.56952" lon="3.2113">
        <ele>40.6</ele>
        <time>2020-06-24T08:18:09Z</time>
      </trkpt>
      <trkpt lat="50.56949" lon="3.21135">
        <ele>40.6</ele>
        <time>2020-06-24T08:18:10Z</time>
      </trkpt>
      <trkpt lat="50.56945" lon="3.2114">
        <ele>40.5</ele>
        <time>2020-06-24T08:18:11Z</time>
      </trkpt>
      <trkpt lat="50.56942" lon="3.21146">
        <ele>40.4</ele>
        <time>2020-06-24T08:18:12Z</time>
      </trkpt>
      <trkpt lat="50.56938" lon="3.21152">
        <ele>40.3</ele>
        <time>2020-06-24T08:18:13Z</time>
      </trkpt>
      <trkpt lat="50.56934" lon="3.21158">
        <ele>40.3</ele>
        <time>2020-06-24T08:18:14Z</time>
      </trkpt>
      <trkpt lat="50.5693" lon="3.21164">
        <ele>40.2</ele>
        <time>2020-06-24T08:18:15Z</time>
      </trkpt>
      <trkpt lat="50.56927" lon="3.21169">
        <ele>40.1</ele>
        <time>2020-06-24T08:18:16Z</time>
      </trkpt>
      <trkpt lat="50.56922" lon="3.21175">
        <ele>40</ele>
        <time>2020-06-24T08:18:17Z</time>
      </trkpt>
      <trkpt lat="50.56918" lon="3.2118">
        <ele>40</ele>
        <time>2020-06-24T08:18:18Z</time>
      </trkpt>
      <trkpt lat="50.56912" lon="3.21183">
        <ele>39.9</ele>
        <time>2020-06-24T08:18:19Z</time>
      </trkpt>
      <trkpt lat="50.56909" lon="3.21189">
        <ele>39.8</ele>
        <time>2020-06-24T08:18:20Z</time>
      </trkpt>
      <trkpt lat="50.56904" lon="3.21195">
        <ele>39.7</ele>
        <time>2020-06-24T08:18:21Z</time>
      </trkpt>
      <trkpt lat="50.569" lon="3.212">
        <ele>39.6</ele>
        <time>2020-06-24T08:18:22Z</time>
      </trkpt>
      <trkpt lat="50.56895" lon="3.21205">
        <ele>39.4</ele>
        <time>2020-06-24T08:18:23Z</time>
      </trkpt>
      <trkpt lat="50.56891" lon="3.21211">
        <ele>39.2</ele>
        <time>2020-06-24T08:18:24Z</time>
      </trkpt>
      <trkpt lat="50.56886" lon="3.21216">
        <ele>39.1</ele>
        <time>2020-06-24T08:18:25Z</time>
      </trkpt>
      <trkpt lat="50.5688" lon="3.21219">
        <ele>38.9</ele>
        <time>2020-06-24T08:18:26Z</time>
      </trkpt>
      <trkpt lat="50.56875" lon="3.21223">
        <ele>38.8</ele>
        <time>2020-06-24T08:18:27Z</time>
      </trkpt>
      <trkpt lat="50.5687" lon="3.21228">
        <ele>38.6</ele>
        <time>2020-06-24T08:18:28Z</time>
      </trkpt>
      <trkpt lat="50.56865" lon="3.21233">
        <ele>38.4</ele>
        <time>2020-06-24T08:18:29Z</time>
      </trkpt>
      <trkpt lat="50.5686" lon="3.21239">
        <ele>38.3</ele>
        <time>2020-06-24T08:18:30Z</time>
      </trkpt>
      <trkpt lat="50.56855" lon="3.21245">
        <ele>38.1</ele>
        <time>2020-06-24T08:18:31Z</time>
      </trkpt>
      <trkpt lat="50.56851" lon="3.21252">
        <ele>38</ele>
        <time>2020-06-24T08:18:32Z</time>
      </trkpt>
      <trkpt lat="50.56847" lon="3.2126">
        <ele>37.9</ele>
        <time>2020-06-24T08:18:33Z</time>
      </trkpt>
      <trkpt lat="50.56842" lon="3.21268">
        <ele>37.8</ele>
        <time>2020-06-24T08:18:34Z</time>
      </trkpt>
      <trkpt lat="50.56839" lon="3.21277">
        <ele>37.8</ele>
        <time>2020-06-24T08:18:35Z</time>
      </trkpt>
      <trkpt lat="50.56836" lon="3.21286">
        <ele>37.7</ele>
        <time>2020-06-24T08:18:36Z</time>
      </trkpt>
      <trkpt lat="50.56834" lon="3.21296">
        <ele>37.6</ele>
        <time>2020-06-24T08:18:37Z</time>
      </trkpt>
      <trkpt lat="50.56833" lon="3.21307">
        <ele>37.6</ele>
        <time>2020-06-24T08:18:38Z</time>
      </trkpt>
      <trkpt lat="50.56832" lon="3.21317">
        <ele>37.5</ele>
        <time>2020-06-24T08:18:39Z</time>
      </trkpt>
      <trkpt lat="50.56831" lon="3.21326">
        <ele>37.5</ele>
        <time>2020-06-24T08:18:40Z</time>
      </trkpt>
      <trkpt lat="50.5683" lon="3.21336">
        <ele>37.5</ele>
        <time>2020-06-24T08:18:41Z</time>
      </trkpt>
      <trkpt lat="50.56829" lon="3.21345">
        <ele>37.5</ele>
        <time>2020-06-24T08:18:42Z</time>
      </trkpt>
      <trkpt lat="50.56828" lon="3.21355">
        <ele>37.5</ele>
        <time>2020-06-24T08:18:43Z</time>
      </trkpt>
      <trkpt lat="50.56827" lon="3.21364">
        <ele>37.5</ele>
        <time>2020-06-24T08:18:44Z</time>
      </trkpt>
      <trkpt lat="50.56826" lon="3.21373">
        <ele>37.4</ele>
        <time>2020-06-24T08:18:45Z</time>
      </trkpt>
      <trkpt lat="50.56825" lon="3.21382">
        <ele>37.4</ele>
        <time>2020-06-24T08:18:46Z</time>
      </trkpt>
      <trkpt lat="50.56824" lon="3.21392">
        <ele>37.4</ele>
        <time>2020-06-24T08:18:47Z</time>
      </trkpt>
      <trkpt lat="50.56823" lon="3.21401">
        <ele>37.4</ele>
        <time>2020-06-24T08:18:48Z</time>
      </trkpt>
      <trkpt lat="50.56822" lon="3.2141">
        <ele>37.5</ele>
        <time>2020-06-24T08:18:49Z</time>
      </trkpt>
      <trkpt lat="50.56821" lon="3.2142">
        <ele>37.5</ele>
        <time>2020-06-24T08:18:50Z</time>
      </trkpt>
      <trkpt lat="50.56819" lon="3.2143">
        <ele>37.5</ele>
        <time>2020-06-24T08:18:51Z</time>
      </trkpt>
      <trkpt lat="50.56818" lon="3.21441">
        <ele>37.5</ele>
        <time>2020-06-24T08:18:52Z</time>
      </trkpt>
      <trkpt lat="50.56816" lon="3.21451">
        <ele>37.5</ele>
        <time>2020-06-24T08:18:53Z</time>
      </trkpt>
      <trkpt lat="50.56815" lon="3.21461">
        <ele>37.5</ele>
        <time>2020-06-24T08:18:54Z</time>
      </trkpt>
      <trkpt lat="50.56814" lon="3.2147">
        <ele>37.6</ele>
        <time>2020-06-24T08:18:55Z</time>
      </trkpt>
      <trkpt lat="50.56813" lon="3.2148">
        <ele>37.6</ele>
        <time>2020-06-24T08:18:56Z</time>
      </trkpt>
      <trkpt lat="50.56812" lon="3.2149">
        <ele>37.7</ele>
        <time>2020-06-24T08:18:57Z</time>
      </trkpt>
      <trkpt lat="50.5681" lon="3.21499">
        <ele>37.7</ele>
        <time>2020-06-24T08:18:58Z</time>
      </trkpt>
      <trkpt lat="50.56809" lon="3.21509">
        <ele>37.8</ele>
        <time>2020-06-24T08:18:59Z</time>
      </trkpt>
      <trkpt lat="50.56807" lon="3.21519">
        <ele>37.9</ele>
        <time>2020-06-24T08:19:00Z</time>
      </trkpt>
      <trkpt lat="50.56806" lon="3.21528">
        <ele>37.9</ele>
        <time>2020-06-24T08:19:01Z</time>
      </trkpt>
      <trkpt lat="50.56804" lon="3.21538">
        <ele>37.9</ele>
        <time>2020-06-24T08:19:02Z</time>
      </trkpt>
      <trkpt lat="50.56803" lon="3.21547">
        <ele>37.8</ele>
        <time>2020-06-24T08:19:03Z</time>
      </trkpt>
      <trkpt lat="50.56801" lon="3.21557">
        <ele>37.8</ele>
        <time>2020-06-24T08:19:04Z</time>
      </trkpt>
      <trkpt lat="50.56799" lon="3.21567">
        <ele>37.8</ele>
        <time>2020-06-24T08:19:05Z</time>
      </trkpt>
      <trkpt lat="50.56798" lon="3.21576">
        <ele>37.7</ele>
        <time>2020-06-24T08:19:06Z</time>
      </trkpt>
      <trkpt lat="50.56796" lon="3.21585">
        <ele>37.7</ele>
        <time>2020-06-24T08:19:07Z</time>
      </trkpt>
      <trkpt lat="50.56794" lon="3.21594">
        <ele>37.7</ele>
        <time>2020-06-24T08:19:08Z</time>
      </trkpt>
      <trkpt lat="50.56793" lon="3.21602">
        <ele>37.7</ele>
        <time>2020-06-24T08:19:09Z</time>
      </trkpt>
      <trkpt lat="50.56791" lon="3.21611">
        <ele>37.7</ele>
        <time>2020-06-24T08:19:10Z</time>
      </trkpt>
      <trkpt lat="50.5679" lon="3.21619">
        <ele>37.7</ele>
        <time>2020-06-24T08:19:11Z</time>
      </trkpt>
      <trkpt lat="50.56789" lon="3.21627">
        <ele>37.6</ele>
        <time>2020-06-24T08:19:12Z</time>
      </trkpt>
      <trkpt lat="50.56788" lon="3.21635">
        <ele>37.6</ele>
        <time>2020-06-24T08:19:13Z</time>
      </trkpt>
      <trkpt lat="50.56787" lon="3.21642">
        <ele>37.6</ele>
        <time>2020-06-24T08:19:14Z</time>
      </trkpt>
      <trkpt lat="50.56787" lon="3.21649">
        <ele>37.6</ele>
        <time>2020-06-24T08:19:15Z</time>
      </trkpt>
      <trkpt lat="50.56786" lon="3.21657">
        <ele>37.6</ele>
        <time>2020-06-24T08:19:16Z</time>
      </trkpt>
      <trkpt lat="50.56786" lon="3.21664">
        <ele>37.6</ele>
        <time>2020-06-24T08:19:17Z</time>
      </trkpt>
      <trkpt lat="50.56786" lon="3.21671">
        <ele>37.7</ele>
        <time>2020-06-24T08:19:18Z</time>
      </trkpt>
      <trkpt lat="50.56787" lon="3.2168">
        <ele>37.7</ele>
        <time>2020-06-24T08:19:19Z</time>
      </trkpt>
      <trkpt lat="50.56788" lon="3.21688">
        <ele>37.7</ele>
        <time>2020-06-24T08:19:20Z</time>
      </trkpt>
      <trkpt lat="50.56789" lon="3.21697">
        <ele>37.7</ele>
        <time>2020-06-24T08:19:21Z</time>
      </trkpt>
      <trkpt lat="50.5679" lon="3.21705">
        <ele>37.8</ele>
        <time>2020-06-24T08:19:22Z</time>
      </trkpt>
      <trkpt lat="50.56791" lon="3.21714">
        <ele>37.8</ele>
        <time>2020-06-24T08:19:23Z</time>
      </trkpt>
      <trkpt lat="50.56792" lon="3.21723">
        <ele>37.9</ele>
        <time>2020-06-24T08:19:24Z</time>
      </trkpt>
      <trkpt lat="50.56793" lon="3.21731">
        <ele>37.9</ele>
        <time>2020-06-24T08:19:25Z</time>
      </trkpt>
      <trkpt lat="50.56794" lon="3.21739">
        <ele>38</ele>
        <time>2020-06-24T08:19:26Z</time>
      </trkpt>
      <trkpt lat="50.56795" lon="3.21748">
        <ele>38.1</ele>
        <time>2020-06-24T08:19:27Z</time>
      </trkpt>
      <trkpt lat="50.56796" lon="3.21756">
        <ele>38.2</ele>
        <time>2020-06-24T08:19:28Z</time>
      </trkpt>
      <trkpt lat="50.56797" lon="3.21764">
        <ele>38.3</ele>
        <time>2020-06-24T08:19:29Z</time>
      </trkpt>
      <trkpt lat="50.56799" lon="3.21773">
        <ele>38.3</ele>
        <time>2020-06-24T08:19:30Z</time>
      </trkpt>
      <trkpt lat="50.568" lon="3.21781">
        <ele>38.4</ele>
        <time>2020-06-24T08:19:31Z</time>
      </trkpt>
      <trkpt lat="50.56802" lon="3.21791">
        <ele>38.4</ele>
        <time>2020-06-24T08:19:32Z</time>
      </trkpt>
      <trkpt lat="50.56803" lon="3.21801">
        <ele>38.5</ele>
        <time>2020-06-24T08:19:33Z</time>
      </trkpt>
      <trkpt lat="50.56805" lon="3.2181">
        <ele>38.5</ele>
        <time>2020-06-24T08:19:34Z</time>
      </trkpt>
      <trkpt lat="50.56808" lon="3.2182">
        <ele>38.5</ele>
        <time>2020-06-24T08:19:35Z</time>
      </trkpt>
      <trkpt lat="50.5681" lon="3.21828">
        <ele>38.6</ele>
        <time>2020-06-24T08:19:36Z</time>
      </trkpt>
      <trkpt lat="50.56812" lon="3.21837">
        <ele>38.6</ele>
        <time>2020-06-24T08:19:37Z</time>
      </trkpt>
      <trkpt lat="50.56813" lon="3.21844">
        <ele>38.7</ele>
        <time>2020-06-24T08:19:38Z</time>
      </trkpt>
      <trkpt lat="50.56815" lon="3.21853">
        <ele>38.7</ele>
        <time>2020-06-24T08:19:39Z</time>
      </trkpt>
      <trkpt lat="50.56817" lon="3.21861">
        <ele>38.7</ele>
        <time>2020-06-24T08:19:40Z</time>
      </trkpt>
      <trkpt lat="50.5682" lon="3.2187">
        <ele>38.7</ele>
        <time>2020-06-24T08:19:41Z</time>
      </trkpt>
      <trkpt lat="50.56822" lon="3.21878">
        <ele>38.8</ele>
        <time>2020-06-24T08:19:42Z</time>
      </trkpt>
      <trkpt lat="50.56824" lon="3.21885">
        <ele>38.9</ele>
        <time>2020-06-24T08:19:43Z</time>
      </trkpt>
      <trkpt lat="50.56826" lon="3.21895">
        <ele>39</ele>
        <time>2020-06-24T08:19:44Z</time>
      </trkpt>
      <trkpt lat="50.56828" lon="3.21903">
        <ele>39.1</ele>
        <time>2020-06-24T08:19:45Z</time>
      </trkpt>
      <trkpt lat="50.56831" lon="3.21912">
        <ele>39.2</ele>
        <time>2020-06-24T08:19:46Z</time>
      </trkpt>
      <trkpt lat="50.56833" lon="3.21921">
        <ele>39.3</ele>
        <time>2020-06-24T08:19:47Z</time>
      </trkpt>
      <trkpt lat="50.56835" lon="3.21928">
        <ele>39.3</ele>
        <time>2020-06-24T08:19:48Z</time>
      </trkpt>
      <trkpt lat="50.56838" lon="3.21934">
        <ele>39.4</ele>
        <time>2020-06-24T08:19:49Z</time>
      </trkpt>
      <trkpt lat="50.5684" lon="3.21942">
        <ele>39.4</ele>
        <time>2020-06-24T08:19:50Z</time>
      </trkpt>
      <trkpt lat="50.56843" lon="3.2195">
        <ele>39.5</ele>
        <time>2020-06-24T08:19:51Z</time>
      </trkpt>
      <trkpt lat="50.56845" lon="3.21957">
        <ele>39.5</ele>
        <time>2020-06-24T08:19:52Z</time>
      </trkpt>
      <trkpt lat="50.56847" lon="3.21964">
        <ele>39.6</ele>
        <time>2020-06-24T08:19:53Z</time>
      </trkpt>
      <trkpt lat="50.56849" lon="3.21976">
        <ele>39.6</ele>
        <time>2020-06-24T08:19:54Z</time>
      </trkpt>
      <trkpt lat="50.5685" lon="3.21985">
        <ele>39.7</ele>
        <time>2020-06-24T08:19:55Z</time>
      </trkpt>
      <trkpt lat="50.5685" lon="3.21993">
        <ele>39.6</ele>
        <time>2020-06-24T08:19:56Z</time>
      </trkpt>
      <trkpt lat="50.56847" lon="3.22002">
        <ele>39.5</ele>
        <time>2020-06-24T08:19:57Z</time>
      </trkpt>
      <trkpt lat="50.56844" lon="3.22011">
        <ele>39.4</ele>
        <time>2020-06-24T08:19:58Z</time>
      </trkpt>
      <trkpt lat="50.56842" lon="3.2202">
        <ele>39.3</ele>
        <time>2020-06-24T08:19:59Z</time>
      </trkpt>
      <trkpt lat="50.56839" lon="3.22029">
        <ele>39.2</ele>
        <time>2020-06-24T08:20:00Z</time>
      </trkpt>
      <trkpt lat="50.56837" lon="3.22039">
        <ele>39</ele>
        <time>2020-06-24T08:20:01Z</time>
      </trkpt>
      <trkpt lat="50.56834" lon="3.22049">
        <ele>39</ele>
        <time>2020-06-24T08:20:02Z</time>
      </trkpt>
      <trkpt lat="50.56832" lon="3.22059">
        <ele>38.9</ele>
        <time>2020-06-24T08:20:03Z</time>
      </trkpt>
      <trkpt lat="50.56829" lon="3.22067">
        <ele>38.9</ele>
        <time>2020-06-24T08:20:04Z</time>
      </trkpt>
      <trkpt lat="50.56826" lon="3.22076">
        <ele>38.9</ele>
        <time>2020-06-24T08:20:05Z</time>
      </trkpt>
      <trkpt lat="50.56824" lon="3.22083">
        <ele>38.9</ele>
        <time>2020-06-24T08:20:06Z</time>
      </trkpt>
      <trkpt lat="50.56822" lon="3.22091">
        <ele>38.9</ele>
        <time>2020-06-24T08:20:07Z</time>
      </trkpt>
      <trkpt lat="50.56819" lon="3.221">
        <ele>38.9</ele>
        <time>2020-06-24T08:20:08Z</time>
      </trkpt>
      <trkpt lat="50.56817" lon="3.22109">
        <ele>38.9</ele>
        <time>2020-06-24T08:20:09Z</time>
      </trkpt>
      <trkpt lat="50.56814" lon="3.22117">
        <ele>38.8</ele>
        <time>2020-06-24T08:20:10Z</time>
      </trkpt>
      <trkpt lat="50.56812" lon="3.22125">
        <ele>38.8</ele>
        <time>2020-06-24T08:20:11Z</time>
      </trkpt>
      <trkpt lat="50.56809" lon="3.22136">
        <ele>38.8</ele>
        <time>2020-06-24T08:20:12Z</time>
      </trkpt>
      <trkpt lat="50.56807" lon="3.22146">
        <ele>38.7</ele>
        <time>2020-06-24T08:20:13Z</time>
      </trkpt>
      <trkpt lat="50.56805" lon="3.22153">
        <ele>38.7</ele>
        <time>2020-06-24T08:20:14Z</time>
      </trkpt>
      <trkpt lat="50.56803" lon="3.22162">
        <ele>38.6</ele>
        <time>2020-06-24T08:20:15Z</time>
      </trkpt>
      <trkpt lat="50.56801" lon="3.22172">
        <ele>38.5</ele>
        <time>2020-06-24T08:20:16Z</time>
      </trkpt>
      <trkpt lat="50.56799" lon="3.22181">
        <ele>38.4</ele>
        <time>2020-06-24T08:20:17Z</time>
      </trkpt>
      <trkpt lat="50.56797" lon="3.2219">
        <ele>38.3</ele>
        <time>2020-06-24T08:20:18Z</time>
      </trkpt>
      <trkpt lat="50.56795" lon="3.22201">
        <ele>38.3</ele>
        <time>2020-06-24T08:20:19Z</time>
      </trkpt>
      <trkpt lat="50.56792" lon="3.2221">
        <ele>38.2</ele>
        <time>2020-06-24T08:20:20Z</time>
      </trkpt>
      <trkpt lat="50.5679" lon="3.22219">
        <ele>38.1</ele>
        <time>2020-06-24T08:20:21Z</time>
      </trkpt>
      <trkpt lat="50.56787" lon="3.22228">
        <ele>38.1</ele>
        <time>2020-06-24T08:20:22Z</time>
      </trkpt>
      <trkpt lat="50.56784" lon="3.22236">
        <ele>38</ele>
        <time>2020-06-24T08:20:23Z</time>
      </trkpt>
      <trkpt lat="50.56781" lon="3.22247">
        <ele>38</ele>
        <time>2020-06-24T08:20:24Z</time>
      </trkpt>
      <trkpt lat="50.56778" lon="3.22257">
        <ele>37.9</ele>
        <time>2020-06-24T08:20:25Z</time>
      </trkpt>
      <trkpt lat="50.56775" lon="3.22266">
        <ele>37.8</ele>
        <time>2020-06-24T08:20:26Z</time>
      </trkpt>
      <trkpt lat="50.56772" lon="3.22275">
        <ele>37.7</ele>
        <time>2020-06-24T08:20:27Z</time>
      </trkpt>
      <trkpt lat="50.56769" lon="3.22283">
        <ele>37.6</ele>
        <time>2020-06-24T08:20:28Z</time>
      </trkpt>
      <trkpt lat="50.56766" lon="3.22291">
        <ele>37.5</ele>
        <time>2020-06-24T08:20:29Z</time>
      </trkpt>
      <trkpt lat="50.56763" lon="3.223">
        <ele>37.4</ele>
        <time>2020-06-24T08:20:30Z</time>
      </trkpt>
      <trkpt lat="50.56759" lon="3.22309">
        <ele>37.3</ele>
        <time>2020-06-24T08:20:31Z</time>
      </trkpt>
      <trkpt lat="50.56755" lon="3.22318">
        <ele>37.2</ele>
        <time>2020-06-24T08:20:32Z</time>
      </trkpt>
      <trkpt lat="50.56751" lon="3.22326">
        <ele>37.2</ele>
        <time>2020-06-24T08:20:33Z</time>
      </trkpt>
      <trkpt lat="50.56747" lon="3.22331">
        <ele>37.1</ele>
        <time>2020-06-24T08:20:34Z</time>
      </trkpt>
      <trkpt lat="50.56743" lon="3.22339">
        <ele>37</ele>
        <time>2020-06-24T08:20:35Z</time>
      </trkpt>
      <trkpt lat="50.56739" lon="3.22346">
        <ele>36.9</ele>
        <time>2020-06-24T08:20:36Z</time>
      </trkpt>
      <trkpt lat="50.56734" lon="3.22354">
        <ele>36.9</ele>
        <time>2020-06-24T08:20:37Z</time>
      </trkpt>
      <trkpt lat="50.5673" lon="3.22362">
        <ele>36.8</ele>
        <time>2020-06-24T08:20:38Z</time>
      </trkpt>
      <trkpt lat="50.56726" lon="3.2237">
        <ele>36.8</ele>
        <time>2020-06-24T08:20:39Z</time>
      </trkpt>
      <trkpt lat="50.56721" lon="3.22378">
        <ele>36.8</ele>
        <time>2020-06-24T08:20:40Z</time>
      </trkpt>
      <trkpt lat="50.56717" lon="3.22385">
        <ele>36.8</ele>
        <time>2020-06-24T08:20:41Z</time>
      </trkpt>
      <trkpt lat="50.56713" lon="3.22394">
        <ele>36.8</ele>
        <time>2020-06-24T08:20:42Z</time>
      </trkpt>
      <trkpt lat="50.56709" lon="3.22404">
        <ele>36.7</ele>
        <time>2020-06-24T08:20:43Z</time>
      </trkpt>
      <trkpt lat="50.56707" lon="3.22414">
        <ele>36.7</ele>
        <time>2020-06-24T08:20:44Z</time>
      </trkpt>
      <trkpt lat="50.56702" lon="3.22424">
        <ele>36.7</ele>
        <time>2020-06-24T08:20:45Z</time>
      </trkpt>
      <trkpt lat="50.567" lon="3.22433">
        <ele>36.7</ele>
        <time>2020-06-24T08:20:46Z</time>
      </trkpt>
      <trkpt lat="50.56697" lon="3.22442">
        <ele>36.7</ele>
        <time>2020-06-24T08:20:47Z</time>
      </trkpt>
      <trkpt lat="50.56695" lon="3.22452">
        <ele>36.7</ele>
        <time>2020-06-24T08:20:48Z</time>
      </trkpt>
      <trkpt lat="50.56693" lon="3.22462">
        <ele>36.8</ele>
        <time>2020-06-24T08:20:49Z</time>
      </trkpt>
      <trkpt lat="50.56691" lon="3.22471">
        <ele>36.8</ele>
        <time>2020-06-24T08:20:50Z</time>
      </trkpt>
      <trkpt lat="50.56689" lon="3.22481">
        <ele>36.9</ele>
        <time>2020-06-24T08:20:51Z</time>
      </trkpt>
      <trkpt lat="50.56687" lon="3.22491">
        <ele>36.9</ele>
        <time>2020-06-24T08:20:52Z</time>
      </trkpt>
      <trkpt lat="50.56684" lon="3.225">
        <ele>36.9</ele>
        <time>2020-06-24T08:20:53Z</time>
      </trkpt>
      <trkpt lat="50.56682" lon="3.2251">
        <ele>37</ele>
        <time>2020-06-24T08:20:54Z</time>
      </trkpt>
      <trkpt lat="50.56681" lon="3.2252">
        <ele>37</ele>
        <time>2020-06-24T08:20:55Z</time>
      </trkpt>
      <trkpt lat="50.56679" lon="3.2253">
        <ele>37.1</ele>
        <time>2020-06-24T08:20:56Z</time>
      </trkpt>
      <trkpt lat="50.56678" lon="3.2254">
        <ele>37.2</ele>
        <time>2020-06-24T08:20:57Z</time>
      </trkpt>
      <trkpt lat="50.56675" lon="3.2255">
        <ele>37.3</ele>
        <time>2020-06-24T08:20:58Z</time>
      </trkpt>
      <trkpt lat="50.56673" lon="3.22559">
        <ele>37.4</ele>
        <time>2020-06-24T08:20:59Z</time>
      </trkpt>
      <trkpt lat="50.56672" lon="3.22568">
        <ele>37.5</ele>
        <time>2020-06-24T08:21:00Z</time>
      </trkpt>
      <trkpt lat="50.5667" lon="3.22577">
        <ele>37.6</ele>
        <time>2020-06-24T08:21:01Z</time>
      </trkpt>
      <trkpt lat="50.56669" lon="3.22587">
        <ele>37.7</ele>
        <time>2020-06-24T08:21:02Z</time>
      </trkpt>
      <trkpt lat="50.56668" lon="3.22596">
        <ele>37.8</ele>
        <time>2020-06-24T08:21:03Z</time>
      </trkpt>
      <trkpt lat="50.56664" lon="3.22604">
        <ele>38</ele>
        <time>2020-06-24T08:21:04Z</time>
      </trkpt>
      <trkpt lat="50.56663" lon="3.22613">
        <ele>38.1</ele>
        <time>2020-06-24T08:21:05Z</time>
      </trkpt>
      <trkpt lat="50.56661" lon="3.22621">
        <ele>38.2</ele>
        <time>2020-06-24T08:21:06Z</time>
      </trkpt>
      <trkpt lat="50.5666" lon="3.2263">
        <ele>38.3</ele>
        <time>2020-06-24T08:21:07Z</time>
      </trkpt>
      <trkpt lat="50.56658" lon="3.22639">
        <ele>38.5</ele>
        <time>2020-06-24T08:21:08Z</time>
      </trkpt>
      <trkpt lat="50.56658" lon="3.22647">
        <ele>38.6</ele>
        <time>2020-06-24T08:21:09Z</time>
      </trkpt>
      <trkpt lat="50.56659" lon="3.22655">
        <ele>38.7</ele>
        <time>2020-06-24T08:21:10Z</time>
      </trkpt>
      <trkpt lat="50.5666" lon="3.22664">
        <ele>38.9</ele>
        <time>2020-06-24T08:21:11Z</time>
      </trkpt>
      <trkpt lat="50.56662" lon="3.22673">
        <ele>39</ele>
        <time>2020-06-24T08:21:12Z</time>
      </trkpt>
      <trkpt lat="50.56663" lon="3.22681">
        <ele>39.2</ele>
        <time>2020-06-24T08:21:13Z</time>
      </trkpt>
      <trkpt lat="50.56663" lon="3.22689">
        <ele>39.3</ele>
        <time>2020-06-24T08:21:14Z</time>
      </trkpt>
      <trkpt lat="50.56665" lon="3.22697">
        <ele>39.5</ele>
        <time>2020-06-24T08:21:15Z</time>
      </trkpt>
      <trkpt lat="50.56666" lon="3.22705">
        <ele>39.6</ele>
        <time>2020-06-24T08:21:16Z</time>
      </trkpt>
      <trkpt lat="50.56666" lon="3.22713">
        <ele>39.7</ele>
        <time>2020-06-24T08:21:17Z</time>
      </trkpt>
      <trkpt lat="50.56667" lon="3.2272">
        <ele>39.9</ele>
        <time>2020-06-24T08:21:18Z</time>
      </trkpt>
      <trkpt lat="50.56668" lon="3.22728">
        <ele>40</ele>
        <time>2020-06-24T08:21:19Z</time>
      </trkpt>
      <trkpt lat="50.56668" lon="3.22736">
        <ele>40.1</ele>
        <time>2020-06-24T08:21:20Z</time>
      </trkpt>
      <trkpt lat="50.56669" lon="3.22745">
        <ele>40.3</ele>
        <time>2020-06-24T08:21:21Z</time>
      </trkpt>
      <trkpt lat="50.56667" lon="3.22753">
        <ele>40.4</ele>
        <time>2020-06-24T08:21:22Z</time>
      </trkpt>
      <trkpt lat="50.56667" lon="3.22762">
        <ele>40.6</ele>
        <time>2020-06-24T08:21:23Z</time>
      </trkpt>
      <trkpt lat="50.56667" lon="3.2277">
        <ele>40.7</ele>
        <time>2020-06-24T08:21:24Z</time>
      </trkpt>
      <trkpt lat="50.56666" lon="3.22779">
        <ele>40.8</ele>
        <time>2020-06-24T08:21:25Z</time>
      </trkpt>
      <trkpt lat="50.56665" lon="3.22787">
        <ele>40.9</ele>
        <time>2020-06-24T08:21:26Z</time>
      </trkpt>
      <trkpt lat="50.56664" lon="3.22795">
        <ele>41</ele>
        <time>2020-06-24T08:21:27Z</time>
      </trkpt>
      <trkpt lat="50.56663" lon="3.22802">
        <ele>41</ele>
        <time>2020-06-24T08:21:28Z</time>
      </trkpt>
      <trkpt lat="50.56661" lon="3.2281">
        <ele>41.1</ele>
        <time>2020-06-24T08:21:29Z</time>
      </trkpt>
      <trkpt lat="50.56659" lon="3.22818">
        <ele>41.1</ele>
        <time>2020-06-24T08:21:30Z</time>
      </trkpt>
      <trkpt lat="50.56657" lon="3.22826">
        <ele>41.2</ele>
        <time>2020-06-24T08:21:31Z</time>
      </trkpt>
      <trkpt lat="50.56655" lon="3.22833">
        <ele>41.2</ele>
        <time>2020-06-24T08:21:32Z</time>
      </trkpt>
      <trkpt lat="50.56653" lon="3.22841">
        <ele>41.3</ele>
        <time>2020-06-24T08:21:33Z</time>
      </trkpt>
      <trkpt lat="50.56651" lon="3.22848">
        <ele>41.3</ele>
        <time>2020-06-24T08:21:34Z</time>
      </trkpt>
      <trkpt lat="50.56649" lon="3.22856">
        <ele>41.3</ele>
        <time>2020-06-24T08:21:35Z</time>
      </trkpt>
      <trkpt lat="50.56647" lon="3.22864">
        <ele>41.4</ele>
        <time>2020-06-24T08:21:36Z</time>
      </trkpt>
      <trkpt lat="50.56646" lon="3.22873">
        <ele>41.4</ele>
        <time>2020-06-24T08:21:37Z</time>
      </trkpt>
      <trkpt lat="50.56644" lon="3.22883">
        <ele>41.4</ele>
        <time>2020-06-24T08:21:38Z</time>
      </trkpt>
      <trkpt lat="50.56642" lon="3.22892">
        <ele>41.4</ele>
        <time>2020-06-24T08:21:39Z</time>
      </trkpt>
      <trkpt lat="50.5664" lon="3.22901">
        <ele>41.4</ele>
        <time>2020-06-24T08:21:40Z</time>
      </trkpt>
      <trkpt lat="50.56638" lon="3.2291">
        <ele>41.4</ele>
        <time>2020-06-24T08:21:41Z</time>
      </trkpt>
      <trkpt lat="50.56635" lon="3.22919">
        <ele>41.4</ele>
        <time>2020-06-24T08:21:42Z</time>
      </trkpt>
      <trkpt lat="50.56633" lon="3.22926">
        <ele>41.4</ele>
        <time>2020-06-24T08:21:43Z</time>
      </trkpt>
      <trkpt lat="50.56631" lon="3.22934">
        <ele>41.5</ele>
        <time>2020-06-24T08:21:44Z</time>
      </trkpt>
      <trkpt lat="50.56629" lon="3.22943">
        <ele>41.5</ele>
        <time>2020-06-24T08:21:45Z</time>
      </trkpt>
      <trkpt lat="50.56627" lon="3.22951">
        <ele>41.5</ele>
        <time>2020-06-24T08:21:46Z</time>
      </trkpt>
      <trkpt lat="50.56625" lon="3.2296">
        <ele>41.5</ele>
        <time>2020-06-24T08:21:47Z</time>
      </trkpt>
      <trkpt lat="50.56623" lon="3.22969">
        <ele>41.5</ele>
        <time>2020-06-24T08:21:48Z</time>
      </trkpt>
      <trkpt lat="50.56621" lon="3.22979">
        <ele>41.5</ele>
        <time>2020-06-24T08:21:49Z</time>
      </trkpt>
      <trkpt lat="50.56618" lon="3.22986">
        <ele>41.5</ele>
        <time>2020-06-24T08:21:50Z</time>
      </trkpt>
      <trkpt lat="50.56615" lon="3.22995">
        <ele>41.5</ele>
        <time>2020-06-24T08:21:51Z</time>
      </trkpt>
      <trkpt lat="50.56614" lon="3.23004">
        <ele>41.5</ele>
        <time>2020-06-24T08:21:52Z</time>
      </trkpt>
      <trkpt lat="50.56611" lon="3.23012">
        <ele>41.4</ele>
        <time>2020-06-24T08:21:53Z</time>
      </trkpt>
      <trkpt lat="50.56608" lon="3.2302">
        <ele>41.3</ele>
        <time>2020-06-24T08:21:54Z</time>
      </trkpt>
      <trkpt lat="50.56605" lon="3.23029">
        <ele>41.3</ele>
        <time>2020-06-24T08:21:55Z</time>
      </trkpt>
      <trkpt lat="50.56603" lon="3.23038">
        <ele>41.2</ele>
        <time>2020-06-24T08:21:56Z</time>
      </trkpt>
      <trkpt lat="50.566" lon="3.23047">
        <ele>41.1</ele>
        <time>2020-06-24T08:21:57Z</time>
      </trkpt>
      <trkpt lat="50.56598" lon="3.23054">
        <ele>41</ele>
        <time>2020-06-24T08:21:58Z</time>
      </trkpt>
      <trkpt lat="50.56595" lon="3.23064">
        <ele>40.9</ele>
        <time>2020-06-24T08:21:59Z</time>
      </trkpt>
      <trkpt lat="50.56592" lon="3.23072">
        <ele>40.9</ele>
        <time>2020-06-24T08:22:00Z</time>
      </trkpt>
      <trkpt lat="50.5659" lon="3.23082">
        <ele>40.8</ele>
        <time>2020-06-24T08:22:01Z</time>
      </trkpt>
      <trkpt lat="50.56587" lon="3.2309">
        <ele>40.8</ele>
        <time>2020-06-24T08:22:02Z</time>
      </trkpt>
      <trkpt lat="50.56583" lon="3.23099">
        <ele>40.8</ele>
        <time>2020-06-24T08:22:03Z</time>
      </trkpt>
      <trkpt lat="50.5658" lon="3.23109">
        <ele>40.8</ele>
        <time>2020-06-24T08:22:04Z</time>
      </trkpt>
      <trkpt lat="50.56577" lon="3.2312">
        <ele>40.7</ele>
        <time>2020-06-24T08:22:05Z</time>
      </trkpt>
      <trkpt lat="50.56575" lon="3.23127">
        <ele>40.7</ele>
        <time>2020-06-24T08:22:06Z</time>
      </trkpt>
      <trkpt lat="50.56572" lon="3.23135">
        <ele>40.6</ele>
        <time>2020-06-24T08:22:07Z</time>
      </trkpt>
      <trkpt lat="50.56568" lon="3.23142">
        <ele>40.6</ele>
        <time>2020-06-24T08:22:08Z</time>
      </trkpt>
      <trkpt lat="50.56565" lon="3.23152">
        <ele>40.5</ele>
        <time>2020-06-24T08:22:09Z</time>
      </trkpt>
      <trkpt lat="50.56562" lon="3.23163">
        <ele>40.4</ele>
        <time>2020-06-24T08:22:10Z</time>
      </trkpt>
      <trkpt lat="50.56558" lon="3.23174">
        <ele>40.3</ele>
        <time>2020-06-24T08:22:11Z</time>
      </trkpt>
      <trkpt lat="50.56554" lon="3.23184">
        <ele>40.3</ele>
        <time>2020-06-24T08:22:12Z</time>
      </trkpt>
      <trkpt lat="50.56551" lon="3.23195">
        <ele>40.2</ele>
        <time>2020-06-24T08:22:13Z</time>
      </trkpt>
      <trkpt lat="50.56548" lon="3.23205">
        <ele>40.2</ele>
        <time>2020-06-24T08:22:14Z</time>
      </trkpt>
      <trkpt lat="50.56544" lon="3.23215">
        <ele>40.1</ele>
        <time>2020-06-24T08:22:15Z</time>
      </trkpt>
      <trkpt lat="50.56541" lon="3.23225">
        <ele>40.1</ele>
        <time>2020-06-24T08:22:16Z</time>
      </trkpt>
      <trkpt lat="50.56538" lon="3.23235">
        <ele>40.1</ele>
        <time>2020-06-24T08:22:17Z</time>
      </trkpt>
      <trkpt lat="50.56535" lon="3.23244">
        <ele>40.1</ele>
        <time>2020-06-24T08:22:18Z</time>
      </trkpt>
      <trkpt lat="50.56532" lon="3.23252">
        <ele>40.2</ele>
        <time>2020-06-24T08:22:19Z</time>
      </trkpt>
      <trkpt lat="50.56529" lon="3.23261">
        <ele>40.2</ele>
        <time>2020-06-24T08:22:20Z</time>
      </trkpt>
      <trkpt lat="50.56526" lon="3.23269">
        <ele>40.1</ele>
        <time>2020-06-24T08:22:21Z</time>
      </trkpt>
      <trkpt lat="50.56523" lon="3.23277">
        <ele>40.1</ele>
        <time>2020-06-24T08:22:22Z</time>
      </trkpt>
      <trkpt lat="50.5652" lon="3.23286">
        <ele>40.1</ele>
        <time>2020-06-24T08:22:23Z</time>
      </trkpt>
      <trkpt lat="50.56517" lon="3.23294">
        <ele>40.1</ele>
        <time>2020-06-24T08:22:24Z</time>
      </trkpt>
      <trkpt lat="50.56514" lon="3.23302">
        <ele>40.1</ele>
        <time>2020-06-24T08:22:25Z</time>
      </trkpt>
      <trkpt lat="50.56512" lon="3.23311">
        <ele>40.1</ele>
        <time>2020-06-24T08:22:26Z</time>
      </trkpt>
      <trkpt lat="50.56509" lon="3.23319">
        <ele>40.1</ele>
        <time>2020-06-24T08:22:27Z</time>
      </trkpt>
      <trkpt lat="50.56507" lon="3.23328">
        <ele>40.2</ele>
        <time>2020-06-24T08:22:28Z</time>
      </trkpt>
      <trkpt lat="50.56505" lon="3.23336">
        <ele>40.2</ele>
        <time>2020-06-24T08:22:29Z</time>
      </trkpt>
      <trkpt lat="50.56504" lon="3.23346">
        <ele>40.2</ele>
        <time>2020-06-24T08:22:30Z</time>
      </trkpt>
      <trkpt lat="50.56503" lon="3.23356">
        <ele>40.3</ele>
        <time>2020-06-24T08:22:31Z</time>
      </trkpt>
      <trkpt lat="50.56502" lon="3.23366">
        <ele>40.3</ele>
        <time>2020-06-24T08:22:32Z</time>
      </trkpt>
      <trkpt lat="50.56501" lon="3.23377">
        <ele>40.3</ele>
        <time>2020-06-24T08:22:33Z</time>
      </trkpt>
      <trkpt lat="50.56502" lon="3.23387">
        <ele>40.3</ele>
        <time>2020-06-24T08:22:34Z</time>
      </trkpt>
      <trkpt lat="50.56504" lon="3.23397">
        <ele>40.4</ele>
        <time>2020-06-24T08:22:35Z</time>
      </trkpt>
      <trkpt lat="50.56506" lon="3.23407">
        <ele>40.4</ele>
        <time>2020-06-24T08:22:36Z</time>
      </trkpt>
      <trkpt lat="50.56508" lon="3.23418">
        <ele>40.5</ele>
        <time>2020-06-24T08:22:37Z</time>
      </trkpt>
      <trkpt lat="50.56509" lon="3.23428">
        <ele>40.5</ele>
        <time>2020-06-24T08:22:38Z</time>
      </trkpt>
      <trkpt lat="50.56512" lon="3.23438">
        <ele>40.6</ele>
        <time>2020-06-24T08:22:39Z</time>
      </trkpt>
      <trkpt lat="50.56513" lon="3.23447">
        <ele>40.7</ele>
        <time>2020-06-24T08:22:40Z</time>
      </trkpt>
      <trkpt lat="50.56516" lon="3.23456">
        <ele>40.9</ele>
        <time>2020-06-24T08:22:41Z</time>
      </trkpt>
      <trkpt lat="50.56518" lon="3.23466">
        <ele>41</ele>
        <time>2020-06-24T08:22:42Z</time>
      </trkpt>
      <trkpt lat="50.5652" lon="3.23475">
        <ele>41.2</ele>
        <time>2020-06-24T08:22:43Z</time>
      </trkpt>
      <trkpt lat="50.56522" lon="3.23485">
        <ele>41.3</ele>
        <time>2020-06-24T08:22:44Z</time>
      </trkpt>
      <trkpt lat="50.56523" lon="3.23495">
        <ele>41.5</ele>
        <time>2020-06-24T08:22:45Z</time>
      </trkpt>
      <trkpt lat="50.56524" lon="3.23504">
        <ele>41.6</ele>
        <time>2020-06-24T08:22:46Z</time>
      </trkpt>
      <trkpt lat="50.56523" lon="3.23513">
        <ele>41.7</ele>
        <time>2020-06-24T08:22:47Z</time>
      </trkpt>
      <trkpt lat="50.56521" lon="3.23521">
        <ele>41.8</ele>
        <time>2020-06-24T08:22:48Z</time>
      </trkpt>
      <trkpt lat="50.56518" lon="3.23529">
        <ele>41.9</ele>
        <time>2020-06-24T08:22:49Z</time>
      </trkpt>
      <trkpt lat="50.56514" lon="3.23534">
        <ele>42</ele>
        <time>2020-06-24T08:22:50Z</time>
      </trkpt>
      <trkpt lat="50.56509" lon="3.23539">
        <ele>42</ele>
        <time>2020-06-24T08:22:51Z</time>
      </trkpt>
      <trkpt lat="50.56505" lon="3.23544">
        <ele>42</ele>
        <time>2020-06-24T08:22:52Z</time>
      </trkpt>
      <trkpt lat="50.565" lon="3.23548">
        <ele>41.8</ele>
        <time>2020-06-24T08:22:53Z</time>
      </trkpt>
      <trkpt lat="50.56495" lon="3.23551">
        <ele>41.8</ele>
        <time>2020-06-24T08:22:54Z</time>
      </trkpt>
      <trkpt lat="50.5649" lon="3.23557">
        <ele>41.7</ele>
        <time>2020-06-24T08:22:55Z</time>
      </trkpt>
      <trkpt lat="50.56486" lon="3.23561">
        <ele>41.7</ele>
        <time>2020-06-24T08:22:56Z</time>
      </trkpt>
      <trkpt lat="50.56482" lon="3.23567">
        <ele>41.7</ele>
        <time>2020-06-24T08:22:57Z</time>
      </trkpt>
      <trkpt lat="50.56479" lon="3.23573">
        <ele>41.7</ele>
        <time>2020-06-24T08:22:58Z</time>
      </trkpt>
      <trkpt lat="50.56476" lon="3.23578">
        <ele>41.7</ele>
        <time>2020-06-24T08:22:59Z</time>
      </trkpt>
      <trkpt lat="50.56472" lon="3.23583">
        <ele>41.7</ele>
        <time>2020-06-24T08:23:00Z</time>
      </trkpt>
      <trkpt lat="50.56469" lon="3.23587">
        <ele>41.8</ele>
        <time>2020-06-24T08:23:01Z</time>
      </trkpt>
      <trkpt lat="50.56464" lon="3.23591">
        <ele>41.9</ele>
        <time>2020-06-24T08:23:02Z</time>
      </trkpt>
      <trkpt lat="50.56459" lon="3.23595">
        <ele>42</ele>
        <time>2020-06-24T08:23:03Z</time>
      </trkpt>
      <trkpt lat="50.56455" lon="3.236">
        <ele>42.1</ele>
        <time>2020-06-24T08:23:04Z</time>
      </trkpt>
      <trkpt lat="50.5645" lon="3.23606">
        <ele>42.2</ele>
        <time>2020-06-24T08:23:05Z</time>
      </trkpt>
      <trkpt lat="50.56445" lon="3.2361">
        <ele>42.3</ele>
        <time>2020-06-24T08:23:06Z</time>
      </trkpt>
      <trkpt lat="50.5644" lon="3.23616">
        <ele>42.5</ele>
        <time>2020-06-24T08:23:07Z</time>
      </trkpt>
      <trkpt lat="50.56435" lon="3.2362">
        <ele>42.6</ele>
        <time>2020-06-24T08:23:08Z</time>
      </trkpt>
      <trkpt lat="50.56431" lon="3.23625">
        <ele>42.7</ele>
        <time>2020-06-24T08:23:09Z</time>
      </trkpt>
      <trkpt lat="50.56427" lon="3.2363">
        <ele>42.8</ele>
        <time>2020-06-24T08:23:10Z</time>
      </trkpt>
      <trkpt lat="50.56423" lon="3.23635">
        <ele>42.9</ele>
        <time>2020-06-24T08:23:11Z</time>
      </trkpt>
      <trkpt lat="50.56419" lon="3.23639">
        <ele>43.1</ele>
        <time>2020-06-24T08:23:12Z</time>
      </trkpt>
      <trkpt lat="50.56414" lon="3.23642">
        <ele>43.2</ele>
        <time>2020-06-24T08:23:13Z</time>
      </trkpt>
      <trkpt lat="50.56409" lon="3.23646">
        <ele>43.3</ele>
        <time>2020-06-24T08:23:14Z</time>
      </trkpt>
      <trkpt lat="50.56405" lon="3.23651">
        <ele>43.4</ele>
        <time>2020-06-24T08:23:15Z</time>
      </trkpt>
      <trkpt lat="50.564" lon="3.23655">
        <ele>43.6</ele>
        <time>2020-06-24T08:23:16Z</time>
      </trkpt>
      <trkpt lat="50.56396" lon="3.2366">
        <ele>43.7</ele>
        <time>2020-06-24T08:23:17Z</time>
      </trkpt>
      <trkpt lat="50.56391" lon="3.23665">
        <ele>43.9</ele>
        <time>2020-06-24T08:23:18Z</time>
      </trkpt>
      <trkpt lat="50.56387" lon="3.23668">
        <ele>44</ele>
        <time>2020-06-24T08:23:19Z</time>
      </trkpt>
      <trkpt lat="50.56383" lon="3.23672">
        <ele>44.2</ele>
        <time>2020-06-24T08:23:20Z</time>
      </trkpt>
      <trkpt lat="50.56377" lon="3.23677">
        <ele>44.3</ele>
        <time>2020-06-24T08:23:21Z</time>
      </trkpt>
      <trkpt lat="50.56373" lon="3.23681">
        <ele>44.5</ele>
        <time>2020-06-24T08:23:22Z</time>
      </trkpt>
      <trkpt lat="50.56369" lon="3.23685">
        <ele>44.6</ele>
        <time>2020-06-24T08:23:23Z</time>
      </trkpt>
      <trkpt lat="50.56365" lon="3.2369">
        <ele>44.8</ele>
        <time>2020-06-24T08:23:24Z</time>
      </trkpt>
      <trkpt lat="50.56361" lon="3.23694">
        <ele>44.9</ele>
        <time>2020-06-24T08:23:25Z</time>
      </trkpt>
      <trkpt lat="50.56357" lon="3.23698">
        <ele>45.1</ele>
        <time>2020-06-24T08:23:26Z</time>
      </trkpt>
      <trkpt lat="50.56353" lon="3.23702">
        <ele>45.3</ele>
        <time>2020-06-24T08:23:27Z</time>
      </trkpt>
      <trkpt lat="50.56349" lon="3.23706">
        <ele>45.4</ele>
        <time>2020-06-24T08:23:28Z</time>
      </trkpt>
      <trkpt lat="50.56345" lon="3.23709">
        <ele>45.6</ele>
        <time>2020-06-24T08:23:29Z</time>
      </trkpt>
      <trkpt lat="50.5634" lon="3.23713">
        <ele>45.9</ele>
        <time>2020-06-24T08:23:30Z</time>
      </trkpt>
      <trkpt lat="50.56336" lon="3.23717">
        <ele>45.8</ele>
        <time>2020-06-24T08:23:31Z</time>
      </trkpt>
      <trkpt lat="50.56331" lon="3.23721">
        <ele>45.7</ele>
        <time>2020-06-24T08:23:32Z</time>
      </trkpt>
      <trkpt lat="50.56326" lon="3.23725">
        <ele>45.6</ele>
        <time>2020-06-24T08:23:33Z</time>
      </trkpt>
      <trkpt lat="50.56321" lon="3.23731">
        <ele>45.5</ele>
        <time>2020-06-24T08:23:34Z</time>
      </trkpt>
      <trkpt lat="50.56317" lon="3.23734">
        <ele>45.5</ele>
        <time>2020-06-24T08:23:35Z</time>
      </trkpt>
      <trkpt lat="50.56313" lon="3.23739">
        <ele>45.4</ele>
        <time>2020-06-24T08:23:36Z</time>
      </trkpt>
      <trkpt lat="50.56308" lon="3.23744">
        <ele>45.3</ele>
        <time>2020-06-24T08:23:37Z</time>
      </trkpt>
      <trkpt lat="50.56305" lon="3.23747">
        <ele>45.3</ele>
        <time>2020-06-24T08:23:38Z</time>
      </trkpt>
      <trkpt lat="50.56297" lon="3.2375">
        <ele>45.2</ele>
        <time>2020-06-24T08:23:39Z</time>
      </trkpt>
      <trkpt lat="50.56293" lon="3.23754">
        <ele>45.1</ele>
        <time>2020-06-24T08:23:40Z</time>
      </trkpt>
      <trkpt lat="50.56289" lon="3.23758">
        <ele>45</ele>
        <time>2020-06-24T08:23:41Z</time>
      </trkpt>
      <trkpt lat="50.56285" lon="3.23763">
        <ele>44.8</ele>
        <time>2020-06-24T08:23:42Z</time>
      </trkpt>
      <trkpt lat="50.5628" lon="3.23768">
        <ele>44.7</ele>
        <time>2020-06-24T08:23:43Z</time>
      </trkpt>
      <trkpt lat="50.56275" lon="3.23771">
        <ele>44.5</ele>
        <time>2020-06-24T08:23:44Z</time>
      </trkpt>
      <trkpt lat="50.5627" lon="3.23776">
        <ele>44.3</ele>
        <time>2020-06-24T08:23:45Z</time>
      </trkpt>
      <trkpt lat="50.56265" lon="3.2378">
        <ele>44</ele>
        <time>2020-06-24T08:23:46Z</time>
      </trkpt>
      <trkpt lat="50.5626" lon="3.23783">
        <ele>43.8</ele>
        <time>2020-06-24T08:23:47Z</time>
      </trkpt>
      <trkpt lat="50.56254" lon="3.23787">
        <ele>43.5</ele>
        <time>2020-06-24T08:23:48Z</time>
      </trkpt>
      <trkpt lat="50.56249" lon="3.2379">
        <ele>43.3</ele>
        <time>2020-06-24T08:23:49Z</time>
      </trkpt>
      <trkpt lat="50.56243" lon="3.23793">
        <ele>43.1</ele>
        <time>2020-06-24T08:23:50Z</time>
      </trkpt>
      <trkpt lat="50.56237" lon="3.23797">
        <ele>42.8</ele>
        <time>2020-06-24T08:23:51Z</time>
      </trkpt>
      <trkpt lat="50.5623" lon="3.23799">
        <ele>42.6</ele>
        <time>2020-06-24T08:23:52Z</time>
      </trkpt>
      <trkpt lat="50.56222" lon="3.23802">
        <ele>42.3</ele>
        <time>2020-06-24T08:23:53Z</time>
      </trkpt>
      <trkpt lat="50.56215" lon="3.23804">
        <ele>42.1</ele>
        <time>2020-06-24T08:23:54Z</time>
      </trkpt>
      <trkpt lat="50.56207" lon="3.23807">
        <ele>41.8</ele>
        <time>2020-06-24T08:23:55Z</time>
      </trkpt>
      <trkpt lat="50.56201" lon="3.23808">
        <ele>41.6</ele>
        <time>2020-06-24T08:23:56Z</time>
      </trkpt>
      <trkpt lat="50.56194" lon="3.23811">
        <ele>41.3</ele>
        <time>2020-06-24T08:23:57Z</time>
      </trkpt>
      <trkpt lat="50.56186" lon="3.23814">
        <ele>41</ele>
        <time>2020-06-24T08:23:58Z</time>
      </trkpt>
      <trkpt lat="50.56178" lon="3.23818">
        <ele>40.1</ele>
        <time>2020-06-24T08:23:59Z</time>
      </trkpt>
      <trkpt lat="50.56171" lon="3.23821">
        <ele>39.7</ele>
        <time>2020-06-24T08:24:00Z</time>
      </trkpt>
      <trkpt lat="50.56163" lon="3.23824">
        <ele>39.2</ele>
        <time>2020-06-24T08:24:01Z</time>
      </trkpt>
      <trkpt lat="50.56155" lon="3.23829">
        <ele>38.3</ele>
        <time>2020-06-24T08:24:02Z</time>
      </trkpt>
      <trkpt lat="50.56148" lon="3.23832">
        <ele>38.1</ele>
        <time>2020-06-24T08:24:03Z</time>
      </trkpt>
      <trkpt lat="50.56141" lon="3.23837">
        <ele>38</ele>
        <time>2020-06-24T08:24:04Z</time>
      </trkpt>
      <trkpt lat="50.56134" lon="3.23842">
        <ele>37.7</ele>
        <time>2020-06-24T08:24:05Z</time>
      </trkpt>
      <trkpt lat="50.56125" lon="3.23849">
        <ele>37.3</ele>
        <time>2020-06-24T08:24:06Z</time>
      </trkpt>
      <trkpt lat="50.56117" lon="3.23855">
        <ele>36.9</ele>
        <time>2020-06-24T08:24:07Z</time>
      </trkpt>
      <trkpt lat="50.56109" lon="3.23862">
        <ele>36.4</ele>
        <time>2020-06-24T08:24:08Z</time>
      </trkpt>
      <trkpt lat="50.561" lon="3.23867">
        <ele>36</ele>
        <time>2020-06-24T08:24:09Z</time>
      </trkpt>
      <trkpt lat="50.56091" lon="3.23871">
        <ele>35.6</ele>
        <time>2020-06-24T08:24:10Z</time>
      </trkpt>
      <trkpt lat="50.56083" lon="3.23875">
        <ele>35.2</ele>
        <time>2020-06-24T08:24:11Z</time>
      </trkpt>
      <trkpt lat="50.56074" lon="3.23879">
        <ele>35</ele>
        <time>2020-06-24T08:24:12Z</time>
      </trkpt>
      <trkpt lat="50.56065" lon="3.23879">
        <ele>35</ele>
        <time>2020-06-24T08:24:13Z</time>
      </trkpt>
      <trkpt lat="50.56056" lon="3.23879">
        <ele>34.9</ele>
        <time>2020-06-24T08:24:14Z</time>
      </trkpt>
      <trkpt lat="50.56046" lon="3.23877">
        <ele>34.8</ele>
        <time>2020-06-24T08:24:15Z</time>
      </trkpt>
      <trkpt lat="50.56037" lon="3.23876">
        <ele>34.6</ele>
        <time>2020-06-24T08:24:16Z</time>
      </trkpt>
      <trkpt lat="50.56028" lon="3.23873">
        <ele>34.4</ele>
        <time>2020-06-24T08:24:17Z</time>
      </trkpt>
      <trkpt lat="50.5602" lon="3.23871">
        <ele>34.3</ele>
        <time>2020-06-24T08:24:18Z</time>
      </trkpt>
      <trkpt lat="50.56011" lon="3.23867">
        <ele>34.1</ele>
        <time>2020-06-24T08:24:19Z</time>
      </trkpt>
      <trkpt lat="50.56003" lon="3.23863">
        <ele>34</ele>
        <time>2020-06-24T08:24:20Z</time>
      </trkpt>
      <trkpt lat="50.55995" lon="3.2386">
        <ele>33.9</ele>
        <time>2020-06-24T08:24:21Z</time>
      </trkpt>
      <trkpt lat="50.55986" lon="3.23856">
        <ele>33.8</ele>
        <time>2020-06-24T08:24:22Z</time>
      </trkpt>
      <trkpt lat="50.55978" lon="3.23853">
        <ele>33.8</ele>
        <time>2020-06-24T08:24:23Z</time>
      </trkpt>
      <trkpt lat="50.55971" lon="3.2385">
        <ele>33.7</ele>
        <time>2020-06-24T08:24:24Z</time>
      </trkpt>
      <trkpt lat="50.55963" lon="3.23846">
        <ele>33.7</ele>
        <time>2020-06-24T08:24:25Z</time>
      </trkpt>
      <trkpt lat="50.55956" lon="3.23843">
        <ele>33.7</ele>
        <time>2020-06-24T08:24:26Z</time>
      </trkpt>
      <trkpt lat="50.55949" lon="3.23842">
        <ele>33.8</ele>
        <time>2020-06-24T08:24:27Z</time>
      </trkpt>
      <trkpt lat="50.55941" lon="3.23842">
        <ele>33.8</ele>
        <time>2020-06-24T08:24:28Z</time>
      </trkpt>
      <trkpt lat="50.55934" lon="3.23843">
        <ele>33.9</ele>
        <time>2020-06-24T08:24:29Z</time>
      </trkpt>
      <trkpt lat="50.55927" lon="3.23843">
        <ele>33.9</ele>
        <time>2020-06-24T08:24:30Z</time>
      </trkpt>
      <trkpt lat="50.55921" lon="3.23846">
        <ele>34.8</ele>
        <time>2020-06-24T08:24:31Z</time>
      </trkpt>
      <trkpt lat="50.55914" lon="3.23849">
        <ele>35</ele>
        <time>2020-06-24T08:24:32Z</time>
      </trkpt>
      <trkpt lat="50.55907" lon="3.23851">
        <ele>35.1</ele>
        <time>2020-06-24T08:24:33Z</time>
      </trkpt>
      <trkpt lat="50.559" lon="3.23855">
        <ele>35</ele>
        <time>2020-06-24T08:24:34Z</time>
      </trkpt>
      <trkpt lat="50.55893" lon="3.23859">
        <ele>35</ele>
        <time>2020-06-24T08:24:35Z</time>
      </trkpt>
      <trkpt lat="50.55886" lon="3.23864">
        <ele>34.9</ele>
        <time>2020-06-24T08:24:36Z</time>
      </trkpt>
      <trkpt lat="50.55881" lon="3.23869">
        <ele>34.9</ele>
        <time>2020-06-24T08:24:37Z</time>
      </trkpt>
      <trkpt lat="50.55875" lon="3.23876">
        <ele>34.9</ele>
        <time>2020-06-24T08:24:38Z</time>
      </trkpt>
      <trkpt lat="50.5587" lon="3.23882">
        <ele>34.9</ele>
        <time>2020-06-24T08:24:39Z</time>
      </trkpt>
      <trkpt lat="50.55864" lon="3.23888">
        <ele>34.9</ele>
        <time>2020-06-24T08:24:40Z</time>
      </trkpt>
      <trkpt lat="50.55859" lon="3.23894">
        <ele>34.9</ele>
        <time>2020-06-24T08:24:41Z</time>
      </trkpt>
      <trkpt lat="50.55854" lon="3.239">
        <ele>34.9</ele>
        <time>2020-06-24T08:24:42Z</time>
      </trkpt>
      <trkpt lat="50.55848" lon="3.23907">
        <ele>34.9</ele>
        <time>2020-06-24T08:24:43Z</time>
      </trkpt>
      <trkpt lat="50.55843" lon="3.23913">
        <ele>34.9</ele>
        <time>2020-06-24T08:24:44Z</time>
      </trkpt>
      <trkpt lat="50.55838" lon="3.23919">
        <ele>35</ele>
        <time>2020-06-24T08:24:45Z</time>
      </trkpt>
      <trkpt lat="50.55833" lon="3.23926">
        <ele>35</ele>
        <time>2020-06-24T08:24:46Z</time>
      </trkpt>
      <trkpt lat="50.55828" lon="3.23931">
        <ele>35</ele>
        <time>2020-06-24T08:24:47Z</time>
      </trkpt>
      <trkpt lat="50.55823" lon="3.23937">
        <ele>35.1</ele>
        <time>2020-06-24T08:24:48Z</time>
      </trkpt>
      <trkpt lat="50.55818" lon="3.23943">
        <ele>35.2</ele>
        <time>2020-06-24T08:24:49Z</time>
      </trkpt>
      <trkpt lat="50.55813" lon="3.23948">
        <ele>35.2</ele>
        <time>2020-06-24T08:24:50Z</time>
      </trkpt>
      <trkpt lat="50.55807" lon="3.23954">
        <ele>35.3</ele>
        <time>2020-06-24T08:24:51Z</time>
      </trkpt>
      <trkpt lat="50.55802" lon="3.23959">
        <ele>35.4</ele>
        <time>2020-06-24T08:24:52Z</time>
      </trkpt>
      <trkpt lat="50.55798" lon="3.23966">
        <ele>35.5</ele>
        <time>2020-06-24T08:24:53Z</time>
      </trkpt>
      <trkpt lat="50.55794" lon="3.23971">
        <ele>35.5</ele>
        <time>2020-06-24T08:24:54Z</time>
      </trkpt>
      <trkpt lat="50.55789" lon="3.23976">
        <ele>35.5</ele>
        <time>2020-06-24T08:24:55Z</time>
      </trkpt>
      <trkpt lat="50.55785" lon="3.2398">
        <ele>35.5</ele>
        <time>2020-06-24T08:24:56Z</time>
      </trkpt>
      <trkpt lat="50.5578" lon="3.23985">
        <ele>35.6</ele>
        <time>2020-06-24T08:24:57Z</time>
      </trkpt>
      <trkpt lat="50.55776" lon="3.2399">
        <ele>35.7</ele>
        <time>2020-06-24T08:24:58Z</time>
      </trkpt>
      <trkpt lat="50.55772" lon="3.23995">
        <ele>35.8</ele>
        <time>2020-06-24T08:24:59Z</time>
      </trkpt>
      <trkpt lat="50.55768" lon="3.24001">
        <ele>36</ele>
        <time>2020-06-24T08:25:00Z</time>
      </trkpt>
      <trkpt lat="50.55763" lon="3.24006">
        <ele>36.1</ele>
        <time>2020-06-24T08:25:01Z</time>
      </trkpt>
      <trkpt lat="50.55759" lon="3.24011">
        <ele>36.3</ele>
        <time>2020-06-24T08:25:02Z</time>
      </trkpt>
      <trkpt lat="50.55755" lon="3.24017">
        <ele>36.4</ele>
        <time>2020-06-24T08:25:03Z</time>
      </trkpt>
      <trkpt lat="50.5575" lon="3.24023">
        <ele>36.6</ele>
        <time>2020-06-24T08:25:04Z</time>
      </trkpt>
      <trkpt lat="50.55746" lon="3.24029">
        <ele>36.8</ele>
        <time>2020-06-24T08:25:05Z</time>
      </trkpt>
      <trkpt lat="50.55742" lon="3.24035">
        <ele>36.9</ele>
        <time>2020-06-24T08:25:06Z</time>
      </trkpt>
      <trkpt lat="50.55738" lon="3.24041">
        <ele>37.1</ele>
        <time>2020-06-24T08:25:07Z</time>
      </trkpt>
      <trkpt lat="50.55735" lon="3.24047">
        <ele>37.2</ele>
        <time>2020-06-24T08:25:08Z</time>
      </trkpt>
      <trkpt lat="50.55732" lon="3.24055">
        <ele>37.4</ele>
        <time>2020-06-24T08:25:09Z</time>
      </trkpt>
      <trkpt lat="50.55728" lon="3.24063">
        <ele>37.6</ele>
        <time>2020-06-24T08:25:10Z</time>
      </trkpt>
      <trkpt lat="50.55725" lon="3.24069">
        <ele>37.8</ele>
        <time>2020-06-24T08:25:11Z</time>
      </trkpt>
      <trkpt lat="50.55723" lon="3.24076">
        <ele>37.9</ele>
        <time>2020-06-24T08:25:12Z</time>
      </trkpt>
      <trkpt lat="50.5572" lon="3.24082">
        <ele>38.1</ele>
        <time>2020-06-24T08:25:13Z</time>
      </trkpt>
      <trkpt lat="50.55717" lon="3.2409">
        <ele>38.3</ele>
        <time>2020-06-24T08:25:14Z</time>
      </trkpt>
      <trkpt lat="50.55715" lon="3.24097">
        <ele>38.4</ele>
        <time>2020-06-24T08:25:15Z</time>
      </trkpt>
      <trkpt lat="50.55713" lon="3.24105">
        <ele>38.6</ele>
        <time>2020-06-24T08:25:16Z</time>
      </trkpt>
      <trkpt lat="50.55712" lon="3.24112">
        <ele>38.8</ele>
        <time>2020-06-24T08:25:17Z</time>
      </trkpt>
      <trkpt lat="50.5571" lon="3.2412">
        <ele>39</ele>
        <time>2020-06-24T08:25:18Z</time>
      </trkpt>
      <trkpt lat="50.55708" lon="3.24127">
        <ele>39.2</ele>
        <time>2020-06-24T08:25:19Z</time>
      </trkpt>
      <trkpt lat="50.55706" lon="3.24136">
        <ele>39.4</ele>
        <time>2020-06-24T08:25:20Z</time>
      </trkpt>
      <trkpt lat="50.55704" lon="3.24143">
        <ele>39.5</ele>
        <time>2020-06-24T08:25:21Z</time>
      </trkpt>
      <trkpt lat="50.55702" lon="3.2415">
        <ele>39.7</ele>
        <time>2020-06-24T08:25:22Z</time>
      </trkpt>
      <trkpt lat="50.557" lon="3.24158">
        <ele>39.9</ele>
        <time>2020-06-24T08:25:23Z</time>
      </trkpt>
      <trkpt lat="50.55698" lon="3.24165">
        <ele>40</ele>
        <time>2020-06-24T08:25:24Z</time>
      </trkpt>
      <trkpt lat="50.55696" lon="3.24172">
        <ele>40.2</ele>
        <time>2020-06-24T08:25:25Z</time>
      </trkpt>
      <trkpt lat="50.55695" lon="3.24178">
        <ele>40.3</ele>
        <time>2020-06-24T08:25:26Z</time>
      </trkpt>
      <trkpt lat="50.55693" lon="3.24184">
        <ele>40.4</ele>
        <time>2020-06-24T08:25:27Z</time>
      </trkpt>
      <trkpt lat="50.55692" lon="3.2419">
        <ele>40.5</ele>
        <time>2020-06-24T08:25:28Z</time>
      </trkpt>
      <trkpt lat="50.55689" lon="3.24198">
        <ele>40.7</ele>
        <time>2020-06-24T08:25:29Z</time>
      </trkpt>
      <trkpt lat="50.55687" lon="3.24207">
        <ele>40.8</ele>
        <time>2020-06-24T08:25:30Z</time>
      </trkpt>
      <trkpt lat="50.55686" lon="3.24213">
        <ele>40.9</ele>
        <time>2020-06-24T08:25:31Z</time>
      </trkpt>
      <trkpt lat="50.55684" lon="3.24219">
        <ele>41</ele>
        <time>2020-06-24T08:25:32Z</time>
      </trkpt>
      <trkpt lat="50.55683" lon="3.24226">
        <ele>41.1</ele>
        <time>2020-06-24T08:25:33Z</time>
      </trkpt>
      <trkpt lat="50.55682" lon="3.24231">
        <ele>41.2</ele>
        <time>2020-06-24T08:25:34Z</time>
      </trkpt>
      <trkpt lat="50.5568" lon="3.24236">
        <ele>41.3</ele>
        <time>2020-06-24T08:25:35Z</time>
      </trkpt>
      <trkpt lat="50.55678" lon="3.24241">
        <ele>41.4</ele>
        <time>2020-06-24T08:25:36Z</time>
      </trkpt>
      <trkpt lat="50.55676" lon="3.24246">
        <ele>41.5</ele>
        <time>2020-06-24T08:25:37Z</time>
      </trkpt>
      <trkpt lat="50.55673" lon="3.24253">
        <ele>41.6</ele>
        <time>2020-06-24T08:25:38Z</time>
      </trkpt>
      <trkpt lat="50.55671" lon="3.2426">
        <ele>41.7</ele>
        <time>2020-06-24T08:25:39Z</time>
      </trkpt>
      <trkpt lat="50.55669" lon="3.24268">
        <ele>41.8</ele>
        <time>2020-06-24T08:25:40Z</time>
      </trkpt>
      <trkpt lat="50.55666" lon="3.24275">
        <ele>41.9</ele>
        <time>2020-06-24T08:25:41Z</time>
      </trkpt>
      <trkpt lat="50.55663" lon="3.24281">
        <ele>42</ele>
        <time>2020-06-24T08:25:42Z</time>
      </trkpt>
      <trkpt lat="50.55661" lon="3.24287">
        <ele>42.1</ele>
        <time>2020-06-24T08:25:43Z</time>
      </trkpt>
      <trkpt lat="50.55659" lon="3.24292">
        <ele>42.2</ele>
        <time>2020-06-24T08:25:44Z</time>
      </trkpt>
      <trkpt lat="50.55656" lon="3.24298">
        <ele>42.3</ele>
        <time>2020-06-24T08:25:45Z</time>
      </trkpt>
      <trkpt lat="50.55653" lon="3.24303">
        <ele>42.4</ele>
        <time>2020-06-24T08:25:46Z</time>
      </trkpt>
      <trkpt lat="50.55649" lon="3.24309">
        <ele>42.5</ele>
        <time>2020-06-24T08:25:47Z</time>
      </trkpt>
      <trkpt lat="50.55646" lon="3.24316">
        <ele>42.6</ele>
        <time>2020-06-24T08:25:48Z</time>
      </trkpt>
      <trkpt lat="50.55642" lon="3.24324">
        <ele>42.8</ele>
        <time>2020-06-24T08:25:49Z</time>
      </trkpt>
      <trkpt lat="50.55638" lon="3.2433">
        <ele>43</ele>
        <time>2020-06-24T08:25:50Z</time>
      </trkpt>
      <trkpt lat="50.55634" lon="3.24336">
        <ele>43.1</ele>
        <time>2020-06-24T08:25:51Z</time>
      </trkpt>
      <trkpt lat="50.5563" lon="3.24342">
        <ele>43.2</ele>
        <time>2020-06-24T08:25:52Z</time>
      </trkpt>
      <trkpt lat="50.55626" lon="3.24347">
        <ele>43.3</ele>
        <time>2020-06-24T08:25:53Z</time>
      </trkpt>
      <trkpt lat="50.55622" lon="3.24352">
        <ele>43.4</ele>
        <time>2020-06-24T08:25:54Z</time>
      </trkpt>
      <trkpt lat="50.5562" lon="3.24356">
        <ele>43.4</ele>
        <time>2020-06-24T08:25:55Z</time>
      </trkpt>
      <trkpt lat="50.55615" lon="3.24364">
        <ele>43.6</ele>
        <time>2020-06-24T08:25:56Z</time>
      </trkpt>
      <trkpt lat="50.5561" lon="3.2437">
        <ele>43.7</ele>
        <time>2020-06-24T08:25:57Z</time>
      </trkpt>
      <trkpt lat="50.55607" lon="3.24374">
        <ele>43.9</ele>
        <time>2020-06-24T08:25:58Z</time>
      </trkpt>
      <trkpt lat="50.55603" lon="3.24379">
        <ele>44</ele>
        <time>2020-06-24T08:25:59Z</time>
      </trkpt>
      <trkpt lat="50.55599" lon="3.24384">
        <ele>44.1</ele>
        <time>2020-06-24T08:26:00Z</time>
      </trkpt>
      <trkpt lat="50.55596" lon="3.24391">
        <ele>44.2</ele>
        <time>2020-06-24T08:26:01Z</time>
      </trkpt>
      <trkpt lat="50.55593" lon="3.24398">
        <ele>44.4</ele>
        <time>2020-06-24T08:26:02Z</time>
      </trkpt>
      <trkpt lat="50.55591" lon="3.24401">
        <ele>44.4</ele>
        <time>2020-06-24T08:26:03Z</time>
      </trkpt>
      <trkpt lat="50.55588" lon="3.24408">
        <ele>44.5</ele>
        <time>2020-06-24T08:26:04Z</time>
      </trkpt>
      <trkpt lat="50.55584" lon="3.24413">
        <ele>44.6</ele>
        <time>2020-06-24T08:26:05Z</time>
      </trkpt>
      <trkpt lat="50.55582" lon="3.24418">
        <ele>44.7</ele>
        <time>2020-06-24T08:26:06Z</time>
      </trkpt>
      <trkpt lat="50.55578" lon="3.24424">
        <ele>44.8</ele>
        <time>2020-06-24T08:26:07Z</time>
      </trkpt>
      <trkpt lat="50.55575" lon="3.24428">
        <ele>44.9</ele>
        <time>2020-06-24T08:26:08Z</time>
      </trkpt>
      <trkpt lat="50.55572" lon="3.24436">
        <ele>45</ele>
        <time>2020-06-24T08:26:09Z</time>
      </trkpt>
      <trkpt lat="50.55569" lon="3.24442">
        <ele>45</ele>
        <time>2020-06-24T08:26:10Z</time>
      </trkpt>
      <trkpt lat="50.55567" lon="3.24447">
        <ele>45.1</ele>
        <time>2020-06-24T08:26:11Z</time>
      </trkpt>
      <trkpt lat="50.55564" lon="3.24452">
        <ele>45.2</ele>
        <time>2020-06-24T08:26:12Z</time>
      </trkpt>
      <trkpt lat="50.55562" lon="3.24457">
        <ele>45.2</ele>
        <time>2020-06-24T08:26:13Z</time>
      </trkpt>
      <trkpt lat="50.55558" lon="3.24463">
        <ele>45.3</ele>
        <time>2020-06-24T08:26:14Z</time>
      </trkpt>
      <trkpt lat="50.55556" lon="3.24469">
        <ele>45.4</ele>
        <time>2020-06-24T08:26:15Z</time>
      </trkpt>
      <trkpt lat="50.55553" lon="3.24475">
        <ele>45.5</ele>
        <time>2020-06-24T08:26:16Z</time>
      </trkpt>
      <trkpt lat="50.55551" lon="3.24481">
        <ele>45.6</ele>
        <time>2020-06-24T08:26:17Z</time>
      </trkpt>
      <trkpt lat="50.55549" lon="3.24487">
        <ele>45.7</ele>
        <time>2020-06-24T08:26:18Z</time>
      </trkpt>
      <trkpt lat="50.55547" lon="3.24493">
        <ele>45.8</ele>
        <time>2020-06-24T08:26:19Z</time>
      </trkpt>
      <trkpt lat="50.55545" lon="3.24499">
        <ele>45.9</ele>
        <time>2020-06-24T08:26:20Z</time>
      </trkpt>
      <trkpt lat="50.55543" lon="3.24506">
        <ele>46</ele>
        <time>2020-06-24T08:26:21Z</time>
      </trkpt>
      <trkpt lat="50.5554" lon="3.24513">
        <ele>46.1</ele>
        <time>2020-06-24T08:26:22Z</time>
      </trkpt>
      <trkpt lat="50.55539" lon="3.24517">
        <ele>46.2</ele>
        <time>2020-06-24T08:26:23Z</time>
      </trkpt>
      <trkpt lat="50.55536" lon="3.24524">
        <ele>46.3</ele>
        <time>2020-06-24T08:26:24Z</time>
      </trkpt>
      <trkpt lat="50.55535" lon="3.24531">
        <ele>46.4</ele>
        <time>2020-06-24T08:26:25Z</time>
      </trkpt>
      <trkpt lat="50.55533" lon="3.24538">
        <ele>46.5</ele>
        <time>2020-06-24T08:26:26Z</time>
      </trkpt>
      <trkpt lat="50.55531" lon="3.24544">
        <ele>46.6</ele>
        <time>2020-06-24T08:26:27Z</time>
      </trkpt>
      <trkpt lat="50.55528" lon="3.24549">
        <ele>46.7</ele>
        <time>2020-06-24T08:26:28Z</time>
      </trkpt>
      <trkpt lat="50.55526" lon="3.24553">
        <ele>46.8</ele>
        <time>2020-06-24T08:26:29Z</time>
      </trkpt>
      <trkpt lat="50.55524" lon="3.24558">
        <ele>46.9</ele>
        <time>2020-06-24T08:26:30Z</time>
      </trkpt>
      <trkpt lat="50.55523" lon="3.24563">
        <ele>47</ele>
        <time>2020-06-24T08:26:31Z</time>
      </trkpt>
      <trkpt lat="50.55521" lon="3.24569">
        <ele>47.1</ele>
        <time>2020-06-24T08:26:32Z</time>
      </trkpt>
      <trkpt lat="50.5552" lon="3.24574">
        <ele>47.2</ele>
        <time>2020-06-24T08:26:33Z</time>
      </trkpt>
      <trkpt lat="50.55518" lon="3.24581">
        <ele>47.4</ele>
        <time>2020-06-24T08:26:34Z</time>
      </trkpt>
      <trkpt lat="50.55515" lon="3.24589">
        <ele>47.5</ele>
        <time>2020-06-24T08:26:35Z</time>
      </trkpt>
      <trkpt lat="50.55513" lon="3.24596">
        <ele>47.7</ele>
        <time>2020-06-24T08:26:36Z</time>
      </trkpt>
      <trkpt lat="50.5551" lon="3.24603">
        <ele>47.8</ele>
        <time>2020-06-24T08:26:37Z</time>
      </trkpt>
      <trkpt lat="50.55507" lon="3.2461">
        <ele>48</ele>
        <time>2020-06-24T08:26:38Z</time>
      </trkpt>
      <trkpt lat="50.55505" lon="3.24617">
        <ele>48.2</ele>
        <time>2020-06-24T08:26:39Z</time>
      </trkpt>
      <trkpt lat="50.55502" lon="3.24623">
        <ele>48.3</ele>
        <time>2020-06-24T08:26:40Z</time>
      </trkpt>
      <trkpt lat="50.555" lon="3.24628">
        <ele>48.4</ele>
        <time>2020-06-24T08:26:41Z</time>
      </trkpt>
      <trkpt lat="50.55498" lon="3.24635">
        <ele>48.6</ele>
        <time>2020-06-24T08:26:42Z</time>
      </trkpt>
      <trkpt lat="50.55495" lon="3.24641">
        <ele>48.7</ele>
        <time>2020-06-24T08:26:43Z</time>
      </trkpt>
      <trkpt lat="50.55493" lon="3.24647">
        <ele>48.8</ele>
        <time>2020-06-24T08:26:44Z</time>
      </trkpt>
      <trkpt lat="50.5549" lon="3.24654">
        <ele>49</ele>
        <time>2020-06-24T08:26:45Z</time>
      </trkpt>
      <trkpt lat="50.55488" lon="3.24661">
        <ele>49.2</ele>
        <time>2020-06-24T08:26:46Z</time>
      </trkpt>
      <trkpt lat="50.55485" lon="3.24669">
        <ele>49.3</ele>
        <time>2020-06-24T08:26:47Z</time>
      </trkpt>
      <trkpt lat="50.55483" lon="3.24675">
        <ele>49.5</ele>
        <time>2020-06-24T08:26:48Z</time>
      </trkpt>
      <trkpt lat="50.5548" lon="3.24682">
        <ele>49.7</ele>
        <time>2020-06-24T08:26:49Z</time>
      </trkpt>
      <trkpt lat="50.55477" lon="3.2469">
        <ele>49.9</ele>
        <time>2020-06-24T08:26:50Z</time>
      </trkpt>
      <trkpt lat="50.55474" lon="3.24697">
        <ele>50.1</ele>
        <time>2020-06-24T08:26:51Z</time>
      </trkpt>
      <trkpt lat="50.55471" lon="3.24704">
        <ele>50.3</ele>
        <time>2020-06-24T08:26:52Z</time>
      </trkpt>
      <trkpt lat="50.55468" lon="3.2471">
        <ele>50.5</ele>
        <time>2020-06-24T08:26:53Z</time>
      </trkpt>
      <trkpt lat="50.55466" lon="3.24717">
        <ele>50.7</ele>
        <time>2020-06-24T08:26:54Z</time>
      </trkpt>
      <trkpt lat="50.55463" lon="3.24724">
        <ele>50.9</ele>
        <time>2020-06-24T08:26:55Z</time>
      </trkpt>
      <trkpt lat="50.55461" lon="3.24729">
        <ele>51.1</ele>
        <time>2020-06-24T08:26:56Z</time>
      </trkpt>
      <trkpt lat="50.55459" lon="3.24736">
        <ele>51.3</ele>
        <time>2020-06-24T08:26:57Z</time>
      </trkpt>
      <trkpt lat="50.55456" lon="3.24742">
        <ele>51.5</ele>
        <time>2020-06-24T08:26:58Z</time>
      </trkpt>
      <trkpt lat="50.55453" lon="3.24748">
        <ele>51.7</ele>
        <time>2020-06-24T08:26:59Z</time>
      </trkpt>
      <trkpt lat="50.55451" lon="3.24754">
        <ele>51.8</ele>
        <time>2020-06-24T08:27:00Z</time>
      </trkpt>
      <trkpt lat="50.55448" lon="3.24761">
        <ele>52</ele>
        <time>2020-06-24T08:27:01Z</time>
      </trkpt>
      <trkpt lat="50.55446" lon="3.24768">
        <ele>52.2</ele>
        <time>2020-06-24T08:27:02Z</time>
      </trkpt>
      <trkpt lat="50.55443" lon="3.24774">
        <ele>52.4</ele>
        <time>2020-06-24T08:27:03Z</time>
      </trkpt>
      <trkpt lat="50.55441" lon="3.2478">
        <ele>52.6</ele>
        <time>2020-06-24T08:27:04Z</time>
      </trkpt>
      <trkpt lat="50.5544" lon="3.24785">
        <ele>52.7</ele>
        <time>2020-06-24T08:27:05Z</time>
      </trkpt>
      <trkpt lat="50.55439" lon="3.24792">
        <ele>52.9</ele>
        <time>2020-06-24T08:27:06Z</time>
      </trkpt>
      <trkpt lat="50.55438" lon="3.24798">
        <ele>53.1</ele>
        <time>2020-06-24T08:27:07Z</time>
      </trkpt>
      <trkpt lat="50.55436" lon="3.24804">
        <ele>53.3</ele>
        <time>2020-06-24T08:27:08Z</time>
      </trkpt>
      <trkpt lat="50.55434" lon="3.24809">
        <ele>53.4</ele>
        <time>2020-06-24T08:27:09Z</time>
      </trkpt>
      <trkpt lat="50.55433" lon="3.24815">
        <ele>53.6</ele>
        <time>2020-06-24T08:27:10Z</time>
      </trkpt>
      <trkpt lat="50.55431" lon="3.24821">
        <ele>53.7</ele>
        <time>2020-06-24T08:27:11Z</time>
      </trkpt>
      <trkpt lat="50.55429" lon="3.24827">
        <ele>53.9</ele>
        <time>2020-06-24T08:27:12Z</time>
      </trkpt>
      <trkpt lat="50.55427" lon="3.24832">
        <ele>54</ele>
        <time>2020-06-24T08:27:13Z</time>
      </trkpt>
      <trkpt lat="50.55425" lon="3.24837">
        <ele>54.2</ele>
        <time>2020-06-24T08:27:14Z</time>
      </trkpt>
      <trkpt lat="50.55423" lon="3.24843">
        <ele>54.4</ele>
        <time>2020-06-24T08:27:15Z</time>
      </trkpt>
      <trkpt lat="50.55421" lon="3.2485">
        <ele>54.5</ele>
        <time>2020-06-24T08:27:16Z</time>
      </trkpt>
      <trkpt lat="50.55419" lon="3.24856">
        <ele>54.7</ele>
        <time>2020-06-24T08:27:17Z</time>
      </trkpt>
      <trkpt lat="50.55417" lon="3.24862">
        <ele>54.9</ele>
        <time>2020-06-24T08:27:18Z</time>
      </trkpt>
      <trkpt lat="50.55414" lon="3.24868">
        <ele>55.1</ele>
        <time>2020-06-24T08:27:19Z</time>
      </trkpt>
      <trkpt lat="50.55411" lon="3.24873">
        <ele>55.3</ele>
        <time>2020-06-24T08:27:20Z</time>
      </trkpt>
      <trkpt lat="50.55409" lon="3.24879">
        <ele>55.5</ele>
        <time>2020-06-24T08:27:21Z</time>
      </trkpt>
      <trkpt lat="50.55406" lon="3.24884">
        <ele>55.7</ele>
        <time>2020-06-24T08:27:22Z</time>
      </trkpt>
      <trkpt lat="50.55405" lon="3.2489">
        <ele>55.8</ele>
        <time>2020-06-24T08:27:23Z</time>
      </trkpt>
      <trkpt lat="50.55403" lon="3.24897">
        <ele>56</ele>
        <time>2020-06-24T08:27:24Z</time>
      </trkpt>
      <trkpt lat="50.55401" lon="3.24902">
        <ele>56.2</ele>
        <time>2020-06-24T08:27:25Z</time>
      </trkpt>
      <trkpt lat="50.55399" lon="3.24909">
        <ele>56.4</ele>
        <time>2020-06-24T08:27:26Z</time>
      </trkpt>
      <trkpt lat="50.55397" lon="3.24915">
        <ele>56.6</ele>
        <time>2020-06-24T08:27:27Z</time>
      </trkpt>
      <trkpt lat="50.55396" lon="3.2492">
        <ele>56.8</ele>
        <time>2020-06-24T08:27:28Z</time>
      </trkpt>
      <trkpt lat="50.55393" lon="3.24926">
        <ele>57</ele>
        <time>2020-06-24T08:27:29Z</time>
      </trkpt>
      <trkpt lat="50.55391" lon="3.24932">
        <ele>57.2</ele>
        <time>2020-06-24T08:27:30Z</time>
      </trkpt>
      <trkpt lat="50.55388" lon="3.24937">
        <ele>57.4</ele>
        <time>2020-06-24T08:27:31Z</time>
      </trkpt>
      <trkpt lat="50.55386" lon="3.24943">
        <ele>57.6</ele>
        <time>2020-06-24T08:27:32Z</time>
      </trkpt>
      <trkpt lat="50.55384" lon="3.24949">
        <ele>57.8</ele>
        <time>2020-06-24T08:27:33Z</time>
      </trkpt>
      <trkpt lat="50.55381" lon="3.24954">
        <ele>58</ele>
        <time>2020-06-24T08:27:34Z</time>
      </trkpt>
      <trkpt lat="50.55379" lon="3.24961">
        <ele>58.2</ele>
        <time>2020-06-24T08:27:35Z</time>
      </trkpt>
      <trkpt lat="50.55377" lon="3.24966">
        <ele>58.4</ele>
        <time>2020-06-24T08:27:36Z</time>
      </trkpt>
      <trkpt lat="50.55375" lon="3.24972">
        <ele>58.7</ele>
        <time>2020-06-24T08:27:37Z</time>
      </trkpt>
      <trkpt lat="50.55372" lon="3.24979">
        <ele>58.9</ele>
        <time>2020-06-24T08:27:38Z</time>
      </trkpt>
      <trkpt lat="50.5537" lon="3.24986">
        <ele>59.1</ele>
        <time>2020-06-24T08:27:39Z</time>
      </trkpt>
      <trkpt lat="50.55367" lon="3.24992">
        <ele>59.4</ele>
        <time>2020-06-24T08:27:40Z</time>
      </trkpt>
      <trkpt lat="50.55365" lon="3.24998">
        <ele>59.6</ele>
        <time>2020-06-24T08:27:41Z</time>
      </trkpt>
      <trkpt lat="50.55362" lon="3.25004">
        <ele>59.8</ele>
        <time>2020-06-24T08:27:42Z</time>
      </trkpt>
      <trkpt lat="50.5536" lon="3.25009">
        <ele>60</ele>
        <time>2020-06-24T08:27:43Z</time>
      </trkpt>
      <trkpt lat="50.55358" lon="3.25014">
        <ele>60.2</ele>
        <time>2020-06-24T08:27:44Z</time>
      </trkpt>
      <trkpt lat="50.55356" lon="3.25019">
        <ele>60.3</ele>
        <time>2020-06-24T08:27:45Z</time>
      </trkpt>
      <trkpt lat="50.55355" lon="3.25025">
        <ele>60.6</ele>
        <time>2020-06-24T08:27:46Z</time>
      </trkpt>
      <trkpt lat="50.55353" lon="3.25031">
        <ele>60.8</ele>
        <time>2020-06-24T08:27:47Z</time>
      </trkpt>
      <trkpt lat="50.5535" lon="3.25038">
        <ele>61</ele>
        <time>2020-06-24T08:27:48Z</time>
      </trkpt>
      <trkpt lat="50.55348" lon="3.25045">
        <ele>61.3</ele>
        <time>2020-06-24T08:27:49Z</time>
      </trkpt>
      <trkpt lat="50.55346" lon="3.25051">
        <ele>61.5</ele>
        <time>2020-06-24T08:27:50Z</time>
      </trkpt>
      <trkpt lat="50.55344" lon="3.25058">
        <ele>61.8</ele>
        <time>2020-06-24T08:27:51Z</time>
      </trkpt>
      <trkpt lat="50.55341" lon="3.25063">
        <ele>62</ele>
        <time>2020-06-24T08:27:52Z</time>
      </trkpt>
      <trkpt lat="50.55339" lon="3.25069">
        <ele>62.2</ele>
        <time>2020-06-24T08:27:53Z</time>
      </trkpt>
      <trkpt lat="50.55337" lon="3.25074">
        <ele>62.4</ele>
        <time>2020-06-24T08:27:54Z</time>
      </trkpt>
      <trkpt lat="50.55334" lon="3.2508">
        <ele>62.5</ele>
        <time>2020-06-24T08:27:55Z</time>
      </trkpt>
      <trkpt lat="50.55333" lon="3.25086">
        <ele>62.7</ele>
        <time>2020-06-24T08:27:56Z</time>
      </trkpt>
      <trkpt lat="50.55331" lon="3.25092">
        <ele>62.9</ele>
        <time>2020-06-24T08:27:57Z</time>
      </trkpt>
      <trkpt lat="50.55329" lon="3.25098">
        <ele>63.1</ele>
        <time>2020-06-24T08:27:58Z</time>
      </trkpt>
      <trkpt lat="50.55328" lon="3.25103">
        <ele>63.2</ele>
        <time>2020-06-24T08:27:59Z</time>
      </trkpt>
      <trkpt lat="50.55326" lon="3.25109">
        <ele>63.4</ele>
        <time>2020-06-24T08:28:00Z</time>
      </trkpt>
      <trkpt lat="50.55324" lon="3.25116">
        <ele>63.6</ele>
        <time>2020-06-24T08:28:01Z</time>
      </trkpt>
      <trkpt lat="50.55321" lon="3.25121">
        <ele>63.8</ele>
        <time>2020-06-24T08:28:02Z</time>
      </trkpt>
      <trkpt lat="50.55319" lon="3.25126">
        <ele>63.9</ele>
        <time>2020-06-24T08:28:03Z</time>
      </trkpt>
      <trkpt lat="50.55317" lon="3.2513">
        <ele>64.1</ele>
        <time>2020-06-24T08:28:04Z</time>
      </trkpt>
      <trkpt lat="50.55315" lon="3.25137">
        <ele>64.2</ele>
        <time>2020-06-24T08:28:05Z</time>
      </trkpt>
      <trkpt lat="50.55314" lon="3.25139">
        <ele>64.3</ele>
        <time>2020-06-24T08:28:06Z</time>
      </trkpt>
      <trkpt lat="50.55311" lon="3.25144">
        <ele>64.5</ele>
        <time>2020-06-24T08:28:07Z</time>
      </trkpt>
      <trkpt lat="50.5531" lon="3.2515">
        <ele>64.6</ele>
        <time>2020-06-24T08:28:08Z</time>
      </trkpt>
      <trkpt lat="50.55308" lon="3.25157">
        <ele>64.8</ele>
        <time>2020-06-24T08:28:09Z</time>
      </trkpt>
      <trkpt lat="50.55306" lon="3.25163">
        <ele>65</ele>
        <time>2020-06-24T08:28:10Z</time>
      </trkpt>
      <trkpt lat="50.55304" lon="3.25169">
        <ele>65.1</ele>
        <time>2020-06-24T08:28:11Z</time>
      </trkpt>
      <trkpt lat="50.55301" lon="3.25174">
        <ele>65.2</ele>
        <time>2020-06-24T08:28:12Z</time>
      </trkpt>
      <trkpt lat="50.55299" lon="3.2518">
        <ele>65.4</ele>
        <time>2020-06-24T08:28:13Z</time>
      </trkpt>
      <trkpt lat="50.55296" lon="3.25186">
        <ele>65.5</ele>
        <time>2020-06-24T08:28:14Z</time>
      </trkpt>
      <trkpt lat="50.55293" lon="3.25192">
        <ele>65.7</ele>
        <time>2020-06-24T08:28:15Z</time>
      </trkpt>
      <trkpt lat="50.5529" lon="3.25198">
        <ele>65.8</ele>
        <time>2020-06-24T08:28:16Z</time>
      </trkpt>
      <trkpt lat="50.55287" lon="3.25205">
        <ele>65.9</ele>
        <time>2020-06-24T08:28:17Z</time>
      </trkpt>
      <trkpt lat="50.55284" lon="3.25211">
        <ele>66</ele>
        <time>2020-06-24T08:28:18Z</time>
      </trkpt>
      <trkpt lat="50.55281" lon="3.25216">
        <ele>66.1</ele>
        <time>2020-06-24T08:28:19Z</time>
      </trkpt>
      <trkpt lat="50.55278" lon="3.25221">
        <ele>66.2</ele>
        <time>2020-06-24T08:28:20Z</time>
      </trkpt>
      <trkpt lat="50.55276" lon="3.25226">
        <ele>66.4</ele>
        <time>2020-06-24T08:28:21Z</time>
      </trkpt>
      <trkpt lat="50.55274" lon="3.25232">
        <ele>66.5</ele>
        <time>2020-06-24T08:28:22Z</time>
      </trkpt>
      <trkpt lat="50.55271" lon="3.25237">
        <ele>66.6</ele>
        <time>2020-06-24T08:28:23Z</time>
      </trkpt>
      <trkpt lat="50.55268" lon="3.25242">
        <ele>66.7</ele>
        <time>2020-06-24T08:28:24Z</time>
      </trkpt>
      <trkpt lat="50.55265" lon="3.25247">
        <ele>66.8</ele>
        <time>2020-06-24T08:28:25Z</time>
      </trkpt>
      <trkpt lat="50.55263" lon="3.25251">
        <ele>66.9</ele>
        <time>2020-06-24T08:28:26Z</time>
      </trkpt>
      <trkpt lat="50.5526" lon="3.25255">
        <ele>67</ele>
        <time>2020-06-24T08:28:27Z</time>
      </trkpt>
      <trkpt lat="50.55258" lon="3.25259">
        <ele>67.1</ele>
        <time>2020-06-24T08:28:28Z</time>
      </trkpt>
      <trkpt lat="50.55255" lon="3.25265">
        <ele>67.2</ele>
        <time>2020-06-24T08:28:29Z</time>
      </trkpt>
      <trkpt lat="50.55252" lon="3.25269">
        <ele>67.3</ele>
        <time>2020-06-24T08:28:30Z</time>
      </trkpt>
      <trkpt lat="50.55248" lon="3.25273">
        <ele>67.5</ele>
        <time>2020-06-24T08:28:31Z</time>
      </trkpt>
      <trkpt lat="50.55246" lon="3.25275">
        <ele>67.5</ele>
        <time>2020-06-24T08:28:32Z</time>
      </trkpt>
      <trkpt lat="50.55242" lon="3.25278">
        <ele>67.6</ele>
        <time>2020-06-24T08:28:33Z</time>
      </trkpt>
      <trkpt lat="50.55239" lon="3.2528">
        <ele>67.7</ele>
        <time>2020-06-24T08:28:34Z</time>
      </trkpt>
      <trkpt lat="50.55236" lon="3.25283">
        <ele>67.8</ele>
        <time>2020-06-24T08:28:35Z</time>
      </trkpt>
      <trkpt lat="50.55233" lon="3.25286">
        <ele>67.9</ele>
        <time>2020-06-24T08:28:36Z</time>
      </trkpt>
      <trkpt lat="50.55228" lon="3.2529">
        <ele>68</ele>
        <time>2020-06-24T08:28:37Z</time>
      </trkpt>
      <trkpt lat="50.55225" lon="3.25293">
        <ele>68.1</ele>
        <time>2020-06-24T08:28:38Z</time>
      </trkpt>
      <trkpt lat="50.55222" lon="3.25297">
        <ele>68.2</ele>
        <time>2020-06-24T08:28:39Z</time>
      </trkpt>
      <trkpt lat="50.55218" lon="3.253">
        <ele>68.3</ele>
        <time>2020-06-24T08:28:40Z</time>
      </trkpt>
      <trkpt lat="50.55215" lon="3.25303">
        <ele>68.3</ele>
        <time>2020-06-24T08:28:41Z</time>
      </trkpt>
      <trkpt lat="50.55212" lon="3.25306">
        <ele>68.4</ele>
        <time>2020-06-24T08:28:42Z</time>
      </trkpt>
      <trkpt lat="50.55209" lon="3.25308">
        <ele>68.5</ele>
        <time>2020-06-24T08:28:43Z</time>
      </trkpt>
      <trkpt lat="50.55206" lon="3.25311">
        <ele>68.6</ele>
        <time>2020-06-24T08:28:44Z</time>
      </trkpt>
      <trkpt lat="50.55202" lon="3.25314">
        <ele>68.7</ele>
        <time>2020-06-24T08:28:45Z</time>
      </trkpt>
      <trkpt lat="50.55199" lon="3.25317">
        <ele>68.8</ele>
        <time>2020-06-24T08:28:46Z</time>
      </trkpt>
      <trkpt lat="50.55193" lon="3.25318">
        <ele>68.9</ele>
        <time>2020-06-24T08:28:47Z</time>
      </trkpt>
      <trkpt lat="50.55185" lon="3.2532">
        <ele>69.1</ele>
        <time>2020-06-24T08:28:48Z</time>
      </trkpt>
      <trkpt lat="50.5518" lon="3.25323">
        <ele>69.2</ele>
        <time>2020-06-24T08:28:49Z</time>
      </trkpt>
      <trkpt lat="50.55175" lon="3.25324">
        <ele>69.3</ele>
        <time>2020-06-24T08:28:50Z</time>
      </trkpt>
      <trkpt lat="50.55169" lon="3.25327">
        <ele>69.4</ele>
        <time>2020-06-24T08:28:51Z</time>
      </trkpt>
      <trkpt lat="50.55165" lon="3.2533">
        <ele>69.5</ele>
        <time>2020-06-24T08:28:52Z</time>
      </trkpt>
      <trkpt lat="50.55161" lon="3.25333">
        <ele>69.6</ele>
        <time>2020-06-24T08:28:53Z</time>
      </trkpt>
      <trkpt lat="50.55158" lon="3.25336">
        <ele>69.6</ele>
        <time>2020-06-24T08:28:54Z</time>
      </trkpt>
      <trkpt lat="50.55155" lon="3.25339">
        <ele>69.7</ele>
        <time>2020-06-24T08:28:55Z</time>
      </trkpt>
      <trkpt lat="50.55152" lon="3.25342">
        <ele>69.8</ele>
        <time>2020-06-24T08:28:56Z</time>
      </trkpt>
      <trkpt lat="50.55147" lon="3.25346">
        <ele>69.9</ele>
        <time>2020-06-24T08:28:57Z</time>
      </trkpt>
      <trkpt lat="50.55144" lon="3.25348">
        <ele>70</ele>
        <time>2020-06-24T08:28:58Z</time>
      </trkpt>
      <trkpt lat="50.55138" lon="3.25351">
        <ele>70</ele>
        <time>2020-06-24T08:28:59Z</time>
      </trkpt>
      <trkpt lat="50.55134" lon="3.25354">
        <ele>70.1</ele>
        <time>2020-06-24T08:29:00Z</time>
      </trkpt>
      <trkpt lat="50.5513" lon="3.25357">
        <ele>70.2</ele>
        <time>2020-06-24T08:29:01Z</time>
      </trkpt>
      <trkpt lat="50.55126" lon="3.25361">
        <ele>70.3</ele>
        <time>2020-06-24T08:29:02Z</time>
      </trkpt>
      <trkpt lat="50.55122" lon="3.25363">
        <ele>70.3</ele>
        <time>2020-06-24T08:29:03Z</time>
      </trkpt>
      <trkpt lat="50.55118" lon="3.25366">
        <ele>70.4</ele>
        <time>2020-06-24T08:29:04Z</time>
      </trkpt>
      <trkpt lat="50.55113" lon="3.2537">
        <ele>70.4</ele>
        <time>2020-06-24T08:29:05Z</time>
      </trkpt>
      <trkpt lat="50.55107" lon="3.25374">
        <ele>70.5</ele>
        <time>2020-06-24T08:29:06Z</time>
      </trkpt>
      <trkpt lat="50.55103" lon="3.25378">
        <ele>70.6</ele>
        <time>2020-06-24T08:29:07Z</time>
      </trkpt>
      <trkpt lat="50.55099" lon="3.25382">
        <ele>70.7</ele>
        <time>2020-06-24T08:29:08Z</time>
      </trkpt>
      <trkpt lat="50.55095" lon="3.25384">
        <ele>70.8</ele>
        <time>2020-06-24T08:29:09Z</time>
      </trkpt>
      <trkpt lat="50.55091" lon="3.25387">
        <ele>70.8</ele>
        <time>2020-06-24T08:29:10Z</time>
      </trkpt>
      <trkpt lat="50.55087" lon="3.2539">
        <ele>70.9</ele>
        <time>2020-06-24T08:29:11Z</time>
      </trkpt>
      <trkpt lat="50.55081" lon="3.25391">
        <ele>71</ele>
        <time>2020-06-24T08:29:12Z</time>
      </trkpt>
      <trkpt lat="50.55077" lon="3.25394">
        <ele>71</ele>
        <time>2020-06-24T08:29:13Z</time>
      </trkpt>
      <trkpt lat="50.55073" lon="3.25397">
        <ele>71.1</ele>
        <time>2020-06-24T08:29:14Z</time>
      </trkpt>
      <trkpt lat="50.55069" lon="3.254">
        <ele>71.1</ele>
        <time>2020-06-24T08:29:15Z</time>
      </trkpt>
      <trkpt lat="50.55064" lon="3.25403">
        <ele>71.2</ele>
        <time>2020-06-24T08:29:16Z</time>
      </trkpt>
      <trkpt lat="50.5506" lon="3.25405">
        <ele>71.2</ele>
        <time>2020-06-24T08:29:17Z</time>
      </trkpt>
      <trkpt lat="50.55055" lon="3.25409">
        <ele>71.3</ele>
        <time>2020-06-24T08:29:18Z</time>
      </trkpt>
      <trkpt lat="50.55051" lon="3.25413">
        <ele>71.3</ele>
        <time>2020-06-24T08:29:19Z</time>
      </trkpt>
      <trkpt lat="50.55046" lon="3.25416">
        <ele>71.3</ele>
        <time>2020-06-24T08:29:20Z</time>
      </trkpt>
      <trkpt lat="50.55043" lon="3.25419">
        <ele>71.4</ele>
        <time>2020-06-24T08:29:21Z</time>
      </trkpt>
      <trkpt lat="50.55038" lon="3.25422">
        <ele>71.4</ele>
        <time>2020-06-24T08:29:22Z</time>
      </trkpt>
      <trkpt lat="50.55035" lon="3.25426">
        <ele>71.4</ele>
        <time>2020-06-24T08:29:23Z</time>
      </trkpt>
      <trkpt lat="50.55031" lon="3.25429">
        <ele>71.5</ele>
        <time>2020-06-24T08:29:24Z</time>
      </trkpt>
      <trkpt lat="50.55027" lon="3.25432">
        <ele>71.5</ele>
        <time>2020-06-24T08:29:25Z</time>
      </trkpt>
      <trkpt lat="50.55024" lon="3.25435">
        <ele>71.6</ele>
        <time>2020-06-24T08:29:26Z</time>
      </trkpt>
      <trkpt lat="50.5502" lon="3.25436">
        <ele>71.6</ele>
        <time>2020-06-24T08:29:27Z</time>
      </trkpt>
      <trkpt lat="50.55016" lon="3.25439">
        <ele>71.7</ele>
        <time>2020-06-24T08:29:28Z</time>
      </trkpt>
      <trkpt lat="50.5501" lon="3.25441">
        <ele>71.7</ele>
        <time>2020-06-24T08:29:29Z</time>
      </trkpt>
      <trkpt lat="50.55006" lon="3.25443">
        <ele>71.8</ele>
        <time>2020-06-24T08:29:30Z</time>
      </trkpt>
      <trkpt lat="50.55003" lon="3.25446">
        <ele>71.8</ele>
        <time>2020-06-24T08:29:31Z</time>
      </trkpt>
      <trkpt lat="50.54999" lon="3.2545">
        <ele>71.9</ele>
        <time>2020-06-24T08:29:32Z</time>
      </trkpt>
      <trkpt lat="50.54995" lon="3.25453">
        <ele>71.9</ele>
        <time>2020-06-24T08:29:33Z</time>
      </trkpt>
      <trkpt lat="50.5499" lon="3.25457">
        <ele>72</ele>
        <time>2020-06-24T08:29:34Z</time>
      </trkpt>
      <trkpt lat="50.54985" lon="3.25461">
        <ele>72</ele>
        <time>2020-06-24T08:29:35Z</time>
      </trkpt>
      <trkpt lat="50.54981" lon="3.25463">
        <ele>72.1</ele>
        <time>2020-06-24T08:29:36Z</time>
      </trkpt>
      <trkpt lat="50.54976" lon="3.25467">
        <ele>72.1</ele>
        <time>2020-06-24T08:29:37Z</time>
      </trkpt>
      <trkpt lat="50.54972" lon="3.2547">
        <ele>72.1</ele>
        <time>2020-06-24T08:29:38Z</time>
      </trkpt>
      <trkpt lat="50.54969" lon="3.25472">
        <ele>72.1</ele>
        <time>2020-06-24T08:29:39Z</time>
      </trkpt>
      <trkpt lat="50.54965" lon="3.25475">
        <ele>72</ele>
        <time>2020-06-24T08:29:40Z</time>
      </trkpt>
      <trkpt lat="50.54961" lon="3.25478">
        <ele>72</ele>
        <time>2020-06-24T08:29:41Z</time>
      </trkpt>
      <trkpt lat="50.54956" lon="3.25482">
        <ele>72</ele>
        <time>2020-06-24T08:29:42Z</time>
      </trkpt>
      <trkpt lat="50.54951" lon="3.25487">
        <ele>72</ele>
        <time>2020-06-24T08:29:43Z</time>
      </trkpt>
      <trkpt lat="50.54946" lon="3.2549">
        <ele>72</ele>
        <time>2020-06-24T08:29:44Z</time>
      </trkpt>
      <trkpt lat="50.54941" lon="3.25494">
        <ele>72</ele>
        <time>2020-06-24T08:29:45Z</time>
      </trkpt>
      <trkpt lat="50.54936" lon="3.25497">
        <ele>72</ele>
        <time>2020-06-24T08:29:46Z</time>
      </trkpt>
      <trkpt lat="50.54931" lon="3.25502">
        <ele>72</ele>
        <time>2020-06-24T08:29:47Z</time>
      </trkpt>
      <trkpt lat="50.54926" lon="3.25505">
        <ele>72</ele>
        <time>2020-06-24T08:29:48Z</time>
      </trkpt>
      <trkpt lat="50.54922" lon="3.25509">
        <ele>72</ele>
        <time>2020-06-24T08:29:49Z</time>
      </trkpt>
      <trkpt lat="50.54916" lon="3.25512">
        <ele>72</ele>
        <time>2020-06-24T08:29:50Z</time>
      </trkpt>
      <trkpt lat="50.54912" lon="3.25515">
        <ele>72</ele>
        <time>2020-06-24T08:29:51Z</time>
      </trkpt>
      <trkpt lat="50.54907" lon="3.25518">
        <ele>72</ele>
        <time>2020-06-24T08:29:52Z</time>
      </trkpt>
      <trkpt lat="50.54902" lon="3.25521">
        <ele>72</ele>
        <time>2020-06-24T08:29:53Z</time>
      </trkpt>
      <trkpt lat="50.54897" lon="3.25523">
        <ele>72</ele>
        <time>2020-06-24T08:29:54Z</time>
      </trkpt>
      <trkpt lat="50.54891" lon="3.25526">
        <ele>72</ele>
        <time>2020-06-24T08:29:55Z</time>
      </trkpt>
      <trkpt lat="50.54887" lon="3.2553">
        <ele>72</ele>
        <time>2020-06-24T08:29:56Z</time>
      </trkpt>
      <trkpt lat="50.54882" lon="3.25534">
        <ele>72</ele>
        <time>2020-06-24T08:29:57Z</time>
      </trkpt>
      <trkpt lat="50.54876" lon="3.25538">
        <ele>72.1</ele>
        <time>2020-06-24T08:29:58Z</time>
      </trkpt>
      <trkpt lat="50.54872" lon="3.2554">
        <ele>72.1</ele>
        <time>2020-06-24T08:29:59Z</time>
      </trkpt>
      <trkpt lat="50.54867" lon="3.25542">
        <ele>72.2</ele>
        <time>2020-06-24T08:30:00Z</time>
      </trkpt>
      <trkpt lat="50.54863" lon="3.25544">
        <ele>72.1</ele>
        <time>2020-06-24T08:30:01Z</time>
      </trkpt>
      <trkpt lat="50.54857" lon="3.25548">
        <ele>72</ele>
        <time>2020-06-24T08:30:02Z</time>
      </trkpt>
      <trkpt lat="50.54852" lon="3.25551">
        <ele>71.9</ele>
        <time>2020-06-24T08:30:03Z</time>
      </trkpt>
      <trkpt lat="50.54847" lon="3.25556">
        <ele>71.8</ele>
        <time>2020-06-24T08:30:04Z</time>
      </trkpt>
      <trkpt lat="50.54841" lon="3.2556">
        <ele>71.6</ele>
        <time>2020-06-24T08:30:05Z</time>
      </trkpt>
      <trkpt lat="50.54837" lon="3.25563">
        <ele>71.5</ele>
        <time>2020-06-24T08:30:06Z</time>
      </trkpt>
      <trkpt lat="50.54831" lon="3.25567">
        <ele>71.4</ele>
        <time>2020-06-24T08:30:07Z</time>
      </trkpt>
      <trkpt lat="50.54826" lon="3.25572">
        <ele>71.3</ele>
        <time>2020-06-24T08:30:08Z</time>
      </trkpt>
      <trkpt lat="50.54821" lon="3.25577">
        <ele>71.2</ele>
        <time>2020-06-24T08:30:09Z</time>
      </trkpt>
      <trkpt lat="50.54815" lon="3.25581">
        <ele>71.1</ele>
        <time>2020-06-24T08:30:10Z</time>
      </trkpt>
      <trkpt lat="50.5481" lon="3.25584">
        <ele>71</ele>
        <time>2020-06-24T08:30:11Z</time>
      </trkpt>
      <trkpt lat="50.54804" lon="3.25587">
        <ele>70.9</ele>
        <time>2020-06-24T08:30:12Z</time>
      </trkpt>
      <trkpt lat="50.54797" lon="3.25589">
        <ele>70.7</ele>
        <time>2020-06-24T08:30:13Z</time>
      </trkpt>
      <trkpt lat="50.54791" lon="3.25592">
        <ele>70.6</ele>
        <time>2020-06-24T08:30:14Z</time>
      </trkpt>
      <trkpt lat="50.54785" lon="3.25598">
        <ele>70.4</ele>
        <time>2020-06-24T08:30:15Z</time>
      </trkpt>
      <trkpt lat="50.54778" lon="3.25604">
        <ele>70.3</ele>
        <time>2020-06-24T08:30:16Z</time>
      </trkpt>
      <trkpt lat="50.54772" lon="3.25608">
        <ele>70.2</ele>
        <time>2020-06-24T08:30:17Z</time>
      </trkpt>
      <trkpt lat="50.54766" lon="3.25612">
        <ele>70.1</ele>
        <time>2020-06-24T08:30:18Z</time>
      </trkpt>
      <trkpt lat="50.5476" lon="3.25616">
        <ele>70</ele>
        <time>2020-06-24T08:30:19Z</time>
      </trkpt>
      <trkpt lat="50.54755" lon="3.2562">
        <ele>69.9</ele>
        <time>2020-06-24T08:30:20Z</time>
      </trkpt>
      <trkpt lat="50.5475" lon="3.25623">
        <ele>69.9</ele>
        <time>2020-06-24T08:30:21Z</time>
      </trkpt>
      <trkpt lat="50.54745" lon="3.25627">
        <ele>69.7</ele>
        <time>2020-06-24T08:30:22Z</time>
      </trkpt>
      <trkpt lat="50.5474" lon="3.25632">
        <ele>69.6</ele>
        <time>2020-06-24T08:30:23Z</time>
      </trkpt>
      <trkpt lat="50.54735" lon="3.25635">
        <ele>69.5</ele>
        <time>2020-06-24T08:30:24Z</time>
      </trkpt>
      <trkpt lat="50.5473" lon="3.2564">
        <ele>69.4</ele>
        <time>2020-06-24T08:30:25Z</time>
      </trkpt>
      <trkpt lat="50.54725" lon="3.25643">
        <ele>69.3</ele>
        <time>2020-06-24T08:30:26Z</time>
      </trkpt>
      <trkpt lat="50.54719" lon="3.25645">
        <ele>69.2</ele>
        <time>2020-06-24T08:30:27Z</time>
      </trkpt>
      <trkpt lat="50.54713" lon="3.25648">
        <ele>69.1</ele>
        <time>2020-06-24T08:30:28Z</time>
      </trkpt>
      <trkpt lat="50.54708" lon="3.25652">
        <ele>69.1</ele>
        <time>2020-06-24T08:30:29Z</time>
      </trkpt>
      <trkpt lat="50.54702" lon="3.25657">
        <ele>69</ele>
        <time>2020-06-24T08:30:30Z</time>
      </trkpt>
      <trkpt lat="50.54697" lon="3.25661">
        <ele>69</ele>
        <time>2020-06-24T08:30:31Z</time>
      </trkpt>
      <trkpt lat="50.54692" lon="3.25664">
        <ele>69</ele>
        <time>2020-06-24T08:30:32Z</time>
      </trkpt>
      <trkpt lat="50.54687" lon="3.25669">
        <ele>69.1</ele>
        <time>2020-06-24T08:30:33Z</time>
      </trkpt>
      <trkpt lat="50.54681" lon="3.25673">
        <ele>69.1</ele>
        <time>2020-06-24T08:30:34Z</time>
      </trkpt>
      <trkpt lat="50.54675" lon="3.25678">
        <ele>69.1</ele>
        <time>2020-06-24T08:30:35Z</time>
      </trkpt>
      <trkpt lat="50.54671" lon="3.25682">
        <ele>69.1</ele>
        <time>2020-06-24T08:30:36Z</time>
      </trkpt>
      <trkpt lat="50.54665" lon="3.25685">
        <ele>69.1</ele>
        <time>2020-06-24T08:30:37Z</time>
      </trkpt>
      <trkpt lat="50.54661" lon="3.25688">
        <ele>69.1</ele>
        <time>2020-06-24T08:30:38Z</time>
      </trkpt>
      <trkpt lat="50.54656" lon="3.25692">
        <ele>69.1</ele>
        <time>2020-06-24T08:30:39Z</time>
      </trkpt>
      <trkpt lat="50.54651" lon="3.25697">
        <ele>69</ele>
        <time>2020-06-24T08:30:40Z</time>
      </trkpt>
      <trkpt lat="50.54647" lon="3.25701">
        <ele>69</ele>
        <time>2020-06-24T08:30:41Z</time>
      </trkpt>
      <trkpt lat="50.54641" lon="3.25706">
        <ele>69</ele>
        <time>2020-06-24T08:30:42Z</time>
      </trkpt>
      <trkpt lat="50.54637" lon="3.2571">
        <ele>69</ele>
        <time>2020-06-24T08:30:43Z</time>
      </trkpt>
      <trkpt lat="50.54631" lon="3.25714">
        <ele>68.9</ele>
        <time>2020-06-24T08:30:44Z</time>
      </trkpt>
      <trkpt lat="50.54625" lon="3.25719">
        <ele>68.8</ele>
        <time>2020-06-24T08:30:45Z</time>
      </trkpt>
      <trkpt lat="50.54619" lon="3.25722">
        <ele>68.8</ele>
        <time>2020-06-24T08:30:46Z</time>
      </trkpt>
      <trkpt lat="50.54614" lon="3.25726">
        <ele>68.7</ele>
        <time>2020-06-24T08:30:47Z</time>
      </trkpt>
      <trkpt lat="50.54608" lon="3.25731">
        <ele>68.6</ele>
        <time>2020-06-24T08:30:48Z</time>
      </trkpt>
      <trkpt lat="50.54602" lon="3.25734">
        <ele>68.5</ele>
        <time>2020-06-24T08:30:49Z</time>
      </trkpt>
      <trkpt lat="50.54596" lon="3.25738">
        <ele>68.5</ele>
        <time>2020-06-24T08:30:50Z</time>
      </trkpt>
      <trkpt lat="50.5459" lon="3.25743">
        <ele>68.4</ele>
        <time>2020-06-24T08:30:51Z</time>
      </trkpt>
      <trkpt lat="50.54585" lon="3.25747">
        <ele>68.4</ele>
        <time>2020-06-24T08:30:52Z</time>
      </trkpt>
      <trkpt lat="50.54578" lon="3.25752">
        <ele>68.4</ele>
        <time>2020-06-24T08:30:53Z</time>
      </trkpt>
      <trkpt lat="50.54574" lon="3.25755">
        <ele>68.4</ele>
        <time>2020-06-24T08:30:54Z</time>
      </trkpt>
      <trkpt lat="50.54569" lon="3.25758">
        <ele>68.4</ele>
        <time>2020-06-24T08:30:55Z</time>
      </trkpt>
      <trkpt lat="50.54564" lon="3.25762">
        <ele>68.4</ele>
        <time>2020-06-24T08:30:56Z</time>
      </trkpt>
      <trkpt lat="50.5456" lon="3.25765">
        <ele>68.4</ele>
        <time>2020-06-24T08:30:57Z</time>
      </trkpt>
      <trkpt lat="50.54555" lon="3.25769">
        <ele>68.4</ele>
        <time>2020-06-24T08:30:58Z</time>
      </trkpt>
      <trkpt lat="50.54549" lon="3.25774">
        <ele>68.4</ele>
        <time>2020-06-24T08:30:59Z</time>
      </trkpt>
      <trkpt lat="50.54543" lon="3.25777">
        <ele>68.3</ele>
        <time>2020-06-24T08:31:00Z</time>
      </trkpt>
      <trkpt lat="50.54538" lon="3.2578">
        <ele>68.3</ele>
        <time>2020-06-24T08:31:01Z</time>
      </trkpt>
      <trkpt lat="50.54533" lon="3.25784">
        <ele>68.3</ele>
        <time>2020-06-24T08:31:02Z</time>
      </trkpt>
      <trkpt lat="50.54527" lon="3.25788">
        <ele>68.3</ele>
        <time>2020-06-24T08:31:03Z</time>
      </trkpt>
      <trkpt lat="50.54522" lon="3.25792">
        <ele>68.3</ele>
        <time>2020-06-24T08:31:04Z</time>
      </trkpt>
      <trkpt lat="50.54518" lon="3.25795">
        <ele>68.3</ele>
        <time>2020-06-24T08:31:05Z</time>
      </trkpt>
      <trkpt lat="50.54513" lon="3.25799">
        <ele>68.3</ele>
        <time>2020-06-24T08:31:06Z</time>
      </trkpt>
      <trkpt lat="50.54509" lon="3.25801">
        <ele>68.3</ele>
        <time>2020-06-24T08:31:07Z</time>
      </trkpt>
      <trkpt lat="50.54503" lon="3.25805">
        <ele>68.2</ele>
        <time>2020-06-24T08:31:08Z</time>
      </trkpt>
      <trkpt lat="50.54498" lon="3.25809">
        <ele>68.1</ele>
        <time>2020-06-24T08:31:09Z</time>
      </trkpt>
      <trkpt lat="50.54493" lon="3.25813">
        <ele>68</ele>
        <time>2020-06-24T08:31:10Z</time>
      </trkpt>
      <trkpt lat="50.54487" lon="3.25817">
        <ele>67.9</ele>
        <time>2020-06-24T08:31:11Z</time>
      </trkpt>
      <trkpt lat="50.54482" lon="3.25821">
        <ele>67.9</ele>
        <time>2020-06-24T08:31:12Z</time>
      </trkpt>
      <trkpt lat="50.54476" lon="3.25825">
        <ele>67.8</ele>
        <time>2020-06-24T08:31:13Z</time>
      </trkpt>
      <trkpt lat="50.54471" lon="3.25828">
        <ele>67.8</ele>
        <time>2020-06-24T08:31:14Z</time>
      </trkpt>
      <trkpt lat="50.54466" lon="3.25831">
        <ele>67.8</ele>
        <time>2020-06-24T08:31:15Z</time>
      </trkpt>
      <trkpt lat="50.5446" lon="3.25835">
        <ele>67.8</ele>
        <time>2020-06-24T08:31:16Z</time>
      </trkpt>
      <trkpt lat="50.54454" lon="3.25839">
        <ele>67.7</ele>
        <time>2020-06-24T08:31:17Z</time>
      </trkpt>
      <trkpt lat="50.54449" lon="3.25842">
        <ele>67.7</ele>
        <time>2020-06-24T08:31:18Z</time>
      </trkpt>
      <trkpt lat="50.54443" lon="3.25847">
        <ele>67.7</ele>
        <time>2020-06-24T08:31:19Z</time>
      </trkpt>
      <trkpt lat="50.54437" lon="3.25852">
        <ele>67.7</ele>
        <time>2020-06-24T08:31:20Z</time>
      </trkpt>
      <trkpt lat="50.54432" lon="3.25856">
        <ele>67.6</ele>
        <time>2020-06-24T08:31:21Z</time>
      </trkpt>
      <trkpt lat="50.54427" lon="3.2586">
        <ele>67.6</ele>
        <time>2020-06-24T08:31:22Z</time>
      </trkpt>
      <trkpt lat="50.54422" lon="3.25864">
        <ele>67.6</ele>
        <time>2020-06-24T08:31:23Z</time>
      </trkpt>
      <trkpt lat="50.54417" lon="3.25869">
        <ele>67.6</ele>
        <time>2020-06-24T08:31:24Z</time>
      </trkpt>
      <trkpt lat="50.54412" lon="3.25872">
        <ele>67.6</ele>
        <time>2020-06-24T08:31:25Z</time>
      </trkpt>
      <trkpt lat="50.54406" lon="3.25876">
        <ele>67.5</ele>
        <time>2020-06-24T08:31:26Z</time>
      </trkpt>
      <trkpt lat="50.544" lon="3.25881">
        <ele>67.5</ele>
        <time>2020-06-24T08:31:27Z</time>
      </trkpt>
      <trkpt lat="50.54393" lon="3.25886">
        <ele>67.5</ele>
        <time>2020-06-24T08:31:28Z</time>
      </trkpt>
      <trkpt lat="50.54387" lon="3.2589">
        <ele>67.4</ele>
        <time>2020-06-24T08:31:29Z</time>
      </trkpt>
      <trkpt lat="50.54381" lon="3.25894">
        <ele>67.4</ele>
        <time>2020-06-24T08:31:30Z</time>
      </trkpt>
      <trkpt lat="50.54375" lon="3.25897">
        <ele>67.3</ele>
        <time>2020-06-24T08:31:31Z</time>
      </trkpt>
      <trkpt lat="50.54369" lon="3.25902">
        <ele>67.2</ele>
        <time>2020-06-24T08:31:32Z</time>
      </trkpt>
      <trkpt lat="50.54363" lon="3.25906">
        <ele>67.1</ele>
        <time>2020-06-24T08:31:33Z</time>
      </trkpt>
      <trkpt lat="50.54358" lon="3.2591">
        <ele>67</ele>
        <time>2020-06-24T08:31:34Z</time>
      </trkpt>
      <trkpt lat="50.54352" lon="3.25914">
        <ele>66.9</ele>
        <time>2020-06-24T08:31:35Z</time>
      </trkpt>
      <trkpt lat="50.54345" lon="3.25917">
        <ele>66.9</ele>
        <time>2020-06-24T08:31:36Z</time>
      </trkpt>
      <trkpt lat="50.5434" lon="3.25922">
        <ele>66.8</ele>
        <time>2020-06-24T08:31:37Z</time>
      </trkpt>
      <trkpt lat="50.54335" lon="3.25925">
        <ele>66.7</ele>
        <time>2020-06-24T08:31:38Z</time>
      </trkpt>
      <trkpt lat="50.5433" lon="3.25929">
        <ele>66.7</ele>
        <time>2020-06-24T08:31:39Z</time>
      </trkpt>
      <trkpt lat="50.54326" lon="3.25933">
        <ele>66.6</ele>
        <time>2020-06-24T08:31:40Z</time>
      </trkpt>
      <trkpt lat="50.54319" lon="3.25937">
        <ele>66.5</ele>
        <time>2020-06-24T08:31:41Z</time>
      </trkpt>
      <trkpt lat="50.54314" lon="3.25942">
        <ele>66.4</ele>
        <time>2020-06-24T08:31:42Z</time>
      </trkpt>
      <trkpt lat="50.54309" lon="3.25945">
        <ele>66.4</ele>
        <time>2020-06-24T08:31:43Z</time>
      </trkpt>
      <trkpt lat="50.54304" lon="3.2595">
        <ele>66.3</ele>
        <time>2020-06-24T08:31:44Z</time>
      </trkpt>
      <trkpt lat="50.54298" lon="3.25954">
        <ele>66.3</ele>
        <time>2020-06-24T08:31:45Z</time>
      </trkpt>
      <trkpt lat="50.54293" lon="3.2596">
        <ele>66.2</ele>
        <time>2020-06-24T08:31:46Z</time>
      </trkpt>
      <trkpt lat="50.54287" lon="3.25965">
        <ele>65.9</ele>
        <time>2020-06-24T08:31:47Z</time>
      </trkpt>
      <trkpt lat="50.54283" lon="3.25969">
        <ele>65.8</ele>
        <time>2020-06-24T08:31:48Z</time>
      </trkpt>
      <trkpt lat="50.54278" lon="3.25976">
        <ele>65.7</ele>
        <time>2020-06-24T08:31:49Z</time>
      </trkpt>
      <trkpt lat="50.54274" lon="3.25982">
        <ele>65.5</ele>
        <time>2020-06-24T08:31:50Z</time>
      </trkpt>
      <trkpt lat="50.5427" lon="3.25989">
        <ele>65.4</ele>
        <time>2020-06-24T08:31:51Z</time>
      </trkpt>
      <trkpt lat="50.54265" lon="3.25996">
        <ele>65.3</ele>
        <time>2020-06-24T08:31:52Z</time>
      </trkpt>
      <trkpt lat="50.54259" lon="3.26002">
        <ele>65.1</ele>
        <time>2020-06-24T08:31:53Z</time>
      </trkpt>
      <trkpt lat="50.54254" lon="3.2601">
        <ele>65</ele>
        <time>2020-06-24T08:31:54Z</time>
      </trkpt>
      <trkpt lat="50.54248" lon="3.26017">
        <ele>64.8</ele>
        <time>2020-06-24T08:31:55Z</time>
      </trkpt>
      <trkpt lat="50.54243" lon="3.26024">
        <ele>64.7</ele>
        <time>2020-06-24T08:31:56Z</time>
      </trkpt>
      <trkpt lat="50.54238" lon="3.26031">
        <ele>64.6</ele>
        <time>2020-06-24T08:31:57Z</time>
      </trkpt>
      <trkpt lat="50.54233" lon="3.26037">
        <ele>64.4</ele>
        <time>2020-06-24T08:31:58Z</time>
      </trkpt>
      <trkpt lat="50.54228" lon="3.26043">
        <ele>64.2</ele>
        <time>2020-06-24T08:31:59Z</time>
      </trkpt>
      <trkpt lat="50.54224" lon="3.26049">
        <ele>64.1</ele>
        <time>2020-06-24T08:32:00Z</time>
      </trkpt>
      <trkpt lat="50.5422" lon="3.26056">
        <ele>63.9</ele>
        <time>2020-06-24T08:32:01Z</time>
      </trkpt>
      <trkpt lat="50.54215" lon="3.26062">
        <ele>63.8</ele>
        <time>2020-06-24T08:32:02Z</time>
      </trkpt>
      <trkpt lat="50.5421" lon="3.26068">
        <ele>63.6</ele>
        <time>2020-06-24T08:32:03Z</time>
      </trkpt>
      <trkpt lat="50.54205" lon="3.26076">
        <ele>63.5</ele>
        <time>2020-06-24T08:32:04Z</time>
      </trkpt>
      <trkpt lat="50.542" lon="3.26081">
        <ele>63.3</ele>
        <time>2020-06-24T08:32:05Z</time>
      </trkpt>
      <trkpt lat="50.54195" lon="3.26088">
        <ele>63.2</ele>
        <time>2020-06-24T08:32:06Z</time>
      </trkpt>
      <trkpt lat="50.5419" lon="3.26095">
        <ele>63</ele>
        <time>2020-06-24T08:32:07Z</time>
      </trkpt>
      <trkpt lat="50.54185" lon="3.26102">
        <ele>62.8</ele>
        <time>2020-06-24T08:32:08Z</time>
      </trkpt>
      <trkpt lat="50.5418" lon="3.26108">
        <ele>62.6</ele>
        <time>2020-06-24T08:32:09Z</time>
      </trkpt>
      <trkpt lat="50.54174" lon="3.26117">
        <ele>62.4</ele>
        <time>2020-06-24T08:32:10Z</time>
      </trkpt>
      <trkpt lat="50.54168" lon="3.26126">
        <ele>62.2</ele>
        <time>2020-06-24T08:32:11Z</time>
      </trkpt>
      <trkpt lat="50.54162" lon="3.26134">
        <ele>62.1</ele>
        <time>2020-06-24T08:32:12Z</time>
      </trkpt>
      <trkpt lat="50.54155" lon="3.26143">
        <ele>61.9</ele>
        <time>2020-06-24T08:32:13Z</time>
      </trkpt>
      <trkpt lat="50.54149" lon="3.26151">
        <ele>61.7</ele>
        <time>2020-06-24T08:32:14Z</time>
      </trkpt>
      <trkpt lat="50.54142" lon="3.2616">
        <ele>61.4</ele>
        <time>2020-06-24T08:32:15Z</time>
      </trkpt>
      <trkpt lat="50.54135" lon="3.26169">
        <ele>61.2</ele>
        <time>2020-06-24T08:32:16Z</time>
      </trkpt>
      <trkpt lat="50.54128" lon="3.26178">
        <ele>60.9</ele>
        <time>2020-06-24T08:32:17Z</time>
      </trkpt>
      <trkpt lat="50.54121" lon="3.26187">
        <ele>60.6</ele>
        <time>2020-06-24T08:32:18Z</time>
      </trkpt>
      <trkpt lat="50.54114" lon="3.26195">
        <ele>60.4</ele>
        <time>2020-06-24T08:32:19Z</time>
      </trkpt>
      <trkpt lat="50.54107" lon="3.26203">
        <ele>60.1</ele>
        <time>2020-06-24T08:32:20Z</time>
      </trkpt>
      <trkpt lat="50.541" lon="3.26211">
        <ele>59.9</ele>
        <time>2020-06-24T08:32:21Z</time>
      </trkpt>
      <trkpt lat="50.54093" lon="3.26219">
        <ele>59.6</ele>
        <time>2020-06-24T08:32:22Z</time>
      </trkpt>
      <trkpt lat="50.54087" lon="3.26227">
        <ele>59.4</ele>
        <time>2020-06-24T08:32:23Z</time>
      </trkpt>
      <trkpt lat="50.54081" lon="3.26236">
        <ele>59.1</ele>
        <time>2020-06-24T08:32:24Z</time>
      </trkpt>
      <trkpt lat="50.54074" lon="3.26245">
        <ele>58.9</ele>
        <time>2020-06-24T08:32:25Z</time>
      </trkpt>
      <trkpt lat="50.54067" lon="3.26254">
        <ele>58.6</ele>
        <time>2020-06-24T08:32:26Z</time>
      </trkpt>
      <trkpt lat="50.5406" lon="3.26263">
        <ele>58.3</ele>
        <time>2020-06-24T08:32:27Z</time>
      </trkpt>
      <trkpt lat="50.54053" lon="3.26272">
        <ele>58</ele>
        <time>2020-06-24T08:32:28Z</time>
      </trkpt>
      <trkpt lat="50.54046" lon="3.26282">
        <ele>57.7</ele>
        <time>2020-06-24T08:32:29Z</time>
      </trkpt>
      <trkpt lat="50.54038" lon="3.2629">
        <ele>57.4</ele>
        <time>2020-06-24T08:32:30Z</time>
      </trkpt>
      <trkpt lat="50.54031" lon="3.263">
        <ele>57.1</ele>
        <time>2020-06-24T08:32:31Z</time>
      </trkpt>
      <trkpt lat="50.54023" lon="3.26309">
        <ele>56.8</ele>
        <time>2020-06-24T08:32:32Z</time>
      </trkpt>
      <trkpt lat="50.54016" lon="3.26318">
        <ele>56.5</ele>
        <time>2020-06-24T08:32:33Z</time>
      </trkpt>
      <trkpt lat="50.54008" lon="3.26327">
        <ele>56.2</ele>
        <time>2020-06-24T08:32:34Z</time>
      </trkpt>
      <trkpt lat="50.54001" lon="3.26336">
        <ele>56</ele>
        <time>2020-06-24T08:32:35Z</time>
      </trkpt>
      <trkpt lat="50.53994" lon="3.26345">
        <ele>55.8</ele>
        <time>2020-06-24T08:32:36Z</time>
      </trkpt>
      <trkpt lat="50.53987" lon="3.26355">
        <ele>55.6</ele>
        <time>2020-06-24T08:32:37Z</time>
      </trkpt>
      <trkpt lat="50.5398" lon="3.26364">
        <ele>55.3</ele>
        <time>2020-06-24T08:32:38Z</time>
      </trkpt>
      <trkpt lat="50.53972" lon="3.26373">
        <ele>55.1</ele>
        <time>2020-06-24T08:32:39Z</time>
      </trkpt>
      <trkpt lat="50.53964" lon="3.26381">
        <ele>54.8</ele>
        <time>2020-06-24T08:32:40Z</time>
      </trkpt>
      <trkpt lat="50.53957" lon="3.2639">
        <ele>54.6</ele>
        <time>2020-06-24T08:32:41Z</time>
      </trkpt>
      <trkpt lat="50.5395" lon="3.26401">
        <ele>54.3</ele>
        <time>2020-06-24T08:32:42Z</time>
      </trkpt>
      <trkpt lat="50.53944" lon="3.26411">
        <ele>54.1</ele>
        <time>2020-06-24T08:32:43Z</time>
      </trkpt>
      <trkpt lat="50.53937" lon="3.2642">
        <ele>54</ele>
        <time>2020-06-24T08:32:44Z</time>
      </trkpt>
      <trkpt lat="50.5393" lon="3.26429">
        <ele>53.8</ele>
        <time>2020-06-24T08:32:45Z</time>
      </trkpt>
      <trkpt lat="50.53923" lon="3.26438">
        <ele>53.7</ele>
        <time>2020-06-24T08:32:46Z</time>
      </trkpt>
      <trkpt lat="50.53916" lon="3.26446">
        <ele>53.5</ele>
        <time>2020-06-24T08:32:47Z</time>
      </trkpt>
      <trkpt lat="50.53909" lon="3.26455">
        <ele>53.3</ele>
        <time>2020-06-24T08:32:48Z</time>
      </trkpt>
      <trkpt lat="50.53902" lon="3.26464">
        <ele>53.1</ele>
        <time>2020-06-24T08:32:49Z</time>
      </trkpt>
      <trkpt lat="50.53896" lon="3.26474">
        <ele>52.9</ele>
        <time>2020-06-24T08:32:50Z</time>
      </trkpt>
      <trkpt lat="50.53889" lon="3.26483">
        <ele>52.7</ele>
        <time>2020-06-24T08:32:51Z</time>
      </trkpt>
      <trkpt lat="50.53882" lon="3.26491">
        <ele>52.6</ele>
        <time>2020-06-24T08:32:52Z</time>
      </trkpt>
      <trkpt lat="50.53875" lon="3.265">
        <ele>52.5</ele>
        <time>2020-06-24T08:32:53Z</time>
      </trkpt>
      <trkpt lat="50.53868" lon="3.26508">
        <ele>52.4</ele>
        <time>2020-06-24T08:32:54Z</time>
      </trkpt>
      <trkpt lat="50.53861" lon="3.26517">
        <ele>52.2</ele>
        <time>2020-06-24T08:32:55Z</time>
      </trkpt>
      <trkpt lat="50.53855" lon="3.26526">
        <ele>52</ele>
        <time>2020-06-24T08:32:56Z</time>
      </trkpt>
      <trkpt lat="50.53847" lon="3.26534">
        <ele>51.8</ele>
        <time>2020-06-24T08:32:57Z</time>
      </trkpt>
      <trkpt lat="50.53841" lon="3.26543">
        <ele>51.6</ele>
        <time>2020-06-24T08:32:58Z</time>
      </trkpt>
      <trkpt lat="50.53834" lon="3.26551">
        <ele>51.3</ele>
        <time>2020-06-24T08:32:59Z</time>
      </trkpt>
      <trkpt lat="50.53827" lon="3.26559">
        <ele>51.2</ele>
        <time>2020-06-24T08:33:00Z</time>
      </trkpt>
      <trkpt lat="50.53821" lon="3.26567">
        <ele>51</ele>
        <time>2020-06-24T08:33:01Z</time>
      </trkpt>
      <trkpt lat="50.53815" lon="3.26576">
        <ele>50.9</ele>
        <time>2020-06-24T08:33:02Z</time>
      </trkpt>
      <trkpt lat="50.53808" lon="3.26585">
        <ele>50.7</ele>
        <time>2020-06-24T08:33:03Z</time>
      </trkpt>
      <trkpt lat="50.53802" lon="3.26594">
        <ele>50.6</ele>
        <time>2020-06-24T08:33:04Z</time>
      </trkpt>
      <trkpt lat="50.53795" lon="3.26603">
        <ele>50.4</ele>
        <time>2020-06-24T08:33:05Z</time>
      </trkpt>
      <trkpt lat="50.53788" lon="3.26611">
        <ele>50.3</ele>
        <time>2020-06-24T08:33:06Z</time>
      </trkpt>
      <trkpt lat="50.53781" lon="3.2662">
        <ele>50.2</ele>
        <time>2020-06-24T08:33:07Z</time>
      </trkpt>
      <trkpt lat="50.53775" lon="3.26629">
        <ele>50.1</ele>
        <time>2020-06-24T08:33:08Z</time>
      </trkpt>
      <trkpt lat="50.53768" lon="3.26637">
        <ele>49.9</ele>
        <time>2020-06-24T08:33:09Z</time>
      </trkpt>
      <trkpt lat="50.53761" lon="3.26646">
        <ele>49.8</ele>
        <time>2020-06-24T08:33:10Z</time>
      </trkpt>
      <trkpt lat="50.53755" lon="3.26655">
        <ele>49.6</ele>
        <time>2020-06-24T08:33:11Z</time>
      </trkpt>
      <trkpt lat="50.53749" lon="3.26664">
        <ele>49.4</ele>
        <time>2020-06-24T08:33:12Z</time>
      </trkpt>
      <trkpt lat="50.53742" lon="3.26672">
        <ele>49.3</ele>
        <time>2020-06-24T08:33:13Z</time>
      </trkpt>
      <trkpt lat="50.53735" lon="3.26681">
        <ele>49.1</ele>
        <time>2020-06-24T08:33:14Z</time>
      </trkpt>
      <trkpt lat="50.53728" lon="3.26689">
        <ele>49</ele>
        <time>2020-06-24T08:33:15Z</time>
      </trkpt>
      <trkpt lat="50.53722" lon="3.26698">
        <ele>48.8</ele>
        <time>2020-06-24T08:33:16Z</time>
      </trkpt>
      <trkpt lat="50.53715" lon="3.26707">
        <ele>48.7</ele>
        <time>2020-06-24T08:33:17Z</time>
      </trkpt>
      <trkpt lat="50.53708" lon="3.26716">
        <ele>48.6</ele>
        <time>2020-06-24T08:33:18Z</time>
      </trkpt>
      <trkpt lat="50.53701" lon="3.26724">
        <ele>48.4</ele>
        <time>2020-06-24T08:33:19Z</time>
      </trkpt>
      <trkpt lat="50.53695" lon="3.26733">
        <ele>48.2</ele>
        <time>2020-06-24T08:33:20Z</time>
      </trkpt>
      <trkpt lat="50.53687" lon="3.2674">
        <ele>48.1</ele>
        <time>2020-06-24T08:33:21Z</time>
      </trkpt>
      <trkpt lat="50.5368" lon="3.26749">
        <ele>47.9</ele>
        <time>2020-06-24T08:33:22Z</time>
      </trkpt>
      <trkpt lat="50.53673" lon="3.26757">
        <ele>47.8</ele>
        <time>2020-06-24T08:33:23Z</time>
      </trkpt>
      <trkpt lat="50.53666" lon="3.26767">
        <ele>47.6</ele>
        <time>2020-06-24T08:33:24Z</time>
      </trkpt>
      <trkpt lat="50.53659" lon="3.26776">
        <ele>47.5</ele>
        <time>2020-06-24T08:33:25Z</time>
      </trkpt>
      <trkpt lat="50.53652" lon="3.26786">
        <ele>47.3</ele>
        <time>2020-06-24T08:33:26Z</time>
      </trkpt>
      <trkpt lat="50.53645" lon="3.26795">
        <ele>47.1</ele>
        <time>2020-06-24T08:33:27Z</time>
      </trkpt>
      <trkpt lat="50.53637" lon="3.26804">
        <ele>47</ele>
        <time>2020-06-24T08:33:28Z</time>
      </trkpt>
      <trkpt lat="50.53629" lon="3.26813">
        <ele>46.9</ele>
        <time>2020-06-24T08:33:29Z</time>
      </trkpt>
      <trkpt lat="50.53622" lon="3.26823">
        <ele>46.8</ele>
        <time>2020-06-24T08:33:30Z</time>
      </trkpt>
      <trkpt lat="50.53614" lon="3.26833">
        <ele>46.7</ele>
        <time>2020-06-24T08:33:31Z</time>
      </trkpt>
      <trkpt lat="50.53607" lon="3.26842">
        <ele>46.6</ele>
        <time>2020-06-24T08:33:32Z</time>
      </trkpt>
      <trkpt lat="50.53599" lon="3.26851">
        <ele>46.5</ele>
        <time>2020-06-24T08:33:33Z</time>
      </trkpt>
      <trkpt lat="50.53592" lon="3.26861">
        <ele>46.4</ele>
        <time>2020-06-24T08:33:34Z</time>
      </trkpt>
      <trkpt lat="50.53584" lon="3.2687">
        <ele>46.3</ele>
        <time>2020-06-24T08:33:35Z</time>
      </trkpt>
      <trkpt lat="50.53576" lon="3.2688">
        <ele>46.2</ele>
        <time>2020-06-24T08:33:36Z</time>
      </trkpt>
      <trkpt lat="50.53569" lon="3.2689">
        <ele>46.1</ele>
        <time>2020-06-24T08:33:37Z</time>
      </trkpt>
      <trkpt lat="50.53561" lon="3.26899">
        <ele>45.9</ele>
        <time>2020-06-24T08:33:38Z</time>
      </trkpt>
      <trkpt lat="50.53554" lon="3.26909">
        <ele>45.7</ele>
        <time>2020-06-24T08:33:39Z</time>
      </trkpt>
      <trkpt lat="50.53547" lon="3.26919">
        <ele>45.6</ele>
        <time>2020-06-24T08:33:40Z</time>
      </trkpt>
      <trkpt lat="50.53539" lon="3.26928">
        <ele>45.5</ele>
        <time>2020-06-24T08:33:41Z</time>
      </trkpt>
      <trkpt lat="50.53532" lon="3.26938">
        <ele>45.4</ele>
        <time>2020-06-24T08:33:42Z</time>
      </trkpt>
      <trkpt lat="50.53524" lon="3.26947">
        <ele>45.3</ele>
        <time>2020-06-24T08:33:43Z</time>
      </trkpt>
      <trkpt lat="50.53517" lon="3.26956">
        <ele>45.2</ele>
        <time>2020-06-24T08:33:44Z</time>
      </trkpt>
      <trkpt lat="50.53509" lon="3.26966">
        <ele>45.1</ele>
        <time>2020-06-24T08:33:45Z</time>
      </trkpt>
      <trkpt lat="50.53502" lon="3.26976">
        <ele>45</ele>
        <time>2020-06-24T08:33:46Z</time>
      </trkpt>
      <trkpt lat="50.53495" lon="3.26986">
        <ele>44.8</ele>
        <time>2020-06-24T08:33:47Z</time>
      </trkpt>
      <trkpt lat="50.53488" lon="3.26996">
        <ele>44.7</ele>
        <time>2020-06-24T08:33:48Z</time>
      </trkpt>
      <trkpt lat="50.53479" lon="3.27006">
        <ele>44.6</ele>
        <time>2020-06-24T08:33:49Z</time>
      </trkpt>
      <trkpt lat="50.53471" lon="3.27016">
        <ele>44.5</ele>
        <time>2020-06-24T08:33:50Z</time>
      </trkpt>
      <trkpt lat="50.53463" lon="3.27025">
        <ele>44.3</ele>
        <time>2020-06-24T08:33:51Z</time>
      </trkpt>
      <trkpt lat="50.53455" lon="3.27035">
        <ele>44.2</ele>
        <time>2020-06-24T08:33:52Z</time>
      </trkpt>
      <trkpt lat="50.53447" lon="3.27045">
        <ele>44</ele>
        <time>2020-06-24T08:33:53Z</time>
      </trkpt>
      <trkpt lat="50.5344" lon="3.27055">
        <ele>43.9</ele>
        <time>2020-06-24T08:33:54Z</time>
      </trkpt>
      <trkpt lat="50.53432" lon="3.27066">
        <ele>43.8</ele>
        <time>2020-06-24T08:33:55Z</time>
      </trkpt>
      <trkpt lat="50.53425" lon="3.27076">
        <ele>43.7</ele>
        <time>2020-06-24T08:33:56Z</time>
      </trkpt>
      <trkpt lat="50.53418" lon="3.27084">
        <ele>43.6</ele>
        <time>2020-06-24T08:33:57Z</time>
      </trkpt>
      <trkpt lat="50.53411" lon="3.27092">
        <ele>43.4</ele>
        <time>2020-06-24T08:33:58Z</time>
      </trkpt>
      <trkpt lat="50.53404" lon="3.271">
        <ele>43.3</ele>
        <time>2020-06-24T08:33:59Z</time>
      </trkpt>
      <trkpt lat="50.53398" lon="3.27108">
        <ele>43.3</ele>
        <time>2020-06-24T08:34:00Z</time>
      </trkpt>
      <trkpt lat="50.53392" lon="3.27115">
        <ele>43.3</ele>
        <time>2020-06-24T08:34:01Z</time>
      </trkpt>
      <trkpt lat="50.53386" lon="3.27123">
        <ele>43.3</ele>
        <time>2020-06-24T08:34:02Z</time>
      </trkpt>
      <trkpt lat="50.5338" lon="3.2713">
        <ele>43.4</ele>
        <time>2020-06-24T08:34:03Z</time>
      </trkpt>
      <trkpt lat="50.53375" lon="3.27138">
        <ele>43.5</ele>
        <time>2020-06-24T08:34:04Z</time>
      </trkpt>
      <trkpt lat="50.53369" lon="3.27145">
        <ele>43.3</ele>
        <time>2020-06-24T08:34:05Z</time>
      </trkpt>
      <trkpt lat="50.53364" lon="3.27153">
        <ele>43.2</ele>
        <time>2020-06-24T08:34:06Z</time>
      </trkpt>
      <trkpt lat="50.53358" lon="3.2716">
        <ele>43.1</ele>
        <time>2020-06-24T08:34:07Z</time>
      </trkpt>
      <trkpt lat="50.53353" lon="3.27167">
        <ele>42.9</ele>
        <time>2020-06-24T08:34:08Z</time>
      </trkpt>
      <trkpt lat="50.53348" lon="3.27173">
        <ele>42.8</ele>
        <time>2020-06-24T08:34:09Z</time>
      </trkpt>
      <trkpt lat="50.53343" lon="3.2718">
        <ele>42.7</ele>
        <time>2020-06-24T08:34:10Z</time>
      </trkpt>
      <trkpt lat="50.53337" lon="3.27187">
        <ele>42.6</ele>
        <time>2020-06-24T08:34:11Z</time>
      </trkpt>
      <trkpt lat="50.53332" lon="3.27192">
        <ele>42.4</ele>
        <time>2020-06-24T08:34:12Z</time>
      </trkpt>
      <trkpt lat="50.53327" lon="3.27199">
        <ele>42.4</ele>
        <time>2020-06-24T08:34:13Z</time>
      </trkpt>
      <trkpt lat="50.53322" lon="3.27205">
        <ele>42.3</ele>
        <time>2020-06-24T08:34:14Z</time>
      </trkpt>
      <trkpt lat="50.53317" lon="3.27213">
        <ele>42.2</ele>
        <time>2020-06-24T08:34:15Z</time>
      </trkpt>
      <trkpt lat="50.53312" lon="3.2722">
        <ele>42.1</ele>
        <time>2020-06-24T08:34:16Z</time>
      </trkpt>
      <trkpt lat="50.53306" lon="3.27227">
        <ele>42.1</ele>
        <time>2020-06-24T08:34:17Z</time>
      </trkpt>
      <trkpt lat="50.53301" lon="3.27235">
        <ele>42</ele>
        <time>2020-06-24T08:34:18Z</time>
      </trkpt>
      <trkpt lat="50.53295" lon="3.27242">
        <ele>41.9</ele>
        <time>2020-06-24T08:34:19Z</time>
      </trkpt>
      <trkpt lat="50.5329" lon="3.2725">
        <ele>41.8</ele>
        <time>2020-06-24T08:34:20Z</time>
      </trkpt>
      <trkpt lat="50.53285" lon="3.27259">
        <ele>41.7</ele>
        <time>2020-06-24T08:34:21Z</time>
      </trkpt>
      <trkpt lat="50.53279" lon="3.27267">
        <ele>41.6</ele>
        <time>2020-06-24T08:34:22Z</time>
      </trkpt>
      <trkpt lat="50.53274" lon="3.27275">
        <ele>41.5</ele>
        <time>2020-06-24T08:34:23Z</time>
      </trkpt>
      <trkpt lat="50.53267" lon="3.27282">
        <ele>41.4</ele>
        <time>2020-06-24T08:34:24Z</time>
      </trkpt>
      <trkpt lat="50.53262" lon="3.27291">
        <ele>41.3</ele>
        <time>2020-06-24T08:34:25Z</time>
      </trkpt>
      <trkpt lat="50.53255" lon="3.27299">
        <ele>41.2</ele>
        <time>2020-06-24T08:34:26Z</time>
      </trkpt>
      <trkpt lat="50.53249" lon="3.27308">
        <ele>41.1</ele>
        <time>2020-06-24T08:34:27Z</time>
      </trkpt>
      <trkpt lat="50.53243" lon="3.27316">
        <ele>41</ele>
        <time>2020-06-24T08:34:28Z</time>
      </trkpt>
      <trkpt lat="50.53236" lon="3.27326">
        <ele>40.9</ele>
        <time>2020-06-24T08:34:29Z</time>
      </trkpt>
      <trkpt lat="50.5323" lon="3.27334">
        <ele>40.8</ele>
        <time>2020-06-24T08:34:30Z</time>
      </trkpt>
      <trkpt lat="50.53222" lon="3.27342">
        <ele>40.7</ele>
        <time>2020-06-24T08:34:31Z</time>
      </trkpt>
      <trkpt lat="50.53214" lon="3.27349">
        <ele>40.7</ele>
        <time>2020-06-24T08:34:32Z</time>
      </trkpt>
      <trkpt lat="50.53207" lon="3.27357">
        <ele>40.6</ele>
        <time>2020-06-24T08:34:33Z</time>
      </trkpt>
      <trkpt lat="50.53201" lon="3.27367">
        <ele>40.5</ele>
        <time>2020-06-24T08:34:34Z</time>
      </trkpt>
      <trkpt lat="50.53195" lon="3.27375">
        <ele>40.4</ele>
        <time>2020-06-24T08:34:35Z</time>
      </trkpt>
      <trkpt lat="50.53189" lon="3.27384">
        <ele>40.4</ele>
        <time>2020-06-24T08:34:36Z</time>
      </trkpt>
      <trkpt lat="50.53182" lon="3.27392">
        <ele>40.3</ele>
        <time>2020-06-24T08:34:37Z</time>
      </trkpt>
      <trkpt lat="50.53175" lon="3.274">
        <ele>40.2</ele>
        <time>2020-06-24T08:34:38Z</time>
      </trkpt>
      <trkpt lat="50.53168" lon="3.27408">
        <ele>40.1</ele>
        <time>2020-06-24T08:34:39Z</time>
      </trkpt>
      <trkpt lat="50.53162" lon="3.27417">
        <ele>40</ele>
        <time>2020-06-24T08:34:40Z</time>
      </trkpt>
      <trkpt lat="50.53155" lon="3.27425">
        <ele>39.9</ele>
        <time>2020-06-24T08:34:41Z</time>
      </trkpt>
      <trkpt lat="50.53148" lon="3.27433">
        <ele>39.9</ele>
        <time>2020-06-24T08:34:42Z</time>
      </trkpt>
      <trkpt lat="50.53142" lon="3.27442">
        <ele>39.8</ele>
        <time>2020-06-24T08:34:43Z</time>
      </trkpt>
      <trkpt lat="50.53135" lon="3.2745">
        <ele>39.7</ele>
        <time>2020-06-24T08:34:44Z</time>
      </trkpt>
      <trkpt lat="50.53128" lon="3.27458">
        <ele>39.6</ele>
        <time>2020-06-24T08:34:45Z</time>
      </trkpt>
      <trkpt lat="50.53122" lon="3.27467">
        <ele>39.5</ele>
        <time>2020-06-24T08:34:46Z</time>
      </trkpt>
      <trkpt lat="50.53115" lon="3.27475">
        <ele>39.3</ele>
        <time>2020-06-24T08:34:47Z</time>
      </trkpt>
      <trkpt lat="50.53109" lon="3.27484">
        <ele>39.2</ele>
        <time>2020-06-24T08:34:48Z</time>
      </trkpt>
      <trkpt lat="50.53103" lon="3.27493">
        <ele>39.1</ele>
        <time>2020-06-24T08:34:49Z</time>
      </trkpt>
      <trkpt lat="50.53096" lon="3.27502">
        <ele>39</ele>
        <time>2020-06-24T08:34:50Z</time>
      </trkpt>
      <trkpt lat="50.5309" lon="3.27511">
        <ele>38.8</ele>
        <time>2020-06-24T08:34:51Z</time>
      </trkpt>
      <trkpt lat="50.53083" lon="3.27518">
        <ele>38.7</ele>
        <time>2020-06-24T08:34:52Z</time>
      </trkpt>
      <trkpt lat="50.53077" lon="3.27527">
        <ele>38.7</ele>
        <time>2020-06-24T08:34:53Z</time>
      </trkpt>
      <trkpt lat="50.53071" lon="3.27535">
        <ele>38.6</ele>
        <time>2020-06-24T08:34:54Z</time>
      </trkpt>
      <trkpt lat="50.53065" lon="3.27543">
        <ele>38.5</ele>
        <time>2020-06-24T08:34:55Z</time>
      </trkpt>
      <trkpt lat="50.53059" lon="3.27551">
        <ele>38.4</ele>
        <time>2020-06-24T08:34:56Z</time>
      </trkpt>
      <trkpt lat="50.53053" lon="3.27559">
        <ele>38.3</ele>
        <time>2020-06-24T08:34:57Z</time>
      </trkpt>
      <trkpt lat="50.53047" lon="3.27568">
        <ele>38.2</ele>
        <time>2020-06-24T08:34:58Z</time>
      </trkpt>
      <trkpt lat="50.53041" lon="3.27575">
        <ele>38.1</ele>
        <time>2020-06-24T08:34:59Z</time>
      </trkpt>
      <trkpt lat="50.53035" lon="3.27582">
        <ele>38</ele>
        <time>2020-06-24T08:35:00Z</time>
      </trkpt>
      <trkpt lat="50.53029" lon="3.27589">
        <ele>37.9</ele>
        <time>2020-06-24T08:35:01Z</time>
      </trkpt>
      <trkpt lat="50.53023" lon="3.27596">
        <ele>37.9</ele>
        <time>2020-06-24T08:35:02Z</time>
      </trkpt>
      <trkpt lat="50.53018" lon="3.27603">
        <ele>37.8</ele>
        <time>2020-06-24T08:35:03Z</time>
      </trkpt>
      <trkpt lat="50.53012" lon="3.27611">
        <ele>37.8</ele>
        <time>2020-06-24T08:35:04Z</time>
      </trkpt>
      <trkpt lat="50.53007" lon="3.27618">
        <ele>37.7</ele>
        <time>2020-06-24T08:35:05Z</time>
      </trkpt>
      <trkpt lat="50.53001" lon="3.27626">
        <ele>37.6</ele>
        <time>2020-06-24T08:35:06Z</time>
      </trkpt>
      <trkpt lat="50.52996" lon="3.27634">
        <ele>37.5</ele>
        <time>2020-06-24T08:35:07Z</time>
      </trkpt>
      <trkpt lat="50.52992" lon="3.27642">
        <ele>37.5</ele>
        <time>2020-06-24T08:35:08Z</time>
      </trkpt>
      <trkpt lat="50.52986" lon="3.27647">
        <ele>37.4</ele>
        <time>2020-06-24T08:35:09Z</time>
      </trkpt>
      <trkpt lat="50.52981" lon="3.27654">
        <ele>37.3</ele>
        <time>2020-06-24T08:35:10Z</time>
      </trkpt>
      <trkpt lat="50.52976" lon="3.27661">
        <ele>37.2</ele>
        <time>2020-06-24T08:35:11Z</time>
      </trkpt>
      <trkpt lat="50.52971" lon="3.27667">
        <ele>37.2</ele>
        <time>2020-06-24T08:35:12Z</time>
      </trkpt>
      <trkpt lat="50.52966" lon="3.27674">
        <ele>37.1</ele>
        <time>2020-06-24T08:35:13Z</time>
      </trkpt>
      <trkpt lat="50.5296" lon="3.2768">
        <ele>37</ele>
        <time>2020-06-24T08:35:14Z</time>
      </trkpt>
      <trkpt lat="50.52955" lon="3.27686">
        <ele>36.9</ele>
        <time>2020-06-24T08:35:15Z</time>
      </trkpt>
      <trkpt lat="50.5295" lon="3.27693">
        <ele>36.9</ele>
        <time>2020-06-24T08:35:16Z</time>
      </trkpt>
      <trkpt lat="50.52944" lon="3.277">
        <ele>36.8</ele>
        <time>2020-06-24T08:35:17Z</time>
      </trkpt>
      <trkpt lat="50.52938" lon="3.27708">
        <ele>36.7</ele>
        <time>2020-06-24T08:35:18Z</time>
      </trkpt>
      <trkpt lat="50.52932" lon="3.27714">
        <ele>36.7</ele>
        <time>2020-06-24T08:35:19Z</time>
      </trkpt>
      <trkpt lat="50.52927" lon="3.27722">
        <ele>36.6</ele>
        <time>2020-06-24T08:35:20Z</time>
      </trkpt>
      <trkpt lat="50.52922" lon="3.27729">
        <ele>36.5</ele>
        <time>2020-06-24T08:35:21Z</time>
      </trkpt>
      <trkpt lat="50.52916" lon="3.27736">
        <ele>36.4</ele>
        <time>2020-06-24T08:35:22Z</time>
      </trkpt>
      <trkpt lat="50.5291" lon="3.27742">
        <ele>36.4</ele>
        <time>2020-06-24T08:35:23Z</time>
      </trkpt>
      <trkpt lat="50.52904" lon="3.27749">
        <ele>36.3</ele>
        <time>2020-06-24T08:35:24Z</time>
      </trkpt>
      <trkpt lat="50.52899" lon="3.27757">
        <ele>36.2</ele>
        <time>2020-06-24T08:35:25Z</time>
      </trkpt>
      <trkpt lat="50.52893" lon="3.27763">
        <ele>36.1</ele>
        <time>2020-06-24T08:35:26Z</time>
      </trkpt>
      <trkpt lat="50.52887" lon="3.27769">
        <ele>36.1</ele>
        <time>2020-06-24T08:35:27Z</time>
      </trkpt>
      <trkpt lat="50.52882" lon="3.27775">
        <ele>36</ele>
        <time>2020-06-24T08:35:28Z</time>
      </trkpt>
      <trkpt lat="50.52877" lon="3.27783">
        <ele>35.9</ele>
        <time>2020-06-24T08:35:29Z</time>
      </trkpt>
      <trkpt lat="50.52872" lon="3.2779">
        <ele>35.8</ele>
        <time>2020-06-24T08:35:30Z</time>
      </trkpt>
      <trkpt lat="50.52867" lon="3.27796">
        <ele>35.8</ele>
        <time>2020-06-24T08:35:31Z</time>
      </trkpt>
      <trkpt lat="50.52862" lon="3.27803">
        <ele>35.7</ele>
        <time>2020-06-24T08:35:32Z</time>
      </trkpt>
      <trkpt lat="50.52858" lon="3.27809">
        <ele>35.7</ele>
        <time>2020-06-24T08:35:33Z</time>
      </trkpt>
      <trkpt lat="50.52853" lon="3.27816">
        <ele>35.6</ele>
        <time>2020-06-24T08:35:34Z</time>
      </trkpt>
      <trkpt lat="50.52847" lon="3.27822">
        <ele>35.6</ele>
        <time>2020-06-24T08:35:35Z</time>
      </trkpt>
      <trkpt lat="50.52843" lon="3.27829">
        <ele>35.5</ele>
        <time>2020-06-24T08:35:36Z</time>
      </trkpt>
      <trkpt lat="50.52838" lon="3.27836">
        <ele>35.4</ele>
        <time>2020-06-24T08:35:37Z</time>
      </trkpt>
      <trkpt lat="50.52832" lon="3.27842">
        <ele>35.3</ele>
        <time>2020-06-24T08:35:38Z</time>
      </trkpt>
      <trkpt lat="50.52827" lon="3.27848">
        <ele>35.3</ele>
        <time>2020-06-24T08:35:39Z</time>
      </trkpt>
      <trkpt lat="50.52821" lon="3.27855">
        <ele>35.2</ele>
        <time>2020-06-24T08:35:40Z</time>
      </trkpt>
      <trkpt lat="50.52816" lon="3.27862">
        <ele>35.2</ele>
        <time>2020-06-24T08:35:41Z</time>
      </trkpt>
      <trkpt lat="50.52812" lon="3.27869">
        <ele>35.2</ele>
        <time>2020-06-24T08:35:42Z</time>
      </trkpt>
      <trkpt lat="50.52807" lon="3.27876">
        <ele>35.2</ele>
        <time>2020-06-24T08:35:43Z</time>
      </trkpt>
      <trkpt lat="50.52802" lon="3.27883">
        <ele>35.2</ele>
        <time>2020-06-24T08:35:44Z</time>
      </trkpt>
      <trkpt lat="50.52797" lon="3.27889">
        <ele>35.2</ele>
        <time>2020-06-24T08:35:45Z</time>
      </trkpt>
      <trkpt lat="50.52791" lon="3.27895">
        <ele>35.2</ele>
        <time>2020-06-24T08:35:46Z</time>
      </trkpt>
      <trkpt lat="50.52786" lon="3.27901">
        <ele>35.2</ele>
        <time>2020-06-24T08:35:47Z</time>
      </trkpt>
      <trkpt lat="50.52781" lon="3.27907">
        <ele>35.1</ele>
        <time>2020-06-24T08:35:48Z</time>
      </trkpt>
      <trkpt lat="50.52776" lon="3.27914">
        <ele>35.1</ele>
        <time>2020-06-24T08:35:49Z</time>
      </trkpt>
      <trkpt lat="50.52771" lon="3.27921">
        <ele>35</ele>
        <time>2020-06-24T08:35:50Z</time>
      </trkpt>
      <trkpt lat="50.52765" lon="3.27928">
        <ele>35</ele>
        <time>2020-06-24T08:35:51Z</time>
      </trkpt>
      <trkpt lat="50.5276" lon="3.27935">
        <ele>35</ele>
        <time>2020-06-24T08:35:52Z</time>
      </trkpt>
      <trkpt lat="50.52755" lon="3.27942">
        <ele>34.9</ele>
        <time>2020-06-24T08:35:53Z</time>
      </trkpt>
      <trkpt lat="50.5275" lon="3.27949">
        <ele>34.9</ele>
        <time>2020-06-24T08:35:54Z</time>
      </trkpt>
      <trkpt lat="50.52745" lon="3.27956">
        <ele>34.8</ele>
        <time>2020-06-24T08:35:55Z</time>
      </trkpt>
      <trkpt lat="50.5274" lon="3.27963">
        <ele>34.8</ele>
        <time>2020-06-24T08:35:56Z</time>
      </trkpt>
      <trkpt lat="50.52735" lon="3.2797">
        <ele>34.8</ele>
        <time>2020-06-24T08:35:57Z</time>
      </trkpt>
      <trkpt lat="50.52729" lon="3.27977">
        <ele>34.8</ele>
        <time>2020-06-24T08:35:58Z</time>
      </trkpt>
      <trkpt lat="50.52724" lon="3.27983">
        <ele>34.9</ele>
        <time>2020-06-24T08:35:59Z</time>
      </trkpt>
      <trkpt lat="50.52719" lon="3.2799">
        <ele>34.9</ele>
        <time>2020-06-24T08:36:00Z</time>
      </trkpt>
      <trkpt lat="50.52714" lon="3.27996">
        <ele>34.9</ele>
        <time>2020-06-24T08:36:01Z</time>
      </trkpt>
      <trkpt lat="50.52709" lon="3.28002">
        <ele>34.9</ele>
        <time>2020-06-24T08:36:02Z</time>
      </trkpt>
      <trkpt lat="50.52704" lon="3.28008">
        <ele>34.9</ele>
        <time>2020-06-24T08:36:03Z</time>
      </trkpt>
      <trkpt lat="50.52698" lon="3.28014">
        <ele>35</ele>
        <time>2020-06-24T08:36:04Z</time>
      </trkpt>
      <trkpt lat="50.52693" lon="3.2802">
        <ele>35</ele>
        <time>2020-06-24T08:36:05Z</time>
      </trkpt>
      <trkpt lat="50.52688" lon="3.28027">
        <ele>35</ele>
        <time>2020-06-24T08:36:06Z</time>
      </trkpt>
      <trkpt lat="50.52683" lon="3.28033">
        <ele>35.1</ele>
        <time>2020-06-24T08:36:07Z</time>
      </trkpt>
      <trkpt lat="50.52678" lon="3.28039">
        <ele>35.1</ele>
        <time>2020-06-24T08:36:08Z</time>
      </trkpt>
      <trkpt lat="50.52673" lon="3.28046">
        <ele>35.1</ele>
        <time>2020-06-24T08:36:09Z</time>
      </trkpt>
      <trkpt lat="50.52668" lon="3.28053">
        <ele>35.1</ele>
        <time>2020-06-24T08:36:10Z</time>
      </trkpt>
      <trkpt lat="50.52663" lon="3.2806">
        <ele>35.1</ele>
        <time>2020-06-24T08:36:11Z</time>
      </trkpt>
      <trkpt lat="50.52658" lon="3.28067">
        <ele>35.1</ele>
        <time>2020-06-24T08:36:12Z</time>
      </trkpt>
      <trkpt lat="50.52653" lon="3.28073">
        <ele>35.1</ele>
        <time>2020-06-24T08:36:13Z</time>
      </trkpt>
      <trkpt lat="50.52648" lon="3.2808">
        <ele>35.1</ele>
        <time>2020-06-24T08:36:14Z</time>
      </trkpt>
      <trkpt lat="50.52643" lon="3.28086">
        <ele>35.1</ele>
        <time>2020-06-24T08:36:15Z</time>
      </trkpt>
      <trkpt lat="50.52637" lon="3.28092">
        <ele>35</ele>
        <time>2020-06-24T08:36:16Z</time>
      </trkpt>
      <trkpt lat="50.52632" lon="3.281">
        <ele>35</ele>
        <time>2020-06-24T08:36:17Z</time>
      </trkpt>
      <trkpt lat="50.52627" lon="3.28106">
        <ele>35</ele>
        <time>2020-06-24T08:36:18Z</time>
      </trkpt>
      <trkpt lat="50.52622" lon="3.28113">
        <ele>34.9</ele>
        <time>2020-06-24T08:36:19Z</time>
      </trkpt>
      <trkpt lat="50.52617" lon="3.28118">
        <ele>34.9</ele>
        <time>2020-06-24T08:36:20Z</time>
      </trkpt>
      <trkpt lat="50.52612" lon="3.28125">
        <ele>34.9</ele>
        <time>2020-06-24T08:36:21Z</time>
      </trkpt>
      <trkpt lat="50.52607" lon="3.28132">
        <ele>34.8</ele>
        <time>2020-06-24T08:36:22Z</time>
      </trkpt>
      <trkpt lat="50.52601" lon="3.28138">
        <ele>34.8</ele>
        <time>2020-06-24T08:36:23Z</time>
      </trkpt>
      <trkpt lat="50.52596" lon="3.28145">
        <ele>34.7</ele>
        <time>2020-06-24T08:36:24Z</time>
      </trkpt>
      <trkpt lat="50.52591" lon="3.28151">
        <ele>34.7</ele>
        <time>2020-06-24T08:36:25Z</time>
      </trkpt>
      <trkpt lat="50.52586" lon="3.28158">
        <ele>34.7</ele>
        <time>2020-06-24T08:36:26Z</time>
      </trkpt>
      <trkpt lat="50.52581" lon="3.28165">
        <ele>34.8</ele>
        <time>2020-06-24T08:36:27Z</time>
      </trkpt>
      <trkpt lat="50.52576" lon="3.28171">
        <ele>34.8</ele>
        <time>2020-06-24T08:36:28Z</time>
      </trkpt>
      <trkpt lat="50.52571" lon="3.28179">
        <ele>34.8</ele>
        <time>2020-06-24T08:36:29Z</time>
      </trkpt>
      <trkpt lat="50.52566" lon="3.28185">
        <ele>34.7</ele>
        <time>2020-06-24T08:36:30Z</time>
      </trkpt>
      <trkpt lat="50.52561" lon="3.28192">
        <ele>34.6</ele>
        <time>2020-06-24T08:36:31Z</time>
      </trkpt>
      <trkpt lat="50.52556" lon="3.28198">
        <ele>34.5</ele>
        <time>2020-06-24T08:36:32Z</time>
      </trkpt>
      <trkpt lat="50.52551" lon="3.28204">
        <ele>34.4</ele>
        <time>2020-06-24T08:36:33Z</time>
      </trkpt>
      <trkpt lat="50.52547" lon="3.28211">
        <ele>34.3</ele>
        <time>2020-06-24T08:36:34Z</time>
      </trkpt>
      <trkpt lat="50.52542" lon="3.28216">
        <ele>34.2</ele>
        <time>2020-06-24T08:36:35Z</time>
      </trkpt>
      <trkpt lat="50.52537" lon="3.28222">
        <ele>34.2</ele>
        <time>2020-06-24T08:36:36Z</time>
      </trkpt>
      <trkpt lat="50.52531" lon="3.28228">
        <ele>34.1</ele>
        <time>2020-06-24T08:36:37Z</time>
      </trkpt>
      <trkpt lat="50.52527" lon="3.28234">
        <ele>34.1</ele>
        <time>2020-06-24T08:36:38Z</time>
      </trkpt>
      <trkpt lat="50.52522" lon="3.28241">
        <ele>34</ele>
        <time>2020-06-24T08:36:39Z</time>
      </trkpt>
      <trkpt lat="50.52518" lon="3.28247">
        <ele>34</ele>
        <time>2020-06-24T08:36:40Z</time>
      </trkpt>
      <trkpt lat="50.52513" lon="3.28254">
        <ele>33.9</ele>
        <time>2020-06-24T08:36:41Z</time>
      </trkpt>
      <trkpt lat="50.52509" lon="3.28259">
        <ele>33.9</ele>
        <time>2020-06-24T08:36:42Z</time>
      </trkpt>
      <trkpt lat="50.52505" lon="3.28266">
        <ele>33.9</ele>
        <time>2020-06-24T08:36:43Z</time>
      </trkpt>
      <trkpt lat="50.52501" lon="3.28272">
        <ele>33.9</ele>
        <time>2020-06-24T08:36:44Z</time>
      </trkpt>
      <trkpt lat="50.52497" lon="3.28278">
        <ele>33.8</ele>
        <time>2020-06-24T08:36:45Z</time>
      </trkpt>
      <trkpt lat="50.52493" lon="3.28281">
        <ele>33.8</ele>
        <time>2020-06-24T08:36:46Z</time>
      </trkpt>
      <trkpt lat="50.52489" lon="3.28285">
        <ele>33.8</ele>
        <time>2020-06-24T08:36:47Z</time>
      </trkpt>
      <trkpt lat="50.52484" lon="3.28287">
        <ele>33.6</ele>
        <time>2020-06-24T08:36:48Z</time>
      </trkpt>
      <trkpt lat="50.5248" lon="3.28288">
        <ele>33.5</ele>
        <time>2020-06-24T08:36:49Z</time>
      </trkpt>
      <trkpt lat="50.52475" lon="3.28284">
        <ele>33.4</ele>
        <time>2020-06-24T08:36:50Z</time>
      </trkpt>
      <trkpt lat="50.5247" lon="3.2828">
        <ele>33.3</ele>
        <time>2020-06-24T08:36:51Z</time>
      </trkpt>
      <trkpt lat="50.52465" lon="3.28275">
        <ele>33.2</ele>
        <time>2020-06-24T08:36:52Z</time>
      </trkpt>
      <trkpt lat="50.52461" lon="3.2827">
        <ele>33.1</ele>
        <time>2020-06-24T08:36:53Z</time>
      </trkpt>
      <trkpt lat="50.52456" lon="3.28267">
        <ele>33.1</ele>
        <time>2020-06-24T08:36:54Z</time>
      </trkpt>
      <trkpt lat="50.52451" lon="3.28263">
        <ele>33.1</ele>
        <time>2020-06-24T08:36:55Z</time>
      </trkpt>
      <trkpt lat="50.52446" lon="3.2826">
        <ele>33.1</ele>
        <time>2020-06-24T08:36:56Z</time>
      </trkpt>
      <trkpt lat="50.5244" lon="3.28256">
        <ele>33.1</ele>
        <time>2020-06-24T08:36:57Z</time>
      </trkpt>
      <trkpt lat="50.52434" lon="3.28252">
        <ele>33.1</ele>
        <time>2020-06-24T08:36:58Z</time>
      </trkpt>
      <trkpt lat="50.52429" lon="3.28246">
        <ele>33.1</ele>
        <time>2020-06-24T08:36:59Z</time>
      </trkpt>
      <trkpt lat="50.52424" lon="3.28241">
        <ele>33.1</ele>
        <time>2020-06-24T08:37:00Z</time>
      </trkpt>
      <trkpt lat="50.52418" lon="3.28236">
        <ele>33.1</ele>
        <time>2020-06-24T08:37:01Z</time>
      </trkpt>
      <trkpt lat="50.52413" lon="3.28233">
        <ele>33.1</ele>
        <time>2020-06-24T08:37:02Z</time>
      </trkpt>
      <trkpt lat="50.52408" lon="3.28229">
        <ele>33.2</ele>
        <time>2020-06-24T08:37:03Z</time>
      </trkpt>
      <trkpt lat="50.52402" lon="3.28225">
        <ele>33.3</ele>
        <time>2020-06-24T08:37:04Z</time>
      </trkpt>
      <trkpt lat="50.52397" lon="3.28221">
        <ele>33.3</ele>
        <time>2020-06-24T08:37:05Z</time>
      </trkpt>
      <trkpt lat="50.52391" lon="3.28216">
        <ele>33.4</ele>
        <time>2020-06-24T08:37:06Z</time>
      </trkpt>
      <trkpt lat="50.52386" lon="3.2821">
        <ele>33.5</ele>
        <time>2020-06-24T08:37:07Z</time>
      </trkpt>
      <trkpt lat="50.52381" lon="3.28206">
        <ele>33.5</ele>
        <time>2020-06-24T08:37:08Z</time>
      </trkpt>
      <trkpt lat="50.52376" lon="3.28201">
        <ele>33.6</ele>
        <time>2020-06-24T08:37:09Z</time>
      </trkpt>
      <trkpt lat="50.52371" lon="3.28197">
        <ele>33.6</ele>
        <time>2020-06-24T08:37:10Z</time>
      </trkpt>
      <trkpt lat="50.52366" lon="3.28194">
        <ele>33.7</ele>
        <time>2020-06-24T08:37:11Z</time>
      </trkpt>
      <trkpt lat="50.5236" lon="3.28192">
        <ele>33.8</ele>
        <time>2020-06-24T08:37:12Z</time>
      </trkpt>
      <trkpt lat="50.52354" lon="3.28187">
        <ele>33.9</ele>
        <time>2020-06-24T08:37:13Z</time>
      </trkpt>
      <trkpt lat="50.52348" lon="3.28185">
        <ele>33.9</ele>
        <time>2020-06-24T08:37:14Z</time>
      </trkpt>
      <trkpt lat="50.52343" lon="3.2818">
        <ele>34</ele>
        <time>2020-06-24T08:37:15Z</time>
      </trkpt>
      <trkpt lat="50.52337" lon="3.28176">
        <ele>34.2</ele>
        <time>2020-06-24T08:37:16Z</time>
      </trkpt>
      <trkpt lat="50.52332" lon="3.28173">
        <ele>34.3</ele>
        <time>2020-06-24T08:37:17Z</time>
      </trkpt>
      <trkpt lat="50.52327" lon="3.28168">
        <ele>34.5</ele>
        <time>2020-06-24T08:37:18Z</time>
      </trkpt>
      <trkpt lat="50.52322" lon="3.28165">
        <ele>34.7</ele>
        <time>2020-06-24T08:37:19Z</time>
      </trkpt>
      <trkpt lat="50.52318" lon="3.28161">
        <ele>34.8</ele>
        <time>2020-06-24T08:37:20Z</time>
      </trkpt>
      <trkpt lat="50.52313" lon="3.28157">
        <ele>35</ele>
        <time>2020-06-24T08:37:21Z</time>
      </trkpt>
      <trkpt lat="50.52309" lon="3.28154">
        <ele>35.2</ele>
        <time>2020-06-24T08:37:22Z</time>
      </trkpt>
      <trkpt lat="50.52305" lon="3.28152">
        <ele>35.4</ele>
        <time>2020-06-24T08:37:23Z</time>
      </trkpt>
      <trkpt lat="50.52301" lon="3.2815">
        <ele>35.3</ele>
        <time>2020-06-24T08:37:24Z</time>
      </trkpt>
      <trkpt lat="50.52298" lon="3.2815">
        <ele>35.2</ele>
        <time>2020-06-24T08:37:25Z</time>
      </trkpt>
      <trkpt lat="50.52295" lon="3.28155">
        <ele>35.1</ele>
        <time>2020-06-24T08:37:26Z</time>
      </trkpt>
      <trkpt lat="50.52292" lon="3.2816">
        <ele>34.9</ele>
        <time>2020-06-24T08:37:27Z</time>
      </trkpt>
      <trkpt lat="50.52291" lon="3.28169">
        <ele>34.7</ele>
        <time>2020-06-24T08:37:28Z</time>
      </trkpt>
      <trkpt lat="50.52288" lon="3.28177">
        <ele>34.6</ele>
        <time>2020-06-24T08:37:29Z</time>
      </trkpt>
      <trkpt lat="50.52286" lon="3.28186">
        <ele>34.4</ele>
        <time>2020-06-24T08:37:30Z</time>
      </trkpt>
      <trkpt lat="50.52283" lon="3.28195">
        <ele>34.3</ele>
        <time>2020-06-24T08:37:31Z</time>
      </trkpt>
      <trkpt lat="50.5228" lon="3.28204">
        <ele>34.2</ele>
        <time>2020-06-24T08:37:32Z</time>
      </trkpt>
      <trkpt lat="50.52277" lon="3.28213">
        <ele>34.1</ele>
        <time>2020-06-24T08:37:33Z</time>
      </trkpt>
      <trkpt lat="50.52274" lon="3.28222">
        <ele>34</ele>
        <time>2020-06-24T08:37:34Z</time>
      </trkpt>
      <trkpt lat="50.52271" lon="3.2823">
        <ele>33.9</ele>
        <time>2020-06-24T08:37:35Z</time>
      </trkpt>
      <trkpt lat="50.52268" lon="3.28239">
        <ele>33.9</ele>
        <time>2020-06-24T08:37:36Z</time>
      </trkpt>
      <trkpt lat="50.52265" lon="3.28248">
        <ele>33.8</ele>
        <time>2020-06-24T08:37:37Z</time>
      </trkpt>
      <trkpt lat="50.52262" lon="3.28257">
        <ele>33.8</ele>
        <time>2020-06-24T08:37:38Z</time>
      </trkpt>
      <trkpt lat="50.52259" lon="3.28266">
        <ele>33.7</ele>
        <time>2020-06-24T08:37:39Z</time>
      </trkpt>
      <trkpt lat="50.52257" lon="3.28275">
        <ele>33.6</ele>
        <time>2020-06-24T08:37:40Z</time>
      </trkpt>
      <trkpt lat="50.52254" lon="3.28283">
        <ele>33.6</ele>
        <time>2020-06-24T08:37:41Z</time>
      </trkpt>
      <trkpt lat="50.52252" lon="3.28291">
        <ele>33.6</ele>
        <time>2020-06-24T08:37:42Z</time>
      </trkpt>
      <trkpt lat="50.52249" lon="3.283">
        <ele>33.6</ele>
        <time>2020-06-24T08:37:43Z</time>
      </trkpt>
      <trkpt lat="50.52246" lon="3.28308">
        <ele>33.5</ele>
        <time>2020-06-24T08:37:44Z</time>
      </trkpt>
      <trkpt lat="50.52243" lon="3.28317">
        <ele>33.5</ele>
        <time>2020-06-24T08:37:45Z</time>
      </trkpt>
      <trkpt lat="50.5224" lon="3.28326">
        <ele>33.5</ele>
        <time>2020-06-24T08:37:46Z</time>
      </trkpt>
      <trkpt lat="50.52237" lon="3.28334">
        <ele>33.5</ele>
        <time>2020-06-24T08:37:47Z</time>
      </trkpt>
      <trkpt lat="50.52235" lon="3.28343">
        <ele>33.5</ele>
        <time>2020-06-24T08:37:48Z</time>
      </trkpt>
      <trkpt lat="50.52232" lon="3.28352">
        <ele>33.6</ele>
        <time>2020-06-24T08:37:49Z</time>
      </trkpt>
      <trkpt lat="50.52229" lon="3.28361">
        <ele>33.6</ele>
        <time>2020-06-24T08:37:50Z</time>
      </trkpt>
      <trkpt lat="50.52225" lon="3.28368">
        <ele>33.6</ele>
        <time>2020-06-24T08:37:51Z</time>
      </trkpt>
      <trkpt lat="50.52221" lon="3.28374">
        <ele>33.6</ele>
        <time>2020-06-24T08:37:52Z</time>
      </trkpt>
      <trkpt lat="50.52215" lon="3.28379">
        <ele>33.7</ele>
        <time>2020-06-24T08:37:53Z</time>
      </trkpt>
      <trkpt lat="50.52209" lon="3.28384">
        <ele>33.7</ele>
        <time>2020-06-24T08:37:54Z</time>
      </trkpt>
      <trkpt lat="50.52203" lon="3.28387">
        <ele>33.7</ele>
        <time>2020-06-24T08:37:55Z</time>
      </trkpt>
      <trkpt lat="50.52196" lon="3.28389">
        <ele>33.7</ele>
        <time>2020-06-24T08:37:56Z</time>
      </trkpt>
      <trkpt lat="50.52189" lon="3.28392">
        <ele>33.8</ele>
        <time>2020-06-24T08:37:57Z</time>
      </trkpt>
      <trkpt lat="50.52183" lon="3.28394">
        <ele>33.8</ele>
        <time>2020-06-24T08:37:58Z</time>
      </trkpt>
      <trkpt lat="50.52177" lon="3.28396">
        <ele>33.8</ele>
        <time>2020-06-24T08:37:59Z</time>
      </trkpt>
      <trkpt lat="50.52171" lon="3.28399">
        <ele>33.8</ele>
        <time>2020-06-24T08:38:00Z</time>
      </trkpt>
      <trkpt lat="50.52164" lon="3.28402">
        <ele>33.8</ele>
        <time>2020-06-24T08:38:01Z</time>
      </trkpt>
      <trkpt lat="50.52158" lon="3.28406">
        <ele>33.9</ele>
        <time>2020-06-24T08:38:02Z</time>
      </trkpt>
      <trkpt lat="50.52151" lon="3.28408">
        <ele>33.9</ele>
        <time>2020-06-24T08:38:03Z</time>
      </trkpt>
      <trkpt lat="50.52146" lon="3.28411">
        <ele>34</ele>
        <time>2020-06-24T08:38:04Z</time>
      </trkpt>
      <trkpt lat="50.52142" lon="3.28414">
        <ele>34</ele>
        <time>2020-06-24T08:38:05Z</time>
      </trkpt>
      <trkpt lat="50.52136" lon="3.28417">
        <ele>34.1</ele>
        <time>2020-06-24T08:38:06Z</time>
      </trkpt>
      <trkpt lat="50.52131" lon="3.2842">
        <ele>34.3</ele>
        <time>2020-06-24T08:38:07Z</time>
      </trkpt>
      <trkpt lat="50.52126" lon="3.28423">
        <ele>34.3</ele>
        <time>2020-06-24T08:38:08Z</time>
      </trkpt>
      <trkpt lat="50.5212" lon="3.28428">
        <ele>34.5</ele>
        <time>2020-06-24T08:38:09Z</time>
      </trkpt>
      <trkpt lat="50.52116" lon="3.28431">
        <ele>34.6</ele>
        <time>2020-06-24T08:38:10Z</time>
      </trkpt>
      <trkpt lat="50.52111" lon="3.28436">
        <ele>34.8</ele>
        <time>2020-06-24T08:38:11Z</time>
      </trkpt>
      <trkpt lat="50.52107" lon="3.28443">
        <ele>34.8</ele>
        <time>2020-06-24T08:38:12Z</time>
      </trkpt>
      <trkpt lat="50.52103" lon="3.28452">
        <ele>34.8</ele>
        <time>2020-06-24T08:38:13Z</time>
      </trkpt>
      <trkpt lat="50.52099" lon="3.2846">
        <ele>34.8</ele>
        <time>2020-06-24T08:38:14Z</time>
      </trkpt>
      <trkpt lat="50.52096" lon="3.28468">
        <ele>34.8</ele>
        <time>2020-06-24T08:38:15Z</time>
      </trkpt>
      <trkpt lat="50.52092" lon="3.28478">
        <ele>34.8</ele>
        <time>2020-06-24T08:38:16Z</time>
      </trkpt>
      <trkpt lat="50.52088" lon="3.28487">
        <ele>34.8</ele>
        <time>2020-06-24T08:38:17Z</time>
      </trkpt>
      <trkpt lat="50.52085" lon="3.28496">
        <ele>34.8</ele>
        <time>2020-06-24T08:38:18Z</time>
      </trkpt>
      <trkpt lat="50.52081" lon="3.28505">
        <ele>34.8</ele>
        <time>2020-06-24T08:38:19Z</time>
      </trkpt>
      <trkpt lat="50.52078" lon="3.28513">
        <ele>34.8</ele>
        <time>2020-06-24T08:38:20Z</time>
      </trkpt>
      <trkpt lat="50.52075" lon="3.28521">
        <ele>34.8</ele>
        <time>2020-06-24T08:38:21Z</time>
      </trkpt>
      <trkpt lat="50.52071" lon="3.28529">
        <ele>34.8</ele>
        <time>2020-06-24T08:38:22Z</time>
      </trkpt>
      <trkpt lat="50.52068" lon="3.28537">
        <ele>34.9</ele>
        <time>2020-06-24T08:38:23Z</time>
      </trkpt>
      <trkpt lat="50.52065" lon="3.28545">
        <ele>34.9</ele>
        <time>2020-06-24T08:38:24Z</time>
      </trkpt>
      <trkpt lat="50.52062" lon="3.28553">
        <ele>34.9</ele>
        <time>2020-06-24T08:38:25Z</time>
      </trkpt>
      <trkpt lat="50.5206" lon="3.28562">
        <ele>34.9</ele>
        <time>2020-06-24T08:38:26Z</time>
      </trkpt>
      <trkpt lat="50.52057" lon="3.2857">
        <ele>35</ele>
        <time>2020-06-24T08:38:27Z</time>
      </trkpt>
      <trkpt lat="50.52054" lon="3.28578">
        <ele>35</ele>
        <time>2020-06-24T08:38:28Z</time>
      </trkpt>
      <trkpt lat="50.52052" lon="3.28588">
        <ele>35</ele>
        <time>2020-06-24T08:38:29Z</time>
      </trkpt>
      <trkpt lat="50.52049" lon="3.28597">
        <ele>35</ele>
        <time>2020-06-24T08:38:30Z</time>
      </trkpt>
      <trkpt lat="50.52047" lon="3.28606">
        <ele>35</ele>
        <time>2020-06-24T08:38:31Z</time>
      </trkpt>
      <trkpt lat="50.52045" lon="3.28615">
        <ele>35</ele>
        <time>2020-06-24T08:38:32Z</time>
      </trkpt>
      <trkpt lat="50.52042" lon="3.28623">
        <ele>35</ele>
        <time>2020-06-24T08:38:33Z</time>
      </trkpt>
      <trkpt lat="50.5204" lon="3.28632">
        <ele>35</ele>
        <time>2020-06-24T08:38:34Z</time>
      </trkpt>
      <trkpt lat="50.52037" lon="3.2864">
        <ele>35.1</ele>
        <time>2020-06-24T08:38:35Z</time>
      </trkpt>
      <trkpt lat="50.52035" lon="3.28649">
        <ele>35.1</ele>
        <time>2020-06-24T08:38:36Z</time>
      </trkpt>
      <trkpt lat="50.52032" lon="3.28657">
        <ele>35.1</ele>
        <time>2020-06-24T08:38:37Z</time>
      </trkpt>
      <trkpt lat="50.52029" lon="3.28664">
        <ele>35.2</ele>
        <time>2020-06-24T08:38:38Z</time>
      </trkpt>
      <trkpt lat="50.52026" lon="3.28672">
        <ele>35.2</ele>
        <time>2020-06-24T08:38:39Z</time>
      </trkpt>
      <trkpt lat="50.52023" lon="3.28679">
        <ele>35.3</ele>
        <time>2020-06-24T08:38:40Z</time>
      </trkpt>
      <trkpt lat="50.5202" lon="3.28687">
        <ele>35.4</ele>
        <time>2020-06-24T08:38:41Z</time>
      </trkpt>
      <trkpt lat="50.52017" lon="3.28695">
        <ele>35.4</ele>
        <time>2020-06-24T08:38:42Z</time>
      </trkpt>
      <trkpt lat="50.52014" lon="3.28702">
        <ele>35.5</ele>
        <time>2020-06-24T08:38:43Z</time>
      </trkpt>
      <trkpt lat="50.52011" lon="3.2871">
        <ele>35.5</ele>
        <time>2020-06-24T08:38:44Z</time>
      </trkpt>
      <trkpt lat="50.52008" lon="3.2872">
        <ele>35.6</ele>
        <time>2020-06-24T08:38:45Z</time>
      </trkpt>
      <trkpt lat="50.52005" lon="3.28727">
        <ele>35.6</ele>
        <time>2020-06-24T08:38:46Z</time>
      </trkpt>
      <trkpt lat="50.52001" lon="3.28734">
        <ele>35.7</ele>
        <time>2020-06-24T08:38:47Z</time>
      </trkpt>
      <trkpt lat="50.51998" lon="3.28741">
        <ele>35.8</ele>
        <time>2020-06-24T08:38:48Z</time>
      </trkpt>
      <trkpt lat="50.51995" lon="3.28748">
        <ele>35.8</ele>
        <time>2020-06-24T08:38:49Z</time>
      </trkpt>
      <trkpt lat="50.51991" lon="3.28755">
        <ele>35.9</ele>
        <time>2020-06-24T08:38:50Z</time>
      </trkpt>
      <trkpt lat="50.51988" lon="3.28762">
        <ele>35.9</ele>
        <time>2020-06-24T08:38:51Z</time>
      </trkpt>
      <trkpt lat="50.51985" lon="3.28769">
        <ele>35.9</ele>
        <time>2020-06-24T08:38:52Z</time>
      </trkpt>
      <trkpt lat="50.51982" lon="3.28775">
        <ele>36</ele>
        <time>2020-06-24T08:38:53Z</time>
      </trkpt>
      <trkpt lat="50.51979" lon="3.28782">
        <ele>36</ele>
        <time>2020-06-24T08:38:54Z</time>
      </trkpt>
      <trkpt lat="50.51975" lon="3.28788">
        <ele>36</ele>
        <time>2020-06-24T08:38:55Z</time>
      </trkpt>
      <trkpt lat="50.51971" lon="3.28796">
        <ele>36</ele>
        <time>2020-06-24T08:38:56Z</time>
      </trkpt>
      <trkpt lat="50.51967" lon="3.28801">
        <ele>36.1</ele>
        <time>2020-06-24T08:38:57Z</time>
      </trkpt>
      <trkpt lat="50.51964" lon="3.28808">
        <ele>36.1</ele>
        <time>2020-06-24T08:38:58Z</time>
      </trkpt>
      <trkpt lat="50.5196" lon="3.28815">
        <ele>36.1</ele>
        <time>2020-06-24T08:38:59Z</time>
      </trkpt>
      <trkpt lat="50.51957" lon="3.28819">
        <ele>36.2</ele>
        <time>2020-06-24T08:39:00Z</time>
      </trkpt>
      <trkpt lat="50.51952" lon="3.28825">
        <ele>36.2</ele>
        <time>2020-06-24T08:39:01Z</time>
      </trkpt>
      <trkpt lat="50.51947" lon="3.2883">
        <ele>36.2</ele>
        <time>2020-06-24T08:39:02Z</time>
      </trkpt>
      <trkpt lat="50.51942" lon="3.28836">
        <ele>36.3</ele>
        <time>2020-06-24T08:39:03Z</time>
      </trkpt>
      <trkpt lat="50.51938" lon="3.28841">
        <ele>36.3</ele>
        <time>2020-06-24T08:39:04Z</time>
      </trkpt>
      <trkpt lat="50.51933" lon="3.28847">
        <ele>36.3</ele>
        <time>2020-06-24T08:39:05Z</time>
      </trkpt>
      <trkpt lat="50.51928" lon="3.28852">
        <ele>36.3</ele>
        <time>2020-06-24T08:39:06Z</time>
      </trkpt>
      <trkpt lat="50.51923" lon="3.28858">
        <ele>36.4</ele>
        <time>2020-06-24T08:39:07Z</time>
      </trkpt>
      <trkpt lat="50.51919" lon="3.28863">
        <ele>36.4</ele>
        <time>2020-06-24T08:39:08Z</time>
      </trkpt>
      <trkpt lat="50.51914" lon="3.28869">
        <ele>36.4</ele>
        <time>2020-06-24T08:39:09Z</time>
      </trkpt>
      <trkpt lat="50.51908" lon="3.28877">
        <ele>36.5</ele>
        <time>2020-06-24T08:39:10Z</time>
      </trkpt>
      <trkpt lat="50.51905" lon="3.28884">
        <ele>36.5</ele>
        <time>2020-06-24T08:39:11Z</time>
      </trkpt>
      <trkpt lat="50.519" lon="3.28889">
        <ele>36.5</ele>
        <time>2020-06-24T08:39:12Z</time>
      </trkpt>
      <trkpt lat="50.51897" lon="3.28895">
        <ele>36.5</ele>
        <time>2020-06-24T08:39:13Z</time>
      </trkpt>
      <trkpt lat="50.51893" lon="3.28902">
        <ele>36.6</ele>
        <time>2020-06-24T08:39:14Z</time>
      </trkpt>
      <trkpt lat="50.5189" lon="3.2891">
        <ele>36.6</ele>
        <time>2020-06-24T08:39:15Z</time>
      </trkpt>
      <trkpt lat="50.51886" lon="3.28917">
        <ele>36.6</ele>
        <time>2020-06-24T08:39:16Z</time>
      </trkpt>
      <trkpt lat="50.51883" lon="3.28925">
        <ele>36.6</ele>
        <time>2020-06-24T08:39:17Z</time>
      </trkpt>
      <trkpt lat="50.51881" lon="3.28932">
        <ele>36.6</ele>
        <time>2020-06-24T08:39:18Z</time>
      </trkpt>
      <trkpt lat="50.51879" lon="3.28939">
        <ele>36.6</ele>
        <time>2020-06-24T08:39:19Z</time>
      </trkpt>
      <trkpt lat="50.51877" lon="3.28947">
        <ele>36.6</ele>
        <time>2020-06-24T08:39:20Z</time>
      </trkpt>
      <trkpt lat="50.51875" lon="3.28954">
        <ele>36.6</ele>
        <time>2020-06-24T08:39:21Z</time>
      </trkpt>
      <trkpt lat="50.51873" lon="3.28961">
        <ele>36.7</ele>
        <time>2020-06-24T08:39:22Z</time>
      </trkpt>
      <trkpt lat="50.5187" lon="3.2897">
        <ele>36.7</ele>
        <time>2020-06-24T08:39:23Z</time>
      </trkpt>
      <trkpt lat="50.51867" lon="3.28979">
        <ele>36.7</ele>
        <time>2020-06-24T08:39:24Z</time>
      </trkpt>
      <trkpt lat="50.51864" lon="3.28988">
        <ele>36.8</ele>
        <time>2020-06-24T08:39:25Z</time>
      </trkpt>
      <trkpt lat="50.51861" lon="3.28997">
        <ele>36.8</ele>
        <time>2020-06-24T08:39:26Z</time>
      </trkpt>
      <trkpt lat="50.51858" lon="3.29006">
        <ele>36.8</ele>
        <time>2020-06-24T08:39:27Z</time>
      </trkpt>
      <trkpt lat="50.51855" lon="3.29014">
        <ele>36.9</ele>
        <time>2020-06-24T08:39:28Z</time>
      </trkpt>
      <trkpt lat="50.51853" lon="3.29023">
        <ele>36.9</ele>
        <time>2020-06-24T08:39:29Z</time>
      </trkpt>
      <trkpt lat="50.5185" lon="3.29031">
        <ele>37</ele>
        <time>2020-06-24T08:39:30Z</time>
      </trkpt>
      <trkpt lat="50.51848" lon="3.29038">
        <ele>37</ele>
        <time>2020-06-24T08:39:31Z</time>
      </trkpt>
      <trkpt lat="50.51844" lon="3.29047">
        <ele>37.1</ele>
        <time>2020-06-24T08:39:32Z</time>
      </trkpt>
      <trkpt lat="50.51842" lon="3.29055">
        <ele>37.1</ele>
        <time>2020-06-24T08:39:33Z</time>
      </trkpt>
      <trkpt lat="50.51839" lon="3.29063">
        <ele>37.2</ele>
        <time>2020-06-24T08:39:34Z</time>
      </trkpt>
      <trkpt lat="50.51837" lon="3.29071">
        <ele>37.2</ele>
        <time>2020-06-24T08:39:35Z</time>
      </trkpt>
      <trkpt lat="50.51833" lon="3.29078">
        <ele>37.3</ele>
        <time>2020-06-24T08:39:36Z</time>
      </trkpt>
      <trkpt lat="50.51831" lon="3.29086">
        <ele>37.3</ele>
        <time>2020-06-24T08:39:37Z</time>
      </trkpt>
      <trkpt lat="50.51829" lon="3.29094">
        <ele>37.4</ele>
        <time>2020-06-24T08:39:38Z</time>
      </trkpt>
      <trkpt lat="50.51826" lon="3.29101">
        <ele>37.5</ele>
        <time>2020-06-24T08:39:39Z</time>
      </trkpt>
      <trkpt lat="50.51824" lon="3.29108">
        <ele>37.5</ele>
        <time>2020-06-24T08:39:40Z</time>
      </trkpt>
      <trkpt lat="50.51822" lon="3.29116">
        <ele>37.6</ele>
        <time>2020-06-24T08:39:41Z</time>
      </trkpt>
      <trkpt lat="50.51819" lon="3.29124">
        <ele>37.6</ele>
        <time>2020-06-24T08:39:42Z</time>
      </trkpt>
      <trkpt lat="50.51817" lon="3.2913">
        <ele>37.6</ele>
        <time>2020-06-24T08:39:43Z</time>
      </trkpt>
      <trkpt lat="50.51814" lon="3.2914">
        <ele>37.7</ele>
        <time>2020-06-24T08:39:44Z</time>
      </trkpt>
      <trkpt lat="50.51811" lon="3.29147">
        <ele>37.7</ele>
        <time>2020-06-24T08:39:45Z</time>
      </trkpt>
      <trkpt lat="50.51808" lon="3.29155">
        <ele>37.6</ele>
        <time>2020-06-24T08:39:46Z</time>
      </trkpt>
      <trkpt lat="50.51804" lon="3.29163">
        <ele>37.6</ele>
        <time>2020-06-24T08:39:47Z</time>
      </trkpt>
      <trkpt lat="50.51801" lon="3.29173">
        <ele>37.7</ele>
        <time>2020-06-24T08:39:48Z</time>
      </trkpt>
      <trkpt lat="50.51798" lon="3.2918">
        <ele>37.7</ele>
        <time>2020-06-24T08:39:49Z</time>
      </trkpt>
      <trkpt lat="50.51794" lon="3.29188">
        <ele>37.8</ele>
        <time>2020-06-24T08:39:50Z</time>
      </trkpt>
      <trkpt lat="50.5179" lon="3.29197">
        <ele>37.9</ele>
        <time>2020-06-24T08:39:51Z</time>
      </trkpt>
      <trkpt lat="50.51787" lon="3.29205">
        <ele>37.9</ele>
        <time>2020-06-24T08:39:52Z</time>
      </trkpt>
      <trkpt lat="50.51785" lon="3.29211">
        <ele>38</ele>
        <time>2020-06-24T08:39:53Z</time>
      </trkpt>
      <trkpt lat="50.51784" lon="3.29219">
        <ele>38</ele>
        <time>2020-06-24T08:39:54Z</time>
      </trkpt>
      <trkpt lat="50.51784" lon="3.29228">
        <ele>38</ele>
        <time>2020-06-24T08:39:55Z</time>
      </trkpt>
      <trkpt lat="50.51786" lon="3.29238">
        <ele>37.9</ele>
        <time>2020-06-24T08:39:56Z</time>
      </trkpt>
      <trkpt lat="50.51788" lon="3.29246">
        <ele>37.9</ele>
        <time>2020-06-24T08:39:57Z</time>
      </trkpt>
      <trkpt lat="50.5179" lon="3.29257">
        <ele>37.8</ele>
        <time>2020-06-24T08:39:58Z</time>
      </trkpt>
      <trkpt lat="50.51794" lon="3.29264">
        <ele>37.7</ele>
        <time>2020-06-24T08:39:59Z</time>
      </trkpt>
      <trkpt lat="50.51797" lon="3.29271">
        <ele>37.7</ele>
        <time>2020-06-24T08:40:00Z</time>
      </trkpt>
      <trkpt lat="50.518" lon="3.29279">
        <ele>37.6</ele>
        <time>2020-06-24T08:40:01Z</time>
      </trkpt>
      <trkpt lat="50.51803" lon="3.29288">
        <ele>37.6</ele>
        <time>2020-06-24T08:40:02Z</time>
      </trkpt>
      <trkpt lat="50.51806" lon="3.29297">
        <ele>37.5</ele>
        <time>2020-06-24T08:40:03Z</time>
      </trkpt>
      <trkpt lat="50.5181" lon="3.29305">
        <ele>37.5</ele>
        <time>2020-06-24T08:40:04Z</time>
      </trkpt>
      <trkpt lat="50.51813" lon="3.29313">
        <ele>37.4</ele>
        <time>2020-06-24T08:40:05Z</time>
      </trkpt>
      <trkpt lat="50.51814" lon="3.29321">
        <ele>37.4</ele>
        <time>2020-06-24T08:40:06Z</time>
      </trkpt>
      <trkpt lat="50.51816" lon="3.29331">
        <ele>37.2</ele>
        <time>2020-06-24T08:40:07Z</time>
      </trkpt>
      <trkpt lat="50.51815" lon="3.29337">
        <ele>37.1</ele>
        <time>2020-06-24T08:40:08Z</time>
      </trkpt>
      <trkpt lat="50.51811" lon="3.29344">
        <ele>37</ele>
        <time>2020-06-24T08:40:09Z</time>
      </trkpt>
      <trkpt lat="50.51804" lon="3.29348">
        <ele>36.9</ele>
        <time>2020-06-24T08:40:10Z</time>
      </trkpt>
      <trkpt lat="50.51798" lon="3.29354">
        <ele>36.8</ele>
        <time>2020-06-24T08:40:11Z</time>
      </trkpt>
      <trkpt lat="50.51792" lon="3.29359">
        <ele>36.8</ele>
        <time>2020-06-24T08:40:12Z</time>
      </trkpt>
      <trkpt lat="50.51788" lon="3.29364">
        <ele>36.8</ele>
        <time>2020-06-24T08:40:13Z</time>
      </trkpt>
      <trkpt lat="50.51783" lon="3.29369">
        <ele>36.8</ele>
        <time>2020-06-24T08:40:14Z</time>
      </trkpt>
      <trkpt lat="50.51779" lon="3.29373">
        <ele>36.8</ele>
        <time>2020-06-24T08:40:15Z</time>
      </trkpt>
      <trkpt lat="50.51775" lon="3.29377">
        <ele>36.8</ele>
        <time>2020-06-24T08:40:16Z</time>
      </trkpt>
      <trkpt lat="50.51769" lon="3.29384">
        <ele>36.8</ele>
        <time>2020-06-24T08:40:17Z</time>
      </trkpt>
      <trkpt lat="50.51765" lon="3.29389">
        <ele>36.8</ele>
        <time>2020-06-24T08:40:18Z</time>
      </trkpt>
      <trkpt lat="50.5176" lon="3.29393">
        <ele>36.8</ele>
        <time>2020-06-24T08:40:19Z</time>
      </trkpt>
      <trkpt lat="50.51755" lon="3.29398">
        <ele>36.9</ele>
        <time>2020-06-24T08:40:20Z</time>
      </trkpt>
      <trkpt lat="50.5175" lon="3.29404">
        <ele>37</ele>
        <time>2020-06-24T08:40:21Z</time>
      </trkpt>
      <trkpt lat="50.51744" lon="3.2941">
        <ele>37</ele>
        <time>2020-06-24T08:40:22Z</time>
      </trkpt>
      <trkpt lat="50.5174" lon="3.29413">
        <ele>37.1</ele>
        <time>2020-06-24T08:40:23Z</time>
      </trkpt>
      <trkpt lat="50.51735" lon="3.29418">
        <ele>37.1</ele>
        <time>2020-06-24T08:40:24Z</time>
      </trkpt>
      <trkpt lat="50.5173" lon="3.29423">
        <ele>37.2</ele>
        <time>2020-06-24T08:40:25Z</time>
      </trkpt>
      <trkpt lat="50.51726" lon="3.29428">
        <ele>37.2</ele>
        <time>2020-06-24T08:40:26Z</time>
      </trkpt>
      <trkpt lat="50.51721" lon="3.29434">
        <ele>37.3</ele>
        <time>2020-06-24T08:40:27Z</time>
      </trkpt>
      <trkpt lat="50.51716" lon="3.2944">
        <ele>37.3</ele>
        <time>2020-06-24T08:40:28Z</time>
      </trkpt>
      <trkpt lat="50.51712" lon="3.29445">
        <ele>37.3</ele>
        <time>2020-06-24T08:40:29Z</time>
      </trkpt>
      <trkpt lat="50.51708" lon="3.29451">
        <ele>37.3</ele>
        <time>2020-06-24T08:40:30Z</time>
      </trkpt>
      <trkpt lat="50.51704" lon="3.29457">
        <ele>37.4</ele>
        <time>2020-06-24T08:40:31Z</time>
      </trkpt>
      <trkpt lat="50.517" lon="3.29462">
        <ele>37.4</ele>
        <time>2020-06-24T08:40:32Z</time>
      </trkpt>
      <trkpt lat="50.51696" lon="3.29468">
        <ele>37.4</ele>
        <time>2020-06-24T08:40:33Z</time>
      </trkpt>
      <trkpt lat="50.51691" lon="3.29474">
        <ele>37.4</ele>
        <time>2020-06-24T08:40:34Z</time>
      </trkpt>
      <trkpt lat="50.51689" lon="3.29478">
        <ele>37.4</ele>
        <time>2020-06-24T08:40:35Z</time>
      </trkpt>
      <trkpt lat="50.51684" lon="3.29486">
        <ele>37.5</ele>
        <time>2020-06-24T08:40:36Z</time>
      </trkpt>
      <trkpt lat="50.5168" lon="3.29492">
        <ele>37.5</ele>
        <time>2020-06-24T08:40:37Z</time>
      </trkpt>
      <trkpt lat="50.51676" lon="3.29497">
        <ele>37.6</ele>
        <time>2020-06-24T08:40:38Z</time>
      </trkpt>
      <trkpt lat="50.51671" lon="3.29503">
        <ele>37.7</ele>
        <time>2020-06-24T08:40:39Z</time>
      </trkpt>
      <trkpt lat="50.51667" lon="3.29509">
        <ele>37.8</ele>
        <time>2020-06-24T08:40:40Z</time>
      </trkpt>
      <trkpt lat="50.51662" lon="3.29515">
        <ele>37.8</ele>
        <time>2020-06-24T08:40:41Z</time>
      </trkpt>
      <trkpt lat="50.51659" lon="3.2952">
        <ele>37.8</ele>
        <time>2020-06-24T08:40:42Z</time>
      </trkpt>
      <trkpt lat="50.51654" lon="3.29527">
        <ele>37.9</ele>
        <time>2020-06-24T08:40:43Z</time>
      </trkpt>
      <trkpt lat="50.5165" lon="3.2953">
        <ele>37.9</ele>
        <time>2020-06-24T08:40:44Z</time>
      </trkpt>
      <trkpt lat="50.51646" lon="3.29536">
        <ele>37.9</ele>
        <time>2020-06-24T08:40:45Z</time>
      </trkpt>
      <trkpt lat="50.51642" lon="3.29543">
        <ele>38</ele>
        <time>2020-06-24T08:40:46Z</time>
      </trkpt>
      <trkpt lat="50.51638" lon="3.29551">
        <ele>38</ele>
        <time>2020-06-24T08:40:47Z</time>
      </trkpt>
      <trkpt lat="50.51633" lon="3.29559">
        <ele>38.1</ele>
        <time>2020-06-24T08:40:48Z</time>
      </trkpt>
      <trkpt lat="50.5163" lon="3.29567">
        <ele>38.1</ele>
        <time>2020-06-24T08:40:49Z</time>
      </trkpt>
      <trkpt lat="50.51629" lon="3.29575">
        <ele>38.1</ele>
        <time>2020-06-24T08:40:50Z</time>
      </trkpt>
      <trkpt lat="50.5163" lon="3.29584">
        <ele>38</ele>
        <time>2020-06-24T08:40:51Z</time>
      </trkpt>
      <trkpt lat="50.51631" lon="3.29594">
        <ele>38</ele>
        <time>2020-06-24T08:40:52Z</time>
      </trkpt>
      <trkpt lat="50.51632" lon="3.29603">
        <ele>38</ele>
        <time>2020-06-24T08:40:53Z</time>
      </trkpt>
      <trkpt lat="50.51633" lon="3.29612">
        <ele>37.9</ele>
        <time>2020-06-24T08:40:54Z</time>
      </trkpt>
      <trkpt lat="50.51633" lon="3.29623">
        <ele>37.9</ele>
        <time>2020-06-24T08:40:55Z</time>
      </trkpt>
      <trkpt lat="50.51634" lon="3.29634">
        <ele>37.8</ele>
        <time>2020-06-24T08:40:56Z</time>
      </trkpt>
      <trkpt lat="50.51634" lon="3.29645">
        <ele>37.8</ele>
        <time>2020-06-24T08:40:57Z</time>
      </trkpt>
      <trkpt lat="50.51633" lon="3.29656">
        <ele>37.7</ele>
        <time>2020-06-24T08:40:58Z</time>
      </trkpt>
      <trkpt lat="50.5163" lon="3.29667">
        <ele>37.6</ele>
        <time>2020-06-24T08:40:59Z</time>
      </trkpt>
      <trkpt lat="50.51628" lon="3.29675">
        <ele>37.5</ele>
        <time>2020-06-24T08:41:00Z</time>
      </trkpt>
      <trkpt lat="50.51624" lon="3.29683">
        <ele>37.5</ele>
        <time>2020-06-24T08:41:01Z</time>
      </trkpt>
      <trkpt lat="50.51621" lon="3.29693">
        <ele>37.4</ele>
        <time>2020-06-24T08:41:02Z</time>
      </trkpt>
      <trkpt lat="50.51617" lon="3.29702">
        <ele>37.4</ele>
        <time>2020-06-24T08:41:03Z</time>
      </trkpt>
      <trkpt lat="50.51614" lon="3.29711">
        <ele>37.3</ele>
        <time>2020-06-24T08:41:04Z</time>
      </trkpt>
      <trkpt lat="50.5161" lon="3.2972">
        <ele>37.3</ele>
        <time>2020-06-24T08:41:05Z</time>
      </trkpt>
      <trkpt lat="50.51607" lon="3.29729">
        <ele>37.2</ele>
        <time>2020-06-24T08:41:06Z</time>
      </trkpt>
      <trkpt lat="50.51603" lon="3.29737">
        <ele>37.2</ele>
        <time>2020-06-24T08:41:07Z</time>
      </trkpt>
      <trkpt lat="50.51599" lon="3.29746">
        <ele>37.1</ele>
        <time>2020-06-24T08:41:08Z</time>
      </trkpt>
      <trkpt lat="50.51596" lon="3.29754">
        <ele>37.1</ele>
        <time>2020-06-24T08:41:09Z</time>
      </trkpt>
      <trkpt lat="50.51592" lon="3.29762">
        <ele>37</ele>
        <time>2020-06-24T08:41:10Z</time>
      </trkpt>
      <trkpt lat="50.51589" lon="3.29772">
        <ele>37</ele>
        <time>2020-06-24T08:41:11Z</time>
      </trkpt>
      <trkpt lat="50.51585" lon="3.29781">
        <ele>36.9</ele>
        <time>2020-06-24T08:41:12Z</time>
      </trkpt>
      <trkpt lat="50.51582" lon="3.2979">
        <ele>36.9</ele>
        <time>2020-06-24T08:41:13Z</time>
      </trkpt>
      <trkpt lat="50.51579" lon="3.29799">
        <ele>36.8</ele>
        <time>2020-06-24T08:41:14Z</time>
      </trkpt>
      <trkpt lat="50.51576" lon="3.29807">
        <ele>36.8</ele>
        <time>2020-06-24T08:41:15Z</time>
      </trkpt>
      <trkpt lat="50.51573" lon="3.29816">
        <ele>36.7</ele>
        <time>2020-06-24T08:41:16Z</time>
      </trkpt>
      <trkpt lat="50.5157" lon="3.29825">
        <ele>36.7</ele>
        <time>2020-06-24T08:41:17Z</time>
      </trkpt>
      <trkpt lat="50.51567" lon="3.29834">
        <ele>36.7</ele>
        <time>2020-06-24T08:41:18Z</time>
      </trkpt>
      <trkpt lat="50.51563" lon="3.29843">
        <ele>36.6</ele>
        <time>2020-06-24T08:41:19Z</time>
      </trkpt>
      <trkpt lat="50.5156" lon="3.29853">
        <ele>36.6</ele>
        <time>2020-06-24T08:41:20Z</time>
      </trkpt>
      <trkpt lat="50.51556" lon="3.29862">
        <ele>36.6</ele>
        <time>2020-06-24T08:41:21Z</time>
      </trkpt>
      <trkpt lat="50.51554" lon="3.29872">
        <ele>36.5</ele>
        <time>2020-06-24T08:41:22Z</time>
      </trkpt>
      <trkpt lat="50.51552" lon="3.29882">
        <ele>36.5</ele>
        <time>2020-06-24T08:41:23Z</time>
      </trkpt>
      <trkpt lat="50.51548" lon="3.29891">
        <ele>36.5</ele>
        <time>2020-06-24T08:41:24Z</time>
      </trkpt>
      <trkpt lat="50.51546" lon="3.29901">
        <ele>36.4</ele>
        <time>2020-06-24T08:41:25Z</time>
      </trkpt>
      <trkpt lat="50.51543" lon="3.29912">
        <ele>36.3</ele>
        <time>2020-06-24T08:41:26Z</time>
      </trkpt>
      <trkpt lat="50.51541" lon="3.29922">
        <ele>36.3</ele>
        <time>2020-06-24T08:41:27Z</time>
      </trkpt>
      <trkpt lat="50.51538" lon="3.29932">
        <ele>36.2</ele>
        <time>2020-06-24T08:41:28Z</time>
      </trkpt>
      <trkpt lat="50.51536" lon="3.29943">
        <ele>36.2</ele>
        <time>2020-06-24T08:41:29Z</time>
      </trkpt>
      <trkpt lat="50.51534" lon="3.29953">
        <ele>36.2</ele>
        <time>2020-06-24T08:41:30Z</time>
      </trkpt>
      <trkpt lat="50.51532" lon="3.29963">
        <ele>36.1</ele>
        <time>2020-06-24T08:41:31Z</time>
      </trkpt>
      <trkpt lat="50.51529" lon="3.29973">
        <ele>36.1</ele>
        <time>2020-06-24T08:41:32Z</time>
      </trkpt>
      <trkpt lat="50.51527" lon="3.29984">
        <ele>36.1</ele>
        <time>2020-06-24T08:41:33Z</time>
      </trkpt>
      <trkpt lat="50.51526" lon="3.29994">
        <ele>36.1</ele>
        <time>2020-06-24T08:41:34Z</time>
      </trkpt>
      <trkpt lat="50.51523" lon="3.30004">
        <ele>36</ele>
        <time>2020-06-24T08:41:35Z</time>
      </trkpt>
      <trkpt lat="50.51522" lon="3.30015">
        <ele>36</ele>
        <time>2020-06-24T08:41:36Z</time>
      </trkpt>
      <trkpt lat="50.5152" lon="3.30025">
        <ele>35.9</ele>
        <time>2020-06-24T08:41:37Z</time>
      </trkpt>
      <trkpt lat="50.51518" lon="3.30035">
        <ele>35.9</ele>
        <time>2020-06-24T08:41:38Z</time>
      </trkpt>
      <trkpt lat="50.51516" lon="3.30046">
        <ele>35.8</ele>
        <time>2020-06-24T08:41:39Z</time>
      </trkpt>
      <trkpt lat="50.51514" lon="3.30057">
        <ele>35.8</ele>
        <time>2020-06-24T08:41:40Z</time>
      </trkpt>
      <trkpt lat="50.51511" lon="3.30067">
        <ele>35.7</ele>
        <time>2020-06-24T08:41:41Z</time>
      </trkpt>
      <trkpt lat="50.51508" lon="3.30077">
        <ele>35.7</ele>
        <time>2020-06-24T08:41:42Z</time>
      </trkpt>
      <trkpt lat="50.51506" lon="3.30087">
        <ele>35.6</ele>
        <time>2020-06-24T08:41:43Z</time>
      </trkpt>
      <trkpt lat="50.51504" lon="3.30098">
        <ele>35.6</ele>
        <time>2020-06-24T08:41:44Z</time>
      </trkpt>
      <trkpt lat="50.51502" lon="3.30109">
        <ele>35.5</ele>
        <time>2020-06-24T08:41:45Z</time>
      </trkpt>
      <trkpt lat="50.515" lon="3.30119">
        <ele>35.5</ele>
        <time>2020-06-24T08:41:46Z</time>
      </trkpt>
      <trkpt lat="50.51497" lon="3.3013">
        <ele>35.5</ele>
        <time>2020-06-24T08:41:47Z</time>
      </trkpt>
      <trkpt lat="50.51495" lon="3.3014">
        <ele>35.4</ele>
        <time>2020-06-24T08:41:48Z</time>
      </trkpt>
      <trkpt lat="50.51493" lon="3.30151">
        <ele>35.4</ele>
        <time>2020-06-24T08:41:49Z</time>
      </trkpt>
      <trkpt lat="50.51491" lon="3.30161">
        <ele>35.3</ele>
        <time>2020-06-24T08:41:50Z</time>
      </trkpt>
      <trkpt lat="50.51488" lon="3.30171">
        <ele>35.3</ele>
        <time>2020-06-24T08:41:51Z</time>
      </trkpt>
      <trkpt lat="50.51486" lon="3.30182">
        <ele>35.3</ele>
        <time>2020-06-24T08:41:52Z</time>
      </trkpt>
      <trkpt lat="50.51484" lon="3.30192">
        <ele>35.3</ele>
        <time>2020-06-24T08:41:53Z</time>
      </trkpt>
      <trkpt lat="50.51482" lon="3.30202">
        <ele>35.2</ele>
        <time>2020-06-24T08:41:54Z</time>
      </trkpt>
      <trkpt lat="50.5148" lon="3.30213">
        <ele>35.2</ele>
        <time>2020-06-24T08:41:55Z</time>
      </trkpt>
      <trkpt lat="50.51477" lon="3.30222">
        <ele>35.2</ele>
        <time>2020-06-24T08:41:56Z</time>
      </trkpt>
      <trkpt lat="50.51474" lon="3.30233">
        <ele>35.1</ele>
        <time>2020-06-24T08:41:57Z</time>
      </trkpt>
      <trkpt lat="50.51473" lon="3.30243">
        <ele>35.1</ele>
        <time>2020-06-24T08:41:58Z</time>
      </trkpt>
      <trkpt lat="50.5147" lon="3.30254">
        <ele>35.1</ele>
        <time>2020-06-24T08:41:59Z</time>
      </trkpt>
      <trkpt lat="50.51469" lon="3.30264">
        <ele>35</ele>
        <time>2020-06-24T08:42:00Z</time>
      </trkpt>
      <trkpt lat="50.51467" lon="3.30275">
        <ele>34.9</ele>
        <time>2020-06-24T08:42:01Z</time>
      </trkpt>
      <trkpt lat="50.51465" lon="3.30285">
        <ele>34.9</ele>
        <time>2020-06-24T08:42:02Z</time>
      </trkpt>
      <trkpt lat="50.51462" lon="3.30295">
        <ele>34.8</ele>
        <time>2020-06-24T08:42:03Z</time>
      </trkpt>
      <trkpt lat="50.51459" lon="3.30306">
        <ele>34.8</ele>
        <time>2020-06-24T08:42:04Z</time>
      </trkpt>
      <trkpt lat="50.51457" lon="3.30316">
        <ele>34.7</ele>
        <time>2020-06-24T08:42:05Z</time>
      </trkpt>
      <trkpt lat="50.51454" lon="3.30326">
        <ele>34.7</ele>
        <time>2020-06-24T08:42:06Z</time>
      </trkpt>
      <trkpt lat="50.51452" lon="3.30336">
        <ele>34.7</ele>
        <time>2020-06-24T08:42:07Z</time>
      </trkpt>
      <trkpt lat="50.51451" lon="3.30347">
        <ele>34.7</ele>
        <time>2020-06-24T08:42:08Z</time>
      </trkpt>
      <trkpt lat="50.51449" lon="3.30358">
        <ele>34.7</ele>
        <time>2020-06-24T08:42:09Z</time>
      </trkpt>
      <trkpt lat="50.51448" lon="3.30369">
        <ele>34.7</ele>
        <time>2020-06-24T08:42:10Z</time>
      </trkpt>
      <trkpt lat="50.51447" lon="3.3038">
        <ele>34.6</ele>
        <time>2020-06-24T08:42:11Z</time>
      </trkpt>
      <trkpt lat="50.51446" lon="3.30391">
        <ele>34.6</ele>
        <time>2020-06-24T08:42:12Z</time>
      </trkpt>
      <trkpt lat="50.51445" lon="3.30402">
        <ele>34.6</ele>
        <time>2020-06-24T08:42:13Z</time>
      </trkpt>
      <trkpt lat="50.51445" lon="3.30412">
        <ele>34.5</ele>
        <time>2020-06-24T08:42:14Z</time>
      </trkpt>
      <trkpt lat="50.51445" lon="3.30423">
        <ele>34.5</ele>
        <time>2020-06-24T08:42:15Z</time>
      </trkpt>
      <trkpt lat="50.51445" lon="3.30433">
        <ele>34.5</ele>
        <time>2020-06-24T08:42:16Z</time>
      </trkpt>
      <trkpt lat="50.51445" lon="3.30444">
        <ele>34.5</ele>
        <time>2020-06-24T08:42:17Z</time>
      </trkpt>
      <trkpt lat="50.51446" lon="3.30455">
        <ele>34.5</ele>
        <time>2020-06-24T08:42:18Z</time>
      </trkpt>
      <trkpt lat="50.51447" lon="3.30466">
        <ele>34.5</ele>
        <time>2020-06-24T08:42:19Z</time>
      </trkpt>
      <trkpt lat="50.51447" lon="3.30476">
        <ele>34.5</ele>
        <time>2020-06-24T08:42:20Z</time>
      </trkpt>
      <trkpt lat="50.51448" lon="3.30487">
        <ele>34.5</ele>
        <time>2020-06-24T08:42:21Z</time>
      </trkpt>
      <trkpt lat="50.51448" lon="3.30498">
        <ele>34.5</ele>
        <time>2020-06-24T08:42:22Z</time>
      </trkpt>
      <trkpt lat="50.51448" lon="3.30508">
        <ele>34.5</ele>
        <time>2020-06-24T08:42:23Z</time>
      </trkpt>
      <trkpt lat="50.51448" lon="3.30519">
        <ele>34.6</ele>
        <time>2020-06-24T08:42:24Z</time>
      </trkpt>
      <trkpt lat="50.51448" lon="3.3053">
        <ele>34.6</ele>
        <time>2020-06-24T08:42:25Z</time>
      </trkpt>
      <trkpt lat="50.51448" lon="3.3054">
        <ele>34.6</ele>
        <time>2020-06-24T08:42:26Z</time>
      </trkpt>
      <trkpt lat="50.51448" lon="3.3055">
        <ele>34.6</ele>
        <time>2020-06-24T08:42:27Z</time>
      </trkpt>
      <trkpt lat="50.51448" lon="3.30561">
        <ele>34.7</ele>
        <time>2020-06-24T08:42:28Z</time>
      </trkpt>
      <trkpt lat="50.51447" lon="3.30571">
        <ele>34.7</ele>
        <time>2020-06-24T08:42:29Z</time>
      </trkpt>
      <trkpt lat="50.51447" lon="3.30581">
        <ele>34.7</ele>
        <time>2020-06-24T08:42:30Z</time>
      </trkpt>
      <trkpt lat="50.51446" lon="3.30591">
        <ele>34.8</ele>
        <time>2020-06-24T08:42:31Z</time>
      </trkpt>
      <trkpt lat="50.51446" lon="3.30601">
        <ele>34.8</ele>
        <time>2020-06-24T08:42:32Z</time>
      </trkpt>
      <trkpt lat="50.51445" lon="3.30611">
        <ele>34.8</ele>
        <time>2020-06-24T08:42:33Z</time>
      </trkpt>
      <trkpt lat="50.51444" lon="3.30621">
        <ele>34.9</ele>
        <time>2020-06-24T08:42:34Z</time>
      </trkpt>
      <trkpt lat="50.51443" lon="3.30631">
        <ele>34.9</ele>
        <time>2020-06-24T08:42:35Z</time>
      </trkpt>
      <trkpt lat="50.51442" lon="3.30641">
        <ele>34.9</ele>
        <time>2020-06-24T08:42:36Z</time>
      </trkpt>
      <trkpt lat="50.51442" lon="3.3065">
        <ele>34.9</ele>
        <time>2020-06-24T08:42:37Z</time>
      </trkpt>
      <trkpt lat="50.51441" lon="3.3066">
        <ele>35</ele>
        <time>2020-06-24T08:42:38Z</time>
      </trkpt>
      <trkpt lat="50.5144" lon="3.3067">
        <ele>35</ele>
        <time>2020-06-24T08:42:39Z</time>
      </trkpt>
      <trkpt lat="50.5144" lon="3.30679">
        <ele>35</ele>
        <time>2020-06-24T08:42:40Z</time>
      </trkpt>
      <trkpt lat="50.51439" lon="3.30689">
        <ele>35</ele>
        <time>2020-06-24T08:42:41Z</time>
      </trkpt>
      <trkpt lat="50.51438" lon="3.30699">
        <ele>35</ele>
        <time>2020-06-24T08:42:42Z</time>
      </trkpt>
      <trkpt lat="50.51437" lon="3.30709">
        <ele>35</ele>
        <time>2020-06-24T08:42:43Z</time>
      </trkpt>
      <trkpt lat="50.51436" lon="3.30718">
        <ele>35</ele>
        <time>2020-06-24T08:42:44Z</time>
      </trkpt>
      <trkpt lat="50.51435" lon="3.30729">
        <ele>35</ele>
        <time>2020-06-24T08:42:45Z</time>
      </trkpt>
      <trkpt lat="50.51435" lon="3.30739">
        <ele>35</ele>
        <time>2020-06-24T08:42:46Z</time>
      </trkpt>
      <trkpt lat="50.51434" lon="3.30749">
        <ele>35</ele>
        <time>2020-06-24T08:42:47Z</time>
      </trkpt>
      <trkpt lat="50.51433" lon="3.30759">
        <ele>35</ele>
        <time>2020-06-24T08:42:48Z</time>
      </trkpt>
      <trkpt lat="50.51432" lon="3.30769">
        <ele>35</ele>
        <time>2020-06-24T08:42:49Z</time>
      </trkpt>
      <trkpt lat="50.51431" lon="3.30779">
        <ele>35</ele>
        <time>2020-06-24T08:42:50Z</time>
      </trkpt>
      <trkpt lat="50.5143" lon="3.30789">
        <ele>35</ele>
        <time>2020-06-24T08:42:51Z</time>
      </trkpt>
      <trkpt lat="50.51429" lon="3.30799">
        <ele>35</ele>
        <time>2020-06-24T08:42:52Z</time>
      </trkpt>
      <trkpt lat="50.51429" lon="3.30809">
        <ele>35</ele>
        <time>2020-06-24T08:42:53Z</time>
      </trkpt>
      <trkpt lat="50.51428" lon="3.3082">
        <ele>35</ele>
        <time>2020-06-24T08:42:54Z</time>
      </trkpt>
      <trkpt lat="50.51427" lon="3.3083">
        <ele>35</ele>
        <time>2020-06-24T08:42:55Z</time>
      </trkpt>
      <trkpt lat="50.51426" lon="3.3084">
        <ele>35</ele>
        <time>2020-06-24T08:42:56Z</time>
      </trkpt>
      <trkpt lat="50.51425" lon="3.3085">
        <ele>35</ele>
        <time>2020-06-24T08:42:57Z</time>
      </trkpt>
      <trkpt lat="50.51424" lon="3.3086">
        <ele>35</ele>
        <time>2020-06-24T08:42:58Z</time>
      </trkpt>
      <trkpt lat="50.51423" lon="3.30869">
        <ele>35</ele>
        <time>2020-06-24T08:42:59Z</time>
      </trkpt>
      <trkpt lat="50.51423" lon="3.30879">
        <ele>35</ele>
        <time>2020-06-24T08:43:00Z</time>
      </trkpt>
      <trkpt lat="50.51422" lon="3.3089">
        <ele>35</ele>
        <time>2020-06-24T08:43:01Z</time>
      </trkpt>
      <trkpt lat="50.51421" lon="3.30899">
        <ele>35</ele>
        <time>2020-06-24T08:43:02Z</time>
      </trkpt>
      <trkpt lat="50.51421" lon="3.3091">
        <ele>35</ele>
        <time>2020-06-24T08:43:03Z</time>
      </trkpt>
      <trkpt lat="50.51421" lon="3.3092">
        <ele>35</ele>
        <time>2020-06-24T08:43:04Z</time>
      </trkpt>
      <trkpt lat="50.5142" lon="3.30931">
        <ele>35.1</ele>
        <time>2020-06-24T08:43:05Z</time>
      </trkpt>
      <trkpt lat="50.51419" lon="3.30941">
        <ele>35.1</ele>
        <time>2020-06-24T08:43:06Z</time>
      </trkpt>
      <trkpt lat="50.51417" lon="3.3095">
        <ele>35.2</ele>
        <time>2020-06-24T08:43:07Z</time>
      </trkpt>
      <trkpt lat="50.51417" lon="3.3096">
        <ele>35.3</ele>
        <time>2020-06-24T08:43:08Z</time>
      </trkpt>
      <trkpt lat="50.51416" lon="3.30969">
        <ele>35.3</ele>
        <time>2020-06-24T08:43:09Z</time>
      </trkpt>
      <trkpt lat="50.51415" lon="3.30978">
        <ele>35.3</ele>
        <time>2020-06-24T08:43:10Z</time>
      </trkpt>
      <trkpt lat="50.51414" lon="3.30987">
        <ele>35.3</ele>
        <time>2020-06-24T08:43:11Z</time>
      </trkpt>
      <trkpt lat="50.51413" lon="3.30997">
        <ele>35.3</ele>
        <time>2020-06-24T08:43:12Z</time>
      </trkpt>
      <trkpt lat="50.51412" lon="3.31006">
        <ele>35.2</ele>
        <time>2020-06-24T08:43:13Z</time>
      </trkpt>
      <trkpt lat="50.51412" lon="3.31016">
        <ele>35.2</ele>
        <time>2020-06-24T08:43:14Z</time>
      </trkpt>
      <trkpt lat="50.51411" lon="3.31027">
        <ele>35.2</ele>
        <time>2020-06-24T08:43:15Z</time>
      </trkpt>
      <trkpt lat="50.51411" lon="3.31037">
        <ele>35.2</ele>
        <time>2020-06-24T08:43:16Z</time>
      </trkpt>
      <trkpt lat="50.5141" lon="3.31047">
        <ele>35.2</ele>
        <time>2020-06-24T08:43:17Z</time>
      </trkpt>
      <trkpt lat="50.51409" lon="3.31056">
        <ele>35.1</ele>
        <time>2020-06-24T08:43:18Z</time>
      </trkpt>
      <trkpt lat="50.51408" lon="3.31066">
        <ele>35.1</ele>
        <time>2020-06-24T08:43:19Z</time>
      </trkpt>
      <trkpt lat="50.51407" lon="3.31076">
        <ele>35.1</ele>
        <time>2020-06-24T08:43:20Z</time>
      </trkpt>
      <trkpt lat="50.51407" lon="3.31086">
        <ele>35.1</ele>
        <time>2020-06-24T08:43:21Z</time>
      </trkpt>
      <trkpt lat="50.51406" lon="3.31095">
        <ele>35.1</ele>
        <time>2020-06-24T08:43:22Z</time>
      </trkpt>
      <trkpt lat="50.51406" lon="3.31105">
        <ele>35.1</ele>
        <time>2020-06-24T08:43:23Z</time>
      </trkpt>
      <trkpt lat="50.51405" lon="3.31115">
        <ele>35</ele>
        <time>2020-06-24T08:43:24Z</time>
      </trkpt>
      <trkpt lat="50.51404" lon="3.31125">
        <ele>35</ele>
        <time>2020-06-24T08:43:25Z</time>
      </trkpt>
      <trkpt lat="50.51403" lon="3.31135">
        <ele>35</ele>
        <time>2020-06-24T08:43:26Z</time>
      </trkpt>
      <trkpt lat="50.51403" lon="3.31145">
        <ele>34.9</ele>
        <time>2020-06-24T08:43:27Z</time>
      </trkpt>
      <trkpt lat="50.51403" lon="3.31155">
        <ele>34.9</ele>
        <time>2020-06-24T08:43:28Z</time>
      </trkpt>
      <trkpt lat="50.51402" lon="3.31164">
        <ele>34.9</ele>
        <time>2020-06-24T08:43:29Z</time>
      </trkpt>
      <trkpt lat="50.51401" lon="3.31173">
        <ele>34.9</ele>
        <time>2020-06-24T08:43:30Z</time>
      </trkpt>
      <trkpt lat="50.51401" lon="3.31183">
        <ele>34.9</ele>
        <time>2020-06-24T08:43:31Z</time>
      </trkpt>
      <trkpt lat="50.514" lon="3.31193">
        <ele>34.9</ele>
        <time>2020-06-24T08:43:32Z</time>
      </trkpt>
      <trkpt lat="50.51399" lon="3.31202">
        <ele>34.9</ele>
        <time>2020-06-24T08:43:33Z</time>
      </trkpt>
      <trkpt lat="50.51398" lon="3.31213">
        <ele>34.9</ele>
        <time>2020-06-24T08:43:34Z</time>
      </trkpt>
      <trkpt lat="50.51397" lon="3.31225">
        <ele>35</ele>
        <time>2020-06-24T08:43:35Z</time>
      </trkpt>
      <trkpt lat="50.51396" lon="3.31236">
        <ele>35</ele>
        <time>2020-06-24T08:43:36Z</time>
      </trkpt>
      <trkpt lat="50.51396" lon="3.31247">
        <ele>35</ele>
        <time>2020-06-24T08:43:37Z</time>
      </trkpt>
      <trkpt lat="50.51395" lon="3.31257">
        <ele>35</ele>
        <time>2020-06-24T08:43:38Z</time>
      </trkpt>
      <trkpt lat="50.51394" lon="3.31266">
        <ele>35</ele>
        <time>2020-06-24T08:43:39Z</time>
      </trkpt>
      <trkpt lat="50.51393" lon="3.31275">
        <ele>35</ele>
        <time>2020-06-24T08:43:40Z</time>
      </trkpt>
      <trkpt lat="50.51392" lon="3.31285">
        <ele>35</ele>
        <time>2020-06-24T08:43:41Z</time>
      </trkpt>
      <trkpt lat="50.51392" lon="3.31294">
        <ele>35</ele>
        <time>2020-06-24T08:43:42Z</time>
      </trkpt>
      <trkpt lat="50.51391" lon="3.31303">
        <ele>34.9</ele>
        <time>2020-06-24T08:43:43Z</time>
      </trkpt>
      <trkpt lat="50.5139" lon="3.31313">
        <ele>34.9</ele>
        <time>2020-06-24T08:43:44Z</time>
      </trkpt>
      <trkpt lat="50.51389" lon="3.31323">
        <ele>34.8</ele>
        <time>2020-06-24T08:43:45Z</time>
      </trkpt>
      <trkpt lat="50.51388" lon="3.31333">
        <ele>34.8</ele>
        <time>2020-06-24T08:43:46Z</time>
      </trkpt>
      <trkpt lat="50.51387" lon="3.31343">
        <ele>34.7</ele>
        <time>2020-06-24T08:43:47Z</time>
      </trkpt>
      <trkpt lat="50.51386" lon="3.31353">
        <ele>34.7</ele>
        <time>2020-06-24T08:43:48Z</time>
      </trkpt>
      <trkpt lat="50.51385" lon="3.31363">
        <ele>34.6</ele>
        <time>2020-06-24T08:43:49Z</time>
      </trkpt>
      <trkpt lat="50.51384" lon="3.31373">
        <ele>34.6</ele>
        <time>2020-06-24T08:43:50Z</time>
      </trkpt>
      <trkpt lat="50.51383" lon="3.31383">
        <ele>34.5</ele>
        <time>2020-06-24T08:43:51Z</time>
      </trkpt>
      <trkpt lat="50.51382" lon="3.31393">
        <ele>34.5</ele>
        <time>2020-06-24T08:43:52Z</time>
      </trkpt>
      <trkpt lat="50.51382" lon="3.31403">
        <ele>34.4</ele>
        <time>2020-06-24T08:43:53Z</time>
      </trkpt>
      <trkpt lat="50.51381" lon="3.31413">
        <ele>34.3</ele>
        <time>2020-06-24T08:43:54Z</time>
      </trkpt>
      <trkpt lat="50.5138" lon="3.31423">
        <ele>34.2</ele>
        <time>2020-06-24T08:43:55Z</time>
      </trkpt>
      <trkpt lat="50.51379" lon="3.31433">
        <ele>34.1</ele>
        <time>2020-06-24T08:43:56Z</time>
      </trkpt>
      <trkpt lat="50.51379" lon="3.31443">
        <ele>34</ele>
        <time>2020-06-24T08:43:57Z</time>
      </trkpt>
      <trkpt lat="50.51378" lon="3.31452">
        <ele>33.9</ele>
        <time>2020-06-24T08:43:58Z</time>
      </trkpt>
      <trkpt lat="50.51377" lon="3.31463">
        <ele>33.9</ele>
        <time>2020-06-24T08:43:59Z</time>
      </trkpt>
      <trkpt lat="50.51377" lon="3.31473">
        <ele>33.8</ele>
        <time>2020-06-24T08:44:00Z</time>
      </trkpt>
      <trkpt lat="50.51376" lon="3.31483">
        <ele>33.7</ele>
        <time>2020-06-24T08:44:01Z</time>
      </trkpt>
      <trkpt lat="50.51375" lon="3.31493">
        <ele>33.7</ele>
        <time>2020-06-24T08:44:02Z</time>
      </trkpt>
      <trkpt lat="50.51375" lon="3.31503">
        <ele>33.6</ele>
        <time>2020-06-24T08:44:03Z</time>
      </trkpt>
      <trkpt lat="50.51374" lon="3.31513">
        <ele>33.5</ele>
        <time>2020-06-24T08:44:04Z</time>
      </trkpt>
      <trkpt lat="50.51373" lon="3.31523">
        <ele>33.4</ele>
        <time>2020-06-24T08:44:05Z</time>
      </trkpt>
      <trkpt lat="50.51372" lon="3.31534">
        <ele>33.4</ele>
        <time>2020-06-24T08:44:06Z</time>
      </trkpt>
      <trkpt lat="50.51371" lon="3.31544">
        <ele>33.3</ele>
        <time>2020-06-24T08:44:07Z</time>
      </trkpt>
      <trkpt lat="50.51371" lon="3.31555">
        <ele>33.2</ele>
        <time>2020-06-24T08:44:08Z</time>
      </trkpt>
      <trkpt lat="50.5137" lon="3.31565">
        <ele>33</ele>
        <time>2020-06-24T08:44:09Z</time>
      </trkpt>
      <trkpt lat="50.51369" lon="3.31576">
        <ele>32.9</ele>
        <time>2020-06-24T08:44:10Z</time>
      </trkpt>
      <trkpt lat="50.51368" lon="3.31586">
        <ele>32.8</ele>
        <time>2020-06-24T08:44:11Z</time>
      </trkpt>
      <trkpt lat="50.51367" lon="3.31597">
        <ele>32.8</ele>
        <time>2020-06-24T08:44:12Z</time>
      </trkpt>
      <trkpt lat="50.51366" lon="3.31608">
        <ele>32.7</ele>
        <time>2020-06-24T08:44:13Z</time>
      </trkpt>
      <trkpt lat="50.51364" lon="3.31618">
        <ele>32.6</ele>
        <time>2020-06-24T08:44:14Z</time>
      </trkpt>
      <trkpt lat="50.51363" lon="3.31629">
        <ele>32.6</ele>
        <time>2020-06-24T08:44:15Z</time>
      </trkpt>
      <trkpt lat="50.51361" lon="3.3164">
        <ele>32.5</ele>
        <time>2020-06-24T08:44:16Z</time>
      </trkpt>
      <trkpt lat="50.51359" lon="3.3165">
        <ele>32.4</ele>
        <time>2020-06-24T08:44:17Z</time>
      </trkpt>
      <trkpt lat="50.51357" lon="3.3166">
        <ele>32.3</ele>
        <time>2020-06-24T08:44:18Z</time>
      </trkpt>
      <trkpt lat="50.51355" lon="3.3167">
        <ele>32.2</ele>
        <time>2020-06-24T08:44:19Z</time>
      </trkpt>
      <trkpt lat="50.51352" lon="3.3168">
        <ele>32.1</ele>
        <time>2020-06-24T08:44:20Z</time>
      </trkpt>
      <trkpt lat="50.51349" lon="3.3169">
        <ele>32</ele>
        <time>2020-06-24T08:44:21Z</time>
      </trkpt>
      <trkpt lat="50.51346" lon="3.317">
        <ele>31.9</ele>
        <time>2020-06-24T08:44:22Z</time>
      </trkpt>
      <trkpt lat="50.51342" lon="3.31709">
        <ele>31.9</ele>
        <time>2020-06-24T08:44:23Z</time>
      </trkpt>
      <trkpt lat="50.51339" lon="3.31719">
        <ele>31.8</ele>
        <time>2020-06-24T08:44:24Z</time>
      </trkpt>
      <trkpt lat="50.51335" lon="3.31728">
        <ele>31.7</ele>
        <time>2020-06-24T08:44:25Z</time>
      </trkpt>
      <trkpt lat="50.51332" lon="3.31737">
        <ele>31.6</ele>
        <time>2020-06-24T08:44:26Z</time>
      </trkpt>
      <trkpt lat="50.51328" lon="3.31746">
        <ele>31.5</ele>
        <time>2020-06-24T08:44:27Z</time>
      </trkpt>
      <trkpt lat="50.51325" lon="3.31755">
        <ele>31.4</ele>
        <time>2020-06-24T08:44:28Z</time>
      </trkpt>
      <trkpt lat="50.5132" lon="3.31763">
        <ele>31.3</ele>
        <time>2020-06-24T08:44:29Z</time>
      </trkpt>
      <trkpt lat="50.51316" lon="3.31771">
        <ele>31.2</ele>
        <time>2020-06-24T08:44:30Z</time>
      </trkpt>
      <trkpt lat="50.51311" lon="3.31779">
        <ele>31.1</ele>
        <time>2020-06-24T08:44:31Z</time>
      </trkpt>
      <trkpt lat="50.51307" lon="3.31786">
        <ele>31</ele>
        <time>2020-06-24T08:44:32Z</time>
      </trkpt>
      <trkpt lat="50.51301" lon="3.31793">
        <ele>30.9</ele>
        <time>2020-06-24T08:44:33Z</time>
      </trkpt>
      <trkpt lat="50.51296" lon="3.318">
        <ele>30.8</ele>
        <time>2020-06-24T08:44:34Z</time>
      </trkpt>
      <trkpt lat="50.51291" lon="3.31807">
        <ele>30.7</ele>
        <time>2020-06-24T08:44:35Z</time>
      </trkpt>
      <trkpt lat="50.51286" lon="3.31814">
        <ele>30.6</ele>
        <time>2020-06-24T08:44:36Z</time>
      </trkpt>
      <trkpt lat="50.51282" lon="3.31822">
        <ele>30.5</ele>
        <time>2020-06-24T08:44:37Z</time>
      </trkpt>
      <trkpt lat="50.51277" lon="3.3183">
        <ele>30.4</ele>
        <time>2020-06-24T08:44:38Z</time>
      </trkpt>
      <trkpt lat="50.51272" lon="3.31839">
        <ele>30.3</ele>
        <time>2020-06-24T08:44:39Z</time>
      </trkpt>
      <trkpt lat="50.51267" lon="3.31846">
        <ele>30.2</ele>
        <time>2020-06-24T08:44:40Z</time>
      </trkpt>
      <trkpt lat="50.51262" lon="3.31854">
        <ele>30</ele>
        <time>2020-06-24T08:44:41Z</time>
      </trkpt>
      <trkpt lat="50.51256" lon="3.31862">
        <ele>29.9</ele>
        <time>2020-06-24T08:44:42Z</time>
      </trkpt>
      <trkpt lat="50.51251" lon="3.3187">
        <ele>29.8</ele>
        <time>2020-06-24T08:44:43Z</time>
      </trkpt>
      <trkpt lat="50.51246" lon="3.31878">
        <ele>29.7</ele>
        <time>2020-06-24T08:44:44Z</time>
      </trkpt>
      <trkpt lat="50.51241" lon="3.31886">
        <ele>29.6</ele>
        <time>2020-06-24T08:44:45Z</time>
      </trkpt>
      <trkpt lat="50.51236" lon="3.31894">
        <ele>29.5</ele>
        <time>2020-06-24T08:44:46Z</time>
      </trkpt>
      <trkpt lat="50.51231" lon="3.31902">
        <ele>29.4</ele>
        <time>2020-06-24T08:44:47Z</time>
      </trkpt>
      <trkpt lat="50.51226" lon="3.31911">
        <ele>29.3</ele>
        <time>2020-06-24T08:44:48Z</time>
      </trkpt>
      <trkpt lat="50.51221" lon="3.31919">
        <ele>29.2</ele>
        <time>2020-06-24T08:44:49Z</time>
      </trkpt>
      <trkpt lat="50.51216" lon="3.31927">
        <ele>29.2</ele>
        <time>2020-06-24T08:44:50Z</time>
      </trkpt>
      <trkpt lat="50.51211" lon="3.31935">
        <ele>29.1</ele>
        <time>2020-06-24T08:44:51Z</time>
      </trkpt>
      <trkpt lat="50.51205" lon="3.31942">
        <ele>29.1</ele>
        <time>2020-06-24T08:44:52Z</time>
      </trkpt>
      <trkpt lat="50.512" lon="3.3195">
        <ele>29.1</ele>
        <time>2020-06-24T08:44:53Z</time>
      </trkpt>
      <trkpt lat="50.51195" lon="3.31959">
        <ele>29.2</ele>
        <time>2020-06-24T08:44:54Z</time>
      </trkpt>
      <trkpt lat="50.5119" lon="3.31967">
        <ele>29.1</ele>
        <time>2020-06-24T08:44:55Z</time>
      </trkpt>
      <trkpt lat="50.51184" lon="3.31975">
        <ele>29</ele>
        <time>2020-06-24T08:44:56Z</time>
      </trkpt>
      <trkpt lat="50.51179" lon="3.31983">
        <ele>28.9</ele>
        <time>2020-06-24T08:44:57Z</time>
      </trkpt>
      <trkpt lat="50.51174" lon="3.31991">
        <ele>28.8</ele>
        <time>2020-06-24T08:44:58Z</time>
      </trkpt>
      <trkpt lat="50.51168" lon="3.31999">
        <ele>28.7</ele>
        <time>2020-06-24T08:44:59Z</time>
      </trkpt>
      <trkpt lat="50.51163" lon="3.32007">
        <ele>28.5</ele>
        <time>2020-06-24T08:45:00Z</time>
      </trkpt>
      <trkpt lat="50.51158" lon="3.32015">
        <ele>28.4</ele>
        <time>2020-06-24T08:45:01Z</time>
      </trkpt>
      <trkpt lat="50.51153" lon="3.32023">
        <ele>28.3</ele>
        <time>2020-06-24T08:45:02Z</time>
      </trkpt>
      <trkpt lat="50.51148" lon="3.32032">
        <ele>28.3</ele>
        <time>2020-06-24T08:45:03Z</time>
      </trkpt>
      <trkpt lat="50.51143" lon="3.32039">
        <ele>28.2</ele>
        <time>2020-06-24T08:45:04Z</time>
      </trkpt>
      <trkpt lat="50.51138" lon="3.32047">
        <ele>28.2</ele>
        <time>2020-06-24T08:45:05Z</time>
      </trkpt>
      <trkpt lat="50.51132" lon="3.32055">
        <ele>28.1</ele>
        <time>2020-06-24T08:45:06Z</time>
      </trkpt>
      <trkpt lat="50.51127" lon="3.32063">
        <ele>28</ele>
        <time>2020-06-24T08:45:07Z</time>
      </trkpt>
      <trkpt lat="50.51123" lon="3.32071">
        <ele>27.9</ele>
        <time>2020-06-24T08:45:08Z</time>
      </trkpt>
      <trkpt lat="50.51118" lon="3.32079">
        <ele>27.8</ele>
        <time>2020-06-24T08:45:09Z</time>
      </trkpt>
      <trkpt lat="50.51113" lon="3.32088">
        <ele>27.7</ele>
        <time>2020-06-24T08:45:10Z</time>
      </trkpt>
      <trkpt lat="50.51107" lon="3.32096">
        <ele>27.6</ele>
        <time>2020-06-24T08:45:11Z</time>
      </trkpt>
      <trkpt lat="50.51102" lon="3.32104">
        <ele>27.5</ele>
        <time>2020-06-24T08:45:12Z</time>
      </trkpt>
      <trkpt lat="50.51097" lon="3.32112">
        <ele>27.4</ele>
        <time>2020-06-24T08:45:13Z</time>
      </trkpt>
      <trkpt lat="50.51092" lon="3.3212">
        <ele>27.3</ele>
        <time>2020-06-24T08:45:14Z</time>
      </trkpt>
      <trkpt lat="50.51087" lon="3.32128">
        <ele>27.3</ele>
        <time>2020-06-24T08:45:15Z</time>
      </trkpt>
      <trkpt lat="50.51083" lon="3.32136">
        <ele>27.2</ele>
        <time>2020-06-24T08:45:16Z</time>
      </trkpt>
      <trkpt lat="50.51078" lon="3.32144">
        <ele>27.2</ele>
        <time>2020-06-24T08:45:17Z</time>
      </trkpt>
      <trkpt lat="50.51074" lon="3.32152">
        <ele>27.1</ele>
        <time>2020-06-24T08:45:18Z</time>
      </trkpt>
      <trkpt lat="50.5107" lon="3.32161">
        <ele>27</ele>
        <time>2020-06-24T08:45:19Z</time>
      </trkpt>
      <trkpt lat="50.51067" lon="3.3217">
        <ele>27</ele>
        <time>2020-06-24T08:45:20Z</time>
      </trkpt>
      <trkpt lat="50.51065" lon="3.3218">
        <ele>26.9</ele>
        <time>2020-06-24T08:45:21Z</time>
      </trkpt>
      <trkpt lat="50.51062" lon="3.32189">
        <ele>26.9</ele>
        <time>2020-06-24T08:45:22Z</time>
      </trkpt>
      <trkpt lat="50.51061" lon="3.322">
        <ele>26.8</ele>
        <time>2020-06-24T08:45:23Z</time>
      </trkpt>
      <trkpt lat="50.5106" lon="3.3221">
        <ele>26.8</ele>
        <time>2020-06-24T08:45:24Z</time>
      </trkpt>
      <trkpt lat="50.51061" lon="3.32221">
        <ele>26.7</ele>
        <time>2020-06-24T08:45:25Z</time>
      </trkpt>
      <trkpt lat="50.51062" lon="3.32232">
        <ele>26.6</ele>
        <time>2020-06-24T08:45:26Z</time>
      </trkpt>
      <trkpt lat="50.51063" lon="3.32243">
        <ele>26.6</ele>
        <time>2020-06-24T08:45:27Z</time>
      </trkpt>
      <trkpt lat="50.51064" lon="3.32254">
        <ele>26.5</ele>
        <time>2020-06-24T08:45:28Z</time>
      </trkpt>
      <trkpt lat="50.51066" lon="3.32265">
        <ele>26.4</ele>
        <time>2020-06-24T08:45:29Z</time>
      </trkpt>
      <trkpt lat="50.51068" lon="3.32276">
        <ele>26.4</ele>
        <time>2020-06-24T08:45:30Z</time>
      </trkpt>
      <trkpt lat="50.5107" lon="3.32286">
        <ele>26.3</ele>
        <time>2020-06-24T08:45:31Z</time>
      </trkpt>
      <trkpt lat="50.51071" lon="3.32297">
        <ele>26.2</ele>
        <time>2020-06-24T08:45:32Z</time>
      </trkpt>
      <trkpt lat="50.51071" lon="3.32309">
        <ele>26.1</ele>
        <time>2020-06-24T08:45:33Z</time>
      </trkpt>
      <trkpt lat="50.51072" lon="3.3232">
        <ele>26</ele>
        <time>2020-06-24T08:45:34Z</time>
      </trkpt>
      <trkpt lat="50.51071" lon="3.32331">
        <ele>25.8</ele>
        <time>2020-06-24T08:45:35Z</time>
      </trkpt>
      <trkpt lat="50.51072" lon="3.32343">
        <ele>25.7</ele>
        <time>2020-06-24T08:45:36Z</time>
      </trkpt>
      <trkpt lat="50.51071" lon="3.32354">
        <ele>25.6</ele>
        <time>2020-06-24T08:45:37Z</time>
      </trkpt>
      <trkpt lat="50.51071" lon="3.32366">
        <ele>25.6</ele>
        <time>2020-06-24T08:45:38Z</time>
      </trkpt>
      <trkpt lat="50.51071" lon="3.32377">
        <ele>25.5</ele>
        <time>2020-06-24T08:45:39Z</time>
      </trkpt>
      <trkpt lat="50.51071" lon="3.32389">
        <ele>25.4</ele>
        <time>2020-06-24T08:45:40Z</time>
      </trkpt>
      <trkpt lat="50.51071" lon="3.324">
        <ele>25.3</ele>
        <time>2020-06-24T08:45:41Z</time>
      </trkpt>
      <trkpt lat="50.51071" lon="3.32412">
        <ele>25.3</ele>
        <time>2020-06-24T08:45:42Z</time>
      </trkpt>
      <trkpt lat="50.51071" lon="3.32423">
        <ele>25.2</ele>
        <time>2020-06-24T08:45:43Z</time>
      </trkpt>
      <trkpt lat="50.51071" lon="3.32435">
        <ele>25.2</ele>
        <time>2020-06-24T08:45:44Z</time>
      </trkpt>
      <trkpt lat="50.5107" lon="3.32446">
        <ele>25.1</ele>
        <time>2020-06-24T08:45:45Z</time>
      </trkpt>
      <trkpt lat="50.51069" lon="3.32457">
        <ele>25</ele>
        <time>2020-06-24T08:45:46Z</time>
      </trkpt>
      <trkpt lat="50.51067" lon="3.32468">
        <ele>24.9</ele>
        <time>2020-06-24T08:45:47Z</time>
      </trkpt>
      <trkpt lat="50.51064" lon="3.32479">
        <ele>24.8</ele>
        <time>2020-06-24T08:45:48Z</time>
      </trkpt>
      <trkpt lat="50.51061" lon="3.32489">
        <ele>24.8</ele>
        <time>2020-06-24T08:45:49Z</time>
      </trkpt>
      <trkpt lat="50.51059" lon="3.32499">
        <ele>24.7</ele>
        <time>2020-06-24T08:45:50Z</time>
      </trkpt>
      <trkpt lat="50.51055" lon="3.32508">
        <ele>24.6</ele>
        <time>2020-06-24T08:45:51Z</time>
      </trkpt>
      <trkpt lat="50.51051" lon="3.32517">
        <ele>24.6</ele>
        <time>2020-06-24T08:45:52Z</time>
      </trkpt>
      <trkpt lat="50.51047" lon="3.32526">
        <ele>24.5</ele>
        <time>2020-06-24T08:45:53Z</time>
      </trkpt>
      <trkpt lat="50.51042" lon="3.32534">
        <ele>24.5</ele>
        <time>2020-06-24T08:45:54Z</time>
      </trkpt>
      <trkpt lat="50.51038" lon="3.32543">
        <ele>24.4</ele>
        <time>2020-06-24T08:45:55Z</time>
      </trkpt>
      <trkpt lat="50.51032" lon="3.3255">
        <ele>24.4</ele>
        <time>2020-06-24T08:45:56Z</time>
      </trkpt>
      <trkpt lat="50.51027" lon="3.32557">
        <ele>24.4</ele>
        <time>2020-06-24T08:45:57Z</time>
      </trkpt>
      <trkpt lat="50.51022" lon="3.32563">
        <ele>24.5</ele>
        <time>2020-06-24T08:45:58Z</time>
      </trkpt>
      <trkpt lat="50.51018" lon="3.32571">
        <ele>24.5</ele>
        <time>2020-06-24T08:45:59Z</time>
      </trkpt>
      <trkpt lat="50.51013" lon="3.32579">
        <ele>24.4</ele>
        <time>2020-06-24T08:46:00Z</time>
      </trkpt>
      <trkpt lat="50.51008" lon="3.32587">
        <ele>24.3</ele>
        <time>2020-06-24T08:46:01Z</time>
      </trkpt>
      <trkpt lat="50.51003" lon="3.32594">
        <ele>24.1</ele>
        <time>2020-06-24T08:46:02Z</time>
      </trkpt>
      <trkpt lat="50.50998" lon="3.32603">
        <ele>24.1</ele>
        <time>2020-06-24T08:46:03Z</time>
      </trkpt>
      <trkpt lat="50.50994" lon="3.32611">
        <ele>24</ele>
        <time>2020-06-24T08:46:04Z</time>
      </trkpt>
      <trkpt lat="50.50989" lon="3.32619">
        <ele>24</ele>
        <time>2020-06-24T08:46:05Z</time>
      </trkpt>
      <trkpt lat="50.50983" lon="3.32626">
        <ele>23.9</ele>
        <time>2020-06-24T08:46:06Z</time>
      </trkpt>
      <trkpt lat="50.50978" lon="3.32634">
        <ele>23.9</ele>
        <time>2020-06-24T08:46:07Z</time>
      </trkpt>
      <trkpt lat="50.50972" lon="3.32641">
        <ele>23.9</ele>
        <time>2020-06-24T08:46:08Z</time>
      </trkpt>
      <trkpt lat="50.50966" lon="3.32647">
        <ele>23.9</ele>
        <time>2020-06-24T08:46:09Z</time>
      </trkpt>
      <trkpt lat="50.50961" lon="3.32654">
        <ele>23.9</ele>
        <time>2020-06-24T08:46:10Z</time>
      </trkpt>
      <trkpt lat="50.50955" lon="3.32661">
        <ele>23.9</ele>
        <time>2020-06-24T08:46:11Z</time>
      </trkpt>
      <trkpt lat="50.5095" lon="3.32669">
        <ele>23.9</ele>
        <time>2020-06-24T08:46:12Z</time>
      </trkpt>
      <trkpt lat="50.50946" lon="3.32677">
        <ele>23.9</ele>
        <time>2020-06-24T08:46:13Z</time>
      </trkpt>
      <trkpt lat="50.50941" lon="3.32685">
        <ele>23.9</ele>
        <time>2020-06-24T08:46:14Z</time>
      </trkpt>
      <trkpt lat="50.50936" lon="3.32692">
        <ele>23.9</ele>
        <time>2020-06-24T08:46:15Z</time>
      </trkpt>
      <trkpt lat="50.50931" lon="3.32699">
        <ele>23.9</ele>
        <time>2020-06-24T08:46:16Z</time>
      </trkpt>
      <trkpt lat="50.50926" lon="3.32706">
        <ele>23.9</ele>
        <time>2020-06-24T08:46:17Z</time>
      </trkpt>
      <trkpt lat="50.5092" lon="3.32713">
        <ele>23.9</ele>
        <time>2020-06-24T08:46:18Z</time>
      </trkpt>
      <trkpt lat="50.50915" lon="3.3272">
        <ele>23.9</ele>
        <time>2020-06-24T08:46:19Z</time>
      </trkpt>
      <trkpt lat="50.50909" lon="3.32727">
        <ele>23.9</ele>
        <time>2020-06-24T08:46:20Z</time>
      </trkpt>
      <trkpt lat="50.50904" lon="3.32734">
        <ele>23.9</ele>
        <time>2020-06-24T08:46:21Z</time>
      </trkpt>
      <trkpt lat="50.50899" lon="3.32742">
        <ele>23.9</ele>
        <time>2020-06-24T08:46:22Z</time>
      </trkpt>
      <trkpt lat="50.50894" lon="3.32749">
        <ele>23.9</ele>
        <time>2020-06-24T08:46:23Z</time>
      </trkpt>
      <trkpt lat="50.50889" lon="3.32756">
        <ele>23.9</ele>
        <time>2020-06-24T08:46:24Z</time>
      </trkpt>
      <trkpt lat="50.50884" lon="3.32764">
        <ele>23.9</ele>
        <time>2020-06-24T08:46:25Z</time>
      </trkpt>
      <trkpt lat="50.50879" lon="3.32771">
        <ele>23.9</ele>
        <time>2020-06-24T08:46:26Z</time>
      </trkpt>
      <trkpt lat="50.50874" lon="3.32778">
        <ele>23.9</ele>
        <time>2020-06-24T08:46:27Z</time>
      </trkpt>
      <trkpt lat="50.50869" lon="3.32785">
        <ele>23.9</ele>
        <time>2020-06-24T08:46:28Z</time>
      </trkpt>
      <trkpt lat="50.50865" lon="3.32793">
        <ele>23.9</ele>
        <time>2020-06-24T08:46:29Z</time>
      </trkpt>
      <trkpt lat="50.5086" lon="3.328">
        <ele>24</ele>
        <time>2020-06-24T08:46:30Z</time>
      </trkpt>
      <trkpt lat="50.50855" lon="3.32807">
        <ele>24</ele>
        <time>2020-06-24T08:46:31Z</time>
      </trkpt>
      <trkpt lat="50.5085" lon="3.32814">
        <ele>24</ele>
        <time>2020-06-24T08:46:32Z</time>
      </trkpt>
      <trkpt lat="50.50845" lon="3.32821">
        <ele>24.1</ele>
        <time>2020-06-24T08:46:33Z</time>
      </trkpt>
      <trkpt lat="50.50839" lon="3.32826">
        <ele>24.1</ele>
        <time>2020-06-24T08:46:34Z</time>
      </trkpt>
      <trkpt lat="50.50834" lon="3.32831">
        <ele>24.1</ele>
        <time>2020-06-24T08:46:35Z</time>
      </trkpt>
      <trkpt lat="50.50828" lon="3.32835">
        <ele>24.2</ele>
        <time>2020-06-24T08:46:36Z</time>
      </trkpt>
      <trkpt lat="50.50822" lon="3.3284">
        <ele>24.3</ele>
        <time>2020-06-24T08:46:37Z</time>
      </trkpt>
      <trkpt lat="50.50816" lon="3.32844">
        <ele>24.3</ele>
        <time>2020-06-24T08:46:38Z</time>
      </trkpt>
      <trkpt lat="50.50809" lon="3.32848">
        <ele>24.4</ele>
        <time>2020-06-24T08:46:39Z</time>
      </trkpt>
      <trkpt lat="50.50803" lon="3.32852">
        <ele>24.4</ele>
        <time>2020-06-24T08:46:40Z</time>
      </trkpt>
      <trkpt lat="50.50797" lon="3.32855">
        <ele>24.4</ele>
        <time>2020-06-24T08:46:41Z</time>
      </trkpt>
      <trkpt lat="50.5079" lon="3.32858">
        <ele>24.4</ele>
        <time>2020-06-24T08:46:42Z</time>
      </trkpt>
      <trkpt lat="50.50784" lon="3.3286">
        <ele>24.4</ele>
        <time>2020-06-24T08:46:43Z</time>
      </trkpt>
      <trkpt lat="50.50778" lon="3.32863">
        <ele>24.4</ele>
        <time>2020-06-24T08:46:44Z</time>
      </trkpt>
      <trkpt lat="50.50773" lon="3.32866">
        <ele>24.4</ele>
        <time>2020-06-24T08:46:45Z</time>
      </trkpt>
      <trkpt lat="50.50767" lon="3.32866">
        <ele>24.4</ele>
        <time>2020-06-24T08:46:46Z</time>
      </trkpt>
      <trkpt lat="50.50761" lon="3.32868">
        <ele>24.4</ele>
        <time>2020-06-24T08:46:47Z</time>
      </trkpt>
      <trkpt lat="50.50755" lon="3.32871">
        <ele>24.4</ele>
        <time>2020-06-24T08:46:48Z</time>
      </trkpt>
      <trkpt lat="50.5075" lon="3.32874">
        <ele>24.4</ele>
        <time>2020-06-24T08:46:49Z</time>
      </trkpt>
      <trkpt lat="50.50744" lon="3.32876">
        <ele>24.5</ele>
        <time>2020-06-24T08:46:50Z</time>
      </trkpt>
      <trkpt lat="50.50739" lon="3.32879">
        <ele>24.5</ele>
        <time>2020-06-24T08:46:51Z</time>
      </trkpt>
      <trkpt lat="50.50734" lon="3.32881">
        <ele>24.6</ele>
        <time>2020-06-24T08:46:52Z</time>
      </trkpt>
      <trkpt lat="50.50729" lon="3.32885">
        <ele>24.6</ele>
        <time>2020-06-24T08:46:53Z</time>
      </trkpt>
      <trkpt lat="50.50724" lon="3.3289">
        <ele>24.6</ele>
        <time>2020-06-24T08:46:54Z</time>
      </trkpt>
      <trkpt lat="50.5072" lon="3.32896">
        <ele>24.6</ele>
        <time>2020-06-24T08:46:55Z</time>
      </trkpt>
      <trkpt lat="50.50717" lon="3.32904">
        <ele>24.7</ele>
        <time>2020-06-24T08:46:56Z</time>
      </trkpt>
      <trkpt lat="50.50715" lon="3.32912">
        <ele>24.8</ele>
        <time>2020-06-24T08:46:57Z</time>
      </trkpt>
      <trkpt lat="50.50712" lon="3.3292">
        <ele>24.8</ele>
        <time>2020-06-24T08:46:58Z</time>
      </trkpt>
      <trkpt lat="50.5071" lon="3.32928">
        <ele>24.9</ele>
        <time>2020-06-24T08:46:59Z</time>
      </trkpt>
      <trkpt lat="50.50707" lon="3.32935">
        <ele>24.9</ele>
        <time>2020-06-24T08:47:00Z</time>
      </trkpt>
      <trkpt lat="50.50704" lon="3.32944">
        <ele>25</ele>
        <time>2020-06-24T08:47:01Z</time>
      </trkpt>
      <trkpt lat="50.50701" lon="3.32952">
        <ele>25</ele>
        <time>2020-06-24T08:47:02Z</time>
      </trkpt>
      <trkpt lat="50.50698" lon="3.32959">
        <ele>25</ele>
        <time>2020-06-24T08:47:03Z</time>
      </trkpt>
      <trkpt lat="50.50695" lon="3.32969">
        <ele>25.1</ele>
        <time>2020-06-24T08:47:04Z</time>
      </trkpt>
      <trkpt lat="50.50693" lon="3.32978">
        <ele>25.1</ele>
        <time>2020-06-24T08:47:05Z</time>
      </trkpt>
      <trkpt lat="50.5069" lon="3.32986">
        <ele>25.2</ele>
        <time>2020-06-24T08:47:06Z</time>
      </trkpt>
      <trkpt lat="50.50687" lon="3.32994">
        <ele>25.3</ele>
        <time>2020-06-24T08:47:07Z</time>
      </trkpt>
      <trkpt lat="50.50685" lon="3.33">
        <ele>25.3</ele>
        <time>2020-06-24T08:47:08Z</time>
      </trkpt>
      <trkpt lat="50.50682" lon="3.33007">
        <ele>25.4</ele>
        <time>2020-06-24T08:47:09Z</time>
      </trkpt>
      <trkpt lat="50.50677" lon="3.33013">
        <ele>25.5</ele>
        <time>2020-06-24T08:47:10Z</time>
      </trkpt>
      <trkpt lat="50.50674" lon="3.3302">
        <ele>25.5</ele>
        <time>2020-06-24T08:47:11Z</time>
      </trkpt>
      <trkpt lat="50.50671" lon="3.33026">
        <ele>25.6</ele>
        <time>2020-06-24T08:47:12Z</time>
      </trkpt>
      <trkpt lat="50.50669" lon="3.3303">
        <ele>25.6</ele>
        <time>2020-06-24T08:47:13Z</time>
      </trkpt>
      <trkpt lat="50.50665" lon="3.33037">
        <ele>25.7</ele>
        <time>2020-06-24T08:47:14Z</time>
      </trkpt>
      <trkpt lat="50.50661" lon="3.33044">
        <ele>25.7</ele>
        <time>2020-06-24T08:47:15Z</time>
      </trkpt>
      <trkpt lat="50.50656" lon="3.3305">
        <ele>25.8</ele>
        <time>2020-06-24T08:47:16Z</time>
      </trkpt>
      <trkpt lat="50.50651" lon="3.33056">
        <ele>25.8</ele>
        <time>2020-06-24T08:47:17Z</time>
      </trkpt>
      <trkpt lat="50.50647" lon="3.33063">
        <ele>25.9</ele>
        <time>2020-06-24T08:47:18Z</time>
      </trkpt>
      <trkpt lat="50.50643" lon="3.33069">
        <ele>25.9</ele>
        <time>2020-06-24T08:47:19Z</time>
      </trkpt>
      <trkpt lat="50.5064" lon="3.33076">
        <ele>26</ele>
        <time>2020-06-24T08:47:20Z</time>
      </trkpt>
      <trkpt lat="50.50636" lon="3.33083">
        <ele>26.1</ele>
        <time>2020-06-24T08:47:21Z</time>
      </trkpt>
      <trkpt lat="50.50632" lon="3.33089">
        <ele>26.1</ele>
        <time>2020-06-24T08:47:22Z</time>
      </trkpt>
      <trkpt lat="50.50629" lon="3.33094">
        <ele>26.2</ele>
        <time>2020-06-24T08:47:23Z</time>
      </trkpt>
      <trkpt lat="50.50625" lon="3.33101">
        <ele>26.3</ele>
        <time>2020-06-24T08:47:24Z</time>
      </trkpt>
      <trkpt lat="50.50622" lon="3.33107">
        <ele>26.4</ele>
        <time>2020-06-24T08:47:25Z</time>
      </trkpt>
      <trkpt lat="50.50618" lon="3.33114">
        <ele>26.4</ele>
        <time>2020-06-24T08:47:26Z</time>
      </trkpt>
      <trkpt lat="50.50614" lon="3.33121">
        <ele>26.5</ele>
        <time>2020-06-24T08:47:27Z</time>
      </trkpt>
      <trkpt lat="50.5061" lon="3.33128">
        <ele>26.5</ele>
        <time>2020-06-24T08:47:28Z</time>
      </trkpt>
      <trkpt lat="50.50607" lon="3.33134">
        <ele>26.6</ele>
        <time>2020-06-24T08:47:29Z</time>
      </trkpt>
      <trkpt lat="50.50603" lon="3.33141">
        <ele>26.6</ele>
        <time>2020-06-24T08:47:30Z</time>
      </trkpt>
      <trkpt lat="50.506" lon="3.33148">
        <ele>26.7</ele>
        <time>2020-06-24T08:47:31Z</time>
      </trkpt>
      <trkpt lat="50.50597" lon="3.33152">
        <ele>26.7</ele>
        <time>2020-06-24T08:47:32Z</time>
      </trkpt>
      <trkpt lat="50.50594" lon="3.33158">
        <ele>26.7</ele>
        <time>2020-06-24T08:47:33Z</time>
      </trkpt>
      <trkpt lat="50.5059" lon="3.33165">
        <ele>26.8</ele>
        <time>2020-06-24T08:47:34Z</time>
      </trkpt>
      <trkpt lat="50.50587" lon="3.3317">
        <ele>26.8</ele>
        <time>2020-06-24T08:47:35Z</time>
      </trkpt>
      <trkpt lat="50.50584" lon="3.33176">
        <ele>26.9</ele>
        <time>2020-06-24T08:47:36Z</time>
      </trkpt>
      <trkpt lat="50.50579" lon="3.33182">
        <ele>26.9</ele>
        <time>2020-06-24T08:47:37Z</time>
      </trkpt>
      <trkpt lat="50.50575" lon="3.33188">
        <ele>27</ele>
        <time>2020-06-24T08:47:38Z</time>
      </trkpt>
      <trkpt lat="50.50571" lon="3.33195">
        <ele>27</ele>
        <time>2020-06-24T08:47:39Z</time>
      </trkpt>
      <trkpt lat="50.50568" lon="3.33202">
        <ele>27</ele>
        <time>2020-06-24T08:47:40Z</time>
      </trkpt>
      <trkpt lat="50.50564" lon="3.33209">
        <ele>27.1</ele>
        <time>2020-06-24T08:47:41Z</time>
      </trkpt>
      <trkpt lat="50.5056" lon="3.33216">
        <ele>27.1</ele>
        <time>2020-06-24T08:47:42Z</time>
      </trkpt>
      <trkpt lat="50.50556" lon="3.33223">
        <ele>27.1</ele>
        <time>2020-06-24T08:47:43Z</time>
      </trkpt>
      <trkpt lat="50.50553" lon="3.3323">
        <ele>27.2</ele>
        <time>2020-06-24T08:47:44Z</time>
      </trkpt>
      <trkpt lat="50.5055" lon="3.33236">
        <ele>27.2</ele>
        <time>2020-06-24T08:47:45Z</time>
      </trkpt>
      <trkpt lat="50.50546" lon="3.33242">
        <ele>27.3</ele>
        <time>2020-06-24T08:47:46Z</time>
      </trkpt>
      <trkpt lat="50.50542" lon="3.33248">
        <ele>27.3</ele>
        <time>2020-06-24T08:47:47Z</time>
      </trkpt>
      <trkpt lat="50.50537" lon="3.33256">
        <ele>27.3</ele>
        <time>2020-06-24T08:47:48Z</time>
      </trkpt>
      <trkpt lat="50.50534" lon="3.33262">
        <ele>27.3</ele>
        <time>2020-06-24T08:47:49Z</time>
      </trkpt>
      <trkpt lat="50.5053" lon="3.33268">
        <ele>27.3</ele>
        <time>2020-06-24T08:47:50Z</time>
      </trkpt>
      <trkpt lat="50.50527" lon="3.33276">
        <ele>27.3</ele>
        <time>2020-06-24T08:47:51Z</time>
      </trkpt>
      <trkpt lat="50.50523" lon="3.33284">
        <ele>27.2</ele>
        <time>2020-06-24T08:47:52Z</time>
      </trkpt>
      <trkpt lat="50.50519" lon="3.33292">
        <ele>27.2</ele>
        <time>2020-06-24T08:47:53Z</time>
      </trkpt>
      <trkpt lat="50.50515" lon="3.33299">
        <ele>27.2</ele>
        <time>2020-06-24T08:47:54Z</time>
      </trkpt>
      <trkpt lat="50.5051" lon="3.33307">
        <ele>27.1</ele>
        <time>2020-06-24T08:47:55Z</time>
      </trkpt>
      <trkpt lat="50.50505" lon="3.33314">
        <ele>27.1</ele>
        <time>2020-06-24T08:47:56Z</time>
      </trkpt>
      <trkpt lat="50.50501" lon="3.33322">
        <ele>27</ele>
        <time>2020-06-24T08:47:57Z</time>
      </trkpt>
      <trkpt lat="50.50497" lon="3.33328">
        <ele>27</ele>
        <time>2020-06-24T08:47:58Z</time>
      </trkpt>
      <trkpt lat="50.50493" lon="3.33335">
        <ele>27</ele>
        <time>2020-06-24T08:47:59Z</time>
      </trkpt>
      <trkpt lat="50.50489" lon="3.33342">
        <ele>27</ele>
        <time>2020-06-24T08:48:00Z</time>
      </trkpt>
      <trkpt lat="50.50485" lon="3.3335">
        <ele>26.9</ele>
        <time>2020-06-24T08:48:01Z</time>
      </trkpt>
      <trkpt lat="50.5048" lon="3.33357">
        <ele>26.9</ele>
        <time>2020-06-24T08:48:02Z</time>
      </trkpt>
      <trkpt lat="50.50476" lon="3.33364">
        <ele>26.9</ele>
        <time>2020-06-24T08:48:03Z</time>
      </trkpt>
      <trkpt lat="50.50471" lon="3.33371">
        <ele>26.8</ele>
        <time>2020-06-24T08:48:04Z</time>
      </trkpt>
      <trkpt lat="50.50467" lon="3.33379">
        <ele>26.8</ele>
        <time>2020-06-24T08:48:05Z</time>
      </trkpt>
      <trkpt lat="50.50462" lon="3.33386">
        <ele>26.7</ele>
        <time>2020-06-24T08:48:06Z</time>
      </trkpt>
      <trkpt lat="50.50458" lon="3.33395">
        <ele>26.6</ele>
        <time>2020-06-24T08:48:07Z</time>
      </trkpt>
      <trkpt lat="50.50453" lon="3.33402">
        <ele>26.5</ele>
        <time>2020-06-24T08:48:08Z</time>
      </trkpt>
      <trkpt lat="50.50448" lon="3.33409">
        <ele>26.5</ele>
        <time>2020-06-24T08:48:09Z</time>
      </trkpt>
      <trkpt lat="50.50443" lon="3.33417">
        <ele>26.4</ele>
        <time>2020-06-24T08:48:10Z</time>
      </trkpt>
      <trkpt lat="50.50438" lon="3.33424">
        <ele>26.3</ele>
        <time>2020-06-24T08:48:11Z</time>
      </trkpt>
      <trkpt lat="50.50433" lon="3.3343">
        <ele>26.3</ele>
        <time>2020-06-24T08:48:12Z</time>
      </trkpt>
      <trkpt lat="50.50427" lon="3.33438">
        <ele>26.3</ele>
        <time>2020-06-24T08:48:13Z</time>
      </trkpt>
      <trkpt lat="50.50422" lon="3.33445">
        <ele>26.3</ele>
        <time>2020-06-24T08:48:14Z</time>
      </trkpt>
      <trkpt lat="50.50418" lon="3.33452">
        <ele>26.3</ele>
        <time>2020-06-24T08:48:15Z</time>
      </trkpt>
      <trkpt lat="50.50413" lon="3.3346">
        <ele>26.4</ele>
        <time>2020-06-24T08:48:16Z</time>
      </trkpt>
      <trkpt lat="50.50408" lon="3.33468">
        <ele>26.5</ele>
        <time>2020-06-24T08:48:17Z</time>
      </trkpt>
      <trkpt lat="50.50403" lon="3.33475">
        <ele>26.5</ele>
        <time>2020-06-24T08:48:18Z</time>
      </trkpt>
      <trkpt lat="50.50398" lon="3.33483">
        <ele>26.4</ele>
        <time>2020-06-24T08:48:19Z</time>
      </trkpt>
      <trkpt lat="50.50393" lon="3.33491">
        <ele>26.3</ele>
        <time>2020-06-24T08:48:20Z</time>
      </trkpt>
      <trkpt lat="50.50388" lon="3.33498">
        <ele>26.3</ele>
        <time>2020-06-24T08:48:21Z</time>
      </trkpt>
      <trkpt lat="50.50383" lon="3.33505">
        <ele>26.2</ele>
        <time>2020-06-24T08:48:22Z</time>
      </trkpt>
      <trkpt lat="50.50378" lon="3.33512">
        <ele>26.2</ele>
        <time>2020-06-24T08:48:23Z</time>
      </trkpt>
      <trkpt lat="50.50372" lon="3.33519">
        <ele>26.2</ele>
        <time>2020-06-24T08:48:24Z</time>
      </trkpt>
      <trkpt lat="50.50366" lon="3.33525">
        <ele>26.1</ele>
        <time>2020-06-24T08:48:25Z</time>
      </trkpt>
      <trkpt lat="50.50361" lon="3.33533">
        <ele>26.1</ele>
        <time>2020-06-24T08:48:26Z</time>
      </trkpt>
      <trkpt lat="50.50356" lon="3.3354">
        <ele>26.1</ele>
        <time>2020-06-24T08:48:27Z</time>
      </trkpt>
      <trkpt lat="50.50351" lon="3.33547">
        <ele>26.1</ele>
        <time>2020-06-24T08:48:28Z</time>
      </trkpt>
      <trkpt lat="50.50347" lon="3.33554">
        <ele>26.1</ele>
        <time>2020-06-24T08:48:29Z</time>
      </trkpt>
      <trkpt lat="50.50341" lon="3.33561">
        <ele>26.1</ele>
        <time>2020-06-24T08:48:30Z</time>
      </trkpt>
      <trkpt lat="50.50336" lon="3.33567">
        <ele>26</ele>
        <time>2020-06-24T08:48:31Z</time>
      </trkpt>
      <trkpt lat="50.5033" lon="3.33574">
        <ele>26</ele>
        <time>2020-06-24T08:48:32Z</time>
      </trkpt>
      <trkpt lat="50.50325" lon="3.33581">
        <ele>25.9</ele>
        <time>2020-06-24T08:48:33Z</time>
      </trkpt>
      <trkpt lat="50.5032" lon="3.33587">
        <ele>25.9</ele>
        <time>2020-06-24T08:48:34Z</time>
      </trkpt>
      <trkpt lat="50.50315" lon="3.33594">
        <ele>25.8</ele>
        <time>2020-06-24T08:48:35Z</time>
      </trkpt>
      <trkpt lat="50.5031" lon="3.336">
        <ele>25.8</ele>
        <time>2020-06-24T08:48:36Z</time>
      </trkpt>
      <trkpt lat="50.50305" lon="3.33606">
        <ele>25.7</ele>
        <time>2020-06-24T08:48:37Z</time>
      </trkpt>
      <trkpt lat="50.503" lon="3.33611">
        <ele>25.7</ele>
        <time>2020-06-24T08:48:38Z</time>
      </trkpt>
      <trkpt lat="50.50295" lon="3.33617">
        <ele>25.7</ele>
        <time>2020-06-24T08:48:39Z</time>
      </trkpt>
      <trkpt lat="50.5029" lon="3.33623">
        <ele>25.6</ele>
        <time>2020-06-24T08:48:40Z</time>
      </trkpt>
      <trkpt lat="50.50285" lon="3.33628">
        <ele>25.6</ele>
        <time>2020-06-24T08:48:41Z</time>
      </trkpt>
      <trkpt lat="50.5028" lon="3.33634">
        <ele>25.7</ele>
        <time>2020-06-24T08:48:42Z</time>
      </trkpt>
      <trkpt lat="50.50276" lon="3.3364">
        <ele>25.7</ele>
        <time>2020-06-24T08:48:43Z</time>
      </trkpt>
      <trkpt lat="50.5027" lon="3.33646">
        <ele>25.8</ele>
        <time>2020-06-24T08:48:44Z</time>
      </trkpt>
      <trkpt lat="50.50266" lon="3.33652">
        <ele>25.8</ele>
        <time>2020-06-24T08:48:45Z</time>
      </trkpt>
      <trkpt lat="50.50261" lon="3.33658">
        <ele>25.8</ele>
        <time>2020-06-24T08:48:46Z</time>
      </trkpt>
      <trkpt lat="50.50256" lon="3.33664">
        <ele>25.9</ele>
        <time>2020-06-24T08:48:47Z</time>
      </trkpt>
      <trkpt lat="50.50251" lon="3.3367">
        <ele>25.9</ele>
        <time>2020-06-24T08:48:48Z</time>
      </trkpt>
      <trkpt lat="50.50247" lon="3.33675">
        <ele>25.9</ele>
        <time>2020-06-24T08:48:49Z</time>
      </trkpt>
      <trkpt lat="50.50242" lon="3.3368">
        <ele>25.9</ele>
        <time>2020-06-24T08:48:50Z</time>
      </trkpt>
      <trkpt lat="50.50237" lon="3.33685">
        <ele>25.9</ele>
        <time>2020-06-24T08:48:51Z</time>
      </trkpt>
      <trkpt lat="50.50231" lon="3.3369">
        <ele>25.9</ele>
        <time>2020-06-24T08:48:52Z</time>
      </trkpt>
      <trkpt lat="50.50226" lon="3.33696">
        <ele>25.9</ele>
        <time>2020-06-24T08:48:53Z</time>
      </trkpt>
      <trkpt lat="50.5022" lon="3.33703">
        <ele>25.9</ele>
        <time>2020-06-24T08:48:54Z</time>
      </trkpt>
      <trkpt lat="50.50214" lon="3.3371">
        <ele>26</ele>
        <time>2020-06-24T08:48:55Z</time>
      </trkpt>
      <trkpt lat="50.50209" lon="3.33716">
        <ele>26</ele>
        <time>2020-06-24T08:48:56Z</time>
      </trkpt>
      <trkpt lat="50.50204" lon="3.33722">
        <ele>26</ele>
        <time>2020-06-24T08:48:57Z</time>
      </trkpt>
      <trkpt lat="50.50198" lon="3.33728">
        <ele>26</ele>
        <time>2020-06-24T08:48:58Z</time>
      </trkpt>
      <trkpt lat="50.50193" lon="3.33734">
        <ele>25.9</ele>
        <time>2020-06-24T08:48:59Z</time>
      </trkpt>
      <trkpt lat="50.50188" lon="3.3374">
        <ele>25.9</ele>
        <time>2020-06-24T08:49:00Z</time>
      </trkpt>
      <trkpt lat="50.50183" lon="3.33746">
        <ele>25.9</ele>
        <time>2020-06-24T08:49:01Z</time>
      </trkpt>
      <trkpt lat="50.50177" lon="3.33752">
        <ele>25.9</ele>
        <time>2020-06-24T08:49:02Z</time>
      </trkpt>
      <trkpt lat="50.50172" lon="3.33758">
        <ele>25.9</ele>
        <time>2020-06-24T08:49:03Z</time>
      </trkpt>
      <trkpt lat="50.50166" lon="3.33764">
        <ele>25.9</ele>
        <time>2020-06-24T08:49:04Z</time>
      </trkpt>
      <trkpt lat="50.50161" lon="3.3377">
        <ele>26</ele>
        <time>2020-06-24T08:49:05Z</time>
      </trkpt>
      <trkpt lat="50.50156" lon="3.33776">
        <ele>26</ele>
        <time>2020-06-24T08:49:06Z</time>
      </trkpt>
      <trkpt lat="50.5015" lon="3.33782">
        <ele>26</ele>
        <time>2020-06-24T08:49:07Z</time>
      </trkpt>
      <trkpt lat="50.50145" lon="3.33789">
        <ele>26</ele>
        <time>2020-06-24T08:49:08Z</time>
      </trkpt>
      <trkpt lat="50.5014" lon="3.33794">
        <ele>26</ele>
        <time>2020-06-24T08:49:09Z</time>
      </trkpt>
      <trkpt lat="50.50134" lon="3.33801">
        <ele>26</ele>
        <time>2020-06-24T08:49:10Z</time>
      </trkpt>
      <trkpt lat="50.50128" lon="3.33807">
        <ele>26</ele>
        <time>2020-06-24T08:49:11Z</time>
      </trkpt>
      <trkpt lat="50.50123" lon="3.33813">
        <ele>25.9</ele>
        <time>2020-06-24T08:49:12Z</time>
      </trkpt>
      <trkpt lat="50.50118" lon="3.33819">
        <ele>25.9</ele>
        <time>2020-06-24T08:49:13Z</time>
      </trkpt>
      <trkpt lat="50.50112" lon="3.33826">
        <ele>25.8</ele>
        <time>2020-06-24T08:49:14Z</time>
      </trkpt>
      <trkpt lat="50.50107" lon="3.33832">
        <ele>25.7</ele>
        <time>2020-06-24T08:49:15Z</time>
      </trkpt>
      <trkpt lat="50.50102" lon="3.33839">
        <ele>25.7</ele>
        <time>2020-06-24T08:49:16Z</time>
      </trkpt>
      <trkpt lat="50.50096" lon="3.33845">
        <ele>25.6</ele>
        <time>2020-06-24T08:49:17Z</time>
      </trkpt>
      <trkpt lat="50.50091" lon="3.33852">
        <ele>25.6</ele>
        <time>2020-06-24T08:49:18Z</time>
      </trkpt>
      <trkpt lat="50.50085" lon="3.33858">
        <ele>25.6</ele>
        <time>2020-06-24T08:49:19Z</time>
      </trkpt>
      <trkpt lat="50.5008" lon="3.33865">
        <ele>25.6</ele>
        <time>2020-06-24T08:49:20Z</time>
      </trkpt>
      <trkpt lat="50.50075" lon="3.33871">
        <ele>25.6</ele>
        <time>2020-06-24T08:49:21Z</time>
      </trkpt>
      <trkpt lat="50.50069" lon="3.33878">
        <ele>25.6</ele>
        <time>2020-06-24T08:49:22Z</time>
      </trkpt>
      <trkpt lat="50.50064" lon="3.33884">
        <ele>25.6</ele>
        <time>2020-06-24T08:49:23Z</time>
      </trkpt>
      <trkpt lat="50.50059" lon="3.3389">
        <ele>25.5</ele>
        <time>2020-06-24T08:49:24Z</time>
      </trkpt>
      <trkpt lat="50.50054" lon="3.33896">
        <ele>25.5</ele>
        <time>2020-06-24T08:49:25Z</time>
      </trkpt>
      <trkpt lat="50.50048" lon="3.33902">
        <ele>25.5</ele>
        <time>2020-06-24T08:49:26Z</time>
      </trkpt>
      <trkpt lat="50.50043" lon="3.33908">
        <ele>25.5</ele>
        <time>2020-06-24T08:49:27Z</time>
      </trkpt>
      <trkpt lat="50.50038" lon="3.33913">
        <ele>25.5</ele>
        <time>2020-06-24T08:49:28Z</time>
      </trkpt>
      <trkpt lat="50.50032" lon="3.33919">
        <ele>25.6</ele>
        <time>2020-06-24T08:49:29Z</time>
      </trkpt>
      <trkpt lat="50.50028" lon="3.33925">
        <ele>25.8</ele>
        <time>2020-06-24T08:49:30Z</time>
      </trkpt>
      <trkpt lat="50.50022" lon="3.33931">
        <ele>25.8</ele>
        <time>2020-06-24T08:49:31Z</time>
      </trkpt>
      <trkpt lat="50.50017" lon="3.33936">
        <ele>25.8</ele>
        <time>2020-06-24T08:49:32Z</time>
      </trkpt>
      <trkpt lat="50.50012" lon="3.33942">
        <ele>25.8</ele>
        <time>2020-06-24T08:49:33Z</time>
      </trkpt>
      <trkpt lat="50.50007" lon="3.33948">
        <ele>25.8</ele>
        <time>2020-06-24T08:49:34Z</time>
      </trkpt>
      <trkpt lat="50.50001" lon="3.33953">
        <ele>25.7</ele>
        <time>2020-06-24T08:49:35Z</time>
      </trkpt>
      <trkpt lat="50.49996" lon="3.33959">
        <ele>25.7</ele>
        <time>2020-06-24T08:49:36Z</time>
      </trkpt>
      <trkpt lat="50.49991" lon="3.33965">
        <ele>25.7</ele>
        <time>2020-06-24T08:49:37Z</time>
      </trkpt>
      <trkpt lat="50.49986" lon="3.33971">
        <ele>25.7</ele>
        <time>2020-06-24T08:49:38Z</time>
      </trkpt>
      <trkpt lat="50.49981" lon="3.33977">
        <ele>25.6</ele>
        <time>2020-06-24T08:49:39Z</time>
      </trkpt>
      <trkpt lat="50.49976" lon="3.33983">
        <ele>25.6</ele>
        <time>2020-06-24T08:49:40Z</time>
      </trkpt>
      <trkpt lat="50.49971" lon="3.3399">
        <ele>25.6</ele>
        <time>2020-06-24T08:49:41Z</time>
      </trkpt>
      <trkpt lat="50.49966" lon="3.33996">
        <ele>25.6</ele>
        <time>2020-06-24T08:49:42Z</time>
      </trkpt>
      <trkpt lat="50.49961" lon="3.34002">
        <ele>25.6</ele>
        <time>2020-06-24T08:49:43Z</time>
      </trkpt>
      <trkpt lat="50.49956" lon="3.34008">
        <ele>25.5</ele>
        <time>2020-06-24T08:49:44Z</time>
      </trkpt>
      <trkpt lat="50.49951" lon="3.34013">
        <ele>25.5</ele>
        <time>2020-06-24T08:49:45Z</time>
      </trkpt>
      <trkpt lat="50.49945" lon="3.34019">
        <ele>25.5</ele>
        <time>2020-06-24T08:49:46Z</time>
      </trkpt>
      <trkpt lat="50.4994" lon="3.34025">
        <ele>25.5</ele>
        <time>2020-06-24T08:49:47Z</time>
      </trkpt>
      <trkpt lat="50.49935" lon="3.34031">
        <ele>25.4</ele>
        <time>2020-06-24T08:49:48Z</time>
      </trkpt>
      <trkpt lat="50.4993" lon="3.34036">
        <ele>25.4</ele>
        <time>2020-06-24T08:49:49Z</time>
      </trkpt>
      <trkpt lat="50.49925" lon="3.34042">
        <ele>25.3</ele>
        <time>2020-06-24T08:49:50Z</time>
      </trkpt>
      <trkpt lat="50.4992" lon="3.34048">
        <ele>25.2</ele>
        <time>2020-06-24T08:49:51Z</time>
      </trkpt>
      <trkpt lat="50.49915" lon="3.34054">
        <ele>25.2</ele>
        <time>2020-06-24T08:49:52Z</time>
      </trkpt>
      <trkpt lat="50.4991" lon="3.34059">
        <ele>25.2</ele>
        <time>2020-06-24T08:49:53Z</time>
      </trkpt>
      <trkpt lat="50.49905" lon="3.34065">
        <ele>25.2</ele>
        <time>2020-06-24T08:49:54Z</time>
      </trkpt>
      <trkpt lat="50.49899" lon="3.34071">
        <ele>25.2</ele>
        <time>2020-06-24T08:49:55Z</time>
      </trkpt>
      <trkpt lat="50.49894" lon="3.34077">
        <ele>25.2</ele>
        <time>2020-06-24T08:49:56Z</time>
      </trkpt>
      <trkpt lat="50.49889" lon="3.34083">
        <ele>25.2</ele>
        <time>2020-06-24T08:49:57Z</time>
      </trkpt>
      <trkpt lat="50.49884" lon="3.34088">
        <ele>25.2</ele>
        <time>2020-06-24T08:49:58Z</time>
      </trkpt>
      <trkpt lat="50.49878" lon="3.34094">
        <ele>25.2</ele>
        <time>2020-06-24T08:49:59Z</time>
      </trkpt>
      <trkpt lat="50.49873" lon="3.341">
        <ele>25.2</ele>
        <time>2020-06-24T08:50:00Z</time>
      </trkpt>
      <trkpt lat="50.49868" lon="3.34106">
        <ele>25.2</ele>
        <time>2020-06-24T08:50:01Z</time>
      </trkpt>
      <trkpt lat="50.49863" lon="3.34112">
        <ele>25.3</ele>
        <time>2020-06-24T08:50:02Z</time>
      </trkpt>
      <trkpt lat="50.49859" lon="3.34118">
        <ele>25.4</ele>
        <time>2020-06-24T08:50:03Z</time>
      </trkpt>
      <trkpt lat="50.49854" lon="3.34124">
        <ele>25.5</ele>
        <time>2020-06-24T08:50:04Z</time>
      </trkpt>
      <trkpt lat="50.49849" lon="3.3413">
        <ele>25.6</ele>
        <time>2020-06-24T08:50:05Z</time>
      </trkpt>
      <trkpt lat="50.49844" lon="3.34136">
        <ele>25.5</ele>
        <time>2020-06-24T08:50:06Z</time>
      </trkpt>
      <trkpt lat="50.49839" lon="3.34141">
        <ele>25.5</ele>
        <time>2020-06-24T08:50:07Z</time>
      </trkpt>
      <trkpt lat="50.49834" lon="3.34147">
        <ele>25.5</ele>
        <time>2020-06-24T08:50:08Z</time>
      </trkpt>
      <trkpt lat="50.49829" lon="3.34153">
        <ele>25.5</ele>
        <time>2020-06-24T08:50:09Z</time>
      </trkpt>
      <trkpt lat="50.49824" lon="3.34159">
        <ele>25.5</ele>
        <time>2020-06-24T08:50:10Z</time>
      </trkpt>
      <trkpt lat="50.49817" lon="3.34166">
        <ele>25.5</ele>
        <time>2020-06-24T08:50:11Z</time>
      </trkpt>
      <trkpt lat="50.49813" lon="3.34171">
        <ele>25.6</ele>
        <time>2020-06-24T08:50:12Z</time>
      </trkpt>
      <trkpt lat="50.49808" lon="3.34177">
        <ele>25.6</ele>
        <time>2020-06-24T08:50:13Z</time>
      </trkpt>
      <trkpt lat="50.49803" lon="3.34182">
        <ele>25.6</ele>
        <time>2020-06-24T08:50:14Z</time>
      </trkpt>
      <trkpt lat="50.49798" lon="3.34188">
        <ele>25.6</ele>
        <time>2020-06-24T08:50:15Z</time>
      </trkpt>
      <trkpt lat="50.49794" lon="3.34193">
        <ele>25.6</ele>
        <time>2020-06-24T08:50:16Z</time>
      </trkpt>
      <trkpt lat="50.49789" lon="3.34198">
        <ele>25.6</ele>
        <time>2020-06-24T08:50:17Z</time>
      </trkpt>
      <trkpt lat="50.49785" lon="3.34204">
        <ele>25.7</ele>
        <time>2020-06-24T08:50:18Z</time>
      </trkpt>
      <trkpt lat="50.49779" lon="3.3421">
        <ele>25.7</ele>
        <time>2020-06-24T08:50:19Z</time>
      </trkpt>
      <trkpt lat="50.49774" lon="3.34216">
        <ele>25.7</ele>
        <time>2020-06-24T08:50:20Z</time>
      </trkpt>
      <trkpt lat="50.49768" lon="3.34222">
        <ele>25.7</ele>
        <time>2020-06-24T08:50:21Z</time>
      </trkpt>
      <trkpt lat="50.49763" lon="3.34227">
        <ele>25.7</ele>
        <time>2020-06-24T08:50:22Z</time>
      </trkpt>
      <trkpt lat="50.49758" lon="3.34233">
        <ele>25.8</ele>
        <time>2020-06-24T08:50:23Z</time>
      </trkpt>
      <trkpt lat="50.49752" lon="3.34239">
        <ele>25.8</ele>
        <time>2020-06-24T08:50:24Z</time>
      </trkpt>
      <trkpt lat="50.49747" lon="3.34245">
        <ele>25.8</ele>
        <time>2020-06-24T08:50:25Z</time>
      </trkpt>
      <trkpt lat="50.49742" lon="3.34251">
        <ele>25.8</ele>
        <time>2020-06-24T08:50:26Z</time>
      </trkpt>
      <trkpt lat="50.49737" lon="3.34258">
        <ele>25.9</ele>
        <time>2020-06-24T08:50:27Z</time>
      </trkpt>
      <trkpt lat="50.49732" lon="3.34264">
        <ele>25.9</ele>
        <time>2020-06-24T08:50:28Z</time>
      </trkpt>
      <trkpt lat="50.49727" lon="3.3427">
        <ele>25.9</ele>
        <time>2020-06-24T08:50:29Z</time>
      </trkpt>
      <trkpt lat="50.49723" lon="3.34276">
        <ele>25.9</ele>
        <time>2020-06-24T08:50:30Z</time>
      </trkpt>
      <trkpt lat="50.49718" lon="3.34282">
        <ele>26</ele>
        <time>2020-06-24T08:50:31Z</time>
      </trkpt>
      <trkpt lat="50.49712" lon="3.34288">
        <ele>26.1</ele>
        <time>2020-06-24T08:50:32Z</time>
      </trkpt>
      <trkpt lat="50.49707" lon="3.34295">
        <ele>26.2</ele>
        <time>2020-06-24T08:50:33Z</time>
      </trkpt>
      <trkpt lat="50.49702" lon="3.34301">
        <ele>26.2</ele>
        <time>2020-06-24T08:50:34Z</time>
      </trkpt>
      <trkpt lat="50.49697" lon="3.34308">
        <ele>26.2</ele>
        <time>2020-06-24T08:50:35Z</time>
      </trkpt>
      <trkpt lat="50.49693" lon="3.34314">
        <ele>26.2</ele>
        <time>2020-06-24T08:50:36Z</time>
      </trkpt>
      <trkpt lat="50.49688" lon="3.3432">
        <ele>26.2</ele>
        <time>2020-06-24T08:50:37Z</time>
      </trkpt>
      <trkpt lat="50.49684" lon="3.34326">
        <ele>26.2</ele>
        <time>2020-06-24T08:50:38Z</time>
      </trkpt>
      <trkpt lat="50.49679" lon="3.34332">
        <ele>26.2</ele>
        <time>2020-06-24T08:50:39Z</time>
      </trkpt>
      <trkpt lat="50.49674" lon="3.34339">
        <ele>26.2</ele>
        <time>2020-06-24T08:50:40Z</time>
      </trkpt>
      <trkpt lat="50.49668" lon="3.34345">
        <ele>26.3</ele>
        <time>2020-06-24T08:50:41Z</time>
      </trkpt>
      <trkpt lat="50.49664" lon="3.34349">
        <ele>26.3</ele>
        <time>2020-06-24T08:50:42Z</time>
      </trkpt>
      <trkpt lat="50.49659" lon="3.34355">
        <ele>26.4</ele>
        <time>2020-06-24T08:50:43Z</time>
      </trkpt>
      <trkpt lat="50.49654" lon="3.34361">
        <ele>26.5</ele>
        <time>2020-06-24T08:50:44Z</time>
      </trkpt>
      <trkpt lat="50.49649" lon="3.34368">
        <ele>26.5</ele>
        <time>2020-06-24T08:50:45Z</time>
      </trkpt>
      <trkpt lat="50.49644" lon="3.34374">
        <ele>26.5</ele>
        <time>2020-06-24T08:50:46Z</time>
      </trkpt>
      <trkpt lat="50.4964" lon="3.3438">
        <ele>26.6</ele>
        <time>2020-06-24T08:50:47Z</time>
      </trkpt>
      <trkpt lat="50.49635" lon="3.34386">
        <ele>26.6</ele>
        <time>2020-06-24T08:50:48Z</time>
      </trkpt>
      <trkpt lat="50.49629" lon="3.34393">
        <ele>26.7</ele>
        <time>2020-06-24T08:50:49Z</time>
      </trkpt>
      <trkpt lat="50.49623" lon="3.34399">
        <ele>26.7</ele>
        <time>2020-06-24T08:50:50Z</time>
      </trkpt>
      <trkpt lat="50.49618" lon="3.34406">
        <ele>26.8</ele>
        <time>2020-06-24T08:50:51Z</time>
      </trkpt>
      <trkpt lat="50.49613" lon="3.3441">
        <ele>26.8</ele>
        <time>2020-06-24T08:50:52Z</time>
      </trkpt>
      <trkpt lat="50.49606" lon="3.34417">
        <ele>26.8</ele>
        <time>2020-06-24T08:50:53Z</time>
      </trkpt>
      <trkpt lat="50.49601" lon="3.34421">
        <ele>26.8</ele>
        <time>2020-06-24T08:50:54Z</time>
      </trkpt>
      <trkpt lat="50.49595" lon="3.34426">
        <ele>26.8</ele>
        <time>2020-06-24T08:50:55Z</time>
      </trkpt>
      <trkpt lat="50.4959" lon="3.34431">
        <ele>26.8</ele>
        <time>2020-06-24T08:50:56Z</time>
      </trkpt>
      <trkpt lat="50.49585" lon="3.34435">
        <ele>26.8</ele>
        <time>2020-06-24T08:50:57Z</time>
      </trkpt>
      <trkpt lat="50.49579" lon="3.3444">
        <ele>26.9</ele>
        <time>2020-06-24T08:50:58Z</time>
      </trkpt>
      <trkpt lat="50.49574" lon="3.34445">
        <ele>26.9</ele>
        <time>2020-06-24T08:50:59Z</time>
      </trkpt>
      <trkpt lat="50.49571" lon="3.34448">
        <ele>26.9</ele>
        <time>2020-06-24T08:51:00Z</time>
      </trkpt>
      <trkpt lat="50.49565" lon="3.34453">
        <ele>27</ele>
        <time>2020-06-24T08:51:01Z</time>
      </trkpt>
      <trkpt lat="50.49559" lon="3.34456">
        <ele>27</ele>
        <time>2020-06-24T08:51:02Z</time>
      </trkpt>
      <trkpt lat="50.49553" lon="3.34461">
        <ele>27</ele>
        <time>2020-06-24T08:51:03Z</time>
      </trkpt>
      <trkpt lat="50.49547" lon="3.34467">
        <ele>27</ele>
        <time>2020-06-24T08:51:04Z</time>
      </trkpt>
      <trkpt lat="50.49541" lon="3.34472">
        <ele>27.1</ele>
        <time>2020-06-24T08:51:05Z</time>
      </trkpt>
      <trkpt lat="50.49537" lon="3.34477">
        <ele>27.1</ele>
        <time>2020-06-24T08:51:06Z</time>
      </trkpt>
      <trkpt lat="50.4953" lon="3.34483">
        <ele>27.1</ele>
        <time>2020-06-24T08:51:07Z</time>
      </trkpt>
      <trkpt lat="50.49524" lon="3.34489">
        <ele>27.1</ele>
        <time>2020-06-24T08:51:08Z</time>
      </trkpt>
      <trkpt lat="50.49519" lon="3.34494">
        <ele>27.1</ele>
        <time>2020-06-24T08:51:09Z</time>
      </trkpt>
      <trkpt lat="50.49514" lon="3.34498">
        <ele>27.1</ele>
        <time>2020-06-24T08:51:10Z</time>
      </trkpt>
      <trkpt lat="50.49509" lon="3.34502">
        <ele>27.1</ele>
        <time>2020-06-24T08:51:11Z</time>
      </trkpt>
      <trkpt lat="50.49504" lon="3.34508">
        <ele>27.2</ele>
        <time>2020-06-24T08:51:12Z</time>
      </trkpt>
      <trkpt lat="50.49498" lon="3.34512">
        <ele>27.2</ele>
        <time>2020-06-24T08:51:13Z</time>
      </trkpt>
      <trkpt lat="50.49493" lon="3.34516">
        <ele>27.3</ele>
        <time>2020-06-24T08:51:14Z</time>
      </trkpt>
      <trkpt lat="50.49487" lon="3.34521">
        <ele>27.3</ele>
        <time>2020-06-24T08:51:15Z</time>
      </trkpt>
      <trkpt lat="50.49482" lon="3.34526">
        <ele>27.3</ele>
        <time>2020-06-24T08:51:16Z</time>
      </trkpt>
      <trkpt lat="50.49476" lon="3.34531">
        <ele>27.4</ele>
        <time>2020-06-24T08:51:17Z</time>
      </trkpt>
      <trkpt lat="50.49471" lon="3.34537">
        <ele>27.4</ele>
        <time>2020-06-24T08:51:18Z</time>
      </trkpt>
      <trkpt lat="50.49467" lon="3.3454">
        <ele>27.4</ele>
        <time>2020-06-24T08:51:19Z</time>
      </trkpt>
      <trkpt lat="50.49463" lon="3.34543">
        <ele>27.5</ele>
        <time>2020-06-24T08:51:20Z</time>
      </trkpt>
      <trkpt lat="50.49457" lon="3.34547">
        <ele>27.5</ele>
        <time>2020-06-24T08:51:21Z</time>
      </trkpt>
      <trkpt lat="50.49451" lon="3.34551">
        <ele>27.5</ele>
        <time>2020-06-24T08:51:22Z</time>
      </trkpt>
      <trkpt lat="50.49445" lon="3.34555">
        <ele>27.6</ele>
        <time>2020-06-24T08:51:23Z</time>
      </trkpt>
      <trkpt lat="50.49438" lon="3.34558">
        <ele>27.5</ele>
        <time>2020-06-24T08:51:24Z</time>
      </trkpt>
      <trkpt lat="50.49431" lon="3.34561">
        <ele>27.5</ele>
        <time>2020-06-24T08:51:25Z</time>
      </trkpt>
      <trkpt lat="50.49425" lon="3.34558">
        <ele>27.5</ele>
        <time>2020-06-24T08:51:26Z</time>
      </trkpt>
      <trkpt lat="50.4942" lon="3.34552">
        <ele>27.5</ele>
        <time>2020-06-24T08:51:27Z</time>
      </trkpt>
      <trkpt lat="50.49415" lon="3.34544">
        <ele>27.4</ele>
        <time>2020-06-24T08:51:28Z</time>
      </trkpt>
      <trkpt lat="50.49412" lon="3.34537">
        <ele>27.4</ele>
        <time>2020-06-24T08:51:29Z</time>
      </trkpt>
      <trkpt lat="50.49408" lon="3.34529">
        <ele>27.4</ele>
        <time>2020-06-24T08:51:30Z</time>
      </trkpt>
      <trkpt lat="50.49404" lon="3.34521">
        <ele>27.4</ele>
        <time>2020-06-24T08:51:31Z</time>
      </trkpt>
      <trkpt lat="50.494" lon="3.34515">
        <ele>27.4</ele>
        <time>2020-06-24T08:51:32Z</time>
      </trkpt>
      <trkpt lat="50.49395" lon="3.3451">
        <ele>27.4</ele>
        <time>2020-06-24T08:51:33Z</time>
      </trkpt>
      <trkpt lat="50.4939" lon="3.34507">
        <ele>27.4</ele>
        <time>2020-06-24T08:51:34Z</time>
      </trkpt>
      <trkpt lat="50.49384" lon="3.34505">
        <ele>27.3</ele>
        <time>2020-06-24T08:51:35Z</time>
      </trkpt>
      <trkpt lat="50.49377" lon="3.34503">
        <ele>27.2</ele>
        <time>2020-06-24T08:51:36Z</time>
      </trkpt>
      <trkpt lat="50.49371" lon="3.34505">
        <ele>27.2</ele>
        <time>2020-06-24T08:51:37Z</time>
      </trkpt>
      <trkpt lat="50.49365" lon="3.34508">
        <ele>27.1</ele>
        <time>2020-06-24T08:51:38Z</time>
      </trkpt>
      <trkpt lat="50.49359" lon="3.34512">
        <ele>27.1</ele>
        <time>2020-06-24T08:51:39Z</time>
      </trkpt>
      <trkpt lat="50.49353" lon="3.34516">
        <ele>27.1</ele>
        <time>2020-06-24T08:51:40Z</time>
      </trkpt>
      <trkpt lat="50.49347" lon="3.3452">
        <ele>27.1</ele>
        <time>2020-06-24T08:51:41Z</time>
      </trkpt>
      <trkpt lat="50.49342" lon="3.34523">
        <ele>27.1</ele>
        <time>2020-06-24T08:51:42Z</time>
      </trkpt>
      <trkpt lat="50.49336" lon="3.34528">
        <ele>27</ele>
        <time>2020-06-24T08:51:43Z</time>
      </trkpt>
      <trkpt lat="50.49331" lon="3.34531">
        <ele>27</ele>
        <time>2020-06-24T08:51:44Z</time>
      </trkpt>
      <trkpt lat="50.49325" lon="3.34534">
        <ele>27</ele>
        <time>2020-06-24T08:51:45Z</time>
      </trkpt>
      <trkpt lat="50.49319" lon="3.34537">
        <ele>26.9</ele>
        <time>2020-06-24T08:51:46Z</time>
      </trkpt>
      <trkpt lat="50.49313" lon="3.34541">
        <ele>26.8</ele>
        <time>2020-06-24T08:51:47Z</time>
      </trkpt>
      <trkpt lat="50.49307" lon="3.34544">
        <ele>26.7</ele>
        <time>2020-06-24T08:51:48Z</time>
      </trkpt>
      <trkpt lat="50.49302" lon="3.34547">
        <ele>26.7</ele>
        <time>2020-06-24T08:51:49Z</time>
      </trkpt>
      <trkpt lat="50.49296" lon="3.3455">
        <ele>26.6</ele>
        <time>2020-06-24T08:51:50Z</time>
      </trkpt>
      <trkpt lat="50.49291" lon="3.34552">
        <ele>26.6</ele>
        <time>2020-06-24T08:51:51Z</time>
      </trkpt>
      <trkpt lat="50.49282" lon="3.34554">
        <ele>26.6</ele>
        <time>2020-06-24T08:51:52Z</time>
      </trkpt>
      <trkpt lat="50.49277" lon="3.34556">
        <ele>26.6</ele>
        <time>2020-06-24T08:51:53Z</time>
      </trkpt>
      <trkpt lat="50.4927" lon="3.34556">
        <ele>26.6</ele>
        <time>2020-06-24T08:51:54Z</time>
      </trkpt>
      <trkpt lat="50.49264" lon="3.34556">
        <ele>26.7</ele>
        <time>2020-06-24T08:51:55Z</time>
      </trkpt>
      <trkpt lat="50.49258" lon="3.34556">
        <ele>26.7</ele>
        <time>2020-06-24T08:51:56Z</time>
      </trkpt>
      <trkpt lat="50.49253" lon="3.34556">
        <ele>26.7</ele>
        <time>2020-06-24T08:51:57Z</time>
      </trkpt>
      <trkpt lat="50.49248" lon="3.34555">
        <ele>26.7</ele>
        <time>2020-06-24T08:51:58Z</time>
      </trkpt>
      <trkpt lat="50.49243" lon="3.34555">
        <ele>26.7</ele>
        <time>2020-06-24T08:51:59Z</time>
      </trkpt>
      <trkpt lat="50.49237" lon="3.34554">
        <ele>26.7</ele>
        <time>2020-06-24T08:52:00Z</time>
      </trkpt>
      <trkpt lat="50.49231" lon="3.34553">
        <ele>26.7</ele>
        <time>2020-06-24T08:52:01Z</time>
      </trkpt>
      <trkpt lat="50.49226" lon="3.34552">
        <ele>26.7</ele>
        <time>2020-06-24T08:52:02Z</time>
      </trkpt>
      <trkpt lat="50.49219" lon="3.34551">
        <ele>26.8</ele>
        <time>2020-06-24T08:52:03Z</time>
      </trkpt>
      <trkpt lat="50.49213" lon="3.34551">
        <ele>26.8</ele>
        <time>2020-06-24T08:52:04Z</time>
      </trkpt>
      <trkpt lat="50.49207" lon="3.3455">
        <ele>26.8</ele>
        <time>2020-06-24T08:52:05Z</time>
      </trkpt>
      <trkpt lat="50.492" lon="3.3455">
        <ele>26.9</ele>
        <time>2020-06-24T08:52:06Z</time>
      </trkpt>
      <trkpt lat="50.49194" lon="3.34549">
        <ele>26.9</ele>
        <time>2020-06-24T08:52:07Z</time>
      </trkpt>
      <trkpt lat="50.49189" lon="3.34547">
        <ele>27</ele>
        <time>2020-06-24T08:52:08Z</time>
      </trkpt>
      <trkpt lat="50.49184" lon="3.34546">
        <ele>27</ele>
        <time>2020-06-24T08:52:09Z</time>
      </trkpt>
      <trkpt lat="50.49178" lon="3.34545">
        <ele>27.1</ele>
        <time>2020-06-24T08:52:10Z</time>
      </trkpt>
      <trkpt lat="50.49173" lon="3.34544">
        <ele>27.1</ele>
        <time>2020-06-24T08:52:11Z</time>
      </trkpt>
      <trkpt lat="50.49166" lon="3.34544">
        <ele>27.2</ele>
        <time>2020-06-24T08:52:12Z</time>
      </trkpt>
      <trkpt lat="50.49161" lon="3.34543">
        <ele>27.3</ele>
        <time>2020-06-24T08:52:13Z</time>
      </trkpt>
      <trkpt lat="50.49156" lon="3.34541">
        <ele>27.3</ele>
        <time>2020-06-24T08:52:14Z</time>
      </trkpt>
      <trkpt lat="50.4915" lon="3.3454">
        <ele>27.4</ele>
        <time>2020-06-24T08:52:15Z</time>
      </trkpt>
      <trkpt lat="50.49144" lon="3.3454">
        <ele>27.4</ele>
        <time>2020-06-24T08:52:16Z</time>
      </trkpt>
      <trkpt lat="50.49138" lon="3.34538">
        <ele>27.4</ele>
        <time>2020-06-24T08:52:17Z</time>
      </trkpt>
      <trkpt lat="50.49132" lon="3.34538">
        <ele>27.4</ele>
        <time>2020-06-24T08:52:18Z</time>
      </trkpt>
      <trkpt lat="50.49126" lon="3.34539">
        <ele>27.4</ele>
        <time>2020-06-24T08:52:19Z</time>
      </trkpt>
      <trkpt lat="50.4912" lon="3.3454">
        <ele>27.3</ele>
        <time>2020-06-24T08:52:20Z</time>
      </trkpt>
      <trkpt lat="50.49114" lon="3.34542">
        <ele>27.3</ele>
        <time>2020-06-24T08:52:21Z</time>
      </trkpt>
      <trkpt lat="50.4911" lon="3.34543">
        <ele>27.3</ele>
        <time>2020-06-24T08:52:22Z</time>
      </trkpt>
      <trkpt lat="50.49105" lon="3.34545">
        <ele>27.3</ele>
        <time>2020-06-24T08:52:23Z</time>
      </trkpt>
      <trkpt lat="50.491" lon="3.3455">
        <ele>27.3</ele>
        <time>2020-06-24T08:52:24Z</time>
      </trkpt>
      <trkpt lat="50.49094" lon="3.34553">
        <ele>27.3</ele>
        <time>2020-06-24T08:52:25Z</time>
      </trkpt>
      <trkpt lat="50.49089" lon="3.34556">
        <ele>27.3</ele>
        <time>2020-06-24T08:52:26Z</time>
      </trkpt>
      <trkpt lat="50.49083" lon="3.3456">
        <ele>27.3</ele>
        <time>2020-06-24T08:52:27Z</time>
      </trkpt>
      <trkpt lat="50.49077" lon="3.34562">
        <ele>27.4</ele>
        <time>2020-06-24T08:52:28Z</time>
      </trkpt>
      <trkpt lat="50.4907" lon="3.34565">
        <ele>27.4</ele>
        <time>2020-06-24T08:52:29Z</time>
      </trkpt>
      <trkpt lat="50.49064" lon="3.34568">
        <ele>27.4</ele>
        <time>2020-06-24T08:52:30Z</time>
      </trkpt>
      <trkpt lat="50.49058" lon="3.3457">
        <ele>27.5</ele>
        <time>2020-06-24T08:52:31Z</time>
      </trkpt>
      <trkpt lat="50.49053" lon="3.34572">
        <ele>27.5</ele>
        <time>2020-06-24T08:52:32Z</time>
      </trkpt>
      <trkpt lat="50.49048" lon="3.34575">
        <ele>27.6</ele>
        <time>2020-06-24T08:52:33Z</time>
      </trkpt>
      <trkpt lat="50.49043" lon="3.34577">
        <ele>27.6</ele>
        <time>2020-06-24T08:52:34Z</time>
      </trkpt>
      <trkpt lat="50.49038" lon="3.34579">
        <ele>27.7</ele>
        <time>2020-06-24T08:52:35Z</time>
      </trkpt>
      <trkpt lat="50.49034" lon="3.34581">
        <ele>27.7</ele>
        <time>2020-06-24T08:52:36Z</time>
      </trkpt>
      <trkpt lat="50.49027" lon="3.34585">
        <ele>27.8</ele>
        <time>2020-06-24T08:52:37Z</time>
      </trkpt>
      <trkpt lat="50.49021" lon="3.34589">
        <ele>27.8</ele>
        <time>2020-06-24T08:52:38Z</time>
      </trkpt>
      <trkpt lat="50.49015" lon="3.34594">
        <ele>27.9</ele>
        <time>2020-06-24T08:52:39Z</time>
      </trkpt>
      <trkpt lat="50.49011" lon="3.34599">
        <ele>27.9</ele>
        <time>2020-06-24T08:52:40Z</time>
      </trkpt>
      <trkpt lat="50.49006" lon="3.34603">
        <ele>28</ele>
        <time>2020-06-24T08:52:41Z</time>
      </trkpt>
      <trkpt lat="50.49001" lon="3.34607">
        <ele>28</ele>
        <time>2020-06-24T08:52:42Z</time>
      </trkpt>
      <trkpt lat="50.48995" lon="3.34611">
        <ele>28.1</ele>
        <time>2020-06-24T08:52:43Z</time>
      </trkpt>
      <trkpt lat="50.48989" lon="3.34614">
        <ele>28.1</ele>
        <time>2020-06-24T08:52:44Z</time>
      </trkpt>
      <trkpt lat="50.48983" lon="3.34618">
        <ele>28.1</ele>
        <time>2020-06-24T08:52:45Z</time>
      </trkpt>
      <trkpt lat="50.48978" lon="3.34621">
        <ele>28.2</ele>
        <time>2020-06-24T08:52:46Z</time>
      </trkpt>
      <trkpt lat="50.48974" lon="3.34625">
        <ele>28.2</ele>
        <time>2020-06-24T08:52:47Z</time>
      </trkpt>
      <trkpt lat="50.48968" lon="3.34629">
        <ele>28.2</ele>
        <time>2020-06-24T08:52:48Z</time>
      </trkpt>
      <trkpt lat="50.48964" lon="3.34631">
        <ele>28.2</ele>
        <time>2020-06-24T08:52:49Z</time>
      </trkpt>
      <trkpt lat="50.48958" lon="3.34634">
        <ele>28.3</ele>
        <time>2020-06-24T08:52:50Z</time>
      </trkpt>
      <trkpt lat="50.48953" lon="3.34636">
        <ele>28.3</ele>
        <time>2020-06-24T08:52:51Z</time>
      </trkpt>
      <trkpt lat="50.48949" lon="3.34638">
        <ele>28.3</ele>
        <time>2020-06-24T08:52:52Z</time>
      </trkpt>
      <trkpt lat="50.48945" lon="3.3464">
        <ele>28.4</ele>
        <time>2020-06-24T08:52:53Z</time>
      </trkpt>
      <trkpt lat="50.48941" lon="3.34644">
        <ele>28.4</ele>
        <time>2020-06-24T08:52:54Z</time>
      </trkpt>
      <trkpt lat="50.48938" lon="3.34648">
        <ele>28.4</ele>
        <time>2020-06-24T08:52:55Z</time>
      </trkpt>
      <trkpt lat="50.48934" lon="3.34652">
        <ele>28.4</ele>
        <time>2020-06-24T08:52:56Z</time>
      </trkpt>
      <trkpt lat="50.48931" lon="3.34656">
        <ele>28.3</ele>
        <time>2020-06-24T08:52:57Z</time>
      </trkpt>
      <trkpt lat="50.48927" lon="3.34661">
        <ele>28.3</ele>
        <time>2020-06-24T08:52:58Z</time>
      </trkpt>
      <trkpt lat="50.48924" lon="3.34669">
        <ele>28.3</ele>
        <time>2020-06-24T08:52:59Z</time>
      </trkpt>
      <trkpt lat="50.48922" lon="3.34677">
        <ele>28.2</ele>
        <time>2020-06-24T08:53:00Z</time>
      </trkpt>
      <trkpt lat="50.4892" lon="3.34684">
        <ele>28.2</ele>
        <time>2020-06-24T08:53:01Z</time>
      </trkpt>
      <trkpt lat="50.48919" lon="3.34691">
        <ele>28.1</ele>
        <time>2020-06-24T08:53:02Z</time>
      </trkpt>
      <trkpt lat="50.48918" lon="3.34698">
        <ele>28.1</ele>
        <time>2020-06-24T08:53:03Z</time>
      </trkpt>
      <trkpt lat="50.48918" lon="3.34705">
        <ele>28</ele>
        <time>2020-06-24T08:53:04Z</time>
      </trkpt>
      <trkpt lat="50.48917" lon="3.34713">
        <ele>28</ele>
        <time>2020-06-24T08:53:05Z</time>
      </trkpt>
      <trkpt lat="50.48916" lon="3.34723">
        <ele>28</ele>
        <time>2020-06-24T08:53:06Z</time>
      </trkpt>
      <trkpt lat="50.48916" lon="3.34731">
        <ele>28</ele>
        <time>2020-06-24T08:53:07Z</time>
      </trkpt>
      <trkpt lat="50.48916" lon="3.34737">
        <ele>27.9</ele>
        <time>2020-06-24T08:53:08Z</time>
      </trkpt>
      <trkpt lat="50.48915" lon="3.34742">
        <ele>27.9</ele>
        <time>2020-06-24T08:53:09Z</time>
      </trkpt>
      <trkpt lat="50.48914" lon="3.34748">
        <ele>27.9</ele>
        <time>2020-06-24T08:53:10Z</time>
      </trkpt>
      <trkpt lat="50.48914" lon="3.34754">
        <ele>27.9</ele>
        <time>2020-06-24T08:53:11Z</time>
      </trkpt>
      <trkpt lat="50.48914" lon="3.34756">
        <ele>27.9</ele>
        <time>2020-06-24T08:53:12Z</time>
      </trkpt>
      <trkpt lat="50.48915" lon="3.34758">
        <ele>27.9</ele>
        <time>2020-06-24T08:53:13Z</time>
      </trkpt>
      <trkpt lat="50.48915" lon="3.34761">
        <ele>27.9</ele>
        <time>2020-06-24T08:53:14Z</time>
      </trkpt>
      <trkpt lat="50.48913" lon="3.34765">
        <ele>27.9</ele>
        <time>2020-06-24T08:53:15Z</time>
      </trkpt>
      <trkpt lat="50.48912" lon="3.34766">
        <ele>27.9</ele>
        <time>2020-06-24T08:53:16Z</time>
      </trkpt>
      <trkpt lat="50.48911" lon="3.34768">
        <ele>27.8</ele>
        <time>2020-06-24T08:53:17Z</time>
      </trkpt>
      <trkpt lat="50.4891" lon="3.34769">
        <ele>27.8</ele>
        <time>2020-06-24T08:53:18Z</time>
      </trkpt>
      <trkpt lat="50.4891" lon="3.34771">
        <ele>27.8</ele>
        <time>2020-06-24T08:53:19Z</time>
      </trkpt>
      <trkpt lat="50.48909" lon="3.34771">
        <ele>27.8</ele>
        <time>2020-06-24T08:53:20Z</time>
      </trkpt>
      <trkpt lat="50.48908" lon="3.34772">
        <ele>27.8</ele>
        <time>2020-06-24T08:53:21Z</time>
      </trkpt>
      <trkpt lat="50.48907" lon="3.34772">
        <ele>27.8</ele>
        <time>2020-06-24T08:53:22Z</time>
      </trkpt>
      <trkpt lat="50.48905" lon="3.34772">
        <ele>27.8</ele>
        <time>2020-06-24T08:53:23Z</time>
      </trkpt>
      <trkpt lat="50.48905" lon="3.34771">
        <ele>27.8</ele>
        <time>2020-06-24T08:53:24Z</time>
      </trkpt>
      <trkpt lat="50.48906" lon="3.3477">
        <ele>27.8</ele>
        <time>2020-06-24T08:53:25Z</time>
      </trkpt>
      <trkpt lat="50.48906" lon="3.34768">
        <ele>27.8</ele>
        <time>2020-06-24T08:53:26Z</time>
      </trkpt>
      <trkpt lat="50.48906" lon="3.34766">
        <ele>27.8</ele>
        <time>2020-06-24T08:53:27Z</time>
      </trkpt>
      <trkpt lat="50.48904" lon="3.34765">
        <ele>27.8</ele>
        <time>2020-06-24T08:53:28Z</time>
      </trkpt>
      <trkpt lat="50.48905" lon="3.34764">
        <ele>27.8</ele>
        <time>2020-06-24T08:53:29Z</time>
      </trkpt>
      <trkpt lat="50.48904" lon="3.34762">
        <ele>27.7</ele>
        <time>2020-06-24T08:53:30Z</time>
      </trkpt>
      <trkpt lat="50.48904" lon="3.34761">
        <ele>27.7</ele>
        <time>2020-06-24T08:53:31Z</time>
      </trkpt>
      <trkpt lat="50.48904" lon="3.34761">
        <ele>27.7</ele>
        <time>2020-06-24T08:53:32Z</time>
      </trkpt>
      <trkpt lat="50.48904" lon="3.34761">
        <ele>27.7</ele>
        <time>2020-06-24T08:53:33Z</time>
      </trkpt>
      <trkpt lat="50.48904" lon="3.34761">
        <ele>27.7</ele>
        <time>2020-06-24T08:53:34Z</time>
      </trkpt>
      <trkpt lat="50.48904" lon="3.34761">
        <ele>27.7</ele>
        <time>2020-06-24T08:53:35Z</time>
      </trkpt>
      <trkpt lat="50.48904" lon="3.34761">
        <ele>27.7</ele>
        <time>2020-06-24T08:53:36Z</time>
      </trkpt>
      <trkpt lat="50.48904" lon="3.34761">
        <ele>27.7</ele>
        <time>2020-06-24T08:53:37Z</time>
      </trkpt>
      <trkpt lat="50.48904" lon="3.34761">
        <ele>27.7</ele>
        <time>2020-06-24T08:53:38Z</time>
      </trkpt>
      <trkpt lat="50.489" lon="3.34758">
        <ele>27.7</ele>
        <time>2020-06-24T08:59:45Z</time>
      </trkpt>
      <trkpt lat="50.48901" lon="3.34756">
        <ele>27.7</ele>
        <time>2020-06-24T08:59:46Z</time>
      </trkpt>
      <trkpt lat="50.48903" lon="3.34758">
        <ele>27.7</ele>
        <time>2020-06-24T08:59:47Z</time>
      </trkpt>
      <trkpt lat="50.48903" lon="3.34759">
        <ele>27.7</ele>
        <time>2020-06-24T08:59:48Z</time>
      </trkpt>
      <trkpt lat="50.48904" lon="3.34761">
        <ele>27.7</ele>
        <time>2020-06-24T08:59:49Z</time>
      </trkpt>
      <trkpt lat="50.48905" lon="3.34763">
        <ele>27.7</ele>
        <time>2020-06-24T08:59:50Z</time>
      </trkpt>
      <trkpt lat="50.48905" lon="3.34765">
        <ele>27.6</ele>
        <time>2020-06-24T08:59:51Z</time>
      </trkpt>
      <trkpt lat="50.48906" lon="3.34767">
        <ele>27.6</ele>
        <time>2020-06-24T08:59:52Z</time>
      </trkpt>
      <trkpt lat="50.48907" lon="3.34769">
        <ele>27.6</ele>
        <time>2020-06-24T08:59:53Z</time>
      </trkpt>
      <trkpt lat="50.48907" lon="3.34771">
        <ele>27.6</ele>
        <time>2020-06-24T08:59:54Z</time>
      </trkpt>
      <trkpt lat="50.48908" lon="3.34773">
        <ele>27.6</ele>
        <time>2020-06-24T08:59:55Z</time>
      </trkpt>
      <trkpt lat="50.48909" lon="3.34775">
        <ele>27.6</ele>
        <time>2020-06-24T08:59:56Z</time>
      </trkpt>
      <trkpt lat="50.48909" lon="3.34776">
        <ele>27.6</ele>
        <time>2020-06-24T08:59:57Z</time>
      </trkpt>
      <trkpt lat="50.4891" lon="3.34778">
        <ele>27.6</ele>
        <time>2020-06-24T09:06:00Z</time>
      </trkpt>
      <trkpt lat="50.4891" lon="3.3478">
        <ele>27.6</ele>
        <time>2020-06-24T09:06:01Z</time>
      </trkpt>
      <trkpt lat="50.48911" lon="3.34782">
        <ele>27.5</ele>
        <time>2020-06-24T09:06:02Z</time>
      </trkpt>
      <trkpt lat="50.48911" lon="3.34783">
        <ele>27.5</ele>
        <time>2020-06-24T09:06:03Z</time>
      </trkpt>
      <trkpt lat="50.48911" lon="3.34785">
        <ele>27.5</ele>
        <time>2020-06-24T09:06:04Z</time>
      </trkpt>
      <trkpt lat="50.48911" lon="3.34785">
        <ele>27.5</ele>
        <time>2020-06-24T09:06:05Z</time>
      </trkpt>
      <trkpt lat="50.4891" lon="3.34784">
        <ele>27.5</ele>
        <time>2020-06-24T09:06:06Z</time>
      </trkpt>
      <trkpt lat="50.4891" lon="3.34784">
        <ele>27.5</ele>
        <time>2020-06-24T09:06:07Z</time>
      </trkpt>
      <trkpt lat="50.48909" lon="3.34785">
        <ele>27.5</ele>
        <time>2020-06-24T09:06:08Z</time>
      </trkpt>
      <trkpt lat="50.48909" lon="3.34786">
        <ele>27.5</ele>
        <time>2020-06-24T09:06:09Z</time>
      </trkpt>
      <trkpt lat="50.4891" lon="3.34786">
        <ele>27.5</ele>
        <time>2020-06-24T09:06:10Z</time>
      </trkpt>
      <trkpt lat="50.4891" lon="3.34786">
        <ele>27.5</ele>
        <time>2020-06-24T09:06:11Z</time>
      </trkpt>
      <trkpt lat="50.48911" lon="3.34787">
        <ele>27.5</ele>
        <time>2020-06-24T09:06:12Z</time>
      </trkpt>
      <trkpt lat="50.48911" lon="3.34787">
        <ele>27.5</ele>
        <time>2020-06-24T09:06:13Z</time>
      </trkpt>
      <trkpt lat="50.48912" lon="3.34787">
        <ele>27.5</ele>
        <time>2020-06-24T09:06:14Z</time>
      </trkpt>
      <trkpt lat="50.48912" lon="3.34788">
        <ele>27.5</ele>
        <time>2020-06-24T09:06:15Z</time>
      </trkpt>
      <trkpt lat="50.48912" lon="3.34787">
        <ele>27.5</ele>
        <time>2020-06-24T09:06:16Z</time>
      </trkpt>
      <trkpt lat="50.48913" lon="3.34787">
        <ele>27.5</ele>
        <time>2020-06-24T09:06:17Z</time>
      </trkpt>
      <trkpt lat="50.48913" lon="3.34787">
        <ele>27.5</ele>
        <time>2020-06-24T09:06:18Z</time>
      </trkpt>
      <trkpt lat="50.48913" lon="3.34787">
        <ele>27.5</ele>
        <time>2020-06-24T09:06:19Z</time>
      </trkpt>
      <trkpt lat="50.48913" lon="3.34786">
        <ele>27.5</ele>
        <time>2020-06-24T09:06:20Z</time>
      </trkpt>
      <trkpt lat="50.48913" lon="3.34786">
        <ele>27.5</ele>
        <time>2020-06-24T09:06:21Z</time>
      </trkpt>
      <trkpt lat="50.48914" lon="3.34786">
        <ele>27.5</ele>
        <time>2020-06-24T09:06:22Z</time>
      </trkpt>
      <trkpt lat="50.48914" lon="3.34785">
        <ele>27.5</ele>
        <time>2020-06-24T09:06:23Z</time>
      </trkpt>
      <trkpt lat="50.48914" lon="3.34785">
        <ele>27.5</ele>
        <time>2020-06-24T09:06:24Z</time>
      </trkpt>
      <trkpt lat="50.48914" lon="3.34785">
        <ele>27.5</ele>
        <time>2020-06-24T09:06:25Z</time>
      </trkpt>
      <trkpt lat="50.48914" lon="3.34784">
        <ele>27.5</ele>
        <time>2020-06-24T09:06:26Z</time>
      </trkpt>
      <trkpt lat="50.48915" lon="3.34784">
        <ele>27.5</ele>
        <time>2020-06-24T09:06:55Z</time>
      </trkpt>
      <trkpt lat="50.48915" lon="3.34784">
        <ele>27.5</ele>
        <time>2020-06-24T09:06:56Z</time>
      </trkpt>
      <trkpt lat="50.48917" lon="3.34787">
        <ele>27.4</ele>
        <time>2020-06-24T09:06:57Z</time>
      </trkpt>
      <trkpt lat="50.48917" lon="3.34789">
        <ele>27.4</ele>
        <time>2020-06-24T09:06:58Z</time>
      </trkpt>
      <trkpt lat="50.48918" lon="3.34791">
        <ele>27.4</ele>
        <time>2020-06-24T09:06:59Z</time>
      </trkpt>
      <trkpt lat="50.48918" lon="3.34793">
        <ele>27.4</ele>
        <time>2020-06-24T09:07:00Z</time>
      </trkpt>
      <trkpt lat="50.48918" lon="3.34793">
        <ele>27.4</ele>
        <time>2020-06-24T09:07:01Z</time>
      </trkpt>
      <trkpt lat="50.48918" lon="3.34793">
        <ele>27.4</ele>
        <time>2020-06-24T09:07:02Z</time>
      </trkpt>
      <trkpt lat="50.48917" lon="3.34792">
        <ele>27.4</ele>
        <time>2020-06-24T09:07:03Z</time>
      </trkpt>
      <trkpt lat="50.48917" lon="3.34791">
        <ele>27.4</ele>
        <time>2020-06-24T09:07:04Z</time>
      </trkpt>
      <trkpt lat="50.48917" lon="3.34792">
        <ele>27.4</ele>
        <time>2020-06-24T09:07:05Z</time>
      </trkpt>
      <trkpt lat="50.48916" lon="3.34791">
        <ele>27.4</ele>
        <time>2020-06-24T09:07:06Z</time>
      </trkpt>
      <trkpt lat="50.48916" lon="3.34793">
        <ele>27.4</ele>
        <time>2020-06-24T09:07:07Z</time>
      </trkpt>
      <trkpt lat="50.48915" lon="3.34793">
        <ele>27.4</ele>
        <time>2020-06-24T09:07:08Z</time>
      </trkpt>
      <trkpt lat="50.48914" lon="3.34788">
        <ele>27.4</ele>
        <time>2020-06-24T09:07:09Z</time>
      </trkpt>
      <trkpt lat="50.48914" lon="3.34787">
        <ele>27.4</ele>
        <time>2020-06-24T09:07:10Z</time>
      </trkpt>
      <trkpt lat="50.48912" lon="3.34786">
        <ele>27.4</ele>
        <time>2020-06-24T09:07:11Z</time>
      </trkpt>
      <trkpt lat="50.48911" lon="3.34787">
        <ele>27.4</ele>
        <time>2020-06-24T09:07:12Z</time>
      </trkpt>
      <trkpt lat="50.48911" lon="3.34787">
        <ele>27.4</ele>
        <time>2020-06-24T09:07:13Z</time>
      </trkpt>
      <trkpt lat="50.4891" lon="3.34788">
        <ele>27.3</ele>
        <time>2020-06-24T09:07:14Z</time>
      </trkpt>
      <trkpt lat="50.48909" lon="3.3479">
        <ele>27.3</ele>
        <time>2020-06-24T09:07:15Z</time>
      </trkpt>
      <trkpt lat="50.48908" lon="3.34793">
        <ele>27.3</ele>
        <time>2020-06-24T09:07:16Z</time>
      </trkpt>
      <trkpt lat="50.48908" lon="3.34798">
        <ele>27.3</ele>
        <time>2020-06-24T09:07:17Z</time>
      </trkpt>
      <trkpt lat="50.48908" lon="3.34799">
        <ele>27.3</ele>
        <time>2020-06-24T09:07:18Z</time>
      </trkpt>
      <trkpt lat="50.48908" lon="3.34805">
        <ele>27.3</ele>
        <time>2020-06-24T09:07:19Z</time>
      </trkpt>
      <trkpt lat="50.48908" lon="3.34808">
        <ele>27.3</ele>
        <time>2020-06-24T09:07:20Z</time>
      </trkpt>
      <trkpt lat="50.48908" lon="3.34812">
        <ele>27.3</ele>
        <time>2020-06-24T09:07:21Z</time>
      </trkpt>
      <trkpt lat="50.48906" lon="3.34816">
        <ele>27.2</ele>
        <time>2020-06-24T09:07:22Z</time>
      </trkpt>
      <trkpt lat="50.48904" lon="3.34821">
        <ele>27.2</ele>
        <time>2020-06-24T09:07:23Z</time>
      </trkpt>
      <trkpt lat="50.48901" lon="3.34825">
        <ele>27.2</ele>
        <time>2020-06-24T09:07:24Z</time>
      </trkpt>
      <trkpt lat="50.489" lon="3.34825">
        <ele>27.2</ele>
        <time>2020-06-24T09:07:25Z</time>
      </trkpt>
      <trkpt lat="50.48899" lon="3.34826">
        <ele>27.2</ele>
        <time>2020-06-24T09:07:26Z</time>
      </trkpt>
      <trkpt lat="50.48898" lon="3.34827">
        <ele>27.2</ele>
        <time>2020-06-24T09:07:27Z</time>
      </trkpt>
      <trkpt lat="50.48898" lon="3.34827">
        <ele>27.2</ele>
        <time>2020-06-24T09:07:28Z</time>
      </trkpt>
      <trkpt lat="50.48897" lon="3.34827">
        <ele>27.2</ele>
        <time>2020-06-24T09:07:29Z</time>
      </trkpt>
      <trkpt lat="50.48897" lon="3.34827">
        <ele>27.2</ele>
        <time>2020-06-24T09:07:30Z</time>
      </trkpt>
      <trkpt lat="50.48896" lon="3.34827">
        <ele>27.2</ele>
        <time>2020-06-24T09:07:31Z</time>
      </trkpt>
      <trkpt lat="50.48896" lon="3.34827">
        <ele>27.2</ele>
        <time>2020-06-24T09:07:32Z</time>
      </trkpt>
      <trkpt lat="50.48895" lon="3.34828">
        <ele>27.2</ele>
        <time>2020-06-24T09:07:33Z</time>
      </trkpt>
      <trkpt lat="50.48895" lon="3.34829">
        <ele>27.2</ele>
        <time>2020-06-24T09:07:34Z</time>
      </trkpt>
      <trkpt lat="50.48895" lon="3.3483">
        <ele>27.2</ele>
        <time>2020-06-24T09:07:35Z</time>
      </trkpt>
      <trkpt lat="50.48895" lon="3.34833">
        <ele>27.2</ele>
        <time>2020-06-24T09:07:36Z</time>
      </trkpt>
      <trkpt lat="50.48895" lon="3.34835">
        <ele>27.2</ele>
        <time>2020-06-24T09:07:37Z</time>
      </trkpt>
      <trkpt lat="50.48895" lon="3.34839">
        <ele>27.1</ele>
        <time>2020-06-24T09:07:38Z</time>
      </trkpt>
      <trkpt lat="50.48895" lon="3.34841">
        <ele>27.1</ele>
        <time>2020-06-24T09:07:39Z</time>
      </trkpt>
      <trkpt lat="50.48894" lon="3.34845">
        <ele>27.1</ele>
        <time>2020-06-24T09:07:40Z</time>
      </trkpt>
      <trkpt lat="50.48894" lon="3.34851">
        <ele>27.1</ele>
        <time>2020-06-24T09:07:41Z</time>
      </trkpt>
      <trkpt lat="50.48893" lon="3.34857">
        <ele>27</ele>
        <time>2020-06-24T09:07:42Z</time>
      </trkpt>
      <trkpt lat="50.48893" lon="3.34863">
        <ele>27</ele>
        <time>2020-06-24T09:07:43Z</time>
      </trkpt>
      <trkpt lat="50.48893" lon="3.34868">
        <ele>27</ele>
        <time>2020-06-24T09:07:44Z</time>
      </trkpt>
      <trkpt lat="50.48892" lon="3.34875">
        <ele>27</ele>
        <time>2020-06-24T09:07:45Z</time>
      </trkpt>
      <trkpt lat="50.48891" lon="3.34882">
        <ele>27</ele>
        <time>2020-06-24T09:07:46Z</time>
      </trkpt>
      <trkpt lat="50.4889" lon="3.3489">
        <ele>27</ele>
        <time>2020-06-24T09:07:47Z</time>
      </trkpt>
      <trkpt lat="50.48889" lon="3.34898">
        <ele>27</ele>
        <time>2020-06-24T09:07:48Z</time>
      </trkpt>
      <trkpt lat="50.48889" lon="3.34905">
        <ele>26.9</ele>
        <time>2020-06-24T09:07:49Z</time>
      </trkpt>
      <trkpt lat="50.48888" lon="3.34912">
        <ele>26.9</ele>
        <time>2020-06-24T09:07:50Z</time>
      </trkpt>
      <trkpt lat="50.48888" lon="3.3492">
        <ele>26.9</ele>
        <time>2020-06-24T09:07:51Z</time>
      </trkpt>
      <trkpt lat="50.48888" lon="3.34928">
        <ele>26.9</ele>
        <time>2020-06-24T09:07:52Z</time>
      </trkpt>
      <trkpt lat="50.48887" lon="3.34935">
        <ele>26.9</ele>
        <time>2020-06-24T09:07:53Z</time>
      </trkpt>
      <trkpt lat="50.48886" lon="3.34942">
        <ele>26.9</ele>
        <time>2020-06-24T09:07:54Z</time>
      </trkpt>
      <trkpt lat="50.48886" lon="3.3495">
        <ele>26.8</ele>
        <time>2020-06-24T09:07:55Z</time>
      </trkpt>
      <trkpt lat="50.48886" lon="3.34958">
        <ele>26.8</ele>
        <time>2020-06-24T09:07:56Z</time>
      </trkpt>
      <trkpt lat="50.48886" lon="3.34966">
        <ele>26.7</ele>
        <time>2020-06-24T09:07:57Z</time>
      </trkpt>
      <trkpt lat="50.48886" lon="3.34975">
        <ele>26.7</ele>
        <time>2020-06-24T09:07:58Z</time>
      </trkpt>
      <trkpt lat="50.48887" lon="3.34984">
        <ele>26.6</ele>
        <time>2020-06-24T09:07:59Z</time>
      </trkpt>
      <trkpt lat="50.48888" lon="3.34992">
        <ele>26.5</ele>
        <time>2020-06-24T09:08:00Z</time>
      </trkpt>
      <trkpt lat="50.48888" lon="3.35001">
        <ele>26.5</ele>
        <time>2020-06-24T09:08:01Z</time>
      </trkpt>
      <trkpt lat="50.48889" lon="3.3501">
        <ele>26.4</ele>
        <time>2020-06-24T09:08:02Z</time>
      </trkpt>
      <trkpt lat="50.4889" lon="3.35019">
        <ele>26.4</ele>
        <time>2020-06-24T09:08:03Z</time>
      </trkpt>
      <trkpt lat="50.48891" lon="3.3503">
        <ele>26.3</ele>
        <time>2020-06-24T09:08:04Z</time>
      </trkpt>
      <trkpt lat="50.48892" lon="3.35039">
        <ele>26.3</ele>
        <time>2020-06-24T09:08:05Z</time>
      </trkpt>
      <trkpt lat="50.48894" lon="3.35048">
        <ele>26.2</ele>
        <time>2020-06-24T09:08:06Z</time>
      </trkpt>
      <trkpt lat="50.48896" lon="3.35058">
        <ele>26.2</ele>
        <time>2020-06-24T09:08:07Z</time>
      </trkpt>
      <trkpt lat="50.48897" lon="3.35067">
        <ele>26.1</ele>
        <time>2020-06-24T09:08:08Z</time>
      </trkpt>
      <trkpt lat="50.48897" lon="3.35076">
        <ele>26.1</ele>
        <time>2020-06-24T09:08:09Z</time>
      </trkpt>
      <trkpt lat="50.48897" lon="3.35086">
        <ele>26.1</ele>
        <time>2020-06-24T09:08:10Z</time>
      </trkpt>
      <trkpt lat="50.48897" lon="3.35095">
        <ele>26</ele>
        <time>2020-06-24T09:08:11Z</time>
      </trkpt>
      <trkpt lat="50.48898" lon="3.35104">
        <ele>26</ele>
        <time>2020-06-24T09:08:12Z</time>
      </trkpt>
      <trkpt lat="50.48899" lon="3.35113">
        <ele>26</ele>
        <time>2020-06-24T09:08:13Z</time>
      </trkpt>
      <trkpt lat="50.48899" lon="3.35121">
        <ele>26</ele>
        <time>2020-06-24T09:08:14Z</time>
      </trkpt>
      <trkpt lat="50.489" lon="3.3513">
        <ele>26</ele>
        <time>2020-06-24T09:08:15Z</time>
      </trkpt>
      <trkpt lat="50.48901" lon="3.35138">
        <ele>26.1</ele>
        <time>2020-06-24T09:08:16Z</time>
      </trkpt>
      <trkpt lat="50.48901" lon="3.35147">
        <ele>26.1</ele>
        <time>2020-06-24T09:08:17Z</time>
      </trkpt>
      <trkpt lat="50.48901" lon="3.35155">
        <ele>26.1</ele>
        <time>2020-06-24T09:08:18Z</time>
      </trkpt>
      <trkpt lat="50.489" lon="3.35164">
        <ele>26.2</ele>
        <time>2020-06-24T09:08:19Z</time>
      </trkpt>
      <trkpt lat="50.48897" lon="3.35174">
        <ele>26.1</ele>
        <time>2020-06-24T09:08:20Z</time>
      </trkpt>
      <trkpt lat="50.48892" lon="3.35179">
        <ele>26.1</ele>
        <time>2020-06-24T09:08:21Z</time>
      </trkpt>
      <trkpt lat="50.48887" lon="3.35184">
        <ele>26.1</ele>
        <time>2020-06-24T09:08:22Z</time>
      </trkpt>
      <trkpt lat="50.48883" lon="3.35189">
        <ele>26.1</ele>
        <time>2020-06-24T09:08:23Z</time>
      </trkpt>
      <trkpt lat="50.48878" lon="3.35194">
        <ele>26.1</ele>
        <time>2020-06-24T09:08:24Z</time>
      </trkpt>
      <trkpt lat="50.48874" lon="3.35199">
        <ele>26.1</ele>
        <time>2020-06-24T09:08:25Z</time>
      </trkpt>
      <trkpt lat="50.48869" lon="3.35203">
        <ele>26</ele>
        <time>2020-06-24T09:08:26Z</time>
      </trkpt>
      <trkpt lat="50.48863" lon="3.35209">
        <ele>26</ele>
        <time>2020-06-24T09:08:27Z</time>
      </trkpt>
      <trkpt lat="50.48858" lon="3.35212">
        <ele>26</ele>
        <time>2020-06-24T09:08:28Z</time>
      </trkpt>
      <trkpt lat="50.48853" lon="3.35215">
        <ele>26</ele>
        <time>2020-06-24T09:08:29Z</time>
      </trkpt>
      <trkpt lat="50.48847" lon="3.35221">
        <ele>26</ele>
        <time>2020-06-24T09:08:30Z</time>
      </trkpt>
      <trkpt lat="50.48842" lon="3.35225">
        <ele>26</ele>
        <time>2020-06-24T09:08:31Z</time>
      </trkpt>
      <trkpt lat="50.48838" lon="3.35231">
        <ele>26.1</ele>
        <time>2020-06-24T09:08:32Z</time>
      </trkpt>
      <trkpt lat="50.48832" lon="3.35235">
        <ele>26.1</ele>
        <time>2020-06-24T09:08:33Z</time>
      </trkpt>
      <trkpt lat="50.48827" lon="3.3524">
        <ele>26.1</ele>
        <time>2020-06-24T09:08:34Z</time>
      </trkpt>
      <trkpt lat="50.48822" lon="3.35246">
        <ele>26.1</ele>
        <time>2020-06-24T09:08:35Z</time>
      </trkpt>
      <trkpt lat="50.48817" lon="3.35251">
        <ele>26.2</ele>
        <time>2020-06-24T09:08:36Z</time>
      </trkpt>
      <trkpt lat="50.48812" lon="3.35255">
        <ele>26.2</ele>
        <time>2020-06-24T09:08:37Z</time>
      </trkpt>
      <trkpt lat="50.48806" lon="3.3526">
        <ele>26.2</ele>
        <time>2020-06-24T09:08:38Z</time>
      </trkpt>
      <trkpt lat="50.488" lon="3.35264">
        <ele>26.3</ele>
        <time>2020-06-24T09:08:39Z</time>
      </trkpt>
      <trkpt lat="50.48795" lon="3.35268">
        <ele>26.2</ele>
        <time>2020-06-24T09:08:40Z</time>
      </trkpt>
      <trkpt lat="50.4879" lon="3.35273">
        <ele>26.2</ele>
        <time>2020-06-24T09:08:41Z</time>
      </trkpt>
      <trkpt lat="50.48785" lon="3.35276">
        <ele>26.2</ele>
        <time>2020-06-24T09:08:42Z</time>
      </trkpt>
      <trkpt lat="50.48778" lon="3.35278">
        <ele>26.2</ele>
        <time>2020-06-24T09:08:43Z</time>
      </trkpt>
      <trkpt lat="50.48772" lon="3.35281">
        <ele>26.2</ele>
        <time>2020-06-24T09:08:44Z</time>
      </trkpt>
      <trkpt lat="50.48767" lon="3.35285">
        <ele>26.2</ele>
        <time>2020-06-24T09:08:45Z</time>
      </trkpt>
      <trkpt lat="50.4876" lon="3.35288">
        <ele>26.1</ele>
        <time>2020-06-24T09:08:46Z</time>
      </trkpt>
      <trkpt lat="50.48755" lon="3.35292">
        <ele>26.1</ele>
        <time>2020-06-24T09:08:47Z</time>
      </trkpt>
      <trkpt lat="50.48749" lon="3.35294">
        <ele>26.1</ele>
        <time>2020-06-24T09:08:48Z</time>
      </trkpt>
      <trkpt lat="50.48744" lon="3.35296">
        <ele>26.1</ele>
        <time>2020-06-24T09:08:49Z</time>
      </trkpt>
      <trkpt lat="50.48738" lon="3.35299">
        <ele>26</ele>
        <time>2020-06-24T09:08:50Z</time>
      </trkpt>
      <trkpt lat="50.48733" lon="3.35302">
        <ele>26</ele>
        <time>2020-06-24T09:08:51Z</time>
      </trkpt>
      <trkpt lat="50.48727" lon="3.35303">
        <ele>26</ele>
        <time>2020-06-24T09:08:52Z</time>
      </trkpt>
      <trkpt lat="50.48721" lon="3.35304">
        <ele>25.9</ele>
        <time>2020-06-24T09:08:53Z</time>
      </trkpt>
      <trkpt lat="50.48716" lon="3.35306">
        <ele>25.9</ele>
        <time>2020-06-24T09:08:54Z</time>
      </trkpt>
      <trkpt lat="50.4871" lon="3.35309">
        <ele>25.9</ele>
        <time>2020-06-24T09:08:55Z</time>
      </trkpt>
      <trkpt lat="50.48704" lon="3.35313">
        <ele>25.8</ele>
        <time>2020-06-24T09:08:56Z</time>
      </trkpt>
      <trkpt lat="50.48698" lon="3.35315">
        <ele>25.8</ele>
        <time>2020-06-24T09:08:57Z</time>
      </trkpt>
      <trkpt lat="50.48692" lon="3.35317">
        <ele>25.7</ele>
        <time>2020-06-24T09:08:58Z</time>
      </trkpt>
      <trkpt lat="50.48685" lon="3.35322">
        <ele>25.6</ele>
        <time>2020-06-24T09:08:59Z</time>
      </trkpt>
      <trkpt lat="50.48679" lon="3.35325">
        <ele>25.6</ele>
        <time>2020-06-24T09:09:00Z</time>
      </trkpt>
      <trkpt lat="50.48674" lon="3.35327">
        <ele>25.6</ele>
        <time>2020-06-24T09:09:01Z</time>
      </trkpt>
      <trkpt lat="50.48669" lon="3.3533">
        <ele>25.5</ele>
        <time>2020-06-24T09:09:02Z</time>
      </trkpt>
      <trkpt lat="50.48663" lon="3.35334">
        <ele>25.5</ele>
        <time>2020-06-24T09:09:03Z</time>
      </trkpt>
      <trkpt lat="50.48658" lon="3.35339">
        <ele>25.4</ele>
        <time>2020-06-24T09:09:04Z</time>
      </trkpt>
      <trkpt lat="50.48652" lon="3.35345">
        <ele>25.4</ele>
        <time>2020-06-24T09:09:05Z</time>
      </trkpt>
      <trkpt lat="50.48647" lon="3.35349">
        <ele>25.4</ele>
        <time>2020-06-24T09:09:06Z</time>
      </trkpt>
      <trkpt lat="50.48642" lon="3.35354">
        <ele>25.3</ele>
        <time>2020-06-24T09:09:07Z</time>
      </trkpt>
      <trkpt lat="50.48638" lon="3.3536">
        <ele>25.3</ele>
        <time>2020-06-24T09:09:08Z</time>
      </trkpt>
      <trkpt lat="50.48632" lon="3.35365">
        <ele>25.2</ele>
        <time>2020-06-24T09:09:09Z</time>
      </trkpt>
      <trkpt lat="50.48628" lon="3.35369">
        <ele>25.2</ele>
        <time>2020-06-24T09:09:10Z</time>
      </trkpt>
      <trkpt lat="50.48623" lon="3.35374">
        <ele>25.1</ele>
        <time>2020-06-24T09:09:11Z</time>
      </trkpt>
      <trkpt lat="50.48618" lon="3.3538">
        <ele>25.1</ele>
        <time>2020-06-24T09:09:12Z</time>
      </trkpt>
      <trkpt lat="50.48613" lon="3.35386">
        <ele>25.1</ele>
        <time>2020-06-24T09:09:13Z</time>
      </trkpt>
      <trkpt lat="50.48608" lon="3.35391">
        <ele>25.1</ele>
        <time>2020-06-24T09:09:14Z</time>
      </trkpt>
      <trkpt lat="50.48603" lon="3.35396">
        <ele>25</ele>
        <time>2020-06-24T09:09:15Z</time>
      </trkpt>
      <trkpt lat="50.48598" lon="3.35402">
        <ele>24.9</ele>
        <time>2020-06-24T09:09:16Z</time>
      </trkpt>
      <trkpt lat="50.48593" lon="3.35407">
        <ele>24.9</ele>
        <time>2020-06-24T09:09:17Z</time>
      </trkpt>
      <trkpt lat="50.48589" lon="3.35412">
        <ele>24.8</ele>
        <time>2020-06-24T09:09:18Z</time>
      </trkpt>
      <trkpt lat="50.48585" lon="3.35418">
        <ele>24.8</ele>
        <time>2020-06-24T09:09:19Z</time>
      </trkpt>
      <trkpt lat="50.48583" lon="3.35424">
        <ele>24.7</ele>
        <time>2020-06-24T09:09:20Z</time>
      </trkpt>
      <trkpt lat="50.48581" lon="3.35431">
        <ele>24.6</ele>
        <time>2020-06-24T09:09:21Z</time>
      </trkpt>
      <trkpt lat="50.48581" lon="3.35438">
        <ele>24.6</ele>
        <time>2020-06-24T09:09:22Z</time>
      </trkpt>
      <trkpt lat="50.4858" lon="3.35446">
        <ele>24.5</ele>
        <time>2020-06-24T09:09:23Z</time>
      </trkpt>
      <trkpt lat="50.48581" lon="3.35455">
        <ele>24.4</ele>
        <time>2020-06-24T09:09:24Z</time>
      </trkpt>
      <trkpt lat="50.4858" lon="3.35465">
        <ele>24.4</ele>
        <time>2020-06-24T09:09:25Z</time>
      </trkpt>
      <trkpt lat="50.48581" lon="3.35475">
        <ele>24.3</ele>
        <time>2020-06-24T09:09:26Z</time>
      </trkpt>
      <trkpt lat="50.48581" lon="3.35485">
        <ele>24.2</ele>
        <time>2020-06-24T09:09:27Z</time>
      </trkpt>
      <trkpt lat="50.48581" lon="3.35495">
        <ele>24.2</ele>
        <time>2020-06-24T09:09:28Z</time>
      </trkpt>
      <trkpt lat="50.48581" lon="3.35504">
        <ele>24.1</ele>
        <time>2020-06-24T09:09:29Z</time>
      </trkpt>
      <trkpt lat="50.48581" lon="3.35514">
        <ele>24.1</ele>
        <time>2020-06-24T09:09:30Z</time>
      </trkpt>
      <trkpt lat="50.4858" lon="3.35523">
        <ele>24.1</ele>
        <time>2020-06-24T09:09:31Z</time>
      </trkpt>
      <trkpt lat="50.4858" lon="3.35532">
        <ele>24</ele>
        <time>2020-06-24T09:09:32Z</time>
      </trkpt>
      <trkpt lat="50.4858" lon="3.35542">
        <ele>24</ele>
        <time>2020-06-24T09:09:33Z</time>
      </trkpt>
      <trkpt lat="50.48579" lon="3.35551">
        <ele>24</ele>
        <time>2020-06-24T09:09:34Z</time>
      </trkpt>
      <trkpt lat="50.48579" lon="3.35561">
        <ele>24</ele>
        <time>2020-06-24T09:09:35Z</time>
      </trkpt>
      <trkpt lat="50.48579" lon="3.3557">
        <ele>24</ele>
        <time>2020-06-24T09:09:36Z</time>
      </trkpt>
      <trkpt lat="50.48578" lon="3.35579">
        <ele>24.1</ele>
        <time>2020-06-24T09:09:37Z</time>
      </trkpt>
      <trkpt lat="50.48578" lon="3.35589">
        <ele>24.1</ele>
        <time>2020-06-24T09:09:38Z</time>
      </trkpt>
      <trkpt lat="50.48578" lon="3.35597">
        <ele>24.1</ele>
        <time>2020-06-24T09:09:39Z</time>
      </trkpt>
      <trkpt lat="50.48577" lon="3.35606">
        <ele>24.1</ele>
        <time>2020-06-24T09:09:40Z</time>
      </trkpt>
      <trkpt lat="50.48576" lon="3.35615">
        <ele>24.1</ele>
        <time>2020-06-24T09:09:41Z</time>
      </trkpt>
      <trkpt lat="50.48576" lon="3.35622">
        <ele>24.1</ele>
        <time>2020-06-24T09:09:42Z</time>
      </trkpt>
      <trkpt lat="50.48575" lon="3.3563">
        <ele>24</ele>
        <time>2020-06-24T09:09:43Z</time>
      </trkpt>
      <trkpt lat="50.48574" lon="3.35638">
        <ele>24</ele>
        <time>2020-06-24T09:09:44Z</time>
      </trkpt>
      <trkpt lat="50.48573" lon="3.35645">
        <ele>24</ele>
        <time>2020-06-24T09:09:45Z</time>
      </trkpt>
      <trkpt lat="50.48571" lon="3.35651">
        <ele>23.9</ele>
        <time>2020-06-24T09:09:46Z</time>
      </trkpt>
      <trkpt lat="50.48568" lon="3.35659">
        <ele>23.9</ele>
        <time>2020-06-24T09:09:47Z</time>
      </trkpt>
      <trkpt lat="50.48565" lon="3.35667">
        <ele>23.8</ele>
        <time>2020-06-24T09:09:48Z</time>
      </trkpt>
      <trkpt lat="50.48561" lon="3.35675">
        <ele>23.7</ele>
        <time>2020-06-24T09:09:49Z</time>
      </trkpt>
      <trkpt lat="50.48559" lon="3.35683">
        <ele>23.7</ele>
        <time>2020-06-24T09:09:50Z</time>
      </trkpt>
      <trkpt lat="50.48556" lon="3.35691">
        <ele>23.7</ele>
        <time>2020-06-24T09:09:51Z</time>
      </trkpt>
      <trkpt lat="50.48553" lon="3.35698">
        <ele>23.7</ele>
        <time>2020-06-24T09:09:52Z</time>
      </trkpt>
      <trkpt lat="50.4855" lon="3.35707">
        <ele>23.6</ele>
        <time>2020-06-24T09:09:53Z</time>
      </trkpt>
      <trkpt lat="50.48546" lon="3.35714">
        <ele>23.6</ele>
        <time>2020-06-24T09:09:54Z</time>
      </trkpt>
      <trkpt lat="50.48542" lon="3.35722">
        <ele>23.6</ele>
        <time>2020-06-24T09:09:55Z</time>
      </trkpt>
      <trkpt lat="50.48539" lon="3.35729">
        <ele>23.5</ele>
        <time>2020-06-24T09:09:56Z</time>
      </trkpt>
      <trkpt lat="50.48536" lon="3.35737">
        <ele>23.5</ele>
        <time>2020-06-24T09:09:57Z</time>
      </trkpt>
      <trkpt lat="50.48533" lon="3.35742">
        <ele>23.5</ele>
        <time>2020-06-24T09:09:58Z</time>
      </trkpt>
      <trkpt lat="50.48529" lon="3.3575">
        <ele>23.5</ele>
        <time>2020-06-24T09:09:59Z</time>
      </trkpt>
      <trkpt lat="50.48526" lon="3.35757">
        <ele>23.4</ele>
        <time>2020-06-24T09:10:00Z</time>
      </trkpt>
      <trkpt lat="50.48524" lon="3.35765">
        <ele>23.4</ele>
        <time>2020-06-24T09:10:01Z</time>
      </trkpt>
      <trkpt lat="50.48521" lon="3.35772">
        <ele>23.4</ele>
        <time>2020-06-24T09:10:02Z</time>
      </trkpt>
      <trkpt lat="50.48517" lon="3.3578">
        <ele>23.4</ele>
        <time>2020-06-24T09:10:03Z</time>
      </trkpt>
      <trkpt lat="50.48513" lon="3.35787">
        <ele>23.4</ele>
        <time>2020-06-24T09:10:04Z</time>
      </trkpt>
      <trkpt lat="50.4851" lon="3.35793">
        <ele>23.4</ele>
        <time>2020-06-24T09:10:05Z</time>
      </trkpt>
      <trkpt lat="50.48506" lon="3.35801">
        <ele>23.3</ele>
        <time>2020-06-24T09:10:06Z</time>
      </trkpt>
      <trkpt lat="50.48503" lon="3.3581">
        <ele>23.3</ele>
        <time>2020-06-24T09:10:07Z</time>
      </trkpt>
      <trkpt lat="50.48499" lon="3.35817">
        <ele>23.3</ele>
        <time>2020-06-24T09:10:08Z</time>
      </trkpt>
      <trkpt lat="50.48496" lon="3.35824">
        <ele>23.2</ele>
        <time>2020-06-24T09:10:09Z</time>
      </trkpt>
      <trkpt lat="50.48492" lon="3.35831">
        <ele>23.2</ele>
        <time>2020-06-24T09:10:10Z</time>
      </trkpt>
      <trkpt lat="50.48489" lon="3.35838">
        <ele>23.2</ele>
        <time>2020-06-24T09:10:11Z</time>
      </trkpt>
      <trkpt lat="50.48486" lon="3.35846">
        <ele>23.2</ele>
        <time>2020-06-24T09:10:12Z</time>
      </trkpt>
      <trkpt lat="50.48483" lon="3.35854">
        <ele>23.1</ele>
        <time>2020-06-24T09:10:13Z</time>
      </trkpt>
      <trkpt lat="50.48479" lon="3.35862">
        <ele>23.1</ele>
        <time>2020-06-24T09:10:14Z</time>
      </trkpt>
      <trkpt lat="50.48476" lon="3.3587">
        <ele>23.1</ele>
        <time>2020-06-24T09:10:15Z</time>
      </trkpt>
      <trkpt lat="50.48473" lon="3.35879">
        <ele>23.1</ele>
        <time>2020-06-24T09:10:16Z</time>
      </trkpt>
      <trkpt lat="50.4847" lon="3.35888">
        <ele>23</ele>
        <time>2020-06-24T09:10:17Z</time>
      </trkpt>
      <trkpt lat="50.48467" lon="3.35896">
        <ele>23</ele>
        <time>2020-06-24T09:10:18Z</time>
      </trkpt>
      <trkpt lat="50.48465" lon="3.35905">
        <ele>23</ele>
        <time>2020-06-24T09:10:19Z</time>
      </trkpt>
      <trkpt lat="50.48462" lon="3.35914">
        <ele>22.9</ele>
        <time>2020-06-24T09:10:20Z</time>
      </trkpt>
      <trkpt lat="50.48459" lon="3.35922">
        <ele>22.9</ele>
        <time>2020-06-24T09:10:21Z</time>
      </trkpt>
      <trkpt lat="50.48456" lon="3.3593">
        <ele>22.9</ele>
        <time>2020-06-24T09:10:22Z</time>
      </trkpt>
      <trkpt lat="50.48454" lon="3.35939">
        <ele>22.9</ele>
        <time>2020-06-24T09:10:23Z</time>
      </trkpt>
      <trkpt lat="50.48453" lon="3.35948">
        <ele>22.9</ele>
        <time>2020-06-24T09:10:24Z</time>
      </trkpt>
      <trkpt lat="50.48452" lon="3.35956">
        <ele>22.9</ele>
        <time>2020-06-24T09:10:25Z</time>
      </trkpt>
      <trkpt lat="50.48451" lon="3.35965">
        <ele>22.9</ele>
        <time>2020-06-24T09:10:26Z</time>
      </trkpt>
      <trkpt lat="50.48449" lon="3.35974">
        <ele>22.9</ele>
        <time>2020-06-24T09:10:27Z</time>
      </trkpt>
      <trkpt lat="50.48448" lon="3.35983">
        <ele>22.9</ele>
        <time>2020-06-24T09:10:28Z</time>
      </trkpt>
      <trkpt lat="50.48446" lon="3.35993">
        <ele>22.9</ele>
        <time>2020-06-24T09:10:29Z</time>
      </trkpt>
      <trkpt lat="50.48444" lon="3.36003">
        <ele>22.8</ele>
        <time>2020-06-24T09:10:30Z</time>
      </trkpt>
      <trkpt lat="50.48442" lon="3.36012">
        <ele>22.8</ele>
        <time>2020-06-24T09:10:31Z</time>
      </trkpt>
      <trkpt lat="50.48441" lon="3.36023">
        <ele>22.7</ele>
        <time>2020-06-24T09:10:32Z</time>
      </trkpt>
      <trkpt lat="50.48439" lon="3.36032">
        <ele>22.7</ele>
        <time>2020-06-24T09:10:33Z</time>
      </trkpt>
      <trkpt lat="50.48437" lon="3.36041">
        <ele>22.7</ele>
        <time>2020-06-24T09:10:34Z</time>
      </trkpt>
      <trkpt lat="50.48434" lon="3.36049">
        <ele>22.7</ele>
        <time>2020-06-24T09:10:35Z</time>
      </trkpt>
      <trkpt lat="50.48432" lon="3.36057">
        <ele>22.7</ele>
        <time>2020-06-24T09:10:36Z</time>
      </trkpt>
      <trkpt lat="50.48429" lon="3.36065">
        <ele>22.7</ele>
        <time>2020-06-24T09:10:37Z</time>
      </trkpt>
      <trkpt lat="50.48426" lon="3.36073">
        <ele>22.7</ele>
        <time>2020-06-24T09:10:38Z</time>
      </trkpt>
      <trkpt lat="50.48424" lon="3.36081">
        <ele>22.7</ele>
        <time>2020-06-24T09:10:39Z</time>
      </trkpt>
      <trkpt lat="50.48422" lon="3.36088">
        <ele>22.8</ele>
        <time>2020-06-24T09:10:40Z</time>
      </trkpt>
      <trkpt lat="50.48419" lon="3.36097">
        <ele>22.8</ele>
        <time>2020-06-24T09:10:41Z</time>
      </trkpt>
      <trkpt lat="50.48416" lon="3.36105">
        <ele>22.8</ele>
        <time>2020-06-24T09:10:42Z</time>
      </trkpt>
      <trkpt lat="50.48413" lon="3.36113">
        <ele>22.9</ele>
        <time>2020-06-24T09:10:43Z</time>
      </trkpt>
      <trkpt lat="50.48411" lon="3.36122">
        <ele>22.9</ele>
        <time>2020-06-24T09:10:44Z</time>
      </trkpt>
      <trkpt lat="50.48409" lon="3.3613">
        <ele>22.9</ele>
        <time>2020-06-24T09:10:45Z</time>
      </trkpt>
      <trkpt lat="50.48406" lon="3.36139">
        <ele>22.9</ele>
        <time>2020-06-24T09:10:46Z</time>
      </trkpt>
      <trkpt lat="50.48403" lon="3.36147">
        <ele>22.8</ele>
        <time>2020-06-24T09:10:47Z</time>
      </trkpt>
      <trkpt lat="50.484" lon="3.36155">
        <ele>22.8</ele>
        <time>2020-06-24T09:10:48Z</time>
      </trkpt>
      <trkpt lat="50.48398" lon="3.36163">
        <ele>22.8</ele>
        <time>2020-06-24T09:10:49Z</time>
      </trkpt>
      <trkpt lat="50.48395" lon="3.36171">
        <ele>22.7</ele>
        <time>2020-06-24T09:10:50Z</time>
      </trkpt>
      <trkpt lat="50.48393" lon="3.36179">
        <ele>22.7</ele>
        <time>2020-06-24T09:10:51Z</time>
      </trkpt>
      <trkpt lat="50.4839" lon="3.36187">
        <ele>22.7</ele>
        <time>2020-06-24T09:10:52Z</time>
      </trkpt>
      <trkpt lat="50.48387" lon="3.36195">
        <ele>22.6</ele>
        <time>2020-06-24T09:10:53Z</time>
      </trkpt>
      <trkpt lat="50.48383" lon="3.36203">
        <ele>22.6</ele>
        <time>2020-06-24T09:10:54Z</time>
      </trkpt>
      <trkpt lat="50.4838" lon="3.36212">
        <ele>22.5</ele>
        <time>2020-06-24T09:10:55Z</time>
      </trkpt>
      <trkpt lat="50.48376" lon="3.3622">
        <ele>22.5</ele>
        <time>2020-06-24T09:10:56Z</time>
      </trkpt>
      <trkpt lat="50.48373" lon="3.36228">
        <ele>22.4</ele>
        <time>2020-06-24T09:10:57Z</time>
      </trkpt>
      <trkpt lat="50.48369" lon="3.36236">
        <ele>22.3</ele>
        <time>2020-06-24T09:10:58Z</time>
      </trkpt>
      <trkpt lat="50.48364" lon="3.36244">
        <ele>22.2</ele>
        <time>2020-06-24T09:10:59Z</time>
      </trkpt>
      <trkpt lat="50.4836" lon="3.36252">
        <ele>22.1</ele>
        <time>2020-06-24T09:11:00Z</time>
      </trkpt>
      <trkpt lat="50.48356" lon="3.36259">
        <ele>22</ele>
        <time>2020-06-24T09:11:01Z</time>
      </trkpt>
      <trkpt lat="50.48351" lon="3.36268">
        <ele>21.9</ele>
        <time>2020-06-24T09:11:02Z</time>
      </trkpt>
      <trkpt lat="50.48347" lon="3.36275">
        <ele>21.9</ele>
        <time>2020-06-24T09:11:03Z</time>
      </trkpt>
      <trkpt lat="50.48343" lon="3.36283">
        <ele>21.8</ele>
        <time>2020-06-24T09:11:04Z</time>
      </trkpt>
      <trkpt lat="50.48339" lon="3.3629">
        <ele>21.7</ele>
        <time>2020-06-24T09:11:05Z</time>
      </trkpt>
      <trkpt lat="50.48335" lon="3.36298">
        <ele>21.7</ele>
        <time>2020-06-24T09:11:06Z</time>
      </trkpt>
      <trkpt lat="50.4833" lon="3.36306">
        <ele>21.6</ele>
        <time>2020-06-24T09:11:07Z</time>
      </trkpt>
      <trkpt lat="50.48327" lon="3.36314">
        <ele>21.6</ele>
        <time>2020-06-24T09:11:08Z</time>
      </trkpt>
      <trkpt lat="50.48323" lon="3.36322">
        <ele>21.5</ele>
        <time>2020-06-24T09:11:09Z</time>
      </trkpt>
      <trkpt lat="50.48318" lon="3.36332">
        <ele>21.5</ele>
        <time>2020-06-24T09:11:10Z</time>
      </trkpt>
      <trkpt lat="50.48314" lon="3.3634">
        <ele>21.5</ele>
        <time>2020-06-24T09:11:11Z</time>
      </trkpt>
      <trkpt lat="50.48309" lon="3.36349">
        <ele>21.5</ele>
        <time>2020-06-24T09:11:12Z</time>
      </trkpt>
      <trkpt lat="50.48305" lon="3.36356">
        <ele>21.4</ele>
        <time>2020-06-24T09:11:13Z</time>
      </trkpt>
      <trkpt lat="50.48301" lon="3.36364">
        <ele>21.4</ele>
        <time>2020-06-24T09:11:14Z</time>
      </trkpt>
      <trkpt lat="50.48297" lon="3.36372">
        <ele>21.4</ele>
        <time>2020-06-24T09:11:15Z</time>
      </trkpt>
      <trkpt lat="50.48294" lon="3.36379">
        <ele>21.3</ele>
        <time>2020-06-24T09:11:16Z</time>
      </trkpt>
      <trkpt lat="50.4829" lon="3.36387">
        <ele>21.3</ele>
        <time>2020-06-24T09:11:17Z</time>
      </trkpt>
      <trkpt lat="50.48286" lon="3.36394">
        <ele>21.3</ele>
        <time>2020-06-24T09:11:18Z</time>
      </trkpt>
      <trkpt lat="50.48282" lon="3.364">
        <ele>21.3</ele>
        <time>2020-06-24T09:11:19Z</time>
      </trkpt>
      <trkpt lat="50.48278" lon="3.36409">
        <ele>21.3</ele>
        <time>2020-06-24T09:11:20Z</time>
      </trkpt>
      <trkpt lat="50.48273" lon="3.36417">
        <ele>21.2</ele>
        <time>2020-06-24T09:11:21Z</time>
      </trkpt>
      <trkpt lat="50.48269" lon="3.36424">
        <ele>21.2</ele>
        <time>2020-06-24T09:11:22Z</time>
      </trkpt>
      <trkpt lat="50.48264" lon="3.36431">
        <ele>21.1</ele>
        <time>2020-06-24T09:11:23Z</time>
      </trkpt>
      <trkpt lat="50.4826" lon="3.36437">
        <ele>21.1</ele>
        <time>2020-06-24T09:11:24Z</time>
      </trkpt>
      <trkpt lat="50.48255" lon="3.36444">
        <ele>21</ele>
        <time>2020-06-24T09:11:25Z</time>
      </trkpt>
      <trkpt lat="50.48251" lon="3.36452">
        <ele>21</ele>
        <time>2020-06-24T09:11:26Z</time>
      </trkpt>
      <trkpt lat="50.48247" lon="3.36459">
        <ele>21</ele>
        <time>2020-06-24T09:11:27Z</time>
      </trkpt>
      <trkpt lat="50.48242" lon="3.36466">
        <ele>20.9</ele>
        <time>2020-06-24T09:11:28Z</time>
      </trkpt>
      <trkpt lat="50.48237" lon="3.36472">
        <ele>20.9</ele>
        <time>2020-06-24T09:11:29Z</time>
      </trkpt>
      <trkpt lat="50.48233" lon="3.36479">
        <ele>20.9</ele>
        <time>2020-06-24T09:11:30Z</time>
      </trkpt>
      <trkpt lat="50.48228" lon="3.36485">
        <ele>20.9</ele>
        <time>2020-06-24T09:11:31Z</time>
      </trkpt>
      <trkpt lat="50.48222" lon="3.36492">
        <ele>20.9</ele>
        <time>2020-06-24T09:11:32Z</time>
      </trkpt>
      <trkpt lat="50.48217" lon="3.36498">
        <ele>20.8</ele>
        <time>2020-06-24T09:11:33Z</time>
      </trkpt>
      <trkpt lat="50.48213" lon="3.36504">
        <ele>20.8</ele>
        <time>2020-06-24T09:11:34Z</time>
      </trkpt>
      <trkpt lat="50.48208" lon="3.3651">
        <ele>20.8</ele>
        <time>2020-06-24T09:11:35Z</time>
      </trkpt>
      <trkpt lat="50.48204" lon="3.36516">
        <ele>20.8</ele>
        <time>2020-06-24T09:11:36Z</time>
      </trkpt>
      <trkpt lat="50.48199" lon="3.36522">
        <ele>20.8</ele>
        <time>2020-06-24T09:11:37Z</time>
      </trkpt>
      <trkpt lat="50.48193" lon="3.36529">
        <ele>20.8</ele>
        <time>2020-06-24T09:11:38Z</time>
      </trkpt>
      <trkpt lat="50.48188" lon="3.36535">
        <ele>20.8</ele>
        <time>2020-06-24T09:11:39Z</time>
      </trkpt>
      <trkpt lat="50.48183" lon="3.36541">
        <ele>20.8</ele>
        <time>2020-06-24T09:11:40Z</time>
      </trkpt>
      <trkpt lat="50.48178" lon="3.36547">
        <ele>20.8</ele>
        <time>2020-06-24T09:11:41Z</time>
      </trkpt>
      <trkpt lat="50.48173" lon="3.36554">
        <ele>20.7</ele>
        <time>2020-06-24T09:11:42Z</time>
      </trkpt>
      <trkpt lat="50.4817" lon="3.36559">
        <ele>20.7</ele>
        <time>2020-06-24T09:11:43Z</time>
      </trkpt>
      <trkpt lat="50.48167" lon="3.36566">
        <ele>20.7</ele>
        <time>2020-06-24T09:11:44Z</time>
      </trkpt>
      <trkpt lat="50.48164" lon="3.36572">
        <ele>20.7</ele>
        <time>2020-06-24T09:11:45Z</time>
      </trkpt>
      <trkpt lat="50.48162" lon="3.36578">
        <ele>20.7</ele>
        <time>2020-06-24T09:11:46Z</time>
      </trkpt>
      <trkpt lat="50.4816" lon="3.36585">
        <ele>20.8</ele>
        <time>2020-06-24T09:11:47Z</time>
      </trkpt>
      <trkpt lat="50.48159" lon="3.36594">
        <ele>20.8</ele>
        <time>2020-06-24T09:11:48Z</time>
      </trkpt>
      <trkpt lat="50.48157" lon="3.36604">
        <ele>20.8</ele>
        <time>2020-06-24T09:11:49Z</time>
      </trkpt>
      <trkpt lat="50.48156" lon="3.36613">
        <ele>20.8</ele>
        <time>2020-06-24T09:11:50Z</time>
      </trkpt>
      <trkpt lat="50.48155" lon="3.36621">
        <ele>20.8</ele>
        <time>2020-06-24T09:11:51Z</time>
      </trkpt>
      <trkpt lat="50.48153" lon="3.3663">
        <ele>20.8</ele>
        <time>2020-06-24T09:11:52Z</time>
      </trkpt>
      <trkpt lat="50.48152" lon="3.36639">
        <ele>20.9</ele>
        <time>2020-06-24T09:11:53Z</time>
      </trkpt>
      <trkpt lat="50.48151" lon="3.36648">
        <ele>20.9</ele>
        <time>2020-06-24T09:11:54Z</time>
      </trkpt>
      <trkpt lat="50.4815" lon="3.36657">
        <ele>21</ele>
        <time>2020-06-24T09:11:55Z</time>
      </trkpt>
      <trkpt lat="50.48149" lon="3.36666">
        <ele>21</ele>
        <time>2020-06-24T09:11:56Z</time>
      </trkpt>
      <trkpt lat="50.48148" lon="3.36675">
        <ele>21</ele>
        <time>2020-06-24T09:11:57Z</time>
      </trkpt>
      <trkpt lat="50.48146" lon="3.36685">
        <ele>21.1</ele>
        <time>2020-06-24T09:11:58Z</time>
      </trkpt>
      <trkpt lat="50.48145" lon="3.36693">
        <ele>21.2</ele>
        <time>2020-06-24T09:11:59Z</time>
      </trkpt>
      <trkpt lat="50.48144" lon="3.36701">
        <ele>21.3</ele>
        <time>2020-06-24T09:12:00Z</time>
      </trkpt>
      <trkpt lat="50.48143" lon="3.3671">
        <ele>21.4</ele>
        <time>2020-06-24T09:12:01Z</time>
      </trkpt>
      <trkpt lat="50.48142" lon="3.36718">
        <ele>21.4</ele>
        <time>2020-06-24T09:12:02Z</time>
      </trkpt>
      <trkpt lat="50.48141" lon="3.36727">
        <ele>21.4</ele>
        <time>2020-06-24T09:12:03Z</time>
      </trkpt>
      <trkpt lat="50.4814" lon="3.36734">
        <ele>21.3</ele>
        <time>2020-06-24T09:12:04Z</time>
      </trkpt>
      <trkpt lat="50.48139" lon="3.36743">
        <ele>21.3</ele>
        <time>2020-06-24T09:12:05Z</time>
      </trkpt>
      <trkpt lat="50.48138" lon="3.3675">
        <ele>21.3</ele>
        <time>2020-06-24T09:12:06Z</time>
      </trkpt>
      <trkpt lat="50.48137" lon="3.3676">
        <ele>21.3</ele>
        <time>2020-06-24T09:12:07Z</time>
      </trkpt>
      <trkpt lat="50.48136" lon="3.36769">
        <ele>21.3</ele>
        <time>2020-06-24T09:12:08Z</time>
      </trkpt>
      <trkpt lat="50.48135" lon="3.36775">
        <ele>21.3</ele>
        <time>2020-06-24T09:12:09Z</time>
      </trkpt>
      <trkpt lat="50.48133" lon="3.36784">
        <ele>21.3</ele>
        <time>2020-06-24T09:12:10Z</time>
      </trkpt>
      <trkpt lat="50.48131" lon="3.36791">
        <ele>21.4</ele>
        <time>2020-06-24T09:12:11Z</time>
      </trkpt>
      <trkpt lat="50.4813" lon="3.36799">
        <ele>21.4</ele>
        <time>2020-06-24T09:12:12Z</time>
      </trkpt>
      <trkpt lat="50.48128" lon="3.36806">
        <ele>21.5</ele>
        <time>2020-06-24T09:12:13Z</time>
      </trkpt>
      <trkpt lat="50.48127" lon="3.36813">
        <ele>21.5</ele>
        <time>2020-06-24T09:12:14Z</time>
      </trkpt>
      <trkpt lat="50.48126" lon="3.36822">
        <ele>21.6</ele>
        <time>2020-06-24T09:12:15Z</time>
      </trkpt>
      <trkpt lat="50.48124" lon="3.36831">
        <ele>21.6</ele>
        <time>2020-06-24T09:12:16Z</time>
      </trkpt>
      <trkpt lat="50.48122" lon="3.3684">
        <ele>21.7</ele>
        <time>2020-06-24T09:12:17Z</time>
      </trkpt>
      <trkpt lat="50.48119" lon="3.36848">
        <ele>21.7</ele>
        <time>2020-06-24T09:12:18Z</time>
      </trkpt>
      <trkpt lat="50.48117" lon="3.36856">
        <ele>21.8</ele>
        <time>2020-06-24T09:12:19Z</time>
      </trkpt>
      <trkpt lat="50.48115" lon="3.36865">
        <ele>21.8</ele>
        <time>2020-06-24T09:12:20Z</time>
      </trkpt>
      <trkpt lat="50.48112" lon="3.36874">
        <ele>21.8</ele>
        <time>2020-06-24T09:12:21Z</time>
      </trkpt>
      <trkpt lat="50.4811" lon="3.36883">
        <ele>21.7</ele>
        <time>2020-06-24T09:12:22Z</time>
      </trkpt>
      <trkpt lat="50.48108" lon="3.3689">
        <ele>21.7</ele>
        <time>2020-06-24T09:12:23Z</time>
      </trkpt>
      <trkpt lat="50.48106" lon="3.36898">
        <ele>21.7</ele>
        <time>2020-06-24T09:12:24Z</time>
      </trkpt>
      <trkpt lat="50.48103" lon="3.36907">
        <ele>21.7</ele>
        <time>2020-06-24T09:12:25Z</time>
      </trkpt>
      <trkpt lat="50.48101" lon="3.36914">
        <ele>21.6</ele>
        <time>2020-06-24T09:12:26Z</time>
      </trkpt>
      <trkpt lat="50.48099" lon="3.36921">
        <ele>21.6</ele>
        <time>2020-06-24T09:12:27Z</time>
      </trkpt>
      <trkpt lat="50.48096" lon="3.3693">
        <ele>21.5</ele>
        <time>2020-06-24T09:12:28Z</time>
      </trkpt>
      <trkpt lat="50.48094" lon="3.36938">
        <ele>21.5</ele>
        <time>2020-06-24T09:12:29Z</time>
      </trkpt>
      <trkpt lat="50.48092" lon="3.36944">
        <ele>21.4</ele>
        <time>2020-06-24T09:12:30Z</time>
      </trkpt>
      <trkpt lat="50.48089" lon="3.36952">
        <ele>21.4</ele>
        <time>2020-06-24T09:12:31Z</time>
      </trkpt>
      <trkpt lat="50.48087" lon="3.36959">
        <ele>21.4</ele>
        <time>2020-06-24T09:12:32Z</time>
      </trkpt>
      <trkpt lat="50.48084" lon="3.36966">
        <ele>21.3</ele>
        <time>2020-06-24T09:12:33Z</time>
      </trkpt>
      <trkpt lat="50.48082" lon="3.36973">
        <ele>21.3</ele>
        <time>2020-06-24T09:12:34Z</time>
      </trkpt>
      <trkpt lat="50.48079" lon="3.36981">
        <ele>21.3</ele>
        <time>2020-06-24T09:12:35Z</time>
      </trkpt>
      <trkpt lat="50.48076" lon="3.36989">
        <ele>21.3</ele>
        <time>2020-06-24T09:12:36Z</time>
      </trkpt>
      <trkpt lat="50.48073" lon="3.36998">
        <ele>21.2</ele>
        <time>2020-06-24T09:12:37Z</time>
      </trkpt>
      <trkpt lat="50.4807" lon="3.37005">
        <ele>21.2</ele>
        <time>2020-06-24T09:12:38Z</time>
      </trkpt>
      <trkpt lat="50.48067" lon="3.37014">
        <ele>21.2</ele>
        <time>2020-06-24T09:12:39Z</time>
      </trkpt>
      <trkpt lat="50.48064" lon="3.37022">
        <ele>21.2</ele>
        <time>2020-06-24T09:12:40Z</time>
      </trkpt>
      <trkpt lat="50.48061" lon="3.37031">
        <ele>21.2</ele>
        <time>2020-06-24T09:12:41Z</time>
      </trkpt>
      <trkpt lat="50.48058" lon="3.37039">
        <ele>21.1</ele>
        <time>2020-06-24T09:12:42Z</time>
      </trkpt>
      <trkpt lat="50.48055" lon="3.37047">
        <ele>21.1</ele>
        <time>2020-06-24T09:12:43Z</time>
      </trkpt>
      <trkpt lat="50.48052" lon="3.37055">
        <ele>21.1</ele>
        <time>2020-06-24T09:12:44Z</time>
      </trkpt>
      <trkpt lat="50.48049" lon="3.37065">
        <ele>21</ele>
        <time>2020-06-24T09:12:45Z</time>
      </trkpt>
      <trkpt lat="50.48045" lon="3.37074">
        <ele>21</ele>
        <time>2020-06-24T09:12:46Z</time>
      </trkpt>
      <trkpt lat="50.48041" lon="3.37082">
        <ele>20.9</ele>
        <time>2020-06-24T09:12:47Z</time>
      </trkpt>
      <trkpt lat="50.48038" lon="3.3709">
        <ele>20.9</ele>
        <time>2020-06-24T09:12:48Z</time>
      </trkpt>
      <trkpt lat="50.48034" lon="3.37098">
        <ele>20.9</ele>
        <time>2020-06-24T09:12:49Z</time>
      </trkpt>
      <trkpt lat="50.48031" lon="3.37105">
        <ele>20.9</ele>
        <time>2020-06-24T09:12:50Z</time>
      </trkpt>
      <trkpt lat="50.48027" lon="3.37112">
        <ele>20.9</ele>
        <time>2020-06-24T09:12:51Z</time>
      </trkpt>
      <trkpt lat="50.48024" lon="3.37119">
        <ele>20.9</ele>
        <time>2020-06-24T09:12:52Z</time>
      </trkpt>
      <trkpt lat="50.48019" lon="3.37127">
        <ele>20.9</ele>
        <time>2020-06-24T09:12:53Z</time>
      </trkpt>
      <trkpt lat="50.48016" lon="3.37135">
        <ele>20.9</ele>
        <time>2020-06-24T09:12:54Z</time>
      </trkpt>
      <trkpt lat="50.48012" lon="3.37142">
        <ele>20.9</ele>
        <time>2020-06-24T09:12:55Z</time>
      </trkpt>
      <trkpt lat="50.48008" lon="3.37148">
        <ele>20.9</ele>
        <time>2020-06-24T09:12:56Z</time>
      </trkpt>
      <trkpt lat="50.48005" lon="3.37154">
        <ele>20.9</ele>
        <time>2020-06-24T09:12:57Z</time>
      </trkpt>
      <trkpt lat="50.48002" lon="3.37161">
        <ele>20.9</ele>
        <time>2020-06-24T09:12:58Z</time>
      </trkpt>
      <trkpt lat="50.47998" lon="3.37169">
        <ele>20.9</ele>
        <time>2020-06-24T09:12:59Z</time>
      </trkpt>
      <trkpt lat="50.47994" lon="3.37175">
        <ele>20.9</ele>
        <time>2020-06-24T09:13:00Z</time>
      </trkpt>
      <trkpt lat="50.4799" lon="3.37183">
        <ele>20.9</ele>
        <time>2020-06-24T09:13:01Z</time>
      </trkpt>
      <trkpt lat="50.47986" lon="3.37191">
        <ele>21</ele>
        <time>2020-06-24T09:13:02Z</time>
      </trkpt>
      <trkpt lat="50.47983" lon="3.37199">
        <ele>21</ele>
        <time>2020-06-24T09:13:03Z</time>
      </trkpt>
      <trkpt lat="50.47979" lon="3.37206">
        <ele>21</ele>
        <time>2020-06-24T09:13:04Z</time>
      </trkpt>
      <trkpt lat="50.47976" lon="3.37213">
        <ele>21</ele>
        <time>2020-06-24T09:13:05Z</time>
      </trkpt>
      <trkpt lat="50.47972" lon="3.3722">
        <ele>21</ele>
        <time>2020-06-24T09:13:06Z</time>
      </trkpt>
      <trkpt lat="50.47969" lon="3.37228">
        <ele>21.1</ele>
        <time>2020-06-24T09:13:07Z</time>
      </trkpt>
      <trkpt lat="50.47965" lon="3.37234">
        <ele>21.1</ele>
        <time>2020-06-24T09:13:08Z</time>
      </trkpt>
      <trkpt lat="50.47961" lon="3.37242">
        <ele>21.1</ele>
        <time>2020-06-24T09:13:09Z</time>
      </trkpt>
      <trkpt lat="50.47958" lon="3.37249">
        <ele>21.1</ele>
        <time>2020-06-24T09:13:10Z</time>
      </trkpt>
      <trkpt lat="50.47955" lon="3.37255">
        <ele>21.1</ele>
        <time>2020-06-24T09:13:11Z</time>
      </trkpt>
      <trkpt lat="50.47951" lon="3.37263">
        <ele>21.1</ele>
        <time>2020-06-24T09:13:12Z</time>
      </trkpt>
      <trkpt lat="50.47948" lon="3.3727">
        <ele>21.1</ele>
        <time>2020-06-24T09:13:13Z</time>
      </trkpt>
      <trkpt lat="50.47944" lon="3.37276">
        <ele>21.1</ele>
        <time>2020-06-24T09:13:14Z</time>
      </trkpt>
      <trkpt lat="50.47941" lon="3.37283">
        <ele>21.1</ele>
        <time>2020-06-24T09:13:15Z</time>
      </trkpt>
      <trkpt lat="50.47937" lon="3.3729">
        <ele>21.1</ele>
        <time>2020-06-24T09:13:16Z</time>
      </trkpt>
      <trkpt lat="50.47933" lon="3.37298">
        <ele>21</ele>
        <time>2020-06-24T09:13:17Z</time>
      </trkpt>
      <trkpt lat="50.4793" lon="3.37305">
        <ele>21</ele>
        <time>2020-06-24T09:13:18Z</time>
      </trkpt>
      <trkpt lat="50.47927" lon="3.37313">
        <ele>21</ele>
        <time>2020-06-24T09:13:19Z</time>
      </trkpt>
      <trkpt lat="50.47922" lon="3.3732">
        <ele>21</ele>
        <time>2020-06-24T09:13:20Z</time>
      </trkpt>
      <trkpt lat="50.47918" lon="3.37326">
        <ele>21</ele>
        <time>2020-06-24T09:13:21Z</time>
      </trkpt>
      <trkpt lat="50.47915" lon="3.37331">
        <ele>21</ele>
        <time>2020-06-24T09:13:22Z</time>
      </trkpt>
      <trkpt lat="50.4791" lon="3.37338">
        <ele>20.9</ele>
        <time>2020-06-24T09:13:23Z</time>
      </trkpt>
      <trkpt lat="50.47907" lon="3.37343">
        <ele>20.9</ele>
        <time>2020-06-24T09:13:24Z</time>
      </trkpt>
      <trkpt lat="50.47902" lon="3.37347">
        <ele>20.9</ele>
        <time>2020-06-24T09:13:25Z</time>
      </trkpt>
      <trkpt lat="50.47897" lon="3.37352">
        <ele>20.8</ele>
        <time>2020-06-24T09:13:26Z</time>
      </trkpt>
      <trkpt lat="50.47891" lon="3.37359">
        <ele>20.8</ele>
        <time>2020-06-24T09:13:27Z</time>
      </trkpt>
      <trkpt lat="50.47886" lon="3.37364">
        <ele>20.8</ele>
        <time>2020-06-24T09:13:28Z</time>
      </trkpt>
      <trkpt lat="50.47883" lon="3.37368">
        <ele>20.8</ele>
        <time>2020-06-24T09:13:29Z</time>
      </trkpt>
      <trkpt lat="50.47878" lon="3.37372">
        <ele>20.8</ele>
        <time>2020-06-24T09:13:30Z</time>
      </trkpt>
      <trkpt lat="50.47873" lon="3.37378">
        <ele>20.7</ele>
        <time>2020-06-24T09:13:31Z</time>
      </trkpt>
      <trkpt lat="50.47866" lon="3.37382">
        <ele>20.7</ele>
        <time>2020-06-24T09:13:32Z</time>
      </trkpt>
      <trkpt lat="50.47861" lon="3.37386">
        <ele>20.7</ele>
        <time>2020-06-24T09:13:33Z</time>
      </trkpt>
      <trkpt lat="50.47855" lon="3.3739">
        <ele>20.6</ele>
        <time>2020-06-24T09:13:34Z</time>
      </trkpt>
      <trkpt lat="50.47849" lon="3.37392">
        <ele>20.6</ele>
        <time>2020-06-24T09:13:35Z</time>
      </trkpt>
      <trkpt lat="50.47842" lon="3.37397">
        <ele>20.6</ele>
        <time>2020-06-24T09:13:36Z</time>
      </trkpt>
      <trkpt lat="50.47836" lon="3.374">
        <ele>20.6</ele>
        <time>2020-06-24T09:13:37Z</time>
      </trkpt>
      <trkpt lat="50.4783" lon="3.37403">
        <ele>20.5</ele>
        <time>2020-06-24T09:13:38Z</time>
      </trkpt>
      <trkpt lat="50.47825" lon="3.37406">
        <ele>20.5</ele>
        <time>2020-06-24T09:13:39Z</time>
      </trkpt>
      <trkpt lat="50.47819" lon="3.37409">
        <ele>20.5</ele>
        <time>2020-06-24T09:13:40Z</time>
      </trkpt>
      <trkpt lat="50.47813" lon="3.37412">
        <ele>20.4</ele>
        <time>2020-06-24T09:13:41Z</time>
      </trkpt>
      <trkpt lat="50.47807" lon="3.37414">
        <ele>20.3</ele>
        <time>2020-06-24T09:13:42Z</time>
      </trkpt>
      <trkpt lat="50.478" lon="3.37418">
        <ele>20.3</ele>
        <time>2020-06-24T09:13:43Z</time>
      </trkpt>
      <trkpt lat="50.47794" lon="3.37423">
        <ele>20.2</ele>
        <time>2020-06-24T09:13:44Z</time>
      </trkpt>
      <trkpt lat="50.47788" lon="3.37426">
        <ele>20.2</ele>
        <time>2020-06-24T09:13:45Z</time>
      </trkpt>
      <trkpt lat="50.47782" lon="3.37429">
        <ele>20.1</ele>
        <time>2020-06-24T09:13:46Z</time>
      </trkpt>
      <trkpt lat="50.47776" lon="3.37431">
        <ele>20.1</ele>
        <time>2020-06-24T09:13:47Z</time>
      </trkpt>
      <trkpt lat="50.4777" lon="3.37434">
        <ele>20.1</ele>
        <time>2020-06-24T09:13:48Z</time>
      </trkpt>
      <trkpt lat="50.47764" lon="3.37436">
        <ele>20.1</ele>
        <time>2020-06-24T09:13:49Z</time>
      </trkpt>
      <trkpt lat="50.47758" lon="3.37439">
        <ele>20</ele>
        <time>2020-06-24T09:13:50Z</time>
      </trkpt>
      <trkpt lat="50.47752" lon="3.37442">
        <ele>20</ele>
        <time>2020-06-24T09:13:51Z</time>
      </trkpt>
      <trkpt lat="50.47746" lon="3.37445">
        <ele>20</ele>
        <time>2020-06-24T09:13:52Z</time>
      </trkpt>
      <trkpt lat="50.4774" lon="3.37449">
        <ele>20</ele>
        <time>2020-06-24T09:13:53Z</time>
      </trkpt>
      <trkpt lat="50.47734" lon="3.37452">
        <ele>20</ele>
        <time>2020-06-24T09:13:54Z</time>
      </trkpt>
      <trkpt lat="50.47728" lon="3.37456">
        <ele>20</ele>
        <time>2020-06-24T09:13:55Z</time>
      </trkpt>
      <trkpt lat="50.47722" lon="3.37459">
        <ele>20.1</ele>
        <time>2020-06-24T09:13:56Z</time>
      </trkpt>
      <trkpt lat="50.47716" lon="3.37462">
        <ele>20.2</ele>
        <time>2020-06-24T09:13:57Z</time>
      </trkpt>
      <trkpt lat="50.4771" lon="3.37466">
        <ele>20.2</ele>
        <time>2020-06-24T09:13:58Z</time>
      </trkpt>
      <trkpt lat="50.47703" lon="3.3747">
        <ele>20.3</ele>
        <time>2020-06-24T09:13:59Z</time>
      </trkpt>
      <trkpt lat="50.47697" lon="3.37474">
        <ele>20.2</ele>
        <time>2020-06-24T09:14:00Z</time>
      </trkpt>
      <trkpt lat="50.47691" lon="3.37477">
        <ele>20.1</ele>
        <time>2020-06-24T09:14:01Z</time>
      </trkpt>
      <trkpt lat="50.47686" lon="3.37481">
        <ele>20.1</ele>
        <time>2020-06-24T09:14:02Z</time>
      </trkpt>
      <trkpt lat="50.4768" lon="3.37483">
        <ele>20</ele>
        <time>2020-06-24T09:14:03Z</time>
      </trkpt>
      <trkpt lat="50.47675" lon="3.37487">
        <ele>19.9</ele>
        <time>2020-06-24T09:14:04Z</time>
      </trkpt>
      <trkpt lat="50.47669" lon="3.37491">
        <ele>19.9</ele>
        <time>2020-06-24T09:14:05Z</time>
      </trkpt>
      <trkpt lat="50.47664" lon="3.37494">
        <ele>19.8</ele>
        <time>2020-06-24T09:14:06Z</time>
      </trkpt>
      <trkpt lat="50.47658" lon="3.37497">
        <ele>19.8</ele>
        <time>2020-06-24T09:14:07Z</time>
      </trkpt>
      <trkpt lat="50.47652" lon="3.37501">
        <ele>19.8</ele>
        <time>2020-06-24T09:14:08Z</time>
      </trkpt>
      <trkpt lat="50.47647" lon="3.37504">
        <ele>19.8</ele>
        <time>2020-06-24T09:14:09Z</time>
      </trkpt>
      <trkpt lat="50.47641" lon="3.37508">
        <ele>19.8</ele>
        <time>2020-06-24T09:14:10Z</time>
      </trkpt>
      <trkpt lat="50.47635" lon="3.37512">
        <ele>19.7</ele>
        <time>2020-06-24T09:14:11Z</time>
      </trkpt>
      <trkpt lat="50.4763" lon="3.37516">
        <ele>19.7</ele>
        <time>2020-06-24T09:14:12Z</time>
      </trkpt>
      <trkpt lat="50.47624" lon="3.37522">
        <ele>19.6</ele>
        <time>2020-06-24T09:14:13Z</time>
      </trkpt>
      <trkpt lat="50.4762" lon="3.37528">
        <ele>19.6</ele>
        <time>2020-06-24T09:14:14Z</time>
      </trkpt>
      <trkpt lat="50.47616" lon="3.37534">
        <ele>19.6</ele>
        <time>2020-06-24T09:14:15Z</time>
      </trkpt>
      <trkpt lat="50.47613" lon="3.37541">
        <ele>19.6</ele>
        <time>2020-06-24T09:14:16Z</time>
      </trkpt>
      <trkpt lat="50.47611" lon="3.37548">
        <ele>19.6</ele>
        <time>2020-06-24T09:14:17Z</time>
      </trkpt>
      <trkpt lat="50.47608" lon="3.37556">
        <ele>19.7</ele>
        <time>2020-06-24T09:14:18Z</time>
      </trkpt>
      <trkpt lat="50.47605" lon="3.37563">
        <ele>19.7</ele>
        <time>2020-06-24T09:14:19Z</time>
      </trkpt>
      <trkpt lat="50.47602" lon="3.37571">
        <ele>19.7</ele>
        <time>2020-06-24T09:14:20Z</time>
      </trkpt>
      <trkpt lat="50.476" lon="3.37578">
        <ele>19.7</ele>
        <time>2020-06-24T09:14:21Z</time>
      </trkpt>
      <trkpt lat="50.47598" lon="3.37587">
        <ele>19.6</ele>
        <time>2020-06-24T09:14:22Z</time>
      </trkpt>
      <trkpt lat="50.47596" lon="3.37595">
        <ele>19.6</ele>
        <time>2020-06-24T09:14:23Z</time>
      </trkpt>
      <trkpt lat="50.47594" lon="3.37601">
        <ele>19.6</ele>
        <time>2020-06-24T09:14:24Z</time>
      </trkpt>
      <trkpt lat="50.47592" lon="3.37611">
        <ele>19.6</ele>
        <time>2020-06-24T09:14:25Z</time>
      </trkpt>
      <trkpt lat="50.4759" lon="3.37618">
        <ele>19.6</ele>
        <time>2020-06-24T09:14:26Z</time>
      </trkpt>
      <trkpt lat="50.47588" lon="3.37629">
        <ele>19.6</ele>
        <time>2020-06-24T09:14:27Z</time>
      </trkpt>
      <trkpt lat="50.47586" lon="3.37638">
        <ele>19.6</ele>
        <time>2020-06-24T09:14:28Z</time>
      </trkpt>
      <trkpt lat="50.47584" lon="3.37646">
        <ele>19.6</ele>
        <time>2020-06-24T09:14:29Z</time>
      </trkpt>
      <trkpt lat="50.47582" lon="3.37656">
        <ele>19.6</ele>
        <time>2020-06-24T09:14:30Z</time>
      </trkpt>
      <trkpt lat="50.4758" lon="3.37665">
        <ele>19.5</ele>
        <time>2020-06-24T09:14:31Z</time>
      </trkpt>
      <trkpt lat="50.47577" lon="3.37673">
        <ele>19.5</ele>
        <time>2020-06-24T09:14:32Z</time>
      </trkpt>
      <trkpt lat="50.47575" lon="3.37681">
        <ele>19.5</ele>
        <time>2020-06-24T09:14:33Z</time>
      </trkpt>
      <trkpt lat="50.47573" lon="3.3769">
        <ele>19.5</ele>
        <time>2020-06-24T09:14:34Z</time>
      </trkpt>
      <trkpt lat="50.47571" lon="3.37698">
        <ele>19.5</ele>
        <time>2020-06-24T09:14:35Z</time>
      </trkpt>
      <trkpt lat="50.47569" lon="3.37706">
        <ele>19.4</ele>
        <time>2020-06-24T09:14:36Z</time>
      </trkpt>
      <trkpt lat="50.47567" lon="3.37716">
        <ele>19.4</ele>
        <time>2020-06-24T09:14:37Z</time>
      </trkpt>
      <trkpt lat="50.47564" lon="3.37725">
        <ele>19.4</ele>
        <time>2020-06-24T09:14:38Z</time>
      </trkpt>
      <trkpt lat="50.47562" lon="3.37733">
        <ele>19.4</ele>
        <time>2020-06-24T09:14:39Z</time>
      </trkpt>
      <trkpt lat="50.4756" lon="3.37741">
        <ele>19.4</ele>
        <time>2020-06-24T09:14:40Z</time>
      </trkpt>
      <trkpt lat="50.47558" lon="3.37749">
        <ele>19.4</ele>
        <time>2020-06-24T09:14:41Z</time>
      </trkpt>
      <trkpt lat="50.47556" lon="3.37757">
        <ele>19.4</ele>
        <time>2020-06-24T09:14:42Z</time>
      </trkpt>
      <trkpt lat="50.47553" lon="3.37764">
        <ele>19.4</ele>
        <time>2020-06-24T09:14:43Z</time>
      </trkpt>
      <trkpt lat="50.47551" lon="3.37772">
        <ele>19.4</ele>
        <time>2020-06-24T09:14:44Z</time>
      </trkpt>
      <trkpt lat="50.47549" lon="3.37779">
        <ele>19.3</ele>
        <time>2020-06-24T09:14:45Z</time>
      </trkpt>
      <trkpt lat="50.47546" lon="3.37787">
        <ele>19.3</ele>
        <time>2020-06-24T09:14:46Z</time>
      </trkpt>
      <trkpt lat="50.47545" lon="3.37795">
        <ele>19.3</ele>
        <time>2020-06-24T09:14:47Z</time>
      </trkpt>
      <trkpt lat="50.47543" lon="3.37802">
        <ele>19.2</ele>
        <time>2020-06-24T09:14:48Z</time>
      </trkpt>
      <trkpt lat="50.4754" lon="3.37812">
        <ele>19.2</ele>
        <time>2020-06-24T09:14:49Z</time>
      </trkpt>
      <trkpt lat="50.47538" lon="3.37821">
        <ele>19.2</ele>
        <time>2020-06-24T09:14:50Z</time>
      </trkpt>
      <trkpt lat="50.47536" lon="3.37828">
        <ele>19.1</ele>
        <time>2020-06-24T09:14:51Z</time>
      </trkpt>
      <trkpt lat="50.47532" lon="3.37837">
        <ele>19.1</ele>
        <time>2020-06-24T09:14:52Z</time>
      </trkpt>
      <trkpt lat="50.4753" lon="3.37844">
        <ele>19</ele>
        <time>2020-06-24T09:14:53Z</time>
      </trkpt>
      <trkpt lat="50.47528" lon="3.37854">
        <ele>19</ele>
        <time>2020-06-24T09:14:54Z</time>
      </trkpt>
      <trkpt lat="50.47526" lon="3.37863">
        <ele>18.9</ele>
        <time>2020-06-24T09:14:55Z</time>
      </trkpt>
      <trkpt lat="50.47524" lon="3.37872">
        <ele>18.9</ele>
        <time>2020-06-24T09:14:56Z</time>
      </trkpt>
      <trkpt lat="50.47522" lon="3.37881">
        <ele>18.9</ele>
        <time>2020-06-24T09:14:57Z</time>
      </trkpt>
      <trkpt lat="50.47519" lon="3.37889">
        <ele>18.9</ele>
        <time>2020-06-24T09:14:58Z</time>
      </trkpt>
      <trkpt lat="50.47517" lon="3.37897">
        <ele>19</ele>
        <time>2020-06-24T09:14:59Z</time>
      </trkpt>
      <trkpt lat="50.47515" lon="3.37904">
        <ele>19</ele>
        <time>2020-06-24T09:15:00Z</time>
      </trkpt>
      <trkpt lat="50.47512" lon="3.37914">
        <ele>19</ele>
        <time>2020-06-24T09:15:01Z</time>
      </trkpt>
      <trkpt lat="50.47511" lon="3.37922">
        <ele>19</ele>
        <time>2020-06-24T09:15:02Z</time>
      </trkpt>
      <trkpt lat="50.47509" lon="3.37931">
        <ele>19</ele>
        <time>2020-06-24T09:15:03Z</time>
      </trkpt>
      <trkpt lat="50.47506" lon="3.37938">
        <ele>19</ele>
        <time>2020-06-24T09:15:04Z</time>
      </trkpt>
      <trkpt lat="50.47503" lon="3.37947">
        <ele>19</ele>
        <time>2020-06-24T09:15:05Z</time>
      </trkpt>
      <trkpt lat="50.47501" lon="3.37957">
        <ele>19</ele>
        <time>2020-06-24T09:15:06Z</time>
      </trkpt>
      <trkpt lat="50.47498" lon="3.37965">
        <ele>19</ele>
        <time>2020-06-24T09:15:07Z</time>
      </trkpt>
      <trkpt lat="50.47496" lon="3.37973">
        <ele>19.1</ele>
        <time>2020-06-24T09:15:08Z</time>
      </trkpt>
      <trkpt lat="50.47493" lon="3.37983">
        <ele>19.1</ele>
        <time>2020-06-24T09:15:09Z</time>
      </trkpt>
      <trkpt lat="50.47491" lon="3.37993">
        <ele>19.2</ele>
        <time>2020-06-24T09:15:10Z</time>
      </trkpt>
      <trkpt lat="50.47488" lon="3.38003">
        <ele>19.2</ele>
        <time>2020-06-24T09:15:11Z</time>
      </trkpt>
      <trkpt lat="50.47485" lon="3.38013">
        <ele>19.2</ele>
        <time>2020-06-24T09:15:12Z</time>
      </trkpt>
      <trkpt lat="50.47483" lon="3.38021">
        <ele>19.2</ele>
        <time>2020-06-24T09:15:13Z</time>
      </trkpt>
      <trkpt lat="50.47481" lon="3.3803">
        <ele>19.2</ele>
        <time>2020-06-24T09:15:14Z</time>
      </trkpt>
      <trkpt lat="50.47479" lon="3.38038">
        <ele>19.1</ele>
        <time>2020-06-24T09:15:15Z</time>
      </trkpt>
      <trkpt lat="50.47476" lon="3.38047">
        <ele>19.1</ele>
        <time>2020-06-24T09:15:16Z</time>
      </trkpt>
      <trkpt lat="50.47474" lon="3.38056">
        <ele>19.1</ele>
        <time>2020-06-24T09:15:17Z</time>
      </trkpt>
      <trkpt lat="50.47471" lon="3.38065">
        <ele>19.2</ele>
        <time>2020-06-24T09:15:18Z</time>
      </trkpt>
      <trkpt lat="50.47468" lon="3.38075">
        <ele>19.2</ele>
        <time>2020-06-24T09:15:19Z</time>
      </trkpt>
      <trkpt lat="50.47466" lon="3.38084">
        <ele>19.2</ele>
        <time>2020-06-24T09:15:20Z</time>
      </trkpt>
      <trkpt lat="50.47463" lon="3.38092">
        <ele>19.2</ele>
        <time>2020-06-24T09:15:21Z</time>
      </trkpt>
      <trkpt lat="50.4746" lon="3.38101">
        <ele>19.2</ele>
        <time>2020-06-24T09:15:22Z</time>
      </trkpt>
      <trkpt lat="50.47458" lon="3.3811">
        <ele>19.2</ele>
        <time>2020-06-24T09:15:23Z</time>
      </trkpt>
      <trkpt lat="50.47456" lon="3.38118">
        <ele>19.2</ele>
        <time>2020-06-24T09:15:24Z</time>
      </trkpt>
      <trkpt lat="50.47454" lon="3.38126">
        <ele>19.2</ele>
        <time>2020-06-24T09:15:25Z</time>
      </trkpt>
      <trkpt lat="50.47452" lon="3.38133">
        <ele>19.2</ele>
        <time>2020-06-24T09:15:26Z</time>
      </trkpt>
      <trkpt lat="50.47449" lon="3.38141">
        <ele>19.2</ele>
        <time>2020-06-24T09:15:27Z</time>
      </trkpt>
      <trkpt lat="50.47447" lon="3.38149">
        <ele>19.2</ele>
        <time>2020-06-24T09:15:28Z</time>
      </trkpt>
      <trkpt lat="50.47445" lon="3.38159">
        <ele>19.2</ele>
        <time>2020-06-24T09:15:29Z</time>
      </trkpt>
      <trkpt lat="50.47443" lon="3.38168">
        <ele>19.3</ele>
        <time>2020-06-24T09:15:30Z</time>
      </trkpt>
      <trkpt lat="50.47441" lon="3.38177">
        <ele>19.3</ele>
        <time>2020-06-24T09:15:31Z</time>
      </trkpt>
      <trkpt lat="50.47438" lon="3.38185">
        <ele>19.4</ele>
        <time>2020-06-24T09:15:32Z</time>
      </trkpt>
      <trkpt lat="50.47436" lon="3.38195">
        <ele>19.5</ele>
        <time>2020-06-24T09:15:33Z</time>
      </trkpt>
      <trkpt lat="50.47434" lon="3.38202">
        <ele>19.5</ele>
        <time>2020-06-24T09:15:34Z</time>
      </trkpt>
      <trkpt lat="50.47432" lon="3.38212">
        <ele>19.5</ele>
        <time>2020-06-24T09:15:35Z</time>
      </trkpt>
      <trkpt lat="50.4743" lon="3.3822">
        <ele>19.5</ele>
        <time>2020-06-24T09:15:36Z</time>
      </trkpt>
      <trkpt lat="50.47429" lon="3.38229">
        <ele>19.5</ele>
        <time>2020-06-24T09:15:37Z</time>
      </trkpt>
      <trkpt lat="50.47427" lon="3.38237">
        <ele>19.6</ele>
        <time>2020-06-24T09:15:38Z</time>
      </trkpt>
      <trkpt lat="50.47425" lon="3.38246">
        <ele>19.6</ele>
        <time>2020-06-24T09:15:39Z</time>
      </trkpt>
      <trkpt lat="50.47423" lon="3.38254">
        <ele>19.7</ele>
        <time>2020-06-24T09:15:40Z</time>
      </trkpt>
      <trkpt lat="50.47421" lon="3.38262">
        <ele>19.7</ele>
        <time>2020-06-24T09:15:41Z</time>
      </trkpt>
      <trkpt lat="50.47419" lon="3.3827">
        <ele>19.6</ele>
        <time>2020-06-24T09:15:42Z</time>
      </trkpt>
      <trkpt lat="50.47417" lon="3.38279">
        <ele>19.6</ele>
        <time>2020-06-24T09:15:43Z</time>
      </trkpt>
      <trkpt lat="50.47415" lon="3.38288">
        <ele>19.6</ele>
        <time>2020-06-24T09:15:44Z</time>
      </trkpt>
      <trkpt lat="50.47413" lon="3.38296">
        <ele>19.6</ele>
        <time>2020-06-24T09:15:45Z</time>
      </trkpt>
      <trkpt lat="50.4741" lon="3.38303">
        <ele>19.6</ele>
        <time>2020-06-24T09:15:46Z</time>
      </trkpt>
      <trkpt lat="50.47407" lon="3.38311">
        <ele>19.6</ele>
        <time>2020-06-24T09:15:47Z</time>
      </trkpt>
      <trkpt lat="50.47405" lon="3.38319">
        <ele>19.7</ele>
        <time>2020-06-24T09:15:48Z</time>
      </trkpt>
      <trkpt lat="50.47401" lon="3.38327">
        <ele>19.7</ele>
        <time>2020-06-24T09:15:49Z</time>
      </trkpt>
      <trkpt lat="50.47399" lon="3.38336">
        <ele>19.7</ele>
        <time>2020-06-24T09:15:50Z</time>
      </trkpt>
      <trkpt lat="50.47396" lon="3.38345">
        <ele>19.7</ele>
        <time>2020-06-24T09:15:51Z</time>
      </trkpt>
      <trkpt lat="50.47394" lon="3.38353">
        <ele>19.7</ele>
        <time>2020-06-24T09:15:52Z</time>
      </trkpt>
      <trkpt lat="50.47392" lon="3.38361">
        <ele>19.7</ele>
        <time>2020-06-24T09:15:53Z</time>
      </trkpt>
      <trkpt lat="50.47389" lon="3.3837">
        <ele>19.7</ele>
        <time>2020-06-24T09:15:54Z</time>
      </trkpt>
      <trkpt lat="50.47387" lon="3.38379">
        <ele>19.7</ele>
        <time>2020-06-24T09:15:55Z</time>
      </trkpt>
      <trkpt lat="50.47385" lon="3.38387">
        <ele>19.7</ele>
        <time>2020-06-24T09:15:56Z</time>
      </trkpt>
      <trkpt lat="50.47383" lon="3.38395">
        <ele>19.7</ele>
        <time>2020-06-24T09:15:57Z</time>
      </trkpt>
      <trkpt lat="50.47381" lon="3.38403">
        <ele>19.7</ele>
        <time>2020-06-24T09:15:58Z</time>
      </trkpt>
      <trkpt lat="50.47379" lon="3.38411">
        <ele>19.8</ele>
        <time>2020-06-24T09:15:59Z</time>
      </trkpt>
      <trkpt lat="50.47375" lon="3.3842">
        <ele>19.8</ele>
        <time>2020-06-24T09:16:00Z</time>
      </trkpt>
      <trkpt lat="50.47374" lon="3.38428">
        <ele>19.8</ele>
        <time>2020-06-24T09:16:01Z</time>
      </trkpt>
      <trkpt lat="50.47372" lon="3.38437">
        <ele>19.8</ele>
        <time>2020-06-24T09:16:02Z</time>
      </trkpt>
      <trkpt lat="50.4737" lon="3.38445">
        <ele>19.9</ele>
        <time>2020-06-24T09:16:03Z</time>
      </trkpt>
      <trkpt lat="50.47368" lon="3.38453">
        <ele>19.9</ele>
        <time>2020-06-24T09:16:04Z</time>
      </trkpt>
      <trkpt lat="50.47366" lon="3.38461">
        <ele>19.9</ele>
        <time>2020-06-24T09:16:05Z</time>
      </trkpt>
      <trkpt lat="50.47363" lon="3.38469">
        <ele>20</ele>
        <time>2020-06-24T09:16:06Z</time>
      </trkpt>
      <trkpt lat="50.47361" lon="3.38478">
        <ele>20</ele>
        <time>2020-06-24T09:16:07Z</time>
      </trkpt>
      <trkpt lat="50.47359" lon="3.38488">
        <ele>20</ele>
        <time>2020-06-24T09:16:08Z</time>
      </trkpt>
      <trkpt lat="50.47357" lon="3.38497">
        <ele>19.8</ele>
        <time>2020-06-24T09:16:09Z</time>
      </trkpt>
      <trkpt lat="50.47355" lon="3.38505">
        <ele>19.7</ele>
        <time>2020-06-24T09:16:10Z</time>
      </trkpt>
      <trkpt lat="50.47353" lon="3.38512">
        <ele>19.6</ele>
        <time>2020-06-24T09:16:11Z</time>
      </trkpt>
      <trkpt lat="50.47351" lon="3.38522">
        <ele>19.5</ele>
        <time>2020-06-24T09:16:12Z</time>
      </trkpt>
      <trkpt lat="50.47348" lon="3.38532">
        <ele>19.4</ele>
        <time>2020-06-24T09:16:13Z</time>
      </trkpt>
      <trkpt lat="50.47347" lon="3.3854">
        <ele>19.3</ele>
        <time>2020-06-24T09:16:14Z</time>
      </trkpt>
      <trkpt lat="50.47344" lon="3.3855">
        <ele>19.3</ele>
        <time>2020-06-24T09:16:15Z</time>
      </trkpt>
      <trkpt lat="50.47342" lon="3.38557">
        <ele>19.2</ele>
        <time>2020-06-24T09:16:16Z</time>
      </trkpt>
      <trkpt lat="50.4734" lon="3.38566">
        <ele>19.1</ele>
        <time>2020-06-24T09:16:17Z</time>
      </trkpt>
      <trkpt lat="50.47338" lon="3.38576">
        <ele>19.1</ele>
        <time>2020-06-24T09:16:18Z</time>
      </trkpt>
      <trkpt lat="50.47336" lon="3.38584">
        <ele>19</ele>
        <time>2020-06-24T09:16:19Z</time>
      </trkpt>
      <trkpt lat="50.47333" lon="3.38592">
        <ele>19</ele>
        <time>2020-06-24T09:16:20Z</time>
      </trkpt>
      <trkpt lat="50.47331" lon="3.38599">
        <ele>18.9</ele>
        <time>2020-06-24T09:16:21Z</time>
      </trkpt>
      <trkpt lat="50.47329" lon="3.38608">
        <ele>18.9</ele>
        <time>2020-06-24T09:16:22Z</time>
      </trkpt>
      <trkpt lat="50.47327" lon="3.38617">
        <ele>18.8</ele>
        <time>2020-06-24T09:16:23Z</time>
      </trkpt>
      <trkpt lat="50.47324" lon="3.38626">
        <ele>18.7</ele>
        <time>2020-06-24T09:16:24Z</time>
      </trkpt>
      <trkpt lat="50.47321" lon="3.38634">
        <ele>18.7</ele>
        <time>2020-06-24T09:16:25Z</time>
      </trkpt>
      <trkpt lat="50.47319" lon="3.38643">
        <ele>18.6</ele>
        <time>2020-06-24T09:16:26Z</time>
      </trkpt>
      <trkpt lat="50.47316" lon="3.38651">
        <ele>18.5</ele>
        <time>2020-06-24T09:16:27Z</time>
      </trkpt>
      <trkpt lat="50.47314" lon="3.38659">
        <ele>18.5</ele>
        <time>2020-06-24T09:16:28Z</time>
      </trkpt>
      <trkpt lat="50.47312" lon="3.38668">
        <ele>18.4</ele>
        <time>2020-06-24T09:16:29Z</time>
      </trkpt>
      <trkpt lat="50.47309" lon="3.38676">
        <ele>18.3</ele>
        <time>2020-06-24T09:16:30Z</time>
      </trkpt>
      <trkpt lat="50.47308" lon="3.38685">
        <ele>18.3</ele>
        <time>2020-06-24T09:16:31Z</time>
      </trkpt>
      <trkpt lat="50.47305" lon="3.38695">
        <ele>18.2</ele>
        <time>2020-06-24T09:16:32Z</time>
      </trkpt>
      <trkpt lat="50.47303" lon="3.38705">
        <ele>18.2</ele>
        <time>2020-06-24T09:16:33Z</time>
      </trkpt>
      <trkpt lat="50.47301" lon="3.38713">
        <ele>18.2</ele>
        <time>2020-06-24T09:16:34Z</time>
      </trkpt>
      <trkpt lat="50.47299" lon="3.38722">
        <ele>18.1</ele>
        <time>2020-06-24T09:16:35Z</time>
      </trkpt>
      <trkpt lat="50.47297" lon="3.3873">
        <ele>18.1</ele>
        <time>2020-06-24T09:16:36Z</time>
      </trkpt>
      <trkpt lat="50.47294" lon="3.38738">
        <ele>18</ele>
        <time>2020-06-24T09:16:37Z</time>
      </trkpt>
      <trkpt lat="50.47292" lon="3.38746">
        <ele>18</ele>
        <time>2020-06-24T09:16:38Z</time>
      </trkpt>
      <trkpt lat="50.4729" lon="3.38755">
        <ele>18</ele>
        <time>2020-06-24T09:16:39Z</time>
      </trkpt>
      <trkpt lat="50.47289" lon="3.38765">
        <ele>17.9</ele>
        <time>2020-06-24T09:16:40Z</time>
      </trkpt>
      <trkpt lat="50.47286" lon="3.38774">
        <ele>17.9</ele>
        <time>2020-06-24T09:16:41Z</time>
      </trkpt>
      <trkpt lat="50.47285" lon="3.38783">
        <ele>17.9</ele>
        <time>2020-06-24T09:16:42Z</time>
      </trkpt>
      <trkpt lat="50.47283" lon="3.38793">
        <ele>17.8</ele>
        <time>2020-06-24T09:16:43Z</time>
      </trkpt>
      <trkpt lat="50.47282" lon="3.38802">
        <ele>17.7</ele>
        <time>2020-06-24T09:16:44Z</time>
      </trkpt>
      <trkpt lat="50.4728" lon="3.3881">
        <ele>17.7</ele>
        <time>2020-06-24T09:16:45Z</time>
      </trkpt>
      <trkpt lat="50.47277" lon="3.38818">
        <ele>17.8</ele>
        <time>2020-06-24T09:16:46Z</time>
      </trkpt>
      <trkpt lat="50.47274" lon="3.38826">
        <ele>17.8</ele>
        <time>2020-06-24T09:16:47Z</time>
      </trkpt>
      <trkpt lat="50.4727" lon="3.38834">
        <ele>17.8</ele>
        <time>2020-06-24T09:16:48Z</time>
      </trkpt>
      <trkpt lat="50.47266" lon="3.3884">
        <ele>17.9</ele>
        <time>2020-06-24T09:16:49Z</time>
      </trkpt>
      <trkpt lat="50.47262" lon="3.38847">
        <ele>17.9</ele>
        <time>2020-06-24T09:16:50Z</time>
      </trkpt>
      <trkpt lat="50.47257" lon="3.38855">
        <ele>18</ele>
        <time>2020-06-24T09:16:51Z</time>
      </trkpt>
      <trkpt lat="50.47253" lon="3.38862">
        <ele>18.1</ele>
        <time>2020-06-24T09:16:52Z</time>
      </trkpt>
      <trkpt lat="50.47248" lon="3.38869">
        <ele>18.1</ele>
        <time>2020-06-24T09:16:53Z</time>
      </trkpt>
      <trkpt lat="50.47244" lon="3.38877">
        <ele>18.2</ele>
        <time>2020-06-24T09:16:54Z</time>
      </trkpt>
      <trkpt lat="50.4724" lon="3.38885">
        <ele>18.2</ele>
        <time>2020-06-24T09:16:55Z</time>
      </trkpt>
      <trkpt lat="50.47235" lon="3.38893">
        <ele>18.2</ele>
        <time>2020-06-24T09:16:56Z</time>
      </trkpt>
      <trkpt lat="50.4723" lon="3.38901">
        <ele>18.2</ele>
        <time>2020-06-24T09:16:57Z</time>
      </trkpt>
      <trkpt lat="50.47226" lon="3.38907">
        <ele>18.2</ele>
        <time>2020-06-24T09:16:58Z</time>
      </trkpt>
      <trkpt lat="50.47222" lon="3.38913">
        <ele>18.3</ele>
        <time>2020-06-24T09:16:59Z</time>
      </trkpt>
      <trkpt lat="50.47218" lon="3.3892">
        <ele>18.3</ele>
        <time>2020-06-24T09:17:00Z</time>
      </trkpt>
      <trkpt lat="50.47214" lon="3.38928">
        <ele>18.4</ele>
        <time>2020-06-24T09:17:01Z</time>
      </trkpt>
      <trkpt lat="50.4721" lon="3.38936">
        <ele>18.4</ele>
        <time>2020-06-24T09:17:02Z</time>
      </trkpt>
      <trkpt lat="50.47207" lon="3.38945">
        <ele>18.4</ele>
        <time>2020-06-24T09:17:03Z</time>
      </trkpt>
      <trkpt lat="50.47205" lon="3.38953">
        <ele>18.5</ele>
        <time>2020-06-24T09:17:04Z</time>
      </trkpt>
      <trkpt lat="50.47204" lon="3.38961">
        <ele>18.5</ele>
        <time>2020-06-24T09:17:05Z</time>
      </trkpt>
      <trkpt lat="50.47201" lon="3.3897">
        <ele>18.5</ele>
        <time>2020-06-24T09:17:06Z</time>
      </trkpt>
      <trkpt lat="50.47198" lon="3.38979">
        <ele>18.4</ele>
        <time>2020-06-24T09:17:07Z</time>
      </trkpt>
      <trkpt lat="50.47195" lon="3.38987">
        <ele>18.4</ele>
        <time>2020-06-24T09:17:08Z</time>
      </trkpt>
      <trkpt lat="50.47191" lon="3.38995">
        <ele>18.4</ele>
        <time>2020-06-24T09:17:09Z</time>
      </trkpt>
      <trkpt lat="50.47188" lon="3.39004">
        <ele>18.4</ele>
        <time>2020-06-24T09:17:10Z</time>
      </trkpt>
      <trkpt lat="50.47185" lon="3.39012">
        <ele>18.4</ele>
        <time>2020-06-24T09:17:11Z</time>
      </trkpt>
      <trkpt lat="50.47183" lon="3.39021">
        <ele>18.5</ele>
        <time>2020-06-24T09:17:12Z</time>
      </trkpt>
      <trkpt lat="50.47181" lon="3.39028">
        <ele>18.5</ele>
        <time>2020-06-24T09:17:13Z</time>
      </trkpt>
      <trkpt lat="50.47178" lon="3.39036">
        <ele>18.5</ele>
        <time>2020-06-24T09:17:14Z</time>
      </trkpt>
      <trkpt lat="50.47176" lon="3.39044">
        <ele>18.5</ele>
        <time>2020-06-24T09:17:15Z</time>
      </trkpt>
      <trkpt lat="50.47173" lon="3.39052">
        <ele>18.5</ele>
        <time>2020-06-24T09:17:16Z</time>
      </trkpt>
      <trkpt lat="50.47171" lon="3.39061">
        <ele>18.6</ele>
        <time>2020-06-24T09:17:17Z</time>
      </trkpt>
      <trkpt lat="50.47169" lon="3.39071">
        <ele>18.6</ele>
        <time>2020-06-24T09:17:18Z</time>
      </trkpt>
      <trkpt lat="50.47167" lon="3.39081">
        <ele>18.6</ele>
        <time>2020-06-24T09:17:19Z</time>
      </trkpt>
      <trkpt lat="50.47165" lon="3.39091">
        <ele>18.6</ele>
        <time>2020-06-24T09:17:20Z</time>
      </trkpt>
      <trkpt lat="50.47164" lon="3.39099">
        <ele>18.6</ele>
        <time>2020-06-24T09:17:21Z</time>
      </trkpt>
      <trkpt lat="50.47162" lon="3.39107">
        <ele>18.5</ele>
        <time>2020-06-24T09:17:22Z</time>
      </trkpt>
      <trkpt lat="50.4716" lon="3.39116">
        <ele>18.5</ele>
        <time>2020-06-24T09:17:23Z</time>
      </trkpt>
      <trkpt lat="50.47159" lon="3.39126">
        <ele>18.5</ele>
        <time>2020-06-24T09:17:24Z</time>
      </trkpt>
      <trkpt lat="50.47157" lon="3.39136">
        <ele>18.5</ele>
        <time>2020-06-24T09:17:25Z</time>
      </trkpt>
      <trkpt lat="50.47155" lon="3.39146">
        <ele>18.5</ele>
        <time>2020-06-24T09:17:26Z</time>
      </trkpt>
      <trkpt lat="50.47154" lon="3.39155">
        <ele>18.5</ele>
        <time>2020-06-24T09:17:27Z</time>
      </trkpt>
      <trkpt lat="50.47152" lon="3.39165">
        <ele>18.5</ele>
        <time>2020-06-24T09:17:28Z</time>
      </trkpt>
      <trkpt lat="50.4715" lon="3.39173">
        <ele>18.5</ele>
        <time>2020-06-24T09:17:29Z</time>
      </trkpt>
      <trkpt lat="50.47147" lon="3.39181">
        <ele>18.5</ele>
        <time>2020-06-24T09:17:30Z</time>
      </trkpt>
      <trkpt lat="50.47144" lon="3.3919">
        <ele>18.5</ele>
        <time>2020-06-24T09:17:31Z</time>
      </trkpt>
      <trkpt lat="50.4714" lon="3.39199">
        <ele>18.5</ele>
        <time>2020-06-24T09:17:32Z</time>
      </trkpt>
      <trkpt lat="50.47137" lon="3.39208">
        <ele>18.6</ele>
        <time>2020-06-24T09:17:33Z</time>
      </trkpt>
      <trkpt lat="50.47134" lon="3.39216">
        <ele>18.7</ele>
        <time>2020-06-24T09:17:34Z</time>
      </trkpt>
      <trkpt lat="50.47132" lon="3.39225">
        <ele>18.7</ele>
        <time>2020-06-24T09:17:35Z</time>
      </trkpt>
      <trkpt lat="50.47129" lon="3.39233">
        <ele>18.8</ele>
        <time>2020-06-24T09:17:36Z</time>
      </trkpt>
      <trkpt lat="50.47126" lon="3.39241">
        <ele>18.9</ele>
        <time>2020-06-24T09:17:37Z</time>
      </trkpt>
      <trkpt lat="50.47123" lon="3.39248">
        <ele>18.9</ele>
        <time>2020-06-24T09:17:38Z</time>
      </trkpt>
      <trkpt lat="50.4712" lon="3.39256">
        <ele>18.9</ele>
        <time>2020-06-24T09:17:39Z</time>
      </trkpt>
      <trkpt lat="50.47117" lon="3.39264">
        <ele>18.9</ele>
        <time>2020-06-24T09:17:40Z</time>
      </trkpt>
      <trkpt lat="50.47115" lon="3.39273">
        <ele>18.9</ele>
        <time>2020-06-24T09:17:41Z</time>
      </trkpt>
      <trkpt lat="50.47111" lon="3.39283">
        <ele>19</ele>
        <time>2020-06-24T09:17:42Z</time>
      </trkpt>
      <trkpt lat="50.47109" lon="3.39293">
        <ele>19</ele>
        <time>2020-06-24T09:17:43Z</time>
      </trkpt>
      <trkpt lat="50.47107" lon="3.39302">
        <ele>19.1</ele>
        <time>2020-06-24T09:17:44Z</time>
      </trkpt>
      <trkpt lat="50.47105" lon="3.39312">
        <ele>19.1</ele>
        <time>2020-06-24T09:17:45Z</time>
      </trkpt>
      <trkpt lat="50.47102" lon="3.39322">
        <ele>19.2</ele>
        <time>2020-06-24T09:17:46Z</time>
      </trkpt>
      <trkpt lat="50.471" lon="3.39332">
        <ele>19.2</ele>
        <time>2020-06-24T09:17:47Z</time>
      </trkpt>
      <trkpt lat="50.47098" lon="3.39342">
        <ele>19.2</ele>
        <time>2020-06-24T09:17:48Z</time>
      </trkpt>
      <trkpt lat="50.47097" lon="3.39352">
        <ele>19.3</ele>
        <time>2020-06-24T09:17:49Z</time>
      </trkpt>
      <trkpt lat="50.47095" lon="3.39362">
        <ele>19.3</ele>
        <time>2020-06-24T09:17:50Z</time>
      </trkpt>
      <trkpt lat="50.47093" lon="3.39373">
        <ele>19.4</ele>
        <time>2020-06-24T09:17:51Z</time>
      </trkpt>
      <trkpt lat="50.47092" lon="3.39382">
        <ele>19.4</ele>
        <time>2020-06-24T09:17:52Z</time>
      </trkpt>
      <trkpt lat="50.4709" lon="3.39392">
        <ele>19.5</ele>
        <time>2020-06-24T09:17:53Z</time>
      </trkpt>
      <trkpt lat="50.47088" lon="3.39402">
        <ele>19.5</ele>
        <time>2020-06-24T09:17:54Z</time>
      </trkpt>
      <trkpt lat="50.47087" lon="3.39412">
        <ele>19.5</ele>
        <time>2020-06-24T09:17:55Z</time>
      </trkpt>
      <trkpt lat="50.47085" lon="3.39422">
        <ele>19.5</ele>
        <time>2020-06-24T09:17:56Z</time>
      </trkpt>
      <trkpt lat="50.47084" lon="3.39433">
        <ele>19.6</ele>
        <time>2020-06-24T09:17:57Z</time>
      </trkpt>
      <trkpt lat="50.47082" lon="3.39443">
        <ele>19.6</ele>
        <time>2020-06-24T09:17:58Z</time>
      </trkpt>
      <trkpt lat="50.4708" lon="3.39454">
        <ele>19.6</ele>
        <time>2020-06-24T09:17:59Z</time>
      </trkpt>
      <trkpt lat="50.47079" lon="3.39465">
        <ele>19.5</ele>
        <time>2020-06-24T09:18:00Z</time>
      </trkpt>
      <trkpt lat="50.47077" lon="3.39477">
        <ele>19.4</ele>
        <time>2020-06-24T09:18:01Z</time>
      </trkpt>
      <trkpt lat="50.47076" lon="3.39487">
        <ele>19.3</ele>
        <time>2020-06-24T09:18:02Z</time>
      </trkpt>
      <trkpt lat="50.47074" lon="3.39496">
        <ele>19.1</ele>
        <time>2020-06-24T09:18:03Z</time>
      </trkpt>
      <trkpt lat="50.47072" lon="3.39506">
        <ele>19</ele>
        <time>2020-06-24T09:18:04Z</time>
      </trkpt>
      <trkpt lat="50.4707" lon="3.39516">
        <ele>18.9</ele>
        <time>2020-06-24T09:18:05Z</time>
      </trkpt>
      <trkpt lat="50.47068" lon="3.39525">
        <ele>18.9</ele>
        <time>2020-06-24T09:18:06Z</time>
      </trkpt>
      <trkpt lat="50.47065" lon="3.39535">
        <ele>18.8</ele>
        <time>2020-06-24T09:18:07Z</time>
      </trkpt>
      <trkpt lat="50.47063" lon="3.39545">
        <ele>18.7</ele>
        <time>2020-06-24T09:18:08Z</time>
      </trkpt>
      <trkpt lat="50.4706" lon="3.39554">
        <ele>18.6</ele>
        <time>2020-06-24T09:18:09Z</time>
      </trkpt>
      <trkpt lat="50.47058" lon="3.39564">
        <ele>18.5</ele>
        <time>2020-06-24T09:18:10Z</time>
      </trkpt>
      <trkpt lat="50.47056" lon="3.39572">
        <ele>18.5</ele>
        <time>2020-06-24T09:18:11Z</time>
      </trkpt>
      <trkpt lat="50.47053" lon="3.39581">
        <ele>18.4</ele>
        <time>2020-06-24T09:18:12Z</time>
      </trkpt>
      <trkpt lat="50.47051" lon="3.39591">
        <ele>18.4</ele>
        <time>2020-06-24T09:18:13Z</time>
      </trkpt>
      <trkpt lat="50.47049" lon="3.396">
        <ele>18.3</ele>
        <time>2020-06-24T09:18:14Z</time>
      </trkpt>
      <trkpt lat="50.47046" lon="3.3961">
        <ele>18.2</ele>
        <time>2020-06-24T09:18:15Z</time>
      </trkpt>
      <trkpt lat="50.47044" lon="3.39619">
        <ele>18.1</ele>
        <time>2020-06-24T09:18:16Z</time>
      </trkpt>
      <trkpt lat="50.47042" lon="3.39629">
        <ele>18.1</ele>
        <time>2020-06-24T09:18:17Z</time>
      </trkpt>
      <trkpt lat="50.4704" lon="3.39639">
        <ele>18</ele>
        <time>2020-06-24T09:18:18Z</time>
      </trkpt>
      <trkpt lat="50.47038" lon="3.39649">
        <ele>18</ele>
        <time>2020-06-24T09:18:19Z</time>
      </trkpt>
      <trkpt lat="50.47035" lon="3.39659">
        <ele>17.9</ele>
        <time>2020-06-24T09:18:20Z</time>
      </trkpt>
      <trkpt lat="50.47031" lon="3.39668">
        <ele>17.8</ele>
        <time>2020-06-24T09:18:21Z</time>
      </trkpt>
      <trkpt lat="50.47028" lon="3.39677">
        <ele>17.8</ele>
        <time>2020-06-24T09:18:22Z</time>
      </trkpt>
      <trkpt lat="50.47025" lon="3.39687">
        <ele>17.7</ele>
        <time>2020-06-24T09:18:23Z</time>
      </trkpt>
      <trkpt lat="50.47023" lon="3.39696">
        <ele>17.6</ele>
        <time>2020-06-24T09:18:24Z</time>
      </trkpt>
      <trkpt lat="50.4702" lon="3.39706">
        <ele>17.6</ele>
        <time>2020-06-24T09:18:25Z</time>
      </trkpt>
      <trkpt lat="50.47017" lon="3.39715">
        <ele>17.5</ele>
        <time>2020-06-24T09:18:26Z</time>
      </trkpt>
      <trkpt lat="50.47014" lon="3.39724">
        <ele>17.4</ele>
        <time>2020-06-24T09:18:27Z</time>
      </trkpt>
      <trkpt lat="50.47011" lon="3.39733">
        <ele>17.4</ele>
        <time>2020-06-24T09:18:28Z</time>
      </trkpt>
      <trkpt lat="50.47007" lon="3.39742">
        <ele>17.4</ele>
        <time>2020-06-24T09:18:29Z</time>
      </trkpt>
      <trkpt lat="50.47003" lon="3.3975">
        <ele>17.4</ele>
        <time>2020-06-24T09:18:30Z</time>
      </trkpt>
      <trkpt lat="50.46999" lon="3.39757">
        <ele>17.4</ele>
        <time>2020-06-24T09:18:31Z</time>
      </trkpt>
      <trkpt lat="50.46995" lon="3.39765">
        <ele>17.4</ele>
        <time>2020-06-24T09:18:32Z</time>
      </trkpt>
      <trkpt lat="50.4699" lon="3.39771">
        <ele>17.4</ele>
        <time>2020-06-24T09:18:33Z</time>
      </trkpt>
      <trkpt lat="50.46984" lon="3.39776">
        <ele>17.5</ele>
        <time>2020-06-24T09:18:34Z</time>
      </trkpt>
      <trkpt lat="50.46978" lon="3.39782">
        <ele>17.5</ele>
        <time>2020-06-24T09:18:35Z</time>
      </trkpt>
      <trkpt lat="50.46973" lon="3.39788">
        <ele>17.6</ele>
        <time>2020-06-24T09:18:36Z</time>
      </trkpt>
      <trkpt lat="50.46968" lon="3.39794">
        <ele>17.6</ele>
        <time>2020-06-24T09:18:37Z</time>
      </trkpt>
      <trkpt lat="50.46963" lon="3.39799">
        <ele>17.7</ele>
        <time>2020-06-24T09:18:38Z</time>
      </trkpt>
      <trkpt lat="50.46957" lon="3.39805">
        <ele>17.7</ele>
        <time>2020-06-24T09:18:39Z</time>
      </trkpt>
      <trkpt lat="50.46952" lon="3.3981">
        <ele>17.7</ele>
        <time>2020-06-24T09:18:40Z</time>
      </trkpt>
      <trkpt lat="50.46947" lon="3.39815">
        <ele>17.8</ele>
        <time>2020-06-24T09:18:41Z</time>
      </trkpt>
      <trkpt lat="50.46941" lon="3.39821">
        <ele>17.8</ele>
        <time>2020-06-24T09:18:42Z</time>
      </trkpt>
      <trkpt lat="50.46935" lon="3.39825">
        <ele>17.8</ele>
        <time>2020-06-24T09:18:43Z</time>
      </trkpt>
      <trkpt lat="50.4693" lon="3.39831">
        <ele>17.9</ele>
        <time>2020-06-24T09:18:44Z</time>
      </trkpt>
      <trkpt lat="50.46924" lon="3.39837">
        <ele>17.9</ele>
        <time>2020-06-24T09:18:45Z</time>
      </trkpt>
      <trkpt lat="50.4692" lon="3.39843">
        <ele>17.9</ele>
        <time>2020-06-24T09:18:46Z</time>
      </trkpt>
      <trkpt lat="50.46915" lon="3.3985">
        <ele>17.9</ele>
        <time>2020-06-24T09:18:47Z</time>
      </trkpt>
      <trkpt lat="50.4691" lon="3.39856">
        <ele>18</ele>
        <time>2020-06-24T09:18:48Z</time>
      </trkpt>
      <trkpt lat="50.46904" lon="3.39862">
        <ele>18</ele>
        <time>2020-06-24T09:18:49Z</time>
      </trkpt>
      <trkpt lat="50.46899" lon="3.39869">
        <ele>18</ele>
        <time>2020-06-24T09:18:50Z</time>
      </trkpt>
      <trkpt lat="50.46894" lon="3.39876">
        <ele>18.1</ele>
        <time>2020-06-24T09:18:51Z</time>
      </trkpt>
      <trkpt lat="50.46889" lon="3.39883">
        <ele>18.1</ele>
        <time>2020-06-24T09:18:52Z</time>
      </trkpt>
      <trkpt lat="50.46884" lon="3.3989">
        <ele>18.1</ele>
        <time>2020-06-24T09:18:53Z</time>
      </trkpt>
      <trkpt lat="50.46879" lon="3.39898">
        <ele>18.2</ele>
        <time>2020-06-24T09:18:54Z</time>
      </trkpt>
      <trkpt lat="50.46874" lon="3.39905">
        <ele>18.1</ele>
        <time>2020-06-24T09:18:55Z</time>
      </trkpt>
      <trkpt lat="50.4687" lon="3.39912">
        <ele>18</ele>
        <time>2020-06-24T09:18:56Z</time>
      </trkpt>
      <trkpt lat="50.46866" lon="3.39919">
        <ele>17.9</ele>
        <time>2020-06-24T09:18:57Z</time>
      </trkpt>
      <trkpt lat="50.46862" lon="3.39927">
        <ele>17.9</ele>
        <time>2020-06-24T09:18:58Z</time>
      </trkpt>
      <trkpt lat="50.46858" lon="3.39935">
        <ele>17.8</ele>
        <time>2020-06-24T09:18:59Z</time>
      </trkpt>
      <trkpt lat="50.46854" lon="3.39944">
        <ele>17.8</ele>
        <time>2020-06-24T09:19:00Z</time>
      </trkpt>
      <trkpt lat="50.4685" lon="3.39952">
        <ele>17.8</ele>
        <time>2020-06-24T09:19:01Z</time>
      </trkpt>
      <trkpt lat="50.46845" lon="3.3996">
        <ele>17.8</ele>
        <time>2020-06-24T09:19:02Z</time>
      </trkpt>
      <trkpt lat="50.46841" lon="3.39968">
        <ele>17.8</ele>
        <time>2020-06-24T09:19:03Z</time>
      </trkpt>
      <trkpt lat="50.46837" lon="3.39976">
        <ele>17.8</ele>
        <time>2020-06-24T09:19:04Z</time>
      </trkpt>
      <trkpt lat="50.46832" lon="3.39984">
        <ele>17.7</ele>
        <time>2020-06-24T09:19:05Z</time>
      </trkpt>
      <trkpt lat="50.46827" lon="3.39991">
        <ele>17.7</ele>
        <time>2020-06-24T09:19:06Z</time>
      </trkpt>
      <trkpt lat="50.46822" lon="3.4">
        <ele>17.7</ele>
        <time>2020-06-24T09:19:07Z</time>
      </trkpt>
      <trkpt lat="50.46818" lon="3.40007">
        <ele>17.7</ele>
        <time>2020-06-24T09:19:08Z</time>
      </trkpt>
      <trkpt lat="50.46813" lon="3.40015">
        <ele>17.7</ele>
        <time>2020-06-24T09:19:09Z</time>
      </trkpt>
      <trkpt lat="50.46807" lon="3.40023">
        <ele>17.8</ele>
        <time>2020-06-24T09:19:10Z</time>
      </trkpt>
      <trkpt lat="50.46802" lon="3.4003">
        <ele>17.8</ele>
        <time>2020-06-24T09:19:11Z</time>
      </trkpt>
      <trkpt lat="50.46796" lon="3.40036">
        <ele>17.9</ele>
        <time>2020-06-24T09:19:12Z</time>
      </trkpt>
      <trkpt lat="50.46791" lon="3.40043">
        <ele>17.8</ele>
        <time>2020-06-24T09:19:13Z</time>
      </trkpt>
      <trkpt lat="50.46785" lon="3.40049">
        <ele>17.8</ele>
        <time>2020-06-24T09:19:14Z</time>
      </trkpt>
      <trkpt lat="50.46779" lon="3.40054">
        <ele>17.7</ele>
        <time>2020-06-24T09:19:15Z</time>
      </trkpt>
      <trkpt lat="50.46775" lon="3.40061">
        <ele>17.7</ele>
        <time>2020-06-24T09:19:16Z</time>
      </trkpt>
      <trkpt lat="50.4677" lon="3.40069">
        <ele>17.7</ele>
        <time>2020-06-24T09:19:17Z</time>
      </trkpt>
      <trkpt lat="50.46764" lon="3.40074">
        <ele>17.7</ele>
        <time>2020-06-24T09:19:18Z</time>
      </trkpt>
      <trkpt lat="50.46759" lon="3.40081">
        <ele>17.6</ele>
        <time>2020-06-24T09:19:19Z</time>
      </trkpt>
      <trkpt lat="50.46754" lon="3.40087">
        <ele>17.6</ele>
        <time>2020-06-24T09:19:20Z</time>
      </trkpt>
      <trkpt lat="50.46748" lon="3.40093">
        <ele>17.6</ele>
        <time>2020-06-24T09:19:21Z</time>
      </trkpt>
      <trkpt lat="50.46744" lon="3.401">
        <ele>17.6</ele>
        <time>2020-06-24T09:19:22Z</time>
      </trkpt>
      <trkpt lat="50.46738" lon="3.40105">
        <ele>17.6</ele>
        <time>2020-06-24T09:19:23Z</time>
      </trkpt>
      <trkpt lat="50.46733" lon="3.40111">
        <ele>17.6</ele>
        <time>2020-06-24T09:19:24Z</time>
      </trkpt>
      <trkpt lat="50.46728" lon="3.40117">
        <ele>17.6</ele>
        <time>2020-06-24T09:19:25Z</time>
      </trkpt>
      <trkpt lat="50.46724" lon="3.40122">
        <ele>17.6</ele>
        <time>2020-06-24T09:19:26Z</time>
      </trkpt>
      <trkpt lat="50.46722" lon="3.40129">
        <ele>17.5</ele>
        <time>2020-06-24T09:19:27Z</time>
      </trkpt>
      <trkpt lat="50.4672" lon="3.40137">
        <ele>17.5</ele>
        <time>2020-06-24T09:19:28Z</time>
      </trkpt>
      <trkpt lat="50.46719" lon="3.40146">
        <ele>17.4</ele>
        <time>2020-06-24T09:19:29Z</time>
      </trkpt>
      <trkpt lat="50.46717" lon="3.40154">
        <ele>17.4</ele>
        <time>2020-06-24T09:19:30Z</time>
      </trkpt>
      <trkpt lat="50.46715" lon="3.40163">
        <ele>17.3</ele>
        <time>2020-06-24T09:19:31Z</time>
      </trkpt>
      <trkpt lat="50.46713" lon="3.40171">
        <ele>17.3</ele>
        <time>2020-06-24T09:19:32Z</time>
      </trkpt>
      <trkpt lat="50.46711" lon="3.4018">
        <ele>17.2</ele>
        <time>2020-06-24T09:19:33Z</time>
      </trkpt>
      <trkpt lat="50.46709" lon="3.40189">
        <ele>17.1</ele>
        <time>2020-06-24T09:19:34Z</time>
      </trkpt>
      <trkpt lat="50.46707" lon="3.40198">
        <ele>17.1</ele>
        <time>2020-06-24T09:19:35Z</time>
      </trkpt>
      <trkpt lat="50.46705" lon="3.40207">
        <ele>17.1</ele>
        <time>2020-06-24T09:19:36Z</time>
      </trkpt>
      <trkpt lat="50.46703" lon="3.40216">
        <ele>17.1</ele>
        <time>2020-06-24T09:19:37Z</time>
      </trkpt>
      <trkpt lat="50.46701" lon="3.40225">
        <ele>17.1</ele>
        <time>2020-06-24T09:19:38Z</time>
      </trkpt>
      <trkpt lat="50.46699" lon="3.40235">
        <ele>17.2</ele>
        <time>2020-06-24T09:19:39Z</time>
      </trkpt>
      <trkpt lat="50.46697" lon="3.40244">
        <ele>17.2</ele>
        <time>2020-06-24T09:19:40Z</time>
      </trkpt>
      <trkpt lat="50.46694" lon="3.40253">
        <ele>17.2</ele>
        <time>2020-06-24T09:19:41Z</time>
      </trkpt>
      <trkpt lat="50.46693" lon="3.40262">
        <ele>17.2</ele>
        <time>2020-06-24T09:19:42Z</time>
      </trkpt>
      <trkpt lat="50.46692" lon="3.40271">
        <ele>17.2</ele>
        <time>2020-06-24T09:19:43Z</time>
      </trkpt>
      <trkpt lat="50.4669" lon="3.4028">
        <ele>17.2</ele>
        <time>2020-06-24T09:19:44Z</time>
      </trkpt>
      <trkpt lat="50.46688" lon="3.40288">
        <ele>17.2</ele>
        <time>2020-06-24T09:19:45Z</time>
      </trkpt>
      <trkpt lat="50.46686" lon="3.40297">
        <ele>17.2</ele>
        <time>2020-06-24T09:19:46Z</time>
      </trkpt>
      <trkpt lat="50.46685" lon="3.40306">
        <ele>17.3</ele>
        <time>2020-06-24T09:19:47Z</time>
      </trkpt>
      <trkpt lat="50.46684" lon="3.40315">
        <ele>17.3</ele>
        <time>2020-06-24T09:19:48Z</time>
      </trkpt>
      <trkpt lat="50.46683" lon="3.40324">
        <ele>17.3</ele>
        <time>2020-06-24T09:19:49Z</time>
      </trkpt>
      <trkpt lat="50.46681" lon="3.40333">
        <ele>17.4</ele>
        <time>2020-06-24T09:19:50Z</time>
      </trkpt>
      <trkpt lat="50.46679" lon="3.40342">
        <ele>17.4</ele>
        <time>2020-06-24T09:19:51Z</time>
      </trkpt>
      <trkpt lat="50.46678" lon="3.40351">
        <ele>17.5</ele>
        <time>2020-06-24T09:19:52Z</time>
      </trkpt>
      <trkpt lat="50.46677" lon="3.40361">
        <ele>17.5</ele>
        <time>2020-06-24T09:19:53Z</time>
      </trkpt>
      <trkpt lat="50.46676" lon="3.40369">
        <ele>17.4</ele>
        <time>2020-06-24T09:19:54Z</time>
      </trkpt>
      <trkpt lat="50.46674" lon="3.40376">
        <ele>17.3</ele>
        <time>2020-06-24T09:19:55Z</time>
      </trkpt>
      <trkpt lat="50.46672" lon="3.40384">
        <ele>17.2</ele>
        <time>2020-06-24T09:19:56Z</time>
      </trkpt>
      <trkpt lat="50.46668" lon="3.40391">
        <ele>17</ele>
        <time>2020-06-24T09:19:57Z</time>
      </trkpt>
      <trkpt lat="50.46664" lon="3.40398">
        <ele>16.8</ele>
        <time>2020-06-24T09:19:58Z</time>
      </trkpt>
      <trkpt lat="50.46659" lon="3.40405">
        <ele>16.7</ele>
        <time>2020-06-24T09:19:59Z</time>
      </trkpt>
      <trkpt lat="50.46655" lon="3.40412">
        <ele>16.6</ele>
        <time>2020-06-24T09:20:00Z</time>
      </trkpt>
      <trkpt lat="50.4665" lon="3.40419">
        <ele>16.5</ele>
        <time>2020-06-24T09:20:01Z</time>
      </trkpt>
      <trkpt lat="50.46644" lon="3.40425">
        <ele>16.5</ele>
        <time>2020-06-24T09:20:02Z</time>
      </trkpt>
      <trkpt lat="50.4664" lon="3.40432">
        <ele>16.4</ele>
        <time>2020-06-24T09:20:03Z</time>
      </trkpt>
      <trkpt lat="50.46635" lon="3.40438">
        <ele>16.3</ele>
        <time>2020-06-24T09:20:04Z</time>
      </trkpt>
      <trkpt lat="50.46629" lon="3.40443">
        <ele>16.3</ele>
        <time>2020-06-24T09:20:05Z</time>
      </trkpt>
      <trkpt lat="50.46624" lon="3.4045">
        <ele>16.3</ele>
        <time>2020-06-24T09:20:06Z</time>
      </trkpt>
      <trkpt lat="50.46619" lon="3.40456">
        <ele>16.3</ele>
        <time>2020-06-24T09:20:07Z</time>
      </trkpt>
      <trkpt lat="50.46614" lon="3.40463">
        <ele>16.3</ele>
        <time>2020-06-24T09:20:08Z</time>
      </trkpt>
      <trkpt lat="50.4661" lon="3.40469">
        <ele>16.3</ele>
        <time>2020-06-24T09:20:09Z</time>
      </trkpt>
      <trkpt lat="50.46606" lon="3.40476">
        <ele>16.3</ele>
        <time>2020-06-24T09:20:10Z</time>
      </trkpt>
      <trkpt lat="50.46601" lon="3.40483">
        <ele>16.3</ele>
        <time>2020-06-24T09:20:11Z</time>
      </trkpt>
      <trkpt lat="50.46596" lon="3.40488">
        <ele>16.2</ele>
        <time>2020-06-24T09:20:12Z</time>
      </trkpt>
      <trkpt lat="50.46591" lon="3.40494">
        <ele>16.2</ele>
        <time>2020-06-24T09:20:13Z</time>
      </trkpt>
      <trkpt lat="50.46586" lon="3.40499">
        <ele>16.2</ele>
        <time>2020-06-24T09:20:14Z</time>
      </trkpt>
      <trkpt lat="50.46581" lon="3.40505">
        <ele>16.1</ele>
        <time>2020-06-24T09:20:15Z</time>
      </trkpt>
      <trkpt lat="50.46577" lon="3.40512">
        <ele>16.1</ele>
        <time>2020-06-24T09:20:16Z</time>
      </trkpt>
      <trkpt lat="50.46572" lon="3.40519">
        <ele>16.1</ele>
        <time>2020-06-24T09:20:17Z</time>
      </trkpt>
      <trkpt lat="50.46567" lon="3.40524">
        <ele>16.1</ele>
        <time>2020-06-24T09:20:18Z</time>
      </trkpt>
      <trkpt lat="50.46561" lon="3.40528">
        <ele>16.1</ele>
        <time>2020-06-24T09:20:19Z</time>
      </trkpt>
      <trkpt lat="50.46554" lon="3.40531">
        <ele>16.2</ele>
        <time>2020-06-24T09:20:20Z</time>
      </trkpt>
      <trkpt lat="50.46547" lon="3.40534">
        <ele>16.2</ele>
        <time>2020-06-24T09:20:21Z</time>
      </trkpt>
      <trkpt lat="50.46541" lon="3.40537">
        <ele>16.2</ele>
        <time>2020-06-24T09:20:22Z</time>
      </trkpt>
      <trkpt lat="50.46535" lon="3.4054">
        <ele>16.2</ele>
        <time>2020-06-24T09:20:23Z</time>
      </trkpt>
      <trkpt lat="50.46529" lon="3.40544">
        <ele>16.2</ele>
        <time>2020-06-24T09:20:24Z</time>
      </trkpt>
      <trkpt lat="50.46522" lon="3.40548">
        <ele>16.2</ele>
        <time>2020-06-24T09:20:25Z</time>
      </trkpt>
      <trkpt lat="50.46516" lon="3.40551">
        <ele>16.2</ele>
        <time>2020-06-24T09:20:26Z</time>
      </trkpt>
      <trkpt lat="50.46509" lon="3.40554">
        <ele>16.2</ele>
        <time>2020-06-24T09:20:27Z</time>
      </trkpt>
      <trkpt lat="50.46503" lon="3.40557">
        <ele>16.2</ele>
        <time>2020-06-24T09:20:28Z</time>
      </trkpt>
      <trkpt lat="50.46496" lon="3.40561">
        <ele>16.1</ele>
        <time>2020-06-24T09:20:29Z</time>
      </trkpt>
      <trkpt lat="50.4649" lon="3.40564">
        <ele>16.1</ele>
        <time>2020-06-24T09:20:30Z</time>
      </trkpt>
      <trkpt lat="50.46484" lon="3.40568">
        <ele>16.1</ele>
        <time>2020-06-24T09:20:31Z</time>
      </trkpt>
      <trkpt lat="50.46477" lon="3.40571">
        <ele>16.1</ele>
        <time>2020-06-24T09:20:32Z</time>
      </trkpt>
      <trkpt lat="50.46471" lon="3.40574">
        <ele>16.2</ele>
        <time>2020-06-24T09:20:33Z</time>
      </trkpt>
      <trkpt lat="50.46465" lon="3.40576">
        <ele>16.2</ele>
        <time>2020-06-24T09:20:34Z</time>
      </trkpt>
      <trkpt lat="50.46459" lon="3.40579">
        <ele>16.2</ele>
        <time>2020-06-24T09:20:35Z</time>
      </trkpt>
      <trkpt lat="50.46453" lon="3.40582">
        <ele>16.3</ele>
        <time>2020-06-24T09:20:36Z</time>
      </trkpt>
      <trkpt lat="50.46447" lon="3.40586">
        <ele>16.3</ele>
        <time>2020-06-24T09:20:37Z</time>
      </trkpt>
      <trkpt lat="50.46441" lon="3.4059">
        <ele>16.3</ele>
        <time>2020-06-24T09:20:38Z</time>
      </trkpt>
      <trkpt lat="50.46436" lon="3.40593">
        <ele>16.4</ele>
        <time>2020-06-24T09:20:39Z</time>
      </trkpt>
      <trkpt lat="50.4643" lon="3.40596">
        <ele>16.5</ele>
        <time>2020-06-24T09:20:40Z</time>
      </trkpt>
      <trkpt lat="50.46425" lon="3.40599">
        <ele>16.7</ele>
        <time>2020-06-24T09:20:41Z</time>
      </trkpt>
      <trkpt lat="50.46419" lon="3.406">
        <ele>16.8</ele>
        <time>2020-06-24T09:20:42Z</time>
      </trkpt>
      <trkpt lat="50.46413" lon="3.40603">
        <ele>16.9</ele>
        <time>2020-06-24T09:20:43Z</time>
      </trkpt>
      <trkpt lat="50.46408" lon="3.40606">
        <ele>16.9</ele>
        <time>2020-06-24T09:20:44Z</time>
      </trkpt>
      <trkpt lat="50.46402" lon="3.40608">
        <ele>16.9</ele>
        <time>2020-06-24T09:20:45Z</time>
      </trkpt>
      <trkpt lat="50.46397" lon="3.40612">
        <ele>16.7</ele>
        <time>2020-06-24T09:20:46Z</time>
      </trkpt>
      <trkpt lat="50.46391" lon="3.40616">
        <ele>16.6</ele>
        <time>2020-06-24T09:20:47Z</time>
      </trkpt>
      <trkpt lat="50.46386" lon="3.40621">
        <ele>16.5</ele>
        <time>2020-06-24T09:20:48Z</time>
      </trkpt>
      <trkpt lat="50.4638" lon="3.40626">
        <ele>16.4</ele>
        <time>2020-06-24T09:20:49Z</time>
      </trkpt>
      <trkpt lat="50.46375" lon="3.40632">
        <ele>16.3</ele>
        <time>2020-06-24T09:20:50Z</time>
      </trkpt>
      <trkpt lat="50.4637" lon="3.40638">
        <ele>16.2</ele>
        <time>2020-06-24T09:20:51Z</time>
      </trkpt>
      <trkpt lat="50.46364" lon="3.40645">
        <ele>16.2</ele>
        <time>2020-06-24T09:20:52Z</time>
      </trkpt>
      <trkpt lat="50.46358" lon="3.40651">
        <ele>16.1</ele>
        <time>2020-06-24T09:20:53Z</time>
      </trkpt>
      <trkpt lat="50.46352" lon="3.40657">
        <ele>16</ele>
        <time>2020-06-24T09:20:54Z</time>
      </trkpt>
      <trkpt lat="50.46347" lon="3.40664">
        <ele>16</ele>
        <time>2020-06-24T09:20:55Z</time>
      </trkpt>
      <trkpt lat="50.46342" lon="3.40671">
        <ele>16</ele>
        <time>2020-06-24T09:20:56Z</time>
      </trkpt>
      <trkpt lat="50.46336" lon="3.40677">
        <ele>16</ele>
        <time>2020-06-24T09:20:57Z</time>
      </trkpt>
      <trkpt lat="50.46332" lon="3.40684">
        <ele>16</ele>
        <time>2020-06-24T09:20:58Z</time>
      </trkpt>
      <trkpt lat="50.46327" lon="3.4069">
        <ele>16.1</ele>
        <time>2020-06-24T09:20:59Z</time>
      </trkpt>
      <trkpt lat="50.46322" lon="3.40696">
        <ele>16.1</ele>
        <time>2020-06-24T09:21:00Z</time>
      </trkpt>
      <trkpt lat="50.46317" lon="3.40702">
        <ele>16.1</ele>
        <time>2020-06-24T09:21:01Z</time>
      </trkpt>
      <trkpt lat="50.46311" lon="3.40707">
        <ele>16</ele>
        <time>2020-06-24T09:21:02Z</time>
      </trkpt>
      <trkpt lat="50.46305" lon="3.40712">
        <ele>16</ele>
        <time>2020-06-24T09:21:03Z</time>
      </trkpt>
      <trkpt lat="50.46299" lon="3.40717">
        <ele>16</ele>
        <time>2020-06-24T09:21:04Z</time>
      </trkpt>
      <trkpt lat="50.46293" lon="3.40721">
        <ele>15.9</ele>
        <time>2020-06-24T09:21:05Z</time>
      </trkpt>
      <trkpt lat="50.46287" lon="3.40725">
        <ele>15.9</ele>
        <time>2020-06-24T09:21:06Z</time>
      </trkpt>
      <trkpt lat="50.4628" lon="3.40727">
        <ele>15.9</ele>
        <time>2020-06-24T09:21:07Z</time>
      </trkpt>
      <trkpt lat="50.46273" lon="3.4073">
        <ele>15.9</ele>
        <time>2020-06-24T09:21:08Z</time>
      </trkpt>
      <trkpt lat="50.46267" lon="3.40732">
        <ele>15.9</ele>
        <time>2020-06-24T09:21:09Z</time>
      </trkpt>
      <trkpt lat="50.4626" lon="3.40734">
        <ele>15.9</ele>
        <time>2020-06-24T09:21:10Z</time>
      </trkpt>
      <trkpt lat="50.46254" lon="3.40737">
        <ele>15.9</ele>
        <time>2020-06-24T09:21:11Z</time>
      </trkpt>
      <trkpt lat="50.46247" lon="3.4074">
        <ele>15.8</ele>
        <time>2020-06-24T09:21:12Z</time>
      </trkpt>
      <trkpt lat="50.46241" lon="3.40743">
        <ele>15.8</ele>
        <time>2020-06-24T09:21:13Z</time>
      </trkpt>
      <trkpt lat="50.46234" lon="3.40745">
        <ele>15.8</ele>
        <time>2020-06-24T09:21:14Z</time>
      </trkpt>
      <trkpt lat="50.46228" lon="3.40747">
        <ele>15.8</ele>
        <time>2020-06-24T09:21:15Z</time>
      </trkpt>
      <trkpt lat="50.46221" lon="3.40749">
        <ele>15.8</ele>
        <time>2020-06-24T09:21:16Z</time>
      </trkpt>
      <trkpt lat="50.46215" lon="3.40752">
        <ele>15.8</ele>
        <time>2020-06-24T09:21:17Z</time>
      </trkpt>
      <trkpt lat="50.46209" lon="3.40755">
        <ele>15.7</ele>
        <time>2020-06-24T09:21:18Z</time>
      </trkpt>
      <trkpt lat="50.46203" lon="3.40757">
        <ele>15.7</ele>
        <time>2020-06-24T09:21:19Z</time>
      </trkpt>
      <trkpt lat="50.46197" lon="3.40761">
        <ele>15.7</ele>
        <time>2020-06-24T09:21:20Z</time>
      </trkpt>
      <trkpt lat="50.46191" lon="3.40764">
        <ele>15.7</ele>
        <time>2020-06-24T09:21:21Z</time>
      </trkpt>
      <trkpt lat="50.46185" lon="3.40768">
        <ele>15.6</ele>
        <time>2020-06-24T09:21:22Z</time>
      </trkpt>
      <trkpt lat="50.46179" lon="3.40773">
        <ele>15.6</ele>
        <time>2020-06-24T09:21:23Z</time>
      </trkpt>
      <trkpt lat="50.46173" lon="3.40779">
        <ele>15.5</ele>
        <time>2020-06-24T09:21:24Z</time>
      </trkpt>
      <trkpt lat="50.46167" lon="3.40785">
        <ele>15.5</ele>
        <time>2020-06-24T09:21:25Z</time>
      </trkpt>
      <trkpt lat="50.46162" lon="3.40791">
        <ele>15.5</ele>
        <time>2020-06-24T09:21:26Z</time>
      </trkpt>
      <trkpt lat="50.46156" lon="3.40797">
        <ele>15.5</ele>
        <time>2020-06-24T09:21:27Z</time>
      </trkpt>
      <trkpt lat="50.4615" lon="3.40803">
        <ele>15.5</ele>
        <time>2020-06-24T09:21:28Z</time>
      </trkpt>
      <trkpt lat="50.46144" lon="3.40809">
        <ele>15.5</ele>
        <time>2020-06-24T09:21:29Z</time>
      </trkpt>
      <trkpt lat="50.46139" lon="3.40816">
        <ele>15.5</ele>
        <time>2020-06-24T09:21:30Z</time>
      </trkpt>
      <trkpt lat="50.46133" lon="3.40822">
        <ele>15.6</ele>
        <time>2020-06-24T09:21:31Z</time>
      </trkpt>
      <trkpt lat="50.46128" lon="3.40827">
        <ele>15.7</ele>
        <time>2020-06-24T09:21:32Z</time>
      </trkpt>
      <trkpt lat="50.46123" lon="3.40833">
        <ele>15.7</ele>
        <time>2020-06-24T09:21:33Z</time>
      </trkpt>
      <trkpt lat="50.46118" lon="3.40839">
        <ele>15.8</ele>
        <time>2020-06-24T09:21:34Z</time>
      </trkpt>
      <trkpt lat="50.46112" lon="3.40844">
        <ele>15.9</ele>
        <time>2020-06-24T09:21:35Z</time>
      </trkpt>
      <trkpt lat="50.46107" lon="3.4085">
        <ele>16.1</ele>
        <time>2020-06-24T09:21:36Z</time>
      </trkpt>
      <trkpt lat="50.46102" lon="3.40855">
        <ele>16.3</ele>
        <time>2020-06-24T09:21:37Z</time>
      </trkpt>
      <trkpt lat="50.46097" lon="3.40859">
        <ele>16.5</ele>
        <time>2020-06-24T09:21:38Z</time>
      </trkpt>
      <trkpt lat="50.46091" lon="3.40863">
        <ele>16.5</ele>
        <time>2020-06-24T09:21:39Z</time>
      </trkpt>
      <trkpt lat="50.46085" lon="3.40865">
        <ele>16.8</ele>
        <time>2020-06-24T09:21:40Z</time>
      </trkpt>
      <trkpt lat="50.46079" lon="3.40866">
        <ele>16.9</ele>
        <time>2020-06-24T09:21:41Z</time>
      </trkpt>
      <trkpt lat="50.46073" lon="3.40868">
        <ele>16.9</ele>
        <time>2020-06-24T09:21:42Z</time>
      </trkpt>
      <trkpt lat="50.46067" lon="3.4087">
        <ele>16.9</ele>
        <time>2020-06-24T09:21:43Z</time>
      </trkpt>
      <trkpt lat="50.4606" lon="3.4087">
        <ele>16.8</ele>
        <time>2020-06-24T09:21:44Z</time>
      </trkpt>
      <trkpt lat="50.46054" lon="3.40869">
        <ele>16.8</ele>
        <time>2020-06-24T09:21:45Z</time>
      </trkpt>
      <trkpt lat="50.46048" lon="3.40869">
        <ele>16.8</ele>
        <time>2020-06-24T09:21:46Z</time>
      </trkpt>
      <trkpt lat="50.46042" lon="3.40869">
        <ele>16.8</ele>
        <time>2020-06-24T09:21:47Z</time>
      </trkpt>
      <trkpt lat="50.46036" lon="3.40867">
        <ele>16.8</ele>
        <time>2020-06-24T09:21:48Z</time>
      </trkpt>
      <trkpt lat="50.4603" lon="3.40866">
        <ele>16.9</ele>
        <time>2020-06-24T09:21:49Z</time>
      </trkpt>
      <trkpt lat="50.46024" lon="3.40866">
        <ele>16.9</ele>
        <time>2020-06-24T09:21:50Z</time>
      </trkpt>
      <trkpt lat="50.46018" lon="3.40865">
        <ele>16.8</ele>
        <time>2020-06-24T09:21:51Z</time>
      </trkpt>
      <trkpt lat="50.46011" lon="3.40864">
        <ele>16.8</ele>
        <time>2020-06-24T09:21:52Z</time>
      </trkpt>
      <trkpt lat="50.46005" lon="3.40862">
        <ele>16.8</ele>
        <time>2020-06-24T09:21:53Z</time>
      </trkpt>
      <trkpt lat="50.45999" lon="3.40861">
        <ele>16.8</ele>
        <time>2020-06-24T09:21:54Z</time>
      </trkpt>
      <trkpt lat="50.45992" lon="3.40861">
        <ele>16.7</ele>
        <time>2020-06-24T09:21:55Z</time>
      </trkpt>
      <trkpt lat="50.45985" lon="3.4086">
        <ele>16.7</ele>
        <time>2020-06-24T09:21:56Z</time>
      </trkpt>
      <trkpt lat="50.45978" lon="3.4086">
        <ele>16.7</ele>
        <time>2020-06-24T09:21:57Z</time>
      </trkpt>
      <trkpt lat="50.45972" lon="3.40859">
        <ele>16.7</ele>
        <time>2020-06-24T09:21:58Z</time>
      </trkpt>
      <trkpt lat="50.45965" lon="3.40859">
        <ele>16.8</ele>
        <time>2020-06-24T09:21:59Z</time>
      </trkpt>
      <trkpt lat="50.45959" lon="3.40858">
        <ele>16.8</ele>
        <time>2020-06-24T09:22:00Z</time>
      </trkpt>
      <trkpt lat="50.45952" lon="3.40858">
        <ele>16.8</ele>
        <time>2020-06-24T09:22:01Z</time>
      </trkpt>
      <trkpt lat="50.45946" lon="3.40857">
        <ele>16.8</ele>
        <time>2020-06-24T09:22:02Z</time>
      </trkpt>
      <trkpt lat="50.45939" lon="3.40855">
        <ele>16.8</ele>
        <time>2020-06-24T09:22:03Z</time>
      </trkpt>
      <trkpt lat="50.45933" lon="3.40853">
        <ele>16.8</ele>
        <time>2020-06-24T09:22:04Z</time>
      </trkpt>
      <trkpt lat="50.45926" lon="3.40851">
        <ele>16.8</ele>
        <time>2020-06-24T09:22:05Z</time>
      </trkpt>
      <trkpt lat="50.45919" lon="3.4085">
        <ele>16.8</ele>
        <time>2020-06-24T09:22:06Z</time>
      </trkpt>
      <trkpt lat="50.45913" lon="3.40851">
        <ele>16.8</ele>
        <time>2020-06-24T09:22:07Z</time>
      </trkpt>
      <trkpt lat="50.45907" lon="3.4085">
        <ele>16.8</ele>
        <time>2020-06-24T09:22:08Z</time>
      </trkpt>
      <trkpt lat="50.459" lon="3.40849">
        <ele>16.8</ele>
        <time>2020-06-24T09:22:09Z</time>
      </trkpt>
      <trkpt lat="50.45893" lon="3.40847">
        <ele>16.7</ele>
        <time>2020-06-24T09:22:10Z</time>
      </trkpt>
      <trkpt lat="50.45886" lon="3.40846">
        <ele>16.7</ele>
        <time>2020-06-24T09:22:11Z</time>
      </trkpt>
      <trkpt lat="50.45879" lon="3.40846">
        <ele>16.7</ele>
        <time>2020-06-24T09:22:12Z</time>
      </trkpt>
      <trkpt lat="50.45872" lon="3.40845">
        <ele>16.7</ele>
        <time>2020-06-24T09:22:13Z</time>
      </trkpt>
      <trkpt lat="50.45865" lon="3.40844">
        <ele>16.7</ele>
        <time>2020-06-24T09:22:14Z</time>
      </trkpt>
      <trkpt lat="50.45859" lon="3.40843">
        <ele>16.7</ele>
        <time>2020-06-24T09:22:15Z</time>
      </trkpt>
      <trkpt lat="50.45853" lon="3.40841">
        <ele>16.7</ele>
        <time>2020-06-24T09:22:16Z</time>
      </trkpt>
      <trkpt lat="50.45846" lon="3.4084">
        <ele>16.7</ele>
        <time>2020-06-24T09:22:17Z</time>
      </trkpt>
      <trkpt lat="50.4584" lon="3.4084">
        <ele>16.7</ele>
        <time>2020-06-24T09:22:18Z</time>
      </trkpt>
      <trkpt lat="50.45834" lon="3.4084">
        <ele>16.7</ele>
        <time>2020-06-24T09:22:19Z</time>
      </trkpt>
      <trkpt lat="50.45828" lon="3.40841">
        <ele>16.7</ele>
        <time>2020-06-24T09:22:20Z</time>
      </trkpt>
      <trkpt lat="50.45821" lon="3.40842">
        <ele>16.7</ele>
        <time>2020-06-24T09:22:21Z</time>
      </trkpt>
      <trkpt lat="50.45815" lon="3.40845">
        <ele>16.7</ele>
        <time>2020-06-24T09:22:22Z</time>
      </trkpt>
      <trkpt lat="50.45809" lon="3.40848">
        <ele>16.7</ele>
        <time>2020-06-24T09:22:23Z</time>
      </trkpt>
      <trkpt lat="50.45802" lon="3.40849">
        <ele>16.7</ele>
        <time>2020-06-24T09:22:24Z</time>
      </trkpt>
      <trkpt lat="50.45795" lon="3.40851">
        <ele>16.7</ele>
        <time>2020-06-24T09:22:25Z</time>
      </trkpt>
      <trkpt lat="50.45788" lon="3.40854">
        <ele>16.7</ele>
        <time>2020-06-24T09:22:26Z</time>
      </trkpt>
      <trkpt lat="50.45782" lon="3.40857">
        <ele>16.7</ele>
        <time>2020-06-24T09:22:27Z</time>
      </trkpt>
      <trkpt lat="50.45775" lon="3.4086">
        <ele>16.7</ele>
        <time>2020-06-24T09:22:28Z</time>
      </trkpt>
      <trkpt lat="50.45769" lon="3.40863">
        <ele>16.7</ele>
        <time>2020-06-24T09:22:29Z</time>
      </trkpt>
      <trkpt lat="50.45762" lon="3.40866">
        <ele>16.7</ele>
        <time>2020-06-24T09:22:30Z</time>
      </trkpt>
      <trkpt lat="50.45756" lon="3.40868">
        <ele>16.7</ele>
        <time>2020-06-24T09:22:31Z</time>
      </trkpt>
      <trkpt lat="50.45751" lon="3.40871">
        <ele>16.8</ele>
        <time>2020-06-24T09:22:32Z</time>
      </trkpt>
      <trkpt lat="50.45746" lon="3.40873">
        <ele>16.8</ele>
        <time>2020-06-24T09:22:33Z</time>
      </trkpt>
      <trkpt lat="50.45741" lon="3.40876">
        <ele>16.9</ele>
        <time>2020-06-24T09:22:34Z</time>
      </trkpt>
      <trkpt lat="50.45736" lon="3.40878">
        <ele>16.9</ele>
        <time>2020-06-24T09:22:35Z</time>
      </trkpt>
      <trkpt lat="50.45732" lon="3.4088">
        <ele>16.9</ele>
        <time>2020-06-24T09:22:36Z</time>
      </trkpt>
      <trkpt lat="50.45729" lon="3.40882">
        <ele>16.9</ele>
        <time>2020-06-24T09:22:37Z</time>
      </trkpt>
      <trkpt lat="50.45726" lon="3.40884">
        <ele>16.9</ele>
        <time>2020-06-24T09:22:38Z</time>
      </trkpt>
      <trkpt lat="50.45724" lon="3.40885">
        <ele>16.9</ele>
        <time>2020-06-24T09:22:39Z</time>
      </trkpt>
      <trkpt lat="50.45723" lon="3.40884">
        <ele>16.9</ele>
        <time>2020-06-24T09:22:40Z</time>
      </trkpt>
      <trkpt lat="50.45723" lon="3.40882">
        <ele>16.9</ele>
        <time>2020-06-24T09:22:41Z</time>
      </trkpt>
      <trkpt lat="50.45722" lon="3.40881">
        <ele>16.9</ele>
        <time>2020-06-24T09:22:42Z</time>
      </trkpt>
      <trkpt lat="50.45722" lon="3.4088">
        <ele>16.9</ele>
        <time>2020-06-24T09:22:43Z</time>
      </trkpt>
      <trkpt lat="50.45722" lon="3.4088">
        <ele>16.9</ele>
        <time>2020-06-24T09:22:44Z</time>
      </trkpt>
      <trkpt lat="50.45722" lon="3.40879">
        <ele>16.9</ele>
        <time>2020-06-24T09:22:45Z</time>
      </trkpt>
      <trkpt lat="50.45721" lon="3.40877">
        <ele>16.9</ele>
        <time>2020-06-24T09:22:46Z</time>
      </trkpt>
      <trkpt lat="50.4572" lon="3.40877">
        <ele>16.9</ele>
        <time>2020-06-24T09:22:47Z</time>
      </trkpt>
      <trkpt lat="50.4572" lon="3.40877">
        <ele>16.9</ele>
        <time>2020-06-24T09:22:48Z</time>
      </trkpt>
      <trkpt lat="50.45719" lon="3.40877">
        <ele>16.9</ele>
        <time>2020-06-24T09:22:49Z</time>
      </trkpt>
      <trkpt lat="50.45719" lon="3.40877">
        <ele>16.9</ele>
        <time>2020-06-24T09:22:50Z</time>
      </trkpt>
      <trkpt lat="50.45718" lon="3.40877">
        <ele>16.9</ele>
        <time>2020-06-24T09:22:51Z</time>
      </trkpt>
      <trkpt lat="50.45718" lon="3.40877">
        <ele>16.9</ele>
        <time>2020-06-24T09:22:52Z</time>
      </trkpt>
      <trkpt lat="50.45717" lon="3.40877">
        <ele>16.9</ele>
        <time>2020-06-24T09:22:53Z</time>
      </trkpt>
      <trkpt lat="50.45717" lon="3.40876">
        <ele>16.9</ele>
        <time>2020-06-24T09:22:54Z</time>
      </trkpt>
      <trkpt lat="50.45716" lon="3.40876">
        <ele>16.9</ele>
        <time>2020-06-24T09:22:57Z</time>
      </trkpt>
      <trkpt lat="50.45716" lon="3.40876">
        <ele>16.9</ele>
        <time>2020-06-24T09:22:58Z</time>
      </trkpt>
      <trkpt lat="50.45715" lon="3.40876">
        <ele>16.9</ele>
        <time>2020-06-24T09:22:59Z</time>
      </trkpt>
      <trkpt lat="50.45713" lon="3.40879">
        <ele>16.9</ele>
        <time>2020-06-24T09:23:00Z</time>
      </trkpt>
      <trkpt lat="50.45713" lon="3.4088">
        <ele>16.9</ele>
        <time>2020-06-24T09:23:01Z</time>
      </trkpt>
      <trkpt lat="50.45711" lon="3.40885">
        <ele>16.9</ele>
        <time>2020-06-24T09:23:02Z</time>
      </trkpt>
      <trkpt lat="50.45709" lon="3.40891">
        <ele>16.9</ele>
        <time>2020-06-24T09:23:03Z</time>
      </trkpt>
      <trkpt lat="50.45706" lon="3.40896">
        <ele>16.9</ele>
        <time>2020-06-24T09:23:04Z</time>
      </trkpt>
      <trkpt lat="50.45703" lon="3.40903">
        <ele>16.8</ele>
        <time>2020-06-24T09:23:05Z</time>
      </trkpt>
      <trkpt lat="50.457" lon="3.4091">
        <ele>16.8</ele>
        <time>2020-06-24T09:23:06Z</time>
      </trkpt>
      <trkpt lat="50.45696" lon="3.40918">
        <ele>16.8</ele>
        <time>2020-06-24T09:23:07Z</time>
      </trkpt>
      <trkpt lat="50.45691" lon="3.40925">
        <ele>16.8</ele>
        <time>2020-06-24T09:23:08Z</time>
      </trkpt>
      <trkpt lat="50.45687" lon="3.40932">
        <ele>16.8</ele>
        <time>2020-06-24T09:23:09Z</time>
      </trkpt>
      <trkpt lat="50.45683" lon="3.40938">
        <ele>16.8</ele>
        <time>2020-06-24T09:23:10Z</time>
      </trkpt>
      <trkpt lat="50.45679" lon="3.40944">
        <ele>16.9</ele>
        <time>2020-06-24T09:23:11Z</time>
      </trkpt>
      <trkpt lat="50.45673" lon="3.4095">
        <ele>16.9</ele>
        <time>2020-06-24T09:23:12Z</time>
      </trkpt>
      <trkpt lat="50.45667" lon="3.40956">
        <ele>16.9</ele>
        <time>2020-06-24T09:23:13Z</time>
      </trkpt>
      <trkpt lat="50.45661" lon="3.40962">
        <ele>16.9</ele>
        <time>2020-06-24T09:23:14Z</time>
      </trkpt>
      <trkpt lat="50.45655" lon="3.40968">
        <ele>16.9</ele>
        <time>2020-06-24T09:23:15Z</time>
      </trkpt>
      <trkpt lat="50.45649" lon="3.40975">
        <ele>16.9</ele>
        <time>2020-06-24T09:23:16Z</time>
      </trkpt>
      <trkpt lat="50.45643" lon="3.40981">
        <ele>16.9</ele>
        <time>2020-06-24T09:23:17Z</time>
      </trkpt>
      <trkpt lat="50.45636" lon="3.40988">
        <ele>16.9</ele>
        <time>2020-06-24T09:23:18Z</time>
      </trkpt>
      <trkpt lat="50.4563" lon="3.40994">
        <ele>16.9</ele>
        <time>2020-06-24T09:23:19Z</time>
      </trkpt>
      <trkpt lat="50.45624" lon="3.41">
        <ele>16.8</ele>
        <time>2020-06-24T09:23:20Z</time>
      </trkpt>
      <trkpt lat="50.45617" lon="3.41006">
        <ele>16.8</ele>
        <time>2020-06-24T09:23:21Z</time>
      </trkpt>
      <trkpt lat="50.45612" lon="3.41012">
        <ele>16.8</ele>
        <time>2020-06-24T09:23:22Z</time>
      </trkpt>
      <trkpt lat="50.45606" lon="3.41018">
        <ele>16.9</ele>
        <time>2020-06-24T09:23:23Z</time>
      </trkpt>
      <trkpt lat="50.45602" lon="3.41023">
        <ele>16.9</ele>
        <time>2020-06-24T09:23:24Z</time>
      </trkpt>
      <trkpt lat="50.45595" lon="3.41028">
        <ele>16.9</ele>
        <time>2020-06-24T09:23:25Z</time>
      </trkpt>
      <trkpt lat="50.4559" lon="3.41033">
        <ele>16.9</ele>
        <time>2020-06-24T09:23:26Z</time>
      </trkpt>
      <trkpt lat="50.45584" lon="3.41038">
        <ele>16.9</ele>
        <time>2020-06-24T09:23:27Z</time>
      </trkpt>
      <trkpt lat="50.45579" lon="3.41042">
        <ele>16.9</ele>
        <time>2020-06-24T09:23:28Z</time>
      </trkpt>
      <trkpt lat="50.45574" lon="3.41047">
        <ele>16.9</ele>
        <time>2020-06-24T09:23:29Z</time>
      </trkpt>
      <trkpt lat="50.45569" lon="3.41052">
        <ele>16.9</ele>
        <time>2020-06-24T09:23:30Z</time>
      </trkpt>
      <trkpt lat="50.45563" lon="3.41057">
        <ele>16.9</ele>
        <time>2020-06-24T09:23:31Z</time>
      </trkpt>
      <trkpt lat="50.45557" lon="3.41063">
        <ele>17</ele>
        <time>2020-06-24T09:23:32Z</time>
      </trkpt>
      <trkpt lat="50.45551" lon="3.41069">
        <ele>17</ele>
        <time>2020-06-24T09:23:33Z</time>
      </trkpt>
      <trkpt lat="50.45546" lon="3.41074">
        <ele>17.1</ele>
        <time>2020-06-24T09:23:34Z</time>
      </trkpt>
      <trkpt lat="50.45541" lon="3.41079">
        <ele>17.1</ele>
        <time>2020-06-24T09:23:35Z</time>
      </trkpt>
      <trkpt lat="50.45537" lon="3.41083">
        <ele>17.2</ele>
        <time>2020-06-24T09:23:36Z</time>
      </trkpt>
      <trkpt lat="50.45532" lon="3.41087">
        <ele>17.2</ele>
        <time>2020-06-24T09:23:37Z</time>
      </trkpt>
      <trkpt lat="50.45528" lon="3.4109">
        <ele>17.2</ele>
        <time>2020-06-24T09:23:38Z</time>
      </trkpt>
      <trkpt lat="50.45522" lon="3.41096">
        <ele>17.2</ele>
        <time>2020-06-24T09:23:39Z</time>
      </trkpt>
      <trkpt lat="50.45516" lon="3.41101">
        <ele>17.3</ele>
        <time>2020-06-24T09:23:40Z</time>
      </trkpt>
      <trkpt lat="50.45511" lon="3.41107">
        <ele>17.2</ele>
        <time>2020-06-24T09:23:41Z</time>
      </trkpt>
      <trkpt lat="50.45506" lon="3.41112">
        <ele>17.2</ele>
        <time>2020-06-24T09:23:42Z</time>
      </trkpt>
      <trkpt lat="50.45501" lon="3.41115">
        <ele>17.2</ele>
        <time>2020-06-24T09:23:43Z</time>
      </trkpt>
      <trkpt lat="50.45495" lon="3.41118">
        <ele>17.1</ele>
        <time>2020-06-24T09:23:44Z</time>
      </trkpt>
      <trkpt lat="50.45489" lon="3.41123">
        <ele>17.1</ele>
        <time>2020-06-24T09:23:45Z</time>
      </trkpt>
      <trkpt lat="50.45483" lon="3.41128">
        <ele>17</ele>
        <time>2020-06-24T09:23:46Z</time>
      </trkpt>
      <trkpt lat="50.45477" lon="3.41135">
        <ele>17</ele>
        <time>2020-06-24T09:23:47Z</time>
      </trkpt>
      <trkpt lat="50.45472" lon="3.4114">
        <ele>17</ele>
        <time>2020-06-24T09:23:48Z</time>
      </trkpt>
      <trkpt lat="50.45468" lon="3.41146">
        <ele>17</ele>
        <time>2020-06-24T09:23:49Z</time>
      </trkpt>
      <trkpt lat="50.45463" lon="3.41149">
        <ele>17</ele>
        <time>2020-06-24T09:23:50Z</time>
      </trkpt>
      <trkpt lat="50.45458" lon="3.41153">
        <ele>17.1</ele>
        <time>2020-06-24T09:23:51Z</time>
      </trkpt>
      <trkpt lat="50.45453" lon="3.41159">
        <ele>17.1</ele>
        <time>2020-06-24T09:23:52Z</time>
      </trkpt>
      <trkpt lat="50.45448" lon="3.41163">
        <ele>17.1</ele>
        <time>2020-06-24T09:23:53Z</time>
      </trkpt>
      <trkpt lat="50.45443" lon="3.41167">
        <ele>17.2</ele>
        <time>2020-06-24T09:23:54Z</time>
      </trkpt>
      <trkpt lat="50.45439" lon="3.41171">
        <ele>17.2</ele>
        <time>2020-06-24T09:23:55Z</time>
      </trkpt>
      <trkpt lat="50.45434" lon="3.41175">
        <ele>17.2</ele>
        <time>2020-06-24T09:23:56Z</time>
      </trkpt>
      <trkpt lat="50.45428" lon="3.4118">
        <ele>17.3</ele>
        <time>2020-06-24T09:23:57Z</time>
      </trkpt>
      <trkpt lat="50.45423" lon="3.41184">
        <ele>17.3</ele>
        <time>2020-06-24T09:23:58Z</time>
      </trkpt>
      <trkpt lat="50.45417" lon="3.4119">
        <ele>17.2</ele>
        <time>2020-06-24T09:23:59Z</time>
      </trkpt>
      <trkpt lat="50.45413" lon="3.41194">
        <ele>17.2</ele>
        <time>2020-06-24T09:24:00Z</time>
      </trkpt>
      <trkpt lat="50.45408" lon="3.41199">
        <ele>17.2</ele>
        <time>2020-06-24T09:24:01Z</time>
      </trkpt>
      <trkpt lat="50.45403" lon="3.41204">
        <ele>17.2</ele>
        <time>2020-06-24T09:24:02Z</time>
      </trkpt>
      <trkpt lat="50.45397" lon="3.41209">
        <ele>17.2</ele>
        <time>2020-06-24T09:24:03Z</time>
      </trkpt>
      <trkpt lat="50.45391" lon="3.41214">
        <ele>17.2</ele>
        <time>2020-06-24T09:24:04Z</time>
      </trkpt>
      <trkpt lat="50.45384" lon="3.41218">
        <ele>17.2</ele>
        <time>2020-06-24T09:24:05Z</time>
      </trkpt>
      <trkpt lat="50.45378" lon="3.41223">
        <ele>17.2</ele>
        <time>2020-06-24T09:24:06Z</time>
      </trkpt>
      <trkpt lat="50.45372" lon="3.41228">
        <ele>17.2</ele>
        <time>2020-06-24T09:24:07Z</time>
      </trkpt>
      <trkpt lat="50.45366" lon="3.41232">
        <ele>17.2</ele>
        <time>2020-06-24T09:24:08Z</time>
      </trkpt>
      <trkpt lat="50.45361" lon="3.41236">
        <ele>17.2</ele>
        <time>2020-06-24T09:24:09Z</time>
      </trkpt>
      <trkpt lat="50.45356" lon="3.41241">
        <ele>17.2</ele>
        <time>2020-06-24T09:24:10Z</time>
      </trkpt>
      <trkpt lat="50.45351" lon="3.41245">
        <ele>17.3</ele>
        <time>2020-06-24T09:24:11Z</time>
      </trkpt>
      <trkpt lat="50.45346" lon="3.41248">
        <ele>17.3</ele>
        <time>2020-06-24T09:24:12Z</time>
      </trkpt>
      <trkpt lat="50.45339" lon="3.41253">
        <ele>17.3</ele>
        <time>2020-06-24T09:24:13Z</time>
      </trkpt>
      <trkpt lat="50.45334" lon="3.41258">
        <ele>17.3</ele>
        <time>2020-06-24T09:24:14Z</time>
      </trkpt>
      <trkpt lat="50.45328" lon="3.41262">
        <ele>17.3</ele>
        <time>2020-06-24T09:24:15Z</time>
      </trkpt>
      <trkpt lat="50.45322" lon="3.41266">
        <ele>17.3</ele>
        <time>2020-06-24T09:24:16Z</time>
      </trkpt>
      <trkpt lat="50.45316" lon="3.4127">
        <ele>17.3</ele>
        <time>2020-06-24T09:24:17Z</time>
      </trkpt>
      <trkpt lat="50.45311" lon="3.41275">
        <ele>17.3</ele>
        <time>2020-06-24T09:24:18Z</time>
      </trkpt>
      <trkpt lat="50.45306" lon="3.41279">
        <ele>17.4</ele>
        <time>2020-06-24T09:24:19Z</time>
      </trkpt>
      <trkpt lat="50.45301" lon="3.41284">
        <ele>17.4</ele>
        <time>2020-06-24T09:24:20Z</time>
      </trkpt>
      <trkpt lat="50.45297" lon="3.41288">
        <ele>17.4</ele>
        <time>2020-06-24T09:24:21Z</time>
      </trkpt>
      <trkpt lat="50.45292" lon="3.41293">
        <ele>17.4</ele>
        <time>2020-06-24T09:24:22Z</time>
      </trkpt>
      <trkpt lat="50.45287" lon="3.41297">
        <ele>17.4</ele>
        <time>2020-06-24T09:24:23Z</time>
      </trkpt>
      <trkpt lat="50.45282" lon="3.41302">
        <ele>17.3</ele>
        <time>2020-06-24T09:24:24Z</time>
      </trkpt>
      <trkpt lat="50.45277" lon="3.41306">
        <ele>17.3</ele>
        <time>2020-06-24T09:24:25Z</time>
      </trkpt>
      <trkpt lat="50.45272" lon="3.41312">
        <ele>17.3</ele>
        <time>2020-06-24T09:24:26Z</time>
      </trkpt>
      <trkpt lat="50.45266" lon="3.41318">
        <ele>17.2</ele>
        <time>2020-06-24T09:24:27Z</time>
      </trkpt>
      <trkpt lat="50.4526" lon="3.41324">
        <ele>17.2</ele>
        <time>2020-06-24T09:24:28Z</time>
      </trkpt>
      <trkpt lat="50.45256" lon="3.41329">
        <ele>17.1</ele>
        <time>2020-06-24T09:24:29Z</time>
      </trkpt>
      <trkpt lat="50.45251" lon="3.41334">
        <ele>17</ele>
        <time>2020-06-24T09:24:30Z</time>
      </trkpt>
      <trkpt lat="50.45247" lon="3.4134">
        <ele>17</ele>
        <time>2020-06-24T09:24:31Z</time>
      </trkpt>
      <trkpt lat="50.45243" lon="3.41346">
        <ele>16.9</ele>
        <time>2020-06-24T09:24:32Z</time>
      </trkpt>
      <trkpt lat="50.45238" lon="3.41352">
        <ele>16.9</ele>
        <time>2020-06-24T09:24:33Z</time>
      </trkpt>
      <trkpt lat="50.45232" lon="3.41358">
        <ele>16.8</ele>
        <time>2020-06-24T09:24:34Z</time>
      </trkpt>
      <trkpt lat="50.45228" lon="3.41363">
        <ele>16.8</ele>
        <time>2020-06-24T09:24:35Z</time>
      </trkpt>
      <trkpt lat="50.45222" lon="3.41369">
        <ele>16.9</ele>
        <time>2020-06-24T09:24:36Z</time>
      </trkpt>
      <trkpt lat="50.45217" lon="3.41375">
        <ele>16.9</ele>
        <time>2020-06-24T09:24:37Z</time>
      </trkpt>
      <trkpt lat="50.45212" lon="3.41381">
        <ele>16.9</ele>
        <time>2020-06-24T09:24:38Z</time>
      </trkpt>
      <trkpt lat="50.45206" lon="3.41385">
        <ele>16.9</ele>
        <time>2020-06-24T09:24:39Z</time>
      </trkpt>
      <trkpt lat="50.45201" lon="3.4139">
        <ele>16.9</ele>
        <time>2020-06-24T09:24:40Z</time>
      </trkpt>
      <trkpt lat="50.45196" lon="3.41397">
        <ele>16.9</ele>
        <time>2020-06-24T09:24:41Z</time>
      </trkpt>
      <trkpt lat="50.45192" lon="3.41404">
        <ele>16.9</ele>
        <time>2020-06-24T09:24:42Z</time>
      </trkpt>
      <trkpt lat="50.45187" lon="3.4141">
        <ele>16.9</ele>
        <time>2020-06-24T09:24:43Z</time>
      </trkpt>
      <trkpt lat="50.45182" lon="3.41416">
        <ele>16.9</ele>
        <time>2020-06-24T09:24:44Z</time>
      </trkpt>
      <trkpt lat="50.45177" lon="3.41421">
        <ele>16.9</ele>
        <time>2020-06-24T09:24:45Z</time>
      </trkpt>
      <trkpt lat="50.45172" lon="3.41426">
        <ele>16.9</ele>
        <time>2020-06-24T09:24:46Z</time>
      </trkpt>
      <trkpt lat="50.45167" lon="3.41432">
        <ele>16.8</ele>
        <time>2020-06-24T09:24:47Z</time>
      </trkpt>
      <trkpt lat="50.45161" lon="3.41437">
        <ele>16.8</ele>
        <time>2020-06-24T09:24:48Z</time>
      </trkpt>
      <trkpt lat="50.45155" lon="3.41443">
        <ele>16.8</ele>
        <time>2020-06-24T09:24:49Z</time>
      </trkpt>
      <trkpt lat="50.4515" lon="3.41448">
        <ele>16.9</ele>
        <time>2020-06-24T09:24:50Z</time>
      </trkpt>
      <trkpt lat="50.45145" lon="3.41453">
        <ele>16.9</ele>
        <time>2020-06-24T09:24:51Z</time>
      </trkpt>
      <trkpt lat="50.45139" lon="3.41458">
        <ele>16.9</ele>
        <time>2020-06-24T09:24:52Z</time>
      </trkpt>
      <trkpt lat="50.45134" lon="3.41462">
        <ele>16.9</ele>
        <time>2020-06-24T09:24:53Z</time>
      </trkpt>
      <trkpt lat="50.45127" lon="3.41467">
        <ele>16.9</ele>
        <time>2020-06-24T09:24:54Z</time>
      </trkpt>
      <trkpt lat="50.45122" lon="3.41473">
        <ele>16.9</ele>
        <time>2020-06-24T09:24:55Z</time>
      </trkpt>
      <trkpt lat="50.45118" lon="3.41479">
        <ele>16.9</ele>
        <time>2020-06-24T09:24:56Z</time>
      </trkpt>
      <trkpt lat="50.45113" lon="3.41484">
        <ele>16.9</ele>
        <time>2020-06-24T09:24:57Z</time>
      </trkpt>
      <trkpt lat="50.45108" lon="3.41488">
        <ele>17</ele>
        <time>2020-06-24T09:24:58Z</time>
      </trkpt>
      <trkpt lat="50.45104" lon="3.41491">
        <ele>16.9</ele>
        <time>2020-06-24T09:24:59Z</time>
      </trkpt>
      <trkpt lat="50.451" lon="3.41495">
        <ele>16.9</ele>
        <time>2020-06-24T09:25:00Z</time>
      </trkpt>
      <trkpt lat="50.45095" lon="3.415">
        <ele>16.9</ele>
        <time>2020-06-24T09:25:01Z</time>
      </trkpt>
      <trkpt lat="50.45091" lon="3.41507">
        <ele>16.9</ele>
        <time>2020-06-24T09:25:02Z</time>
      </trkpt>
      <trkpt lat="50.45085" lon="3.41513">
        <ele>16.8</ele>
        <time>2020-06-24T09:25:03Z</time>
      </trkpt>
      <trkpt lat="50.45079" lon="3.41518">
        <ele>16.8</ele>
        <time>2020-06-24T09:25:04Z</time>
      </trkpt>
      <trkpt lat="50.45073" lon="3.41523">
        <ele>16.7</ele>
        <time>2020-06-24T09:25:05Z</time>
      </trkpt>
      <trkpt lat="50.45066" lon="3.41529">
        <ele>16.7</ele>
        <time>2020-06-24T09:25:06Z</time>
      </trkpt>
      <trkpt lat="50.45059" lon="3.41536">
        <ele>16.7</ele>
        <time>2020-06-24T09:25:07Z</time>
      </trkpt>
      <trkpt lat="50.45053" lon="3.41541">
        <ele>16.6</ele>
        <time>2020-06-24T09:25:08Z</time>
      </trkpt>
      <trkpt lat="50.45047" lon="3.41546">
        <ele>16.6</ele>
        <time>2020-06-24T09:25:09Z</time>
      </trkpt>
      <trkpt lat="50.45042" lon="3.41551">
        <ele>16.6</ele>
        <time>2020-06-24T09:25:10Z</time>
      </trkpt>
      <trkpt lat="50.45037" lon="3.41556">
        <ele>16.6</ele>
        <time>2020-06-24T09:25:11Z</time>
      </trkpt>
      <trkpt lat="50.45031" lon="3.41559">
        <ele>16.6</ele>
        <time>2020-06-24T09:25:12Z</time>
      </trkpt>
      <trkpt lat="50.45026" lon="3.41564">
        <ele>16.6</ele>
        <time>2020-06-24T09:25:13Z</time>
      </trkpt>
      <trkpt lat="50.45021" lon="3.41568">
        <ele>16.6</ele>
        <time>2020-06-24T09:25:14Z</time>
      </trkpt>
      <trkpt lat="50.45016" lon="3.41575">
        <ele>16.5</ele>
        <time>2020-06-24T09:25:15Z</time>
      </trkpt>
      <trkpt lat="50.4501" lon="3.41581">
        <ele>16.5</ele>
        <time>2020-06-24T09:25:16Z</time>
      </trkpt>
      <trkpt lat="50.45005" lon="3.41587">
        <ele>16.5</ele>
        <time>2020-06-24T09:25:17Z</time>
      </trkpt>
      <trkpt lat="50.44999" lon="3.41593">
        <ele>16.5</ele>
        <time>2020-06-24T09:25:18Z</time>
      </trkpt>
      <trkpt lat="50.44993" lon="3.41598">
        <ele>16.6</ele>
        <time>2020-06-24T09:25:19Z</time>
      </trkpt>
      <trkpt lat="50.44988" lon="3.41604">
        <ele>16.6</ele>
        <time>2020-06-24T09:25:20Z</time>
      </trkpt>
      <trkpt lat="50.44983" lon="3.41609">
        <ele>16.6</ele>
        <time>2020-06-24T09:25:21Z</time>
      </trkpt>
      <trkpt lat="50.44979" lon="3.41613">
        <ele>16.6</ele>
        <time>2020-06-24T09:25:22Z</time>
      </trkpt>
      <trkpt lat="50.44977" lon="3.41619">
        <ele>16.6</ele>
        <time>2020-06-24T09:25:23Z</time>
      </trkpt>
      <trkpt lat="50.44974" lon="3.41625">
        <ele>16.6</ele>
        <time>2020-06-24T09:25:24Z</time>
      </trkpt>
      <trkpt lat="50.44972" lon="3.41629">
        <ele>16.6</ele>
        <time>2020-06-24T09:25:25Z</time>
      </trkpt>
      <trkpt lat="50.44968" lon="3.41634">
        <ele>16.6</ele>
        <time>2020-06-24T09:25:26Z</time>
      </trkpt>
      <trkpt lat="50.44964" lon="3.41641">
        <ele>16.6</ele>
        <time>2020-06-24T09:25:27Z</time>
      </trkpt>
      <trkpt lat="50.4496" lon="3.41648">
        <ele>16.6</ele>
        <time>2020-06-24T09:25:28Z</time>
      </trkpt>
      <trkpt lat="50.44956" lon="3.41655">
        <ele>16.6</ele>
        <time>2020-06-24T09:25:29Z</time>
      </trkpt>
      <trkpt lat="50.44952" lon="3.41661">
        <ele>16.6</ele>
        <time>2020-06-24T09:25:30Z</time>
      </trkpt>
      <trkpt lat="50.44948" lon="3.41669">
        <ele>16.6</ele>
        <time>2020-06-24T09:25:31Z</time>
      </trkpt>
      <trkpt lat="50.44943" lon="3.41678">
        <ele>16.6</ele>
        <time>2020-06-24T09:25:32Z</time>
      </trkpt>
      <trkpt lat="50.44939" lon="3.41685">
        <ele>16.6</ele>
        <time>2020-06-24T09:25:33Z</time>
      </trkpt>
      <trkpt lat="50.44935" lon="3.41691">
        <ele>16.6</ele>
        <time>2020-06-24T09:25:34Z</time>
      </trkpt>
      <trkpt lat="50.4493" lon="3.41697">
        <ele>16.6</ele>
        <time>2020-06-24T09:25:35Z</time>
      </trkpt>
      <trkpt lat="50.44927" lon="3.41704">
        <ele>16.6</ele>
        <time>2020-06-24T09:25:36Z</time>
      </trkpt>
      <trkpt lat="50.44924" lon="3.41712">
        <ele>16.6</ele>
        <time>2020-06-24T09:25:37Z</time>
      </trkpt>
      <trkpt lat="50.44919" lon="3.41719">
        <ele>16.6</ele>
        <time>2020-06-24T09:25:38Z</time>
      </trkpt>
      <trkpt lat="50.44915" lon="3.41727">
        <ele>16.6</ele>
        <time>2020-06-24T09:25:39Z</time>
      </trkpt>
      <trkpt lat="50.4491" lon="3.41735">
        <ele>16.6</ele>
        <time>2020-06-24T09:25:40Z</time>
      </trkpt>
      <trkpt lat="50.44907" lon="3.41742">
        <ele>16.6</ele>
        <time>2020-06-24T09:25:41Z</time>
      </trkpt>
      <trkpt lat="50.44903" lon="3.41748">
        <ele>16.6</ele>
        <time>2020-06-24T09:25:42Z</time>
      </trkpt>
      <trkpt lat="50.44899" lon="3.41755">
        <ele>16.7</ele>
        <time>2020-06-24T09:25:43Z</time>
      </trkpt>
      <trkpt lat="50.44894" lon="3.41764">
        <ele>16.7</ele>
        <time>2020-06-24T09:25:44Z</time>
      </trkpt>
      <trkpt lat="50.44889" lon="3.41772">
        <ele>16.6</ele>
        <time>2020-06-24T09:25:45Z</time>
      </trkpt>
      <trkpt lat="50.44884" lon="3.41778">
        <ele>16.6</ele>
        <time>2020-06-24T09:25:46Z</time>
      </trkpt>
      <trkpt lat="50.4488" lon="3.41784">
        <ele>16.6</ele>
        <time>2020-06-24T09:25:47Z</time>
      </trkpt>
      <trkpt lat="50.44877" lon="3.4179">
        <ele>16.6</ele>
        <time>2020-06-24T09:25:48Z</time>
      </trkpt>
      <trkpt lat="50.44873" lon="3.41795">
        <ele>16.6</ele>
        <time>2020-06-24T09:25:49Z</time>
      </trkpt>
      <trkpt lat="50.44869" lon="3.41803">
        <ele>16.7</ele>
        <time>2020-06-24T09:25:50Z</time>
      </trkpt>
      <trkpt lat="50.44866" lon="3.41811">
        <ele>16.7</ele>
        <time>2020-06-24T09:25:51Z</time>
      </trkpt>
      <trkpt lat="50.44864" lon="3.41818">
        <ele>16.7</ele>
        <time>2020-06-24T09:25:52Z</time>
      </trkpt>
      <trkpt lat="50.4486" lon="3.41825">
        <ele>16.8</ele>
        <time>2020-06-24T09:25:53Z</time>
      </trkpt>
      <trkpt lat="50.44856" lon="3.41833">
        <ele>16.8</ele>
        <time>2020-06-24T09:25:54Z</time>
      </trkpt>
      <trkpt lat="50.44852" lon="3.41841">
        <ele>16.8</ele>
        <time>2020-06-24T09:25:55Z</time>
      </trkpt>
      <trkpt lat="50.44848" lon="3.4185">
        <ele>16.8</ele>
        <time>2020-06-24T09:25:56Z</time>
      </trkpt>
      <trkpt lat="50.44842" lon="3.41855">
        <ele>16.8</ele>
        <time>2020-06-24T09:25:57Z</time>
      </trkpt>
      <trkpt lat="50.44835" lon="3.41862">
        <ele>16.8</ele>
        <time>2020-06-24T09:25:58Z</time>
      </trkpt>
      <trkpt lat="50.44829" lon="3.41869">
        <ele>16.8</ele>
        <time>2020-06-24T09:25:59Z</time>
      </trkpt>
      <trkpt lat="50.44824" lon="3.41874">
        <ele>16.8</ele>
        <time>2020-06-24T09:26:00Z</time>
      </trkpt>
      <trkpt lat="50.4482" lon="3.41879">
        <ele>16.7</ele>
        <time>2020-06-24T09:26:01Z</time>
      </trkpt>
      <trkpt lat="50.44816" lon="3.41885">
        <ele>16.7</ele>
        <time>2020-06-24T09:26:02Z</time>
      </trkpt>
      <trkpt lat="50.44811" lon="3.41892">
        <ele>16.6</ele>
        <time>2020-06-24T09:26:03Z</time>
      </trkpt>
      <trkpt lat="50.44807" lon="3.41899">
        <ele>16.6</ele>
        <time>2020-06-24T09:26:04Z</time>
      </trkpt>
      <trkpt lat="50.44804" lon="3.41904">
        <ele>16.5</ele>
        <time>2020-06-24T09:26:05Z</time>
      </trkpt>
      <trkpt lat="50.448" lon="3.41911">
        <ele>16.5</ele>
        <time>2020-06-24T09:26:06Z</time>
      </trkpt>
      <trkpt lat="50.44797" lon="3.41919">
        <ele>16.4</ele>
        <time>2020-06-24T09:26:07Z</time>
      </trkpt>
      <trkpt lat="50.44794" lon="3.41924">
        <ele>16.4</ele>
        <time>2020-06-24T09:26:08Z</time>
      </trkpt>
      <trkpt lat="50.4479" lon="3.41931">
        <ele>16.4</ele>
        <time>2020-06-24T09:26:09Z</time>
      </trkpt>
      <trkpt lat="50.44787" lon="3.41938">
        <ele>16.4</ele>
        <time>2020-06-24T09:26:10Z</time>
      </trkpt>
      <trkpt lat="50.44783" lon="3.41946">
        <ele>16.4</ele>
        <time>2020-06-24T09:26:11Z</time>
      </trkpt>
      <trkpt lat="50.44781" lon="3.41952">
        <ele>16.4</ele>
        <time>2020-06-24T09:26:12Z</time>
      </trkpt>
      <trkpt lat="50.44778" lon="3.41961">
        <ele>16.4</ele>
        <time>2020-06-24T09:26:13Z</time>
      </trkpt>
      <trkpt lat="50.44775" lon="3.41968">
        <ele>16.4</ele>
        <time>2020-06-24T09:26:14Z</time>
      </trkpt>
      <trkpt lat="50.44773" lon="3.41977">
        <ele>16.4</ele>
        <time>2020-06-24T09:26:15Z</time>
      </trkpt>
      <trkpt lat="50.44771" lon="3.41987">
        <ele>16.5</ele>
        <time>2020-06-24T09:26:16Z</time>
      </trkpt>
      <trkpt lat="50.44769" lon="3.41994">
        <ele>16.5</ele>
        <time>2020-06-24T09:26:17Z</time>
      </trkpt>
      <trkpt lat="50.44768" lon="3.42003">
        <ele>16.5</ele>
        <time>2020-06-24T09:26:18Z</time>
      </trkpt>
      <trkpt lat="50.44766" lon="3.42011">
        <ele>16.6</ele>
        <time>2020-06-24T09:26:19Z</time>
      </trkpt>
      <trkpt lat="50.44765" lon="3.42018">
        <ele>16.6</ele>
        <time>2020-06-24T09:26:20Z</time>
      </trkpt>
      <trkpt lat="50.44764" lon="3.42026">
        <ele>16.6</ele>
        <time>2020-06-24T09:26:21Z</time>
      </trkpt>
      <trkpt lat="50.44762" lon="3.42033">
        <ele>16.6</ele>
        <time>2020-06-24T09:26:22Z</time>
      </trkpt>
      <trkpt lat="50.4476" lon="3.42044">
        <ele>16.7</ele>
        <time>2020-06-24T09:26:23Z</time>
      </trkpt>
      <trkpt lat="50.44758" lon="3.42054">
        <ele>16.8</ele>
        <time>2020-06-24T09:26:24Z</time>
      </trkpt>
      <trkpt lat="50.44757" lon="3.42061">
        <ele>16.8</ele>
        <time>2020-06-24T09:26:25Z</time>
      </trkpt>
      <trkpt lat="50.44756" lon="3.42067">
        <ele>16.8</ele>
        <time>2020-06-24T09:26:26Z</time>
      </trkpt>
      <trkpt lat="50.44755" lon="3.42074">
        <ele>16.9</ele>
        <time>2020-06-24T09:26:27Z</time>
      </trkpt>
      <trkpt lat="50.44753" lon="3.42082">
        <ele>16.9</ele>
        <time>2020-06-24T09:26:28Z</time>
      </trkpt>
      <trkpt lat="50.44752" lon="3.42092">
        <ele>17</ele>
        <time>2020-06-24T09:26:29Z</time>
      </trkpt>
      <trkpt lat="50.44751" lon="3.421">
        <ele>17</ele>
        <time>2020-06-24T09:26:30Z</time>
      </trkpt>
      <trkpt lat="50.44749" lon="3.42108">
        <ele>17</ele>
        <time>2020-06-24T09:26:31Z</time>
      </trkpt>
      <trkpt lat="50.44747" lon="3.42117">
        <ele>17.1</ele>
        <time>2020-06-24T09:26:32Z</time>
      </trkpt>
      <trkpt lat="50.44745" lon="3.42127">
        <ele>17.1</ele>
        <time>2020-06-24T09:26:33Z</time>
      </trkpt>
      <trkpt lat="50.44743" lon="3.42135">
        <ele>17.1</ele>
        <time>2020-06-24T09:26:34Z</time>
      </trkpt>
      <trkpt lat="50.44741" lon="3.42145">
        <ele>17.1</ele>
        <time>2020-06-24T09:26:35Z</time>
      </trkpt>
      <trkpt lat="50.4474" lon="3.42154">
        <ele>17.1</ele>
        <time>2020-06-24T09:26:36Z</time>
      </trkpt>
      <trkpt lat="50.44738" lon="3.42163">
        <ele>17.1</ele>
        <time>2020-06-24T09:26:37Z</time>
      </trkpt>
      <trkpt lat="50.44737" lon="3.42171">
        <ele>17</ele>
        <time>2020-06-24T09:26:38Z</time>
      </trkpt>
      <trkpt lat="50.44734" lon="3.4218">
        <ele>17</ele>
        <time>2020-06-24T09:26:39Z</time>
      </trkpt>
      <trkpt lat="50.44729" lon="3.4219">
        <ele>17.1</ele>
        <time>2020-06-24T09:26:40Z</time>
      </trkpt>
      <trkpt lat="50.44726" lon="3.42197">
        <ele>17.1</ele>
        <time>2020-06-24T09:26:41Z</time>
      </trkpt>
      <trkpt lat="50.44722" lon="3.42205">
        <ele>17</ele>
        <time>2020-06-24T09:26:42Z</time>
      </trkpt>
      <trkpt lat="50.44718" lon="3.4221">
        <ele>17</ele>
        <time>2020-06-24T09:26:43Z</time>
      </trkpt>
      <trkpt lat="50.44714" lon="3.42216">
        <ele>17</ele>
        <time>2020-06-24T09:26:44Z</time>
      </trkpt>
      <trkpt lat="50.44709" lon="3.42221">
        <ele>17</ele>
        <time>2020-06-24T09:26:45Z</time>
      </trkpt>
      <trkpt lat="50.44705" lon="3.42226">
        <ele>17</ele>
        <time>2020-06-24T09:26:46Z</time>
      </trkpt>
      <trkpt lat="50.44701" lon="3.4223">
        <ele>17</ele>
        <time>2020-06-24T09:26:47Z</time>
      </trkpt>
      <trkpt lat="50.44697" lon="3.42235">
        <ele>17.3</ele>
        <time>2020-06-24T09:26:48Z</time>
      </trkpt>
      <trkpt lat="50.44694" lon="3.42238">
        <ele>17.4</ele>
        <time>2020-06-24T09:26:49Z</time>
      </trkpt>
      <trkpt lat="50.4469" lon="3.42241">
        <ele>17.5</ele>
        <time>2020-06-24T09:26:50Z</time>
      </trkpt>
      <trkpt lat="50.44688" lon="3.42242">
        <ele>17.6</ele>
        <time>2020-06-24T09:26:51Z</time>
      </trkpt>
      <trkpt lat="50.44685" lon="3.42246">
        <ele>17.7</ele>
        <time>2020-06-24T09:26:52Z</time>
      </trkpt>
      <trkpt lat="50.44683" lon="3.42248">
        <ele>17.7</ele>
        <time>2020-06-24T09:26:53Z</time>
      </trkpt>
      <trkpt lat="50.44682" lon="3.42253">
        <ele>17.6</ele>
        <time>2020-06-24T09:26:54Z</time>
      </trkpt>
      <trkpt lat="50.4468" lon="3.42258">
        <ele>17.6</ele>
        <time>2020-06-24T09:26:55Z</time>
      </trkpt>
      <trkpt lat="50.44681" lon="3.42263">
        <ele>17.6</ele>
        <time>2020-06-24T09:26:56Z</time>
      </trkpt>
      <trkpt lat="50.44683" lon="3.42267">
        <ele>17.5</ele>
        <time>2020-06-24T09:26:57Z</time>
      </trkpt>
      <trkpt lat="50.44683" lon="3.42274">
        <ele>17.5</ele>
        <time>2020-06-24T09:26:58Z</time>
      </trkpt>
      <trkpt lat="50.44683" lon="3.4228">
        <ele>17.4</ele>
        <time>2020-06-24T09:26:59Z</time>
      </trkpt>
      <trkpt lat="50.44683" lon="3.42286">
        <ele>17.4</ele>
        <time>2020-06-24T09:27:00Z</time>
      </trkpt>
      <trkpt lat="50.44683" lon="3.42293">
        <ele>17.4</ele>
        <time>2020-06-24T09:27:01Z</time>
      </trkpt>
      <trkpt lat="50.44683" lon="3.423">
        <ele>17.4</ele>
        <time>2020-06-24T09:27:02Z</time>
      </trkpt>
      <trkpt lat="50.44682" lon="3.42309">
        <ele>17.4</ele>
        <time>2020-06-24T09:27:03Z</time>
      </trkpt>
      <trkpt lat="50.44682" lon="3.42317">
        <ele>17.4</ele>
        <time>2020-06-24T09:27:04Z</time>
      </trkpt>
      <trkpt lat="50.44681" lon="3.42323">
        <ele>17.5</ele>
        <time>2020-06-24T09:27:05Z</time>
      </trkpt>
      <trkpt lat="50.44681" lon="3.4233">
        <ele>17.5</ele>
        <time>2020-06-24T09:27:06Z</time>
      </trkpt>
      <trkpt lat="50.44681" lon="3.42335">
        <ele>17.5</ele>
        <time>2020-06-24T09:27:07Z</time>
      </trkpt>
      <trkpt lat="50.44681" lon="3.42341">
        <ele>17.6</ele>
        <time>2020-06-24T09:27:08Z</time>
      </trkpt>
      <trkpt lat="50.4468" lon="3.42346">
        <ele>17.6</ele>
        <time>2020-06-24T09:27:09Z</time>
      </trkpt>
      <trkpt lat="50.44679" lon="3.42353">
        <ele>17.6</ele>
        <time>2020-06-24T09:27:10Z</time>
      </trkpt>
      <trkpt lat="50.44678" lon="3.42361">
        <ele>17.7</ele>
        <time>2020-06-24T09:27:11Z</time>
      </trkpt>
      <trkpt lat="50.44677" lon="3.42366">
        <ele>17.7</ele>
        <time>2020-06-24T09:27:12Z</time>
      </trkpt>
      <trkpt lat="50.44675" lon="3.42373">
        <ele>17.8</ele>
        <time>2020-06-24T09:27:13Z</time>
      </trkpt>
      <trkpt lat="50.44673" lon="3.42379">
        <ele>17.9</ele>
        <time>2020-06-24T09:27:14Z</time>
      </trkpt>
      <trkpt lat="50.44671" lon="3.42386">
        <ele>17.9</ele>
        <time>2020-06-24T09:27:15Z</time>
      </trkpt>
      <trkpt lat="50.44669" lon="3.42394">
        <ele>18</ele>
        <time>2020-06-24T09:27:16Z</time>
      </trkpt>
      <trkpt lat="50.44667" lon="3.42401">
        <ele>18.1</ele>
        <time>2020-06-24T09:27:17Z</time>
      </trkpt>
      <trkpt lat="50.44664" lon="3.42407">
        <ele>18.1</ele>
        <time>2020-06-24T09:27:18Z</time>
      </trkpt>
      <trkpt lat="50.4466" lon="3.42414">
        <ele>18.2</ele>
        <time>2020-06-24T09:27:19Z</time>
      </trkpt>
      <trkpt lat="50.44659" lon="3.42421">
        <ele>18.1</ele>
        <time>2020-06-24T09:27:20Z</time>
      </trkpt>
      <trkpt lat="50.44657" lon="3.42427">
        <ele>18.1</ele>
        <time>2020-06-24T09:27:21Z</time>
      </trkpt>
      <trkpt lat="50.44656" lon="3.42434">
        <ele>18</ele>
        <time>2020-06-24T09:27:22Z</time>
      </trkpt>
      <trkpt lat="50.44654" lon="3.42443">
        <ele>18</ele>
        <time>2020-06-24T09:27:23Z</time>
      </trkpt>
      <trkpt lat="50.44653" lon="3.42451">
        <ele>17.9</ele>
        <time>2020-06-24T09:27:24Z</time>
      </trkpt>
      <trkpt lat="50.44652" lon="3.4246">
        <ele>17.9</ele>
        <time>2020-06-24T09:27:25Z</time>
      </trkpt>
      <trkpt lat="50.4465" lon="3.42467">
        <ele>17.8</ele>
        <time>2020-06-24T09:27:26Z</time>
      </trkpt>
      <trkpt lat="50.4465" lon="3.42475">
        <ele>17.8</ele>
        <time>2020-06-24T09:27:27Z</time>
      </trkpt>
      <trkpt lat="50.44648" lon="3.42484">
        <ele>17.7</ele>
        <time>2020-06-24T09:27:28Z</time>
      </trkpt>
      <trkpt lat="50.44647" lon="3.42493">
        <ele>17.7</ele>
        <time>2020-06-24T09:27:29Z</time>
      </trkpt>
      <trkpt lat="50.44644" lon="3.42502">
        <ele>17.6</ele>
        <time>2020-06-24T09:27:30Z</time>
      </trkpt>
      <trkpt lat="50.44641" lon="3.4251">
        <ele>17.6</ele>
        <time>2020-06-24T09:27:31Z</time>
      </trkpt>
      <trkpt lat="50.44638" lon="3.4252">
        <ele>17.5</ele>
        <time>2020-06-24T09:27:32Z</time>
      </trkpt>
      <trkpt lat="50.44636" lon="3.42529">
        <ele>17.5</ele>
        <time>2020-06-24T09:27:33Z</time>
      </trkpt>
      <trkpt lat="50.44634" lon="3.42536">
        <ele>17.4</ele>
        <time>2020-06-24T09:27:34Z</time>
      </trkpt>
      <trkpt lat="50.44632" lon="3.42544">
        <ele>17.4</ele>
        <time>2020-06-24T09:27:35Z</time>
      </trkpt>
      <trkpt lat="50.44629" lon="3.42552">
        <ele>17.3</ele>
        <time>2020-06-24T09:27:36Z</time>
      </trkpt>
      <trkpt lat="50.44627" lon="3.4256">
        <ele>17.2</ele>
        <time>2020-06-24T09:27:37Z</time>
      </trkpt>
      <trkpt lat="50.44625" lon="3.42568">
        <ele>17.1</ele>
        <time>2020-06-24T09:27:38Z</time>
      </trkpt>
      <trkpt lat="50.44623" lon="3.42576">
        <ele>17.1</ele>
        <time>2020-06-24T09:27:39Z</time>
      </trkpt>
      <trkpt lat="50.44621" lon="3.42584">
        <ele>17</ele>
        <time>2020-06-24T09:27:40Z</time>
      </trkpt>
      <trkpt lat="50.4462" lon="3.42593">
        <ele>17</ele>
        <time>2020-06-24T09:27:41Z</time>
      </trkpt>
      <trkpt lat="50.44621" lon="3.42603">
        <ele>16.9</ele>
        <time>2020-06-24T09:27:42Z</time>
      </trkpt>
      <trkpt lat="50.44621" lon="3.42612">
        <ele>16.8</ele>
        <time>2020-06-24T09:27:43Z</time>
      </trkpt>
      <trkpt lat="50.44622" lon="3.42621">
        <ele>16.8</ele>
        <time>2020-06-24T09:27:44Z</time>
      </trkpt>
      <trkpt lat="50.44623" lon="3.42629">
        <ele>16.8</ele>
        <time>2020-06-24T09:27:45Z</time>
      </trkpt>
      <trkpt lat="50.44624" lon="3.42638">
        <ele>16.8</ele>
        <time>2020-06-24T09:27:46Z</time>
      </trkpt>
      <trkpt lat="50.44626" lon="3.42647">
        <ele>16.8</ele>
        <time>2020-06-24T09:27:47Z</time>
      </trkpt>
      <trkpt lat="50.44627" lon="3.42654">
        <ele>16.8</ele>
        <time>2020-06-24T09:27:48Z</time>
      </trkpt>
      <trkpt lat="50.44629" lon="3.42663">
        <ele>16.7</ele>
        <time>2020-06-24T09:27:49Z</time>
      </trkpt>
      <trkpt lat="50.4463" lon="3.42672">
        <ele>16.7</ele>
        <time>2020-06-24T09:27:50Z</time>
      </trkpt>
      <trkpt lat="50.44631" lon="3.42681">
        <ele>16.7</ele>
        <time>2020-06-24T09:27:51Z</time>
      </trkpt>
      <trkpt lat="50.4463" lon="3.42691">
        <ele>16.7</ele>
        <time>2020-06-24T09:27:52Z</time>
      </trkpt>
      <trkpt lat="50.44627" lon="3.42698">
        <ele>16.7</ele>
        <time>2020-06-24T09:27:53Z</time>
      </trkpt>
      <trkpt lat="50.44623" lon="3.42705">
        <ele>16.7</ele>
        <time>2020-06-24T09:27:54Z</time>
      </trkpt>
      <trkpt lat="50.44619" lon="3.42714">
        <ele>16.7</ele>
        <time>2020-06-24T09:27:55Z</time>
      </trkpt>
      <trkpt lat="50.44616" lon="3.42722">
        <ele>16.7</ele>
        <time>2020-06-24T09:27:56Z</time>
      </trkpt>
      <trkpt lat="50.44611" lon="3.42729">
        <ele>16.6</ele>
        <time>2020-06-24T09:27:57Z</time>
      </trkpt>
      <trkpt lat="50.44607" lon="3.42736">
        <ele>16.6</ele>
        <time>2020-06-24T09:27:58Z</time>
      </trkpt>
      <trkpt lat="50.44603" lon="3.42743">
        <ele>16.6</ele>
        <time>2020-06-24T09:27:59Z</time>
      </trkpt>
      <trkpt lat="50.44599" lon="3.42751">
        <ele>16.6</ele>
        <time>2020-06-24T09:28:00Z</time>
      </trkpt>
      <trkpt lat="50.44595" lon="3.42758">
        <ele>16.6</ele>
        <time>2020-06-24T09:28:01Z</time>
      </trkpt>
      <trkpt lat="50.44592" lon="3.42766">
        <ele>16.7</ele>
        <time>2020-06-24T09:28:02Z</time>
      </trkpt>
      <trkpt lat="50.44587" lon="3.42774">
        <ele>16.8</ele>
        <time>2020-06-24T09:28:03Z</time>
      </trkpt>
      <trkpt lat="50.44583" lon="3.42782">
        <ele>16.7</ele>
        <time>2020-06-24T09:28:04Z</time>
      </trkpt>
      <trkpt lat="50.44581" lon="3.42791">
        <ele>16.7</ele>
        <time>2020-06-24T09:28:05Z</time>
      </trkpt>
      <trkpt lat="50.44577" lon="3.42799">
        <ele>16.6</ele>
        <time>2020-06-24T09:28:06Z</time>
      </trkpt>
      <trkpt lat="50.44573" lon="3.42806">
        <ele>16.6</ele>
        <time>2020-06-24T09:28:07Z</time>
      </trkpt>
      <trkpt lat="50.44568" lon="3.42814">
        <ele>16.5</ele>
        <time>2020-06-24T09:28:08Z</time>
      </trkpt>
      <trkpt lat="50.44563" lon="3.42823">
        <ele>16.4</ele>
        <time>2020-06-24T09:28:09Z</time>
      </trkpt>
      <trkpt lat="50.44559" lon="3.42833">
        <ele>16.4</ele>
        <time>2020-06-24T09:28:10Z</time>
      </trkpt>
      <trkpt lat="50.44555" lon="3.4284">
        <ele>16.3</ele>
        <time>2020-06-24T09:28:11Z</time>
      </trkpt>
      <trkpt lat="50.44552" lon="3.42848">
        <ele>16.2</ele>
        <time>2020-06-24T09:28:12Z</time>
      </trkpt>
      <trkpt lat="50.44548" lon="3.42853">
        <ele>16.2</ele>
        <time>2020-06-24T09:28:13Z</time>
      </trkpt>
      <trkpt lat="50.44544" lon="3.42861">
        <ele>16.1</ele>
        <time>2020-06-24T09:28:14Z</time>
      </trkpt>
      <trkpt lat="50.44539" lon="3.42867">
        <ele>16.1</ele>
        <time>2020-06-24T09:28:15Z</time>
      </trkpt>
      <trkpt lat="50.44535" lon="3.4287">
        <ele>16.1</ele>
        <time>2020-06-24T09:28:16Z</time>
      </trkpt>
      <trkpt lat="50.4453" lon="3.42873">
        <ele>16</ele>
        <time>2020-06-24T09:28:17Z</time>
      </trkpt>
      <trkpt lat="50.44523" lon="3.42875">
        <ele>16</ele>
        <time>2020-06-24T09:28:18Z</time>
      </trkpt>
      <trkpt lat="50.44518" lon="3.42878">
        <ele>15.9</ele>
        <time>2020-06-24T09:28:19Z</time>
      </trkpt>
      <trkpt lat="50.44513" lon="3.4288">
        <ele>16</ele>
        <time>2020-06-24T09:28:20Z</time>
      </trkpt>
      <trkpt lat="50.44508" lon="3.42883">
        <ele>16</ele>
        <time>2020-06-24T09:28:21Z</time>
      </trkpt>
      <trkpt lat="50.44504" lon="3.42885">
        <ele>16</ele>
        <time>2020-06-24T09:28:22Z</time>
      </trkpt>
      <trkpt lat="50.44501" lon="3.42886">
        <ele>16</ele>
        <time>2020-06-24T09:28:23Z</time>
      </trkpt>
      <trkpt lat="50.44497" lon="3.42889">
        <ele>16.1</ele>
        <time>2020-06-24T09:28:24Z</time>
      </trkpt>
      <trkpt lat="50.44491" lon="3.42891">
        <ele>16.1</ele>
        <time>2020-06-24T09:28:25Z</time>
      </trkpt>
      <trkpt lat="50.44484" lon="3.42894">
        <ele>16.2</ele>
        <time>2020-06-24T09:28:26Z</time>
      </trkpt>
      <trkpt lat="50.44478" lon="3.42899">
        <ele>16.3</ele>
        <time>2020-06-24T09:28:27Z</time>
      </trkpt>
      <trkpt lat="50.44474" lon="3.42903">
        <ele>16.4</ele>
        <time>2020-06-24T09:28:28Z</time>
      </trkpt>
      <trkpt lat="50.44472" lon="3.42907">
        <ele>16.4</ele>
        <time>2020-06-24T09:28:29Z</time>
      </trkpt>
      <trkpt lat="50.44472" lon="3.4291">
        <ele>16.4</ele>
        <time>2020-06-24T09:28:30Z</time>
      </trkpt>
      <trkpt lat="50.44472" lon="3.42918">
        <ele>16.4</ele>
        <time>2020-06-24T09:28:31Z</time>
      </trkpt>
      <trkpt lat="50.44472" lon="3.42923">
        <ele>16.4</ele>
        <time>2020-06-24T09:28:32Z</time>
      </trkpt>
      <trkpt lat="50.44473" lon="3.42929">
        <ele>16.4</ele>
        <time>2020-06-24T09:28:33Z</time>
      </trkpt>
      <trkpt lat="50.44474" lon="3.42933">
        <ele>16.4</ele>
        <time>2020-06-24T09:28:34Z</time>
      </trkpt>
      <trkpt lat="50.44475" lon="3.42939">
        <ele>16.4</ele>
        <time>2020-06-24T09:28:35Z</time>
      </trkpt>
      <trkpt lat="50.44477" lon="3.42948">
        <ele>16.5</ele>
        <time>2020-06-24T09:28:36Z</time>
      </trkpt>
      <trkpt lat="50.44478" lon="3.42956">
        <ele>16.5</ele>
        <time>2020-06-24T09:28:37Z</time>
      </trkpt>
      <trkpt lat="50.44479" lon="3.42964">
        <ele>16.6</ele>
        <time>2020-06-24T09:28:38Z</time>
      </trkpt>
      <trkpt lat="50.44477" lon="3.42975">
        <ele>16.7</ele>
        <time>2020-06-24T09:28:39Z</time>
      </trkpt>
      <trkpt lat="50.44479" lon="3.42991">
        <ele>16.9</ele>
        <time>2020-06-24T09:28:40Z</time>
      </trkpt>
      <trkpt lat="50.44478" lon="3.43001">
        <ele>17.1</ele>
        <time>2020-06-24T09:28:41Z</time>
      </trkpt>
      <trkpt lat="50.44478" lon="3.4301">
        <ele>17.3</ele>
        <time>2020-06-24T09:28:42Z</time>
      </trkpt>
      <trkpt lat="50.44478" lon="3.43018">
        <ele>17.5</ele>
        <time>2020-06-24T09:28:43Z</time>
      </trkpt>
      <trkpt lat="50.44477" lon="3.43025">
        <ele>17.6</ele>
        <time>2020-06-24T09:28:44Z</time>
      </trkpt>
      <trkpt lat="50.44476" lon="3.43031">
        <ele>17.7</ele>
        <time>2020-06-24T09:28:45Z</time>
      </trkpt>
      <trkpt lat="50.44475" lon="3.43038">
        <ele>17.9</ele>
        <time>2020-06-24T09:28:46Z</time>
      </trkpt>
      <trkpt lat="50.44473" lon="3.43045">
        <ele>18</ele>
        <time>2020-06-24T09:28:47Z</time>
      </trkpt>
      <trkpt lat="50.44472" lon="3.43052">
        <ele>18.1</ele>
        <time>2020-06-24T09:28:48Z</time>
      </trkpt>
      <trkpt lat="50.44471" lon="3.4306">
        <ele>18.3</ele>
        <time>2020-06-24T09:28:49Z</time>
      </trkpt>
      <trkpt lat="50.4447" lon="3.43067">
        <ele>18.5</ele>
        <time>2020-06-24T09:28:50Z</time>
      </trkpt>
      <trkpt lat="50.44469" lon="3.43073">
        <ele>18.6</ele>
        <time>2020-06-24T09:28:51Z</time>
      </trkpt>
      <trkpt lat="50.44468" lon="3.4308">
        <ele>18.7</ele>
        <time>2020-06-24T09:28:52Z</time>
      </trkpt>
      <trkpt lat="50.44468" lon="3.43089">
        <ele>18.9</ele>
        <time>2020-06-24T09:28:53Z</time>
      </trkpt>
      <trkpt lat="50.44467" lon="3.43098">
        <ele>19.1</ele>
        <time>2020-06-24T09:28:54Z</time>
      </trkpt>
      <trkpt lat="50.44464" lon="3.43107">
        <ele>19.5</ele>
        <time>2020-06-24T09:28:55Z</time>
      </trkpt>
      <trkpt lat="50.44462" lon="3.43115">
        <ele>19.9</ele>
        <time>2020-06-24T09:28:56Z</time>
      </trkpt>
      <trkpt lat="50.44459" lon="3.43122">
        <ele>20.1</ele>
        <time>2020-06-24T09:28:57Z</time>
      </trkpt>
      <trkpt lat="50.44458" lon="3.43127">
        <ele>20.2</ele>
        <time>2020-06-24T09:28:58Z</time>
      </trkpt>
      <trkpt lat="50.44457" lon="3.43131">
        <ele>20.2</ele>
        <time>2020-06-24T09:28:59Z</time>
      </trkpt>
      <trkpt lat="50.44453" lon="3.43132">
        <ele>20.2</ele>
        <time>2020-06-24T09:29:00Z</time>
      </trkpt>
      <trkpt lat="50.44452" lon="3.43132">
        <ele>20.2</ele>
        <time>2020-06-24T09:29:01Z</time>
      </trkpt>
      <trkpt lat="50.44449" lon="3.43131">
        <ele>20.2</ele>
        <time>2020-06-24T09:29:02Z</time>
      </trkpt>
      <trkpt lat="50.44445" lon="3.4313">
        <ele>20.2</ele>
        <time>2020-06-24T09:29:03Z</time>
      </trkpt>
      <trkpt lat="50.44445" lon="3.43129">
        <ele>20.2</ele>
        <time>2020-06-24T09:29:04Z</time>
      </trkpt>
      <trkpt lat="50.44444" lon="3.4313">
        <ele>20.2</ele>
        <time>2020-06-24T09:29:05Z</time>
      </trkpt>
      <trkpt lat="50.44443" lon="3.4313">
        <ele>20.3</ele>
        <time>2020-06-24T09:29:06Z</time>
      </trkpt>
      <trkpt lat="50.44443" lon="3.4313">
        <ele>20.3</ele>
        <time>2020-06-24T09:29:07Z</time>
      </trkpt>
      <trkpt lat="50.44442" lon="3.4313">
        <ele>20.3</ele>
        <time>2020-06-24T09:29:08Z</time>
      </trkpt>
      <trkpt lat="50.44439" lon="3.43128">
        <ele>20.3</ele>
        <time>2020-06-24T09:29:09Z</time>
      </trkpt>
      <trkpt lat="50.44438" lon="3.43128">
        <ele>20.3</ele>
        <time>2020-06-24T09:29:10Z</time>
      </trkpt>
      <trkpt lat="50.44435" lon="3.43126">
        <ele>20.3</ele>
        <time>2020-06-24T09:29:11Z</time>
      </trkpt>
      <trkpt lat="50.44431" lon="3.43124">
        <ele>20.3</ele>
        <time>2020-06-24T09:29:12Z</time>
      </trkpt>
      <trkpt lat="50.44428" lon="3.43123">
        <ele>20.3</ele>
        <time>2020-06-24T09:29:13Z</time>
      </trkpt>
      <trkpt lat="50.44425" lon="3.43121">
        <ele>20.3</ele>
        <time>2020-06-24T09:29:14Z</time>
      </trkpt>
      <trkpt lat="50.4442" lon="3.43119">
        <ele>20.2</ele>
        <time>2020-06-24T09:29:15Z</time>
      </trkpt>
      <trkpt lat="50.44414" lon="3.43119">
        <ele>20.2</ele>
        <time>2020-06-24T09:29:16Z</time>
      </trkpt>
      <trkpt lat="50.44409" lon="3.43117">
        <ele>20.2</ele>
        <time>2020-06-24T09:29:17Z</time>
      </trkpt>
      <trkpt lat="50.44405" lon="3.43117">
        <ele>20.2</ele>
        <time>2020-06-24T09:29:18Z</time>
      </trkpt>
      <trkpt lat="50.44398" lon="3.43115">
        <ele>20.2</ele>
        <time>2020-06-24T09:29:19Z</time>
      </trkpt>
      <trkpt lat="50.44393" lon="3.43113">
        <ele>20.1</ele>
        <time>2020-06-24T09:29:20Z</time>
      </trkpt>
      <trkpt lat="50.44387" lon="3.4311">
        <ele>20.1</ele>
        <time>2020-06-24T09:29:21Z</time>
      </trkpt>
      <trkpt lat="50.44382" lon="3.43107">
        <ele>20</ele>
        <time>2020-06-24T09:29:22Z</time>
      </trkpt>
      <trkpt lat="50.44376" lon="3.43104">
        <ele>19.9</ele>
        <time>2020-06-24T09:29:23Z</time>
      </trkpt>
      <trkpt lat="50.44371" lon="3.43102">
        <ele>19.8</ele>
        <time>2020-06-24T09:29:24Z</time>
      </trkpt>
      <trkpt lat="50.44365" lon="3.431">
        <ele>19.7</ele>
        <time>2020-06-24T09:29:25Z</time>
      </trkpt>
      <trkpt lat="50.44359" lon="3.43097">
        <ele>19.6</ele>
        <time>2020-06-24T09:29:26Z</time>
      </trkpt>
      <trkpt lat="50.44352" lon="3.43095">
        <ele>19.4</ele>
        <time>2020-06-24T09:29:27Z</time>
      </trkpt>
      <trkpt lat="50.44346" lon="3.43093">
        <ele>19.2</ele>
        <time>2020-06-24T09:29:28Z</time>
      </trkpt>
      <trkpt lat="50.44339" lon="3.43091">
        <ele>19</ele>
        <time>2020-06-24T09:29:29Z</time>
      </trkpt>
      <trkpt lat="50.44332" lon="3.43089">
        <ele>18.8</ele>
        <time>2020-06-24T09:29:30Z</time>
      </trkpt>
      <trkpt lat="50.44326" lon="3.43088">
        <ele>18.6</ele>
        <time>2020-06-24T09:29:31Z</time>
      </trkpt>
      <trkpt lat="50.44319" lon="3.43086">
        <ele>18.4</ele>
        <time>2020-06-24T09:29:32Z</time>
      </trkpt>
      <trkpt lat="50.44312" lon="3.43083">
        <ele>18.2</ele>
        <time>2020-06-24T09:29:33Z</time>
      </trkpt>
      <trkpt lat="50.44305" lon="3.4308">
        <ele>18</ele>
        <time>2020-06-24T09:29:34Z</time>
      </trkpt>
      <trkpt lat="50.443" lon="3.43078">
        <ele>17.9</ele>
        <time>2020-06-24T09:29:35Z</time>
      </trkpt>
      <trkpt lat="50.44293" lon="3.43075">
        <ele>17.9</ele>
        <time>2020-06-24T09:29:36Z</time>
      </trkpt>
      <trkpt lat="50.44288" lon="3.43073">
        <ele>17.8</ele>
        <time>2020-06-24T09:29:37Z</time>
      </trkpt>
      <trkpt lat="50.44284" lon="3.43072">
        <ele>17.8</ele>
        <time>2020-06-24T09:29:38Z</time>
      </trkpt>
      <trkpt lat="50.4428" lon="3.43071">
        <ele>17.9</ele>
        <time>2020-06-24T09:29:39Z</time>
      </trkpt>
      <trkpt lat="50.44274" lon="3.43069">
        <ele>17.9</ele>
        <time>2020-06-24T09:29:40Z</time>
      </trkpt>
      <trkpt lat="50.4427" lon="3.43067">
        <ele>17.9</ele>
        <time>2020-06-24T09:29:41Z</time>
      </trkpt>
      <trkpt lat="50.44266" lon="3.43064">
        <ele>18.3</ele>
        <time>2020-06-24T09:29:42Z</time>
      </trkpt>
      <trkpt lat="50.44263" lon="3.43065">
        <ele>18.4</ele>
        <time>2020-06-24T09:29:43Z</time>
      </trkpt>
      <trkpt lat="50.4426" lon="3.43067">
        <ele>18.4</ele>
        <time>2020-06-24T09:29:44Z</time>
      </trkpt>
      <trkpt lat="50.44257" lon="3.43071">
        <ele>18.5</ele>
        <time>2020-06-24T09:29:45Z</time>
      </trkpt>
      <trkpt lat="50.44254" lon="3.43073">
        <ele>18.6</ele>
        <time>2020-06-24T09:29:46Z</time>
      </trkpt>
      <trkpt lat="50.44251" lon="3.43076">
        <ele>18.7</ele>
        <time>2020-06-24T09:29:47Z</time>
      </trkpt>
      <trkpt lat="50.44249" lon="3.43077">
        <ele>18.7</ele>
        <time>2020-06-24T09:29:48Z</time>
      </trkpt>
      <trkpt lat="50.44246" lon="3.43079">
        <ele>18.8</ele>
        <time>2020-06-24T09:29:49Z</time>
      </trkpt>
      <trkpt lat="50.44242" lon="3.43081">
        <ele>18.8</ele>
        <time>2020-06-24T09:29:50Z</time>
      </trkpt>
      <trkpt lat="50.4424" lon="3.43081">
        <ele>19</ele>
        <time>2020-06-24T09:29:51Z</time>
      </trkpt>
      <trkpt lat="50.44235" lon="3.43083">
        <ele>18.8</ele>
        <time>2020-06-24T09:29:52Z</time>
      </trkpt>
      <trkpt lat="50.4423" lon="3.43085">
        <ele>18.6</ele>
        <time>2020-06-24T09:29:53Z</time>
      </trkpt>
      <trkpt lat="50.44224" lon="3.43086">
        <ele>18.4</ele>
        <time>2020-06-24T09:29:54Z</time>
      </trkpt>
      <trkpt lat="50.44219" lon="3.43092">
        <ele>18.7</ele>
        <time>2020-06-24T09:29:55Z</time>
      </trkpt>
      <trkpt lat="50.44215" lon="3.43095">
        <ele>18.6</ele>
        <time>2020-06-24T09:29:56Z</time>
      </trkpt>
      <trkpt lat="50.44209" lon="3.43098">
        <ele>18.6</ele>
        <time>2020-06-24T09:29:57Z</time>
      </trkpt>
      <trkpt lat="50.44202" lon="3.43101">
        <ele>18.5</ele>
        <time>2020-06-24T09:29:58Z</time>
      </trkpt>
      <trkpt lat="50.44196" lon="3.43103">
        <ele>18.5</ele>
        <time>2020-06-24T09:29:59Z</time>
      </trkpt>
      <trkpt lat="50.44191" lon="3.43106">
        <ele>18.5</ele>
        <time>2020-06-24T09:30:00Z</time>
      </trkpt>
      <trkpt lat="50.44184" lon="3.43108">
        <ele>18.5</ele>
        <time>2020-06-24T09:30:01Z</time>
      </trkpt>
      <trkpt lat="50.44178" lon="3.43109">
        <ele>18.5</ele>
        <time>2020-06-24T09:30:02Z</time>
      </trkpt>
      <trkpt lat="50.44174" lon="3.43111">
        <ele>18.5</ele>
        <time>2020-06-24T09:30:03Z</time>
      </trkpt>
      <trkpt lat="50.44169" lon="3.43113">
        <ele>18.5</ele>
        <time>2020-06-24T09:30:04Z</time>
      </trkpt>
      <trkpt lat="50.44163" lon="3.43116">
        <ele>18.5</ele>
        <time>2020-06-24T09:30:05Z</time>
      </trkpt>
      <trkpt lat="50.44157" lon="3.43118">
        <ele>18.5</ele>
        <time>2020-06-24T09:30:06Z</time>
      </trkpt>
      <trkpt lat="50.44152" lon="3.4312">
        <ele>18.5</ele>
        <time>2020-06-24T09:30:07Z</time>
      </trkpt>
      <trkpt lat="50.44148" lon="3.43122">
        <ele>18.5</ele>
        <time>2020-06-24T09:30:08Z</time>
      </trkpt>
      <trkpt lat="50.44143" lon="3.43125">
        <ele>18.6</ele>
        <time>2020-06-24T09:30:09Z</time>
      </trkpt>
      <trkpt lat="50.44137" lon="3.43127">
        <ele>18.6</ele>
        <time>2020-06-24T09:30:10Z</time>
      </trkpt>
      <trkpt lat="50.4413" lon="3.43132">
        <ele>18.6</ele>
        <time>2020-06-24T09:30:11Z</time>
      </trkpt>
      <trkpt lat="50.44123" lon="3.43133">
        <ele>18.7</ele>
        <time>2020-06-24T09:30:12Z</time>
      </trkpt>
      <trkpt lat="50.44116" lon="3.43134">
        <ele>18.7</ele>
        <time>2020-06-24T09:30:13Z</time>
      </trkpt>
      <trkpt lat="50.44109" lon="3.43136">
        <ele>18.8</ele>
        <time>2020-06-24T09:30:14Z</time>
      </trkpt>
      <trkpt lat="50.44102" lon="3.43137">
        <ele>18.9</ele>
        <time>2020-06-24T09:30:15Z</time>
      </trkpt>
      <trkpt lat="50.44096" lon="3.43138">
        <ele>18.9</ele>
        <time>2020-06-24T09:30:16Z</time>
      </trkpt>
      <trkpt lat="50.4409" lon="3.43141">
        <ele>19</ele>
        <time>2020-06-24T09:30:17Z</time>
      </trkpt>
      <trkpt lat="50.44085" lon="3.43143">
        <ele>19</ele>
        <time>2020-06-24T09:30:18Z</time>
      </trkpt>
      <trkpt lat="50.44079" lon="3.43145">
        <ele>19.1</ele>
        <time>2020-06-24T09:30:19Z</time>
      </trkpt>
      <trkpt lat="50.44073" lon="3.43147">
        <ele>19.2</ele>
        <time>2020-06-24T09:30:20Z</time>
      </trkpt>
      <trkpt lat="50.44069" lon="3.43147">
        <ele>19.3</ele>
        <time>2020-06-24T09:30:21Z</time>
      </trkpt>
      <trkpt lat="50.44062" lon="3.43151">
        <ele>19.5</ele>
        <time>2020-06-24T09:30:22Z</time>
      </trkpt>
      <trkpt lat="50.44056" lon="3.43154">
        <ele>19.7</ele>
        <time>2020-06-24T09:30:23Z</time>
      </trkpt>
      <trkpt lat="50.44049" lon="3.43156">
        <ele>19.8</ele>
        <time>2020-06-24T09:30:24Z</time>
      </trkpt>
      <trkpt lat="50.44043" lon="3.43156">
        <ele>19.9</ele>
        <time>2020-06-24T09:30:25Z</time>
      </trkpt>
      <trkpt lat="50.44037" lon="3.43158">
        <ele>20.1</ele>
        <time>2020-06-24T09:30:26Z</time>
      </trkpt>
      <trkpt lat="50.44032" lon="3.4316">
        <ele>20.2</ele>
        <time>2020-06-24T09:30:27Z</time>
      </trkpt>
      <trkpt lat="50.44027" lon="3.43161">
        <ele>20.2</ele>
        <time>2020-06-24T09:30:28Z</time>
      </trkpt>
      <trkpt lat="50.44022" lon="3.43164">
        <ele>20.3</ele>
        <time>2020-06-24T09:30:29Z</time>
      </trkpt>
      <trkpt lat="50.44015" lon="3.43165">
        <ele>20.4</ele>
        <time>2020-06-24T09:30:30Z</time>
      </trkpt>
      <trkpt lat="50.4401" lon="3.43168">
        <ele>20.5</ele>
        <time>2020-06-24T09:30:31Z</time>
      </trkpt>
      <trkpt lat="50.44004" lon="3.43171">
        <ele>20.6</ele>
        <time>2020-06-24T09:30:32Z</time>
      </trkpt>
      <trkpt lat="50.43999" lon="3.43172">
        <ele>20.7</ele>
        <time>2020-06-24T09:30:33Z</time>
      </trkpt>
      <trkpt lat="50.43994" lon="3.43174">
        <ele>20.8</ele>
        <time>2020-06-24T09:30:34Z</time>
      </trkpt>
      <trkpt lat="50.43988" lon="3.43175">
        <ele>20.9</ele>
        <time>2020-06-24T09:30:35Z</time>
      </trkpt>
      <trkpt lat="50.43984" lon="3.43176">
        <ele>21</ele>
        <time>2020-06-24T09:30:36Z</time>
      </trkpt>
      <trkpt lat="50.43978" lon="3.43178">
        <ele>21.2</ele>
        <time>2020-06-24T09:30:37Z</time>
      </trkpt>
      <trkpt lat="50.43972" lon="3.4318">
        <ele>21.3</ele>
        <time>2020-06-24T09:30:38Z</time>
      </trkpt>
      <trkpt lat="50.43967" lon="3.43182">
        <ele>21.4</ele>
        <time>2020-06-24T09:30:39Z</time>
      </trkpt>
      <trkpt lat="50.43962" lon="3.43183">
        <ele>21.5</ele>
        <time>2020-06-24T09:30:40Z</time>
      </trkpt>
      <trkpt lat="50.43957" lon="3.43185">
        <ele>21.6</ele>
        <time>2020-06-24T09:30:41Z</time>
      </trkpt>
      <trkpt lat="50.43951" lon="3.43186">
        <ele>21.6</ele>
        <time>2020-06-24T09:30:42Z</time>
      </trkpt>
      <trkpt lat="50.43945" lon="3.43187">
        <ele>21.7</ele>
        <time>2020-06-24T09:30:43Z</time>
      </trkpt>
      <trkpt lat="50.43939" lon="3.43188">
        <ele>21.7</ele>
        <time>2020-06-24T09:30:44Z</time>
      </trkpt>
      <trkpt lat="50.43934" lon="3.43191">
        <ele>21.9</ele>
        <time>2020-06-24T09:30:45Z</time>
      </trkpt>
      <trkpt lat="50.43929" lon="3.43192">
        <ele>21.9</ele>
        <time>2020-06-24T09:30:46Z</time>
      </trkpt>
      <trkpt lat="50.43924" lon="3.43194">
        <ele>22</ele>
        <time>2020-06-24T09:30:47Z</time>
      </trkpt>
      <trkpt lat="50.43918" lon="3.43196">
        <ele>22</ele>
        <time>2020-06-24T09:30:48Z</time>
      </trkpt>
      <trkpt lat="50.43913" lon="3.43198">
        <ele>22.1</ele>
        <time>2020-06-24T09:30:49Z</time>
      </trkpt>
      <trkpt lat="50.43905" lon="3.432">
        <ele>22.3</ele>
        <time>2020-06-24T09:30:50Z</time>
      </trkpt>
      <trkpt lat="50.43898" lon="3.43202">
        <ele>22.4</ele>
        <time>2020-06-24T09:30:51Z</time>
      </trkpt>
      <trkpt lat="50.43892" lon="3.43203">
        <ele>22.5</ele>
        <time>2020-06-24T09:30:52Z</time>
      </trkpt>
      <trkpt lat="50.43889" lon="3.43206">
        <ele>22.6</ele>
        <time>2020-06-24T09:30:53Z</time>
      </trkpt>
      <trkpt lat="50.43883" lon="3.43211">
        <ele>22.7</ele>
        <time>2020-06-24T09:30:54Z</time>
      </trkpt>
      <trkpt lat="50.43877" lon="3.43212">
        <ele>23</ele>
        <time>2020-06-24T09:30:55Z</time>
      </trkpt>
      <trkpt lat="50.43872" lon="3.43213">
        <ele>23</ele>
        <time>2020-06-24T09:30:56Z</time>
      </trkpt>
      <trkpt lat="50.43867" lon="3.43214">
        <ele>23.1</ele>
        <time>2020-06-24T09:30:57Z</time>
      </trkpt>
      <trkpt lat="50.43863" lon="3.43215">
        <ele>23.1</ele>
        <time>2020-06-24T09:30:58Z</time>
      </trkpt>
      <trkpt lat="50.43857" lon="3.43216">
        <ele>23.1</ele>
        <time>2020-06-24T09:30:59Z</time>
      </trkpt>
      <trkpt lat="50.43851" lon="3.43217">
        <ele>23.1</ele>
        <time>2020-06-24T09:31:00Z</time>
      </trkpt>
      <trkpt lat="50.43845" lon="3.43218">
        <ele>23.2</ele>
        <time>2020-06-24T09:31:01Z</time>
      </trkpt>
      <trkpt lat="50.43839" lon="3.43218">
        <ele>23.2</ele>
        <time>2020-06-24T09:31:02Z</time>
      </trkpt>
      <trkpt lat="50.43833" lon="3.43219">
        <ele>23.2</ele>
        <time>2020-06-24T09:31:03Z</time>
      </trkpt>
      <trkpt lat="50.43826" lon="3.43221">
        <ele>23.3</ele>
        <time>2020-06-24T09:31:04Z</time>
      </trkpt>
      <trkpt lat="50.43821" lon="3.43223">
        <ele>23.4</ele>
        <time>2020-06-24T09:31:05Z</time>
      </trkpt>
      <trkpt lat="50.43815" lon="3.43224">
        <ele>23.4</ele>
        <time>2020-06-24T09:31:06Z</time>
      </trkpt>
      <trkpt lat="50.4381" lon="3.43226">
        <ele>23.5</ele>
        <time>2020-06-24T09:31:07Z</time>
      </trkpt>
      <trkpt lat="50.43805" lon="3.43229">
        <ele>23.5</ele>
        <time>2020-06-24T09:31:08Z</time>
      </trkpt>
      <trkpt lat="50.43801" lon="3.43232">
        <ele>23.6</ele>
        <time>2020-06-24T09:31:09Z</time>
      </trkpt>
      <trkpt lat="50.43797" lon="3.43235">
        <ele>23.7</ele>
        <time>2020-06-24T09:31:10Z</time>
      </trkpt>
      <trkpt lat="50.43792" lon="3.43238">
        <ele>23.7</ele>
        <time>2020-06-24T09:31:11Z</time>
      </trkpt>
      <trkpt lat="50.43786" lon="3.4324">
        <ele>23.8</ele>
        <time>2020-06-24T09:31:12Z</time>
      </trkpt>
      <trkpt lat="50.4378" lon="3.43241">
        <ele>23.9</ele>
        <time>2020-06-24T09:31:13Z</time>
      </trkpt>
      <trkpt lat="50.43775" lon="3.43242">
        <ele>24</ele>
        <time>2020-06-24T09:31:14Z</time>
      </trkpt>
      <trkpt lat="50.43771" lon="3.43245">
        <ele>24</ele>
        <time>2020-06-24T09:31:15Z</time>
      </trkpt>
      <trkpt lat="50.43766" lon="3.43246">
        <ele>24.1</ele>
        <time>2020-06-24T09:31:16Z</time>
      </trkpt>
      <trkpt lat="50.4376" lon="3.43249">
        <ele>24.2</ele>
        <time>2020-06-24T09:31:17Z</time>
      </trkpt>
      <trkpt lat="50.43756" lon="3.43252">
        <ele>24.2</ele>
        <time>2020-06-24T09:31:18Z</time>
      </trkpt>
      <trkpt lat="50.43751" lon="3.43254">
        <ele>24.3</ele>
        <time>2020-06-24T09:31:19Z</time>
      </trkpt>
      <trkpt lat="50.43748" lon="3.43257">
        <ele>24.4</ele>
        <time>2020-06-24T09:31:20Z</time>
      </trkpt>
      <trkpt lat="50.43743" lon="3.43259">
        <ele>24.5</ele>
        <time>2020-06-24T09:31:21Z</time>
      </trkpt>
      <trkpt lat="50.43738" lon="3.43263">
        <ele>24.6</ele>
        <time>2020-06-24T09:31:22Z</time>
      </trkpt>
      <trkpt lat="50.43733" lon="3.43265">
        <ele>24.6</ele>
        <time>2020-06-24T09:31:23Z</time>
      </trkpt>
      <trkpt lat="50.43728" lon="3.43266">
        <ele>24.7</ele>
        <time>2020-06-24T09:31:24Z</time>
      </trkpt>
      <trkpt lat="50.43722" lon="3.43265">
        <ele>24.8</ele>
        <time>2020-06-24T09:31:25Z</time>
      </trkpt>
      <trkpt lat="50.43717" lon="3.43267">
        <ele>24.9</ele>
        <time>2020-06-24T09:31:26Z</time>
      </trkpt>
      <trkpt lat="50.4371" lon="3.43268">
        <ele>24.9</ele>
        <time>2020-06-24T09:31:27Z</time>
      </trkpt>
      <trkpt lat="50.43704" lon="3.43267">
        <ele>25</ele>
        <time>2020-06-24T09:31:28Z</time>
      </trkpt>
      <trkpt lat="50.437" lon="3.43264">
        <ele>25</ele>
        <time>2020-06-24T09:31:29Z</time>
      </trkpt>
      <trkpt lat="50.43694" lon="3.4326">
        <ele>25.1</ele>
        <time>2020-06-24T09:31:30Z</time>
      </trkpt>
      <trkpt lat="50.43689" lon="3.43252">
        <ele>25.2</ele>
        <time>2020-06-24T09:31:31Z</time>
      </trkpt>
      <trkpt lat="50.43685" lon="3.43245">
        <ele>25.2</ele>
        <time>2020-06-24T09:31:32Z</time>
      </trkpt>
      <trkpt lat="50.4368" lon="3.43241">
        <ele>25.4</ele>
        <time>2020-06-24T09:31:33Z</time>
      </trkpt>
      <trkpt lat="50.43676" lon="3.4324">
        <ele>25.6</ele>
        <time>2020-06-24T09:31:34Z</time>
      </trkpt>
      <trkpt lat="50.43672" lon="3.43243">
        <ele>25.6</ele>
        <time>2020-06-24T09:31:35Z</time>
      </trkpt>
      <trkpt lat="50.43668" lon="3.43248">
        <ele>25.7</ele>
        <time>2020-06-24T09:31:36Z</time>
      </trkpt>
      <trkpt lat="50.43665" lon="3.43253">
        <ele>25.7</ele>
        <time>2020-06-24T09:31:37Z</time>
      </trkpt>
      <trkpt lat="50.43662" lon="3.43258">
        <ele>25.6</ele>
        <time>2020-06-24T09:31:38Z</time>
      </trkpt>
      <trkpt lat="50.43658" lon="3.43264">
        <ele>25.6</ele>
        <time>2020-06-24T09:31:39Z</time>
      </trkpt>
      <trkpt lat="50.43654" lon="3.43268">
        <ele>25.5</ele>
        <time>2020-06-24T09:31:40Z</time>
      </trkpt>
      <trkpt lat="50.4365" lon="3.43273">
        <ele>25.5</ele>
        <time>2020-06-24T09:31:41Z</time>
      </trkpt>
      <trkpt lat="50.43644" lon="3.43277">
        <ele>25.4</ele>
        <time>2020-06-24T09:31:42Z</time>
      </trkpt>
      <trkpt lat="50.43638" lon="3.43279">
        <ele>25.3</ele>
        <time>2020-06-24T09:31:43Z</time>
      </trkpt>
      <trkpt lat="50.43632" lon="3.4328">
        <ele>25.3</ele>
        <time>2020-06-24T09:31:44Z</time>
      </trkpt>
      <trkpt lat="50.43626" lon="3.43282">
        <ele>25.2</ele>
        <time>2020-06-24T09:31:45Z</time>
      </trkpt>
      <trkpt lat="50.43621" lon="3.43283">
        <ele>25.3</ele>
        <time>2020-06-24T09:31:46Z</time>
      </trkpt>
      <trkpt lat="50.43615" lon="3.43286">
        <ele>25.3</ele>
        <time>2020-06-24T09:31:47Z</time>
      </trkpt>
      <trkpt lat="50.43611" lon="3.43286">
        <ele>25.3</ele>
        <time>2020-06-24T09:31:48Z</time>
      </trkpt>
      <trkpt lat="50.43605" lon="3.43288">
        <ele>25.3</ele>
        <time>2020-06-24T09:31:49Z</time>
      </trkpt>
      <trkpt lat="50.43599" lon="3.43289">
        <ele>25.4</ele>
        <time>2020-06-24T09:31:50Z</time>
      </trkpt>
      <trkpt lat="50.43594" lon="3.43291">
        <ele>25.4</ele>
        <time>2020-06-24T09:31:51Z</time>
      </trkpt>
      <trkpt lat="50.43588" lon="3.43292">
        <ele>25.4</ele>
        <time>2020-06-24T09:31:52Z</time>
      </trkpt>
      <trkpt lat="50.43582" lon="3.43293">
        <ele>25.4</ele>
        <time>2020-06-24T09:31:53Z</time>
      </trkpt>
      <trkpt lat="50.43576" lon="3.43294">
        <ele>25.5</ele>
        <time>2020-06-24T09:31:54Z</time>
      </trkpt>
      <trkpt lat="50.43571" lon="3.43295">
        <ele>25.5</ele>
        <time>2020-06-24T09:31:55Z</time>
      </trkpt>
      <trkpt lat="50.43565" lon="3.43297">
        <ele>25.4</ele>
        <time>2020-06-24T09:31:56Z</time>
      </trkpt>
      <trkpt lat="50.4356" lon="3.43298">
        <ele>25.4</ele>
        <time>2020-06-24T09:31:57Z</time>
      </trkpt>
      <trkpt lat="50.43554" lon="3.433">
        <ele>25.3</ele>
        <time>2020-06-24T09:31:58Z</time>
      </trkpt>
      <trkpt lat="50.43548" lon="3.43301">
        <ele>25.3</ele>
        <time>2020-06-24T09:31:59Z</time>
      </trkpt>
      <trkpt lat="50.43542" lon="3.43303">
        <ele>25.2</ele>
        <time>2020-06-24T09:32:00Z</time>
      </trkpt>
      <trkpt lat="50.43536" lon="3.43303">
        <ele>25.1</ele>
        <time>2020-06-24T09:32:01Z</time>
      </trkpt>
      <trkpt lat="50.43531" lon="3.43303">
        <ele>25.1</ele>
        <time>2020-06-24T09:32:02Z</time>
      </trkpt>
      <trkpt lat="50.43525" lon="3.43305">
        <ele>25</ele>
        <time>2020-06-24T09:32:03Z</time>
      </trkpt>
      <trkpt lat="50.43519" lon="3.43307">
        <ele>25</ele>
        <time>2020-06-24T09:32:04Z</time>
      </trkpt>
      <trkpt lat="50.43514" lon="3.43311">
        <ele>24.9</ele>
        <time>2020-06-24T09:32:05Z</time>
      </trkpt>
      <trkpt lat="50.43508" lon="3.43318">
        <ele>24.8</ele>
        <time>2020-06-24T09:32:06Z</time>
      </trkpt>
      <trkpt lat="50.43503" lon="3.43326">
        <ele>24.8</ele>
        <time>2020-06-24T09:32:07Z</time>
      </trkpt>
      <trkpt lat="50.43497" lon="3.43331">
        <ele>24.7</ele>
        <time>2020-06-24T09:32:08Z</time>
      </trkpt>
      <trkpt lat="50.43492" lon="3.43338">
        <ele>24.7</ele>
        <time>2020-06-24T09:32:09Z</time>
      </trkpt>
      <trkpt lat="50.43488" lon="3.43343">
        <ele>24.7</ele>
        <time>2020-06-24T09:32:10Z</time>
      </trkpt>
      <trkpt lat="50.43483" lon="3.43348">
        <ele>24.6</ele>
        <time>2020-06-24T09:32:11Z</time>
      </trkpt>
      <trkpt lat="50.43479" lon="3.43354">
        <ele>24.6</ele>
        <time>2020-06-24T09:32:12Z</time>
      </trkpt>
      <trkpt lat="50.43474" lon="3.43361">
        <ele>24.6</ele>
        <time>2020-06-24T09:32:13Z</time>
      </trkpt>
      <trkpt lat="50.43469" lon="3.43367">
        <ele>24.5</ele>
        <time>2020-06-24T09:32:14Z</time>
      </trkpt>
      <trkpt lat="50.43464" lon="3.43374">
        <ele>24.4</ele>
        <time>2020-06-24T09:32:15Z</time>
      </trkpt>
      <trkpt lat="50.43458" lon="3.43379">
        <ele>24.2</ele>
        <time>2020-06-24T09:32:16Z</time>
      </trkpt>
      <trkpt lat="50.43453" lon="3.43385">
        <ele>24.1</ele>
        <time>2020-06-24T09:32:17Z</time>
      </trkpt>
      <trkpt lat="50.43448" lon="3.4339">
        <ele>24</ele>
        <time>2020-06-24T09:32:18Z</time>
      </trkpt>
      <trkpt lat="50.43443" lon="3.43396">
        <ele>23.9</ele>
        <time>2020-06-24T09:32:19Z</time>
      </trkpt>
      <trkpt lat="50.43437" lon="3.43404">
        <ele>23.7</ele>
        <time>2020-06-24T09:32:20Z</time>
      </trkpt>
      <trkpt lat="50.43432" lon="3.43409">
        <ele>23.6</ele>
        <time>2020-06-24T09:32:21Z</time>
      </trkpt>
      <trkpt lat="50.43427" lon="3.43415">
        <ele>23.5</ele>
        <time>2020-06-24T09:32:22Z</time>
      </trkpt>
      <trkpt lat="50.43422" lon="3.43421">
        <ele>23.3</ele>
        <time>2020-06-24T09:32:23Z</time>
      </trkpt>
      <trkpt lat="50.43417" lon="3.43427">
        <ele>23.3</ele>
        <time>2020-06-24T09:32:24Z</time>
      </trkpt>
      <trkpt lat="50.43411" lon="3.43433">
        <ele>23.2</ele>
        <time>2020-06-24T09:32:25Z</time>
      </trkpt>
      <trkpt lat="50.43406" lon="3.43439">
        <ele>23.1</ele>
        <time>2020-06-24T09:32:26Z</time>
      </trkpt>
      <trkpt lat="50.434" lon="3.43445">
        <ele>23</ele>
        <time>2020-06-24T09:32:27Z</time>
      </trkpt>
      <trkpt lat="50.43395" lon="3.43451">
        <ele>22.8</ele>
        <time>2020-06-24T09:32:28Z</time>
      </trkpt>
      <trkpt lat="50.43391" lon="3.43458">
        <ele>22.7</ele>
        <time>2020-06-24T09:32:29Z</time>
      </trkpt>
      <trkpt lat="50.43384" lon="3.43464">
        <ele>22.5</ele>
        <time>2020-06-24T09:32:30Z</time>
      </trkpt>
      <trkpt lat="50.43378" lon="3.4347">
        <ele>22.4</ele>
        <time>2020-06-24T09:32:31Z</time>
      </trkpt>
      <trkpt lat="50.43374" lon="3.43476">
        <ele>22.2</ele>
        <time>2020-06-24T09:32:32Z</time>
      </trkpt>
      <trkpt lat="50.43367" lon="3.43483">
        <ele>22.1</ele>
        <time>2020-06-24T09:32:33Z</time>
      </trkpt>
      <trkpt lat="50.43362" lon="3.4349">
        <ele>22</ele>
        <time>2020-06-24T09:32:34Z</time>
      </trkpt>
      <trkpt lat="50.43356" lon="3.43495">
        <ele>21.8</ele>
        <time>2020-06-24T09:32:35Z</time>
      </trkpt>
      <trkpt lat="50.43349" lon="3.43501">
        <ele>21.7</ele>
        <time>2020-06-24T09:32:36Z</time>
      </trkpt>
      <trkpt lat="50.43343" lon="3.43508">
        <ele>21.5</ele>
        <time>2020-06-24T09:32:37Z</time>
      </trkpt>
      <trkpt lat="50.43337" lon="3.43513">
        <ele>21.4</ele>
        <time>2020-06-24T09:32:38Z</time>
      </trkpt>
      <trkpt lat="50.43331" lon="3.4352">
        <ele>21.3</ele>
        <time>2020-06-24T09:32:39Z</time>
      </trkpt>
      <trkpt lat="50.43325" lon="3.43526">
        <ele>21.2</ele>
        <time>2020-06-24T09:32:40Z</time>
      </trkpt>
      <trkpt lat="50.43319" lon="3.43532">
        <ele>21</ele>
        <time>2020-06-24T09:32:41Z</time>
      </trkpt>
      <trkpt lat="50.43313" lon="3.43538">
        <ele>20.9</ele>
        <time>2020-06-24T09:32:42Z</time>
      </trkpt>
      <trkpt lat="50.43308" lon="3.43544">
        <ele>20.8</ele>
        <time>2020-06-24T09:32:43Z</time>
      </trkpt>
      <trkpt lat="50.43302" lon="3.4355">
        <ele>20.7</ele>
        <time>2020-06-24T09:32:44Z</time>
      </trkpt>
      <trkpt lat="50.43296" lon="3.43556">
        <ele>20.7</ele>
        <time>2020-06-24T09:32:45Z</time>
      </trkpt>
      <trkpt lat="50.4329" lon="3.43562">
        <ele>20.6</ele>
        <time>2020-06-24T09:32:46Z</time>
      </trkpt>
      <trkpt lat="50.43285" lon="3.43567">
        <ele>20.6</ele>
        <time>2020-06-24T09:32:47Z</time>
      </trkpt>
      <trkpt lat="50.4328" lon="3.43573">
        <ele>20.5</ele>
        <time>2020-06-24T09:32:48Z</time>
      </trkpt>
      <trkpt lat="50.43274" lon="3.43579">
        <ele>20.5</ele>
        <time>2020-06-24T09:32:49Z</time>
      </trkpt>
      <trkpt lat="50.43269" lon="3.43586">
        <ele>20.4</ele>
        <time>2020-06-24T09:32:50Z</time>
      </trkpt>
      <trkpt lat="50.43264" lon="3.43593">
        <ele>20.4</ele>
        <time>2020-06-24T09:32:51Z</time>
      </trkpt>
      <trkpt lat="50.43258" lon="3.43599">
        <ele>20.3</ele>
        <time>2020-06-24T09:32:52Z</time>
      </trkpt>
      <trkpt lat="50.43253" lon="3.43605">
        <ele>20.3</ele>
        <time>2020-06-24T09:32:53Z</time>
      </trkpt>
      <trkpt lat="50.43247" lon="3.43612">
        <ele>20.2</ele>
        <time>2020-06-24T09:32:54Z</time>
      </trkpt>
      <trkpt lat="50.43242" lon="3.43619">
        <ele>20</ele>
        <time>2020-06-24T09:32:55Z</time>
      </trkpt>
      <trkpt lat="50.43236" lon="3.43625">
        <ele>19.9</ele>
        <time>2020-06-24T09:32:56Z</time>
      </trkpt>
      <trkpt lat="50.43231" lon="3.43631">
        <ele>19.8</ele>
        <time>2020-06-24T09:32:57Z</time>
      </trkpt>
      <trkpt lat="50.43226" lon="3.43637">
        <ele>19.7</ele>
        <time>2020-06-24T09:32:58Z</time>
      </trkpt>
      <trkpt lat="50.4322" lon="3.43643">
        <ele>19.6</ele>
        <time>2020-06-24T09:32:59Z</time>
      </trkpt>
      <trkpt lat="50.43215" lon="3.43649">
        <ele>19.5</ele>
        <time>2020-06-24T09:33:00Z</time>
      </trkpt>
      <trkpt lat="50.43209" lon="3.43655">
        <ele>19.4</ele>
        <time>2020-06-24T09:33:01Z</time>
      </trkpt>
      <trkpt lat="50.43203" lon="3.43661">
        <ele>19.3</ele>
        <time>2020-06-24T09:33:02Z</time>
      </trkpt>
      <trkpt lat="50.43198" lon="3.43667">
        <ele>19.1</ele>
        <time>2020-06-24T09:33:03Z</time>
      </trkpt>
      <trkpt lat="50.43192" lon="3.43673">
        <ele>19</ele>
        <time>2020-06-24T09:33:04Z</time>
      </trkpt>
      <trkpt lat="50.43186" lon="3.4368">
        <ele>19</ele>
        <time>2020-06-24T09:33:05Z</time>
      </trkpt>
      <trkpt lat="50.4318" lon="3.43686">
        <ele>18.9</ele>
        <time>2020-06-24T09:33:06Z</time>
      </trkpt>
      <trkpt lat="50.43174" lon="3.43693">
        <ele>18.8</ele>
        <time>2020-06-24T09:33:07Z</time>
      </trkpt>
      <trkpt lat="50.43168" lon="3.43698">
        <ele>18.7</ele>
        <time>2020-06-24T09:33:08Z</time>
      </trkpt>
      <trkpt lat="50.43161" lon="3.43704">
        <ele>18.6</ele>
        <time>2020-06-24T09:33:09Z</time>
      </trkpt>
      <trkpt lat="50.43155" lon="3.4371">
        <ele>18.5</ele>
        <time>2020-06-24T09:33:10Z</time>
      </trkpt>
      <trkpt lat="50.43149" lon="3.43717">
        <ele>18.4</ele>
        <time>2020-06-24T09:33:11Z</time>
      </trkpt>
      <trkpt lat="50.43144" lon="3.43723">
        <ele>18.4</ele>
        <time>2020-06-24T09:33:12Z</time>
      </trkpt>
      <trkpt lat="50.43138" lon="3.43728">
        <ele>18.3</ele>
        <time>2020-06-24T09:33:13Z</time>
      </trkpt>
      <trkpt lat="50.43132" lon="3.43734">
        <ele>18.3</ele>
        <time>2020-06-24T09:33:14Z</time>
      </trkpt>
      <trkpt lat="50.43126" lon="3.43741">
        <ele>18.2</ele>
        <time>2020-06-24T09:33:15Z</time>
      </trkpt>
      <trkpt lat="50.4312" lon="3.43747">
        <ele>18.2</ele>
        <time>2020-06-24T09:33:16Z</time>
      </trkpt>
      <trkpt lat="50.43115" lon="3.43754">
        <ele>18.1</ele>
        <time>2020-06-24T09:33:17Z</time>
      </trkpt>
      <trkpt lat="50.4311" lon="3.43761">
        <ele>18.1</ele>
        <time>2020-06-24T09:33:18Z</time>
      </trkpt>
      <trkpt lat="50.43104" lon="3.43767">
        <ele>18.2</ele>
        <time>2020-06-24T09:33:19Z</time>
      </trkpt>
      <trkpt lat="50.43099" lon="3.43774">
        <ele>18.2</ele>
        <time>2020-06-24T09:33:20Z</time>
      </trkpt>
      <trkpt lat="50.43093" lon="3.4378">
        <ele>18.1</ele>
        <time>2020-06-24T09:33:21Z</time>
      </trkpt>
      <trkpt lat="50.43088" lon="3.43786">
        <ele>18.1</ele>
        <time>2020-06-24T09:33:22Z</time>
      </trkpt>
      <trkpt lat="50.43083" lon="3.43792">
        <ele>18.1</ele>
        <time>2020-06-24T09:33:23Z</time>
      </trkpt>
      <trkpt lat="50.43078" lon="3.43799">
        <ele>18</ele>
        <time>2020-06-24T09:33:24Z</time>
      </trkpt>
      <trkpt lat="50.43072" lon="3.43805">
        <ele>18</ele>
        <time>2020-06-24T09:33:25Z</time>
      </trkpt>
      <trkpt lat="50.43067" lon="3.43811">
        <ele>18</ele>
        <time>2020-06-24T09:33:26Z</time>
      </trkpt>
      <trkpt lat="50.43062" lon="3.43816">
        <ele>18</ele>
        <time>2020-06-24T09:33:27Z</time>
      </trkpt>
      <trkpt lat="50.43057" lon="3.43823">
        <ele>18.1</ele>
        <time>2020-06-24T09:33:28Z</time>
      </trkpt>
      <trkpt lat="50.43052" lon="3.43828">
        <ele>18.1</ele>
        <time>2020-06-24T09:33:29Z</time>
      </trkpt>
      <trkpt lat="50.43047" lon="3.43834">
        <ele>18.2</ele>
        <time>2020-06-24T09:33:30Z</time>
      </trkpt>
      <trkpt lat="50.43043" lon="3.43839">
        <ele>18.2</ele>
        <time>2020-06-24T09:33:31Z</time>
      </trkpt>
      <trkpt lat="50.43038" lon="3.43843">
        <ele>18.1</ele>
        <time>2020-06-24T09:33:32Z</time>
      </trkpt>
      <trkpt lat="50.43034" lon="3.43847">
        <ele>18</ele>
        <time>2020-06-24T09:33:33Z</time>
      </trkpt>
      <trkpt lat="50.43029" lon="3.43852">
        <ele>18</ele>
        <time>2020-06-24T09:33:34Z</time>
      </trkpt>
      <trkpt lat="50.43024" lon="3.43856">
        <ele>17.9</ele>
        <time>2020-06-24T09:33:35Z</time>
      </trkpt>
      <trkpt lat="50.4302" lon="3.43861">
        <ele>17.8</ele>
        <time>2020-06-24T09:33:36Z</time>
      </trkpt>
      <trkpt lat="50.43015" lon="3.43866">
        <ele>17.7</ele>
        <time>2020-06-24T09:33:37Z</time>
      </trkpt>
      <trkpt lat="50.43011" lon="3.43871">
        <ele>17.7</ele>
        <time>2020-06-24T09:33:38Z</time>
      </trkpt>
      <trkpt lat="50.43007" lon="3.43875">
        <ele>17.8</ele>
        <time>2020-06-24T09:33:39Z</time>
      </trkpt>
      <trkpt lat="50.43002" lon="3.43879">
        <ele>17.8</ele>
        <time>2020-06-24T09:33:40Z</time>
      </trkpt>
      <trkpt lat="50.42998" lon="3.43884">
        <ele>17.8</ele>
        <time>2020-06-24T09:33:41Z</time>
      </trkpt>
      <trkpt lat="50.42994" lon="3.43887">
        <ele>17.8</ele>
        <time>2020-06-24T09:33:42Z</time>
      </trkpt>
      <trkpt lat="50.42991" lon="3.43891">
        <ele>17.8</ele>
        <time>2020-06-24T09:33:43Z</time>
      </trkpt>
      <trkpt lat="50.42986" lon="3.43896">
        <ele>17.8</ele>
        <time>2020-06-24T09:33:44Z</time>
      </trkpt>
      <trkpt lat="50.42982" lon="3.43904">
        <ele>17.8</ele>
        <time>2020-06-24T09:33:45Z</time>
      </trkpt>
      <trkpt lat="50.42977" lon="3.43909">
        <ele>17.8</ele>
        <time>2020-06-24T09:33:46Z</time>
      </trkpt>
      <trkpt lat="50.42973" lon="3.43914">
        <ele>17.8</ele>
        <time>2020-06-24T09:33:47Z</time>
      </trkpt>
      <trkpt lat="50.42969" lon="3.43919">
        <ele>17.8</ele>
        <time>2020-06-24T09:33:48Z</time>
      </trkpt>
      <trkpt lat="50.42964" lon="3.43924">
        <ele>17.7</ele>
        <time>2020-06-24T09:33:49Z</time>
      </trkpt>
      <trkpt lat="50.42959" lon="3.43929">
        <ele>17.7</ele>
        <time>2020-06-24T09:33:50Z</time>
      </trkpt>
      <trkpt lat="50.42954" lon="3.43934">
        <ele>17.8</ele>
        <time>2020-06-24T09:33:51Z</time>
      </trkpt>
      <trkpt lat="50.4295" lon="3.43939">
        <ele>17.8</ele>
        <time>2020-06-24T09:33:52Z</time>
      </trkpt>
      <trkpt lat="50.42945" lon="3.43944">
        <ele>17.8</ele>
        <time>2020-06-24T09:33:53Z</time>
      </trkpt>
      <trkpt lat="50.4294" lon="3.43949">
        <ele>17.8</ele>
        <time>2020-06-24T09:33:54Z</time>
      </trkpt>
      <trkpt lat="50.42935" lon="3.43953">
        <ele>17.8</ele>
        <time>2020-06-24T09:33:55Z</time>
      </trkpt>
      <trkpt lat="50.42932" lon="3.43959">
        <ele>17.8</ele>
        <time>2020-06-24T09:33:56Z</time>
      </trkpt>
      <trkpt lat="50.42928" lon="3.43964">
        <ele>17.8</ele>
        <time>2020-06-24T09:33:57Z</time>
      </trkpt>
      <trkpt lat="50.42924" lon="3.4397">
        <ele>17.8</ele>
        <time>2020-06-24T09:33:58Z</time>
      </trkpt>
      <trkpt lat="50.4292" lon="3.43977">
        <ele>17.8</ele>
        <time>2020-06-24T09:33:59Z</time>
      </trkpt>
      <trkpt lat="50.42914" lon="3.43981">
        <ele>17.8</ele>
        <time>2020-06-24T09:34:00Z</time>
      </trkpt>
      <trkpt lat="50.42909" lon="3.43986">
        <ele>17.8</ele>
        <time>2020-06-24T09:34:01Z</time>
      </trkpt>
      <trkpt lat="50.42904" lon="3.43992">
        <ele>17.8</ele>
        <time>2020-06-24T09:34:02Z</time>
      </trkpt>
      <trkpt lat="50.42899" lon="3.43997">
        <ele>17.8</ele>
        <time>2020-06-24T09:34:03Z</time>
      </trkpt>
      <trkpt lat="50.42893" lon="3.44002">
        <ele>17.8</ele>
        <time>2020-06-24T09:34:04Z</time>
      </trkpt>
      <trkpt lat="50.42888" lon="3.44006">
        <ele>17.8</ele>
        <time>2020-06-24T09:34:05Z</time>
      </trkpt>
      <trkpt lat="50.42884" lon="3.44012">
        <ele>17.8</ele>
        <time>2020-06-24T09:34:06Z</time>
      </trkpt>
      <trkpt lat="50.42879" lon="3.44017">
        <ele>17.8</ele>
        <time>2020-06-24T09:34:07Z</time>
      </trkpt>
      <trkpt lat="50.42875" lon="3.44021">
        <ele>17.9</ele>
        <time>2020-06-24T09:34:08Z</time>
      </trkpt>
      <trkpt lat="50.4287" lon="3.44026">
        <ele>17.9</ele>
        <time>2020-06-24T09:34:09Z</time>
      </trkpt>
      <trkpt lat="50.42866" lon="3.4403">
        <ele>17.9</ele>
        <time>2020-06-24T09:34:10Z</time>
      </trkpt>
      <trkpt lat="50.42863" lon="3.44035">
        <ele>17.9</ele>
        <time>2020-06-24T09:34:11Z</time>
      </trkpt>
      <trkpt lat="50.4286" lon="3.44039">
        <ele>17.9</ele>
        <time>2020-06-24T09:34:12Z</time>
      </trkpt>
      <trkpt lat="50.42856" lon="3.44043">
        <ele>18</ele>
        <time>2020-06-24T09:34:13Z</time>
      </trkpt>
      <trkpt lat="50.42851" lon="3.44046">
        <ele>18</ele>
        <time>2020-06-24T09:34:14Z</time>
      </trkpt>
      <trkpt lat="50.42847" lon="3.4405">
        <ele>18</ele>
        <time>2020-06-24T09:34:15Z</time>
      </trkpt>
      <trkpt lat="50.42843" lon="3.44056">
        <ele>18</ele>
        <time>2020-06-24T09:34:16Z</time>
      </trkpt>
      <trkpt lat="50.42839" lon="3.44064">
        <ele>18</ele>
        <time>2020-06-24T09:34:17Z</time>
      </trkpt>
      <trkpt lat="50.42834" lon="3.44069">
        <ele>18.1</ele>
        <time>2020-06-24T09:34:18Z</time>
      </trkpt>
      <trkpt lat="50.4283" lon="3.44074">
        <ele>18.1</ele>
        <time>2020-06-24T09:34:19Z</time>
      </trkpt>
      <trkpt lat="50.42825" lon="3.4408">
        <ele>18.1</ele>
        <time>2020-06-24T09:34:20Z</time>
      </trkpt>
      <trkpt lat="50.42819" lon="3.44084">
        <ele>18.1</ele>
        <time>2020-06-24T09:34:21Z</time>
      </trkpt>
      <trkpt lat="50.42815" lon="3.44091">
        <ele>18.2</ele>
        <time>2020-06-24T09:34:22Z</time>
      </trkpt>
      <trkpt lat="50.4281" lon="3.44096">
        <ele>18.2</ele>
        <time>2020-06-24T09:34:23Z</time>
      </trkpt>
      <trkpt lat="50.42806" lon="3.44102">
        <ele>18.2</ele>
        <time>2020-06-24T09:34:24Z</time>
      </trkpt>
      <trkpt lat="50.42802" lon="3.44109">
        <ele>18.3</ele>
        <time>2020-06-24T09:34:25Z</time>
      </trkpt>
      <trkpt lat="50.42798" lon="3.44115">
        <ele>18.4</ele>
        <time>2020-06-24T09:34:26Z</time>
      </trkpt>
      <trkpt lat="50.42793" lon="3.4412">
        <ele>18.5</ele>
        <time>2020-06-24T09:34:27Z</time>
      </trkpt>
      <trkpt lat="50.42788" lon="3.44125">
        <ele>18.6</ele>
        <time>2020-06-24T09:34:28Z</time>
      </trkpt>
      <trkpt lat="50.42784" lon="3.44131">
        <ele>18.6</ele>
        <time>2020-06-24T09:34:29Z</time>
      </trkpt>
      <trkpt lat="50.4278" lon="3.44137">
        <ele>18.7</ele>
        <time>2020-06-24T09:34:30Z</time>
      </trkpt>
      <trkpt lat="50.42774" lon="3.44143">
        <ele>18.7</ele>
        <time>2020-06-24T09:34:31Z</time>
      </trkpt>
      <trkpt lat="50.4277" lon="3.44148">
        <ele>18.8</ele>
        <time>2020-06-24T09:34:32Z</time>
      </trkpt>
      <trkpt lat="50.42765" lon="3.44153">
        <ele>18.8</ele>
        <time>2020-06-24T09:34:33Z</time>
      </trkpt>
      <trkpt lat="50.42762" lon="3.44158">
        <ele>18.9</ele>
        <time>2020-06-24T09:34:34Z</time>
      </trkpt>
      <trkpt lat="50.42757" lon="3.44162">
        <ele>18.9</ele>
        <time>2020-06-24T09:34:35Z</time>
      </trkpt>
      <trkpt lat="50.42752" lon="3.44167">
        <ele>19</ele>
        <time>2020-06-24T09:34:36Z</time>
      </trkpt>
      <trkpt lat="50.42747" lon="3.44172">
        <ele>19</ele>
        <time>2020-06-24T09:34:37Z</time>
      </trkpt>
      <trkpt lat="50.42742" lon="3.44178">
        <ele>19.1</ele>
        <time>2020-06-24T09:34:38Z</time>
      </trkpt>
      <trkpt lat="50.42737" lon="3.44183">
        <ele>19.1</ele>
        <time>2020-06-24T09:34:39Z</time>
      </trkpt>
      <trkpt lat="50.42732" lon="3.44187">
        <ele>19.4</ele>
        <time>2020-06-24T09:34:40Z</time>
      </trkpt>
      <trkpt lat="50.42727" lon="3.44192">
        <ele>19.4</ele>
        <time>2020-06-24T09:34:41Z</time>
      </trkpt>
      <trkpt lat="50.42721" lon="3.44197">
        <ele>19.5</ele>
        <time>2020-06-24T09:34:42Z</time>
      </trkpt>
      <trkpt lat="50.42717" lon="3.44202">
        <ele>19.6</ele>
        <time>2020-06-24T09:34:43Z</time>
      </trkpt>
      <trkpt lat="50.42712" lon="3.44207">
        <ele>19.6</ele>
        <time>2020-06-24T09:34:44Z</time>
      </trkpt>
      <trkpt lat="50.42708" lon="3.4421">
        <ele>19.7</ele>
        <time>2020-06-24T09:34:45Z</time>
      </trkpt>
      <trkpt lat="50.42703" lon="3.44215">
        <ele>19.7</ele>
        <time>2020-06-24T09:34:46Z</time>
      </trkpt>
      <trkpt lat="50.42699" lon="3.44221">
        <ele>19.8</ele>
        <time>2020-06-24T09:34:47Z</time>
      </trkpt>
      <trkpt lat="50.42693" lon="3.44225">
        <ele>19.8</ele>
        <time>2020-06-24T09:34:48Z</time>
      </trkpt>
      <trkpt lat="50.42689" lon="3.4423">
        <ele>19.8</ele>
        <time>2020-06-24T09:34:49Z</time>
      </trkpt>
      <trkpt lat="50.42685" lon="3.44236">
        <ele>19.8</ele>
        <time>2020-06-24T09:34:50Z</time>
      </trkpt>
      <trkpt lat="50.4268" lon="3.44241">
        <ele>19.8</ele>
        <time>2020-06-24T09:34:51Z</time>
      </trkpt>
      <trkpt lat="50.42675" lon="3.44246">
        <ele>19.9</ele>
        <time>2020-06-24T09:34:52Z</time>
      </trkpt>
      <trkpt lat="50.42671" lon="3.44251">
        <ele>19.9</ele>
        <time>2020-06-24T09:34:53Z</time>
      </trkpt>
      <trkpt lat="50.42667" lon="3.44255">
        <ele>19.9</ele>
        <time>2020-06-24T09:34:54Z</time>
      </trkpt>
      <trkpt lat="50.42662" lon="3.4426">
        <ele>19.9</ele>
        <time>2020-06-24T09:34:55Z</time>
      </trkpt>
      <trkpt lat="50.42658" lon="3.44265">
        <ele>19.9</ele>
        <time>2020-06-24T09:34:56Z</time>
      </trkpt>
      <trkpt lat="50.42654" lon="3.4427">
        <ele>19.9</ele>
        <time>2020-06-24T09:34:57Z</time>
      </trkpt>
      <trkpt lat="50.42649" lon="3.44275">
        <ele>19.9</ele>
        <time>2020-06-24T09:34:58Z</time>
      </trkpt>
      <trkpt lat="50.42644" lon="3.44279">
        <ele>19.9</ele>
        <time>2020-06-24T09:34:59Z</time>
      </trkpt>
      <trkpt lat="50.42639" lon="3.44284">
        <ele>19.9</ele>
        <time>2020-06-24T09:35:00Z</time>
      </trkpt>
      <trkpt lat="50.42634" lon="3.4429">
        <ele>19.9</ele>
        <time>2020-06-24T09:35:01Z</time>
      </trkpt>
      <trkpt lat="50.4263" lon="3.44296">
        <ele>19.9</ele>
        <time>2020-06-24T09:35:02Z</time>
      </trkpt>
      <trkpt lat="50.42624" lon="3.443">
        <ele>19.9</ele>
        <time>2020-06-24T09:35:03Z</time>
      </trkpt>
      <trkpt lat="50.4262" lon="3.44305">
        <ele>19.9</ele>
        <time>2020-06-24T09:35:04Z</time>
      </trkpt>
      <trkpt lat="50.42616" lon="3.44311">
        <ele>19.8</ele>
        <time>2020-06-24T09:35:05Z</time>
      </trkpt>
      <trkpt lat="50.42612" lon="3.44316">
        <ele>19.8</ele>
        <time>2020-06-24T09:35:06Z</time>
      </trkpt>
      <trkpt lat="50.42608" lon="3.4432">
        <ele>19.8</ele>
        <time>2020-06-24T09:35:07Z</time>
      </trkpt>
      <trkpt lat="50.42605" lon="3.44324">
        <ele>19.8</ele>
        <time>2020-06-24T09:35:08Z</time>
      </trkpt>
      <trkpt lat="50.42601" lon="3.44329">
        <ele>19.8</ele>
        <time>2020-06-24T09:35:09Z</time>
      </trkpt>
      <trkpt lat="50.42597" lon="3.44334">
        <ele>19.8</ele>
        <time>2020-06-24T09:35:10Z</time>
      </trkpt>
      <trkpt lat="50.42594" lon="3.44341">
        <ele>19.7</ele>
        <time>2020-06-24T09:35:11Z</time>
      </trkpt>
      <trkpt lat="50.42589" lon="3.44345">
        <ele>19.7</ele>
        <time>2020-06-24T09:35:12Z</time>
      </trkpt>
      <trkpt lat="50.42585" lon="3.4435">
        <ele>19.6</ele>
        <time>2020-06-24T09:35:13Z</time>
      </trkpt>
      <trkpt lat="50.42581" lon="3.44356">
        <ele>19.6</ele>
        <time>2020-06-24T09:35:14Z</time>
      </trkpt>
      <trkpt lat="50.42574" lon="3.44361">
        <ele>19.5</ele>
        <time>2020-06-24T09:35:15Z</time>
      </trkpt>
      <trkpt lat="50.42568" lon="3.44369">
        <ele>19.5</ele>
        <time>2020-06-24T09:35:16Z</time>
      </trkpt>
      <trkpt lat="50.42561" lon="3.44375">
        <ele>19.4</ele>
        <time>2020-06-24T09:35:17Z</time>
      </trkpt>
      <trkpt lat="50.42554" lon="3.44382">
        <ele>19.4</ele>
        <time>2020-06-24T09:35:18Z</time>
      </trkpt>
      <trkpt lat="50.42548" lon="3.44389">
        <ele>19.4</ele>
        <time>2020-06-24T09:35:19Z</time>
      </trkpt>
      <trkpt lat="50.42541" lon="3.44395">
        <ele>19.4</ele>
        <time>2020-06-24T09:35:20Z</time>
      </trkpt>
      <trkpt lat="50.42535" lon="3.444">
        <ele>19.4</ele>
        <time>2020-06-24T09:35:21Z</time>
      </trkpt>
      <trkpt lat="50.4253" lon="3.44405">
        <ele>19.4</ele>
        <time>2020-06-24T09:35:22Z</time>
      </trkpt>
      <trkpt lat="50.42524" lon="3.4441">
        <ele>19.4</ele>
        <time>2020-06-24T09:35:23Z</time>
      </trkpt>
      <trkpt lat="50.42518" lon="3.44417">
        <ele>19.3</ele>
        <time>2020-06-24T09:35:24Z</time>
      </trkpt>
      <trkpt lat="50.42512" lon="3.44423">
        <ele>19.3</ele>
        <time>2020-06-24T09:35:25Z</time>
      </trkpt>
      <trkpt lat="50.42506" lon="3.44428">
        <ele>19.2</ele>
        <time>2020-06-24T09:35:26Z</time>
      </trkpt>
      <trkpt lat="50.42501" lon="3.44433">
        <ele>19.1</ele>
        <time>2020-06-24T09:35:27Z</time>
      </trkpt>
      <trkpt lat="50.42497" lon="3.44437">
        <ele>19</ele>
        <time>2020-06-24T09:35:28Z</time>
      </trkpt>
      <trkpt lat="50.42491" lon="3.44442">
        <ele>18.9</ele>
        <time>2020-06-24T09:35:29Z</time>
      </trkpt>
      <trkpt lat="50.42486" lon="3.44446">
        <ele>18.9</ele>
        <time>2020-06-24T09:35:30Z</time>
      </trkpt>
      <trkpt lat="50.42481" lon="3.44451">
        <ele>18.9</ele>
        <time>2020-06-24T09:35:31Z</time>
      </trkpt>
      <trkpt lat="50.42476" lon="3.44457">
        <ele>18.8</ele>
        <time>2020-06-24T09:35:32Z</time>
      </trkpt>
      <trkpt lat="50.42471" lon="3.44463">
        <ele>18.7</ele>
        <time>2020-06-24T09:35:33Z</time>
      </trkpt>
      <trkpt lat="50.42465" lon="3.44469">
        <ele>18.7</ele>
        <time>2020-06-24T09:35:34Z</time>
      </trkpt>
      <trkpt lat="50.4246" lon="3.44474">
        <ele>18.6</ele>
        <time>2020-06-24T09:35:35Z</time>
      </trkpt>
      <trkpt lat="50.42455" lon="3.4448">
        <ele>18.5</ele>
        <time>2020-06-24T09:35:36Z</time>
      </trkpt>
      <trkpt lat="50.42449" lon="3.44487">
        <ele>18.4</ele>
        <time>2020-06-24T09:35:37Z</time>
      </trkpt>
      <trkpt lat="50.42444" lon="3.44494">
        <ele>18.4</ele>
        <time>2020-06-24T09:35:38Z</time>
      </trkpt>
      <trkpt lat="50.42439" lon="3.44499">
        <ele>18.4</ele>
        <time>2020-06-24T09:35:39Z</time>
      </trkpt>
      <trkpt lat="50.42434" lon="3.44504">
        <ele>18.4</ele>
        <time>2020-06-24T09:35:40Z</time>
      </trkpt>
      <trkpt lat="50.42429" lon="3.44509">
        <ele>18.5</ele>
        <time>2020-06-24T09:35:41Z</time>
      </trkpt>
      <trkpt lat="50.42424" lon="3.44513">
        <ele>18.5</ele>
        <time>2020-06-24T09:35:42Z</time>
      </trkpt>
      <trkpt lat="50.4242" lon="3.44517">
        <ele>18.6</ele>
        <time>2020-06-24T09:35:43Z</time>
      </trkpt>
      <trkpt lat="50.42415" lon="3.44522">
        <ele>18.6</ele>
        <time>2020-06-24T09:35:44Z</time>
      </trkpt>
      <trkpt lat="50.42411" lon="3.44527">
        <ele>18.7</ele>
        <time>2020-06-24T09:35:45Z</time>
      </trkpt>
      <trkpt lat="50.42405" lon="3.44531">
        <ele>18.8</ele>
        <time>2020-06-24T09:35:46Z</time>
      </trkpt>
      <trkpt lat="50.42401" lon="3.44535">
        <ele>18.9</ele>
        <time>2020-06-24T09:35:47Z</time>
      </trkpt>
      <trkpt lat="50.42397" lon="3.44537">
        <ele>19</ele>
        <time>2020-06-24T09:35:48Z</time>
      </trkpt>
      <trkpt lat="50.42391" lon="3.44542">
        <ele>19.1</ele>
        <time>2020-06-24T09:35:49Z</time>
      </trkpt>
      <trkpt lat="50.42386" lon="3.44545">
        <ele>19.3</ele>
        <time>2020-06-24T09:35:50Z</time>
      </trkpt>
      <trkpt lat="50.42382" lon="3.44548">
        <ele>19.4</ele>
        <time>2020-06-24T09:35:51Z</time>
      </trkpt>
      <trkpt lat="50.42377" lon="3.44552">
        <ele>19.5</ele>
        <time>2020-06-24T09:35:52Z</time>
      </trkpt>
      <trkpt lat="50.42373" lon="3.44554">
        <ele>19.5</ele>
        <time>2020-06-24T09:35:53Z</time>
      </trkpt>
      <trkpt lat="50.42368" lon="3.44556">
        <ele>19.5</ele>
        <time>2020-06-24T09:35:54Z</time>
      </trkpt>
      <trkpt lat="50.42363" lon="3.44558">
        <ele>19.5</ele>
        <time>2020-06-24T09:35:55Z</time>
      </trkpt>
      <trkpt lat="50.42358" lon="3.4456">
        <ele>19.5</ele>
        <time>2020-06-24T09:35:56Z</time>
      </trkpt>
      <trkpt lat="50.42353" lon="3.44562">
        <ele>19.6</ele>
        <time>2020-06-24T09:35:57Z</time>
      </trkpt>
      <trkpt lat="50.42348" lon="3.44564">
        <ele>19.7</ele>
        <time>2020-06-24T09:35:58Z</time>
      </trkpt>
      <trkpt lat="50.42345" lon="3.44568">
        <ele>19.8</ele>
        <time>2020-06-24T09:35:59Z</time>
      </trkpt>
      <trkpt lat="50.4234" lon="3.44572">
        <ele>19.9</ele>
        <time>2020-06-24T09:36:00Z</time>
      </trkpt>
      <trkpt lat="50.42335" lon="3.44574">
        <ele>20</ele>
        <time>2020-06-24T09:36:01Z</time>
      </trkpt>
      <trkpt lat="50.42331" lon="3.44576">
        <ele>20</ele>
        <time>2020-06-24T09:36:02Z</time>
      </trkpt>
      <trkpt lat="50.42327" lon="3.4458">
        <ele>20.1</ele>
        <time>2020-06-24T09:36:03Z</time>
      </trkpt>
      <trkpt lat="50.42322" lon="3.44582">
        <ele>20.2</ele>
        <time>2020-06-24T09:36:04Z</time>
      </trkpt>
      <trkpt lat="50.42317" lon="3.44585">
        <ele>20.6</ele>
        <time>2020-06-24T09:36:05Z</time>
      </trkpt>
      <trkpt lat="50.42312" lon="3.44588">
        <ele>20.8</ele>
        <time>2020-06-24T09:36:06Z</time>
      </trkpt>
      <trkpt lat="50.42307" lon="3.44591">
        <ele>21</ele>
        <time>2020-06-24T09:36:07Z</time>
      </trkpt>
      <trkpt lat="50.42302" lon="3.44593">
        <ele>21.2</ele>
        <time>2020-06-24T09:36:08Z</time>
      </trkpt>
      <trkpt lat="50.42297" lon="3.44594">
        <ele>21.4</ele>
        <time>2020-06-24T09:36:09Z</time>
      </trkpt>
      <trkpt lat="50.42293" lon="3.44596">
        <ele>21.6</ele>
        <time>2020-06-24T09:36:10Z</time>
      </trkpt>
      <trkpt lat="50.42289" lon="3.44599">
        <ele>21.7</ele>
        <time>2020-06-24T09:36:11Z</time>
      </trkpt>
      <trkpt lat="50.42284" lon="3.44599">
        <ele>21.9</ele>
        <time>2020-06-24T09:36:12Z</time>
      </trkpt>
      <trkpt lat="50.42279" lon="3.44599">
        <ele>22.1</ele>
        <time>2020-06-24T09:36:13Z</time>
      </trkpt>
      <trkpt lat="50.42274" lon="3.44601">
        <ele>22.3</ele>
        <time>2020-06-24T09:36:14Z</time>
      </trkpt>
      <trkpt lat="50.42268" lon="3.44602">
        <ele>22.5</ele>
        <time>2020-06-24T09:36:15Z</time>
      </trkpt>
      <trkpt lat="50.42262" lon="3.44603">
        <ele>22.8</ele>
        <time>2020-06-24T09:36:16Z</time>
      </trkpt>
      <trkpt lat="50.42255" lon="3.44603">
        <ele>22.9</ele>
        <time>2020-06-24T09:36:17Z</time>
      </trkpt>
      <trkpt lat="50.42249" lon="3.44603">
        <ele>23</ele>
        <time>2020-06-24T09:36:18Z</time>
      </trkpt>
      <trkpt lat="50.42241" lon="3.44603">
        <ele>23.2</ele>
        <time>2020-06-24T09:36:19Z</time>
      </trkpt>
      <trkpt lat="50.42235" lon="3.44603">
        <ele>23.3</ele>
        <time>2020-06-24T09:36:20Z</time>
      </trkpt>
      <trkpt lat="50.4223" lon="3.44605">
        <ele>23.5</ele>
        <time>2020-06-24T09:36:21Z</time>
      </trkpt>
      <trkpt lat="50.42225" lon="3.44605">
        <ele>23.6</ele>
        <time>2020-06-24T09:36:22Z</time>
      </trkpt>
      <trkpt lat="50.42219" lon="3.44606">
        <ele>23.7</ele>
        <time>2020-06-24T09:36:23Z</time>
      </trkpt>
      <trkpt lat="50.42213" lon="3.44605">
        <ele>23.9</ele>
        <time>2020-06-24T09:36:24Z</time>
      </trkpt>
      <trkpt lat="50.42206" lon="3.44607">
        <ele>24</ele>
        <time>2020-06-24T09:36:25Z</time>
      </trkpt>
      <trkpt lat="50.422" lon="3.44607">
        <ele>24.1</ele>
        <time>2020-06-24T09:36:26Z</time>
      </trkpt>
      <trkpt lat="50.42194" lon="3.44606">
        <ele>24.1</ele>
        <time>2020-06-24T09:36:27Z</time>
      </trkpt>
      <trkpt lat="50.42188" lon="3.44605">
        <ele>24.2</ele>
        <time>2020-06-24T09:36:28Z</time>
      </trkpt>
      <trkpt lat="50.42181" lon="3.44606">
        <ele>24.2</ele>
        <time>2020-06-24T09:36:29Z</time>
      </trkpt>
      <trkpt lat="50.42175" lon="3.44606">
        <ele>24.3</ele>
        <time>2020-06-24T09:36:30Z</time>
      </trkpt>
      <trkpt lat="50.42169" lon="3.44604">
        <ele>24.1</ele>
        <time>2020-06-24T09:36:31Z</time>
      </trkpt>
      <trkpt lat="50.42165" lon="3.44601">
        <ele>24.1</ele>
        <time>2020-06-24T09:36:32Z</time>
      </trkpt>
      <trkpt lat="50.42159" lon="3.44599">
        <ele>24</ele>
        <time>2020-06-24T09:36:33Z</time>
      </trkpt>
      <trkpt lat="50.42153" lon="3.44597">
        <ele>24</ele>
        <time>2020-06-24T09:36:34Z</time>
      </trkpt>
      <trkpt lat="50.42148" lon="3.44596">
        <ele>24</ele>
        <time>2020-06-24T09:36:35Z</time>
      </trkpt>
      <trkpt lat="50.42142" lon="3.44595">
        <ele>24</ele>
        <time>2020-06-24T09:36:36Z</time>
      </trkpt>
      <trkpt lat="50.42137" lon="3.44594">
        <ele>24</ele>
        <time>2020-06-24T09:36:37Z</time>
      </trkpt>
      <trkpt lat="50.42131" lon="3.44593">
        <ele>23.9</ele>
        <time>2020-06-24T09:36:38Z</time>
      </trkpt>
      <trkpt lat="50.42125" lon="3.44591">
        <ele>23.9</ele>
        <time>2020-06-24T09:36:39Z</time>
      </trkpt>
      <trkpt lat="50.42118" lon="3.44588">
        <ele>23.8</ele>
        <time>2020-06-24T09:36:40Z</time>
      </trkpt>
      <trkpt lat="50.42112" lon="3.44585">
        <ele>23.7</ele>
        <time>2020-06-24T09:36:41Z</time>
      </trkpt>
      <trkpt lat="50.42106" lon="3.44583">
        <ele>23.6</ele>
        <time>2020-06-24T09:36:42Z</time>
      </trkpt>
      <trkpt lat="50.42099" lon="3.44581">
        <ele>23.5</ele>
        <time>2020-06-24T09:36:43Z</time>
      </trkpt>
      <trkpt lat="50.42092" lon="3.44578">
        <ele>23.4</ele>
        <time>2020-06-24T09:36:44Z</time>
      </trkpt>
      <trkpt lat="50.42084" lon="3.44575">
        <ele>23.3</ele>
        <time>2020-06-24T09:36:45Z</time>
      </trkpt>
      <trkpt lat="50.42078" lon="3.44573">
        <ele>23.2</ele>
        <time>2020-06-24T09:36:46Z</time>
      </trkpt>
      <trkpt lat="50.42071" lon="3.44571">
        <ele>23</ele>
        <time>2020-06-24T09:36:47Z</time>
      </trkpt>
      <trkpt lat="50.42065" lon="3.44569">
        <ele>22.9</ele>
        <time>2020-06-24T09:36:48Z</time>
      </trkpt>
      <trkpt lat="50.42058" lon="3.44568">
        <ele>22.7</ele>
        <time>2020-06-24T09:36:49Z</time>
      </trkpt>
      <trkpt lat="50.4205" lon="3.44566">
        <ele>22.5</ele>
        <time>2020-06-24T09:36:50Z</time>
      </trkpt>
      <trkpt lat="50.42043" lon="3.44564">
        <ele>22.4</ele>
        <time>2020-06-24T09:36:51Z</time>
      </trkpt>
      <trkpt lat="50.42035" lon="3.44562">
        <ele>22.2</ele>
        <time>2020-06-24T09:36:52Z</time>
      </trkpt>
      <trkpt lat="50.42028" lon="3.4456">
        <ele>22</ele>
        <time>2020-06-24T09:36:53Z</time>
      </trkpt>
      <trkpt lat="50.42022" lon="3.44557">
        <ele>21.9</ele>
        <time>2020-06-24T09:36:54Z</time>
      </trkpt>
      <trkpt lat="50.42016" lon="3.44554">
        <ele>21.7</ele>
        <time>2020-06-24T09:36:55Z</time>
      </trkpt>
      <trkpt lat="50.4201" lon="3.44552">
        <ele>21.5</ele>
        <time>2020-06-24T09:36:56Z</time>
      </trkpt>
      <trkpt lat="50.42003" lon="3.44551">
        <ele>21.4</ele>
        <time>2020-06-24T09:36:57Z</time>
      </trkpt>
      <trkpt lat="50.41997" lon="3.4455">
        <ele>21.3</ele>
        <time>2020-06-24T09:36:58Z</time>
      </trkpt>
      <trkpt lat="50.41991" lon="3.44547">
        <ele>21.2</ele>
        <time>2020-06-24T09:36:59Z</time>
      </trkpt>
      <trkpt lat="50.41985" lon="3.44544">
        <ele>21</ele>
        <time>2020-06-24T09:37:00Z</time>
      </trkpt>
      <trkpt lat="50.41978" lon="3.44542">
        <ele>20.9</ele>
        <time>2020-06-24T09:37:01Z</time>
      </trkpt>
      <trkpt lat="50.4197" lon="3.44541">
        <ele>20.7</ele>
        <time>2020-06-24T09:37:02Z</time>
      </trkpt>
      <trkpt lat="50.41963" lon="3.4454">
        <ele>20.6</ele>
        <time>2020-06-24T09:37:03Z</time>
      </trkpt>
      <trkpt lat="50.41957" lon="3.44537">
        <ele>20.5</ele>
        <time>2020-06-24T09:37:04Z</time>
      </trkpt>
      <trkpt lat="50.4195" lon="3.44535">
        <ele>20.5</ele>
        <time>2020-06-24T09:37:05Z</time>
      </trkpt>
      <trkpt lat="50.41943" lon="3.44533">
        <ele>20.4</ele>
        <time>2020-06-24T09:37:06Z</time>
      </trkpt>
      <trkpt lat="50.41938" lon="3.44532">
        <ele>20.4</ele>
        <time>2020-06-24T09:37:07Z</time>
      </trkpt>
      <trkpt lat="50.41932" lon="3.44531">
        <ele>20.3</ele>
        <time>2020-06-24T09:37:08Z</time>
      </trkpt>
      <trkpt lat="50.41928" lon="3.4453">
        <ele>20.3</ele>
        <time>2020-06-24T09:37:09Z</time>
      </trkpt>
      <trkpt lat="50.41923" lon="3.4453">
        <ele>20.3</ele>
        <time>2020-06-24T09:37:10Z</time>
      </trkpt>
      <trkpt lat="50.41917" lon="3.44529">
        <ele>20.3</ele>
        <time>2020-06-24T09:37:11Z</time>
      </trkpt>
      <trkpt lat="50.41911" lon="3.44526">
        <ele>20.3</ele>
        <time>2020-06-24T09:37:12Z</time>
      </trkpt>
      <trkpt lat="50.41906" lon="3.44522">
        <ele>20.3</ele>
        <time>2020-06-24T09:37:13Z</time>
      </trkpt>
      <trkpt lat="50.41902" lon="3.4452">
        <ele>20.4</ele>
        <time>2020-06-24T09:37:14Z</time>
      </trkpt>
      <trkpt lat="50.41899" lon="3.44518">
        <ele>20.4</ele>
        <time>2020-06-24T09:37:15Z</time>
      </trkpt>
      <trkpt lat="50.41896" lon="3.44519">
        <ele>20.4</ele>
        <time>2020-06-24T09:37:16Z</time>
      </trkpt>
      <trkpt lat="50.41895" lon="3.44519">
        <ele>20.4</ele>
        <time>2020-06-24T09:37:17Z</time>
      </trkpt>
      <trkpt lat="50.41894" lon="3.44523">
        <ele>20.4</ele>
        <time>2020-06-24T09:37:18Z</time>
      </trkpt>
      <trkpt lat="50.41894" lon="3.44525">
        <ele>20.4</ele>
        <time>2020-06-24T09:37:19Z</time>
      </trkpt>
      <trkpt lat="50.41893" lon="3.44528">
        <ele>20.4</ele>
        <time>2020-06-24T09:37:20Z</time>
      </trkpt>
      <trkpt lat="50.41892" lon="3.44529">
        <ele>20.4</ele>
        <time>2020-06-24T09:37:21Z</time>
      </trkpt>
      <trkpt lat="50.41892" lon="3.4453">
        <ele>20.5</ele>
        <time>2020-06-24T09:37:22Z</time>
      </trkpt>
      <trkpt lat="50.41892" lon="3.44532">
        <ele>20.5</ele>
        <time>2020-06-24T09:37:23Z</time>
      </trkpt>
      <trkpt lat="50.41892" lon="3.44535">
        <ele>20.5</ele>
        <time>2020-06-24T09:37:24Z</time>
      </trkpt>
      <trkpt lat="50.41892" lon="3.4454">
        <ele>20.5</ele>
        <time>2020-06-24T09:37:25Z</time>
      </trkpt>
      <trkpt lat="50.41891" lon="3.44544">
        <ele>20.4</ele>
        <time>2020-06-24T09:37:26Z</time>
      </trkpt>
      <trkpt lat="50.4189" lon="3.44545">
        <ele>20.4</ele>
        <time>2020-06-24T09:37:27Z</time>
      </trkpt>
      <trkpt lat="50.41887" lon="3.44549">
        <ele>20.3</ele>
        <time>2020-06-24T09:37:28Z</time>
      </trkpt>
      <trkpt lat="50.41882" lon="3.44553">
        <ele>20.3</ele>
        <time>2020-06-24T09:37:29Z</time>
      </trkpt>
      <trkpt lat="50.41879" lon="3.44555">
        <ele>20.3</ele>
        <time>2020-06-24T09:37:30Z</time>
      </trkpt>
      <trkpt lat="50.41876" lon="3.44558">
        <ele>20.3</ele>
        <time>2020-06-24T09:37:31Z</time>
      </trkpt>
      <trkpt lat="50.41874" lon="3.44559">
        <ele>20.3</ele>
        <time>2020-06-24T09:37:32Z</time>
      </trkpt>
      <trkpt lat="50.41873" lon="3.44559">
        <ele>20.3</ele>
        <time>2020-06-24T09:37:33Z</time>
      </trkpt>
      <trkpt lat="50.41873" lon="3.4456">
        <ele>20.3</ele>
        <time>2020-06-24T09:37:34Z</time>
      </trkpt>
      <trkpt lat="50.41871" lon="3.44559">
        <ele>20.3</ele>
        <time>2020-06-24T09:37:35Z</time>
      </trkpt>
      <trkpt lat="50.41869" lon="3.44559">
        <ele>20.3</ele>
        <time>2020-06-24T09:37:36Z</time>
      </trkpt>
      <trkpt lat="50.41867" lon="3.44558">
        <ele>20.3</ele>
        <time>2020-06-24T09:37:37Z</time>
      </trkpt>
      <trkpt lat="50.41865" lon="3.44558">
        <ele>20.3</ele>
        <time>2020-06-24T09:37:38Z</time>
      </trkpt>
      <trkpt lat="50.41863" lon="3.44558">
        <ele>20.3</ele>
        <time>2020-06-24T09:37:39Z</time>
      </trkpt>
      <trkpt lat="50.41862" lon="3.4456">
        <ele>20.3</ele>
        <time>2020-06-24T09:37:40Z</time>
      </trkpt>
      <trkpt lat="50.41862" lon="3.44565">
        <ele>20.1</ele>
        <time>2020-06-24T09:37:41Z</time>
      </trkpt>
      <trkpt lat="50.41861" lon="3.44567">
        <ele>20.1</ele>
        <time>2020-06-24T09:37:42Z</time>
      </trkpt>
      <trkpt lat="50.41861" lon="3.44572">
        <ele>20</ele>
        <time>2020-06-24T09:37:43Z</time>
      </trkpt>
      <trkpt lat="50.41861" lon="3.44577">
        <ele>20</ele>
        <time>2020-06-24T09:37:44Z</time>
      </trkpt>
      <trkpt lat="50.41861" lon="3.44582">
        <ele>19.9</ele>
        <time>2020-06-24T09:37:45Z</time>
      </trkpt>
      <trkpt lat="50.41861" lon="3.4459">
        <ele>19.8</ele>
        <time>2020-06-24T09:37:46Z</time>
      </trkpt>
      <trkpt lat="50.4186" lon="3.44597">
        <ele>19.7</ele>
        <time>2020-06-24T09:37:47Z</time>
      </trkpt>
      <trkpt lat="50.4186" lon="3.44604">
        <ele>19.6</ele>
        <time>2020-06-24T09:37:48Z</time>
      </trkpt>
      <trkpt lat="50.41859" lon="3.4461">
        <ele>19.6</ele>
        <time>2020-06-24T09:37:49Z</time>
      </trkpt>
      <trkpt lat="50.41859" lon="3.44619">
        <ele>19.5</ele>
        <time>2020-06-24T09:37:50Z</time>
      </trkpt>
      <trkpt lat="50.41859" lon="3.44628">
        <ele>19.4</ele>
        <time>2020-06-24T09:37:51Z</time>
      </trkpt>
      <trkpt lat="50.41858" lon="3.44636">
        <ele>19.3</ele>
        <time>2020-06-24T09:37:52Z</time>
      </trkpt>
      <trkpt lat="50.41857" lon="3.44643">
        <ele>19.3</ele>
        <time>2020-06-24T09:37:53Z</time>
      </trkpt>
      <trkpt lat="50.41856" lon="3.44651">
        <ele>19.3</ele>
        <time>2020-06-24T09:37:54Z</time>
      </trkpt>
      <trkpt lat="50.41855" lon="3.44658">
        <ele>19.2</ele>
        <time>2020-06-24T09:37:55Z</time>
      </trkpt>
      <trkpt lat="50.41854" lon="3.44667">
        <ele>19.2</ele>
        <time>2020-06-24T09:37:56Z</time>
      </trkpt>
      <trkpt lat="50.41854" lon="3.44675">
        <ele>19.2</ele>
        <time>2020-06-24T09:37:57Z</time>
      </trkpt>
      <trkpt lat="50.41853" lon="3.44682">
        <ele>19.1</ele>
        <time>2020-06-24T09:37:58Z</time>
      </trkpt>
      <trkpt lat="50.41852" lon="3.44691">
        <ele>19.1</ele>
        <time>2020-06-24T09:37:59Z</time>
      </trkpt>
      <trkpt lat="50.4185" lon="3.44699">
        <ele>19</ele>
        <time>2020-06-24T09:38:00Z</time>
      </trkpt>
      <trkpt lat="50.41848" lon="3.44708">
        <ele>19</ele>
        <time>2020-06-24T09:38:01Z</time>
      </trkpt>
      <trkpt lat="50.41848" lon="3.44716">
        <ele>18.9</ele>
        <time>2020-06-24T09:38:02Z</time>
      </trkpt>
      <trkpt lat="50.41846" lon="3.44724">
        <ele>18.9</ele>
        <time>2020-06-24T09:38:03Z</time>
      </trkpt>
      <trkpt lat="50.41844" lon="3.4473">
        <ele>18.9</ele>
        <time>2020-06-24T09:38:04Z</time>
      </trkpt>
      <trkpt lat="50.41843" lon="3.44739">
        <ele>18.8</ele>
        <time>2020-06-24T09:38:05Z</time>
      </trkpt>
      <trkpt lat="50.41843" lon="3.44746">
        <ele>18.8</ele>
        <time>2020-06-24T09:38:06Z</time>
      </trkpt>
      <trkpt lat="50.41842" lon="3.44753">
        <ele>18.7</ele>
        <time>2020-06-24T09:38:07Z</time>
      </trkpt>
      <trkpt lat="50.41842" lon="3.44761">
        <ele>18.7</ele>
        <time>2020-06-24T09:38:08Z</time>
      </trkpt>
      <trkpt lat="50.41841" lon="3.4477">
        <ele>18.7</ele>
        <time>2020-06-24T09:38:09Z</time>
      </trkpt>
      <trkpt lat="50.4184" lon="3.44778">
        <ele>18.6</ele>
        <time>2020-06-24T09:38:10Z</time>
      </trkpt>
      <trkpt lat="50.41839" lon="3.44786">
        <ele>18.6</ele>
        <time>2020-06-24T09:38:11Z</time>
      </trkpt>
      <trkpt lat="50.41839" lon="3.44795">
        <ele>18.5</ele>
        <time>2020-06-24T09:38:12Z</time>
      </trkpt>
      <trkpt lat="50.41838" lon="3.44805">
        <ele>18.5</ele>
        <time>2020-06-24T09:38:13Z</time>
      </trkpt>
      <trkpt lat="50.41838" lon="3.44814">
        <ele>18.4</ele>
        <time>2020-06-24T09:38:14Z</time>
      </trkpt>
      <trkpt lat="50.41837" lon="3.44823">
        <ele>18.3</ele>
        <time>2020-06-24T09:38:15Z</time>
      </trkpt>
      <trkpt lat="50.41835" lon="3.44832">
        <ele>18.2</ele>
        <time>2020-06-24T09:38:16Z</time>
      </trkpt>
      <trkpt lat="50.41835" lon="3.44843">
        <ele>18.1</ele>
        <time>2020-06-24T09:38:17Z</time>
      </trkpt>
      <trkpt lat="50.41833" lon="3.44852">
        <ele>18</ele>
        <time>2020-06-24T09:38:18Z</time>
      </trkpt>
      <trkpt lat="50.41832" lon="3.44863">
        <ele>17.9</ele>
        <time>2020-06-24T09:38:19Z</time>
      </trkpt>
      <trkpt lat="50.4183" lon="3.44873">
        <ele>17.9</ele>
        <time>2020-06-24T09:38:20Z</time>
      </trkpt>
      <trkpt lat="50.41829" lon="3.44884">
        <ele>17.8</ele>
        <time>2020-06-24T09:38:21Z</time>
      </trkpt>
      <trkpt lat="50.41827" lon="3.44894">
        <ele>17.8</ele>
        <time>2020-06-24T09:38:22Z</time>
      </trkpt>
      <trkpt lat="50.41825" lon="3.44904">
        <ele>17.7</ele>
        <time>2020-06-24T09:38:23Z</time>
      </trkpt>
      <trkpt lat="50.41824" lon="3.44913">
        <ele>17.7</ele>
        <time>2020-06-24T09:38:24Z</time>
      </trkpt>
      <trkpt lat="50.41823" lon="3.44922">
        <ele>17.7</ele>
        <time>2020-06-24T09:38:25Z</time>
      </trkpt>
      <trkpt lat="50.41821" lon="3.44932">
        <ele>17.7</ele>
        <time>2020-06-24T09:38:26Z</time>
      </trkpt>
      <trkpt lat="50.41819" lon="3.44942">
        <ele>17.7</ele>
        <time>2020-06-24T09:38:27Z</time>
      </trkpt>
      <trkpt lat="50.41817" lon="3.44951">
        <ele>17.7</ele>
        <time>2020-06-24T09:38:28Z</time>
      </trkpt>
      <trkpt lat="50.41814" lon="3.4496">
        <ele>17.7</ele>
        <time>2020-06-24T09:38:29Z</time>
      </trkpt>
      <trkpt lat="50.41811" lon="3.44968">
        <ele>17.8</ele>
        <time>2020-06-24T09:38:30Z</time>
      </trkpt>
      <trkpt lat="50.41808" lon="3.44976">
        <ele>17.8</ele>
        <time>2020-06-24T09:38:31Z</time>
      </trkpt>
      <trkpt lat="50.41805" lon="3.44985">
        <ele>17.9</ele>
        <time>2020-06-24T09:38:32Z</time>
      </trkpt>
      <trkpt lat="50.41802" lon="3.44993">
        <ele>17.9</ele>
        <time>2020-06-24T09:38:33Z</time>
      </trkpt>
      <trkpt lat="50.41797" lon="3.45">
        <ele>17.8</ele>
        <time>2020-06-24T09:38:34Z</time>
      </trkpt>
      <trkpt lat="50.41792" lon="3.45006">
        <ele>17.8</ele>
        <time>2020-06-24T09:38:35Z</time>
      </trkpt>
      <trkpt lat="50.41787" lon="3.45013">
        <ele>17.8</ele>
        <time>2020-06-24T09:38:36Z</time>
      </trkpt>
      <trkpt lat="50.41781" lon="3.4502">
        <ele>17.9</ele>
        <time>2020-06-24T09:38:37Z</time>
      </trkpt>
      <trkpt lat="50.41775" lon="3.45026">
        <ele>17.9</ele>
        <time>2020-06-24T09:38:38Z</time>
      </trkpt>
      <trkpt lat="50.41769" lon="3.45033">
        <ele>17.9</ele>
        <time>2020-06-24T09:38:39Z</time>
      </trkpt>
      <trkpt lat="50.41764" lon="3.45037">
        <ele>17.9</ele>
        <time>2020-06-24T09:38:40Z</time>
      </trkpt>
      <trkpt lat="50.41759" lon="3.45042">
        <ele>17.9</ele>
        <time>2020-06-24T09:38:41Z</time>
      </trkpt>
      <trkpt lat="50.41754" lon="3.45046">
        <ele>18</ele>
        <time>2020-06-24T09:38:42Z</time>
      </trkpt>
      <trkpt lat="50.41748" lon="3.4505">
        <ele>18</ele>
        <time>2020-06-24T09:38:43Z</time>
      </trkpt>
      <trkpt lat="50.41744" lon="3.45052">
        <ele>18</ele>
        <time>2020-06-24T09:38:44Z</time>
      </trkpt>
      <trkpt lat="50.4174" lon="3.45054">
        <ele>18</ele>
        <time>2020-06-24T09:38:45Z</time>
      </trkpt>
      <trkpt lat="50.41736" lon="3.45056">
        <ele>18.9</ele>
        <time>2020-06-24T09:38:46Z</time>
      </trkpt>
      <trkpt lat="50.41732" lon="3.45059">
        <ele>18.9</ele>
        <time>2020-06-24T09:38:47Z</time>
      </trkpt>
      <trkpt lat="50.41728" lon="3.45062">
        <ele>18.9</ele>
        <time>2020-06-24T09:38:48Z</time>
      </trkpt>
      <trkpt lat="50.41724" lon="3.45065">
        <ele>18.9</ele>
        <time>2020-06-24T09:38:49Z</time>
      </trkpt>
      <trkpt lat="50.41721" lon="3.4507">
        <ele>18.8</ele>
        <time>2020-06-24T09:38:50Z</time>
      </trkpt>
      <trkpt lat="50.41716" lon="3.45072">
        <ele>18.8</ele>
        <time>2020-06-24T09:38:51Z</time>
      </trkpt>
      <trkpt lat="50.41711" lon="3.45075">
        <ele>18.8</ele>
        <time>2020-06-24T09:38:52Z</time>
      </trkpt>
      <trkpt lat="50.41706" lon="3.45077">
        <ele>18.8</ele>
        <time>2020-06-24T09:38:53Z</time>
      </trkpt>
      <trkpt lat="50.41702" lon="3.45079">
        <ele>18.8</ele>
        <time>2020-06-24T09:38:54Z</time>
      </trkpt>
      <trkpt lat="50.41697" lon="3.45082">
        <ele>18.8</ele>
        <time>2020-06-24T09:38:55Z</time>
      </trkpt>
      <trkpt lat="50.41692" lon="3.45084">
        <ele>18.7</ele>
        <time>2020-06-24T09:38:56Z</time>
      </trkpt>
      <trkpt lat="50.41686" lon="3.45089">
        <ele>18.7</ele>
        <time>2020-06-24T09:38:57Z</time>
      </trkpt>
      <trkpt lat="50.41681" lon="3.45092">
        <ele>18.7</ele>
        <time>2020-06-24T09:38:58Z</time>
      </trkpt>
      <trkpt lat="50.41676" lon="3.45096">
        <ele>18.7</ele>
        <time>2020-06-24T09:38:59Z</time>
      </trkpt>
      <trkpt lat="50.41671" lon="3.45101">
        <ele>18.6</ele>
        <time>2020-06-24T09:39:00Z</time>
      </trkpt>
      <trkpt lat="50.41665" lon="3.45106">
        <ele>18.6</ele>
        <time>2020-06-24T09:39:01Z</time>
      </trkpt>
      <trkpt lat="50.4166" lon="3.4511">
        <ele>18.6</ele>
        <time>2020-06-24T09:39:02Z</time>
      </trkpt>
      <trkpt lat="50.41655" lon="3.45113">
        <ele>18.6</ele>
        <time>2020-06-24T09:39:03Z</time>
      </trkpt>
      <trkpt lat="50.41649" lon="3.45117">
        <ele>18.6</ele>
        <time>2020-06-24T09:39:04Z</time>
      </trkpt>
      <trkpt lat="50.41644" lon="3.45121">
        <ele>18.6</ele>
        <time>2020-06-24T09:39:05Z</time>
      </trkpt>
      <trkpt lat="50.41639" lon="3.45126">
        <ele>18.6</ele>
        <time>2020-06-24T09:39:06Z</time>
      </trkpt>
      <trkpt lat="50.41633" lon="3.4513">
        <ele>18.6</ele>
        <time>2020-06-24T09:39:07Z</time>
      </trkpt>
      <trkpt lat="50.41628" lon="3.45134">
        <ele>18.6</ele>
        <time>2020-06-24T09:39:08Z</time>
      </trkpt>
      <trkpt lat="50.41623" lon="3.45138">
        <ele>18.6</ele>
        <time>2020-06-24T09:39:09Z</time>
      </trkpt>
      <trkpt lat="50.41617" lon="3.45142">
        <ele>18.6</ele>
        <time>2020-06-24T09:39:10Z</time>
      </trkpt>
      <trkpt lat="50.41611" lon="3.45146">
        <ele>18.6</ele>
        <time>2020-06-24T09:39:11Z</time>
      </trkpt>
      <trkpt lat="50.41605" lon="3.45151">
        <ele>18.5</ele>
        <time>2020-06-24T09:39:12Z</time>
      </trkpt>
      <trkpt lat="50.41598" lon="3.45154">
        <ele>18.5</ele>
        <time>2020-06-24T09:39:13Z</time>
      </trkpt>
      <trkpt lat="50.41592" lon="3.45159">
        <ele>18.6</ele>
        <time>2020-06-24T09:39:14Z</time>
      </trkpt>
      <trkpt lat="50.41587" lon="3.45161">
        <ele>18.6</ele>
        <time>2020-06-24T09:39:15Z</time>
      </trkpt>
      <trkpt lat="50.41582" lon="3.45164">
        <ele>18.7</ele>
        <time>2020-06-24T09:39:16Z</time>
      </trkpt>
      <trkpt lat="50.41576" lon="3.45167">
        <ele>18.7</ele>
        <time>2020-06-24T09:39:17Z</time>
      </trkpt>
      <trkpt lat="50.41572" lon="3.45171">
        <ele>18.8</ele>
        <time>2020-06-24T09:39:18Z</time>
      </trkpt>
      <trkpt lat="50.41566" lon="3.45174">
        <ele>18.8</ele>
        <time>2020-06-24T09:39:19Z</time>
      </trkpt>
      <trkpt lat="50.41561" lon="3.45178">
        <ele>18.7</ele>
        <time>2020-06-24T09:39:20Z</time>
      </trkpt>
      <trkpt lat="50.41556" lon="3.45182">
        <ele>18.7</ele>
        <time>2020-06-24T09:39:21Z</time>
      </trkpt>
      <trkpt lat="50.4155" lon="3.45186">
        <ele>18.7</ele>
        <time>2020-06-24T09:39:22Z</time>
      </trkpt>
      <trkpt lat="50.41543" lon="3.45191">
        <ele>18.7</ele>
        <time>2020-06-24T09:39:23Z</time>
      </trkpt>
      <trkpt lat="50.41537" lon="3.45195">
        <ele>18.7</ele>
        <time>2020-06-24T09:39:24Z</time>
      </trkpt>
      <trkpt lat="50.41531" lon="3.45199">
        <ele>18.7</ele>
        <time>2020-06-24T09:39:25Z</time>
      </trkpt>
      <trkpt lat="50.41525" lon="3.45202">
        <ele>18.7</ele>
        <time>2020-06-24T09:39:26Z</time>
      </trkpt>
      <trkpt lat="50.41519" lon="3.45206">
        <ele>18.7</ele>
        <time>2020-06-24T09:39:27Z</time>
      </trkpt>
      <trkpt lat="50.41513" lon="3.4521">
        <ele>18.7</ele>
        <time>2020-06-24T09:39:28Z</time>
      </trkpt>
      <trkpt lat="50.41508" lon="3.45213">
        <ele>18.7</ele>
        <time>2020-06-24T09:39:29Z</time>
      </trkpt>
      <trkpt lat="50.41502" lon="3.45217">
        <ele>18.7</ele>
        <time>2020-06-24T09:39:30Z</time>
      </trkpt>
      <trkpt lat="50.41496" lon="3.45222">
        <ele>18.7</ele>
        <time>2020-06-24T09:39:31Z</time>
      </trkpt>
      <trkpt lat="50.4149" lon="3.45225">
        <ele>18.7</ele>
        <time>2020-06-24T09:39:32Z</time>
      </trkpt>
      <trkpt lat="50.41485" lon="3.45229">
        <ele>18.7</ele>
        <time>2020-06-24T09:39:33Z</time>
      </trkpt>
      <trkpt lat="50.4148" lon="3.45232">
        <ele>18.7</ele>
        <time>2020-06-24T09:39:34Z</time>
      </trkpt>
      <trkpt lat="50.41475" lon="3.45236">
        <ele>18.7</ele>
        <time>2020-06-24T09:39:35Z</time>
      </trkpt>
      <trkpt lat="50.4147" lon="3.45239">
        <ele>18.7</ele>
        <time>2020-06-24T09:39:36Z</time>
      </trkpt>
      <trkpt lat="50.41464" lon="3.45242">
        <ele>18.7</ele>
        <time>2020-06-24T09:39:37Z</time>
      </trkpt>
      <trkpt lat="50.41458" lon="3.45247">
        <ele>18.7</ele>
        <time>2020-06-24T09:39:38Z</time>
      </trkpt>
      <trkpt lat="50.41453" lon="3.45251">
        <ele>18.7</ele>
        <time>2020-06-24T09:39:39Z</time>
      </trkpt>
      <trkpt lat="50.41448" lon="3.45255">
        <ele>18.7</ele>
        <time>2020-06-24T09:39:40Z</time>
      </trkpt>
      <trkpt lat="50.41442" lon="3.45259">
        <ele>18.7</ele>
        <time>2020-06-24T09:39:41Z</time>
      </trkpt>
      <trkpt lat="50.41436" lon="3.45264">
        <ele>18.7</ele>
        <time>2020-06-24T09:39:42Z</time>
      </trkpt>
      <trkpt lat="50.4143" lon="3.45268">
        <ele>18.7</ele>
        <time>2020-06-24T09:39:43Z</time>
      </trkpt>
      <trkpt lat="50.41423" lon="3.45273">
        <ele>18.7</ele>
        <time>2020-06-24T09:39:44Z</time>
      </trkpt>
      <trkpt lat="50.41417" lon="3.45279">
        <ele>18.7</ele>
        <time>2020-06-24T09:39:45Z</time>
      </trkpt>
      <trkpt lat="50.41412" lon="3.45284">
        <ele>18.8</ele>
        <time>2020-06-24T09:39:46Z</time>
      </trkpt>
      <trkpt lat="50.41405" lon="3.45287">
        <ele>18.9</ele>
        <time>2020-06-24T09:39:47Z</time>
      </trkpt>
      <trkpt lat="50.41401" lon="3.45292">
        <ele>19</ele>
        <time>2020-06-24T09:39:48Z</time>
      </trkpt>
      <trkpt lat="50.41395" lon="3.45295">
        <ele>19.1</ele>
        <time>2020-06-24T09:39:49Z</time>
      </trkpt>
      <trkpt lat="50.41389" lon="3.45299">
        <ele>19</ele>
        <time>2020-06-24T09:39:50Z</time>
      </trkpt>
      <trkpt lat="50.41383" lon="3.45304">
        <ele>19</ele>
        <time>2020-06-24T09:39:51Z</time>
      </trkpt>
      <trkpt lat="50.41378" lon="3.45307">
        <ele>18.9</ele>
        <time>2020-06-24T09:39:52Z</time>
      </trkpt>
      <trkpt lat="50.41371" lon="3.45312">
        <ele>18.8</ele>
        <time>2020-06-24T09:39:53Z</time>
      </trkpt>
      <trkpt lat="50.41366" lon="3.45317">
        <ele>18.8</ele>
        <time>2020-06-24T09:39:54Z</time>
      </trkpt>
      <trkpt lat="50.4136" lon="3.45321">
        <ele>18.7</ele>
        <time>2020-06-24T09:39:55Z</time>
      </trkpt>
      <trkpt lat="50.41355" lon="3.45325">
        <ele>18.7</ele>
        <time>2020-06-24T09:39:56Z</time>
      </trkpt>
      <trkpt lat="50.4135" lon="3.45328">
        <ele>18.7</ele>
        <time>2020-06-24T09:39:57Z</time>
      </trkpt>
      <trkpt lat="50.41344" lon="3.45331">
        <ele>18.7</ele>
        <time>2020-06-24T09:39:58Z</time>
      </trkpt>
      <trkpt lat="50.41338" lon="3.45334">
        <ele>18.6</ele>
        <time>2020-06-24T09:39:59Z</time>
      </trkpt>
      <trkpt lat="50.41333" lon="3.45338">
        <ele>18.6</ele>
        <time>2020-06-24T09:40:00Z</time>
      </trkpt>
      <trkpt lat="50.41328" lon="3.45341">
        <ele>18.6</ele>
        <time>2020-06-24T09:40:01Z</time>
      </trkpt>
      <trkpt lat="50.41322" lon="3.45345">
        <ele>18.6</ele>
        <time>2020-06-24T09:40:02Z</time>
      </trkpt>
      <trkpt lat="50.41316" lon="3.45349">
        <ele>18.5</ele>
        <time>2020-06-24T09:40:03Z</time>
      </trkpt>
      <trkpt lat="50.41309" lon="3.45353">
        <ele>18.5</ele>
        <time>2020-06-24T09:40:04Z</time>
      </trkpt>
      <trkpt lat="50.41303" lon="3.45357">
        <ele>18.5</ele>
        <time>2020-06-24T09:40:05Z</time>
      </trkpt>
      <trkpt lat="50.41298" lon="3.45361">
        <ele>18.5</ele>
        <time>2020-06-24T09:40:06Z</time>
      </trkpt>
      <trkpt lat="50.41293" lon="3.45365">
        <ele>18.5</ele>
        <time>2020-06-24T09:40:07Z</time>
      </trkpt>
      <trkpt lat="50.41288" lon="3.45368">
        <ele>18.5</ele>
        <time>2020-06-24T09:40:08Z</time>
      </trkpt>
      <trkpt lat="50.41281" lon="3.4537">
        <ele>18.5</ele>
        <time>2020-06-24T09:40:09Z</time>
      </trkpt>
      <trkpt lat="50.41276" lon="3.45375">
        <ele>18.5</ele>
        <time>2020-06-24T09:40:10Z</time>
      </trkpt>
      <trkpt lat="50.41271" lon="3.45378">
        <ele>18.5</ele>
        <time>2020-06-24T09:40:11Z</time>
      </trkpt>
      <trkpt lat="50.41265" lon="3.4538">
        <ele>18.5</ele>
        <time>2020-06-24T09:40:12Z</time>
      </trkpt>
      <trkpt lat="50.4126" lon="3.45384">
        <ele>18.5</ele>
        <time>2020-06-24T09:40:13Z</time>
      </trkpt>
      <trkpt lat="50.41254" lon="3.45389">
        <ele>18.4</ele>
        <time>2020-06-24T09:40:14Z</time>
      </trkpt>
      <trkpt lat="50.41248" lon="3.45394">
        <ele>18.4</ele>
        <time>2020-06-24T09:40:15Z</time>
      </trkpt>
      <trkpt lat="50.41242" lon="3.45399">
        <ele>18.4</ele>
        <time>2020-06-24T09:40:16Z</time>
      </trkpt>
      <trkpt lat="50.41237" lon="3.45403">
        <ele>18.4</ele>
        <time>2020-06-24T09:40:17Z</time>
      </trkpt>
      <trkpt lat="50.41231" lon="3.45408">
        <ele>18.4</ele>
        <time>2020-06-24T09:40:18Z</time>
      </trkpt>
      <trkpt lat="50.41226" lon="3.45411">
        <ele>18.4</ele>
        <time>2020-06-24T09:40:19Z</time>
      </trkpt>
      <trkpt lat="50.4122" lon="3.45414">
        <ele>18.5</ele>
        <time>2020-06-24T09:40:20Z</time>
      </trkpt>
      <trkpt lat="50.41213" lon="3.45418">
        <ele>18.6</ele>
        <time>2020-06-24T09:40:21Z</time>
      </trkpt>
      <trkpt lat="50.41207" lon="3.45423">
        <ele>18.7</ele>
        <time>2020-06-24T09:40:22Z</time>
      </trkpt>
      <trkpt lat="50.41202" lon="3.45427">
        <ele>18.8</ele>
        <time>2020-06-24T09:40:23Z</time>
      </trkpt>
      <trkpt lat="50.41197" lon="3.45431">
        <ele>18.6</ele>
        <time>2020-06-24T09:40:24Z</time>
      </trkpt>
      <trkpt lat="50.41191" lon="3.45436">
        <ele>18.4</ele>
        <time>2020-06-24T09:40:25Z</time>
      </trkpt>
      <trkpt lat="50.41185" lon="3.4544">
        <ele>18.3</ele>
        <time>2020-06-24T09:40:26Z</time>
      </trkpt>
      <trkpt lat="50.4118" lon="3.45444">
        <ele>18.2</ele>
        <time>2020-06-24T09:40:27Z</time>
      </trkpt>
      <trkpt lat="50.41174" lon="3.45448">
        <ele>18.2</ele>
        <time>2020-06-24T09:40:28Z</time>
      </trkpt>
      <trkpt lat="50.41169" lon="3.45452">
        <ele>18.2</ele>
        <time>2020-06-24T09:40:29Z</time>
      </trkpt>
      <trkpt lat="50.41165" lon="3.45457">
        <ele>18.2</ele>
        <time>2020-06-24T09:40:30Z</time>
      </trkpt>
      <trkpt lat="50.41159" lon="3.45463">
        <ele>18.1</ele>
        <time>2020-06-24T09:40:31Z</time>
      </trkpt>
      <trkpt lat="50.41153" lon="3.45466">
        <ele>18.1</ele>
        <time>2020-06-24T09:40:32Z</time>
      </trkpt>
      <trkpt lat="50.41148" lon="3.45469">
        <ele>18.1</ele>
        <time>2020-06-24T09:40:33Z</time>
      </trkpt>
      <trkpt lat="50.41141" lon="3.45473">
        <ele>18.1</ele>
        <time>2020-06-24T09:40:34Z</time>
      </trkpt>
      <trkpt lat="50.41136" lon="3.45478">
        <ele>18.1</ele>
        <time>2020-06-24T09:40:35Z</time>
      </trkpt>
      <trkpt lat="50.4113" lon="3.45482">
        <ele>18.1</ele>
        <time>2020-06-24T09:40:36Z</time>
      </trkpt>
      <trkpt lat="50.41123" lon="3.45485">
        <ele>18</ele>
        <time>2020-06-24T09:40:37Z</time>
      </trkpt>
      <trkpt lat="50.41117" lon="3.45489">
        <ele>18</ele>
        <time>2020-06-24T09:40:38Z</time>
      </trkpt>
      <trkpt lat="50.41112" lon="3.45492">
        <ele>18</ele>
        <time>2020-06-24T09:40:39Z</time>
      </trkpt>
      <trkpt lat="50.41107" lon="3.45497">
        <ele>18</ele>
        <time>2020-06-24T09:40:40Z</time>
      </trkpt>
      <trkpt lat="50.41101" lon="3.45501">
        <ele>18</ele>
        <time>2020-06-24T09:40:41Z</time>
      </trkpt>
      <trkpt lat="50.41095" lon="3.45506">
        <ele>18</ele>
        <time>2020-06-24T09:40:42Z</time>
      </trkpt>
      <trkpt lat="50.41089" lon="3.45511">
        <ele>18</ele>
        <time>2020-06-24T09:40:43Z</time>
      </trkpt>
      <trkpt lat="50.41084" lon="3.45514">
        <ele>18</ele>
        <time>2020-06-24T09:40:44Z</time>
      </trkpt>
      <trkpt lat="50.41079" lon="3.45517">
        <ele>18</ele>
        <time>2020-06-24T09:40:45Z</time>
      </trkpt>
      <trkpt lat="50.41074" lon="3.4552">
        <ele>18</ele>
        <time>2020-06-24T09:40:46Z</time>
      </trkpt>
      <trkpt lat="50.41069" lon="3.45524">
        <ele>17.9</ele>
        <time>2020-06-24T09:40:47Z</time>
      </trkpt>
      <trkpt lat="50.41064" lon="3.45528">
        <ele>17.9</ele>
        <time>2020-06-24T09:40:48Z</time>
      </trkpt>
      <trkpt lat="50.41059" lon="3.45531">
        <ele>17.9</ele>
        <time>2020-06-24T09:40:49Z</time>
      </trkpt>
      <trkpt lat="50.41053" lon="3.45535">
        <ele>17.9</ele>
        <time>2020-06-24T09:40:50Z</time>
      </trkpt>
      <trkpt lat="50.41047" lon="3.4554">
        <ele>17.9</ele>
        <time>2020-06-24T09:40:51Z</time>
      </trkpt>
      <trkpt lat="50.41041" lon="3.45544">
        <ele>17.9</ele>
        <time>2020-06-24T09:40:52Z</time>
      </trkpt>
      <trkpt lat="50.41035" lon="3.45549">
        <ele>17.9</ele>
        <time>2020-06-24T09:40:53Z</time>
      </trkpt>
      <trkpt lat="50.41029" lon="3.45553">
        <ele>17.9</ele>
        <time>2020-06-24T09:40:54Z</time>
      </trkpt>
      <trkpt lat="50.41023" lon="3.45559">
        <ele>17.9</ele>
        <time>2020-06-24T09:40:55Z</time>
      </trkpt>
      <trkpt lat="50.41016" lon="3.45564">
        <ele>17.9</ele>
        <time>2020-06-24T09:40:56Z</time>
      </trkpt>
      <trkpt lat="50.41009" lon="3.45568">
        <ele>17.9</ele>
        <time>2020-06-24T09:40:57Z</time>
      </trkpt>
      <trkpt lat="50.41003" lon="3.45572">
        <ele>17.9</ele>
        <time>2020-06-24T09:40:58Z</time>
      </trkpt>
      <trkpt lat="50.40998" lon="3.45575">
        <ele>17.9</ele>
        <time>2020-06-24T09:40:59Z</time>
      </trkpt>
      <trkpt lat="50.40991" lon="3.45579">
        <ele>17.8</ele>
        <time>2020-06-24T09:41:00Z</time>
      </trkpt>
      <trkpt lat="50.40985" lon="3.45583">
        <ele>17.8</ele>
        <time>2020-06-24T09:41:01Z</time>
      </trkpt>
      <trkpt lat="50.40981" lon="3.45586">
        <ele>17.8</ele>
        <time>2020-06-24T09:41:02Z</time>
      </trkpt>
      <trkpt lat="50.40974" lon="3.45589">
        <ele>17.8</ele>
        <time>2020-06-24T09:41:03Z</time>
      </trkpt>
      <trkpt lat="50.4097" lon="3.45592">
        <ele>17.8</ele>
        <time>2020-06-24T09:41:04Z</time>
      </trkpt>
      <trkpt lat="50.40965" lon="3.45594">
        <ele>17.8</ele>
        <time>2020-06-24T09:41:05Z</time>
      </trkpt>
      <trkpt lat="50.40961" lon="3.45598">
        <ele>17.8</ele>
        <time>2020-06-24T09:41:06Z</time>
      </trkpt>
      <trkpt lat="50.40956" lon="3.45601">
        <ele>17.8</ele>
        <time>2020-06-24T09:41:07Z</time>
      </trkpt>
      <trkpt lat="50.40952" lon="3.45603">
        <ele>17.7</ele>
        <time>2020-06-24T09:41:08Z</time>
      </trkpt>
      <trkpt lat="50.40946" lon="3.45607">
        <ele>17.7</ele>
        <time>2020-06-24T09:41:09Z</time>
      </trkpt>
      <trkpt lat="50.40939" lon="3.45613">
        <ele>17.7</ele>
        <time>2020-06-24T09:41:10Z</time>
      </trkpt>
      <trkpt lat="50.40931" lon="3.45618">
        <ele>17.7</ele>
        <time>2020-06-24T09:41:11Z</time>
      </trkpt>
      <trkpt lat="50.40924" lon="3.45622">
        <ele>17.7</ele>
        <time>2020-06-24T09:41:12Z</time>
      </trkpt>
      <trkpt lat="50.40919" lon="3.45626">
        <ele>17.8</ele>
        <time>2020-06-24T09:41:13Z</time>
      </trkpt>
      <trkpt lat="50.40912" lon="3.45631">
        <ele>17.9</ele>
        <time>2020-06-24T09:41:14Z</time>
      </trkpt>
      <trkpt lat="50.40907" lon="3.45637">
        <ele>18</ele>
        <time>2020-06-24T09:41:15Z</time>
      </trkpt>
      <trkpt lat="50.40902" lon="3.4564">
        <ele>18</ele>
        <time>2020-06-24T09:41:16Z</time>
      </trkpt>
      <trkpt lat="50.40897" lon="3.45643">
        <ele>18.2</ele>
        <time>2020-06-24T09:41:17Z</time>
      </trkpt>
      <trkpt lat="50.40892" lon="3.45648">
        <ele>18.3</ele>
        <time>2020-06-24T09:41:18Z</time>
      </trkpt>
      <trkpt lat="50.40886" lon="3.45652">
        <ele>18.3</ele>
        <time>2020-06-24T09:41:19Z</time>
      </trkpt>
      <trkpt lat="50.4088" lon="3.45654">
        <ele>18.3</ele>
        <time>2020-06-24T09:41:20Z</time>
      </trkpt>
      <trkpt lat="50.40875" lon="3.45657">
        <ele>18.3</ele>
        <time>2020-06-24T09:41:21Z</time>
      </trkpt>
      <trkpt lat="50.4087" lon="3.45661">
        <ele>18.3</ele>
        <time>2020-06-24T09:41:22Z</time>
      </trkpt>
      <trkpt lat="50.40865" lon="3.45664">
        <ele>18.3</ele>
        <time>2020-06-24T09:41:23Z</time>
      </trkpt>
      <trkpt lat="50.4086" lon="3.45668">
        <ele>18.3</ele>
        <time>2020-06-24T09:41:24Z</time>
      </trkpt>
      <trkpt lat="50.40855" lon="3.45672">
        <ele>18.3</ele>
        <time>2020-06-24T09:41:25Z</time>
      </trkpt>
      <trkpt lat="50.40849" lon="3.45678">
        <ele>18.3</ele>
        <time>2020-06-24T09:41:26Z</time>
      </trkpt>
      <trkpt lat="50.40843" lon="3.45679">
        <ele>18.4</ele>
        <time>2020-06-24T09:41:27Z</time>
      </trkpt>
      <trkpt lat="50.40837" lon="3.45682">
        <ele>18.3</ele>
        <time>2020-06-24T09:41:28Z</time>
      </trkpt>
      <trkpt lat="50.40831" lon="3.45685">
        <ele>18.3</ele>
        <time>2020-06-24T09:41:29Z</time>
      </trkpt>
      <trkpt lat="50.40827" lon="3.45688">
        <ele>18.3</ele>
        <time>2020-06-24T09:41:30Z</time>
      </trkpt>
      <trkpt lat="50.40822" lon="3.45692">
        <ele>18.3</ele>
        <time>2020-06-24T09:41:31Z</time>
      </trkpt>
      <trkpt lat="50.40817" lon="3.45694">
        <ele>18.3</ele>
        <time>2020-06-24T09:41:32Z</time>
      </trkpt>
      <trkpt lat="50.40812" lon="3.45698">
        <ele>18.4</ele>
        <time>2020-06-24T09:41:33Z</time>
      </trkpt>
      <trkpt lat="50.40806" lon="3.45703">
        <ele>18.4</ele>
        <time>2020-06-24T09:41:34Z</time>
      </trkpt>
      <trkpt lat="50.40801" lon="3.45707">
        <ele>18.3</ele>
        <time>2020-06-24T09:41:35Z</time>
      </trkpt>
      <trkpt lat="50.40795" lon="3.45711">
        <ele>18.3</ele>
        <time>2020-06-24T09:41:36Z</time>
      </trkpt>
      <trkpt lat="50.40789" lon="3.45715">
        <ele>18.2</ele>
        <time>2020-06-24T09:41:37Z</time>
      </trkpt>
      <trkpt lat="50.40784" lon="3.4572">
        <ele>18.1</ele>
        <time>2020-06-24T09:41:38Z</time>
      </trkpt>
      <trkpt lat="50.40778" lon="3.45723">
        <ele>18.1</ele>
        <time>2020-06-24T09:41:39Z</time>
      </trkpt>
      <trkpt lat="50.40772" lon="3.45727">
        <ele>18.1</ele>
        <time>2020-06-24T09:41:40Z</time>
      </trkpt>
      <trkpt lat="50.40767" lon="3.4573">
        <ele>18.1</ele>
        <time>2020-06-24T09:41:41Z</time>
      </trkpt>
      <trkpt lat="50.40761" lon="3.45733">
        <ele>18.1</ele>
        <time>2020-06-24T09:41:42Z</time>
      </trkpt>
      <trkpt lat="50.40755" lon="3.45736">
        <ele>18.1</ele>
        <time>2020-06-24T09:41:43Z</time>
      </trkpt>
      <trkpt lat="50.4075" lon="3.4574">
        <ele>18.1</ele>
        <time>2020-06-24T09:41:44Z</time>
      </trkpt>
      <trkpt lat="50.40745" lon="3.45743">
        <ele>18.1</ele>
        <time>2020-06-24T09:41:45Z</time>
      </trkpt>
      <trkpt lat="50.4074" lon="3.45747">
        <ele>18.1</ele>
        <time>2020-06-24T09:41:46Z</time>
      </trkpt>
      <trkpt lat="50.40734" lon="3.45751">
        <ele>18.1</ele>
        <time>2020-06-24T09:41:47Z</time>
      </trkpt>
      <trkpt lat="50.4073" lon="3.45755">
        <ele>18.1</ele>
        <time>2020-06-24T09:41:48Z</time>
      </trkpt>
      <trkpt lat="50.40725" lon="3.45759">
        <ele>18.2</ele>
        <time>2020-06-24T09:41:49Z</time>
      </trkpt>
      <trkpt lat="50.40719" lon="3.45763">
        <ele>18.2</ele>
        <time>2020-06-24T09:41:50Z</time>
      </trkpt>
      <trkpt lat="50.40714" lon="3.45766">
        <ele>18.2</ele>
        <time>2020-06-24T09:41:51Z</time>
      </trkpt>
      <trkpt lat="50.40708" lon="3.4577">
        <ele>18.2</ele>
        <time>2020-06-24T09:41:52Z</time>
      </trkpt>
      <trkpt lat="50.40702" lon="3.45774">
        <ele>18.2</ele>
        <time>2020-06-24T09:41:53Z</time>
      </trkpt>
      <trkpt lat="50.40697" lon="3.45778">
        <ele>18.2</ele>
        <time>2020-06-24T09:41:54Z</time>
      </trkpt>
      <trkpt lat="50.40692" lon="3.45782">
        <ele>18.3</ele>
        <time>2020-06-24T09:41:55Z</time>
      </trkpt>
      <trkpt lat="50.40688" lon="3.45785">
        <ele>18.3</ele>
        <time>2020-06-24T09:41:56Z</time>
      </trkpt>
      <trkpt lat="50.40683" lon="3.45788">
        <ele>18.3</ele>
        <time>2020-06-24T09:41:57Z</time>
      </trkpt>
      <trkpt lat="50.40677" lon="3.45793">
        <ele>18.4</ele>
        <time>2020-06-24T09:41:58Z</time>
      </trkpt>
      <trkpt lat="50.40673" lon="3.45796">
        <ele>18.4</ele>
        <time>2020-06-24T09:41:59Z</time>
      </trkpt>
      <trkpt lat="50.40668" lon="3.458">
        <ele>18.4</ele>
        <time>2020-06-24T09:42:00Z</time>
      </trkpt>
      <trkpt lat="50.40662" lon="3.45804">
        <ele>18.5</ele>
        <time>2020-06-24T09:42:01Z</time>
      </trkpt>
      <trkpt lat="50.40656" lon="3.45808">
        <ele>18.6</ele>
        <time>2020-06-24T09:42:02Z</time>
      </trkpt>
      <trkpt lat="50.40652" lon="3.45811">
        <ele>18.7</ele>
        <time>2020-06-24T09:42:03Z</time>
      </trkpt>
      <trkpt lat="50.40647" lon="3.45814">
        <ele>18.7</ele>
        <time>2020-06-24T09:42:04Z</time>
      </trkpt>
      <trkpt lat="50.40642" lon="3.45817">
        <ele>18.8</ele>
        <time>2020-06-24T09:42:05Z</time>
      </trkpt>
      <trkpt lat="50.40638" lon="3.45821">
        <ele>18.9</ele>
        <time>2020-06-24T09:42:06Z</time>
      </trkpt>
      <trkpt lat="50.40633" lon="3.45825">
        <ele>19</ele>
        <time>2020-06-24T09:42:07Z</time>
      </trkpt>
      <trkpt lat="50.40628" lon="3.45828">
        <ele>19.1</ele>
        <time>2020-06-24T09:42:08Z</time>
      </trkpt>
      <trkpt lat="50.40623" lon="3.45831">
        <ele>19.2</ele>
        <time>2020-06-24T09:42:09Z</time>
      </trkpt>
      <trkpt lat="50.40618" lon="3.45834">
        <ele>19.3</ele>
        <time>2020-06-24T09:42:10Z</time>
      </trkpt>
      <trkpt lat="50.40613" lon="3.45837">
        <ele>19.2</ele>
        <time>2020-06-24T09:42:11Z</time>
      </trkpt>
      <trkpt lat="50.40607" lon="3.45841">
        <ele>19.1</ele>
        <time>2020-06-24T09:42:12Z</time>
      </trkpt>
      <trkpt lat="50.40602" lon="3.45844">
        <ele>19.1</ele>
        <time>2020-06-24T09:42:13Z</time>
      </trkpt>
      <trkpt lat="50.40596" lon="3.45847">
        <ele>19</ele>
        <time>2020-06-24T09:42:14Z</time>
      </trkpt>
      <trkpt lat="50.40591" lon="3.4585">
        <ele>18.9</ele>
        <time>2020-06-24T09:42:15Z</time>
      </trkpt>
      <trkpt lat="50.40586" lon="3.45854">
        <ele>18.8</ele>
        <time>2020-06-24T09:42:16Z</time>
      </trkpt>
      <trkpt lat="50.40581" lon="3.45857">
        <ele>18.7</ele>
        <time>2020-06-24T09:42:17Z</time>
      </trkpt>
      <trkpt lat="50.40576" lon="3.45859">
        <ele>18.7</ele>
        <time>2020-06-24T09:42:18Z</time>
      </trkpt>
      <trkpt lat="50.40571" lon="3.45862">
        <ele>18.7</ele>
        <time>2020-06-24T09:42:19Z</time>
      </trkpt>
      <trkpt lat="50.40566" lon="3.45866">
        <ele>18.8</ele>
        <time>2020-06-24T09:42:20Z</time>
      </trkpt>
      <trkpt lat="50.40561" lon="3.4587">
        <ele>18.8</ele>
        <time>2020-06-24T09:42:21Z</time>
      </trkpt>
      <trkpt lat="50.40556" lon="3.45873">
        <ele>18.9</ele>
        <time>2020-06-24T09:42:22Z</time>
      </trkpt>
      <trkpt lat="50.4055" lon="3.45876">
        <ele>18.9</ele>
        <time>2020-06-24T09:42:23Z</time>
      </trkpt>
      <trkpt lat="50.40545" lon="3.45879">
        <ele>19</ele>
        <time>2020-06-24T09:42:24Z</time>
      </trkpt>
      <trkpt lat="50.40541" lon="3.45882">
        <ele>19</ele>
        <time>2020-06-24T09:42:25Z</time>
      </trkpt>
      <trkpt lat="50.40535" lon="3.45887">
        <ele>19.1</ele>
        <time>2020-06-24T09:42:26Z</time>
      </trkpt>
      <trkpt lat="50.40531" lon="3.4589">
        <ele>19.1</ele>
        <time>2020-06-24T09:42:27Z</time>
      </trkpt>
      <trkpt lat="50.40526" lon="3.45893">
        <ele>19.2</ele>
        <time>2020-06-24T09:42:28Z</time>
      </trkpt>
      <trkpt lat="50.40521" lon="3.45898">
        <ele>19.3</ele>
        <time>2020-06-24T09:42:29Z</time>
      </trkpt>
      <trkpt lat="50.40517" lon="3.459">
        <ele>19.3</ele>
        <time>2020-06-24T09:42:30Z</time>
      </trkpt>
      <trkpt lat="50.40512" lon="3.45903">
        <ele>19.4</ele>
        <time>2020-06-24T09:42:31Z</time>
      </trkpt>
      <trkpt lat="50.40508" lon="3.45907">
        <ele>19.4</ele>
        <time>2020-06-24T09:42:32Z</time>
      </trkpt>
      <trkpt lat="50.40504" lon="3.45911">
        <ele>19.4</ele>
        <time>2020-06-24T09:42:33Z</time>
      </trkpt>
      <trkpt lat="50.40499" lon="3.45914">
        <ele>19.5</ele>
        <time>2020-06-24T09:42:34Z</time>
      </trkpt>
      <trkpt lat="50.40495" lon="3.45918">
        <ele>19.5</ele>
        <time>2020-06-24T09:42:35Z</time>
      </trkpt>
      <trkpt lat="50.4049" lon="3.45922">
        <ele>19.5</ele>
        <time>2020-06-24T09:42:36Z</time>
      </trkpt>
      <trkpt lat="50.40485" lon="3.45926">
        <ele>19.5</ele>
        <time>2020-06-24T09:42:37Z</time>
      </trkpt>
      <trkpt lat="50.40479" lon="3.45928">
        <ele>19.6</ele>
        <time>2020-06-24T09:42:38Z</time>
      </trkpt>
      <trkpt lat="50.40474" lon="3.45931">
        <ele>19.6</ele>
        <time>2020-06-24T09:42:39Z</time>
      </trkpt>
      <trkpt lat="50.40469" lon="3.45935">
        <ele>19.6</ele>
        <time>2020-06-24T09:42:40Z</time>
      </trkpt>
      <trkpt lat="50.40466" lon="3.45939">
        <ele>19.7</ele>
        <time>2020-06-24T09:42:41Z</time>
      </trkpt>
      <trkpt lat="50.40461" lon="3.45943">
        <ele>19.7</ele>
        <time>2020-06-24T09:42:42Z</time>
      </trkpt>
      <trkpt lat="50.40456" lon="3.45946">
        <ele>19.7</ele>
        <time>2020-06-24T09:42:43Z</time>
      </trkpt>
      <trkpt lat="50.40451" lon="3.45949">
        <ele>19.8</ele>
        <time>2020-06-24T09:42:44Z</time>
      </trkpt>
      <trkpt lat="50.40445" lon="3.45951">
        <ele>19.8</ele>
        <time>2020-06-24T09:42:45Z</time>
      </trkpt>
      <trkpt lat="50.4044" lon="3.45952">
        <ele>19.9</ele>
        <time>2020-06-24T09:42:46Z</time>
      </trkpt>
      <trkpt lat="50.40436" lon="3.45955">
        <ele>19.9</ele>
        <time>2020-06-24T09:42:47Z</time>
      </trkpt>
      <trkpt lat="50.40431" lon="3.45957">
        <ele>19.9</ele>
        <time>2020-06-24T09:42:48Z</time>
      </trkpt>
      <trkpt lat="50.40427" lon="3.45962">
        <ele>20</ele>
        <time>2020-06-24T09:42:49Z</time>
      </trkpt>
      <trkpt lat="50.40422" lon="3.45965">
        <ele>20</ele>
        <time>2020-06-24T09:42:50Z</time>
      </trkpt>
      <trkpt lat="50.40416" lon="3.45969">
        <ele>20.1</ele>
        <time>2020-06-24T09:42:51Z</time>
      </trkpt>
      <trkpt lat="50.40411" lon="3.45973">
        <ele>20.2</ele>
        <time>2020-06-24T09:42:52Z</time>
      </trkpt>
      <trkpt lat="50.40406" lon="3.45977">
        <ele>20.3</ele>
        <time>2020-06-24T09:42:53Z</time>
      </trkpt>
      <trkpt lat="50.40402" lon="3.45981">
        <ele>20.3</ele>
        <time>2020-06-24T09:42:54Z</time>
      </trkpt>
      <trkpt lat="50.40397" lon="3.45984">
        <ele>20.4</ele>
        <time>2020-06-24T09:42:55Z</time>
      </trkpt>
      <trkpt lat="50.40392" lon="3.45987">
        <ele>20.5</ele>
        <time>2020-06-24T09:42:56Z</time>
      </trkpt>
      <trkpt lat="50.40388" lon="3.45991">
        <ele>20.5</ele>
        <time>2020-06-24T09:42:57Z</time>
      </trkpt>
      <trkpt lat="50.40384" lon="3.45994">
        <ele>20.6</ele>
        <time>2020-06-24T09:42:58Z</time>
      </trkpt>
      <trkpt lat="50.40381" lon="3.45998">
        <ele>20.6</ele>
        <time>2020-06-24T09:42:59Z</time>
      </trkpt>
      <trkpt lat="50.40377" lon="3.46002">
        <ele>20.7</ele>
        <time>2020-06-24T09:43:00Z</time>
      </trkpt>
      <trkpt lat="50.40372" lon="3.46006">
        <ele>20.8</ele>
        <time>2020-06-24T09:43:01Z</time>
      </trkpt>
      <trkpt lat="50.40366" lon="3.46009">
        <ele>20.9</ele>
        <time>2020-06-24T09:43:02Z</time>
      </trkpt>
      <trkpt lat="50.40361" lon="3.46011">
        <ele>21</ele>
        <time>2020-06-24T09:43:03Z</time>
      </trkpt>
      <trkpt lat="50.40357" lon="3.46013">
        <ele>21.1</ele>
        <time>2020-06-24T09:43:04Z</time>
      </trkpt>
      <trkpt lat="50.40352" lon="3.46016">
        <ele>21.1</ele>
        <time>2020-06-24T09:43:05Z</time>
      </trkpt>
      <trkpt lat="50.40347" lon="3.46019">
        <ele>21.2</ele>
        <time>2020-06-24T09:43:06Z</time>
      </trkpt>
      <trkpt lat="50.40342" lon="3.46023">
        <ele>21.3</ele>
        <time>2020-06-24T09:43:07Z</time>
      </trkpt>
      <trkpt lat="50.40338" lon="3.46027">
        <ele>21.3</ele>
        <time>2020-06-24T09:43:08Z</time>
      </trkpt>
      <trkpt lat="50.40333" lon="3.46029">
        <ele>21.4</ele>
        <time>2020-06-24T09:43:09Z</time>
      </trkpt>
      <trkpt lat="50.40328" lon="3.46032">
        <ele>21.5</ele>
        <time>2020-06-24T09:43:10Z</time>
      </trkpt>
      <trkpt lat="50.40323" lon="3.46034">
        <ele>21.5</ele>
        <time>2020-06-24T09:43:11Z</time>
      </trkpt>
      <trkpt lat="50.40318" lon="3.46037">
        <ele>21.6</ele>
        <time>2020-06-24T09:43:12Z</time>
      </trkpt>
      <trkpt lat="50.40314" lon="3.46041">
        <ele>21.7</ele>
        <time>2020-06-24T09:43:13Z</time>
      </trkpt>
      <trkpt lat="50.4031" lon="3.46043">
        <ele>21.7</ele>
        <time>2020-06-24T09:43:14Z</time>
      </trkpt>
      <trkpt lat="50.40306" lon="3.46046">
        <ele>21.8</ele>
        <time>2020-06-24T09:43:15Z</time>
      </trkpt>
      <trkpt lat="50.40302" lon="3.46051">
        <ele>21.9</ele>
        <time>2020-06-24T09:43:16Z</time>
      </trkpt>
      <trkpt lat="50.40297" lon="3.46057">
        <ele>22</ele>
        <time>2020-06-24T09:43:17Z</time>
      </trkpt>
      <trkpt lat="50.40293" lon="3.46061">
        <ele>22</ele>
        <time>2020-06-24T09:43:18Z</time>
      </trkpt>
      <trkpt lat="50.40289" lon="3.46065">
        <ele>22.1</ele>
        <time>2020-06-24T09:43:19Z</time>
      </trkpt>
      <trkpt lat="50.40284" lon="3.46067">
        <ele>22.1</ele>
        <time>2020-06-24T09:43:20Z</time>
      </trkpt>
      <trkpt lat="50.40279" lon="3.4607">
        <ele>22.1</ele>
        <time>2020-06-24T09:43:21Z</time>
      </trkpt>
      <trkpt lat="50.40273" lon="3.46072">
        <ele>22.2</ele>
        <time>2020-06-24T09:43:22Z</time>
      </trkpt>
      <trkpt lat="50.40268" lon="3.46075">
        <ele>22.2</ele>
        <time>2020-06-24T09:43:23Z</time>
      </trkpt>
      <trkpt lat="50.40262" lon="3.46078">
        <ele>22.2</ele>
        <time>2020-06-24T09:43:24Z</time>
      </trkpt>
      <trkpt lat="50.40258" lon="3.46081">
        <ele>22.3</ele>
        <time>2020-06-24T09:43:25Z</time>
      </trkpt>
      <trkpt lat="50.40253" lon="3.46084">
        <ele>22.3</ele>
        <time>2020-06-24T09:43:26Z</time>
      </trkpt>
      <trkpt lat="50.40248" lon="3.46086">
        <ele>22.4</ele>
        <time>2020-06-24T09:43:27Z</time>
      </trkpt>
      <trkpt lat="50.40244" lon="3.4609">
        <ele>22.4</ele>
        <time>2020-06-24T09:43:28Z</time>
      </trkpt>
      <trkpt lat="50.40239" lon="3.46095">
        <ele>22.5</ele>
        <time>2020-06-24T09:43:29Z</time>
      </trkpt>
      <trkpt lat="50.40235" lon="3.46098">
        <ele>22.6</ele>
        <time>2020-06-24T09:43:30Z</time>
      </trkpt>
      <trkpt lat="50.4023" lon="3.461">
        <ele>22.7</ele>
        <time>2020-06-24T09:43:31Z</time>
      </trkpt>
      <trkpt lat="50.40226" lon="3.46103">
        <ele>22.7</ele>
        <time>2020-06-24T09:43:32Z</time>
      </trkpt>
      <trkpt lat="50.40223" lon="3.46105">
        <ele>22.8</ele>
        <time>2020-06-24T09:43:33Z</time>
      </trkpt>
      <trkpt lat="50.40218" lon="3.46108">
        <ele>22.9</ele>
        <time>2020-06-24T09:43:34Z</time>
      </trkpt>
      <trkpt lat="50.40213" lon="3.4611">
        <ele>23</ele>
        <time>2020-06-24T09:43:35Z</time>
      </trkpt>
      <trkpt lat="50.40209" lon="3.46114">
        <ele>23.1</ele>
        <time>2020-06-24T09:43:36Z</time>
      </trkpt>
      <trkpt lat="50.40205" lon="3.46115">
        <ele>23.3</ele>
        <time>2020-06-24T09:43:37Z</time>
      </trkpt>
      <trkpt lat="50.40201" lon="3.46118">
        <ele>23.2</ele>
        <time>2020-06-24T09:43:38Z</time>
      </trkpt>
      <trkpt lat="50.40197" lon="3.46121">
        <ele>23.1</ele>
        <time>2020-06-24T09:43:39Z</time>
      </trkpt>
      <trkpt lat="50.40192" lon="3.46124">
        <ele>23.1</ele>
        <time>2020-06-24T09:43:40Z</time>
      </trkpt>
      <trkpt lat="50.40187" lon="3.46127">
        <ele>23</ele>
        <time>2020-06-24T09:43:41Z</time>
      </trkpt>
      <trkpt lat="50.40182" lon="3.46132">
        <ele>22.9</ele>
        <time>2020-06-24T09:43:42Z</time>
      </trkpt>
      <trkpt lat="50.40177" lon="3.46138">
        <ele>22.8</ele>
        <time>2020-06-24T09:43:43Z</time>
      </trkpt>
      <trkpt lat="50.40172" lon="3.46143">
        <ele>22.8</ele>
        <time>2020-06-24T09:43:44Z</time>
      </trkpt>
      <trkpt lat="50.40167" lon="3.46149">
        <ele>22.7</ele>
        <time>2020-06-24T09:43:45Z</time>
      </trkpt>
      <trkpt lat="50.40162" lon="3.46153">
        <ele>22.7</ele>
        <time>2020-06-24T09:43:46Z</time>
      </trkpt>
      <trkpt lat="50.40156" lon="3.46158">
        <ele>22.7</ele>
        <time>2020-06-24T09:43:47Z</time>
      </trkpt>
      <trkpt lat="50.4015" lon="3.46161">
        <ele>22.6</ele>
        <time>2020-06-24T09:43:48Z</time>
      </trkpt>
      <trkpt lat="50.40145" lon="3.46163">
        <ele>22.6</ele>
        <time>2020-06-24T09:43:49Z</time>
      </trkpt>
      <trkpt lat="50.4014" lon="3.46167">
        <ele>22.5</ele>
        <time>2020-06-24T09:43:50Z</time>
      </trkpt>
      <trkpt lat="50.40135" lon="3.4617">
        <ele>22.5</ele>
        <time>2020-06-24T09:43:51Z</time>
      </trkpt>
      <trkpt lat="50.40129" lon="3.46174">
        <ele>22.4</ele>
        <time>2020-06-24T09:43:52Z</time>
      </trkpt>
      <trkpt lat="50.40124" lon="3.46178">
        <ele>22.4</ele>
        <time>2020-06-24T09:43:53Z</time>
      </trkpt>
      <trkpt lat="50.40119" lon="3.46182">
        <ele>22.4</ele>
        <time>2020-06-24T09:43:54Z</time>
      </trkpt>
      <trkpt lat="50.40115" lon="3.46183">
        <ele>22.4</ele>
        <time>2020-06-24T09:43:55Z</time>
      </trkpt>
      <trkpt lat="50.40109" lon="3.46187">
        <ele>22.4</ele>
        <time>2020-06-24T09:43:56Z</time>
      </trkpt>
      <trkpt lat="50.40103" lon="3.46189">
        <ele>22.4</ele>
        <time>2020-06-24T09:43:57Z</time>
      </trkpt>
      <trkpt lat="50.40098" lon="3.46193">
        <ele>22.4</ele>
        <time>2020-06-24T09:43:58Z</time>
      </trkpt>
      <trkpt lat="50.40093" lon="3.46197">
        <ele>22.4</ele>
        <time>2020-06-24T09:43:59Z</time>
      </trkpt>
      <trkpt lat="50.40087" lon="3.46202">
        <ele>22.4</ele>
        <time>2020-06-24T09:44:00Z</time>
      </trkpt>
      <trkpt lat="50.40081" lon="3.46205">
        <ele>22.4</ele>
        <time>2020-06-24T09:44:01Z</time>
      </trkpt>
      <trkpt lat="50.40076" lon="3.4621">
        <ele>22.4</ele>
        <time>2020-06-24T09:44:02Z</time>
      </trkpt>
      <trkpt lat="50.4007" lon="3.46214">
        <ele>22.3</ele>
        <time>2020-06-24T09:44:03Z</time>
      </trkpt>
      <trkpt lat="50.40064" lon="3.46219">
        <ele>22.3</ele>
        <time>2020-06-24T09:44:04Z</time>
      </trkpt>
      <trkpt lat="50.40058" lon="3.46222">
        <ele>22.2</ele>
        <time>2020-06-24T09:44:05Z</time>
      </trkpt>
      <trkpt lat="50.40052" lon="3.46227">
        <ele>22.1</ele>
        <time>2020-06-24T09:44:06Z</time>
      </trkpt>
      <trkpt lat="50.40046" lon="3.4623">
        <ele>22.1</ele>
        <time>2020-06-24T09:44:07Z</time>
      </trkpt>
      <trkpt lat="50.40041" lon="3.46233">
        <ele>22</ele>
        <time>2020-06-24T09:44:08Z</time>
      </trkpt>
      <trkpt lat="50.40035" lon="3.46236">
        <ele>22</ele>
        <time>2020-06-24T09:44:09Z</time>
      </trkpt>
      <trkpt lat="50.40029" lon="3.46241">
        <ele>21.9</ele>
        <time>2020-06-24T09:44:10Z</time>
      </trkpt>
      <trkpt lat="50.40023" lon="3.46245">
        <ele>21.8</ele>
        <time>2020-06-24T09:44:11Z</time>
      </trkpt>
      <trkpt lat="50.40018" lon="3.46249">
        <ele>21.7</ele>
        <time>2020-06-24T09:44:12Z</time>
      </trkpt>
      <trkpt lat="50.40012" lon="3.46253">
        <ele>21.7</ele>
        <time>2020-06-24T09:44:13Z</time>
      </trkpt>
      <trkpt lat="50.40006" lon="3.46257">
        <ele>21.6</ele>
        <time>2020-06-24T09:44:14Z</time>
      </trkpt>
      <trkpt lat="50.40001" lon="3.46262">
        <ele>21.5</ele>
        <time>2020-06-24T09:44:15Z</time>
      </trkpt>
      <trkpt lat="50.39995" lon="3.46266">
        <ele>21.4</ele>
        <time>2020-06-24T09:44:16Z</time>
      </trkpt>
      <trkpt lat="50.39988" lon="3.4627">
        <ele>21.4</ele>
        <time>2020-06-24T09:44:17Z</time>
      </trkpt>
      <trkpt lat="50.39982" lon="3.46275">
        <ele>21.3</ele>
        <time>2020-06-24T09:44:18Z</time>
      </trkpt>
      <trkpt lat="50.39976" lon="3.4628">
        <ele>21.2</ele>
        <time>2020-06-24T09:44:19Z</time>
      </trkpt>
      <trkpt lat="50.3997" lon="3.46286">
        <ele>21.1</ele>
        <time>2020-06-24T09:44:20Z</time>
      </trkpt>
      <trkpt lat="50.39966" lon="3.4629">
        <ele>21.1</ele>
        <time>2020-06-24T09:44:21Z</time>
      </trkpt>
      <trkpt lat="50.39962" lon="3.46296">
        <ele>21</ele>
        <time>2020-06-24T09:44:22Z</time>
      </trkpt>
      <trkpt lat="50.39957" lon="3.46302">
        <ele>20.9</ele>
        <time>2020-06-24T09:44:23Z</time>
      </trkpt>
      <trkpt lat="50.39951" lon="3.46309">
        <ele>20.8</ele>
        <time>2020-06-24T09:44:24Z</time>
      </trkpt>
      <trkpt lat="50.39947" lon="3.46316">
        <ele>20.8</ele>
        <time>2020-06-24T09:44:25Z</time>
      </trkpt>
      <trkpt lat="50.39941" lon="3.46325">
        <ele>20.7</ele>
        <time>2020-06-24T09:44:26Z</time>
      </trkpt>
      <trkpt lat="50.39935" lon="3.46332">
        <ele>20.7</ele>
        <time>2020-06-24T09:44:27Z</time>
      </trkpt>
      <trkpt lat="50.3993" lon="3.46339">
        <ele>20.6</ele>
        <time>2020-06-24T09:44:28Z</time>
      </trkpt>
      <trkpt lat="50.39925" lon="3.46346">
        <ele>20.5</ele>
        <time>2020-06-24T09:44:29Z</time>
      </trkpt>
      <trkpt lat="50.39919" lon="3.46353">
        <ele>20.4</ele>
        <time>2020-06-24T09:44:30Z</time>
      </trkpt>
      <trkpt lat="50.39913" lon="3.46357">
        <ele>20.4</ele>
        <time>2020-06-24T09:44:31Z</time>
      </trkpt>
      <trkpt lat="50.39909" lon="3.46363">
        <ele>20.3</ele>
        <time>2020-06-24T09:44:32Z</time>
      </trkpt>
      <trkpt lat="50.39905" lon="3.46369">
        <ele>20.3</ele>
        <time>2020-06-24T09:44:33Z</time>
      </trkpt>
      <trkpt lat="50.399" lon="3.46375">
        <ele>20.2</ele>
        <time>2020-06-24T09:44:34Z</time>
      </trkpt>
      <trkpt lat="50.39895" lon="3.46382">
        <ele>20.2</ele>
        <time>2020-06-24T09:44:35Z</time>
      </trkpt>
      <trkpt lat="50.39891" lon="3.46388">
        <ele>20.2</ele>
        <time>2020-06-24T09:44:36Z</time>
      </trkpt>
      <trkpt lat="50.39886" lon="3.46396">
        <ele>20.2</ele>
        <time>2020-06-24T09:44:37Z</time>
      </trkpt>
      <trkpt lat="50.39881" lon="3.46404">
        <ele>20.2</ele>
        <time>2020-06-24T09:44:38Z</time>
      </trkpt>
      <trkpt lat="50.39875" lon="3.46411">
        <ele>20.2</ele>
        <time>2020-06-24T09:44:39Z</time>
      </trkpt>
      <trkpt lat="50.3987" lon="3.46418">
        <ele>20.2</ele>
        <time>2020-06-24T09:44:40Z</time>
      </trkpt>
      <trkpt lat="50.39865" lon="3.46424">
        <ele>20.2</ele>
        <time>2020-06-24T09:44:41Z</time>
      </trkpt>
      <trkpt lat="50.3986" lon="3.46429">
        <ele>20.2</ele>
        <time>2020-06-24T09:44:42Z</time>
      </trkpt>
      <trkpt lat="50.39855" lon="3.46435">
        <ele>20.3</ele>
        <time>2020-06-24T09:44:43Z</time>
      </trkpt>
      <trkpt lat="50.3985" lon="3.46441">
        <ele>20.3</ele>
        <time>2020-06-24T09:44:44Z</time>
      </trkpt>
      <trkpt lat="50.39844" lon="3.46448">
        <ele>20.3</ele>
        <time>2020-06-24T09:44:45Z</time>
      </trkpt>
      <trkpt lat="50.39839" lon="3.46455">
        <ele>20.3</ele>
        <time>2020-06-24T09:44:46Z</time>
      </trkpt>
      <trkpt lat="50.39833" lon="3.46461">
        <ele>20.3</ele>
        <time>2020-06-24T09:44:47Z</time>
      </trkpt>
      <trkpt lat="50.39829" lon="3.46466">
        <ele>20.3</ele>
        <time>2020-06-24T09:44:48Z</time>
      </trkpt>
      <trkpt lat="50.39825" lon="3.46472">
        <ele>20.4</ele>
        <time>2020-06-24T09:44:49Z</time>
      </trkpt>
      <trkpt lat="50.39819" lon="3.46478">
        <ele>20.4</ele>
        <time>2020-06-24T09:44:50Z</time>
      </trkpt>
      <trkpt lat="50.39815" lon="3.46483">
        <ele>20.4</ele>
        <time>2020-06-24T09:44:51Z</time>
      </trkpt>
      <trkpt lat="50.39809" lon="3.46489">
        <ele>20.5</ele>
        <time>2020-06-24T09:44:52Z</time>
      </trkpt>
      <trkpt lat="50.39802" lon="3.46495">
        <ele>20.5</ele>
        <time>2020-06-24T09:44:53Z</time>
      </trkpt>
      <trkpt lat="50.39797" lon="3.46502">
        <ele>20.6</ele>
        <time>2020-06-24T09:44:54Z</time>
      </trkpt>
      <trkpt lat="50.39791" lon="3.4651">
        <ele>20.6</ele>
        <time>2020-06-24T09:44:55Z</time>
      </trkpt>
      <trkpt lat="50.39786" lon="3.46517">
        <ele>20.7</ele>
        <time>2020-06-24T09:44:56Z</time>
      </trkpt>
      <trkpt lat="50.39781" lon="3.46524">
        <ele>20.7</ele>
        <time>2020-06-24T09:44:57Z</time>
      </trkpt>
      <trkpt lat="50.39776" lon="3.4653">
        <ele>20.8</ele>
        <time>2020-06-24T09:44:58Z</time>
      </trkpt>
      <trkpt lat="50.39772" lon="3.46534">
        <ele>20.8</ele>
        <time>2020-06-24T09:44:59Z</time>
      </trkpt>
      <trkpt lat="50.39765" lon="3.4654">
        <ele>21</ele>
        <time>2020-06-24T09:45:00Z</time>
      </trkpt>
      <trkpt lat="50.3976" lon="3.46545">
        <ele>21.1</ele>
        <time>2020-06-24T09:45:01Z</time>
      </trkpt>
      <trkpt lat="50.39756" lon="3.4655">
        <ele>21.1</ele>
        <time>2020-06-24T09:45:02Z</time>
      </trkpt>
      <trkpt lat="50.39752" lon="3.46556">
        <ele>21.2</ele>
        <time>2020-06-24T09:45:03Z</time>
      </trkpt>
      <trkpt lat="50.39748" lon="3.46561">
        <ele>21.2</ele>
        <time>2020-06-24T09:45:04Z</time>
      </trkpt>
      <trkpt lat="50.39744" lon="3.46566">
        <ele>21.3</ele>
        <time>2020-06-24T09:45:05Z</time>
      </trkpt>
      <trkpt lat="50.3974" lon="3.46571">
        <ele>21.3</ele>
        <time>2020-06-24T09:45:06Z</time>
      </trkpt>
      <trkpt lat="50.39734" lon="3.46576">
        <ele>21.3</ele>
        <time>2020-06-24T09:45:07Z</time>
      </trkpt>
      <trkpt lat="50.39728" lon="3.46582">
        <ele>21.4</ele>
        <time>2020-06-24T09:45:08Z</time>
      </trkpt>
      <trkpt lat="50.39722" lon="3.46588">
        <ele>21.4</ele>
        <time>2020-06-24T09:45:09Z</time>
      </trkpt>
      <trkpt lat="50.39716" lon="3.46595">
        <ele>21.5</ele>
        <time>2020-06-24T09:45:10Z</time>
      </trkpt>
      <trkpt lat="50.39712" lon="3.466">
        <ele>21.5</ele>
        <time>2020-06-24T09:45:11Z</time>
      </trkpt>
      <trkpt lat="50.39709" lon="3.46604">
        <ele>21.5</ele>
        <time>2020-06-24T09:45:12Z</time>
      </trkpt>
      <trkpt lat="50.39704" lon="3.46611">
        <ele>21.5</ele>
        <time>2020-06-24T09:45:13Z</time>
      </trkpt>
      <trkpt lat="50.39699" lon="3.46617">
        <ele>21.5</ele>
        <time>2020-06-24T09:45:14Z</time>
      </trkpt>
      <trkpt lat="50.39693" lon="3.46623">
        <ele>21.5</ele>
        <time>2020-06-24T09:45:15Z</time>
      </trkpt>
      <trkpt lat="50.39689" lon="3.46628">
        <ele>21.6</ele>
        <time>2020-06-24T09:45:16Z</time>
      </trkpt>
      <trkpt lat="50.39686" lon="3.46635">
        <ele>21.6</ele>
        <time>2020-06-24T09:45:17Z</time>
      </trkpt>
      <trkpt lat="50.39682" lon="3.46641">
        <ele>21.7</ele>
        <time>2020-06-24T09:45:18Z</time>
      </trkpt>
      <trkpt lat="50.39677" lon="3.46648">
        <ele>21.8</ele>
        <time>2020-06-24T09:45:19Z</time>
      </trkpt>
      <trkpt lat="50.39672" lon="3.46654">
        <ele>21.8</ele>
        <time>2020-06-24T09:45:20Z</time>
      </trkpt>
      <trkpt lat="50.39667" lon="3.4666">
        <ele>21.8</ele>
        <time>2020-06-24T09:45:21Z</time>
      </trkpt>
      <trkpt lat="50.39662" lon="3.46666">
        <ele>21.8</ele>
        <time>2020-06-24T09:45:22Z</time>
      </trkpt>
      <trkpt lat="50.39657" lon="3.46673">
        <ele>21.8</ele>
        <time>2020-06-24T09:45:23Z</time>
      </trkpt>
      <trkpt lat="50.39653" lon="3.46676">
        <ele>21.9</ele>
        <time>2020-06-24T09:45:24Z</time>
      </trkpt>
      <trkpt lat="50.39649" lon="3.46681">
        <ele>21.9</ele>
        <time>2020-06-24T09:45:25Z</time>
      </trkpt>
      <trkpt lat="50.39646" lon="3.46684">
        <ele>22</ele>
        <time>2020-06-24T09:45:26Z</time>
      </trkpt>
      <trkpt lat="50.39642" lon="3.46689">
        <ele>22</ele>
        <time>2020-06-24T09:45:27Z</time>
      </trkpt>
      <trkpt lat="50.39639" lon="3.46694">
        <ele>22</ele>
        <time>2020-06-24T09:45:28Z</time>
      </trkpt>
      <trkpt lat="50.39635" lon="3.46699">
        <ele>22.1</ele>
        <time>2020-06-24T09:45:29Z</time>
      </trkpt>
      <trkpt lat="50.39631" lon="3.46705">
        <ele>22.1</ele>
        <time>2020-06-24T09:45:30Z</time>
      </trkpt>
      <trkpt lat="50.39626" lon="3.46711">
        <ele>22.2</ele>
        <time>2020-06-24T09:45:31Z</time>
      </trkpt>
      <trkpt lat="50.39621" lon="3.46716">
        <ele>22.3</ele>
        <time>2020-06-24T09:45:32Z</time>
      </trkpt>
      <trkpt lat="50.39616" lon="3.46722">
        <ele>22.3</ele>
        <time>2020-06-24T09:45:33Z</time>
      </trkpt>
      <trkpt lat="50.39611" lon="3.46729">
        <ele>22.4</ele>
        <time>2020-06-24T09:45:34Z</time>
      </trkpt>
      <trkpt lat="50.39607" lon="3.46737">
        <ele>22.4</ele>
        <time>2020-06-24T09:45:35Z</time>
      </trkpt>
      <trkpt lat="50.39603" lon="3.46744">
        <ele>22.5</ele>
        <time>2020-06-24T09:45:36Z</time>
      </trkpt>
      <trkpt lat="50.39598" lon="3.46748">
        <ele>22.5</ele>
        <time>2020-06-24T09:45:37Z</time>
      </trkpt>
      <trkpt lat="50.39596" lon="3.4675">
        <ele>22.5</ele>
        <time>2020-06-24T09:45:38Z</time>
      </trkpt>
      <trkpt lat="50.39592" lon="3.46756">
        <ele>22.5</ele>
        <time>2020-06-24T09:45:39Z</time>
      </trkpt>
      <trkpt lat="50.39587" lon="3.46763">
        <ele>22.6</ele>
        <time>2020-06-24T09:45:40Z</time>
      </trkpt>
      <trkpt lat="50.39583" lon="3.46766">
        <ele>22.6</ele>
        <time>2020-06-24T09:45:41Z</time>
      </trkpt>
      <trkpt lat="50.39579" lon="3.46769">
        <ele>22.6</ele>
        <time>2020-06-24T09:45:42Z</time>
      </trkpt>
      <trkpt lat="50.39576" lon="3.46775">
        <ele>22.6</ele>
        <time>2020-06-24T09:45:43Z</time>
      </trkpt>
      <trkpt lat="50.39572" lon="3.46779">
        <ele>22.6</ele>
        <time>2020-06-24T09:45:44Z</time>
      </trkpt>
      <trkpt lat="50.39568" lon="3.46787">
        <ele>22.7</ele>
        <time>2020-06-24T09:45:45Z</time>
      </trkpt>
      <trkpt lat="50.39562" lon="3.46794">
        <ele>22.7</ele>
        <time>2020-06-24T09:45:46Z</time>
      </trkpt>
      <trkpt lat="50.39558" lon="3.46798">
        <ele>22.7</ele>
        <time>2020-06-24T09:45:47Z</time>
      </trkpt>
      <trkpt lat="50.39554" lon="3.46803">
        <ele>22.7</ele>
        <time>2020-06-24T09:45:48Z</time>
      </trkpt>
      <trkpt lat="50.3955" lon="3.46809">
        <ele>22.7</ele>
        <time>2020-06-24T09:45:49Z</time>
      </trkpt>
      <trkpt lat="50.39547" lon="3.46814">
        <ele>22.8</ele>
        <time>2020-06-24T09:45:50Z</time>
      </trkpt>
      <trkpt lat="50.39543" lon="3.46818">
        <ele>22.8</ele>
        <time>2020-06-24T09:45:51Z</time>
      </trkpt>
      <trkpt lat="50.39539" lon="3.46822">
        <ele>22.8</ele>
        <time>2020-06-24T09:45:52Z</time>
      </trkpt>
      <trkpt lat="50.39535" lon="3.46826">
        <ele>22.9</ele>
        <time>2020-06-24T09:45:53Z</time>
      </trkpt>
      <trkpt lat="50.39532" lon="3.4683">
        <ele>22.9</ele>
        <time>2020-06-24T09:45:54Z</time>
      </trkpt>
      <trkpt lat="50.39527" lon="3.46832">
        <ele>22.9</ele>
        <time>2020-06-24T09:45:55Z</time>
      </trkpt>
      <trkpt lat="50.39522" lon="3.46835">
        <ele>23</ele>
        <time>2020-06-24T09:45:56Z</time>
      </trkpt>
      <trkpt lat="50.39519" lon="3.4684">
        <ele>23</ele>
        <time>2020-06-24T09:45:57Z</time>
      </trkpt>
      <trkpt lat="50.39515" lon="3.46844">
        <ele>23</ele>
        <time>2020-06-24T09:45:58Z</time>
      </trkpt>
      <trkpt lat="50.39512" lon="3.4685">
        <ele>23.1</ele>
        <time>2020-06-24T09:45:59Z</time>
      </trkpt>
      <trkpt lat="50.39508" lon="3.46855">
        <ele>23.1</ele>
        <time>2020-06-24T09:46:00Z</time>
      </trkpt>
      <trkpt lat="50.39504" lon="3.4686">
        <ele>23.2</ele>
        <time>2020-06-24T09:46:01Z</time>
      </trkpt>
      <trkpt lat="50.395" lon="3.46865">
        <ele>23.2</ele>
        <time>2020-06-24T09:46:02Z</time>
      </trkpt>
      <trkpt lat="50.39495" lon="3.46868">
        <ele>23.3</ele>
        <time>2020-06-24T09:46:03Z</time>
      </trkpt>
      <trkpt lat="50.39492" lon="3.46872">
        <ele>23.3</ele>
        <time>2020-06-24T09:46:04Z</time>
      </trkpt>
      <trkpt lat="50.39487" lon="3.46879">
        <ele>23.3</ele>
        <time>2020-06-24T09:46:05Z</time>
      </trkpt>
      <trkpt lat="50.39483" lon="3.46886">
        <ele>23.2</ele>
        <time>2020-06-24T09:46:06Z</time>
      </trkpt>
      <trkpt lat="50.39478" lon="3.4689">
        <ele>23.2</ele>
        <time>2020-06-24T09:46:07Z</time>
      </trkpt>
      <trkpt lat="50.39473" lon="3.46895">
        <ele>23.1</ele>
        <time>2020-06-24T09:46:08Z</time>
      </trkpt>
      <trkpt lat="50.3947" lon="3.46899">
        <ele>23.1</ele>
        <time>2020-06-24T09:46:09Z</time>
      </trkpt>
      <trkpt lat="50.39467" lon="3.46903">
        <ele>23.1</ele>
        <time>2020-06-24T09:46:10Z</time>
      </trkpt>
      <trkpt lat="50.39465" lon="3.46909">
        <ele>23.1</ele>
        <time>2020-06-24T09:46:11Z</time>
      </trkpt>
      <trkpt lat="50.3946" lon="3.46912">
        <ele>23.1</ele>
        <time>2020-06-24T09:46:12Z</time>
      </trkpt>
      <trkpt lat="50.39456" lon="3.46915">
        <ele>23</ele>
        <time>2020-06-24T09:46:13Z</time>
      </trkpt>
      <trkpt lat="50.39452" lon="3.46918">
        <ele>23</ele>
        <time>2020-06-24T09:46:14Z</time>
      </trkpt>
      <trkpt lat="50.39447" lon="3.46922">
        <ele>23</ele>
        <time>2020-06-24T09:46:15Z</time>
      </trkpt>
      <trkpt lat="50.39443" lon="3.46929">
        <ele>23</ele>
        <time>2020-06-24T09:46:16Z</time>
      </trkpt>
      <trkpt lat="50.39439" lon="3.46934">
        <ele>23</ele>
        <time>2020-06-24T09:46:17Z</time>
      </trkpt>
      <trkpt lat="50.39436" lon="3.46939">
        <ele>23.1</ele>
        <time>2020-06-24T09:46:18Z</time>
      </trkpt>
      <trkpt lat="50.3943" lon="3.46941">
        <ele>23.1</ele>
        <time>2020-06-24T09:46:19Z</time>
      </trkpt>
      <trkpt lat="50.39425" lon="3.46945">
        <ele>23.1</ele>
        <time>2020-06-24T09:46:20Z</time>
      </trkpt>
      <trkpt lat="50.39421" lon="3.4695">
        <ele>23.1</ele>
        <time>2020-06-24T09:46:21Z</time>
      </trkpt>
      <trkpt lat="50.39417" lon="3.46956">
        <ele>23.2</ele>
        <time>2020-06-24T09:46:22Z</time>
      </trkpt>
      <trkpt lat="50.39413" lon="3.46964">
        <ele>23.2</ele>
        <time>2020-06-24T09:46:23Z</time>
      </trkpt>
      <trkpt lat="50.39408" lon="3.4697">
        <ele>23.2</ele>
        <time>2020-06-24T09:46:24Z</time>
      </trkpt>
      <trkpt lat="50.39404" lon="3.46975">
        <ele>23.3</ele>
        <time>2020-06-24T09:46:25Z</time>
      </trkpt>
      <trkpt lat="50.39401" lon="3.46981">
        <ele>23.3</ele>
        <time>2020-06-24T09:46:26Z</time>
      </trkpt>
      <trkpt lat="50.39397" lon="3.46988">
        <ele>23.3</ele>
        <time>2020-06-24T09:46:27Z</time>
      </trkpt>
      <trkpt lat="50.39394" lon="3.46996">
        <ele>23.4</ele>
        <time>2020-06-24T09:46:28Z</time>
      </trkpt>
      <trkpt lat="50.39391" lon="3.47003">
        <ele>23.4</ele>
        <time>2020-06-24T09:46:29Z</time>
      </trkpt>
      <trkpt lat="50.39387" lon="3.4701">
        <ele>23.4</ele>
        <time>2020-06-24T09:46:30Z</time>
      </trkpt>
      <trkpt lat="50.39384" lon="3.47018">
        <ele>23.5</ele>
        <time>2020-06-24T09:46:31Z</time>
      </trkpt>
      <trkpt lat="50.39382" lon="3.47025">
        <ele>23.5</ele>
        <time>2020-06-24T09:46:32Z</time>
      </trkpt>
      <trkpt lat="50.39378" lon="3.47032">
        <ele>23.6</ele>
        <time>2020-06-24T09:46:33Z</time>
      </trkpt>
      <trkpt lat="50.39375" lon="3.47038">
        <ele>23.6</ele>
        <time>2020-06-24T09:46:34Z</time>
      </trkpt>
      <trkpt lat="50.39373" lon="3.47044">
        <ele>23.7</ele>
        <time>2020-06-24T09:46:35Z</time>
      </trkpt>
      <trkpt lat="50.39371" lon="3.47051">
        <ele>23.7</ele>
        <time>2020-06-24T09:46:36Z</time>
      </trkpt>
      <trkpt lat="50.3937" lon="3.47059">
        <ele>23.8</ele>
        <time>2020-06-24T09:46:37Z</time>
      </trkpt>
      <trkpt lat="50.39367" lon="3.47067">
        <ele>23.8</ele>
        <time>2020-06-24T09:46:38Z</time>
      </trkpt>
      <trkpt lat="50.39364" lon="3.47074">
        <ele>23.8</ele>
        <time>2020-06-24T09:46:39Z</time>
      </trkpt>
      <trkpt lat="50.39361" lon="3.47082">
        <ele>23.8</ele>
        <time>2020-06-24T09:46:40Z</time>
      </trkpt>
      <trkpt lat="50.39358" lon="3.47089">
        <ele>23.9</ele>
        <time>2020-06-24T09:46:41Z</time>
      </trkpt>
      <trkpt lat="50.39356" lon="3.47097">
        <ele>23.9</ele>
        <time>2020-06-24T09:46:42Z</time>
      </trkpt>
      <trkpt lat="50.39354" lon="3.47107">
        <ele>23.9</ele>
        <time>2020-06-24T09:46:43Z</time>
      </trkpt>
      <trkpt lat="50.39351" lon="3.47114">
        <ele>23.9</ele>
        <time>2020-06-24T09:46:44Z</time>
      </trkpt>
      <trkpt lat="50.39348" lon="3.47123">
        <ele>24</ele>
        <time>2020-06-24T09:46:45Z</time>
      </trkpt>
      <trkpt lat="50.39345" lon="3.47133">
        <ele>24</ele>
        <time>2020-06-24T09:46:46Z</time>
      </trkpt>
      <trkpt lat="50.39343" lon="3.47141">
        <ele>24</ele>
        <time>2020-06-24T09:46:47Z</time>
      </trkpt>
      <trkpt lat="50.3934" lon="3.47149">
        <ele>24.1</ele>
        <time>2020-06-24T09:46:48Z</time>
      </trkpt>
      <trkpt lat="50.39337" lon="3.47157">
        <ele>24.1</ele>
        <time>2020-06-24T09:46:49Z</time>
      </trkpt>
      <trkpt lat="50.39334" lon="3.47164">
        <ele>24.1</ele>
        <time>2020-06-24T09:46:50Z</time>
      </trkpt>
      <trkpt lat="50.39332" lon="3.4717">
        <ele>24.2</ele>
        <time>2020-06-24T09:46:51Z</time>
      </trkpt>
      <trkpt lat="50.3933" lon="3.47177">
        <ele>24.2</ele>
        <time>2020-06-24T09:46:52Z</time>
      </trkpt>
      <trkpt lat="50.39328" lon="3.47184">
        <ele>24.2</ele>
        <time>2020-06-24T09:46:53Z</time>
      </trkpt>
      <trkpt lat="50.39326" lon="3.4719">
        <ele>24.2</ele>
        <time>2020-06-24T09:46:54Z</time>
      </trkpt>
      <trkpt lat="50.39323" lon="3.47196">
        <ele>24.3</ele>
        <time>2020-06-24T09:46:55Z</time>
      </trkpt>
      <trkpt lat="50.39321" lon="3.47201">
        <ele>24.3</ele>
        <time>2020-06-24T09:46:56Z</time>
      </trkpt>
      <trkpt lat="50.39319" lon="3.47208">
        <ele>24.3</ele>
        <time>2020-06-24T09:46:57Z</time>
      </trkpt>
      <trkpt lat="50.39319" lon="3.47216">
        <ele>24.3</ele>
        <time>2020-06-24T09:46:58Z</time>
      </trkpt>
      <trkpt lat="50.39318" lon="3.47224">
        <ele>24.4</ele>
        <time>2020-06-24T09:46:59Z</time>
      </trkpt>
      <trkpt lat="50.39317" lon="3.47233">
        <ele>24.4</ele>
        <time>2020-06-24T09:47:00Z</time>
      </trkpt>
      <trkpt lat="50.39316" lon="3.4724">
        <ele>24.5</ele>
        <time>2020-06-24T09:47:01Z</time>
      </trkpt>
      <trkpt lat="50.39314" lon="3.47247">
        <ele>24.5</ele>
        <time>2020-06-24T09:47:02Z</time>
      </trkpt>
      <trkpt lat="50.39313" lon="3.47253">
        <ele>24.5</ele>
        <time>2020-06-24T09:47:03Z</time>
      </trkpt>
      <trkpt lat="50.39311" lon="3.47258">
        <ele>24.5</ele>
        <time>2020-06-24T09:47:04Z</time>
      </trkpt>
      <trkpt lat="50.3931" lon="3.47265">
        <ele>24.5</ele>
        <time>2020-06-24T09:47:05Z</time>
      </trkpt>
      <trkpt lat="50.39309" lon="3.47273">
        <ele>24.6</ele>
        <time>2020-06-24T09:47:06Z</time>
      </trkpt>
      <trkpt lat="50.39308" lon="3.4728">
        <ele>24.6</ele>
        <time>2020-06-24T09:47:07Z</time>
      </trkpt>
      <trkpt lat="50.39308" lon="3.47287">
        <ele>24.6</ele>
        <time>2020-06-24T09:47:08Z</time>
      </trkpt>
      <trkpt lat="50.39305" lon="3.47296">
        <ele>24.6</ele>
        <time>2020-06-24T09:47:09Z</time>
      </trkpt>
      <trkpt lat="50.39303" lon="3.47303">
        <ele>24.6</ele>
        <time>2020-06-24T09:47:10Z</time>
      </trkpt>
      <trkpt lat="50.39301" lon="3.47312">
        <ele>24.7</ele>
        <time>2020-06-24T09:47:11Z</time>
      </trkpt>
      <trkpt lat="50.393" lon="3.47319">
        <ele>24.7</ele>
        <time>2020-06-24T09:47:12Z</time>
      </trkpt>
      <trkpt lat="50.39299" lon="3.47328">
        <ele>24.8</ele>
        <time>2020-06-24T09:47:13Z</time>
      </trkpt>
      <trkpt lat="50.39298" lon="3.47336">
        <ele>24.8</ele>
        <time>2020-06-24T09:47:14Z</time>
      </trkpt>
      <trkpt lat="50.39296" lon="3.47346">
        <ele>24.8</ele>
        <time>2020-06-24T09:47:15Z</time>
      </trkpt>
      <trkpt lat="50.39295" lon="3.47354">
        <ele>24.8</ele>
        <time>2020-06-24T09:47:16Z</time>
      </trkpt>
      <trkpt lat="50.39295" lon="3.47361">
        <ele>24.8</ele>
        <time>2020-06-24T09:47:17Z</time>
      </trkpt>
      <trkpt lat="50.39294" lon="3.4737">
        <ele>24.8</ele>
        <time>2020-06-24T09:47:18Z</time>
      </trkpt>
      <trkpt lat="50.39292" lon="3.47378">
        <ele>24.9</ele>
        <time>2020-06-24T09:47:19Z</time>
      </trkpt>
      <trkpt lat="50.39291" lon="3.47384">
        <ele>24.9</ele>
        <time>2020-06-24T09:47:20Z</time>
      </trkpt>
      <trkpt lat="50.39289" lon="3.4739">
        <ele>24.9</ele>
        <time>2020-06-24T09:47:21Z</time>
      </trkpt>
      <trkpt lat="50.39288" lon="3.47398">
        <ele>24.9</ele>
        <time>2020-06-24T09:47:22Z</time>
      </trkpt>
      <trkpt lat="50.39287" lon="3.47404">
        <ele>24.9</ele>
        <time>2020-06-24T09:47:23Z</time>
      </trkpt>
      <trkpt lat="50.39286" lon="3.47412">
        <ele>24.9</ele>
        <time>2020-06-24T09:47:24Z</time>
      </trkpt>
      <trkpt lat="50.39285" lon="3.47421">
        <ele>24.9</ele>
        <time>2020-06-24T09:47:25Z</time>
      </trkpt>
      <trkpt lat="50.39283" lon="3.4743">
        <ele>25</ele>
        <time>2020-06-24T09:47:26Z</time>
      </trkpt>
      <trkpt lat="50.39282" lon="3.47437">
        <ele>25</ele>
        <time>2020-06-24T09:47:27Z</time>
      </trkpt>
      <trkpt lat="50.39281" lon="3.47445">
        <ele>25</ele>
        <time>2020-06-24T09:47:28Z</time>
      </trkpt>
      <trkpt lat="50.39279" lon="3.47454">
        <ele>25.1</ele>
        <time>2020-06-24T09:47:29Z</time>
      </trkpt>
      <trkpt lat="50.39276" lon="3.47462">
        <ele>25.1</ele>
        <time>2020-06-24T09:47:30Z</time>
      </trkpt>
      <trkpt lat="50.39274" lon="3.4747">
        <ele>25.2</ele>
        <time>2020-06-24T09:47:31Z</time>
      </trkpt>
      <trkpt lat="50.39271" lon="3.47478">
        <ele>25.2</ele>
        <time>2020-06-24T09:47:32Z</time>
      </trkpt>
      <trkpt lat="50.39269" lon="3.47487">
        <ele>25.2</ele>
        <time>2020-06-24T09:47:33Z</time>
      </trkpt>
      <trkpt lat="50.39267" lon="3.47494">
        <ele>25.3</ele>
        <time>2020-06-24T09:47:34Z</time>
      </trkpt>
      <trkpt lat="50.39265" lon="3.47502">
        <ele>25.3</ele>
        <time>2020-06-24T09:47:35Z</time>
      </trkpt>
      <trkpt lat="50.39264" lon="3.4751">
        <ele>25.3</ele>
        <time>2020-06-24T09:47:36Z</time>
      </trkpt>
      <trkpt lat="50.39263" lon="3.47518">
        <ele>25.4</ele>
        <time>2020-06-24T09:47:37Z</time>
      </trkpt>
      <trkpt lat="50.39261" lon="3.47524">
        <ele>25.4</ele>
        <time>2020-06-24T09:47:38Z</time>
      </trkpt>
      <trkpt lat="50.39259" lon="3.47527">
        <ele>25.4</ele>
        <time>2020-06-24T09:47:39Z</time>
      </trkpt>
      <trkpt lat="50.39257" lon="3.4753">
        <ele>25.4</ele>
        <time>2020-06-24T09:47:40Z</time>
      </trkpt>
      <trkpt lat="50.39256" lon="3.47536">
        <ele>25.4</ele>
        <time>2020-06-24T09:47:41Z</time>
      </trkpt>
      <trkpt lat="50.39255" lon="3.47542">
        <ele>25.4</ele>
        <time>2020-06-24T09:47:42Z</time>
      </trkpt>
      <trkpt lat="50.39254" lon="3.47549">
        <ele>25.4</ele>
        <time>2020-06-24T09:47:43Z</time>
      </trkpt>
      <trkpt lat="50.39251" lon="3.47555">
        <ele>25.4</ele>
        <time>2020-06-24T09:47:44Z</time>
      </trkpt>
      <trkpt lat="50.39249" lon="3.47563">
        <ele>25.4</ele>
        <time>2020-06-24T09:47:45Z</time>
      </trkpt>
      <trkpt lat="50.39249" lon="3.47572">
        <ele>25.4</ele>
        <time>2020-06-24T09:47:46Z</time>
      </trkpt>
      <trkpt lat="50.39248" lon="3.4758">
        <ele>25.4</ele>
        <time>2020-06-24T09:47:47Z</time>
      </trkpt>
      <trkpt lat="50.39248" lon="3.47588">
        <ele>25.5</ele>
        <time>2020-06-24T09:47:48Z</time>
      </trkpt>
      <trkpt lat="50.39247" lon="3.47596">
        <ele>25.5</ele>
        <time>2020-06-24T09:47:49Z</time>
      </trkpt>
      <trkpt lat="50.39247" lon="3.47604">
        <ele>25.5</ele>
        <time>2020-06-24T09:47:50Z</time>
      </trkpt>
      <trkpt lat="50.39247" lon="3.4761">
        <ele>25.5</ele>
        <time>2020-06-24T09:47:51Z</time>
      </trkpt>
      <trkpt lat="50.39246" lon="3.47617">
        <ele>25.5</ele>
        <time>2020-06-24T09:47:52Z</time>
      </trkpt>
      <trkpt lat="50.39243" lon="3.47623">
        <ele>25.6</ele>
        <time>2020-06-24T09:47:53Z</time>
      </trkpt>
      <trkpt lat="50.39241" lon="3.47631">
        <ele>25.6</ele>
        <time>2020-06-24T09:47:54Z</time>
      </trkpt>
      <trkpt lat="50.39239" lon="3.47639">
        <ele>25.6</ele>
        <time>2020-06-24T09:47:55Z</time>
      </trkpt>
      <trkpt lat="50.39238" lon="3.47645">
        <ele>25.6</ele>
        <time>2020-06-24T09:47:56Z</time>
      </trkpt>
      <trkpt lat="50.39237" lon="3.47651">
        <ele>25.6</ele>
        <time>2020-06-24T09:47:57Z</time>
      </trkpt>
      <trkpt lat="50.39235" lon="3.47657">
        <ele>25.6</ele>
        <time>2020-06-24T09:47:58Z</time>
      </trkpt>
      <trkpt lat="50.39233" lon="3.47664">
        <ele>25.6</ele>
        <time>2020-06-24T09:47:59Z</time>
      </trkpt>
      <trkpt lat="50.39233" lon="3.47671">
        <ele>25.6</ele>
        <time>2020-06-24T09:48:00Z</time>
      </trkpt>
      <trkpt lat="50.39231" lon="3.47679">
        <ele>25.6</ele>
        <time>2020-06-24T09:48:01Z</time>
      </trkpt>
      <trkpt lat="50.3923" lon="3.47687">
        <ele>25.6</ele>
        <time>2020-06-24T09:48:02Z</time>
      </trkpt>
      <trkpt lat="50.39229" lon="3.47695">
        <ele>25.6</ele>
        <time>2020-06-24T09:48:03Z</time>
      </trkpt>
      <trkpt lat="50.39228" lon="3.47703">
        <ele>25.6</ele>
        <time>2020-06-24T09:48:04Z</time>
      </trkpt>
      <trkpt lat="50.39227" lon="3.47712">
        <ele>25.6</ele>
        <time>2020-06-24T09:48:05Z</time>
      </trkpt>
      <trkpt lat="50.39226" lon="3.47721">
        <ele>25.6</ele>
        <time>2020-06-24T09:48:06Z</time>
      </trkpt>
      <trkpt lat="50.39223" lon="3.47729">
        <ele>25.7</ele>
        <time>2020-06-24T09:48:07Z</time>
      </trkpt>
      <trkpt lat="50.39222" lon="3.47736">
        <ele>25.7</ele>
        <time>2020-06-24T09:48:08Z</time>
      </trkpt>
      <trkpt lat="50.39219" lon="3.47744">
        <ele>25.7</ele>
        <time>2020-06-24T09:48:09Z</time>
      </trkpt>
      <trkpt lat="50.39218" lon="3.47753">
        <ele>25.7</ele>
        <time>2020-06-24T09:48:10Z</time>
      </trkpt>
      <trkpt lat="50.39215" lon="3.47761">
        <ele>25.8</ele>
        <time>2020-06-24T09:48:11Z</time>
      </trkpt>
      <trkpt lat="50.39213" lon="3.47769">
        <ele>25.8</ele>
        <time>2020-06-24T09:48:12Z</time>
      </trkpt>
      <trkpt lat="50.39211" lon="3.47778">
        <ele>25.8</ele>
        <time>2020-06-24T09:48:13Z</time>
      </trkpt>
      <trkpt lat="50.39209" lon="3.47786">
        <ele>25.9</ele>
        <time>2020-06-24T09:48:14Z</time>
      </trkpt>
      <trkpt lat="50.39206" lon="3.47794">
        <ele>25.9</ele>
        <time>2020-06-24T09:48:15Z</time>
      </trkpt>
      <trkpt lat="50.39205" lon="3.478">
        <ele>25.9</ele>
        <time>2020-06-24T09:48:16Z</time>
      </trkpt>
      <trkpt lat="50.39204" lon="3.47806">
        <ele>25.9</ele>
        <time>2020-06-24T09:48:17Z</time>
      </trkpt>
      <trkpt lat="50.39203" lon="3.47813">
        <ele>26</ele>
        <time>2020-06-24T09:48:18Z</time>
      </trkpt>
      <trkpt lat="50.39202" lon="3.47822">
        <ele>26</ele>
        <time>2020-06-24T09:48:19Z</time>
      </trkpt>
      <trkpt lat="50.39203" lon="3.47832">
        <ele>26</ele>
        <time>2020-06-24T09:48:20Z</time>
      </trkpt>
      <trkpt lat="50.39204" lon="3.47839">
        <ele>26</ele>
        <time>2020-06-24T09:48:21Z</time>
      </trkpt>
      <trkpt lat="50.39204" lon="3.47845">
        <ele>26</ele>
        <time>2020-06-24T09:48:22Z</time>
      </trkpt>
      <trkpt lat="50.39204" lon="3.47852">
        <ele>26</ele>
        <time>2020-06-24T09:48:23Z</time>
      </trkpt>
      <trkpt lat="50.39203" lon="3.47859">
        <ele>26</ele>
        <time>2020-06-24T09:48:24Z</time>
      </trkpt>
      <trkpt lat="50.39203" lon="3.47866">
        <ele>26.1</ele>
        <time>2020-06-24T09:48:25Z</time>
      </trkpt>
      <trkpt lat="50.39203" lon="3.47873">
        <ele>26.1</ele>
        <time>2020-06-24T09:48:26Z</time>
      </trkpt>
      <trkpt lat="50.39201" lon="3.47879">
        <ele>26.1</ele>
        <time>2020-06-24T09:48:27Z</time>
      </trkpt>
      <trkpt lat="50.39201" lon="3.47885">
        <ele>26.1</ele>
        <time>2020-06-24T09:48:28Z</time>
      </trkpt>
      <trkpt lat="50.392" lon="3.47892">
        <ele>26.2</ele>
        <time>2020-06-24T09:48:29Z</time>
      </trkpt>
      <trkpt lat="50.392" lon="3.479">
        <ele>26.2</ele>
        <time>2020-06-24T09:48:30Z</time>
      </trkpt>
      <trkpt lat="50.39199" lon="3.4791">
        <ele>26.3</ele>
        <time>2020-06-24T09:48:31Z</time>
      </trkpt>
      <trkpt lat="50.39199" lon="3.47918">
        <ele>26.3</ele>
        <time>2020-06-24T09:48:32Z</time>
      </trkpt>
      <trkpt lat="50.39199" lon="3.47926">
        <ele>26.4</ele>
        <time>2020-06-24T09:48:33Z</time>
      </trkpt>
      <trkpt lat="50.39199" lon="3.47935">
        <ele>26.4</ele>
        <time>2020-06-24T09:48:34Z</time>
      </trkpt>
      <trkpt lat="50.39199" lon="3.47944">
        <ele>26.5</ele>
        <time>2020-06-24T09:48:35Z</time>
      </trkpt>
      <trkpt lat="50.39199" lon="3.47954">
        <ele>26.6</ele>
        <time>2020-06-24T09:48:36Z</time>
      </trkpt>
      <trkpt lat="50.392" lon="3.47963">
        <ele>26.7</ele>
        <time>2020-06-24T09:48:37Z</time>
      </trkpt>
      <trkpt lat="50.39199" lon="3.47971">
        <ele>26.8</ele>
        <time>2020-06-24T09:48:38Z</time>
      </trkpt>
      <trkpt lat="50.39199" lon="3.47979">
        <ele>26.8</ele>
        <time>2020-06-24T09:48:39Z</time>
      </trkpt>
      <trkpt lat="50.39198" lon="3.47987">
        <ele>26.9</ele>
        <time>2020-06-24T09:48:40Z</time>
      </trkpt>
      <trkpt lat="50.39199" lon="3.47995">
        <ele>27</ele>
        <time>2020-06-24T09:48:41Z</time>
      </trkpt>
      <trkpt lat="50.39199" lon="3.48004">
        <ele>27</ele>
        <time>2020-06-24T09:48:42Z</time>
      </trkpt>
      <trkpt lat="50.39199" lon="3.48013">
        <ele>27.1</ele>
        <time>2020-06-24T09:48:43Z</time>
      </trkpt>
      <trkpt lat="50.39198" lon="3.48021">
        <ele>27.1</ele>
        <time>2020-06-24T09:48:44Z</time>
      </trkpt>
      <trkpt lat="50.39199" lon="3.48029">
        <ele>27.2</ele>
        <time>2020-06-24T09:48:45Z</time>
      </trkpt>
      <trkpt lat="50.39199" lon="3.48036">
        <ele>27.2</ele>
        <time>2020-06-24T09:48:46Z</time>
      </trkpt>
      <trkpt lat="50.39199" lon="3.48044">
        <ele>27.3</ele>
        <time>2020-06-24T09:48:47Z</time>
      </trkpt>
      <trkpt lat="50.39199" lon="3.48052">
        <ele>27.4</ele>
        <time>2020-06-24T09:48:48Z</time>
      </trkpt>
      <trkpt lat="50.392" lon="3.48061">
        <ele>27.5</ele>
        <time>2020-06-24T09:48:49Z</time>
      </trkpt>
      <trkpt lat="50.39201" lon="3.48069">
        <ele>27.6</ele>
        <time>2020-06-24T09:48:50Z</time>
      </trkpt>
      <trkpt lat="50.39202" lon="3.48079">
        <ele>27.7</ele>
        <time>2020-06-24T09:48:51Z</time>
      </trkpt>
      <trkpt lat="50.39202" lon="3.48087">
        <ele>27.7</ele>
        <time>2020-06-24T09:48:52Z</time>
      </trkpt>
      <trkpt lat="50.39202" lon="3.48095">
        <ele>27.8</ele>
        <time>2020-06-24T09:48:53Z</time>
      </trkpt>
      <trkpt lat="50.39204" lon="3.48104">
        <ele>27.9</ele>
        <time>2020-06-24T09:48:54Z</time>
      </trkpt>
      <trkpt lat="50.39205" lon="3.48113">
        <ele>27.9</ele>
        <time>2020-06-24T09:48:55Z</time>
      </trkpt>
      <trkpt lat="50.39204" lon="3.4812">
        <ele>27.9</ele>
        <time>2020-06-24T09:48:56Z</time>
      </trkpt>
      <trkpt lat="50.39202" lon="3.48126">
        <ele>28</ele>
        <time>2020-06-24T09:48:57Z</time>
      </trkpt>
      <trkpt lat="50.392" lon="3.48133">
        <ele>28</ele>
        <time>2020-06-24T09:48:58Z</time>
      </trkpt>
      <trkpt lat="50.39199" lon="3.4814">
        <ele>28.2</ele>
        <time>2020-06-24T09:48:59Z</time>
      </trkpt>
      <trkpt lat="50.39199" lon="3.48148">
        <ele>29</ele>
        <time>2020-06-24T09:49:00Z</time>
      </trkpt>
      <trkpt lat="50.39201" lon="3.48153">
        <ele>29.1</ele>
        <time>2020-06-24T09:49:01Z</time>
      </trkpt>
      <trkpt lat="50.39203" lon="3.48157">
        <ele>29.2</ele>
        <time>2020-06-24T09:49:02Z</time>
      </trkpt>
      <trkpt lat="50.39207" lon="3.48161">
        <ele>29.3</ele>
        <time>2020-06-24T09:49:03Z</time>
      </trkpt>
      <trkpt lat="50.39209" lon="3.48164">
        <ele>29.3</ele>
        <time>2020-06-24T09:49:04Z</time>
      </trkpt>
      <trkpt lat="50.39214" lon="3.48167">
        <ele>29.3</ele>
        <time>2020-06-24T09:49:05Z</time>
      </trkpt>
      <trkpt lat="50.39218" lon="3.48172">
        <ele>29.3</ele>
        <time>2020-06-24T09:49:06Z</time>
      </trkpt>
      <trkpt lat="50.39222" lon="3.48178">
        <ele>29.3</ele>
        <time>2020-06-24T09:49:07Z</time>
      </trkpt>
      <trkpt lat="50.39227" lon="3.48185">
        <ele>29.3</ele>
        <time>2020-06-24T09:49:08Z</time>
      </trkpt>
      <trkpt lat="50.3923" lon="3.48193">
        <ele>29.3</ele>
        <time>2020-06-24T09:49:09Z</time>
      </trkpt>
      <trkpt lat="50.39233" lon="3.48201">
        <ele>29.3</ele>
        <time>2020-06-24T09:49:10Z</time>
      </trkpt>
      <trkpt lat="50.39235" lon="3.48211">
        <ele>29.4</ele>
        <time>2020-06-24T09:49:11Z</time>
      </trkpt>
      <trkpt lat="50.39238" lon="3.48218">
        <ele>29.4</ele>
        <time>2020-06-24T09:49:12Z</time>
      </trkpt>
      <trkpt lat="50.39241" lon="3.48225">
        <ele>29.5</ele>
        <time>2020-06-24T09:49:13Z</time>
      </trkpt>
      <trkpt lat="50.39243" lon="3.48233">
        <ele>29.5</ele>
        <time>2020-06-24T09:49:14Z</time>
      </trkpt>
      <trkpt lat="50.39246" lon="3.48238">
        <ele>29.5</ele>
        <time>2020-06-24T09:49:15Z</time>
      </trkpt>
      <trkpt lat="50.39248" lon="3.48244">
        <ele>29.5</ele>
        <time>2020-06-24T09:49:16Z</time>
      </trkpt>
      <trkpt lat="50.3925" lon="3.4825">
        <ele>29.6</ele>
        <time>2020-06-24T09:49:17Z</time>
      </trkpt>
      <trkpt lat="50.39251" lon="3.48258">
        <ele>29.6</ele>
        <time>2020-06-24T09:49:18Z</time>
      </trkpt>
      <trkpt lat="50.39254" lon="3.48268">
        <ele>29.5</ele>
        <time>2020-06-24T09:49:19Z</time>
      </trkpt>
      <trkpt lat="50.39255" lon="3.48276">
        <ele>29.5</ele>
        <time>2020-06-24T09:49:20Z</time>
      </trkpt>
      <trkpt lat="50.39256" lon="3.48285">
        <ele>29.4</ele>
        <time>2020-06-24T09:49:21Z</time>
      </trkpt>
      <trkpt lat="50.39254" lon="3.48293">
        <ele>29.3</ele>
        <time>2020-06-24T09:49:22Z</time>
      </trkpt>
      <trkpt lat="50.39253" lon="3.48301">
        <ele>29.2</ele>
        <time>2020-06-24T09:49:23Z</time>
      </trkpt>
      <trkpt lat="50.39252" lon="3.48309">
        <ele>29</ele>
        <time>2020-06-24T09:49:24Z</time>
      </trkpt>
      <trkpt lat="50.39251" lon="3.48319">
        <ele>28.9</ele>
        <time>2020-06-24T09:49:25Z</time>
      </trkpt>
      <trkpt lat="50.39248" lon="3.48328">
        <ele>28.7</ele>
        <time>2020-06-24T09:49:26Z</time>
      </trkpt>
      <trkpt lat="50.39247" lon="3.48338">
        <ele>28.6</ele>
        <time>2020-06-24T09:49:27Z</time>
      </trkpt>
      <trkpt lat="50.39245" lon="3.4835">
        <ele>28.3</ele>
        <time>2020-06-24T09:49:28Z</time>
      </trkpt>
      <trkpt lat="50.39242" lon="3.48359">
        <ele>28.2</ele>
        <time>2020-06-24T09:49:29Z</time>
      </trkpt>
      <trkpt lat="50.39239" lon="3.48368">
        <ele>28</ele>
        <time>2020-06-24T09:49:30Z</time>
      </trkpt>
      <trkpt lat="50.39236" lon="3.48377">
        <ele>27.8</ele>
        <time>2020-06-24T09:49:31Z</time>
      </trkpt>
      <trkpt lat="50.39233" lon="3.48386">
        <ele>27.7</ele>
        <time>2020-06-24T09:49:32Z</time>
      </trkpt>
      <trkpt lat="50.3923" lon="3.48395">
        <ele>27.5</ele>
        <time>2020-06-24T09:49:33Z</time>
      </trkpt>
      <trkpt lat="50.39227" lon="3.48405">
        <ele>27.5</ele>
        <time>2020-06-24T09:49:34Z</time>
      </trkpt>
      <trkpt lat="50.39222" lon="3.48413">
        <ele>27.6</ele>
        <time>2020-06-24T09:49:35Z</time>
      </trkpt>
      <trkpt lat="50.39216" lon="3.48421">
        <ele>27.6</ele>
        <time>2020-06-24T09:49:36Z</time>
      </trkpt>
      <trkpt lat="50.39209" lon="3.48429">
        <ele>27.6</ele>
        <time>2020-06-24T09:49:37Z</time>
      </trkpt>
      <trkpt lat="50.39204" lon="3.48436">
        <ele>27.5</ele>
        <time>2020-06-24T09:49:38Z</time>
      </trkpt>
      <trkpt lat="50.39199" lon="3.48443">
        <ele>27.5</ele>
        <time>2020-06-24T09:49:39Z</time>
      </trkpt>
      <trkpt lat="50.39194" lon="3.4845">
        <ele>27.4</ele>
        <time>2020-06-24T09:49:40Z</time>
      </trkpt>
      <trkpt lat="50.39189" lon="3.48457">
        <ele>27.3</ele>
        <time>2020-06-24T09:49:41Z</time>
      </trkpt>
      <trkpt lat="50.39185" lon="3.48465">
        <ele>27.3</ele>
        <time>2020-06-24T09:49:42Z</time>
      </trkpt>
      <trkpt lat="50.39181" lon="3.48473">
        <ele>27.2</ele>
        <time>2020-06-24T09:49:43Z</time>
      </trkpt>
      <trkpt lat="50.39177" lon="3.48479">
        <ele>27.2</ele>
        <time>2020-06-24T09:49:44Z</time>
      </trkpt>
      <trkpt lat="50.39174" lon="3.48484">
        <ele>27.2</ele>
        <time>2020-06-24T09:49:45Z</time>
      </trkpt>
      <trkpt lat="50.39169" lon="3.48491">
        <ele>27.2</ele>
        <time>2020-06-24T09:49:46Z</time>
      </trkpt>
      <trkpt lat="50.39164" lon="3.48497">
        <ele>27.1</ele>
        <time>2020-06-24T09:49:47Z</time>
      </trkpt>
      <trkpt lat="50.3916" lon="3.48504">
        <ele>27.1</ele>
        <time>2020-06-24T09:49:48Z</time>
      </trkpt>
      <trkpt lat="50.39154" lon="3.48509">
        <ele>27</ele>
        <time>2020-06-24T09:49:49Z</time>
      </trkpt>
      <trkpt lat="50.39149" lon="3.48515">
        <ele>27</ele>
        <time>2020-06-24T09:49:50Z</time>
      </trkpt>
      <trkpt lat="50.39144" lon="3.4852">
        <ele>27</ele>
        <time>2020-06-24T09:49:51Z</time>
      </trkpt>
      <trkpt lat="50.39138" lon="3.48526">
        <ele>27</ele>
        <time>2020-06-24T09:49:52Z</time>
      </trkpt>
      <trkpt lat="50.39133" lon="3.48532">
        <ele>26.9</ele>
        <time>2020-06-24T09:49:53Z</time>
      </trkpt>
      <trkpt lat="50.39128" lon="3.48537">
        <ele>26.9</ele>
        <time>2020-06-24T09:49:54Z</time>
      </trkpt>
      <trkpt lat="50.39122" lon="3.48544">
        <ele>26.9</ele>
        <time>2020-06-24T09:49:55Z</time>
      </trkpt>
      <trkpt lat="50.39118" lon="3.48548">
        <ele>26.9</ele>
        <time>2020-06-24T09:49:56Z</time>
      </trkpt>
      <trkpt lat="50.39113" lon="3.48554">
        <ele>26.9</ele>
        <time>2020-06-24T09:49:57Z</time>
      </trkpt>
      <trkpt lat="50.39108" lon="3.48561">
        <ele>26.9</ele>
        <time>2020-06-24T09:49:58Z</time>
      </trkpt>
      <trkpt lat="50.39103" lon="3.48566">
        <ele>26.9</ele>
        <time>2020-06-24T09:49:59Z</time>
      </trkpt>
      <trkpt lat="50.39098" lon="3.48572">
        <ele>26.9</ele>
        <time>2020-06-24T09:50:00Z</time>
      </trkpt>
      <trkpt lat="50.39094" lon="3.48576">
        <ele>26.9</ele>
        <time>2020-06-24T09:50:01Z</time>
      </trkpt>
      <trkpt lat="50.3909" lon="3.48582">
        <ele>26.9</ele>
        <time>2020-06-24T09:50:02Z</time>
      </trkpt>
      <trkpt lat="50.39085" lon="3.48588">
        <ele>26.9</ele>
        <time>2020-06-24T09:50:03Z</time>
      </trkpt>
      <trkpt lat="50.3908" lon="3.48594">
        <ele>26.9</ele>
        <time>2020-06-24T09:50:04Z</time>
      </trkpt>
      <trkpt lat="50.39074" lon="3.48601">
        <ele>26.9</ele>
        <time>2020-06-24T09:50:05Z</time>
      </trkpt>
      <trkpt lat="50.39069" lon="3.48605">
        <ele>27</ele>
        <time>2020-06-24T09:50:06Z</time>
      </trkpt>
      <trkpt lat="50.39065" lon="3.48611">
        <ele>27.1</ele>
        <time>2020-06-24T09:50:07Z</time>
      </trkpt>
      <trkpt lat="50.39061" lon="3.48616">
        <ele>27.1</ele>
        <time>2020-06-24T09:50:08Z</time>
      </trkpt>
      <trkpt lat="50.39057" lon="3.48621">
        <ele>27.1</ele>
        <time>2020-06-24T09:50:09Z</time>
      </trkpt>
      <trkpt lat="50.39053" lon="3.48626">
        <ele>27.2</ele>
        <time>2020-06-24T09:50:10Z</time>
      </trkpt>
      <trkpt lat="50.39048" lon="3.48631">
        <ele>27.2</ele>
        <time>2020-06-24T09:50:11Z</time>
      </trkpt>
      <trkpt lat="50.39043" lon="3.48636">
        <ele>27.2</ele>
        <time>2020-06-24T09:50:12Z</time>
      </trkpt>
      <trkpt lat="50.39038" lon="3.48641">
        <ele>27.2</ele>
        <time>2020-06-24T09:50:13Z</time>
      </trkpt>
      <trkpt lat="50.39031" lon="3.48644">
        <ele>27.2</ele>
        <time>2020-06-24T09:50:14Z</time>
      </trkpt>
      <trkpt lat="50.39025" lon="3.48649">
        <ele>27.2</ele>
        <time>2020-06-24T09:50:15Z</time>
      </trkpt>
      <trkpt lat="50.39019" lon="3.48654">
        <ele>27.2</ele>
        <time>2020-06-24T09:50:16Z</time>
      </trkpt>
      <trkpt lat="50.39013" lon="3.4866">
        <ele>27.4</ele>
        <time>2020-06-24T09:50:17Z</time>
      </trkpt>
      <trkpt lat="50.39007" lon="3.48665">
        <ele>27.4</ele>
        <time>2020-06-24T09:50:18Z</time>
      </trkpt>
      <trkpt lat="50.39002" lon="3.48669">
        <ele>27.4</ele>
        <time>2020-06-24T09:50:19Z</time>
      </trkpt>
      <trkpt lat="50.38996" lon="3.48673">
        <ele>27.4</ele>
        <time>2020-06-24T09:50:20Z</time>
      </trkpt>
      <trkpt lat="50.38993" lon="3.48677">
        <ele>27.4</ele>
        <time>2020-06-24T09:50:21Z</time>
      </trkpt>
      <trkpt lat="50.38988" lon="3.4868">
        <ele>27.4</ele>
        <time>2020-06-24T09:50:22Z</time>
      </trkpt>
      <trkpt lat="50.38984" lon="3.48683">
        <ele>27.4</ele>
        <time>2020-06-24T09:50:23Z</time>
      </trkpt>
      <trkpt lat="50.38981" lon="3.48686">
        <ele>27.4</ele>
        <time>2020-06-24T09:50:24Z</time>
      </trkpt>
      <trkpt lat="50.38977" lon="3.48688">
        <ele>27.4</ele>
        <time>2020-06-24T09:50:25Z</time>
      </trkpt>
      <trkpt lat="50.38972" lon="3.48691">
        <ele>27.4</ele>
        <time>2020-06-24T09:50:26Z</time>
      </trkpt>
      <trkpt lat="50.38967" lon="3.48695">
        <ele>27.4</ele>
        <time>2020-06-24T09:50:27Z</time>
      </trkpt>
      <trkpt lat="50.38962" lon="3.48699">
        <ele>27.4</ele>
        <time>2020-06-24T09:50:28Z</time>
      </trkpt>
      <trkpt lat="50.38957" lon="3.48704">
        <ele>27.5</ele>
        <time>2020-06-24T09:50:29Z</time>
      </trkpt>
      <trkpt lat="50.38953" lon="3.48709">
        <ele>27.5</ele>
        <time>2020-06-24T09:50:30Z</time>
      </trkpt>
      <trkpt lat="50.3895" lon="3.48712">
        <ele>27.6</ele>
        <time>2020-06-24T09:50:31Z</time>
      </trkpt>
      <trkpt lat="50.38942" lon="3.48717">
        <ele>27.6</ele>
        <time>2020-06-24T09:50:32Z</time>
      </trkpt>
      <trkpt lat="50.38936" lon="3.48724">
        <ele>27.6</ele>
        <time>2020-06-24T09:50:33Z</time>
      </trkpt>
      <trkpt lat="50.38931" lon="3.48729">
        <ele>27.6</ele>
        <time>2020-06-24T09:50:34Z</time>
      </trkpt>
      <trkpt lat="50.38926" lon="3.48733">
        <ele>27.6</ele>
        <time>2020-06-24T09:50:35Z</time>
      </trkpt>
      <trkpt lat="50.38921" lon="3.48738">
        <ele>27.6</ele>
        <time>2020-06-24T09:50:36Z</time>
      </trkpt>
      <trkpt lat="50.38916" lon="3.48741">
        <ele>27.7</ele>
        <time>2020-06-24T09:50:37Z</time>
      </trkpt>
      <trkpt lat="50.38911" lon="3.48746">
        <ele>27.7</ele>
        <time>2020-06-24T09:50:38Z</time>
      </trkpt>
      <trkpt lat="50.38907" lon="3.48749">
        <ele>27.7</ele>
        <time>2020-06-24T09:50:39Z</time>
      </trkpt>
      <trkpt lat="50.38902" lon="3.48753">
        <ele>27.8</ele>
        <time>2020-06-24T09:50:40Z</time>
      </trkpt>
      <trkpt lat="50.38896" lon="3.48757">
        <ele>27.8</ele>
        <time>2020-06-24T09:50:41Z</time>
      </trkpt>
      <trkpt lat="50.38892" lon="3.4876">
        <ele>27.9</ele>
        <time>2020-06-24T09:50:42Z</time>
      </trkpt>
      <trkpt lat="50.38885" lon="3.48763">
        <ele>27.9</ele>
        <time>2020-06-24T09:50:43Z</time>
      </trkpt>
      <trkpt lat="50.38879" lon="3.48767">
        <ele>28</ele>
        <time>2020-06-24T09:50:44Z</time>
      </trkpt>
      <trkpt lat="50.38872" lon="3.48772">
        <ele>28.1</ele>
        <time>2020-06-24T09:50:45Z</time>
      </trkpt>
      <trkpt lat="50.38866" lon="3.48776">
        <ele>28.1</ele>
        <time>2020-06-24T09:50:46Z</time>
      </trkpt>
      <trkpt lat="50.38862" lon="3.48782">
        <ele>28.2</ele>
        <time>2020-06-24T09:50:47Z</time>
      </trkpt>
      <trkpt lat="50.38857" lon="3.48785">
        <ele>28.2</ele>
        <time>2020-06-24T09:50:48Z</time>
      </trkpt>
      <trkpt lat="50.38851" lon="3.48789">
        <ele>28.2</ele>
        <time>2020-06-24T09:50:49Z</time>
      </trkpt>
      <trkpt lat="50.38846" lon="3.48793">
        <ele>28.3</ele>
        <time>2020-06-24T09:50:50Z</time>
      </trkpt>
      <trkpt lat="50.3884" lon="3.48798">
        <ele>28.3</ele>
        <time>2020-06-24T09:50:51Z</time>
      </trkpt>
      <trkpt lat="50.38835" lon="3.48802">
        <ele>28.3</ele>
        <time>2020-06-24T09:50:52Z</time>
      </trkpt>
      <trkpt lat="50.38831" lon="3.48805">
        <ele>28.3</ele>
        <time>2020-06-24T09:50:53Z</time>
      </trkpt>
      <trkpt lat="50.38827" lon="3.48808">
        <ele>28.3</ele>
        <time>2020-06-24T09:50:54Z</time>
      </trkpt>
      <trkpt lat="50.38822" lon="3.4881">
        <ele>28.4</ele>
        <time>2020-06-24T09:50:55Z</time>
      </trkpt>
      <trkpt lat="50.38819" lon="3.48813">
        <ele>28.4</ele>
        <time>2020-06-24T09:50:56Z</time>
      </trkpt>
      <trkpt lat="50.38815" lon="3.48814">
        <ele>28.4</ele>
        <time>2020-06-24T09:50:57Z</time>
      </trkpt>
      <trkpt lat="50.3881" lon="3.48819">
        <ele>28.4</ele>
        <time>2020-06-24T09:50:58Z</time>
      </trkpt>
      <trkpt lat="50.38805" lon="3.48822">
        <ele>28.4</ele>
        <time>2020-06-24T09:50:59Z</time>
      </trkpt>
      <trkpt lat="50.38801" lon="3.48826">
        <ele>28.5</ele>
        <time>2020-06-24T09:51:00Z</time>
      </trkpt>
      <trkpt lat="50.38795" lon="3.4883">
        <ele>28.4</ele>
        <time>2020-06-24T09:51:01Z</time>
      </trkpt>
      <trkpt lat="50.38791" lon="3.48834">
        <ele>28.4</ele>
        <time>2020-06-24T09:51:02Z</time>
      </trkpt>
      <trkpt lat="50.38786" lon="3.48839">
        <ele>28.4</ele>
        <time>2020-06-24T09:51:03Z</time>
      </trkpt>
      <trkpt lat="50.38782" lon="3.48843">
        <ele>28.4</ele>
        <time>2020-06-24T09:51:04Z</time>
      </trkpt>
      <trkpt lat="50.38776" lon="3.48848">
        <ele>28.3</ele>
        <time>2020-06-24T09:51:05Z</time>
      </trkpt>
      <trkpt lat="50.38771" lon="3.48851">
        <ele>28.3</ele>
        <time>2020-06-24T09:51:06Z</time>
      </trkpt>
      <trkpt lat="50.38764" lon="3.48857">
        <ele>28.3</ele>
        <time>2020-06-24T09:51:07Z</time>
      </trkpt>
      <trkpt lat="50.38761" lon="3.48858">
        <ele>28.3</ele>
        <time>2020-06-24T09:51:08Z</time>
      </trkpt>
      <trkpt lat="50.38753" lon="3.48864">
        <ele>28.3</ele>
        <time>2020-06-24T09:51:09Z</time>
      </trkpt>
      <trkpt lat="50.38749" lon="3.48867">
        <ele>28.3</ele>
        <time>2020-06-24T09:51:10Z</time>
      </trkpt>
      <trkpt lat="50.38745" lon="3.48871">
        <ele>28.4</ele>
        <time>2020-06-24T09:51:11Z</time>
      </trkpt>
      <trkpt lat="50.3874" lon="3.48877">
        <ele>28.4</ele>
        <time>2020-06-24T09:51:12Z</time>
      </trkpt>
      <trkpt lat="50.38734" lon="3.48883">
        <ele>28.5</ele>
        <time>2020-06-24T09:51:13Z</time>
      </trkpt>
      <trkpt lat="50.3873" lon="3.48889">
        <ele>28.5</ele>
        <time>2020-06-24T09:51:14Z</time>
      </trkpt>
      <trkpt lat="50.38726" lon="3.48893">
        <ele>28.6</ele>
        <time>2020-06-24T09:51:15Z</time>
      </trkpt>
      <trkpt lat="50.38719" lon="3.48897">
        <ele>28.7</ele>
        <time>2020-06-24T09:51:16Z</time>
      </trkpt>
      <trkpt lat="50.38714" lon="3.489">
        <ele>28.8</ele>
        <time>2020-06-24T09:51:17Z</time>
      </trkpt>
      <trkpt lat="50.38709" lon="3.48902">
        <ele>28.9</ele>
        <time>2020-06-24T09:51:18Z</time>
      </trkpt>
      <trkpt lat="50.38704" lon="3.48905">
        <ele>29.1</ele>
        <time>2020-06-24T09:51:19Z</time>
      </trkpt>
      <trkpt lat="50.387" lon="3.48908">
        <ele>29.1</ele>
        <time>2020-06-24T09:51:20Z</time>
      </trkpt>
      <trkpt lat="50.38696" lon="3.48908">
        <ele>29.1</ele>
        <time>2020-06-24T09:51:21Z</time>
      </trkpt>
      <trkpt lat="50.38692" lon="3.48905">
        <ele>29.1</ele>
        <time>2020-06-24T09:51:22Z</time>
      </trkpt>
      <trkpt lat="50.38687" lon="3.48901">
        <ele>29.2</ele>
        <time>2020-06-24T09:51:23Z</time>
      </trkpt>
      <trkpt lat="50.38682" lon="3.489">
        <ele>29.2</ele>
        <time>2020-06-24T09:51:24Z</time>
      </trkpt>
      <trkpt lat="50.38676" lon="3.489">
        <ele>29.3</ele>
        <time>2020-06-24T09:51:25Z</time>
      </trkpt>
      <trkpt lat="50.38671" lon="3.48903">
        <ele>29.1</ele>
        <time>2020-06-24T09:51:26Z</time>
      </trkpt>
      <trkpt lat="50.38666" lon="3.48907">
        <ele>28.9</ele>
        <time>2020-06-24T09:51:27Z</time>
      </trkpt>
      <trkpt lat="50.38662" lon="3.48913">
        <ele>28.9</ele>
        <time>2020-06-24T09:51:28Z</time>
      </trkpt>
      <trkpt lat="50.38657" lon="3.4892">
        <ele>28.9</ele>
        <time>2020-06-24T09:51:29Z</time>
      </trkpt>
      <trkpt lat="50.38653" lon="3.48928">
        <ele>29.3</ele>
        <time>2020-06-24T09:51:30Z</time>
      </trkpt>
      <trkpt lat="50.38649" lon="3.48933">
        <ele>29.2</ele>
        <time>2020-06-24T09:51:31Z</time>
      </trkpt>
      <trkpt lat="50.38644" lon="3.48939">
        <ele>28.9</ele>
        <time>2020-06-24T09:51:32Z</time>
      </trkpt>
      <trkpt lat="50.3864" lon="3.48943">
        <ele>28.8</ele>
        <time>2020-06-24T09:51:33Z</time>
      </trkpt>
      <trkpt lat="50.38634" lon="3.48948">
        <ele>28.8</ele>
        <time>2020-06-24T09:51:34Z</time>
      </trkpt>
      <trkpt lat="50.38629" lon="3.48954">
        <ele>28.7</ele>
        <time>2020-06-24T09:51:35Z</time>
      </trkpt>
      <trkpt lat="50.38624" lon="3.48959">
        <ele>28.7</ele>
        <time>2020-06-24T09:51:36Z</time>
      </trkpt>
      <trkpt lat="50.38619" lon="3.48964">
        <ele>28.8</ele>
        <time>2020-06-24T09:51:37Z</time>
      </trkpt>
      <trkpt lat="50.38614" lon="3.48968">
        <ele>28.9</ele>
        <time>2020-06-24T09:51:38Z</time>
      </trkpt>
      <trkpt lat="50.38609" lon="3.48971">
        <ele>29</ele>
        <time>2020-06-24T09:51:39Z</time>
      </trkpt>
      <trkpt lat="50.38603" lon="3.48976">
        <ele>29.1</ele>
        <time>2020-06-24T09:51:40Z</time>
      </trkpt>
      <trkpt lat="50.386" lon="3.48977">
        <ele>29.1</ele>
        <time>2020-06-24T09:51:41Z</time>
      </trkpt>
      <trkpt lat="50.38595" lon="3.4898">
        <ele>29.2</ele>
        <time>2020-06-24T09:51:42Z</time>
      </trkpt>
      <trkpt lat="50.3859" lon="3.48983">
        <ele>29.3</ele>
        <time>2020-06-24T09:51:43Z</time>
      </trkpt>
      <trkpt lat="50.38585" lon="3.48987">
        <ele>29.5</ele>
        <time>2020-06-24T09:51:44Z</time>
      </trkpt>
      <trkpt lat="50.38581" lon="3.48989">
        <ele>29.5</ele>
        <time>2020-06-24T09:51:45Z</time>
      </trkpt>
      <trkpt lat="50.38575" lon="3.48992">
        <ele>29.5</ele>
        <time>2020-06-24T09:51:46Z</time>
      </trkpt>
      <trkpt lat="50.3857" lon="3.48996">
        <ele>29.5</ele>
        <time>2020-06-24T09:51:47Z</time>
      </trkpt>
      <trkpt lat="50.38565" lon="3.49">
        <ele>29.5</ele>
        <time>2020-06-24T09:51:48Z</time>
      </trkpt>
      <trkpt lat="50.3856" lon="3.49004">
        <ele>29.5</ele>
        <time>2020-06-24T09:51:49Z</time>
      </trkpt>
      <trkpt lat="50.38554" lon="3.4901">
        <ele>29.5</ele>
        <time>2020-06-24T09:51:50Z</time>
      </trkpt>
      <trkpt lat="50.38549" lon="3.49014">
        <ele>29.5</ele>
        <time>2020-06-24T09:51:51Z</time>
      </trkpt>
      <trkpt lat="50.38545" lon="3.49017">
        <ele>29.5</ele>
        <time>2020-06-24T09:51:52Z</time>
      </trkpt>
      <trkpt lat="50.38539" lon="3.49022">
        <ele>29.5</ele>
        <time>2020-06-24T09:51:53Z</time>
      </trkpt>
      <trkpt lat="50.38534" lon="3.49025">
        <ele>29.5</ele>
        <time>2020-06-24T09:51:54Z</time>
      </trkpt>
      <trkpt lat="50.38529" lon="3.49027">
        <ele>29.5</ele>
        <time>2020-06-24T09:51:55Z</time>
      </trkpt>
      <trkpt lat="50.38523" lon="3.49033">
        <ele>29.6</ele>
        <time>2020-06-24T09:51:56Z</time>
      </trkpt>
      <trkpt lat="50.38517" lon="3.49037">
        <ele>29.6</ele>
        <time>2020-06-24T09:51:57Z</time>
      </trkpt>
      <trkpt lat="50.38512" lon="3.49042">
        <ele>29.7</ele>
        <time>2020-06-24T09:51:58Z</time>
      </trkpt>
      <trkpt lat="50.38506" lon="3.49047">
        <ele>29.7</ele>
        <time>2020-06-24T09:51:59Z</time>
      </trkpt>
      <trkpt lat="50.385" lon="3.49053">
        <ele>29.7</ele>
        <time>2020-06-24T09:52:00Z</time>
      </trkpt>
      <trkpt lat="50.38495" lon="3.49058">
        <ele>29.8</ele>
        <time>2020-06-24T09:52:01Z</time>
      </trkpt>
      <trkpt lat="50.3849" lon="3.49062">
        <ele>29.8</ele>
        <time>2020-06-24T09:52:02Z</time>
      </trkpt>
      <trkpt lat="50.38485" lon="3.49067">
        <ele>29.8</ele>
        <time>2020-06-24T09:52:03Z</time>
      </trkpt>
      <trkpt lat="50.38479" lon="3.49071">
        <ele>29.8</ele>
        <time>2020-06-24T09:52:04Z</time>
      </trkpt>
      <trkpt lat="50.38472" lon="3.49076">
        <ele>29.9</ele>
        <time>2020-06-24T09:52:05Z</time>
      </trkpt>
      <trkpt lat="50.38466" lon="3.49079">
        <ele>29.9</ele>
        <time>2020-06-24T09:52:06Z</time>
      </trkpt>
      <trkpt lat="50.38461" lon="3.49083">
        <ele>29.9</ele>
        <time>2020-06-24T09:52:07Z</time>
      </trkpt>
      <trkpt lat="50.38455" lon="3.49086">
        <ele>30</ele>
        <time>2020-06-24T09:52:08Z</time>
      </trkpt>
      <trkpt lat="50.38449" lon="3.49089">
        <ele>30</ele>
        <time>2020-06-24T09:52:09Z</time>
      </trkpt>
      <trkpt lat="50.38443" lon="3.49093">
        <ele>30.1</ele>
        <time>2020-06-24T09:52:10Z</time>
      </trkpt>
      <trkpt lat="50.38435" lon="3.49097">
        <ele>30.1</ele>
        <time>2020-06-24T09:52:11Z</time>
      </trkpt>
      <trkpt lat="50.3843" lon="3.491">
        <ele>30.1</ele>
        <time>2020-06-24T09:52:12Z</time>
      </trkpt>
      <trkpt lat="50.38425" lon="3.49104">
        <ele>30.2</ele>
        <time>2020-06-24T09:52:13Z</time>
      </trkpt>
      <trkpt lat="50.38421" lon="3.49107">
        <ele>30.2</ele>
        <time>2020-06-24T09:52:14Z</time>
      </trkpt>
      <trkpt lat="50.38416" lon="3.4911">
        <ele>30.2</ele>
        <time>2020-06-24T09:52:15Z</time>
      </trkpt>
      <trkpt lat="50.38411" lon="3.49113">
        <ele>30.3</ele>
        <time>2020-06-24T09:52:16Z</time>
      </trkpt>
      <trkpt lat="50.38407" lon="3.49116">
        <ele>30.3</ele>
        <time>2020-06-24T09:52:17Z</time>
      </trkpt>
      <trkpt lat="50.38402" lon="3.4912">
        <ele>30.4</ele>
        <time>2020-06-24T09:52:18Z</time>
      </trkpt>
      <trkpt lat="50.38395" lon="3.49126">
        <ele>30.6</ele>
        <time>2020-06-24T09:52:19Z</time>
      </trkpt>
      <trkpt lat="50.3839" lon="3.49131">
        <ele>30.7</ele>
        <time>2020-06-24T09:52:20Z</time>
      </trkpt>
      <trkpt lat="50.38385" lon="3.49135">
        <ele>30.8</ele>
        <time>2020-06-24T09:52:21Z</time>
      </trkpt>
      <trkpt lat="50.3838" lon="3.4914">
        <ele>30.8</ele>
        <time>2020-06-24T09:52:22Z</time>
      </trkpt>
      <trkpt lat="50.38374" lon="3.49143">
        <ele>30.9</ele>
        <time>2020-06-24T09:52:23Z</time>
      </trkpt>
      <trkpt lat="50.38369" lon="3.49146">
        <ele>31</ele>
        <time>2020-06-24T09:52:24Z</time>
      </trkpt>
      <trkpt lat="50.38363" lon="3.49152">
        <ele>31.1</ele>
        <time>2020-06-24T09:52:25Z</time>
      </trkpt>
      <trkpt lat="50.3836" lon="3.49154">
        <ele>31.2</ele>
        <time>2020-06-24T09:52:26Z</time>
      </trkpt>
      <trkpt lat="50.38355" lon="3.49158">
        <ele>31.3</ele>
        <time>2020-06-24T09:52:27Z</time>
      </trkpt>
      <trkpt lat="50.38349" lon="3.49163">
        <ele>31.4</ele>
        <time>2020-06-24T09:52:28Z</time>
      </trkpt>
      <trkpt lat="50.38343" lon="3.49168">
        <ele>31.5</ele>
        <time>2020-06-24T09:52:29Z</time>
      </trkpt>
      <trkpt lat="50.38337" lon="3.49172">
        <ele>31.6</ele>
        <time>2020-06-24T09:52:30Z</time>
      </trkpt>
      <trkpt lat="50.38332" lon="3.49176">
        <ele>31.6</ele>
        <time>2020-06-24T09:52:31Z</time>
      </trkpt>
      <trkpt lat="50.38325" lon="3.49179">
        <ele>31.7</ele>
        <time>2020-06-24T09:52:32Z</time>
      </trkpt>
      <trkpt lat="50.3832" lon="3.49183">
        <ele>31.8</ele>
        <time>2020-06-24T09:52:33Z</time>
      </trkpt>
      <trkpt lat="50.38315" lon="3.49189">
        <ele>31.8</ele>
        <time>2020-06-24T09:52:34Z</time>
      </trkpt>
      <trkpt lat="50.38309" lon="3.49192">
        <ele>31.9</ele>
        <time>2020-06-24T09:52:35Z</time>
      </trkpt>
      <trkpt lat="50.38305" lon="3.49194">
        <ele>31.9</ele>
        <time>2020-06-24T09:52:36Z</time>
      </trkpt>
      <trkpt lat="50.38301" lon="3.49197">
        <ele>32</ele>
        <time>2020-06-24T09:52:37Z</time>
      </trkpt>
      <trkpt lat="50.38296" lon="3.492">
        <ele>32</ele>
        <time>2020-06-24T09:52:38Z</time>
      </trkpt>
      <trkpt lat="50.38291" lon="3.49202">
        <ele>32.1</ele>
        <time>2020-06-24T09:52:39Z</time>
      </trkpt>
      <trkpt lat="50.38285" lon="3.49206">
        <ele>32.2</ele>
        <time>2020-06-24T09:52:40Z</time>
      </trkpt>
      <trkpt lat="50.3828" lon="3.49209">
        <ele>32.2</ele>
        <time>2020-06-24T09:52:41Z</time>
      </trkpt>
      <trkpt lat="50.38274" lon="3.49213">
        <ele>32.2</ele>
        <time>2020-06-24T09:52:42Z</time>
      </trkpt>
      <trkpt lat="50.38269" lon="3.49218">
        <ele>32.2</ele>
        <time>2020-06-24T09:52:43Z</time>
      </trkpt>
      <trkpt lat="50.38265" lon="3.49223">
        <ele>32.3</ele>
        <time>2020-06-24T09:52:44Z</time>
      </trkpt>
      <trkpt lat="50.3826" lon="3.49228">
        <ele>32.3</ele>
        <time>2020-06-24T09:52:45Z</time>
      </trkpt>
      <trkpt lat="50.38253" lon="3.49233">
        <ele>32.4</ele>
        <time>2020-06-24T09:52:46Z</time>
      </trkpt>
      <trkpt lat="50.38247" lon="3.49238">
        <ele>32.5</ele>
        <time>2020-06-24T09:52:47Z</time>
      </trkpt>
      <trkpt lat="50.38241" lon="3.49243">
        <ele>32.7</ele>
        <time>2020-06-24T09:52:48Z</time>
      </trkpt>
      <trkpt lat="50.38237" lon="3.49247">
        <ele>32.7</ele>
        <time>2020-06-24T09:52:49Z</time>
      </trkpt>
      <trkpt lat="50.38231" lon="3.49253">
        <ele>32.9</ele>
        <time>2020-06-24T09:52:50Z</time>
      </trkpt>
      <trkpt lat="50.38226" lon="3.49256">
        <ele>33</ele>
        <time>2020-06-24T09:52:51Z</time>
      </trkpt>
      <trkpt lat="50.38221" lon="3.4926">
        <ele>33.1</ele>
        <time>2020-06-24T09:52:52Z</time>
      </trkpt>
      <trkpt lat="50.38216" lon="3.49265">
        <ele>33.2</ele>
        <time>2020-06-24T09:52:53Z</time>
      </trkpt>
      <trkpt lat="50.38212" lon="3.49268">
        <ele>33.2</ele>
        <time>2020-06-24T09:52:54Z</time>
      </trkpt>
      <trkpt lat="50.38206" lon="3.49272">
        <ele>33.3</ele>
        <time>2020-06-24T09:52:55Z</time>
      </trkpt>
      <trkpt lat="50.38201" lon="3.49277">
        <ele>33.4</ele>
        <time>2020-06-24T09:52:56Z</time>
      </trkpt>
      <trkpt lat="50.38196" lon="3.49282">
        <ele>33.5</ele>
        <time>2020-06-24T09:52:57Z</time>
      </trkpt>
      <trkpt lat="50.38191" lon="3.49285">
        <ele>33.6</ele>
        <time>2020-06-24T09:52:58Z</time>
      </trkpt>
      <trkpt lat="50.38186" lon="3.49291">
        <ele>33.6</ele>
        <time>2020-06-24T09:52:59Z</time>
      </trkpt>
      <trkpt lat="50.38181" lon="3.49296">
        <ele>33.7</ele>
        <time>2020-06-24T09:53:00Z</time>
      </trkpt>
      <trkpt lat="50.38176" lon="3.49301">
        <ele>33.7</ele>
        <time>2020-06-24T09:53:01Z</time>
      </trkpt>
      <trkpt lat="50.38171" lon="3.49305">
        <ele>33.8</ele>
        <time>2020-06-24T09:53:02Z</time>
      </trkpt>
      <trkpt lat="50.38166" lon="3.4931">
        <ele>33.9</ele>
        <time>2020-06-24T09:53:03Z</time>
      </trkpt>
      <trkpt lat="50.38161" lon="3.49316">
        <ele>34</ele>
        <time>2020-06-24T09:53:04Z</time>
      </trkpt>
      <trkpt lat="50.38157" lon="3.49321">
        <ele>34.1</ele>
        <time>2020-06-24T09:53:05Z</time>
      </trkpt>
      <trkpt lat="50.38152" lon="3.49325">
        <ele>34.2</ele>
        <time>2020-06-24T09:53:06Z</time>
      </trkpt>
      <trkpt lat="50.38148" lon="3.49328">
        <ele>34.2</ele>
        <time>2020-06-24T09:53:07Z</time>
      </trkpt>
      <trkpt lat="50.38143" lon="3.49332">
        <ele>34.3</ele>
        <time>2020-06-24T09:53:08Z</time>
      </trkpt>
      <trkpt lat="50.38139" lon="3.49337">
        <ele>34.3</ele>
        <time>2020-06-24T09:53:09Z</time>
      </trkpt>
      <trkpt lat="50.38134" lon="3.49341">
        <ele>34.4</ele>
        <time>2020-06-24T09:53:10Z</time>
      </trkpt>
      <trkpt lat="50.3813" lon="3.49345">
        <ele>34.4</ele>
        <time>2020-06-24T09:53:11Z</time>
      </trkpt>
      <trkpt lat="50.38123" lon="3.49352">
        <ele>34.5</ele>
        <time>2020-06-24T09:53:12Z</time>
      </trkpt>
      <trkpt lat="50.38119" lon="3.49355">
        <ele>34.5</ele>
        <time>2020-06-24T09:53:13Z</time>
      </trkpt>
      <trkpt lat="50.38114" lon="3.4936">
        <ele>34.5</ele>
        <time>2020-06-24T09:53:14Z</time>
      </trkpt>
      <trkpt lat="50.3811" lon="3.49363">
        <ele>34.5</ele>
        <time>2020-06-24T09:53:15Z</time>
      </trkpt>
      <trkpt lat="50.38106" lon="3.49367">
        <ele>34.5</ele>
        <time>2020-06-24T09:53:16Z</time>
      </trkpt>
      <trkpt lat="50.38102" lon="3.4937">
        <ele>34.5</ele>
        <time>2020-06-24T09:53:17Z</time>
      </trkpt>
      <trkpt lat="50.38097" lon="3.49375">
        <ele>34.6</ele>
        <time>2020-06-24T09:53:18Z</time>
      </trkpt>
      <trkpt lat="50.38093" lon="3.49378">
        <ele>34.6</ele>
        <time>2020-06-24T09:53:19Z</time>
      </trkpt>
      <trkpt lat="50.38087" lon="3.49384">
        <ele>34.6</ele>
        <time>2020-06-24T09:53:20Z</time>
      </trkpt>
      <trkpt lat="50.38083" lon="3.49387">
        <ele>34.6</ele>
        <time>2020-06-24T09:53:21Z</time>
      </trkpt>
      <trkpt lat="50.38078" lon="3.49392">
        <ele>34.6</ele>
        <time>2020-06-24T09:53:22Z</time>
      </trkpt>
      <trkpt lat="50.38073" lon="3.49397">
        <ele>34.8</ele>
        <time>2020-06-24T09:53:23Z</time>
      </trkpt>
      <trkpt lat="50.38069" lon="3.49401">
        <ele>34.9</ele>
        <time>2020-06-24T09:53:24Z</time>
      </trkpt>
      <trkpt lat="50.38064" lon="3.49405">
        <ele>35</ele>
        <time>2020-06-24T09:53:25Z</time>
      </trkpt>
      <trkpt lat="50.38059" lon="3.49409">
        <ele>35.1</ele>
        <time>2020-06-24T09:53:26Z</time>
      </trkpt>
      <trkpt lat="50.38054" lon="3.49414">
        <ele>35.2</ele>
        <time>2020-06-24T09:53:27Z</time>
      </trkpt>
      <trkpt lat="50.38049" lon="3.49419">
        <ele>35.3</ele>
        <time>2020-06-24T09:53:28Z</time>
      </trkpt>
      <trkpt lat="50.38043" lon="3.49421">
        <ele>35.4</ele>
        <time>2020-06-24T09:53:29Z</time>
      </trkpt>
      <trkpt lat="50.38038" lon="3.49425">
        <ele>35.5</ele>
        <time>2020-06-24T09:53:30Z</time>
      </trkpt>
      <trkpt lat="50.38035" lon="3.49429">
        <ele>35.6</ele>
        <time>2020-06-24T09:53:31Z</time>
      </trkpt>
      <trkpt lat="50.38031" lon="3.49433">
        <ele>35.7</ele>
        <time>2020-06-24T09:53:32Z</time>
      </trkpt>
      <trkpt lat="50.38025" lon="3.49439">
        <ele>35.8</ele>
        <time>2020-06-24T09:53:33Z</time>
      </trkpt>
      <trkpt lat="50.38021" lon="3.49443">
        <ele>35.9</ele>
        <time>2020-06-24T09:53:34Z</time>
      </trkpt>
      <trkpt lat="50.38016" lon="3.49448">
        <ele>35.9</ele>
        <time>2020-06-24T09:53:35Z</time>
      </trkpt>
      <trkpt lat="50.38013" lon="3.49451">
        <ele>36</ele>
        <time>2020-06-24T09:53:36Z</time>
      </trkpt>
      <trkpt lat="50.38008" lon="3.49456">
        <ele>36.1</ele>
        <time>2020-06-24T09:53:37Z</time>
      </trkpt>
      <trkpt lat="50.38003" lon="3.49461">
        <ele>36.2</ele>
        <time>2020-06-24T09:53:38Z</time>
      </trkpt>
      <trkpt lat="50.37998" lon="3.49466">
        <ele>36.2</ele>
        <time>2020-06-24T09:53:39Z</time>
      </trkpt>
      <trkpt lat="50.37994" lon="3.4947">
        <ele>36.3</ele>
        <time>2020-06-24T09:53:40Z</time>
      </trkpt>
      <trkpt lat="50.37989" lon="3.49477">
        <ele>36.4</ele>
        <time>2020-06-24T09:53:41Z</time>
      </trkpt>
      <trkpt lat="50.37984" lon="3.49481">
        <ele>36.4</ele>
        <time>2020-06-24T09:53:42Z</time>
      </trkpt>
      <trkpt lat="50.37979" lon="3.49486">
        <ele>36.5</ele>
        <time>2020-06-24T09:53:43Z</time>
      </trkpt>
      <trkpt lat="50.37974" lon="3.49489">
        <ele>36.6</ele>
        <time>2020-06-24T09:53:44Z</time>
      </trkpt>
      <trkpt lat="50.37969" lon="3.49494">
        <ele>36.6</ele>
        <time>2020-06-24T09:53:45Z</time>
      </trkpt>
      <trkpt lat="50.37964" lon="3.49498">
        <ele>36.7</ele>
        <time>2020-06-24T09:53:46Z</time>
      </trkpt>
      <trkpt lat="50.3796" lon="3.49501">
        <ele>36.8</ele>
        <time>2020-06-24T09:53:47Z</time>
      </trkpt>
      <trkpt lat="50.37957" lon="3.49506">
        <ele>36.8</ele>
        <time>2020-06-24T09:53:48Z</time>
      </trkpt>
      <trkpt lat="50.37952" lon="3.49511">
        <ele>36.9</ele>
        <time>2020-06-24T09:53:49Z</time>
      </trkpt>
      <trkpt lat="50.37949" lon="3.49515">
        <ele>37</ele>
        <time>2020-06-24T09:53:50Z</time>
      </trkpt>
      <trkpt lat="50.37944" lon="3.49518">
        <ele>37.1</ele>
        <time>2020-06-24T09:53:51Z</time>
      </trkpt>
      <trkpt lat="50.37937" lon="3.49522">
        <ele>37.2</ele>
        <time>2020-06-24T09:53:52Z</time>
      </trkpt>
      <trkpt lat="50.37932" lon="3.49526">
        <ele>37.3</ele>
        <time>2020-06-24T09:53:53Z</time>
      </trkpt>
      <trkpt lat="50.37928" lon="3.49529">
        <ele>37.4</ele>
        <time>2020-06-24T09:53:54Z</time>
      </trkpt>
      <trkpt lat="50.37924" lon="3.49535">
        <ele>37.5</ele>
        <time>2020-06-24T09:53:55Z</time>
      </trkpt>
      <trkpt lat="50.3792" lon="3.4954">
        <ele>37.5</ele>
        <time>2020-06-24T09:53:56Z</time>
      </trkpt>
      <trkpt lat="50.37916" lon="3.49544">
        <ele>37.6</ele>
        <time>2020-06-24T09:53:57Z</time>
      </trkpt>
      <trkpt lat="50.3791" lon="3.49549">
        <ele>37.7</ele>
        <time>2020-06-24T09:53:58Z</time>
      </trkpt>
      <trkpt lat="50.37906" lon="3.49553">
        <ele>37.7</ele>
        <time>2020-06-24T09:53:59Z</time>
      </trkpt>
      <trkpt lat="50.37901" lon="3.49557">
        <ele>37.8</ele>
        <time>2020-06-24T09:54:00Z</time>
      </trkpt>
      <trkpt lat="50.37895" lon="3.49559">
        <ele>37.8</ele>
        <time>2020-06-24T09:54:01Z</time>
      </trkpt>
      <trkpt lat="50.3789" lon="3.49563">
        <ele>37.8</ele>
        <time>2020-06-24T09:54:02Z</time>
      </trkpt>
      <trkpt lat="50.37887" lon="3.49567">
        <ele>37.9</ele>
        <time>2020-06-24T09:54:03Z</time>
      </trkpt>
      <trkpt lat="50.37883" lon="3.4957">
        <ele>37.9</ele>
        <time>2020-06-24T09:54:04Z</time>
      </trkpt>
      <trkpt lat="50.37878" lon="3.49575">
        <ele>38</ele>
        <time>2020-06-24T09:54:05Z</time>
      </trkpt>
      <trkpt lat="50.37875" lon="3.49579">
        <ele>38.1</ele>
        <time>2020-06-24T09:54:06Z</time>
      </trkpt>
      <trkpt lat="50.37871" lon="3.49585">
        <ele>38.2</ele>
        <time>2020-06-24T09:54:07Z</time>
      </trkpt>
      <trkpt lat="50.37866" lon="3.49592">
        <ele>38.3</ele>
        <time>2020-06-24T09:54:08Z</time>
      </trkpt>
      <trkpt lat="50.37861" lon="3.49598">
        <ele>38.4</ele>
        <time>2020-06-24T09:54:09Z</time>
      </trkpt>
      <trkpt lat="50.37856" lon="3.49605">
        <ele>38.6</ele>
        <time>2020-06-24T09:54:10Z</time>
      </trkpt>
      <trkpt lat="50.37851" lon="3.49609">
        <ele>38.7</ele>
        <time>2020-06-24T09:54:11Z</time>
      </trkpt>
      <trkpt lat="50.37845" lon="3.49614">
        <ele>38.9</ele>
        <time>2020-06-24T09:54:12Z</time>
      </trkpt>
      <trkpt lat="50.37841" lon="3.49618">
        <ele>39</ele>
        <time>2020-06-24T09:54:13Z</time>
      </trkpt>
      <trkpt lat="50.37837" lon="3.49621">
        <ele>39.1</ele>
        <time>2020-06-24T09:54:14Z</time>
      </trkpt>
      <trkpt lat="50.37832" lon="3.49626">
        <ele>39.2</ele>
        <time>2020-06-24T09:54:15Z</time>
      </trkpt>
      <trkpt lat="50.37827" lon="3.4963">
        <ele>39.3</ele>
        <time>2020-06-24T09:54:16Z</time>
      </trkpt>
      <trkpt lat="50.37823" lon="3.49636">
        <ele>39.4</ele>
        <time>2020-06-24T09:54:17Z</time>
      </trkpt>
      <trkpt lat="50.37817" lon="3.49642">
        <ele>39.6</ele>
        <time>2020-06-24T09:54:18Z</time>
      </trkpt>
      <trkpt lat="50.37812" lon="3.49648">
        <ele>39.7</ele>
        <time>2020-06-24T09:54:19Z</time>
      </trkpt>
      <trkpt lat="50.37808" lon="3.49652">
        <ele>39.8</ele>
        <time>2020-06-24T09:54:20Z</time>
      </trkpt>
      <trkpt lat="50.37803" lon="3.49658">
        <ele>40</ele>
        <time>2020-06-24T09:54:21Z</time>
      </trkpt>
      <trkpt lat="50.37798" lon="3.49662">
        <ele>40</ele>
        <time>2020-06-24T09:54:22Z</time>
      </trkpt>
      <trkpt lat="50.37794" lon="3.49667">
        <ele>40.1</ele>
        <time>2020-06-24T09:54:23Z</time>
      </trkpt>
      <trkpt lat="50.3779" lon="3.4967">
        <ele>40.1</ele>
        <time>2020-06-24T09:54:24Z</time>
      </trkpt>
      <trkpt lat="50.37786" lon="3.49672">
        <ele>40.1</ele>
        <time>2020-06-24T09:54:25Z</time>
      </trkpt>
      <trkpt lat="50.37783" lon="3.49676">
        <ele>40.2</ele>
        <time>2020-06-24T09:54:26Z</time>
      </trkpt>
      <trkpt lat="50.37777" lon="3.49679">
        <ele>40.3</ele>
        <time>2020-06-24T09:54:27Z</time>
      </trkpt>
      <trkpt lat="50.37773" lon="3.49683">
        <ele>40.3</ele>
        <time>2020-06-24T09:54:28Z</time>
      </trkpt>
      <trkpt lat="50.37769" lon="3.49687">
        <ele>40.4</ele>
        <time>2020-06-24T09:54:29Z</time>
      </trkpt>
      <trkpt lat="50.37764" lon="3.49692">
        <ele>40.5</ele>
        <time>2020-06-24T09:54:30Z</time>
      </trkpt>
      <trkpt lat="50.37759" lon="3.49696">
        <ele>40.6</ele>
        <time>2020-06-24T09:54:31Z</time>
      </trkpt>
      <trkpt lat="50.37753" lon="3.49701">
        <ele>40.7</ele>
        <time>2020-06-24T09:54:32Z</time>
      </trkpt>
      <trkpt lat="50.3775" lon="3.49707">
        <ele>40.7</ele>
        <time>2020-06-24T09:54:33Z</time>
      </trkpt>
      <trkpt lat="50.37745" lon="3.49711">
        <ele>40.8</ele>
        <time>2020-06-24T09:54:34Z</time>
      </trkpt>
      <trkpt lat="50.3774" lon="3.49717">
        <ele>40.9</ele>
        <time>2020-06-24T09:54:35Z</time>
      </trkpt>
      <trkpt lat="50.37735" lon="3.49723">
        <ele>41</ele>
        <time>2020-06-24T09:54:36Z</time>
      </trkpt>
      <trkpt lat="50.37731" lon="3.49729">
        <ele>41.1</ele>
        <time>2020-06-24T09:54:37Z</time>
      </trkpt>
      <trkpt lat="50.37726" lon="3.49735">
        <ele>41.1</ele>
        <time>2020-06-24T09:54:38Z</time>
      </trkpt>
      <trkpt lat="50.37721" lon="3.49739">
        <ele>41.2</ele>
        <time>2020-06-24T09:54:39Z</time>
      </trkpt>
      <trkpt lat="50.37718" lon="3.49743">
        <ele>41.3</ele>
        <time>2020-06-24T09:54:40Z</time>
      </trkpt>
      <trkpt lat="50.37713" lon="3.49747">
        <ele>41.3</ele>
        <time>2020-06-24T09:54:41Z</time>
      </trkpt>
      <trkpt lat="50.37709" lon="3.49751">
        <ele>41.4</ele>
        <time>2020-06-24T09:54:42Z</time>
      </trkpt>
      <trkpt lat="50.37705" lon="3.49756">
        <ele>41.4</ele>
        <time>2020-06-24T09:54:43Z</time>
      </trkpt>
      <trkpt lat="50.37701" lon="3.49761">
        <ele>41.5</ele>
        <time>2020-06-24T09:54:44Z</time>
      </trkpt>
      <trkpt lat="50.37697" lon="3.49766">
        <ele>41.5</ele>
        <time>2020-06-24T09:54:45Z</time>
      </trkpt>
      <trkpt lat="50.37693" lon="3.49771">
        <ele>41.6</ele>
        <time>2020-06-24T09:54:46Z</time>
      </trkpt>
      <trkpt lat="50.37688" lon="3.49776">
        <ele>41.7</ele>
        <time>2020-06-24T09:54:47Z</time>
      </trkpt>
      <trkpt lat="50.37683" lon="3.49782">
        <ele>41.8</ele>
        <time>2020-06-24T09:54:48Z</time>
      </trkpt>
      <trkpt lat="50.37678" lon="3.49786">
        <ele>41.9</ele>
        <time>2020-06-24T09:54:49Z</time>
      </trkpt>
      <trkpt lat="50.37674" lon="3.4979">
        <ele>41.9</ele>
        <time>2020-06-24T09:54:50Z</time>
      </trkpt>
      <trkpt lat="50.37669" lon="3.49794">
        <ele>42</ele>
        <time>2020-06-24T09:54:51Z</time>
      </trkpt>
      <trkpt lat="50.37664" lon="3.49799">
        <ele>42.1</ele>
        <time>2020-06-24T09:54:52Z</time>
      </trkpt>
      <trkpt lat="50.3766" lon="3.49803">
        <ele>42.2</ele>
        <time>2020-06-24T09:54:53Z</time>
      </trkpt>
      <trkpt lat="50.37655" lon="3.49807">
        <ele>42.2</ele>
        <time>2020-06-24T09:54:54Z</time>
      </trkpt>
      <trkpt lat="50.37652" lon="3.49811">
        <ele>42.2</ele>
        <time>2020-06-24T09:54:55Z</time>
      </trkpt>
      <trkpt lat="50.37648" lon="3.49814">
        <ele>42.3</ele>
        <time>2020-06-24T09:54:56Z</time>
      </trkpt>
      <trkpt lat="50.37646" lon="3.49816">
        <ele>42.3</ele>
        <time>2020-06-24T09:54:57Z</time>
      </trkpt>
      <trkpt lat="50.37641" lon="3.49818">
        <ele>42.3</ele>
        <time>2020-06-24T09:54:58Z</time>
      </trkpt>
      <trkpt lat="50.37637" lon="3.49821">
        <ele>42.4</ele>
        <time>2020-06-24T09:54:59Z</time>
      </trkpt>
      <trkpt lat="50.37633" lon="3.49824">
        <ele>42.4</ele>
        <time>2020-06-24T09:55:00Z</time>
      </trkpt>
      <trkpt lat="50.37628" lon="3.49828">
        <ele>42.5</ele>
        <time>2020-06-24T09:55:01Z</time>
      </trkpt>
      <trkpt lat="50.37623" lon="3.49832">
        <ele>42.6</ele>
        <time>2020-06-24T09:55:02Z</time>
      </trkpt>
      <trkpt lat="50.37618" lon="3.49836">
        <ele>42.6</ele>
        <time>2020-06-24T09:55:03Z</time>
      </trkpt>
      <trkpt lat="50.37614" lon="3.4984">
        <ele>42.7</ele>
        <time>2020-06-24T09:55:04Z</time>
      </trkpt>
      <trkpt lat="50.37609" lon="3.49844">
        <ele>42.8</ele>
        <time>2020-06-24T09:55:05Z</time>
      </trkpt>
      <trkpt lat="50.37606" lon="3.49848">
        <ele>42.8</ele>
        <time>2020-06-24T09:55:06Z</time>
      </trkpt>
      <trkpt lat="50.376" lon="3.49852">
        <ele>42.8</ele>
        <time>2020-06-24T09:55:07Z</time>
      </trkpt>
      <trkpt lat="50.37597" lon="3.49854">
        <ele>42.9</ele>
        <time>2020-06-24T09:55:08Z</time>
      </trkpt>
      <trkpt lat="50.37593" lon="3.49858">
        <ele>42.9</ele>
        <time>2020-06-24T09:55:09Z</time>
      </trkpt>
      <trkpt lat="50.3759" lon="3.49862">
        <ele>43</ele>
        <time>2020-06-24T09:55:10Z</time>
      </trkpt>
      <trkpt lat="50.37586" lon="3.49866">
        <ele>43.1</ele>
        <time>2020-06-24T09:55:11Z</time>
      </trkpt>
      <trkpt lat="50.37582" lon="3.4987">
        <ele>43.1</ele>
        <time>2020-06-24T09:55:12Z</time>
      </trkpt>
      <trkpt lat="50.37576" lon="3.49875">
        <ele>43.2</ele>
        <time>2020-06-24T09:55:13Z</time>
      </trkpt>
      <trkpt lat="50.37572" lon="3.49879">
        <ele>43.3</ele>
        <time>2020-06-24T09:55:14Z</time>
      </trkpt>
      <trkpt lat="50.37569" lon="3.49882">
        <ele>43.4</ele>
        <time>2020-06-24T09:55:15Z</time>
      </trkpt>
      <trkpt lat="50.37564" lon="3.49887">
        <ele>43.4</ele>
        <time>2020-06-24T09:55:16Z</time>
      </trkpt>
      <trkpt lat="50.37559" lon="3.49891">
        <ele>43.5</ele>
        <time>2020-06-24T09:55:17Z</time>
      </trkpt>
      <trkpt lat="50.37554" lon="3.49895">
        <ele>43.6</ele>
        <time>2020-06-24T09:55:18Z</time>
      </trkpt>
      <trkpt lat="50.37549" lon="3.49898">
        <ele>43.7</ele>
        <time>2020-06-24T09:55:19Z</time>
      </trkpt>
      <trkpt lat="50.37544" lon="3.49903">
        <ele>43.8</ele>
        <time>2020-06-24T09:55:20Z</time>
      </trkpt>
      <trkpt lat="50.37539" lon="3.49906">
        <ele>43.9</ele>
        <time>2020-06-24T09:55:21Z</time>
      </trkpt>
      <trkpt lat="50.37535" lon="3.49911">
        <ele>44</ele>
        <time>2020-06-24T09:55:22Z</time>
      </trkpt>
      <trkpt lat="50.37531" lon="3.49915">
        <ele>44</ele>
        <time>2020-06-24T09:55:23Z</time>
      </trkpt>
      <trkpt lat="50.37527" lon="3.49919">
        <ele>44.1</ele>
        <time>2020-06-24T09:55:24Z</time>
      </trkpt>
      <trkpt lat="50.37523" lon="3.49923">
        <ele>44.1</ele>
        <time>2020-06-24T09:55:25Z</time>
      </trkpt>
      <trkpt lat="50.3752" lon="3.49925">
        <ele>44.2</ele>
        <time>2020-06-24T09:55:26Z</time>
      </trkpt>
      <trkpt lat="50.37515" lon="3.49929">
        <ele>44.3</ele>
        <time>2020-06-24T09:55:27Z</time>
      </trkpt>
      <trkpt lat="50.3751" lon="3.49932">
        <ele>44.4</ele>
        <time>2020-06-24T09:55:28Z</time>
      </trkpt>
      <trkpt lat="50.37507" lon="3.49936">
        <ele>44.4</ele>
        <time>2020-06-24T09:55:29Z</time>
      </trkpt>
      <trkpt lat="50.37503" lon="3.49939">
        <ele>44.5</ele>
        <time>2020-06-24T09:55:30Z</time>
      </trkpt>
      <trkpt lat="50.37498" lon="3.49944">
        <ele>44.7</ele>
        <time>2020-06-24T09:55:31Z</time>
      </trkpt>
      <trkpt lat="50.37494" lon="3.49947">
        <ele>44.8</ele>
        <time>2020-06-24T09:55:32Z</time>
      </trkpt>
      <trkpt lat="50.37489" lon="3.49951">
        <ele>44.9</ele>
        <time>2020-06-24T09:55:33Z</time>
      </trkpt>
      <trkpt lat="50.37485" lon="3.49956">
        <ele>45</ele>
        <time>2020-06-24T09:55:34Z</time>
      </trkpt>
      <trkpt lat="50.37481" lon="3.4996">
        <ele>45.1</ele>
        <time>2020-06-24T09:55:35Z</time>
      </trkpt>
      <trkpt lat="50.37477" lon="3.49964">
        <ele>45.1</ele>
        <time>2020-06-24T09:55:36Z</time>
      </trkpt>
      <trkpt lat="50.37472" lon="3.49969">
        <ele>45.2</ele>
        <time>2020-06-24T09:55:37Z</time>
      </trkpt>
      <trkpt lat="50.37468" lon="3.49972">
        <ele>45.3</ele>
        <time>2020-06-24T09:55:38Z</time>
      </trkpt>
      <trkpt lat="50.37464" lon="3.49976">
        <ele>45.4</ele>
        <time>2020-06-24T09:55:39Z</time>
      </trkpt>
      <trkpt lat="50.3746" lon="3.4998">
        <ele>45.6</ele>
        <time>2020-06-24T09:55:40Z</time>
      </trkpt>
      <trkpt lat="50.37457" lon="3.49984">
        <ele>45.7</ele>
        <time>2020-06-24T09:55:41Z</time>
      </trkpt>
      <trkpt lat="50.37452" lon="3.49989">
        <ele>45.8</ele>
        <time>2020-06-24T09:55:42Z</time>
      </trkpt>
      <trkpt lat="50.37446" lon="3.49994">
        <ele>45.9</ele>
        <time>2020-06-24T09:55:43Z</time>
      </trkpt>
      <trkpt lat="50.37441" lon="3.5">
        <ele>46</ele>
        <time>2020-06-24T09:55:44Z</time>
      </trkpt>
      <trkpt lat="50.37437" lon="3.50003">
        <ele>46.1</ele>
        <time>2020-06-24T09:55:45Z</time>
      </trkpt>
      <trkpt lat="50.37432" lon="3.50008">
        <ele>46.3</ele>
        <time>2020-06-24T09:55:46Z</time>
      </trkpt>
      <trkpt lat="50.37427" lon="3.50013">
        <ele>46.4</ele>
        <time>2020-06-24T09:55:47Z</time>
      </trkpt>
      <trkpt lat="50.37423" lon="3.50018">
        <ele>46.6</ele>
        <time>2020-06-24T09:55:48Z</time>
      </trkpt>
      <trkpt lat="50.37418" lon="3.50022">
        <ele>46.7</ele>
        <time>2020-06-24T09:55:49Z</time>
      </trkpt>
      <trkpt lat="50.37414" lon="3.50025">
        <ele>46.8</ele>
        <time>2020-06-24T09:55:50Z</time>
      </trkpt>
      <trkpt lat="50.37411" lon="3.50029">
        <ele>46.9</ele>
        <time>2020-06-24T09:55:51Z</time>
      </trkpt>
      <trkpt lat="50.37407" lon="3.50034">
        <ele>47</ele>
        <time>2020-06-24T09:55:52Z</time>
      </trkpt>
      <trkpt lat="50.37402" lon="3.50038">
        <ele>47.2</ele>
        <time>2020-06-24T09:55:53Z</time>
      </trkpt>
      <trkpt lat="50.37398" lon="3.50043">
        <ele>47.3</ele>
        <time>2020-06-24T09:55:54Z</time>
      </trkpt>
      <trkpt lat="50.37392" lon="3.50048">
        <ele>47.5</ele>
        <time>2020-06-24T09:55:55Z</time>
      </trkpt>
      <trkpt lat="50.37387" lon="3.50053">
        <ele>47.7</ele>
        <time>2020-06-24T09:55:56Z</time>
      </trkpt>
      <trkpt lat="50.37383" lon="3.50056">
        <ele>47.8</ele>
        <time>2020-06-24T09:55:57Z</time>
      </trkpt>
      <trkpt lat="50.37379" lon="3.5006">
        <ele>47.9</ele>
        <time>2020-06-24T09:55:58Z</time>
      </trkpt>
      <trkpt lat="50.37376" lon="3.50064">
        <ele>48.1</ele>
        <time>2020-06-24T09:55:59Z</time>
      </trkpt>
      <trkpt lat="50.37372" lon="3.50069">
        <ele>48.2</ele>
        <time>2020-06-24T09:56:00Z</time>
      </trkpt>
      <trkpt lat="50.37367" lon="3.50072">
        <ele>48.3</ele>
        <time>2020-06-24T09:56:01Z</time>
      </trkpt>
      <trkpt lat="50.37363" lon="3.50075">
        <ele>48.5</ele>
        <time>2020-06-24T09:56:02Z</time>
      </trkpt>
      <trkpt lat="50.37359" lon="3.50078">
        <ele>48.6</ele>
        <time>2020-06-24T09:56:03Z</time>
      </trkpt>
      <trkpt lat="50.37353" lon="3.50082">
        <ele>48.8</ele>
        <time>2020-06-24T09:56:04Z</time>
      </trkpt>
      <trkpt lat="50.37349" lon="3.50085">
        <ele>49</ele>
        <time>2020-06-24T09:56:05Z</time>
      </trkpt>
      <trkpt lat="50.37345" lon="3.50088">
        <ele>49.2</ele>
        <time>2020-06-24T09:56:06Z</time>
      </trkpt>
      <trkpt lat="50.37341" lon="3.5009">
        <ele>49.3</ele>
        <time>2020-06-24T09:56:07Z</time>
      </trkpt>
      <trkpt lat="50.37338" lon="3.50093">
        <ele>49.4</ele>
        <time>2020-06-24T09:56:08Z</time>
      </trkpt>
      <trkpt lat="50.37334" lon="3.50097">
        <ele>49.6</ele>
        <time>2020-06-24T09:56:09Z</time>
      </trkpt>
      <trkpt lat="50.37329" lon="3.50101">
        <ele>49.7</ele>
        <time>2020-06-24T09:56:10Z</time>
      </trkpt>
      <trkpt lat="50.37326" lon="3.50105">
        <ele>49.8</ele>
        <time>2020-06-24T09:56:11Z</time>
      </trkpt>
      <trkpt lat="50.37323" lon="3.50108">
        <ele>49.8</ele>
        <time>2020-06-24T09:56:12Z</time>
      </trkpt>
      <trkpt lat="50.37321" lon="3.50112">
        <ele>49.9</ele>
        <time>2020-06-24T09:56:13Z</time>
      </trkpt>
      <trkpt lat="50.37318" lon="3.50116">
        <ele>50</ele>
        <time>2020-06-24T09:56:14Z</time>
      </trkpt>
      <trkpt lat="50.37318" lon="3.50118">
        <ele>50</ele>
        <time>2020-06-24T09:56:15Z</time>
      </trkpt>
      <trkpt lat="50.37316" lon="3.50119">
        <ele>50</ele>
        <time>2020-06-24T09:56:16Z</time>
      </trkpt>
      <trkpt lat="50.37314" lon="3.50122">
        <ele>50.1</ele>
        <time>2020-06-24T09:56:17Z</time>
      </trkpt>
      <trkpt lat="50.37312" lon="3.50125">
        <ele>50.1</ele>
        <time>2020-06-24T09:56:18Z</time>
      </trkpt>
      <trkpt lat="50.37311" lon="3.50126">
        <ele>50.1</ele>
        <time>2020-06-24T09:56:19Z</time>
      </trkpt>
      <trkpt lat="50.37308" lon="3.50128">
        <ele>50.2</ele>
        <time>2020-06-24T09:56:20Z</time>
      </trkpt>
      <trkpt lat="50.37305" lon="3.50131">
        <ele>50.2</ele>
        <time>2020-06-24T09:56:21Z</time>
      </trkpt>
      <trkpt lat="50.37301" lon="3.50135">
        <ele>50.2</ele>
        <time>2020-06-24T09:56:22Z</time>
      </trkpt>
      <trkpt lat="50.373" lon="3.50136">
        <ele>50.2</ele>
        <time>2020-06-24T09:56:23Z</time>
      </trkpt>
      <trkpt lat="50.37296" lon="3.5014">
        <ele>50.2</ele>
        <time>2020-06-24T09:56:24Z</time>
      </trkpt>
      <trkpt lat="50.37291" lon="3.50143">
        <ele>50.3</ele>
        <time>2020-06-24T09:56:25Z</time>
      </trkpt>
      <trkpt lat="50.37287" lon="3.50147">
        <ele>50.3</ele>
        <time>2020-06-24T09:56:26Z</time>
      </trkpt>
      <trkpt lat="50.37284" lon="3.50151">
        <ele>50.3</ele>
        <time>2020-06-24T09:56:27Z</time>
      </trkpt>
      <trkpt lat="50.37279" lon="3.50155">
        <ele>50.2</ele>
        <time>2020-06-24T09:56:28Z</time>
      </trkpt>
      <trkpt lat="50.37275" lon="3.50159">
        <ele>50.2</ele>
        <time>2020-06-24T09:56:29Z</time>
      </trkpt>
      <trkpt lat="50.3727" lon="3.50163">
        <ele>50.3</ele>
        <time>2020-06-24T09:56:30Z</time>
      </trkpt>
      <trkpt lat="50.37266" lon="3.50165">
        <ele>50.3</ele>
        <time>2020-06-24T09:56:31Z</time>
      </trkpt>
      <trkpt lat="50.37261" lon="3.50169">
        <ele>50.4</ele>
        <time>2020-06-24T09:56:32Z</time>
      </trkpt>
      <trkpt lat="50.37255" lon="3.50175">
        <ele>50.4</ele>
        <time>2020-06-24T09:56:33Z</time>
      </trkpt>
      <trkpt lat="50.3725" lon="3.50182">
        <ele>50.5</ele>
        <time>2020-06-24T09:56:34Z</time>
      </trkpt>
      <trkpt lat="50.37246" lon="3.50188">
        <ele>50.5</ele>
        <time>2020-06-24T09:56:35Z</time>
      </trkpt>
      <trkpt lat="50.37241" lon="3.50192">
        <ele>50.5</ele>
        <time>2020-06-24T09:56:36Z</time>
      </trkpt>
      <trkpt lat="50.37236" lon="3.50197">
        <ele>50.6</ele>
        <time>2020-06-24T09:56:37Z</time>
      </trkpt>
      <trkpt lat="50.37231" lon="3.50202">
        <ele>50.6</ele>
        <time>2020-06-24T09:56:38Z</time>
      </trkpt>
      <trkpt lat="50.37225" lon="3.50206">
        <ele>50.6</ele>
        <time>2020-06-24T09:56:39Z</time>
      </trkpt>
      <trkpt lat="50.3722" lon="3.50211">
        <ele>50.7</ele>
        <time>2020-06-24T09:56:40Z</time>
      </trkpt>
      <trkpt lat="50.37216" lon="3.50216">
        <ele>50.7</ele>
        <time>2020-06-24T09:56:41Z</time>
      </trkpt>
      <trkpt lat="50.3721" lon="3.50221">
        <ele>50.7</ele>
        <time>2020-06-24T09:56:42Z</time>
      </trkpt>
      <trkpt lat="50.37205" lon="3.50225">
        <ele>50.7</ele>
        <time>2020-06-24T09:56:43Z</time>
      </trkpt>
      <trkpt lat="50.37201" lon="3.5023">
        <ele>50.7</ele>
        <time>2020-06-24T09:56:44Z</time>
      </trkpt>
      <trkpt lat="50.37195" lon="3.50234">
        <ele>50.7</ele>
        <time>2020-06-24T09:56:45Z</time>
      </trkpt>
      <trkpt lat="50.37189" lon="3.5024">
        <ele>50.8</ele>
        <time>2020-06-24T09:56:46Z</time>
      </trkpt>
      <trkpt lat="50.37183" lon="3.50244">
        <ele>50.8</ele>
        <time>2020-06-24T09:56:47Z</time>
      </trkpt>
      <trkpt lat="50.37178" lon="3.5025">
        <ele>50.8</ele>
        <time>2020-06-24T09:56:48Z</time>
      </trkpt>
      <trkpt lat="50.37173" lon="3.50256">
        <ele>50.8</ele>
        <time>2020-06-24T09:56:49Z</time>
      </trkpt>
      <trkpt lat="50.37169" lon="3.50259">
        <ele>50.8</ele>
        <time>2020-06-24T09:56:50Z</time>
      </trkpt>
      <trkpt lat="50.37165" lon="3.50264">
        <ele>50.7</ele>
        <time>2020-06-24T09:56:51Z</time>
      </trkpt>
      <trkpt lat="50.37161" lon="3.50267">
        <ele>50.7</ele>
        <time>2020-06-24T09:56:52Z</time>
      </trkpt>
      <trkpt lat="50.37156" lon="3.50272">
        <ele>50.6</ele>
        <time>2020-06-24T09:56:53Z</time>
      </trkpt>
      <trkpt lat="50.37152" lon="3.50277">
        <ele>50.6</ele>
        <time>2020-06-24T09:56:54Z</time>
      </trkpt>
      <trkpt lat="50.37147" lon="3.50281">
        <ele>50.5</ele>
        <time>2020-06-24T09:56:55Z</time>
      </trkpt>
      <trkpt lat="50.37143" lon="3.50285">
        <ele>50.4</ele>
        <time>2020-06-24T09:56:56Z</time>
      </trkpt>
      <trkpt lat="50.37138" lon="3.5029">
        <ele>50.4</ele>
        <time>2020-06-24T09:56:57Z</time>
      </trkpt>
      <trkpt lat="50.37133" lon="3.50294">
        <ele>50.3</ele>
        <time>2020-06-24T09:56:58Z</time>
      </trkpt>
      <trkpt lat="50.37128" lon="3.50298">
        <ele>50.2</ele>
        <time>2020-06-24T09:56:59Z</time>
      </trkpt>
      <trkpt lat="50.37122" lon="3.50303">
        <ele>50.2</ele>
        <time>2020-06-24T09:57:00Z</time>
      </trkpt>
      <trkpt lat="50.37116" lon="3.50307">
        <ele>50.1</ele>
        <time>2020-06-24T09:57:01Z</time>
      </trkpt>
      <trkpt lat="50.37109" lon="3.50309">
        <ele>50</ele>
        <time>2020-06-24T09:57:02Z</time>
      </trkpt>
      <trkpt lat="50.37104" lon="3.50309">
        <ele>50</ele>
        <time>2020-06-24T09:57:03Z</time>
      </trkpt>
      <trkpt lat="50.37101" lon="3.50308">
        <ele>50</ele>
        <time>2020-06-24T09:57:04Z</time>
      </trkpt>
      <trkpt lat="50.37098" lon="3.50305">
        <ele>50</ele>
        <time>2020-06-24T09:57:05Z</time>
      </trkpt>
      <trkpt lat="50.37095" lon="3.50302">
        <ele>49.9</ele>
        <time>2020-06-24T09:57:06Z</time>
      </trkpt>
      <trkpt lat="50.37091" lon="3.50303">
        <ele>49.9</ele>
        <time>2020-06-24T09:57:07Z</time>
      </trkpt>
      <trkpt lat="50.37086" lon="3.50306">
        <ele>49.7</ele>
        <time>2020-06-24T09:57:08Z</time>
      </trkpt>
      <trkpt lat="50.37082" lon="3.50311">
        <ele>49.7</ele>
        <time>2020-06-24T09:57:09Z</time>
      </trkpt>
      <trkpt lat="50.3708" lon="3.50317">
        <ele>49.6</ele>
        <time>2020-06-24T09:57:10Z</time>
      </trkpt>
      <trkpt lat="50.3708" lon="3.50325">
        <ele>49.6</ele>
        <time>2020-06-24T09:57:11Z</time>
      </trkpt>
      <trkpt lat="50.37079" lon="3.50333">
        <ele>49.5</ele>
        <time>2020-06-24T09:57:12Z</time>
      </trkpt>
      <trkpt lat="50.37079" lon="3.50341">
        <ele>49.4</ele>
        <time>2020-06-24T09:57:13Z</time>
      </trkpt>
      <trkpt lat="50.37079" lon="3.50346">
        <ele>49.3</ele>
        <time>2020-06-24T09:57:14Z</time>
      </trkpt>
      <trkpt lat="50.37076" lon="3.5035">
        <ele>49.3</ele>
        <time>2020-06-24T09:57:15Z</time>
      </trkpt>
      <trkpt lat="50.37074" lon="3.50351">
        <ele>49.2</ele>
        <time>2020-06-24T09:57:16Z</time>
      </trkpt>
      <trkpt lat="50.37071" lon="3.50354">
        <ele>49.1</ele>
        <time>2020-06-24T09:57:17Z</time>
      </trkpt>
      <trkpt lat="50.37067" lon="3.50356">
        <ele>49</ele>
        <time>2020-06-24T09:57:18Z</time>
      </trkpt>
      <trkpt lat="50.37065" lon="3.50358">
        <ele>49</ele>
        <time>2020-06-24T09:57:19Z</time>
      </trkpt>
      <trkpt lat="50.37062" lon="3.5036">
        <ele>48.9</ele>
        <time>2020-06-24T09:57:20Z</time>
      </trkpt>
      <trkpt lat="50.37059" lon="3.50362">
        <ele>48.8</ele>
        <time>2020-06-24T09:57:21Z</time>
      </trkpt>
      <trkpt lat="50.37054" lon="3.50366">
        <ele>48.7</ele>
        <time>2020-06-24T09:57:22Z</time>
      </trkpt>
      <trkpt lat="50.37051" lon="3.50369">
        <ele>48.6</ele>
        <time>2020-06-24T09:57:23Z</time>
      </trkpt>
      <trkpt lat="50.37046" lon="3.50372">
        <ele>48.5</ele>
        <time>2020-06-24T09:57:24Z</time>
      </trkpt>
      <trkpt lat="50.37042" lon="3.50376">
        <ele>48.5</ele>
        <time>2020-06-24T09:57:25Z</time>
      </trkpt>
      <trkpt lat="50.37038" lon="3.50379">
        <ele>48.5</ele>
        <time>2020-06-24T09:57:26Z</time>
      </trkpt>
      <trkpt lat="50.37034" lon="3.50383">
        <ele>48.4</ele>
        <time>2020-06-24T09:57:27Z</time>
      </trkpt>
      <trkpt lat="50.37031" lon="3.50385">
        <ele>48.3</ele>
        <time>2020-06-24T09:57:28Z</time>
      </trkpt>
      <trkpt lat="50.37029" lon="3.50388">
        <ele>48.3</ele>
        <time>2020-06-24T09:57:29Z</time>
      </trkpt>
      <trkpt lat="50.37027" lon="3.50388">
        <ele>48.3</ele>
        <time>2020-06-24T09:57:30Z</time>
      </trkpt>
      <trkpt lat="50.37024" lon="3.50391">
        <ele>48.3</ele>
        <time>2020-06-24T09:57:31Z</time>
      </trkpt>
      <trkpt lat="50.3702" lon="3.50393">
        <ele>48.4</ele>
        <time>2020-06-24T09:57:32Z</time>
      </trkpt>
      <trkpt lat="50.37017" lon="3.50396">
        <ele>48.5</ele>
        <time>2020-06-24T09:57:33Z</time>
      </trkpt>
      <trkpt lat="50.37013" lon="3.50401">
        <ele>48.5</ele>
        <time>2020-06-24T09:57:34Z</time>
      </trkpt>
      <trkpt lat="50.37011" lon="3.50405">
        <ele>48.3</ele>
        <time>2020-06-24T09:57:35Z</time>
      </trkpt>
      <trkpt lat="50.37006" lon="3.50415">
        <ele>48</ele>
        <time>2020-06-24T09:57:36Z</time>
      </trkpt>
      <trkpt lat="50.37002" lon="3.50421">
        <ele>47.8</ele>
        <time>2020-06-24T09:57:37Z</time>
      </trkpt>
      <trkpt lat="50.36998" lon="3.50428">
        <ele>47.6</ele>
        <time>2020-06-24T09:57:38Z</time>
      </trkpt>
      <trkpt lat="50.36994" lon="3.50435">
        <ele>47.3</ele>
        <time>2020-06-24T09:57:39Z</time>
      </trkpt>
      <trkpt lat="50.36989" lon="3.50442">
        <ele>47.1</ele>
        <time>2020-06-24T09:57:40Z</time>
      </trkpt>
      <trkpt lat="50.36986" lon="3.50447">
        <ele>47</ele>
        <time>2020-06-24T09:57:41Z</time>
      </trkpt>
      <trkpt lat="50.36981" lon="3.50455">
        <ele>46.8</ele>
        <time>2020-06-24T09:57:42Z</time>
      </trkpt>
      <trkpt lat="50.36975" lon="3.50461">
        <ele>46.6</ele>
        <time>2020-06-24T09:57:43Z</time>
      </trkpt>
      <trkpt lat="50.36972" lon="3.50467">
        <ele>46.6</ele>
        <time>2020-06-24T09:57:44Z</time>
      </trkpt>
      <trkpt lat="50.36968" lon="3.50473">
        <ele>46.5</ele>
        <time>2020-06-24T09:57:45Z</time>
      </trkpt>
      <trkpt lat="50.36964" lon="3.5048">
        <ele>46.4</ele>
        <time>2020-06-24T09:57:46Z</time>
      </trkpt>
      <trkpt lat="50.3696" lon="3.50487">
        <ele>46.2</ele>
        <time>2020-06-24T09:57:47Z</time>
      </trkpt>
      <trkpt lat="50.36955" lon="3.50496">
        <ele>46.1</ele>
        <time>2020-06-24T09:57:48Z</time>
      </trkpt>
      <trkpt lat="50.36951" lon="3.50503">
        <ele>45.9</ele>
        <time>2020-06-24T09:57:49Z</time>
      </trkpt>
      <trkpt lat="50.36946" lon="3.5051">
        <ele>45.7</ele>
        <time>2020-06-24T09:57:50Z</time>
      </trkpt>
      <trkpt lat="50.36942" lon="3.50517">
        <ele>45.5</ele>
        <time>2020-06-24T09:57:51Z</time>
      </trkpt>
      <trkpt lat="50.36937" lon="3.50525">
        <ele>45.3</ele>
        <time>2020-06-24T09:57:52Z</time>
      </trkpt>
      <trkpt lat="50.36932" lon="3.50533">
        <ele>45.1</ele>
        <time>2020-06-24T09:57:53Z</time>
      </trkpt>
      <trkpt lat="50.36927" lon="3.50542">
        <ele>44.9</ele>
        <time>2020-06-24T09:57:54Z</time>
      </trkpt>
      <trkpt lat="50.36922" lon="3.50552">
        <ele>44.3</ele>
        <time>2020-06-24T09:57:55Z</time>
      </trkpt>
      <trkpt lat="50.36917" lon="3.50562">
        <ele>44</ele>
        <time>2020-06-24T09:57:56Z</time>
      </trkpt>
      <trkpt lat="50.36912" lon="3.50571">
        <ele>43.7</ele>
        <time>2020-06-24T09:57:57Z</time>
      </trkpt>
      <trkpt lat="50.36908" lon="3.5058">
        <ele>43.4</ele>
        <time>2020-06-24T09:57:58Z</time>
      </trkpt>
      <trkpt lat="50.36904" lon="3.5059">
        <ele>43.1</ele>
        <time>2020-06-24T09:57:59Z</time>
      </trkpt>
      <trkpt lat="50.369" lon="3.506">
        <ele>42.8</ele>
        <time>2020-06-24T09:58:00Z</time>
      </trkpt>
      <trkpt lat="50.36897" lon="3.50608">
        <ele>42.6</ele>
        <time>2020-06-24T09:58:01Z</time>
      </trkpt>
      <trkpt lat="50.36894" lon="3.50618">
        <ele>42.3</ele>
        <time>2020-06-24T09:58:02Z</time>
      </trkpt>
      <trkpt lat="50.36891" lon="3.50629">
        <ele>42.1</ele>
        <time>2020-06-24T09:58:03Z</time>
      </trkpt>
      <trkpt lat="50.36889" lon="3.50641">
        <ele>41.8</ele>
        <time>2020-06-24T09:58:04Z</time>
      </trkpt>
      <trkpt lat="50.36886" lon="3.50652">
        <ele>41.6</ele>
        <time>2020-06-24T09:58:05Z</time>
      </trkpt>
      <trkpt lat="50.36883" lon="3.50663">
        <ele>41.5</ele>
        <time>2020-06-24T09:58:06Z</time>
      </trkpt>
      <trkpt lat="50.3688" lon="3.50673">
        <ele>41.3</ele>
        <time>2020-06-24T09:58:07Z</time>
      </trkpt>
      <trkpt lat="50.36876" lon="3.50684">
        <ele>41.1</ele>
        <time>2020-06-24T09:58:08Z</time>
      </trkpt>
      <trkpt lat="50.36873" lon="3.50695">
        <ele>40.9</ele>
        <time>2020-06-24T09:58:09Z</time>
      </trkpt>
      <trkpt lat="50.36868" lon="3.50704">
        <ele>40.7</ele>
        <time>2020-06-24T09:58:10Z</time>
      </trkpt>
      <trkpt lat="50.36864" lon="3.50713">
        <ele>40.6</ele>
        <time>2020-06-24T09:58:11Z</time>
      </trkpt>
      <trkpt lat="50.3686" lon="3.50722">
        <ele>40.4</ele>
        <time>2020-06-24T09:58:12Z</time>
      </trkpt>
      <trkpt lat="50.36855" lon="3.5073">
        <ele>40.3</ele>
        <time>2020-06-24T09:58:13Z</time>
      </trkpt>
      <trkpt lat="50.36851" lon="3.50739">
        <ele>40.2</ele>
        <time>2020-06-24T09:58:14Z</time>
      </trkpt>
      <trkpt lat="50.36846" lon="3.50748">
        <ele>40.1</ele>
        <time>2020-06-24T09:58:15Z</time>
      </trkpt>
      <trkpt lat="50.36842" lon="3.50756">
        <ele>40</ele>
        <time>2020-06-24T09:58:16Z</time>
      </trkpt>
      <trkpt lat="50.36838" lon="3.50764">
        <ele>39.8</ele>
        <time>2020-06-24T09:58:17Z</time>
      </trkpt>
      <trkpt lat="50.36834" lon="3.50772">
        <ele>39.7</ele>
        <time>2020-06-24T09:58:18Z</time>
      </trkpt>
      <trkpt lat="50.3683" lon="3.50781">
        <ele>39.6</ele>
        <time>2020-06-24T09:58:19Z</time>
      </trkpt>
      <trkpt lat="50.36825" lon="3.50789">
        <ele>39.3</ele>
        <time>2020-06-24T09:58:20Z</time>
      </trkpt>
      <trkpt lat="50.36821" lon="3.50797">
        <ele>39.2</ele>
        <time>2020-06-24T09:58:21Z</time>
      </trkpt>
      <trkpt lat="50.36818" lon="3.50804">
        <ele>39.1</ele>
        <time>2020-06-24T09:58:22Z</time>
      </trkpt>
      <trkpt lat="50.36814" lon="3.50812">
        <ele>39</ele>
        <time>2020-06-24T09:58:23Z</time>
      </trkpt>
      <trkpt lat="50.36809" lon="3.5082">
        <ele>38.9</ele>
        <time>2020-06-24T09:58:24Z</time>
      </trkpt>
      <trkpt lat="50.36805" lon="3.50828">
        <ele>38.8</ele>
        <time>2020-06-24T09:58:25Z</time>
      </trkpt>
      <trkpt lat="50.368" lon="3.50835">
        <ele>38.7</ele>
        <time>2020-06-24T09:58:26Z</time>
      </trkpt>
      <trkpt lat="50.36796" lon="3.50845">
        <ele>38.6</ele>
        <time>2020-06-24T09:58:27Z</time>
      </trkpt>
      <trkpt lat="50.36793" lon="3.50854">
        <ele>38.5</ele>
        <time>2020-06-24T09:58:28Z</time>
      </trkpt>
      <trkpt lat="50.36789" lon="3.50863">
        <ele>38.4</ele>
        <time>2020-06-24T09:58:29Z</time>
      </trkpt>
      <trkpt lat="50.36786" lon="3.50871">
        <ele>38.3</ele>
        <time>2020-06-24T09:58:30Z</time>
      </trkpt>
      <trkpt lat="50.36781" lon="3.5088">
        <ele>38.2</ele>
        <time>2020-06-24T09:58:31Z</time>
      </trkpt>
      <trkpt lat="50.36777" lon="3.50889">
        <ele>38.2</ele>
        <time>2020-06-24T09:58:32Z</time>
      </trkpt>
      <trkpt lat="50.36774" lon="3.50898">
        <ele>38.1</ele>
        <time>2020-06-24T09:58:33Z</time>
      </trkpt>
      <trkpt lat="50.3677" lon="3.50908">
        <ele>38</ele>
        <time>2020-06-24T09:58:34Z</time>
      </trkpt>
      <trkpt lat="50.36766" lon="3.50917">
        <ele>38</ele>
        <time>2020-06-24T09:58:35Z</time>
      </trkpt>
      <trkpt lat="50.36762" lon="3.50925">
        <ele>37.9</ele>
        <time>2020-06-24T09:58:36Z</time>
      </trkpt>
      <trkpt lat="50.36758" lon="3.50934">
        <ele>38.3</ele>
        <time>2020-06-24T09:58:37Z</time>
      </trkpt>
      <trkpt lat="50.36753" lon="3.50943">
        <ele>38.6</ele>
        <time>2020-06-24T09:58:38Z</time>
      </trkpt>
      <trkpt lat="50.36749" lon="3.50952">
        <ele>38.8</ele>
        <time>2020-06-24T09:58:39Z</time>
      </trkpt>
      <trkpt lat="50.36745" lon="3.50961">
        <ele>38.8</ele>
        <time>2020-06-24T09:58:40Z</time>
      </trkpt>
      <trkpt lat="50.3674" lon="3.50969">
        <ele>38.7</ele>
        <time>2020-06-24T09:58:41Z</time>
      </trkpt>
      <trkpt lat="50.36736" lon="3.50977">
        <ele>38.6</ele>
        <time>2020-06-24T09:58:42Z</time>
      </trkpt>
      <trkpt lat="50.36732" lon="3.50985">
        <ele>38.5</ele>
        <time>2020-06-24T09:58:43Z</time>
      </trkpt>
      <trkpt lat="50.36727" lon="3.50993">
        <ele>38.4</ele>
        <time>2020-06-24T09:58:44Z</time>
      </trkpt>
      <trkpt lat="50.36723" lon="3.51001">
        <ele>38.3</ele>
        <time>2020-06-24T09:58:45Z</time>
      </trkpt>
      <trkpt lat="50.36718" lon="3.51009">
        <ele>38.2</ele>
        <time>2020-06-24T09:58:46Z</time>
      </trkpt>
      <trkpt lat="50.36714" lon="3.51016">
        <ele>38</ele>
        <time>2020-06-24T09:58:47Z</time>
      </trkpt>
      <trkpt lat="50.36711" lon="3.51023">
        <ele>37.9</ele>
        <time>2020-06-24T09:58:48Z</time>
      </trkpt>
      <trkpt lat="50.36708" lon="3.51029">
        <ele>37.9</ele>
        <time>2020-06-24T09:58:49Z</time>
      </trkpt>
      <trkpt lat="50.36706" lon="3.51035">
        <ele>37.8</ele>
        <time>2020-06-24T09:58:50Z</time>
      </trkpt>
      <trkpt lat="50.36704" lon="3.51041">
        <ele>37.7</ele>
        <time>2020-06-24T09:58:51Z</time>
      </trkpt>
      <trkpt lat="50.36702" lon="3.51045">
        <ele>37.7</ele>
        <time>2020-06-24T09:58:52Z</time>
      </trkpt>
      <trkpt lat="50.367" lon="3.51048">
        <ele>37.6</ele>
        <time>2020-06-24T09:58:53Z</time>
      </trkpt>
      <trkpt lat="50.36698" lon="3.51051">
        <ele>37.6</ele>
        <time>2020-06-24T09:58:54Z</time>
      </trkpt>
      <trkpt lat="50.36695" lon="3.51054">
        <ele>37.5</ele>
        <time>2020-06-24T09:58:55Z</time>
      </trkpt>
      <trkpt lat="50.36692" lon="3.51056">
        <ele>37.5</ele>
        <time>2020-06-24T09:58:56Z</time>
      </trkpt>
      <trkpt lat="50.36689" lon="3.5106">
        <ele>37.4</ele>
        <time>2020-06-24T09:58:57Z</time>
      </trkpt>
      <trkpt lat="50.36687" lon="3.51063">
        <ele>37.4</ele>
        <time>2020-06-24T09:58:58Z</time>
      </trkpt>
      <trkpt lat="50.36685" lon="3.51066">
        <ele>37.4</ele>
        <time>2020-06-24T09:58:59Z</time>
      </trkpt>
      <trkpt lat="50.36685" lon="3.51072">
        <ele>37.2</ele>
        <time>2020-06-24T09:59:00Z</time>
      </trkpt>
      <trkpt lat="50.36683" lon="3.51079">
        <ele>36.9</ele>
        <time>2020-06-24T09:59:01Z</time>
      </trkpt>
      <trkpt lat="50.36681" lon="3.51085">
        <ele>36.7</ele>
        <time>2020-06-24T09:59:02Z</time>
      </trkpt>
      <trkpt lat="50.36679" lon="3.51091">
        <ele>36.5</ele>
        <time>2020-06-24T09:59:03Z</time>
      </trkpt>
      <trkpt lat="50.36677" lon="3.51098">
        <ele>36.2</ele>
        <time>2020-06-24T09:59:04Z</time>
      </trkpt>
      <trkpt lat="50.36674" lon="3.51105">
        <ele>36</ele>
        <time>2020-06-24T09:59:05Z</time>
      </trkpt>
      <trkpt lat="50.36672" lon="3.51113">
        <ele>35.8</ele>
        <time>2020-06-24T09:59:06Z</time>
      </trkpt>
      <trkpt lat="50.3667" lon="3.5112">
        <ele>35.5</ele>
        <time>2020-06-24T09:59:07Z</time>
      </trkpt>
      <trkpt lat="50.36668" lon="3.51129">
        <ele>35.3</ele>
        <time>2020-06-24T09:59:08Z</time>
      </trkpt>
      <trkpt lat="50.36664" lon="3.51136">
        <ele>34.9</ele>
        <time>2020-06-24T09:59:09Z</time>
      </trkpt>
      <trkpt lat="50.36661" lon="3.51145">
        <ele>34.6</ele>
        <time>2020-06-24T09:59:10Z</time>
      </trkpt>
      <trkpt lat="50.36658" lon="3.51153">
        <ele>34.2</ele>
        <time>2020-06-24T09:59:11Z</time>
      </trkpt>
      <trkpt lat="50.36655" lon="3.51161">
        <ele>33.8</ele>
        <time>2020-06-24T09:59:12Z</time>
      </trkpt>
      <trkpt lat="50.36653" lon="3.51171">
        <ele>33.5</ele>
        <time>2020-06-24T09:59:13Z</time>
      </trkpt>
      <trkpt lat="50.36649" lon="3.5118">
        <ele>32.9</ele>
        <time>2020-06-24T09:59:14Z</time>
      </trkpt>
      <trkpt lat="50.36646" lon="3.5119">
        <ele>32.7</ele>
        <time>2020-06-24T09:59:15Z</time>
      </trkpt>
      <trkpt lat="50.36642" lon="3.51199">
        <ele>32.4</ele>
        <time>2020-06-24T09:59:16Z</time>
      </trkpt>
      <trkpt lat="50.36638" lon="3.51208">
        <ele>32.2</ele>
        <time>2020-06-24T09:59:17Z</time>
      </trkpt>
      <trkpt lat="50.36635" lon="3.51217">
        <ele>31.9</ele>
        <time>2020-06-24T09:59:18Z</time>
      </trkpt>
      <trkpt lat="50.36632" lon="3.51227">
        <ele>31.7</ele>
        <time>2020-06-24T09:59:19Z</time>
      </trkpt>
      <trkpt lat="50.3663" lon="3.51237">
        <ele>31.4</ele>
        <time>2020-06-24T09:59:20Z</time>
      </trkpt>
      <trkpt lat="50.36627" lon="3.51247">
        <ele>31.2</ele>
        <time>2020-06-24T09:59:21Z</time>
      </trkpt>
      <trkpt lat="50.36625" lon="3.51257">
        <ele>30.9</ele>
        <time>2020-06-24T09:59:22Z</time>
      </trkpt>
      <trkpt lat="50.36622" lon="3.51267">
        <ele>30.6</ele>
        <time>2020-06-24T09:59:23Z</time>
      </trkpt>
      <trkpt lat="50.36619" lon="3.51277">
        <ele>30.3</ele>
        <time>2020-06-24T09:59:24Z</time>
      </trkpt>
      <trkpt lat="50.36616" lon="3.51288">
        <ele>30</ele>
        <time>2020-06-24T09:59:25Z</time>
      </trkpt>
      <trkpt lat="50.36613" lon="3.51298">
        <ele>29.7</ele>
        <time>2020-06-24T09:59:26Z</time>
      </trkpt>
      <trkpt lat="50.36609" lon="3.51308">
        <ele>29.5</ele>
        <time>2020-06-24T09:59:27Z</time>
      </trkpt>
      <trkpt lat="50.36606" lon="3.51318">
        <ele>29.3</ele>
        <time>2020-06-24T09:59:28Z</time>
      </trkpt>
      <trkpt lat="50.36603" lon="3.51328">
        <ele>29.2</ele>
        <time>2020-06-24T09:59:29Z</time>
      </trkpt>
      <trkpt lat="50.36599" lon="3.51338">
        <ele>29.1</ele>
        <time>2020-06-24T09:59:30Z</time>
      </trkpt>
      <trkpt lat="50.36596" lon="3.51348">
        <ele>29.1</ele>
        <time>2020-06-24T09:59:31Z</time>
      </trkpt>
      <trkpt lat="50.36592" lon="3.51357">
        <ele>29.1</ele>
        <time>2020-06-24T09:59:32Z</time>
      </trkpt>
      <trkpt lat="50.36588" lon="3.51367">
        <ele>29.4</ele>
        <time>2020-06-24T09:59:33Z</time>
      </trkpt>
      <trkpt lat="50.36584" lon="3.51377">
        <ele>29.3</ele>
        <time>2020-06-24T09:59:34Z</time>
      </trkpt>
      <trkpt lat="50.3658" lon="3.51386">
        <ele>29.1</ele>
        <time>2020-06-24T09:59:35Z</time>
      </trkpt>
      <trkpt lat="50.36577" lon="3.51396">
        <ele>28.9</ele>
        <time>2020-06-24T09:59:36Z</time>
      </trkpt>
      <trkpt lat="50.36575" lon="3.51406">
        <ele>28.7</ele>
        <time>2020-06-24T09:59:37Z</time>
      </trkpt>
      <trkpt lat="50.36573" lon="3.51416">
        <ele>28.6</ele>
        <time>2020-06-24T09:59:38Z</time>
      </trkpt>
      <trkpt lat="50.3657" lon="3.51425">
        <ele>28.4</ele>
        <time>2020-06-24T09:59:39Z</time>
      </trkpt>
      <trkpt lat="50.36568" lon="3.51434">
        <ele>28.3</ele>
        <time>2020-06-24T09:59:40Z</time>
      </trkpt>
      <trkpt lat="50.36565" lon="3.51442">
        <ele>28.2</ele>
        <time>2020-06-24T09:59:41Z</time>
      </trkpt>
      <trkpt lat="50.36562" lon="3.5145">
        <ele>28</ele>
        <time>2020-06-24T09:59:42Z</time>
      </trkpt>
      <trkpt lat="50.36561" lon="3.51459">
        <ele>28</ele>
        <time>2020-06-24T09:59:43Z</time>
      </trkpt>
      <trkpt lat="50.36559" lon="3.51467">
        <ele>28</ele>
        <time>2020-06-24T09:59:44Z</time>
      </trkpt>
      <trkpt lat="50.36557" lon="3.51476">
        <ele>28.1</ele>
        <time>2020-06-24T09:59:45Z</time>
      </trkpt>
      <trkpt lat="50.36555" lon="3.51485">
        <ele>28</ele>
        <time>2020-06-24T09:59:46Z</time>
      </trkpt>
      <trkpt lat="50.36553" lon="3.51493">
        <ele>27.9</ele>
        <time>2020-06-24T09:59:47Z</time>
      </trkpt>
      <trkpt lat="50.36551" lon="3.51501">
        <ele>27.9</ele>
        <time>2020-06-24T09:59:48Z</time>
      </trkpt>
      <trkpt lat="50.36548" lon="3.51509">
        <ele>27.9</ele>
        <time>2020-06-24T09:59:49Z</time>
      </trkpt>
      <trkpt lat="50.36546" lon="3.51518">
        <ele>27.9</ele>
        <time>2020-06-24T09:59:50Z</time>
      </trkpt>
      <trkpt lat="50.36544" lon="3.51525">
        <ele>27.9</ele>
        <time>2020-06-24T09:59:51Z</time>
      </trkpt>
      <trkpt lat="50.36542" lon="3.51533">
        <ele>27.9</ele>
        <time>2020-06-24T09:59:52Z</time>
      </trkpt>
      <trkpt lat="50.3654" lon="3.51541">
        <ele>27.9</ele>
        <time>2020-06-24T09:59:53Z</time>
      </trkpt>
      <trkpt lat="50.36538" lon="3.51549">
        <ele>27.9</ele>
        <time>2020-06-24T09:59:54Z</time>
      </trkpt>
      <trkpt lat="50.36535" lon="3.51557">
        <ele>28</ele>
        <time>2020-06-24T09:59:55Z</time>
      </trkpt>
      <trkpt lat="50.36533" lon="3.51565">
        <ele>28.1</ele>
        <time>2020-06-24T09:59:56Z</time>
      </trkpt>
      <trkpt lat="50.36532" lon="3.51574">
        <ele>28</ele>
        <time>2020-06-24T09:59:57Z</time>
      </trkpt>
      <trkpt lat="50.3653" lon="3.51583">
        <ele>28</ele>
        <time>2020-06-24T09:59:58Z</time>
      </trkpt>
      <trkpt lat="50.36528" lon="3.51592">
        <ele>28</ele>
        <time>2020-06-24T09:59:59Z</time>
      </trkpt>
      <trkpt lat="50.36528" lon="3.51601">
        <ele>28</ele>
        <time>2020-06-24T10:00:00Z</time>
      </trkpt>
      <trkpt lat="50.36528" lon="3.5161">
        <ele>28.1</ele>
        <time>2020-06-24T10:00:01Z</time>
      </trkpt>
      <trkpt lat="50.36526" lon="3.51619">
        <ele>28.1</ele>
        <time>2020-06-24T10:00:02Z</time>
      </trkpt>
      <trkpt lat="50.36524" lon="3.51628">
        <ele>28.2</ele>
        <time>2020-06-24T10:00:03Z</time>
      </trkpt>
      <trkpt lat="50.36522" lon="3.51637">
        <ele>28.2</ele>
        <time>2020-06-24T10:00:04Z</time>
      </trkpt>
      <trkpt lat="50.36521" lon="3.51646">
        <ele>28.3</ele>
        <time>2020-06-24T10:00:05Z</time>
      </trkpt>
      <trkpt lat="50.36519" lon="3.51655">
        <ele>28.3</ele>
        <time>2020-06-24T10:00:06Z</time>
      </trkpt>
      <trkpt lat="50.36518" lon="3.51664">
        <ele>28.4</ele>
        <time>2020-06-24T10:00:07Z</time>
      </trkpt>
      <trkpt lat="50.36517" lon="3.51674">
        <ele>28.4</ele>
        <time>2020-06-24T10:00:08Z</time>
      </trkpt>
      <trkpt lat="50.36516" lon="3.51682">
        <ele>28.4</ele>
        <time>2020-06-24T10:00:09Z</time>
      </trkpt>
      <trkpt lat="50.36513" lon="3.5169">
        <ele>28.4</ele>
        <time>2020-06-24T10:00:10Z</time>
      </trkpt>
      <trkpt lat="50.36511" lon="3.51699">
        <ele>28.3</ele>
        <time>2020-06-24T10:00:11Z</time>
      </trkpt>
      <trkpt lat="50.36509" lon="3.51709">
        <ele>28.3</ele>
        <time>2020-06-24T10:00:12Z</time>
      </trkpt>
      <trkpt lat="50.36508" lon="3.51719">
        <ele>28.3</ele>
        <time>2020-06-24T10:00:13Z</time>
      </trkpt>
      <trkpt lat="50.36507" lon="3.51728">
        <ele>28.3</ele>
        <time>2020-06-24T10:00:14Z</time>
      </trkpt>
      <trkpt lat="50.36505" lon="3.51737">
        <ele>28.2</ele>
        <time>2020-06-24T10:00:15Z</time>
      </trkpt>
      <trkpt lat="50.36504" lon="3.51746">
        <ele>28.2</ele>
        <time>2020-06-24T10:00:16Z</time>
      </trkpt>
      <trkpt lat="50.36504" lon="3.51754">
        <ele>28.1</ele>
        <time>2020-06-24T10:00:17Z</time>
      </trkpt>
      <trkpt lat="50.36505" lon="3.51763">
        <ele>28.1</ele>
        <time>2020-06-24T10:00:18Z</time>
      </trkpt>
      <trkpt lat="50.36505" lon="3.51772">
        <ele>28.1</ele>
        <time>2020-06-24T10:00:19Z</time>
      </trkpt>
      <trkpt lat="50.36503" lon="3.5178">
        <ele>28.1</ele>
        <time>2020-06-24T10:00:20Z</time>
      </trkpt>
      <trkpt lat="50.36501" lon="3.51789">
        <ele>28</ele>
        <time>2020-06-24T10:00:21Z</time>
      </trkpt>
      <trkpt lat="50.365" lon="3.51797">
        <ele>28</ele>
        <time>2020-06-24T10:00:22Z</time>
      </trkpt>
      <trkpt lat="50.36499" lon="3.51806">
        <ele>28</ele>
        <time>2020-06-24T10:00:23Z</time>
      </trkpt>
      <trkpt lat="50.36497" lon="3.51815">
        <ele>27.9</ele>
        <time>2020-06-24T10:00:24Z</time>
      </trkpt>
      <trkpt lat="50.36494" lon="3.51827">
        <ele>27.8</ele>
        <time>2020-06-24T10:00:25Z</time>
      </trkpt>
      <trkpt lat="50.36492" lon="3.51836">
        <ele>27.7</ele>
        <time>2020-06-24T10:00:26Z</time>
      </trkpt>
      <trkpt lat="50.36487" lon="3.51845">
        <ele>27.6</ele>
        <time>2020-06-24T10:00:27Z</time>
      </trkpt>
      <trkpt lat="50.36482" lon="3.51852">
        <ele>27.5</ele>
        <time>2020-06-24T10:00:28Z</time>
      </trkpt>
      <trkpt lat="50.36478" lon="3.51858">
        <ele>27.5</ele>
        <time>2020-06-24T10:00:29Z</time>
      </trkpt>
      <trkpt lat="50.36476" lon="3.51865">
        <ele>27.4</ele>
        <time>2020-06-24T10:00:30Z</time>
      </trkpt>
      <trkpt lat="50.36476" lon="3.51871">
        <ele>27.3</ele>
        <time>2020-06-24T10:00:31Z</time>
      </trkpt>
      <trkpt lat="50.36476" lon="3.51876">
        <ele>27.4</ele>
        <time>2020-06-24T10:00:32Z</time>
      </trkpt>
      <trkpt lat="50.36476" lon="3.51879">
        <ele>27.5</ele>
        <time>2020-06-24T10:00:33Z</time>
      </trkpt>
      <trkpt lat="50.36476" lon="3.51881">
        <ele>27.5</ele>
        <time>2020-06-24T10:00:34Z</time>
      </trkpt>
      <trkpt lat="50.36477" lon="3.51885">
        <ele>27.5</ele>
        <time>2020-06-24T10:00:35Z</time>
      </trkpt>
      <trkpt lat="50.36477" lon="3.51888">
        <ele>27.4</ele>
        <time>2020-06-24T10:00:36Z</time>
      </trkpt>
      <trkpt lat="50.36479" lon="3.51892">
        <ele>27.2</ele>
        <time>2020-06-24T10:00:37Z</time>
      </trkpt>
      <trkpt lat="50.3648" lon="3.51898">
        <ele>27</ele>
        <time>2020-06-24T10:00:38Z</time>
      </trkpt>
      <trkpt lat="50.36481" lon="3.51904">
        <ele>26.8</ele>
        <time>2020-06-24T10:00:39Z</time>
      </trkpt>
      <trkpt lat="50.36482" lon="3.5191">
        <ele>26.7</ele>
        <time>2020-06-24T10:00:40Z</time>
      </trkpt>
      <trkpt lat="50.3648" lon="3.51917">
        <ele>26.6</ele>
        <time>2020-06-24T10:00:41Z</time>
      </trkpt>
      <trkpt lat="50.36479" lon="3.51923">
        <ele>26.6</ele>
        <time>2020-06-24T10:00:42Z</time>
      </trkpt>
      <trkpt lat="50.36479" lon="3.5193">
        <ele>26.5</ele>
        <time>2020-06-24T10:00:43Z</time>
      </trkpt>
      <trkpt lat="50.36478" lon="3.51939">
        <ele>26.2</ele>
        <time>2020-06-24T10:00:44Z</time>
      </trkpt>
      <trkpt lat="50.36478" lon="3.51946">
        <ele>25.6</ele>
        <time>2020-06-24T10:00:45Z</time>
      </trkpt>
      <trkpt lat="50.36478" lon="3.51953">
        <ele>25.5</ele>
        <time>2020-06-24T10:00:46Z</time>
      </trkpt>
      <trkpt lat="50.36478" lon="3.51961">
        <ele>25.4</ele>
        <time>2020-06-24T10:00:47Z</time>
      </trkpt>
      <trkpt lat="50.36478" lon="3.51969">
        <ele>25.4</ele>
        <time>2020-06-24T10:00:48Z</time>
      </trkpt>
      <trkpt lat="50.36477" lon="3.51978">
        <ele>25.4</ele>
        <time>2020-06-24T10:00:49Z</time>
      </trkpt>
      <trkpt lat="50.36477" lon="3.51987">
        <ele>25.3</ele>
        <time>2020-06-24T10:00:50Z</time>
      </trkpt>
      <trkpt lat="50.36477" lon="3.51993">
        <ele>25.3</ele>
        <time>2020-06-24T10:00:51Z</time>
      </trkpt>
      <trkpt lat="50.36478" lon="3.52">
        <ele>25.3</ele>
        <time>2020-06-24T10:00:52Z</time>
      </trkpt>
      <trkpt lat="50.36478" lon="3.52008">
        <ele>25.2</ele>
        <time>2020-06-24T10:00:53Z</time>
      </trkpt>
      <trkpt lat="50.36477" lon="3.52015">
        <ele>25.2</ele>
        <time>2020-06-24T10:00:54Z</time>
      </trkpt>
      <trkpt lat="50.36476" lon="3.52024">
        <ele>25.1</ele>
        <time>2020-06-24T10:00:55Z</time>
      </trkpt>
      <trkpt lat="50.36476" lon="3.52032">
        <ele>25.1</ele>
        <time>2020-06-24T10:00:56Z</time>
      </trkpt>
      <trkpt lat="50.36475" lon="3.52039">
        <ele>25.1</ele>
        <time>2020-06-24T10:00:57Z</time>
      </trkpt>
      <trkpt lat="50.36474" lon="3.52047">
        <ele>25.1</ele>
        <time>2020-06-24T10:00:58Z</time>
      </trkpt>
      <trkpt lat="50.36473" lon="3.52054">
        <ele>25</ele>
        <time>2020-06-24T10:00:59Z</time>
      </trkpt>
      <trkpt lat="50.36474" lon="3.52064">
        <ele>25</ele>
        <time>2020-06-24T10:01:00Z</time>
      </trkpt>
      <trkpt lat="50.36475" lon="3.52073">
        <ele>24.9</ele>
        <time>2020-06-24T10:01:01Z</time>
      </trkpt>
      <trkpt lat="50.36476" lon="3.52082">
        <ele>24.9</ele>
        <time>2020-06-24T10:01:02Z</time>
      </trkpt>
      <trkpt lat="50.36477" lon="3.52092">
        <ele>24.8</ele>
        <time>2020-06-24T10:01:03Z</time>
      </trkpt>
      <trkpt lat="50.36478" lon="3.52101">
        <ele>24.8</ele>
        <time>2020-06-24T10:01:04Z</time>
      </trkpt>
      <trkpt lat="50.36478" lon="3.52111">
        <ele>24.8</ele>
        <time>2020-06-24T10:01:05Z</time>
      </trkpt>
      <trkpt lat="50.36476" lon="3.52121">
        <ele>24.8</ele>
        <time>2020-06-24T10:01:06Z</time>
      </trkpt>
      <trkpt lat="50.36475" lon="3.52131">
        <ele>24.9</ele>
        <time>2020-06-24T10:01:07Z</time>
      </trkpt>
      <trkpt lat="50.36474" lon="3.52139">
        <ele>24.9</ele>
        <time>2020-06-24T10:01:08Z</time>
      </trkpt>
      <trkpt lat="50.36471" lon="3.5215">
        <ele>25</ele>
        <time>2020-06-24T10:01:09Z</time>
      </trkpt>
      <trkpt lat="50.3647" lon="3.52162">
        <ele>25</ele>
        <time>2020-06-24T10:01:10Z</time>
      </trkpt>
      <trkpt lat="50.3647" lon="3.52171">
        <ele>25.1</ele>
        <time>2020-06-24T10:01:11Z</time>
      </trkpt>
      <trkpt lat="50.36469" lon="3.5218">
        <ele>25.1</ele>
        <time>2020-06-24T10:01:12Z</time>
      </trkpt>
      <trkpt lat="50.36467" lon="3.52191">
        <ele>25.1</ele>
        <time>2020-06-24T10:01:13Z</time>
      </trkpt>
      <trkpt lat="50.36466" lon="3.52199">
        <ele>25.1</ele>
        <time>2020-06-24T10:01:14Z</time>
      </trkpt>
      <trkpt lat="50.36465" lon="3.52208">
        <ele>25.1</ele>
        <time>2020-06-24T10:01:15Z</time>
      </trkpt>
      <trkpt lat="50.36465" lon="3.52216">
        <ele>25.1</ele>
        <time>2020-06-24T10:01:16Z</time>
      </trkpt>
      <trkpt lat="50.36464" lon="3.52225">
        <ele>25.1</ele>
        <time>2020-06-24T10:01:17Z</time>
      </trkpt>
      <trkpt lat="50.36463" lon="3.52234">
        <ele>25.1</ele>
        <time>2020-06-24T10:01:18Z</time>
      </trkpt>
      <trkpt lat="50.36462" lon="3.52244">
        <ele>25.1</ele>
        <time>2020-06-24T10:01:19Z</time>
      </trkpt>
      <trkpt lat="50.36459" lon="3.52252">
        <ele>25.1</ele>
        <time>2020-06-24T10:01:20Z</time>
      </trkpt>
      <trkpt lat="50.36457" lon="3.5226">
        <ele>25.1</ele>
        <time>2020-06-24T10:01:21Z</time>
      </trkpt>
      <trkpt lat="50.36454" lon="3.52268">
        <ele>25.1</ele>
        <time>2020-06-24T10:01:22Z</time>
      </trkpt>
      <trkpt lat="50.36451" lon="3.52278">
        <ele>25.1</ele>
        <time>2020-06-24T10:01:23Z</time>
      </trkpt>
      <trkpt lat="50.36448" lon="3.52287">
        <ele>25.1</ele>
        <time>2020-06-24T10:01:24Z</time>
      </trkpt>
      <trkpt lat="50.36445" lon="3.52294">
        <ele>25.1</ele>
        <time>2020-06-24T10:01:25Z</time>
      </trkpt>
      <trkpt lat="50.36441" lon="3.52297">
        <ele>25.1</ele>
        <time>2020-06-24T10:01:26Z</time>
      </trkpt>
      <trkpt lat="50.36437" lon="3.52302">
        <ele>25.2</ele>
        <time>2020-06-24T10:01:27Z</time>
      </trkpt>
      <trkpt lat="50.36434" lon="3.52308">
        <ele>25.1</ele>
        <time>2020-06-24T10:01:28Z</time>
      </trkpt>
      <trkpt lat="50.36432" lon="3.52315">
        <ele>25.1</ele>
        <time>2020-06-24T10:01:29Z</time>
      </trkpt>
      <trkpt lat="50.36432" lon="3.52321">
        <ele>25.1</ele>
        <time>2020-06-24T10:01:30Z</time>
      </trkpt>
      <trkpt lat="50.36433" lon="3.52327">
        <ele>25</ele>
        <time>2020-06-24T10:01:31Z</time>
      </trkpt>
      <trkpt lat="50.36434" lon="3.52333">
        <ele>25</ele>
        <time>2020-06-24T10:01:32Z</time>
      </trkpt>
      <trkpt lat="50.36437" lon="3.52341">
        <ele>25</ele>
        <time>2020-06-24T10:01:33Z</time>
      </trkpt>
      <trkpt lat="50.36438" lon="3.52348">
        <ele>25</ele>
        <time>2020-06-24T10:01:34Z</time>
      </trkpt>
      <trkpt lat="50.36436" lon="3.52355">
        <ele>24.9</ele>
        <time>2020-06-24T10:01:35Z</time>
      </trkpt>
      <trkpt lat="50.36435" lon="3.52361">
        <ele>24.8</ele>
        <time>2020-06-24T10:01:36Z</time>
      </trkpt>
      <trkpt lat="50.36433" lon="3.52368">
        <ele>24.8</ele>
        <time>2020-06-24T10:01:37Z</time>
      </trkpt>
      <trkpt lat="50.36432" lon="3.52375">
        <ele>24.7</ele>
        <time>2020-06-24T10:01:38Z</time>
      </trkpt>
      <trkpt lat="50.36431" lon="3.52382">
        <ele>24.6</ele>
        <time>2020-06-24T10:01:39Z</time>
      </trkpt>
      <trkpt lat="50.36431" lon="3.52393">
        <ele>24.5</ele>
        <time>2020-06-24T10:01:40Z</time>
      </trkpt>
      <trkpt lat="50.3643" lon="3.52402">
        <ele>24.4</ele>
        <time>2020-06-24T10:01:41Z</time>
      </trkpt>
      <trkpt lat="50.36429" lon="3.52412">
        <ele>24.3</ele>
        <time>2020-06-24T10:01:42Z</time>
      </trkpt>
      <trkpt lat="50.36427" lon="3.52421">
        <ele>24.3</ele>
        <time>2020-06-24T10:01:43Z</time>
      </trkpt>
      <trkpt lat="50.36426" lon="3.52429">
        <ele>24.2</ele>
        <time>2020-06-24T10:01:44Z</time>
      </trkpt>
      <trkpt lat="50.36425" lon="3.52436">
        <ele>24.2</ele>
        <time>2020-06-24T10:01:45Z</time>
      </trkpt>
      <trkpt lat="50.36424" lon="3.52444">
        <ele>24.1</ele>
        <time>2020-06-24T10:01:46Z</time>
      </trkpt>
      <trkpt lat="50.36422" lon="3.52454">
        <ele>24.1</ele>
        <time>2020-06-24T10:01:47Z</time>
      </trkpt>
      <trkpt lat="50.36421" lon="3.52462">
        <ele>24.1</ele>
        <time>2020-06-24T10:01:48Z</time>
      </trkpt>
      <trkpt lat="50.3642" lon="3.52472">
        <ele>24.1</ele>
        <time>2020-06-24T10:01:49Z</time>
      </trkpt>
      <trkpt lat="50.3642" lon="3.5248">
        <ele>24.1</ele>
        <time>2020-06-24T10:01:50Z</time>
      </trkpt>
      <trkpt lat="50.3642" lon="3.52488">
        <ele>24.1</ele>
        <time>2020-06-24T10:01:51Z</time>
      </trkpt>
      <trkpt lat="50.3642" lon="3.52496">
        <ele>24.1</ele>
        <time>2020-06-24T10:01:52Z</time>
      </trkpt>
      <trkpt lat="50.36421" lon="3.52505">
        <ele>24.2</ele>
        <time>2020-06-24T10:01:53Z</time>
      </trkpt>
      <trkpt lat="50.3642" lon="3.52514">
        <ele>24.2</ele>
        <time>2020-06-24T10:01:54Z</time>
      </trkpt>
      <trkpt lat="50.36421" lon="3.52523">
        <ele>24.2</ele>
        <time>2020-06-24T10:01:55Z</time>
      </trkpt>
      <trkpt lat="50.36421" lon="3.52531">
        <ele>24.2</ele>
        <time>2020-06-24T10:01:56Z</time>
      </trkpt>
      <trkpt lat="50.36421" lon="3.52541">
        <ele>24.2</ele>
        <time>2020-06-24T10:01:57Z</time>
      </trkpt>
      <trkpt lat="50.3642" lon="3.5255">
        <ele>24.2</ele>
        <time>2020-06-24T10:01:58Z</time>
      </trkpt>
      <trkpt lat="50.36421" lon="3.5256">
        <ele>24.2</ele>
        <time>2020-06-24T10:01:59Z</time>
      </trkpt>
      <trkpt lat="50.3642" lon="3.5257">
        <ele>24.2</ele>
        <time>2020-06-24T10:02:00Z</time>
      </trkpt>
      <trkpt lat="50.36418" lon="3.5258">
        <ele>24.3</ele>
        <time>2020-06-24T10:02:01Z</time>
      </trkpt>
      <trkpt lat="50.36417" lon="3.52589">
        <ele>24.3</ele>
        <time>2020-06-24T10:02:02Z</time>
      </trkpt>
      <trkpt lat="50.36416" lon="3.52598">
        <ele>24.3</ele>
        <time>2020-06-24T10:02:03Z</time>
      </trkpt>
      <trkpt lat="50.36416" lon="3.52608">
        <ele>24.3</ele>
        <time>2020-06-24T10:02:04Z</time>
      </trkpt>
      <trkpt lat="50.36414" lon="3.52617">
        <ele>24.3</ele>
        <time>2020-06-24T10:02:05Z</time>
      </trkpt>
      <trkpt lat="50.36413" lon="3.52627">
        <ele>24.3</ele>
        <time>2020-06-24T10:02:06Z</time>
      </trkpt>
      <trkpt lat="50.36414" lon="3.52637">
        <ele>24.3</ele>
        <time>2020-06-24T10:02:07Z</time>
      </trkpt>
      <trkpt lat="50.36413" lon="3.52646">
        <ele>24.3</ele>
        <time>2020-06-24T10:02:08Z</time>
      </trkpt>
      <trkpt lat="50.36412" lon="3.52654">
        <ele>24.4</ele>
        <time>2020-06-24T10:02:09Z</time>
      </trkpt>
      <trkpt lat="50.36412" lon="3.52662">
        <ele>24.4</ele>
        <time>2020-06-24T10:02:10Z</time>
      </trkpt>
      <trkpt lat="50.36411" lon="3.52669">
        <ele>24.4</ele>
        <time>2020-06-24T10:02:11Z</time>
      </trkpt>
      <trkpt lat="50.3641" lon="3.52676">
        <ele>24.4</ele>
        <time>2020-06-24T10:02:12Z</time>
      </trkpt>
      <trkpt lat="50.36408" lon="3.52686">
        <ele>24.4</ele>
        <time>2020-06-24T10:02:13Z</time>
      </trkpt>
      <trkpt lat="50.36406" lon="3.52696">
        <ele>24.4</ele>
        <time>2020-06-24T10:02:14Z</time>
      </trkpt>
      <trkpt lat="50.36404" lon="3.52703">
        <ele>24.4</ele>
        <time>2020-06-24T10:02:15Z</time>
      </trkpt>
      <trkpt lat="50.36403" lon="3.52712">
        <ele>24.4</ele>
        <time>2020-06-24T10:02:16Z</time>
      </trkpt>
      <trkpt lat="50.36402" lon="3.5272">
        <ele>24.4</ele>
        <time>2020-06-24T10:02:17Z</time>
      </trkpt>
      <trkpt lat="50.36403" lon="3.52731">
        <ele>24.4</ele>
        <time>2020-06-24T10:02:18Z</time>
      </trkpt>
      <trkpt lat="50.36404" lon="3.52741">
        <ele>24.5</ele>
        <time>2020-06-24T10:02:19Z</time>
      </trkpt>
      <trkpt lat="50.36403" lon="3.52749">
        <ele>24.5</ele>
        <time>2020-06-24T10:02:20Z</time>
      </trkpt>
      <trkpt lat="50.36402" lon="3.52758">
        <ele>24.5</ele>
        <time>2020-06-24T10:02:21Z</time>
      </trkpt>
      <trkpt lat="50.36401" lon="3.52766">
        <ele>24.5</ele>
        <time>2020-06-24T10:02:22Z</time>
      </trkpt>
      <trkpt lat="50.364" lon="3.52775">
        <ele>24.5</ele>
        <time>2020-06-24T10:02:23Z</time>
      </trkpt>
      <trkpt lat="50.364" lon="3.52783">
        <ele>24.6</ele>
        <time>2020-06-24T10:02:24Z</time>
      </trkpt>
      <trkpt lat="50.364" lon="3.52792">
        <ele>24.6</ele>
        <time>2020-06-24T10:02:25Z</time>
      </trkpt>
      <trkpt lat="50.364" lon="3.528">
        <ele>24.6</ele>
        <time>2020-06-24T10:02:26Z</time>
      </trkpt>
      <trkpt lat="50.364" lon="3.52808">
        <ele>24.6</ele>
        <time>2020-06-24T10:02:27Z</time>
      </trkpt>
      <trkpt lat="50.364" lon="3.52814">
        <ele>24.7</ele>
        <time>2020-06-24T10:02:28Z</time>
      </trkpt>
      <trkpt lat="50.364" lon="3.5282">
        <ele>24.7</ele>
        <time>2020-06-24T10:02:29Z</time>
      </trkpt>
      <trkpt lat="50.36401" lon="3.52828">
        <ele>24.7</ele>
        <time>2020-06-24T10:02:30Z</time>
      </trkpt>
      <trkpt lat="50.36401" lon="3.52835">
        <ele>24.8</ele>
        <time>2020-06-24T10:02:31Z</time>
      </trkpt>
      <trkpt lat="50.36399" lon="3.52843">
        <ele>24.8</ele>
        <time>2020-06-24T10:02:32Z</time>
      </trkpt>
      <trkpt lat="50.36396" lon="3.52851">
        <ele>24.9</ele>
        <time>2020-06-24T10:02:33Z</time>
      </trkpt>
      <trkpt lat="50.36394" lon="3.5286">
        <ele>24.9</ele>
        <time>2020-06-24T10:02:34Z</time>
      </trkpt>
      <trkpt lat="50.36391" lon="3.52869">
        <ele>25</ele>
        <time>2020-06-24T10:02:35Z</time>
      </trkpt>
      <trkpt lat="50.36387" lon="3.52881">
        <ele>25</ele>
        <time>2020-06-24T10:02:36Z</time>
      </trkpt>
      <trkpt lat="50.36386" lon="3.5289">
        <ele>25.1</ele>
        <time>2020-06-24T10:02:37Z</time>
      </trkpt>
      <trkpt lat="50.36384" lon="3.52899">
        <ele>25.1</ele>
        <time>2020-06-24T10:02:38Z</time>
      </trkpt>
      <trkpt lat="50.36382" lon="3.52907">
        <ele>25.2</ele>
        <time>2020-06-24T10:02:39Z</time>
      </trkpt>
      <trkpt lat="50.36379" lon="3.52914">
        <ele>25.3</ele>
        <time>2020-06-24T10:02:40Z</time>
      </trkpt>
      <trkpt lat="50.36376" lon="3.52922">
        <ele>25.4</ele>
        <time>2020-06-24T10:02:41Z</time>
      </trkpt>
      <trkpt lat="50.36375" lon="3.5293">
        <ele>25.4</ele>
        <time>2020-06-24T10:02:42Z</time>
      </trkpt>
      <trkpt lat="50.36373" lon="3.52937">
        <ele>25.4</ele>
        <time>2020-06-24T10:02:43Z</time>
      </trkpt>
      <trkpt lat="50.3637" lon="3.52943">
        <ele>25.4</ele>
        <time>2020-06-24T10:02:44Z</time>
      </trkpt>
      <trkpt lat="50.36367" lon="3.5295">
        <ele>25.4</ele>
        <time>2020-06-24T10:02:45Z</time>
      </trkpt>
      <trkpt lat="50.36363" lon="3.52956">
        <ele>25.5</ele>
        <time>2020-06-24T10:02:46Z</time>
      </trkpt>
      <trkpt lat="50.36359" lon="3.52962">
        <ele>25.5</ele>
        <time>2020-06-24T10:02:47Z</time>
      </trkpt>
      <trkpt lat="50.36355" lon="3.52968">
        <ele>25.6</ele>
        <time>2020-06-24T10:02:48Z</time>
      </trkpt>
      <trkpt lat="50.36351" lon="3.52975">
        <ele>25.7</ele>
        <time>2020-06-24T10:02:49Z</time>
      </trkpt>
      <trkpt lat="50.36347" lon="3.52981">
        <ele>25.8</ele>
        <time>2020-06-24T10:02:50Z</time>
      </trkpt>
      <trkpt lat="50.36343" lon="3.52985">
        <ele>25.8</ele>
        <time>2020-06-24T10:02:51Z</time>
      </trkpt>
      <trkpt lat="50.3634" lon="3.52989">
        <ele>25.9</ele>
        <time>2020-06-24T10:02:52Z</time>
      </trkpt>
      <trkpt lat="50.36336" lon="3.52994">
        <ele>26</ele>
        <time>2020-06-24T10:02:53Z</time>
      </trkpt>
      <trkpt lat="50.36334" lon="3.52998">
        <ele>26.1</ele>
        <time>2020-06-24T10:02:54Z</time>
      </trkpt>
      <trkpt lat="50.3633" lon="3.53002">
        <ele>26.2</ele>
        <time>2020-06-24T10:02:55Z</time>
      </trkpt>
      <trkpt lat="50.36326" lon="3.53006">
        <ele>26.3</ele>
        <time>2020-06-24T10:02:56Z</time>
      </trkpt>
      <trkpt lat="50.36323" lon="3.5301">
        <ele>26.3</ele>
        <time>2020-06-24T10:02:57Z</time>
      </trkpt>
      <trkpt lat="50.36321" lon="3.53012">
        <ele>26.4</ele>
        <time>2020-06-24T10:02:58Z</time>
      </trkpt>
      <trkpt lat="50.36319" lon="3.53016">
        <ele>26.4</ele>
        <time>2020-06-24T10:02:59Z</time>
      </trkpt>
      <trkpt lat="50.36318" lon="3.5302">
        <ele>26.5</ele>
        <time>2020-06-24T10:03:00Z</time>
      </trkpt>
      <trkpt lat="50.36319" lon="3.53021">
        <ele>26.5</ele>
        <time>2020-06-24T10:03:01Z</time>
      </trkpt>
      <trkpt lat="50.36322" lon="3.53021">
        <ele>27.1</ele>
        <time>2020-06-24T10:03:02Z</time>
      </trkpt>
      <trkpt lat="50.36323" lon="3.53021">
        <ele>27.1</ele>
        <time>2020-06-24T10:03:03Z</time>
      </trkpt>
      <trkpt lat="50.36325" lon="3.53019">
        <ele>27.2</ele>
        <time>2020-06-24T10:03:04Z</time>
      </trkpt>
      <trkpt lat="50.36327" lon="3.5302">
        <ele>27.2</ele>
        <time>2020-06-24T10:03:05Z</time>
      </trkpt>
      <trkpt lat="50.36329" lon="3.53025">
        <ele>27.2</ele>
        <time>2020-06-24T10:03:06Z</time>
      </trkpt>
      <trkpt lat="50.36329" lon="3.53026">
        <ele>27.2</ele>
        <time>2020-06-24T10:03:07Z</time>
      </trkpt>
      <trkpt lat="50.36332" lon="3.53031">
        <ele>27.3</ele>
        <time>2020-06-24T10:03:08Z</time>
      </trkpt>
      <trkpt lat="50.36333" lon="3.53032">
        <ele>27.3</ele>
        <time>2020-06-24T10:03:09Z</time>
      </trkpt>
      <trkpt lat="50.36336" lon="3.53035">
        <ele>27.4</ele>
        <time>2020-06-24T10:03:10Z</time>
      </trkpt>
      <trkpt lat="50.36337" lon="3.53036">
        <ele>27.4</ele>
        <time>2020-06-24T10:03:11Z</time>
      </trkpt>
      <trkpt lat="50.3634" lon="3.5304">
        <ele>27.4</ele>
        <time>2020-06-24T10:03:12Z</time>
      </trkpt>
      <trkpt lat="50.36341" lon="3.53041">
        <ele>27.4</ele>
        <time>2020-06-24T10:03:13Z</time>
      </trkpt>
      <trkpt lat="50.36342" lon="3.53043">
        <ele>27.5</ele>
        <time>2020-06-24T10:03:14Z</time>
      </trkpt>
      <trkpt lat="50.36342" lon="3.53045">
        <ele>27.5</ele>
        <time>2020-06-24T10:03:15Z</time>
      </trkpt>
      <trkpt lat="50.36342" lon="3.53045">
        <ele>27.5</ele>
        <time>2020-06-24T10:03:16Z</time>
      </trkpt>
      <trkpt lat="50.36343" lon="3.53046">
        <ele>27.5</ele>
        <time>2020-06-24T10:03:17Z</time>
      </trkpt>
      <trkpt lat="50.36343" lon="3.53047">
        <ele>27.5</ele>
        <time>2020-06-24T10:03:18Z</time>
      </trkpt>
      <trkpt lat="50.36344" lon="3.53048">
        <ele>27.5</ele>
        <time>2020-06-24T10:03:19Z</time>
      </trkpt>
      <trkpt lat="50.36345" lon="3.53051">
        <ele>27.6</ele>
        <time>2020-06-24T10:03:20Z</time>
      </trkpt>
      <trkpt lat="50.36347" lon="3.53053">
        <ele>27.6</ele>
        <time>2020-06-24T10:03:21Z</time>
      </trkpt>
      <trkpt lat="50.36348" lon="3.53054">
        <ele>27.6</ele>
        <time>2020-06-24T10:03:22Z</time>
      </trkpt>
      <trkpt lat="50.3635" lon="3.53056">
        <ele>27.6</ele>
        <time>2020-06-24T10:03:23Z</time>
      </trkpt>
      <trkpt lat="50.36352" lon="3.53061">
        <ele>27.7</ele>
        <time>2020-06-24T10:03:24Z</time>
      </trkpt>
      <trkpt lat="50.36352" lon="3.53062">
        <ele>27.7</ele>
        <time>2020-06-24T10:03:25Z</time>
      </trkpt>
      <trkpt lat="50.36354" lon="3.53067">
        <ele>27.7</ele>
        <time>2020-06-24T10:03:26Z</time>
      </trkpt>
      <trkpt lat="50.36356" lon="3.53072">
        <ele>27.8</ele>
        <time>2020-06-24T10:03:27Z</time>
      </trkpt>
      <trkpt lat="50.36359" lon="3.53075">
        <ele>27.8</ele>
        <time>2020-06-24T10:03:28Z</time>
      </trkpt>
      <trkpt lat="50.36361" lon="3.53078">
        <ele>27.8</ele>
        <time>2020-06-24T10:03:29Z</time>
      </trkpt>
      <trkpt lat="50.36361" lon="3.5308">
        <ele>27.8</ele>
        <time>2020-06-24T10:03:30Z</time>
      </trkpt>
      <trkpt lat="50.36363" lon="3.53083">
        <ele>27.8</ele>
        <time>2020-06-24T10:03:31Z</time>
      </trkpt>
      <trkpt lat="50.36364" lon="3.53084">
        <ele>27.8</ele>
        <time>2020-06-24T10:03:32Z</time>
      </trkpt>
      <trkpt lat="50.36366" lon="3.53085">
        <ele>27.8</ele>
        <time>2020-06-24T10:03:33Z</time>
      </trkpt>
      <trkpt lat="50.36367" lon="3.53086">
        <ele>27.8</ele>
        <time>2020-06-24T10:03:34Z</time>
      </trkpt>
      <trkpt lat="50.36368" lon="3.53088">
        <ele>27.8</ele>
        <time>2020-06-24T10:03:35Z</time>
      </trkpt>
      <trkpt lat="50.36368" lon="3.53091">
        <ele>27.8</ele>
        <time>2020-06-24T10:03:36Z</time>
      </trkpt>
      <trkpt lat="50.3637" lon="3.53095">
        <ele>27.8</ele>
        <time>2020-06-24T10:03:37Z</time>
      </trkpt>
      <trkpt lat="50.3637" lon="3.53097">
        <ele>27.9</ele>
        <time>2020-06-24T10:03:38Z</time>
      </trkpt>
      <trkpt lat="50.3637" lon="3.53101">
        <ele>28.4</ele>
        <time>2020-06-24T10:03:39Z</time>
      </trkpt>
      <trkpt lat="50.3637" lon="3.53103">
        <ele>28.5</ele>
        <time>2020-06-24T10:03:40Z</time>
      </trkpt>
      <trkpt lat="50.3637" lon="3.53105">
        <ele>28.6</ele>
        <time>2020-06-24T10:03:41Z</time>
      </trkpt>
      <trkpt lat="50.36369" lon="3.53109">
        <ele>28.7</ele>
        <time>2020-06-24T10:03:42Z</time>
      </trkpt>
      <trkpt lat="50.36368" lon="3.53111">
        <ele>28.8</ele>
        <time>2020-06-24T10:03:43Z</time>
      </trkpt>
      <trkpt lat="50.36366" lon="3.53115">
        <ele>28.9</ele>
        <time>2020-06-24T10:03:44Z</time>
      </trkpt>
      <trkpt lat="50.36365" lon="3.53116">
        <ele>29</ele>
        <time>2020-06-24T10:03:45Z</time>
      </trkpt>
      <trkpt lat="50.36365" lon="3.53122">
        <ele>29.2</ele>
        <time>2020-06-24T10:03:46Z</time>
      </trkpt>
      <trkpt lat="50.36363" lon="3.53128">
        <ele>29.4</ele>
        <time>2020-06-24T10:03:47Z</time>
      </trkpt>
      <trkpt lat="50.36361" lon="3.53134">
        <ele>29.6</ele>
        <time>2020-06-24T10:03:48Z</time>
      </trkpt>
      <trkpt lat="50.36358" lon="3.53139">
        <ele>29.8</ele>
        <time>2020-06-24T10:03:49Z</time>
      </trkpt>
      <trkpt lat="50.36357" lon="3.53144">
        <ele>30</ele>
        <time>2020-06-24T10:03:50Z</time>
      </trkpt>
      <trkpt lat="50.36355" lon="3.53149">
        <ele>30.1</ele>
        <time>2020-06-24T10:03:51Z</time>
      </trkpt>
      <trkpt lat="50.36353" lon="3.53155">
        <ele>30.4</ele>
        <time>2020-06-24T10:03:52Z</time>
      </trkpt>
      <trkpt lat="50.36351" lon="3.5316">
        <ele>30.5</ele>
        <time>2020-06-24T10:03:53Z</time>
      </trkpt>
      <trkpt lat="50.36348" lon="3.53164">
        <ele>30.7</ele>
        <time>2020-06-24T10:03:54Z</time>
      </trkpt>
      <trkpt lat="50.36346" lon="3.53167">
        <ele>30.8</ele>
        <time>2020-06-24T10:03:55Z</time>
      </trkpt>
      <trkpt lat="50.36344" lon="3.53172">
        <ele>31</ele>
        <time>2020-06-24T10:03:56Z</time>
      </trkpt>
      <trkpt lat="50.36341" lon="3.53177">
        <ele>31.2</ele>
        <time>2020-06-24T10:03:57Z</time>
      </trkpt>
      <trkpt lat="50.36339" lon="3.53183">
        <ele>31.5</ele>
        <time>2020-06-24T10:03:58Z</time>
      </trkpt>
      <trkpt lat="50.36339" lon="3.5319">
        <ele>31.7</ele>
        <time>2020-06-24T10:03:59Z</time>
      </trkpt>
      <trkpt lat="50.36336" lon="3.53193">
        <ele>31.9</ele>
        <time>2020-06-24T10:04:00Z</time>
      </trkpt>
      <trkpt lat="50.36331" lon="3.53195">
        <ele>32.1</ele>
        <time>2020-06-24T10:04:01Z</time>
      </trkpt>
      <trkpt lat="50.36328" lon="3.53199">
        <ele>32.2</ele>
        <time>2020-06-24T10:04:02Z</time>
      </trkpt>
      <trkpt lat="50.36325" lon="3.53203">
        <ele>32.3</ele>
        <time>2020-06-24T10:04:03Z</time>
      </trkpt>
      <trkpt lat="50.36323" lon="3.53206">
        <ele>32.3</ele>
        <time>2020-06-24T10:04:04Z</time>
      </trkpt>
      <trkpt lat="50.36321" lon="3.5321">
        <ele>32.3</ele>
        <time>2020-06-24T10:04:05Z</time>
      </trkpt>
      <trkpt lat="50.36319" lon="3.53213">
        <ele>32.4</ele>
        <time>2020-06-24T10:04:06Z</time>
      </trkpt>
      <trkpt lat="50.36316" lon="3.53218">
        <ele>32.4</ele>
        <time>2020-06-24T10:04:07Z</time>
      </trkpt>
      <trkpt lat="50.36313" lon="3.53223">
        <ele>32.5</ele>
        <time>2020-06-24T10:04:08Z</time>
      </trkpt>
      <trkpt lat="50.3631" lon="3.53228">
        <ele>32.5</ele>
        <time>2020-06-24T10:04:09Z</time>
      </trkpt>
      <trkpt lat="50.36307" lon="3.53233">
        <ele>32.6</ele>
        <time>2020-06-24T10:04:10Z</time>
      </trkpt>
      <trkpt lat="50.36305" lon="3.53238">
        <ele>32.7</ele>
        <time>2020-06-24T10:04:11Z</time>
      </trkpt>
      <trkpt lat="50.36302" lon="3.53243">
        <ele>32.8</ele>
        <time>2020-06-24T10:04:12Z</time>
      </trkpt>
      <trkpt lat="50.363" lon="3.53247">
        <ele>32.9</ele>
        <time>2020-06-24T10:04:13Z</time>
      </trkpt>
      <trkpt lat="50.36298" lon="3.53252">
        <ele>32.9</ele>
        <time>2020-06-24T10:04:14Z</time>
      </trkpt>
      <trkpt lat="50.36297" lon="3.53255">
        <ele>33</ele>
        <time>2020-06-24T10:04:15Z</time>
      </trkpt>
      <trkpt lat="50.36295" lon="3.53259">
        <ele>33.1</ele>
        <time>2020-06-24T10:04:16Z</time>
      </trkpt>
      <trkpt lat="50.36292" lon="3.53263">
        <ele>33.1</ele>
        <time>2020-06-24T10:04:17Z</time>
      </trkpt>
      <trkpt lat="50.3629" lon="3.53265">
        <ele>33.2</ele>
        <time>2020-06-24T10:04:18Z</time>
      </trkpt>
      <trkpt lat="50.36287" lon="3.53269">
        <ele>33.3</ele>
        <time>2020-06-24T10:04:19Z</time>
      </trkpt>
      <trkpt lat="50.36286" lon="3.53273">
        <ele>33.4</ele>
        <time>2020-06-24T10:04:20Z</time>
      </trkpt>
      <trkpt lat="50.36284" lon="3.53278">
        <ele>33.5</ele>
        <time>2020-06-24T10:04:21Z</time>
      </trkpt>
      <trkpt lat="50.36283" lon="3.5328">
        <ele>33.5</ele>
        <time>2020-06-24T10:04:22Z</time>
      </trkpt>
      <trkpt lat="50.36281" lon="3.53283">
        <ele>33.6</ele>
        <time>2020-06-24T10:04:23Z</time>
      </trkpt>
      <trkpt lat="50.3628" lon="3.53284">
        <ele>33.7</ele>
        <time>2020-06-24T10:04:24Z</time>
      </trkpt>
      <trkpt lat="50.36279" lon="3.53286">
        <ele>33.7</ele>
        <time>2020-06-24T10:04:25Z</time>
      </trkpt>
      <trkpt lat="50.36277" lon="3.53288">
        <ele>33.8</ele>
        <time>2020-06-24T10:04:26Z</time>
      </trkpt>
      <trkpt lat="50.36276" lon="3.53292">
        <ele>33.9</ele>
        <time>2020-06-24T10:04:27Z</time>
      </trkpt>
      <trkpt lat="50.36275" lon="3.53293">
        <ele>34</ele>
        <time>2020-06-24T10:04:28Z</time>
      </trkpt>
      <trkpt lat="50.36274" lon="3.53298">
        <ele>34.1</ele>
        <time>2020-06-24T10:04:29Z</time>
      </trkpt>
      <trkpt lat="50.36273" lon="3.533">
        <ele>34.2</ele>
        <time>2020-06-24T10:04:30Z</time>
      </trkpt>
      <trkpt lat="50.36272" lon="3.53304">
        <ele>34.6</ele>
        <time>2020-06-24T10:04:31Z</time>
      </trkpt>
      <trkpt lat="50.36271" lon="3.53309">
        <ele>34.6</ele>
        <time>2020-06-24T10:04:32Z</time>
      </trkpt>
      <trkpt lat="50.36272" lon="3.53314">
        <ele>34.7</ele>
        <time>2020-06-24T10:04:33Z</time>
      </trkpt>
      <trkpt lat="50.36272" lon="3.5332">
        <ele>34.7</ele>
        <time>2020-06-24T10:04:34Z</time>
      </trkpt>
      <trkpt lat="50.36273" lon="3.53327">
        <ele>34.7</ele>
        <time>2020-06-24T10:04:35Z</time>
      </trkpt>
      <trkpt lat="50.36274" lon="3.53332">
        <ele>34.8</ele>
        <time>2020-06-24T10:04:36Z</time>
      </trkpt>
      <trkpt lat="50.36275" lon="3.53338">
        <ele>34.8</ele>
        <time>2020-06-24T10:04:37Z</time>
      </trkpt>
      <trkpt lat="50.36277" lon="3.53344">
        <ele>34.9</ele>
        <time>2020-06-24T10:04:38Z</time>
      </trkpt>
      <trkpt lat="50.36279" lon="3.53351">
        <ele>34.9</ele>
        <time>2020-06-24T10:04:39Z</time>
      </trkpt>
      <trkpt lat="50.36281" lon="3.53358">
        <ele>34.9</ele>
        <time>2020-06-24T10:04:40Z</time>
      </trkpt>
      <trkpt lat="50.36283" lon="3.53365">
        <ele>34.9</ele>
        <time>2020-06-24T10:04:41Z</time>
      </trkpt>
      <trkpt lat="50.36285" lon="3.53372">
        <ele>34.9</ele>
        <time>2020-06-24T10:04:42Z</time>
      </trkpt>
      <trkpt lat="50.36286" lon="3.53379">
        <ele>34.9</ele>
        <time>2020-06-24T10:04:43Z</time>
      </trkpt>
      <trkpt lat="50.36288" lon="3.53386">
        <ele>35</ele>
        <time>2020-06-24T10:04:44Z</time>
      </trkpt>
      <trkpt lat="50.36291" lon="3.53393">
        <ele>35</ele>
        <time>2020-06-24T10:04:45Z</time>
      </trkpt>
      <trkpt lat="50.36294" lon="3.53401">
        <ele>35</ele>
        <time>2020-06-24T10:04:46Z</time>
      </trkpt>
      <trkpt lat="50.36298" lon="3.53407">
        <ele>35</ele>
        <time>2020-06-24T10:04:47Z</time>
      </trkpt>
      <trkpt lat="50.36301" lon="3.53414">
        <ele>35</ele>
        <time>2020-06-24T10:04:48Z</time>
      </trkpt>
      <trkpt lat="50.36304" lon="3.5342">
        <ele>35.1</ele>
        <time>2020-06-24T10:04:49Z</time>
      </trkpt>
      <trkpt lat="50.36307" lon="3.53426">
        <ele>35.1</ele>
        <time>2020-06-24T10:04:50Z</time>
      </trkpt>
      <trkpt lat="50.36311" lon="3.53432">
        <ele>35.1</ele>
        <time>2020-06-24T10:04:51Z</time>
      </trkpt>
      <trkpt lat="50.36314" lon="3.53439">
        <ele>35.1</ele>
        <time>2020-06-24T10:04:52Z</time>
      </trkpt>
      <trkpt lat="50.36317" lon="3.53446">
        <ele>35.2</ele>
        <time>2020-06-24T10:04:53Z</time>
      </trkpt>
      <trkpt lat="50.36319" lon="3.53452">
        <ele>35.2</ele>
        <time>2020-06-24T10:04:54Z</time>
      </trkpt>
      <trkpt lat="50.36322" lon="3.53458">
        <ele>35.2</ele>
        <time>2020-06-24T10:04:55Z</time>
      </trkpt>
      <trkpt lat="50.36325" lon="3.53465">
        <ele>35.2</ele>
        <time>2020-06-24T10:04:56Z</time>
      </trkpt>
      <trkpt lat="50.36327" lon="3.53474">
        <ele>35.3</ele>
        <time>2020-06-24T10:04:57Z</time>
      </trkpt>
      <trkpt lat="50.36329" lon="3.53481">
        <ele>35.3</ele>
        <time>2020-06-24T10:04:58Z</time>
      </trkpt>
      <trkpt lat="50.36332" lon="3.53489">
        <ele>35.3</ele>
        <time>2020-06-24T10:04:59Z</time>
      </trkpt>
      <trkpt lat="50.36335" lon="3.53496">
        <ele>35.4</ele>
        <time>2020-06-24T10:05:00Z</time>
      </trkpt>
      <trkpt lat="50.36339" lon="3.53504">
        <ele>35.4</ele>
        <time>2020-06-24T10:05:01Z</time>
      </trkpt>
      <trkpt lat="50.36342" lon="3.53512">
        <ele>35.4</ele>
        <time>2020-06-24T10:05:02Z</time>
      </trkpt>
      <trkpt lat="50.36345" lon="3.53519">
        <ele>35.5</ele>
        <time>2020-06-24T10:05:03Z</time>
      </trkpt>
      <trkpt lat="50.36348" lon="3.53525">
        <ele>35.5</ele>
        <time>2020-06-24T10:05:04Z</time>
      </trkpt>
      <trkpt lat="50.36351" lon="3.53531">
        <ele>35.5</ele>
        <time>2020-06-24T10:05:05Z</time>
      </trkpt>
      <trkpt lat="50.36354" lon="3.53538">
        <ele>35.6</ele>
        <time>2020-06-24T10:05:06Z</time>
      </trkpt>
      <trkpt lat="50.36357" lon="3.53546">
        <ele>35.6</ele>
        <time>2020-06-24T10:05:07Z</time>
      </trkpt>
      <trkpt lat="50.36359" lon="3.53553">
        <ele>35.7</ele>
        <time>2020-06-24T10:05:08Z</time>
      </trkpt>
      <trkpt lat="50.36361" lon="3.5356">
        <ele>35.7</ele>
        <time>2020-06-24T10:05:09Z</time>
      </trkpt>
      <trkpt lat="50.36363" lon="3.53567">
        <ele>35.8</ele>
        <time>2020-06-24T10:05:10Z</time>
      </trkpt>
      <trkpt lat="50.36365" lon="3.53573">
        <ele>35.8</ele>
        <time>2020-06-24T10:05:11Z</time>
      </trkpt>
      <trkpt lat="50.36366" lon="3.53579">
        <ele>35.9</ele>
        <time>2020-06-24T10:05:12Z</time>
      </trkpt>
      <trkpt lat="50.36368" lon="3.53585">
        <ele>35.9</ele>
        <time>2020-06-24T10:05:13Z</time>
      </trkpt>
      <trkpt lat="50.36369" lon="3.53591">
        <ele>35.9</ele>
        <time>2020-06-24T10:05:14Z</time>
      </trkpt>
      <trkpt lat="50.3637" lon="3.53596">
        <ele>36</ele>
        <time>2020-06-24T10:05:15Z</time>
      </trkpt>
      <trkpt lat="50.36371" lon="3.536">
        <ele>36</ele>
        <time>2020-06-24T10:05:16Z</time>
      </trkpt>
      <trkpt lat="50.36374" lon="3.53605">
        <ele>36</ele>
        <time>2020-06-24T10:05:17Z</time>
      </trkpt>
      <trkpt lat="50.36374" lon="3.53609">
        <ele>36.1</ele>
        <time>2020-06-24T10:05:18Z</time>
      </trkpt>
      <trkpt lat="50.36375" lon="3.53614">
        <ele>36.1</ele>
        <time>2020-06-24T10:05:19Z</time>
      </trkpt>
      <trkpt lat="50.36377" lon="3.53617">
        <ele>36.1</ele>
        <time>2020-06-24T10:05:20Z</time>
      </trkpt>
      <trkpt lat="50.3638" lon="3.53622">
        <ele>36.2</ele>
        <time>2020-06-24T10:05:21Z</time>
      </trkpt>
      <trkpt lat="50.36382" lon="3.53627">
        <ele>36.2</ele>
        <time>2020-06-24T10:05:22Z</time>
      </trkpt>
      <trkpt lat="50.36383" lon="3.53631">
        <ele>36.2</ele>
        <time>2020-06-24T10:05:23Z</time>
      </trkpt>
      <trkpt lat="50.36384" lon="3.53631">
        <ele>36.2</ele>
        <time>2020-06-24T10:05:24Z</time>
      </trkpt>
      <trkpt lat="50.36385" lon="3.53631">
        <ele>36.2</ele>
        <time>2020-06-24T10:05:25Z</time>
      </trkpt>
      <trkpt lat="50.36386" lon="3.53631">
        <ele>36.2</ele>
        <time>2020-06-24T10:05:26Z</time>
      </trkpt>
      <trkpt lat="50.36387" lon="3.53631">
        <ele>36.2</ele>
        <time>2020-06-24T10:05:27Z</time>
      </trkpt>
      <trkpt lat="50.36388" lon="3.53632">
        <ele>36.2</ele>
        <time>2020-06-24T10:05:28Z</time>
      </trkpt>
      <trkpt lat="50.36389" lon="3.53633">
        <ele>36.2</ele>
        <time>2020-06-24T10:05:29Z</time>
      </trkpt>
      <trkpt lat="50.3639" lon="3.53633">
        <ele>36.2</ele>
        <time>2020-06-24T10:05:30Z</time>
      </trkpt>
      <trkpt lat="50.36388" lon="3.53631">
        <ele>36.2</ele>
        <time>2020-06-24T10:05:31Z</time>
      </trkpt>
      <trkpt lat="50.36387" lon="3.53631">
        <ele>36.2</ele>
        <time>2020-06-24T10:05:32Z</time>
      </trkpt>
      <trkpt lat="50.36386" lon="3.53631">
        <ele>36.2</ele>
        <time>2020-06-24T10:05:33Z</time>
      </trkpt>
      <trkpt lat="50.36382" lon="3.5363">
        <ele>36.2</ele>
        <time>2020-06-24T10:05:34Z</time>
      </trkpt>
      <trkpt lat="50.36379" lon="3.53629">
        <ele>36.2</ele>
        <time>2020-06-24T10:05:35Z</time>
      </trkpt>
      <trkpt lat="50.36375" lon="3.53627">
        <ele>36.2</ele>
        <time>2020-06-24T10:05:40Z</time>
      </trkpt>
      <trkpt lat="50.36372" lon="3.53625">
        <ele>36.2</ele>
        <time>2020-06-24T10:05:41Z</time>
      </trkpt>
      <trkpt lat="50.36369" lon="3.53626">
        <ele>36.2</ele>
        <time>2020-06-24T10:05:42Z</time>
      </trkpt>
      <trkpt lat="50.36365" lon="3.53628">
        <ele>36.2</ele>
        <time>2020-06-24T10:05:43Z</time>
      </trkpt>
      <trkpt lat="50.36362" lon="3.53631">
        <ele>36.2</ele>
        <time>2020-06-24T10:05:44Z</time>
      </trkpt>
      <trkpt lat="50.36359" lon="3.53634">
        <ele>36.3</ele>
        <time>2020-06-24T10:05:45Z</time>
      </trkpt>
      <trkpt lat="50.36358" lon="3.53638">
        <ele>36.3</ele>
        <time>2020-06-24T10:05:46Z</time>
      </trkpt>
      <trkpt lat="50.36356" lon="3.53642">
        <ele>36.4</ele>
        <time>2020-06-24T10:05:47Z</time>
      </trkpt>
      <trkpt lat="50.36355" lon="3.53647">
        <ele>36.5</ele>
        <time>2020-06-24T10:05:48Z</time>
      </trkpt>
      <trkpt lat="50.36354" lon="3.53652">
        <ele>36.5</ele>
        <time>2020-06-24T10:05:49Z</time>
      </trkpt>
      <trkpt lat="50.36353" lon="3.53658">
        <ele>36.6</ele>
        <time>2020-06-24T10:05:50Z</time>
      </trkpt>
      <trkpt lat="50.3635" lon="3.53662">
        <ele>36.7</ele>
        <time>2020-06-24T10:05:51Z</time>
      </trkpt>
      <trkpt lat="50.36346" lon="3.53666">
        <ele>36.7</ele>
        <time>2020-06-24T10:05:52Z</time>
      </trkpt>
      <trkpt lat="50.36342" lon="3.53671">
        <ele>36.8</ele>
        <time>2020-06-24T10:05:53Z</time>
      </trkpt>
      <trkpt lat="50.36338" lon="3.53678">
        <ele>36.9</ele>
        <time>2020-06-24T10:05:54Z</time>
      </trkpt>
      <trkpt lat="50.36335" lon="3.53684">
        <ele>37</ele>
        <time>2020-06-24T10:05:55Z</time>
      </trkpt>
      <trkpt lat="50.36333" lon="3.5369">
        <ele>37.1</ele>
        <time>2020-06-24T10:05:56Z</time>
      </trkpt>
      <trkpt lat="50.36331" lon="3.53695">
        <ele>37.1</ele>
        <time>2020-06-24T10:05:57Z</time>
      </trkpt>
      <trkpt lat="50.36328" lon="3.53701">
        <ele>37.2</ele>
        <time>2020-06-24T10:05:58Z</time>
      </trkpt>
      <trkpt lat="50.36326" lon="3.53707">
        <ele>37.3</ele>
        <time>2020-06-24T10:05:59Z</time>
      </trkpt>
      <trkpt lat="50.36324" lon="3.53714">
        <ele>37.3</ele>
        <time>2020-06-24T10:06:00Z</time>
      </trkpt>
      <trkpt lat="50.36321" lon="3.5372">
        <ele>37.4</ele>
        <time>2020-06-24T10:06:01Z</time>
      </trkpt>
      <trkpt lat="50.36319" lon="3.53726">
        <ele>37.5</ele>
        <time>2020-06-24T10:06:02Z</time>
      </trkpt>
      <trkpt lat="50.36317" lon="3.53733">
        <ele>37.5</ele>
        <time>2020-06-24T10:06:03Z</time>
      </trkpt>
      <trkpt lat="50.36314" lon="3.5374">
        <ele>37.6</ele>
        <time>2020-06-24T10:06:04Z</time>
      </trkpt>
      <trkpt lat="50.36311" lon="3.53747">
        <ele>37.6</ele>
        <time>2020-06-24T10:06:05Z</time>
      </trkpt>
      <trkpt lat="50.36308" lon="3.53753">
        <ele>37.7</ele>
        <time>2020-06-24T10:06:06Z</time>
      </trkpt>
      <trkpt lat="50.36307" lon="3.5376">
        <ele>37.7</ele>
        <time>2020-06-24T10:06:07Z</time>
      </trkpt>
      <trkpt lat="50.36305" lon="3.53767">
        <ele>37.8</ele>
        <time>2020-06-24T10:06:08Z</time>
      </trkpt>
      <trkpt lat="50.36302" lon="3.53772">
        <ele>37.8</ele>
        <time>2020-06-24T10:06:09Z</time>
      </trkpt>
      <trkpt lat="50.363" lon="3.53779">
        <ele>37.8</ele>
        <time>2020-06-24T10:06:10Z</time>
      </trkpt>
      <trkpt lat="50.36297" lon="3.53785">
        <ele>37.9</ele>
        <time>2020-06-24T10:06:11Z</time>
      </trkpt>
      <trkpt lat="50.36295" lon="3.53791">
        <ele>37.9</ele>
        <time>2020-06-24T10:06:12Z</time>
      </trkpt>
      <trkpt lat="50.36292" lon="3.53797">
        <ele>38</ele>
        <time>2020-06-24T10:06:13Z</time>
      </trkpt>
      <trkpt lat="50.36291" lon="3.53803">
        <ele>38</ele>
        <time>2020-06-24T10:06:14Z</time>
      </trkpt>
      <trkpt lat="50.36288" lon="3.5381">
        <ele>38.1</ele>
        <time>2020-06-24T10:06:15Z</time>
      </trkpt>
      <trkpt lat="50.36285" lon="3.53817">
        <ele>38.1</ele>
        <time>2020-06-24T10:06:16Z</time>
      </trkpt>
      <trkpt lat="50.36282" lon="3.53822">
        <ele>38.2</ele>
        <time>2020-06-24T10:06:17Z</time>
      </trkpt>
      <trkpt lat="50.36279" lon="3.53829">
        <ele>38.2</ele>
        <time>2020-06-24T10:06:18Z</time>
      </trkpt>
      <trkpt lat="50.36277" lon="3.53835">
        <ele>38.2</ele>
        <time>2020-06-24T10:06:19Z</time>
      </trkpt>
      <trkpt lat="50.36275" lon="3.53842">
        <ele>38.3</ele>
        <time>2020-06-24T10:06:20Z</time>
      </trkpt>
      <trkpt lat="50.36271" lon="3.53848">
        <ele>38.3</ele>
        <time>2020-06-24T10:06:21Z</time>
      </trkpt>
      <trkpt lat="50.36269" lon="3.53856">
        <ele>38.4</ele>
        <time>2020-06-24T10:06:22Z</time>
      </trkpt>
      <trkpt lat="50.36265" lon="3.53862">
        <ele>38.4</ele>
        <time>2020-06-24T10:06:23Z</time>
      </trkpt>
      <trkpt lat="50.36261" lon="3.5387">
        <ele>38.5</ele>
        <time>2020-06-24T10:06:24Z</time>
      </trkpt>
      <trkpt lat="50.36258" lon="3.53876">
        <ele>38.5</ele>
        <time>2020-06-24T10:06:25Z</time>
      </trkpt>
      <trkpt lat="50.36256" lon="3.53882">
        <ele>38.5</ele>
        <time>2020-06-24T10:06:26Z</time>
      </trkpt>
      <trkpt lat="50.36253" lon="3.53888">
        <ele>38.6</ele>
        <time>2020-06-24T10:06:27Z</time>
      </trkpt>
      <trkpt lat="50.36251" lon="3.53896">
        <ele>38.6</ele>
        <time>2020-06-24T10:06:28Z</time>
      </trkpt>
      <trkpt lat="50.36248" lon="3.53902">
        <ele>38.6</ele>
        <time>2020-06-24T10:06:29Z</time>
      </trkpt>
      <trkpt lat="50.36245" lon="3.5391">
        <ele>38.6</ele>
        <time>2020-06-24T10:06:30Z</time>
      </trkpt>
      <trkpt lat="50.36243" lon="3.53915">
        <ele>38.6</ele>
        <time>2020-06-24T10:06:31Z</time>
      </trkpt>
      <trkpt lat="50.3624" lon="3.53921">
        <ele>38.6</ele>
        <time>2020-06-24T10:06:32Z</time>
      </trkpt>
      <trkpt lat="50.36238" lon="3.53928">
        <ele>38.6</ele>
        <time>2020-06-24T10:06:33Z</time>
      </trkpt>
      <trkpt lat="50.36237" lon="3.53934">
        <ele>38.6</ele>
        <time>2020-06-24T10:06:34Z</time>
      </trkpt>
      <trkpt lat="50.36235" lon="3.5394">
        <ele>38.6</ele>
        <time>2020-06-24T10:06:35Z</time>
      </trkpt>
      <trkpt lat="50.36233" lon="3.53946">
        <ele>38.6</ele>
        <time>2020-06-24T10:06:36Z</time>
      </trkpt>
      <trkpt lat="50.3623" lon="3.53954">
        <ele>38.6</ele>
        <time>2020-06-24T10:06:37Z</time>
      </trkpt>
      <trkpt lat="50.36228" lon="3.5396">
        <ele>38.6</ele>
        <time>2020-06-24T10:06:38Z</time>
      </trkpt>
      <trkpt lat="50.36226" lon="3.53967">
        <ele>38.6</ele>
        <time>2020-06-24T10:06:39Z</time>
      </trkpt>
      <trkpt lat="50.36223" lon="3.53973">
        <ele>38.6</ele>
        <time>2020-06-24T10:06:40Z</time>
      </trkpt>
      <trkpt lat="50.36219" lon="3.53978">
        <ele>38.6</ele>
        <time>2020-06-24T10:06:41Z</time>
      </trkpt>
      <trkpt lat="50.36215" lon="3.53983">
        <ele>38.6</ele>
        <time>2020-06-24T10:06:42Z</time>
      </trkpt>
      <trkpt lat="50.36214" lon="3.5399">
        <ele>38.5</ele>
        <time>2020-06-24T10:06:43Z</time>
      </trkpt>
      <trkpt lat="50.36212" lon="3.53997">
        <ele>38.5</ele>
        <time>2020-06-24T10:06:44Z</time>
      </trkpt>
      <trkpt lat="50.3621" lon="3.54004">
        <ele>38.5</ele>
        <time>2020-06-24T10:06:45Z</time>
      </trkpt>
      <trkpt lat="50.36209" lon="3.54011">
        <ele>38.5</ele>
        <time>2020-06-24T10:06:46Z</time>
      </trkpt>
      <trkpt lat="50.36208" lon="3.54019">
        <ele>38.4</ele>
        <time>2020-06-24T10:06:47Z</time>
      </trkpt>
      <trkpt lat="50.36206" lon="3.54027">
        <ele>38.4</ele>
        <time>2020-06-24T10:06:48Z</time>
      </trkpt>
      <trkpt lat="50.36206" lon="3.54035">
        <ele>38.4</ele>
        <time>2020-06-24T10:06:49Z</time>
      </trkpt>
      <trkpt lat="50.36206" lon="3.54042">
        <ele>38.4</ele>
        <time>2020-06-24T10:06:50Z</time>
      </trkpt>
      <trkpt lat="50.36205" lon="3.54047">
        <ele>38.4</ele>
        <time>2020-06-24T10:06:51Z</time>
      </trkpt>
      <trkpt lat="50.36205" lon="3.54054">
        <ele>38.4</ele>
        <time>2020-06-24T10:06:52Z</time>
      </trkpt>
      <trkpt lat="50.36205" lon="3.54062">
        <ele>38.4</ele>
        <time>2020-06-24T10:06:53Z</time>
      </trkpt>
      <trkpt lat="50.36206" lon="3.5407">
        <ele>38.4</ele>
        <time>2020-06-24T10:06:54Z</time>
      </trkpt>
      <trkpt lat="50.36206" lon="3.54077">
        <ele>38.3</ele>
        <time>2020-06-24T10:06:55Z</time>
      </trkpt>
      <trkpt lat="50.36207" lon="3.54083">
        <ele>38.3</ele>
        <time>2020-06-24T10:06:56Z</time>
      </trkpt>
      <trkpt lat="50.36208" lon="3.54091">
        <ele>38.3</ele>
        <time>2020-06-24T10:06:57Z</time>
      </trkpt>
      <trkpt lat="50.36209" lon="3.54098">
        <ele>38.3</ele>
        <time>2020-06-24T10:06:58Z</time>
      </trkpt>
      <trkpt lat="50.3621" lon="3.54104">
        <ele>38.4</ele>
        <time>2020-06-24T10:06:59Z</time>
      </trkpt>
      <trkpt lat="50.36211" lon="3.54112">
        <ele>38.4</ele>
        <time>2020-06-24T10:07:00Z</time>
      </trkpt>
      <trkpt lat="50.36211" lon="3.54119">
        <ele>38.4</ele>
        <time>2020-06-24T10:07:01Z</time>
      </trkpt>
      <trkpt lat="50.36212" lon="3.54128">
        <ele>38.3</ele>
        <time>2020-06-24T10:07:02Z</time>
      </trkpt>
      <trkpt lat="50.36214" lon="3.54136">
        <ele>38.3</ele>
        <time>2020-06-24T10:07:03Z</time>
      </trkpt>
      <trkpt lat="50.36216" lon="3.54143">
        <ele>38.3</ele>
        <time>2020-06-24T10:07:04Z</time>
      </trkpt>
      <trkpt lat="50.36219" lon="3.54151">
        <ele>38.2</ele>
        <time>2020-06-24T10:07:05Z</time>
      </trkpt>
      <trkpt lat="50.3622" lon="3.54159">
        <ele>38.2</ele>
        <time>2020-06-24T10:07:06Z</time>
      </trkpt>
      <trkpt lat="50.3622" lon="3.54168">
        <ele>38.2</ele>
        <time>2020-06-24T10:07:07Z</time>
      </trkpt>
      <trkpt lat="50.3622" lon="3.54176">
        <ele>38.2</ele>
        <time>2020-06-24T10:07:08Z</time>
      </trkpt>
      <trkpt lat="50.3622" lon="3.54184">
        <ele>38.2</ele>
        <time>2020-06-24T10:07:09Z</time>
      </trkpt>
      <trkpt lat="50.36221" lon="3.54192">
        <ele>38.1</ele>
        <time>2020-06-24T10:07:10Z</time>
      </trkpt>
      <trkpt lat="50.36222" lon="3.54201">
        <ele>38.1</ele>
        <time>2020-06-24T10:07:11Z</time>
      </trkpt>
      <trkpt lat="50.36222" lon="3.54209">
        <ele>38</ele>
        <time>2020-06-24T10:07:12Z</time>
      </trkpt>
      <trkpt lat="50.36222" lon="3.54218">
        <ele>38</ele>
        <time>2020-06-24T10:07:13Z</time>
      </trkpt>
      <trkpt lat="50.36222" lon="3.54226">
        <ele>38</ele>
        <time>2020-06-24T10:07:14Z</time>
      </trkpt>
      <trkpt lat="50.36222" lon="3.54234">
        <ele>38</ele>
        <time>2020-06-24T10:07:15Z</time>
      </trkpt>
      <trkpt lat="50.36223" lon="3.54242">
        <ele>38</ele>
        <time>2020-06-24T10:07:16Z</time>
      </trkpt>
      <trkpt lat="50.36223" lon="3.54251">
        <ele>38</ele>
        <time>2020-06-24T10:07:17Z</time>
      </trkpt>
      <trkpt lat="50.36224" lon="3.54258">
        <ele>37.9</ele>
        <time>2020-06-24T10:07:18Z</time>
      </trkpt>
      <trkpt lat="50.36224" lon="3.54266">
        <ele>37.9</ele>
        <time>2020-06-24T10:07:19Z</time>
      </trkpt>
      <trkpt lat="50.36225" lon="3.54275">
        <ele>37.9</ele>
        <time>2020-06-24T10:07:20Z</time>
      </trkpt>
      <trkpt lat="50.36225" lon="3.54282">
        <ele>37.9</ele>
        <time>2020-06-24T10:07:21Z</time>
      </trkpt>
      <trkpt lat="50.36225" lon="3.5429">
        <ele>37.9</ele>
        <time>2020-06-24T10:07:22Z</time>
      </trkpt>
      <trkpt lat="50.36225" lon="3.54298">
        <ele>37.9</ele>
        <time>2020-06-24T10:07:23Z</time>
      </trkpt>
      <trkpt lat="50.36225" lon="3.54308">
        <ele>37.9</ele>
        <time>2020-06-24T10:07:24Z</time>
      </trkpt>
      <trkpt lat="50.36225" lon="3.54316">
        <ele>37.9</ele>
        <time>2020-06-24T10:07:25Z</time>
      </trkpt>
      <trkpt lat="50.36225" lon="3.54324">
        <ele>38</ele>
        <time>2020-06-24T10:07:26Z</time>
      </trkpt>
      <trkpt lat="50.36225" lon="3.54332">
        <ele>38</ele>
        <time>2020-06-24T10:07:27Z</time>
      </trkpt>
      <trkpt lat="50.36225" lon="3.54341">
        <ele>38</ele>
        <time>2020-06-24T10:07:28Z</time>
      </trkpt>
      <trkpt lat="50.36226" lon="3.5435">
        <ele>38.1</ele>
        <time>2020-06-24T10:07:29Z</time>
      </trkpt>
      <trkpt lat="50.36227" lon="3.54359">
        <ele>38.1</ele>
        <time>2020-06-24T10:07:30Z</time>
      </trkpt>
      <trkpt lat="50.36228" lon="3.54367">
        <ele>38.1</ele>
        <time>2020-06-24T10:07:31Z</time>
      </trkpt>
      <trkpt lat="50.36229" lon="3.54376">
        <ele>38.2</ele>
        <time>2020-06-24T10:07:32Z</time>
      </trkpt>
      <trkpt lat="50.36229" lon="3.54385">
        <ele>38.2</ele>
        <time>2020-06-24T10:07:33Z</time>
      </trkpt>
      <trkpt lat="50.36229" lon="3.54392">
        <ele>38.3</ele>
        <time>2020-06-24T10:07:34Z</time>
      </trkpt>
      <trkpt lat="50.36229" lon="3.54399">
        <ele>38.3</ele>
        <time>2020-06-24T10:07:35Z</time>
      </trkpt>
      <trkpt lat="50.36228" lon="3.54407">
        <ele>38.4</ele>
        <time>2020-06-24T10:07:36Z</time>
      </trkpt>
      <trkpt lat="50.36229" lon="3.54415">
        <ele>38.4</ele>
        <time>2020-06-24T10:07:37Z</time>
      </trkpt>
      <trkpt lat="50.3623" lon="3.54423">
        <ele>38.5</ele>
        <time>2020-06-24T10:07:38Z</time>
      </trkpt>
      <trkpt lat="50.36231" lon="3.5443">
        <ele>38.5</ele>
        <time>2020-06-24T10:07:39Z</time>
      </trkpt>
      <trkpt lat="50.36232" lon="3.54437">
        <ele>38.6</ele>
        <time>2020-06-24T10:07:40Z</time>
      </trkpt>
      <trkpt lat="50.36233" lon="3.54444">
        <ele>38.7</ele>
        <time>2020-06-24T10:07:41Z</time>
      </trkpt>
      <trkpt lat="50.36233" lon="3.54454">
        <ele>38.8</ele>
        <time>2020-06-24T10:07:42Z</time>
      </trkpt>
      <trkpt lat="50.36232" lon="3.54463">
        <ele>38.9</ele>
        <time>2020-06-24T10:07:43Z</time>
      </trkpt>
      <trkpt lat="50.36233" lon="3.54471">
        <ele>39.1</ele>
        <time>2020-06-24T10:07:44Z</time>
      </trkpt>
      <trkpt lat="50.36233" lon="3.54478">
        <ele>39.2</ele>
        <time>2020-06-24T10:07:45Z</time>
      </trkpt>
      <trkpt lat="50.36233" lon="3.54485">
        <ele>39.3</ele>
        <time>2020-06-24T10:07:46Z</time>
      </trkpt>
      <trkpt lat="50.36234" lon="3.54493">
        <ele>39.5</ele>
        <time>2020-06-24T10:07:47Z</time>
      </trkpt>
      <trkpt lat="50.36234" lon="3.54499">
        <ele>39.6</ele>
        <time>2020-06-24T10:07:48Z</time>
      </trkpt>
      <trkpt lat="50.36234" lon="3.54508">
        <ele>39.7</ele>
        <time>2020-06-24T10:07:49Z</time>
      </trkpt>
      <trkpt lat="50.36235" lon="3.54514">
        <ele>39.9</ele>
        <time>2020-06-24T10:07:50Z</time>
      </trkpt>
      <trkpt lat="50.36235" lon="3.5452">
        <ele>39.9</ele>
        <time>2020-06-24T10:07:51Z</time>
      </trkpt>
      <trkpt lat="50.36235" lon="3.54527">
        <ele>40.1</ele>
        <time>2020-06-24T10:07:52Z</time>
      </trkpt>
      <trkpt lat="50.36235" lon="3.54535">
        <ele>40.3</ele>
        <time>2020-06-24T10:07:53Z</time>
      </trkpt>
      <trkpt lat="50.36235" lon="3.54541">
        <ele>40.5</ele>
        <time>2020-06-24T10:07:54Z</time>
      </trkpt>
      <trkpt lat="50.36236" lon="3.54547">
        <ele>40.6</ele>
        <time>2020-06-24T10:07:55Z</time>
      </trkpt>
      <trkpt lat="50.36237" lon="3.54553">
        <ele>40.8</ele>
        <time>2020-06-24T10:07:56Z</time>
      </trkpt>
      <trkpt lat="50.36238" lon="3.54558">
        <ele>40.9</ele>
        <time>2020-06-24T10:07:57Z</time>
      </trkpt>
      <trkpt lat="50.36238" lon="3.54564">
        <ele>41.1</ele>
        <time>2020-06-24T10:07:58Z</time>
      </trkpt>
      <trkpt lat="50.36239" lon="3.54569">
        <ele>41.2</ele>
        <time>2020-06-24T10:07:59Z</time>
      </trkpt>
      <trkpt lat="50.36239" lon="3.54574">
        <ele>41.4</ele>
        <time>2020-06-24T10:08:00Z</time>
      </trkpt>
      <trkpt lat="50.36239" lon="3.54579">
        <ele>41.5</ele>
        <time>2020-06-24T10:08:01Z</time>
      </trkpt>
      <trkpt lat="50.3624" lon="3.54586">
        <ele>41.7</ele>
        <time>2020-06-24T10:08:02Z</time>
      </trkpt>
      <trkpt lat="50.3624" lon="3.54591">
        <ele>41.9</ele>
        <time>2020-06-24T10:08:03Z</time>
      </trkpt>
      <trkpt lat="50.3624" lon="3.54597">
        <ele>42.1</ele>
        <time>2020-06-24T10:08:04Z</time>
      </trkpt>
      <trkpt lat="50.3624" lon="3.54603">
        <ele>42.3</ele>
        <time>2020-06-24T10:08:05Z</time>
      </trkpt>
      <trkpt lat="50.36241" lon="3.54609">
        <ele>42.4</ele>
        <time>2020-06-24T10:08:06Z</time>
      </trkpt>
      <trkpt lat="50.36241" lon="3.54617">
        <ele>42.7</ele>
        <time>2020-06-24T10:08:07Z</time>
      </trkpt>
      <trkpt lat="50.36241" lon="3.54621">
        <ele>42.8</ele>
        <time>2020-06-24T10:08:08Z</time>
      </trkpt>
      <trkpt lat="50.36241" lon="3.54626">
        <ele>43</ele>
        <time>2020-06-24T10:08:09Z</time>
      </trkpt>
      <trkpt lat="50.36241" lon="3.54631">
        <ele>43.1</ele>
        <time>2020-06-24T10:08:10Z</time>
      </trkpt>
      <trkpt lat="50.36242" lon="3.54637">
        <ele>43.4</ele>
        <time>2020-06-24T10:08:11Z</time>
      </trkpt>
      <trkpt lat="50.36242" lon="3.5464">
        <ele>43.5</ele>
        <time>2020-06-24T10:08:12Z</time>
      </trkpt>
      <trkpt lat="50.36242" lon="3.54646">
        <ele>43.7</ele>
        <time>2020-06-24T10:08:13Z</time>
      </trkpt>
      <trkpt lat="50.36243" lon="3.54654">
        <ele>44</ele>
        <time>2020-06-24T10:08:14Z</time>
      </trkpt>
      <trkpt lat="50.36243" lon="3.54661">
        <ele>44.2</ele>
        <time>2020-06-24T10:08:15Z</time>
      </trkpt>
      <trkpt lat="50.36244" lon="3.54668">
        <ele>44.5</ele>
        <time>2020-06-24T10:08:16Z</time>
      </trkpt>
      <trkpt lat="50.36244" lon="3.54675">
        <ele>44.7</ele>
        <time>2020-06-24T10:08:17Z</time>
      </trkpt>
      <trkpt lat="50.36244" lon="3.54681">
        <ele>44.9</ele>
        <time>2020-06-24T10:08:18Z</time>
      </trkpt>
      <trkpt lat="50.36244" lon="3.54687">
        <ele>45.1</ele>
        <time>2020-06-24T10:08:19Z</time>
      </trkpt>
      <trkpt lat="50.36245" lon="3.54694">
        <ele>45.3</ele>
        <time>2020-06-24T10:08:20Z</time>
      </trkpt>
      <trkpt lat="50.36246" lon="3.54701">
        <ele>45.7</ele>
        <time>2020-06-24T10:08:21Z</time>
      </trkpt>
      <trkpt lat="50.36246" lon="3.54707">
        <ele>45.9</ele>
        <time>2020-06-24T10:08:22Z</time>
      </trkpt>
      <trkpt lat="50.36246" lon="3.54712">
        <ele>46.1</ele>
        <time>2020-06-24T10:08:23Z</time>
      </trkpt>
      <trkpt lat="50.36246" lon="3.54718">
        <ele>46.3</ele>
        <time>2020-06-24T10:08:24Z</time>
      </trkpt>
      <trkpt lat="50.36247" lon="3.54724">
        <ele>46.5</ele>
        <time>2020-06-24T10:08:25Z</time>
      </trkpt>
      <trkpt lat="50.36247" lon="3.54729">
        <ele>46.6</ele>
        <time>2020-06-24T10:08:26Z</time>
      </trkpt>
      <trkpt lat="50.36247" lon="3.54734">
        <ele>46.8</ele>
        <time>2020-06-24T10:08:27Z</time>
      </trkpt>
      <trkpt lat="50.36247" lon="3.5474">
        <ele>47</ele>
        <time>2020-06-24T10:08:28Z</time>
      </trkpt>
      <trkpt lat="50.36247" lon="3.54745">
        <ele>47.1</ele>
        <time>2020-06-24T10:08:29Z</time>
      </trkpt>
      <trkpt lat="50.36246" lon="3.5475">
        <ele>47.3</ele>
        <time>2020-06-24T10:08:30Z</time>
      </trkpt>
      <trkpt lat="50.36247" lon="3.54755">
        <ele>47.5</ele>
        <time>2020-06-24T10:08:31Z</time>
      </trkpt>
      <trkpt lat="50.36247" lon="3.5476">
        <ele>47.7</ele>
        <time>2020-06-24T10:08:32Z</time>
      </trkpt>
      <trkpt lat="50.36247" lon="3.54765">
        <ele>47.9</ele>
        <time>2020-06-24T10:08:33Z</time>
      </trkpt>
      <trkpt lat="50.36247" lon="3.54772">
        <ele>48.2</ele>
        <time>2020-06-24T10:08:34Z</time>
      </trkpt>
      <trkpt lat="50.36247" lon="3.54774">
        <ele>48.3</ele>
        <time>2020-06-24T10:08:35Z</time>
      </trkpt>
      <trkpt lat="50.36247" lon="3.54778">
        <ele>48.5</ele>
        <time>2020-06-24T10:08:36Z</time>
      </trkpt>
      <trkpt lat="50.36248" lon="3.54783">
        <ele>48.6</ele>
        <time>2020-06-24T10:08:37Z</time>
      </trkpt>
      <trkpt lat="50.36248" lon="3.54788">
        <ele>48.8</ele>
        <time>2020-06-24T10:08:38Z</time>
      </trkpt>
      <trkpt lat="50.36249" lon="3.54792">
        <ele>49</ele>
        <time>2020-06-24T10:08:39Z</time>
      </trkpt>
      <trkpt lat="50.3625" lon="3.54796">
        <ele>49.1</ele>
        <time>2020-06-24T10:08:40Z</time>
      </trkpt>
      <trkpt lat="50.36251" lon="3.548">
        <ele>49.3</ele>
        <time>2020-06-24T10:08:41Z</time>
      </trkpt>
      <trkpt lat="50.36251" lon="3.54804">
        <ele>49.4</ele>
        <time>2020-06-24T10:08:42Z</time>
      </trkpt>
      <trkpt lat="50.36252" lon="3.5481">
        <ele>49.6</ele>
        <time>2020-06-24T10:08:43Z</time>
      </trkpt>
      <trkpt lat="50.36253" lon="3.54815">
        <ele>49.8</ele>
        <time>2020-06-24T10:08:44Z</time>
      </trkpt>
      <trkpt lat="50.36253" lon="3.54821">
        <ele>50</ele>
        <time>2020-06-24T10:08:45Z</time>
      </trkpt>
      <trkpt lat="50.36252" lon="3.54827">
        <ele>50.3</ele>
        <time>2020-06-24T10:08:46Z</time>
      </trkpt>
      <trkpt lat="50.36253" lon="3.54834">
        <ele>50.5</ele>
        <time>2020-06-24T10:08:47Z</time>
      </trkpt>
      <trkpt lat="50.36253" lon="3.54837">
        <ele>50.6</ele>
        <time>2020-06-24T10:08:48Z</time>
      </trkpt>
      <trkpt lat="50.36254" lon="3.54843">
        <ele>50.9</ele>
        <time>2020-06-24T10:08:49Z</time>
      </trkpt>
      <trkpt lat="50.36254" lon="3.5485">
        <ele>51.1</ele>
        <time>2020-06-24T10:08:50Z</time>
      </trkpt>
      <trkpt lat="50.36254" lon="3.54856">
        <ele>51.3</ele>
        <time>2020-06-24T10:08:51Z</time>
      </trkpt>
      <trkpt lat="50.36254" lon="3.5486">
        <ele>51.4</ele>
        <time>2020-06-24T10:08:52Z</time>
      </trkpt>
      <trkpt lat="50.36255" lon="3.54866">
        <ele>51.6</ele>
        <time>2020-06-24T10:08:53Z</time>
      </trkpt>
      <trkpt lat="50.36256" lon="3.54872">
        <ele>51.8</ele>
        <time>2020-06-24T10:08:54Z</time>
      </trkpt>
      <trkpt lat="50.36257" lon="3.54877">
        <ele>52</ele>
        <time>2020-06-24T10:08:55Z</time>
      </trkpt>
      <trkpt lat="50.36257" lon="3.54882">
        <ele>52.1</ele>
        <time>2020-06-24T10:08:56Z</time>
      </trkpt>
      <trkpt lat="50.36258" lon="3.54887">
        <ele>52.2</ele>
        <time>2020-06-24T10:08:57Z</time>
      </trkpt>
      <trkpt lat="50.36258" lon="3.54892">
        <ele>52.3</ele>
        <time>2020-06-24T10:08:58Z</time>
      </trkpt>
      <trkpt lat="50.36259" lon="3.54897">
        <ele>52.5</ele>
        <time>2020-06-24T10:08:59Z</time>
      </trkpt>
      <trkpt lat="50.36259" lon="3.54905">
        <ele>52.6</ele>
        <time>2020-06-24T10:09:00Z</time>
      </trkpt>
      <trkpt lat="50.36258" lon="3.54912">
        <ele>52.7</ele>
        <time>2020-06-24T10:09:01Z</time>
      </trkpt>
      <trkpt lat="50.36258" lon="3.54919">
        <ele>52.8</ele>
        <time>2020-06-24T10:09:02Z</time>
      </trkpt>
      <trkpt lat="50.36258" lon="3.54925">
        <ele>52.9</ele>
        <time>2020-06-24T10:09:03Z</time>
      </trkpt>
      <trkpt lat="50.36257" lon="3.54931">
        <ele>53</ele>
        <time>2020-06-24T10:09:04Z</time>
      </trkpt>
      <trkpt lat="50.36257" lon="3.54937">
        <ele>53</ele>
        <time>2020-06-24T10:09:05Z</time>
      </trkpt>
      <trkpt lat="50.36257" lon="3.54943">
        <ele>53.1</ele>
        <time>2020-06-24T10:09:06Z</time>
      </trkpt>
      <trkpt lat="50.36257" lon="3.5495">
        <ele>53.2</ele>
        <time>2020-06-24T10:09:07Z</time>
      </trkpt>
      <trkpt lat="50.36256" lon="3.54958">
        <ele>53.3</ele>
        <time>2020-06-24T10:09:08Z</time>
      </trkpt>
      <trkpt lat="50.36255" lon="3.54966">
        <ele>53.3</ele>
        <time>2020-06-24T10:09:09Z</time>
      </trkpt>
      <trkpt lat="50.36256" lon="3.54975">
        <ele>53.4</ele>
        <time>2020-06-24T10:09:10Z</time>
      </trkpt>
      <trkpt lat="50.36256" lon="3.54983">
        <ele>53.4</ele>
        <time>2020-06-24T10:09:11Z</time>
      </trkpt>
      <trkpt lat="50.36256" lon="3.54991">
        <ele>53.5</ele>
        <time>2020-06-24T10:09:12Z</time>
      </trkpt>
      <trkpt lat="50.36257" lon="3.54999">
        <ele>53.5</ele>
        <time>2020-06-24T10:09:13Z</time>
      </trkpt>
      <trkpt lat="50.36257" lon="3.55007">
        <ele>53.5</ele>
        <time>2020-06-24T10:09:14Z</time>
      </trkpt>
      <trkpt lat="50.36257" lon="3.55015">
        <ele>53.6</ele>
        <time>2020-06-24T10:09:15Z</time>
      </trkpt>
      <trkpt lat="50.36257" lon="3.55023">
        <ele>53.6</ele>
        <time>2020-06-24T10:09:16Z</time>
      </trkpt>
      <trkpt lat="50.36258" lon="3.55032">
        <ele>53.7</ele>
        <time>2020-06-24T10:09:17Z</time>
      </trkpt>
      <trkpt lat="50.36258" lon="3.5504">
        <ele>53.7</ele>
        <time>2020-06-24T10:09:18Z</time>
      </trkpt>
      <trkpt lat="50.36258" lon="3.55048">
        <ele>53.7</ele>
        <time>2020-06-24T10:09:19Z</time>
      </trkpt>
      <trkpt lat="50.36258" lon="3.55055">
        <ele>53.8</ele>
        <time>2020-06-24T10:09:20Z</time>
      </trkpt>
      <trkpt lat="50.36258" lon="3.55062">
        <ele>53.8</ele>
        <time>2020-06-24T10:09:21Z</time>
      </trkpt>
      <trkpt lat="50.36258" lon="3.5507">
        <ele>53.9</ele>
        <time>2020-06-24T10:09:22Z</time>
      </trkpt>
      <trkpt lat="50.36257" lon="3.55078">
        <ele>53.9</ele>
        <time>2020-06-24T10:09:23Z</time>
      </trkpt>
      <trkpt lat="50.36256" lon="3.55087">
        <ele>53.9</ele>
        <time>2020-06-24T10:09:24Z</time>
      </trkpt>
      <trkpt lat="50.36256" lon="3.55096">
        <ele>54</ele>
        <time>2020-06-24T10:09:25Z</time>
      </trkpt>
      <trkpt lat="50.36255" lon="3.55103">
        <ele>54</ele>
        <time>2020-06-24T10:09:26Z</time>
      </trkpt>
      <trkpt lat="50.36254" lon="3.55111">
        <ele>54</ele>
        <time>2020-06-24T10:09:27Z</time>
      </trkpt>
      <trkpt lat="50.36254" lon="3.55118">
        <ele>54</ele>
        <time>2020-06-24T10:09:28Z</time>
      </trkpt>
      <trkpt lat="50.36252" lon="3.55126">
        <ele>54</ele>
        <time>2020-06-24T10:09:29Z</time>
      </trkpt>
      <trkpt lat="50.36252" lon="3.55134">
        <ele>54</ele>
        <time>2020-06-24T10:09:30Z</time>
      </trkpt>
      <trkpt lat="50.3625" lon="3.55143">
        <ele>54</ele>
        <time>2020-06-24T10:09:31Z</time>
      </trkpt>
      <trkpt lat="50.36249" lon="3.55152">
        <ele>54</ele>
        <time>2020-06-24T10:09:32Z</time>
      </trkpt>
      <trkpt lat="50.36248" lon="3.55161">
        <ele>54</ele>
        <time>2020-06-24T10:09:33Z</time>
      </trkpt>
      <trkpt lat="50.36246" lon="3.5517">
        <ele>54</ele>
        <time>2020-06-24T10:09:34Z</time>
      </trkpt>
      <trkpt lat="50.36244" lon="3.55178">
        <ele>54</ele>
        <time>2020-06-24T10:09:35Z</time>
      </trkpt>
      <trkpt lat="50.36243" lon="3.55187">
        <ele>53.9</ele>
        <time>2020-06-24T10:09:36Z</time>
      </trkpt>
      <trkpt lat="50.36241" lon="3.55195">
        <ele>53.9</ele>
        <time>2020-06-24T10:09:37Z</time>
      </trkpt>
      <trkpt lat="50.36241" lon="3.55203">
        <ele>53.9</ele>
        <time>2020-06-24T10:09:38Z</time>
      </trkpt>
      <trkpt lat="50.3624" lon="3.55212">
        <ele>53.8</ele>
        <time>2020-06-24T10:09:39Z</time>
      </trkpt>
      <trkpt lat="50.36239" lon="3.55221">
        <ele>53.8</ele>
        <time>2020-06-24T10:09:40Z</time>
      </trkpt>
      <trkpt lat="50.36237" lon="3.5523">
        <ele>53.8</ele>
        <time>2020-06-24T10:09:41Z</time>
      </trkpt>
      <trkpt lat="50.36236" lon="3.55239">
        <ele>53.8</ele>
        <time>2020-06-24T10:09:42Z</time>
      </trkpt>
      <trkpt lat="50.36235" lon="3.55249">
        <ele>53.7</ele>
        <time>2020-06-24T10:09:43Z</time>
      </trkpt>
      <trkpt lat="50.36233" lon="3.55259">
        <ele>53.7</ele>
        <time>2020-06-24T10:09:44Z</time>
      </trkpt>
      <trkpt lat="50.36232" lon="3.55269">
        <ele>53.7</ele>
        <time>2020-06-24T10:09:45Z</time>
      </trkpt>
      <trkpt lat="50.3623" lon="3.5528">
        <ele>53.7</ele>
        <time>2020-06-24T10:09:46Z</time>
      </trkpt>
      <trkpt lat="50.36229" lon="3.55289">
        <ele>53.6</ele>
        <time>2020-06-24T10:09:47Z</time>
      </trkpt>
      <trkpt lat="50.36227" lon="3.55297">
        <ele>53.6</ele>
        <time>2020-06-24T10:09:48Z</time>
      </trkpt>
      <trkpt lat="50.36225" lon="3.55305">
        <ele>53.6</ele>
        <time>2020-06-24T10:09:49Z</time>
      </trkpt>
      <trkpt lat="50.36224" lon="3.55313">
        <ele>53.6</ele>
        <time>2020-06-24T10:09:50Z</time>
      </trkpt>
      <trkpt lat="50.36223" lon="3.55322">
        <ele>53.6</ele>
        <time>2020-06-24T10:09:51Z</time>
      </trkpt>
      <trkpt lat="50.36221" lon="3.55331">
        <ele>53.5</ele>
        <time>2020-06-24T10:09:52Z</time>
      </trkpt>
      <trkpt lat="50.3622" lon="3.5534">
        <ele>53.5</ele>
        <time>2020-06-24T10:09:53Z</time>
      </trkpt>
      <trkpt lat="50.36218" lon="3.5535">
        <ele>53.5</ele>
        <time>2020-06-24T10:09:54Z</time>
      </trkpt>
      <trkpt lat="50.36216" lon="3.55359">
        <ele>53.5</ele>
        <time>2020-06-24T10:09:55Z</time>
      </trkpt>
      <trkpt lat="50.36215" lon="3.55368">
        <ele>53.4</ele>
        <time>2020-06-24T10:09:56Z</time>
      </trkpt>
      <trkpt lat="50.36213" lon="3.55379">
        <ele>53.4</ele>
        <time>2020-06-24T10:09:57Z</time>
      </trkpt>
      <trkpt lat="50.3621" lon="3.55389">
        <ele>53.4</ele>
        <time>2020-06-24T10:09:58Z</time>
      </trkpt>
      <trkpt lat="50.36209" lon="3.55399">
        <ele>53.3</ele>
        <time>2020-06-24T10:09:59Z</time>
      </trkpt>
      <trkpt lat="50.36208" lon="3.5541">
        <ele>53.3</ele>
        <time>2020-06-24T10:10:00Z</time>
      </trkpt>
      <trkpt lat="50.36206" lon="3.55419">
        <ele>53.3</ele>
        <time>2020-06-24T10:10:01Z</time>
      </trkpt>
      <trkpt lat="50.36205" lon="3.55429">
        <ele>53.2</ele>
        <time>2020-06-24T10:10:02Z</time>
      </trkpt>
      <trkpt lat="50.36202" lon="3.55439">
        <ele>53.2</ele>
        <time>2020-06-24T10:10:03Z</time>
      </trkpt>
      <trkpt lat="50.362" lon="3.5545">
        <ele>53.1</ele>
        <time>2020-06-24T10:10:04Z</time>
      </trkpt>
      <trkpt lat="50.36198" lon="3.55461">
        <ele>53.1</ele>
        <time>2020-06-24T10:10:05Z</time>
      </trkpt>
      <trkpt lat="50.36196" lon="3.5547">
        <ele>53</ele>
        <time>2020-06-24T10:10:06Z</time>
      </trkpt>
      <trkpt lat="50.36195" lon="3.5548">
        <ele>53</ele>
        <time>2020-06-24T10:10:07Z</time>
      </trkpt>
      <trkpt lat="50.36193" lon="3.55488">
        <ele>52.9</ele>
        <time>2020-06-24T10:10:08Z</time>
      </trkpt>
      <trkpt lat="50.36192" lon="3.55497">
        <ele>52.9</ele>
        <time>2020-06-24T10:10:09Z</time>
      </trkpt>
      <trkpt lat="50.3619" lon="3.55507">
        <ele>52.8</ele>
        <time>2020-06-24T10:10:10Z</time>
      </trkpt>
      <trkpt lat="50.36189" lon="3.55517">
        <ele>52.8</ele>
        <time>2020-06-24T10:10:11Z</time>
      </trkpt>
      <trkpt lat="50.36187" lon="3.55528">
        <ele>52.8</ele>
        <time>2020-06-24T10:10:12Z</time>
      </trkpt>
      <trkpt lat="50.36185" lon="3.55538">
        <ele>52.8</ele>
        <time>2020-06-24T10:10:13Z</time>
      </trkpt>
      <trkpt lat="50.36183" lon="3.55549">
        <ele>52.7</ele>
        <time>2020-06-24T10:10:14Z</time>
      </trkpt>
      <trkpt lat="50.36181" lon="3.5556">
        <ele>52.7</ele>
        <time>2020-06-24T10:10:15Z</time>
      </trkpt>
      <trkpt lat="50.3618" lon="3.55571">
        <ele>52.6</ele>
        <time>2020-06-24T10:10:16Z</time>
      </trkpt>
      <trkpt lat="50.36179" lon="3.55583">
        <ele>52.5</ele>
        <time>2020-06-24T10:10:17Z</time>
      </trkpt>
      <trkpt lat="50.36177" lon="3.55594">
        <ele>52.4</ele>
        <time>2020-06-24T10:10:18Z</time>
      </trkpt>
      <trkpt lat="50.36176" lon="3.55605">
        <ele>52.3</ele>
        <time>2020-06-24T10:10:19Z</time>
      </trkpt>
      <trkpt lat="50.36175" lon="3.55615">
        <ele>52.3</ele>
        <time>2020-06-24T10:10:20Z</time>
      </trkpt>
      <trkpt lat="50.36174" lon="3.55626">
        <ele>52.2</ele>
        <time>2020-06-24T10:10:21Z</time>
      </trkpt>
      <trkpt lat="50.36173" lon="3.55636">
        <ele>52.2</ele>
        <time>2020-06-24T10:10:22Z</time>
      </trkpt>
      <trkpt lat="50.36172" lon="3.55646">
        <ele>52.1</ele>
        <time>2020-06-24T10:10:23Z</time>
      </trkpt>
      <trkpt lat="50.36171" lon="3.55657">
        <ele>52.1</ele>
        <time>2020-06-24T10:10:24Z</time>
      </trkpt>
      <trkpt lat="50.36169" lon="3.55666">
        <ele>52</ele>
        <time>2020-06-24T10:10:25Z</time>
      </trkpt>
      <trkpt lat="50.36168" lon="3.55677">
        <ele>52</ele>
        <time>2020-06-24T10:10:26Z</time>
      </trkpt>
      <trkpt lat="50.36167" lon="3.55687">
        <ele>51.9</ele>
        <time>2020-06-24T10:10:27Z</time>
      </trkpt>
      <trkpt lat="50.36166" lon="3.55696">
        <ele>51.9</ele>
        <time>2020-06-24T10:10:28Z</time>
      </trkpt>
      <trkpt lat="50.36165" lon="3.55706">
        <ele>51.8</ele>
        <time>2020-06-24T10:10:29Z</time>
      </trkpt>
      <trkpt lat="50.36164" lon="3.55716">
        <ele>51.8</ele>
        <time>2020-06-24T10:10:30Z</time>
      </trkpt>
      <trkpt lat="50.36163" lon="3.55726">
        <ele>51.7</ele>
        <time>2020-06-24T10:10:31Z</time>
      </trkpt>
      <trkpt lat="50.36162" lon="3.55737">
        <ele>51.6</ele>
        <time>2020-06-24T10:10:32Z</time>
      </trkpt>
      <trkpt lat="50.36161" lon="3.55745">
        <ele>51.5</ele>
        <time>2020-06-24T10:10:33Z</time>
      </trkpt>
      <trkpt lat="50.3616" lon="3.55754">
        <ele>51.5</ele>
        <time>2020-06-24T10:10:34Z</time>
      </trkpt>
      <trkpt lat="50.36159" lon="3.55765">
        <ele>51.3</ele>
        <time>2020-06-24T10:10:35Z</time>
      </trkpt>
      <trkpt lat="50.36158" lon="3.55775">
        <ele>51.2</ele>
        <time>2020-06-24T10:10:36Z</time>
      </trkpt>
      <trkpt lat="50.36157" lon="3.55784">
        <ele>51.2</ele>
        <time>2020-06-24T10:10:37Z</time>
      </trkpt>
      <trkpt lat="50.36155" lon="3.55793">
        <ele>51.1</ele>
        <time>2020-06-24T10:10:38Z</time>
      </trkpt>
      <trkpt lat="50.36154" lon="3.55804">
        <ele>51</ele>
        <time>2020-06-24T10:10:39Z</time>
      </trkpt>
      <trkpt lat="50.36153" lon="3.55815">
        <ele>51</ele>
        <time>2020-06-24T10:10:40Z</time>
      </trkpt>
      <trkpt lat="50.36152" lon="3.55825">
        <ele>50.9</ele>
        <time>2020-06-24T10:10:41Z</time>
      </trkpt>
      <trkpt lat="50.36151" lon="3.55835">
        <ele>50.9</ele>
        <time>2020-06-24T10:10:42Z</time>
      </trkpt>
      <trkpt lat="50.3615" lon="3.55845">
        <ele>50.9</ele>
        <time>2020-06-24T10:10:43Z</time>
      </trkpt>
      <trkpt lat="50.3615" lon="3.55856">
        <ele>50.8</ele>
        <time>2020-06-24T10:10:44Z</time>
      </trkpt>
      <trkpt lat="50.3615" lon="3.55867">
        <ele>50.7</ele>
        <time>2020-06-24T10:10:45Z</time>
      </trkpt>
      <trkpt lat="50.3615" lon="3.55877">
        <ele>50.7</ele>
        <time>2020-06-24T10:10:46Z</time>
      </trkpt>
      <trkpt lat="50.36149" lon="3.55887">
        <ele>50.6</ele>
        <time>2020-06-24T10:10:47Z</time>
      </trkpt>
      <trkpt lat="50.36149" lon="3.55896">
        <ele>50.6</ele>
        <time>2020-06-24T10:10:48Z</time>
      </trkpt>
      <trkpt lat="50.36148" lon="3.55905">
        <ele>50.6</ele>
        <time>2020-06-24T10:10:49Z</time>
      </trkpt>
      <trkpt lat="50.36148" lon="3.55914">
        <ele>50.6</ele>
        <time>2020-06-24T10:10:50Z</time>
      </trkpt>
      <trkpt lat="50.36147" lon="3.55923">
        <ele>50.6</ele>
        <time>2020-06-24T10:10:51Z</time>
      </trkpt>
      <trkpt lat="50.36146" lon="3.55933">
        <ele>50.5</ele>
        <time>2020-06-24T10:10:52Z</time>
      </trkpt>
      <trkpt lat="50.36145" lon="3.55942">
        <ele>50.5</ele>
        <time>2020-06-24T10:10:53Z</time>
      </trkpt>
      <trkpt lat="50.36144" lon="3.55951">
        <ele>50.5</ele>
        <time>2020-06-24T10:10:54Z</time>
      </trkpt>
      <trkpt lat="50.36143" lon="3.55962">
        <ele>50.4</ele>
        <time>2020-06-24T10:10:55Z</time>
      </trkpt>
      <trkpt lat="50.36144" lon="3.55971">
        <ele>50.4</ele>
        <time>2020-06-24T10:10:56Z</time>
      </trkpt>
      <trkpt lat="50.36144" lon="3.55981">
        <ele>50.4</ele>
        <time>2020-06-24T10:10:57Z</time>
      </trkpt>
      <trkpt lat="50.36145" lon="3.55992">
        <ele>50.3</ele>
        <time>2020-06-24T10:10:58Z</time>
      </trkpt>
      <trkpt lat="50.36145" lon="3.56003">
        <ele>50.3</ele>
        <time>2020-06-24T10:10:59Z</time>
      </trkpt>
      <trkpt lat="50.36145" lon="3.56013">
        <ele>50.3</ele>
        <time>2020-06-24T10:11:00Z</time>
      </trkpt>
      <trkpt lat="50.36146" lon="3.56023">
        <ele>50.2</ele>
        <time>2020-06-24T10:11:01Z</time>
      </trkpt>
      <trkpt lat="50.36146" lon="3.56034">
        <ele>50.2</ele>
        <time>2020-06-24T10:11:02Z</time>
      </trkpt>
      <trkpt lat="50.36146" lon="3.56043">
        <ele>50.2</ele>
        <time>2020-06-24T10:11:03Z</time>
      </trkpt>
      <trkpt lat="50.36147" lon="3.56054">
        <ele>50.2</ele>
        <time>2020-06-24T10:11:04Z</time>
      </trkpt>
      <trkpt lat="50.36147" lon="3.56063">
        <ele>50.2</ele>
        <time>2020-06-24T10:11:05Z</time>
      </trkpt>
      <trkpt lat="50.36148" lon="3.56072">
        <ele>50.2</ele>
        <time>2020-06-24T10:11:06Z</time>
      </trkpt>
      <trkpt lat="50.36148" lon="3.56083">
        <ele>50.1</ele>
        <time>2020-06-24T10:11:07Z</time>
      </trkpt>
      <trkpt lat="50.36147" lon="3.56091">
        <ele>50.1</ele>
        <time>2020-06-24T10:11:08Z</time>
      </trkpt>
      <trkpt lat="50.36147" lon="3.56101">
        <ele>50.1</ele>
        <time>2020-06-24T10:11:09Z</time>
      </trkpt>
      <trkpt lat="50.36148" lon="3.56111">
        <ele>50</ele>
        <time>2020-06-24T10:11:10Z</time>
      </trkpt>
      <trkpt lat="50.36148" lon="3.56121">
        <ele>50</ele>
        <time>2020-06-24T10:11:11Z</time>
      </trkpt>
      <trkpt lat="50.36147" lon="3.56131">
        <ele>50</ele>
        <time>2020-06-24T10:11:12Z</time>
      </trkpt>
      <trkpt lat="50.36147" lon="3.5614">
        <ele>50</ele>
        <time>2020-06-24T10:11:13Z</time>
      </trkpt>
      <trkpt lat="50.36147" lon="3.5615">
        <ele>50</ele>
        <time>2020-06-24T10:11:14Z</time>
      </trkpt>
      <trkpt lat="50.36147" lon="3.56159">
        <ele>50</ele>
        <time>2020-06-24T10:11:15Z</time>
      </trkpt>
      <trkpt lat="50.36146" lon="3.56168">
        <ele>50</ele>
        <time>2020-06-24T10:11:16Z</time>
      </trkpt>
      <trkpt lat="50.36146" lon="3.56177">
        <ele>50.1</ele>
        <time>2020-06-24T10:11:17Z</time>
      </trkpt>
      <trkpt lat="50.36146" lon="3.56186">
        <ele>50.1</ele>
        <time>2020-06-24T10:11:18Z</time>
      </trkpt>
      <trkpt lat="50.36146" lon="3.56195">
        <ele>50.1</ele>
        <time>2020-06-24T10:11:19Z</time>
      </trkpt>
      <trkpt lat="50.36145" lon="3.56203">
        <ele>50.1</ele>
        <time>2020-06-24T10:11:20Z</time>
      </trkpt>
      <trkpt lat="50.36145" lon="3.56214">
        <ele>50.2</ele>
        <time>2020-06-24T10:11:21Z</time>
      </trkpt>
      <trkpt lat="50.36145" lon="3.56225">
        <ele>50.2</ele>
        <time>2020-06-24T10:11:22Z</time>
      </trkpt>
      <trkpt lat="50.36144" lon="3.56235">
        <ele>50.3</ele>
        <time>2020-06-24T10:11:23Z</time>
      </trkpt>
      <trkpt lat="50.36143" lon="3.56245">
        <ele>50.3</ele>
        <time>2020-06-24T10:11:24Z</time>
      </trkpt>
      <trkpt lat="50.36143" lon="3.56254">
        <ele>50.4</ele>
        <time>2020-06-24T10:11:25Z</time>
      </trkpt>
      <trkpt lat="50.36142" lon="3.56264">
        <ele>50.4</ele>
        <time>2020-06-24T10:11:26Z</time>
      </trkpt>
      <trkpt lat="50.36141" lon="3.56273">
        <ele>50.5</ele>
        <time>2020-06-24T10:11:27Z</time>
      </trkpt>
      <trkpt lat="50.36141" lon="3.56283">
        <ele>50.6</ele>
        <time>2020-06-24T10:11:28Z</time>
      </trkpt>
      <trkpt lat="50.36139" lon="3.56289">
        <ele>50.6</ele>
        <time>2020-06-24T10:11:29Z</time>
      </trkpt>
      <trkpt lat="50.3614" lon="3.56301">
        <ele>50.7</ele>
        <time>2020-06-24T10:11:30Z</time>
      </trkpt>
      <trkpt lat="50.36139" lon="3.5631">
        <ele>50.7</ele>
        <time>2020-06-24T10:11:31Z</time>
      </trkpt>
      <trkpt lat="50.36138" lon="3.56317">
        <ele>50.8</ele>
        <time>2020-06-24T10:11:32Z</time>
      </trkpt>
      <trkpt lat="50.36137" lon="3.56326">
        <ele>51</ele>
        <time>2020-06-24T10:11:33Z</time>
      </trkpt>
      <trkpt lat="50.36136" lon="3.56333">
        <ele>51.1</ele>
        <time>2020-06-24T10:11:34Z</time>
      </trkpt>
      <trkpt lat="50.36134" lon="3.5634">
        <ele>51.2</ele>
        <time>2020-06-24T10:11:35Z</time>
      </trkpt>
      <trkpt lat="50.36132" lon="3.56347">
        <ele>51.3</ele>
        <time>2020-06-24T10:11:36Z</time>
      </trkpt>
      <trkpt lat="50.3613" lon="3.56351">
        <ele>51.3</ele>
        <time>2020-06-24T10:11:37Z</time>
      </trkpt>
      <trkpt lat="50.36128" lon="3.56355">
        <ele>51.4</ele>
        <time>2020-06-24T10:11:38Z</time>
      </trkpt>
      <trkpt lat="50.36127" lon="3.5636">
        <ele>51.4</ele>
        <time>2020-06-24T10:11:39Z</time>
      </trkpt>
      <trkpt lat="50.36126" lon="3.56363">
        <ele>51.4</ele>
        <time>2020-06-24T10:11:40Z</time>
      </trkpt>
      <trkpt lat="50.36125" lon="3.56365">
        <ele>51.5</ele>
        <time>2020-06-24T10:11:41Z</time>
      </trkpt>
      <trkpt lat="50.36125" lon="3.56366">
        <ele>51.5</ele>
        <time>2020-06-24T10:11:42Z</time>
      </trkpt>
      <trkpt lat="50.36124" lon="3.56367">
        <ele>51.5</ele>
        <time>2020-06-24T10:11:43Z</time>
      </trkpt>
      <trkpt lat="50.36124" lon="3.56368">
        <ele>51.5</ele>
        <time>2020-06-24T10:11:44Z</time>
      </trkpt>
      <trkpt lat="50.36124" lon="3.56369">
        <ele>51.5</ele>
        <time>2020-06-24T10:11:45Z</time>
      </trkpt>
      <trkpt lat="50.36124" lon="3.56369">
        <ele>51.5</ele>
        <time>2020-06-24T10:11:46Z</time>
      </trkpt>
      <trkpt lat="50.36124" lon="3.56371">
        <ele>51.5</ele>
        <time>2020-06-24T10:11:47Z</time>
      </trkpt>
      <trkpt lat="50.36124" lon="3.56372">
        <ele>51.5</ele>
        <time>2020-06-24T10:11:48Z</time>
      </trkpt>
      <trkpt lat="50.36123" lon="3.56374">
        <ele>51.5</ele>
        <time>2020-06-24T10:11:49Z</time>
      </trkpt>
      <trkpt lat="50.36123" lon="3.56376">
        <ele>51.6</ele>
        <time>2020-06-24T10:11:50Z</time>
      </trkpt>
      <trkpt lat="50.36123" lon="3.56378">
        <ele>51.6</ele>
        <time>2020-06-24T10:11:51Z</time>
      </trkpt>
      <trkpt lat="50.36123" lon="3.5638">
        <ele>51.6</ele>
        <time>2020-06-24T10:11:52Z</time>
      </trkpt>
      <trkpt lat="50.36123" lon="3.56381">
        <ele>51.6</ele>
        <time>2020-06-24T10:11:53Z</time>
      </trkpt>
      <trkpt lat="50.36123" lon="3.56383">
        <ele>51.6</ele>
        <time>2020-06-24T10:11:54Z</time>
      </trkpt>
      <trkpt lat="50.36123" lon="3.56385">
        <ele>51.6</ele>
        <time>2020-06-24T10:12:04Z</time>
      </trkpt>
      <trkpt lat="50.36123" lon="3.56387">
        <ele>51.6</ele>
        <time>2020-06-24T10:12:05Z</time>
      </trkpt>
      <trkpt lat="50.36126" lon="3.56392">
        <ele>51.6</ele>
        <time>2020-06-24T10:12:06Z</time>
      </trkpt>
      <trkpt lat="50.36128" lon="3.56396">
        <ele>51.6</ele>
        <time>2020-06-24T10:12:07Z</time>
      </trkpt>
      <trkpt lat="50.36129" lon="3.56402">
        <ele>51.6</ele>
        <time>2020-06-24T10:12:08Z</time>
      </trkpt>
      <trkpt lat="50.3613" lon="3.56409">
        <ele>51.6</ele>
        <time>2020-06-24T10:12:09Z</time>
      </trkpt>
      <trkpt lat="50.36129" lon="3.56416">
        <ele>51.6</ele>
        <time>2020-06-24T10:12:10Z</time>
      </trkpt>
      <trkpt lat="50.3613" lon="3.56421">
        <ele>51.6</ele>
        <time>2020-06-24T10:12:11Z</time>
      </trkpt>
      <trkpt lat="50.3613" lon="3.56426">
        <ele>51.6</ele>
        <time>2020-06-24T10:12:12Z</time>
      </trkpt>
      <trkpt lat="50.3613" lon="3.56431">
        <ele>51.6</ele>
        <time>2020-06-24T10:12:13Z</time>
      </trkpt>
      <trkpt lat="50.3613" lon="3.56435">
        <ele>51.6</ele>
        <time>2020-06-24T10:12:14Z</time>
      </trkpt>
      <trkpt lat="50.36129" lon="3.5644">
        <ele>51.6</ele>
        <time>2020-06-24T10:12:15Z</time>
      </trkpt>
      <trkpt lat="50.36128" lon="3.56444">
        <ele>51.7</ele>
        <time>2020-06-24T10:12:16Z</time>
      </trkpt>
      <trkpt lat="50.36128" lon="3.5645">
        <ele>51.7</ele>
        <time>2020-06-24T10:12:17Z</time>
      </trkpt>
      <trkpt lat="50.36128" lon="3.56452">
        <ele>51.7</ele>
        <time>2020-06-24T10:12:18Z</time>
      </trkpt>
      <trkpt lat="50.36128" lon="3.56456">
        <ele>51.7</ele>
        <time>2020-06-24T10:12:19Z</time>
      </trkpt>
      <trkpt lat="50.36128" lon="3.56458">
        <ele>51.7</ele>
        <time>2020-06-24T10:12:20Z</time>
      </trkpt>
      <trkpt lat="50.36128" lon="3.56463">
        <ele>51.7</ele>
        <time>2020-06-24T10:12:21Z</time>
      </trkpt>
      <trkpt lat="50.36128" lon="3.56465">
        <ele>51.7</ele>
        <time>2020-06-24T10:12:22Z</time>
      </trkpt>
      <trkpt lat="50.36129" lon="3.56469">
        <ele>51.7</ele>
        <time>2020-06-24T10:12:23Z</time>
      </trkpt>
      <trkpt lat="50.36128" lon="3.56474">
        <ele>51.7</ele>
        <time>2020-06-24T10:12:24Z</time>
      </trkpt>
      <trkpt lat="50.36127" lon="3.56479">
        <ele>51.7</ele>
        <time>2020-06-24T10:12:25Z</time>
      </trkpt>
      <trkpt lat="50.36127" lon="3.56486">
        <ele>51.6</ele>
        <time>2020-06-24T10:12:26Z</time>
      </trkpt>
      <trkpt lat="50.36126" lon="3.56492">
        <ele>51.6</ele>
        <time>2020-06-24T10:12:27Z</time>
      </trkpt>
      <trkpt lat="50.36126" lon="3.56498">
        <ele>51.6</ele>
        <time>2020-06-24T10:12:28Z</time>
      </trkpt>
      <trkpt lat="50.36126" lon="3.56503">
        <ele>51.5</ele>
        <time>2020-06-24T10:12:29Z</time>
      </trkpt>
      <trkpt lat="50.36126" lon="3.5651">
        <ele>51.5</ele>
        <time>2020-06-24T10:12:30Z</time>
      </trkpt>
      <trkpt lat="50.36126" lon="3.56512">
        <ele>51.5</ele>
        <time>2020-06-24T10:12:31Z</time>
      </trkpt>
      <trkpt lat="50.36126" lon="3.56516">
        <ele>51.4</ele>
        <time>2020-06-24T10:12:32Z</time>
      </trkpt>
      <trkpt lat="50.36125" lon="3.56522">
        <ele>51.4</ele>
        <time>2020-06-24T10:12:33Z</time>
      </trkpt>
      <trkpt lat="50.36124" lon="3.56528">
        <ele>51.3</ele>
        <time>2020-06-24T10:12:34Z</time>
      </trkpt>
      <trkpt lat="50.36124" lon="3.56533">
        <ele>51.2</ele>
        <time>2020-06-24T10:12:35Z</time>
      </trkpt>
      <trkpt lat="50.36123" lon="3.5654">
        <ele>51.2</ele>
        <time>2020-06-24T10:12:36Z</time>
      </trkpt>
      <trkpt lat="50.36123" lon="3.56546">
        <ele>51.1</ele>
        <time>2020-06-24T10:12:37Z</time>
      </trkpt>
      <trkpt lat="50.36123" lon="3.56554">
        <ele>51</ele>
        <time>2020-06-24T10:12:38Z</time>
      </trkpt>
      <trkpt lat="50.36122" lon="3.56561">
        <ele>50.9</ele>
        <time>2020-06-24T10:12:39Z</time>
      </trkpt>
      <trkpt lat="50.3612" lon="3.56567">
        <ele>50.8</ele>
        <time>2020-06-24T10:12:40Z</time>
      </trkpt>
      <trkpt lat="50.36119" lon="3.56574">
        <ele>50.7</ele>
        <time>2020-06-24T10:12:41Z</time>
      </trkpt>
      <trkpt lat="50.36118" lon="3.56581">
        <ele>50.6</ele>
        <time>2020-06-24T10:12:42Z</time>
      </trkpt>
      <trkpt lat="50.36117" lon="3.56589">
        <ele>50.5</ele>
        <time>2020-06-24T10:12:43Z</time>
      </trkpt>
      <trkpt lat="50.36116" lon="3.56597">
        <ele>50.4</ele>
        <time>2020-06-24T10:12:44Z</time>
      </trkpt>
      <trkpt lat="50.36115" lon="3.56604">
        <ele>50.3</ele>
        <time>2020-06-24T10:12:45Z</time>
      </trkpt>
      <trkpt lat="50.36114" lon="3.56611">
        <ele>50.2</ele>
        <time>2020-06-24T10:12:46Z</time>
      </trkpt>
      <trkpt lat="50.36113" lon="3.56618">
        <ele>50.2</ele>
        <time>2020-06-24T10:12:47Z</time>
      </trkpt>
      <trkpt lat="50.36112" lon="3.56625">
        <ele>50.1</ele>
        <time>2020-06-24T10:12:48Z</time>
      </trkpt>
      <trkpt lat="50.36111" lon="3.56633">
        <ele>50.1</ele>
        <time>2020-06-24T10:12:49Z</time>
      </trkpt>
      <trkpt lat="50.3611" lon="3.5664">
        <ele>50</ele>
        <time>2020-06-24T10:12:50Z</time>
      </trkpt>
      <trkpt lat="50.36109" lon="3.56648">
        <ele>50</ele>
        <time>2020-06-24T10:12:51Z</time>
      </trkpt>
      <trkpt lat="50.36108" lon="3.56655">
        <ele>49.9</ele>
        <time>2020-06-24T10:12:52Z</time>
      </trkpt>
      <trkpt lat="50.36107" lon="3.56663">
        <ele>49.9</ele>
        <time>2020-06-24T10:12:53Z</time>
      </trkpt>
      <trkpt lat="50.36105" lon="3.5667">
        <ele>49.9</ele>
        <time>2020-06-24T10:12:54Z</time>
      </trkpt>
      <trkpt lat="50.36104" lon="3.56676">
        <ele>49.9</ele>
        <time>2020-06-24T10:12:55Z</time>
      </trkpt>
      <trkpt lat="50.36103" lon="3.56684">
        <ele>49.8</ele>
        <time>2020-06-24T10:12:56Z</time>
      </trkpt>
      <trkpt lat="50.36102" lon="3.56692">
        <ele>49.8</ele>
        <time>2020-06-24T10:12:57Z</time>
      </trkpt>
      <trkpt lat="50.36102" lon="3.567">
        <ele>49.8</ele>
        <time>2020-06-24T10:12:58Z</time>
      </trkpt>
      <trkpt lat="50.361" lon="3.56706">
        <ele>49.8</ele>
        <time>2020-06-24T10:12:59Z</time>
      </trkpt>
      <trkpt lat="50.36099" lon="3.56713">
        <ele>49.9</ele>
        <time>2020-06-24T10:13:00Z</time>
      </trkpt>
      <trkpt lat="50.36098" lon="3.56721">
        <ele>49.9</ele>
        <time>2020-06-24T10:13:01Z</time>
      </trkpt>
      <trkpt lat="50.36097" lon="3.56728">
        <ele>50</ele>
        <time>2020-06-24T10:13:02Z</time>
      </trkpt>
      <trkpt lat="50.36095" lon="3.56735">
        <ele>50.1</ele>
        <time>2020-06-24T10:13:03Z</time>
      </trkpt>
      <trkpt lat="50.36091" lon="3.56742">
        <ele>50.1</ele>
        <time>2020-06-24T10:13:04Z</time>
      </trkpt>
      <trkpt lat="50.36088" lon="3.5675">
        <ele>50.2</ele>
        <time>2020-06-24T10:13:05Z</time>
      </trkpt>
      <trkpt lat="50.36085" lon="3.56757">
        <ele>50.3</ele>
        <time>2020-06-24T10:13:06Z</time>
      </trkpt>
      <trkpt lat="50.36084" lon="3.56764">
        <ele>50.4</ele>
        <time>2020-06-24T10:13:07Z</time>
      </trkpt>
      <trkpt lat="50.36082" lon="3.56771">
        <ele>50.5</ele>
        <time>2020-06-24T10:13:08Z</time>
      </trkpt>
      <trkpt lat="50.3608" lon="3.56778">
        <ele>50.6</ele>
        <time>2020-06-24T10:13:09Z</time>
      </trkpt>
      <trkpt lat="50.36078" lon="3.56785">
        <ele>50.7</ele>
        <time>2020-06-24T10:13:10Z</time>
      </trkpt>
      <trkpt lat="50.36076" lon="3.56793">
        <ele>50.8</ele>
        <time>2020-06-24T10:13:11Z</time>
      </trkpt>
      <trkpt lat="50.36074" lon="3.56801">
        <ele>51</ele>
        <time>2020-06-24T10:13:12Z</time>
      </trkpt>
      <trkpt lat="50.36072" lon="3.56809">
        <ele>51.1</ele>
        <time>2020-06-24T10:13:13Z</time>
      </trkpt>
      <trkpt lat="50.36071" lon="3.56818">
        <ele>51.2</ele>
        <time>2020-06-24T10:13:14Z</time>
      </trkpt>
      <trkpt lat="50.36069" lon="3.56825">
        <ele>51.3</ele>
        <time>2020-06-24T10:13:15Z</time>
      </trkpt>
      <trkpt lat="50.36067" lon="3.56832">
        <ele>51.4</ele>
        <time>2020-06-24T10:13:16Z</time>
      </trkpt>
      <trkpt lat="50.36065" lon="3.56837">
        <ele>51.4</ele>
        <time>2020-06-24T10:13:17Z</time>
      </trkpt>
      <trkpt lat="50.36064" lon="3.56845">
        <ele>51.5</ele>
        <time>2020-06-24T10:13:18Z</time>
      </trkpt>
      <trkpt lat="50.36063" lon="3.56853">
        <ele>51.6</ele>
        <time>2020-06-24T10:13:19Z</time>
      </trkpt>
      <trkpt lat="50.36062" lon="3.5686">
        <ele>51.7</ele>
        <time>2020-06-24T10:13:20Z</time>
      </trkpt>
      <trkpt lat="50.3606" lon="3.56867">
        <ele>51.8</ele>
        <time>2020-06-24T10:13:21Z</time>
      </trkpt>
      <trkpt lat="50.36059" lon="3.56874">
        <ele>51.9</ele>
        <time>2020-06-24T10:13:22Z</time>
      </trkpt>
      <trkpt lat="50.36058" lon="3.56882">
        <ele>52</ele>
        <time>2020-06-24T10:13:23Z</time>
      </trkpt>
      <trkpt lat="50.36056" lon="3.56889">
        <ele>52.2</ele>
        <time>2020-06-24T10:13:24Z</time>
      </trkpt>
      <trkpt lat="50.36055" lon="3.56897">
        <ele>52.3</ele>
        <time>2020-06-24T10:13:25Z</time>
      </trkpt>
      <trkpt lat="50.36054" lon="3.56904">
        <ele>52.4</ele>
        <time>2020-06-24T10:13:26Z</time>
      </trkpt>
      <trkpt lat="50.36052" lon="3.56913">
        <ele>52.5</ele>
        <time>2020-06-24T10:13:27Z</time>
      </trkpt>
      <trkpt lat="50.36051" lon="3.56921">
        <ele>52.6</ele>
        <time>2020-06-24T10:13:28Z</time>
      </trkpt>
      <trkpt lat="50.3605" lon="3.56929">
        <ele>52.7</ele>
        <time>2020-06-24T10:13:29Z</time>
      </trkpt>
      <trkpt lat="50.36048" lon="3.56938">
        <ele>52.9</ele>
        <time>2020-06-24T10:13:30Z</time>
      </trkpt>
      <trkpt lat="50.36047" lon="3.56946">
        <ele>53</ele>
        <time>2020-06-24T10:13:31Z</time>
      </trkpt>
      <trkpt lat="50.36044" lon="3.56954">
        <ele>53.1</ele>
        <time>2020-06-24T10:13:32Z</time>
      </trkpt>
      <trkpt lat="50.36042" lon="3.56961">
        <ele>53.2</ele>
        <time>2020-06-24T10:13:33Z</time>
      </trkpt>
      <trkpt lat="50.3604" lon="3.56969">
        <ele>53.3</ele>
        <time>2020-06-24T10:13:34Z</time>
      </trkpt>
      <trkpt lat="50.36039" lon="3.56978">
        <ele>53.4</ele>
        <time>2020-06-24T10:13:35Z</time>
      </trkpt>
      <trkpt lat="50.36037" lon="3.56984">
        <ele>53.5</ele>
        <time>2020-06-24T10:13:36Z</time>
      </trkpt>
      <trkpt lat="50.36036" lon="3.56991">
        <ele>53.5</ele>
        <time>2020-06-24T10:13:37Z</time>
      </trkpt>
      <trkpt lat="50.36036" lon="3.56998">
        <ele>53.6</ele>
        <time>2020-06-24T10:13:38Z</time>
      </trkpt>
      <trkpt lat="50.36035" lon="3.57006">
        <ele>53.7</ele>
        <time>2020-06-24T10:13:39Z</time>
      </trkpt>
      <trkpt lat="50.36035" lon="3.57014">
        <ele>53.8</ele>
        <time>2020-06-24T10:13:40Z</time>
      </trkpt>
      <trkpt lat="50.36034" lon="3.57021">
        <ele>53.9</ele>
        <time>2020-06-24T10:13:41Z</time>
      </trkpt>
      <trkpt lat="50.36033" lon="3.57028">
        <ele>54</ele>
        <time>2020-06-24T10:13:42Z</time>
      </trkpt>
      <trkpt lat="50.36032" lon="3.57038">
        <ele>54.1</ele>
        <time>2020-06-24T10:13:43Z</time>
      </trkpt>
      <trkpt lat="50.3603" lon="3.57046">
        <ele>54.1</ele>
        <time>2020-06-24T10:13:44Z</time>
      </trkpt>
      <trkpt lat="50.3603" lon="3.57054">
        <ele>54.2</ele>
        <time>2020-06-24T10:13:45Z</time>
      </trkpt>
      <trkpt lat="50.36029" lon="3.57062">
        <ele>54.2</ele>
        <time>2020-06-24T10:13:46Z</time>
      </trkpt>
      <trkpt lat="50.36028" lon="3.5707">
        <ele>54.2</ele>
        <time>2020-06-24T10:13:47Z</time>
      </trkpt>
      <trkpt lat="50.36027" lon="3.5708">
        <ele>54.3</ele>
        <time>2020-06-24T10:13:48Z</time>
      </trkpt>
      <trkpt lat="50.36025" lon="3.57088">
        <ele>54.3</ele>
        <time>2020-06-24T10:13:49Z</time>
      </trkpt>
      <trkpt lat="50.36025" lon="3.57096">
        <ele>54.3</ele>
        <time>2020-06-24T10:13:50Z</time>
      </trkpt>
      <trkpt lat="50.36024" lon="3.57104">
        <ele>54.3</ele>
        <time>2020-06-24T10:13:51Z</time>
      </trkpt>
      <trkpt lat="50.36024" lon="3.57112">
        <ele>54.3</ele>
        <time>2020-06-24T10:13:52Z</time>
      </trkpt>
      <trkpt lat="50.36022" lon="3.57121">
        <ele>54.3</ele>
        <time>2020-06-24T10:13:53Z</time>
      </trkpt>
      <trkpt lat="50.3602" lon="3.5713">
        <ele>54.3</ele>
        <time>2020-06-24T10:13:54Z</time>
      </trkpt>
      <trkpt lat="50.36019" lon="3.57138">
        <ele>54.2</ele>
        <time>2020-06-24T10:13:55Z</time>
      </trkpt>
      <trkpt lat="50.36018" lon="3.57146">
        <ele>54.2</ele>
        <time>2020-06-24T10:13:56Z</time>
      </trkpt>
      <trkpt lat="50.36016" lon="3.57155">
        <ele>54.2</ele>
        <time>2020-06-24T10:13:57Z</time>
      </trkpt>
      <trkpt lat="50.36014" lon="3.57164">
        <ele>54.2</ele>
        <time>2020-06-24T10:13:58Z</time>
      </trkpt>
      <trkpt lat="50.36013" lon="3.57172">
        <ele>54.1</ele>
        <time>2020-06-24T10:13:59Z</time>
      </trkpt>
      <trkpt lat="50.36012" lon="3.5718">
        <ele>54.1</ele>
        <time>2020-06-24T10:14:00Z</time>
      </trkpt>
      <trkpt lat="50.36011" lon="3.57187">
        <ele>54.1</ele>
        <time>2020-06-24T10:14:01Z</time>
      </trkpt>
      <trkpt lat="50.36009" lon="3.57195">
        <ele>54.1</ele>
        <time>2020-06-24T10:14:02Z</time>
      </trkpt>
      <trkpt lat="50.36007" lon="3.57203">
        <ele>54.1</ele>
        <time>2020-06-24T10:14:03Z</time>
      </trkpt>
      <trkpt lat="50.36006" lon="3.57212">
        <ele>54</ele>
        <time>2020-06-24T10:14:04Z</time>
      </trkpt>
      <trkpt lat="50.36005" lon="3.57221">
        <ele>54</ele>
        <time>2020-06-24T10:14:05Z</time>
      </trkpt>
      <trkpt lat="50.36003" lon="3.57231">
        <ele>54</ele>
        <time>2020-06-24T10:14:06Z</time>
      </trkpt>
      <trkpt lat="50.36001" lon="3.5724">
        <ele>54</ele>
        <time>2020-06-24T10:14:07Z</time>
      </trkpt>
      <trkpt lat="50.36" lon="3.5725">
        <ele>54.1</ele>
        <time>2020-06-24T10:14:08Z</time>
      </trkpt>
      <trkpt lat="50.35998" lon="3.5726">
        <ele>54</ele>
        <time>2020-06-24T10:14:09Z</time>
      </trkpt>
      <trkpt lat="50.35996" lon="3.57269">
        <ele>54</ele>
        <time>2020-06-24T10:14:10Z</time>
      </trkpt>
      <trkpt lat="50.35995" lon="3.57279">
        <ele>54</ele>
        <time>2020-06-24T10:14:11Z</time>
      </trkpt>
      <trkpt lat="50.35994" lon="3.57288">
        <ele>53.9</ele>
        <time>2020-06-24T10:14:12Z</time>
      </trkpt>
      <trkpt lat="50.35992" lon="3.57298">
        <ele>53.9</ele>
        <time>2020-06-24T10:14:13Z</time>
      </trkpt>
      <trkpt lat="50.35991" lon="3.57308">
        <ele>53.9</ele>
        <time>2020-06-24T10:14:14Z</time>
      </trkpt>
      <trkpt lat="50.3599" lon="3.57316">
        <ele>53.8</ele>
        <time>2020-06-24T10:14:15Z</time>
      </trkpt>
      <trkpt lat="50.35989" lon="3.57325">
        <ele>53.8</ele>
        <time>2020-06-24T10:14:16Z</time>
      </trkpt>
      <trkpt lat="50.35987" lon="3.57334">
        <ele>53.7</ele>
        <time>2020-06-24T10:14:17Z</time>
      </trkpt>
      <trkpt lat="50.35986" lon="3.57343">
        <ele>53.7</ele>
        <time>2020-06-24T10:14:18Z</time>
      </trkpt>
      <trkpt lat="50.35985" lon="3.57352">
        <ele>53.7</ele>
        <time>2020-06-24T10:14:19Z</time>
      </trkpt>
      <trkpt lat="50.35984" lon="3.57362">
        <ele>53.7</ele>
        <time>2020-06-24T10:14:20Z</time>
      </trkpt>
      <trkpt lat="50.35982" lon="3.57372">
        <ele>53.7</ele>
        <time>2020-06-24T10:14:21Z</time>
      </trkpt>
      <trkpt lat="50.35981" lon="3.57382">
        <ele>53.7</ele>
        <time>2020-06-24T10:14:22Z</time>
      </trkpt>
      <trkpt lat="50.35979" lon="3.57391">
        <ele>53.7</ele>
        <time>2020-06-24T10:14:23Z</time>
      </trkpt>
      <trkpt lat="50.35978" lon="3.574">
        <ele>53.7</ele>
        <time>2020-06-24T10:14:24Z</time>
      </trkpt>
      <trkpt lat="50.35977" lon="3.57411">
        <ele>53.7</ele>
        <time>2020-06-24T10:14:25Z</time>
      </trkpt>
      <trkpt lat="50.35975" lon="3.5742">
        <ele>53.7</ele>
        <time>2020-06-24T10:14:26Z</time>
      </trkpt>
      <trkpt lat="50.35974" lon="3.57429">
        <ele>53.6</ele>
        <time>2020-06-24T10:14:27Z</time>
      </trkpt>
      <trkpt lat="50.35972" lon="3.57438">
        <ele>53.6</ele>
        <time>2020-06-24T10:14:28Z</time>
      </trkpt>
      <trkpt lat="50.35971" lon="3.57448">
        <ele>53.6</ele>
        <time>2020-06-24T10:14:29Z</time>
      </trkpt>
      <trkpt lat="50.35971" lon="3.57457">
        <ele>53.6</ele>
        <time>2020-06-24T10:14:30Z</time>
      </trkpt>
      <trkpt lat="50.3597" lon="3.57466">
        <ele>53.6</ele>
        <time>2020-06-24T10:14:31Z</time>
      </trkpt>
      <trkpt lat="50.3597" lon="3.57475">
        <ele>53.6</ele>
        <time>2020-06-24T10:14:32Z</time>
      </trkpt>
      <trkpt lat="50.35969" lon="3.57483">
        <ele>53.6</ele>
        <time>2020-06-24T10:14:33Z</time>
      </trkpt>
      <trkpt lat="50.35969" lon="3.57492">
        <ele>53.6</ele>
        <time>2020-06-24T10:14:34Z</time>
      </trkpt>
      <trkpt lat="50.35968" lon="3.575">
        <ele>53.6</ele>
        <time>2020-06-24T10:14:35Z</time>
      </trkpt>
      <trkpt lat="50.35968" lon="3.57508">
        <ele>53.6</ele>
        <time>2020-06-24T10:14:36Z</time>
      </trkpt>
      <trkpt lat="50.35967" lon="3.57517">
        <ele>53.6</ele>
        <time>2020-06-24T10:14:37Z</time>
      </trkpt>
      <trkpt lat="50.35966" lon="3.57527">
        <ele>53.6</ele>
        <time>2020-06-24T10:14:38Z</time>
      </trkpt>
      <trkpt lat="50.35965" lon="3.57536">
        <ele>53.6</ele>
        <time>2020-06-24T10:14:39Z</time>
      </trkpt>
      <trkpt lat="50.35965" lon="3.57545">
        <ele>53.6</ele>
        <time>2020-06-24T10:14:40Z</time>
      </trkpt>
      <trkpt lat="50.35964" lon="3.57554">
        <ele>53.6</ele>
        <time>2020-06-24T10:14:41Z</time>
      </trkpt>
      <trkpt lat="50.35963" lon="3.57563">
        <ele>53.6</ele>
        <time>2020-06-24T10:14:42Z</time>
      </trkpt>
      <trkpt lat="50.35963" lon="3.57572">
        <ele>53.5</ele>
        <time>2020-06-24T10:14:43Z</time>
      </trkpt>
      <trkpt lat="50.35962" lon="3.57581">
        <ele>53.5</ele>
        <time>2020-06-24T10:14:44Z</time>
      </trkpt>
      <trkpt lat="50.35962" lon="3.57589">
        <ele>53.5</ele>
        <time>2020-06-24T10:14:45Z</time>
      </trkpt>
      <trkpt lat="50.35961" lon="3.57596">
        <ele>53.5</ele>
        <time>2020-06-24T10:14:46Z</time>
      </trkpt>
      <trkpt lat="50.3596" lon="3.57605">
        <ele>53.5</ele>
        <time>2020-06-24T10:14:47Z</time>
      </trkpt>
      <trkpt lat="50.35959" lon="3.57615">
        <ele>53.6</ele>
        <time>2020-06-24T10:14:48Z</time>
      </trkpt>
      <trkpt lat="50.35958" lon="3.57623">
        <ele>53.6</ele>
        <time>2020-06-24T10:14:49Z</time>
      </trkpt>
      <trkpt lat="50.35958" lon="3.57634">
        <ele>53.6</ele>
        <time>2020-06-24T10:14:50Z</time>
      </trkpt>
      <trkpt lat="50.35957" lon="3.57645">
        <ele>53.5</ele>
        <time>2020-06-24T10:14:51Z</time>
      </trkpt>
      <trkpt lat="50.35955" lon="3.57654">
        <ele>53.5</ele>
        <time>2020-06-24T10:14:52Z</time>
      </trkpt>
      <trkpt lat="50.35955" lon="3.57663">
        <ele>53.5</ele>
        <time>2020-06-24T10:14:53Z</time>
      </trkpt>
      <trkpt lat="50.35954" lon="3.57671">
        <ele>53.5</ele>
        <time>2020-06-24T10:14:54Z</time>
      </trkpt>
      <trkpt lat="50.35954" lon="3.5768">
        <ele>53.4</ele>
        <time>2020-06-24T10:14:55Z</time>
      </trkpt>
      <trkpt lat="50.35954" lon="3.57689">
        <ele>53.4</ele>
        <time>2020-06-24T10:14:56Z</time>
      </trkpt>
      <trkpt lat="50.35954" lon="3.57697">
        <ele>53.4</ele>
        <time>2020-06-24T10:14:57Z</time>
      </trkpt>
      <trkpt lat="50.35953" lon="3.57705">
        <ele>53.4</ele>
        <time>2020-06-24T10:14:58Z</time>
      </trkpt>
      <trkpt lat="50.35953" lon="3.57714">
        <ele>53.4</ele>
        <time>2020-06-24T10:14:59Z</time>
      </trkpt>
      <trkpt lat="50.35952" lon="3.57724">
        <ele>53.4</ele>
        <time>2020-06-24T10:15:00Z</time>
      </trkpt>
      <trkpt lat="50.35951" lon="3.57732">
        <ele>53.4</ele>
        <time>2020-06-24T10:15:01Z</time>
      </trkpt>
      <trkpt lat="50.35951" lon="3.5774">
        <ele>53.4</ele>
        <time>2020-06-24T10:15:02Z</time>
      </trkpt>
      <trkpt lat="50.3595" lon="3.57749">
        <ele>53.3</ele>
        <time>2020-06-24T10:15:03Z</time>
      </trkpt>
      <trkpt lat="50.3595" lon="3.57758">
        <ele>53.3</ele>
        <time>2020-06-24T10:15:04Z</time>
      </trkpt>
      <trkpt lat="50.35951" lon="3.57767">
        <ele>53.3</ele>
        <time>2020-06-24T10:15:05Z</time>
      </trkpt>
      <trkpt lat="50.3595" lon="3.57776">
        <ele>53.4</ele>
        <time>2020-06-24T10:15:06Z</time>
      </trkpt>
      <trkpt lat="50.3595" lon="3.57785">
        <ele>53.4</ele>
        <time>2020-06-24T10:15:07Z</time>
      </trkpt>
      <trkpt lat="50.3595" lon="3.57795">
        <ele>53.4</ele>
        <time>2020-06-24T10:15:08Z</time>
      </trkpt>
      <trkpt lat="50.3595" lon="3.57804">
        <ele>53.5</ele>
        <time>2020-06-24T10:15:09Z</time>
      </trkpt>
      <trkpt lat="50.35949" lon="3.57812">
        <ele>53.5</ele>
        <time>2020-06-24T10:15:10Z</time>
      </trkpt>
      <trkpt lat="50.35949" lon="3.57821">
        <ele>53.5</ele>
        <time>2020-06-24T10:15:11Z</time>
      </trkpt>
      <trkpt lat="50.35949" lon="3.57831">
        <ele>53.5</ele>
        <time>2020-06-24T10:15:12Z</time>
      </trkpt>
      <trkpt lat="50.35948" lon="3.5784">
        <ele>53.6</ele>
        <time>2020-06-24T10:15:13Z</time>
      </trkpt>
      <trkpt lat="50.35948" lon="3.5785">
        <ele>53.6</ele>
        <time>2020-06-24T10:15:14Z</time>
      </trkpt>
      <trkpt lat="50.35948" lon="3.57858">
        <ele>53.6</ele>
        <time>2020-06-24T10:15:15Z</time>
      </trkpt>
      <trkpt lat="50.35948" lon="3.57867">
        <ele>53.6</ele>
        <time>2020-06-24T10:15:16Z</time>
      </trkpt>
      <trkpt lat="50.35948" lon="3.57877">
        <ele>53.6</ele>
        <time>2020-06-24T10:15:17Z</time>
      </trkpt>
      <trkpt lat="50.35947" lon="3.57886">
        <ele>53.6</ele>
        <time>2020-06-24T10:15:18Z</time>
      </trkpt>
      <trkpt lat="50.35947" lon="3.57896">
        <ele>53.7</ele>
        <time>2020-06-24T10:15:19Z</time>
      </trkpt>
      <trkpt lat="50.35947" lon="3.57904">
        <ele>53.7</ele>
        <time>2020-06-24T10:15:20Z</time>
      </trkpt>
      <trkpt lat="50.35946" lon="3.57912">
        <ele>53.7</ele>
        <time>2020-06-24T10:15:21Z</time>
      </trkpt>
      <trkpt lat="50.35946" lon="3.5792">
        <ele>53.7</ele>
        <time>2020-06-24T10:15:22Z</time>
      </trkpt>
      <trkpt lat="50.35945" lon="3.57929">
        <ele>53.7</ele>
        <time>2020-06-24T10:15:23Z</time>
      </trkpt>
      <trkpt lat="50.35945" lon="3.5794">
        <ele>53.7</ele>
        <time>2020-06-24T10:15:24Z</time>
      </trkpt>
      <trkpt lat="50.35945" lon="3.57948">
        <ele>53.7</ele>
        <time>2020-06-24T10:15:25Z</time>
      </trkpt>
      <trkpt lat="50.35944" lon="3.57955">
        <ele>53.7</ele>
        <time>2020-06-24T10:15:26Z</time>
      </trkpt>
      <trkpt lat="50.35944" lon="3.57963">
        <ele>53.7</ele>
        <time>2020-06-24T10:15:27Z</time>
      </trkpt>
      <trkpt lat="50.35943" lon="3.57972">
        <ele>53.7</ele>
        <time>2020-06-24T10:15:28Z</time>
      </trkpt>
      <trkpt lat="50.35943" lon="3.57982">
        <ele>53.8</ele>
        <time>2020-06-24T10:15:29Z</time>
      </trkpt>
      <trkpt lat="50.35943" lon="3.57991">
        <ele>53.8</ele>
        <time>2020-06-24T10:15:30Z</time>
      </trkpt>
      <trkpt lat="50.35943" lon="3.57999">
        <ele>53.8</ele>
        <time>2020-06-24T10:15:31Z</time>
      </trkpt>
      <trkpt lat="50.35943" lon="3.5801">
        <ele>53.9</ele>
        <time>2020-06-24T10:15:32Z</time>
      </trkpt>
      <trkpt lat="50.35943" lon="3.58019">
        <ele>53.9</ele>
        <time>2020-06-24T10:15:33Z</time>
      </trkpt>
      <trkpt lat="50.35942" lon="3.58027">
        <ele>54</ele>
        <time>2020-06-24T10:15:34Z</time>
      </trkpt>
      <trkpt lat="50.35942" lon="3.58036">
        <ele>54</ele>
        <time>2020-06-24T10:15:35Z</time>
      </trkpt>
      <trkpt lat="50.35942" lon="3.58044">
        <ele>54</ele>
        <time>2020-06-24T10:15:36Z</time>
      </trkpt>
      <trkpt lat="50.35941" lon="3.58052">
        <ele>54</ele>
        <time>2020-06-24T10:15:37Z</time>
      </trkpt>
      <trkpt lat="50.35941" lon="3.5806">
        <ele>54</ele>
        <time>2020-06-24T10:15:38Z</time>
      </trkpt>
      <trkpt lat="50.35941" lon="3.58069">
        <ele>54.1</ele>
        <time>2020-06-24T10:15:39Z</time>
      </trkpt>
      <trkpt lat="50.35942" lon="3.58077">
        <ele>54.1</ele>
        <time>2020-06-24T10:15:40Z</time>
      </trkpt>
      <trkpt lat="50.35942" lon="3.58085">
        <ele>54.1</ele>
        <time>2020-06-24T10:15:41Z</time>
      </trkpt>
      <trkpt lat="50.35942" lon="3.58094">
        <ele>54.1</ele>
        <time>2020-06-24T10:15:42Z</time>
      </trkpt>
      <trkpt lat="50.35943" lon="3.58103">
        <ele>54.1</ele>
        <time>2020-06-24T10:15:43Z</time>
      </trkpt>
      <trkpt lat="50.35943" lon="3.58112">
        <ele>54.2</ele>
        <time>2020-06-24T10:15:44Z</time>
      </trkpt>
      <trkpt lat="50.35944" lon="3.58121">
        <ele>54.2</ele>
        <time>2020-06-24T10:15:45Z</time>
      </trkpt>
      <trkpt lat="50.35944" lon="3.5813">
        <ele>54.2</ele>
        <time>2020-06-24T10:15:46Z</time>
      </trkpt>
      <trkpt lat="50.35944" lon="3.5814">
        <ele>54.1</ele>
        <time>2020-06-24T10:15:47Z</time>
      </trkpt>
      <trkpt lat="50.35944" lon="3.58151">
        <ele>54</ele>
        <time>2020-06-24T10:15:48Z</time>
      </trkpt>
      <trkpt lat="50.35944" lon="3.58159">
        <ele>53.9</ele>
        <time>2020-06-24T10:15:49Z</time>
      </trkpt>
      <trkpt lat="50.35944" lon="3.58168">
        <ele>53.8</ele>
        <time>2020-06-24T10:15:50Z</time>
      </trkpt>
      <trkpt lat="50.35944" lon="3.58177">
        <ele>53.8</ele>
        <time>2020-06-24T10:15:51Z</time>
      </trkpt>
      <trkpt lat="50.35944" lon="3.58186">
        <ele>53.8</ele>
        <time>2020-06-24T10:15:52Z</time>
      </trkpt>
      <trkpt lat="50.35943" lon="3.58196">
        <ele>53.8</ele>
        <time>2020-06-24T10:15:53Z</time>
      </trkpt>
      <trkpt lat="50.35943" lon="3.58205">
        <ele>53.8</ele>
        <time>2020-06-24T10:15:54Z</time>
      </trkpt>
      <trkpt lat="50.35942" lon="3.58214">
        <ele>53.9</ele>
        <time>2020-06-24T10:15:55Z</time>
      </trkpt>
      <trkpt lat="50.35942" lon="3.58223">
        <ele>53.9</ele>
        <time>2020-06-24T10:15:56Z</time>
      </trkpt>
      <trkpt lat="50.35942" lon="3.58232">
        <ele>54</ele>
        <time>2020-06-24T10:15:57Z</time>
      </trkpt>
      <trkpt lat="50.35942" lon="3.58241">
        <ele>54</ele>
        <time>2020-06-24T10:15:58Z</time>
      </trkpt>
      <trkpt lat="50.35942" lon="3.58252">
        <ele>54.1</ele>
        <time>2020-06-24T10:15:59Z</time>
      </trkpt>
      <trkpt lat="50.35941" lon="3.58261">
        <ele>54.1</ele>
        <time>2020-06-24T10:16:00Z</time>
      </trkpt>
      <trkpt lat="50.35941" lon="3.58271">
        <ele>54.2</ele>
        <time>2020-06-24T10:16:01Z</time>
      </trkpt>
      <trkpt lat="50.35942" lon="3.5828">
        <ele>54.2</ele>
        <time>2020-06-24T10:16:02Z</time>
      </trkpt>
      <trkpt lat="50.35942" lon="3.58289">
        <ele>54.3</ele>
        <time>2020-06-24T10:16:03Z</time>
      </trkpt>
      <trkpt lat="50.35942" lon="3.58299">
        <ele>54.3</ele>
        <time>2020-06-24T10:16:04Z</time>
      </trkpt>
      <trkpt lat="50.35942" lon="3.58308">
        <ele>54.3</ele>
        <time>2020-06-24T10:16:05Z</time>
      </trkpt>
      <trkpt lat="50.35941" lon="3.58315">
        <ele>54.4</ele>
        <time>2020-06-24T10:16:06Z</time>
      </trkpt>
      <trkpt lat="50.35941" lon="3.58324">
        <ele>54.4</ele>
        <time>2020-06-24T10:16:07Z</time>
      </trkpt>
      <trkpt lat="50.35941" lon="3.58333">
        <ele>54.5</ele>
        <time>2020-06-24T10:16:08Z</time>
      </trkpt>
      <trkpt lat="50.35941" lon="3.58344">
        <ele>54.5</ele>
        <time>2020-06-24T10:16:09Z</time>
      </trkpt>
      <trkpt lat="50.3594" lon="3.5835">
        <ele>54.6</ele>
        <time>2020-06-24T10:16:10Z</time>
      </trkpt>
      <trkpt lat="50.35939" lon="3.58359">
        <ele>54.6</ele>
        <time>2020-06-24T10:16:11Z</time>
      </trkpt>
      <trkpt lat="50.35939" lon="3.58368">
        <ele>54.7</ele>
        <time>2020-06-24T10:16:12Z</time>
      </trkpt>
      <trkpt lat="50.35939" lon="3.58377">
        <ele>54.8</ele>
        <time>2020-06-24T10:16:13Z</time>
      </trkpt>
      <trkpt lat="50.35939" lon="3.58387">
        <ele>54.9</ele>
        <time>2020-06-24T10:16:14Z</time>
      </trkpt>
      <trkpt lat="50.35938" lon="3.58396">
        <ele>55.1</ele>
        <time>2020-06-24T10:16:15Z</time>
      </trkpt>
      <trkpt lat="50.35938" lon="3.58404">
        <ele>55.2</ele>
        <time>2020-06-24T10:16:16Z</time>
      </trkpt>
      <trkpt lat="50.35937" lon="3.58412">
        <ele>55.4</ele>
        <time>2020-06-24T10:16:17Z</time>
      </trkpt>
      <trkpt lat="50.35937" lon="3.58422">
        <ele>55.6</ele>
        <time>2020-06-24T10:16:18Z</time>
      </trkpt>
      <trkpt lat="50.35936" lon="3.58431">
        <ele>55.7</ele>
        <time>2020-06-24T10:16:19Z</time>
      </trkpt>
      <trkpt lat="50.35935" lon="3.58439">
        <ele>55.9</ele>
        <time>2020-06-24T10:16:20Z</time>
      </trkpt>
      <trkpt lat="50.35934" lon="3.58447">
        <ele>56</ele>
        <time>2020-06-24T10:16:21Z</time>
      </trkpt>
      <trkpt lat="50.35933" lon="3.58452">
        <ele>56.1</ele>
        <time>2020-06-24T10:16:22Z</time>
      </trkpt>
      <trkpt lat="50.35933" lon="3.5846">
        <ele>56.3</ele>
        <time>2020-06-24T10:16:23Z</time>
      </trkpt>
      <trkpt lat="50.35932" lon="3.58468">
        <ele>56.5</ele>
        <time>2020-06-24T10:16:24Z</time>
      </trkpt>
      <trkpt lat="50.35932" lon="3.58476">
        <ele>56.6</ele>
        <time>2020-06-24T10:16:25Z</time>
      </trkpt>
      <trkpt lat="50.35931" lon="3.58484">
        <ele>56.8</ele>
        <time>2020-06-24T10:16:26Z</time>
      </trkpt>
      <trkpt lat="50.35931" lon="3.58493">
        <ele>57</ele>
        <time>2020-06-24T10:16:27Z</time>
      </trkpt>
      <trkpt lat="50.3593" lon="3.58501">
        <ele>57.2</ele>
        <time>2020-06-24T10:16:28Z</time>
      </trkpt>
      <trkpt lat="50.35929" lon="3.58508">
        <ele>57.3</ele>
        <time>2020-06-24T10:16:29Z</time>
      </trkpt>
      <trkpt lat="50.35928" lon="3.58516">
        <ele>57.5</ele>
        <time>2020-06-24T10:16:30Z</time>
      </trkpt>
      <trkpt lat="50.35927" lon="3.58525">
        <ele>57.7</ele>
        <time>2020-06-24T10:16:31Z</time>
      </trkpt>
      <trkpt lat="50.35926" lon="3.58533">
        <ele>57.8</ele>
        <time>2020-06-24T10:16:32Z</time>
      </trkpt>
      <trkpt lat="50.35924" lon="3.5854">
        <ele>57.9</ele>
        <time>2020-06-24T10:16:33Z</time>
      </trkpt>
      <trkpt lat="50.35924" lon="3.58546">
        <ele>58</ele>
        <time>2020-06-24T10:16:34Z</time>
      </trkpt>
      <trkpt lat="50.35923" lon="3.58556">
        <ele>58.2</ele>
        <time>2020-06-24T10:16:35Z</time>
      </trkpt>
      <trkpt lat="50.35922" lon="3.58565">
        <ele>58.3</ele>
        <time>2020-06-24T10:16:36Z</time>
      </trkpt>
      <trkpt lat="50.35922" lon="3.58574">
        <ele>58.4</ele>
        <time>2020-06-24T10:16:37Z</time>
      </trkpt>
      <trkpt lat="50.35921" lon="3.58584">
        <ele>58.6</ele>
        <time>2020-06-24T10:16:38Z</time>
      </trkpt>
      <trkpt lat="50.3592" lon="3.58589">
        <ele>58.7</ele>
        <time>2020-06-24T10:16:39Z</time>
      </trkpt>
      <trkpt lat="50.3592" lon="3.58598">
        <ele>58.8</ele>
        <time>2020-06-24T10:16:40Z</time>
      </trkpt>
      <trkpt lat="50.3592" lon="3.58607">
        <ele>58.9</ele>
        <time>2020-06-24T10:16:41Z</time>
      </trkpt>
      <trkpt lat="50.35919" lon="3.58616">
        <ele>59</ele>
        <time>2020-06-24T10:16:42Z</time>
      </trkpt>
      <trkpt lat="50.35918" lon="3.58623">
        <ele>59.1</ele>
        <time>2020-06-24T10:16:43Z</time>
      </trkpt>
      <trkpt lat="50.35917" lon="3.58632">
        <ele>59.2</ele>
        <time>2020-06-24T10:16:44Z</time>
      </trkpt>
      <trkpt lat="50.35917" lon="3.5864">
        <ele>59.3</ele>
        <time>2020-06-24T10:16:45Z</time>
      </trkpt>
      <trkpt lat="50.35916" lon="3.58647">
        <ele>59.4</ele>
        <time>2020-06-24T10:16:46Z</time>
      </trkpt>
      <trkpt lat="50.35916" lon="3.58654">
        <ele>59.4</ele>
        <time>2020-06-24T10:16:47Z</time>
      </trkpt>
      <trkpt lat="50.35915" lon="3.58663">
        <ele>59.5</ele>
        <time>2020-06-24T10:16:48Z</time>
      </trkpt>
      <trkpt lat="50.35915" lon="3.5867">
        <ele>59.5</ele>
        <time>2020-06-24T10:16:49Z</time>
      </trkpt>
      <trkpt lat="50.35914" lon="3.58677">
        <ele>59.6</ele>
        <time>2020-06-24T10:16:50Z</time>
      </trkpt>
      <trkpt lat="50.35913" lon="3.58684">
        <ele>59.6</ele>
        <time>2020-06-24T10:16:51Z</time>
      </trkpt>
      <trkpt lat="50.35912" lon="3.58691">
        <ele>59.6</ele>
        <time>2020-06-24T10:16:52Z</time>
      </trkpt>
      <trkpt lat="50.35912" lon="3.587">
        <ele>59.5</ele>
        <time>2020-06-24T10:16:53Z</time>
      </trkpt>
      <trkpt lat="50.35911" lon="3.58708">
        <ele>59.5</ele>
        <time>2020-06-24T10:16:54Z</time>
      </trkpt>
      <trkpt lat="50.35911" lon="3.58716">
        <ele>59.5</ele>
        <time>2020-06-24T10:16:55Z</time>
      </trkpt>
      <trkpt lat="50.3591" lon="3.58722">
        <ele>59.5</ele>
        <time>2020-06-24T10:16:56Z</time>
      </trkpt>
      <trkpt lat="50.35909" lon="3.5873">
        <ele>59.5</ele>
        <time>2020-06-24T10:16:57Z</time>
      </trkpt>
      <trkpt lat="50.35908" lon="3.58739">
        <ele>59.5</ele>
        <time>2020-06-24T10:16:58Z</time>
      </trkpt>
      <trkpt lat="50.35907" lon="3.58748">
        <ele>59.5</ele>
        <time>2020-06-24T10:16:59Z</time>
      </trkpt>
      <trkpt lat="50.35906" lon="3.58757">
        <ele>59.4</ele>
        <time>2020-06-24T10:17:00Z</time>
      </trkpt>
      <trkpt lat="50.35905" lon="3.58765">
        <ele>59.4</ele>
        <time>2020-06-24T10:17:01Z</time>
      </trkpt>
      <trkpt lat="50.35904" lon="3.58775">
        <ele>59.3</ele>
        <time>2020-06-24T10:17:02Z</time>
      </trkpt>
      <trkpt lat="50.35904" lon="3.58786">
        <ele>59.3</ele>
        <time>2020-06-24T10:17:03Z</time>
      </trkpt>
      <trkpt lat="50.35903" lon="3.58796">
        <ele>59.2</ele>
        <time>2020-06-24T10:17:04Z</time>
      </trkpt>
      <trkpt lat="50.35902" lon="3.58807">
        <ele>59.2</ele>
        <time>2020-06-24T10:17:05Z</time>
      </trkpt>
      <trkpt lat="50.35901" lon="3.58817">
        <ele>59.1</ele>
        <time>2020-06-24T10:17:06Z</time>
      </trkpt>
      <trkpt lat="50.35899" lon="3.58826">
        <ele>59.1</ele>
        <time>2020-06-24T10:17:07Z</time>
      </trkpt>
      <trkpt lat="50.35898" lon="3.58835">
        <ele>59.1</ele>
        <time>2020-06-24T10:17:08Z</time>
      </trkpt>
      <trkpt lat="50.35897" lon="3.58846">
        <ele>59.1</ele>
        <time>2020-06-24T10:17:09Z</time>
      </trkpt>
      <trkpt lat="50.35896" lon="3.58859">
        <ele>59.1</ele>
        <time>2020-06-24T10:17:10Z</time>
      </trkpt>
      <trkpt lat="50.35895" lon="3.58868">
        <ele>59.1</ele>
        <time>2020-06-24T10:17:11Z</time>
      </trkpt>
      <trkpt lat="50.35894" lon="3.58878">
        <ele>59.2</ele>
        <time>2020-06-24T10:17:12Z</time>
      </trkpt>
      <trkpt lat="50.35893" lon="3.58888">
        <ele>59.2</ele>
        <time>2020-06-24T10:17:13Z</time>
      </trkpt>
      <trkpt lat="50.35892" lon="3.58896">
        <ele>59.3</ele>
        <time>2020-06-24T10:17:14Z</time>
      </trkpt>
      <trkpt lat="50.3589" lon="3.58903">
        <ele>59.3</ele>
        <time>2020-06-24T10:17:15Z</time>
      </trkpt>
      <trkpt lat="50.3589" lon="3.58911">
        <ele>59.4</ele>
        <time>2020-06-24T10:17:16Z</time>
      </trkpt>
      <trkpt lat="50.35889" lon="3.58919">
        <ele>59.4</ele>
        <time>2020-06-24T10:17:17Z</time>
      </trkpt>
      <trkpt lat="50.35889" lon="3.5893">
        <ele>59.4</ele>
        <time>2020-06-24T10:17:18Z</time>
      </trkpt>
      <trkpt lat="50.35888" lon="3.58939">
        <ele>59.5</ele>
        <time>2020-06-24T10:17:19Z</time>
      </trkpt>
      <trkpt lat="50.35887" lon="3.58948">
        <ele>59.5</ele>
        <time>2020-06-24T10:17:20Z</time>
      </trkpt>
      <trkpt lat="50.35886" lon="3.58956">
        <ele>59.6</ele>
        <time>2020-06-24T10:17:21Z</time>
      </trkpt>
      <trkpt lat="50.35886" lon="3.58967">
        <ele>59.6</ele>
        <time>2020-06-24T10:17:22Z</time>
      </trkpt>
      <trkpt lat="50.35884" lon="3.58975">
        <ele>59.7</ele>
        <time>2020-06-24T10:17:23Z</time>
      </trkpt>
      <trkpt lat="50.35884" lon="3.58984">
        <ele>59.7</ele>
        <time>2020-06-24T10:17:24Z</time>
      </trkpt>
      <trkpt lat="50.35884" lon="3.58994">
        <ele>59.8</ele>
        <time>2020-06-24T10:17:25Z</time>
      </trkpt>
      <trkpt lat="50.35883" lon="3.59003">
        <ele>59.9</ele>
        <time>2020-06-24T10:17:26Z</time>
      </trkpt>
      <trkpt lat="50.35882" lon="3.59014">
        <ele>60</ele>
        <time>2020-06-24T10:17:27Z</time>
      </trkpt>
      <trkpt lat="50.35881" lon="3.59022">
        <ele>60</ele>
        <time>2020-06-24T10:17:28Z</time>
      </trkpt>
      <trkpt lat="50.35879" lon="3.59033">
        <ele>60.1</ele>
        <time>2020-06-24T10:17:29Z</time>
      </trkpt>
      <trkpt lat="50.35878" lon="3.59043">
        <ele>60.2</ele>
        <time>2020-06-24T10:17:30Z</time>
      </trkpt>
      <trkpt lat="50.35876" lon="3.59051">
        <ele>60.2</ele>
        <time>2020-06-24T10:17:31Z</time>
      </trkpt>
      <trkpt lat="50.35875" lon="3.59061">
        <ele>60.3</ele>
        <time>2020-06-24T10:17:32Z</time>
      </trkpt>
      <trkpt lat="50.35873" lon="3.5907">
        <ele>60.3</ele>
        <time>2020-06-24T10:17:33Z</time>
      </trkpt>
      <trkpt lat="50.35871" lon="3.59079">
        <ele>60.4</ele>
        <time>2020-06-24T10:17:34Z</time>
      </trkpt>
      <trkpt lat="50.35869" lon="3.59088">
        <ele>60.4</ele>
        <time>2020-06-24T10:17:35Z</time>
      </trkpt>
      <trkpt lat="50.35868" lon="3.59097">
        <ele>60.5</ele>
        <time>2020-06-24T10:17:36Z</time>
      </trkpt>
      <trkpt lat="50.35866" lon="3.59107">
        <ele>60.5</ele>
        <time>2020-06-24T10:17:37Z</time>
      </trkpt>
      <trkpt lat="50.35865" lon="3.59116">
        <ele>60.6</ele>
        <time>2020-06-24T10:17:38Z</time>
      </trkpt>
      <trkpt lat="50.35864" lon="3.59125">
        <ele>60.7</ele>
        <time>2020-06-24T10:17:39Z</time>
      </trkpt>
      <trkpt lat="50.35862" lon="3.59135">
        <ele>60.7</ele>
        <time>2020-06-24T10:17:40Z</time>
      </trkpt>
      <trkpt lat="50.3586" lon="3.59145">
        <ele>60.8</ele>
        <time>2020-06-24T10:17:41Z</time>
      </trkpt>
      <trkpt lat="50.35858" lon="3.59152">
        <ele>60.9</ele>
        <time>2020-06-24T10:17:42Z</time>
      </trkpt>
      <trkpt lat="50.35857" lon="3.59161">
        <ele>61</ele>
        <time>2020-06-24T10:17:43Z</time>
      </trkpt>
      <trkpt lat="50.35855" lon="3.5917">
        <ele>61.1</ele>
        <time>2020-06-24T10:17:44Z</time>
      </trkpt>
      <trkpt lat="50.35854" lon="3.59178">
        <ele>61.2</ele>
        <time>2020-06-24T10:17:45Z</time>
      </trkpt>
      <trkpt lat="50.35853" lon="3.59186">
        <ele>61.2</ele>
        <time>2020-06-24T10:17:46Z</time>
      </trkpt>
      <trkpt lat="50.35851" lon="3.59192">
        <ele>61.3</ele>
        <time>2020-06-24T10:17:47Z</time>
      </trkpt>
      <trkpt lat="50.3585" lon="3.59198">
        <ele>61.3</ele>
        <time>2020-06-24T10:17:48Z</time>
      </trkpt>
      <trkpt lat="50.35849" lon="3.59207">
        <ele>61.4</ele>
        <time>2020-06-24T10:17:49Z</time>
      </trkpt>
      <trkpt lat="50.35847" lon="3.59213">
        <ele>61.4</ele>
        <time>2020-06-24T10:17:50Z</time>
      </trkpt>
      <trkpt lat="50.35845" lon="3.59222">
        <ele>61.5</ele>
        <time>2020-06-24T10:17:51Z</time>
      </trkpt>
      <trkpt lat="50.35843" lon="3.5923">
        <ele>61.5</ele>
        <time>2020-06-24T10:17:52Z</time>
      </trkpt>
      <trkpt lat="50.35841" lon="3.5924">
        <ele>61.5</ele>
        <time>2020-06-24T10:17:53Z</time>
      </trkpt>
      <trkpt lat="50.3584" lon="3.59247">
        <ele>61.6</ele>
        <time>2020-06-24T10:17:54Z</time>
      </trkpt>
      <trkpt lat="50.35838" lon="3.59256">
        <ele>61.6</ele>
        <time>2020-06-24T10:17:55Z</time>
      </trkpt>
      <trkpt lat="50.35836" lon="3.59263">
        <ele>61.7</ele>
        <time>2020-06-24T10:17:56Z</time>
      </trkpt>
      <trkpt lat="50.35834" lon="3.59269">
        <ele>61.8</ele>
        <time>2020-06-24T10:17:57Z</time>
      </trkpt>
      <trkpt lat="50.35832" lon="3.59277">
        <ele>61.9</ele>
        <time>2020-06-24T10:17:58Z</time>
      </trkpt>
      <trkpt lat="50.3583" lon="3.59285">
        <ele>62</ele>
        <time>2020-06-24T10:17:59Z</time>
      </trkpt>
      <trkpt lat="50.35828" lon="3.59293">
        <ele>62.1</ele>
        <time>2020-06-24T10:18:00Z</time>
      </trkpt>
      <trkpt lat="50.35826" lon="3.59301">
        <ele>62.2</ele>
        <time>2020-06-24T10:18:01Z</time>
      </trkpt>
      <trkpt lat="50.35825" lon="3.59309">
        <ele>62.3</ele>
        <time>2020-06-24T10:18:02Z</time>
      </trkpt>
      <trkpt lat="50.35822" lon="3.59317">
        <ele>62.4</ele>
        <time>2020-06-24T10:18:03Z</time>
      </trkpt>
      <trkpt lat="50.3582" lon="3.59325">
        <ele>62.5</ele>
        <time>2020-06-24T10:18:04Z</time>
      </trkpt>
      <trkpt lat="50.35818" lon="3.59333">
        <ele>62.6</ele>
        <time>2020-06-24T10:18:05Z</time>
      </trkpt>
      <trkpt lat="50.35815" lon="3.5934">
        <ele>62.7</ele>
        <time>2020-06-24T10:18:06Z</time>
      </trkpt>
      <trkpt lat="50.35814" lon="3.59348">
        <ele>62.8</ele>
        <time>2020-06-24T10:18:07Z</time>
      </trkpt>
      <trkpt lat="50.35812" lon="3.59356">
        <ele>63</ele>
        <time>2020-06-24T10:18:08Z</time>
      </trkpt>
      <trkpt lat="50.35811" lon="3.59363">
        <ele>63.1</ele>
        <time>2020-06-24T10:18:09Z</time>
      </trkpt>
      <trkpt lat="50.35809" lon="3.5937">
        <ele>63.2</ele>
        <time>2020-06-24T10:18:10Z</time>
      </trkpt>
      <trkpt lat="50.35808" lon="3.59377">
        <ele>63.3</ele>
        <time>2020-06-24T10:18:11Z</time>
      </trkpt>
      <trkpt lat="50.35805" lon="3.59385">
        <ele>63.4</ele>
        <time>2020-06-24T10:18:12Z</time>
      </trkpt>
      <trkpt lat="50.35803" lon="3.59394">
        <ele>63.5</ele>
        <time>2020-06-24T10:18:13Z</time>
      </trkpt>
      <trkpt lat="50.35801" lon="3.59402">
        <ele>63.6</ele>
        <time>2020-06-24T10:18:14Z</time>
      </trkpt>
      <trkpt lat="50.35799" lon="3.59409">
        <ele>63.7</ele>
        <time>2020-06-24T10:18:15Z</time>
      </trkpt>
      <trkpt lat="50.35797" lon="3.59417">
        <ele>63.7</ele>
        <time>2020-06-24T10:18:16Z</time>
      </trkpt>
      <trkpt lat="50.35795" lon="3.59425">
        <ele>63.8</ele>
        <time>2020-06-24T10:18:17Z</time>
      </trkpt>
      <trkpt lat="50.35793" lon="3.59432">
        <ele>63.8</ele>
        <time>2020-06-24T10:18:18Z</time>
      </trkpt>
      <trkpt lat="50.35791" lon="3.59441">
        <ele>63.9</ele>
        <time>2020-06-24T10:18:19Z</time>
      </trkpt>
      <trkpt lat="50.35788" lon="3.59449">
        <ele>64</ele>
        <time>2020-06-24T10:18:20Z</time>
      </trkpt>
      <trkpt lat="50.35786" lon="3.59458">
        <ele>64.1</ele>
        <time>2020-06-24T10:18:21Z</time>
      </trkpt>
      <trkpt lat="50.35783" lon="3.59464">
        <ele>64.1</ele>
        <time>2020-06-24T10:18:22Z</time>
      </trkpt>
      <trkpt lat="50.35781" lon="3.59472">
        <ele>64.2</ele>
        <time>2020-06-24T10:18:23Z</time>
      </trkpt>
      <trkpt lat="50.35779" lon="3.59481">
        <ele>64.3</ele>
        <time>2020-06-24T10:18:24Z</time>
      </trkpt>
      <trkpt lat="50.35778" lon="3.59488">
        <ele>64.3</ele>
        <time>2020-06-24T10:18:25Z</time>
      </trkpt>
      <trkpt lat="50.35776" lon="3.59495">
        <ele>64.4</ele>
        <time>2020-06-24T10:18:26Z</time>
      </trkpt>
      <trkpt lat="50.35774" lon="3.59502">
        <ele>64.5</ele>
        <time>2020-06-24T10:18:27Z</time>
      </trkpt>
      <trkpt lat="50.35771" lon="3.5951">
        <ele>64.5</ele>
        <time>2020-06-24T10:18:28Z</time>
      </trkpt>
      <trkpt lat="50.35769" lon="3.5952">
        <ele>64.6</ele>
        <time>2020-06-24T10:18:29Z</time>
      </trkpt>
      <trkpt lat="50.35768" lon="3.59527">
        <ele>64.7</ele>
        <time>2020-06-24T10:18:30Z</time>
      </trkpt>
      <trkpt lat="50.35765" lon="3.59534">
        <ele>64.7</ele>
        <time>2020-06-24T10:18:31Z</time>
      </trkpt>
      <trkpt lat="50.35764" lon="3.59542">
        <ele>64.8</ele>
        <time>2020-06-24T10:18:32Z</time>
      </trkpt>
      <trkpt lat="50.35762" lon="3.5955">
        <ele>64.8</ele>
        <time>2020-06-24T10:18:33Z</time>
      </trkpt>
      <trkpt lat="50.35761" lon="3.59559">
        <ele>64.9</ele>
        <time>2020-06-24T10:18:34Z</time>
      </trkpt>
      <trkpt lat="50.35759" lon="3.59569">
        <ele>64.9</ele>
        <time>2020-06-24T10:18:35Z</time>
      </trkpt>
      <trkpt lat="50.35759" lon="3.59577">
        <ele>65</ele>
        <time>2020-06-24T10:18:36Z</time>
      </trkpt>
      <trkpt lat="50.35757" lon="3.59587">
        <ele>65</ele>
        <time>2020-06-24T10:18:37Z</time>
      </trkpt>
      <trkpt lat="50.35756" lon="3.59595">
        <ele>65</ele>
        <time>2020-06-24T10:18:38Z</time>
      </trkpt>
      <trkpt lat="50.35754" lon="3.59606">
        <ele>65.1</ele>
        <time>2020-06-24T10:18:39Z</time>
      </trkpt>
      <trkpt lat="50.35753" lon="3.59611">
        <ele>65.1</ele>
        <time>2020-06-24T10:18:40Z</time>
      </trkpt>
      <trkpt lat="50.35752" lon="3.59621">
        <ele>65.1</ele>
        <time>2020-06-24T10:18:41Z</time>
      </trkpt>
      <trkpt lat="50.35751" lon="3.5963">
        <ele>65.2</ele>
        <time>2020-06-24T10:18:42Z</time>
      </trkpt>
      <trkpt lat="50.3575" lon="3.59639">
        <ele>65.3</ele>
        <time>2020-06-24T10:18:43Z</time>
      </trkpt>
      <trkpt lat="50.35749" lon="3.59645">
        <ele>65.3</ele>
        <time>2020-06-24T10:18:44Z</time>
      </trkpt>
      <trkpt lat="50.35749" lon="3.59654">
        <ele>65.4</ele>
        <time>2020-06-24T10:18:45Z</time>
      </trkpt>
      <trkpt lat="50.35748" lon="3.59664">
        <ele>65.4</ele>
        <time>2020-06-24T10:18:46Z</time>
      </trkpt>
      <trkpt lat="50.35747" lon="3.59672">
        <ele>65.5</ele>
        <time>2020-06-24T10:18:47Z</time>
      </trkpt>
      <trkpt lat="50.35746" lon="3.59681">
        <ele>65.5</ele>
        <time>2020-06-24T10:18:48Z</time>
      </trkpt>
      <trkpt lat="50.35744" lon="3.59689">
        <ele>65.5</ele>
        <time>2020-06-24T10:18:49Z</time>
      </trkpt>
      <trkpt lat="50.35743" lon="3.59698">
        <ele>65.6</ele>
        <time>2020-06-24T10:18:50Z</time>
      </trkpt>
      <trkpt lat="50.35742" lon="3.59708">
        <ele>65.7</ele>
        <time>2020-06-24T10:18:51Z</time>
      </trkpt>
      <trkpt lat="50.3574" lon="3.59719">
        <ele>65.7</ele>
        <time>2020-06-24T10:18:52Z</time>
      </trkpt>
      <trkpt lat="50.35739" lon="3.59728">
        <ele>65.8</ele>
        <time>2020-06-24T10:18:53Z</time>
      </trkpt>
      <trkpt lat="50.35737" lon="3.59738">
        <ele>65.8</ele>
        <time>2020-06-24T10:18:54Z</time>
      </trkpt>
      <trkpt lat="50.35736" lon="3.59748">
        <ele>65.9</ele>
        <time>2020-06-24T10:18:55Z</time>
      </trkpt>
      <trkpt lat="50.35734" lon="3.59758">
        <ele>65.9</ele>
        <time>2020-06-24T10:18:56Z</time>
      </trkpt>
      <trkpt lat="50.35733" lon="3.59768">
        <ele>66</ele>
        <time>2020-06-24T10:18:57Z</time>
      </trkpt>
      <trkpt lat="50.35733" lon="3.59775">
        <ele>66.1</ele>
        <time>2020-06-24T10:18:58Z</time>
      </trkpt>
      <trkpt lat="50.35732" lon="3.59782">
        <ele>66.1</ele>
        <time>2020-06-24T10:18:59Z</time>
      </trkpt>
      <trkpt lat="50.35731" lon="3.59788">
        <ele>66.2</ele>
        <time>2020-06-24T10:19:00Z</time>
      </trkpt>
      <trkpt lat="50.35731" lon="3.59798">
        <ele>66.3</ele>
        <time>2020-06-24T10:19:01Z</time>
      </trkpt>
      <trkpt lat="50.3573" lon="3.59807">
        <ele>66.3</ele>
        <time>2020-06-24T10:19:02Z</time>
      </trkpt>
      <trkpt lat="50.35728" lon="3.59815">
        <ele>66.4</ele>
        <time>2020-06-24T10:19:03Z</time>
      </trkpt>
      <trkpt lat="50.35727" lon="3.59825">
        <ele>66.5</ele>
        <time>2020-06-24T10:19:04Z</time>
      </trkpt>
      <trkpt lat="50.35726" lon="3.59834">
        <ele>66.6</ele>
        <time>2020-06-24T10:19:05Z</time>
      </trkpt>
      <trkpt lat="50.35725" lon="3.59842">
        <ele>66.7</ele>
        <time>2020-06-24T10:19:06Z</time>
      </trkpt>
      <trkpt lat="50.35724" lon="3.59851">
        <ele>66.8</ele>
        <time>2020-06-24T10:19:07Z</time>
      </trkpt>
      <trkpt lat="50.35723" lon="3.5986">
        <ele>66.9</ele>
        <time>2020-06-24T10:19:08Z</time>
      </trkpt>
      <trkpt lat="50.35721" lon="3.59869">
        <ele>67</ele>
        <time>2020-06-24T10:19:09Z</time>
      </trkpt>
      <trkpt lat="50.3572" lon="3.59879">
        <ele>67</ele>
        <time>2020-06-24T10:19:10Z</time>
      </trkpt>
      <trkpt lat="50.35719" lon="3.59889">
        <ele>67.1</ele>
        <time>2020-06-24T10:19:11Z</time>
      </trkpt>
      <trkpt lat="50.35717" lon="3.59898">
        <ele>67.2</ele>
        <time>2020-06-24T10:19:12Z</time>
      </trkpt>
      <trkpt lat="50.35716" lon="3.59908">
        <ele>67.2</ele>
        <time>2020-06-24T10:19:13Z</time>
      </trkpt>
      <trkpt lat="50.35715" lon="3.59918">
        <ele>67.3</ele>
        <time>2020-06-24T10:19:14Z</time>
      </trkpt>
      <trkpt lat="50.35713" lon="3.59928">
        <ele>67.4</ele>
        <time>2020-06-24T10:19:15Z</time>
      </trkpt>
      <trkpt lat="50.35712" lon="3.59937">
        <ele>67.4</ele>
        <time>2020-06-24T10:19:16Z</time>
      </trkpt>
      <trkpt lat="50.35711" lon="3.59946">
        <ele>67.5</ele>
        <time>2020-06-24T10:19:17Z</time>
      </trkpt>
      <trkpt lat="50.35709" lon="3.59955">
        <ele>67.5</ele>
        <time>2020-06-24T10:19:18Z</time>
      </trkpt>
      <trkpt lat="50.35708" lon="3.59964">
        <ele>67.5</ele>
        <time>2020-06-24T10:19:19Z</time>
      </trkpt>
      <trkpt lat="50.35708" lon="3.59973">
        <ele>67.5</ele>
        <time>2020-06-24T10:19:20Z</time>
      </trkpt>
      <trkpt lat="50.35707" lon="3.5998">
        <ele>67.5</ele>
        <time>2020-06-24T10:19:21Z</time>
      </trkpt>
      <trkpt lat="50.35706" lon="3.59987">
        <ele>67.4</ele>
        <time>2020-06-24T10:19:22Z</time>
      </trkpt>
      <trkpt lat="50.35705" lon="3.59996">
        <ele>67.4</ele>
        <time>2020-06-24T10:19:23Z</time>
      </trkpt>
      <trkpt lat="50.35703" lon="3.60005">
        <ele>67.4</ele>
        <time>2020-06-24T10:19:24Z</time>
      </trkpt>
      <trkpt lat="50.35702" lon="3.60015">
        <ele>67.3</ele>
        <time>2020-06-24T10:19:25Z</time>
      </trkpt>
      <trkpt lat="50.35701" lon="3.60026">
        <ele>67.2</ele>
        <time>2020-06-24T10:19:26Z</time>
      </trkpt>
      <trkpt lat="50.357" lon="3.60036">
        <ele>67.2</ele>
        <time>2020-06-24T10:19:27Z</time>
      </trkpt>
      <trkpt lat="50.35698" lon="3.60046">
        <ele>67.1</ele>
        <time>2020-06-24T10:19:28Z</time>
      </trkpt>
      <trkpt lat="50.35696" lon="3.60055">
        <ele>67.1</ele>
        <time>2020-06-24T10:19:29Z</time>
      </trkpt>
      <trkpt lat="50.35695" lon="3.60063">
        <ele>67.1</ele>
        <time>2020-06-24T10:19:30Z</time>
      </trkpt>
      <trkpt lat="50.35694" lon="3.60072">
        <ele>67</ele>
        <time>2020-06-24T10:19:31Z</time>
      </trkpt>
      <trkpt lat="50.35693" lon="3.60081">
        <ele>67</ele>
        <time>2020-06-24T10:19:32Z</time>
      </trkpt>
      <trkpt lat="50.35692" lon="3.6009">
        <ele>66.9</ele>
        <time>2020-06-24T10:19:33Z</time>
      </trkpt>
      <trkpt lat="50.3569" lon="3.60099">
        <ele>66.9</ele>
        <time>2020-06-24T10:19:34Z</time>
      </trkpt>
      <trkpt lat="50.35689" lon="3.60108">
        <ele>66.8</ele>
        <time>2020-06-24T10:19:35Z</time>
      </trkpt>
      <trkpt lat="50.35688" lon="3.60119">
        <ele>66.8</ele>
        <time>2020-06-24T10:19:36Z</time>
      </trkpt>
      <trkpt lat="50.35686" lon="3.60129">
        <ele>66.8</ele>
        <time>2020-06-24T10:19:37Z</time>
      </trkpt>
      <trkpt lat="50.35685" lon="3.60138">
        <ele>66.8</ele>
        <time>2020-06-24T10:19:38Z</time>
      </trkpt>
      <trkpt lat="50.35683" lon="3.60146">
        <ele>66.7</ele>
        <time>2020-06-24T10:19:39Z</time>
      </trkpt>
      <trkpt lat="50.35682" lon="3.60156">
        <ele>66.7</ele>
        <time>2020-06-24T10:19:40Z</time>
      </trkpt>
      <trkpt lat="50.35681" lon="3.60165">
        <ele>66.7</ele>
        <time>2020-06-24T10:19:41Z</time>
      </trkpt>
      <trkpt lat="50.3568" lon="3.60174">
        <ele>66.7</ele>
        <time>2020-06-24T10:19:42Z</time>
      </trkpt>
      <trkpt lat="50.35679" lon="3.60183">
        <ele>66.8</ele>
        <time>2020-06-24T10:19:43Z</time>
      </trkpt>
      <trkpt lat="50.35678" lon="3.60192">
        <ele>66.8</ele>
        <time>2020-06-24T10:19:44Z</time>
      </trkpt>
      <trkpt lat="50.35676" lon="3.60202">
        <ele>66.8</ele>
        <time>2020-06-24T10:19:45Z</time>
      </trkpt>
      <trkpt lat="50.35674" lon="3.60211">
        <ele>66.8</ele>
        <time>2020-06-24T10:19:46Z</time>
      </trkpt>
      <trkpt lat="50.35672" lon="3.6022">
        <ele>66.9</ele>
        <time>2020-06-24T10:19:47Z</time>
      </trkpt>
      <trkpt lat="50.35671" lon="3.60229">
        <ele>66.9</ele>
        <time>2020-06-24T10:19:48Z</time>
      </trkpt>
      <trkpt lat="50.35668" lon="3.6024">
        <ele>66.9</ele>
        <time>2020-06-24T10:19:49Z</time>
      </trkpt>
      <trkpt lat="50.35665" lon="3.6025">
        <ele>66.9</ele>
        <time>2020-06-24T10:19:50Z</time>
      </trkpt>
      <trkpt lat="50.35662" lon="3.60259">
        <ele>66.9</ele>
        <time>2020-06-24T10:19:51Z</time>
      </trkpt>
      <trkpt lat="50.35659" lon="3.60268">
        <ele>66.8</ele>
        <time>2020-06-24T10:19:52Z</time>
      </trkpt>
      <trkpt lat="50.35657" lon="3.60278">
        <ele>66.8</ele>
        <time>2020-06-24T10:19:53Z</time>
      </trkpt>
      <trkpt lat="50.35654" lon="3.60286">
        <ele>66.7</ele>
        <time>2020-06-24T10:19:54Z</time>
      </trkpt>
      <trkpt lat="50.35651" lon="3.60296">
        <ele>66.6</ele>
        <time>2020-06-24T10:19:55Z</time>
      </trkpt>
      <trkpt lat="50.35648" lon="3.60305">
        <ele>66.5</ele>
        <time>2020-06-24T10:19:56Z</time>
      </trkpt>
      <trkpt lat="50.35645" lon="3.60315">
        <ele>66.4</ele>
        <time>2020-06-24T10:19:57Z</time>
      </trkpt>
      <trkpt lat="50.35643" lon="3.60324">
        <ele>66.3</ele>
        <time>2020-06-24T10:19:58Z</time>
      </trkpt>
      <trkpt lat="50.3564" lon="3.60333">
        <ele>66.2</ele>
        <time>2020-06-24T10:19:59Z</time>
      </trkpt>
      <trkpt lat="50.35638" lon="3.60342">
        <ele>66</ele>
        <time>2020-06-24T10:20:00Z</time>
      </trkpt>
      <trkpt lat="50.35635" lon="3.60352">
        <ele>65.8</ele>
        <time>2020-06-24T10:20:01Z</time>
      </trkpt>
      <trkpt lat="50.35632" lon="3.60361">
        <ele>65.7</ele>
        <time>2020-06-24T10:20:02Z</time>
      </trkpt>
      <trkpt lat="50.3563" lon="3.60371">
        <ele>65.5</ele>
        <time>2020-06-24T10:20:03Z</time>
      </trkpt>
      <trkpt lat="50.35628" lon="3.6038">
        <ele>65.3</ele>
        <time>2020-06-24T10:20:04Z</time>
      </trkpt>
      <trkpt lat="50.35625" lon="3.60389">
        <ele>65.2</ele>
        <time>2020-06-24T10:20:05Z</time>
      </trkpt>
      <trkpt lat="50.35622" lon="3.604">
        <ele>65</ele>
        <time>2020-06-24T10:20:06Z</time>
      </trkpt>
      <trkpt lat="50.35619" lon="3.60411">
        <ele>64.9</ele>
        <time>2020-06-24T10:20:07Z</time>
      </trkpt>
      <trkpt lat="50.35616" lon="3.60422">
        <ele>64.8</ele>
        <time>2020-06-24T10:20:08Z</time>
      </trkpt>
      <trkpt lat="50.35613" lon="3.60434">
        <ele>64.8</ele>
        <time>2020-06-24T10:20:09Z</time>
      </trkpt>
      <trkpt lat="50.3561" lon="3.60445">
        <ele>64.8</ele>
        <time>2020-06-24T10:20:10Z</time>
      </trkpt>
      <trkpt lat="50.35607" lon="3.60456">
        <ele>64.8</ele>
        <time>2020-06-24T10:20:11Z</time>
      </trkpt>
      <trkpt lat="50.35604" lon="3.60466">
        <ele>64.9</ele>
        <time>2020-06-24T10:20:12Z</time>
      </trkpt>
      <trkpt lat="50.35601" lon="3.60475">
        <ele>64.8</ele>
        <time>2020-06-24T10:20:13Z</time>
      </trkpt>
      <trkpt lat="50.35598" lon="3.60485">
        <ele>64.8</ele>
        <time>2020-06-24T10:20:14Z</time>
      </trkpt>
      <trkpt lat="50.35596" lon="3.60495">
        <ele>64.8</ele>
        <time>2020-06-24T10:20:15Z</time>
      </trkpt>
      <trkpt lat="50.35594" lon="3.60504">
        <ele>64.8</ele>
        <time>2020-06-24T10:20:16Z</time>
      </trkpt>
      <trkpt lat="50.35592" lon="3.60513">
        <ele>64.8</ele>
        <time>2020-06-24T10:20:17Z</time>
      </trkpt>
      <trkpt lat="50.3559" lon="3.60521">
        <ele>64.8</ele>
        <time>2020-06-24T10:20:18Z</time>
      </trkpt>
      <trkpt lat="50.35587" lon="3.60529">
        <ele>64.7</ele>
        <time>2020-06-24T10:20:19Z</time>
      </trkpt>
      <trkpt lat="50.35585" lon="3.60537">
        <ele>64.6</ele>
        <time>2020-06-24T10:20:20Z</time>
      </trkpt>
      <trkpt lat="50.35583" lon="3.60545">
        <ele>64.6</ele>
        <time>2020-06-24T10:20:21Z</time>
      </trkpt>
      <trkpt lat="50.35581" lon="3.60552">
        <ele>64.5</ele>
        <time>2020-06-24T10:20:22Z</time>
      </trkpt>
      <trkpt lat="50.35579" lon="3.60561">
        <ele>64.5</ele>
        <time>2020-06-24T10:20:23Z</time>
      </trkpt>
      <trkpt lat="50.35577" lon="3.6057">
        <ele>64.5</ele>
        <time>2020-06-24T10:20:24Z</time>
      </trkpt>
      <trkpt lat="50.35576" lon="3.60578">
        <ele>64.5</ele>
        <time>2020-06-24T10:20:25Z</time>
      </trkpt>
      <trkpt lat="50.35573" lon="3.60586">
        <ele>64.6</ele>
        <time>2020-06-24T10:20:26Z</time>
      </trkpt>
      <trkpt lat="50.35571" lon="3.60595">
        <ele>64.6</ele>
        <time>2020-06-24T10:20:27Z</time>
      </trkpt>
      <trkpt lat="50.35569" lon="3.60603">
        <ele>64.7</ele>
        <time>2020-06-24T10:20:28Z</time>
      </trkpt>
      <trkpt lat="50.35566" lon="3.60611">
        <ele>64.8</ele>
        <time>2020-06-24T10:20:29Z</time>
      </trkpt>
      <trkpt lat="50.35564" lon="3.60619">
        <ele>64.9</ele>
        <time>2020-06-24T10:20:30Z</time>
      </trkpt>
      <trkpt lat="50.35562" lon="3.60627">
        <ele>64.9</ele>
        <time>2020-06-24T10:20:31Z</time>
      </trkpt>
      <trkpt lat="50.35559" lon="3.60634">
        <ele>65</ele>
        <time>2020-06-24T10:20:32Z</time>
      </trkpt>
      <trkpt lat="50.35557" lon="3.60642">
        <ele>65.1</ele>
        <time>2020-06-24T10:20:33Z</time>
      </trkpt>
      <trkpt lat="50.35554" lon="3.6065">
        <ele>65.2</ele>
        <time>2020-06-24T10:20:34Z</time>
      </trkpt>
      <trkpt lat="50.35552" lon="3.60658">
        <ele>65.3</ele>
        <time>2020-06-24T10:20:35Z</time>
      </trkpt>
      <trkpt lat="50.35549" lon="3.60667">
        <ele>65.4</ele>
        <time>2020-06-24T10:20:36Z</time>
      </trkpt>
      <trkpt lat="50.35547" lon="3.60676">
        <ele>65.5</ele>
        <time>2020-06-24T10:20:37Z</time>
      </trkpt>
      <trkpt lat="50.35545" lon="3.60684">
        <ele>65.7</ele>
        <time>2020-06-24T10:20:38Z</time>
      </trkpt>
      <trkpt lat="50.35543" lon="3.60692">
        <ele>65.8</ele>
        <time>2020-06-24T10:20:39Z</time>
      </trkpt>
      <trkpt lat="50.35541" lon="3.607">
        <ele>66</ele>
        <time>2020-06-24T10:20:40Z</time>
      </trkpt>
      <trkpt lat="50.35539" lon="3.60708">
        <ele>66.1</ele>
        <time>2020-06-24T10:20:41Z</time>
      </trkpt>
      <trkpt lat="50.35537" lon="3.60715">
        <ele>66.2</ele>
        <time>2020-06-24T10:20:42Z</time>
      </trkpt>
      <trkpt lat="50.35534" lon="3.60723">
        <ele>66.3</ele>
        <time>2020-06-24T10:20:43Z</time>
      </trkpt>
      <trkpt lat="50.35532" lon="3.60731">
        <ele>66.4</ele>
        <time>2020-06-24T10:20:44Z</time>
      </trkpt>
      <trkpt lat="50.3553" lon="3.60739">
        <ele>66.6</ele>
        <time>2020-06-24T10:20:45Z</time>
      </trkpt>
      <trkpt lat="50.35528" lon="3.60745">
        <ele>66.7</ele>
        <time>2020-06-24T10:20:46Z</time>
      </trkpt>
      <trkpt lat="50.35526" lon="3.60753">
        <ele>66.8</ele>
        <time>2020-06-24T10:20:47Z</time>
      </trkpt>
      <trkpt lat="50.35523" lon="3.60762">
        <ele>67</ele>
        <time>2020-06-24T10:20:48Z</time>
      </trkpt>
      <trkpt lat="50.35521" lon="3.60769">
        <ele>67.1</ele>
        <time>2020-06-24T10:20:49Z</time>
      </trkpt>
      <trkpt lat="50.35519" lon="3.60777">
        <ele>67.2</ele>
        <time>2020-06-24T10:20:50Z</time>
      </trkpt>
      <trkpt lat="50.35517" lon="3.60784">
        <ele>67.3</ele>
        <time>2020-06-24T10:20:51Z</time>
      </trkpt>
      <trkpt lat="50.35515" lon="3.60791">
        <ele>67.5</ele>
        <time>2020-06-24T10:20:52Z</time>
      </trkpt>
      <trkpt lat="50.35513" lon="3.60798">
        <ele>67.6</ele>
        <time>2020-06-24T10:20:53Z</time>
      </trkpt>
      <trkpt lat="50.3551" lon="3.60806">
        <ele>67.8</ele>
        <time>2020-06-24T10:20:54Z</time>
      </trkpt>
      <trkpt lat="50.35507" lon="3.60814">
        <ele>68</ele>
        <time>2020-06-24T10:20:55Z</time>
      </trkpt>
      <trkpt lat="50.35505" lon="3.60822">
        <ele>68.1</ele>
        <time>2020-06-24T10:20:56Z</time>
      </trkpt>
      <trkpt lat="50.35502" lon="3.6083">
        <ele>68.3</ele>
        <time>2020-06-24T10:20:57Z</time>
      </trkpt>
      <trkpt lat="50.355" lon="3.60837">
        <ele>68.5</ele>
        <time>2020-06-24T10:20:58Z</time>
      </trkpt>
      <trkpt lat="50.35497" lon="3.60844">
        <ele>68.7</ele>
        <time>2020-06-24T10:20:59Z</time>
      </trkpt>
      <trkpt lat="50.35495" lon="3.60852">
        <ele>69</ele>
        <time>2020-06-24T10:21:00Z</time>
      </trkpt>
      <trkpt lat="50.35492" lon="3.60862">
        <ele>69.2</ele>
        <time>2020-06-24T10:21:01Z</time>
      </trkpt>
      <trkpt lat="50.35489" lon="3.60868">
        <ele>69.4</ele>
        <time>2020-06-24T10:21:02Z</time>
      </trkpt>
      <trkpt lat="50.35487" lon="3.60876">
        <ele>69.6</ele>
        <time>2020-06-24T10:21:03Z</time>
      </trkpt>
      <trkpt lat="50.35485" lon="3.60884">
        <ele>69.8</ele>
        <time>2020-06-24T10:21:04Z</time>
      </trkpt>
      <trkpt lat="50.35483" lon="3.60891">
        <ele>70</ele>
        <time>2020-06-24T10:21:05Z</time>
      </trkpt>
      <trkpt lat="50.35481" lon="3.60898">
        <ele>70.2</ele>
        <time>2020-06-24T10:21:06Z</time>
      </trkpt>
      <trkpt lat="50.35479" lon="3.60906">
        <ele>70.3</ele>
        <time>2020-06-24T10:21:07Z</time>
      </trkpt>
      <trkpt lat="50.35478" lon="3.60915">
        <ele>70.5</ele>
        <time>2020-06-24T10:21:08Z</time>
      </trkpt>
      <trkpt lat="50.35477" lon="3.6092">
        <ele>70.6</ele>
        <time>2020-06-24T10:21:09Z</time>
      </trkpt>
      <trkpt lat="50.35476" lon="3.60926">
        <ele>70.6</ele>
        <time>2020-06-24T10:21:10Z</time>
      </trkpt>
      <trkpt lat="50.35475" lon="3.60931">
        <ele>70.7</ele>
        <time>2020-06-24T10:21:11Z</time>
      </trkpt>
      <trkpt lat="50.35474" lon="3.60937">
        <ele>70.8</ele>
        <time>2020-06-24T10:21:12Z</time>
      </trkpt>
      <trkpt lat="50.35474" lon="3.60943">
        <ele>70.8</ele>
        <time>2020-06-24T10:21:13Z</time>
      </trkpt>
      <trkpt lat="50.35473" lon="3.6095">
        <ele>70.9</ele>
        <time>2020-06-24T10:21:14Z</time>
      </trkpt>
      <trkpt lat="50.35471" lon="3.60956">
        <ele>70.9</ele>
        <time>2020-06-24T10:21:15Z</time>
      </trkpt>
      <trkpt lat="50.3547" lon="3.60963">
        <ele>71</ele>
        <time>2020-06-24T10:21:16Z</time>
      </trkpt>
      <trkpt lat="50.35469" lon="3.60969">
        <ele>71.1</ele>
        <time>2020-06-24T10:21:17Z</time>
      </trkpt>
      <trkpt lat="50.35468" lon="3.60973">
        <ele>71.1</ele>
        <time>2020-06-24T10:21:18Z</time>
      </trkpt>
      <trkpt lat="50.35466" lon="3.6098">
        <ele>71.1</ele>
        <time>2020-06-24T10:21:19Z</time>
      </trkpt>
      <trkpt lat="50.35464" lon="3.60987">
        <ele>71.1</ele>
        <time>2020-06-24T10:21:20Z</time>
      </trkpt>
      <trkpt lat="50.35462" lon="3.60994">
        <ele>71.2</ele>
        <time>2020-06-24T10:21:21Z</time>
      </trkpt>
      <trkpt lat="50.35459" lon="3.61">
        <ele>71.2</ele>
        <time>2020-06-24T10:21:22Z</time>
      </trkpt>
      <trkpt lat="50.35457" lon="3.61006">
        <ele>71.2</ele>
        <time>2020-06-24T10:21:23Z</time>
      </trkpt>
      <trkpt lat="50.35455" lon="3.61011">
        <ele>71.2</ele>
        <time>2020-06-24T10:21:24Z</time>
      </trkpt>
      <trkpt lat="50.35452" lon="3.61016">
        <ele>71.3</ele>
        <time>2020-06-24T10:21:25Z</time>
      </trkpt>
      <trkpt lat="50.3545" lon="3.6102">
        <ele>71.3</ele>
        <time>2020-06-24T10:21:26Z</time>
      </trkpt>
      <trkpt lat="50.35448" lon="3.61024">
        <ele>71.3</ele>
        <time>2020-06-24T10:21:27Z</time>
      </trkpt>
      <trkpt lat="50.35445" lon="3.61028">
        <ele>71.3</ele>
        <time>2020-06-24T10:21:28Z</time>
      </trkpt>
      <trkpt lat="50.35443" lon="3.61032">
        <ele>71.4</ele>
        <time>2020-06-24T10:21:29Z</time>
      </trkpt>
      <trkpt lat="50.3544" lon="3.61038">
        <ele>71.4</ele>
        <time>2020-06-24T10:21:30Z</time>
      </trkpt>
      <trkpt lat="50.35438" lon="3.61042">
        <ele>71.5</ele>
        <time>2020-06-24T10:21:31Z</time>
      </trkpt>
      <trkpt lat="50.35436" lon="3.61048">
        <ele>71.5</ele>
        <time>2020-06-24T10:21:32Z</time>
      </trkpt>
      <trkpt lat="50.35435" lon="3.61055">
        <ele>71.6</ele>
        <time>2020-06-24T10:21:33Z</time>
      </trkpt>
      <trkpt lat="50.35434" lon="3.61061">
        <ele>71.7</ele>
        <time>2020-06-24T10:21:34Z</time>
      </trkpt>
      <trkpt lat="50.35433" lon="3.61066">
        <ele>71.7</ele>
        <time>2020-06-24T10:21:35Z</time>
      </trkpt>
      <trkpt lat="50.35432" lon="3.61072">
        <ele>71.7</ele>
        <time>2020-06-24T10:21:36Z</time>
      </trkpt>
      <trkpt lat="50.3543" lon="3.61081">
        <ele>71.8</ele>
        <time>2020-06-24T10:21:37Z</time>
      </trkpt>
      <trkpt lat="50.35429" lon="3.61087">
        <ele>71.9</ele>
        <time>2020-06-24T10:21:38Z</time>
      </trkpt>
      <trkpt lat="50.35428" lon="3.61093">
        <ele>71.9</ele>
        <time>2020-06-24T10:21:39Z</time>
      </trkpt>
      <trkpt lat="50.35427" lon="3.61101">
        <ele>72</ele>
        <time>2020-06-24T10:21:40Z</time>
      </trkpt>
      <trkpt lat="50.35426" lon="3.61107">
        <ele>72</ele>
        <time>2020-06-24T10:21:41Z</time>
      </trkpt>
      <trkpt lat="50.35425" lon="3.61113">
        <ele>72.1</ele>
        <time>2020-06-24T10:21:42Z</time>
      </trkpt>
      <trkpt lat="50.35424" lon="3.6112">
        <ele>72.1</ele>
        <time>2020-06-24T10:21:43Z</time>
      </trkpt>
      <trkpt lat="50.35423" lon="3.61126">
        <ele>72.1</ele>
        <time>2020-06-24T10:21:44Z</time>
      </trkpt>
      <trkpt lat="50.35423" lon="3.61132">
        <ele>72.2</ele>
        <time>2020-06-24T10:21:45Z</time>
      </trkpt>
      <trkpt lat="50.35422" lon="3.61142">
        <ele>72.2</ele>
        <time>2020-06-24T10:21:46Z</time>
      </trkpt>
      <trkpt lat="50.35422" lon="3.61148">
        <ele>72.3</ele>
        <time>2020-06-24T10:21:47Z</time>
      </trkpt>
      <trkpt lat="50.35421" lon="3.61154">
        <ele>72.3</ele>
        <time>2020-06-24T10:21:48Z</time>
      </trkpt>
      <trkpt lat="50.35421" lon="3.6116">
        <ele>72.4</ele>
        <time>2020-06-24T10:21:49Z</time>
      </trkpt>
      <trkpt lat="50.3542" lon="3.61166">
        <ele>72.4</ele>
        <time>2020-06-24T10:21:50Z</time>
      </trkpt>
      <trkpt lat="50.3542" lon="3.61172">
        <ele>72.5</ele>
        <time>2020-06-24T10:21:51Z</time>
      </trkpt>
      <trkpt lat="50.3542" lon="3.6118">
        <ele>72.5</ele>
        <time>2020-06-24T10:21:52Z</time>
      </trkpt>
      <trkpt lat="50.3542" lon="3.61185">
        <ele>72.6</ele>
        <time>2020-06-24T10:21:53Z</time>
      </trkpt>
      <trkpt lat="50.35419" lon="3.61193">
        <ele>72.6</ele>
        <time>2020-06-24T10:21:54Z</time>
      </trkpt>
      <trkpt lat="50.35419" lon="3.61199">
        <ele>72.7</ele>
        <time>2020-06-24T10:21:55Z</time>
      </trkpt>
      <trkpt lat="50.35419" lon="3.61205">
        <ele>72.7</ele>
        <time>2020-06-24T10:21:56Z</time>
      </trkpt>
      <trkpt lat="50.35419" lon="3.61213">
        <ele>72.8</ele>
        <time>2020-06-24T10:21:57Z</time>
      </trkpt>
      <trkpt lat="50.35419" lon="3.6122">
        <ele>72.8</ele>
        <time>2020-06-24T10:21:58Z</time>
      </trkpt>
      <trkpt lat="50.35418" lon="3.61227">
        <ele>72.9</ele>
        <time>2020-06-24T10:21:59Z</time>
      </trkpt>
      <trkpt lat="50.35418" lon="3.61234">
        <ele>72.9</ele>
        <time>2020-06-24T10:22:00Z</time>
      </trkpt>
      <trkpt lat="50.35418" lon="3.61242">
        <ele>73</ele>
        <time>2020-06-24T10:22:01Z</time>
      </trkpt>
      <trkpt lat="50.35417" lon="3.61248">
        <ele>73</ele>
        <time>2020-06-24T10:22:02Z</time>
      </trkpt>
      <trkpt lat="50.35417" lon="3.61254">
        <ele>73.1</ele>
        <time>2020-06-24T10:22:03Z</time>
      </trkpt>
      <trkpt lat="50.35417" lon="3.61262">
        <ele>73.1</ele>
        <time>2020-06-24T10:22:04Z</time>
      </trkpt>
      <trkpt lat="50.35416" lon="3.6127">
        <ele>73.2</ele>
        <time>2020-06-24T10:22:05Z</time>
      </trkpt>
      <trkpt lat="50.35416" lon="3.61279">
        <ele>73.3</ele>
        <time>2020-06-24T10:22:06Z</time>
      </trkpt>
      <trkpt lat="50.35416" lon="3.61286">
        <ele>73.4</ele>
        <time>2020-06-24T10:22:07Z</time>
      </trkpt>
      <trkpt lat="50.35415" lon="3.61293">
        <ele>73.5</ele>
        <time>2020-06-24T10:22:08Z</time>
      </trkpt>
      <trkpt lat="50.35415" lon="3.613">
        <ele>73.6</ele>
        <time>2020-06-24T10:22:09Z</time>
      </trkpt>
      <trkpt lat="50.35415" lon="3.61308">
        <ele>73.7</ele>
        <time>2020-06-24T10:22:10Z</time>
      </trkpt>
      <trkpt lat="50.35415" lon="3.61314">
        <ele>73.7</ele>
        <time>2020-06-24T10:22:11Z</time>
      </trkpt>
      <trkpt lat="50.35414" lon="3.61323">
        <ele>73.8</ele>
        <time>2020-06-24T10:22:12Z</time>
      </trkpt>
      <trkpt lat="50.35414" lon="3.61331">
        <ele>73.8</ele>
        <time>2020-06-24T10:22:13Z</time>
      </trkpt>
      <trkpt lat="50.35414" lon="3.61337">
        <ele>73.9</ele>
        <time>2020-06-24T10:22:14Z</time>
      </trkpt>
      <trkpt lat="50.35413" lon="3.61344">
        <ele>74</ele>
        <time>2020-06-24T10:22:15Z</time>
      </trkpt>
      <trkpt lat="50.35413" lon="3.61351">
        <ele>74</ele>
        <time>2020-06-24T10:22:16Z</time>
      </trkpt>
      <trkpt lat="50.35412" lon="3.61358">
        <ele>74.1</ele>
        <time>2020-06-24T10:22:17Z</time>
      </trkpt>
      <trkpt lat="50.35412" lon="3.61366">
        <ele>74.2</ele>
        <time>2020-06-24T10:22:18Z</time>
      </trkpt>
      <trkpt lat="50.35412" lon="3.61374">
        <ele>74.3</ele>
        <time>2020-06-24T10:22:19Z</time>
      </trkpt>
      <trkpt lat="50.35411" lon="3.61382">
        <ele>74.4</ele>
        <time>2020-06-24T10:22:20Z</time>
      </trkpt>
      <trkpt lat="50.35411" lon="3.6139">
        <ele>74.5</ele>
        <time>2020-06-24T10:22:21Z</time>
      </trkpt>
      <trkpt lat="50.35411" lon="3.61396">
        <ele>74.6</ele>
        <time>2020-06-24T10:22:22Z</time>
      </trkpt>
      <trkpt lat="50.3541" lon="3.61404">
        <ele>74.7</ele>
        <time>2020-06-24T10:22:23Z</time>
      </trkpt>
      <trkpt lat="50.3541" lon="3.61412">
        <ele>74.8</ele>
        <time>2020-06-24T10:22:24Z</time>
      </trkpt>
      <trkpt lat="50.35409" lon="3.61419">
        <ele>74.9</ele>
        <time>2020-06-24T10:22:25Z</time>
      </trkpt>
      <trkpt lat="50.35409" lon="3.61426">
        <ele>75</ele>
        <time>2020-06-24T10:22:26Z</time>
      </trkpt>
      <trkpt lat="50.35409" lon="3.61433">
        <ele>75.1</ele>
        <time>2020-06-24T10:22:27Z</time>
      </trkpt>
      <trkpt lat="50.35409" lon="3.6144">
        <ele>75.2</ele>
        <time>2020-06-24T10:22:28Z</time>
      </trkpt>
      <trkpt lat="50.35408" lon="3.61447">
        <ele>75.3</ele>
        <time>2020-06-24T10:22:29Z</time>
      </trkpt>
      <trkpt lat="50.35408" lon="3.61455">
        <ele>75.4</ele>
        <time>2020-06-24T10:22:30Z</time>
      </trkpt>
      <trkpt lat="50.35407" lon="3.61462">
        <ele>75.5</ele>
        <time>2020-06-24T10:22:31Z</time>
      </trkpt>
      <trkpt lat="50.35407" lon="3.61469">
        <ele>75.6</ele>
        <time>2020-06-24T10:22:32Z</time>
      </trkpt>
      <trkpt lat="50.35407" lon="3.61476">
        <ele>75.7</ele>
        <time>2020-06-24T10:22:33Z</time>
      </trkpt>
      <trkpt lat="50.35406" lon="3.61483">
        <ele>75.8</ele>
        <time>2020-06-24T10:22:34Z</time>
      </trkpt>
      <trkpt lat="50.35406" lon="3.61491">
        <ele>75.9</ele>
        <time>2020-06-24T10:22:35Z</time>
      </trkpt>
      <trkpt lat="50.35406" lon="3.615">
        <ele>76</ele>
        <time>2020-06-24T10:22:36Z</time>
      </trkpt>
      <trkpt lat="50.35405" lon="3.61508">
        <ele>76.1</ele>
        <time>2020-06-24T10:22:37Z</time>
      </trkpt>
      <trkpt lat="50.35404" lon="3.61515">
        <ele>76.3</ele>
        <time>2020-06-24T10:22:38Z</time>
      </trkpt>
      <trkpt lat="50.35403" lon="3.61521">
        <ele>76.4</ele>
        <time>2020-06-24T10:22:39Z</time>
      </trkpt>
      <trkpt lat="50.35402" lon="3.61528">
        <ele>76.6</ele>
        <time>2020-06-24T10:22:40Z</time>
      </trkpt>
      <trkpt lat="50.35401" lon="3.61536">
        <ele>76.7</ele>
        <time>2020-06-24T10:22:41Z</time>
      </trkpt>
      <trkpt lat="50.35401" lon="3.61545">
        <ele>76.9</ele>
        <time>2020-06-24T10:22:42Z</time>
      </trkpt>
      <trkpt lat="50.354" lon="3.61553">
        <ele>77</ele>
        <time>2020-06-24T10:22:43Z</time>
      </trkpt>
      <trkpt lat="50.35399" lon="3.6156">
        <ele>77.1</ele>
        <time>2020-06-24T10:22:44Z</time>
      </trkpt>
      <trkpt lat="50.35398" lon="3.61568">
        <ele>77.3</ele>
        <time>2020-06-24T10:22:45Z</time>
      </trkpt>
      <trkpt lat="50.35397" lon="3.61576">
        <ele>77.4</ele>
        <time>2020-06-24T10:22:46Z</time>
      </trkpt>
      <trkpt lat="50.35395" lon="3.61582">
        <ele>77.6</ele>
        <time>2020-06-24T10:22:47Z</time>
      </trkpt>
      <trkpt lat="50.35394" lon="3.6159">
        <ele>77.7</ele>
        <time>2020-06-24T10:22:48Z</time>
      </trkpt>
      <trkpt lat="50.35394" lon="3.61596">
        <ele>77.8</ele>
        <time>2020-06-24T10:22:49Z</time>
      </trkpt>
      <trkpt lat="50.35393" lon="3.61603">
        <ele>77.8</ele>
        <time>2020-06-24T10:22:50Z</time>
      </trkpt>
      <trkpt lat="50.35392" lon="3.61611">
        <ele>77.9</ele>
        <time>2020-06-24T10:22:51Z</time>
      </trkpt>
      <trkpt lat="50.35391" lon="3.61619">
        <ele>77.9</ele>
        <time>2020-06-24T10:22:52Z</time>
      </trkpt>
      <trkpt lat="50.35389" lon="3.61625">
        <ele>77.9</ele>
        <time>2020-06-24T10:22:53Z</time>
      </trkpt>
      <trkpt lat="50.35388" lon="3.61633">
        <ele>77.9</ele>
        <time>2020-06-24T10:22:54Z</time>
      </trkpt>
      <trkpt lat="50.35387" lon="3.61641">
        <ele>78</ele>
        <time>2020-06-24T10:22:55Z</time>
      </trkpt>
      <trkpt lat="50.35386" lon="3.61648">
        <ele>78</ele>
        <time>2020-06-24T10:22:56Z</time>
      </trkpt>
      <trkpt lat="50.35385" lon="3.61654">
        <ele>78.1</ele>
        <time>2020-06-24T10:22:57Z</time>
      </trkpt>
      <trkpt lat="50.35384" lon="3.61661">
        <ele>78.1</ele>
        <time>2020-06-24T10:22:58Z</time>
      </trkpt>
      <trkpt lat="50.35383" lon="3.61669">
        <ele>78.2</ele>
        <time>2020-06-24T10:22:59Z</time>
      </trkpt>
      <trkpt lat="50.35381" lon="3.61675">
        <ele>78.3</ele>
        <time>2020-06-24T10:23:00Z</time>
      </trkpt>
      <trkpt lat="50.3538" lon="3.61682">
        <ele>78.3</ele>
        <time>2020-06-24T10:23:01Z</time>
      </trkpt>
      <trkpt lat="50.35379" lon="3.6169">
        <ele>78.4</ele>
        <time>2020-06-24T10:23:02Z</time>
      </trkpt>
      <trkpt lat="50.35378" lon="3.61697">
        <ele>78.4</ele>
        <time>2020-06-24T10:23:03Z</time>
      </trkpt>
      <trkpt lat="50.35377" lon="3.61705">
        <ele>78.5</ele>
        <time>2020-06-24T10:23:04Z</time>
      </trkpt>
      <trkpt lat="50.35376" lon="3.61711">
        <ele>78.5</ele>
        <time>2020-06-24T10:23:05Z</time>
      </trkpt>
      <trkpt lat="50.35375" lon="3.61717">
        <ele>78.6</ele>
        <time>2020-06-24T10:23:06Z</time>
      </trkpt>
      <trkpt lat="50.35373" lon="3.61724">
        <ele>78.6</ele>
        <time>2020-06-24T10:23:07Z</time>
      </trkpt>
      <trkpt lat="50.35372" lon="3.61731">
        <ele>78.6</ele>
        <time>2020-06-24T10:23:08Z</time>
      </trkpt>
      <trkpt lat="50.35371" lon="3.6174">
        <ele>78.6</ele>
        <time>2020-06-24T10:23:09Z</time>
      </trkpt>
      <trkpt lat="50.3537" lon="3.61749">
        <ele>78.7</ele>
        <time>2020-06-24T10:23:10Z</time>
      </trkpt>
      <trkpt lat="50.35368" lon="3.61758">
        <ele>78.7</ele>
        <time>2020-06-24T10:23:11Z</time>
      </trkpt>
      <trkpt lat="50.35367" lon="3.61766">
        <ele>78.8</ele>
        <time>2020-06-24T10:23:12Z</time>
      </trkpt>
      <trkpt lat="50.35366" lon="3.61775">
        <ele>78.8</ele>
        <time>2020-06-24T10:23:13Z</time>
      </trkpt>
      <trkpt lat="50.35364" lon="3.61783">
        <ele>78.8</ele>
        <time>2020-06-24T10:23:14Z</time>
      </trkpt>
      <trkpt lat="50.35363" lon="3.61792">
        <ele>78.9</ele>
        <time>2020-06-24T10:23:15Z</time>
      </trkpt>
      <trkpt lat="50.35361" lon="3.618">
        <ele>78.9</ele>
        <time>2020-06-24T10:23:16Z</time>
      </trkpt>
      <trkpt lat="50.35359" lon="3.61808">
        <ele>78.9</ele>
        <time>2020-06-24T10:23:17Z</time>
      </trkpt>
      <trkpt lat="50.35357" lon="3.61815">
        <ele>79</ele>
        <time>2020-06-24T10:23:18Z</time>
      </trkpt>
      <trkpt lat="50.35356" lon="3.61822">
        <ele>79</ele>
        <time>2020-06-24T10:23:19Z</time>
      </trkpt>
      <trkpt lat="50.35354" lon="3.6183">
        <ele>79.1</ele>
        <time>2020-06-24T10:23:20Z</time>
      </trkpt>
      <trkpt lat="50.35352" lon="3.61837">
        <ele>79.1</ele>
        <time>2020-06-24T10:23:21Z</time>
      </trkpt>
      <trkpt lat="50.3535" lon="3.61844">
        <ele>79.1</ele>
        <time>2020-06-24T10:23:22Z</time>
      </trkpt>
      <trkpt lat="50.35348" lon="3.61851">
        <ele>79.2</ele>
        <time>2020-06-24T10:23:23Z</time>
      </trkpt>
      <trkpt lat="50.35345" lon="3.61861">
        <ele>79.2</ele>
        <time>2020-06-24T10:23:24Z</time>
      </trkpt>
      <trkpt lat="50.35343" lon="3.61869">
        <ele>79.2</ele>
        <time>2020-06-24T10:23:25Z</time>
      </trkpt>
      <trkpt lat="50.35341" lon="3.61876">
        <ele>79.3</ele>
        <time>2020-06-24T10:23:26Z</time>
      </trkpt>
      <trkpt lat="50.35338" lon="3.61884">
        <ele>79.3</ele>
        <time>2020-06-24T10:23:27Z</time>
      </trkpt>
      <trkpt lat="50.35336" lon="3.61892">
        <ele>79.4</ele>
        <time>2020-06-24T10:23:28Z</time>
      </trkpt>
      <trkpt lat="50.35334" lon="3.61899">
        <ele>79.4</ele>
        <time>2020-06-24T10:23:29Z</time>
      </trkpt>
      <trkpt lat="50.35332" lon="3.61907">
        <ele>79.5</ele>
        <time>2020-06-24T10:23:30Z</time>
      </trkpt>
      <trkpt lat="50.3533" lon="3.61914">
        <ele>79.5</ele>
        <time>2020-06-24T10:23:31Z</time>
      </trkpt>
      <trkpt lat="50.35328" lon="3.61922">
        <ele>79.5</ele>
        <time>2020-06-24T10:23:32Z</time>
      </trkpt>
      <trkpt lat="50.35325" lon="3.6193">
        <ele>79.6</ele>
        <time>2020-06-24T10:23:33Z</time>
      </trkpt>
      <trkpt lat="50.35322" lon="3.61939">
        <ele>79.6</ele>
        <time>2020-06-24T10:23:34Z</time>
      </trkpt>
      <trkpt lat="50.35319" lon="3.61947">
        <ele>79.6</ele>
        <time>2020-06-24T10:23:35Z</time>
      </trkpt>
      <trkpt lat="50.35317" lon="3.61955">
        <ele>79.7</ele>
        <time>2020-06-24T10:23:36Z</time>
      </trkpt>
      <trkpt lat="50.35315" lon="3.61963">
        <ele>79.7</ele>
        <time>2020-06-24T10:23:37Z</time>
      </trkpt>
      <trkpt lat="50.35312" lon="3.61971">
        <ele>79.8</ele>
        <time>2020-06-24T10:23:38Z</time>
      </trkpt>
      <trkpt lat="50.3531" lon="3.61979">
        <ele>79.8</ele>
        <time>2020-06-24T10:23:39Z</time>
      </trkpt>
      <trkpt lat="50.35309" lon="3.61986">
        <ele>79.9</ele>
        <time>2020-06-24T10:23:40Z</time>
      </trkpt>
      <trkpt lat="50.35307" lon="3.61992">
        <ele>79.9</ele>
        <time>2020-06-24T10:23:41Z</time>
      </trkpt>
      <trkpt lat="50.35304" lon="3.62">
        <ele>80</ele>
        <time>2020-06-24T10:23:42Z</time>
      </trkpt>
      <trkpt lat="50.35302" lon="3.62007">
        <ele>80.1</ele>
        <time>2020-06-24T10:23:43Z</time>
      </trkpt>
      <trkpt lat="50.35299" lon="3.62014">
        <ele>80.1</ele>
        <time>2020-06-24T10:23:44Z</time>
      </trkpt>
      <trkpt lat="50.35298" lon="3.62019">
        <ele>80.1</ele>
        <time>2020-06-24T10:23:45Z</time>
      </trkpt>
      <trkpt lat="50.35296" lon="3.62026">
        <ele>80.1</ele>
        <time>2020-06-24T10:23:46Z</time>
      </trkpt>
      <trkpt lat="50.35293" lon="3.62034">
        <ele>80.2</ele>
        <time>2020-06-24T10:23:47Z</time>
      </trkpt>
      <trkpt lat="50.35291" lon="3.62041">
        <ele>80.2</ele>
        <time>2020-06-24T10:23:48Z</time>
      </trkpt>
      <trkpt lat="50.35289" lon="3.62049">
        <ele>80.2</ele>
        <time>2020-06-24T10:23:49Z</time>
      </trkpt>
      <trkpt lat="50.35286" lon="3.62057">
        <ele>80.2</ele>
        <time>2020-06-24T10:23:50Z</time>
      </trkpt>
      <trkpt lat="50.35284" lon="3.62064">
        <ele>80.2</ele>
        <time>2020-06-24T10:23:51Z</time>
      </trkpt>
      <trkpt lat="50.35282" lon="3.62069">
        <ele>80.1</ele>
        <time>2020-06-24T10:23:52Z</time>
      </trkpt>
      <trkpt lat="50.3528" lon="3.62077">
        <ele>80.1</ele>
        <time>2020-06-24T10:23:53Z</time>
      </trkpt>
      <trkpt lat="50.35278" lon="3.62085">
        <ele>80.1</ele>
        <time>2020-06-24T10:23:54Z</time>
      </trkpt>
      <trkpt lat="50.35275" lon="3.62095">
        <ele>80.1</ele>
        <time>2020-06-24T10:23:55Z</time>
      </trkpt>
      <trkpt lat="50.35273" lon="3.62104">
        <ele>80</ele>
        <time>2020-06-24T10:23:56Z</time>
      </trkpt>
      <trkpt lat="50.35271" lon="3.62111">
        <ele>80</ele>
        <time>2020-06-24T10:23:57Z</time>
      </trkpt>
      <trkpt lat="50.35269" lon="3.62118">
        <ele>80</ele>
        <time>2020-06-24T10:23:58Z</time>
      </trkpt>
      <trkpt lat="50.35268" lon="3.62126">
        <ele>79.9</ele>
        <time>2020-06-24T10:23:59Z</time>
      </trkpt>
      <trkpt lat="50.35266" lon="3.62135">
        <ele>79.9</ele>
        <time>2020-06-24T10:24:00Z</time>
      </trkpt>
      <trkpt lat="50.35264" lon="3.62144">
        <ele>79.8</ele>
        <time>2020-06-24T10:24:01Z</time>
      </trkpt>
      <trkpt lat="50.35262" lon="3.62155">
        <ele>79.7</ele>
        <time>2020-06-24T10:24:02Z</time>
      </trkpt>
      <trkpt lat="50.3526" lon="3.62163">
        <ele>79.6</ele>
        <time>2020-06-24T10:24:03Z</time>
      </trkpt>
      <trkpt lat="50.35258" lon="3.62171">
        <ele>79.5</ele>
        <time>2020-06-24T10:24:04Z</time>
      </trkpt>
      <trkpt lat="50.35256" lon="3.62182">
        <ele>79.3</ele>
        <time>2020-06-24T10:24:05Z</time>
      </trkpt>
      <trkpt lat="50.35254" lon="3.62192">
        <ele>79.2</ele>
        <time>2020-06-24T10:24:06Z</time>
      </trkpt>
      <trkpt lat="50.35251" lon="3.62202">
        <ele>79.1</ele>
        <time>2020-06-24T10:24:07Z</time>
      </trkpt>
      <trkpt lat="50.35249" lon="3.62211">
        <ele>79</ele>
        <time>2020-06-24T10:24:08Z</time>
      </trkpt>
      <trkpt lat="50.35247" lon="3.62223">
        <ele>78.8</ele>
        <time>2020-06-24T10:24:09Z</time>
      </trkpt>
      <trkpt lat="50.35245" lon="3.62231">
        <ele>78.7</ele>
        <time>2020-06-24T10:24:10Z</time>
      </trkpt>
      <trkpt lat="50.35243" lon="3.62242">
        <ele>78.6</ele>
        <time>2020-06-24T10:24:11Z</time>
      </trkpt>
      <trkpt lat="50.35241" lon="3.62252">
        <ele>78.4</ele>
        <time>2020-06-24T10:24:12Z</time>
      </trkpt>
      <trkpt lat="50.35238" lon="3.62263">
        <ele>78.3</ele>
        <time>2020-06-24T10:24:13Z</time>
      </trkpt>
      <trkpt lat="50.35236" lon="3.62273">
        <ele>78.2</ele>
        <time>2020-06-24T10:24:14Z</time>
      </trkpt>
      <trkpt lat="50.35234" lon="3.62283">
        <ele>78.1</ele>
        <time>2020-06-24T10:24:15Z</time>
      </trkpt>
      <trkpt lat="50.35232" lon="3.62293">
        <ele>78</ele>
        <time>2020-06-24T10:24:16Z</time>
      </trkpt>
      <trkpt lat="50.3523" lon="3.62302">
        <ele>77.9</ele>
        <time>2020-06-24T10:24:17Z</time>
      </trkpt>
      <trkpt lat="50.35227" lon="3.62311">
        <ele>77.8</ele>
        <time>2020-06-24T10:24:18Z</time>
      </trkpt>
      <trkpt lat="50.35225" lon="3.6232">
        <ele>77.7</ele>
        <time>2020-06-24T10:24:19Z</time>
      </trkpt>
      <trkpt lat="50.35222" lon="3.62329">
        <ele>77.6</ele>
        <time>2020-06-24T10:24:20Z</time>
      </trkpt>
      <trkpt lat="50.35218" lon="3.62339">
        <ele>77.6</ele>
        <time>2020-06-24T10:24:21Z</time>
      </trkpt>
      <trkpt lat="50.35215" lon="3.62347">
        <ele>77.5</ele>
        <time>2020-06-24T10:24:22Z</time>
      </trkpt>
      <trkpt lat="50.35212" lon="3.62355">
        <ele>77.4</ele>
        <time>2020-06-24T10:24:23Z</time>
      </trkpt>
      <trkpt lat="50.35208" lon="3.62364">
        <ele>77.4</ele>
        <time>2020-06-24T10:24:24Z</time>
      </trkpt>
      <trkpt lat="50.35205" lon="3.62372">
        <ele>77.3</ele>
        <time>2020-06-24T10:24:25Z</time>
      </trkpt>
      <trkpt lat="50.35202" lon="3.6238">
        <ele>77.2</ele>
        <time>2020-06-24T10:24:26Z</time>
      </trkpt>
      <trkpt lat="50.35198" lon="3.62389">
        <ele>77.2</ele>
        <time>2020-06-24T10:24:27Z</time>
      </trkpt>
      <trkpt lat="50.35196" lon="3.62399">
        <ele>77.1</ele>
        <time>2020-06-24T10:24:28Z</time>
      </trkpt>
      <trkpt lat="50.35193" lon="3.62408">
        <ele>77.1</ele>
        <time>2020-06-24T10:24:29Z</time>
      </trkpt>
      <trkpt lat="50.35191" lon="3.62417">
        <ele>77.1</ele>
        <time>2020-06-24T10:24:30Z</time>
      </trkpt>
      <trkpt lat="50.3519" lon="3.62427">
        <ele>77</ele>
        <time>2020-06-24T10:24:31Z</time>
      </trkpt>
      <trkpt lat="50.35189" lon="3.62437">
        <ele>77</ele>
        <time>2020-06-24T10:24:32Z</time>
      </trkpt>
      <trkpt lat="50.35187" lon="3.62447">
        <ele>77</ele>
        <time>2020-06-24T10:24:33Z</time>
      </trkpt>
      <trkpt lat="50.35186" lon="3.62456">
        <ele>76.9</ele>
        <time>2020-06-24T10:24:34Z</time>
      </trkpt>
      <trkpt lat="50.35185" lon="3.62466">
        <ele>76.8</ele>
        <time>2020-06-24T10:24:35Z</time>
      </trkpt>
      <trkpt lat="50.35184" lon="3.62476">
        <ele>76.8</ele>
        <time>2020-06-24T10:24:36Z</time>
      </trkpt>
      <trkpt lat="50.35183" lon="3.62485">
        <ele>76.7</ele>
        <time>2020-06-24T10:24:37Z</time>
      </trkpt>
      <trkpt lat="50.35183" lon="3.62495">
        <ele>76.7</ele>
        <time>2020-06-24T10:24:38Z</time>
      </trkpt>
      <trkpt lat="50.35182" lon="3.62506">
        <ele>76.6</ele>
        <time>2020-06-24T10:24:39Z</time>
      </trkpt>
      <trkpt lat="50.35181" lon="3.62516">
        <ele>76.5</ele>
        <time>2020-06-24T10:24:40Z</time>
      </trkpt>
      <trkpt lat="50.35179" lon="3.62527">
        <ele>76.5</ele>
        <time>2020-06-24T10:24:41Z</time>
      </trkpt>
      <trkpt lat="50.35178" lon="3.62537">
        <ele>76.4</ele>
        <time>2020-06-24T10:24:42Z</time>
      </trkpt>
      <trkpt lat="50.35177" lon="3.62548">
        <ele>76.3</ele>
        <time>2020-06-24T10:24:43Z</time>
      </trkpt>
      <trkpt lat="50.35177" lon="3.62558">
        <ele>76.3</ele>
        <time>2020-06-24T10:24:44Z</time>
      </trkpt>
      <trkpt lat="50.35176" lon="3.62568">
        <ele>76.2</ele>
        <time>2020-06-24T10:24:45Z</time>
      </trkpt>
      <trkpt lat="50.35174" lon="3.62578">
        <ele>76.2</ele>
        <time>2020-06-24T10:24:46Z</time>
      </trkpt>
      <trkpt lat="50.35173" lon="3.62588">
        <ele>76.1</ele>
        <time>2020-06-24T10:24:47Z</time>
      </trkpt>
      <trkpt lat="50.35171" lon="3.62599">
        <ele>76.1</ele>
        <time>2020-06-24T10:24:48Z</time>
      </trkpt>
      <trkpt lat="50.35169" lon="3.62609">
        <ele>76.1</ele>
        <time>2020-06-24T10:24:49Z</time>
      </trkpt>
      <trkpt lat="50.35167" lon="3.62619">
        <ele>76.2</ele>
        <time>2020-06-24T10:24:50Z</time>
      </trkpt>
      <trkpt lat="50.35166" lon="3.62629">
        <ele>76.2</ele>
        <time>2020-06-24T10:24:51Z</time>
      </trkpt>
      <trkpt lat="50.35164" lon="3.62639">
        <ele>76</ele>
        <time>2020-06-24T10:24:52Z</time>
      </trkpt>
      <trkpt lat="50.35163" lon="3.62649">
        <ele>75.9</ele>
        <time>2020-06-24T10:24:53Z</time>
      </trkpt>
      <trkpt lat="50.35161" lon="3.62659">
        <ele>75.9</ele>
        <time>2020-06-24T10:24:54Z</time>
      </trkpt>
      <trkpt lat="50.35159" lon="3.62669">
        <ele>75.8</ele>
        <time>2020-06-24T10:24:55Z</time>
      </trkpt>
      <trkpt lat="50.35158" lon="3.6268">
        <ele>75.8</ele>
        <time>2020-06-24T10:24:56Z</time>
      </trkpt>
      <trkpt lat="50.35156" lon="3.6269">
        <ele>75.8</ele>
        <time>2020-06-24T10:24:57Z</time>
      </trkpt>
      <trkpt lat="50.35154" lon="3.627">
        <ele>75.8</ele>
        <time>2020-06-24T10:24:58Z</time>
      </trkpt>
      <trkpt lat="50.35153" lon="3.6271">
        <ele>75.8</ele>
        <time>2020-06-24T10:24:59Z</time>
      </trkpt>
      <trkpt lat="50.35151" lon="3.62721">
        <ele>75.8</ele>
        <time>2020-06-24T10:25:00Z</time>
      </trkpt>
      <trkpt lat="50.35149" lon="3.62731">
        <ele>75.8</ele>
        <time>2020-06-24T10:25:01Z</time>
      </trkpt>
      <trkpt lat="50.35147" lon="3.62741">
        <ele>75.9</ele>
        <time>2020-06-24T10:25:02Z</time>
      </trkpt>
      <trkpt lat="50.35145" lon="3.6275">
        <ele>75.9</ele>
        <time>2020-06-24T10:25:03Z</time>
      </trkpt>
      <trkpt lat="50.35144" lon="3.6276">
        <ele>76</ele>
        <time>2020-06-24T10:25:04Z</time>
      </trkpt>
      <trkpt lat="50.35142" lon="3.6277">
        <ele>76.1</ele>
        <time>2020-06-24T10:25:05Z</time>
      </trkpt>
      <trkpt lat="50.3514" lon="3.62779">
        <ele>76.1</ele>
        <time>2020-06-24T10:25:06Z</time>
      </trkpt>
      <trkpt lat="50.35139" lon="3.62789">
        <ele>76.2</ele>
        <time>2020-06-24T10:25:07Z</time>
      </trkpt>
      <trkpt lat="50.35138" lon="3.62798">
        <ele>76.2</ele>
        <time>2020-06-24T10:25:08Z</time>
      </trkpt>
      <trkpt lat="50.35137" lon="3.62808">
        <ele>76.3</ele>
        <time>2020-06-24T10:25:09Z</time>
      </trkpt>
      <trkpt lat="50.35136" lon="3.62817">
        <ele>76.4</ele>
        <time>2020-06-24T10:25:10Z</time>
      </trkpt>
      <trkpt lat="50.35135" lon="3.62826">
        <ele>76.4</ele>
        <time>2020-06-24T10:25:11Z</time>
      </trkpt>
      <trkpt lat="50.35134" lon="3.62835">
        <ele>76.5</ele>
        <time>2020-06-24T10:25:12Z</time>
      </trkpt>
      <trkpt lat="50.35133" lon="3.62844">
        <ele>76.6</ele>
        <time>2020-06-24T10:25:13Z</time>
      </trkpt>
      <trkpt lat="50.35133" lon="3.62853">
        <ele>76.7</ele>
        <time>2020-06-24T10:25:14Z</time>
      </trkpt>
      <trkpt lat="50.35132" lon="3.62862">
        <ele>76.7</ele>
        <time>2020-06-24T10:25:15Z</time>
      </trkpt>
      <trkpt lat="50.35132" lon="3.62871">
        <ele>76.8</ele>
        <time>2020-06-24T10:25:16Z</time>
      </trkpt>
      <trkpt lat="50.35132" lon="3.6288">
        <ele>76.9</ele>
        <time>2020-06-24T10:25:17Z</time>
      </trkpt>
      <trkpt lat="50.35132" lon="3.62889">
        <ele>77</ele>
        <time>2020-06-24T10:25:18Z</time>
      </trkpt>
      <trkpt lat="50.35131" lon="3.62898">
        <ele>77.2</ele>
        <time>2020-06-24T10:25:19Z</time>
      </trkpt>
      <trkpt lat="50.3513" lon="3.62907">
        <ele>77.3</ele>
        <time>2020-06-24T10:25:20Z</time>
      </trkpt>
      <trkpt lat="50.3513" lon="3.62916">
        <ele>77.4</ele>
        <time>2020-06-24T10:25:21Z</time>
      </trkpt>
      <trkpt lat="50.3513" lon="3.62925">
        <ele>77.5</ele>
        <time>2020-06-24T10:25:22Z</time>
      </trkpt>
      <trkpt lat="50.35129" lon="3.62934">
        <ele>77.7</ele>
        <time>2020-06-24T10:25:23Z</time>
      </trkpt>
      <trkpt lat="50.35129" lon="3.62942">
        <ele>77.8</ele>
        <time>2020-06-24T10:25:24Z</time>
      </trkpt>
      <trkpt lat="50.35129" lon="3.6295">
        <ele>78</ele>
        <time>2020-06-24T10:25:25Z</time>
      </trkpt>
      <trkpt lat="50.35129" lon="3.62958">
        <ele>78.1</ele>
        <time>2020-06-24T10:25:26Z</time>
      </trkpt>
      <trkpt lat="50.35129" lon="3.62965">
        <ele>78.3</ele>
        <time>2020-06-24T10:25:27Z</time>
      </trkpt>
      <trkpt lat="50.35129" lon="3.62973">
        <ele>78.5</ele>
        <time>2020-06-24T10:25:28Z</time>
      </trkpt>
      <trkpt lat="50.35129" lon="3.62981">
        <ele>78.6</ele>
        <time>2020-06-24T10:25:29Z</time>
      </trkpt>
      <trkpt lat="50.35129" lon="3.62989">
        <ele>78.8</ele>
        <time>2020-06-24T10:25:30Z</time>
      </trkpt>
      <trkpt lat="50.35128" lon="3.62997">
        <ele>79</ele>
        <time>2020-06-24T10:25:31Z</time>
      </trkpt>
      <trkpt lat="50.35128" lon="3.63005">
        <ele>79.2</ele>
        <time>2020-06-24T10:25:32Z</time>
      </trkpt>
      <trkpt lat="50.35128" lon="3.63012">
        <ele>79.3</ele>
        <time>2020-06-24T10:25:33Z</time>
      </trkpt>
      <trkpt lat="50.35128" lon="3.63019">
        <ele>79.5</ele>
        <time>2020-06-24T10:25:34Z</time>
      </trkpt>
      <trkpt lat="50.35128" lon="3.63027">
        <ele>79.6</ele>
        <time>2020-06-24T10:25:35Z</time>
      </trkpt>
      <trkpt lat="50.35128" lon="3.63035">
        <ele>79.8</ele>
        <time>2020-06-24T10:25:36Z</time>
      </trkpt>
      <trkpt lat="50.35129" lon="3.63043">
        <ele>80</ele>
        <time>2020-06-24T10:25:37Z</time>
      </trkpt>
      <trkpt lat="50.35128" lon="3.6305">
        <ele>80.1</ele>
        <time>2020-06-24T10:25:38Z</time>
      </trkpt>
      <trkpt lat="50.35128" lon="3.63056">
        <ele>80.2</ele>
        <time>2020-06-24T10:25:39Z</time>
      </trkpt>
      <trkpt lat="50.35128" lon="3.63065">
        <ele>80.3</ele>
        <time>2020-06-24T10:25:40Z</time>
      </trkpt>
      <trkpt lat="50.35128" lon="3.63075">
        <ele>80.4</ele>
        <time>2020-06-24T10:25:41Z</time>
      </trkpt>
      <trkpt lat="50.35128" lon="3.63082">
        <ele>80.5</ele>
        <time>2020-06-24T10:25:42Z</time>
      </trkpt>
      <trkpt lat="50.35128" lon="3.63088">
        <ele>80.5</ele>
        <time>2020-06-24T10:25:43Z</time>
      </trkpt>
      <trkpt lat="50.35127" lon="3.63097">
        <ele>80.6</ele>
        <time>2020-06-24T10:25:44Z</time>
      </trkpt>
      <trkpt lat="50.35127" lon="3.63106">
        <ele>80.6</ele>
        <time>2020-06-24T10:25:45Z</time>
      </trkpt>
      <trkpt lat="50.35126" lon="3.63117">
        <ele>80.5</ele>
        <time>2020-06-24T10:25:46Z</time>
      </trkpt>
      <trkpt lat="50.35126" lon="3.63126">
        <ele>80.5</ele>
        <time>2020-06-24T10:25:47Z</time>
      </trkpt>
      <trkpt lat="50.35125" lon="3.63135">
        <ele>80.4</ele>
        <time>2020-06-24T10:25:48Z</time>
      </trkpt>
      <trkpt lat="50.35124" lon="3.63143">
        <ele>80.4</ele>
        <time>2020-06-24T10:25:49Z</time>
      </trkpt>
      <trkpt lat="50.35124" lon="3.63154">
        <ele>80.3</ele>
        <time>2020-06-24T10:25:50Z</time>
      </trkpt>
      <trkpt lat="50.35123" lon="3.63163">
        <ele>80.3</ele>
        <time>2020-06-24T10:25:51Z</time>
      </trkpt>
      <trkpt lat="50.35123" lon="3.63173">
        <ele>80.2</ele>
        <time>2020-06-24T10:25:52Z</time>
      </trkpt>
      <trkpt lat="50.35122" lon="3.63183">
        <ele>80.2</ele>
        <time>2020-06-24T10:25:53Z</time>
      </trkpt>
      <trkpt lat="50.35121" lon="3.63192">
        <ele>80.1</ele>
        <time>2020-06-24T10:25:54Z</time>
      </trkpt>
      <trkpt lat="50.35121" lon="3.63202">
        <ele>80</ele>
        <time>2020-06-24T10:25:55Z</time>
      </trkpt>
      <trkpt lat="50.3512" lon="3.63212">
        <ele>79.9</ele>
        <time>2020-06-24T10:25:56Z</time>
      </trkpt>
      <trkpt lat="50.3512" lon="3.63222">
        <ele>79.8</ele>
        <time>2020-06-24T10:25:57Z</time>
      </trkpt>
      <trkpt lat="50.35119" lon="3.63232">
        <ele>79.7</ele>
        <time>2020-06-24T10:25:58Z</time>
      </trkpt>
      <trkpt lat="50.35119" lon="3.63242">
        <ele>79.6</ele>
        <time>2020-06-24T10:25:59Z</time>
      </trkpt>
      <trkpt lat="50.35119" lon="3.6325">
        <ele>79.4</ele>
        <time>2020-06-24T10:26:00Z</time>
      </trkpt>
      <trkpt lat="50.35118" lon="3.6326">
        <ele>79.3</ele>
        <time>2020-06-24T10:26:01Z</time>
      </trkpt>
      <trkpt lat="50.35118" lon="3.63271">
        <ele>79.2</ele>
        <time>2020-06-24T10:26:02Z</time>
      </trkpt>
      <trkpt lat="50.35118" lon="3.6328">
        <ele>79.1</ele>
        <time>2020-06-24T10:26:03Z</time>
      </trkpt>
      <trkpt lat="50.35118" lon="3.63289">
        <ele>79</ele>
        <time>2020-06-24T10:26:04Z</time>
      </trkpt>
      <trkpt lat="50.35117" lon="3.63299">
        <ele>78.9</ele>
        <time>2020-06-24T10:26:05Z</time>
      </trkpt>
      <trkpt lat="50.35117" lon="3.63309">
        <ele>78.8</ele>
        <time>2020-06-24T10:26:06Z</time>
      </trkpt>
      <trkpt lat="50.35117" lon="3.63319">
        <ele>78.7</ele>
        <time>2020-06-24T10:26:07Z</time>
      </trkpt>
      <trkpt lat="50.35117" lon="3.6333">
        <ele>78.6</ele>
        <time>2020-06-24T10:26:08Z</time>
      </trkpt>
      <trkpt lat="50.35117" lon="3.63341">
        <ele>78.6</ele>
        <time>2020-06-24T10:26:09Z</time>
      </trkpt>
      <trkpt lat="50.35117" lon="3.63351">
        <ele>78.5</ele>
        <time>2020-06-24T10:26:10Z</time>
      </trkpt>
      <trkpt lat="50.35117" lon="3.63362">
        <ele>78.5</ele>
        <time>2020-06-24T10:26:11Z</time>
      </trkpt>
      <trkpt lat="50.35117" lon="3.63374">
        <ele>78.5</ele>
        <time>2020-06-24T10:26:12Z</time>
      </trkpt>
      <trkpt lat="50.35118" lon="3.63383">
        <ele>78.5</ele>
        <time>2020-06-24T10:26:13Z</time>
      </trkpt>
      <trkpt lat="50.35118" lon="3.63392">
        <ele>78.6</ele>
        <time>2020-06-24T10:26:14Z</time>
      </trkpt>
      <trkpt lat="50.35118" lon="3.63401">
        <ele>78.6</ele>
        <time>2020-06-24T10:26:15Z</time>
      </trkpt>
      <trkpt lat="50.35118" lon="3.6341">
        <ele>78.7</ele>
        <time>2020-06-24T10:26:16Z</time>
      </trkpt>
      <trkpt lat="50.35118" lon="3.6342">
        <ele>78.8</ele>
        <time>2020-06-24T10:26:17Z</time>
      </trkpt>
      <trkpt lat="50.35119" lon="3.63429">
        <ele>78.9</ele>
        <time>2020-06-24T10:26:18Z</time>
      </trkpt>
      <trkpt lat="50.3512" lon="3.63437">
        <ele>78.9</ele>
        <time>2020-06-24T10:26:19Z</time>
      </trkpt>
      <trkpt lat="50.35121" lon="3.63446">
        <ele>79</ele>
        <time>2020-06-24T10:26:20Z</time>
      </trkpt>
      <trkpt lat="50.35121" lon="3.63454">
        <ele>79.1</ele>
        <time>2020-06-24T10:26:21Z</time>
      </trkpt>
      <trkpt lat="50.35122" lon="3.63462">
        <ele>79.2</ele>
        <time>2020-06-24T10:26:22Z</time>
      </trkpt>
      <trkpt lat="50.35123" lon="3.63471">
        <ele>79.3</ele>
        <time>2020-06-24T10:26:23Z</time>
      </trkpt>
      <trkpt lat="50.35123" lon="3.63478">
        <ele>79.4</ele>
        <time>2020-06-24T10:26:24Z</time>
      </trkpt>
      <trkpt lat="50.35124" lon="3.63486">
        <ele>79.5</ele>
        <time>2020-06-24T10:26:25Z</time>
      </trkpt>
      <trkpt lat="50.35124" lon="3.63493">
        <ele>79.6</ele>
        <time>2020-06-24T10:26:26Z</time>
      </trkpt>
      <trkpt lat="50.35124" lon="3.635">
        <ele>79.7</ele>
        <time>2020-06-24T10:26:27Z</time>
      </trkpt>
      <trkpt lat="50.35124" lon="3.6351">
        <ele>79.9</ele>
        <time>2020-06-24T10:26:28Z</time>
      </trkpt>
      <trkpt lat="50.35125" lon="3.63518">
        <ele>80</ele>
        <time>2020-06-24T10:26:29Z</time>
      </trkpt>
      <trkpt lat="50.35125" lon="3.63527">
        <ele>80.1</ele>
        <time>2020-06-24T10:26:30Z</time>
      </trkpt>
      <trkpt lat="50.35126" lon="3.63534">
        <ele>80.2</ele>
        <time>2020-06-24T10:26:31Z</time>
      </trkpt>
      <trkpt lat="50.35127" lon="3.63541">
        <ele>80.3</ele>
        <time>2020-06-24T10:26:32Z</time>
      </trkpt>
      <trkpt lat="50.35127" lon="3.63548">
        <ele>80.4</ele>
        <time>2020-06-24T10:26:33Z</time>
      </trkpt>
      <trkpt lat="50.35127" lon="3.63555">
        <ele>80.5</ele>
        <time>2020-06-24T10:26:34Z</time>
      </trkpt>
      <trkpt lat="50.35128" lon="3.63563">
        <ele>80.7</ele>
        <time>2020-06-24T10:26:35Z</time>
      </trkpt>
      <trkpt lat="50.35128" lon="3.63569">
        <ele>80.7</ele>
        <time>2020-06-24T10:26:36Z</time>
      </trkpt>
      <trkpt lat="50.35129" lon="3.63576">
        <ele>80.8</ele>
        <time>2020-06-24T10:26:37Z</time>
      </trkpt>
      <trkpt lat="50.3513" lon="3.63583">
        <ele>80.9</ele>
        <time>2020-06-24T10:26:38Z</time>
      </trkpt>
      <trkpt lat="50.3513" lon="3.6359">
        <ele>81</ele>
        <time>2020-06-24T10:26:39Z</time>
      </trkpt>
      <trkpt lat="50.35131" lon="3.63598">
        <ele>81.1</ele>
        <time>2020-06-24T10:26:40Z</time>
      </trkpt>
      <trkpt lat="50.35132" lon="3.63606">
        <ele>81.2</ele>
        <time>2020-06-24T10:26:41Z</time>
      </trkpt>
      <trkpt lat="50.35134" lon="3.63615">
        <ele>81.3</ele>
        <time>2020-06-24T10:26:42Z</time>
      </trkpt>
      <trkpt lat="50.35135" lon="3.63622">
        <ele>81.4</ele>
        <time>2020-06-24T10:26:43Z</time>
      </trkpt>
      <trkpt lat="50.35136" lon="3.63629">
        <ele>81.5</ele>
        <time>2020-06-24T10:26:44Z</time>
      </trkpt>
      <trkpt lat="50.35138" lon="3.63635">
        <ele>81.6</ele>
        <time>2020-06-24T10:26:45Z</time>
      </trkpt>
      <trkpt lat="50.35139" lon="3.63641">
        <ele>81.7</ele>
        <time>2020-06-24T10:26:46Z</time>
      </trkpt>
      <trkpt lat="50.3514" lon="3.63648">
        <ele>81.8</ele>
        <time>2020-06-24T10:26:47Z</time>
      </trkpt>
      <trkpt lat="50.35141" lon="3.63657">
        <ele>81.9</ele>
        <time>2020-06-24T10:26:48Z</time>
      </trkpt>
      <trkpt lat="50.35142" lon="3.63665">
        <ele>81.9</ele>
        <time>2020-06-24T10:26:49Z</time>
      </trkpt>
      <trkpt lat="50.35143" lon="3.63675">
        <ele>82</ele>
        <time>2020-06-24T10:26:50Z</time>
      </trkpt>
      <trkpt lat="50.35143" lon="3.63682">
        <ele>82</ele>
        <time>2020-06-24T10:26:51Z</time>
      </trkpt>
      <trkpt lat="50.35144" lon="3.63691">
        <ele>82</ele>
        <time>2020-06-24T10:26:52Z</time>
      </trkpt>
      <trkpt lat="50.35145" lon="3.63698">
        <ele>82</ele>
        <time>2020-06-24T10:26:53Z</time>
      </trkpt>
      <trkpt lat="50.35145" lon="3.63705">
        <ele>82</ele>
        <time>2020-06-24T10:26:54Z</time>
      </trkpt>
      <trkpt lat="50.35145" lon="3.63713">
        <ele>82</ele>
        <time>2020-06-24T10:26:55Z</time>
      </trkpt>
      <trkpt lat="50.35146" lon="3.63722">
        <ele>82.1</ele>
        <time>2020-06-24T10:26:56Z</time>
      </trkpt>
      <trkpt lat="50.35147" lon="3.6373">
        <ele>82.1</ele>
        <time>2020-06-24T10:26:57Z</time>
      </trkpt>
      <trkpt lat="50.35147" lon="3.63738">
        <ele>82.1</ele>
        <time>2020-06-24T10:26:58Z</time>
      </trkpt>
      <trkpt lat="50.35148" lon="3.63747">
        <ele>82.1</ele>
        <time>2020-06-24T10:26:59Z</time>
      </trkpt>
      <trkpt lat="50.35148" lon="3.63755">
        <ele>82.1</ele>
        <time>2020-06-24T10:27:00Z</time>
      </trkpt>
      <trkpt lat="50.35149" lon="3.63763">
        <ele>82.1</ele>
        <time>2020-06-24T10:27:01Z</time>
      </trkpt>
      <trkpt lat="50.35149" lon="3.63771">
        <ele>82.1</ele>
        <time>2020-06-24T10:27:02Z</time>
      </trkpt>
      <trkpt lat="50.3515" lon="3.63778">
        <ele>82.1</ele>
        <time>2020-06-24T10:27:03Z</time>
      </trkpt>
      <trkpt lat="50.3515" lon="3.63786">
        <ele>82.1</ele>
        <time>2020-06-24T10:27:04Z</time>
      </trkpt>
      <trkpt lat="50.35151" lon="3.63793">
        <ele>82.1</ele>
        <time>2020-06-24T10:27:05Z</time>
      </trkpt>
      <trkpt lat="50.35151" lon="3.63798">
        <ele>82.1</ele>
        <time>2020-06-24T10:27:06Z</time>
      </trkpt>
      <trkpt lat="50.35151" lon="3.63804">
        <ele>82.1</ele>
        <time>2020-06-24T10:27:07Z</time>
      </trkpt>
      <trkpt lat="50.35151" lon="3.6381">
        <ele>82</ele>
        <time>2020-06-24T10:27:08Z</time>
      </trkpt>
      <trkpt lat="50.3515" lon="3.63818">
        <ele>82</ele>
        <time>2020-06-24T10:27:09Z</time>
      </trkpt>
      <trkpt lat="50.3515" lon="3.63823">
        <ele>82</ele>
        <time>2020-06-24T10:27:10Z</time>
      </trkpt>
      <trkpt lat="50.35149" lon="3.63827">
        <ele>82</ele>
        <time>2020-06-24T10:27:11Z</time>
      </trkpt>
      <trkpt lat="50.35149" lon="3.63827">
        <ele>82</ele>
        <time>2020-06-24T10:27:12Z</time>
      </trkpt>
      <trkpt lat="50.35148" lon="3.63829">
        <ele>82</ele>
        <time>2020-06-24T10:27:13Z</time>
      </trkpt>
      <trkpt lat="50.35148" lon="3.6383">
        <ele>82</ele>
        <time>2020-06-24T10:27:14Z</time>
      </trkpt>
      <trkpt lat="50.35148" lon="3.63832">
        <ele>82</ele>
        <time>2020-06-24T10:27:15Z</time>
      </trkpt>
      <trkpt lat="50.35148" lon="3.63838">
        <ele>82</ele>
        <time>2020-06-24T10:27:16Z</time>
      </trkpt>
      <trkpt lat="50.35148" lon="3.6384">
        <ele>82</ele>
        <time>2020-06-24T10:27:17Z</time>
      </trkpt>
      <trkpt lat="50.35148" lon="3.63844">
        <ele>82</ele>
        <time>2020-06-24T10:27:18Z</time>
      </trkpt>
      <trkpt lat="50.35148" lon="3.63849">
        <ele>82</ele>
        <time>2020-06-24T10:27:19Z</time>
      </trkpt>
      <trkpt lat="50.35148" lon="3.6385">
        <ele>82</ele>
        <time>2020-06-24T10:27:20Z</time>
      </trkpt>
      <trkpt lat="50.35148" lon="3.63852">
        <ele>82</ele>
        <time>2020-06-24T10:27:21Z</time>
      </trkpt>
      <trkpt lat="50.35149" lon="3.63855">
        <ele>82</ele>
        <time>2020-06-24T10:27:22Z</time>
      </trkpt>
      <trkpt lat="50.35149" lon="3.63859">
        <ele>81.9</ele>
        <time>2020-06-24T10:27:23Z</time>
      </trkpt>
      <trkpt lat="50.3515" lon="3.63861">
        <ele>81.9</ele>
        <time>2020-06-24T10:27:24Z</time>
      </trkpt>
      <trkpt lat="50.35151" lon="3.63866">
        <ele>81.9</ele>
        <time>2020-06-24T10:27:25Z</time>
      </trkpt>
      <trkpt lat="50.35151" lon="3.63868">
        <ele>81.9</ele>
        <time>2020-06-24T10:27:26Z</time>
      </trkpt>
      <trkpt lat="50.35152" lon="3.63872">
        <ele>81.9</ele>
        <time>2020-06-24T10:27:27Z</time>
      </trkpt>
      <trkpt lat="50.35154" lon="3.63876">
        <ele>81.9</ele>
        <time>2020-06-24T10:27:28Z</time>
      </trkpt>
      <trkpt lat="50.35157" lon="3.63875">
        <ele>81.8</ele>
        <time>2020-06-24T10:27:29Z</time>
      </trkpt>
      <trkpt lat="50.35159" lon="3.6387">
        <ele>81.8</ele>
        <time>2020-06-24T10:27:30Z</time>
      </trkpt>
      <trkpt lat="50.35159" lon="3.63868">
        <ele>81.8</ele>
        <time>2020-06-24T10:27:31Z</time>
      </trkpt>
      <trkpt lat="50.3516" lon="3.63865">
        <ele>81.8</ele>
        <time>2020-06-24T10:27:32Z</time>
      </trkpt>
      <trkpt lat="50.3516" lon="3.63864">
        <ele>81.8</ele>
        <time>2020-06-24T10:27:33Z</time>
      </trkpt>
      <trkpt lat="50.35161" lon="3.63863">
        <ele>81.8</ele>
        <time>2020-06-24T10:27:34Z</time>
      </trkpt>
      <trkpt lat="50.35161" lon="3.63862">
        <ele>81.8</ele>
        <time>2020-06-24T10:27:35Z</time>
      </trkpt>
      <trkpt lat="50.35164" lon="3.6386">
        <ele>81.9</ele>
        <time>2020-06-24T10:27:36Z</time>
      </trkpt>
      <trkpt lat="50.35166" lon="3.63856">
        <ele>81.9</ele>
        <time>2020-06-24T10:27:37Z</time>
      </trkpt>
      <trkpt lat="50.35167" lon="3.63855">
        <ele>81.9</ele>
        <time>2020-06-24T10:27:38Z</time>
      </trkpt>
      <trkpt lat="50.35167" lon="3.63855">
        <ele>81.9</ele>
        <time>2020-06-24T10:27:39Z</time>
      </trkpt>
      <trkpt lat="50.35168" lon="3.63854">
        <ele>81.9</ele>
        <time>2020-06-24T10:27:40Z</time>
      </trkpt>
      <trkpt lat="50.35168" lon="3.63854">
        <ele>81.9</ele>
        <time>2020-06-24T10:27:41Z</time>
      </trkpt>
      <trkpt lat="50.35168" lon="3.63853">
        <ele>81.9</ele>
        <time>2020-06-24T10:27:42Z</time>
      </trkpt>
      <trkpt lat="50.35168" lon="3.63854">
        <ele>81.9</ele>
        <time>2020-06-24T10:27:43Z</time>
      </trkpt>
      <trkpt lat="50.35168" lon="3.63854">
        <ele>81.9</ele>
        <time>2020-06-24T10:27:44Z</time>
      </trkpt>
      <trkpt lat="50.35169" lon="3.63853">
        <ele>81.9</ele>
        <time>2020-06-24T10:27:45Z</time>
      </trkpt>
      <trkpt lat="50.35169" lon="3.63854">
        <ele>81.9</ele>
        <time>2020-06-24T10:27:46Z</time>
      </trkpt>
      <trkpt lat="50.35169" lon="3.63855">
        <ele>81.9</ele>
        <time>2020-06-24T10:27:47Z</time>
      </trkpt>
      <trkpt lat="50.35169" lon="3.63855">
        <ele>81.9</ele>
        <time>2020-06-24T10:27:48Z</time>
      </trkpt>
      <trkpt lat="50.35169" lon="3.63855">
        <ele>81.9</ele>
        <time>2020-06-24T10:27:49Z</time>
      </trkpt>
      <trkpt lat="50.35169" lon="3.63855">
        <ele>81.9</ele>
        <time>2020-06-24T10:27:50Z</time>
      </trkpt>
      <trkpt lat="50.3517" lon="3.63856">
        <ele>81.9</ele>
        <time>2020-06-24T10:27:51Z</time>
      </trkpt>
      <trkpt lat="50.35166" lon="3.63851">
        <ele>81.9</ele>
        <time>2020-06-24T10:27:52Z</time>
      </trkpt>
      <trkpt lat="50.35162" lon="3.63847">
        <ele>82</ele>
        <time>2020-06-24T10:31:05Z</time>
      </trkpt>
      <trkpt lat="50.35158" lon="3.63842">
        <ele>82</ele>
        <time>2020-06-24T10:31:06Z</time>
      </trkpt>
      <trkpt lat="50.35154" lon="3.6384">
        <ele>82</ele>
        <time>2020-06-24T10:31:07Z</time>
      </trkpt>
      <trkpt lat="50.35151" lon="3.63838">
        <ele>82</ele>
        <time>2020-06-24T10:31:08Z</time>
      </trkpt>
      <trkpt lat="50.35147" lon="3.63836">
        <ele>82</ele>
        <time>2020-06-24T10:31:09Z</time>
      </trkpt>
      <trkpt lat="50.35142" lon="3.63835">
        <ele>82.1</ele>
        <time>2020-06-24T10:31:10Z</time>
      </trkpt>
      <trkpt lat="50.35138" lon="3.63834">
        <ele>82.1</ele>
        <time>2020-06-24T10:31:11Z</time>
      </trkpt>
      <trkpt lat="50.35133" lon="3.63832">
        <ele>82.2</ele>
        <time>2020-06-24T10:31:12Z</time>
      </trkpt>
      <trkpt lat="50.35128" lon="3.6383">
        <ele>82.2</ele>
        <time>2020-06-24T10:31:13Z</time>
      </trkpt>
      <trkpt lat="50.35122" lon="3.63828">
        <ele>82.4</ele>
        <time>2020-06-24T10:31:14Z</time>
      </trkpt>
      <trkpt lat="50.35118" lon="3.63827">
        <ele>82.4</ele>
        <time>2020-06-24T10:31:15Z</time>
      </trkpt>
      <trkpt lat="50.35113" lon="3.63825">
        <ele>82.5</ele>
        <time>2020-06-24T10:31:16Z</time>
      </trkpt>
      <trkpt lat="50.35108" lon="3.63823">
        <ele>82.5</ele>
        <time>2020-06-24T10:31:17Z</time>
      </trkpt>
      <trkpt lat="50.35103" lon="3.63822">
        <ele>82.6</ele>
        <time>2020-06-24T10:31:18Z</time>
      </trkpt>
      <trkpt lat="50.35098" lon="3.63822">
        <ele>82.6</ele>
        <time>2020-06-24T10:31:19Z</time>
      </trkpt>
      <trkpt lat="50.35093" lon="3.63821">
        <ele>82.7</ele>
        <time>2020-06-24T10:31:20Z</time>
      </trkpt>
      <trkpt lat="50.35089" lon="3.6382">
        <ele>82.7</ele>
        <time>2020-06-24T10:31:21Z</time>
      </trkpt>
      <trkpt lat="50.35085" lon="3.63819">
        <ele>82.8</ele>
        <time>2020-06-24T10:31:22Z</time>
      </trkpt>
      <trkpt lat="50.3508" lon="3.63818">
        <ele>82.8</ele>
        <time>2020-06-24T10:31:23Z</time>
      </trkpt>
      <trkpt lat="50.35076" lon="3.63817">
        <ele>82.9</ele>
        <time>2020-06-24T10:31:24Z</time>
      </trkpt>
      <trkpt lat="50.35071" lon="3.63817">
        <ele>82.9</ele>
        <time>2020-06-24T10:31:25Z</time>
      </trkpt>
      <trkpt lat="50.35066" lon="3.63816">
        <ele>83</ele>
        <time>2020-06-24T10:31:26Z</time>
      </trkpt>
      <trkpt lat="50.35061" lon="3.63814">
        <ele>83</ele>
        <time>2020-06-24T10:31:27Z</time>
      </trkpt>
      <trkpt lat="50.35056" lon="3.63812">
        <ele>83.1</ele>
        <time>2020-06-24T10:31:28Z</time>
      </trkpt>
      <trkpt lat="50.35051" lon="3.63811">
        <ele>83.2</ele>
        <time>2020-06-24T10:31:29Z</time>
      </trkpt>
      <trkpt lat="50.35046" lon="3.6381">
        <ele>83.2</ele>
        <time>2020-06-24T10:31:30Z</time>
      </trkpt>
      <trkpt lat="50.35042" lon="3.63809">
        <ele>83.3</ele>
        <time>2020-06-24T10:31:31Z</time>
      </trkpt>
      <trkpt lat="50.35036" lon="3.63808">
        <ele>83.3</ele>
        <time>2020-06-24T10:31:32Z</time>
      </trkpt>
      <trkpt lat="50.3503" lon="3.63807">
        <ele>83.4</ele>
        <time>2020-06-24T10:31:33Z</time>
      </trkpt>
      <trkpt lat="50.35024" lon="3.63807">
        <ele>83.5</ele>
        <time>2020-06-24T10:31:34Z</time>
      </trkpt>
      <trkpt lat="50.35019" lon="3.63805">
        <ele>83.6</ele>
        <time>2020-06-24T10:31:35Z</time>
      </trkpt>
      <trkpt lat="50.35013" lon="3.63805">
        <ele>83.7</ele>
        <time>2020-06-24T10:31:36Z</time>
      </trkpt>
      <trkpt lat="50.35009" lon="3.63804">
        <ele>83.8</ele>
        <time>2020-06-24T10:31:37Z</time>
      </trkpt>
      <trkpt lat="50.35003" lon="3.63802">
        <ele>83.9</ele>
        <time>2020-06-24T10:31:38Z</time>
      </trkpt>
      <trkpt lat="50.34997" lon="3.63801">
        <ele>83.9</ele>
        <time>2020-06-24T10:31:39Z</time>
      </trkpt>
      <trkpt lat="50.34992" lon="3.638">
        <ele>84.1</ele>
        <time>2020-06-24T10:31:40Z</time>
      </trkpt>
      <trkpt lat="50.34987" lon="3.63799">
        <ele>84.1</ele>
        <time>2020-06-24T10:31:41Z</time>
      </trkpt>
      <trkpt lat="50.34982" lon="3.63798">
        <ele>84.2</ele>
        <time>2020-06-24T10:31:42Z</time>
      </trkpt>
      <trkpt lat="50.34978" lon="3.63798">
        <ele>84.3</ele>
        <time>2020-06-24T10:31:43Z</time>
      </trkpt>
      <trkpt lat="50.34972" lon="3.63797">
        <ele>84.4</ele>
        <time>2020-06-24T10:31:44Z</time>
      </trkpt>
      <trkpt lat="50.34967" lon="3.63798">
        <ele>84.5</ele>
        <time>2020-06-24T10:31:45Z</time>
      </trkpt>
      <trkpt lat="50.34962" lon="3.63798">
        <ele>84.6</ele>
        <time>2020-06-24T10:31:46Z</time>
      </trkpt>
      <trkpt lat="50.34957" lon="3.63796">
        <ele>84.7</ele>
        <time>2020-06-24T10:31:47Z</time>
      </trkpt>
      <trkpt lat="50.34951" lon="3.63797">
        <ele>84.7</ele>
        <time>2020-06-24T10:31:48Z</time>
      </trkpt>
      <trkpt lat="50.34946" lon="3.63796">
        <ele>84.8</ele>
        <time>2020-06-24T10:31:49Z</time>
      </trkpt>
      <trkpt lat="50.34941" lon="3.63795">
        <ele>84.8</ele>
        <time>2020-06-24T10:31:50Z</time>
      </trkpt>
      <trkpt lat="50.34936" lon="3.63796">
        <ele>84.9</ele>
        <time>2020-06-24T10:31:51Z</time>
      </trkpt>
      <trkpt lat="50.34931" lon="3.63797">
        <ele>84.9</ele>
        <time>2020-06-24T10:31:52Z</time>
      </trkpt>
      <trkpt lat="50.34926" lon="3.63799">
        <ele>84.9</ele>
        <time>2020-06-24T10:31:53Z</time>
      </trkpt>
      <trkpt lat="50.34921" lon="3.63799">
        <ele>85</ele>
        <time>2020-06-24T10:31:54Z</time>
      </trkpt>
      <trkpt lat="50.34916" lon="3.63799">
        <ele>85</ele>
        <time>2020-06-24T10:31:55Z</time>
      </trkpt>
      <trkpt lat="50.3491" lon="3.63799">
        <ele>85.1</ele>
        <time>2020-06-24T10:31:56Z</time>
      </trkpt>
      <trkpt lat="50.34905" lon="3.63798">
        <ele>85.1</ele>
        <time>2020-06-24T10:31:57Z</time>
      </trkpt>
      <trkpt lat="50.349" lon="3.638">
        <ele>85.2</ele>
        <time>2020-06-24T10:31:58Z</time>
      </trkpt>
      <trkpt lat="50.34894" lon="3.63801">
        <ele>85.4</ele>
        <time>2020-06-24T10:31:59Z</time>
      </trkpt>
      <trkpt lat="50.34889" lon="3.63801">
        <ele>85.5</ele>
        <time>2020-06-24T10:32:00Z</time>
      </trkpt>
      <trkpt lat="50.34884" lon="3.63802">
        <ele>85.6</ele>
        <time>2020-06-24T10:32:01Z</time>
      </trkpt>
      <trkpt lat="50.34878" lon="3.63802">
        <ele>85.7</ele>
        <time>2020-06-24T10:32:02Z</time>
      </trkpt>
      <trkpt lat="50.34872" lon="3.63804">
        <ele>85.7</ele>
        <time>2020-06-24T10:32:03Z</time>
      </trkpt>
      <trkpt lat="50.34867" lon="3.63805">
        <ele>85.8</ele>
        <time>2020-06-24T10:32:04Z</time>
      </trkpt>
      <trkpt lat="50.34861" lon="3.63805">
        <ele>85.8</ele>
        <time>2020-06-24T10:32:05Z</time>
      </trkpt>
      <trkpt lat="50.34856" lon="3.63805">
        <ele>85.9</ele>
        <time>2020-06-24T10:32:06Z</time>
      </trkpt>
      <trkpt lat="50.3485" lon="3.63807">
        <ele>86</ele>
        <time>2020-06-24T10:32:07Z</time>
      </trkpt>
      <trkpt lat="50.34844" lon="3.63809">
        <ele>86.1</ele>
        <time>2020-06-24T10:32:08Z</time>
      </trkpt>
      <trkpt lat="50.34838" lon="3.6381">
        <ele>86.2</ele>
        <time>2020-06-24T10:32:09Z</time>
      </trkpt>
      <trkpt lat="50.34833" lon="3.6381">
        <ele>86.3</ele>
        <time>2020-06-24T10:32:10Z</time>
      </trkpt>
      <trkpt lat="50.34827" lon="3.63811">
        <ele>86.4</ele>
        <time>2020-06-24T10:32:11Z</time>
      </trkpt>
      <trkpt lat="50.34823" lon="3.63811">
        <ele>86.5</ele>
        <time>2020-06-24T10:32:12Z</time>
      </trkpt>
      <trkpt lat="50.34818" lon="3.63811">
        <ele>86.5</ele>
        <time>2020-06-24T10:32:13Z</time>
      </trkpt>
      <trkpt lat="50.34812" lon="3.63811">
        <ele>86.6</ele>
        <time>2020-06-24T10:32:14Z</time>
      </trkpt>
      <trkpt lat="50.34807" lon="3.63813">
        <ele>86.6</ele>
        <time>2020-06-24T10:32:15Z</time>
      </trkpt>
      <trkpt lat="50.34802" lon="3.63815">
        <ele>86.7</ele>
        <time>2020-06-24T10:32:16Z</time>
      </trkpt>
      <trkpt lat="50.34797" lon="3.63817">
        <ele>86.7</ele>
        <time>2020-06-24T10:32:17Z</time>
      </trkpt>
      <trkpt lat="50.34792" lon="3.63819">
        <ele>86.8</ele>
        <time>2020-06-24T10:32:18Z</time>
      </trkpt>
      <trkpt lat="50.34786" lon="3.63819">
        <ele>86.9</ele>
        <time>2020-06-24T10:32:19Z</time>
      </trkpt>
      <trkpt lat="50.3478" lon="3.6382">
        <ele>87</ele>
        <time>2020-06-24T10:32:20Z</time>
      </trkpt>
      <trkpt lat="50.34775" lon="3.63822">
        <ele>87.1</ele>
        <time>2020-06-24T10:32:21Z</time>
      </trkpt>
      <trkpt lat="50.34769" lon="3.63824">
        <ele>87.2</ele>
        <time>2020-06-24T10:32:22Z</time>
      </trkpt>
      <trkpt lat="50.34763" lon="3.63826">
        <ele>87.3</ele>
        <time>2020-06-24T10:32:23Z</time>
      </trkpt>
      <trkpt lat="50.34757" lon="3.63828">
        <ele>87.3</ele>
        <time>2020-06-24T10:32:24Z</time>
      </trkpt>
      <trkpt lat="50.34752" lon="3.6383">
        <ele>87.4</ele>
        <time>2020-06-24T10:32:25Z</time>
      </trkpt>
      <trkpt lat="50.34747" lon="3.6383">
        <ele>87.5</ele>
        <time>2020-06-24T10:32:26Z</time>
      </trkpt>
      <trkpt lat="50.34742" lon="3.63831">
        <ele>87.5</ele>
        <time>2020-06-24T10:32:27Z</time>
      </trkpt>
      <trkpt lat="50.34736" lon="3.63832">
        <ele>87.6</ele>
        <time>2020-06-24T10:32:28Z</time>
      </trkpt>
      <trkpt lat="50.3473" lon="3.63835">
        <ele>87.7</ele>
        <time>2020-06-24T10:32:29Z</time>
      </trkpt>
      <trkpt lat="50.34724" lon="3.63837">
        <ele>87.8</ele>
        <time>2020-06-24T10:32:30Z</time>
      </trkpt>
      <trkpt lat="50.34718" lon="3.63839">
        <ele>87.8</ele>
        <time>2020-06-24T10:32:31Z</time>
      </trkpt>
      <trkpt lat="50.34713" lon="3.6384">
        <ele>87.9</ele>
        <time>2020-06-24T10:32:32Z</time>
      </trkpt>
      <trkpt lat="50.34707" lon="3.63842">
        <ele>87.9</ele>
        <time>2020-06-24T10:32:33Z</time>
      </trkpt>
      <trkpt lat="50.34702" lon="3.63844">
        <ele>88</ele>
        <time>2020-06-24T10:32:34Z</time>
      </trkpt>
      <trkpt lat="50.34696" lon="3.63845">
        <ele>88.1</ele>
        <time>2020-06-24T10:32:35Z</time>
      </trkpt>
      <trkpt lat="50.3469" lon="3.63847">
        <ele>88.1</ele>
        <time>2020-06-24T10:32:36Z</time>
      </trkpt>
      <trkpt lat="50.34685" lon="3.63848">
        <ele>88.2</ele>
        <time>2020-06-24T10:32:37Z</time>
      </trkpt>
      <trkpt lat="50.34679" lon="3.6385">
        <ele>88.2</ele>
        <time>2020-06-24T10:32:38Z</time>
      </trkpt>
      <trkpt lat="50.34673" lon="3.63852">
        <ele>88.3</ele>
        <time>2020-06-24T10:32:39Z</time>
      </trkpt>
      <trkpt lat="50.34666" lon="3.63854">
        <ele>88.3</ele>
        <time>2020-06-24T10:32:40Z</time>
      </trkpt>
      <trkpt lat="50.34661" lon="3.63856">
        <ele>88.4</ele>
        <time>2020-06-24T10:32:41Z</time>
      </trkpt>
      <trkpt lat="50.34656" lon="3.63859">
        <ele>88.4</ele>
        <time>2020-06-24T10:32:42Z</time>
      </trkpt>
      <trkpt lat="50.3465" lon="3.63861">
        <ele>88.5</ele>
        <time>2020-06-24T10:32:43Z</time>
      </trkpt>
      <trkpt lat="50.34645" lon="3.63863">
        <ele>88.5</ele>
        <time>2020-06-24T10:32:44Z</time>
      </trkpt>
      <trkpt lat="50.34639" lon="3.63864">
        <ele>88.6</ele>
        <time>2020-06-24T10:32:45Z</time>
      </trkpt>
      <trkpt lat="50.34634" lon="3.63867">
        <ele>88.7</ele>
        <time>2020-06-24T10:32:46Z</time>
      </trkpt>
      <trkpt lat="50.34627" lon="3.63869">
        <ele>88.8</ele>
        <time>2020-06-24T10:32:47Z</time>
      </trkpt>
      <trkpt lat="50.34621" lon="3.63871">
        <ele>88.8</ele>
        <time>2020-06-24T10:32:48Z</time>
      </trkpt>
      <trkpt lat="50.34616" lon="3.63873">
        <ele>88.9</ele>
        <time>2020-06-24T10:32:49Z</time>
      </trkpt>
      <trkpt lat="50.34611" lon="3.63876">
        <ele>89</ele>
        <time>2020-06-24T10:32:50Z</time>
      </trkpt>
      <trkpt lat="50.34606" lon="3.63877">
        <ele>89</ele>
        <time>2020-06-24T10:32:51Z</time>
      </trkpt>
      <trkpt lat="50.346" lon="3.63878">
        <ele>89</ele>
        <time>2020-06-24T10:32:52Z</time>
      </trkpt>
      <trkpt lat="50.34595" lon="3.63879">
        <ele>89</ele>
        <time>2020-06-24T10:32:53Z</time>
      </trkpt>
      <trkpt lat="50.3459" lon="3.63881">
        <ele>89</ele>
        <time>2020-06-24T10:32:54Z</time>
      </trkpt>
      <trkpt lat="50.34584" lon="3.63883">
        <ele>88.9</ele>
        <time>2020-06-24T10:32:55Z</time>
      </trkpt>
      <trkpt lat="50.34579" lon="3.63885">
        <ele>88.9</ele>
        <time>2020-06-24T10:32:56Z</time>
      </trkpt>
      <trkpt lat="50.34573" lon="3.63888">
        <ele>88.9</ele>
        <time>2020-06-24T10:32:57Z</time>
      </trkpt>
      <trkpt lat="50.34567" lon="3.6389">
        <ele>88.9</ele>
        <time>2020-06-24T10:32:58Z</time>
      </trkpt>
      <trkpt lat="50.34562" lon="3.63892">
        <ele>88.9</ele>
        <time>2020-06-24T10:32:59Z</time>
      </trkpt>
      <trkpt lat="50.34556" lon="3.63893">
        <ele>88.9</ele>
        <time>2020-06-24T10:33:00Z</time>
      </trkpt>
      <trkpt lat="50.3455" lon="3.63896">
        <ele>88.9</ele>
        <time>2020-06-24T10:33:01Z</time>
      </trkpt>
      <trkpt lat="50.34545" lon="3.63898">
        <ele>88.9</ele>
        <time>2020-06-24T10:33:02Z</time>
      </trkpt>
      <trkpt lat="50.34539" lon="3.63901">
        <ele>88.9</ele>
        <time>2020-06-24T10:33:03Z</time>
      </trkpt>
      <trkpt lat="50.34533" lon="3.63903">
        <ele>88.8</ele>
        <time>2020-06-24T10:33:04Z</time>
      </trkpt>
      <trkpt lat="50.34527" lon="3.63904">
        <ele>88.7</ele>
        <time>2020-06-24T10:33:05Z</time>
      </trkpt>
      <trkpt lat="50.34519" lon="3.63906">
        <ele>88.6</ele>
        <time>2020-06-24T10:33:06Z</time>
      </trkpt>
      <trkpt lat="50.34513" lon="3.63907">
        <ele>88.6</ele>
        <time>2020-06-24T10:33:07Z</time>
      </trkpt>
      <trkpt lat="50.34506" lon="3.63909">
        <ele>88.5</ele>
        <time>2020-06-24T10:33:08Z</time>
      </trkpt>
      <trkpt lat="50.345" lon="3.63911">
        <ele>88.5</ele>
        <time>2020-06-24T10:33:09Z</time>
      </trkpt>
      <trkpt lat="50.34494" lon="3.63913">
        <ele>88.4</ele>
        <time>2020-06-24T10:33:10Z</time>
      </trkpt>
      <trkpt lat="50.34488" lon="3.63917">
        <ele>88.4</ele>
        <time>2020-06-24T10:33:11Z</time>
      </trkpt>
      <trkpt lat="50.34482" lon="3.63921">
        <ele>88.3</ele>
        <time>2020-06-24T10:33:12Z</time>
      </trkpt>
      <trkpt lat="50.34475" lon="3.63925">
        <ele>88.3</ele>
        <time>2020-06-24T10:33:13Z</time>
      </trkpt>
      <trkpt lat="50.34469" lon="3.63928">
        <ele>88.3</ele>
        <time>2020-06-24T10:33:14Z</time>
      </trkpt>
      <trkpt lat="50.34464" lon="3.63931">
        <ele>88.3</ele>
        <time>2020-06-24T10:33:15Z</time>
      </trkpt>
      <trkpt lat="50.34457" lon="3.63935">
        <ele>88.3</ele>
        <time>2020-06-24T10:33:16Z</time>
      </trkpt>
      <trkpt lat="50.34451" lon="3.63939">
        <ele>88.4</ele>
        <time>2020-06-24T10:33:17Z</time>
      </trkpt>
      <trkpt lat="50.34446" lon="3.63942">
        <ele>88.4</ele>
        <time>2020-06-24T10:33:18Z</time>
      </trkpt>
      <trkpt lat="50.3444" lon="3.63946">
        <ele>88.4</ele>
        <time>2020-06-24T10:33:19Z</time>
      </trkpt>
      <trkpt lat="50.34434" lon="3.63949">
        <ele>88.4</ele>
        <time>2020-06-24T10:33:20Z</time>
      </trkpt>
      <trkpt lat="50.34428" lon="3.63952">
        <ele>88.4</ele>
        <time>2020-06-24T10:33:21Z</time>
      </trkpt>
      <trkpt lat="50.34422" lon="3.63955">
        <ele>88.4</ele>
        <time>2020-06-24T10:33:22Z</time>
      </trkpt>
      <trkpt lat="50.34415" lon="3.63958">
        <ele>88.4</ele>
        <time>2020-06-24T10:33:23Z</time>
      </trkpt>
      <trkpt lat="50.34409" lon="3.63961">
        <ele>88.5</ele>
        <time>2020-06-24T10:33:24Z</time>
      </trkpt>
      <trkpt lat="50.34403" lon="3.63964">
        <ele>88.6</ele>
        <time>2020-06-24T10:33:25Z</time>
      </trkpt>
      <trkpt lat="50.34397" lon="3.63966">
        <ele>88.6</ele>
        <time>2020-06-24T10:33:26Z</time>
      </trkpt>
      <trkpt lat="50.34391" lon="3.63968">
        <ele>88.7</ele>
        <time>2020-06-24T10:33:27Z</time>
      </trkpt>
      <trkpt lat="50.34384" lon="3.63969">
        <ele>88.7</ele>
        <time>2020-06-24T10:33:28Z</time>
      </trkpt>
      <trkpt lat="50.34378" lon="3.63972">
        <ele>88.8</ele>
        <time>2020-06-24T10:33:29Z</time>
      </trkpt>
      <trkpt lat="50.34372" lon="3.63974">
        <ele>88.8</ele>
        <time>2020-06-24T10:33:30Z</time>
      </trkpt>
      <trkpt lat="50.34367" lon="3.63975">
        <ele>88.9</ele>
        <time>2020-06-24T10:33:31Z</time>
      </trkpt>
      <trkpt lat="50.34362" lon="3.63976">
        <ele>88.9</ele>
        <time>2020-06-24T10:33:32Z</time>
      </trkpt>
      <trkpt lat="50.34357" lon="3.63977">
        <ele>88.9</ele>
        <time>2020-06-24T10:33:33Z</time>
      </trkpt>
      <trkpt lat="50.34351" lon="3.63979">
        <ele>88.9</ele>
        <time>2020-06-24T10:33:34Z</time>
      </trkpt>
      <trkpt lat="50.34344" lon="3.63981">
        <ele>88.9</ele>
        <time>2020-06-24T10:33:35Z</time>
      </trkpt>
      <trkpt lat="50.34336" lon="3.63982">
        <ele>89</ele>
        <time>2020-06-24T10:33:36Z</time>
      </trkpt>
      <trkpt lat="50.3433" lon="3.63981">
        <ele>89</ele>
        <time>2020-06-24T10:33:37Z</time>
      </trkpt>
      <trkpt lat="50.34324" lon="3.6398">
        <ele>89</ele>
        <time>2020-06-24T10:33:38Z</time>
      </trkpt>
      <trkpt lat="50.34318" lon="3.63978">
        <ele>89</ele>
        <time>2020-06-24T10:33:39Z</time>
      </trkpt>
      <trkpt lat="50.34312" lon="3.63976">
        <ele>89.1</ele>
        <time>2020-06-24T10:33:40Z</time>
      </trkpt>
      <trkpt lat="50.34304" lon="3.63975">
        <ele>89.1</ele>
        <time>2020-06-24T10:33:41Z</time>
      </trkpt>
      <trkpt lat="50.34298" lon="3.63973">
        <ele>89.2</ele>
        <time>2020-06-24T10:33:42Z</time>
      </trkpt>
      <trkpt lat="50.34291" lon="3.63973">
        <ele>89.3</ele>
        <time>2020-06-24T10:33:43Z</time>
      </trkpt>
      <trkpt lat="50.34286" lon="3.63971">
        <ele>89.3</ele>
        <time>2020-06-24T10:33:44Z</time>
      </trkpt>
      <trkpt lat="50.3428" lon="3.6397">
        <ele>89.3</ele>
        <time>2020-06-24T10:33:45Z</time>
      </trkpt>
      <trkpt lat="50.34273" lon="3.63968">
        <ele>89.4</ele>
        <time>2020-06-24T10:33:46Z</time>
      </trkpt>
      <trkpt lat="50.34267" lon="3.63967">
        <ele>89.5</ele>
        <time>2020-06-24T10:33:47Z</time>
      </trkpt>
      <trkpt lat="50.34262" lon="3.63965">
        <ele>89.5</ele>
        <time>2020-06-24T10:33:48Z</time>
      </trkpt>
      <trkpt lat="50.34256" lon="3.63965">
        <ele>89.5</ele>
        <time>2020-06-24T10:33:49Z</time>
      </trkpt>
      <trkpt lat="50.3425" lon="3.63963">
        <ele>89.5</ele>
        <time>2020-06-24T10:33:50Z</time>
      </trkpt>
      <trkpt lat="50.34243" lon="3.63961">
        <ele>89.5</ele>
        <time>2020-06-24T10:33:51Z</time>
      </trkpt>
      <trkpt lat="50.34236" lon="3.63959">
        <ele>89.5</ele>
        <time>2020-06-24T10:33:52Z</time>
      </trkpt>
      <trkpt lat="50.3423" lon="3.63957">
        <ele>89.5</ele>
        <time>2020-06-24T10:33:53Z</time>
      </trkpt>
      <trkpt lat="50.34224" lon="3.63955">
        <ele>89.5</ele>
        <time>2020-06-24T10:33:54Z</time>
      </trkpt>
      <trkpt lat="50.34218" lon="3.63954">
        <ele>89.5</ele>
        <time>2020-06-24T10:33:55Z</time>
      </trkpt>
      <trkpt lat="50.34211" lon="3.63952">
        <ele>89.5</ele>
        <time>2020-06-24T10:33:56Z</time>
      </trkpt>
      <trkpt lat="50.34205" lon="3.63952">
        <ele>89.5</ele>
        <time>2020-06-24T10:33:57Z</time>
      </trkpt>
      <trkpt lat="50.34199" lon="3.63951">
        <ele>89.5</ele>
        <time>2020-06-24T10:33:58Z</time>
      </trkpt>
      <trkpt lat="50.34194" lon="3.6395">
        <ele>89.5</ele>
        <time>2020-06-24T10:33:59Z</time>
      </trkpt>
      <trkpt lat="50.34188" lon="3.63949">
        <ele>89.6</ele>
        <time>2020-06-24T10:34:00Z</time>
      </trkpt>
      <trkpt lat="50.34182" lon="3.63947">
        <ele>89.6</ele>
        <time>2020-06-24T10:34:01Z</time>
      </trkpt>
      <trkpt lat="50.34176" lon="3.63945">
        <ele>89.6</ele>
        <time>2020-06-24T10:34:02Z</time>
      </trkpt>
      <trkpt lat="50.34169" lon="3.63945">
        <ele>89.7</ele>
        <time>2020-06-24T10:34:03Z</time>
      </trkpt>
      <trkpt lat="50.34162" lon="3.63944">
        <ele>89.8</ele>
        <time>2020-06-24T10:34:04Z</time>
      </trkpt>
      <trkpt lat="50.34156" lon="3.63943">
        <ele>89.9</ele>
        <time>2020-06-24T10:34:05Z</time>
      </trkpt>
      <trkpt lat="50.34151" lon="3.63942">
        <ele>89.9</ele>
        <time>2020-06-24T10:34:06Z</time>
      </trkpt>
      <trkpt lat="50.34144" lon="3.6394">
        <ele>90</ele>
        <time>2020-06-24T10:34:07Z</time>
      </trkpt>
      <trkpt lat="50.34139" lon="3.63938">
        <ele>90.1</ele>
        <time>2020-06-24T10:34:08Z</time>
      </trkpt>
      <trkpt lat="50.34133" lon="3.63937">
        <ele>90.1</ele>
        <time>2020-06-24T10:34:09Z</time>
      </trkpt>
      <trkpt lat="50.34127" lon="3.63935">
        <ele>90.2</ele>
        <time>2020-06-24T10:34:10Z</time>
      </trkpt>
      <trkpt lat="50.3412" lon="3.63934">
        <ele>90.2</ele>
        <time>2020-06-24T10:34:11Z</time>
      </trkpt>
      <trkpt lat="50.34114" lon="3.63933">
        <ele>90.3</ele>
        <time>2020-06-24T10:34:12Z</time>
      </trkpt>
      <trkpt lat="50.34108" lon="3.63931">
        <ele>90.4</ele>
        <time>2020-06-24T10:34:13Z</time>
      </trkpt>
      <trkpt lat="50.34101" lon="3.63929">
        <ele>90.5</ele>
        <time>2020-06-24T10:34:14Z</time>
      </trkpt>
      <trkpt lat="50.34096" lon="3.63927">
        <ele>90.6</ele>
        <time>2020-06-24T10:34:15Z</time>
      </trkpt>
      <trkpt lat="50.3409" lon="3.63925">
        <ele>90.7</ele>
        <time>2020-06-24T10:34:16Z</time>
      </trkpt>
      <trkpt lat="50.34084" lon="3.63922">
        <ele>90.8</ele>
        <time>2020-06-24T10:34:17Z</time>
      </trkpt>
      <trkpt lat="50.34077" lon="3.6392">
        <ele>90.9</ele>
        <time>2020-06-24T10:34:18Z</time>
      </trkpt>
      <trkpt lat="50.34071" lon="3.63916">
        <ele>91</ele>
        <time>2020-06-24T10:34:19Z</time>
      </trkpt>
      <trkpt lat="50.34067" lon="3.63912">
        <ele>91.1</ele>
        <time>2020-06-24T10:34:20Z</time>
      </trkpt>
      <trkpt lat="50.34061" lon="3.63909">
        <ele>91.2</ele>
        <time>2020-06-24T10:34:21Z</time>
      </trkpt>
      <trkpt lat="50.34055" lon="3.63905">
        <ele>91.4</ele>
        <time>2020-06-24T10:34:22Z</time>
      </trkpt>
      <trkpt lat="50.3405" lon="3.639">
        <ele>91.5</ele>
        <time>2020-06-24T10:34:23Z</time>
      </trkpt>
      <trkpt lat="50.34044" lon="3.63895">
        <ele>91.7</ele>
        <time>2020-06-24T10:34:24Z</time>
      </trkpt>
      <trkpt lat="50.34039" lon="3.63892">
        <ele>91.8</ele>
        <time>2020-06-24T10:34:25Z</time>
      </trkpt>
      <trkpt lat="50.34035" lon="3.63888">
        <ele>92</ele>
        <time>2020-06-24T10:34:26Z</time>
      </trkpt>
      <trkpt lat="50.3403" lon="3.63881">
        <ele>92.1</ele>
        <time>2020-06-24T10:34:27Z</time>
      </trkpt>
      <trkpt lat="50.34026" lon="3.63875">
        <ele>92.3</ele>
        <time>2020-06-24T10:34:28Z</time>
      </trkpt>
      <trkpt lat="50.34022" lon="3.63869">
        <ele>92.5</ele>
        <time>2020-06-24T10:34:29Z</time>
      </trkpt>
      <trkpt lat="50.34019" lon="3.63864">
        <ele>92.6</ele>
        <time>2020-06-24T10:34:30Z</time>
      </trkpt>
      <trkpt lat="50.34014" lon="3.63857">
        <ele>92.8</ele>
        <time>2020-06-24T10:34:31Z</time>
      </trkpt>
      <trkpt lat="50.34011" lon="3.63852">
        <ele>92.9</ele>
        <time>2020-06-24T10:34:32Z</time>
      </trkpt>
      <trkpt lat="50.34007" lon="3.63847">
        <ele>93.1</ele>
        <time>2020-06-24T10:34:33Z</time>
      </trkpt>
      <trkpt lat="50.34003" lon="3.6384">
        <ele>93.2</ele>
        <time>2020-06-24T10:34:34Z</time>
      </trkpt>
      <trkpt lat="50.33998" lon="3.63835">
        <ele>93.4</ele>
        <time>2020-06-24T10:34:35Z</time>
      </trkpt>
      <trkpt lat="50.33993" lon="3.63829">
        <ele>93.6</ele>
        <time>2020-06-24T10:34:36Z</time>
      </trkpt>
      <trkpt lat="50.33989" lon="3.63825">
        <ele>93.8</ele>
        <time>2020-06-24T10:34:37Z</time>
      </trkpt>
      <trkpt lat="50.33986" lon="3.63819">
        <ele>93.9</ele>
        <time>2020-06-24T10:34:38Z</time>
      </trkpt>
      <trkpt lat="50.33982" lon="3.63814">
        <ele>94.1</ele>
        <time>2020-06-24T10:34:39Z</time>
      </trkpt>
      <trkpt lat="50.33977" lon="3.63808">
        <ele>94.4</ele>
        <time>2020-06-24T10:34:40Z</time>
      </trkpt>
      <trkpt lat="50.33974" lon="3.63804">
        <ele>94.5</ele>
        <time>2020-06-24T10:34:41Z</time>
      </trkpt>
      <trkpt lat="50.3397" lon="3.63798">
        <ele>94.7</ele>
        <time>2020-06-24T10:34:42Z</time>
      </trkpt>
      <trkpt lat="50.33965" lon="3.63792">
        <ele>95</ele>
        <time>2020-06-24T10:34:43Z</time>
      </trkpt>
      <trkpt lat="50.33961" lon="3.63788">
        <ele>95.1</ele>
        <time>2020-06-24T10:34:44Z</time>
      </trkpt>
      <trkpt lat="50.33957" lon="3.63785">
        <ele>95.2</ele>
        <time>2020-06-24T10:34:45Z</time>
      </trkpt>
      <trkpt lat="50.33952" lon="3.6378">
        <ele>95.4</ele>
        <time>2020-06-24T10:34:46Z</time>
      </trkpt>
      <trkpt lat="50.33948" lon="3.63776">
        <ele>95.5</ele>
        <time>2020-06-24T10:34:47Z</time>
      </trkpt>
      <trkpt lat="50.33944" lon="3.63771">
        <ele>95.6</ele>
        <time>2020-06-24T10:34:48Z</time>
      </trkpt>
      <trkpt lat="50.3394" lon="3.63766">
        <ele>95.7</ele>
        <time>2020-06-24T10:34:49Z</time>
      </trkpt>
      <trkpt lat="50.33935" lon="3.63761">
        <ele>95.8</ele>
        <time>2020-06-24T10:34:50Z</time>
      </trkpt>
      <trkpt lat="50.3393" lon="3.63758">
        <ele>95.9</ele>
        <time>2020-06-24T10:34:51Z</time>
      </trkpt>
      <trkpt lat="50.33926" lon="3.63754">
        <ele>95.9</ele>
        <time>2020-06-24T10:34:52Z</time>
      </trkpt>
      <trkpt lat="50.33923" lon="3.63753">
        <ele>96</ele>
        <time>2020-06-24T10:34:53Z</time>
      </trkpt>
      <trkpt lat="50.33917" lon="3.63752">
        <ele>96.1</ele>
        <time>2020-06-24T10:34:54Z</time>
      </trkpt>
      <trkpt lat="50.33912" lon="3.63752">
        <ele>96.2</ele>
        <time>2020-06-24T10:34:55Z</time>
      </trkpt>
      <trkpt lat="50.33908" lon="3.6375">
        <ele>96.2</ele>
        <time>2020-06-24T10:34:56Z</time>
      </trkpt>
      <trkpt lat="50.33904" lon="3.63749">
        <ele>96.2</ele>
        <time>2020-06-24T10:34:57Z</time>
      </trkpt>
      <trkpt lat="50.33899" lon="3.63748">
        <ele>96.3</ele>
        <time>2020-06-24T10:34:58Z</time>
      </trkpt>
      <trkpt lat="50.33893" lon="3.6375">
        <ele>96.3</ele>
        <time>2020-06-24T10:34:59Z</time>
      </trkpt>
      <trkpt lat="50.33887" lon="3.63748">
        <ele>96.3</ele>
        <time>2020-06-24T10:35:00Z</time>
      </trkpt>
      <trkpt lat="50.33881" lon="3.63747">
        <ele>96.3</ele>
        <time>2020-06-24T10:35:01Z</time>
      </trkpt>
      <trkpt lat="50.33875" lon="3.63746">
        <ele>96.3</ele>
        <time>2020-06-24T10:35:02Z</time>
      </trkpt>
      <trkpt lat="50.33869" lon="3.63745">
        <ele>96.3</ele>
        <time>2020-06-24T10:35:03Z</time>
      </trkpt>
      <trkpt lat="50.33863" lon="3.63744">
        <ele>96.2</ele>
        <time>2020-06-24T10:35:04Z</time>
      </trkpt>
      <trkpt lat="50.33857" lon="3.63743">
        <ele>96.1</ele>
        <time>2020-06-24T10:35:05Z</time>
      </trkpt>
      <trkpt lat="50.33851" lon="3.63742">
        <ele>96.1</ele>
        <time>2020-06-24T10:35:06Z</time>
      </trkpt>
      <trkpt lat="50.33845" lon="3.63742">
        <ele>96.1</ele>
        <time>2020-06-24T10:35:07Z</time>
      </trkpt>
      <trkpt lat="50.3384" lon="3.63742">
        <ele>96</ele>
        <time>2020-06-24T10:35:08Z</time>
      </trkpt>
      <trkpt lat="50.33834" lon="3.63741">
        <ele>96</ele>
        <time>2020-06-24T10:35:09Z</time>
      </trkpt>
      <trkpt lat="50.33828" lon="3.63741">
        <ele>95.9</ele>
        <time>2020-06-24T10:35:10Z</time>
      </trkpt>
      <trkpt lat="50.33821" lon="3.63743">
        <ele>95.8</ele>
        <time>2020-06-24T10:35:11Z</time>
      </trkpt>
      <trkpt lat="50.33816" lon="3.63743">
        <ele>95.8</ele>
        <time>2020-06-24T10:35:12Z</time>
      </trkpt>
      <trkpt lat="50.33809" lon="3.63744">
        <ele>95.7</ele>
        <time>2020-06-24T10:35:13Z</time>
      </trkpt>
      <trkpt lat="50.33802" lon="3.63746">
        <ele>95.6</ele>
        <time>2020-06-24T10:35:14Z</time>
      </trkpt>
      <trkpt lat="50.33794" lon="3.63747">
        <ele>95.5</ele>
        <time>2020-06-24T10:35:15Z</time>
      </trkpt>
      <trkpt lat="50.33787" lon="3.63747">
        <ele>95.4</ele>
        <time>2020-06-24T10:35:16Z</time>
      </trkpt>
      <trkpt lat="50.3378" lon="3.63746">
        <ele>95.2</ele>
        <time>2020-06-24T10:35:17Z</time>
      </trkpt>
      <trkpt lat="50.33773" lon="3.63744">
        <ele>95</ele>
        <time>2020-06-24T10:35:18Z</time>
      </trkpt>
      <trkpt lat="50.33766" lon="3.63743">
        <ele>94.9</ele>
        <time>2020-06-24T10:35:19Z</time>
      </trkpt>
      <trkpt lat="50.33759" lon="3.63742">
        <ele>94.7</ele>
        <time>2020-06-24T10:35:20Z</time>
      </trkpt>
      <trkpt lat="50.33753" lon="3.63742">
        <ele>94.5</ele>
        <time>2020-06-24T10:35:21Z</time>
      </trkpt>
      <trkpt lat="50.33746" lon="3.63741">
        <ele>94.3</ele>
        <time>2020-06-24T10:35:22Z</time>
      </trkpt>
      <trkpt lat="50.33738" lon="3.63739">
        <ele>94.1</ele>
        <time>2020-06-24T10:35:23Z</time>
      </trkpt>
      <trkpt lat="50.33732" lon="3.63738">
        <ele>93.8</ele>
        <time>2020-06-24T10:35:24Z</time>
      </trkpt>
      <trkpt lat="50.33725" lon="3.63736">
        <ele>93.6</ele>
        <time>2020-06-24T10:35:25Z</time>
      </trkpt>
      <trkpt lat="50.33718" lon="3.63735">
        <ele>93.3</ele>
        <time>2020-06-24T10:35:26Z</time>
      </trkpt>
      <trkpt lat="50.33711" lon="3.63733">
        <ele>93.1</ele>
        <time>2020-06-24T10:35:27Z</time>
      </trkpt>
      <trkpt lat="50.33705" lon="3.63732">
        <ele>92.8</ele>
        <time>2020-06-24T10:35:28Z</time>
      </trkpt>
      <trkpt lat="50.33697" lon="3.63731">
        <ele>92.6</ele>
        <time>2020-06-24T10:35:29Z</time>
      </trkpt>
      <trkpt lat="50.33689" lon="3.63731">
        <ele>92.3</ele>
        <time>2020-06-24T10:35:30Z</time>
      </trkpt>
      <trkpt lat="50.33681" lon="3.63729">
        <ele>92.1</ele>
        <time>2020-06-24T10:35:31Z</time>
      </trkpt>
      <trkpt lat="50.33674" lon="3.63725">
        <ele>91.9</ele>
        <time>2020-06-24T10:35:32Z</time>
      </trkpt>
      <trkpt lat="50.33665" lon="3.63721">
        <ele>91.5</ele>
        <time>2020-06-24T10:35:33Z</time>
      </trkpt>
      <trkpt lat="50.33658" lon="3.63718">
        <ele>91.3</ele>
        <time>2020-06-24T10:35:34Z</time>
      </trkpt>
      <trkpt lat="50.33651" lon="3.63714">
        <ele>91</ele>
        <time>2020-06-24T10:35:35Z</time>
      </trkpt>
      <trkpt lat="50.33643" lon="3.6371">
        <ele>90.7</ele>
        <time>2020-06-24T10:35:36Z</time>
      </trkpt>
      <trkpt lat="50.33635" lon="3.63705">
        <ele>90.4</ele>
        <time>2020-06-24T10:35:37Z</time>
      </trkpt>
      <trkpt lat="50.33628" lon="3.63702">
        <ele>90.1</ele>
        <time>2020-06-24T10:35:38Z</time>
      </trkpt>
      <trkpt lat="50.33621" lon="3.63699">
        <ele>89.9</ele>
        <time>2020-06-24T10:35:39Z</time>
      </trkpt>
      <trkpt lat="50.33614" lon="3.63697">
        <ele>89.7</ele>
        <time>2020-06-24T10:35:40Z</time>
      </trkpt>
      <trkpt lat="50.33607" lon="3.63695">
        <ele>89.3</ele>
        <time>2020-06-24T10:35:41Z</time>
      </trkpt>
      <trkpt lat="50.336" lon="3.63694">
        <ele>88.9</ele>
        <time>2020-06-24T10:35:42Z</time>
      </trkpt>
      <trkpt lat="50.33594" lon="3.63698">
        <ele>88.5</ele>
        <time>2020-06-24T10:35:43Z</time>
      </trkpt>
      <trkpt lat="50.33589" lon="3.63707">
        <ele>88.1</ele>
        <time>2020-06-24T10:35:44Z</time>
      </trkpt>
      <trkpt lat="50.33586" lon="3.63717">
        <ele>87.8</ele>
        <time>2020-06-24T10:35:45Z</time>
      </trkpt>
      <trkpt lat="50.33583" lon="3.63727">
        <ele>87.4</ele>
        <time>2020-06-24T10:35:46Z</time>
      </trkpt>
      <trkpt lat="50.3358" lon="3.63737">
        <ele>87.1</ele>
        <time>2020-06-24T10:35:47Z</time>
      </trkpt>
      <trkpt lat="50.33576" lon="3.63747">
        <ele>86.7</ele>
        <time>2020-06-24T10:35:48Z</time>
      </trkpt>
      <trkpt lat="50.33572" lon="3.63758">
        <ele>86.3</ele>
        <time>2020-06-24T10:35:49Z</time>
      </trkpt>
      <trkpt lat="50.33567" lon="3.63768">
        <ele>86</ele>
        <time>2020-06-24T10:35:50Z</time>
      </trkpt>
      <trkpt lat="50.33563" lon="3.63779">
        <ele>85.6</ele>
        <time>2020-06-24T10:35:51Z</time>
      </trkpt>
      <trkpt lat="50.33558" lon="3.6379">
        <ele>85.1</ele>
        <time>2020-06-24T10:35:52Z</time>
      </trkpt>
      <trkpt lat="50.33554" lon="3.63802">
        <ele>84.7</ele>
        <time>2020-06-24T10:35:53Z</time>
      </trkpt>
      <trkpt lat="50.33549" lon="3.63814">
        <ele>84.3</ele>
        <time>2020-06-24T10:35:54Z</time>
      </trkpt>
      <trkpt lat="50.33545" lon="3.63826">
        <ele>83.8</ele>
        <time>2020-06-24T10:35:55Z</time>
      </trkpt>
      <trkpt lat="50.3354" lon="3.63838">
        <ele>83.3</ele>
        <time>2020-06-24T10:35:56Z</time>
      </trkpt>
      <trkpt lat="50.33535" lon="3.63849">
        <ele>82.9</ele>
        <time>2020-06-24T10:35:57Z</time>
      </trkpt>
      <trkpt lat="50.33529" lon="3.6386">
        <ele>82.4</ele>
        <time>2020-06-24T10:35:58Z</time>
      </trkpt>
      <trkpt lat="50.33524" lon="3.63873">
        <ele>81.9</ele>
        <time>2020-06-24T10:35:59Z</time>
      </trkpt>
      <trkpt lat="50.33519" lon="3.63885">
        <ele>81.4</ele>
        <time>2020-06-24T10:36:00Z</time>
      </trkpt>
      <trkpt lat="50.33514" lon="3.63898">
        <ele>80.8</ele>
        <time>2020-06-24T10:36:01Z</time>
      </trkpt>
      <trkpt lat="50.33509" lon="3.63911">
        <ele>80.2</ele>
        <time>2020-06-24T10:36:02Z</time>
      </trkpt>
      <trkpt lat="50.33503" lon="3.63923">
        <ele>79.6</ele>
        <time>2020-06-24T10:36:03Z</time>
      </trkpt>
      <trkpt lat="50.33499" lon="3.63936">
        <ele>79.1</ele>
        <time>2020-06-24T10:36:04Z</time>
      </trkpt>
      <trkpt lat="50.33496" lon="3.63951">
        <ele>78.6</ele>
        <time>2020-06-24T10:36:05Z</time>
      </trkpt>
      <trkpt lat="50.33493" lon="3.63967">
        <ele>78.2</ele>
        <time>2020-06-24T10:36:06Z</time>
      </trkpt>
      <trkpt lat="50.33492" lon="3.63983">
        <ele>77.8</ele>
        <time>2020-06-24T10:36:07Z</time>
      </trkpt>
      <trkpt lat="50.3349" lon="3.63998">
        <ele>77.4</ele>
        <time>2020-06-24T10:36:08Z</time>
      </trkpt>
      <trkpt lat="50.33489" lon="3.64013">
        <ele>77.1</ele>
        <time>2020-06-24T10:36:09Z</time>
      </trkpt>
      <trkpt lat="50.33487" lon="3.64028">
        <ele>76.8</ele>
        <time>2020-06-24T10:36:10Z</time>
      </trkpt>
      <trkpt lat="50.33486" lon="3.64042">
        <ele>76.5</ele>
        <time>2020-06-24T10:36:11Z</time>
      </trkpt>
      <trkpt lat="50.33485" lon="3.64056">
        <ele>76.3</ele>
        <time>2020-06-24T10:36:12Z</time>
      </trkpt>
      <trkpt lat="50.33483" lon="3.6407">
        <ele>76</ele>
        <time>2020-06-24T10:36:13Z</time>
      </trkpt>
      <trkpt lat="50.33482" lon="3.64084">
        <ele>75.7</ele>
        <time>2020-06-24T10:36:14Z</time>
      </trkpt>
      <trkpt lat="50.33481" lon="3.64098">
        <ele>75.5</ele>
        <time>2020-06-24T10:36:15Z</time>
      </trkpt>
      <trkpt lat="50.33479" lon="3.64112">
        <ele>75.2</ele>
        <time>2020-06-24T10:36:16Z</time>
      </trkpt>
      <trkpt lat="50.33478" lon="3.64126">
        <ele>75</ele>
        <time>2020-06-24T10:36:17Z</time>
      </trkpt>
      <trkpt lat="50.33476" lon="3.64138">
        <ele>74.8</ele>
        <time>2020-06-24T10:36:18Z</time>
      </trkpt>
      <trkpt lat="50.33475" lon="3.64152">
        <ele>74.6</ele>
        <time>2020-06-24T10:36:19Z</time>
      </trkpt>
      <trkpt lat="50.33475" lon="3.64165">
        <ele>74.4</ele>
        <time>2020-06-24T10:36:20Z</time>
      </trkpt>
      <trkpt lat="50.33476" lon="3.64178">
        <ele>74.2</ele>
        <time>2020-06-24T10:36:21Z</time>
      </trkpt>
      <trkpt lat="50.33477" lon="3.64191">
        <ele>74</ele>
        <time>2020-06-24T10:36:22Z</time>
      </trkpt>
      <trkpt lat="50.33478" lon="3.64204">
        <ele>73.8</ele>
        <time>2020-06-24T10:36:23Z</time>
      </trkpt>
      <trkpt lat="50.33478" lon="3.64217">
        <ele>73.6</ele>
        <time>2020-06-24T10:36:24Z</time>
      </trkpt>
      <trkpt lat="50.33479" lon="3.6423">
        <ele>73.3</ele>
        <time>2020-06-24T10:36:25Z</time>
      </trkpt>
      <trkpt lat="50.33479" lon="3.64242">
        <ele>73</ele>
        <time>2020-06-24T10:36:26Z</time>
      </trkpt>
      <trkpt lat="50.33479" lon="3.64254">
        <ele>72.7</ele>
        <time>2020-06-24T10:36:27Z</time>
      </trkpt>
      <trkpt lat="50.3348" lon="3.64266">
        <ele>72.4</ele>
        <time>2020-06-24T10:36:28Z</time>
      </trkpt>
      <trkpt lat="50.33481" lon="3.64278">
        <ele>72</ele>
        <time>2020-06-24T10:36:29Z</time>
      </trkpt>
      <trkpt lat="50.33482" lon="3.6429">
        <ele>71.5</ele>
        <time>2020-06-24T10:36:30Z</time>
      </trkpt>
      <trkpt lat="50.33483" lon="3.64303">
        <ele>71.2</ele>
        <time>2020-06-24T10:36:31Z</time>
      </trkpt>
      <trkpt lat="50.33485" lon="3.64316">
        <ele>70.7</ele>
        <time>2020-06-24T10:36:32Z</time>
      </trkpt>
      <trkpt lat="50.33486" lon="3.64329">
        <ele>70.1</ele>
        <time>2020-06-24T10:36:33Z</time>
      </trkpt>
      <trkpt lat="50.33489" lon="3.64343">
        <ele>69.3</ele>
        <time>2020-06-24T10:36:34Z</time>
      </trkpt>
      <trkpt lat="50.3349" lon="3.64358">
        <ele>68.6</ele>
        <time>2020-06-24T10:36:35Z</time>
      </trkpt>
      <trkpt lat="50.33492" lon="3.64372">
        <ele>67.8</ele>
        <time>2020-06-24T10:36:36Z</time>
      </trkpt>
      <trkpt lat="50.33494" lon="3.64387">
        <ele>67.1</ele>
        <time>2020-06-24T10:36:37Z</time>
      </trkpt>
      <trkpt lat="50.33494" lon="3.64402">
        <ele>66.3</ele>
        <time>2020-06-24T10:36:38Z</time>
      </trkpt>
      <trkpt lat="50.33494" lon="3.64419">
        <ele>65.4</ele>
        <time>2020-06-24T10:36:39Z</time>
      </trkpt>
      <trkpt lat="50.33492" lon="3.64434">
        <ele>64.5</ele>
        <time>2020-06-24T10:36:40Z</time>
      </trkpt>
      <trkpt lat="50.33491" lon="3.64451">
        <ele>63.6</ele>
        <time>2020-06-24T10:36:41Z</time>
      </trkpt>
      <trkpt lat="50.3349" lon="3.64468">
        <ele>62.6</ele>
        <time>2020-06-24T10:36:42Z</time>
      </trkpt>
      <trkpt lat="50.33488" lon="3.64485">
        <ele>61.5</ele>
        <time>2020-06-24T10:36:43Z</time>
      </trkpt>
      <trkpt lat="50.33487" lon="3.64502">
        <ele>60.4</ele>
        <time>2020-06-24T10:36:44Z</time>
      </trkpt>
      <trkpt lat="50.33486" lon="3.64519">
        <ele>59.3</ele>
        <time>2020-06-24T10:36:45Z</time>
      </trkpt>
      <trkpt lat="50.33485" lon="3.64537">
        <ele>58.4</ele>
        <time>2020-06-24T10:36:46Z</time>
      </trkpt>
      <trkpt lat="50.33484" lon="3.64554">
        <ele>57.5</ele>
        <time>2020-06-24T10:36:47Z</time>
      </trkpt>
      <trkpt lat="50.33483" lon="3.64572">
        <ele>56.8</ele>
        <time>2020-06-24T10:36:48Z</time>
      </trkpt>
      <trkpt lat="50.33482" lon="3.64591">
        <ele>56.1</ele>
        <time>2020-06-24T10:36:49Z</time>
      </trkpt>
      <trkpt lat="50.33481" lon="3.64609">
        <ele>55.7</ele>
        <time>2020-06-24T10:36:50Z</time>
      </trkpt>
      <trkpt lat="50.3348" lon="3.64625">
        <ele>55.3</ele>
        <time>2020-06-24T10:36:51Z</time>
      </trkpt>
      <trkpt lat="50.33479" lon="3.6464">
        <ele>55.1</ele>
        <time>2020-06-24T10:36:52Z</time>
      </trkpt>
      <trkpt lat="50.33477" lon="3.64655">
        <ele>54.9</ele>
        <time>2020-06-24T10:36:53Z</time>
      </trkpt>
      <trkpt lat="50.33476" lon="3.64669">
        <ele>54.8</ele>
        <time>2020-06-24T10:36:54Z</time>
      </trkpt>
      <trkpt lat="50.33475" lon="3.64683">
        <ele>54.8</ele>
        <time>2020-06-24T10:36:55Z</time>
      </trkpt>
      <trkpt lat="50.33473" lon="3.64696">
        <ele>54.6</ele>
        <time>2020-06-24T10:36:56Z</time>
      </trkpt>
      <trkpt lat="50.33472" lon="3.6471">
        <ele>54.5</ele>
        <time>2020-06-24T10:36:57Z</time>
      </trkpt>
      <trkpt lat="50.33471" lon="3.64724">
        <ele>54.3</ele>
        <time>2020-06-24T10:36:58Z</time>
      </trkpt>
      <trkpt lat="50.3347" lon="3.64738">
        <ele>54.2</ele>
        <time>2020-06-24T10:36:59Z</time>
      </trkpt>
      <trkpt lat="50.33469" lon="3.64751">
        <ele>54.1</ele>
        <time>2020-06-24T10:37:00Z</time>
      </trkpt>
      <trkpt lat="50.33469" lon="3.64764">
        <ele>54.1</ele>
        <time>2020-06-24T10:37:01Z</time>
      </trkpt>
      <trkpt lat="50.33469" lon="3.64776">
        <ele>54.1</ele>
        <time>2020-06-24T10:37:02Z</time>
      </trkpt>
      <trkpt lat="50.33468" lon="3.64788">
        <ele>54.2</ele>
        <time>2020-06-24T10:37:03Z</time>
      </trkpt>
      <trkpt lat="50.33467" lon="3.648">
        <ele>54.2</ele>
        <time>2020-06-24T10:37:04Z</time>
      </trkpt>
      <trkpt lat="50.33467" lon="3.64812">
        <ele>54.3</ele>
        <time>2020-06-24T10:37:05Z</time>
      </trkpt>
      <trkpt lat="50.33466" lon="3.64823">
        <ele>54.3</ele>
        <time>2020-06-24T10:37:06Z</time>
      </trkpt>
      <trkpt lat="50.33466" lon="3.64833">
        <ele>54.3</ele>
        <time>2020-06-24T10:37:07Z</time>
      </trkpt>
      <trkpt lat="50.33466" lon="3.64843">
        <ele>54.3</ele>
        <time>2020-06-24T10:37:08Z</time>
      </trkpt>
      <trkpt lat="50.33465" lon="3.64853">
        <ele>54.3</ele>
        <time>2020-06-24T10:37:09Z</time>
      </trkpt>
      <trkpt lat="50.33464" lon="3.64865">
        <ele>54.4</ele>
        <time>2020-06-24T10:37:10Z</time>
      </trkpt>
      <trkpt lat="50.33462" lon="3.64876">
        <ele>54.4</ele>
        <time>2020-06-24T10:37:11Z</time>
      </trkpt>
      <trkpt lat="50.33462" lon="3.64886">
        <ele>54.5</ele>
        <time>2020-06-24T10:37:12Z</time>
      </trkpt>
      <trkpt lat="50.33461" lon="3.64897">
        <ele>54.5</ele>
        <time>2020-06-24T10:37:13Z</time>
      </trkpt>
      <trkpt lat="50.3346" lon="3.64906">
        <ele>54.6</ele>
        <time>2020-06-24T10:37:14Z</time>
      </trkpt>
      <trkpt lat="50.33459" lon="3.64916">
        <ele>54.7</ele>
        <time>2020-06-24T10:37:15Z</time>
      </trkpt>
      <trkpt lat="50.33459" lon="3.64925">
        <ele>54.8</ele>
        <time>2020-06-24T10:37:16Z</time>
      </trkpt>
      <trkpt lat="50.33458" lon="3.64934">
        <ele>54.9</ele>
        <time>2020-06-24T10:37:17Z</time>
      </trkpt>
      <trkpt lat="50.33457" lon="3.64943">
        <ele>55.1</ele>
        <time>2020-06-24T10:37:18Z</time>
      </trkpt>
      <trkpt lat="50.33456" lon="3.64952">
        <ele>55.2</ele>
        <time>2020-06-24T10:37:19Z</time>
      </trkpt>
      <trkpt lat="50.33456" lon="3.6496">
        <ele>55.4</ele>
        <time>2020-06-24T10:37:20Z</time>
      </trkpt>
      <trkpt lat="50.33456" lon="3.64968">
        <ele>55.6</ele>
        <time>2020-06-24T10:37:21Z</time>
      </trkpt>
      <trkpt lat="50.33456" lon="3.64976">
        <ele>55.8</ele>
        <time>2020-06-24T10:37:22Z</time>
      </trkpt>
      <trkpt lat="50.33456" lon="3.64984">
        <ele>56</ele>
        <time>2020-06-24T10:37:23Z</time>
      </trkpt>
      <trkpt lat="50.33456" lon="3.64992">
        <ele>56.2</ele>
        <time>2020-06-24T10:37:24Z</time>
      </trkpt>
      <trkpt lat="50.33455" lon="3.64999">
        <ele>56.4</ele>
        <time>2020-06-24T10:37:25Z</time>
      </trkpt>
      <trkpt lat="50.33455" lon="3.65006">
        <ele>56.5</ele>
        <time>2020-06-24T10:37:26Z</time>
      </trkpt>
      <trkpt lat="50.33455" lon="3.65013">
        <ele>56.7</ele>
        <time>2020-06-24T10:37:27Z</time>
      </trkpt>
      <trkpt lat="50.33454" lon="3.65019">
        <ele>56.9</ele>
        <time>2020-06-24T10:37:28Z</time>
      </trkpt>
      <trkpt lat="50.33454" lon="3.65025">
        <ele>57.1</ele>
        <time>2020-06-24T10:37:29Z</time>
      </trkpt>
      <trkpt lat="50.33452" lon="3.65032">
        <ele>57.3</ele>
        <time>2020-06-24T10:37:30Z</time>
      </trkpt>
      <trkpt lat="50.3345" lon="3.65041">
        <ele>57.6</ele>
        <time>2020-06-24T10:37:31Z</time>
      </trkpt>
      <trkpt lat="50.33448" lon="3.65046">
        <ele>57.8</ele>
        <time>2020-06-24T10:37:32Z</time>
      </trkpt>
      <trkpt lat="50.33447" lon="3.65053">
        <ele>58.1</ele>
        <time>2020-06-24T10:37:33Z</time>
      </trkpt>
      <trkpt lat="50.33446" lon="3.65061">
        <ele>58.4</ele>
        <time>2020-06-24T10:37:34Z</time>
      </trkpt>
      <trkpt lat="50.33445" lon="3.65068">
        <ele>58.7</ele>
        <time>2020-06-24T10:37:35Z</time>
      </trkpt>
      <trkpt lat="50.33445" lon="3.65075">
        <ele>59</ele>
        <time>2020-06-24T10:37:36Z</time>
      </trkpt>
      <trkpt lat="50.33444" lon="3.6508">
        <ele>59.2</ele>
        <time>2020-06-24T10:37:37Z</time>
      </trkpt>
      <trkpt lat="50.33444" lon="3.65085">
        <ele>59.4</ele>
        <time>2020-06-24T10:37:38Z</time>
      </trkpt>
      <trkpt lat="50.33443" lon="3.65089">
        <ele>59.7</ele>
        <time>2020-06-24T10:37:39Z</time>
      </trkpt>
      <trkpt lat="50.33442" lon="3.65096">
        <ele>60</ele>
        <time>2020-06-24T10:37:40Z</time>
      </trkpt>
      <trkpt lat="50.33441" lon="3.65102">
        <ele>60.4</ele>
        <time>2020-06-24T10:37:41Z</time>
      </trkpt>
      <trkpt lat="50.3344" lon="3.65108">
        <ele>60.6</ele>
        <time>2020-06-24T10:37:42Z</time>
      </trkpt>
      <trkpt lat="50.3344" lon="3.65111">
        <ele>60.8</ele>
        <time>2020-06-24T10:37:43Z</time>
      </trkpt>
      <trkpt lat="50.33439" lon="3.65116">
        <ele>61</ele>
        <time>2020-06-24T10:37:44Z</time>
      </trkpt>
      <trkpt lat="50.33437" lon="3.65123">
        <ele>61.3</ele>
        <time>2020-06-24T10:37:45Z</time>
      </trkpt>
      <trkpt lat="50.33436" lon="3.65127">
        <ele>61.5</ele>
        <time>2020-06-24T10:37:46Z</time>
      </trkpt>
      <trkpt lat="50.33435" lon="3.65132">
        <ele>61.7</ele>
        <time>2020-06-24T10:37:47Z</time>
      </trkpt>
      <trkpt lat="50.33433" lon="3.65136">
        <ele>61.9</ele>
        <time>2020-06-24T10:37:48Z</time>
      </trkpt>
      <trkpt lat="50.33432" lon="3.65142">
        <ele>62.2</ele>
        <time>2020-06-24T10:37:49Z</time>
      </trkpt>
      <trkpt lat="50.33431" lon="3.65145">
        <ele>62.3</ele>
        <time>2020-06-24T10:37:50Z</time>
      </trkpt>
      <trkpt lat="50.33429" lon="3.6515">
        <ele>62.5</ele>
        <time>2020-06-24T10:37:51Z</time>
      </trkpt>
      <trkpt lat="50.33427" lon="3.65153">
        <ele>62.7</ele>
        <time>2020-06-24T10:37:52Z</time>
      </trkpt>
      <trkpt lat="50.33425" lon="3.65157">
        <ele>62.9</ele>
        <time>2020-06-24T10:37:53Z</time>
      </trkpt>
      <trkpt lat="50.33424" lon="3.65163">
        <ele>63.2</ele>
        <time>2020-06-24T10:37:54Z</time>
      </trkpt>
      <trkpt lat="50.33423" lon="3.65168">
        <ele>63.4</ele>
        <time>2020-06-24T10:37:55Z</time>
      </trkpt>
      <trkpt lat="50.33422" lon="3.65173">
        <ele>63.6</ele>
        <time>2020-06-24T10:37:56Z</time>
      </trkpt>
      <trkpt lat="50.33421" lon="3.65179">
        <ele>63.8</ele>
        <time>2020-06-24T10:37:57Z</time>
      </trkpt>
      <trkpt lat="50.3342" lon="3.65185">
        <ele>64</ele>
        <time>2020-06-24T10:37:58Z</time>
      </trkpt>
      <trkpt lat="50.3342" lon="3.65189">
        <ele>64.2</ele>
        <time>2020-06-24T10:37:59Z</time>
      </trkpt>
      <trkpt lat="50.33419" lon="3.65195">
        <ele>64.4</ele>
        <time>2020-06-24T10:38:00Z</time>
      </trkpt>
      <trkpt lat="50.33418" lon="3.65197">
        <ele>64.5</ele>
        <time>2020-06-24T10:38:01Z</time>
      </trkpt>
      <trkpt lat="50.33418" lon="3.65202">
        <ele>64.7</ele>
        <time>2020-06-24T10:38:02Z</time>
      </trkpt>
      <trkpt lat="50.33417" lon="3.65207">
        <ele>64.8</ele>
        <time>2020-06-24T10:38:03Z</time>
      </trkpt>
      <trkpt lat="50.33416" lon="3.65211">
        <ele>65</ele>
        <time>2020-06-24T10:38:04Z</time>
      </trkpt>
      <trkpt lat="50.33414" lon="3.65217">
        <ele>65.2</ele>
        <time>2020-06-24T10:38:05Z</time>
      </trkpt>
      <trkpt lat="50.33413" lon="3.65221">
        <ele>65.4</ele>
        <time>2020-06-24T10:38:06Z</time>
      </trkpt>
      <trkpt lat="50.33412" lon="3.65225">
        <ele>65.5</ele>
        <time>2020-06-24T10:38:07Z</time>
      </trkpt>
      <trkpt lat="50.33411" lon="3.6523">
        <ele>65.8</ele>
        <time>2020-06-24T10:38:08Z</time>
      </trkpt>
      <trkpt lat="50.3341" lon="3.65235">
        <ele>66</ele>
        <time>2020-06-24T10:38:09Z</time>
      </trkpt>
      <trkpt lat="50.33409" lon="3.65239">
        <ele>66.3</ele>
        <time>2020-06-24T10:38:10Z</time>
      </trkpt>
      <trkpt lat="50.33407" lon="3.65246">
        <ele>66.6</ele>
        <time>2020-06-24T10:38:11Z</time>
      </trkpt>
      <trkpt lat="50.33406" lon="3.6525">
        <ele>66.9</ele>
        <time>2020-06-24T10:38:12Z</time>
      </trkpt>
      <trkpt lat="50.33405" lon="3.65256">
        <ele>67.2</ele>
        <time>2020-06-24T10:38:13Z</time>
      </trkpt>
      <trkpt lat="50.33404" lon="3.65262">
        <ele>67.5</ele>
        <time>2020-06-24T10:38:14Z</time>
      </trkpt>
      <trkpt lat="50.33402" lon="3.65268">
        <ele>67.8</ele>
        <time>2020-06-24T10:38:15Z</time>
      </trkpt>
      <trkpt lat="50.33402" lon="3.6527">
        <ele>67.9</ele>
        <time>2020-06-24T10:38:16Z</time>
      </trkpt>
      <trkpt lat="50.33401" lon="3.65274">
        <ele>68.1</ele>
        <time>2020-06-24T10:38:17Z</time>
      </trkpt>
      <trkpt lat="50.334" lon="3.65276">
        <ele>68.2</ele>
        <time>2020-06-24T10:38:18Z</time>
      </trkpt>
      <trkpt lat="50.33399" lon="3.65282">
        <ele>68.5</ele>
        <time>2020-06-24T10:38:19Z</time>
      </trkpt>
      <trkpt lat="50.33399" lon="3.65285">
        <ele>68.6</ele>
        <time>2020-06-24T10:38:20Z</time>
      </trkpt>
      <trkpt lat="50.33399" lon="3.65292">
        <ele>69</ele>
        <time>2020-06-24T10:38:21Z</time>
      </trkpt>
      <trkpt lat="50.33399" lon="3.65294">
        <ele>69.1</ele>
        <time>2020-06-24T10:38:22Z</time>
      </trkpt>
      <trkpt lat="50.33398" lon="3.65298">
        <ele>69.3</ele>
        <time>2020-06-24T10:38:23Z</time>
      </trkpt>
      <trkpt lat="50.33398" lon="3.65304">
        <ele>69.6</ele>
        <time>2020-06-24T10:38:24Z</time>
      </trkpt>
      <trkpt lat="50.33398" lon="3.65306">
        <ele>69.7</ele>
        <time>2020-06-24T10:38:25Z</time>
      </trkpt>
      <trkpt lat="50.33397" lon="3.65311">
        <ele>69.9</ele>
        <time>2020-06-24T10:38:26Z</time>
      </trkpt>
      <trkpt lat="50.33395" lon="3.65316">
        <ele>70.2</ele>
        <time>2020-06-24T10:38:27Z</time>
      </trkpt>
      <trkpt lat="50.33394" lon="3.65321">
        <ele>70.5</ele>
        <time>2020-06-24T10:38:28Z</time>
      </trkpt>
      <trkpt lat="50.33394" lon="3.65325">
        <ele>70.7</ele>
        <time>2020-06-24T10:38:29Z</time>
      </trkpt>
      <trkpt lat="50.33393" lon="3.65331">
        <ele>71</ele>
        <time>2020-06-24T10:38:30Z</time>
      </trkpt>
      <trkpt lat="50.33392" lon="3.65333">
        <ele>71.1</ele>
        <time>2020-06-24T10:38:31Z</time>
      </trkpt>
      <trkpt lat="50.3339" lon="3.65337">
        <ele>71.3</ele>
        <time>2020-06-24T10:38:32Z</time>
      </trkpt>
      <trkpt lat="50.33389" lon="3.65339">
        <ele>71.4</ele>
        <time>2020-06-24T10:38:33Z</time>
      </trkpt>
      <trkpt lat="50.33389" lon="3.65344">
        <ele>71.6</ele>
        <time>2020-06-24T10:38:34Z</time>
      </trkpt>
      <trkpt lat="50.33388" lon="3.65349">
        <ele>71.8</ele>
        <time>2020-06-24T10:38:35Z</time>
      </trkpt>
      <trkpt lat="50.33388" lon="3.65351">
        <ele>71.9</ele>
        <time>2020-06-24T10:38:36Z</time>
      </trkpt>
      <trkpt lat="50.33386" lon="3.65357">
        <ele>72.2</ele>
        <time>2020-06-24T10:38:37Z</time>
      </trkpt>
      <trkpt lat="50.33385" lon="3.65361">
        <ele>72.3</ele>
        <time>2020-06-24T10:38:38Z</time>
      </trkpt>
      <trkpt lat="50.33384" lon="3.65366">
        <ele>72.4</ele>
        <time>2020-06-24T10:38:39Z</time>
      </trkpt>
      <trkpt lat="50.33382" lon="3.65373">
        <ele>72.5</ele>
        <time>2020-06-24T10:38:40Z</time>
      </trkpt>
      <trkpt lat="50.3338" lon="3.65379">
        <ele>72.7</ele>
        <time>2020-06-24T10:38:41Z</time>
      </trkpt>
      <trkpt lat="50.33379" lon="3.65384">
        <ele>72.8</ele>
        <time>2020-06-24T10:38:42Z</time>
      </trkpt>
      <trkpt lat="50.33378" lon="3.65386">
        <ele>72.9</ele>
        <time>2020-06-24T10:38:43Z</time>
      </trkpt>
      <trkpt lat="50.33378" lon="3.65388">
        <ele>73</ele>
        <time>2020-06-24T10:38:44Z</time>
      </trkpt>
      <trkpt lat="50.33377" lon="3.65391">
        <ele>73</ele>
        <time>2020-06-24T10:38:45Z</time>
      </trkpt>
      <trkpt lat="50.33376" lon="3.65395">
        <ele>73.1</ele>
        <time>2020-06-24T10:38:46Z</time>
      </trkpt>
      <trkpt lat="50.33375" lon="3.654">
        <ele>73.3</ele>
        <time>2020-06-24T10:38:47Z</time>
      </trkpt>
      <trkpt lat="50.33374" lon="3.65402">
        <ele>73.3</ele>
        <time>2020-06-24T10:38:48Z</time>
      </trkpt>
      <trkpt lat="50.33373" lon="3.65406">
        <ele>73.4</ele>
        <time>2020-06-24T10:38:49Z</time>
      </trkpt>
      <trkpt lat="50.33371" lon="3.65411">
        <ele>73.5</ele>
        <time>2020-06-24T10:38:50Z</time>
      </trkpt>
      <trkpt lat="50.3337" lon="3.65413">
        <ele>73.6</ele>
        <time>2020-06-24T10:38:51Z</time>
      </trkpt>
      <trkpt lat="50.33368" lon="3.65418">
        <ele>73.7</ele>
        <time>2020-06-24T10:38:52Z</time>
      </trkpt>
      <trkpt lat="50.33366" lon="3.65421">
        <ele>73.8</ele>
        <time>2020-06-24T10:38:53Z</time>
      </trkpt>
      <trkpt lat="50.33365" lon="3.65427">
        <ele>73.9</ele>
        <time>2020-06-24T10:38:54Z</time>
      </trkpt>
      <trkpt lat="50.33362" lon="3.65432">
        <ele>74</ele>
        <time>2020-06-24T10:38:55Z</time>
      </trkpt>
      <trkpt lat="50.33361" lon="3.65438">
        <ele>74.1</ele>
        <time>2020-06-24T10:38:56Z</time>
      </trkpt>
      <trkpt lat="50.3336" lon="3.65444">
        <ele>74.1</ele>
        <time>2020-06-24T10:38:57Z</time>
      </trkpt>
      <trkpt lat="50.33359" lon="3.65449">
        <ele>74.2</ele>
        <time>2020-06-24T10:38:58Z</time>
      </trkpt>
      <trkpt lat="50.33358" lon="3.65454">
        <ele>74.3</ele>
        <time>2020-06-24T10:38:59Z</time>
      </trkpt>
      <trkpt lat="50.33356" lon="3.65459">
        <ele>74.4</ele>
        <time>2020-06-24T10:39:00Z</time>
      </trkpt>
      <trkpt lat="50.33354" lon="3.65464">
        <ele>74.4</ele>
        <time>2020-06-24T10:39:01Z</time>
      </trkpt>
      <trkpt lat="50.33353" lon="3.6547">
        <ele>74.5</ele>
        <time>2020-06-24T10:39:02Z</time>
      </trkpt>
      <trkpt lat="50.33352" lon="3.65472">
        <ele>74.6</ele>
        <time>2020-06-24T10:39:03Z</time>
      </trkpt>
      <trkpt lat="50.33351" lon="3.65479">
        <ele>74.7</ele>
        <time>2020-06-24T10:39:04Z</time>
      </trkpt>
      <trkpt lat="50.3335" lon="3.65485">
        <ele>74.8</ele>
        <time>2020-06-24T10:39:05Z</time>
      </trkpt>
      <trkpt lat="50.33349" lon="3.65489">
        <ele>74.9</ele>
        <time>2020-06-24T10:39:06Z</time>
      </trkpt>
      <trkpt lat="50.33347" lon="3.65495">
        <ele>75</ele>
        <time>2020-06-24T10:39:07Z</time>
      </trkpt>
      <trkpt lat="50.33346" lon="3.655">
        <ele>75</ele>
        <time>2020-06-24T10:39:08Z</time>
      </trkpt>
      <trkpt lat="50.33345" lon="3.65506">
        <ele>75.1</ele>
        <time>2020-06-24T10:39:09Z</time>
      </trkpt>
      <trkpt lat="50.33343" lon="3.65511">
        <ele>75.2</ele>
        <time>2020-06-24T10:39:10Z</time>
      </trkpt>
      <trkpt lat="50.33342" lon="3.65517">
        <ele>75.3</ele>
        <time>2020-06-24T10:39:11Z</time>
      </trkpt>
      <trkpt lat="50.3334" lon="3.65522">
        <ele>75.4</ele>
        <time>2020-06-24T10:39:12Z</time>
      </trkpt>
      <trkpt lat="50.33338" lon="3.65528">
        <ele>75.5</ele>
        <time>2020-06-24T10:39:13Z</time>
      </trkpt>
      <trkpt lat="50.33336" lon="3.65535">
        <ele>75.6</ele>
        <time>2020-06-24T10:39:14Z</time>
      </trkpt>
      <trkpt lat="50.33333" lon="3.6554">
        <ele>75.7</ele>
        <time>2020-06-24T10:39:15Z</time>
      </trkpt>
      <trkpt lat="50.3333" lon="3.65549">
        <ele>75.9</ele>
        <time>2020-06-24T10:39:16Z</time>
      </trkpt>
      <trkpt lat="50.33328" lon="3.65555">
        <ele>76</ele>
        <time>2020-06-24T10:39:17Z</time>
      </trkpt>
      <trkpt lat="50.33326" lon="3.65561">
        <ele>76.1</ele>
        <time>2020-06-24T10:39:18Z</time>
      </trkpt>
      <trkpt lat="50.33323" lon="3.65566">
        <ele>76.2</ele>
        <time>2020-06-24T10:39:19Z</time>
      </trkpt>
      <trkpt lat="50.33321" lon="3.6557">
        <ele>76.2</ele>
        <time>2020-06-24T10:39:20Z</time>
      </trkpt>
      <trkpt lat="50.33319" lon="3.65575">
        <ele>76.3</ele>
        <time>2020-06-24T10:39:21Z</time>
      </trkpt>
      <trkpt lat="50.33317" lon="3.65579">
        <ele>76.4</ele>
        <time>2020-06-24T10:39:22Z</time>
      </trkpt>
      <trkpt lat="50.33316" lon="3.65584">
        <ele>76.4</ele>
        <time>2020-06-24T10:39:23Z</time>
      </trkpt>
      <trkpt lat="50.33315" lon="3.6559">
        <ele>76.5</ele>
        <time>2020-06-24T10:39:24Z</time>
      </trkpt>
      <trkpt lat="50.33313" lon="3.65595">
        <ele>76.6</ele>
        <time>2020-06-24T10:39:25Z</time>
      </trkpt>
      <trkpt lat="50.33311" lon="3.65602">
        <ele>76.7</ele>
        <time>2020-06-24T10:39:26Z</time>
      </trkpt>
      <trkpt lat="50.3331" lon="3.65608">
        <ele>76.8</ele>
        <time>2020-06-24T10:39:27Z</time>
      </trkpt>
      <trkpt lat="50.33308" lon="3.65613">
        <ele>76.9</ele>
        <time>2020-06-24T10:39:28Z</time>
      </trkpt>
      <trkpt lat="50.33307" lon="3.6562">
        <ele>77</ele>
        <time>2020-06-24T10:39:29Z</time>
      </trkpt>
      <trkpt lat="50.33304" lon="3.65627">
        <ele>77.1</ele>
        <time>2020-06-24T10:39:30Z</time>
      </trkpt>
      <trkpt lat="50.33302" lon="3.65631">
        <ele>77.1</ele>
        <time>2020-06-24T10:39:31Z</time>
      </trkpt>
      <trkpt lat="50.333" lon="3.65638">
        <ele>77.2</ele>
        <time>2020-06-24T10:39:32Z</time>
      </trkpt>
      <trkpt lat="50.33297" lon="3.65643">
        <ele>77.3</ele>
        <time>2020-06-24T10:39:33Z</time>
      </trkpt>
      <trkpt lat="50.33295" lon="3.65653">
        <ele>77.4</ele>
        <time>2020-06-24T10:39:34Z</time>
      </trkpt>
      <trkpt lat="50.33294" lon="3.65659">
        <ele>77.5</ele>
        <time>2020-06-24T10:39:35Z</time>
      </trkpt>
      <trkpt lat="50.33292" lon="3.65663">
        <ele>77.7</ele>
        <time>2020-06-24T10:39:36Z</time>
      </trkpt>
      <trkpt lat="50.3329" lon="3.65669">
        <ele>77.8</ele>
        <time>2020-06-24T10:39:37Z</time>
      </trkpt>
      <trkpt lat="50.33288" lon="3.65676">
        <ele>77.9</ele>
        <time>2020-06-24T10:39:38Z</time>
      </trkpt>
      <trkpt lat="50.33287" lon="3.65682">
        <ele>77.9</ele>
        <time>2020-06-24T10:39:39Z</time>
      </trkpt>
      <trkpt lat="50.33285" lon="3.65688">
        <ele>78</ele>
        <time>2020-06-24T10:39:40Z</time>
      </trkpt>
      <trkpt lat="50.33283" lon="3.65695">
        <ele>78</ele>
        <time>2020-06-24T10:39:41Z</time>
      </trkpt>
      <trkpt lat="50.33281" lon="3.657">
        <ele>78.1</ele>
        <time>2020-06-24T10:39:42Z</time>
      </trkpt>
      <trkpt lat="50.3328" lon="3.65706">
        <ele>78.1</ele>
        <time>2020-06-24T10:39:43Z</time>
      </trkpt>
      <trkpt lat="50.33279" lon="3.65712">
        <ele>78.1</ele>
        <time>2020-06-24T10:39:44Z</time>
      </trkpt>
      <trkpt lat="50.33278" lon="3.65718">
        <ele>78.2</ele>
        <time>2020-06-24T10:39:45Z</time>
      </trkpt>
      <trkpt lat="50.33277" lon="3.65724">
        <ele>78.2</ele>
        <time>2020-06-24T10:39:46Z</time>
      </trkpt>
      <trkpt lat="50.33276" lon="3.65731">
        <ele>78.2</ele>
        <time>2020-06-24T10:39:47Z</time>
      </trkpt>
      <trkpt lat="50.33274" lon="3.6574">
        <ele>78.3</ele>
        <time>2020-06-24T10:39:48Z</time>
      </trkpt>
      <trkpt lat="50.33272" lon="3.65747">
        <ele>78.2</ele>
        <time>2020-06-24T10:39:49Z</time>
      </trkpt>
      <trkpt lat="50.33271" lon="3.65754">
        <ele>78.2</ele>
        <time>2020-06-24T10:39:50Z</time>
      </trkpt>
      <trkpt lat="50.33268" lon="3.65763">
        <ele>78.2</ele>
        <time>2020-06-24T10:39:51Z</time>
      </trkpt>
      <trkpt lat="50.33266" lon="3.6577">
        <ele>78.1</ele>
        <time>2020-06-24T10:39:52Z</time>
      </trkpt>
      <trkpt lat="50.33264" lon="3.65778">
        <ele>78.1</ele>
        <time>2020-06-24T10:39:53Z</time>
      </trkpt>
      <trkpt lat="50.33262" lon="3.65785">
        <ele>78.1</ele>
        <time>2020-06-24T10:39:54Z</time>
      </trkpt>
      <trkpt lat="50.3326" lon="3.65792">
        <ele>78.1</ele>
        <time>2020-06-24T10:39:55Z</time>
      </trkpt>
      <trkpt lat="50.33256" lon="3.658">
        <ele>78.1</ele>
        <time>2020-06-24T10:39:56Z</time>
      </trkpt>
      <trkpt lat="50.33253" lon="3.65808">
        <ele>78</ele>
        <time>2020-06-24T10:39:57Z</time>
      </trkpt>
      <trkpt lat="50.33249" lon="3.65815">
        <ele>78</ele>
        <time>2020-06-24T10:39:58Z</time>
      </trkpt>
      <trkpt lat="50.33245" lon="3.65821">
        <ele>78</ele>
        <time>2020-06-24T10:39:59Z</time>
      </trkpt>
      <trkpt lat="50.33241" lon="3.65828">
        <ele>78.1</ele>
        <time>2020-06-24T10:40:00Z</time>
      </trkpt>
      <trkpt lat="50.33236" lon="3.65835">
        <ele>78.1</ele>
        <time>2020-06-24T10:40:01Z</time>
      </trkpt>
      <trkpt lat="50.33232" lon="3.65841">
        <ele>78.2</ele>
        <time>2020-06-24T10:40:02Z</time>
      </trkpt>
      <trkpt lat="50.33228" lon="3.65847">
        <ele>78.2</ele>
        <time>2020-06-24T10:40:03Z</time>
      </trkpt>
      <trkpt lat="50.33224" lon="3.65853">
        <ele>78.3</ele>
        <time>2020-06-24T10:40:04Z</time>
      </trkpt>
      <trkpt lat="50.3322" lon="3.65858">
        <ele>78.3</ele>
        <time>2020-06-24T10:40:05Z</time>
      </trkpt>
      <trkpt lat="50.33217" lon="3.65863">
        <ele>78.3</ele>
        <time>2020-06-24T10:40:06Z</time>
      </trkpt>
      <trkpt lat="50.33213" lon="3.65871">
        <ele>78.4</ele>
        <time>2020-06-24T10:40:07Z</time>
      </trkpt>
      <trkpt lat="50.3321" lon="3.65878">
        <ele>78.4</ele>
        <time>2020-06-24T10:40:08Z</time>
      </trkpt>
      <trkpt lat="50.33205" lon="3.65885">
        <ele>78.5</ele>
        <time>2020-06-24T10:40:09Z</time>
      </trkpt>
      <trkpt lat="50.33202" lon="3.65891">
        <ele>78.5</ele>
        <time>2020-06-24T10:40:10Z</time>
      </trkpt>
      <trkpt lat="50.33199" lon="3.65896">
        <ele>78.6</ele>
        <time>2020-06-24T10:40:11Z</time>
      </trkpt>
      <trkpt lat="50.33196" lon="3.659">
        <ele>78.6</ele>
        <time>2020-06-24T10:40:12Z</time>
      </trkpt>
      <trkpt lat="50.33192" lon="3.65905">
        <ele>78.7</ele>
        <time>2020-06-24T10:40:13Z</time>
      </trkpt>
      <trkpt lat="50.33189" lon="3.65909">
        <ele>78.8</ele>
        <time>2020-06-24T10:40:14Z</time>
      </trkpt>
      <trkpt lat="50.33187" lon="3.65914">
        <ele>78.8</ele>
        <time>2020-06-24T10:40:15Z</time>
      </trkpt>
      <trkpt lat="50.33184" lon="3.6592">
        <ele>78.9</ele>
        <time>2020-06-24T10:40:16Z</time>
      </trkpt>
      <trkpt lat="50.3318" lon="3.65927">
        <ele>79</ele>
        <time>2020-06-24T10:40:17Z</time>
      </trkpt>
      <trkpt lat="50.33176" lon="3.65933">
        <ele>79.1</ele>
        <time>2020-06-24T10:40:18Z</time>
      </trkpt>
      <trkpt lat="50.33172" lon="3.6594">
        <ele>79.2</ele>
        <time>2020-06-24T10:40:19Z</time>
      </trkpt>
      <trkpt lat="50.3317" lon="3.65945">
        <ele>79.3</ele>
        <time>2020-06-24T10:40:20Z</time>
      </trkpt>
      <trkpt lat="50.33168" lon="3.6595">
        <ele>79.3</ele>
        <time>2020-06-24T10:40:21Z</time>
      </trkpt>
      <trkpt lat="50.33165" lon="3.65956">
        <ele>79.4</ele>
        <time>2020-06-24T10:40:22Z</time>
      </trkpt>
      <trkpt lat="50.33162" lon="3.65962">
        <ele>79.5</ele>
        <time>2020-06-24T10:40:23Z</time>
      </trkpt>
      <trkpt lat="50.33158" lon="3.65968">
        <ele>79.5</ele>
        <time>2020-06-24T10:40:24Z</time>
      </trkpt>
      <trkpt lat="50.33156" lon="3.65974">
        <ele>79.6</ele>
        <time>2020-06-24T10:40:25Z</time>
      </trkpt>
      <trkpt lat="50.33152" lon="3.65982">
        <ele>79.7</ele>
        <time>2020-06-24T10:40:26Z</time>
      </trkpt>
      <trkpt lat="50.3315" lon="3.65988">
        <ele>79.7</ele>
        <time>2020-06-24T10:40:27Z</time>
      </trkpt>
      <trkpt lat="50.33147" lon="3.65995">
        <ele>79.8</ele>
        <time>2020-06-24T10:40:28Z</time>
      </trkpt>
      <trkpt lat="50.33145" lon="3.66001">
        <ele>79.8</ele>
        <time>2020-06-24T10:40:29Z</time>
      </trkpt>
      <trkpt lat="50.33142" lon="3.66008">
        <ele>79.9</ele>
        <time>2020-06-24T10:40:30Z</time>
      </trkpt>
      <trkpt lat="50.33138" lon="3.66018">
        <ele>80.1</ele>
        <time>2020-06-24T10:40:31Z</time>
      </trkpt>
      <trkpt lat="50.33136" lon="3.66023">
        <ele>80.2</ele>
        <time>2020-06-24T10:40:32Z</time>
      </trkpt>
      <trkpt lat="50.33134" lon="3.66029">
        <ele>80.2</ele>
        <time>2020-06-24T10:40:33Z</time>
      </trkpt>
      <trkpt lat="50.3313" lon="3.66038">
        <ele>80.3</ele>
        <time>2020-06-24T10:40:34Z</time>
      </trkpt>
      <trkpt lat="50.33128" lon="3.66045">
        <ele>80.4</ele>
        <time>2020-06-24T10:40:35Z</time>
      </trkpt>
      <trkpt lat="50.33125" lon="3.66051">
        <ele>80.5</ele>
        <time>2020-06-24T10:40:36Z</time>
      </trkpt>
      <trkpt lat="50.33123" lon="3.66055">
        <ele>80.5</ele>
        <time>2020-06-24T10:40:37Z</time>
      </trkpt>
      <trkpt lat="50.33121" lon="3.66062">
        <ele>80.6</ele>
        <time>2020-06-24T10:40:38Z</time>
      </trkpt>
      <trkpt lat="50.33119" lon="3.66068">
        <ele>80.7</ele>
        <time>2020-06-24T10:40:39Z</time>
      </trkpt>
      <trkpt lat="50.33116" lon="3.66074">
        <ele>80.7</ele>
        <time>2020-06-24T10:40:40Z</time>
      </trkpt>
      <trkpt lat="50.33113" lon="3.6608">
        <ele>80.8</ele>
        <time>2020-06-24T10:40:41Z</time>
      </trkpt>
      <trkpt lat="50.3311" lon="3.66087">
        <ele>80.9</ele>
        <time>2020-06-24T10:40:42Z</time>
      </trkpt>
      <trkpt lat="50.33107" lon="3.66093">
        <ele>81</ele>
        <time>2020-06-24T10:40:43Z</time>
      </trkpt>
      <trkpt lat="50.33105" lon="3.66099">
        <ele>81.1</ele>
        <time>2020-06-24T10:40:44Z</time>
      </trkpt>
      <trkpt lat="50.33103" lon="3.66105">
        <ele>81.1</ele>
        <time>2020-06-24T10:40:45Z</time>
      </trkpt>
      <trkpt lat="50.331" lon="3.66112">
        <ele>81.2</ele>
        <time>2020-06-24T10:40:46Z</time>
      </trkpt>
      <trkpt lat="50.33097" lon="3.66119">
        <ele>81.3</ele>
        <time>2020-06-24T10:40:47Z</time>
      </trkpt>
      <trkpt lat="50.33094" lon="3.66125">
        <ele>81.4</ele>
        <time>2020-06-24T10:40:48Z</time>
      </trkpt>
      <trkpt lat="50.33091" lon="3.66132">
        <ele>81.5</ele>
        <time>2020-06-24T10:40:49Z</time>
      </trkpt>
      <trkpt lat="50.33089" lon="3.66138">
        <ele>81.7</ele>
        <time>2020-06-24T10:40:50Z</time>
      </trkpt>
      <trkpt lat="50.33087" lon="3.66143">
        <ele>81.8</ele>
        <time>2020-06-24T10:40:51Z</time>
      </trkpt>
      <trkpt lat="50.33084" lon="3.66153">
        <ele>81.9</ele>
        <time>2020-06-24T10:40:52Z</time>
      </trkpt>
      <trkpt lat="50.33081" lon="3.66163">
        <ele>82</ele>
        <time>2020-06-24T10:40:53Z</time>
      </trkpt>
      <trkpt lat="50.3308" lon="3.66168">
        <ele>82.1</ele>
        <time>2020-06-24T10:40:54Z</time>
      </trkpt>
      <trkpt lat="50.33079" lon="3.66173">
        <ele>82.2</ele>
        <time>2020-06-24T10:40:55Z</time>
      </trkpt>
      <trkpt lat="50.33077" lon="3.6618">
        <ele>82.3</ele>
        <time>2020-06-24T10:40:56Z</time>
      </trkpt>
      <trkpt lat="50.33075" lon="3.66189">
        <ele>82.4</ele>
        <time>2020-06-24T10:40:57Z</time>
      </trkpt>
      <trkpt lat="50.33074" lon="3.66195">
        <ele>82.5</ele>
        <time>2020-06-24T10:40:58Z</time>
      </trkpt>
      <trkpt lat="50.33074" lon="3.66201">
        <ele>82.6</ele>
        <time>2020-06-24T10:40:59Z</time>
      </trkpt>
      <trkpt lat="50.33073" lon="3.66206">
        <ele>82.6</ele>
        <time>2020-06-24T10:41:00Z</time>
      </trkpt>
      <trkpt lat="50.33071" lon="3.66211">
        <ele>82.7</ele>
        <time>2020-06-24T10:41:01Z</time>
      </trkpt>
      <trkpt lat="50.33069" lon="3.66219">
        <ele>82.9</ele>
        <time>2020-06-24T10:41:02Z</time>
      </trkpt>
      <trkpt lat="50.33066" lon="3.66227">
        <ele>83</ele>
        <time>2020-06-24T10:41:03Z</time>
      </trkpt>
      <trkpt lat="50.33065" lon="3.66231">
        <ele>83.1</ele>
        <time>2020-06-24T10:41:04Z</time>
      </trkpt>
      <trkpt lat="50.33063" lon="3.66235">
        <ele>83.2</ele>
        <time>2020-06-24T10:41:05Z</time>
      </trkpt>
      <trkpt lat="50.33061" lon="3.66241">
        <ele>83.3</ele>
        <time>2020-06-24T10:41:06Z</time>
      </trkpt>
      <trkpt lat="50.3306" lon="3.66248">
        <ele>83.4</ele>
        <time>2020-06-24T10:41:07Z</time>
      </trkpt>
      <trkpt lat="50.33058" lon="3.66254">
        <ele>83.5</ele>
        <time>2020-06-24T10:41:08Z</time>
      </trkpt>
      <trkpt lat="50.33056" lon="3.66259">
        <ele>83.6</ele>
        <time>2020-06-24T10:41:09Z</time>
      </trkpt>
      <trkpt lat="50.33053" lon="3.66269">
        <ele>83.8</ele>
        <time>2020-06-24T10:41:10Z</time>
      </trkpt>
      <trkpt lat="50.33051" lon="3.66275">
        <ele>83.9</ele>
        <time>2020-06-24T10:41:11Z</time>
      </trkpt>
      <trkpt lat="50.33048" lon="3.66281">
        <ele>84</ele>
        <time>2020-06-24T10:41:12Z</time>
      </trkpt>
      <trkpt lat="50.33047" lon="3.66285">
        <ele>84.1</ele>
        <time>2020-06-24T10:41:13Z</time>
      </trkpt>
      <trkpt lat="50.33045" lon="3.66292">
        <ele>84.2</ele>
        <time>2020-06-24T10:41:14Z</time>
      </trkpt>
      <trkpt lat="50.33044" lon="3.66297">
        <ele>84.2</ele>
        <time>2020-06-24T10:41:15Z</time>
      </trkpt>
      <trkpt lat="50.33043" lon="3.66301">
        <ele>84.3</ele>
        <time>2020-06-24T10:41:16Z</time>
      </trkpt>
      <trkpt lat="50.33041" lon="3.66308">
        <ele>84.4</ele>
        <time>2020-06-24T10:41:17Z</time>
      </trkpt>
      <trkpt lat="50.33039" lon="3.66314">
        <ele>84.5</ele>
        <time>2020-06-24T10:41:18Z</time>
      </trkpt>
      <trkpt lat="50.33038" lon="3.66319">
        <ele>84.6</ele>
        <time>2020-06-24T10:41:19Z</time>
      </trkpt>
      <trkpt lat="50.33038" lon="3.66326">
        <ele>84.6</ele>
        <time>2020-06-24T10:41:20Z</time>
      </trkpt>
      <trkpt lat="50.33036" lon="3.66334">
        <ele>84.8</ele>
        <time>2020-06-24T10:41:21Z</time>
      </trkpt>
      <trkpt lat="50.33034" lon="3.66338">
        <ele>84.8</ele>
        <time>2020-06-24T10:41:22Z</time>
      </trkpt>
      <trkpt lat="50.33032" lon="3.66341">
        <ele>84.9</ele>
        <time>2020-06-24T10:41:23Z</time>
      </trkpt>
      <trkpt lat="50.33029" lon="3.66347">
        <ele>85</ele>
        <time>2020-06-24T10:41:24Z</time>
      </trkpt>
      <trkpt lat="50.33026" lon="3.66352">
        <ele>85</ele>
        <time>2020-06-24T10:41:25Z</time>
      </trkpt>
      <trkpt lat="50.33024" lon="3.66358">
        <ele>85.1</ele>
        <time>2020-06-24T10:41:26Z</time>
      </trkpt>
      <trkpt lat="50.33022" lon="3.66364">
        <ele>85.1</ele>
        <time>2020-06-24T10:41:27Z</time>
      </trkpt>
      <trkpt lat="50.33019" lon="3.6637">
        <ele>85.2</ele>
        <time>2020-06-24T10:41:28Z</time>
      </trkpt>
      <trkpt lat="50.33016" lon="3.66375">
        <ele>85.2</ele>
        <time>2020-06-24T10:41:29Z</time>
      </trkpt>
      <trkpt lat="50.33012" lon="3.66381">
        <ele>85.3</ele>
        <time>2020-06-24T10:41:30Z</time>
      </trkpt>
      <trkpt lat="50.33008" lon="3.66389">
        <ele>85.4</ele>
        <time>2020-06-24T10:41:31Z</time>
      </trkpt>
      <trkpt lat="50.33005" lon="3.66393">
        <ele>85.4</ele>
        <time>2020-06-24T10:41:32Z</time>
      </trkpt>
      <trkpt lat="50.33002" lon="3.66399">
        <ele>85.4</ele>
        <time>2020-06-24T10:41:33Z</time>
      </trkpt>
      <trkpt lat="50.32999" lon="3.66404">
        <ele>85.4</ele>
        <time>2020-06-24T10:41:34Z</time>
      </trkpt>
      <trkpt lat="50.32995" lon="3.66411">
        <ele>85.4</ele>
        <time>2020-06-24T10:41:35Z</time>
      </trkpt>
      <trkpt lat="50.32992" lon="3.66416">
        <ele>85.3</ele>
        <time>2020-06-24T10:41:36Z</time>
      </trkpt>
      <trkpt lat="50.32987" lon="3.66422">
        <ele>85.3</ele>
        <time>2020-06-24T10:41:37Z</time>
      </trkpt>
      <trkpt lat="50.32983" lon="3.66431">
        <ele>85.2</ele>
        <time>2020-06-24T10:41:38Z</time>
      </trkpt>
      <trkpt lat="50.32978" lon="3.66437">
        <ele>85.2</ele>
        <time>2020-06-24T10:41:39Z</time>
      </trkpt>
      <trkpt lat="50.32974" lon="3.66443">
        <ele>85.1</ele>
        <time>2020-06-24T10:41:40Z</time>
      </trkpt>
      <trkpt lat="50.3297" lon="3.66449">
        <ele>85.1</ele>
        <time>2020-06-24T10:41:41Z</time>
      </trkpt>
      <trkpt lat="50.32965" lon="3.66455">
        <ele>85</ele>
        <time>2020-06-24T10:41:42Z</time>
      </trkpt>
      <trkpt lat="50.32961" lon="3.66461">
        <ele>85</ele>
        <time>2020-06-24T10:41:43Z</time>
      </trkpt>
      <trkpt lat="50.32957" lon="3.66467">
        <ele>85</ele>
        <time>2020-06-24T10:41:44Z</time>
      </trkpt>
      <trkpt lat="50.32953" lon="3.66472">
        <ele>85</ele>
        <time>2020-06-24T10:41:45Z</time>
      </trkpt>
      <trkpt lat="50.32949" lon="3.66478">
        <ele>84.9</ele>
        <time>2020-06-24T10:41:46Z</time>
      </trkpt>
      <trkpt lat="50.32945" lon="3.66485">
        <ele>84.9</ele>
        <time>2020-06-24T10:41:47Z</time>
      </trkpt>
      <trkpt lat="50.32942" lon="3.66493">
        <ele>84.8</ele>
        <time>2020-06-24T10:41:48Z</time>
      </trkpt>
      <trkpt lat="50.32938" lon="3.665">
        <ele>84.8</ele>
        <time>2020-06-24T10:41:49Z</time>
      </trkpt>
      <trkpt lat="50.32934" lon="3.66506">
        <ele>84.8</ele>
        <time>2020-06-24T10:41:50Z</time>
      </trkpt>
      <trkpt lat="50.32931" lon="3.66514">
        <ele>84.8</ele>
        <time>2020-06-24T10:41:51Z</time>
      </trkpt>
      <trkpt lat="50.32927" lon="3.66521">
        <ele>84.7</ele>
        <time>2020-06-24T10:41:52Z</time>
      </trkpt>
      <trkpt lat="50.32924" lon="3.66529">
        <ele>84.7</ele>
        <time>2020-06-24T10:41:53Z</time>
      </trkpt>
      <trkpt lat="50.3292" lon="3.66538">
        <ele>84.7</ele>
        <time>2020-06-24T10:41:54Z</time>
      </trkpt>
      <trkpt lat="50.32916" lon="3.66546">
        <ele>84.7</ele>
        <time>2020-06-24T10:41:55Z</time>
      </trkpt>
      <trkpt lat="50.32912" lon="3.66554">
        <ele>84.7</ele>
        <time>2020-06-24T10:41:56Z</time>
      </trkpt>
      <trkpt lat="50.32908" lon="3.66561">
        <ele>84.7</ele>
        <time>2020-06-24T10:41:57Z</time>
      </trkpt>
      <trkpt lat="50.32905" lon="3.66567">
        <ele>84.7</ele>
        <time>2020-06-24T10:41:58Z</time>
      </trkpt>
      <trkpt lat="50.32901" lon="3.66575">
        <ele>84.8</ele>
        <time>2020-06-24T10:41:59Z</time>
      </trkpt>
      <trkpt lat="50.32897" lon="3.66581">
        <ele>84.9</ele>
        <time>2020-06-24T10:42:00Z</time>
      </trkpt>
      <trkpt lat="50.32895" lon="3.66587">
        <ele>85</ele>
        <time>2020-06-24T10:42:01Z</time>
      </trkpt>
      <trkpt lat="50.32892" lon="3.66593">
        <ele>85</ele>
        <time>2020-06-24T10:42:02Z</time>
      </trkpt>
      <trkpt lat="50.32889" lon="3.666">
        <ele>85.1</ele>
        <time>2020-06-24T10:42:03Z</time>
      </trkpt>
      <trkpt lat="50.32885" lon="3.66607">
        <ele>85.2</ele>
        <time>2020-06-24T10:42:04Z</time>
      </trkpt>
      <trkpt lat="50.32881" lon="3.66612">
        <ele>85.2</ele>
        <time>2020-06-24T10:42:05Z</time>
      </trkpt>
      <trkpt lat="50.32878" lon="3.66619">
        <ele>85.2</ele>
        <time>2020-06-24T10:42:06Z</time>
      </trkpt>
      <trkpt lat="50.32874" lon="3.66626">
        <ele>85.3</ele>
        <time>2020-06-24T10:42:07Z</time>
      </trkpt>
      <trkpt lat="50.32871" lon="3.66632">
        <ele>85.3</ele>
        <time>2020-06-24T10:42:08Z</time>
      </trkpt>
      <trkpt lat="50.32866" lon="3.66638">
        <ele>85.3</ele>
        <time>2020-06-24T10:42:09Z</time>
      </trkpt>
      <trkpt lat="50.32861" lon="3.66644">
        <ele>85.4</ele>
        <time>2020-06-24T10:42:10Z</time>
      </trkpt>
      <trkpt lat="50.32858" lon="3.6665">
        <ele>85.5</ele>
        <time>2020-06-24T10:42:11Z</time>
      </trkpt>
      <trkpt lat="50.32853" lon="3.66657">
        <ele>85.5</ele>
        <time>2020-06-24T10:42:12Z</time>
      </trkpt>
      <trkpt lat="50.32848" lon="3.66663">
        <ele>85.6</ele>
        <time>2020-06-24T10:42:13Z</time>
      </trkpt>
      <trkpt lat="50.32844" lon="3.66668">
        <ele>85.7</ele>
        <time>2020-06-24T10:42:14Z</time>
      </trkpt>
      <trkpt lat="50.3284" lon="3.66673">
        <ele>85.8</ele>
        <time>2020-06-24T10:42:15Z</time>
      </trkpt>
      <trkpt lat="50.32837" lon="3.6668">
        <ele>85.9</ele>
        <time>2020-06-24T10:42:16Z</time>
      </trkpt>
      <trkpt lat="50.32834" lon="3.66684">
        <ele>85.9</ele>
        <time>2020-06-24T10:42:17Z</time>
      </trkpt>
      <trkpt lat="50.32829" lon="3.66691">
        <ele>86.1</ele>
        <time>2020-06-24T10:42:18Z</time>
      </trkpt>
      <trkpt lat="50.32824" lon="3.66697">
        <ele>86.1</ele>
        <time>2020-06-24T10:42:19Z</time>
      </trkpt>
      <trkpt lat="50.32819" lon="3.667">
        <ele>86.2</ele>
        <time>2020-06-24T10:42:20Z</time>
      </trkpt>
      <trkpt lat="50.32814" lon="3.66704">
        <ele>86.3</ele>
        <time>2020-06-24T10:42:21Z</time>
      </trkpt>
      <trkpt lat="50.32809" lon="3.66707">
        <ele>86.3</ele>
        <time>2020-06-24T10:42:22Z</time>
      </trkpt>
      <trkpt lat="50.32805" lon="3.66713">
        <ele>86.4</ele>
        <time>2020-06-24T10:42:23Z</time>
      </trkpt>
      <trkpt lat="50.32801" lon="3.66717">
        <ele>86.4</ele>
        <time>2020-06-24T10:42:24Z</time>
      </trkpt>
      <trkpt lat="50.32797" lon="3.66722">
        <ele>86.5</ele>
        <time>2020-06-24T10:42:25Z</time>
      </trkpt>
      <trkpt lat="50.32793" lon="3.66728">
        <ele>86.5</ele>
        <time>2020-06-24T10:42:26Z</time>
      </trkpt>
      <trkpt lat="50.3279" lon="3.66734">
        <ele>86.6</ele>
        <time>2020-06-24T10:42:27Z</time>
      </trkpt>
      <trkpt lat="50.32786" lon="3.66738">
        <ele>86.6</ele>
        <time>2020-06-24T10:42:28Z</time>
      </trkpt>
      <trkpt lat="50.32783" lon="3.66743">
        <ele>86.7</ele>
        <time>2020-06-24T10:42:29Z</time>
      </trkpt>
      <trkpt lat="50.32779" lon="3.66747">
        <ele>86.7</ele>
        <time>2020-06-24T10:42:30Z</time>
      </trkpt>
      <trkpt lat="50.32775" lon="3.66752">
        <ele>86.7</ele>
        <time>2020-06-24T10:42:31Z</time>
      </trkpt>
      <trkpt lat="50.32771" lon="3.66759">
        <ele>86.7</ele>
        <time>2020-06-24T10:42:32Z</time>
      </trkpt>
      <trkpt lat="50.32768" lon="3.66764">
        <ele>86.7</ele>
        <time>2020-06-24T10:42:33Z</time>
      </trkpt>
      <trkpt lat="50.32764" lon="3.66771">
        <ele>86.8</ele>
        <time>2020-06-24T10:42:34Z</time>
      </trkpt>
      <trkpt lat="50.3276" lon="3.66779">
        <ele>86.8</ele>
        <time>2020-06-24T10:42:35Z</time>
      </trkpt>
      <trkpt lat="50.32756" lon="3.66784">
        <ele>86.8</ele>
        <time>2020-06-24T10:42:36Z</time>
      </trkpt>
      <trkpt lat="50.32752" lon="3.6679">
        <ele>86.8</ele>
        <time>2020-06-24T10:42:37Z</time>
      </trkpt>
      <trkpt lat="50.32747" lon="3.66797">
        <ele>86.9</ele>
        <time>2020-06-24T10:42:38Z</time>
      </trkpt>
      <trkpt lat="50.32744" lon="3.66803">
        <ele>86.9</ele>
        <time>2020-06-24T10:42:39Z</time>
      </trkpt>
      <trkpt lat="50.32741" lon="3.66809">
        <ele>86.9</ele>
        <time>2020-06-24T10:42:40Z</time>
      </trkpt>
      <trkpt lat="50.32737" lon="3.66815">
        <ele>86.9</ele>
        <time>2020-06-24T10:42:41Z</time>
      </trkpt>
      <trkpt lat="50.32734" lon="3.66821">
        <ele>87</ele>
        <time>2020-06-24T10:42:42Z</time>
      </trkpt>
      <trkpt lat="50.3273" lon="3.66828">
        <ele>87</ele>
        <time>2020-06-24T10:42:43Z</time>
      </trkpt>
      <trkpt lat="50.32726" lon="3.66835">
        <ele>87</ele>
        <time>2020-06-24T10:42:44Z</time>
      </trkpt>
      <trkpt lat="50.32723" lon="3.66841">
        <ele>87</ele>
        <time>2020-06-24T10:42:45Z</time>
      </trkpt>
      <trkpt lat="50.3272" lon="3.66847">
        <ele>87</ele>
        <time>2020-06-24T10:42:46Z</time>
      </trkpt>
      <trkpt lat="50.32717" lon="3.66854">
        <ele>87</ele>
        <time>2020-06-24T10:42:47Z</time>
      </trkpt>
      <trkpt lat="50.32714" lon="3.6686">
        <ele>87</ele>
        <time>2020-06-24T10:42:48Z</time>
      </trkpt>
      <trkpt lat="50.3271" lon="3.66867">
        <ele>87.1</ele>
        <time>2020-06-24T10:42:49Z</time>
      </trkpt>
      <trkpt lat="50.32706" lon="3.66874">
        <ele>87.1</ele>
        <time>2020-06-24T10:42:50Z</time>
      </trkpt>
      <trkpt lat="50.32703" lon="3.6688">
        <ele>87.2</ele>
        <time>2020-06-24T10:42:51Z</time>
      </trkpt>
      <trkpt lat="50.32699" lon="3.66887">
        <ele>87.3</ele>
        <time>2020-06-24T10:42:52Z</time>
      </trkpt>
      <trkpt lat="50.32696" lon="3.66892">
        <ele>87.3</ele>
        <time>2020-06-24T10:42:53Z</time>
      </trkpt>
      <trkpt lat="50.32692" lon="3.66899">
        <ele>87.4</ele>
        <time>2020-06-24T10:42:54Z</time>
      </trkpt>
      <trkpt lat="50.32688" lon="3.66905">
        <ele>87.5</ele>
        <time>2020-06-24T10:42:55Z</time>
      </trkpt>
      <trkpt lat="50.32683" lon="3.6691">
        <ele>87.5</ele>
        <time>2020-06-24T10:42:56Z</time>
      </trkpt>
      <trkpt lat="50.32678" lon="3.66915">
        <ele>87.6</ele>
        <time>2020-06-24T10:42:57Z</time>
      </trkpt>
      <trkpt lat="50.32673" lon="3.6692">
        <ele>87.6</ele>
        <time>2020-06-24T10:42:58Z</time>
      </trkpt>
      <trkpt lat="50.32668" lon="3.66926">
        <ele>87.6</ele>
        <time>2020-06-24T10:42:59Z</time>
      </trkpt>
      <trkpt lat="50.32664" lon="3.66931">
        <ele>87.7</ele>
        <time>2020-06-24T10:43:00Z</time>
      </trkpt>
      <trkpt lat="50.3266" lon="3.66936">
        <ele>87.7</ele>
        <time>2020-06-24T10:43:01Z</time>
      </trkpt>
      <trkpt lat="50.32656" lon="3.66941">
        <ele>87.7</ele>
        <time>2020-06-24T10:43:02Z</time>
      </trkpt>
      <trkpt lat="50.32652" lon="3.66945">
        <ele>87.8</ele>
        <time>2020-06-24T10:43:03Z</time>
      </trkpt>
      <trkpt lat="50.32647" lon="3.66949">
        <ele>87.8</ele>
        <time>2020-06-24T10:43:04Z</time>
      </trkpt>
      <trkpt lat="50.32643" lon="3.66953">
        <ele>87.9</ele>
        <time>2020-06-24T10:43:05Z</time>
      </trkpt>
      <trkpt lat="50.32639" lon="3.66957">
        <ele>87.9</ele>
        <time>2020-06-24T10:43:06Z</time>
      </trkpt>
      <trkpt lat="50.32635" lon="3.66961">
        <ele>87.9</ele>
        <time>2020-06-24T10:43:07Z</time>
      </trkpt>
      <trkpt lat="50.32632" lon="3.66965">
        <ele>88</ele>
        <time>2020-06-24T10:43:08Z</time>
      </trkpt>
      <trkpt lat="50.32628" lon="3.66968">
        <ele>88</ele>
        <time>2020-06-24T10:43:09Z</time>
      </trkpt>
      <trkpt lat="50.32623" lon="3.66973">
        <ele>88</ele>
        <time>2020-06-24T10:43:10Z</time>
      </trkpt>
      <trkpt lat="50.3262" lon="3.66977">
        <ele>88.1</ele>
        <time>2020-06-24T10:43:11Z</time>
      </trkpt>
      <trkpt lat="50.32616" lon="3.66982">
        <ele>88.1</ele>
        <time>2020-06-24T10:43:12Z</time>
      </trkpt>
      <trkpt lat="50.32612" lon="3.66986">
        <ele>88.1</ele>
        <time>2020-06-24T10:43:13Z</time>
      </trkpt>
      <trkpt lat="50.32608" lon="3.6699">
        <ele>88.2</ele>
        <time>2020-06-24T10:43:14Z</time>
      </trkpt>
      <trkpt lat="50.32604" lon="3.66994">
        <ele>88.2</ele>
        <time>2020-06-24T10:43:15Z</time>
      </trkpt>
      <trkpt lat="50.32599" lon="3.66997">
        <ele>88.2</ele>
        <time>2020-06-24T10:43:16Z</time>
      </trkpt>
      <trkpt lat="50.32595" lon="3.67002">
        <ele>88.3</ele>
        <time>2020-06-24T10:43:17Z</time>
      </trkpt>
      <trkpt lat="50.3259" lon="3.67007">
        <ele>88.3</ele>
        <time>2020-06-24T10:43:18Z</time>
      </trkpt>
      <trkpt lat="50.32585" lon="3.67013">
        <ele>88.3</ele>
        <time>2020-06-24T10:43:19Z</time>
      </trkpt>
      <trkpt lat="50.32581" lon="3.67019">
        <ele>88.3</ele>
        <time>2020-06-24T10:43:20Z</time>
      </trkpt>
      <trkpt lat="50.32576" lon="3.67024">
        <ele>88.3</ele>
        <time>2020-06-24T10:43:21Z</time>
      </trkpt>
      <trkpt lat="50.32571" lon="3.67031">
        <ele>88.3</ele>
        <time>2020-06-24T10:43:22Z</time>
      </trkpt>
      <trkpt lat="50.32567" lon="3.67037">
        <ele>88.3</ele>
        <time>2020-06-24T10:43:23Z</time>
      </trkpt>
      <trkpt lat="50.32562" lon="3.67043">
        <ele>88.3</ele>
        <time>2020-06-24T10:43:24Z</time>
      </trkpt>
      <trkpt lat="50.32558" lon="3.67048">
        <ele>88.2</ele>
        <time>2020-06-24T10:43:25Z</time>
      </trkpt>
      <trkpt lat="50.32554" lon="3.67052">
        <ele>88.1</ele>
        <time>2020-06-24T10:43:26Z</time>
      </trkpt>
      <trkpt lat="50.3255" lon="3.67056">
        <ele>88.1</ele>
        <time>2020-06-24T10:43:27Z</time>
      </trkpt>
      <trkpt lat="50.32546" lon="3.6706">
        <ele>87.8</ele>
        <time>2020-06-24T10:43:28Z</time>
      </trkpt>
      <trkpt lat="50.32541" lon="3.67063">
        <ele>87.8</ele>
        <time>2020-06-24T10:43:29Z</time>
      </trkpt>
      <trkpt lat="50.32537" lon="3.67066">
        <ele>87.8</ele>
        <time>2020-06-24T10:43:30Z</time>
      </trkpt>
      <trkpt lat="50.32532" lon="3.67069">
        <ele>87.8</ele>
        <time>2020-06-24T10:43:31Z</time>
      </trkpt>
      <trkpt lat="50.32528" lon="3.67073">
        <ele>87.8</ele>
        <time>2020-06-24T10:43:32Z</time>
      </trkpt>
      <trkpt lat="50.32523" lon="3.67079">
        <ele>87.8</ele>
        <time>2020-06-24T10:43:33Z</time>
      </trkpt>
      <trkpt lat="50.32518" lon="3.67085">
        <ele>87.9</ele>
        <time>2020-06-24T10:43:34Z</time>
      </trkpt>
      <trkpt lat="50.32514" lon="3.67091">
        <ele>87.9</ele>
        <time>2020-06-24T10:43:35Z</time>
      </trkpt>
      <trkpt lat="50.3251" lon="3.67096">
        <ele>88</ele>
        <time>2020-06-24T10:43:36Z</time>
      </trkpt>
      <trkpt lat="50.32506" lon="3.67101">
        <ele>88.1</ele>
        <time>2020-06-24T10:43:37Z</time>
      </trkpt>
      <trkpt lat="50.32503" lon="3.67107">
        <ele>88.2</ele>
        <time>2020-06-24T10:43:38Z</time>
      </trkpt>
      <trkpt lat="50.32499" lon="3.67112">
        <ele>88.3</ele>
        <time>2020-06-24T10:43:39Z</time>
      </trkpt>
      <trkpt lat="50.32496" lon="3.67118">
        <ele>88.4</ele>
        <time>2020-06-24T10:43:40Z</time>
      </trkpt>
      <trkpt lat="50.32492" lon="3.67126">
        <ele>88.5</ele>
        <time>2020-06-24T10:43:41Z</time>
      </trkpt>
      <trkpt lat="50.32489" lon="3.67132">
        <ele>88.6</ele>
        <time>2020-06-24T10:43:42Z</time>
      </trkpt>
      <trkpt lat="50.32485" lon="3.67138">
        <ele>88.7</ele>
        <time>2020-06-24T10:43:43Z</time>
      </trkpt>
      <trkpt lat="50.32482" lon="3.67144">
        <ele>88.9</ele>
        <time>2020-06-24T10:43:44Z</time>
      </trkpt>
      <trkpt lat="50.32479" lon="3.67151">
        <ele>89</ele>
        <time>2020-06-24T10:43:45Z</time>
      </trkpt>
      <trkpt lat="50.32475" lon="3.67156">
        <ele>89.1</ele>
        <time>2020-06-24T10:43:46Z</time>
      </trkpt>
      <trkpt lat="50.32471" lon="3.67162">
        <ele>89.3</ele>
        <time>2020-06-24T10:43:47Z</time>
      </trkpt>
      <trkpt lat="50.32468" lon="3.67167">
        <ele>89.4</ele>
        <time>2020-06-24T10:43:48Z</time>
      </trkpt>
      <trkpt lat="50.32465" lon="3.67173">
        <ele>89.6</ele>
        <time>2020-06-24T10:43:49Z</time>
      </trkpt>
      <trkpt lat="50.32462" lon="3.67179">
        <ele>89.7</ele>
        <time>2020-06-24T10:43:50Z</time>
      </trkpt>
      <trkpt lat="50.32459" lon="3.67185">
        <ele>89.8</ele>
        <time>2020-06-24T10:43:51Z</time>
      </trkpt>
      <trkpt lat="50.32455" lon="3.6719">
        <ele>90</ele>
        <time>2020-06-24T10:43:52Z</time>
      </trkpt>
      <trkpt lat="50.32452" lon="3.67198">
        <ele>90.1</ele>
        <time>2020-06-24T10:43:53Z</time>
      </trkpt>
      <trkpt lat="50.32448" lon="3.67203">
        <ele>90.2</ele>
        <time>2020-06-24T10:43:54Z</time>
      </trkpt>
      <trkpt lat="50.32445" lon="3.67207">
        <ele>90.3</ele>
        <time>2020-06-24T10:43:55Z</time>
      </trkpt>
      <trkpt lat="50.32442" lon="3.67212">
        <ele>90.4</ele>
        <time>2020-06-24T10:43:56Z</time>
      </trkpt>
      <trkpt lat="50.32439" lon="3.67217">
        <ele>90.5</ele>
        <time>2020-06-24T10:43:57Z</time>
      </trkpt>
      <trkpt lat="50.32435" lon="3.67223">
        <ele>90.6</ele>
        <time>2020-06-24T10:43:58Z</time>
      </trkpt>
      <trkpt lat="50.32431" lon="3.67228">
        <ele>90.7</ele>
        <time>2020-06-24T10:43:59Z</time>
      </trkpt>
      <trkpt lat="50.32428" lon="3.67234">
        <ele>90.8</ele>
        <time>2020-06-24T10:44:00Z</time>
      </trkpt>
      <trkpt lat="50.32424" lon="3.6724">
        <ele>90.9</ele>
        <time>2020-06-24T10:44:01Z</time>
      </trkpt>
      <trkpt lat="50.32421" lon="3.67246">
        <ele>91</ele>
        <time>2020-06-24T10:44:02Z</time>
      </trkpt>
      <trkpt lat="50.32418" lon="3.67252">
        <ele>91</ele>
        <time>2020-06-24T10:44:03Z</time>
      </trkpt>
      <trkpt lat="50.32415" lon="3.67256">
        <ele>91.1</ele>
        <time>2020-06-24T10:44:04Z</time>
      </trkpt>
      <trkpt lat="50.32411" lon="3.67262">
        <ele>91.2</ele>
        <time>2020-06-24T10:44:05Z</time>
      </trkpt>
      <trkpt lat="50.32408" lon="3.67269">
        <ele>91.3</ele>
        <time>2020-06-24T10:44:06Z</time>
      </trkpt>
      <trkpt lat="50.32404" lon="3.67275">
        <ele>91.3</ele>
        <time>2020-06-24T10:44:07Z</time>
      </trkpt>
      <trkpt lat="50.32401" lon="3.67281">
        <ele>91.4</ele>
        <time>2020-06-24T10:44:08Z</time>
      </trkpt>
      <trkpt lat="50.32397" lon="3.67288">
        <ele>91.4</ele>
        <time>2020-06-24T10:44:09Z</time>
      </trkpt>
      <trkpt lat="50.32393" lon="3.67295">
        <ele>91.4</ele>
        <time>2020-06-24T10:44:10Z</time>
      </trkpt>
      <trkpt lat="50.32389" lon="3.67301">
        <ele>91.4</ele>
        <time>2020-06-24T10:44:11Z</time>
      </trkpt>
      <trkpt lat="50.32386" lon="3.67308">
        <ele>91.4</ele>
        <time>2020-06-24T10:44:12Z</time>
      </trkpt>
      <trkpt lat="50.32382" lon="3.67313">
        <ele>91.4</ele>
        <time>2020-06-24T10:44:13Z</time>
      </trkpt>
      <trkpt lat="50.32379" lon="3.67321">
        <ele>91.5</ele>
        <time>2020-06-24T10:44:14Z</time>
      </trkpt>
      <trkpt lat="50.32376" lon="3.67326">
        <ele>91.5</ele>
        <time>2020-06-24T10:44:15Z</time>
      </trkpt>
      <trkpt lat="50.32372" lon="3.67332">
        <ele>91.5</ele>
        <time>2020-06-24T10:44:16Z</time>
      </trkpt>
      <trkpt lat="50.32369" lon="3.67339">
        <ele>91.6</ele>
        <time>2020-06-24T10:44:17Z</time>
      </trkpt>
      <trkpt lat="50.32366" lon="3.67346">
        <ele>91.6</ele>
        <time>2020-06-24T10:44:18Z</time>
      </trkpt>
      <trkpt lat="50.32363" lon="3.67354">
        <ele>91.6</ele>
        <time>2020-06-24T10:44:19Z</time>
      </trkpt>
      <trkpt lat="50.32359" lon="3.67362">
        <ele>91.6</ele>
        <time>2020-06-24T10:44:20Z</time>
      </trkpt>
      <trkpt lat="50.32356" lon="3.67368">
        <ele>91.6</ele>
        <time>2020-06-24T10:44:21Z</time>
      </trkpt>
      <trkpt lat="50.32353" lon="3.67375">
        <ele>91.6</ele>
        <time>2020-06-24T10:44:22Z</time>
      </trkpt>
      <trkpt lat="50.32349" lon="3.67381">
        <ele>91.6</ele>
        <time>2020-06-24T10:44:23Z</time>
      </trkpt>
      <trkpt lat="50.32346" lon="3.67387">
        <ele>91.6</ele>
        <time>2020-06-24T10:44:24Z</time>
      </trkpt>
      <trkpt lat="50.32343" lon="3.67394">
        <ele>91.6</ele>
        <time>2020-06-24T10:44:25Z</time>
      </trkpt>
      <trkpt lat="50.3234" lon="3.67401">
        <ele>91.6</ele>
        <time>2020-06-24T10:44:26Z</time>
      </trkpt>
      <trkpt lat="50.32337" lon="3.67408">
        <ele>91.7</ele>
        <time>2020-06-24T10:44:27Z</time>
      </trkpt>
      <trkpt lat="50.32335" lon="3.67415">
        <ele>91.7</ele>
        <time>2020-06-24T10:44:28Z</time>
      </trkpt>
      <trkpt lat="50.32332" lon="3.67422">
        <ele>91.7</ele>
        <time>2020-06-24T10:44:29Z</time>
      </trkpt>
      <trkpt lat="50.32329" lon="3.67429">
        <ele>91.8</ele>
        <time>2020-06-24T10:44:30Z</time>
      </trkpt>
      <trkpt lat="50.32326" lon="3.67437">
        <ele>91.8</ele>
        <time>2020-06-24T10:44:31Z</time>
      </trkpt>
      <trkpt lat="50.32324" lon="3.67445">
        <ele>91.9</ele>
        <time>2020-06-24T10:44:32Z</time>
      </trkpt>
      <trkpt lat="50.32321" lon="3.67452">
        <ele>91.9</ele>
        <time>2020-06-24T10:44:33Z</time>
      </trkpt>
      <trkpt lat="50.32319" lon="3.67459">
        <ele>92</ele>
        <time>2020-06-24T10:44:34Z</time>
      </trkpt>
      <trkpt lat="50.32316" lon="3.67466">
        <ele>92.1</ele>
        <time>2020-06-24T10:44:35Z</time>
      </trkpt>
      <trkpt lat="50.32313" lon="3.67474">
        <ele>92.2</ele>
        <time>2020-06-24T10:44:36Z</time>
      </trkpt>
      <trkpt lat="50.32311" lon="3.67481">
        <ele>92.3</ele>
        <time>2020-06-24T10:44:37Z</time>
      </trkpt>
      <trkpt lat="50.32309" lon="3.67488">
        <ele>92.4</ele>
        <time>2020-06-24T10:44:38Z</time>
      </trkpt>
      <trkpt lat="50.32307" lon="3.67496">
        <ele>92.4</ele>
        <time>2020-06-24T10:44:39Z</time>
      </trkpt>
      <trkpt lat="50.32304" lon="3.67503">
        <ele>92.5</ele>
        <time>2020-06-24T10:44:40Z</time>
      </trkpt>
      <trkpt lat="50.32303" lon="3.6751">
        <ele>92.6</ele>
        <time>2020-06-24T10:44:41Z</time>
      </trkpt>
      <trkpt lat="50.32301" lon="3.67517">
        <ele>92.6</ele>
        <time>2020-06-24T10:44:42Z</time>
      </trkpt>
      <trkpt lat="50.32298" lon="3.67524">
        <ele>92.7</ele>
        <time>2020-06-24T10:44:43Z</time>
      </trkpt>
      <trkpt lat="50.32295" lon="3.67532">
        <ele>92.7</ele>
        <time>2020-06-24T10:44:44Z</time>
      </trkpt>
      <trkpt lat="50.32293" lon="3.67539">
        <ele>92.8</ele>
        <time>2020-06-24T10:44:45Z</time>
      </trkpt>
      <trkpt lat="50.3229" lon="3.67546">
        <ele>92.8</ele>
        <time>2020-06-24T10:44:46Z</time>
      </trkpt>
      <trkpt lat="50.32288" lon="3.67553">
        <ele>92.9</ele>
        <time>2020-06-24T10:44:47Z</time>
      </trkpt>
      <trkpt lat="50.32285" lon="3.67559">
        <ele>93</ele>
        <time>2020-06-24T10:44:48Z</time>
      </trkpt>
      <trkpt lat="50.32283" lon="3.67566">
        <ele>93.1</ele>
        <time>2020-06-24T10:44:49Z</time>
      </trkpt>
      <trkpt lat="50.32281" lon="3.67574">
        <ele>93.1</ele>
        <time>2020-06-24T10:44:50Z</time>
      </trkpt>
      <trkpt lat="50.32279" lon="3.67581">
        <ele>93.2</ele>
        <time>2020-06-24T10:44:51Z</time>
      </trkpt>
      <trkpt lat="50.32276" lon="3.67588">
        <ele>93.3</ele>
        <time>2020-06-24T10:44:52Z</time>
      </trkpt>
      <trkpt lat="50.32274" lon="3.67595">
        <ele>93.4</ele>
        <time>2020-06-24T10:44:53Z</time>
      </trkpt>
      <trkpt lat="50.32272" lon="3.67604">
        <ele>93.5</ele>
        <time>2020-06-24T10:44:54Z</time>
      </trkpt>
      <trkpt lat="50.32269" lon="3.67612">
        <ele>93.6</ele>
        <time>2020-06-24T10:44:55Z</time>
      </trkpt>
      <trkpt lat="50.32267" lon="3.67619">
        <ele>93.6</ele>
        <time>2020-06-24T10:44:56Z</time>
      </trkpt>
      <trkpt lat="50.32265" lon="3.67625">
        <ele>93.7</ele>
        <time>2020-06-24T10:44:57Z</time>
      </trkpt>
      <trkpt lat="50.32263" lon="3.67632">
        <ele>93.7</ele>
        <time>2020-06-24T10:44:58Z</time>
      </trkpt>
      <trkpt lat="50.32261" lon="3.67639">
        <ele>93.8</ele>
        <time>2020-06-24T10:44:59Z</time>
      </trkpt>
      <trkpt lat="50.32258" lon="3.67645">
        <ele>93.8</ele>
        <time>2020-06-24T10:45:00Z</time>
      </trkpt>
      <trkpt lat="50.32255" lon="3.6765">
        <ele>93.9</ele>
        <time>2020-06-24T10:45:01Z</time>
      </trkpt>
      <trkpt lat="50.32253" lon="3.67657">
        <ele>93.9</ele>
        <time>2020-06-24T10:45:02Z</time>
      </trkpt>
      <trkpt lat="50.3225" lon="3.67663">
        <ele>94</ele>
        <time>2020-06-24T10:45:03Z</time>
      </trkpt>
      <trkpt lat="50.32247" lon="3.67669">
        <ele>94</ele>
        <time>2020-06-24T10:45:04Z</time>
      </trkpt>
      <trkpt lat="50.32244" lon="3.67676">
        <ele>94.1</ele>
        <time>2020-06-24T10:45:05Z</time>
      </trkpt>
      <trkpt lat="50.32241" lon="3.67683">
        <ele>94.1</ele>
        <time>2020-06-24T10:45:06Z</time>
      </trkpt>
      <trkpt lat="50.32237" lon="3.6769">
        <ele>94.1</ele>
        <time>2020-06-24T10:45:07Z</time>
      </trkpt>
      <trkpt lat="50.32234" lon="3.67695">
        <ele>94.2</ele>
        <time>2020-06-24T10:45:08Z</time>
      </trkpt>
      <trkpt lat="50.32231" lon="3.67701">
        <ele>94.2</ele>
        <time>2020-06-24T10:45:09Z</time>
      </trkpt>
      <trkpt lat="50.32229" lon="3.67706">
        <ele>94.2</ele>
        <time>2020-06-24T10:45:10Z</time>
      </trkpt>
      <trkpt lat="50.32226" lon="3.67713">
        <ele>94.2</ele>
        <time>2020-06-24T10:45:11Z</time>
      </trkpt>
      <trkpt lat="50.32223" lon="3.67719">
        <ele>94.3</ele>
        <time>2020-06-24T10:45:12Z</time>
      </trkpt>
      <trkpt lat="50.3222" lon="3.67726">
        <ele>94.3</ele>
        <time>2020-06-24T10:45:13Z</time>
      </trkpt>
      <trkpt lat="50.32216" lon="3.67733">
        <ele>94.3</ele>
        <time>2020-06-24T10:45:14Z</time>
      </trkpt>
      <trkpt lat="50.32212" lon="3.6774">
        <ele>94.3</ele>
        <time>2020-06-24T10:45:15Z</time>
      </trkpt>
      <trkpt lat="50.32209" lon="3.67746">
        <ele>94.4</ele>
        <time>2020-06-24T10:45:16Z</time>
      </trkpt>
      <trkpt lat="50.32205" lon="3.67752">
        <ele>94.3</ele>
        <time>2020-06-24T10:45:17Z</time>
      </trkpt>
      <trkpt lat="50.32201" lon="3.67759">
        <ele>94.3</ele>
        <time>2020-06-24T10:45:18Z</time>
      </trkpt>
      <trkpt lat="50.32198" lon="3.67766">
        <ele>94.3</ele>
        <time>2020-06-24T10:45:19Z</time>
      </trkpt>
      <trkpt lat="50.32195" lon="3.67775">
        <ele>94.3</ele>
        <time>2020-06-24T10:45:20Z</time>
      </trkpt>
      <trkpt lat="50.32192" lon="3.67783">
        <ele>94.3</ele>
        <time>2020-06-24T10:45:21Z</time>
      </trkpt>
      <trkpt lat="50.3219" lon="3.67792">
        <ele>94.3</ele>
        <time>2020-06-24T10:45:22Z</time>
      </trkpt>
      <trkpt lat="50.32187" lon="3.67801">
        <ele>94.3</ele>
        <time>2020-06-24T10:45:23Z</time>
      </trkpt>
      <trkpt lat="50.32185" lon="3.6781">
        <ele>94.4</ele>
        <time>2020-06-24T10:45:24Z</time>
      </trkpt>
      <trkpt lat="50.32182" lon="3.67818">
        <ele>94.5</ele>
        <time>2020-06-24T10:45:25Z</time>
      </trkpt>
      <trkpt lat="50.32179" lon="3.67825">
        <ele>94.6</ele>
        <time>2020-06-24T10:45:26Z</time>
      </trkpt>
      <trkpt lat="50.32177" lon="3.67832">
        <ele>94.7</ele>
        <time>2020-06-24T10:45:27Z</time>
      </trkpt>
      <trkpt lat="50.32175" lon="3.6784">
        <ele>94.8</ele>
        <time>2020-06-24T10:45:28Z</time>
      </trkpt>
      <trkpt lat="50.32172" lon="3.67849">
        <ele>94.9</ele>
        <time>2020-06-24T10:45:29Z</time>
      </trkpt>
      <trkpt lat="50.3217" lon="3.67857">
        <ele>95</ele>
        <time>2020-06-24T10:45:30Z</time>
      </trkpt>
      <trkpt lat="50.32168" lon="3.67865">
        <ele>95.1</ele>
        <time>2020-06-24T10:45:31Z</time>
      </trkpt>
      <trkpt lat="50.32167" lon="3.67873">
        <ele>95.1</ele>
        <time>2020-06-24T10:45:32Z</time>
      </trkpt>
      <trkpt lat="50.32164" lon="3.6788">
        <ele>95.2</ele>
        <time>2020-06-24T10:45:33Z</time>
      </trkpt>
      <trkpt lat="50.32163" lon="3.67889">
        <ele>95.3</ele>
        <time>2020-06-24T10:45:34Z</time>
      </trkpt>
      <trkpt lat="50.32161" lon="3.67896">
        <ele>95.4</ele>
        <time>2020-06-24T10:45:35Z</time>
      </trkpt>
      <trkpt lat="50.32159" lon="3.67903">
        <ele>95.5</ele>
        <time>2020-06-24T10:45:36Z</time>
      </trkpt>
      <trkpt lat="50.32157" lon="3.6791">
        <ele>95.6</ele>
        <time>2020-06-24T10:45:37Z</time>
      </trkpt>
      <trkpt lat="50.32155" lon="3.67918">
        <ele>95.7</ele>
        <time>2020-06-24T10:45:38Z</time>
      </trkpt>
      <trkpt lat="50.32153" lon="3.67925">
        <ele>95.7</ele>
        <time>2020-06-24T10:45:39Z</time>
      </trkpt>
      <trkpt lat="50.32152" lon="3.67932">
        <ele>95.8</ele>
        <time>2020-06-24T10:45:40Z</time>
      </trkpt>
      <trkpt lat="50.32151" lon="3.67939">
        <ele>95.8</ele>
        <time>2020-06-24T10:45:41Z</time>
      </trkpt>
      <trkpt lat="50.32149" lon="3.67946">
        <ele>95.9</ele>
        <time>2020-06-24T10:45:42Z</time>
      </trkpt>
      <trkpt lat="50.32147" lon="3.67954">
        <ele>96</ele>
        <time>2020-06-24T10:45:43Z</time>
      </trkpt>
      <trkpt lat="50.32146" lon="3.67961">
        <ele>96.1</ele>
        <time>2020-06-24T10:45:44Z</time>
      </trkpt>
      <trkpt lat="50.32144" lon="3.67968">
        <ele>96.1</ele>
        <time>2020-06-24T10:45:45Z</time>
      </trkpt>
      <trkpt lat="50.32142" lon="3.67977">
        <ele>96.2</ele>
        <time>2020-06-24T10:45:46Z</time>
      </trkpt>
      <trkpt lat="50.3214" lon="3.67982">
        <ele>96.3</ele>
        <time>2020-06-24T10:45:47Z</time>
      </trkpt>
      <trkpt lat="50.32138" lon="3.67988">
        <ele>96.4</ele>
        <time>2020-06-24T10:45:48Z</time>
      </trkpt>
      <trkpt lat="50.32136" lon="3.67995">
        <ele>96.5</ele>
        <time>2020-06-24T10:45:49Z</time>
      </trkpt>
      <trkpt lat="50.32134" lon="3.68004">
        <ele>96.5</ele>
        <time>2020-06-24T10:45:50Z</time>
      </trkpt>
      <trkpt lat="50.32131" lon="3.68011">
        <ele>96.6</ele>
        <time>2020-06-24T10:45:51Z</time>
      </trkpt>
      <trkpt lat="50.3213" lon="3.68018">
        <ele>96.7</ele>
        <time>2020-06-24T10:45:52Z</time>
      </trkpt>
      <trkpt lat="50.32128" lon="3.68023">
        <ele>96.8</ele>
        <time>2020-06-24T10:45:53Z</time>
      </trkpt>
      <trkpt lat="50.32126" lon="3.6803">
        <ele>96.9</ele>
        <time>2020-06-24T10:45:54Z</time>
      </trkpt>
      <trkpt lat="50.32124" lon="3.68037">
        <ele>97</ele>
        <time>2020-06-24T10:45:55Z</time>
      </trkpt>
      <trkpt lat="50.32122" lon="3.68042">
        <ele>97.1</ele>
        <time>2020-06-24T10:45:56Z</time>
      </trkpt>
      <trkpt lat="50.3212" lon="3.6805">
        <ele>97.3</ele>
        <time>2020-06-24T10:45:57Z</time>
      </trkpt>
      <trkpt lat="50.32119" lon="3.68057">
        <ele>97.4</ele>
        <time>2020-06-24T10:45:58Z</time>
      </trkpt>
      <trkpt lat="50.32117" lon="3.68066">
        <ele>97.6</ele>
        <time>2020-06-24T10:45:59Z</time>
      </trkpt>
      <trkpt lat="50.32115" lon="3.68072">
        <ele>97.7</ele>
        <time>2020-06-24T10:46:00Z</time>
      </trkpt>
      <trkpt lat="50.32115" lon="3.68079">
        <ele>97.8</ele>
        <time>2020-06-24T10:46:01Z</time>
      </trkpt>
      <trkpt lat="50.32114" lon="3.68085">
        <ele>98</ele>
        <time>2020-06-24T10:46:02Z</time>
      </trkpt>
      <trkpt lat="50.32113" lon="3.68092">
        <ele>98.1</ele>
        <time>2020-06-24T10:46:03Z</time>
      </trkpt>
      <trkpt lat="50.32111" lon="3.681">
        <ele>98.3</ele>
        <time>2020-06-24T10:46:04Z</time>
      </trkpt>
      <trkpt lat="50.3211" lon="3.68107">
        <ele>98.4</ele>
        <time>2020-06-24T10:46:05Z</time>
      </trkpt>
      <trkpt lat="50.32108" lon="3.68114">
        <ele>98.6</ele>
        <time>2020-06-24T10:46:06Z</time>
      </trkpt>
      <trkpt lat="50.32107" lon="3.68121">
        <ele>98.7</ele>
        <time>2020-06-24T10:46:07Z</time>
      </trkpt>
      <trkpt lat="50.32105" lon="3.68128">
        <ele>98.8</ele>
        <time>2020-06-24T10:46:08Z</time>
      </trkpt>
      <trkpt lat="50.32103" lon="3.68135">
        <ele>99</ele>
        <time>2020-06-24T10:46:09Z</time>
      </trkpt>
      <trkpt lat="50.32101" lon="3.68142">
        <ele>99.1</ele>
        <time>2020-06-24T10:46:10Z</time>
      </trkpt>
      <trkpt lat="50.32099" lon="3.68149">
        <ele>99.2</ele>
        <time>2020-06-24T10:46:11Z</time>
      </trkpt>
      <trkpt lat="50.32098" lon="3.68156">
        <ele>99.3</ele>
        <time>2020-06-24T10:46:12Z</time>
      </trkpt>
      <trkpt lat="50.32097" lon="3.68161">
        <ele>99.4</ele>
        <time>2020-06-24T10:46:13Z</time>
      </trkpt>
      <trkpt lat="50.32096" lon="3.68167">
        <ele>99.5</ele>
        <time>2020-06-24T10:46:14Z</time>
      </trkpt>
      <trkpt lat="50.32095" lon="3.68172">
        <ele>99.6</ele>
        <time>2020-06-24T10:46:15Z</time>
      </trkpt>
      <trkpt lat="50.32093" lon="3.68176">
        <ele>99.7</ele>
        <time>2020-06-24T10:46:16Z</time>
      </trkpt>
      <trkpt lat="50.32092" lon="3.68181">
        <ele>99.7</ele>
        <time>2020-06-24T10:46:17Z</time>
      </trkpt>
      <trkpt lat="50.3209" lon="3.68185">
        <ele>99.8</ele>
        <time>2020-06-24T10:46:18Z</time>
      </trkpt>
      <trkpt lat="50.32088" lon="3.68189">
        <ele>99.8</ele>
        <time>2020-06-24T10:46:19Z</time>
      </trkpt>
      <trkpt lat="50.32086" lon="3.68191">
        <ele>99.9</ele>
        <time>2020-06-24T10:46:20Z</time>
      </trkpt>
      <trkpt lat="50.32083" lon="3.68193">
        <ele>100</ele>
        <time>2020-06-24T10:46:21Z</time>
      </trkpt>
      <trkpt lat="50.32082" lon="3.68193">
        <ele>100</ele>
        <time>2020-06-24T10:46:22Z</time>
      </trkpt>
      <trkpt lat="50.3208" lon="3.68188">
        <ele>100</ele>
        <time>2020-06-24T10:46:23Z</time>
      </trkpt>
      <trkpt lat="50.32079" lon="3.68187">
        <ele>100</ele>
        <time>2020-06-24T10:46:24Z</time>
      </trkpt>
      <trkpt lat="50.32076" lon="3.68184">
        <ele>100</ele>
        <time>2020-06-24T10:46:25Z</time>
      </trkpt>
      <trkpt lat="50.32074" lon="3.68182">
        <ele>99.9</ele>
        <time>2020-06-24T10:46:26Z</time>
      </trkpt>
      <trkpt lat="50.32071" lon="3.68177">
        <ele>99.9</ele>
        <time>2020-06-24T10:46:27Z</time>
      </trkpt>
      <trkpt lat="50.32071" lon="3.68175">
        <ele>99.9</ele>
        <time>2020-06-24T10:46:28Z</time>
      </trkpt>
      <trkpt lat="50.32068" lon="3.68171">
        <ele>99.8</ele>
        <time>2020-06-24T10:46:29Z</time>
      </trkpt>
      <trkpt lat="50.32067" lon="3.6817">
        <ele>99.8</ele>
        <time>2020-06-24T10:46:30Z</time>
      </trkpt>
      <trkpt lat="50.32065" lon="3.68167">
        <ele>99.8</ele>
        <time>2020-06-24T10:46:31Z</time>
      </trkpt>
      <trkpt lat="50.32062" lon="3.68165">
        <ele>99.7</ele>
        <time>2020-06-24T10:46:32Z</time>
      </trkpt>
      <trkpt lat="50.32059" lon="3.68163">
        <ele>99.7</ele>
        <time>2020-06-24T10:46:33Z</time>
      </trkpt>
      <trkpt lat="50.32056" lon="3.68159">
        <ele>99.6</ele>
        <time>2020-06-24T10:46:34Z</time>
      </trkpt>
      <trkpt lat="50.32053" lon="3.68157">
        <ele>99.6</ele>
        <time>2020-06-24T10:46:35Z</time>
      </trkpt>
      <trkpt lat="50.32051" lon="3.68153">
        <ele>99.5</ele>
        <time>2020-06-24T10:46:36Z</time>
      </trkpt>
      <trkpt lat="50.32049" lon="3.68149">
        <ele>99.4</ele>
        <time>2020-06-24T10:46:37Z</time>
      </trkpt>
      <trkpt lat="50.32047" lon="3.68145">
        <ele>99.4</ele>
        <time>2020-06-24T10:46:38Z</time>
      </trkpt>
      <trkpt lat="50.32044" lon="3.68141">
        <ele>99.3</ele>
        <time>2020-06-24T10:46:39Z</time>
      </trkpt>
      <trkpt lat="50.3204" lon="3.68136">
        <ele>99.2</ele>
        <time>2020-06-24T10:46:40Z</time>
      </trkpt>
      <trkpt lat="50.32036" lon="3.68132">
        <ele>99.1</ele>
        <time>2020-06-24T10:46:41Z</time>
      </trkpt>
      <trkpt lat="50.32033" lon="3.68129">
        <ele>99</ele>
        <time>2020-06-24T10:46:42Z</time>
      </trkpt>
      <trkpt lat="50.3203" lon="3.68127">
        <ele>98.9</ele>
        <time>2020-06-24T10:46:43Z</time>
      </trkpt>
      <trkpt lat="50.32026" lon="3.68124">
        <ele>98.8</ele>
        <time>2020-06-24T10:46:44Z</time>
      </trkpt>
      <trkpt lat="50.32022" lon="3.68121">
        <ele>98.7</ele>
        <time>2020-06-24T10:46:45Z</time>
      </trkpt>
      <trkpt lat="50.32019" lon="3.68118">
        <ele>98.6</ele>
        <time>2020-06-24T10:46:46Z</time>
      </trkpt>
      <trkpt lat="50.32015" lon="3.68114">
        <ele>98.5</ele>
        <time>2020-06-24T10:46:47Z</time>
      </trkpt>
      <trkpt lat="50.3201" lon="3.68111">
        <ele>98.4</ele>
        <time>2020-06-24T10:46:48Z</time>
      </trkpt>
      <trkpt lat="50.32007" lon="3.68106">
        <ele>98.3</ele>
        <time>2020-06-24T10:46:49Z</time>
      </trkpt>
      <trkpt lat="50.32003" lon="3.68101">
        <ele>98.2</ele>
        <time>2020-06-24T10:46:50Z</time>
      </trkpt>
      <trkpt lat="50.31999" lon="3.68096">
        <ele>98.1</ele>
        <time>2020-06-24T10:46:51Z</time>
      </trkpt>
      <trkpt lat="50.31995" lon="3.68091">
        <ele>98</ele>
        <time>2020-06-24T10:46:52Z</time>
      </trkpt>
      <trkpt lat="50.31992" lon="3.68087">
        <ele>98</ele>
        <time>2020-06-24T10:46:53Z</time>
      </trkpt>
      <trkpt lat="50.31989" lon="3.68088">
        <ele>98.1</ele>
        <time>2020-06-24T10:46:54Z</time>
      </trkpt>
      <trkpt lat="50.31989" lon="3.68089">
        <ele>98.1</ele>
        <time>2020-06-24T10:46:55Z</time>
      </trkpt>
      <trkpt lat="50.3199" lon="3.68091">
        <ele>98.1</ele>
        <time>2020-06-24T10:46:56Z</time>
      </trkpt>
      <trkpt lat="50.31991" lon="3.68092">
        <ele>98.2</ele>
        <time>2020-06-24T10:46:57Z</time>
      </trkpt>
      <trkpt lat="50.31992" lon="3.68093">
        <ele>98.2</ele>
        <time>2020-06-24T10:46:58Z</time>
      </trkpt>
      <trkpt lat="50.31995" lon="3.68095">
        <ele>98.2</ele>
        <time>2020-06-24T10:46:59Z</time>
      </trkpt>
      <trkpt lat="50.31998" lon="3.68096">
        <ele>98.3</ele>
        <time>2020-06-24T10:47:00Z</time>
      </trkpt>
      <trkpt lat="50.32" lon="3.68099">
        <ele>98.4</ele>
        <time>2020-06-24T10:47:01Z</time>
      </trkpt>
      <trkpt lat="50.32001" lon="3.681">
        <ele>98.4</ele>
        <time>2020-06-24T10:47:02Z</time>
      </trkpt>
      <trkpt lat="50.32005" lon="3.68103">
        <ele>98.5</ele>
        <time>2020-06-24T10:47:03Z</time>
      </trkpt>
      <trkpt lat="50.32006" lon="3.68104">
        <ele>98.5</ele>
        <time>2020-06-24T10:47:04Z</time>
      </trkpt>
      <trkpt lat="50.32008" lon="3.68108">
        <ele>98.6</ele>
        <time>2020-06-24T10:47:05Z</time>
      </trkpt>
      <trkpt lat="50.32009" lon="3.68109">
        <ele>98.6</ele>
        <time>2020-06-24T10:47:06Z</time>
      </trkpt>
      <trkpt lat="50.3201" lon="3.6811">
        <ele>98.7</ele>
        <time>2020-06-24T10:47:07Z</time>
      </trkpt>
      <trkpt lat="50.32011" lon="3.68112">
        <ele>98.7</ele>
        <time>2020-06-24T10:47:08Z</time>
      </trkpt>
      <trkpt lat="50.32013" lon="3.68116">
        <ele>98.8</ele>
        <time>2020-06-24T10:47:09Z</time>
      </trkpt>
      <trkpt lat="50.32015" lon="3.68119">
        <ele>98.8</ele>
        <time>2020-06-24T10:47:10Z</time>
      </trkpt>
      <trkpt lat="50.32016" lon="3.6812">
        <ele>98.9</ele>
        <time>2020-06-24T10:47:11Z</time>
      </trkpt>
      <trkpt lat="50.32019" lon="3.68124">
        <ele>98.9</ele>
        <time>2020-06-24T10:47:12Z</time>
      </trkpt>
      <trkpt lat="50.3202" lon="3.68125">
        <ele>99</ele>
        <time>2020-06-24T10:47:13Z</time>
      </trkpt>
      <trkpt lat="50.32024" lon="3.68129">
        <ele>99.1</ele>
        <time>2020-06-24T10:47:14Z</time>
      </trkpt>
      <trkpt lat="50.32025" lon="3.68131">
        <ele>99.1</ele>
        <time>2020-06-24T10:47:15Z</time>
      </trkpt>
      <trkpt lat="50.32027" lon="3.68135">
        <ele>99.2</ele>
        <time>2020-06-24T10:47:16Z</time>
      </trkpt>
      <trkpt lat="50.32029" lon="3.68139">
        <ele>99.3</ele>
        <time>2020-06-24T10:47:17Z</time>
      </trkpt>
      <trkpt lat="50.3203" lon="3.6814">
        <ele>99.3</ele>
        <time>2020-06-24T10:47:18Z</time>
      </trkpt>
      <trkpt lat="50.32032" lon="3.68145">
        <ele>99.4</ele>
        <time>2020-06-24T10:47:19Z</time>
      </trkpt>
      <trkpt lat="50.32033" lon="3.68146">
        <ele>99.4</ele>
        <time>2020-06-24T10:47:20Z</time>
      </trkpt>
      <trkpt lat="50.32035" lon="3.68149">
        <ele>99.4</ele>
        <time>2020-06-24T10:47:21Z</time>
      </trkpt>
      <trkpt lat="50.32038" lon="3.68151">
        <ele>99.5</ele>
        <time>2020-06-24T10:47:22Z</time>
      </trkpt>
      <trkpt lat="50.32041" lon="3.68155">
        <ele>99.6</ele>
        <time>2020-06-24T10:47:23Z</time>
      </trkpt>
      <trkpt lat="50.32041" lon="3.68156">
        <ele>99.6</ele>
        <time>2020-06-24T10:47:24Z</time>
      </trkpt>
      <trkpt lat="50.32044" lon="3.6816">
        <ele>99.6</ele>
        <time>2020-06-24T10:47:25Z</time>
      </trkpt>
      <trkpt lat="50.32045" lon="3.68162">
        <ele>99.7</ele>
        <time>2020-06-24T10:47:26Z</time>
      </trkpt>
      <trkpt lat="50.32048" lon="3.68167">
        <ele>99.7</ele>
        <time>2020-06-24T10:47:27Z</time>
      </trkpt>
      <trkpt lat="50.3205" lon="3.68171">
        <ele>99.8</ele>
        <time>2020-06-24T10:47:28Z</time>
      </trkpt>
      <trkpt lat="50.32055" lon="3.68178">
        <ele>99.8</ele>
        <time>2020-06-24T10:47:29Z</time>
      </trkpt>
      <trkpt lat="50.32061" lon="3.68185">
        <ele>99.9</ele>
        <time>2020-06-24T10:47:30Z</time>
      </trkpt>
      <trkpt lat="50.32065" lon="3.68193">
        <ele>100</ele>
        <time>2020-06-24T10:47:31Z</time>
      </trkpt>
      <trkpt lat="50.32068" lon="3.68201">
        <ele>100</ele>
        <time>2020-06-24T10:47:32Z</time>
      </trkpt>
      <trkpt lat="50.32071" lon="3.68208">
        <ele>100</ele>
        <time>2020-06-24T10:47:33Z</time>
      </trkpt>
      <trkpt lat="50.32073" lon="3.68214">
        <ele>100</ele>
        <time>2020-06-24T10:47:34Z</time>
      </trkpt>
      <trkpt lat="50.32076" lon="3.68223">
        <ele>99.9</ele>
        <time>2020-06-24T10:47:35Z</time>
      </trkpt>
      <trkpt lat="50.32077" lon="3.68231">
        <ele>99.9</ele>
        <time>2020-06-24T10:47:36Z</time>
      </trkpt>
      <trkpt lat="50.32077" lon="3.68237">
        <ele>99.9</ele>
        <time>2020-06-24T10:47:37Z</time>
      </trkpt>
      <trkpt lat="50.32078" lon="3.68245">
        <ele>100</ele>
        <time>2020-06-24T10:47:38Z</time>
      </trkpt>
      <trkpt lat="50.32078" lon="3.68252">
        <ele>100</ele>
        <time>2020-06-24T10:47:39Z</time>
      </trkpt>
      <trkpt lat="50.32078" lon="3.6826">
        <ele>100</ele>
        <time>2020-06-24T10:47:40Z</time>
      </trkpt>
      <trkpt lat="50.32076" lon="3.68265">
        <ele>100</ele>
        <time>2020-06-24T10:47:41Z</time>
      </trkpt>
      <trkpt lat="50.32074" lon="3.68272">
        <ele>100</ele>
        <time>2020-06-24T10:47:42Z</time>
      </trkpt>
      <trkpt lat="50.32073" lon="3.68278">
        <ele>100</ele>
        <time>2020-06-24T10:47:43Z</time>
      </trkpt>
      <trkpt lat="50.32072" lon="3.68287">
        <ele>100</ele>
        <time>2020-06-24T10:47:44Z</time>
      </trkpt>
      <trkpt lat="50.32071" lon="3.68293">
        <ele>100</ele>
        <time>2020-06-24T10:47:45Z</time>
      </trkpt>
      <trkpt lat="50.32069" lon="3.68301">
        <ele>100</ele>
        <time>2020-06-24T10:47:46Z</time>
      </trkpt>
      <trkpt lat="50.32068" lon="3.68309">
        <ele>100.1</ele>
        <time>2020-06-24T10:47:47Z</time>
      </trkpt>
      <trkpt lat="50.32067" lon="3.68316">
        <ele>100.1</ele>
        <time>2020-06-24T10:47:48Z</time>
      </trkpt>
      <trkpt lat="50.32066" lon="3.68323">
        <ele>100.1</ele>
        <time>2020-06-24T10:47:49Z</time>
      </trkpt>
      <trkpt lat="50.32065" lon="3.68328">
        <ele>100.1</ele>
        <time>2020-06-24T10:47:50Z</time>
      </trkpt>
      <trkpt lat="50.32065" lon="3.68334">
        <ele>100.1</ele>
        <time>2020-06-24T10:47:51Z</time>
      </trkpt>
      <trkpt lat="50.32064" lon="3.6834">
        <ele>100.2</ele>
        <time>2020-06-24T10:47:52Z</time>
      </trkpt>
      <trkpt lat="50.32064" lon="3.68345">
        <ele>100.2</ele>
        <time>2020-06-24T10:47:53Z</time>
      </trkpt>
      <trkpt lat="50.32062" lon="3.68353">
        <ele>100.2</ele>
        <time>2020-06-24T10:47:54Z</time>
      </trkpt>
      <trkpt lat="50.32061" lon="3.68359">
        <ele>100.2</ele>
        <time>2020-06-24T10:47:55Z</time>
      </trkpt>
      <trkpt lat="50.32058" lon="3.68365">
        <ele>100.3</ele>
        <time>2020-06-24T10:47:56Z</time>
      </trkpt>
      <trkpt lat="50.32056" lon="3.68371">
        <ele>100.3</ele>
        <time>2020-06-24T10:47:57Z</time>
      </trkpt>
      <trkpt lat="50.32054" lon="3.68378">
        <ele>100.4</ele>
        <time>2020-06-24T10:47:58Z</time>
      </trkpt>
      <trkpt lat="50.32053" lon="3.68385">
        <ele>100.5</ele>
        <time>2020-06-24T10:47:59Z</time>
      </trkpt>
      <trkpt lat="50.32051" lon="3.68393">
        <ele>100.6</ele>
        <time>2020-06-24T10:48:00Z</time>
      </trkpt>
      <trkpt lat="50.32049" lon="3.68399">
        <ele>100.6</ele>
        <time>2020-06-24T10:48:01Z</time>
      </trkpt>
      <trkpt lat="50.32047" lon="3.68407">
        <ele>100.7</ele>
        <time>2020-06-24T10:48:02Z</time>
      </trkpt>
      <trkpt lat="50.32046" lon="3.68415">
        <ele>100.7</ele>
        <time>2020-06-24T10:48:03Z</time>
      </trkpt>
      <trkpt lat="50.32044" lon="3.68422">
        <ele>100.7</ele>
        <time>2020-06-24T10:48:04Z</time>
      </trkpt>
      <trkpt lat="50.32042" lon="3.6843">
        <ele>100.8</ele>
        <time>2020-06-24T10:48:05Z</time>
      </trkpt>
      <trkpt lat="50.32041" lon="3.68436">
        <ele>100.8</ele>
        <time>2020-06-24T10:48:06Z</time>
      </trkpt>
      <trkpt lat="50.32039" lon="3.68443">
        <ele>100.8</ele>
        <time>2020-06-24T10:48:07Z</time>
      </trkpt>
      <trkpt lat="50.32037" lon="3.68451">
        <ele>100.9</ele>
        <time>2020-06-24T10:48:08Z</time>
      </trkpt>
      <trkpt lat="50.32035" lon="3.68459">
        <ele>100.9</ele>
        <time>2020-06-24T10:48:09Z</time>
      </trkpt>
      <trkpt lat="50.32034" lon="3.68466">
        <ele>100.9</ele>
        <time>2020-06-24T10:48:10Z</time>
      </trkpt>
      <trkpt lat="50.32033" lon="3.68471">
        <ele>100.9</ele>
        <time>2020-06-24T10:48:11Z</time>
      </trkpt>
      <trkpt lat="50.32032" lon="3.68475">
        <ele>100.9</ele>
        <time>2020-06-24T10:48:12Z</time>
      </trkpt>
      <trkpt lat="50.3203" lon="3.6848">
        <ele>100.9</ele>
        <time>2020-06-24T10:48:13Z</time>
      </trkpt>
      <trkpt lat="50.32029" lon="3.68484">
        <ele>100.9</ele>
        <time>2020-06-24T10:48:14Z</time>
      </trkpt>
      <trkpt lat="50.32027" lon="3.68486">
        <ele>100.9</ele>
        <time>2020-06-24T10:48:15Z</time>
      </trkpt>
      <trkpt lat="50.32027" lon="3.68489">
        <ele>100.9</ele>
        <time>2020-06-24T10:48:16Z</time>
      </trkpt>
      <trkpt lat="50.32026" lon="3.6849">
        <ele>100.9</ele>
        <time>2020-06-24T10:48:17Z</time>
      </trkpt>
      <trkpt lat="50.32025" lon="3.68491">
        <ele>100.9</ele>
        <time>2020-06-24T10:48:18Z</time>
      </trkpt>
      <trkpt lat="50.32024" lon="3.6849">
        <ele>100.9</ele>
        <time>2020-06-24T10:48:19Z</time>
      </trkpt>
      <trkpt lat="50.32024" lon="3.6849">
        <ele>100.9</ele>
        <time>2020-06-24T10:48:20Z</time>
      </trkpt>
      <trkpt lat="50.32024" lon="3.68491">
        <ele>100.9</ele>
        <time>2020-06-24T10:48:21Z</time>
      </trkpt>
      <trkpt lat="50.32024" lon="3.68491">
        <ele>100.9</ele>
        <time>2020-06-24T10:48:22Z</time>
      </trkpt>
      <trkpt lat="50.32024" lon="3.68492">
        <ele>100.9</ele>
        <time>2020-06-24T10:48:23Z</time>
      </trkpt>
      <trkpt lat="50.32024" lon="3.68493">
        <ele>100.9</ele>
        <time>2020-06-24T10:48:24Z</time>
      </trkpt>
      <trkpt lat="50.32024" lon="3.68493">
        <ele>100.9</ele>
        <time>2020-06-24T10:48:25Z</time>
      </trkpt>
      <trkpt lat="50.32024" lon="3.68494">
        <ele>100.9</ele>
        <time>2020-06-24T10:48:26Z</time>
      </trkpt>
      <trkpt lat="50.32024" lon="3.68495">
        <ele>100.9</ele>
        <time>2020-06-24T10:48:27Z</time>
      </trkpt>
      <trkpt lat="50.32024" lon="3.68495">
        <ele>101</ele>
        <time>2020-06-24T10:48:28Z</time>
      </trkpt>
      <trkpt lat="50.32024" lon="3.68496">
        <ele>101</ele>
        <time>2020-06-24T10:48:29Z</time>
      </trkpt>
      <trkpt lat="50.32024" lon="3.68497">
        <ele>101</ele>
        <time>2020-06-24T10:48:30Z</time>
      </trkpt>
      <trkpt lat="50.32024" lon="3.68497">
        <ele>101</ele>
        <time>2020-06-24T10:48:31Z</time>
      </trkpt>
      <trkpt lat="50.32024" lon="3.68498">
        <ele>101</ele>
        <time>2020-06-24T10:48:32Z</time>
      </trkpt>
      <trkpt lat="50.32023" lon="3.68499">
        <ele>101</ele>
        <time>2020-06-24T10:48:33Z</time>
      </trkpt>
      <trkpt lat="50.32023" lon="3.68499">
        <ele>101</ele>
        <time>2020-06-24T10:48:34Z</time>
      </trkpt>
      <trkpt lat="50.32023" lon="3.685">
        <ele>101</ele>
        <time>2020-06-24T10:48:35Z</time>
      </trkpt>
      <trkpt lat="50.32023" lon="3.68501">
        <ele>101</ele>
        <time>2020-06-24T10:48:36Z</time>
      </trkpt>
      <trkpt lat="50.32023" lon="3.68501">
        <ele>101</ele>
        <time>2020-06-24T10:48:37Z</time>
      </trkpt>
      <trkpt lat="50.32023" lon="3.68502">
        <ele>101</ele>
        <time>2020-06-24T10:48:38Z</time>
      </trkpt>
      <trkpt lat="50.32023" lon="3.68503">
        <ele>101</ele>
        <time>2020-06-24T10:48:39Z</time>
      </trkpt>
      <trkpt lat="50.32023" lon="3.68503">
        <ele>101</ele>
        <time>2020-06-24T10:48:40Z</time>
      </trkpt>
      <trkpt lat="50.32023" lon="3.68504">
        <ele>101</ele>
        <time>2020-06-24T10:49:41Z</time>
      </trkpt>
      <trkpt lat="50.32023" lon="3.68505">
        <ele>101</ele>
        <time>2020-06-24T10:49:42Z</time>
      </trkpt>
      <trkpt lat="50.32022" lon="3.68509">
        <ele>101</ele>
        <time>2020-06-24T10:49:43Z</time>
      </trkpt>
      <trkpt lat="50.32022" lon="3.68511">
        <ele>101</ele>
        <time>2020-06-24T10:49:44Z</time>
      </trkpt>
      <trkpt lat="50.32022" lon="3.68513">
        <ele>101</ele>
        <time>2020-06-24T10:49:45Z</time>
      </trkpt>
      <trkpt lat="50.32021" lon="3.68516">
        <ele>101</ele>
        <time>2020-06-24T10:49:46Z</time>
      </trkpt>
      <trkpt lat="50.32021" lon="3.68518">
        <ele>101</ele>
        <time>2020-06-24T10:49:47Z</time>
      </trkpt>
      <trkpt lat="50.3202" lon="3.6852">
        <ele>101</ele>
        <time>2020-06-24T10:49:48Z</time>
      </trkpt>
      <trkpt lat="50.3202" lon="3.68521">
        <ele>101</ele>
        <time>2020-06-24T10:49:49Z</time>
      </trkpt>
      <trkpt lat="50.3202" lon="3.68522">
        <ele>101</ele>
        <time>2020-06-24T10:49:50Z</time>
      </trkpt>
      <trkpt lat="50.3202" lon="3.68522">
        <ele>101</ele>
        <time>2020-06-24T10:49:51Z</time>
      </trkpt>
      <trkpt lat="50.32021" lon="3.68522">
        <ele>101</ele>
        <time>2020-06-24T10:49:52Z</time>
      </trkpt>
      <trkpt lat="50.32021" lon="3.68522">
        <ele>101</ele>
        <time>2020-06-24T10:49:53Z</time>
      </trkpt>
      <trkpt lat="50.32021" lon="3.68522">
        <ele>101</ele>
        <time>2020-06-24T10:49:54Z</time>
      </trkpt>
      <trkpt lat="50.32021" lon="3.68522">
        <ele>101</ele>
        <time>2020-06-24T10:49:55Z</time>
      </trkpt>
      <trkpt lat="50.32021" lon="3.68522">
        <ele>101</ele>
        <time>2020-06-24T10:49:56Z</time>
      </trkpt>
      <trkpt lat="50.32021" lon="3.68522">
        <ele>101</ele>
        <time>2020-06-24T10:49:57Z</time>
      </trkpt>
      <trkpt lat="50.32021" lon="3.68522">
        <ele>101</ele>
        <time>2020-06-24T10:49:58Z</time>
      </trkpt>
      <trkpt lat="50.32021" lon="3.68522">
        <ele>101</ele>
        <time>2020-06-24T10:49:59Z</time>
      </trkpt>
      <trkpt lat="50.32021" lon="3.68522">
        <ele>101</ele>
        <time>2020-06-24T10:50:00Z</time>
      </trkpt>
      <trkpt lat="50.32019" lon="3.68513">
        <ele>101</ele>
        <time>2020-06-24T10:51:15Z</time>
      </trkpt>
      <trkpt lat="50.32019" lon="3.6851">
        <ele>101</ele>
        <time>2020-06-24T10:51:16Z</time>
      </trkpt>
      <trkpt lat="50.32019" lon="3.68507">
        <ele>101</ele>
        <time>2020-06-24T10:51:17Z</time>
      </trkpt>
      <trkpt lat="50.3202" lon="3.68505">
        <ele>101</ele>
        <time>2020-06-24T10:51:18Z</time>
      </trkpt>
      <trkpt lat="50.32021" lon="3.68503">
        <ele>101.1</ele>
        <time>2020-06-24T10:51:19Z</time>
      </trkpt>
      <trkpt lat="50.32021" lon="3.68501">
        <ele>101.1</ele>
        <time>2020-06-24T10:51:20Z</time>
      </trkpt>
      <trkpt lat="50.32022" lon="3.68497">
        <ele>101.1</ele>
        <time>2020-06-24T10:51:21Z</time>
      </trkpt>
      <trkpt lat="50.32022" lon="3.68496">
        <ele>101.1</ele>
        <time>2020-06-24T10:51:22Z</time>
      </trkpt>
      <trkpt lat="50.32022" lon="3.68495">
        <ele>101.1</ele>
        <time>2020-06-24T10:51:23Z</time>
      </trkpt>
      <trkpt lat="50.32023" lon="3.68493">
        <ele>101.1</ele>
        <time>2020-06-24T10:51:24Z</time>
      </trkpt>
      <trkpt lat="50.32024" lon="3.68492">
        <ele>101.1</ele>
        <time>2020-06-24T10:51:25Z</time>
      </trkpt>
      <trkpt lat="50.32024" lon="3.68491">
        <ele>101.2</ele>
        <time>2020-06-24T10:51:26Z</time>
      </trkpt>
      <trkpt lat="50.32025" lon="3.68488">
        <ele>101.2</ele>
        <time>2020-06-24T10:51:27Z</time>
      </trkpt>
      <trkpt lat="50.32026" lon="3.68486">
        <ele>101.2</ele>
        <time>2020-06-24T10:51:28Z</time>
      </trkpt>
      <trkpt lat="50.32025" lon="3.68486">
        <ele>101.2</ele>
        <time>2020-06-24T10:51:29Z</time>
      </trkpt>
      <trkpt lat="50.32025" lon="3.68484">
        <ele>101.2</ele>
        <time>2020-06-24T10:51:30Z</time>
      </trkpt>
      <trkpt lat="50.32025" lon="3.68485">
        <ele>101.2</ele>
        <time>2020-06-24T10:51:31Z</time>
      </trkpt>
      <trkpt lat="50.32025" lon="3.68486">
        <ele>101.2</ele>
        <time>2020-06-24T10:51:32Z</time>
      </trkpt>
      <trkpt lat="50.32025" lon="3.68485">
        <ele>101.2</ele>
        <time>2020-06-24T10:51:33Z</time>
      </trkpt>
      <trkpt lat="50.32024" lon="3.68485">
        <ele>101.2</ele>
        <time>2020-06-24T10:51:34Z</time>
      </trkpt>
      <trkpt lat="50.32024" lon="3.68484">
        <ele>101.2</ele>
        <time>2020-06-24T10:51:35Z</time>
      </trkpt>
      <trkpt lat="50.32024" lon="3.68484">
        <ele>101.2</ele>
        <time>2020-06-24T10:51:36Z</time>
      </trkpt>
      <trkpt lat="50.32024" lon="3.68484">
        <ele>101.2</ele>
        <time>2020-06-24T10:51:37Z</time>
      </trkpt>
      <trkpt lat="50.32025" lon="3.68484">
        <ele>101.2</ele>
        <time>2020-06-24T10:51:38Z</time>
      </trkpt>
      <trkpt lat="50.32025" lon="3.68483">
        <ele>101.2</ele>
        <time>2020-06-24T10:51:39Z</time>
      </trkpt>
      <trkpt lat="50.32025" lon="3.68483">
        <ele>101.2</ele>
        <time>2020-06-24T10:51:40Z</time>
      </trkpt>
      <trkpt lat="50.32025" lon="3.68483">
        <ele>101.2</ele>
        <time>2020-06-24T10:51:41Z</time>
      </trkpt>
      <trkpt lat="50.32025" lon="3.68483">
        <ele>101.2</ele>
        <time>2020-06-24T10:51:42Z</time>
      </trkpt>
      <trkpt lat="50.32024" lon="3.68482">
        <ele>101.2</ele>
        <time>2020-06-24T10:51:43Z</time>
      </trkpt>
      <trkpt lat="50.32024" lon="3.68482">
        <ele>101.2</ele>
        <time>2020-06-24T10:51:44Z</time>
      </trkpt>
      <trkpt lat="50.32024" lon="3.68482">
        <ele>101.3</ele>
        <time>2020-06-24T10:51:45Z</time>
      </trkpt>
      <trkpt lat="50.32024" lon="3.68482">
        <ele>101.3</ele>
        <time>2020-06-24T10:51:46Z</time>
      </trkpt>
      <trkpt lat="50.32024" lon="3.68482">
        <ele>101.3</ele>
        <time>2020-06-24T10:51:47Z</time>
      </trkpt>
      <trkpt lat="50.32024" lon="3.68482">
        <ele>101.3</ele>
        <time>2020-06-24T10:51:48Z</time>
      </trkpt>
      <trkpt lat="50.32024" lon="3.68482">
        <ele>101.3</ele>
        <time>2020-06-24T10:51:49Z</time>
      </trkpt>
      <trkpt lat="50.32024" lon="3.68482">
        <ele>101.3</ele>
        <time>2020-06-24T10:51:50Z</time>
      </trkpt>
      <trkpt lat="50.32024" lon="3.68482">
        <ele>101.3</ele>
        <time>2020-06-24T10:51:51Z</time>
      </trkpt>
      <trkpt lat="50.32023" lon="3.68482">
        <ele>101.3</ele>
        <time>2020-06-24T10:51:52Z</time>
      </trkpt>
      <trkpt lat="50.32023" lon="3.68481">
        <ele>101.3</ele>
        <time>2020-06-24T10:51:53Z</time>
      </trkpt>
      <trkpt lat="50.32024" lon="3.68489">
        <ele>101.3</ele>
        <time>2020-06-24T10:52:09Z</time>
      </trkpt>
      <trkpt lat="50.32024" lon="3.68492">
        <ele>101.3</ele>
        <time>2020-06-24T10:52:10Z</time>
      </trkpt>
      <trkpt lat="50.32023" lon="3.68495">
        <ele>101.3</ele>
        <time>2020-06-24T10:52:11Z</time>
      </trkpt>
      <trkpt lat="50.32022" lon="3.68496">
        <ele>101.4</ele>
        <time>2020-06-24T10:52:12Z</time>
      </trkpt>
      <trkpt lat="50.32022" lon="3.68498">
        <ele>101.4</ele>
        <time>2020-06-24T10:52:13Z</time>
      </trkpt>
      <trkpt lat="50.32022" lon="3.685">
        <ele>101.4</ele>
        <time>2020-06-24T10:52:14Z</time>
      </trkpt>
      <trkpt lat="50.32022" lon="3.68503">
        <ele>101.4</ele>
        <time>2020-06-24T10:52:15Z</time>
      </trkpt>
      <trkpt lat="50.32022" lon="3.68505">
        <ele>101.4</ele>
        <time>2020-06-24T10:52:16Z</time>
      </trkpt>
      <trkpt lat="50.32021" lon="3.68507">
        <ele>101.4</ele>
        <time>2020-06-24T10:52:17Z</time>
      </trkpt>
      <trkpt lat="50.3202" lon="3.6851">
        <ele>101.4</ele>
        <time>2020-06-24T10:52:18Z</time>
      </trkpt>
      <trkpt lat="50.3202" lon="3.68512">
        <ele>101.4</ele>
        <time>2020-06-24T10:52:19Z</time>
      </trkpt>
      <trkpt lat="50.3202" lon="3.68514">
        <ele>101.5</ele>
        <time>2020-06-24T10:52:20Z</time>
      </trkpt>
      <trkpt lat="50.32019" lon="3.68516">
        <ele>101.5</ele>
        <time>2020-06-24T10:52:21Z</time>
      </trkpt>
      <trkpt lat="50.32019" lon="3.68518">
        <ele>101.5</ele>
        <time>2020-06-24T10:52:22Z</time>
      </trkpt>
      <trkpt lat="50.32019" lon="3.68519">
        <ele>101.5</ele>
        <time>2020-06-24T10:52:23Z</time>
      </trkpt>
      <trkpt lat="50.32019" lon="3.6852">
        <ele>101.5</ele>
        <time>2020-06-24T10:52:24Z</time>
      </trkpt>
      <trkpt lat="50.32016" lon="3.68521">
        <ele>101.5</ele>
        <time>2020-06-24T10:52:25Z</time>
      </trkpt>
      <trkpt lat="50.32016" lon="3.68522">
        <ele>101.5</ele>
        <time>2020-06-24T10:52:26Z</time>
      </trkpt>
      <trkpt lat="50.32016" lon="3.68522">
        <ele>101.5</ele>
        <time>2020-06-24T10:52:27Z</time>
      </trkpt>
      <trkpt lat="50.32017" lon="3.68522">
        <ele>101.5</ele>
        <time>2020-06-24T10:52:28Z</time>
      </trkpt>
      <trkpt lat="50.32017" lon="3.68522">
        <ele>101.5</ele>
        <time>2020-06-24T10:52:29Z</time>
      </trkpt>
      <trkpt lat="50.32017" lon="3.68522">
        <ele>101.5</ele>
        <time>2020-06-24T10:52:30Z</time>
      </trkpt>
      <trkpt lat="50.32017" lon="3.68522">
        <ele>101.5</ele>
        <time>2020-06-24T10:52:31Z</time>
      </trkpt>
      <trkpt lat="50.32017" lon="3.68522">
        <ele>101.5</ele>
        <time>2020-06-24T10:52:32Z</time>
      </trkpt>
      <trkpt lat="50.32016" lon="3.68522">
        <ele>101.5</ele>
        <time>2020-06-24T10:52:33Z</time>
      </trkpt>
      <trkpt lat="50.32016" lon="3.68524">
        <ele>101.5</ele>
        <time>2020-06-24T10:52:34Z</time>
      </trkpt>
      <trkpt lat="50.32016" lon="3.68524">
        <ele>101.5</ele>
        <time>2020-06-24T10:52:35Z</time>
      </trkpt>
      <trkpt lat="50.32016" lon="3.68525">
        <ele>101.5</ele>
        <time>2020-06-24T10:52:36Z</time>
      </trkpt>
      <trkpt lat="50.32016" lon="3.68526">
        <ele>101.6</ele>
        <time>2020-06-24T10:52:37Z</time>
      </trkpt>
      <trkpt lat="50.32015" lon="3.68531">
        <ele>101.6</ele>
        <time>2020-06-24T10:52:38Z</time>
      </trkpt>
      <trkpt lat="50.32015" lon="3.68532">
        <ele>101.6</ele>
        <time>2020-06-24T10:52:39Z</time>
      </trkpt>
      <trkpt lat="50.32014" lon="3.68534">
        <ele>101.6</ele>
        <time>2020-06-24T10:52:40Z</time>
      </trkpt>
      <trkpt lat="50.32014" lon="3.68536">
        <ele>101.6</ele>
        <time>2020-06-24T10:52:41Z</time>
      </trkpt>
      <trkpt lat="50.32012" lon="3.68542">
        <ele>101.7</ele>
        <time>2020-06-24T10:52:42Z</time>
      </trkpt>
      <trkpt lat="50.32012" lon="3.68544">
        <ele>101.7</ele>
        <time>2020-06-24T10:52:43Z</time>
      </trkpt>
      <trkpt lat="50.3201" lon="3.68549">
        <ele>101.7</ele>
        <time>2020-06-24T10:52:44Z</time>
      </trkpt>
      <trkpt lat="50.32009" lon="3.68554">
        <ele>101.7</ele>
        <time>2020-06-24T10:52:45Z</time>
      </trkpt>
      <trkpt lat="50.32008" lon="3.68559">
        <ele>101.7</ele>
        <time>2020-06-24T10:52:46Z</time>
      </trkpt>
      <trkpt lat="50.32007" lon="3.68566">
        <ele>101.8</ele>
        <time>2020-06-24T10:52:47Z</time>
      </trkpt>
      <trkpt lat="50.32006" lon="3.68572">
        <ele>101.8</ele>
        <time>2020-06-24T10:52:48Z</time>
      </trkpt>
      <trkpt lat="50.32006" lon="3.68578">
        <ele>101.8</ele>
        <time>2020-06-24T10:52:49Z</time>
      </trkpt>
      <trkpt lat="50.32005" lon="3.68583">
        <ele>101.8</ele>
        <time>2020-06-24T10:52:50Z</time>
      </trkpt>
      <trkpt lat="50.32005" lon="3.68588">
        <ele>101.8</ele>
        <time>2020-06-24T10:52:51Z</time>
      </trkpt>
      <trkpt lat="50.32006" lon="3.68593">
        <ele>101.9</ele>
        <time>2020-06-24T10:52:52Z</time>
      </trkpt>
      <trkpt lat="50.32005" lon="3.68598">
        <ele>101.9</ele>
        <time>2020-06-24T10:52:53Z</time>
      </trkpt>
      <trkpt lat="50.32003" lon="3.68605">
        <ele>101.9</ele>
        <time>2020-06-24T10:52:54Z</time>
      </trkpt>
      <trkpt lat="50.32001" lon="3.68611">
        <ele>101.9</ele>
        <time>2020-06-24T10:52:55Z</time>
      </trkpt>
      <trkpt lat="50.32" lon="3.68617">
        <ele>101.9</ele>
        <time>2020-06-24T10:52:56Z</time>
      </trkpt>
      <trkpt lat="50.31997" lon="3.68623">
        <ele>101.9</ele>
        <time>2020-06-24T10:52:57Z</time>
      </trkpt>
      <trkpt lat="50.31996" lon="3.68629">
        <ele>102</ele>
        <time>2020-06-24T10:52:58Z</time>
      </trkpt>
      <trkpt lat="50.31995" lon="3.68635">
        <ele>102</ele>
        <time>2020-06-24T10:52:59Z</time>
      </trkpt>
      <trkpt lat="50.31993" lon="3.68642">
        <ele>102.1</ele>
        <time>2020-06-24T10:53:00Z</time>
      </trkpt>
      <trkpt lat="50.31991" lon="3.68649">
        <ele>102.1</ele>
        <time>2020-06-24T10:53:01Z</time>
      </trkpt>
      <trkpt lat="50.31989" lon="3.68656">
        <ele>102.2</ele>
        <time>2020-06-24T10:53:02Z</time>
      </trkpt>
      <trkpt lat="50.31987" lon="3.68663">
        <ele>102.2</ele>
        <time>2020-06-24T10:53:03Z</time>
      </trkpt>
      <trkpt lat="50.31984" lon="3.6867">
        <ele>102.3</ele>
        <time>2020-06-24T10:53:04Z</time>
      </trkpt>
      <trkpt lat="50.31982" lon="3.68677">
        <ele>102.3</ele>
        <time>2020-06-24T10:53:05Z</time>
      </trkpt>
      <trkpt lat="50.31979" lon="3.68683">
        <ele>102.3</ele>
        <time>2020-06-24T10:53:06Z</time>
      </trkpt>
      <trkpt lat="50.31978" lon="3.6869">
        <ele>102.4</ele>
        <time>2020-06-24T10:53:07Z</time>
      </trkpt>
      <trkpt lat="50.31976" lon="3.68696">
        <ele>102.4</ele>
        <time>2020-06-24T10:53:08Z</time>
      </trkpt>
      <trkpt lat="50.31975" lon="3.68703">
        <ele>102.5</ele>
        <time>2020-06-24T10:53:09Z</time>
      </trkpt>
      <trkpt lat="50.31973" lon="3.6871">
        <ele>102.5</ele>
        <time>2020-06-24T10:53:10Z</time>
      </trkpt>
      <trkpt lat="50.31971" lon="3.68716">
        <ele>102.5</ele>
        <time>2020-06-24T10:53:11Z</time>
      </trkpt>
      <trkpt lat="50.3197" lon="3.68723">
        <ele>102.5</ele>
        <time>2020-06-24T10:53:12Z</time>
      </trkpt>
      <trkpt lat="50.31968" lon="3.68729">
        <ele>102.6</ele>
        <time>2020-06-24T10:53:13Z</time>
      </trkpt>
      <trkpt lat="50.31967" lon="3.68736">
        <ele>102.6</ele>
        <time>2020-06-24T10:53:14Z</time>
      </trkpt>
      <trkpt lat="50.31965" lon="3.68742">
        <ele>102.6</ele>
        <time>2020-06-24T10:53:15Z</time>
      </trkpt>
      <trkpt lat="50.31963" lon="3.68748">
        <ele>102.7</ele>
        <time>2020-06-24T10:53:16Z</time>
      </trkpt>
      <trkpt lat="50.31961" lon="3.68754">
        <ele>102.7</ele>
        <time>2020-06-24T10:53:17Z</time>
      </trkpt>
      <trkpt lat="50.3196" lon="3.68761">
        <ele>102.7</ele>
        <time>2020-06-24T10:53:18Z</time>
      </trkpt>
      <trkpt lat="50.31958" lon="3.68768">
        <ele>102.8</ele>
        <time>2020-06-24T10:53:19Z</time>
      </trkpt>
      <trkpt lat="50.31956" lon="3.68774">
        <ele>102.8</ele>
        <time>2020-06-24T10:53:20Z</time>
      </trkpt>
      <trkpt lat="50.31954" lon="3.68782">
        <ele>102.9</ele>
        <time>2020-06-24T10:53:21Z</time>
      </trkpt>
      <trkpt lat="50.31952" lon="3.68789">
        <ele>102.9</ele>
        <time>2020-06-24T10:53:22Z</time>
      </trkpt>
      <trkpt lat="50.3195" lon="3.68796">
        <ele>103</ele>
        <time>2020-06-24T10:53:23Z</time>
      </trkpt>
      <trkpt lat="50.31948" lon="3.68803">
        <ele>103.1</ele>
        <time>2020-06-24T10:53:24Z</time>
      </trkpt>
      <trkpt lat="50.31947" lon="3.68809">
        <ele>103.1</ele>
        <time>2020-06-24T10:53:25Z</time>
      </trkpt>
      <trkpt lat="50.31945" lon="3.68816">
        <ele>103.2</ele>
        <time>2020-06-24T10:53:26Z</time>
      </trkpt>
      <trkpt lat="50.31943" lon="3.68823">
        <ele>103.3</ele>
        <time>2020-06-24T10:53:27Z</time>
      </trkpt>
      <trkpt lat="50.31941" lon="3.6883">
        <ele>103.4</ele>
        <time>2020-06-24T10:53:28Z</time>
      </trkpt>
      <trkpt lat="50.31939" lon="3.68837">
        <ele>103.4</ele>
        <time>2020-06-24T10:53:29Z</time>
      </trkpt>
      <trkpt lat="50.31937" lon="3.68844">
        <ele>103.5</ele>
        <time>2020-06-24T10:53:30Z</time>
      </trkpt>
      <trkpt lat="50.31935" lon="3.68851">
        <ele>103.6</ele>
        <time>2020-06-24T10:53:31Z</time>
      </trkpt>
      <trkpt lat="50.31934" lon="3.68859">
        <ele>103.7</ele>
        <time>2020-06-24T10:53:32Z</time>
      </trkpt>
      <trkpt lat="50.31932" lon="3.68866">
        <ele>103.8</ele>
        <time>2020-06-24T10:53:33Z</time>
      </trkpt>
      <trkpt lat="50.3193" lon="3.68873">
        <ele>103.8</ele>
        <time>2020-06-24T10:53:34Z</time>
      </trkpt>
      <trkpt lat="50.31929" lon="3.6888">
        <ele>103.9</ele>
        <time>2020-06-24T10:53:35Z</time>
      </trkpt>
      <trkpt lat="50.31926" lon="3.68887">
        <ele>104</ele>
        <time>2020-06-24T10:53:36Z</time>
      </trkpt>
      <trkpt lat="50.31924" lon="3.68894">
        <ele>104.1</ele>
        <time>2020-06-24T10:53:37Z</time>
      </trkpt>
      <trkpt lat="50.31922" lon="3.68901">
        <ele>104.2</ele>
        <time>2020-06-24T10:53:38Z</time>
      </trkpt>
      <trkpt lat="50.3192" lon="3.68908">
        <ele>104.2</ele>
        <time>2020-06-24T10:53:39Z</time>
      </trkpt>
      <trkpt lat="50.31918" lon="3.68914">
        <ele>104.3</ele>
        <time>2020-06-24T10:53:40Z</time>
      </trkpt>
      <trkpt lat="50.31916" lon="3.6892">
        <ele>104.4</ele>
        <time>2020-06-24T10:53:41Z</time>
      </trkpt>
      <trkpt lat="50.31914" lon="3.68926">
        <ele>104.5</ele>
        <time>2020-06-24T10:53:42Z</time>
      </trkpt>
      <trkpt lat="50.31912" lon="3.68933">
        <ele>104.5</ele>
        <time>2020-06-24T10:53:43Z</time>
      </trkpt>
      <trkpt lat="50.3191" lon="3.68939">
        <ele>104.7</ele>
        <time>2020-06-24T10:53:44Z</time>
      </trkpt>
      <trkpt lat="50.31908" lon="3.68946">
        <ele>104.8</ele>
        <time>2020-06-24T10:53:45Z</time>
      </trkpt>
      <trkpt lat="50.31905" lon="3.68952">
        <ele>104.9</ele>
        <time>2020-06-24T10:53:46Z</time>
      </trkpt>
      <trkpt lat="50.31903" lon="3.68958">
        <ele>105</ele>
        <time>2020-06-24T10:53:47Z</time>
      </trkpt>
      <trkpt lat="50.31901" lon="3.68964">
        <ele>105.1</ele>
        <time>2020-06-24T10:53:48Z</time>
      </trkpt>
      <trkpt lat="50.31899" lon="3.68969">
        <ele>105.2</ele>
        <time>2020-06-24T10:53:49Z</time>
      </trkpt>
      <trkpt lat="50.31897" lon="3.68977">
        <ele>105.5</ele>
        <time>2020-06-24T10:53:50Z</time>
      </trkpt>
      <trkpt lat="50.31896" lon="3.68983">
        <ele>105.7</ele>
        <time>2020-06-24T10:53:51Z</time>
      </trkpt>
      <trkpt lat="50.31894" lon="3.68989">
        <ele>105.9</ele>
        <time>2020-06-24T10:53:52Z</time>
      </trkpt>
      <trkpt lat="50.31893" lon="3.68994">
        <ele>106.1</ele>
        <time>2020-06-24T10:53:53Z</time>
      </trkpt>
      <trkpt lat="50.31891" lon="3.68999">
        <ele>106.3</ele>
        <time>2020-06-24T10:53:54Z</time>
      </trkpt>
      <trkpt lat="50.3189" lon="3.69004">
        <ele>106.4</ele>
        <time>2020-06-24T10:53:55Z</time>
      </trkpt>
      <trkpt lat="50.31888" lon="3.69009">
        <ele>106.6</ele>
        <time>2020-06-24T10:53:56Z</time>
      </trkpt>
      <trkpt lat="50.31886" lon="3.69015">
        <ele>106.8</ele>
        <time>2020-06-24T10:53:57Z</time>
      </trkpt>
      <trkpt lat="50.31884" lon="3.6902">
        <ele>107</ele>
        <time>2020-06-24T10:53:58Z</time>
      </trkpt>
      <trkpt lat="50.31883" lon="3.69026">
        <ele>107.2</ele>
        <time>2020-06-24T10:53:59Z</time>
      </trkpt>
      <trkpt lat="50.31881" lon="3.69031">
        <ele>107.4</ele>
        <time>2020-06-24T10:54:00Z</time>
      </trkpt>
      <trkpt lat="50.31878" lon="3.69037">
        <ele>107.7</ele>
        <time>2020-06-24T10:54:01Z</time>
      </trkpt>
      <trkpt lat="50.31877" lon="3.69043">
        <ele>107.9</ele>
        <time>2020-06-24T10:54:02Z</time>
      </trkpt>
      <trkpt lat="50.31875" lon="3.69048">
        <ele>108.1</ele>
        <time>2020-06-24T10:54:03Z</time>
      </trkpt>
      <trkpt lat="50.31873" lon="3.69054">
        <ele>108.3</ele>
        <time>2020-06-24T10:54:04Z</time>
      </trkpt>
      <trkpt lat="50.31871" lon="3.69058">
        <ele>108.5</ele>
        <time>2020-06-24T10:54:05Z</time>
      </trkpt>
      <trkpt lat="50.31868" lon="3.69063">
        <ele>108.7</ele>
        <time>2020-06-24T10:54:06Z</time>
      </trkpt>
      <trkpt lat="50.31866" lon="3.69069">
        <ele>109</ele>
        <time>2020-06-24T10:54:07Z</time>
      </trkpt>
      <trkpt lat="50.31865" lon="3.69075">
        <ele>109.2</ele>
        <time>2020-06-24T10:54:08Z</time>
      </trkpt>
      <trkpt lat="50.31864" lon="3.6908">
        <ele>109.4</ele>
        <time>2020-06-24T10:54:09Z</time>
      </trkpt>
      <trkpt lat="50.31863" lon="3.69086">
        <ele>109.6</ele>
        <time>2020-06-24T10:54:10Z</time>
      </trkpt>
      <trkpt lat="50.31862" lon="3.69091">
        <ele>109.8</ele>
        <time>2020-06-24T10:54:11Z</time>
      </trkpt>
      <trkpt lat="50.31861" lon="3.69096">
        <ele>110</ele>
        <time>2020-06-24T10:54:12Z</time>
      </trkpt>
      <trkpt lat="50.3186" lon="3.69101">
        <ele>110.2</ele>
        <time>2020-06-24T10:54:13Z</time>
      </trkpt>
      <trkpt lat="50.31859" lon="3.69105">
        <ele>110.4</ele>
        <time>2020-06-24T10:54:14Z</time>
      </trkpt>
      <trkpt lat="50.31858" lon="3.69111">
        <ele>110.6</ele>
        <time>2020-06-24T10:54:15Z</time>
      </trkpt>
      <trkpt lat="50.31858" lon="3.69113">
        <ele>110.6</ele>
        <time>2020-06-24T10:54:16Z</time>
      </trkpt>
      <trkpt lat="50.31858" lon="3.69119">
        <ele>110.8</ele>
        <time>2020-06-24T10:54:17Z</time>
      </trkpt>
      <trkpt lat="50.31857" lon="3.69124">
        <ele>111</ele>
        <time>2020-06-24T10:54:18Z</time>
      </trkpt>
      <trkpt lat="50.31855" lon="3.69128">
        <ele>111.1</ele>
        <time>2020-06-24T10:54:19Z</time>
      </trkpt>
      <trkpt lat="50.31854" lon="3.69133">
        <ele>111.2</ele>
        <time>2020-06-24T10:54:20Z</time>
      </trkpt>
      <trkpt lat="50.31853" lon="3.69138">
        <ele>111.4</ele>
        <time>2020-06-24T10:54:21Z</time>
      </trkpt>
      <trkpt lat="50.31852" lon="3.69143">
        <ele>111.5</ele>
        <time>2020-06-24T10:54:22Z</time>
      </trkpt>
      <trkpt lat="50.31851" lon="3.69148">
        <ele>111.6</ele>
        <time>2020-06-24T10:54:23Z</time>
      </trkpt>
      <trkpt lat="50.31851" lon="3.69154">
        <ele>111.8</ele>
        <time>2020-06-24T10:54:24Z</time>
      </trkpt>
      <trkpt lat="50.3185" lon="3.69162">
        <ele>111.9</ele>
        <time>2020-06-24T10:54:25Z</time>
      </trkpt>
      <trkpt lat="50.31848" lon="3.69167">
        <ele>112.1</ele>
        <time>2020-06-24T10:54:26Z</time>
      </trkpt>
      <trkpt lat="50.31847" lon="3.69173">
        <ele>112.2</ele>
        <time>2020-06-24T10:54:27Z</time>
      </trkpt>
      <trkpt lat="50.31846" lon="3.69178">
        <ele>112.3</ele>
        <time>2020-06-24T10:54:28Z</time>
      </trkpt>
      <trkpt lat="50.31844" lon="3.69185">
        <ele>112.5</ele>
        <time>2020-06-24T10:54:29Z</time>
      </trkpt>
      <trkpt lat="50.31843" lon="3.6919">
        <ele>112.6</ele>
        <time>2020-06-24T10:54:30Z</time>
      </trkpt>
      <trkpt lat="50.31841" lon="3.69195">
        <ele>112.7</ele>
        <time>2020-06-24T10:54:31Z</time>
      </trkpt>
      <trkpt lat="50.3184" lon="3.69201">
        <ele>112.8</ele>
        <time>2020-06-24T10:54:32Z</time>
      </trkpt>
      <trkpt lat="50.31839" lon="3.69207">
        <ele>112.9</ele>
        <time>2020-06-24T10:54:33Z</time>
      </trkpt>
      <trkpt lat="50.31838" lon="3.69212">
        <ele>112.9</ele>
        <time>2020-06-24T10:54:34Z</time>
      </trkpt>
      <trkpt lat="50.31836" lon="3.69218">
        <ele>113</ele>
        <time>2020-06-24T10:54:35Z</time>
      </trkpt>
      <trkpt lat="50.31835" lon="3.69224">
        <ele>113</ele>
        <time>2020-06-24T10:54:36Z</time>
      </trkpt>
      <trkpt lat="50.31834" lon="3.69232">
        <ele>113</ele>
        <time>2020-06-24T10:54:37Z</time>
      </trkpt>
      <trkpt lat="50.31833" lon="3.69239">
        <ele>113</ele>
        <time>2020-06-24T10:54:38Z</time>
      </trkpt>
      <trkpt lat="50.31831" lon="3.69245">
        <ele>113</ele>
        <time>2020-06-24T10:54:39Z</time>
      </trkpt>
      <trkpt lat="50.3183" lon="3.69252">
        <ele>113</ele>
        <time>2020-06-24T10:54:40Z</time>
      </trkpt>
      <trkpt lat="50.31829" lon="3.69259">
        <ele>112.9</ele>
        <time>2020-06-24T10:54:41Z</time>
      </trkpt>
      <trkpt lat="50.31827" lon="3.69265">
        <ele>112.9</ele>
        <time>2020-06-24T10:54:42Z</time>
      </trkpt>
      <trkpt lat="50.31825" lon="3.69273">
        <ele>113</ele>
        <time>2020-06-24T10:54:43Z</time>
      </trkpt>
      <trkpt lat="50.31824" lon="3.69279">
        <ele>113.1</ele>
        <time>2020-06-24T10:54:44Z</time>
      </trkpt>
      <trkpt lat="50.31822" lon="3.69286">
        <ele>113.1</ele>
        <time>2020-06-24T10:54:45Z</time>
      </trkpt>
      <trkpt lat="50.3182" lon="3.69293">
        <ele>113.2</ele>
        <time>2020-06-24T10:54:46Z</time>
      </trkpt>
      <trkpt lat="50.31819" lon="3.693">
        <ele>113.3</ele>
        <time>2020-06-24T10:54:47Z</time>
      </trkpt>
      <trkpt lat="50.31818" lon="3.69308">
        <ele>113.3</ele>
        <time>2020-06-24T10:54:48Z</time>
      </trkpt>
      <trkpt lat="50.31816" lon="3.69316">
        <ele>113.4</ele>
        <time>2020-06-24T10:54:49Z</time>
      </trkpt>
      <trkpt lat="50.31815" lon="3.69323">
        <ele>113.4</ele>
        <time>2020-06-24T10:54:50Z</time>
      </trkpt>
      <trkpt lat="50.31813" lon="3.69331">
        <ele>113.5</ele>
        <time>2020-06-24T10:54:51Z</time>
      </trkpt>
      <trkpt lat="50.31811" lon="3.69339">
        <ele>113.5</ele>
        <time>2020-06-24T10:54:52Z</time>
      </trkpt>
      <trkpt lat="50.31811" lon="3.69346">
        <ele>113.5</ele>
        <time>2020-06-24T10:54:53Z</time>
      </trkpt>
      <trkpt lat="50.31809" lon="3.69354">
        <ele>113.5</ele>
        <time>2020-06-24T10:54:54Z</time>
      </trkpt>
      <trkpt lat="50.31807" lon="3.69361">
        <ele>113.6</ele>
        <time>2020-06-24T10:54:55Z</time>
      </trkpt>
      <trkpt lat="50.31805" lon="3.69368">
        <ele>113.6</ele>
        <time>2020-06-24T10:54:56Z</time>
      </trkpt>
      <trkpt lat="50.31804" lon="3.69375">
        <ele>113.6</ele>
        <time>2020-06-24T10:54:57Z</time>
      </trkpt>
      <trkpt lat="50.31802" lon="3.69381">
        <ele>113.7</ele>
        <time>2020-06-24T10:54:58Z</time>
      </trkpt>
      <trkpt lat="50.318" lon="3.69389">
        <ele>113.7</ele>
        <time>2020-06-24T10:54:59Z</time>
      </trkpt>
      <trkpt lat="50.31799" lon="3.69395">
        <ele>113.7</ele>
        <time>2020-06-24T10:55:00Z</time>
      </trkpt>
      <trkpt lat="50.31797" lon="3.69403">
        <ele>113.7</ele>
        <time>2020-06-24T10:55:01Z</time>
      </trkpt>
      <trkpt lat="50.31794" lon="3.6941">
        <ele>113.7</ele>
        <time>2020-06-24T10:55:02Z</time>
      </trkpt>
      <trkpt lat="50.31792" lon="3.69417">
        <ele>113.7</ele>
        <time>2020-06-24T10:55:03Z</time>
      </trkpt>
      <trkpt lat="50.3179" lon="3.69424">
        <ele>113.7</ele>
        <time>2020-06-24T10:55:04Z</time>
      </trkpt>
      <trkpt lat="50.31788" lon="3.69432">
        <ele>113.7</ele>
        <time>2020-06-24T10:55:05Z</time>
      </trkpt>
      <trkpt lat="50.31786" lon="3.69438">
        <ele>113.8</ele>
        <time>2020-06-24T10:55:06Z</time>
      </trkpt>
      <trkpt lat="50.31784" lon="3.69446">
        <ele>113.8</ele>
        <time>2020-06-24T10:55:07Z</time>
      </trkpt>
      <trkpt lat="50.31782" lon="3.69453">
        <ele>113.9</ele>
        <time>2020-06-24T10:55:08Z</time>
      </trkpt>
      <trkpt lat="50.31781" lon="3.6946">
        <ele>113.9</ele>
        <time>2020-06-24T10:55:09Z</time>
      </trkpt>
      <trkpt lat="50.31779" lon="3.69467">
        <ele>114</ele>
        <time>2020-06-24T10:55:10Z</time>
      </trkpt>
      <trkpt lat="50.31777" lon="3.69472">
        <ele>114</ele>
        <time>2020-06-24T10:55:11Z</time>
      </trkpt>
      <trkpt lat="50.31775" lon="3.69479">
        <ele>114.1</ele>
        <time>2020-06-24T10:55:12Z</time>
      </trkpt>
      <trkpt lat="50.31773" lon="3.69485">
        <ele>114.1</ele>
        <time>2020-06-24T10:55:13Z</time>
      </trkpt>
      <trkpt lat="50.3177" lon="3.69491">
        <ele>114.2</ele>
        <time>2020-06-24T10:55:14Z</time>
      </trkpt>
      <trkpt lat="50.31768" lon="3.69498">
        <ele>114.2</ele>
        <time>2020-06-24T10:55:15Z</time>
      </trkpt>
      <trkpt lat="50.31767" lon="3.69504">
        <ele>114.3</ele>
        <time>2020-06-24T10:55:16Z</time>
      </trkpt>
      <trkpt lat="50.31765" lon="3.69511">
        <ele>114.3</ele>
        <time>2020-06-24T10:55:17Z</time>
      </trkpt>
      <trkpt lat="50.31763" lon="3.69519">
        <ele>114.4</ele>
        <time>2020-06-24T10:55:18Z</time>
      </trkpt>
      <trkpt lat="50.31761" lon="3.69526">
        <ele>114.5</ele>
        <time>2020-06-24T10:55:19Z</time>
      </trkpt>
      <trkpt lat="50.31759" lon="3.69533">
        <ele>114.5</ele>
        <time>2020-06-24T10:55:20Z</time>
      </trkpt>
      <trkpt lat="50.31758" lon="3.6954">
        <ele>114.6</ele>
        <time>2020-06-24T10:55:21Z</time>
      </trkpt>
      <trkpt lat="50.31756" lon="3.69548">
        <ele>114.7</ele>
        <time>2020-06-24T10:55:22Z</time>
      </trkpt>
      <trkpt lat="50.31754" lon="3.69555">
        <ele>114.8</ele>
        <time>2020-06-24T10:55:23Z</time>
      </trkpt>
      <trkpt lat="50.31754" lon="3.69563">
        <ele>114.9</ele>
        <time>2020-06-24T10:55:24Z</time>
      </trkpt>
      <trkpt lat="50.31752" lon="3.6957">
        <ele>115</ele>
        <time>2020-06-24T10:55:25Z</time>
      </trkpt>
      <trkpt lat="50.3175" lon="3.69576">
        <ele>115.1</ele>
        <time>2020-06-24T10:55:26Z</time>
      </trkpt>
      <trkpt lat="50.31748" lon="3.69582">
        <ele>115.2</ele>
        <time>2020-06-24T10:55:27Z</time>
      </trkpt>
      <trkpt lat="50.31746" lon="3.6959">
        <ele>115.3</ele>
        <time>2020-06-24T10:55:28Z</time>
      </trkpt>
      <trkpt lat="50.31744" lon="3.69597">
        <ele>115.4</ele>
        <time>2020-06-24T10:55:29Z</time>
      </trkpt>
      <trkpt lat="50.31742" lon="3.69604">
        <ele>115.5</ele>
        <time>2020-06-24T10:55:30Z</time>
      </trkpt>
      <trkpt lat="50.31739" lon="3.6961">
        <ele>115.7</ele>
        <time>2020-06-24T10:55:31Z</time>
      </trkpt>
      <trkpt lat="50.31738" lon="3.69617">
        <ele>115.8</ele>
        <time>2020-06-24T10:55:32Z</time>
      </trkpt>
      <trkpt lat="50.31736" lon="3.69625">
        <ele>116</ele>
        <time>2020-06-24T10:55:33Z</time>
      </trkpt>
      <trkpt lat="50.31734" lon="3.69631">
        <ele>116.1</ele>
        <time>2020-06-24T10:55:34Z</time>
      </trkpt>
      <trkpt lat="50.31733" lon="3.69638">
        <ele>116.3</ele>
        <time>2020-06-24T10:55:35Z</time>
      </trkpt>
      <trkpt lat="50.31731" lon="3.69644">
        <ele>116.4</ele>
        <time>2020-06-24T10:55:36Z</time>
      </trkpt>
      <trkpt lat="50.31729" lon="3.6965">
        <ele>116.6</ele>
        <time>2020-06-24T10:55:37Z</time>
      </trkpt>
      <trkpt lat="50.31728" lon="3.69656">
        <ele>116.8</ele>
        <time>2020-06-24T10:55:38Z</time>
      </trkpt>
      <trkpt lat="50.31726" lon="3.69662">
        <ele>116.9</ele>
        <time>2020-06-24T10:55:39Z</time>
      </trkpt>
      <trkpt lat="50.31724" lon="3.69668">
        <ele>117.1</ele>
        <time>2020-06-24T10:55:40Z</time>
      </trkpt>
      <trkpt lat="50.31722" lon="3.69673">
        <ele>117.2</ele>
        <time>2020-06-24T10:55:41Z</time>
      </trkpt>
      <trkpt lat="50.31721" lon="3.69678">
        <ele>117.3</ele>
        <time>2020-06-24T10:55:42Z</time>
      </trkpt>
      <trkpt lat="50.31719" lon="3.69684">
        <ele>117.4</ele>
        <time>2020-06-24T10:55:43Z</time>
      </trkpt>
      <trkpt lat="50.31717" lon="3.6969">
        <ele>117.5</ele>
        <time>2020-06-24T10:55:44Z</time>
      </trkpt>
      <trkpt lat="50.31716" lon="3.69696">
        <ele>117.6</ele>
        <time>2020-06-24T10:55:45Z</time>
      </trkpt>
      <trkpt lat="50.31715" lon="3.69701">
        <ele>117.6</ele>
        <time>2020-06-24T10:55:46Z</time>
      </trkpt>
      <trkpt lat="50.31715" lon="3.69703">
        <ele>117.7</ele>
        <time>2020-06-24T10:55:47Z</time>
      </trkpt>
      <trkpt lat="50.31714" lon="3.69708">
        <ele>117.7</ele>
        <time>2020-06-24T10:55:48Z</time>
      </trkpt>
      <trkpt lat="50.31713" lon="3.69713">
        <ele>117.7</ele>
        <time>2020-06-24T10:55:49Z</time>
      </trkpt>
      <trkpt lat="50.31711" lon="3.69718">
        <ele>117.6</ele>
        <time>2020-06-24T10:55:50Z</time>
      </trkpt>
      <trkpt lat="50.31709" lon="3.69724">
        <ele>117.5</ele>
        <time>2020-06-24T10:55:51Z</time>
      </trkpt>
      <trkpt lat="50.31708" lon="3.6973">
        <ele>117.4</ele>
        <time>2020-06-24T10:55:52Z</time>
      </trkpt>
      <trkpt lat="50.31707" lon="3.69737">
        <ele>117.2</ele>
        <time>2020-06-24T10:55:53Z</time>
      </trkpt>
      <trkpt lat="50.31705" lon="3.69743">
        <ele>117</ele>
        <time>2020-06-24T10:55:54Z</time>
      </trkpt>
      <trkpt lat="50.31703" lon="3.6975">
        <ele>116.8</ele>
        <time>2020-06-24T10:55:55Z</time>
      </trkpt>
      <trkpt lat="50.31701" lon="3.69757">
        <ele>116.5</ele>
        <time>2020-06-24T10:55:56Z</time>
      </trkpt>
      <trkpt lat="50.31699" lon="3.69765">
        <ele>116.3</ele>
        <time>2020-06-24T10:55:57Z</time>
      </trkpt>
      <trkpt lat="50.31697" lon="3.69773">
        <ele>116</ele>
        <time>2020-06-24T10:55:58Z</time>
      </trkpt>
      <trkpt lat="50.31695" lon="3.69781">
        <ele>115.8</ele>
        <time>2020-06-24T10:55:59Z</time>
      </trkpt>
      <trkpt lat="50.31693" lon="3.6979">
        <ele>115.5</ele>
        <time>2020-06-24T10:56:00Z</time>
      </trkpt>
      <trkpt lat="50.3169" lon="3.69799">
        <ele>115.3</ele>
        <time>2020-06-24T10:56:01Z</time>
      </trkpt>
      <trkpt lat="50.31689" lon="3.69808">
        <ele>115</ele>
        <time>2020-06-24T10:56:02Z</time>
      </trkpt>
      <trkpt lat="50.31687" lon="3.69816">
        <ele>114.8</ele>
        <time>2020-06-24T10:56:03Z</time>
      </trkpt>
      <trkpt lat="50.31685" lon="3.69826">
        <ele>114.6</ele>
        <time>2020-06-24T10:56:04Z</time>
      </trkpt>
      <trkpt lat="50.31683" lon="3.69834">
        <ele>114.4</ele>
        <time>2020-06-24T10:56:05Z</time>
      </trkpt>
      <trkpt lat="50.31682" lon="3.69842">
        <ele>114.3</ele>
        <time>2020-06-24T10:56:06Z</time>
      </trkpt>
      <trkpt lat="50.3168" lon="3.69851">
        <ele>114.1</ele>
        <time>2020-06-24T10:56:07Z</time>
      </trkpt>
      <trkpt lat="50.31678" lon="3.6986">
        <ele>114</ele>
        <time>2020-06-24T10:56:08Z</time>
      </trkpt>
      <trkpt lat="50.31675" lon="3.69868">
        <ele>113.9</ele>
        <time>2020-06-24T10:56:09Z</time>
      </trkpt>
      <trkpt lat="50.31674" lon="3.69876">
        <ele>113.7</ele>
        <time>2020-06-24T10:56:10Z</time>
      </trkpt>
      <trkpt lat="50.31672" lon="3.69884">
        <ele>113.6</ele>
        <time>2020-06-24T10:56:11Z</time>
      </trkpt>
      <trkpt lat="50.3167" lon="3.69893">
        <ele>113.5</ele>
        <time>2020-06-24T10:56:12Z</time>
      </trkpt>
      <trkpt lat="50.31668" lon="3.69901">
        <ele>113.4</ele>
        <time>2020-06-24T10:56:13Z</time>
      </trkpt>
      <trkpt lat="50.31665" lon="3.6991">
        <ele>113.3</ele>
        <time>2020-06-24T10:56:14Z</time>
      </trkpt>
      <trkpt lat="50.31664" lon="3.69919">
        <ele>113.2</ele>
        <time>2020-06-24T10:56:15Z</time>
      </trkpt>
      <trkpt lat="50.31662" lon="3.69928">
        <ele>113.1</ele>
        <time>2020-06-24T10:56:16Z</time>
      </trkpt>
      <trkpt lat="50.31661" lon="3.69937">
        <ele>113</ele>
        <time>2020-06-24T10:56:17Z</time>
      </trkpt>
      <trkpt lat="50.31658" lon="3.69946">
        <ele>112.9</ele>
        <time>2020-06-24T10:56:18Z</time>
      </trkpt>
      <trkpt lat="50.31656" lon="3.69954">
        <ele>112.8</ele>
        <time>2020-06-24T10:56:19Z</time>
      </trkpt>
      <trkpt lat="50.31654" lon="3.69963">
        <ele>112.7</ele>
        <time>2020-06-24T10:56:20Z</time>
      </trkpt>
      <trkpt lat="50.31651" lon="3.69973">
        <ele>112.6</ele>
        <time>2020-06-24T10:56:21Z</time>
      </trkpt>
      <trkpt lat="50.31649" lon="3.69982">
        <ele>112.5</ele>
        <time>2020-06-24T10:56:22Z</time>
      </trkpt>
      <trkpt lat="50.31647" lon="3.69991">
        <ele>112.4</ele>
        <time>2020-06-24T10:56:23Z</time>
      </trkpt>
      <trkpt lat="50.31645" lon="3.7">
        <ele>112.4</ele>
        <time>2020-06-24T10:56:24Z</time>
      </trkpt>
      <trkpt lat="50.31643" lon="3.70009">
        <ele>112.3</ele>
        <time>2020-06-24T10:56:25Z</time>
      </trkpt>
      <trkpt lat="50.31641" lon="3.70018">
        <ele>112.2</ele>
        <time>2020-06-24T10:56:26Z</time>
      </trkpt>
      <trkpt lat="50.31639" lon="3.70028">
        <ele>112.1</ele>
        <time>2020-06-24T10:56:27Z</time>
      </trkpt>
      <trkpt lat="50.31636" lon="3.70035">
        <ele>112.1</ele>
        <time>2020-06-24T10:56:28Z</time>
      </trkpt>
      <trkpt lat="50.31635" lon="3.70042">
        <ele>112</ele>
        <time>2020-06-24T10:56:29Z</time>
      </trkpt>
      <trkpt lat="50.31633" lon="3.70051">
        <ele>111.9</ele>
        <time>2020-06-24T10:56:30Z</time>
      </trkpt>
      <trkpt lat="50.31631" lon="3.70059">
        <ele>111.9</ele>
        <time>2020-06-24T10:56:31Z</time>
      </trkpt>
      <trkpt lat="50.31629" lon="3.70068">
        <ele>111.8</ele>
        <time>2020-06-24T10:56:32Z</time>
      </trkpt>
      <trkpt lat="50.31626" lon="3.70078">
        <ele>111.8</ele>
        <time>2020-06-24T10:56:33Z</time>
      </trkpt>
      <trkpt lat="50.31624" lon="3.70088">
        <ele>111.7</ele>
        <time>2020-06-24T10:56:34Z</time>
      </trkpt>
      <trkpt lat="50.31621" lon="3.70097">
        <ele>111.7</ele>
        <time>2020-06-24T10:56:35Z</time>
      </trkpt>
      <trkpt lat="50.31619" lon="3.70106">
        <ele>111.7</ele>
        <time>2020-06-24T10:56:36Z</time>
      </trkpt>
      <trkpt lat="50.31617" lon="3.70114">
        <ele>111.6</ele>
        <time>2020-06-24T10:56:37Z</time>
      </trkpt>
      <trkpt lat="50.31614" lon="3.70124">
        <ele>111.6</ele>
        <time>2020-06-24T10:56:38Z</time>
      </trkpt>
      <trkpt lat="50.31612" lon="3.70133">
        <ele>111.6</ele>
        <time>2020-06-24T10:56:39Z</time>
      </trkpt>
      <trkpt lat="50.3161" lon="3.70142">
        <ele>111.6</ele>
        <time>2020-06-24T10:56:40Z</time>
      </trkpt>
      <trkpt lat="50.31608" lon="3.70149">
        <ele>111.6</ele>
        <time>2020-06-24T10:56:41Z</time>
      </trkpt>
      <trkpt lat="50.31606" lon="3.70157">
        <ele>111.6</ele>
        <time>2020-06-24T10:56:42Z</time>
      </trkpt>
      <trkpt lat="50.31604" lon="3.70166">
        <ele>111.7</ele>
        <time>2020-06-24T10:56:43Z</time>
      </trkpt>
      <trkpt lat="50.31602" lon="3.70174">
        <ele>111.7</ele>
        <time>2020-06-24T10:56:44Z</time>
      </trkpt>
      <trkpt lat="50.31599" lon="3.70182">
        <ele>111.7</ele>
        <time>2020-06-24T10:56:45Z</time>
      </trkpt>
      <trkpt lat="50.31597" lon="3.70189">
        <ele>111.7</ele>
        <time>2020-06-24T10:56:46Z</time>
      </trkpt>
      <trkpt lat="50.31595" lon="3.70197">
        <ele>111.6</ele>
        <time>2020-06-24T10:56:47Z</time>
      </trkpt>
      <trkpt lat="50.31593" lon="3.70205">
        <ele>111.6</ele>
        <time>2020-06-24T10:56:48Z</time>
      </trkpt>
      <trkpt lat="50.3159" lon="3.70214">
        <ele>111.4</ele>
        <time>2020-06-24T10:56:49Z</time>
      </trkpt>
      <trkpt lat="50.31588" lon="3.70223">
        <ele>111.2</ele>
        <time>2020-06-24T10:56:50Z</time>
      </trkpt>
      <trkpt lat="50.31586" lon="3.70233">
        <ele>111</ele>
        <time>2020-06-24T10:56:51Z</time>
      </trkpt>
      <trkpt lat="50.31584" lon="3.70243">
        <ele>110.8</ele>
        <time>2020-06-24T10:56:52Z</time>
      </trkpt>
      <trkpt lat="50.31582" lon="3.70252">
        <ele>110.7</ele>
        <time>2020-06-24T10:56:53Z</time>
      </trkpt>
      <trkpt lat="50.31579" lon="3.7026">
        <ele>110.6</ele>
        <time>2020-06-24T10:56:54Z</time>
      </trkpt>
      <trkpt lat="50.31577" lon="3.7027">
        <ele>110.4</ele>
        <time>2020-06-24T10:56:55Z</time>
      </trkpt>
      <trkpt lat="50.31575" lon="3.70279">
        <ele>110.4</ele>
        <time>2020-06-24T10:56:56Z</time>
      </trkpt>
      <trkpt lat="50.31573" lon="3.70289">
        <ele>110.3</ele>
        <time>2020-06-24T10:56:57Z</time>
      </trkpt>
      <trkpt lat="50.31571" lon="3.70298">
        <ele>110.2</ele>
        <time>2020-06-24T10:56:58Z</time>
      </trkpt>
      <trkpt lat="50.31569" lon="3.70307">
        <ele>110</ele>
        <time>2020-06-24T10:56:59Z</time>
      </trkpt>
      <trkpt lat="50.31567" lon="3.70316">
        <ele>109.9</ele>
        <time>2020-06-24T10:57:00Z</time>
      </trkpt>
      <trkpt lat="50.31566" lon="3.70324">
        <ele>109.8</ele>
        <time>2020-06-24T10:57:01Z</time>
      </trkpt>
      <trkpt lat="50.31564" lon="3.70331">
        <ele>109.7</ele>
        <time>2020-06-24T10:57:02Z</time>
      </trkpt>
      <trkpt lat="50.31562" lon="3.70338">
        <ele>109.5</ele>
        <time>2020-06-24T10:57:03Z</time>
      </trkpt>
      <trkpt lat="50.3156" lon="3.70347">
        <ele>109.4</ele>
        <time>2020-06-24T10:57:04Z</time>
      </trkpt>
      <trkpt lat="50.31557" lon="3.70356">
        <ele>109.2</ele>
        <time>2020-06-24T10:57:05Z</time>
      </trkpt>
      <trkpt lat="50.31555" lon="3.70367">
        <ele>109.1</ele>
        <time>2020-06-24T10:57:06Z</time>
      </trkpt>
      <trkpt lat="50.31552" lon="3.70375">
        <ele>109</ele>
        <time>2020-06-24T10:57:07Z</time>
      </trkpt>
      <trkpt lat="50.3155" lon="3.70385">
        <ele>108.9</ele>
        <time>2020-06-24T10:57:08Z</time>
      </trkpt>
      <trkpt lat="50.31547" lon="3.70394">
        <ele>108.9</ele>
        <time>2020-06-24T10:57:09Z</time>
      </trkpt>
      <trkpt lat="50.31545" lon="3.70405">
        <ele>108.8</ele>
        <time>2020-06-24T10:57:10Z</time>
      </trkpt>
      <trkpt lat="50.31543" lon="3.70415">
        <ele>108.8</ele>
        <time>2020-06-24T10:57:11Z</time>
      </trkpt>
      <trkpt lat="50.31541" lon="3.70426">
        <ele>108.8</ele>
        <time>2020-06-24T10:57:12Z</time>
      </trkpt>
      <trkpt lat="50.31539" lon="3.70435">
        <ele>108.8</ele>
        <time>2020-06-24T10:57:13Z</time>
      </trkpt>
      <trkpt lat="50.31538" lon="3.70445">
        <ele>108.9</ele>
        <time>2020-06-24T10:57:14Z</time>
      </trkpt>
      <trkpt lat="50.31537" lon="3.70454">
        <ele>109</ele>
        <time>2020-06-24T10:57:15Z</time>
      </trkpt>
      <trkpt lat="50.31535" lon="3.70462">
        <ele>109.1</ele>
        <time>2020-06-24T10:57:16Z</time>
      </trkpt>
      <trkpt lat="50.31534" lon="3.7047">
        <ele>109.2</ele>
        <time>2020-06-24T10:57:17Z</time>
      </trkpt>
      <trkpt lat="50.31532" lon="3.70478">
        <ele>109.3</ele>
        <time>2020-06-24T10:57:18Z</time>
      </trkpt>
      <trkpt lat="50.31531" lon="3.70486">
        <ele>109.4</ele>
        <time>2020-06-24T10:57:19Z</time>
      </trkpt>
      <trkpt lat="50.31529" lon="3.70493">
        <ele>109.5</ele>
        <time>2020-06-24T10:57:20Z</time>
      </trkpt>
      <trkpt lat="50.31528" lon="3.705">
        <ele>109.5</ele>
        <time>2020-06-24T10:57:21Z</time>
      </trkpt>
      <trkpt lat="50.31526" lon="3.70508">
        <ele>109.6</ele>
        <time>2020-06-24T10:57:22Z</time>
      </trkpt>
      <trkpt lat="50.31525" lon="3.70516">
        <ele>109.7</ele>
        <time>2020-06-24T10:57:23Z</time>
      </trkpt>
      <trkpt lat="50.31523" lon="3.70524">
        <ele>109.9</ele>
        <time>2020-06-24T10:57:24Z</time>
      </trkpt>
      <trkpt lat="50.3152" lon="3.70532">
        <ele>110</ele>
        <time>2020-06-24T10:57:25Z</time>
      </trkpt>
      <trkpt lat="50.31518" lon="3.70539">
        <ele>110.2</ele>
        <time>2020-06-24T10:57:26Z</time>
      </trkpt>
      <trkpt lat="50.31515" lon="3.70545">
        <ele>110.3</ele>
        <time>2020-06-24T10:57:27Z</time>
      </trkpt>
      <trkpt lat="50.31513" lon="3.70552">
        <ele>110.4</ele>
        <time>2020-06-24T10:57:28Z</time>
      </trkpt>
      <trkpt lat="50.31511" lon="3.70558">
        <ele>110.5</ele>
        <time>2020-06-24T10:57:29Z</time>
      </trkpt>
      <trkpt lat="50.31509" lon="3.70564">
        <ele>110.6</ele>
        <time>2020-06-24T10:57:30Z</time>
      </trkpt>
      <trkpt lat="50.31506" lon="3.70569">
        <ele>110.7</ele>
        <time>2020-06-24T10:57:31Z</time>
      </trkpt>
      <trkpt lat="50.31504" lon="3.70576">
        <ele>110.7</ele>
        <time>2020-06-24T10:57:32Z</time>
      </trkpt>
      <trkpt lat="50.31502" lon="3.70582">
        <ele>110.8</ele>
        <time>2020-06-24T10:57:33Z</time>
      </trkpt>
      <trkpt lat="50.31501" lon="3.70589">
        <ele>110.8</ele>
        <time>2020-06-24T10:57:34Z</time>
      </trkpt>
      <trkpt lat="50.315" lon="3.70595">
        <ele>110.8</ele>
        <time>2020-06-24T10:57:35Z</time>
      </trkpt>
      <trkpt lat="50.31498" lon="3.706">
        <ele>110.9</ele>
        <time>2020-06-24T10:57:36Z</time>
      </trkpt>
      <trkpt lat="50.31496" lon="3.70607">
        <ele>110.9</ele>
        <time>2020-06-24T10:57:37Z</time>
      </trkpt>
      <trkpt lat="50.31495" lon="3.70614">
        <ele>111</ele>
        <time>2020-06-24T10:57:38Z</time>
      </trkpt>
      <trkpt lat="50.31493" lon="3.70621">
        <ele>111</ele>
        <time>2020-06-24T10:57:39Z</time>
      </trkpt>
      <trkpt lat="50.31491" lon="3.70629">
        <ele>111.1</ele>
        <time>2020-06-24T10:57:40Z</time>
      </trkpt>
      <trkpt lat="50.3149" lon="3.70636">
        <ele>111.2</ele>
        <time>2020-06-24T10:57:41Z</time>
      </trkpt>
      <trkpt lat="50.31489" lon="3.70642">
        <ele>111.2</ele>
        <time>2020-06-24T10:57:42Z</time>
      </trkpt>
      <trkpt lat="50.31487" lon="3.70648">
        <ele>111.2</ele>
        <time>2020-06-24T10:57:43Z</time>
      </trkpt>
      <trkpt lat="50.31485" lon="3.70654">
        <ele>111.3</ele>
        <time>2020-06-24T10:57:44Z</time>
      </trkpt>
      <trkpt lat="50.31483" lon="3.70661">
        <ele>111.3</ele>
        <time>2020-06-24T10:57:45Z</time>
      </trkpt>
      <trkpt lat="50.31481" lon="3.70669">
        <ele>111.4</ele>
        <time>2020-06-24T10:57:46Z</time>
      </trkpt>
      <trkpt lat="50.31479" lon="3.70676">
        <ele>111.4</ele>
        <time>2020-06-24T10:57:47Z</time>
      </trkpt>
      <trkpt lat="50.31476" lon="3.70683">
        <ele>111.4</ele>
        <time>2020-06-24T10:57:48Z</time>
      </trkpt>
      <trkpt lat="50.31474" lon="3.70691">
        <ele>111.4</ele>
        <time>2020-06-24T10:57:49Z</time>
      </trkpt>
      <trkpt lat="50.31473" lon="3.70698">
        <ele>111.4</ele>
        <time>2020-06-24T10:57:50Z</time>
      </trkpt>
      <trkpt lat="50.31472" lon="3.70705">
        <ele>111.5</ele>
        <time>2020-06-24T10:57:51Z</time>
      </trkpt>
      <trkpt lat="50.31471" lon="3.70712">
        <ele>111.5</ele>
        <time>2020-06-24T10:57:52Z</time>
      </trkpt>
      <trkpt lat="50.31469" lon="3.70717">
        <ele>111.5</ele>
        <time>2020-06-24T10:57:53Z</time>
      </trkpt>
      <trkpt lat="50.31467" lon="3.70721">
        <ele>111.5</ele>
        <time>2020-06-24T10:57:54Z</time>
      </trkpt>
      <trkpt lat="50.31465" lon="3.70726">
        <ele>111.5</ele>
        <time>2020-06-24T10:57:55Z</time>
      </trkpt>
      <trkpt lat="50.31464" lon="3.70731">
        <ele>111.5</ele>
        <time>2020-06-24T10:57:56Z</time>
      </trkpt>
      <trkpt lat="50.31463" lon="3.70738">
        <ele>111.6</ele>
        <time>2020-06-24T10:57:57Z</time>
      </trkpt>
      <trkpt lat="50.31462" lon="3.70745">
        <ele>111.6</ele>
        <time>2020-06-24T10:57:58Z</time>
      </trkpt>
      <trkpt lat="50.31462" lon="3.70751">
        <ele>111.6</ele>
        <time>2020-06-24T10:57:59Z</time>
      </trkpt>
      <trkpt lat="50.31461" lon="3.70759">
        <ele>111.7</ele>
        <time>2020-06-24T10:58:00Z</time>
      </trkpt>
      <trkpt lat="50.31459" lon="3.70766">
        <ele>111.8</ele>
        <time>2020-06-24T10:58:01Z</time>
      </trkpt>
      <trkpt lat="50.31457" lon="3.70772">
        <ele>111.8</ele>
        <time>2020-06-24T10:58:02Z</time>
      </trkpt>
      <trkpt lat="50.31455" lon="3.70778">
        <ele>111.9</ele>
        <time>2020-06-24T10:58:03Z</time>
      </trkpt>
      <trkpt lat="50.31454" lon="3.70784">
        <ele>111.9</ele>
        <time>2020-06-24T10:58:04Z</time>
      </trkpt>
      <trkpt lat="50.31452" lon="3.7079">
        <ele>112</ele>
        <time>2020-06-24T10:58:05Z</time>
      </trkpt>
      <trkpt lat="50.3145" lon="3.70797">
        <ele>112.1</ele>
        <time>2020-06-24T10:58:06Z</time>
      </trkpt>
      <trkpt lat="50.31449" lon="3.70805">
        <ele>112.1</ele>
        <time>2020-06-24T10:58:07Z</time>
      </trkpt>
      <trkpt lat="50.31447" lon="3.70813">
        <ele>112.2</ele>
        <time>2020-06-24T10:58:08Z</time>
      </trkpt>
      <trkpt lat="50.31446" lon="3.70819">
        <ele>112.3</ele>
        <time>2020-06-24T10:58:09Z</time>
      </trkpt>
      <trkpt lat="50.31445" lon="3.70825">
        <ele>112.4</ele>
        <time>2020-06-24T10:58:10Z</time>
      </trkpt>
      <trkpt lat="50.31444" lon="3.70833">
        <ele>112.6</ele>
        <time>2020-06-24T10:58:11Z</time>
      </trkpt>
      <trkpt lat="50.31443" lon="3.7084">
        <ele>112.8</ele>
        <time>2020-06-24T10:58:12Z</time>
      </trkpt>
      <trkpt lat="50.31442" lon="3.70846">
        <ele>112.9</ele>
        <time>2020-06-24T10:58:13Z</time>
      </trkpt>
      <trkpt lat="50.3144" lon="3.70852">
        <ele>113.2</ele>
        <time>2020-06-24T10:58:14Z</time>
      </trkpt>
      <trkpt lat="50.31438" lon="3.70859">
        <ele>113.4</ele>
        <time>2020-06-24T10:58:15Z</time>
      </trkpt>
      <trkpt lat="50.31437" lon="3.70865">
        <ele>113.6</ele>
        <time>2020-06-24T10:58:16Z</time>
      </trkpt>
      <trkpt lat="50.31435" lon="3.70872">
        <ele>113.9</ele>
        <time>2020-06-24T10:58:17Z</time>
      </trkpt>
      <trkpt lat="50.31433" lon="3.70881">
        <ele>114.1</ele>
        <time>2020-06-24T10:58:18Z</time>
      </trkpt>
      <trkpt lat="50.31432" lon="3.70887">
        <ele>114.3</ele>
        <time>2020-06-24T10:58:19Z</time>
      </trkpt>
      <trkpt lat="50.3143" lon="3.70894">
        <ele>114.4</ele>
        <time>2020-06-24T10:58:20Z</time>
      </trkpt>
      <trkpt lat="50.31429" lon="3.70898">
        <ele>114.5</ele>
        <time>2020-06-24T10:58:21Z</time>
      </trkpt>
      <trkpt lat="50.31428" lon="3.70903">
        <ele>114.6</ele>
        <time>2020-06-24T10:58:22Z</time>
      </trkpt>
      <trkpt lat="50.31426" lon="3.70908">
        <ele>114.7</ele>
        <time>2020-06-24T10:58:23Z</time>
      </trkpt>
      <trkpt lat="50.31424" lon="3.70912">
        <ele>114.8</ele>
        <time>2020-06-24T10:58:24Z</time>
      </trkpt>
      <trkpt lat="50.31423" lon="3.70918">
        <ele>114.9</ele>
        <time>2020-06-24T10:58:25Z</time>
      </trkpt>
      <trkpt lat="50.31422" lon="3.70924">
        <ele>115</ele>
        <time>2020-06-24T10:58:26Z</time>
      </trkpt>
      <trkpt lat="50.31421" lon="3.70931">
        <ele>115.1</ele>
        <time>2020-06-24T10:58:27Z</time>
      </trkpt>
      <trkpt lat="50.31419" lon="3.70939">
        <ele>115.3</ele>
        <time>2020-06-24T10:58:28Z</time>
      </trkpt>
      <trkpt lat="50.31418" lon="3.70946">
        <ele>115.4</ele>
        <time>2020-06-24T10:58:29Z</time>
      </trkpt>
      <trkpt lat="50.31416" lon="3.70952">
        <ele>115.6</ele>
        <time>2020-06-24T10:58:30Z</time>
      </trkpt>
      <trkpt lat="50.31415" lon="3.70959">
        <ele>115.7</ele>
        <time>2020-06-24T10:58:31Z</time>
      </trkpt>
      <trkpt lat="50.31413" lon="3.70965">
        <ele>115.8</ele>
        <time>2020-06-24T10:58:32Z</time>
      </trkpt>
      <trkpt lat="50.3141" lon="3.70972">
        <ele>115.9</ele>
        <time>2020-06-24T10:58:33Z</time>
      </trkpt>
      <trkpt lat="50.31408" lon="3.70978">
        <ele>116</ele>
        <time>2020-06-24T10:58:34Z</time>
      </trkpt>
      <trkpt lat="50.31406" lon="3.70985">
        <ele>116.2</ele>
        <time>2020-06-24T10:58:35Z</time>
      </trkpt>
      <trkpt lat="50.31405" lon="3.70992">
        <ele>116.3</ele>
        <time>2020-06-24T10:58:36Z</time>
      </trkpt>
      <trkpt lat="50.31403" lon="3.70997">
        <ele>116.4</ele>
        <time>2020-06-24T10:58:37Z</time>
      </trkpt>
      <trkpt lat="50.31401" lon="3.71004">
        <ele>116.6</ele>
        <time>2020-06-24T10:58:38Z</time>
      </trkpt>
      <trkpt lat="50.31399" lon="3.7101">
        <ele>116.7</ele>
        <time>2020-06-24T10:58:39Z</time>
      </trkpt>
      <trkpt lat="50.31397" lon="3.71016">
        <ele>116.8</ele>
        <time>2020-06-24T10:58:40Z</time>
      </trkpt>
      <trkpt lat="50.31395" lon="3.71023">
        <ele>116.9</ele>
        <time>2020-06-24T10:58:41Z</time>
      </trkpt>
      <trkpt lat="50.31394" lon="3.7103">
        <ele>117.1</ele>
        <time>2020-06-24T10:58:42Z</time>
      </trkpt>
      <trkpt lat="50.31393" lon="3.71036">
        <ele>117.2</ele>
        <time>2020-06-24T10:58:43Z</time>
      </trkpt>
      <trkpt lat="50.31391" lon="3.71041">
        <ele>117.3</ele>
        <time>2020-06-24T10:58:44Z</time>
      </trkpt>
      <trkpt lat="50.31389" lon="3.71048">
        <ele>117.5</ele>
        <time>2020-06-24T10:58:45Z</time>
      </trkpt>
      <trkpt lat="50.31389" lon="3.71053">
        <ele>117.6</ele>
        <time>2020-06-24T10:58:46Z</time>
      </trkpt>
      <trkpt lat="50.31388" lon="3.71057">
        <ele>117.7</ele>
        <time>2020-06-24T10:58:47Z</time>
      </trkpt>
      <trkpt lat="50.31386" lon="3.71064">
        <ele>117.7</ele>
        <time>2020-06-24T10:58:48Z</time>
      </trkpt>
      <trkpt lat="50.31385" lon="3.71071">
        <ele>117.9</ele>
        <time>2020-06-24T10:58:49Z</time>
      </trkpt>
      <trkpt lat="50.31383" lon="3.71081">
        <ele>118</ele>
        <time>2020-06-24T10:58:50Z</time>
      </trkpt>
      <trkpt lat="50.31382" lon="3.7109">
        <ele>118.1</ele>
        <time>2020-06-24T10:58:51Z</time>
      </trkpt>
      <trkpt lat="50.3138" lon="3.71099">
        <ele>118.2</ele>
        <time>2020-06-24T10:58:52Z</time>
      </trkpt>
      <trkpt lat="50.31378" lon="3.71105">
        <ele>118.3</ele>
        <time>2020-06-24T10:58:53Z</time>
      </trkpt>
      <trkpt lat="50.31377" lon="3.7111">
        <ele>118.4</ele>
        <time>2020-06-24T10:58:54Z</time>
      </trkpt>
      <trkpt lat="50.31375" lon="3.71115">
        <ele>118.5</ele>
        <time>2020-06-24T10:58:55Z</time>
      </trkpt>
      <trkpt lat="50.31373" lon="3.7112">
        <ele>118.6</ele>
        <time>2020-06-24T10:58:56Z</time>
      </trkpt>
      <trkpt lat="50.31371" lon="3.71125">
        <ele>118.7</ele>
        <time>2020-06-24T10:58:57Z</time>
      </trkpt>
      <trkpt lat="50.3137" lon="3.7113">
        <ele>118.7</ele>
        <time>2020-06-24T10:58:58Z</time>
      </trkpt>
      <trkpt lat="50.31367" lon="3.71138">
        <ele>118.8</ele>
        <time>2020-06-24T10:58:59Z</time>
      </trkpt>
      <trkpt lat="50.31366" lon="3.71143">
        <ele>118.9</ele>
        <time>2020-06-24T10:59:00Z</time>
      </trkpt>
      <trkpt lat="50.31364" lon="3.7115">
        <ele>118.9</ele>
        <time>2020-06-24T10:59:01Z</time>
      </trkpt>
      <trkpt lat="50.31363" lon="3.71156">
        <ele>119</ele>
        <time>2020-06-24T10:59:02Z</time>
      </trkpt>
      <trkpt lat="50.31362" lon="3.71163">
        <ele>119.1</ele>
        <time>2020-06-24T10:59:03Z</time>
      </trkpt>
      <trkpt lat="50.31361" lon="3.71169">
        <ele>119.1</ele>
        <time>2020-06-24T10:59:04Z</time>
      </trkpt>
      <trkpt lat="50.3136" lon="3.71176">
        <ele>119.2</ele>
        <time>2020-06-24T10:59:05Z</time>
      </trkpt>
      <trkpt lat="50.31359" lon="3.71186">
        <ele>119.3</ele>
        <time>2020-06-24T10:59:06Z</time>
      </trkpt>
      <trkpt lat="50.31357" lon="3.71192">
        <ele>119.4</ele>
        <time>2020-06-24T10:59:07Z</time>
      </trkpt>
      <trkpt lat="50.31355" lon="3.712">
        <ele>119.5</ele>
        <time>2020-06-24T10:59:08Z</time>
      </trkpt>
      <trkpt lat="50.31354" lon="3.71207">
        <ele>119.6</ele>
        <time>2020-06-24T10:59:09Z</time>
      </trkpt>
      <trkpt lat="50.31352" lon="3.71213">
        <ele>119.7</ele>
        <time>2020-06-24T10:59:10Z</time>
      </trkpt>
      <trkpt lat="50.3135" lon="3.71222">
        <ele>119.9</ele>
        <time>2020-06-24T10:59:11Z</time>
      </trkpt>
      <trkpt lat="50.31348" lon="3.7123">
        <ele>120</ele>
        <time>2020-06-24T10:59:12Z</time>
      </trkpt>
      <trkpt lat="50.31346" lon="3.71237">
        <ele>120.1</ele>
        <time>2020-06-24T10:59:13Z</time>
      </trkpt>
      <trkpt lat="50.31344" lon="3.71244">
        <ele>120.2</ele>
        <time>2020-06-24T10:59:14Z</time>
      </trkpt>
      <trkpt lat="50.31342" lon="3.71249">
        <ele>120.3</ele>
        <time>2020-06-24T10:59:15Z</time>
      </trkpt>
      <trkpt lat="50.3134" lon="3.71257">
        <ele>120.5</ele>
        <time>2020-06-24T10:59:16Z</time>
      </trkpt>
      <trkpt lat="50.31339" lon="3.71263">
        <ele>120.6</ele>
        <time>2020-06-24T10:59:17Z</time>
      </trkpt>
      <trkpt lat="50.31337" lon="3.71269">
        <ele>120.8</ele>
        <time>2020-06-24T10:59:18Z</time>
      </trkpt>
      <trkpt lat="50.31335" lon="3.71279">
        <ele>121.1</ele>
        <time>2020-06-24T10:59:19Z</time>
      </trkpt>
      <trkpt lat="50.31333" lon="3.71287">
        <ele>121.3</ele>
        <time>2020-06-24T10:59:20Z</time>
      </trkpt>
      <trkpt lat="50.31331" lon="3.71292">
        <ele>121.4</ele>
        <time>2020-06-24T10:59:21Z</time>
      </trkpt>
      <trkpt lat="50.3133" lon="3.71299">
        <ele>121.6</ele>
        <time>2020-06-24T10:59:22Z</time>
      </trkpt>
      <trkpt lat="50.31329" lon="3.71305">
        <ele>121.7</ele>
        <time>2020-06-24T10:59:23Z</time>
      </trkpt>
      <trkpt lat="50.31328" lon="3.7131">
        <ele>121.8</ele>
        <time>2020-06-24T10:59:24Z</time>
      </trkpt>
      <trkpt lat="50.31326" lon="3.71315">
        <ele>121.9</ele>
        <time>2020-06-24T10:59:25Z</time>
      </trkpt>
      <trkpt lat="50.31324" lon="3.71321">
        <ele>122</ele>
        <time>2020-06-24T10:59:26Z</time>
      </trkpt>
      <trkpt lat="50.31323" lon="3.71327">
        <ele>122.1</ele>
        <time>2020-06-24T10:59:27Z</time>
      </trkpt>
      <trkpt lat="50.31321" lon="3.71335">
        <ele>122.2</ele>
        <time>2020-06-24T10:59:28Z</time>
      </trkpt>
      <trkpt lat="50.31319" lon="3.71341">
        <ele>122.2</ele>
        <time>2020-06-24T10:59:29Z</time>
      </trkpt>
      <trkpt lat="50.31318" lon="3.71345">
        <ele>122.2</ele>
        <time>2020-06-24T10:59:30Z</time>
      </trkpt>
      <trkpt lat="50.31317" lon="3.71351">
        <ele>122.2</ele>
        <time>2020-06-24T10:59:31Z</time>
      </trkpt>
      <trkpt lat="50.31315" lon="3.71358">
        <ele>122.3</ele>
        <time>2020-06-24T10:59:32Z</time>
      </trkpt>
      <trkpt lat="50.31313" lon="3.71365">
        <ele>122.3</ele>
        <time>2020-06-24T10:59:33Z</time>
      </trkpt>
      <trkpt lat="50.31311" lon="3.71371">
        <ele>122.3</ele>
        <time>2020-06-24T10:59:34Z</time>
      </trkpt>
      <trkpt lat="50.3131" lon="3.71379">
        <ele>122.3</ele>
        <time>2020-06-24T10:59:35Z</time>
      </trkpt>
      <trkpt lat="50.31308" lon="3.71385">
        <ele>122.3</ele>
        <time>2020-06-24T10:59:36Z</time>
      </trkpt>
      <trkpt lat="50.31306" lon="3.7139">
        <ele>122.3</ele>
        <time>2020-06-24T10:59:37Z</time>
      </trkpt>
      <trkpt lat="50.31304" lon="3.71395">
        <ele>122.4</ele>
        <time>2020-06-24T10:59:38Z</time>
      </trkpt>
      <trkpt lat="50.31303" lon="3.71402">
        <ele>122.4</ele>
        <time>2020-06-24T10:59:39Z</time>
      </trkpt>
      <trkpt lat="50.31302" lon="3.71408">
        <ele>122.4</ele>
        <time>2020-06-24T10:59:40Z</time>
      </trkpt>
      <trkpt lat="50.313" lon="3.71414">
        <ele>122.5</ele>
        <time>2020-06-24T10:59:41Z</time>
      </trkpt>
      <trkpt lat="50.313" lon="3.71419">
        <ele>122.5</ele>
        <time>2020-06-24T10:59:42Z</time>
      </trkpt>
      <trkpt lat="50.31298" lon="3.71426">
        <ele>122.5</ele>
        <time>2020-06-24T10:59:43Z</time>
      </trkpt>
      <trkpt lat="50.31296" lon="3.71432">
        <ele>122.4</ele>
        <time>2020-06-24T10:59:44Z</time>
      </trkpt>
      <trkpt lat="50.31295" lon="3.71439">
        <ele>122.4</ele>
        <time>2020-06-24T10:59:45Z</time>
      </trkpt>
      <trkpt lat="50.31293" lon="3.71445">
        <ele>122.3</ele>
        <time>2020-06-24T10:59:46Z</time>
      </trkpt>
      <trkpt lat="50.3129" lon="3.71453">
        <ele>122.2</ele>
        <time>2020-06-24T10:59:47Z</time>
      </trkpt>
      <trkpt lat="50.31288" lon="3.7146">
        <ele>122.1</ele>
        <time>2020-06-24T10:59:48Z</time>
      </trkpt>
      <trkpt lat="50.31286" lon="3.71468">
        <ele>122</ele>
        <time>2020-06-24T10:59:49Z</time>
      </trkpt>
      <trkpt lat="50.31285" lon="3.71475">
        <ele>121.9</ele>
        <time>2020-06-24T10:59:50Z</time>
      </trkpt>
      <trkpt lat="50.31284" lon="3.71483">
        <ele>121.8</ele>
        <time>2020-06-24T10:59:51Z</time>
      </trkpt>
      <trkpt lat="50.31282" lon="3.7149">
        <ele>121.7</ele>
        <time>2020-06-24T10:59:52Z</time>
      </trkpt>
      <trkpt lat="50.3128" lon="3.71497">
        <ele>121.6</ele>
        <time>2020-06-24T10:59:53Z</time>
      </trkpt>
      <trkpt lat="50.31278" lon="3.71504">
        <ele>121.5</ele>
        <time>2020-06-24T10:59:54Z</time>
      </trkpt>
      <trkpt lat="50.31277" lon="3.71512">
        <ele>121.5</ele>
        <time>2020-06-24T10:59:55Z</time>
      </trkpt>
      <trkpt lat="50.31276" lon="3.71517">
        <ele>121.4</ele>
        <time>2020-06-24T10:59:56Z</time>
      </trkpt>
      <trkpt lat="50.31274" lon="3.71522">
        <ele>121.4</ele>
        <time>2020-06-24T10:59:57Z</time>
      </trkpt>
      <trkpt lat="50.31272" lon="3.71526">
        <ele>121.4</ele>
        <time>2020-06-24T10:59:58Z</time>
      </trkpt>
      <trkpt lat="50.3127" lon="3.71529">
        <ele>121.4</ele>
        <time>2020-06-24T10:59:59Z</time>
      </trkpt>
      <trkpt lat="50.31268" lon="3.71532">
        <ele>121.4</ele>
        <time>2020-06-24T11:00:00Z</time>
      </trkpt>
      <trkpt lat="50.31267" lon="3.71534">
        <ele>121.3</ele>
        <time>2020-06-24T11:00:01Z</time>
      </trkpt>
      <trkpt lat="50.31266" lon="3.71536">
        <ele>121.3</ele>
        <time>2020-06-24T11:00:02Z</time>
      </trkpt>
      <trkpt lat="50.31266" lon="3.7154">
        <ele>121.2</ele>
        <time>2020-06-24T11:00:03Z</time>
      </trkpt>
      <trkpt lat="50.31266" lon="3.71542">
        <ele>121.1</ele>
        <time>2020-06-24T11:00:04Z</time>
      </trkpt>
      <trkpt lat="50.31265" lon="3.71547">
        <ele>121</ele>
        <time>2020-06-24T11:00:05Z</time>
      </trkpt>
      <trkpt lat="50.31265" lon="3.71552">
        <ele>120.9</ele>
        <time>2020-06-24T11:00:06Z</time>
      </trkpt>
      <trkpt lat="50.31264" lon="3.71556">
        <ele>120.8</ele>
        <time>2020-06-24T11:00:07Z</time>
      </trkpt>
      <trkpt lat="50.31263" lon="3.71562">
        <ele>120.7</ele>
        <time>2020-06-24T11:00:08Z</time>
      </trkpt>
      <trkpt lat="50.31261" lon="3.71568">
        <ele>120.6</ele>
        <time>2020-06-24T11:00:09Z</time>
      </trkpt>
      <trkpt lat="50.3126" lon="3.71573">
        <ele>120.4</ele>
        <time>2020-06-24T11:00:10Z</time>
      </trkpt>
      <trkpt lat="50.31258" lon="3.7158">
        <ele>120.3</ele>
        <time>2020-06-24T11:00:11Z</time>
      </trkpt>
      <trkpt lat="50.31256" lon="3.71586">
        <ele>120.2</ele>
        <time>2020-06-24T11:00:12Z</time>
      </trkpt>
      <trkpt lat="50.31254" lon="3.71593">
        <ele>120</ele>
        <time>2020-06-24T11:00:13Z</time>
      </trkpt>
      <trkpt lat="50.31253" lon="3.71599">
        <ele>120</ele>
        <time>2020-06-24T11:00:14Z</time>
      </trkpt>
      <trkpt lat="50.31251" lon="3.71604">
        <ele>119.9</ele>
        <time>2020-06-24T11:00:15Z</time>
      </trkpt>
      <trkpt lat="50.3125" lon="3.7161">
        <ele>119.8</ele>
        <time>2020-06-24T11:00:16Z</time>
      </trkpt>
      <trkpt lat="50.31249" lon="3.71616">
        <ele>119.8</ele>
        <time>2020-06-24T11:00:17Z</time>
      </trkpt>
      <trkpt lat="50.31247" lon="3.71622">
        <ele>119.7</ele>
        <time>2020-06-24T11:00:18Z</time>
      </trkpt>
      <trkpt lat="50.31245" lon="3.71629">
        <ele>119.6</ele>
        <time>2020-06-24T11:00:19Z</time>
      </trkpt>
      <trkpt lat="50.31244" lon="3.71634">
        <ele>119.5</ele>
        <time>2020-06-24T11:00:20Z</time>
      </trkpt>
      <trkpt lat="50.31243" lon="3.7164">
        <ele>119.5</ele>
        <time>2020-06-24T11:00:21Z</time>
      </trkpt>
      <trkpt lat="50.3124" lon="3.71646">
        <ele>119.4</ele>
        <time>2020-06-24T11:00:22Z</time>
      </trkpt>
      <trkpt lat="50.31238" lon="3.71653">
        <ele>119.3</ele>
        <time>2020-06-24T11:00:23Z</time>
      </trkpt>
      <trkpt lat="50.31236" lon="3.71659">
        <ele>119.2</ele>
        <time>2020-06-24T11:00:24Z</time>
      </trkpt>
      <trkpt lat="50.31234" lon="3.71663">
        <ele>119.2</ele>
        <time>2020-06-24T11:00:25Z</time>
      </trkpt>
      <trkpt lat="50.31232" lon="3.71668">
        <ele>119.1</ele>
        <time>2020-06-24T11:00:26Z</time>
      </trkpt>
      <trkpt lat="50.31232" lon="3.71673">
        <ele>119.1</ele>
        <time>2020-06-24T11:00:27Z</time>
      </trkpt>
      <trkpt lat="50.31232" lon="3.71679">
        <ele>119</ele>
        <time>2020-06-24T11:00:28Z</time>
      </trkpt>
      <trkpt lat="50.31231" lon="3.71687">
        <ele>118.9</ele>
        <time>2020-06-24T11:00:29Z</time>
      </trkpt>
      <trkpt lat="50.31229" lon="3.71694">
        <ele>118.8</ele>
        <time>2020-06-24T11:00:30Z</time>
      </trkpt>
      <trkpt lat="50.31227" lon="3.71701">
        <ele>118.7</ele>
        <time>2020-06-24T11:00:31Z</time>
      </trkpt>
      <trkpt lat="50.31225" lon="3.71708">
        <ele>118.5</ele>
        <time>2020-06-24T11:00:32Z</time>
      </trkpt>
      <trkpt lat="50.31223" lon="3.71715">
        <ele>118.4</ele>
        <time>2020-06-24T11:00:33Z</time>
      </trkpt>
      <trkpt lat="50.31222" lon="3.71723">
        <ele>118.3</ele>
        <time>2020-06-24T11:00:34Z</time>
      </trkpt>
      <trkpt lat="50.3122" lon="3.71731">
        <ele>118.2</ele>
        <time>2020-06-24T11:00:35Z</time>
      </trkpt>
      <trkpt lat="50.31219" lon="3.71736">
        <ele>118.1</ele>
        <time>2020-06-24T11:00:36Z</time>
      </trkpt>
      <trkpt lat="50.31218" lon="3.71742">
        <ele>118.1</ele>
        <time>2020-06-24T11:00:37Z</time>
      </trkpt>
      <trkpt lat="50.31216" lon="3.71749">
        <ele>118</ele>
        <time>2020-06-24T11:00:38Z</time>
      </trkpt>
      <trkpt lat="50.31214" lon="3.71756">
        <ele>117.9</ele>
        <time>2020-06-24T11:00:39Z</time>
      </trkpt>
      <trkpt lat="50.31212" lon="3.71764">
        <ele>117.8</ele>
        <time>2020-06-24T11:00:40Z</time>
      </trkpt>
      <trkpt lat="50.3121" lon="3.71772">
        <ele>117.7</ele>
        <time>2020-06-24T11:00:41Z</time>
      </trkpt>
      <trkpt lat="50.31209" lon="3.71779">
        <ele>117.6</ele>
        <time>2020-06-24T11:00:42Z</time>
      </trkpt>
      <trkpt lat="50.31206" lon="3.71786">
        <ele>117.5</ele>
        <time>2020-06-24T11:00:43Z</time>
      </trkpt>
      <trkpt lat="50.31205" lon="3.71795">
        <ele>117.5</ele>
        <time>2020-06-24T11:00:44Z</time>
      </trkpt>
      <trkpt lat="50.31203" lon="3.71801">
        <ele>117.4</ele>
        <time>2020-06-24T11:00:45Z</time>
      </trkpt>
      <trkpt lat="50.31202" lon="3.71807">
        <ele>117.3</ele>
        <time>2020-06-24T11:00:46Z</time>
      </trkpt>
      <trkpt lat="50.312" lon="3.71815">
        <ele>117.3</ele>
        <time>2020-06-24T11:00:47Z</time>
      </trkpt>
      <trkpt lat="50.31199" lon="3.71822">
        <ele>117.2</ele>
        <time>2020-06-24T11:00:48Z</time>
      </trkpt>
      <trkpt lat="50.31197" lon="3.71829">
        <ele>117.1</ele>
        <time>2020-06-24T11:00:49Z</time>
      </trkpt>
      <trkpt lat="50.31195" lon="3.71837">
        <ele>117</ele>
        <time>2020-06-24T11:00:50Z</time>
      </trkpt>
      <trkpt lat="50.31194" lon="3.71844">
        <ele>117</ele>
        <time>2020-06-24T11:00:51Z</time>
      </trkpt>
      <trkpt lat="50.31192" lon="3.71851">
        <ele>117</ele>
        <time>2020-06-24T11:00:52Z</time>
      </trkpt>
      <trkpt lat="50.3119" lon="3.71858">
        <ele>116.9</ele>
        <time>2020-06-24T11:00:53Z</time>
      </trkpt>
      <trkpt lat="50.31188" lon="3.71866">
        <ele>116.9</ele>
        <time>2020-06-24T11:00:54Z</time>
      </trkpt>
      <trkpt lat="50.31185" lon="3.71875">
        <ele>117</ele>
        <time>2020-06-24T11:00:55Z</time>
      </trkpt>
      <trkpt lat="50.31185" lon="3.7188">
        <ele>117</ele>
        <time>2020-06-24T11:00:56Z</time>
      </trkpt>
      <trkpt lat="50.31184" lon="3.71888">
        <ele>117</ele>
        <time>2020-06-24T11:00:57Z</time>
      </trkpt>
      <trkpt lat="50.31182" lon="3.71895">
        <ele>117</ele>
        <time>2020-06-24T11:00:58Z</time>
      </trkpt>
      <trkpt lat="50.3118" lon="3.71902">
        <ele>117.1</ele>
        <time>2020-06-24T11:00:59Z</time>
      </trkpt>
      <trkpt lat="50.31179" lon="3.71908">
        <ele>117.1</ele>
        <time>2020-06-24T11:01:00Z</time>
      </trkpt>
      <trkpt lat="50.31177" lon="3.71914">
        <ele>117.1</ele>
        <time>2020-06-24T11:01:01Z</time>
      </trkpt>
      <trkpt lat="50.31176" lon="3.7192">
        <ele>117.2</ele>
        <time>2020-06-24T11:01:02Z</time>
      </trkpt>
      <trkpt lat="50.31174" lon="3.71927">
        <ele>117.3</ele>
        <time>2020-06-24T11:01:03Z</time>
      </trkpt>
      <trkpt lat="50.31173" lon="3.71933">
        <ele>117.4</ele>
        <time>2020-06-24T11:01:04Z</time>
      </trkpt>
      <trkpt lat="50.31172" lon="3.7194">
        <ele>117.5</ele>
        <time>2020-06-24T11:01:05Z</time>
      </trkpt>
      <trkpt lat="50.3117" lon="3.71947">
        <ele>117.6</ele>
        <time>2020-06-24T11:01:06Z</time>
      </trkpt>
      <trkpt lat="50.31167" lon="3.71955">
        <ele>117.8</ele>
        <time>2020-06-24T11:01:07Z</time>
      </trkpt>
      <trkpt lat="50.31166" lon="3.71962">
        <ele>117.8</ele>
        <time>2020-06-24T11:01:08Z</time>
      </trkpt>
      <trkpt lat="50.31164" lon="3.71968">
        <ele>117.9</ele>
        <time>2020-06-24T11:01:09Z</time>
      </trkpt>
      <trkpt lat="50.31163" lon="3.71974">
        <ele>117.9</ele>
        <time>2020-06-24T11:01:10Z</time>
      </trkpt>
      <trkpt lat="50.31162" lon="3.71981">
        <ele>117.9</ele>
        <time>2020-06-24T11:01:11Z</time>
      </trkpt>
      <trkpt lat="50.31161" lon="3.71988">
        <ele>118</ele>
        <time>2020-06-24T11:01:12Z</time>
      </trkpt>
      <trkpt lat="50.31159" lon="3.71995">
        <ele>118.1</ele>
        <time>2020-06-24T11:01:13Z</time>
      </trkpt>
      <trkpt lat="50.31158" lon="3.72002">
        <ele>118.1</ele>
        <time>2020-06-24T11:01:14Z</time>
      </trkpt>
      <trkpt lat="50.31156" lon="3.72009">
        <ele>118.2</ele>
        <time>2020-06-24T11:01:15Z</time>
      </trkpt>
      <trkpt lat="50.31154" lon="3.72016">
        <ele>118.3</ele>
        <time>2020-06-24T11:01:16Z</time>
      </trkpt>
      <trkpt lat="50.31152" lon="3.72022">
        <ele>118.4</ele>
        <time>2020-06-24T11:01:17Z</time>
      </trkpt>
      <trkpt lat="50.3115" lon="3.72028">
        <ele>118.4</ele>
        <time>2020-06-24T11:01:18Z</time>
      </trkpt>
      <trkpt lat="50.31149" lon="3.72034">
        <ele>118.5</ele>
        <time>2020-06-24T11:01:19Z</time>
      </trkpt>
      <trkpt lat="50.31148" lon="3.72038">
        <ele>118.5</ele>
        <time>2020-06-24T11:01:20Z</time>
      </trkpt>
      <trkpt lat="50.31146" lon="3.72043">
        <ele>118.6</ele>
        <time>2020-06-24T11:01:21Z</time>
      </trkpt>
      <trkpt lat="50.31145" lon="3.72048">
        <ele>118.7</ele>
        <time>2020-06-24T11:01:22Z</time>
      </trkpt>
      <trkpt lat="50.31144" lon="3.72052">
        <ele>118.7</ele>
        <time>2020-06-24T11:01:23Z</time>
      </trkpt>
      <trkpt lat="50.31143" lon="3.72057">
        <ele>118.8</ele>
        <time>2020-06-24T11:01:24Z</time>
      </trkpt>
      <trkpt lat="50.31141" lon="3.72062">
        <ele>118.8</ele>
        <time>2020-06-24T11:01:25Z</time>
      </trkpt>
      <trkpt lat="50.3114" lon="3.72063">
        <ele>118.8</ele>
        <time>2020-06-24T11:01:26Z</time>
      </trkpt>
      <trkpt lat="50.3114" lon="3.72068">
        <ele>118.9</ele>
        <time>2020-06-24T11:01:27Z</time>
      </trkpt>
      <trkpt lat="50.3114" lon="3.7207">
        <ele>118.9</ele>
        <time>2020-06-24T11:01:28Z</time>
      </trkpt>
      <trkpt lat="50.31139" lon="3.72075">
        <ele>119</ele>
        <time>2020-06-24T11:01:29Z</time>
      </trkpt>
      <trkpt lat="50.31138" lon="3.7208">
        <ele>119</ele>
        <time>2020-06-24T11:01:30Z</time>
      </trkpt>
      <trkpt lat="50.31137" lon="3.72084">
        <ele>119</ele>
        <time>2020-06-24T11:01:31Z</time>
      </trkpt>
      <trkpt lat="50.31136" lon="3.72088">
        <ele>119.1</ele>
        <time>2020-06-24T11:01:32Z</time>
      </trkpt>
      <trkpt lat="50.31134" lon="3.72094">
        <ele>119.2</ele>
        <time>2020-06-24T11:01:33Z</time>
      </trkpt>
      <trkpt lat="50.31133" lon="3.72096">
        <ele>119.2</ele>
        <time>2020-06-24T11:01:34Z</time>
      </trkpt>
      <trkpt lat="50.31132" lon="3.721">
        <ele>119.2</ele>
        <time>2020-06-24T11:01:35Z</time>
      </trkpt>
      <trkpt lat="50.3113" lon="3.72104">
        <ele>119.2</ele>
        <time>2020-06-24T11:01:36Z</time>
      </trkpt>
      <trkpt lat="50.31129" lon="3.72108">
        <ele>119.3</ele>
        <time>2020-06-24T11:01:37Z</time>
      </trkpt>
      <trkpt lat="50.31128" lon="3.72114">
        <ele>119.4</ele>
        <time>2020-06-24T11:01:38Z</time>
      </trkpt>
      <trkpt lat="50.31127" lon="3.72119">
        <ele>119.5</ele>
        <time>2020-06-24T11:01:39Z</time>
      </trkpt>
      <trkpt lat="50.31125" lon="3.72124">
        <ele>119.6</ele>
        <time>2020-06-24T11:01:40Z</time>
      </trkpt>
      <trkpt lat="50.31124" lon="3.72129">
        <ele>119.7</ele>
        <time>2020-06-24T11:01:41Z</time>
      </trkpt>
      <trkpt lat="50.31123" lon="3.72134">
        <ele>119.8</ele>
        <time>2020-06-24T11:01:42Z</time>
      </trkpt>
      <trkpt lat="50.31121" lon="3.72138">
        <ele>119.9</ele>
        <time>2020-06-24T11:01:43Z</time>
      </trkpt>
      <trkpt lat="50.31119" lon="3.72144">
        <ele>120.1</ele>
        <time>2020-06-24T11:01:44Z</time>
      </trkpt>
      <trkpt lat="50.31118" lon="3.72149">
        <ele>120.2</ele>
        <time>2020-06-24T11:01:45Z</time>
      </trkpt>
      <trkpt lat="50.31117" lon="3.72154">
        <ele>120.3</ele>
        <time>2020-06-24T11:01:46Z</time>
      </trkpt>
      <trkpt lat="50.31114" lon="3.7216">
        <ele>120.5</ele>
        <time>2020-06-24T11:01:47Z</time>
      </trkpt>
      <trkpt lat="50.31113" lon="3.72167">
        <ele>120.6</ele>
        <time>2020-06-24T11:01:48Z</time>
      </trkpt>
      <trkpt lat="50.31111" lon="3.72175">
        <ele>120.9</ele>
        <time>2020-06-24T11:01:49Z</time>
      </trkpt>
      <trkpt lat="50.31109" lon="3.72183">
        <ele>121.1</ele>
        <time>2020-06-24T11:01:50Z</time>
      </trkpt>
      <trkpt lat="50.31108" lon="3.72189">
        <ele>121.2</ele>
        <time>2020-06-24T11:01:51Z</time>
      </trkpt>
      <trkpt lat="50.31107" lon="3.72195">
        <ele>121.4</ele>
        <time>2020-06-24T11:01:52Z</time>
      </trkpt>
      <trkpt lat="50.31105" lon="3.72201">
        <ele>121.6</ele>
        <time>2020-06-24T11:01:53Z</time>
      </trkpt>
      <trkpt lat="50.31103" lon="3.72207">
        <ele>121.7</ele>
        <time>2020-06-24T11:01:54Z</time>
      </trkpt>
      <trkpt lat="50.31101" lon="3.72213">
        <ele>121.9</ele>
        <time>2020-06-24T11:01:55Z</time>
      </trkpt>
      <trkpt lat="50.311" lon="3.72219">
        <ele>122</ele>
        <time>2020-06-24T11:01:56Z</time>
      </trkpt>
      <trkpt lat="50.31098" lon="3.72225">
        <ele>122.2</ele>
        <time>2020-06-24T11:01:57Z</time>
      </trkpt>
      <trkpt lat="50.31096" lon="3.7223">
        <ele>122.3</ele>
        <time>2020-06-24T11:01:58Z</time>
      </trkpt>
      <trkpt lat="50.31094" lon="3.72236">
        <ele>122.5</ele>
        <time>2020-06-24T11:01:59Z</time>
      </trkpt>
      <trkpt lat="50.31093" lon="3.72242">
        <ele>122.6</ele>
        <time>2020-06-24T11:02:00Z</time>
      </trkpt>
      <trkpt lat="50.31092" lon="3.72247">
        <ele>122.7</ele>
        <time>2020-06-24T11:02:01Z</time>
      </trkpt>
      <trkpt lat="50.3109" lon="3.72252">
        <ele>122.8</ele>
        <time>2020-06-24T11:02:02Z</time>
      </trkpt>
      <trkpt lat="50.31089" lon="3.72257">
        <ele>122.9</ele>
        <time>2020-06-24T11:02:03Z</time>
      </trkpt>
      <trkpt lat="50.3109" lon="3.72266">
        <ele>123.1</ele>
        <time>2020-06-24T11:02:04Z</time>
      </trkpt>
      <trkpt lat="50.3109" lon="3.72272">
        <ele>123.2</ele>
        <time>2020-06-24T11:02:05Z</time>
      </trkpt>
      <trkpt lat="50.31088" lon="3.72277">
        <ele>123.3</ele>
        <time>2020-06-24T11:02:06Z</time>
      </trkpt>
      <trkpt lat="50.31087" lon="3.72284">
        <ele>123.4</ele>
        <time>2020-06-24T11:02:07Z</time>
      </trkpt>
      <trkpt lat="50.31085" lon="3.72289">
        <ele>123.5</ele>
        <time>2020-06-24T11:02:08Z</time>
      </trkpt>
      <trkpt lat="50.31084" lon="3.72295">
        <ele>123.6</ele>
        <time>2020-06-24T11:02:09Z</time>
      </trkpt>
      <trkpt lat="50.31083" lon="3.72302">
        <ele>123.7</ele>
        <time>2020-06-24T11:02:10Z</time>
      </trkpt>
      <trkpt lat="50.31082" lon="3.72307">
        <ele>123.8</ele>
        <time>2020-06-24T11:02:11Z</time>
      </trkpt>
      <trkpt lat="50.31081" lon="3.72311">
        <ele>123.9</ele>
        <time>2020-06-24T11:02:12Z</time>
      </trkpt>
      <trkpt lat="50.31079" lon="3.72316">
        <ele>124</ele>
        <time>2020-06-24T11:02:13Z</time>
      </trkpt>
      <trkpt lat="50.31078" lon="3.72321">
        <ele>124.1</ele>
        <time>2020-06-24T11:02:14Z</time>
      </trkpt>
      <trkpt lat="50.31077" lon="3.72327">
        <ele>124.2</ele>
        <time>2020-06-24T11:02:15Z</time>
      </trkpt>
      <trkpt lat="50.31075" lon="3.72334">
        <ele>124.4</ele>
        <time>2020-06-24T11:02:16Z</time>
      </trkpt>
      <trkpt lat="50.31073" lon="3.72339">
        <ele>124.5</ele>
        <time>2020-06-24T11:02:17Z</time>
      </trkpt>
      <trkpt lat="50.31072" lon="3.72345">
        <ele>124.6</ele>
        <time>2020-06-24T11:02:18Z</time>
      </trkpt>
      <trkpt lat="50.3107" lon="3.7235">
        <ele>124.7</ele>
        <time>2020-06-24T11:02:19Z</time>
      </trkpt>
      <trkpt lat="50.31068" lon="3.72356">
        <ele>124.9</ele>
        <time>2020-06-24T11:02:20Z</time>
      </trkpt>
      <trkpt lat="50.31066" lon="3.72362">
        <ele>125</ele>
        <time>2020-06-24T11:02:21Z</time>
      </trkpt>
      <trkpt lat="50.31064" lon="3.72368">
        <ele>125.1</ele>
        <time>2020-06-24T11:02:22Z</time>
      </trkpt>
      <trkpt lat="50.31063" lon="3.72374">
        <ele>125.3</ele>
        <time>2020-06-24T11:02:23Z</time>
      </trkpt>
      <trkpt lat="50.31061" lon="3.72379">
        <ele>125.4</ele>
        <time>2020-06-24T11:02:24Z</time>
      </trkpt>
      <trkpt lat="50.3106" lon="3.72385">
        <ele>125.6</ele>
        <time>2020-06-24T11:02:25Z</time>
      </trkpt>
      <trkpt lat="50.3106" lon="3.72393">
        <ele>125.8</ele>
        <time>2020-06-24T11:02:26Z</time>
      </trkpt>
      <trkpt lat="50.31059" lon="3.72399">
        <ele>125.9</ele>
        <time>2020-06-24T11:02:27Z</time>
      </trkpt>
      <trkpt lat="50.31058" lon="3.72405">
        <ele>126.1</ele>
        <time>2020-06-24T11:02:28Z</time>
      </trkpt>
      <trkpt lat="50.31056" lon="3.72412">
        <ele>126.2</ele>
        <time>2020-06-24T11:02:29Z</time>
      </trkpt>
      <trkpt lat="50.31054" lon="3.72419">
        <ele>126.4</ele>
        <time>2020-06-24T11:02:30Z</time>
      </trkpt>
      <trkpt lat="50.31052" lon="3.72426">
        <ele>126.5</ele>
        <time>2020-06-24T11:02:31Z</time>
      </trkpt>
      <trkpt lat="50.3105" lon="3.72433">
        <ele>126.6</ele>
        <time>2020-06-24T11:02:32Z</time>
      </trkpt>
      <trkpt lat="50.31049" lon="3.7244">
        <ele>126.7</ele>
        <time>2020-06-24T11:02:33Z</time>
      </trkpt>
      <trkpt lat="50.31047" lon="3.72446">
        <ele>126.8</ele>
        <time>2020-06-24T11:02:34Z</time>
      </trkpt>
      <trkpt lat="50.31044" lon="3.72453">
        <ele>126.9</ele>
        <time>2020-06-24T11:02:35Z</time>
      </trkpt>
      <trkpt lat="50.31043" lon="3.72458">
        <ele>127</ele>
        <time>2020-06-24T11:02:36Z</time>
      </trkpt>
      <trkpt lat="50.31042" lon="3.72464">
        <ele>127</ele>
        <time>2020-06-24T11:02:37Z</time>
      </trkpt>
      <trkpt lat="50.31041" lon="3.72469">
        <ele>127.1</ele>
        <time>2020-06-24T11:02:38Z</time>
      </trkpt>
      <trkpt lat="50.31039" lon="3.72475">
        <ele>127.1</ele>
        <time>2020-06-24T11:02:39Z</time>
      </trkpt>
      <trkpt lat="50.31038" lon="3.72481">
        <ele>127.2</ele>
        <time>2020-06-24T11:02:40Z</time>
      </trkpt>
      <trkpt lat="50.31037" lon="3.72486">
        <ele>127.3</ele>
        <time>2020-06-24T11:02:41Z</time>
      </trkpt>
      <trkpt lat="50.31036" lon="3.72492">
        <ele>127.3</ele>
        <time>2020-06-24T11:02:42Z</time>
      </trkpt>
      <trkpt lat="50.31036" lon="3.72499">
        <ele>127.4</ele>
        <time>2020-06-24T11:02:43Z</time>
      </trkpt>
      <trkpt lat="50.31035" lon="3.72505">
        <ele>127.5</ele>
        <time>2020-06-24T11:02:44Z</time>
      </trkpt>
      <trkpt lat="50.31034" lon="3.72511">
        <ele>127.6</ele>
        <time>2020-06-24T11:02:45Z</time>
      </trkpt>
      <trkpt lat="50.31032" lon="3.72517">
        <ele>127.7</ele>
        <time>2020-06-24T11:02:46Z</time>
      </trkpt>
      <trkpt lat="50.31031" lon="3.72523">
        <ele>127.9</ele>
        <time>2020-06-24T11:02:47Z</time>
      </trkpt>
      <trkpt lat="50.31028" lon="3.72529">
        <ele>128</ele>
        <time>2020-06-24T11:02:48Z</time>
      </trkpt>
      <trkpt lat="50.31026" lon="3.72535">
        <ele>128.2</ele>
        <time>2020-06-24T11:02:49Z</time>
      </trkpt>
      <trkpt lat="50.31024" lon="3.72541">
        <ele>128.3</ele>
        <time>2020-06-24T11:02:50Z</time>
      </trkpt>
      <trkpt lat="50.31023" lon="3.72548">
        <ele>128.4</ele>
        <time>2020-06-24T11:02:51Z</time>
      </trkpt>
      <trkpt lat="50.31021" lon="3.72553">
        <ele>128.5</ele>
        <time>2020-06-24T11:02:52Z</time>
      </trkpt>
      <trkpt lat="50.31022" lon="3.7256">
        <ele>128.5</ele>
        <time>2020-06-24T11:02:53Z</time>
      </trkpt>
      <trkpt lat="50.3102" lon="3.72565">
        <ele>128.6</ele>
        <time>2020-06-24T11:02:54Z</time>
      </trkpt>
      <trkpt lat="50.31018" lon="3.72571">
        <ele>128.6</ele>
        <time>2020-06-24T11:02:55Z</time>
      </trkpt>
      <trkpt lat="50.31017" lon="3.72577">
        <ele>128.6</ele>
        <time>2020-06-24T11:02:56Z</time>
      </trkpt>
      <trkpt lat="50.31016" lon="3.72582">
        <ele>128.6</ele>
        <time>2020-06-24T11:02:57Z</time>
      </trkpt>
      <trkpt lat="50.31013" lon="3.72588">
        <ele>128.6</ele>
        <time>2020-06-24T11:02:58Z</time>
      </trkpt>
      <trkpt lat="50.31011" lon="3.72594">
        <ele>128.6</ele>
        <time>2020-06-24T11:02:59Z</time>
      </trkpt>
      <trkpt lat="50.31009" lon="3.72601">
        <ele>128.6</ele>
        <time>2020-06-24T11:03:00Z</time>
      </trkpt>
      <trkpt lat="50.31007" lon="3.72608">
        <ele>128.6</ele>
        <time>2020-06-24T11:03:01Z</time>
      </trkpt>
      <trkpt lat="50.31005" lon="3.72615">
        <ele>128.6</ele>
        <time>2020-06-24T11:03:02Z</time>
      </trkpt>
      <trkpt lat="50.31003" lon="3.72623">
        <ele>128.5</ele>
        <time>2020-06-24T11:03:03Z</time>
      </trkpt>
      <trkpt lat="50.31001" lon="3.7263">
        <ele>128.5</ele>
        <time>2020-06-24T11:03:04Z</time>
      </trkpt>
      <trkpt lat="50.30999" lon="3.72637">
        <ele>128.5</ele>
        <time>2020-06-24T11:03:05Z</time>
      </trkpt>
      <trkpt lat="50.30997" lon="3.72642">
        <ele>128.5</ele>
        <time>2020-06-24T11:03:06Z</time>
      </trkpt>
      <trkpt lat="50.30995" lon="3.72649">
        <ele>128.5</ele>
        <time>2020-06-24T11:03:07Z</time>
      </trkpt>
      <trkpt lat="50.30993" lon="3.72657">
        <ele>128.5</ele>
        <time>2020-06-24T11:03:08Z</time>
      </trkpt>
      <trkpt lat="50.30991" lon="3.72663">
        <ele>128.6</ele>
        <time>2020-06-24T11:03:09Z</time>
      </trkpt>
      <trkpt lat="50.30989" lon="3.7267">
        <ele>128.6</ele>
        <time>2020-06-24T11:03:10Z</time>
      </trkpt>
      <trkpt lat="50.30986" lon="3.72677">
        <ele>128.7</ele>
        <time>2020-06-24T11:03:11Z</time>
      </trkpt>
      <trkpt lat="50.30985" lon="3.72683">
        <ele>128.7</ele>
        <time>2020-06-24T11:03:12Z</time>
      </trkpt>
      <trkpt lat="50.30983" lon="3.7269">
        <ele>128.7</ele>
        <time>2020-06-24T11:03:13Z</time>
      </trkpt>
      <trkpt lat="50.30982" lon="3.72697">
        <ele>128.7</ele>
        <time>2020-06-24T11:03:14Z</time>
      </trkpt>
      <trkpt lat="50.3098" lon="3.72703">
        <ele>128.7</ele>
        <time>2020-06-24T11:03:15Z</time>
      </trkpt>
      <trkpt lat="50.30979" lon="3.7271">
        <ele>128.7</ele>
        <time>2020-06-24T11:03:16Z</time>
      </trkpt>
      <trkpt lat="50.30978" lon="3.72717">
        <ele>128.7</ele>
        <time>2020-06-24T11:03:17Z</time>
      </trkpt>
      <trkpt lat="50.30977" lon="3.72723">
        <ele>128.7</ele>
        <time>2020-06-24T11:03:18Z</time>
      </trkpt>
      <trkpt lat="50.30976" lon="3.72729">
        <ele>128.7</ele>
        <time>2020-06-24T11:03:19Z</time>
      </trkpt>
      <trkpt lat="50.30974" lon="3.72734">
        <ele>128.7</ele>
        <time>2020-06-24T11:03:20Z</time>
      </trkpt>
      <trkpt lat="50.30972" lon="3.72739">
        <ele>128.7</ele>
        <time>2020-06-24T11:03:21Z</time>
      </trkpt>
      <trkpt lat="50.3097" lon="3.72745">
        <ele>128.6</ele>
        <time>2020-06-24T11:03:22Z</time>
      </trkpt>
      <trkpt lat="50.30968" lon="3.72752">
        <ele>128.5</ele>
        <time>2020-06-24T11:03:23Z</time>
      </trkpt>
      <trkpt lat="50.30966" lon="3.72758">
        <ele>128.4</ele>
        <time>2020-06-24T11:03:24Z</time>
      </trkpt>
      <trkpt lat="50.30965" lon="3.72765">
        <ele>128.2</ele>
        <time>2020-06-24T11:03:25Z</time>
      </trkpt>
      <trkpt lat="50.30963" lon="3.7277">
        <ele>128</ele>
        <time>2020-06-24T11:03:26Z</time>
      </trkpt>
      <trkpt lat="50.30962" lon="3.72776">
        <ele>127.8</ele>
        <time>2020-06-24T11:03:27Z</time>
      </trkpt>
      <trkpt lat="50.30961" lon="3.72782">
        <ele>127.6</ele>
        <time>2020-06-24T11:03:28Z</time>
      </trkpt>
      <trkpt lat="50.3096" lon="3.72787">
        <ele>127.4</ele>
        <time>2020-06-24T11:03:29Z</time>
      </trkpt>
      <trkpt lat="50.30959" lon="3.72793">
        <ele>127.3</ele>
        <time>2020-06-24T11:03:30Z</time>
      </trkpt>
      <trkpt lat="50.30958" lon="3.72798">
        <ele>127.1</ele>
        <time>2020-06-24T11:03:31Z</time>
      </trkpt>
      <trkpt lat="50.30957" lon="3.72803">
        <ele>127</ele>
        <time>2020-06-24T11:03:32Z</time>
      </trkpt>
      <trkpt lat="50.30956" lon="3.72808">
        <ele>126.9</ele>
        <time>2020-06-24T11:03:33Z</time>
      </trkpt>
      <trkpt lat="50.30955" lon="3.72814">
        <ele>126.7</ele>
        <time>2020-06-24T11:03:34Z</time>
      </trkpt>
      <trkpt lat="50.30955" lon="3.72815">
        <ele>126.7</ele>
        <time>2020-06-24T11:03:35Z</time>
      </trkpt>
      <trkpt lat="50.30954" lon="3.7282">
        <ele>126.6</ele>
        <time>2020-06-24T11:03:36Z</time>
      </trkpt>
      <trkpt lat="50.30953" lon="3.72821">
        <ele>126.5</ele>
        <time>2020-06-24T11:03:37Z</time>
      </trkpt>
      <trkpt lat="50.30953" lon="3.72822">
        <ele>126.5</ele>
        <time>2020-06-24T11:03:38Z</time>
      </trkpt>
      <trkpt lat="50.30953" lon="3.72824">
        <ele>126.5</ele>
        <time>2020-06-24T11:03:39Z</time>
      </trkpt>
      <trkpt lat="50.30952" lon="3.72824">
        <ele>126.5</ele>
        <time>2020-06-24T11:03:40Z</time>
      </trkpt>
      <trkpt lat="50.30953" lon="3.72826">
        <ele>126.4</ele>
        <time>2020-06-24T11:03:41Z</time>
      </trkpt>
      <trkpt lat="50.30953" lon="3.72826">
        <ele>126.4</ele>
        <time>2020-06-24T11:03:42Z</time>
      </trkpt>
      <trkpt lat="50.30953" lon="3.72825">
        <ele>126.4</ele>
        <time>2020-06-24T11:03:43Z</time>
      </trkpt>
      <trkpt lat="50.30953" lon="3.72826">
        <ele>126.4</ele>
        <time>2020-06-24T11:03:44Z</time>
      </trkpt>
      <trkpt lat="50.30953" lon="3.72826">
        <ele>126.4</ele>
        <time>2020-06-24T11:03:45Z</time>
      </trkpt>
      <trkpt lat="50.30952" lon="3.72826">
        <ele>126.4</ele>
        <time>2020-06-24T11:03:46Z</time>
      </trkpt>
      <trkpt lat="50.30952" lon="3.72826">
        <ele>126.4</ele>
        <time>2020-06-24T11:03:47Z</time>
      </trkpt>
      <trkpt lat="50.30952" lon="3.72827">
        <ele>126.4</ele>
        <time>2020-06-24T11:03:48Z</time>
      </trkpt>
      <trkpt lat="50.30953" lon="3.72827">
        <ele>126.3</ele>
        <time>2020-06-24T11:03:49Z</time>
      </trkpt>
      <trkpt lat="50.30953" lon="3.72828">
        <ele>126.3</ele>
        <time>2020-06-24T11:03:50Z</time>
      </trkpt>
      <trkpt lat="50.30953" lon="3.72828">
        <ele>126.3</ele>
        <time>2020-06-24T11:03:51Z</time>
      </trkpt>
      <trkpt lat="50.30953" lon="3.72828">
        <ele>126.3</ele>
        <time>2020-06-24T11:03:52Z</time>
      </trkpt>
      <trkpt lat="50.30953" lon="3.72828">
        <ele>126.3</ele>
        <time>2020-06-24T11:03:53Z</time>
      </trkpt>
      <trkpt lat="50.30953" lon="3.72827">
        <ele>126.3</ele>
        <time>2020-06-24T11:03:54Z</time>
      </trkpt>
      <trkpt lat="50.30953" lon="3.72828">
        <ele>126.3</ele>
        <time>2020-06-24T11:03:55Z</time>
      </trkpt>
      <trkpt lat="50.30953" lon="3.72827">
        <ele>126.3</ele>
        <time>2020-06-24T11:03:56Z</time>
      </trkpt>
      <trkpt lat="50.30953" lon="3.72827">
        <ele>126.3</ele>
        <time>2020-06-24T11:03:57Z</time>
      </trkpt>
      <trkpt lat="50.30953" lon="3.72827">
        <ele>126.3</ele>
        <time>2020-06-24T11:03:58Z</time>
      </trkpt>
      <trkpt lat="50.30953" lon="3.72828">
        <ele>126.3</ele>
        <time>2020-06-24T11:03:59Z</time>
      </trkpt>
      <trkpt lat="50.30954" lon="3.7283">
        <ele>126.2</ele>
        <time>2020-06-24T11:04:00Z</time>
      </trkpt>
      <trkpt lat="50.30954" lon="3.72834">
        <ele>126.1</ele>
        <time>2020-06-24T11:04:01Z</time>
      </trkpt>
      <trkpt lat="50.30953" lon="3.72836">
        <ele>126.1</ele>
        <time>2020-06-24T11:04:02Z</time>
      </trkpt>
      <trkpt lat="50.30953" lon="3.72838">
        <ele>126.1</ele>
        <time>2020-06-24T11:04:03Z</time>
      </trkpt>
      <trkpt lat="50.30952" lon="3.72844">
        <ele>126</ele>
        <time>2020-06-24T11:04:04Z</time>
      </trkpt>
      <trkpt lat="50.30951" lon="3.7285">
        <ele>125.9</ele>
        <time>2020-06-24T11:04:05Z</time>
      </trkpt>
      <trkpt lat="50.3095" lon="3.72855">
        <ele>125.8</ele>
        <time>2020-06-24T11:04:06Z</time>
      </trkpt>
      <trkpt lat="50.3095" lon="3.7286">
        <ele>125.8</ele>
        <time>2020-06-24T11:04:07Z</time>
      </trkpt>
      <trkpt lat="50.30949" lon="3.72865">
        <ele>125.7</ele>
        <time>2020-06-24T11:04:08Z</time>
      </trkpt>
      <trkpt lat="50.30948" lon="3.72872">
        <ele>125.7</ele>
        <time>2020-06-24T11:04:09Z</time>
      </trkpt>
      <trkpt lat="50.30945" lon="3.72877">
        <ele>125.7</ele>
        <time>2020-06-24T11:04:10Z</time>
      </trkpt>
      <trkpt lat="50.30943" lon="3.72884">
        <ele>125.6</ele>
        <time>2020-06-24T11:04:11Z</time>
      </trkpt>
      <trkpt lat="50.30942" lon="3.72891">
        <ele>125.5</ele>
        <time>2020-06-24T11:04:12Z</time>
      </trkpt>
      <trkpt lat="50.3094" lon="3.72896">
        <ele>125.4</ele>
        <time>2020-06-24T11:04:13Z</time>
      </trkpt>
      <trkpt lat="50.30939" lon="3.72903">
        <ele>125.4</ele>
        <time>2020-06-24T11:04:14Z</time>
      </trkpt>
      <trkpt lat="50.30937" lon="3.72909">
        <ele>125.3</ele>
        <time>2020-06-24T11:04:15Z</time>
      </trkpt>
      <trkpt lat="50.30935" lon="3.72917">
        <ele>125.1</ele>
        <time>2020-06-24T11:04:16Z</time>
      </trkpt>
      <trkpt lat="50.30933" lon="3.72925">
        <ele>125</ele>
        <time>2020-06-24T11:04:17Z</time>
      </trkpt>
      <trkpt lat="50.30931" lon="3.72934">
        <ele>125</ele>
        <time>2020-06-24T11:04:18Z</time>
      </trkpt>
      <trkpt lat="50.30929" lon="3.72942">
        <ele>124.9</ele>
        <time>2020-06-24T11:04:19Z</time>
      </trkpt>
      <trkpt lat="50.30927" lon="3.7295">
        <ele>124.9</ele>
        <time>2020-06-24T11:04:20Z</time>
      </trkpt>
      <trkpt lat="50.30925" lon="3.72959">
        <ele>124.9</ele>
        <time>2020-06-24T11:04:21Z</time>
      </trkpt>
      <trkpt lat="50.30923" lon="3.72965">
        <ele>124.9</ele>
        <time>2020-06-24T11:04:22Z</time>
      </trkpt>
      <trkpt lat="50.30921" lon="3.72973">
        <ele>124.8</ele>
        <time>2020-06-24T11:04:23Z</time>
      </trkpt>
      <trkpt lat="50.30919" lon="3.72979">
        <ele>124.8</ele>
        <time>2020-06-24T11:04:24Z</time>
      </trkpt>
      <trkpt lat="50.30918" lon="3.72986">
        <ele>124.9</ele>
        <time>2020-06-24T11:04:25Z</time>
      </trkpt>
      <trkpt lat="50.30917" lon="3.72992">
        <ele>124.9</ele>
        <time>2020-06-24T11:04:26Z</time>
      </trkpt>
      <trkpt lat="50.30916" lon="3.72998">
        <ele>124.9</ele>
        <time>2020-06-24T11:04:27Z</time>
      </trkpt>
      <trkpt lat="50.30915" lon="3.73005">
        <ele>124.8</ele>
        <time>2020-06-24T11:04:28Z</time>
      </trkpt>
      <trkpt lat="50.30914" lon="3.73012">
        <ele>124.8</ele>
        <time>2020-06-24T11:04:29Z</time>
      </trkpt>
      <trkpt lat="50.30913" lon="3.73023">
        <ele>124.7</ele>
        <time>2020-06-24T11:04:30Z</time>
      </trkpt>
      <trkpt lat="50.30911" lon="3.73032">
        <ele>124.6</ele>
        <time>2020-06-24T11:04:31Z</time>
      </trkpt>
      <trkpt lat="50.30909" lon="3.7304">
        <ele>124.5</ele>
        <time>2020-06-24T11:04:32Z</time>
      </trkpt>
      <trkpt lat="50.30908" lon="3.7305">
        <ele>124.4</ele>
        <time>2020-06-24T11:04:33Z</time>
      </trkpt>
      <trkpt lat="50.30906" lon="3.73059">
        <ele>124.3</ele>
        <time>2020-06-24T11:04:34Z</time>
      </trkpt>
      <trkpt lat="50.30904" lon="3.73068">
        <ele>124.2</ele>
        <time>2020-06-24T11:04:35Z</time>
      </trkpt>
      <trkpt lat="50.30902" lon="3.73077">
        <ele>124.1</ele>
        <time>2020-06-24T11:04:36Z</time>
      </trkpt>
      <trkpt lat="50.309" lon="3.73087">
        <ele>124</ele>
        <time>2020-06-24T11:04:37Z</time>
      </trkpt>
      <trkpt lat="50.30898" lon="3.73097">
        <ele>123.9</ele>
        <time>2020-06-24T11:04:38Z</time>
      </trkpt>
      <trkpt lat="50.30895" lon="3.73105">
        <ele>123.8</ele>
        <time>2020-06-24T11:04:39Z</time>
      </trkpt>
      <trkpt lat="50.30892" lon="3.73113">
        <ele>123.7</ele>
        <time>2020-06-24T11:04:40Z</time>
      </trkpt>
      <trkpt lat="50.30889" lon="3.73124">
        <ele>123.7</ele>
        <time>2020-06-24T11:04:41Z</time>
      </trkpt>
      <trkpt lat="50.30887" lon="3.73134">
        <ele>123.6</ele>
        <time>2020-06-24T11:04:42Z</time>
      </trkpt>
      <trkpt lat="50.30884" lon="3.73144">
        <ele>123.5</ele>
        <time>2020-06-24T11:04:43Z</time>
      </trkpt>
      <trkpt lat="50.30882" lon="3.7315">
        <ele>123.5</ele>
        <time>2020-06-24T11:04:44Z</time>
      </trkpt>
      <trkpt lat="50.30879" lon="3.73159">
        <ele>123.5</ele>
        <time>2020-06-24T11:04:45Z</time>
      </trkpt>
      <trkpt lat="50.30877" lon="3.73168">
        <ele>123.4</ele>
        <time>2020-06-24T11:04:46Z</time>
      </trkpt>
      <trkpt lat="50.30875" lon="3.73178">
        <ele>123.4</ele>
        <time>2020-06-24T11:04:47Z</time>
      </trkpt>
      <trkpt lat="50.30873" lon="3.73187">
        <ele>123.3</ele>
        <time>2020-06-24T11:04:48Z</time>
      </trkpt>
      <trkpt lat="50.30871" lon="3.73196">
        <ele>123.3</ele>
        <time>2020-06-24T11:04:49Z</time>
      </trkpt>
      <trkpt lat="50.30869" lon="3.73202">
        <ele>123.3</ele>
        <time>2020-06-24T11:04:50Z</time>
      </trkpt>
      <trkpt lat="50.30867" lon="3.73212">
        <ele>123.2</ele>
        <time>2020-06-24T11:04:51Z</time>
      </trkpt>
      <trkpt lat="50.30865" lon="3.73221">
        <ele>123.2</ele>
        <time>2020-06-24T11:04:52Z</time>
      </trkpt>
      <trkpt lat="50.30862" lon="3.73229">
        <ele>123.2</ele>
        <time>2020-06-24T11:04:53Z</time>
      </trkpt>
      <trkpt lat="50.3086" lon="3.73239">
        <ele>123.2</ele>
        <time>2020-06-24T11:04:54Z</time>
      </trkpt>
      <trkpt lat="50.30857" lon="3.73247">
        <ele>123.1</ele>
        <time>2020-06-24T11:04:55Z</time>
      </trkpt>
      <trkpt lat="50.30855" lon="3.73255">
        <ele>123.1</ele>
        <time>2020-06-24T11:04:56Z</time>
      </trkpt>
      <trkpt lat="50.30853" lon="3.73262">
        <ele>123.1</ele>
        <time>2020-06-24T11:04:57Z</time>
      </trkpt>
      <trkpt lat="50.30851" lon="3.7327">
        <ele>123.1</ele>
        <time>2020-06-24T11:04:58Z</time>
      </trkpt>
      <trkpt lat="50.30849" lon="3.7328">
        <ele>123.1</ele>
        <time>2020-06-24T11:04:59Z</time>
      </trkpt>
      <trkpt lat="50.30847" lon="3.7329">
        <ele>123.1</ele>
        <time>2020-06-24T11:05:00Z</time>
      </trkpt>
      <trkpt lat="50.30846" lon="3.73299">
        <ele>123.1</ele>
        <time>2020-06-24T11:05:01Z</time>
      </trkpt>
      <trkpt lat="50.30844" lon="3.73309">
        <ele>123.1</ele>
        <time>2020-06-24T11:05:02Z</time>
      </trkpt>
      <trkpt lat="50.30842" lon="3.73317">
        <ele>123.1</ele>
        <time>2020-06-24T11:05:03Z</time>
      </trkpt>
      <trkpt lat="50.3084" lon="3.73324">
        <ele>123.1</ele>
        <time>2020-06-24T11:05:04Z</time>
      </trkpt>
      <trkpt lat="50.30838" lon="3.73331">
        <ele>123</ele>
        <time>2020-06-24T11:05:05Z</time>
      </trkpt>
      <trkpt lat="50.30836" lon="3.7334">
        <ele>123</ele>
        <time>2020-06-24T11:05:06Z</time>
      </trkpt>
      <trkpt lat="50.30836" lon="3.73349">
        <ele>123</ele>
        <time>2020-06-24T11:05:07Z</time>
      </trkpt>
      <trkpt lat="50.30835" lon="3.73358">
        <ele>123</ele>
        <time>2020-06-24T11:05:08Z</time>
      </trkpt>
      <trkpt lat="50.30833" lon="3.73367">
        <ele>123</ele>
        <time>2020-06-24T11:05:09Z</time>
      </trkpt>
      <trkpt lat="50.30831" lon="3.73376">
        <ele>123.1</ele>
        <time>2020-06-24T11:05:10Z</time>
      </trkpt>
      <trkpt lat="50.30828" lon="3.73386">
        <ele>123.1</ele>
        <time>2020-06-24T11:05:11Z</time>
      </trkpt>
      <trkpt lat="50.30825" lon="3.73394">
        <ele>123.1</ele>
        <time>2020-06-24T11:05:12Z</time>
      </trkpt>
      <trkpt lat="50.30823" lon="3.73404">
        <ele>123.1</ele>
        <time>2020-06-24T11:05:13Z</time>
      </trkpt>
      <trkpt lat="50.30821" lon="3.73413">
        <ele>123.1</ele>
        <time>2020-06-24T11:05:14Z</time>
      </trkpt>
      <trkpt lat="50.30818" lon="3.73422">
        <ele>123.1</ele>
        <time>2020-06-24T11:05:15Z</time>
      </trkpt>
      <trkpt lat="50.30814" lon="3.73431">
        <ele>123.2</ele>
        <time>2020-06-24T11:05:16Z</time>
      </trkpt>
      <trkpt lat="50.30811" lon="3.73439">
        <ele>123.2</ele>
        <time>2020-06-24T11:05:17Z</time>
      </trkpt>
      <trkpt lat="50.30808" lon="3.73447">
        <ele>123.3</ele>
        <time>2020-06-24T11:05:18Z</time>
      </trkpt>
      <trkpt lat="50.30805" lon="3.73453">
        <ele>123.3</ele>
        <time>2020-06-24T11:05:19Z</time>
      </trkpt>
      <trkpt lat="50.30802" lon="3.73461">
        <ele>123.4</ele>
        <time>2020-06-24T11:05:20Z</time>
      </trkpt>
      <trkpt lat="50.30799" lon="3.7347">
        <ele>123.5</ele>
        <time>2020-06-24T11:05:21Z</time>
      </trkpt>
      <trkpt lat="50.30797" lon="3.73479">
        <ele>123.6</ele>
        <time>2020-06-24T11:05:22Z</time>
      </trkpt>
      <trkpt lat="50.30794" lon="3.73487">
        <ele>123.6</ele>
        <time>2020-06-24T11:05:23Z</time>
      </trkpt>
      <trkpt lat="50.30792" lon="3.73496">
        <ele>123.7</ele>
        <time>2020-06-24T11:05:24Z</time>
      </trkpt>
      <trkpt lat="50.30789" lon="3.73505">
        <ele>123.7</ele>
        <time>2020-06-24T11:05:25Z</time>
      </trkpt>
      <trkpt lat="50.30786" lon="3.73511">
        <ele>123.7</ele>
        <time>2020-06-24T11:05:26Z</time>
      </trkpt>
      <trkpt lat="50.30784" lon="3.73518">
        <ele>123.7</ele>
        <time>2020-06-24T11:05:27Z</time>
      </trkpt>
      <trkpt lat="50.30782" lon="3.73527">
        <ele>123.8</ele>
        <time>2020-06-24T11:05:28Z</time>
      </trkpt>
      <trkpt lat="50.30779" lon="3.73535">
        <ele>123.9</ele>
        <time>2020-06-24T11:05:29Z</time>
      </trkpt>
      <trkpt lat="50.30778" lon="3.73545">
        <ele>124</ele>
        <time>2020-06-24T11:05:30Z</time>
      </trkpt>
      <trkpt lat="50.30776" lon="3.73553">
        <ele>124.1</ele>
        <time>2020-06-24T11:05:31Z</time>
      </trkpt>
      <trkpt lat="50.30775" lon="3.7356">
        <ele>124.2</ele>
        <time>2020-06-24T11:05:32Z</time>
      </trkpt>
      <trkpt lat="50.30773" lon="3.73566">
        <ele>124.2</ele>
        <time>2020-06-24T11:05:33Z</time>
      </trkpt>
      <trkpt lat="50.30771" lon="3.73574">
        <ele>124.3</ele>
        <time>2020-06-24T11:05:34Z</time>
      </trkpt>
      <trkpt lat="50.30769" lon="3.73583">
        <ele>124.4</ele>
        <time>2020-06-24T11:05:35Z</time>
      </trkpt>
      <trkpt lat="50.30767" lon="3.7359">
        <ele>124.5</ele>
        <time>2020-06-24T11:05:36Z</time>
      </trkpt>
      <trkpt lat="50.30765" lon="3.73597">
        <ele>124.6</ele>
        <time>2020-06-24T11:05:37Z</time>
      </trkpt>
      <trkpt lat="50.30763" lon="3.73606">
        <ele>124.8</ele>
        <time>2020-06-24T11:05:38Z</time>
      </trkpt>
      <trkpt lat="50.30761" lon="3.73615">
        <ele>124.9</ele>
        <time>2020-06-24T11:05:39Z</time>
      </trkpt>
      <trkpt lat="50.30758" lon="3.73623">
        <ele>125.1</ele>
        <time>2020-06-24T11:05:40Z</time>
      </trkpt>
      <trkpt lat="50.30756" lon="3.73631">
        <ele>125.2</ele>
        <time>2020-06-24T11:05:41Z</time>
      </trkpt>
      <trkpt lat="50.30753" lon="3.73638">
        <ele>125.3</ele>
        <time>2020-06-24T11:05:42Z</time>
      </trkpt>
      <trkpt lat="50.30752" lon="3.73646">
        <ele>125.5</ele>
        <time>2020-06-24T11:05:43Z</time>
      </trkpt>
      <trkpt lat="50.3075" lon="3.73652">
        <ele>125.6</ele>
        <time>2020-06-24T11:05:44Z</time>
      </trkpt>
      <trkpt lat="50.30749" lon="3.73657">
        <ele>125.7</ele>
        <time>2020-06-24T11:05:45Z</time>
      </trkpt>
      <trkpt lat="50.30746" lon="3.73663">
        <ele>125.7</ele>
        <time>2020-06-24T11:05:46Z</time>
      </trkpt>
      <trkpt lat="50.30744" lon="3.73669">
        <ele>125.8</ele>
        <time>2020-06-24T11:05:47Z</time>
      </trkpt>
      <trkpt lat="50.30742" lon="3.73675">
        <ele>125.8</ele>
        <time>2020-06-24T11:05:48Z</time>
      </trkpt>
      <trkpt lat="50.3074" lon="3.73682">
        <ele>125.8</ele>
        <time>2020-06-24T11:05:49Z</time>
      </trkpt>
      <trkpt lat="50.30739" lon="3.73687">
        <ele>125.8</ele>
        <time>2020-06-24T11:05:50Z</time>
      </trkpt>
      <trkpt lat="50.30738" lon="3.73691">
        <ele>125.8</ele>
        <time>2020-06-24T11:05:51Z</time>
      </trkpt>
      <trkpt lat="50.30736" lon="3.73697">
        <ele>125.7</ele>
        <time>2020-06-24T11:05:52Z</time>
      </trkpt>
      <trkpt lat="50.30736" lon="3.737">
        <ele>125.7</ele>
        <time>2020-06-24T11:05:53Z</time>
      </trkpt>
      <trkpt lat="50.30735" lon="3.73706">
        <ele>125.6</ele>
        <time>2020-06-24T11:05:54Z</time>
      </trkpt>
      <trkpt lat="50.30733" lon="3.73713">
        <ele>125.6</ele>
        <time>2020-06-24T11:05:55Z</time>
      </trkpt>
      <trkpt lat="50.30732" lon="3.73717">
        <ele>125.6</ele>
        <time>2020-06-24T11:05:56Z</time>
      </trkpt>
      <trkpt lat="50.30731" lon="3.73719">
        <ele>125.5</ele>
        <time>2020-06-24T11:05:57Z</time>
      </trkpt>
      <trkpt lat="50.30731" lon="3.73722">
        <ele>125.5</ele>
        <time>2020-06-24T11:05:58Z</time>
      </trkpt>
      <trkpt lat="50.3073" lon="3.73723">
        <ele>125.5</ele>
        <time>2020-06-24T11:05:59Z</time>
      </trkpt>
      <trkpt lat="50.30731" lon="3.73722">
        <ele>125.5</ele>
        <time>2020-06-24T11:06:00Z</time>
      </trkpt>
      <trkpt lat="50.30732" lon="3.73722">
        <ele>125.5</ele>
        <time>2020-06-24T11:06:01Z</time>
      </trkpt>
      <trkpt lat="50.30732" lon="3.73721">
        <ele>125.5</ele>
        <time>2020-06-24T11:06:02Z</time>
      </trkpt>
      <trkpt lat="50.30733" lon="3.73722">
        <ele>125.5</ele>
        <time>2020-06-24T11:06:03Z</time>
      </trkpt>
      <trkpt lat="50.30733" lon="3.73722">
        <ele>125.4</ele>
        <time>2020-06-24T11:06:04Z</time>
      </trkpt>
      <trkpt lat="50.30733" lon="3.73722">
        <ele>125.4</ele>
        <time>2020-06-24T11:06:05Z</time>
      </trkpt>
      <trkpt lat="50.30733" lon="3.73724">
        <ele>125.4</ele>
        <time>2020-06-24T11:06:06Z</time>
      </trkpt>
      <trkpt lat="50.30732" lon="3.73726">
        <ele>125.4</ele>
        <time>2020-06-24T11:06:07Z</time>
      </trkpt>
      <trkpt lat="50.30732" lon="3.73726">
        <ele>125.4</ele>
        <time>2020-06-24T11:06:08Z</time>
      </trkpt>
      <trkpt lat="50.30732" lon="3.73727">
        <ele>125.4</ele>
        <time>2020-06-24T11:06:09Z</time>
      </trkpt>
      <trkpt lat="50.30732" lon="3.73727">
        <ele>125.4</ele>
        <time>2020-06-24T11:06:10Z</time>
      </trkpt>
      <trkpt lat="50.30731" lon="3.73727">
        <ele>125.4</ele>
        <time>2020-06-24T11:06:11Z</time>
      </trkpt>
      <trkpt lat="50.30731" lon="3.73727">
        <ele>125.4</ele>
        <time>2020-06-24T11:06:12Z</time>
      </trkpt>
      <trkpt lat="50.30731" lon="3.73727">
        <ele>125.4</ele>
        <time>2020-06-24T11:06:13Z</time>
      </trkpt>
      <trkpt lat="50.30732" lon="3.73724">
        <ele>125.4</ele>
        <time>2020-06-24T11:06:14Z</time>
      </trkpt>
      <trkpt lat="50.30732" lon="3.73724">
        <ele>125.4</ele>
        <time>2020-06-24T11:06:15Z</time>
      </trkpt>
      <trkpt lat="50.30732" lon="3.73724">
        <ele>125.4</ele>
        <time>2020-06-24T11:06:16Z</time>
      </trkpt>
      <trkpt lat="50.30732" lon="3.73723">
        <ele>125.4</ele>
        <time>2020-06-24T11:06:17Z</time>
      </trkpt>
      <trkpt lat="50.30732" lon="3.73722">
        <ele>125.3</ele>
        <time>2020-06-24T11:06:18Z</time>
      </trkpt>
      <trkpt lat="50.30732" lon="3.73721">
        <ele>125.3</ele>
        <time>2020-06-24T11:06:19Z</time>
      </trkpt>
      <trkpt lat="50.30732" lon="3.7372">
        <ele>125.3</ele>
        <time>2020-06-24T11:06:20Z</time>
      </trkpt>
      <trkpt lat="50.30731" lon="3.73724">
        <ele>125.3</ele>
        <time>2020-06-24T11:06:21Z</time>
      </trkpt>
      <trkpt lat="50.3073" lon="3.73729">
        <ele>125.2</ele>
        <time>2020-06-24T11:06:22Z</time>
      </trkpt>
      <trkpt lat="50.30729" lon="3.73733">
        <ele>125.2</ele>
        <time>2020-06-24T11:08:16Z</time>
      </trkpt>
      <trkpt lat="50.30727" lon="3.73738">
        <ele>125.1</ele>
        <time>2020-06-24T11:08:17Z</time>
      </trkpt>
      <trkpt lat="50.30727" lon="3.73744">
        <ele>125</ele>
        <time>2020-06-24T11:08:18Z</time>
      </trkpt>
      <trkpt lat="50.30727" lon="3.73746">
        <ele>125</ele>
        <time>2020-06-24T11:08:19Z</time>
      </trkpt>
      <trkpt lat="50.30726" lon="3.73751">
        <ele>124.9</ele>
        <time>2020-06-24T11:08:20Z</time>
      </trkpt>
      <trkpt lat="50.30726" lon="3.73753">
        <ele>124.9</ele>
        <time>2020-06-24T11:08:21Z</time>
      </trkpt>
      <trkpt lat="50.30725" lon="3.73757">
        <ele>124.9</ele>
        <time>2020-06-24T11:08:22Z</time>
      </trkpt>
      <trkpt lat="50.30724" lon="3.73763">
        <ele>124.8</ele>
        <time>2020-06-24T11:08:23Z</time>
      </trkpt>
      <trkpt lat="50.30724" lon="3.7377">
        <ele>124.7</ele>
        <time>2020-06-24T11:08:24Z</time>
      </trkpt>
      <trkpt lat="50.30724" lon="3.73777">
        <ele>124.6</ele>
        <time>2020-06-24T11:08:25Z</time>
      </trkpt>
      <trkpt lat="50.30724" lon="3.73784">
        <ele>124.4</ele>
        <time>2020-06-24T11:08:26Z</time>
      </trkpt>
      <trkpt lat="50.30723" lon="3.73792">
        <ele>124.3</ele>
        <time>2020-06-24T11:08:27Z</time>
      </trkpt>
      <trkpt lat="50.30723" lon="3.73799">
        <ele>124.1</ele>
        <time>2020-06-24T11:08:28Z</time>
      </trkpt>
      <trkpt lat="50.30723" lon="3.73806">
        <ele>124</ele>
        <time>2020-06-24T11:08:29Z</time>
      </trkpt>
      <trkpt lat="50.30723" lon="3.73814">
        <ele>123.9</ele>
        <time>2020-06-24T11:08:30Z</time>
      </trkpt>
      <trkpt lat="50.30723" lon="3.73822">
        <ele>123.7</ele>
        <time>2020-06-24T11:08:31Z</time>
      </trkpt>
      <trkpt lat="50.30722" lon="3.7383">
        <ele>123.6</ele>
        <time>2020-06-24T11:08:32Z</time>
      </trkpt>
      <trkpt lat="50.30721" lon="3.73837">
        <ele>123.4</ele>
        <time>2020-06-24T11:08:33Z</time>
      </trkpt>
      <trkpt lat="50.3072" lon="3.73845">
        <ele>123.2</ele>
        <time>2020-06-24T11:08:34Z</time>
      </trkpt>
      <trkpt lat="50.30718" lon="3.73852">
        <ele>123.1</ele>
        <time>2020-06-24T11:08:35Z</time>
      </trkpt>
      <trkpt lat="50.30717" lon="3.73859">
        <ele>122.9</ele>
        <time>2020-06-24T11:08:36Z</time>
      </trkpt>
      <trkpt lat="50.30716" lon="3.73867">
        <ele>122.7</ele>
        <time>2020-06-24T11:08:37Z</time>
      </trkpt>
      <trkpt lat="50.30714" lon="3.73876">
        <ele>122.5</ele>
        <time>2020-06-24T11:08:38Z</time>
      </trkpt>
      <trkpt lat="50.30712" lon="3.73885">
        <ele>122.4</ele>
        <time>2020-06-24T11:08:39Z</time>
      </trkpt>
      <trkpt lat="50.3071" lon="3.73895">
        <ele>122.1</ele>
        <time>2020-06-24T11:08:40Z</time>
      </trkpt>
      <trkpt lat="50.30708" lon="3.73905">
        <ele>121.9</ele>
        <time>2020-06-24T11:08:41Z</time>
      </trkpt>
      <trkpt lat="50.30705" lon="3.73914">
        <ele>121.7</ele>
        <time>2020-06-24T11:08:42Z</time>
      </trkpt>
      <trkpt lat="50.30702" lon="3.73923">
        <ele>121.4</ele>
        <time>2020-06-24T11:08:43Z</time>
      </trkpt>
      <trkpt lat="50.30697" lon="3.73931">
        <ele>121.2</ele>
        <time>2020-06-24T11:08:44Z</time>
      </trkpt>
      <trkpt lat="50.30693" lon="3.73939">
        <ele>121</ele>
        <time>2020-06-24T11:08:45Z</time>
      </trkpt>
      <trkpt lat="50.30689" lon="3.73948">
        <ele>120.9</ele>
        <time>2020-06-24T11:08:46Z</time>
      </trkpt>
      <trkpt lat="50.30683" lon="3.73963">
        <ele>120.7</ele>
        <time>2020-06-24T11:08:47Z</time>
      </trkpt>
      <trkpt lat="50.3068" lon="3.73969">
        <ele>120.6</ele>
        <time>2020-06-24T11:08:48Z</time>
      </trkpt>
      <trkpt lat="50.30677" lon="3.73975">
        <ele>120.6</ele>
        <time>2020-06-24T11:08:49Z</time>
      </trkpt>
      <trkpt lat="50.30672" lon="3.73984">
        <ele>120.4</ele>
        <time>2020-06-24T11:08:50Z</time>
      </trkpt>
      <trkpt lat="50.30669" lon="3.73994">
        <ele>120.2</ele>
        <time>2020-06-24T11:08:51Z</time>
      </trkpt>
      <trkpt lat="50.30663" lon="3.74007">
        <ele>119.9</ele>
        <time>2020-06-24T11:08:52Z</time>
      </trkpt>
      <trkpt lat="50.30658" lon="3.74018">
        <ele>119.7</ele>
        <time>2020-06-24T11:08:53Z</time>
      </trkpt>
      <trkpt lat="50.30655" lon="3.7403">
        <ele>119.5</ele>
        <time>2020-06-24T11:08:54Z</time>
      </trkpt>
      <trkpt lat="50.30652" lon="3.74041">
        <ele>119.4</ele>
        <time>2020-06-24T11:08:55Z</time>
      </trkpt>
      <trkpt lat="50.30649" lon="3.74052">
        <ele>119.2</ele>
        <time>2020-06-24T11:08:56Z</time>
      </trkpt>
      <trkpt lat="50.30646" lon="3.74062">
        <ele>119</ele>
        <time>2020-06-24T11:08:57Z</time>
      </trkpt>
      <trkpt lat="50.30643" lon="3.74071">
        <ele>118.8</ele>
        <time>2020-06-24T11:08:58Z</time>
      </trkpt>
      <trkpt lat="50.3064" lon="3.7408">
        <ele>118.6</ele>
        <time>2020-06-24T11:08:59Z</time>
      </trkpt>
      <trkpt lat="50.30636" lon="3.74091">
        <ele>118.4</ele>
        <time>2020-06-24T11:09:00Z</time>
      </trkpt>
      <trkpt lat="50.30633" lon="3.74101">
        <ele>118.3</ele>
        <time>2020-06-24T11:09:01Z</time>
      </trkpt>
      <trkpt lat="50.30631" lon="3.74112">
        <ele>118.1</ele>
        <time>2020-06-24T11:09:02Z</time>
      </trkpt>
      <trkpt lat="50.30628" lon="3.74123">
        <ele>117.9</ele>
        <time>2020-06-24T11:09:03Z</time>
      </trkpt>
      <trkpt lat="50.30625" lon="3.74134">
        <ele>117.7</ele>
        <time>2020-06-24T11:09:04Z</time>
      </trkpt>
      <trkpt lat="50.30623" lon="3.74145">
        <ele>117.5</ele>
        <time>2020-06-24T11:09:05Z</time>
      </trkpt>
      <trkpt lat="50.3062" lon="3.74156">
        <ele>117.3</ele>
        <time>2020-06-24T11:09:06Z</time>
      </trkpt>
      <trkpt lat="50.30618" lon="3.74168">
        <ele>117.2</ele>
        <time>2020-06-24T11:09:07Z</time>
      </trkpt>
      <trkpt lat="50.30616" lon="3.74179">
        <ele>117</ele>
        <time>2020-06-24T11:09:08Z</time>
      </trkpt>
      <trkpt lat="50.30615" lon="3.74191">
        <ele>116.8</ele>
        <time>2020-06-24T11:09:09Z</time>
      </trkpt>
      <trkpt lat="50.30614" lon="3.74203">
        <ele>116.6</ele>
        <time>2020-06-24T11:09:10Z</time>
      </trkpt>
      <trkpt lat="50.30613" lon="3.74214">
        <ele>116.4</ele>
        <time>2020-06-24T11:09:11Z</time>
      </trkpt>
      <trkpt lat="50.30612" lon="3.74226">
        <ele>116.3</ele>
        <time>2020-06-24T11:09:12Z</time>
      </trkpt>
      <trkpt lat="50.30611" lon="3.74237">
        <ele>116.2</ele>
        <time>2020-06-24T11:09:13Z</time>
      </trkpt>
      <trkpt lat="50.30608" lon="3.74249">
        <ele>116.1</ele>
        <time>2020-06-24T11:09:14Z</time>
      </trkpt>
      <trkpt lat="50.30606" lon="3.7426">
        <ele>115.9</ele>
        <time>2020-06-24T11:09:15Z</time>
      </trkpt>
      <trkpt lat="50.30604" lon="3.74271">
        <ele>115.8</ele>
        <time>2020-06-24T11:09:16Z</time>
      </trkpt>
      <trkpt lat="50.30601" lon="3.74282">
        <ele>115.7</ele>
        <time>2020-06-24T11:09:17Z</time>
      </trkpt>
      <trkpt lat="50.30598" lon="3.74293">
        <ele>115.6</ele>
        <time>2020-06-24T11:09:18Z</time>
      </trkpt>
      <trkpt lat="50.30596" lon="3.74304">
        <ele>115.5</ele>
        <time>2020-06-24T11:09:19Z</time>
      </trkpt>
      <trkpt lat="50.30594" lon="3.74314">
        <ele>115.4</ele>
        <time>2020-06-24T11:09:20Z</time>
      </trkpt>
      <trkpt lat="50.30592" lon="3.74324">
        <ele>115.1</ele>
        <time>2020-06-24T11:09:21Z</time>
      </trkpt>
      <trkpt lat="50.3059" lon="3.74334">
        <ele>114.9</ele>
        <time>2020-06-24T11:09:22Z</time>
      </trkpt>
      <trkpt lat="50.30588" lon="3.74344">
        <ele>114.7</ele>
        <time>2020-06-24T11:09:23Z</time>
      </trkpt>
      <trkpt lat="50.30586" lon="3.74354">
        <ele>114.4</ele>
        <time>2020-06-24T11:09:24Z</time>
      </trkpt>
      <trkpt lat="50.30585" lon="3.74365">
        <ele>114.1</ele>
        <time>2020-06-24T11:09:25Z</time>
      </trkpt>
      <trkpt lat="50.30584" lon="3.74376">
        <ele>113.7</ele>
        <time>2020-06-24T11:09:26Z</time>
      </trkpt>
      <trkpt lat="50.30584" lon="3.74387">
        <ele>113.4</ele>
        <time>2020-06-24T11:09:27Z</time>
      </trkpt>
      <trkpt lat="50.30583" lon="3.74398">
        <ele>113.1</ele>
        <time>2020-06-24T11:09:28Z</time>
      </trkpt>
      <trkpt lat="50.30582" lon="3.7441">
        <ele>112.8</ele>
        <time>2020-06-24T11:09:29Z</time>
      </trkpt>
      <trkpt lat="50.3058" lon="3.74421">
        <ele>112.5</ele>
        <time>2020-06-24T11:09:30Z</time>
      </trkpt>
      <trkpt lat="50.30579" lon="3.74433">
        <ele>112.3</ele>
        <time>2020-06-24T11:09:31Z</time>
      </trkpt>
      <trkpt lat="50.30578" lon="3.74444">
        <ele>112</ele>
        <time>2020-06-24T11:09:32Z</time>
      </trkpt>
      <trkpt lat="50.30577" lon="3.74455">
        <ele>111.8</ele>
        <time>2020-06-24T11:09:33Z</time>
      </trkpt>
      <trkpt lat="50.30576" lon="3.74466">
        <ele>111.6</ele>
        <time>2020-06-24T11:09:34Z</time>
      </trkpt>
      <trkpt lat="50.30574" lon="3.74477">
        <ele>111.3</ele>
        <time>2020-06-24T11:09:35Z</time>
      </trkpt>
      <trkpt lat="50.30574" lon="3.74488">
        <ele>111.1</ele>
        <time>2020-06-24T11:09:36Z</time>
      </trkpt>
      <trkpt lat="50.30573" lon="3.74498">
        <ele>110.8</ele>
        <time>2020-06-24T11:09:37Z</time>
      </trkpt>
      <trkpt lat="50.30572" lon="3.74509">
        <ele>110.5</ele>
        <time>2020-06-24T11:09:38Z</time>
      </trkpt>
      <trkpt lat="50.30571" lon="3.7452">
        <ele>110.3</ele>
        <time>2020-06-24T11:09:39Z</time>
      </trkpt>
      <trkpt lat="50.3057" lon="3.7453">
        <ele>110</ele>
        <time>2020-06-24T11:09:40Z</time>
      </trkpt>
      <trkpt lat="50.30569" lon="3.74541">
        <ele>109.7</ele>
        <time>2020-06-24T11:09:41Z</time>
      </trkpt>
      <trkpt lat="50.30568" lon="3.74552">
        <ele>109.4</ele>
        <time>2020-06-24T11:09:42Z</time>
      </trkpt>
      <trkpt lat="50.30566" lon="3.74562">
        <ele>109.1</ele>
        <time>2020-06-24T11:09:43Z</time>
      </trkpt>
      <trkpt lat="50.30566" lon="3.74572">
        <ele>108.9</ele>
        <time>2020-06-24T11:09:44Z</time>
      </trkpt>
      <trkpt lat="50.30565" lon="3.74582">
        <ele>108.6</ele>
        <time>2020-06-24T11:09:45Z</time>
      </trkpt>
      <trkpt lat="50.30565" lon="3.74593">
        <ele>108.4</ele>
        <time>2020-06-24T11:09:46Z</time>
      </trkpt>
      <trkpt lat="50.30564" lon="3.74603">
        <ele>108.1</ele>
        <time>2020-06-24T11:09:47Z</time>
      </trkpt>
      <trkpt lat="50.30563" lon="3.74613">
        <ele>107.9</ele>
        <time>2020-06-24T11:09:48Z</time>
      </trkpt>
      <trkpt lat="50.30563" lon="3.74623">
        <ele>107.6</ele>
        <time>2020-06-24T11:09:49Z</time>
      </trkpt>
      <trkpt lat="50.30562" lon="3.74633">
        <ele>107.5</ele>
        <time>2020-06-24T11:09:50Z</time>
      </trkpt>
      <trkpt lat="50.3056" lon="3.74641">
        <ele>107.4</ele>
        <time>2020-06-24T11:09:51Z</time>
      </trkpt>
      <trkpt lat="50.30558" lon="3.74648">
        <ele>107.3</ele>
        <time>2020-06-24T11:09:52Z</time>
      </trkpt>
      <trkpt lat="50.30556" lon="3.74653">
        <ele>107.2</ele>
        <time>2020-06-24T11:09:53Z</time>
      </trkpt>
      <trkpt lat="50.30554" lon="3.74658">
        <ele>107.1</ele>
        <time>2020-06-24T11:09:54Z</time>
      </trkpt>
      <trkpt lat="50.30553" lon="3.74663">
        <ele>107</ele>
        <time>2020-06-24T11:09:55Z</time>
      </trkpt>
      <trkpt lat="50.30553" lon="3.74669">
        <ele>106.8</ele>
        <time>2020-06-24T11:09:56Z</time>
      </trkpt>
      <trkpt lat="50.30551" lon="3.74676">
        <ele>106.6</ele>
        <time>2020-06-24T11:09:57Z</time>
      </trkpt>
      <trkpt lat="50.3055" lon="3.74683">
        <ele>106.4</ele>
        <time>2020-06-24T11:09:58Z</time>
      </trkpt>
      <trkpt lat="50.30551" lon="3.74689">
        <ele>106.2</ele>
        <time>2020-06-24T11:09:59Z</time>
      </trkpt>
      <trkpt lat="50.30553" lon="3.74695">
        <ele>106.1</ele>
        <time>2020-06-24T11:10:00Z</time>
      </trkpt>
      <trkpt lat="50.30553" lon="3.747">
        <ele>105.9</ele>
        <time>2020-06-24T11:10:01Z</time>
      </trkpt>
      <trkpt lat="50.30554" lon="3.74705">
        <ele>105.8</ele>
        <time>2020-06-24T11:10:02Z</time>
      </trkpt>
      <trkpt lat="50.30555" lon="3.74709">
        <ele>105.7</ele>
        <time>2020-06-24T11:10:03Z</time>
      </trkpt>
      <trkpt lat="50.30555" lon="3.74714">
        <ele>105.6</ele>
        <time>2020-06-24T11:10:04Z</time>
      </trkpt>
      <trkpt lat="50.30555" lon="3.74719">
        <ele>105.5</ele>
        <time>2020-06-24T11:10:05Z</time>
      </trkpt>
      <trkpt lat="50.30556" lon="3.74724">
        <ele>105.3</ele>
        <time>2020-06-24T11:10:06Z</time>
      </trkpt>
      <trkpt lat="50.30556" lon="3.7473">
        <ele>105.2</ele>
        <time>2020-06-24T11:10:07Z</time>
      </trkpt>
      <trkpt lat="50.30557" lon="3.74736">
        <ele>105.1</ele>
        <time>2020-06-24T11:10:08Z</time>
      </trkpt>
      <trkpt lat="50.30556" lon="3.74743">
        <ele>104.9</ele>
        <time>2020-06-24T11:10:09Z</time>
      </trkpt>
      <trkpt lat="50.30557" lon="3.7475">
        <ele>104.7</ele>
        <time>2020-06-24T11:10:10Z</time>
      </trkpt>
      <trkpt lat="50.30557" lon="3.74757">
        <ele>104.6</ele>
        <time>2020-06-24T11:10:11Z</time>
      </trkpt>
      <trkpt lat="50.30558" lon="3.74764">
        <ele>104.4</ele>
        <time>2020-06-24T11:10:12Z</time>
      </trkpt>
      <trkpt lat="50.30558" lon="3.74772">
        <ele>104.3</ele>
        <time>2020-06-24T11:10:13Z</time>
      </trkpt>
      <trkpt lat="50.30557" lon="3.7478">
        <ele>104.1</ele>
        <time>2020-06-24T11:10:14Z</time>
      </trkpt>
      <trkpt lat="50.30557" lon="3.74788">
        <ele>103.9</ele>
        <time>2020-06-24T11:10:15Z</time>
      </trkpt>
      <trkpt lat="50.30558" lon="3.74796">
        <ele>103.7</ele>
        <time>2020-06-24T11:10:16Z</time>
      </trkpt>
      <trkpt lat="50.30559" lon="3.74804">
        <ele>103.6</ele>
        <time>2020-06-24T11:10:17Z</time>
      </trkpt>
      <trkpt lat="50.30559" lon="3.74812">
        <ele>103.4</ele>
        <time>2020-06-24T11:10:18Z</time>
      </trkpt>
      <trkpt lat="50.30559" lon="3.7482">
        <ele>103.2</ele>
        <time>2020-06-24T11:10:19Z</time>
      </trkpt>
      <trkpt lat="50.3056" lon="3.74826">
        <ele>103.1</ele>
        <time>2020-06-24T11:10:20Z</time>
      </trkpt>
      <trkpt lat="50.30558" lon="3.74831">
        <ele>103</ele>
        <time>2020-06-24T11:10:21Z</time>
      </trkpt>
      <trkpt lat="50.30559" lon="3.74829">
        <ele>102.9</ele>
        <time>2020-06-24T11:10:22Z</time>
      </trkpt>
      <trkpt lat="50.3056" lon="3.74828">
        <ele>102.9</ele>
        <time>2020-06-24T11:10:23Z</time>
      </trkpt>
      <trkpt lat="50.3056" lon="3.74827">
        <ele>102.8</ele>
        <time>2020-06-24T11:10:24Z</time>
      </trkpt>
      <trkpt lat="50.3056" lon="3.74825">
        <ele>102.8</ele>
        <time>2020-06-24T11:10:25Z</time>
      </trkpt>
      <trkpt lat="50.3056" lon="3.7482">
        <ele>102.7</ele>
        <time>2020-06-24T11:10:26Z</time>
      </trkpt>
      <trkpt lat="50.30559" lon="3.74818">
        <ele>102.7</ele>
        <time>2020-06-24T11:10:27Z</time>
      </trkpt>
      <trkpt lat="50.3056" lon="3.74812">
        <ele>102.9</ele>
        <time>2020-06-24T11:10:28Z</time>
      </trkpt>
      <trkpt lat="50.3056" lon="3.7481">
        <ele>102.9</ele>
        <time>2020-06-24T11:10:29Z</time>
      </trkpt>
      <trkpt lat="50.30559" lon="3.74806">
        <ele>103</ele>
        <time>2020-06-24T11:10:30Z</time>
      </trkpt>
      <trkpt lat="50.3056" lon="3.748">
        <ele>103.2</ele>
        <time>2020-06-24T11:10:31Z</time>
      </trkpt>
      <trkpt lat="50.30561" lon="3.74793">
        <ele>103.4</ele>
        <time>2020-06-24T11:10:32Z</time>
      </trkpt>
      <trkpt lat="50.3056" lon="3.74786">
        <ele>103.5</ele>
        <time>2020-06-24T11:10:33Z</time>
      </trkpt>
      <trkpt lat="50.30559" lon="3.7478">
        <ele>103.7</ele>
        <time>2020-06-24T11:10:34Z</time>
      </trkpt>
      <trkpt lat="50.30559" lon="3.74774">
        <ele>103.8</ele>
        <time>2020-06-24T11:10:35Z</time>
      </trkpt>
      <trkpt lat="50.30558" lon="3.74768">
        <ele>104</ele>
        <time>2020-06-24T11:10:36Z</time>
      </trkpt>
      <trkpt lat="50.30557" lon="3.74762">
        <ele>104.1</ele>
        <time>2020-06-24T11:10:37Z</time>
      </trkpt>
      <trkpt lat="50.30557" lon="3.74757">
        <ele>104.2</ele>
        <time>2020-06-24T11:10:38Z</time>
      </trkpt>
      <trkpt lat="50.30557" lon="3.74751">
        <ele>104.4</ele>
        <time>2020-06-24T11:10:39Z</time>
      </trkpt>
      <trkpt lat="50.30555" lon="3.74745">
        <ele>104.5</ele>
        <time>2020-06-24T11:10:40Z</time>
      </trkpt>
      <trkpt lat="50.30555" lon="3.7474">
        <ele>104.7</ele>
        <time>2020-06-24T11:10:41Z</time>
      </trkpt>
      <trkpt lat="50.30555" lon="3.74735">
        <ele>104.8</ele>
        <time>2020-06-24T11:10:42Z</time>
      </trkpt>
      <trkpt lat="50.30554" lon="3.7473">
        <ele>104.9</ele>
        <time>2020-06-24T11:10:43Z</time>
      </trkpt>
      <trkpt lat="50.30554" lon="3.74725">
        <ele>105.1</ele>
        <time>2020-06-24T11:10:44Z</time>
      </trkpt>
      <trkpt lat="50.30554" lon="3.74719">
        <ele>105.3</ele>
        <time>2020-06-24T11:10:45Z</time>
      </trkpt>
      <trkpt lat="50.30554" lon="3.74713">
        <ele>105.4</ele>
        <time>2020-06-24T11:10:46Z</time>
      </trkpt>
      <trkpt lat="50.30553" lon="3.74706">
        <ele>105.6</ele>
        <time>2020-06-24T11:10:47Z</time>
      </trkpt>
      <trkpt lat="50.30553" lon="3.74699">
        <ele>105.8</ele>
        <time>2020-06-24T11:10:48Z</time>
      </trkpt>
      <trkpt lat="50.30553" lon="3.74691">
        <ele>106</ele>
        <time>2020-06-24T11:10:49Z</time>
      </trkpt>
      <trkpt lat="50.30552" lon="3.74686">
        <ele>106.2</ele>
        <time>2020-06-24T11:10:50Z</time>
      </trkpt>
      <trkpt lat="50.30552" lon="3.74679">
        <ele>106.4</ele>
        <time>2020-06-24T11:10:51Z</time>
      </trkpt>
      <trkpt lat="50.30553" lon="3.74672">
        <ele>106.6</ele>
        <time>2020-06-24T11:10:52Z</time>
      </trkpt>
      <trkpt lat="50.30553" lon="3.74665">
        <ele>106.8</ele>
        <time>2020-06-24T11:10:53Z</time>
      </trkpt>
      <trkpt lat="50.30552" lon="3.74661">
        <ele>106.9</ele>
        <time>2020-06-24T11:10:54Z</time>
      </trkpt>
      <trkpt lat="50.3055" lon="3.74657">
        <ele>107.1</ele>
        <time>2020-06-24T11:10:55Z</time>
      </trkpt>
      <trkpt lat="50.30545" lon="3.74655">
        <ele>107</ele>
        <time>2020-06-24T11:10:56Z</time>
      </trkpt>
      <trkpt lat="50.30544" lon="3.74654">
        <ele>106.9</ele>
        <time>2020-06-24T11:10:57Z</time>
      </trkpt>
      <trkpt lat="50.3054" lon="3.74655">
        <ele>106.8</ele>
        <time>2020-06-24T11:10:58Z</time>
      </trkpt>
      <trkpt lat="50.30536" lon="3.74656">
        <ele>106.7</ele>
        <time>2020-06-24T11:10:59Z</time>
      </trkpt>
      <trkpt lat="50.30533" lon="3.74658">
        <ele>106.6</ele>
        <time>2020-06-24T11:11:00Z</time>
      </trkpt>
      <trkpt lat="50.30528" lon="3.74659">
        <ele>106.5</ele>
        <time>2020-06-24T11:11:01Z</time>
      </trkpt>
      <trkpt lat="50.30526" lon="3.74659">
        <ele>106.4</ele>
        <time>2020-06-24T11:11:02Z</time>
      </trkpt>
      <trkpt lat="50.30522" lon="3.7466">
        <ele>106.4</ele>
        <time>2020-06-24T11:11:03Z</time>
      </trkpt>
      <trkpt lat="50.30518" lon="3.74661">
        <ele>106.3</ele>
        <time>2020-06-24T11:11:04Z</time>
      </trkpt>
      <trkpt lat="50.30513" lon="3.74661">
        <ele>106.2</ele>
        <time>2020-06-24T11:11:05Z</time>
      </trkpt>
      <trkpt lat="50.30508" lon="3.74661">
        <ele>106.1</ele>
        <time>2020-06-24T11:11:06Z</time>
      </trkpt>
      <trkpt lat="50.30504" lon="3.74662">
        <ele>106</ele>
        <time>2020-06-24T11:11:07Z</time>
      </trkpt>
      <trkpt lat="50.30501" lon="3.74662">
        <ele>105.9</ele>
        <time>2020-06-24T11:11:08Z</time>
      </trkpt>
      <trkpt lat="50.30497" lon="3.74661">
        <ele>105.8</ele>
        <time>2020-06-24T11:11:09Z</time>
      </trkpt>
      <trkpt lat="50.30496" lon="3.74661">
        <ele>105.7</ele>
        <time>2020-06-24T11:11:10Z</time>
      </trkpt>
      <trkpt lat="50.30491" lon="3.74661">
        <ele>105.6</ele>
        <time>2020-06-24T11:11:11Z</time>
      </trkpt>
      <trkpt lat="50.30485" lon="3.74663">
        <ele>105.3</ele>
        <time>2020-06-24T11:11:12Z</time>
      </trkpt>
      <trkpt lat="50.30479" lon="3.74662">
        <ele>105.1</ele>
        <time>2020-06-24T11:11:13Z</time>
      </trkpt>
      <trkpt lat="50.30476" lon="3.74662">
        <ele>105</ele>
        <time>2020-06-24T11:11:14Z</time>
      </trkpt>
      <trkpt lat="50.30471" lon="3.74662">
        <ele>104.8</ele>
        <time>2020-06-24T11:11:15Z</time>
      </trkpt>
      <trkpt lat="50.30466" lon="3.74662">
        <ele>104.7</ele>
        <time>2020-06-24T11:11:16Z</time>
      </trkpt>
      <trkpt lat="50.30463" lon="3.74661">
        <ele>104.6</ele>
        <time>2020-06-24T11:11:17Z</time>
      </trkpt>
      <trkpt lat="50.3046" lon="3.74661">
        <ele>104.3</ele>
        <time>2020-06-24T11:11:18Z</time>
      </trkpt>
      <trkpt lat="50.30458" lon="3.74661">
        <ele>104.2</ele>
        <time>2020-06-24T11:11:19Z</time>
      </trkpt>
      <trkpt lat="50.30457" lon="3.74661">
        <ele>104.2</ele>
        <time>2020-06-24T11:11:20Z</time>
      </trkpt>
      <trkpt lat="50.30456" lon="3.74661">
        <ele>104.2</ele>
        <time>2020-06-24T11:11:21Z</time>
      </trkpt>
      <trkpt lat="50.30455" lon="3.74661">
        <ele>104.1</ele>
        <time>2020-06-24T11:11:22Z</time>
      </trkpt>
      <trkpt lat="50.30454" lon="3.74664">
        <ele>104.1</ele>
        <time>2020-06-24T11:11:23Z</time>
      </trkpt>
      <trkpt lat="50.30454" lon="3.74665">
        <ele>104</ele>
        <time>2020-06-24T11:11:24Z</time>
      </trkpt>
      <trkpt lat="50.30452" lon="3.74667">
        <ele>104</ele>
        <time>2020-06-24T11:11:25Z</time>
      </trkpt>
      <trkpt lat="50.30452" lon="3.74672">
        <ele>103.8</ele>
        <time>2020-06-24T11:11:26Z</time>
      </trkpt>
      <trkpt lat="50.30451" lon="3.74675">
        <ele>103.8</ele>
        <time>2020-06-24T11:11:27Z</time>
      </trkpt>
      <trkpt lat="50.30452" lon="3.7468">
        <ele>103.6</ele>
        <time>2020-06-24T11:11:28Z</time>
      </trkpt>
      <trkpt lat="50.30452" lon="3.74683">
        <ele>103.5</ele>
        <time>2020-06-24T11:11:29Z</time>
      </trkpt>
      <trkpt lat="50.30452" lon="3.74691">
        <ele>103.3</ele>
        <time>2020-06-24T11:11:30Z</time>
      </trkpt>
      <trkpt lat="50.30452" lon="3.74698">
        <ele>103.1</ele>
        <time>2020-06-24T11:11:31Z</time>
      </trkpt>
      <trkpt lat="50.30454" lon="3.74706">
        <ele>102.9</ele>
        <time>2020-06-24T11:11:32Z</time>
      </trkpt>
      <trkpt lat="50.30455" lon="3.74715">
        <ele>102.6</ele>
        <time>2020-06-24T11:11:33Z</time>
      </trkpt>
      <trkpt lat="50.30455" lon="3.74723">
        <ele>102.2</ele>
        <time>2020-06-24T11:11:34Z</time>
      </trkpt>
      <trkpt lat="50.30454" lon="3.74734">
        <ele>101.6</ele>
        <time>2020-06-24T11:11:35Z</time>
      </trkpt>
      <trkpt lat="50.30455" lon="3.74743">
        <ele>101.2</ele>
        <time>2020-06-24T11:11:36Z</time>
      </trkpt>
      <trkpt lat="50.30456" lon="3.74754">
        <ele>100.7</ele>
        <time>2020-06-24T11:11:37Z</time>
      </trkpt>
      <trkpt lat="50.30456" lon="3.74765">
        <ele>100.2</ele>
        <time>2020-06-24T11:11:38Z</time>
      </trkpt>
      <trkpt lat="50.30457" lon="3.74775">
        <ele>99.8</ele>
        <time>2020-06-24T11:11:39Z</time>
      </trkpt>
      <trkpt lat="50.30458" lon="3.74786">
        <ele>99.3</ele>
        <time>2020-06-24T11:11:40Z</time>
      </trkpt>
      <trkpt lat="50.30457" lon="3.74798">
        <ele>98.8</ele>
        <time>2020-06-24T11:11:41Z</time>
      </trkpt>
      <trkpt lat="50.30457" lon="3.74809">
        <ele>98.3</ele>
        <time>2020-06-24T11:11:42Z</time>
      </trkpt>
      <trkpt lat="50.30456" lon="3.7482">
        <ele>97.9</ele>
        <time>2020-06-24T11:11:43Z</time>
      </trkpt>
      <trkpt lat="50.30455" lon="3.74832">
        <ele>97.4</ele>
        <time>2020-06-24T11:11:44Z</time>
      </trkpt>
      <trkpt lat="50.30454" lon="3.74845">
        <ele>97</ele>
        <time>2020-06-24T11:11:45Z</time>
      </trkpt>
      <trkpt lat="50.30454" lon="3.74857">
        <ele>96.8</ele>
        <time>2020-06-24T11:11:46Z</time>
      </trkpt>
      <trkpt lat="50.30453" lon="3.7487">
        <ele>96.5</ele>
        <time>2020-06-24T11:11:47Z</time>
      </trkpt>
      <trkpt lat="50.30452" lon="3.74882">
        <ele>96.3</ele>
        <time>2020-06-24T11:11:48Z</time>
      </trkpt>
      <trkpt lat="50.30452" lon="3.74895">
        <ele>96.1</ele>
        <time>2020-06-24T11:11:49Z</time>
      </trkpt>
      <trkpt lat="50.30451" lon="3.74907">
        <ele>95.9</ele>
        <time>2020-06-24T11:11:50Z</time>
      </trkpt>
      <trkpt lat="50.30451" lon="3.74919">
        <ele>95.7</ele>
        <time>2020-06-24T11:11:51Z</time>
      </trkpt>
      <trkpt lat="50.3045" lon="3.74931">
        <ele>95.7</ele>
        <time>2020-06-24T11:11:52Z</time>
      </trkpt>
      <trkpt lat="50.3045" lon="3.74944">
        <ele>95.7</ele>
        <time>2020-06-24T11:11:53Z</time>
      </trkpt>
      <trkpt lat="50.30449" lon="3.74956">
        <ele>95.8</ele>
        <time>2020-06-24T11:11:54Z</time>
      </trkpt>
      <trkpt lat="50.30448" lon="3.74967">
        <ele>95.8</ele>
        <time>2020-06-24T11:11:55Z</time>
      </trkpt>
      <trkpt lat="50.30447" lon="3.74979">
        <ele>95.8</ele>
        <time>2020-06-24T11:11:56Z</time>
      </trkpt>
      <trkpt lat="50.30445" lon="3.7499">
        <ele>95.8</ele>
        <time>2020-06-24T11:11:57Z</time>
      </trkpt>
      <trkpt lat="50.30444" lon="3.75001">
        <ele>95.8</ele>
        <time>2020-06-24T11:11:58Z</time>
      </trkpt>
      <trkpt lat="50.30442" lon="3.75011">
        <ele>95.9</ele>
        <time>2020-06-24T11:11:59Z</time>
      </trkpt>
      <trkpt lat="50.3044" lon="3.75021">
        <ele>96</ele>
        <time>2020-06-24T11:12:00Z</time>
      </trkpt>
      <trkpt lat="50.30438" lon="3.7503">
        <ele>96</ele>
        <time>2020-06-24T11:12:01Z</time>
      </trkpt>
      <trkpt lat="50.30436" lon="3.7504">
        <ele>96.2</ele>
        <time>2020-06-24T11:12:02Z</time>
      </trkpt>
      <trkpt lat="50.30433" lon="3.75049">
        <ele>96.1</ele>
        <time>2020-06-24T11:12:03Z</time>
      </trkpt>
      <trkpt lat="50.30429" lon="3.75056">
        <ele>96</ele>
        <time>2020-06-24T11:12:04Z</time>
      </trkpt>
      <trkpt lat="50.30427" lon="3.75064">
        <ele>95.9</ele>
        <time>2020-06-24T11:12:05Z</time>
      </trkpt>
      <trkpt lat="50.30425" lon="3.75073">
        <ele>95.8</ele>
        <time>2020-06-24T11:12:06Z</time>
      </trkpt>
      <trkpt lat="50.30424" lon="3.75082">
        <ele>95.8</ele>
        <time>2020-06-24T11:12:07Z</time>
      </trkpt>
      <trkpt lat="50.30423" lon="3.75091">
        <ele>95.7</ele>
        <time>2020-06-24T11:12:08Z</time>
      </trkpt>
      <trkpt lat="50.30421" lon="3.751">
        <ele>95.7</ele>
        <time>2020-06-24T11:12:09Z</time>
      </trkpt>
      <trkpt lat="50.3042" lon="3.75109">
        <ele>95.7</ele>
        <time>2020-06-24T11:12:10Z</time>
      </trkpt>
      <trkpt lat="50.30419" lon="3.75118">
        <ele>95.7</ele>
        <time>2020-06-24T11:12:11Z</time>
      </trkpt>
      <trkpt lat="50.30417" lon="3.75126">
        <ele>95.7</ele>
        <time>2020-06-24T11:12:12Z</time>
      </trkpt>
      <trkpt lat="50.30416" lon="3.75134">
        <ele>95.8</ele>
        <time>2020-06-24T11:12:13Z</time>
      </trkpt>
      <trkpt lat="50.30415" lon="3.75142">
        <ele>95.9</ele>
        <time>2020-06-24T11:12:14Z</time>
      </trkpt>
      <trkpt lat="50.30414" lon="3.7515">
        <ele>96</ele>
        <time>2020-06-24T11:12:15Z</time>
      </trkpt>
      <trkpt lat="50.30413" lon="3.75158">
        <ele>96.1</ele>
        <time>2020-06-24T11:12:16Z</time>
      </trkpt>
      <trkpt lat="50.30413" lon="3.75166">
        <ele>96.2</ele>
        <time>2020-06-24T11:12:17Z</time>
      </trkpt>
      <trkpt lat="50.30412" lon="3.75174">
        <ele>96.4</ele>
        <time>2020-06-24T11:12:18Z</time>
      </trkpt>
      <trkpt lat="50.30411" lon="3.75181">
        <ele>96.6</ele>
        <time>2020-06-24T11:12:19Z</time>
      </trkpt>
      <trkpt lat="50.3041" lon="3.75188">
        <ele>96.7</ele>
        <time>2020-06-24T11:12:20Z</time>
      </trkpt>
      <trkpt lat="50.30408" lon="3.75197">
        <ele>96.9</ele>
        <time>2020-06-24T11:12:21Z</time>
      </trkpt>
      <trkpt lat="50.30407" lon="3.75204">
        <ele>97.1</ele>
        <time>2020-06-24T11:12:22Z</time>
      </trkpt>
      <trkpt lat="50.30406" lon="3.75212">
        <ele>97.3</ele>
        <time>2020-06-24T11:12:23Z</time>
      </trkpt>
      <trkpt lat="50.30406" lon="3.75218">
        <ele>97.5</ele>
        <time>2020-06-24T11:12:24Z</time>
      </trkpt>
      <trkpt lat="50.30406" lon="3.75224">
        <ele>97.6</ele>
        <time>2020-06-24T11:12:25Z</time>
      </trkpt>
      <trkpt lat="50.30405" lon="3.75231">
        <ele>97.9</ele>
        <time>2020-06-24T11:12:26Z</time>
      </trkpt>
      <trkpt lat="50.30404" lon="3.75238">
        <ele>98.1</ele>
        <time>2020-06-24T11:12:27Z</time>
      </trkpt>
      <trkpt lat="50.30403" lon="3.75244">
        <ele>98.3</ele>
        <time>2020-06-24T11:12:28Z</time>
      </trkpt>
      <trkpt lat="50.30403" lon="3.75247">
        <ele>98.4</ele>
        <time>2020-06-24T11:12:29Z</time>
      </trkpt>
      <trkpt lat="50.30401" lon="3.75251">
        <ele>98.5</ele>
        <time>2020-06-24T11:12:30Z</time>
      </trkpt>
      <trkpt lat="50.30399" lon="3.75257">
        <ele>98.7</ele>
        <time>2020-06-24T11:12:31Z</time>
      </trkpt>
      <trkpt lat="50.30397" lon="3.75262">
        <ele>98.9</ele>
        <time>2020-06-24T11:12:32Z</time>
      </trkpt>
      <trkpt lat="50.30395" lon="3.75265">
        <ele>99.3</ele>
        <time>2020-06-24T11:12:33Z</time>
      </trkpt>
      <trkpt lat="50.30391" lon="3.75271">
        <ele>99.5</ele>
        <time>2020-06-24T11:12:34Z</time>
      </trkpt>
      <trkpt lat="50.30389" lon="3.75275">
        <ele>99.7</ele>
        <time>2020-06-24T11:12:35Z</time>
      </trkpt>
      <trkpt lat="50.30385" lon="3.75278">
        <ele>99.9</ele>
        <time>2020-06-24T11:12:36Z</time>
      </trkpt>
      <trkpt lat="50.30382" lon="3.75279">
        <ele>100</ele>
        <time>2020-06-24T11:12:37Z</time>
      </trkpt>
      <trkpt lat="50.30378" lon="3.75281">
        <ele>100.2</ele>
        <time>2020-06-24T11:12:38Z</time>
      </trkpt>
      <trkpt lat="50.30374" lon="3.75282">
        <ele>100.4</ele>
        <time>2020-06-24T11:12:39Z</time>
      </trkpt>
      <trkpt lat="50.3037" lon="3.75283">
        <ele>100.6</ele>
        <time>2020-06-24T11:12:40Z</time>
      </trkpt>
      <trkpt lat="50.30366" lon="3.75283">
        <ele>100.8</ele>
        <time>2020-06-24T11:12:41Z</time>
      </trkpt>
      <trkpt lat="50.30361" lon="3.75284">
        <ele>101</ele>
        <time>2020-06-24T11:12:42Z</time>
      </trkpt>
      <trkpt lat="50.30357" lon="3.75285">
        <ele>101.2</ele>
        <time>2020-06-24T11:12:43Z</time>
      </trkpt>
      <trkpt lat="50.30353" lon="3.75287">
        <ele>101.4</ele>
        <time>2020-06-24T11:12:44Z</time>
      </trkpt>
      <trkpt lat="50.30347" lon="3.7529">
        <ele>101.6</ele>
        <time>2020-06-24T11:12:45Z</time>
      </trkpt>
      <trkpt lat="50.30343" lon="3.7529">
        <ele>101.8</ele>
        <time>2020-06-24T11:12:46Z</time>
      </trkpt>
      <trkpt lat="50.3034" lon="3.75291">
        <ele>101.9</ele>
        <time>2020-06-24T11:12:47Z</time>
      </trkpt>
      <trkpt lat="50.30335" lon="3.75292">
        <ele>102.1</ele>
        <time>2020-06-24T11:12:48Z</time>
      </trkpt>
      <trkpt lat="50.30332" lon="3.75294">
        <ele>102.2</ele>
        <time>2020-06-24T11:12:49Z</time>
      </trkpt>
      <trkpt lat="50.30328" lon="3.75298">
        <ele>102.4</ele>
        <time>2020-06-24T11:12:50Z</time>
      </trkpt>
      <trkpt lat="50.30325" lon="3.75299">
        <ele>102.5</ele>
        <time>2020-06-24T11:12:51Z</time>
      </trkpt>
      <trkpt lat="50.30322" lon="3.75303">
        <ele>102.7</ele>
        <time>2020-06-24T11:12:52Z</time>
      </trkpt>
      <trkpt lat="50.30319" lon="3.75305">
        <ele>102.8</ele>
        <time>2020-06-24T11:12:53Z</time>
      </trkpt>
      <trkpt lat="50.30315" lon="3.75308">
        <ele>103</ele>
        <time>2020-06-24T11:12:54Z</time>
      </trkpt>
      <trkpt lat="50.30312" lon="3.75311">
        <ele>103.2</ele>
        <time>2020-06-24T11:12:55Z</time>
      </trkpt>
      <trkpt lat="50.3031" lon="3.75312">
        <ele>103.3</ele>
        <time>2020-06-24T11:12:56Z</time>
      </trkpt>
      <trkpt lat="50.30307" lon="3.75316">
        <ele>103.5</ele>
        <time>2020-06-24T11:12:57Z</time>
      </trkpt>
      <trkpt lat="50.30305" lon="3.75317">
        <ele>103.6</ele>
        <time>2020-06-24T11:12:58Z</time>
      </trkpt>
      <trkpt lat="50.30302" lon="3.75322">
        <ele>103.8</ele>
        <time>2020-06-24T11:12:59Z</time>
      </trkpt>
      <trkpt lat="50.303" lon="3.75328">
        <ele>104</ele>
        <time>2020-06-24T11:13:00Z</time>
      </trkpt>
      <trkpt lat="50.30296" lon="3.75333">
        <ele>104.2</ele>
        <time>2020-06-24T11:13:01Z</time>
      </trkpt>
      <trkpt lat="50.30293" lon="3.75338">
        <ele>104.4</ele>
        <time>2020-06-24T11:13:02Z</time>
      </trkpt>
      <trkpt lat="50.3029" lon="3.75342">
        <ele>104.6</ele>
        <time>2020-06-24T11:13:03Z</time>
      </trkpt>
      <trkpt lat="50.30287" lon="3.75346">
        <ele>104.8</ele>
        <time>2020-06-24T11:13:04Z</time>
      </trkpt>
      <trkpt lat="50.30285" lon="3.75349">
        <ele>105</ele>
        <time>2020-06-24T11:13:05Z</time>
      </trkpt>
      <trkpt lat="50.30282" lon="3.75354">
        <ele>105.2</ele>
        <time>2020-06-24T11:13:06Z</time>
      </trkpt>
      <trkpt lat="50.30278" lon="3.7536">
        <ele>105.5</ele>
        <time>2020-06-24T11:13:07Z</time>
      </trkpt>
      <trkpt lat="50.30275" lon="3.75365">
        <ele>105.7</ele>
        <time>2020-06-24T11:13:08Z</time>
      </trkpt>
      <trkpt lat="50.30272" lon="3.7537">
        <ele>105.9</ele>
        <time>2020-06-24T11:13:09Z</time>
      </trkpt>
      <trkpt lat="50.30269" lon="3.75374">
        <ele>106.1</ele>
        <time>2020-06-24T11:13:10Z</time>
      </trkpt>
      <trkpt lat="50.30268" lon="3.75376">
        <ele>106.2</ele>
        <time>2020-06-24T11:13:11Z</time>
      </trkpt>
      <trkpt lat="50.30266" lon="3.75378">
        <ele>106.3</ele>
        <time>2020-06-24T11:13:12Z</time>
      </trkpt>
      <trkpt lat="50.30263" lon="3.75382">
        <ele>106.5</ele>
        <time>2020-06-24T11:13:13Z</time>
      </trkpt>
      <trkpt lat="50.3026" lon="3.75386">
        <ele>106.6</ele>
        <time>2020-06-24T11:13:14Z</time>
      </trkpt>
      <trkpt lat="50.30258" lon="3.75391">
        <ele>106.8</ele>
        <time>2020-06-24T11:13:15Z</time>
      </trkpt>
      <trkpt lat="50.30255" lon="3.75395">
        <ele>106.9</ele>
        <time>2020-06-24T11:13:16Z</time>
      </trkpt>
      <trkpt lat="50.30252" lon="3.75398">
        <ele>107.1</ele>
        <time>2020-06-24T11:13:17Z</time>
      </trkpt>
      <trkpt lat="50.30248" lon="3.75401">
        <ele>107.3</ele>
        <time>2020-06-24T11:13:18Z</time>
      </trkpt>
      <trkpt lat="50.30245" lon="3.75406">
        <ele>107.5</ele>
        <time>2020-06-24T11:13:19Z</time>
      </trkpt>
      <trkpt lat="50.30242" lon="3.7541">
        <ele>107.7</ele>
        <time>2020-06-24T11:13:20Z</time>
      </trkpt>
      <trkpt lat="50.30238" lon="3.75414">
        <ele>107.9</ele>
        <time>2020-06-24T11:13:21Z</time>
      </trkpt>
      <trkpt lat="50.30236" lon="3.75417">
        <ele>108.1</ele>
        <time>2020-06-24T11:13:22Z</time>
      </trkpt>
      <trkpt lat="50.30234" lon="3.75422">
        <ele>108.3</ele>
        <time>2020-06-24T11:13:23Z</time>
      </trkpt>
      <trkpt lat="50.30231" lon="3.75426">
        <ele>108.5</ele>
        <time>2020-06-24T11:13:24Z</time>
      </trkpt>
      <trkpt lat="50.3023" lon="3.75428">
        <ele>108.6</ele>
        <time>2020-06-24T11:13:25Z</time>
      </trkpt>
      <trkpt lat="50.30227" lon="3.75431">
        <ele>108.7</ele>
        <time>2020-06-24T11:13:26Z</time>
      </trkpt>
      <trkpt lat="50.30225" lon="3.75434">
        <ele>108.8</ele>
        <time>2020-06-24T11:13:27Z</time>
      </trkpt>
      <trkpt lat="50.30222" lon="3.75438">
        <ele>109</ele>
        <time>2020-06-24T11:13:28Z</time>
      </trkpt>
      <trkpt lat="50.30222" lon="3.75439">
        <ele>109</ele>
        <time>2020-06-24T11:13:29Z</time>
      </trkpt>
      <trkpt lat="50.30219" lon="3.75443">
        <ele>109.2</ele>
        <time>2020-06-24T11:13:30Z</time>
      </trkpt>
      <trkpt lat="50.30218" lon="3.75445">
        <ele>109.3</ele>
        <time>2020-06-24T11:13:31Z</time>
      </trkpt>
      <trkpt lat="50.30215" lon="3.75451">
        <ele>109.5</ele>
        <time>2020-06-24T11:13:32Z</time>
      </trkpt>
      <trkpt lat="50.30213" lon="3.75453">
        <ele>109.6</ele>
        <time>2020-06-24T11:13:33Z</time>
      </trkpt>
      <trkpt lat="50.30212" lon="3.75454">
        <ele>109.6</ele>
        <time>2020-06-24T11:13:34Z</time>
      </trkpt>
      <trkpt lat="50.30212" lon="3.75458">
        <ele>109.7</ele>
        <time>2020-06-24T11:13:35Z</time>
      </trkpt>
      <trkpt lat="50.3021" lon="3.75459">
        <ele>109.8</ele>
        <time>2020-06-24T11:13:36Z</time>
      </trkpt>
      <trkpt lat="50.30208" lon="3.75462">
        <ele>109.9</ele>
        <time>2020-06-24T11:13:37Z</time>
      </trkpt>
      <trkpt lat="50.30207" lon="3.75463">
        <ele>110</ele>
        <time>2020-06-24T11:13:38Z</time>
      </trkpt>
      <trkpt lat="50.30205" lon="3.75467">
        <ele>110.1</ele>
        <time>2020-06-24T11:13:39Z</time>
      </trkpt>
      <trkpt lat="50.30205" lon="3.75468">
        <ele>110.2</ele>
        <time>2020-06-24T11:13:40Z</time>
      </trkpt>
      <trkpt lat="50.30203" lon="3.75472">
        <ele>110.3</ele>
        <time>2020-06-24T11:13:41Z</time>
      </trkpt>
      <trkpt lat="50.30201" lon="3.75476">
        <ele>110.5</ele>
        <time>2020-06-24T11:13:42Z</time>
      </trkpt>
      <trkpt lat="50.30198" lon="3.75479">
        <ele>110.6</ele>
        <time>2020-06-24T11:13:43Z</time>
      </trkpt>
      <trkpt lat="50.30196" lon="3.75483">
        <ele>110.8</ele>
        <time>2020-06-24T11:13:44Z</time>
      </trkpt>
      <trkpt lat="50.30193" lon="3.75487">
        <ele>110.9</ele>
        <time>2020-06-24T11:13:45Z</time>
      </trkpt>
      <trkpt lat="50.3019" lon="3.75494">
        <ele>111.2</ele>
        <time>2020-06-24T11:13:46Z</time>
      </trkpt>
      <trkpt lat="50.30189" lon="3.75497">
        <ele>111.3</ele>
        <time>2020-06-24T11:13:47Z</time>
      </trkpt>
      <trkpt lat="50.30186" lon="3.75501">
        <ele>111.4</ele>
        <time>2020-06-24T11:13:48Z</time>
      </trkpt>
      <trkpt lat="50.30184" lon="3.75505">
        <ele>111.6</ele>
        <time>2020-06-24T11:13:49Z</time>
      </trkpt>
      <trkpt lat="50.30182" lon="3.75508">
        <ele>111.7</ele>
        <time>2020-06-24T11:13:50Z</time>
      </trkpt>
      <trkpt lat="50.3018" lon="3.75514">
        <ele>111.9</ele>
        <time>2020-06-24T11:13:51Z</time>
      </trkpt>
      <trkpt lat="50.30179" lon="3.75516">
        <ele>112</ele>
        <time>2020-06-24T11:13:52Z</time>
      </trkpt>
      <trkpt lat="50.30177" lon="3.75522">
        <ele>112.1</ele>
        <time>2020-06-24T11:13:53Z</time>
      </trkpt>
      <trkpt lat="50.30176" lon="3.75524">
        <ele>112.2</ele>
        <time>2020-06-24T11:13:54Z</time>
      </trkpt>
      <trkpt lat="50.30174" lon="3.75529">
        <ele>112.4</ele>
        <time>2020-06-24T11:13:55Z</time>
      </trkpt>
      <trkpt lat="50.30173" lon="3.75535">
        <ele>112.5</ele>
        <time>2020-06-24T11:13:56Z</time>
      </trkpt>
      <trkpt lat="50.30172" lon="3.7554">
        <ele>112.7</ele>
        <time>2020-06-24T11:13:57Z</time>
      </trkpt>
      <trkpt lat="50.30171" lon="3.75542">
        <ele>112.7</ele>
        <time>2020-06-24T11:13:58Z</time>
      </trkpt>
      <trkpt lat="50.30171" lon="3.75546">
        <ele>112.8</ele>
        <time>2020-06-24T11:13:59Z</time>
      </trkpt>
      <trkpt lat="50.3017" lon="3.75547">
        <ele>112.9</ele>
        <time>2020-06-24T11:14:00Z</time>
      </trkpt>
      <trkpt lat="50.3017" lon="3.75551">
        <ele>113</ele>
        <time>2020-06-24T11:14:01Z</time>
      </trkpt>
      <trkpt lat="50.3017" lon="3.75552">
        <ele>113.1</ele>
        <time>2020-06-24T11:14:02Z</time>
      </trkpt>
      <trkpt lat="50.30169" lon="3.75559">
        <ele>113.2</ele>
        <time>2020-06-24T11:14:03Z</time>
      </trkpt>
      <trkpt lat="50.30169" lon="3.75561">
        <ele>113.3</ele>
        <time>2020-06-24T11:14:04Z</time>
      </trkpt>
      <trkpt lat="50.30168" lon="3.75565">
        <ele>113.4</ele>
        <time>2020-06-24T11:14:05Z</time>
      </trkpt>
      <trkpt lat="50.30168" lon="3.75571">
        <ele>113.6</ele>
        <time>2020-06-24T11:14:06Z</time>
      </trkpt>
      <trkpt lat="50.30167" lon="3.75576">
        <ele>113.7</ele>
        <time>2020-06-24T11:14:07Z</time>
      </trkpt>
      <trkpt lat="50.30167" lon="3.75581">
        <ele>113.9</ele>
        <time>2020-06-24T11:14:08Z</time>
      </trkpt>
      <trkpt lat="50.30168" lon="3.75587">
        <ele>114</ele>
        <time>2020-06-24T11:14:09Z</time>
      </trkpt>
      <trkpt lat="50.30168" lon="3.7559">
        <ele>114.1</ele>
        <time>2020-06-24T11:14:10Z</time>
      </trkpt>
      <trkpt lat="50.30167" lon="3.75594">
        <ele>114.2</ele>
        <time>2020-06-24T11:14:11Z</time>
      </trkpt>
      <trkpt lat="50.30167" lon="3.756">
        <ele>114.4</ele>
        <time>2020-06-24T11:14:12Z</time>
      </trkpt>
      <trkpt lat="50.30167" lon="3.75602">
        <ele>114.5</ele>
        <time>2020-06-24T11:14:13Z</time>
      </trkpt>
      <trkpt lat="50.30167" lon="3.75609">
        <ele>114.7</ele>
        <time>2020-06-24T11:14:14Z</time>
      </trkpt>
      <trkpt lat="50.30166" lon="3.75616">
        <ele>114.9</ele>
        <time>2020-06-24T11:14:15Z</time>
      </trkpt>
      <trkpt lat="50.30166" lon="3.75622">
        <ele>115.1</ele>
        <time>2020-06-24T11:14:16Z</time>
      </trkpt>
      <trkpt lat="50.30165" lon="3.75628">
        <ele>115.3</ele>
        <time>2020-06-24T11:14:17Z</time>
      </trkpt>
      <trkpt lat="50.30165" lon="3.75631">
        <ele>115.3</ele>
        <time>2020-06-24T11:14:18Z</time>
      </trkpt>
      <trkpt lat="50.30166" lon="3.75636">
        <ele>115.5</ele>
        <time>2020-06-24T11:14:19Z</time>
      </trkpt>
      <trkpt lat="50.30167" lon="3.7564">
        <ele>115.6</ele>
        <time>2020-06-24T11:14:20Z</time>
      </trkpt>
      <trkpt lat="50.30168" lon="3.75645">
        <ele>115.8</ele>
        <time>2020-06-24T11:14:21Z</time>
      </trkpt>
      <trkpt lat="50.30169" lon="3.75651">
        <ele>115.9</ele>
        <time>2020-06-24T11:14:22Z</time>
      </trkpt>
      <trkpt lat="50.30171" lon="3.75659">
        <ele>116.2</ele>
        <time>2020-06-24T11:14:23Z</time>
      </trkpt>
      <trkpt lat="50.30172" lon="3.75665">
        <ele>116.4</ele>
        <time>2020-06-24T11:14:24Z</time>
      </trkpt>
      <trkpt lat="50.30172" lon="3.75667">
        <ele>116.4</ele>
        <time>2020-06-24T11:14:25Z</time>
      </trkpt>
      <trkpt lat="50.30174" lon="3.75674">
        <ele>116.7</ele>
        <time>2020-06-24T11:14:26Z</time>
      </trkpt>
      <trkpt lat="50.30176" lon="3.75679">
        <ele>116.8</ele>
        <time>2020-06-24T11:14:27Z</time>
      </trkpt>
      <trkpt lat="50.30177" lon="3.75681">
        <ele>116.9</ele>
        <time>2020-06-24T11:14:28Z</time>
      </trkpt>
      <trkpt lat="50.30179" lon="3.75685">
        <ele>117.1</ele>
        <time>2020-06-24T11:14:29Z</time>
      </trkpt>
      <trkpt lat="50.30181" lon="3.75688">
        <ele>117.2</ele>
        <time>2020-06-24T11:14:30Z</time>
      </trkpt>
      <trkpt lat="50.30183" lon="3.75693">
        <ele>117.4</ele>
        <time>2020-06-24T11:14:31Z</time>
      </trkpt>
      <trkpt lat="50.30186" lon="3.75697">
        <ele>117.6</ele>
        <time>2020-06-24T11:14:32Z</time>
      </trkpt>
      <trkpt lat="50.30189" lon="3.75701">
        <ele>117.7</ele>
        <time>2020-06-24T11:14:33Z</time>
      </trkpt>
      <trkpt lat="50.30192" lon="3.75704">
        <ele>117.9</ele>
        <time>2020-06-24T11:14:34Z</time>
      </trkpt>
      <trkpt lat="50.30195" lon="3.75708">
        <ele>118</ele>
        <time>2020-06-24T11:14:35Z</time>
      </trkpt>
      <trkpt lat="50.30197" lon="3.75712">
        <ele>118.2</ele>
        <time>2020-06-24T11:14:36Z</time>
      </trkpt>
      <trkpt lat="50.30199" lon="3.75717">
        <ele>118.4</ele>
        <time>2020-06-24T11:14:37Z</time>
      </trkpt>
      <trkpt lat="50.30202" lon="3.75724">
        <ele>118.5</ele>
        <time>2020-06-24T11:14:38Z</time>
      </trkpt>
      <trkpt lat="50.30205" lon="3.75729">
        <ele>118.6</ele>
        <time>2020-06-24T11:14:39Z</time>
      </trkpt>
      <trkpt lat="50.30207" lon="3.75733">
        <ele>118.7</ele>
        <time>2020-06-24T11:14:40Z</time>
      </trkpt>
      <trkpt lat="50.30209" lon="3.75737">
        <ele>118.8</ele>
        <time>2020-06-24T11:14:41Z</time>
      </trkpt>
      <trkpt lat="50.30212" lon="3.75742">
        <ele>119</ele>
        <time>2020-06-24T11:14:42Z</time>
      </trkpt>
      <trkpt lat="50.30215" lon="3.75746">
        <ele>119.1</ele>
        <time>2020-06-24T11:14:43Z</time>
      </trkpt>
      <trkpt lat="50.30217" lon="3.75751">
        <ele>119.3</ele>
        <time>2020-06-24T11:14:44Z</time>
      </trkpt>
      <trkpt lat="50.30219" lon="3.75754">
        <ele>119.4</ele>
        <time>2020-06-24T11:14:45Z</time>
      </trkpt>
      <trkpt lat="50.30222" lon="3.75758">
        <ele>119.5</ele>
        <time>2020-06-24T11:14:46Z</time>
      </trkpt>
      <trkpt lat="50.30224" lon="3.75761">
        <ele>119.6</ele>
        <time>2020-06-24T11:14:47Z</time>
      </trkpt>
      <trkpt lat="50.30226" lon="3.75765">
        <ele>119.7</ele>
        <time>2020-06-24T11:14:48Z</time>
      </trkpt>
      <trkpt lat="50.30229" lon="3.75769">
        <ele>119.9</ele>
        <time>2020-06-24T11:14:49Z</time>
      </trkpt>
      <trkpt lat="50.30231" lon="3.75771">
        <ele>120</ele>
        <time>2020-06-24T11:14:50Z</time>
      </trkpt>
      <trkpt lat="50.30233" lon="3.75775">
        <ele>120.1</ele>
        <time>2020-06-24T11:14:51Z</time>
      </trkpt>
      <trkpt lat="50.30236" lon="3.75779">
        <ele>120.2</ele>
        <time>2020-06-24T11:14:52Z</time>
      </trkpt>
      <trkpt lat="50.30239" lon="3.75784">
        <ele>120.4</ele>
        <time>2020-06-24T11:14:53Z</time>
      </trkpt>
      <trkpt lat="50.3024" lon="3.75786">
        <ele>120.5</ele>
        <time>2020-06-24T11:14:54Z</time>
      </trkpt>
      <trkpt lat="50.30243" lon="3.75791">
        <ele>120.6</ele>
        <time>2020-06-24T11:14:55Z</time>
      </trkpt>
      <trkpt lat="50.30244" lon="3.75793">
        <ele>120.7</ele>
        <time>2020-06-24T11:14:56Z</time>
      </trkpt>
      <trkpt lat="50.30246" lon="3.75796">
        <ele>120.8</ele>
        <time>2020-06-24T11:14:57Z</time>
      </trkpt>
      <trkpt lat="50.30249" lon="3.758">
        <ele>121</ele>
        <time>2020-06-24T11:14:58Z</time>
      </trkpt>
      <trkpt lat="50.30253" lon="3.75804">
        <ele>121.1</ele>
        <time>2020-06-24T11:14:59Z</time>
      </trkpt>
      <trkpt lat="50.30254" lon="3.75806">
        <ele>121.2</ele>
        <time>2020-06-24T11:15:00Z</time>
      </trkpt>
      <trkpt lat="50.30258" lon="3.75812">
        <ele>121.3</ele>
        <time>2020-06-24T11:15:01Z</time>
      </trkpt>
      <trkpt lat="50.30261" lon="3.75817">
        <ele>121.5</ele>
        <time>2020-06-24T11:15:02Z</time>
      </trkpt>
      <trkpt lat="50.30265" lon="3.75822">
        <ele>121.6</ele>
        <time>2020-06-24T11:15:03Z</time>
      </trkpt>
      <trkpt lat="50.30268" lon="3.75827">
        <ele>121.8</ele>
        <time>2020-06-24T11:15:04Z</time>
      </trkpt>
      <trkpt lat="50.30271" lon="3.75831">
        <ele>121.9</ele>
        <time>2020-06-24T11:15:05Z</time>
      </trkpt>
      <trkpt lat="50.30274" lon="3.75836">
        <ele>122.1</ele>
        <time>2020-06-24T11:15:06Z</time>
      </trkpt>
      <trkpt lat="50.30277" lon="3.75842">
        <ele>122.2</ele>
        <time>2020-06-24T11:15:07Z</time>
      </trkpt>
      <trkpt lat="50.3028" lon="3.75846">
        <ele>122.4</ele>
        <time>2020-06-24T11:15:08Z</time>
      </trkpt>
      <trkpt lat="50.30283" lon="3.7585">
        <ele>122.5</ele>
        <time>2020-06-24T11:15:09Z</time>
      </trkpt>
      <trkpt lat="50.30286" lon="3.75852">
        <ele>122.6</ele>
        <time>2020-06-24T11:15:10Z</time>
      </trkpt>
      <trkpt lat="50.30289" lon="3.75856">
        <ele>122.7</ele>
        <time>2020-06-24T11:15:11Z</time>
      </trkpt>
      <trkpt lat="50.30292" lon="3.75859">
        <ele>122.8</ele>
        <time>2020-06-24T11:15:12Z</time>
      </trkpt>
      <trkpt lat="50.30295" lon="3.75864">
        <ele>122.9</ele>
        <time>2020-06-24T11:15:13Z</time>
      </trkpt>
      <trkpt lat="50.30298" lon="3.75869">
        <ele>123</ele>
        <time>2020-06-24T11:15:14Z</time>
      </trkpt>
      <trkpt lat="50.30301" lon="3.75874">
        <ele>123.1</ele>
        <time>2020-06-24T11:15:15Z</time>
      </trkpt>
      <trkpt lat="50.30304" lon="3.75879">
        <ele>123.3</ele>
        <time>2020-06-24T11:15:16Z</time>
      </trkpt>
      <trkpt lat="50.30308" lon="3.75883">
        <ele>123.4</ele>
        <time>2020-06-24T11:15:17Z</time>
      </trkpt>
      <trkpt lat="50.30312" lon="3.75888">
        <ele>123.5</ele>
        <time>2020-06-24T11:15:18Z</time>
      </trkpt>
      <trkpt lat="50.30315" lon="3.75893">
        <ele>123.6</ele>
        <time>2020-06-24T11:15:19Z</time>
      </trkpt>
      <trkpt lat="50.30318" lon="3.75898">
        <ele>123.6</ele>
        <time>2020-06-24T11:15:20Z</time>
      </trkpt>
      <trkpt lat="50.3032" lon="3.75905">
        <ele>123.7</ele>
        <time>2020-06-24T11:15:21Z</time>
      </trkpt>
      <trkpt lat="50.30322" lon="3.75912">
        <ele>123.8</ele>
        <time>2020-06-24T11:15:22Z</time>
      </trkpt>
      <trkpt lat="50.30325" lon="3.75918">
        <ele>123.9</ele>
        <time>2020-06-24T11:15:23Z</time>
      </trkpt>
      <trkpt lat="50.30327" lon="3.75924">
        <ele>124</ele>
        <time>2020-06-24T11:15:24Z</time>
      </trkpt>
      <trkpt lat="50.30329" lon="3.7593">
        <ele>124.1</ele>
        <time>2020-06-24T11:15:25Z</time>
      </trkpt>
      <trkpt lat="50.3033" lon="3.75936">
        <ele>124.2</ele>
        <time>2020-06-24T11:15:26Z</time>
      </trkpt>
      <trkpt lat="50.30331" lon="3.75941">
        <ele>124.3</ele>
        <time>2020-06-24T11:15:27Z</time>
      </trkpt>
      <trkpt lat="50.30333" lon="3.75946">
        <ele>124.4</ele>
        <time>2020-06-24T11:15:28Z</time>
      </trkpt>
      <trkpt lat="50.30335" lon="3.75952">
        <ele>124.5</ele>
        <time>2020-06-24T11:15:29Z</time>
      </trkpt>
      <trkpt lat="50.30337" lon="3.75958">
        <ele>124.6</ele>
        <time>2020-06-24T11:15:30Z</time>
      </trkpt>
      <trkpt lat="50.30338" lon="3.75965">
        <ele>124.7</ele>
        <time>2020-06-24T11:15:31Z</time>
      </trkpt>
      <trkpt lat="50.30338" lon="3.75972">
        <ele>124.8</ele>
        <time>2020-06-24T11:15:32Z</time>
      </trkpt>
      <trkpt lat="50.30338" lon="3.75977">
        <ele>124.9</ele>
        <time>2020-06-24T11:15:33Z</time>
      </trkpt>
      <trkpt lat="50.30339" lon="3.75983">
        <ele>125</ele>
        <time>2020-06-24T11:15:34Z</time>
      </trkpt>
      <trkpt lat="50.30339" lon="3.75988">
        <ele>125</ele>
        <time>2020-06-24T11:15:35Z</time>
      </trkpt>
      <trkpt lat="50.30339" lon="3.75994">
        <ele>125.1</ele>
        <time>2020-06-24T11:15:36Z</time>
      </trkpt>
      <trkpt lat="50.3034" lon="3.76001">
        <ele>125.2</ele>
        <time>2020-06-24T11:15:37Z</time>
      </trkpt>
      <trkpt lat="50.3034" lon="3.76008">
        <ele>125.3</ele>
        <time>2020-06-24T11:15:38Z</time>
      </trkpt>
      <trkpt lat="50.3034" lon="3.76016">
        <ele>125.3</ele>
        <time>2020-06-24T11:15:39Z</time>
      </trkpt>
      <trkpt lat="50.30339" lon="3.76023">
        <ele>125.4</ele>
        <time>2020-06-24T11:15:40Z</time>
      </trkpt>
      <trkpt lat="50.3034" lon="3.76029">
        <ele>125.4</ele>
        <time>2020-06-24T11:15:41Z</time>
      </trkpt>
      <trkpt lat="50.3034" lon="3.76037">
        <ele>125.4</ele>
        <time>2020-06-24T11:15:42Z</time>
      </trkpt>
      <trkpt lat="50.30339" lon="3.76044">
        <ele>125.5</ele>
        <time>2020-06-24T11:15:43Z</time>
      </trkpt>
      <trkpt lat="50.30338" lon="3.76052">
        <ele>125.5</ele>
        <time>2020-06-24T11:15:44Z</time>
      </trkpt>
      <trkpt lat="50.30338" lon="3.76061">
        <ele>125.5</ele>
        <time>2020-06-24T11:15:45Z</time>
      </trkpt>
      <trkpt lat="50.30337" lon="3.76069">
        <ele>125.6</ele>
        <time>2020-06-24T11:15:46Z</time>
      </trkpt>
      <trkpt lat="50.30337" lon="3.76077">
        <ele>125.6</ele>
        <time>2020-06-24T11:15:47Z</time>
      </trkpt>
      <trkpt lat="50.30336" lon="3.76085">
        <ele>125.6</ele>
        <time>2020-06-24T11:15:48Z</time>
      </trkpt>
      <trkpt lat="50.30336" lon="3.76094">
        <ele>125.6</ele>
        <time>2020-06-24T11:15:49Z</time>
      </trkpt>
      <trkpt lat="50.30335" lon="3.76102">
        <ele>125.7</ele>
        <time>2020-06-24T11:15:50Z</time>
      </trkpt>
      <trkpt lat="50.30335" lon="3.76109">
        <ele>125.7</ele>
        <time>2020-06-24T11:15:51Z</time>
      </trkpt>
      <trkpt lat="50.30334" lon="3.76117">
        <ele>125.7</ele>
        <time>2020-06-24T11:15:52Z</time>
      </trkpt>
      <trkpt lat="50.30334" lon="3.76125">
        <ele>125.8</ele>
        <time>2020-06-24T11:15:53Z</time>
      </trkpt>
      <trkpt lat="50.30333" lon="3.76133">
        <ele>125.8</ele>
        <time>2020-06-24T11:15:54Z</time>
      </trkpt>
      <trkpt lat="50.30333" lon="3.76142">
        <ele>125.8</ele>
        <time>2020-06-24T11:15:55Z</time>
      </trkpt>
      <trkpt lat="50.30332" lon="3.76151">
        <ele>125.9</ele>
        <time>2020-06-24T11:15:56Z</time>
      </trkpt>
      <trkpt lat="50.3033" lon="3.7616">
        <ele>125.9</ele>
        <time>2020-06-24T11:15:57Z</time>
      </trkpt>
      <trkpt lat="50.30329" lon="3.76168">
        <ele>125.9</ele>
        <time>2020-06-24T11:15:58Z</time>
      </trkpt>
      <trkpt lat="50.30329" lon="3.76176">
        <ele>125.9</ele>
        <time>2020-06-24T11:15:59Z</time>
      </trkpt>
      <trkpt lat="50.30328" lon="3.76183">
        <ele>125.9</ele>
        <time>2020-06-24T11:16:00Z</time>
      </trkpt>
      <trkpt lat="50.30328" lon="3.76189">
        <ele>125.9</ele>
        <time>2020-06-24T11:16:01Z</time>
      </trkpt>
      <trkpt lat="50.30327" lon="3.76197">
        <ele>125.9</ele>
        <time>2020-06-24T11:16:02Z</time>
      </trkpt>
      <trkpt lat="50.30326" lon="3.76205">
        <ele>126</ele>
        <time>2020-06-24T11:16:03Z</time>
      </trkpt>
      <trkpt lat="50.30326" lon="3.76214">
        <ele>126</ele>
        <time>2020-06-24T11:16:04Z</time>
      </trkpt>
      <trkpt lat="50.30325" lon="3.76222">
        <ele>126</ele>
        <time>2020-06-24T11:16:05Z</time>
      </trkpt>
      <trkpt lat="50.30324" lon="3.7623">
        <ele>126</ele>
        <time>2020-06-24T11:16:06Z</time>
      </trkpt>
      <trkpt lat="50.30323" lon="3.76237">
        <ele>126</ele>
        <time>2020-06-24T11:16:07Z</time>
      </trkpt>
      <trkpt lat="50.30322" lon="3.76245">
        <ele>126</ele>
        <time>2020-06-24T11:16:08Z</time>
      </trkpt>
      <trkpt lat="50.30321" lon="3.76254">
        <ele>126</ele>
        <time>2020-06-24T11:16:09Z</time>
      </trkpt>
      <trkpt lat="50.30321" lon="3.76262">
        <ele>126.1</ele>
        <time>2020-06-24T11:16:10Z</time>
      </trkpt>
      <trkpt lat="50.30321" lon="3.76272">
        <ele>126.1</ele>
        <time>2020-06-24T11:16:11Z</time>
      </trkpt>
      <trkpt lat="50.3032" lon="3.76281">
        <ele>126.2</ele>
        <time>2020-06-24T11:16:12Z</time>
      </trkpt>
      <trkpt lat="50.3032" lon="3.76289">
        <ele>126.2</ele>
        <time>2020-06-24T11:16:13Z</time>
      </trkpt>
      <trkpt lat="50.30319" lon="3.76298">
        <ele>126.2</ele>
        <time>2020-06-24T11:16:14Z</time>
      </trkpt>
      <trkpt lat="50.30318" lon="3.76306">
        <ele>126.2</ele>
        <time>2020-06-24T11:16:15Z</time>
      </trkpt>
      <trkpt lat="50.30318" lon="3.76314">
        <ele>126.2</ele>
        <time>2020-06-24T11:16:16Z</time>
      </trkpt>
      <trkpt lat="50.30317" lon="3.76323">
        <ele>126.2</ele>
        <time>2020-06-24T11:16:17Z</time>
      </trkpt>
      <trkpt lat="50.30316" lon="3.76332">
        <ele>126.2</ele>
        <time>2020-06-24T11:16:18Z</time>
      </trkpt>
      <trkpt lat="50.30315" lon="3.76341">
        <ele>126.2</ele>
        <time>2020-06-24T11:16:19Z</time>
      </trkpt>
      <trkpt lat="50.30314" lon="3.76349">
        <ele>126.2</ele>
        <time>2020-06-24T11:16:20Z</time>
      </trkpt>
      <trkpt lat="50.30314" lon="3.76357">
        <ele>126.2</ele>
        <time>2020-06-24T11:16:21Z</time>
      </trkpt>
      <trkpt lat="50.30314" lon="3.76366">
        <ele>126.3</ele>
        <time>2020-06-24T11:16:22Z</time>
      </trkpt>
      <trkpt lat="50.30313" lon="3.76375">
        <ele>126.3</ele>
        <time>2020-06-24T11:16:23Z</time>
      </trkpt>
      <trkpt lat="50.30313" lon="3.76383">
        <ele>126.3</ele>
        <time>2020-06-24T11:16:24Z</time>
      </trkpt>
      <trkpt lat="50.30311" lon="3.76391">
        <ele>126.3</ele>
        <time>2020-06-24T11:16:25Z</time>
      </trkpt>
      <trkpt lat="50.30311" lon="3.76398">
        <ele>126.3</ele>
        <time>2020-06-24T11:16:26Z</time>
      </trkpt>
      <trkpt lat="50.3031" lon="3.76406">
        <ele>126.3</ele>
        <time>2020-06-24T11:16:27Z</time>
      </trkpt>
      <trkpt lat="50.30309" lon="3.76414">
        <ele>126.3</ele>
        <time>2020-06-24T11:16:28Z</time>
      </trkpt>
      <trkpt lat="50.30308" lon="3.76422">
        <ele>126.3</ele>
        <time>2020-06-24T11:16:29Z</time>
      </trkpt>
      <trkpt lat="50.30308" lon="3.7643">
        <ele>126.2</ele>
        <time>2020-06-24T11:16:30Z</time>
      </trkpt>
      <trkpt lat="50.30307" lon="3.7644">
        <ele>126.3</ele>
        <time>2020-06-24T11:16:31Z</time>
      </trkpt>
      <trkpt lat="50.30307" lon="3.76449">
        <ele>126.3</ele>
        <time>2020-06-24T11:16:32Z</time>
      </trkpt>
      <trkpt lat="50.30306" lon="3.76459">
        <ele>126.3</ele>
        <time>2020-06-24T11:16:33Z</time>
      </trkpt>
      <trkpt lat="50.30305" lon="3.76467">
        <ele>126.3</ele>
        <time>2020-06-24T11:16:34Z</time>
      </trkpt>
      <trkpt lat="50.30304" lon="3.76475">
        <ele>126.4</ele>
        <time>2020-06-24T11:16:35Z</time>
      </trkpt>
      <trkpt lat="50.30304" lon="3.76484">
        <ele>126.5</ele>
        <time>2020-06-24T11:16:36Z</time>
      </trkpt>
      <trkpt lat="50.30303" lon="3.76492">
        <ele>126.5</ele>
        <time>2020-06-24T11:16:37Z</time>
      </trkpt>
      <trkpt lat="50.30303" lon="3.76502">
        <ele>126.6</ele>
        <time>2020-06-24T11:16:38Z</time>
      </trkpt>
      <trkpt lat="50.30302" lon="3.76511">
        <ele>126.7</ele>
        <time>2020-06-24T11:16:39Z</time>
      </trkpt>
      <trkpt lat="50.30301" lon="3.76519">
        <ele>126.7</ele>
        <time>2020-06-24T11:16:40Z</time>
      </trkpt>
      <trkpt lat="50.30301" lon="3.76528">
        <ele>126.8</ele>
        <time>2020-06-24T11:16:41Z</time>
      </trkpt>
      <trkpt lat="50.303" lon="3.76537">
        <ele>126.9</ele>
        <time>2020-06-24T11:16:42Z</time>
      </trkpt>
      <trkpt lat="50.30299" lon="3.76547">
        <ele>127</ele>
        <time>2020-06-24T11:16:43Z</time>
      </trkpt>
      <trkpt lat="50.30298" lon="3.76555">
        <ele>127.1</ele>
        <time>2020-06-24T11:16:44Z</time>
      </trkpt>
      <trkpt lat="50.30297" lon="3.76564">
        <ele>127.2</ele>
        <time>2020-06-24T11:16:45Z</time>
      </trkpt>
      <trkpt lat="50.30296" lon="3.76573">
        <ele>127.3</ele>
        <time>2020-06-24T11:16:46Z</time>
      </trkpt>
      <trkpt lat="50.30295" lon="3.76581">
        <ele>127.4</ele>
        <time>2020-06-24T11:16:47Z</time>
      </trkpt>
      <trkpt lat="50.30295" lon="3.7659">
        <ele>127.6</ele>
        <time>2020-06-24T11:16:48Z</time>
      </trkpt>
      <trkpt lat="50.30294" lon="3.76598">
        <ele>127.7</ele>
        <time>2020-06-24T11:16:49Z</time>
      </trkpt>
      <trkpt lat="50.30293" lon="3.76606">
        <ele>127.8</ele>
        <time>2020-06-24T11:16:50Z</time>
      </trkpt>
      <trkpt lat="50.30292" lon="3.76615">
        <ele>127.9</ele>
        <time>2020-06-24T11:16:51Z</time>
      </trkpt>
      <trkpt lat="50.30292" lon="3.76623">
        <ele>128</ele>
        <time>2020-06-24T11:16:52Z</time>
      </trkpt>
      <trkpt lat="50.30292" lon="3.7663">
        <ele>128</ele>
        <time>2020-06-24T11:16:53Z</time>
      </trkpt>
      <trkpt lat="50.30291" lon="3.76638">
        <ele>128.1</ele>
        <time>2020-06-24T11:16:54Z</time>
      </trkpt>
      <trkpt lat="50.3029" lon="3.76646">
        <ele>128.2</ele>
        <time>2020-06-24T11:16:55Z</time>
      </trkpt>
      <trkpt lat="50.30289" lon="3.76655">
        <ele>128.3</ele>
        <time>2020-06-24T11:16:56Z</time>
      </trkpt>
      <trkpt lat="50.30288" lon="3.76664">
        <ele>128.5</ele>
        <time>2020-06-24T11:16:57Z</time>
      </trkpt>
      <trkpt lat="50.30287" lon="3.76672">
        <ele>128.7</ele>
        <time>2020-06-24T11:16:58Z</time>
      </trkpt>
      <trkpt lat="50.30286" lon="3.76681">
        <ele>128.9</ele>
        <time>2020-06-24T11:16:59Z</time>
      </trkpt>
      <trkpt lat="50.30285" lon="3.7669">
        <ele>129.1</ele>
        <time>2020-06-24T11:17:00Z</time>
      </trkpt>
      <trkpt lat="50.30284" lon="3.76698">
        <ele>129.3</ele>
        <time>2020-06-24T11:17:01Z</time>
      </trkpt>
      <trkpt lat="50.30283" lon="3.76706">
        <ele>129.5</ele>
        <time>2020-06-24T11:17:02Z</time>
      </trkpt>
      <trkpt lat="50.30283" lon="3.76714">
        <ele>129.7</ele>
        <time>2020-06-24T11:17:03Z</time>
      </trkpt>
      <trkpt lat="50.30282" lon="3.76722">
        <ele>129.9</ele>
        <time>2020-06-24T11:17:04Z</time>
      </trkpt>
      <trkpt lat="50.30281" lon="3.7673">
        <ele>130.1</ele>
        <time>2020-06-24T11:17:05Z</time>
      </trkpt>
      <trkpt lat="50.30281" lon="3.76738">
        <ele>130.3</ele>
        <time>2020-06-24T11:17:06Z</time>
      </trkpt>
      <trkpt lat="50.3028" lon="3.76747">
        <ele>130.5</ele>
        <time>2020-06-24T11:17:07Z</time>
      </trkpt>
      <trkpt lat="50.3028" lon="3.76756">
        <ele>130.8</ele>
        <time>2020-06-24T11:17:08Z</time>
      </trkpt>
      <trkpt lat="50.30279" lon="3.76764">
        <ele>131</ele>
        <time>2020-06-24T11:17:09Z</time>
      </trkpt>
      <trkpt lat="50.30278" lon="3.76773">
        <ele>131.3</ele>
        <time>2020-06-24T11:17:10Z</time>
      </trkpt>
      <trkpt lat="50.30277" lon="3.76782">
        <ele>131.6</ele>
        <time>2020-06-24T11:17:11Z</time>
      </trkpt>
      <trkpt lat="50.30277" lon="3.7679">
        <ele>131.9</ele>
        <time>2020-06-24T11:17:12Z</time>
      </trkpt>
      <trkpt lat="50.30276" lon="3.76798">
        <ele>132.1</ele>
        <time>2020-06-24T11:17:13Z</time>
      </trkpt>
      <trkpt lat="50.30275" lon="3.76806">
        <ele>132.3</ele>
        <time>2020-06-24T11:17:14Z</time>
      </trkpt>
      <trkpt lat="50.30275" lon="3.76815">
        <ele>132.5</ele>
        <time>2020-06-24T11:17:15Z</time>
      </trkpt>
      <trkpt lat="50.30274" lon="3.76823">
        <ele>132.7</ele>
        <time>2020-06-24T11:17:16Z</time>
      </trkpt>
      <trkpt lat="50.30273" lon="3.76831">
        <ele>132.9</ele>
        <time>2020-06-24T11:17:17Z</time>
      </trkpt>
      <trkpt lat="50.30272" lon="3.76838">
        <ele>133.2</ele>
        <time>2020-06-24T11:17:18Z</time>
      </trkpt>
      <trkpt lat="50.30272" lon="3.76846">
        <ele>133.4</ele>
        <time>2020-06-24T11:17:19Z</time>
      </trkpt>
      <trkpt lat="50.30271" lon="3.76854">
        <ele>133.6</ele>
        <time>2020-06-24T11:17:20Z</time>
      </trkpt>
      <trkpt lat="50.30271" lon="3.76862">
        <ele>133.8</ele>
        <time>2020-06-24T11:17:21Z</time>
      </trkpt>
      <trkpt lat="50.3027" lon="3.7687">
        <ele>134.1</ele>
        <time>2020-06-24T11:17:22Z</time>
      </trkpt>
      <trkpt lat="50.30269" lon="3.76877">
        <ele>134.3</ele>
        <time>2020-06-24T11:17:23Z</time>
      </trkpt>
      <trkpt lat="50.30268" lon="3.76884">
        <ele>134.5</ele>
        <time>2020-06-24T11:17:24Z</time>
      </trkpt>
      <trkpt lat="50.30268" lon="3.76892">
        <ele>134.7</ele>
        <time>2020-06-24T11:17:25Z</time>
      </trkpt>
      <trkpt lat="50.30267" lon="3.76899">
        <ele>134.9</ele>
        <time>2020-06-24T11:17:26Z</time>
      </trkpt>
      <trkpt lat="50.30267" lon="3.76906">
        <ele>135.1</ele>
        <time>2020-06-24T11:17:27Z</time>
      </trkpt>
      <trkpt lat="50.30266" lon="3.76913">
        <ele>135.3</ele>
        <time>2020-06-24T11:17:28Z</time>
      </trkpt>
      <trkpt lat="50.30266" lon="3.7692">
        <ele>135.5</ele>
        <time>2020-06-24T11:17:29Z</time>
      </trkpt>
      <trkpt lat="50.30265" lon="3.76926">
        <ele>135.7</ele>
        <time>2020-06-24T11:17:30Z</time>
      </trkpt>
      <trkpt lat="50.30265" lon="3.76933">
        <ele>136</ele>
        <time>2020-06-24T11:17:31Z</time>
      </trkpt>
      <trkpt lat="50.30264" lon="3.76939">
        <ele>136.1</ele>
        <time>2020-06-24T11:17:32Z</time>
      </trkpt>
      <trkpt lat="50.30265" lon="3.76947">
        <ele>136.4</ele>
        <time>2020-06-24T11:17:33Z</time>
      </trkpt>
      <trkpt lat="50.30264" lon="3.76952">
        <ele>136.6</ele>
        <time>2020-06-24T11:17:34Z</time>
      </trkpt>
      <trkpt lat="50.30264" lon="3.76958">
        <ele>136.8</ele>
        <time>2020-06-24T11:17:35Z</time>
      </trkpt>
      <trkpt lat="50.30263" lon="3.76963">
        <ele>136.9</ele>
        <time>2020-06-24T11:17:36Z</time>
      </trkpt>
      <trkpt lat="50.30263" lon="3.76969">
        <ele>137.1</ele>
        <time>2020-06-24T11:17:37Z</time>
      </trkpt>
      <trkpt lat="50.30263" lon="3.76976">
        <ele>137.2</ele>
        <time>2020-06-24T11:17:38Z</time>
      </trkpt>
      <trkpt lat="50.30262" lon="3.76983">
        <ele>137.4</ele>
        <time>2020-06-24T11:17:39Z</time>
      </trkpt>
      <trkpt lat="50.30261" lon="3.76989">
        <ele>137.5</ele>
        <time>2020-06-24T11:17:40Z</time>
      </trkpt>
      <trkpt lat="50.3026" lon="3.76995">
        <ele>137.6</ele>
        <time>2020-06-24T11:17:41Z</time>
      </trkpt>
      <trkpt lat="50.30259" lon="3.77001">
        <ele>137.8</ele>
        <time>2020-06-24T11:17:42Z</time>
      </trkpt>
      <trkpt lat="50.30259" lon="3.77007">
        <ele>137.9</ele>
        <time>2020-06-24T11:17:43Z</time>
      </trkpt>
      <trkpt lat="50.30258" lon="3.77013">
        <ele>138</ele>
        <time>2020-06-24T11:17:44Z</time>
      </trkpt>
      <trkpt lat="50.30258" lon="3.77019">
        <ele>138.1</ele>
        <time>2020-06-24T11:17:45Z</time>
      </trkpt>
      <trkpt lat="50.30257" lon="3.77026">
        <ele>138.2</ele>
        <time>2020-06-24T11:17:46Z</time>
      </trkpt>
      <trkpt lat="50.30257" lon="3.77034">
        <ele>138.2</ele>
        <time>2020-06-24T11:17:47Z</time>
      </trkpt>
      <trkpt lat="50.30256" lon="3.77041">
        <ele>138.3</ele>
        <time>2020-06-24T11:17:48Z</time>
      </trkpt>
      <trkpt lat="50.30255" lon="3.77047">
        <ele>138.3</ele>
        <time>2020-06-24T11:17:49Z</time>
      </trkpt>
      <trkpt lat="50.30255" lon="3.77053">
        <ele>138.4</ele>
        <time>2020-06-24T11:17:50Z</time>
      </trkpt>
      <trkpt lat="50.30255" lon="3.77059">
        <ele>138.5</ele>
        <time>2020-06-24T11:17:51Z</time>
      </trkpt>
      <trkpt lat="50.30253" lon="3.77066">
        <ele>138.7</ele>
        <time>2020-06-24T11:17:52Z</time>
      </trkpt>
      <trkpt lat="50.30252" lon="3.77073">
        <ele>138.8</ele>
        <time>2020-06-24T11:17:53Z</time>
      </trkpt>
      <trkpt lat="50.30252" lon="3.7708">
        <ele>138.8</ele>
        <time>2020-06-24T11:17:54Z</time>
      </trkpt>
      <trkpt lat="50.30251" lon="3.77086">
        <ele>138.8</ele>
        <time>2020-06-24T11:17:55Z</time>
      </trkpt>
      <trkpt lat="50.30251" lon="3.77092">
        <ele>138.8</ele>
        <time>2020-06-24T11:17:56Z</time>
      </trkpt>
      <trkpt lat="50.30251" lon="3.77097">
        <ele>138.9</ele>
        <time>2020-06-24T11:17:57Z</time>
      </trkpt>
      <trkpt lat="50.30251" lon="3.77103">
        <ele>138.9</ele>
        <time>2020-06-24T11:17:58Z</time>
      </trkpt>
      <trkpt lat="50.30251" lon="3.77109">
        <ele>138.9</ele>
        <time>2020-06-24T11:17:59Z</time>
      </trkpt>
      <trkpt lat="50.30251" lon="3.77117">
        <ele>138.9</ele>
        <time>2020-06-24T11:18:00Z</time>
      </trkpt>
      <trkpt lat="50.3025" lon="3.77124">
        <ele>138.9</ele>
        <time>2020-06-24T11:18:01Z</time>
      </trkpt>
      <trkpt lat="50.30249" lon="3.7713">
        <ele>138.9</ele>
        <time>2020-06-24T11:18:02Z</time>
      </trkpt>
      <trkpt lat="50.30248" lon="3.77137">
        <ele>139</ele>
        <time>2020-06-24T11:18:03Z</time>
      </trkpt>
      <trkpt lat="50.30247" lon="3.77144">
        <ele>139</ele>
        <time>2020-06-24T11:18:04Z</time>
      </trkpt>
      <trkpt lat="50.30247" lon="3.7715">
        <ele>139</ele>
        <time>2020-06-24T11:18:05Z</time>
      </trkpt>
      <trkpt lat="50.30246" lon="3.77157">
        <ele>139</ele>
        <time>2020-06-24T11:18:06Z</time>
      </trkpt>
      <trkpt lat="50.30245" lon="3.77164">
        <ele>139</ele>
        <time>2020-06-24T11:18:07Z</time>
      </trkpt>
      <trkpt lat="50.30245" lon="3.7717">
        <ele>139</ele>
        <time>2020-06-24T11:18:08Z</time>
      </trkpt>
      <trkpt lat="50.30245" lon="3.77177">
        <ele>139.1</ele>
        <time>2020-06-24T11:18:09Z</time>
      </trkpt>
      <trkpt lat="50.30243" lon="3.77185">
        <ele>139.1</ele>
        <time>2020-06-24T11:18:10Z</time>
      </trkpt>
      <trkpt lat="50.30243" lon="3.77192">
        <ele>139.1</ele>
        <time>2020-06-24T11:18:11Z</time>
      </trkpt>
      <trkpt lat="50.30241" lon="3.77199">
        <ele>139.2</ele>
        <time>2020-06-24T11:18:12Z</time>
      </trkpt>
      <trkpt lat="50.30241" lon="3.77208">
        <ele>139.2</ele>
        <time>2020-06-24T11:18:13Z</time>
      </trkpt>
      <trkpt lat="50.3024" lon="3.77214">
        <ele>139.2</ele>
        <time>2020-06-24T11:18:14Z</time>
      </trkpt>
      <trkpt lat="50.30239" lon="3.77221">
        <ele>139.2</ele>
        <time>2020-06-24T11:18:15Z</time>
      </trkpt>
      <trkpt lat="50.30238" lon="3.77228">
        <ele>139.2</ele>
        <time>2020-06-24T11:18:16Z</time>
      </trkpt>
      <trkpt lat="50.30238" lon="3.77236">
        <ele>139.2</ele>
        <time>2020-06-24T11:18:17Z</time>
      </trkpt>
      <trkpt lat="50.30237" lon="3.77244">
        <ele>139.2</ele>
        <time>2020-06-24T11:18:18Z</time>
      </trkpt>
      <trkpt lat="50.30236" lon="3.77251">
        <ele>139.2</ele>
        <time>2020-06-24T11:18:19Z</time>
      </trkpt>
      <trkpt lat="50.30235" lon="3.77259">
        <ele>139.2</ele>
        <time>2020-06-24T11:18:20Z</time>
      </trkpt>
      <trkpt lat="50.30234" lon="3.77268">
        <ele>139.2</ele>
        <time>2020-06-24T11:18:21Z</time>
      </trkpt>
      <trkpt lat="50.30233" lon="3.77276">
        <ele>139.2</ele>
        <time>2020-06-24T11:18:22Z</time>
      </trkpt>
      <trkpt lat="50.30232" lon="3.77283">
        <ele>139.2</ele>
        <time>2020-06-24T11:18:23Z</time>
      </trkpt>
      <trkpt lat="50.30232" lon="3.7729">
        <ele>139.2</ele>
        <time>2020-06-24T11:18:24Z</time>
      </trkpt>
      <trkpt lat="50.30231" lon="3.77298">
        <ele>139.2</ele>
        <time>2020-06-24T11:18:25Z</time>
      </trkpt>
      <trkpt lat="50.30231" lon="3.77305">
        <ele>139.1</ele>
        <time>2020-06-24T11:18:26Z</time>
      </trkpt>
      <trkpt lat="50.30231" lon="3.77313">
        <ele>139.1</ele>
        <time>2020-06-24T11:18:27Z</time>
      </trkpt>
      <trkpt lat="50.3023" lon="3.7732">
        <ele>139</ele>
        <time>2020-06-24T11:18:28Z</time>
      </trkpt>
      <trkpt lat="50.30229" lon="3.77328">
        <ele>138.9</ele>
        <time>2020-06-24T11:18:29Z</time>
      </trkpt>
      <trkpt lat="50.30228" lon="3.77335">
        <ele>138.8</ele>
        <time>2020-06-24T11:18:30Z</time>
      </trkpt>
      <trkpt lat="50.30228" lon="3.77343">
        <ele>138.6</ele>
        <time>2020-06-24T11:18:31Z</time>
      </trkpt>
      <trkpt lat="50.30227" lon="3.77352">
        <ele>138.4</ele>
        <time>2020-06-24T11:18:32Z</time>
      </trkpt>
      <trkpt lat="50.30227" lon="3.7736">
        <ele>138.2</ele>
        <time>2020-06-24T11:18:33Z</time>
      </trkpt>
      <trkpt lat="50.30226" lon="3.77368">
        <ele>138.1</ele>
        <time>2020-06-24T11:18:34Z</time>
      </trkpt>
      <trkpt lat="50.30226" lon="3.77377">
        <ele>137.9</ele>
        <time>2020-06-24T11:18:35Z</time>
      </trkpt>
      <trkpt lat="50.30225" lon="3.77385">
        <ele>137.6</ele>
        <time>2020-06-24T11:18:36Z</time>
      </trkpt>
      <trkpt lat="50.30225" lon="3.77393">
        <ele>137.4</ele>
        <time>2020-06-24T11:18:37Z</time>
      </trkpt>
      <trkpt lat="50.30224" lon="3.77402">
        <ele>137.1</ele>
        <time>2020-06-24T11:18:38Z</time>
      </trkpt>
      <trkpt lat="50.30223" lon="3.77413">
        <ele>136.7</ele>
        <time>2020-06-24T11:18:39Z</time>
      </trkpt>
      <trkpt lat="50.30222" lon="3.77423">
        <ele>136.3</ele>
        <time>2020-06-24T11:18:40Z</time>
      </trkpt>
      <trkpt lat="50.30221" lon="3.77433">
        <ele>136</ele>
        <time>2020-06-24T11:18:41Z</time>
      </trkpt>
      <trkpt lat="50.3022" lon="3.77443">
        <ele>135.7</ele>
        <time>2020-06-24T11:18:42Z</time>
      </trkpt>
      <trkpt lat="50.30219" lon="3.77453">
        <ele>135.3</ele>
        <time>2020-06-24T11:18:43Z</time>
      </trkpt>
      <trkpt lat="50.30218" lon="3.77463">
        <ele>135</ele>
        <time>2020-06-24T11:18:44Z</time>
      </trkpt>
      <trkpt lat="50.30218" lon="3.77474">
        <ele>134.7</ele>
        <time>2020-06-24T11:18:45Z</time>
      </trkpt>
      <trkpt lat="50.30217" lon="3.77484">
        <ele>134.3</ele>
        <time>2020-06-24T11:18:46Z</time>
      </trkpt>
      <trkpt lat="50.30216" lon="3.77494">
        <ele>133.9</ele>
        <time>2020-06-24T11:18:47Z</time>
      </trkpt>
      <trkpt lat="50.30215" lon="3.77505">
        <ele>133.6</ele>
        <time>2020-06-24T11:18:48Z</time>
      </trkpt>
      <trkpt lat="50.30214" lon="3.77517">
        <ele>133.1</ele>
        <time>2020-06-24T11:18:49Z</time>
      </trkpt>
      <trkpt lat="50.30213" lon="3.77528">
        <ele>132.7</ele>
        <time>2020-06-24T11:18:50Z</time>
      </trkpt>
      <trkpt lat="50.30212" lon="3.7754">
        <ele>132.3</ele>
        <time>2020-06-24T11:18:51Z</time>
      </trkpt>
      <trkpt lat="50.30211" lon="3.77551">
        <ele>131.9</ele>
        <time>2020-06-24T11:18:52Z</time>
      </trkpt>
      <trkpt lat="50.3021" lon="3.77562">
        <ele>131.5</ele>
        <time>2020-06-24T11:18:53Z</time>
      </trkpt>
      <trkpt lat="50.3021" lon="3.77572">
        <ele>131.2</ele>
        <time>2020-06-24T11:18:54Z</time>
      </trkpt>
      <trkpt lat="50.30209" lon="3.77583">
        <ele>130.9</ele>
        <time>2020-06-24T11:18:55Z</time>
      </trkpt>
      <trkpt lat="50.30208" lon="3.77596">
        <ele>130.6</ele>
        <time>2020-06-24T11:18:56Z</time>
      </trkpt>
      <trkpt lat="50.30206" lon="3.77608">
        <ele>130.2</ele>
        <time>2020-06-24T11:18:57Z</time>
      </trkpt>
      <trkpt lat="50.30205" lon="3.7762">
        <ele>129.8</ele>
        <time>2020-06-24T11:18:58Z</time>
      </trkpt>
      <trkpt lat="50.30204" lon="3.77631">
        <ele>129.4</ele>
        <time>2020-06-24T11:18:59Z</time>
      </trkpt>
      <trkpt lat="50.30203" lon="3.77644">
        <ele>129</ele>
        <time>2020-06-24T11:19:00Z</time>
      </trkpt>
      <trkpt lat="50.30203" lon="3.77657">
        <ele>128.5</ele>
        <time>2020-06-24T11:19:01Z</time>
      </trkpt>
      <trkpt lat="50.30202" lon="3.77669">
        <ele>128.1</ele>
        <time>2020-06-24T11:19:02Z</time>
      </trkpt>
      <trkpt lat="50.302" lon="3.77681">
        <ele>127.7</ele>
        <time>2020-06-24T11:19:03Z</time>
      </trkpt>
      <trkpt lat="50.30199" lon="3.77693">
        <ele>127.3</ele>
        <time>2020-06-24T11:19:04Z</time>
      </trkpt>
      <trkpt lat="50.30198" lon="3.77706">
        <ele>126.9</ele>
        <time>2020-06-24T11:19:05Z</time>
      </trkpt>
      <trkpt lat="50.30196" lon="3.77719">
        <ele>126.4</ele>
        <time>2020-06-24T11:19:06Z</time>
      </trkpt>
      <trkpt lat="50.30195" lon="3.77732">
        <ele>126</ele>
        <time>2020-06-24T11:19:07Z</time>
      </trkpt>
      <trkpt lat="50.30193" lon="3.77746">
        <ele>125.6</ele>
        <time>2020-06-24T11:19:08Z</time>
      </trkpt>
      <trkpt lat="50.30192" lon="3.7776">
        <ele>125.2</ele>
        <time>2020-06-24T11:19:09Z</time>
      </trkpt>
      <trkpt lat="50.3019" lon="3.77773">
        <ele>124.9</ele>
        <time>2020-06-24T11:19:10Z</time>
      </trkpt>
      <trkpt lat="50.30189" lon="3.77786">
        <ele>124.6</ele>
        <time>2020-06-24T11:19:11Z</time>
      </trkpt>
      <trkpt lat="50.30188" lon="3.77799">
        <ele>124.4</ele>
        <time>2020-06-24T11:19:12Z</time>
      </trkpt>
      <trkpt lat="50.30187" lon="3.77812">
        <ele>124.2</ele>
        <time>2020-06-24T11:19:13Z</time>
      </trkpt>
      <trkpt lat="50.30186" lon="3.77825">
        <ele>124</ele>
        <time>2020-06-24T11:19:14Z</time>
      </trkpt>
      <trkpt lat="50.30185" lon="3.77837">
        <ele>123.9</ele>
        <time>2020-06-24T11:19:15Z</time>
      </trkpt>
      <trkpt lat="50.30184" lon="3.77849">
        <ele>123.8</ele>
        <time>2020-06-24T11:19:16Z</time>
      </trkpt>
      <trkpt lat="50.30183" lon="3.77861">
        <ele>123.7</ele>
        <time>2020-06-24T11:19:17Z</time>
      </trkpt>
      <trkpt lat="50.30182" lon="3.77873">
        <ele>123.5</ele>
        <time>2020-06-24T11:19:18Z</time>
      </trkpt>
      <trkpt lat="50.30181" lon="3.77885">
        <ele>123.4</ele>
        <time>2020-06-24T11:19:19Z</time>
      </trkpt>
      <trkpt lat="50.30179" lon="3.77896">
        <ele>123.3</ele>
        <time>2020-06-24T11:19:20Z</time>
      </trkpt>
      <trkpt lat="50.30178" lon="3.77907">
        <ele>123.2</ele>
        <time>2020-06-24T11:19:21Z</time>
      </trkpt>
      <trkpt lat="50.30177" lon="3.77918">
        <ele>123.1</ele>
        <time>2020-06-24T11:19:22Z</time>
      </trkpt>
      <trkpt lat="50.30176" lon="3.77929">
        <ele>123</ele>
        <time>2020-06-24T11:19:23Z</time>
      </trkpt>
      <trkpt lat="50.30175" lon="3.7794">
        <ele>123</ele>
        <time>2020-06-24T11:19:24Z</time>
      </trkpt>
      <trkpt lat="50.30174" lon="3.77951">
        <ele>123</ele>
        <time>2020-06-24T11:19:25Z</time>
      </trkpt>
      <trkpt lat="50.30172" lon="3.77962">
        <ele>123.1</ele>
        <time>2020-06-24T11:19:26Z</time>
      </trkpt>
      <trkpt lat="50.30171" lon="3.77972">
        <ele>123</ele>
        <time>2020-06-24T11:19:27Z</time>
      </trkpt>
      <trkpt lat="50.3017" lon="3.77982">
        <ele>123.1</ele>
        <time>2020-06-24T11:19:28Z</time>
      </trkpt>
      <trkpt lat="50.30169" lon="3.77992">
        <ele>123.1</ele>
        <time>2020-06-24T11:19:29Z</time>
      </trkpt>
      <trkpt lat="50.30169" lon="3.78002">
        <ele>123.1</ele>
        <time>2020-06-24T11:19:30Z</time>
      </trkpt>
      <trkpt lat="50.30168" lon="3.78011">
        <ele>123.2</ele>
        <time>2020-06-24T11:19:31Z</time>
      </trkpt>
      <trkpt lat="50.30167" lon="3.7802">
        <ele>123.3</ele>
        <time>2020-06-24T11:19:32Z</time>
      </trkpt>
      <trkpt lat="50.30167" lon="3.78029">
        <ele>123.4</ele>
        <time>2020-06-24T11:19:33Z</time>
      </trkpt>
      <trkpt lat="50.30167" lon="3.78038">
        <ele>123.6</ele>
        <time>2020-06-24T11:19:34Z</time>
      </trkpt>
      <trkpt lat="50.30167" lon="3.78047">
        <ele>123.8</ele>
        <time>2020-06-24T11:19:35Z</time>
      </trkpt>
      <trkpt lat="50.30166" lon="3.78055">
        <ele>123.9</ele>
        <time>2020-06-24T11:19:36Z</time>
      </trkpt>
      <trkpt lat="50.30164" lon="3.78064">
        <ele>124.1</ele>
        <time>2020-06-24T11:19:37Z</time>
      </trkpt>
      <trkpt lat="50.30163" lon="3.78071">
        <ele>124.3</ele>
        <time>2020-06-24T11:19:38Z</time>
      </trkpt>
      <trkpt lat="50.30163" lon="3.7808">
        <ele>124.5</ele>
        <time>2020-06-24T11:19:39Z</time>
      </trkpt>
      <trkpt lat="50.30162" lon="3.78088">
        <ele>124.7</ele>
        <time>2020-06-24T11:19:40Z</time>
      </trkpt>
      <trkpt lat="50.30162" lon="3.78095">
        <ele>124.9</ele>
        <time>2020-06-24T11:19:41Z</time>
      </trkpt>
      <trkpt lat="50.30161" lon="3.78102">
        <ele>125</ele>
        <time>2020-06-24T11:19:42Z</time>
      </trkpt>
      <trkpt lat="50.30161" lon="3.78109">
        <ele>125.2</ele>
        <time>2020-06-24T11:19:43Z</time>
      </trkpt>
      <trkpt lat="50.30161" lon="3.78114">
        <ele>125.4</ele>
        <time>2020-06-24T11:19:44Z</time>
      </trkpt>
      <trkpt lat="50.3016" lon="3.78118">
        <ele>125.5</ele>
        <time>2020-06-24T11:19:45Z</time>
      </trkpt>
      <trkpt lat="50.30161" lon="3.78123">
        <ele>125.6</ele>
        <time>2020-06-24T11:19:46Z</time>
      </trkpt>
      <trkpt lat="50.3016" lon="3.78127">
        <ele>125.8</ele>
        <time>2020-06-24T11:19:47Z</time>
      </trkpt>
      <trkpt lat="50.30158" lon="3.78132">
        <ele>126</ele>
        <time>2020-06-24T11:19:48Z</time>
      </trkpt>
      <trkpt lat="50.30158" lon="3.78134">
        <ele>126</ele>
        <time>2020-06-24T11:19:49Z</time>
      </trkpt>
      <trkpt lat="50.30158" lon="3.78137">
        <ele>126.1</ele>
        <time>2020-06-24T11:19:50Z</time>
      </trkpt>
      <trkpt lat="50.30158" lon="3.78139">
        <ele>126.2</ele>
        <time>2020-06-24T11:19:51Z</time>
      </trkpt>
      <trkpt lat="50.30158" lon="3.78145">
        <ele>126.4</ele>
        <time>2020-06-24T11:19:52Z</time>
      </trkpt>
      <trkpt lat="50.30158" lon="3.78147">
        <ele>126.5</ele>
        <time>2020-06-24T11:19:53Z</time>
      </trkpt>
      <trkpt lat="50.30158" lon="3.78152">
        <ele>126.6</ele>
        <time>2020-06-24T11:19:54Z</time>
      </trkpt>
      <trkpt lat="50.30157" lon="3.78157">
        <ele>126.8</ele>
        <time>2020-06-24T11:19:55Z</time>
      </trkpt>
      <trkpt lat="50.30156" lon="3.78161">
        <ele>127</ele>
        <time>2020-06-24T11:19:56Z</time>
      </trkpt>
      <trkpt lat="50.30155" lon="3.78162">
        <ele>127.1</ele>
        <time>2020-06-24T11:19:57Z</time>
      </trkpt>
      <trkpt lat="50.30155" lon="3.78164">
        <ele>127.1</ele>
        <time>2020-06-24T11:19:58Z</time>
      </trkpt>
      <trkpt lat="50.30154" lon="3.78167">
        <ele>127.3</ele>
        <time>2020-06-24T11:19:59Z</time>
      </trkpt>
      <trkpt lat="50.30154" lon="3.7817">
        <ele>127.4</ele>
        <time>2020-06-24T11:20:00Z</time>
      </trkpt>
      <trkpt lat="50.30154" lon="3.78173">
        <ele>127.5</ele>
        <time>2020-06-24T11:20:01Z</time>
      </trkpt>
      <trkpt lat="50.30154" lon="3.78175">
        <ele>127.6</ele>
        <time>2020-06-24T11:20:02Z</time>
      </trkpt>
      <trkpt lat="50.30155" lon="3.78177">
        <ele>127.7</ele>
        <time>2020-06-24T11:20:03Z</time>
      </trkpt>
      <trkpt lat="50.30154" lon="3.78182">
        <ele>127.8</ele>
        <time>2020-06-24T11:20:04Z</time>
      </trkpt>
      <trkpt lat="50.30154" lon="3.78186">
        <ele>128</ele>
        <time>2020-06-24T11:20:05Z</time>
      </trkpt>
      <trkpt lat="50.30154" lon="3.7819">
        <ele>128.2</ele>
        <time>2020-06-24T11:20:06Z</time>
      </trkpt>
      <trkpt lat="50.30153" lon="3.78195">
        <ele>128.3</ele>
        <time>2020-06-24T11:20:07Z</time>
      </trkpt>
      <trkpt lat="50.30153" lon="3.78201">
        <ele>128.6</ele>
        <time>2020-06-24T11:20:08Z</time>
      </trkpt>
      <trkpt lat="50.30151" lon="3.78207">
        <ele>128.8</ele>
        <time>2020-06-24T11:20:09Z</time>
      </trkpt>
      <trkpt lat="50.30151" lon="3.78215">
        <ele>129.1</ele>
        <time>2020-06-24T11:20:10Z</time>
      </trkpt>
      <trkpt lat="50.30151" lon="3.78221">
        <ele>129.3</ele>
        <time>2020-06-24T11:20:11Z</time>
      </trkpt>
      <trkpt lat="50.3015" lon="3.78226">
        <ele>129.5</ele>
        <time>2020-06-24T11:20:12Z</time>
      </trkpt>
      <trkpt lat="50.3015" lon="3.78231">
        <ele>129.7</ele>
        <time>2020-06-24T11:20:13Z</time>
      </trkpt>
      <trkpt lat="50.3015" lon="3.78236">
        <ele>129.9</ele>
        <time>2020-06-24T11:20:14Z</time>
      </trkpt>
      <trkpt lat="50.30148" lon="3.78241">
        <ele>130.1</ele>
        <time>2020-06-24T11:20:15Z</time>
      </trkpt>
      <trkpt lat="50.30148" lon="3.78247">
        <ele>130.3</ele>
        <time>2020-06-24T11:20:16Z</time>
      </trkpt>
      <trkpt lat="50.30148" lon="3.78252">
        <ele>130.4</ele>
        <time>2020-06-24T11:20:17Z</time>
      </trkpt>
      <trkpt lat="50.30147" lon="3.78257">
        <ele>130.6</ele>
        <time>2020-06-24T11:20:18Z</time>
      </trkpt>
      <trkpt lat="50.30147" lon="3.78263">
        <ele>130.8</ele>
        <time>2020-06-24T11:20:19Z</time>
      </trkpt>
      <trkpt lat="50.30147" lon="3.78269">
        <ele>131</ele>
        <time>2020-06-24T11:20:20Z</time>
      </trkpt>
      <trkpt lat="50.30146" lon="3.78274">
        <ele>131.2</ele>
        <time>2020-06-24T11:20:21Z</time>
      </trkpt>
      <trkpt lat="50.30146" lon="3.78281">
        <ele>131.4</ele>
        <time>2020-06-24T11:20:22Z</time>
      </trkpt>
      <trkpt lat="50.30145" lon="3.78285">
        <ele>131.6</ele>
        <time>2020-06-24T11:20:23Z</time>
      </trkpt>
      <trkpt lat="50.30145" lon="3.78291">
        <ele>131.8</ele>
        <time>2020-06-24T11:20:24Z</time>
      </trkpt>
      <trkpt lat="50.30145" lon="3.78294">
        <ele>131.9</ele>
        <time>2020-06-24T11:20:25Z</time>
      </trkpt>
      <trkpt lat="50.30145" lon="3.78299">
        <ele>132</ele>
        <time>2020-06-24T11:20:26Z</time>
      </trkpt>
      <trkpt lat="50.30144" lon="3.78305">
        <ele>132.3</ele>
        <time>2020-06-24T11:20:27Z</time>
      </trkpt>
      <trkpt lat="50.30143" lon="3.78311">
        <ele>132.5</ele>
        <time>2020-06-24T11:20:28Z</time>
      </trkpt>
      <trkpt lat="50.30142" lon="3.78316">
        <ele>132.7</ele>
        <time>2020-06-24T11:20:29Z</time>
      </trkpt>
      <trkpt lat="50.30141" lon="3.78322">
        <ele>132.9</ele>
        <time>2020-06-24T11:20:30Z</time>
      </trkpt>
      <trkpt lat="50.30139" lon="3.7833">
        <ele>133.2</ele>
        <time>2020-06-24T11:20:31Z</time>
      </trkpt>
      <trkpt lat="50.30138" lon="3.78336">
        <ele>133.4</ele>
        <time>2020-06-24T11:20:32Z</time>
      </trkpt>
      <trkpt lat="50.30138" lon="3.78341">
        <ele>133.6</ele>
        <time>2020-06-24T11:20:33Z</time>
      </trkpt>
      <trkpt lat="50.30137" lon="3.78347">
        <ele>133.8</ele>
        <time>2020-06-24T11:20:34Z</time>
      </trkpt>
      <trkpt lat="50.30137" lon="3.78353">
        <ele>134</ele>
        <time>2020-06-24T11:20:35Z</time>
      </trkpt>
      <trkpt lat="50.30136" lon="3.7836">
        <ele>134.2</ele>
        <time>2020-06-24T11:20:36Z</time>
      </trkpt>
      <trkpt lat="50.30135" lon="3.78367">
        <ele>134.5</ele>
        <time>2020-06-24T11:20:37Z</time>
      </trkpt>
      <trkpt lat="50.30134" lon="3.78374">
        <ele>134.7</ele>
        <time>2020-06-24T11:20:38Z</time>
      </trkpt>
      <trkpt lat="50.30133" lon="3.78379">
        <ele>134.9</ele>
        <time>2020-06-24T11:20:39Z</time>
      </trkpt>
      <trkpt lat="50.30132" lon="3.78383">
        <ele>135</ele>
        <time>2020-06-24T11:20:40Z</time>
      </trkpt>
      <trkpt lat="50.30132" lon="3.78389">
        <ele>135.2</ele>
        <time>2020-06-24T11:20:41Z</time>
      </trkpt>
      <trkpt lat="50.30131" lon="3.78393">
        <ele>135.4</ele>
        <time>2020-06-24T11:20:42Z</time>
      </trkpt>
      <trkpt lat="50.30131" lon="3.78399">
        <ele>135.5</ele>
        <time>2020-06-24T11:20:43Z</time>
      </trkpt>
      <trkpt lat="50.3013" lon="3.78403">
        <ele>135.7</ele>
        <time>2020-06-24T11:20:44Z</time>
      </trkpt>
      <trkpt lat="50.3013" lon="3.78408">
        <ele>135.8</ele>
        <time>2020-06-24T11:20:45Z</time>
      </trkpt>
      <trkpt lat="50.3013" lon="3.78412">
        <ele>136</ele>
        <time>2020-06-24T11:20:46Z</time>
      </trkpt>
      <trkpt lat="50.3013" lon="3.78418">
        <ele>136.2</ele>
        <time>2020-06-24T11:20:47Z</time>
      </trkpt>
      <trkpt lat="50.3013" lon="3.78421">
        <ele>136.2</ele>
        <time>2020-06-24T11:20:48Z</time>
      </trkpt>
      <trkpt lat="50.3013" lon="3.78426">
        <ele>136.4</ele>
        <time>2020-06-24T11:20:49Z</time>
      </trkpt>
      <trkpt lat="50.3013" lon="3.78431">
        <ele>136.6</ele>
        <time>2020-06-24T11:20:50Z</time>
      </trkpt>
      <trkpt lat="50.3013" lon="3.78437">
        <ele>136.7</ele>
        <time>2020-06-24T11:20:51Z</time>
      </trkpt>
      <trkpt lat="50.30131" lon="3.78439">
        <ele>136.8</ele>
        <time>2020-06-24T11:20:52Z</time>
      </trkpt>
      <trkpt lat="50.30131" lon="3.78443">
        <ele>136.9</ele>
        <time>2020-06-24T11:20:53Z</time>
      </trkpt>
      <trkpt lat="50.30131" lon="3.78449">
        <ele>137.1</ele>
        <time>2020-06-24T11:20:54Z</time>
      </trkpt>
      <trkpt lat="50.3013" lon="3.7845">
        <ele>137.1</ele>
        <time>2020-06-24T11:20:55Z</time>
      </trkpt>
      <trkpt lat="50.3013" lon="3.78455">
        <ele>137.2</ele>
        <time>2020-06-24T11:20:56Z</time>
      </trkpt>
      <trkpt lat="50.3013" lon="3.7846">
        <ele>137.4</ele>
        <time>2020-06-24T11:20:57Z</time>
      </trkpt>
      <trkpt lat="50.3013" lon="3.78462">
        <ele>137.4</ele>
        <time>2020-06-24T11:20:58Z</time>
      </trkpt>
      <trkpt lat="50.3013" lon="3.78467">
        <ele>137.6</ele>
        <time>2020-06-24T11:20:59Z</time>
      </trkpt>
      <trkpt lat="50.3013" lon="3.78473">
        <ele>137.8</ele>
        <time>2020-06-24T11:21:00Z</time>
      </trkpt>
      <trkpt lat="50.3013" lon="3.78478">
        <ele>137.9</ele>
        <time>2020-06-24T11:21:01Z</time>
      </trkpt>
      <trkpt lat="50.30129" lon="3.78483">
        <ele>138</ele>
        <time>2020-06-24T11:21:02Z</time>
      </trkpt>
      <trkpt lat="50.30129" lon="3.78489">
        <ele>138.2</ele>
        <time>2020-06-24T11:21:03Z</time>
      </trkpt>
      <trkpt lat="50.30128" lon="3.78495">
        <ele>138.4</ele>
        <time>2020-06-24T11:21:04Z</time>
      </trkpt>
      <trkpt lat="50.30127" lon="3.78501">
        <ele>138.6</ele>
        <time>2020-06-24T11:21:05Z</time>
      </trkpt>
      <trkpt lat="50.30126" lon="3.78506">
        <ele>138.8</ele>
        <time>2020-06-24T11:21:06Z</time>
      </trkpt>
      <trkpt lat="50.30125" lon="3.78512">
        <ele>139</ele>
        <time>2020-06-24T11:21:07Z</time>
      </trkpt>
      <trkpt lat="50.30123" lon="3.78518">
        <ele>139.2</ele>
        <time>2020-06-24T11:21:08Z</time>
      </trkpt>
      <trkpt lat="50.30124" lon="3.78522">
        <ele>139.3</ele>
        <time>2020-06-24T11:21:09Z</time>
      </trkpt>
      <trkpt lat="50.30123" lon="3.78525">
        <ele>139.4</ele>
        <time>2020-06-24T11:21:10Z</time>
      </trkpt>
      <trkpt lat="50.30123" lon="3.78531">
        <ele>139.6</ele>
        <time>2020-06-24T11:21:11Z</time>
      </trkpt>
      <trkpt lat="50.30122" lon="3.78535">
        <ele>139.8</ele>
        <time>2020-06-24T11:21:12Z</time>
      </trkpt>
      <trkpt lat="50.30122" lon="3.78541">
        <ele>140</ele>
        <time>2020-06-24T11:21:13Z</time>
      </trkpt>
      <trkpt lat="50.30122" lon="3.78547">
        <ele>140.1</ele>
        <time>2020-06-24T11:21:14Z</time>
      </trkpt>
      <trkpt lat="50.30121" lon="3.78553">
        <ele>140.4</ele>
        <time>2020-06-24T11:21:15Z</time>
      </trkpt>
      <trkpt lat="50.3012" lon="3.7856">
        <ele>140.5</ele>
        <time>2020-06-24T11:21:16Z</time>
      </trkpt>
      <trkpt lat="50.30119" lon="3.78565">
        <ele>140.7</ele>
        <time>2020-06-24T11:21:17Z</time>
      </trkpt>
      <trkpt lat="50.30119" lon="3.78571">
        <ele>140.8</ele>
        <time>2020-06-24T11:21:18Z</time>
      </trkpt>
      <trkpt lat="50.30118" lon="3.78577">
        <ele>141</ele>
        <time>2020-06-24T11:21:19Z</time>
      </trkpt>
      <trkpt lat="50.30118" lon="3.78581">
        <ele>141.1</ele>
        <time>2020-06-24T11:21:20Z</time>
      </trkpt>
      <trkpt lat="50.30117" lon="3.78586">
        <ele>141.3</ele>
        <time>2020-06-24T11:21:21Z</time>
      </trkpt>
      <trkpt lat="50.30117" lon="3.78591">
        <ele>141.4</ele>
        <time>2020-06-24T11:21:22Z</time>
      </trkpt>
      <trkpt lat="50.30117" lon="3.78597">
        <ele>141.6</ele>
        <time>2020-06-24T11:21:23Z</time>
      </trkpt>
      <trkpt lat="50.30117" lon="3.78603">
        <ele>141.7</ele>
        <time>2020-06-24T11:21:24Z</time>
      </trkpt>
      <trkpt lat="50.30116" lon="3.78609">
        <ele>141.9</ele>
        <time>2020-06-24T11:21:25Z</time>
      </trkpt>
      <trkpt lat="50.30115" lon="3.78618">
        <ele>142.1</ele>
        <time>2020-06-24T11:21:26Z</time>
      </trkpt>
      <trkpt lat="50.30114" lon="3.78624">
        <ele>142.3</ele>
        <time>2020-06-24T11:21:27Z</time>
      </trkpt>
      <trkpt lat="50.30113" lon="3.78629">
        <ele>142.4</ele>
        <time>2020-06-24T11:21:28Z</time>
      </trkpt>
      <trkpt lat="50.30113" lon="3.78635">
        <ele>142.6</ele>
        <time>2020-06-24T11:21:29Z</time>
      </trkpt>
      <trkpt lat="50.30112" lon="3.78637">
        <ele>142.6</ele>
        <time>2020-06-24T11:21:30Z</time>
      </trkpt>
      <trkpt lat="50.30112" lon="3.78642">
        <ele>142.7</ele>
        <time>2020-06-24T11:21:31Z</time>
      </trkpt>
      <trkpt lat="50.30111" lon="3.78648">
        <ele>142.9</ele>
        <time>2020-06-24T11:21:32Z</time>
      </trkpt>
      <trkpt lat="50.3011" lon="3.78652">
        <ele>143</ele>
        <time>2020-06-24T11:21:33Z</time>
      </trkpt>
      <trkpt lat="50.30109" lon="3.78655">
        <ele>143.1</ele>
        <time>2020-06-24T11:21:34Z</time>
      </trkpt>
      <trkpt lat="50.30108" lon="3.78661">
        <ele>143.3</ele>
        <time>2020-06-24T11:21:35Z</time>
      </trkpt>
      <trkpt lat="50.30107" lon="3.78669">
        <ele>143.5</ele>
        <time>2020-06-24T11:21:36Z</time>
      </trkpt>
      <trkpt lat="50.30106" lon="3.78676">
        <ele>143.7</ele>
        <time>2020-06-24T11:21:37Z</time>
      </trkpt>
      <trkpt lat="50.30106" lon="3.78681">
        <ele>143.8</ele>
        <time>2020-06-24T11:21:38Z</time>
      </trkpt>
      <trkpt lat="50.30106" lon="3.78686">
        <ele>144</ele>
        <time>2020-06-24T11:21:39Z</time>
      </trkpt>
      <trkpt lat="50.30106" lon="3.78691">
        <ele>144.1</ele>
        <time>2020-06-24T11:21:40Z</time>
      </trkpt>
      <trkpt lat="50.30106" lon="3.78693">
        <ele>144.1</ele>
        <time>2020-06-24T11:21:41Z</time>
      </trkpt>
      <trkpt lat="50.30106" lon="3.78699">
        <ele>144.3</ele>
        <time>2020-06-24T11:21:42Z</time>
      </trkpt>
      <trkpt lat="50.30105" lon="3.78702">
        <ele>144.4</ele>
        <time>2020-06-24T11:21:43Z</time>
      </trkpt>
      <trkpt lat="50.30105" lon="3.78708">
        <ele>144.5</ele>
        <time>2020-06-24T11:21:44Z</time>
      </trkpt>
      <trkpt lat="50.30105" lon="3.7871">
        <ele>144.6</ele>
        <time>2020-06-24T11:21:45Z</time>
      </trkpt>
      <trkpt lat="50.30105" lon="3.78715">
        <ele>144.7</ele>
        <time>2020-06-24T11:21:46Z</time>
      </trkpt>
      <trkpt lat="50.30105" lon="3.78721">
        <ele>144.8</ele>
        <time>2020-06-24T11:21:47Z</time>
      </trkpt>
      <trkpt lat="50.30105" lon="3.78727">
        <ele>144.9</ele>
        <time>2020-06-24T11:21:48Z</time>
      </trkpt>
      <trkpt lat="50.30105" lon="3.78729">
        <ele>145</ele>
        <time>2020-06-24T11:21:49Z</time>
      </trkpt>
      <trkpt lat="50.30104" lon="3.78734">
        <ele>145.1</ele>
        <time>2020-06-24T11:21:50Z</time>
      </trkpt>
      <trkpt lat="50.30103" lon="3.78738">
        <ele>145.2</ele>
        <time>2020-06-24T11:21:51Z</time>
      </trkpt>
      <trkpt lat="50.30103" lon="3.78743">
        <ele>145.3</ele>
        <time>2020-06-24T11:21:52Z</time>
      </trkpt>
      <trkpt lat="50.30102" lon="3.78748">
        <ele>145.5</ele>
        <time>2020-06-24T11:21:53Z</time>
      </trkpt>
      <trkpt lat="50.30101" lon="3.78755">
        <ele>145.6</ele>
        <time>2020-06-24T11:21:54Z</time>
      </trkpt>
      <trkpt lat="50.301" lon="3.78764">
        <ele>145.9</ele>
        <time>2020-06-24T11:21:55Z</time>
      </trkpt>
      <trkpt lat="50.30099" lon="3.78769">
        <ele>146</ele>
        <time>2020-06-24T11:21:56Z</time>
      </trkpt>
      <trkpt lat="50.30098" lon="3.78774">
        <ele>146.1</ele>
        <time>2020-06-24T11:21:57Z</time>
      </trkpt>
      <trkpt lat="50.30098" lon="3.78779">
        <ele>146.2</ele>
        <time>2020-06-24T11:21:58Z</time>
      </trkpt>
      <trkpt lat="50.30098" lon="3.78785">
        <ele>146.4</ele>
        <time>2020-06-24T11:21:59Z</time>
      </trkpt>
      <trkpt lat="50.30099" lon="3.7879">
        <ele>146.4</ele>
        <time>2020-06-24T11:22:00Z</time>
      </trkpt>
      <trkpt lat="50.30099" lon="3.78795">
        <ele>146.4</ele>
        <time>2020-06-24T11:22:01Z</time>
      </trkpt>
      <trkpt lat="50.30099" lon="3.78801">
        <ele>146.4</ele>
        <time>2020-06-24T11:22:02Z</time>
      </trkpt>
      <trkpt lat="50.301" lon="3.78808">
        <ele>146.4</ele>
        <time>2020-06-24T11:22:03Z</time>
      </trkpt>
      <trkpt lat="50.30099" lon="3.78813">
        <ele>146.4</ele>
        <time>2020-06-24T11:22:04Z</time>
      </trkpt>
      <trkpt lat="50.30099" lon="3.78815">
        <ele>146.4</ele>
        <time>2020-06-24T11:22:05Z</time>
      </trkpt>
      <trkpt lat="50.30098" lon="3.78821">
        <ele>146.5</ele>
        <time>2020-06-24T11:22:06Z</time>
      </trkpt>
      <trkpt lat="50.30097" lon="3.78827">
        <ele>146.6</ele>
        <time>2020-06-24T11:22:07Z</time>
      </trkpt>
      <trkpt lat="50.30096" lon="3.78831">
        <ele>146.6</ele>
        <time>2020-06-24T11:22:08Z</time>
      </trkpt>
      <trkpt lat="50.30095" lon="3.78836">
        <ele>146.7</ele>
        <time>2020-06-24T11:22:09Z</time>
      </trkpt>
      <trkpt lat="50.30094" lon="3.78842">
        <ele>146.7</ele>
        <time>2020-06-24T11:22:10Z</time>
      </trkpt>
      <trkpt lat="50.30094" lon="3.78847">
        <ele>146.8</ele>
        <time>2020-06-24T11:22:11Z</time>
      </trkpt>
      <trkpt lat="50.30093" lon="3.78852">
        <ele>146.9</ele>
        <time>2020-06-24T11:22:12Z</time>
      </trkpt>
      <trkpt lat="50.30091" lon="3.78858">
        <ele>147</ele>
        <time>2020-06-24T11:22:13Z</time>
      </trkpt>
      <trkpt lat="50.3009" lon="3.78863">
        <ele>147.1</ele>
        <time>2020-06-24T11:22:14Z</time>
      </trkpt>
      <trkpt lat="50.30088" lon="3.78869">
        <ele>147.2</ele>
        <time>2020-06-24T11:22:15Z</time>
      </trkpt>
      <trkpt lat="50.30087" lon="3.78875">
        <ele>147.3</ele>
        <time>2020-06-24T11:22:16Z</time>
      </trkpt>
      <trkpt lat="50.30085" lon="3.78881">
        <ele>147.3</ele>
        <time>2020-06-24T11:22:17Z</time>
      </trkpt>
      <trkpt lat="50.30083" lon="3.78887">
        <ele>147.4</ele>
        <time>2020-06-24T11:22:18Z</time>
      </trkpt>
      <trkpt lat="50.30082" lon="3.78894">
        <ele>147.5</ele>
        <time>2020-06-24T11:22:19Z</time>
      </trkpt>
      <trkpt lat="50.30081" lon="3.78901">
        <ele>147.6</ele>
        <time>2020-06-24T11:22:20Z</time>
      </trkpt>
      <trkpt lat="50.30079" lon="3.78907">
        <ele>147.7</ele>
        <time>2020-06-24T11:22:21Z</time>
      </trkpt>
      <trkpt lat="50.30078" lon="3.78914">
        <ele>147.8</ele>
        <time>2020-06-24T11:22:22Z</time>
      </trkpt>
      <trkpt lat="50.30077" lon="3.78919">
        <ele>147.8</ele>
        <time>2020-06-24T11:22:23Z</time>
      </trkpt>
      <trkpt lat="50.30075" lon="3.78923">
        <ele>147.9</ele>
        <time>2020-06-24T11:22:24Z</time>
      </trkpt>
      <trkpt lat="50.30073" lon="3.78926">
        <ele>147.9</ele>
        <time>2020-06-24T11:22:25Z</time>
      </trkpt>
      <trkpt lat="50.30072" lon="3.78931">
        <ele>147.9</ele>
        <time>2020-06-24T11:22:26Z</time>
      </trkpt>
      <trkpt lat="50.30071" lon="3.78937">
        <ele>147.9</ele>
        <time>2020-06-24T11:22:27Z</time>
      </trkpt>
      <trkpt lat="50.3007" lon="3.78941">
        <ele>148</ele>
        <time>2020-06-24T11:22:28Z</time>
      </trkpt>
      <trkpt lat="50.30068" lon="3.78948">
        <ele>148</ele>
        <time>2020-06-24T11:22:29Z</time>
      </trkpt>
      <trkpt lat="50.30068" lon="3.7895">
        <ele>148.1</ele>
        <time>2020-06-24T11:22:30Z</time>
      </trkpt>
      <trkpt lat="50.30067" lon="3.78957">
        <ele>148.1</ele>
        <time>2020-06-24T11:22:31Z</time>
      </trkpt>
      <trkpt lat="50.30066" lon="3.78964">
        <ele>148.2</ele>
        <time>2020-06-24T11:22:32Z</time>
      </trkpt>
      <trkpt lat="50.30064" lon="3.78969">
        <ele>148.2</ele>
        <time>2020-06-24T11:22:33Z</time>
      </trkpt>
      <trkpt lat="50.30062" lon="3.78973">
        <ele>148.3</ele>
        <time>2020-06-24T11:22:34Z</time>
      </trkpt>
      <trkpt lat="50.3006" lon="3.78978">
        <ele>148.3</ele>
        <time>2020-06-24T11:22:35Z</time>
      </trkpt>
      <trkpt lat="50.30058" lon="3.78984">
        <ele>148.4</ele>
        <time>2020-06-24T11:22:36Z</time>
      </trkpt>
      <trkpt lat="50.30057" lon="3.7899">
        <ele>148.4</ele>
        <time>2020-06-24T11:22:37Z</time>
      </trkpt>
      <trkpt lat="50.30056" lon="3.78995">
        <ele>148.4</ele>
        <time>2020-06-24T11:22:38Z</time>
      </trkpt>
      <trkpt lat="50.30055" lon="3.79002">
        <ele>148.5</ele>
        <time>2020-06-24T11:22:39Z</time>
      </trkpt>
      <trkpt lat="50.30054" lon="3.79007">
        <ele>148.5</ele>
        <time>2020-06-24T11:22:40Z</time>
      </trkpt>
      <trkpt lat="50.30054" lon="3.79013">
        <ele>148.5</ele>
        <time>2020-06-24T11:22:41Z</time>
      </trkpt>
      <trkpt lat="50.30054" lon="3.79021">
        <ele>148.6</ele>
        <time>2020-06-24T11:22:42Z</time>
      </trkpt>
      <trkpt lat="50.30054" lon="3.79028">
        <ele>148.6</ele>
        <time>2020-06-24T11:22:43Z</time>
      </trkpt>
      <trkpt lat="50.30054" lon="3.79035">
        <ele>148.6</ele>
        <time>2020-06-24T11:22:44Z</time>
      </trkpt>
      <trkpt lat="50.30056" lon="3.79042">
        <ele>148.7</ele>
        <time>2020-06-24T11:22:45Z</time>
      </trkpt>
      <trkpt lat="50.30057" lon="3.79048">
        <ele>148.7</ele>
        <time>2020-06-24T11:22:46Z</time>
      </trkpt>
      <trkpt lat="50.30059" lon="3.79055">
        <ele>148.8</ele>
        <time>2020-06-24T11:22:47Z</time>
      </trkpt>
      <trkpt lat="50.3006" lon="3.79058">
        <ele>148.8</ele>
        <time>2020-06-24T11:22:48Z</time>
      </trkpt>
      <trkpt lat="50.30062" lon="3.79065">
        <ele>148.9</ele>
        <time>2020-06-24T11:22:49Z</time>
      </trkpt>
      <trkpt lat="50.30065" lon="3.79071">
        <ele>148.9</ele>
        <time>2020-06-24T11:22:50Z</time>
      </trkpt>
      <trkpt lat="50.30067" lon="3.79076">
        <ele>149</ele>
        <time>2020-06-24T11:22:51Z</time>
      </trkpt>
      <trkpt lat="50.3007" lon="3.79082">
        <ele>149</ele>
        <time>2020-06-24T11:22:52Z</time>
      </trkpt>
      <trkpt lat="50.30072" lon="3.79088">
        <ele>149.1</ele>
        <time>2020-06-24T11:22:53Z</time>
      </trkpt>
      <trkpt lat="50.30075" lon="3.79093">
        <ele>149.1</ele>
        <time>2020-06-24T11:22:54Z</time>
      </trkpt>
      <trkpt lat="50.30077" lon="3.79098">
        <ele>149.2</ele>
        <time>2020-06-24T11:22:55Z</time>
      </trkpt>
      <trkpt lat="50.3008" lon="3.79103">
        <ele>149.3</ele>
        <time>2020-06-24T11:22:56Z</time>
      </trkpt>
      <trkpt lat="50.30083" lon="3.79108">
        <ele>149.3</ele>
        <time>2020-06-24T11:22:57Z</time>
      </trkpt>
      <trkpt lat="50.30085" lon="3.79114">
        <ele>149.4</ele>
        <time>2020-06-24T11:22:58Z</time>
      </trkpt>
      <trkpt lat="50.30088" lon="3.7912">
        <ele>149.5</ele>
        <time>2020-06-24T11:22:59Z</time>
      </trkpt>
      <trkpt lat="50.3009" lon="3.79124">
        <ele>149.6</ele>
        <time>2020-06-24T11:23:00Z</time>
      </trkpt>
      <trkpt lat="50.30093" lon="3.79129">
        <ele>149.6</ele>
        <time>2020-06-24T11:23:01Z</time>
      </trkpt>
      <trkpt lat="50.30095" lon="3.79134">
        <ele>149.7</ele>
        <time>2020-06-24T11:23:02Z</time>
      </trkpt>
      <trkpt lat="50.30096" lon="3.79138">
        <ele>149.8</ele>
        <time>2020-06-24T11:23:03Z</time>
      </trkpt>
      <trkpt lat="50.30098" lon="3.79145">
        <ele>149.9</ele>
        <time>2020-06-24T11:23:04Z</time>
      </trkpt>
      <trkpt lat="50.30098" lon="3.79151">
        <ele>150</ele>
        <time>2020-06-24T11:23:05Z</time>
      </trkpt>
      <trkpt lat="50.30098" lon="3.79159">
        <ele>150.1</ele>
        <time>2020-06-24T11:23:06Z</time>
      </trkpt>
      <trkpt lat="50.30096" lon="3.79165">
        <ele>150.1</ele>
        <time>2020-06-24T11:23:07Z</time>
      </trkpt>
      <trkpt lat="50.30094" lon="3.7917">
        <ele>150</ele>
        <time>2020-06-24T11:23:08Z</time>
      </trkpt>
      <trkpt lat="50.30094" lon="3.79175">
        <ele>150</ele>
        <time>2020-06-24T11:23:09Z</time>
      </trkpt>
      <trkpt lat="50.30094" lon="3.79182">
        <ele>150</ele>
        <time>2020-06-24T11:23:10Z</time>
      </trkpt>
      <trkpt lat="50.30093" lon="3.79187">
        <ele>150</ele>
        <time>2020-06-24T11:23:11Z</time>
      </trkpt>
      <trkpt lat="50.30093" lon="3.79193">
        <ele>149.9</ele>
        <time>2020-06-24T11:23:12Z</time>
      </trkpt>
      <trkpt lat="50.30095" lon="3.79196">
        <ele>149.9</ele>
        <time>2020-06-24T11:23:13Z</time>
      </trkpt>
      <trkpt lat="50.30096" lon="3.79197">
        <ele>149.9</ele>
        <time>2020-06-24T11:23:14Z</time>
      </trkpt>
      <trkpt lat="50.30099" lon="3.79198">
        <ele>149.9</ele>
        <time>2020-06-24T11:23:15Z</time>
      </trkpt>
      <trkpt lat="50.30103" lon="3.792">
        <ele>149.9</ele>
        <time>2020-06-24T11:23:16Z</time>
      </trkpt>
      <trkpt lat="50.30104" lon="3.792">
        <ele>149.9</ele>
        <time>2020-06-24T11:23:17Z</time>
      </trkpt>
      <trkpt lat="50.30108" lon="3.79201">
        <ele>149.8</ele>
        <time>2020-06-24T11:23:18Z</time>
      </trkpt>
      <trkpt lat="50.30109" lon="3.792">
        <ele>149.8</ele>
        <time>2020-06-24T11:23:19Z</time>
      </trkpt>
      <trkpt lat="50.30112" lon="3.79197">
        <ele>149.8</ele>
        <time>2020-06-24T11:23:20Z</time>
      </trkpt>
      <trkpt lat="50.30113" lon="3.79196">
        <ele>149.8</ele>
        <time>2020-06-24T11:23:21Z</time>
      </trkpt>
      <trkpt lat="50.30115" lon="3.79191">
        <ele>149.8</ele>
        <time>2020-06-24T11:23:22Z</time>
      </trkpt>
      <trkpt lat="50.30115" lon="3.7919">
        <ele>149.8</ele>
        <time>2020-06-24T11:23:23Z</time>
      </trkpt>
      <trkpt lat="50.30116" lon="3.79187">
        <ele>149.8</ele>
        <time>2020-06-24T11:23:24Z</time>
      </trkpt>
      <trkpt lat="50.30116" lon="3.79186">
        <ele>149.8</ele>
        <time>2020-06-24T11:23:25Z</time>
      </trkpt>
      <trkpt lat="50.30118" lon="3.79182">
        <ele>149.8</ele>
        <time>2020-06-24T11:23:26Z</time>
      </trkpt>
      <trkpt lat="50.30118" lon="3.7918">
        <ele>149.8</ele>
        <time>2020-06-24T11:23:27Z</time>
      </trkpt>
      <trkpt lat="50.30118" lon="3.79178">
        <ele>149.8</ele>
        <time>2020-06-24T11:23:28Z</time>
      </trkpt>
      <trkpt lat="50.30119" lon="3.79171">
        <ele>149.8</ele>
        <time>2020-06-24T11:23:29Z</time>
      </trkpt>
      <trkpt lat="50.30119" lon="3.79168">
        <ele>149.8</ele>
        <time>2020-06-24T11:23:30Z</time>
      </trkpt>
      <trkpt lat="50.3012" lon="3.79162">
        <ele>149.8</ele>
        <time>2020-06-24T11:23:31Z</time>
      </trkpt>
      <trkpt lat="50.3012" lon="3.79156">
        <ele>149.9</ele>
        <time>2020-06-24T11:23:32Z</time>
      </trkpt>
      <trkpt lat="50.30118" lon="3.79152">
        <ele>150</ele>
        <time>2020-06-24T11:23:33Z</time>
      </trkpt>
      <trkpt lat="50.30116" lon="3.79148">
        <ele>150.1</ele>
        <time>2020-06-24T11:23:34Z</time>
      </trkpt>
      <trkpt lat="50.30116" lon="3.79147">
        <ele>150.1</ele>
        <time>2020-06-24T11:23:35Z</time>
      </trkpt>
      <trkpt lat="50.30112" lon="3.79146">
        <ele>150.2</ele>
        <time>2020-06-24T11:23:36Z</time>
      </trkpt>
      <trkpt lat="50.30108" lon="3.79146">
        <ele>150.3</ele>
        <time>2020-06-24T11:23:37Z</time>
      </trkpt>
      <trkpt lat="50.30103" lon="3.79149">
        <ele>150.5</ele>
        <time>2020-06-24T11:23:38Z</time>
      </trkpt>
      <trkpt lat="50.301" lon="3.79151">
        <ele>150.3</ele>
        <time>2020-06-24T11:23:39Z</time>
      </trkpt>
      <trkpt lat="50.30098" lon="3.79155">
        <ele>150.2</ele>
        <time>2020-06-24T11:23:40Z</time>
      </trkpt>
      <trkpt lat="50.30096" lon="3.7916">
        <ele>150.1</ele>
        <time>2020-06-24T11:23:41Z</time>
      </trkpt>
      <trkpt lat="50.30094" lon="3.79166">
        <ele>150.1</ele>
        <time>2020-06-24T11:23:42Z</time>
      </trkpt>
      <trkpt lat="50.30093" lon="3.79173">
        <ele>150</ele>
        <time>2020-06-24T11:23:43Z</time>
      </trkpt>
      <trkpt lat="50.30091" lon="3.7918">
        <ele>150</ele>
        <time>2020-06-24T11:23:44Z</time>
      </trkpt>
      <trkpt lat="50.30089" lon="3.79184">
        <ele>150</ele>
        <time>2020-06-24T11:23:45Z</time>
      </trkpt>
      <trkpt lat="50.30089" lon="3.79189">
        <ele>149.9</ele>
        <time>2020-06-24T11:23:46Z</time>
      </trkpt>
      <trkpt lat="50.30086" lon="3.79194">
        <ele>149.8</ele>
        <time>2020-06-24T11:23:47Z</time>
      </trkpt>
      <trkpt lat="50.30085" lon="3.79196">
        <ele>149.8</ele>
        <time>2020-06-24T11:23:48Z</time>
      </trkpt>
      <trkpt lat="50.30082" lon="3.79199">
        <ele>149.6</ele>
        <time>2020-06-24T11:23:49Z</time>
      </trkpt>
      <trkpt lat="50.3008" lon="3.79201">
        <ele>149.6</ele>
        <time>2020-06-24T11:23:50Z</time>
      </trkpt>
      <trkpt lat="50.30076" lon="3.79203">
        <ele>149.4</ele>
        <time>2020-06-24T11:23:51Z</time>
      </trkpt>
      <trkpt lat="50.3007" lon="3.79205">
        <ele>149.3</ele>
        <time>2020-06-24T11:23:52Z</time>
      </trkpt>
      <trkpt lat="50.30065" lon="3.79207">
        <ele>149.1</ele>
        <time>2020-06-24T11:23:53Z</time>
      </trkpt>
      <trkpt lat="50.30059" lon="3.7921">
        <ele>148.9</ele>
        <time>2020-06-24T11:23:54Z</time>
      </trkpt>
      <trkpt lat="50.30053" lon="3.79214">
        <ele>148.7</ele>
        <time>2020-06-24T11:23:55Z</time>
      </trkpt>
      <trkpt lat="50.30047" lon="3.79217">
        <ele>148.5</ele>
        <time>2020-06-24T11:23:56Z</time>
      </trkpt>
      <trkpt lat="50.30042" lon="3.79221">
        <ele>148.3</ele>
        <time>2020-06-24T11:23:57Z</time>
      </trkpt>
      <trkpt lat="50.30038" lon="3.79223">
        <ele>148.3</ele>
        <time>2020-06-24T11:23:58Z</time>
      </trkpt>
      <trkpt lat="50.30034" lon="3.79223">
        <ele>148.2</ele>
        <time>2020-06-24T11:23:59Z</time>
      </trkpt>
      <trkpt lat="50.30029" lon="3.79225">
        <ele>148.1</ele>
        <time>2020-06-24T11:24:00Z</time>
      </trkpt>
      <trkpt lat="50.30023" lon="3.79228">
        <ele>147.9</ele>
        <time>2020-06-24T11:24:01Z</time>
      </trkpt>
      <trkpt lat="50.30018" lon="3.79231">
        <ele>147.8</ele>
        <time>2020-06-24T11:24:02Z</time>
      </trkpt>
      <trkpt lat="50.30013" lon="3.79233">
        <ele>147.6</ele>
        <time>2020-06-24T11:24:03Z</time>
      </trkpt>
      <trkpt lat="50.30007" lon="3.79237">
        <ele>147.5</ele>
        <time>2020-06-24T11:24:04Z</time>
      </trkpt>
      <trkpt lat="50.30003" lon="3.7924">
        <ele>147.4</ele>
        <time>2020-06-24T11:24:05Z</time>
      </trkpt>
      <trkpt lat="50.29997" lon="3.79243">
        <ele>147.3</ele>
        <time>2020-06-24T11:24:06Z</time>
      </trkpt>
      <trkpt lat="50.29993" lon="3.79247">
        <ele>147.2</ele>
        <time>2020-06-24T11:24:07Z</time>
      </trkpt>
      <trkpt lat="50.29988" lon="3.79253">
        <ele>147.1</ele>
        <time>2020-06-24T11:24:08Z</time>
      </trkpt>
      <trkpt lat="50.29985" lon="3.79258">
        <ele>147</ele>
        <time>2020-06-24T11:24:09Z</time>
      </trkpt>
      <trkpt lat="50.29982" lon="3.79264">
        <ele>146.9</ele>
        <time>2020-06-24T11:24:10Z</time>
      </trkpt>
      <trkpt lat="50.29977" lon="3.79269">
        <ele>146.9</ele>
        <time>2020-06-24T11:24:11Z</time>
      </trkpt>
      <trkpt lat="50.29973" lon="3.79274">
        <ele>146.9</ele>
        <time>2020-06-24T11:24:12Z</time>
      </trkpt>
      <trkpt lat="50.29969" lon="3.79279">
        <ele>146.9</ele>
        <time>2020-06-24T11:24:13Z</time>
      </trkpt>
      <trkpt lat="50.29966" lon="3.79285">
        <ele>146.9</ele>
        <time>2020-06-24T11:24:14Z</time>
      </trkpt>
      <trkpt lat="50.29961" lon="3.79291">
        <ele>146.9</ele>
        <time>2020-06-24T11:24:15Z</time>
      </trkpt>
      <trkpt lat="50.29958" lon="3.79296">
        <ele>146.9</ele>
        <time>2020-06-24T11:24:16Z</time>
      </trkpt>
      <trkpt lat="50.29955" lon="3.793">
        <ele>146.9</ele>
        <time>2020-06-24T11:24:17Z</time>
      </trkpt>
      <trkpt lat="50.29951" lon="3.79306">
        <ele>147</ele>
        <time>2020-06-24T11:24:18Z</time>
      </trkpt>
      <trkpt lat="50.29948" lon="3.79311">
        <ele>147</ele>
        <time>2020-06-24T11:24:19Z</time>
      </trkpt>
      <trkpt lat="50.29944" lon="3.79315">
        <ele>147.1</ele>
        <time>2020-06-24T11:24:20Z</time>
      </trkpt>
      <trkpt lat="50.29942" lon="3.79319">
        <ele>147.1</ele>
        <time>2020-06-24T11:24:21Z</time>
      </trkpt>
      <trkpt lat="50.29939" lon="3.79325">
        <ele>147</ele>
        <time>2020-06-24T11:24:22Z</time>
      </trkpt>
      <trkpt lat="50.29936" lon="3.79331">
        <ele>147</ele>
        <time>2020-06-24T11:24:23Z</time>
      </trkpt>
      <trkpt lat="50.29933" lon="3.79334">
        <ele>147</ele>
        <time>2020-06-24T11:24:24Z</time>
      </trkpt>
      <trkpt lat="50.29931" lon="3.79338">
        <ele>147.1</ele>
        <time>2020-06-24T11:24:25Z</time>
      </trkpt>
      <trkpt lat="50.29927" lon="3.79341">
        <ele>147.1</ele>
        <time>2020-06-24T11:24:26Z</time>
      </trkpt>
      <trkpt lat="50.29924" lon="3.79344">
        <ele>147.1</ele>
        <time>2020-06-24T11:24:27Z</time>
      </trkpt>
      <trkpt lat="50.29921" lon="3.79347">
        <ele>147.2</ele>
        <time>2020-06-24T11:24:28Z</time>
      </trkpt>
      <trkpt lat="50.29918" lon="3.79348">
        <ele>147.2</ele>
        <time>2020-06-24T11:24:29Z</time>
      </trkpt>
      <trkpt lat="50.29915" lon="3.79347">
        <ele>147.3</ele>
        <time>2020-06-24T11:24:30Z</time>
      </trkpt>
      <trkpt lat="50.29911" lon="3.79348">
        <ele>147.4</ele>
        <time>2020-06-24T11:24:31Z</time>
      </trkpt>
      <trkpt lat="50.29908" lon="3.79349">
        <ele>147.4</ele>
        <time>2020-06-24T11:24:32Z</time>
      </trkpt>
      <trkpt lat="50.29905" lon="3.7935">
        <ele>147.5</ele>
        <time>2020-06-24T11:24:33Z</time>
      </trkpt>
      <trkpt lat="50.299" lon="3.79351">
        <ele>147.7</ele>
        <time>2020-06-24T11:24:34Z</time>
      </trkpt>
      <trkpt lat="50.29899" lon="3.79352">
        <ele>147.8</ele>
        <time>2020-06-24T11:24:35Z</time>
      </trkpt>
      <trkpt lat="50.29896" lon="3.79353">
        <ele>147.9</ele>
        <time>2020-06-24T11:24:36Z</time>
      </trkpt>
      <trkpt lat="50.29895" lon="3.79354">
        <ele>147.9</ele>
        <time>2020-06-24T11:24:37Z</time>
      </trkpt>
      <trkpt lat="50.29893" lon="3.79359">
        <ele>148</ele>
        <time>2020-06-24T11:24:38Z</time>
      </trkpt>
      <trkpt lat="50.29892" lon="3.79365">
        <ele>148.1</ele>
        <time>2020-06-24T11:24:39Z</time>
      </trkpt>
      <trkpt lat="50.2989" lon="3.79369">
        <ele>148.2</ele>
        <time>2020-06-24T11:24:40Z</time>
      </trkpt>
      <trkpt lat="50.29888" lon="3.79374">
        <ele>148.3</ele>
        <time>2020-06-24T11:24:41Z</time>
      </trkpt>
      <trkpt lat="50.29885" lon="3.79379">
        <ele>148.4</ele>
        <time>2020-06-24T11:24:42Z</time>
      </trkpt>
      <trkpt lat="50.29881" lon="3.79383">
        <ele>148.5</ele>
        <time>2020-06-24T11:24:43Z</time>
      </trkpt>
      <trkpt lat="50.29879" lon="3.79387">
        <ele>148.6</ele>
        <time>2020-06-24T11:24:44Z</time>
      </trkpt>
      <trkpt lat="50.29876" lon="3.79391">
        <ele>148.7</ele>
        <time>2020-06-24T11:24:45Z</time>
      </trkpt>
      <trkpt lat="50.29874" lon="3.79395">
        <ele>148.8</ele>
        <time>2020-06-24T11:24:46Z</time>
      </trkpt>
      <trkpt lat="50.29872" lon="3.794">
        <ele>148.9</ele>
        <time>2020-06-24T11:24:47Z</time>
      </trkpt>
      <trkpt lat="50.2987" lon="3.79405">
        <ele>149</ele>
        <time>2020-06-24T11:24:48Z</time>
      </trkpt>
      <trkpt lat="50.29867" lon="3.79409">
        <ele>149.1</ele>
        <time>2020-06-24T11:24:49Z</time>
      </trkpt>
      <trkpt lat="50.29865" lon="3.79413">
        <ele>149.1</ele>
        <time>2020-06-24T11:24:50Z</time>
      </trkpt>
      <trkpt lat="50.29863" lon="3.79416">
        <ele>149.2</ele>
        <time>2020-06-24T11:24:51Z</time>
      </trkpt>
      <trkpt lat="50.29861" lon="3.79419">
        <ele>149.2</ele>
        <time>2020-06-24T11:24:52Z</time>
      </trkpt>
      <trkpt lat="50.2986" lon="3.7942">
        <ele>149.2</ele>
        <time>2020-06-24T11:24:53Z</time>
      </trkpt>
      <trkpt lat="50.29857" lon="3.79423">
        <ele>149.2</ele>
        <time>2020-06-24T11:24:54Z</time>
      </trkpt>
      <trkpt lat="50.29856" lon="3.79424">
        <ele>149.3</ele>
        <time>2020-06-24T11:24:55Z</time>
      </trkpt>
      <trkpt lat="50.29853" lon="3.79426">
        <ele>149.3</ele>
        <time>2020-06-24T11:24:56Z</time>
      </trkpt>
      <trkpt lat="50.29852" lon="3.79427">
        <ele>149.3</ele>
        <time>2020-06-24T11:24:57Z</time>
      </trkpt>
      <trkpt lat="50.29849" lon="3.79429">
        <ele>149.4</ele>
        <time>2020-06-24T11:24:58Z</time>
      </trkpt>
      <trkpt lat="50.29848" lon="3.7943">
        <ele>149.4</ele>
        <time>2020-06-24T11:24:59Z</time>
      </trkpt>
      <trkpt lat="50.29846" lon="3.79432">
        <ele>149.4</ele>
        <time>2020-06-24T11:25:00Z</time>
      </trkpt>
      <trkpt lat="50.29845" lon="3.79433">
        <ele>149.5</ele>
        <time>2020-06-24T11:25:01Z</time>
      </trkpt>
      <trkpt lat="50.29843" lon="3.79434">
        <ele>149.5</ele>
        <time>2020-06-24T11:25:02Z</time>
      </trkpt>
      <trkpt lat="50.29842" lon="3.79434">
        <ele>149.5</ele>
        <time>2020-06-24T11:25:03Z</time>
      </trkpt>
      <trkpt lat="50.29842" lon="3.79435">
        <ele>149.5</ele>
        <time>2020-06-24T11:25:04Z</time>
      </trkpt>
      <trkpt lat="50.29841" lon="3.79437">
        <ele>149.6</ele>
        <time>2020-06-24T11:25:05Z</time>
      </trkpt>
      <trkpt lat="50.29841" lon="3.79438">
        <ele>149.6</ele>
        <time>2020-06-24T11:25:06Z</time>
      </trkpt>
      <trkpt lat="50.29841" lon="3.7944">
        <ele>149.6</ele>
        <time>2020-06-24T11:25:07Z</time>
      </trkpt>
      <trkpt lat="50.29841" lon="3.79441">
        <ele>149.6</ele>
        <time>2020-06-24T11:25:08Z</time>
      </trkpt>
      <trkpt lat="50.29841" lon="3.79443">
        <ele>149.6</ele>
        <time>2020-06-24T11:25:09Z</time>
      </trkpt>
      <trkpt lat="50.29841" lon="3.79446">
        <ele>149.6</ele>
        <time>2020-06-24T11:25:10Z</time>
      </trkpt>
      <trkpt lat="50.2984" lon="3.79451">
        <ele>149.6</ele>
        <time>2020-06-24T11:25:11Z</time>
      </trkpt>
      <trkpt lat="50.2984" lon="3.79452">
        <ele>149.6</ele>
        <time>2020-06-24T11:25:12Z</time>
      </trkpt>
      <trkpt lat="50.29839" lon="3.79456">
        <ele>149.6</ele>
        <time>2020-06-24T11:25:13Z</time>
      </trkpt>
      <trkpt lat="50.29838" lon="3.79457">
        <ele>149.5</ele>
        <time>2020-06-24T11:25:14Z</time>
      </trkpt>
      <trkpt lat="50.29838" lon="3.79459">
        <ele>149.5</ele>
        <time>2020-06-24T11:25:15Z</time>
      </trkpt>
      <trkpt lat="50.29837" lon="3.7946">
        <ele>149.5</ele>
        <time>2020-06-24T11:25:16Z</time>
      </trkpt>
      <trkpt lat="50.29836" lon="3.79463">
        <ele>149.5</ele>
        <time>2020-06-24T11:25:17Z</time>
      </trkpt>
      <trkpt lat="50.29835" lon="3.79466">
        <ele>149.5</ele>
        <time>2020-06-24T11:25:18Z</time>
      </trkpt>
      <trkpt lat="50.29835" lon="3.79467">
        <ele>149.5</ele>
        <time>2020-06-24T11:25:19Z</time>
      </trkpt>
      <trkpt lat="50.29834" lon="3.79469">
        <ele>149.5</ele>
        <time>2020-06-24T11:25:20Z</time>
      </trkpt>
      <trkpt lat="50.29835" lon="3.79471">
        <ele>149.5</ele>
        <time>2020-06-24T11:25:21Z</time>
      </trkpt>
      <trkpt lat="50.29835" lon="3.79472">
        <ele>149.5</ele>
        <time>2020-06-24T11:25:22Z</time>
      </trkpt>
      <trkpt lat="50.29835" lon="3.79472">
        <ele>149.5</ele>
        <time>2020-06-24T11:25:23Z</time>
      </trkpt>
      <trkpt lat="50.29835" lon="3.79471">
        <ele>149.5</ele>
        <time>2020-06-24T11:25:24Z</time>
      </trkpt>
      <trkpt lat="50.29836" lon="3.79472">
        <ele>149.5</ele>
        <time>2020-06-24T11:25:25Z</time>
      </trkpt>
      <trkpt lat="50.29836" lon="3.79472">
        <ele>149.5</ele>
        <time>2020-06-24T11:25:26Z</time>
      </trkpt>
      <trkpt lat="50.29836" lon="3.79471">
        <ele>149.5</ele>
        <time>2020-06-24T11:25:27Z</time>
      </trkpt>
      <trkpt lat="50.29836" lon="3.79471">
        <ele>149.5</ele>
        <time>2020-06-24T11:25:28Z</time>
      </trkpt>
      <trkpt lat="50.29837" lon="3.79472">
        <ele>149.5</ele>
        <time>2020-06-24T11:25:29Z</time>
      </trkpt>
      <trkpt lat="50.29837" lon="3.79472">
        <ele>149.5</ele>
        <time>2020-06-24T11:25:30Z</time>
      </trkpt>
      <trkpt lat="50.29837" lon="3.79472">
        <ele>149.5</ele>
        <time>2020-06-24T11:25:31Z</time>
      </trkpt>
      <trkpt lat="50.29837" lon="3.79472">
        <ele>149.5</ele>
        <time>2020-06-24T11:25:32Z</time>
      </trkpt>
      <trkpt lat="50.29837" lon="3.79472">
        <ele>149.5</ele>
        <time>2020-06-24T11:25:33Z</time>
      </trkpt>
      <trkpt lat="50.29837" lon="3.79472">
        <ele>149.5</ele>
        <time>2020-06-24T11:25:34Z</time>
      </trkpt>
      <trkpt lat="50.29837" lon="3.79472">
        <ele>149.5</ele>
        <time>2020-06-24T11:25:35Z</time>
      </trkpt>
      <trkpt lat="50.29837" lon="3.79472">
        <ele>149.5</ele>
        <time>2020-06-24T11:25:36Z</time>
      </trkpt>
      <trkpt lat="50.29837" lon="3.79472">
        <ele>149.5</ele>
        <time>2020-06-24T11:25:37Z</time>
      </trkpt>
      <trkpt lat="50.29837" lon="3.79472">
        <ele>149.5</ele>
        <time>2020-06-24T11:25:38Z</time>
      </trkpt>
      <trkpt lat="50.29838" lon="3.79473">
        <ele>149.5</ele>
        <time>2020-06-24T11:25:39Z</time>
      </trkpt>
      <trkpt lat="50.29838" lon="3.79473">
        <ele>149.5</ele>
        <time>2020-06-24T11:25:40Z</time>
      </trkpt>
      <trkpt lat="50.29838" lon="3.79473">
        <ele>149.5</ele>
        <time>2020-06-24T11:25:41Z</time>
      </trkpt>
      <trkpt lat="50.29839" lon="3.79474">
        <ele>149.5</ele>
        <time>2020-06-24T11:25:42Z</time>
      </trkpt>
      <trkpt lat="50.2984" lon="3.79475">
        <ele>149.5</ele>
        <time>2020-06-24T11:25:43Z</time>
      </trkpt>
      <trkpt lat="50.29841" lon="3.79476">
        <ele>149.5</ele>
        <time>2020-06-24T11:25:44Z</time>
      </trkpt>
      <trkpt lat="50.29841" lon="3.79476">
        <ele>149.5</ele>
        <time>2020-06-24T11:25:45Z</time>
      </trkpt>
      <trkpt lat="50.29841" lon="3.79476">
        <ele>149.5</ele>
        <time>2020-06-24T11:25:46Z</time>
      </trkpt>
      <trkpt lat="50.29841" lon="3.79476">
        <ele>149.5</ele>
        <time>2020-06-24T11:25:47Z</time>
      </trkpt>
      <trkpt lat="50.2984" lon="3.79474">
        <ele>149.5</ele>
        <time>2020-06-24T11:25:48Z</time>
      </trkpt>
      <trkpt lat="50.29841" lon="3.79474">
        <ele>149.5</ele>
        <time>2020-06-24T11:25:49Z</time>
      </trkpt>
      <trkpt lat="50.2984" lon="3.79472">
        <ele>149.5</ele>
        <time>2020-06-24T11:25:50Z</time>
      </trkpt>
      <trkpt lat="50.29841" lon="3.79472">
        <ele>149.5</ele>
        <time>2020-06-24T11:25:51Z</time>
      </trkpt>
      <trkpt lat="50.29841" lon="3.79472">
        <ele>149.5</ele>
        <time>2020-06-24T11:25:52Z</time>
      </trkpt>
      <trkpt lat="50.29841" lon="3.79472">
        <ele>149.5</ele>
        <time>2020-06-24T11:25:53Z</time>
      </trkpt>
      <trkpt lat="50.29841" lon="3.79471">
        <ele>149.5</ele>
        <time>2020-06-24T11:25:54Z</time>
      </trkpt>
      <trkpt lat="50.29841" lon="3.79471">
        <ele>149.5</ele>
        <time>2020-06-24T11:25:55Z</time>
      </trkpt>
      <trkpt lat="50.29841" lon="3.79471">
        <ele>149.5</ele>
        <time>2020-06-24T11:25:56Z</time>
      </trkpt>
      <trkpt lat="50.29841" lon="3.79472">
        <ele>149.5</ele>
        <time>2020-06-24T11:25:57Z</time>
      </trkpt>
      <trkpt lat="50.2984" lon="3.79472">
        <ele>149.5</ele>
        <time>2020-06-24T11:25:58Z</time>
      </trkpt>
      <trkpt lat="50.2984" lon="3.79471">
        <ele>149.5</ele>
        <time>2020-06-24T11:25:59Z</time>
      </trkpt>
      <trkpt lat="50.2984" lon="3.7947">
        <ele>149.5</ele>
        <time>2020-06-24T11:26:00Z</time>
      </trkpt>
      <trkpt lat="50.2984" lon="3.79469">
        <ele>149.5</ele>
        <time>2020-06-24T11:26:01Z</time>
      </trkpt>
      <trkpt lat="50.2984" lon="3.79468">
        <ele>149.5</ele>
        <time>2020-06-24T11:26:02Z</time>
      </trkpt>
      <trkpt lat="50.29839" lon="3.79468">
        <ele>149.5</ele>
        <time>2020-06-24T11:26:03Z</time>
      </trkpt>
      <trkpt lat="50.29844" lon="3.79474">
        <ele>149.5</ele>
        <time>2020-06-24T12:36:12Z</time>
      </trkpt>
      <trkpt lat="50.29844" lon="3.79474">
        <ele>149.5</ele>
        <time>2020-06-24T12:36:13Z</time>
      </trkpt>
      <trkpt lat="50.29844" lon="3.79475">
        <ele>149.5</ele>
        <time>2020-06-24T12:36:14Z</time>
      </trkpt>
      <trkpt lat="50.29844" lon="3.79475">
        <ele>149.5</ele>
        <time>2020-06-24T12:36:15Z</time>
      </trkpt>
      <trkpt lat="50.29844" lon="3.79475">
        <ele>149.5</ele>
        <time>2020-06-24T12:36:16Z</time>
      </trkpt>
      <trkpt lat="50.29844" lon="3.79474">
        <ele>149.5</ele>
        <time>2020-06-24T12:36:17Z</time>
      </trkpt>
      <trkpt lat="50.29843" lon="3.79474">
        <ele>149.5</ele>
        <time>2020-06-24T12:36:18Z</time>
      </trkpt>
      <trkpt lat="50.29843" lon="3.79475">
        <ele>149.5</ele>
        <time>2020-06-24T12:36:19Z</time>
      </trkpt>
      <trkpt lat="50.29843" lon="3.79476">
        <ele>149.5</ele>
        <time>2020-06-24T12:36:20Z</time>
      </trkpt>
      <trkpt lat="50.29843" lon="3.79477">
        <ele>149.5</ele>
        <time>2020-06-24T12:36:21Z</time>
      </trkpt>
      <trkpt lat="50.29843" lon="3.79477">
        <ele>149.5</ele>
        <time>2020-06-24T12:36:22Z</time>
      </trkpt>
      <trkpt lat="50.29842" lon="3.79478">
        <ele>149.5</ele>
        <time>2020-06-24T12:36:23Z</time>
      </trkpt>
      <trkpt lat="50.29842" lon="3.79478">
        <ele>149.5</ele>
        <time>2020-06-24T12:36:24Z</time>
      </trkpt>
      <trkpt lat="50.29841" lon="3.7948">
        <ele>149.5</ele>
        <time>2020-06-24T12:36:25Z</time>
      </trkpt>
      <trkpt lat="50.29841" lon="3.79479">
        <ele>149.5</ele>
        <time>2020-06-24T12:36:26Z</time>
      </trkpt>
      <trkpt lat="50.29842" lon="3.79479">
        <ele>149.5</ele>
        <time>2020-06-24T12:36:27Z</time>
      </trkpt>
      <trkpt lat="50.29842" lon="3.79478">
        <ele>149.5</ele>
        <time>2020-06-24T12:36:28Z</time>
      </trkpt>
      <trkpt lat="50.29843" lon="3.79479">
        <ele>149.5</ele>
        <time>2020-06-24T12:36:29Z</time>
      </trkpt>
      <trkpt lat="50.29843" lon="3.79479">
        <ele>149.5</ele>
        <time>2020-06-24T12:36:30Z</time>
      </trkpt>
      <trkpt lat="50.29842" lon="3.7948">
        <ele>149.5</ele>
        <time>2020-06-24T12:36:31Z</time>
      </trkpt>
      <trkpt lat="50.29842" lon="3.79481">
        <ele>149.5</ele>
        <time>2020-06-24T12:36:32Z</time>
      </trkpt>
      <trkpt lat="50.29843" lon="3.79481">
        <ele>149.5</ele>
        <time>2020-06-24T12:36:33Z</time>
      </trkpt>
      <trkpt lat="50.29843" lon="3.79481">
        <ele>149.5</ele>
        <time>2020-06-24T12:36:34Z</time>
      </trkpt>
      <trkpt lat="50.29843" lon="3.79481">
        <ele>149.5</ele>
        <time>2020-06-24T12:36:35Z</time>
      </trkpt>
      <trkpt lat="50.29843" lon="3.7948">
        <ele>149.5</ele>
        <time>2020-06-24T12:36:36Z</time>
      </trkpt>
      <trkpt lat="50.29843" lon="3.79481">
        <ele>149.5</ele>
        <time>2020-06-24T12:36:37Z</time>
      </trkpt>
      <trkpt lat="50.29843" lon="3.79479">
        <ele>149.5</ele>
        <time>2020-06-24T12:36:38Z</time>
      </trkpt>
      <trkpt lat="50.29843" lon="3.79479">
        <ele>149.5</ele>
        <time>2020-06-24T12:36:39Z</time>
      </trkpt>
      <trkpt lat="50.29844" lon="3.79478">
        <ele>149.5</ele>
        <time>2020-06-24T12:36:40Z</time>
      </trkpt>
      <trkpt lat="50.29844" lon="3.79478">
        <ele>149.5</ele>
        <time>2020-06-24T12:36:41Z</time>
      </trkpt>
      <trkpt lat="50.29843" lon="3.79478">
        <ele>149.5</ele>
        <time>2020-06-24T12:36:42Z</time>
      </trkpt>
      <trkpt lat="50.29843" lon="3.79479">
        <ele>149.5</ele>
        <time>2020-06-24T12:36:43Z</time>
      </trkpt>
      <trkpt lat="50.29843" lon="3.79479">
        <ele>149.5</ele>
        <time>2020-06-24T12:36:44Z</time>
      </trkpt>
      <trkpt lat="50.29839" lon="3.79486">
        <ele>149.5</ele>
        <time>2020-06-24T12:36:53Z</time>
      </trkpt>
      <trkpt lat="50.29838" lon="3.79487">
        <ele>149.5</ele>
        <time>2020-06-24T12:36:54Z</time>
      </trkpt>
      <trkpt lat="50.29837" lon="3.79489">
        <ele>149.5</ele>
        <time>2020-06-24T12:36:55Z</time>
      </trkpt>
      <trkpt lat="50.29837" lon="3.7949">
        <ele>149.5</ele>
        <time>2020-06-24T12:36:56Z</time>
      </trkpt>
      <trkpt lat="50.29836" lon="3.79491">
        <ele>149.5</ele>
        <time>2020-06-24T12:36:57Z</time>
      </trkpt>
      <trkpt lat="50.29836" lon="3.79492">
        <ele>149.5</ele>
        <time>2020-06-24T12:36:58Z</time>
      </trkpt>
      <trkpt lat="50.29835" lon="3.79493">
        <ele>149.5</ele>
        <time>2020-06-24T12:36:59Z</time>
      </trkpt>
      <trkpt lat="50.29834" lon="3.79493">
        <ele>149.5</ele>
        <time>2020-06-24T12:37:00Z</time>
      </trkpt>
      <trkpt lat="50.29832" lon="3.79493">
        <ele>149.5</ele>
        <time>2020-06-24T12:37:01Z</time>
      </trkpt>
      <trkpt lat="50.29831" lon="3.79493">
        <ele>149.5</ele>
        <time>2020-06-24T12:37:02Z</time>
      </trkpt>
      <trkpt lat="50.29831" lon="3.79493">
        <ele>149.5</ele>
        <time>2020-06-24T12:37:03Z</time>
      </trkpt>
      <trkpt lat="50.29831" lon="3.79493">
        <ele>149.5</ele>
        <time>2020-06-24T12:37:04Z</time>
      </trkpt>
      <trkpt lat="50.2983" lon="3.79493">
        <ele>149.5</ele>
        <time>2020-06-24T12:37:05Z</time>
      </trkpt>
      <trkpt lat="50.29828" lon="3.79492">
        <ele>149.5</ele>
        <time>2020-06-24T12:37:06Z</time>
      </trkpt>
      <trkpt lat="50.29827" lon="3.79492">
        <ele>149.5</ele>
        <time>2020-06-24T12:37:07Z</time>
      </trkpt>
      <trkpt lat="50.29826" lon="3.79493">
        <ele>149.5</ele>
        <time>2020-06-24T12:37:08Z</time>
      </trkpt>
      <trkpt lat="50.29825" lon="3.79493">
        <ele>149.5</ele>
        <time>2020-06-24T12:37:09Z</time>
      </trkpt>
      <trkpt lat="50.29825" lon="3.79494">
        <ele>149.5</ele>
        <time>2020-06-24T12:37:10Z</time>
      </trkpt>
      <trkpt lat="50.29824" lon="3.79494">
        <ele>149.5</ele>
        <time>2020-06-24T12:37:11Z</time>
      </trkpt>
      <trkpt lat="50.29823" lon="3.79495">
        <ele>149.5</ele>
        <time>2020-06-24T12:37:12Z</time>
      </trkpt>
      <trkpt lat="50.29823" lon="3.79496">
        <ele>149.5</ele>
        <time>2020-06-24T12:37:13Z</time>
      </trkpt>
      <trkpt lat="50.29823" lon="3.79496">
        <ele>149.5</ele>
        <time>2020-06-24T12:37:14Z</time>
      </trkpt>
      <trkpt lat="50.29824" lon="3.79496">
        <ele>149.5</ele>
        <time>2020-06-24T12:37:15Z</time>
      </trkpt>
      <trkpt lat="50.29824" lon="3.79496">
        <ele>149.5</ele>
        <time>2020-06-24T12:37:16Z</time>
      </trkpt>
      <trkpt lat="50.29824" lon="3.79496">
        <ele>149.5</ele>
        <time>2020-06-24T12:37:17Z</time>
      </trkpt>
      <trkpt lat="50.29824" lon="3.79496">
        <ele>149.5</ele>
        <time>2020-06-24T12:37:18Z</time>
      </trkpt>
      <trkpt lat="50.29824" lon="3.79496">
        <ele>149.5</ele>
        <time>2020-06-24T12:37:19Z</time>
      </trkpt>
      <trkpt lat="50.29824" lon="3.79496">
        <ele>149.5</ele>
        <time>2020-06-24T12:37:20Z</time>
      </trkpt>
      <trkpt lat="50.29827" lon="3.79496">
        <ele>149.5</ele>
        <time>2020-06-24T12:37:21Z</time>
      </trkpt>
      <trkpt lat="50.29829" lon="3.79497">
        <ele>149.5</ele>
        <time>2020-06-24T12:37:22Z</time>
      </trkpt>
      <trkpt lat="50.29829" lon="3.79497">
        <ele>149.5</ele>
        <time>2020-06-24T12:37:23Z</time>
      </trkpt>
      <trkpt lat="50.29829" lon="3.79497">
        <ele>149.5</ele>
        <time>2020-06-24T12:37:24Z</time>
      </trkpt>
      <trkpt lat="50.29829" lon="3.79497">
        <ele>149.5</ele>
        <time>2020-06-24T12:37:25Z</time>
      </trkpt>
      <trkpt lat="50.29811" lon="3.79505">
        <ele>149.6</ele>
        <time>2020-06-24T12:38:28Z</time>
      </trkpt>
      <trkpt lat="50.2981" lon="3.79505">
        <ele>149.6</ele>
        <time>2020-06-24T12:38:29Z</time>
      </trkpt>
      <trkpt lat="50.29809" lon="3.79507">
        <ele>149.6</ele>
        <time>2020-06-24T12:38:30Z</time>
      </trkpt>
      <trkpt lat="50.29808" lon="3.79508">
        <ele>149.6</ele>
        <time>2020-06-24T12:38:31Z</time>
      </trkpt>
      <trkpt lat="50.29807" lon="3.79509">
        <ele>149.6</ele>
        <time>2020-06-24T12:38:32Z</time>
      </trkpt>
      <trkpt lat="50.29807" lon="3.79511">
        <ele>149.6</ele>
        <time>2020-06-24T12:38:33Z</time>
      </trkpt>
      <trkpt lat="50.29807" lon="3.79509">
        <ele>149.6</ele>
        <time>2020-06-24T12:38:34Z</time>
      </trkpt>
      <trkpt lat="50.29807" lon="3.79508">
        <ele>149.6</ele>
        <time>2020-06-24T12:38:35Z</time>
      </trkpt>
      <trkpt lat="50.29808" lon="3.79506">
        <ele>149.6</ele>
        <time>2020-06-24T12:38:36Z</time>
      </trkpt>
      <trkpt lat="50.29809" lon="3.79505">
        <ele>149.6</ele>
        <time>2020-06-24T12:38:37Z</time>
      </trkpt>
      <trkpt lat="50.29809" lon="3.79503">
        <ele>149.6</ele>
        <time>2020-06-24T12:38:38Z</time>
      </trkpt>
      <trkpt lat="50.29813" lon="3.79499">
        <ele>149.6</ele>
        <time>2020-06-24T12:38:39Z</time>
      </trkpt>
      <trkpt lat="50.29814" lon="3.79498">
        <ele>149.6</ele>
        <time>2020-06-24T12:38:40Z</time>
      </trkpt>
      <trkpt lat="50.29815" lon="3.79496">
        <ele>149.6</ele>
        <time>2020-06-24T12:38:41Z</time>
      </trkpt>
      <trkpt lat="50.29816" lon="3.79495">
        <ele>149.6</ele>
        <time>2020-06-24T12:38:42Z</time>
      </trkpt>
      <trkpt lat="50.29816" lon="3.79495">
        <ele>149.6</ele>
        <time>2020-06-24T12:38:43Z</time>
      </trkpt>
      <trkpt lat="50.29816" lon="3.79495">
        <ele>149.6</ele>
        <time>2020-06-24T12:38:44Z</time>
      </trkpt>
      <trkpt lat="50.29817" lon="3.79495">
        <ele>149.6</ele>
        <time>2020-06-24T12:38:45Z</time>
      </trkpt>
      <trkpt lat="50.29817" lon="3.79494">
        <ele>149.6</ele>
        <time>2020-06-24T12:38:46Z</time>
      </trkpt>
      <trkpt lat="50.29817" lon="3.79494">
        <ele>149.6</ele>
        <time>2020-06-24T12:38:47Z</time>
      </trkpt>
      <trkpt lat="50.29818" lon="3.79494">
        <ele>149.6</ele>
        <time>2020-06-24T12:38:48Z</time>
      </trkpt>
      <trkpt lat="50.29818" lon="3.79494">
        <ele>149.6</ele>
        <time>2020-06-24T12:38:49Z</time>
      </trkpt>
      <trkpt lat="50.29818" lon="3.79495">
        <ele>149.6</ele>
        <time>2020-06-24T12:38:50Z</time>
      </trkpt>
      <trkpt lat="50.29819" lon="3.79494">
        <ele>149.6</ele>
        <time>2020-06-24T12:38:51Z</time>
      </trkpt>
      <trkpt lat="50.2982" lon="3.79493">
        <ele>149.6</ele>
        <time>2020-06-24T12:38:52Z</time>
      </trkpt>
      <trkpt lat="50.2982" lon="3.79492">
        <ele>149.6</ele>
        <time>2020-06-24T12:38:53Z</time>
      </trkpt>
      <trkpt lat="50.29821" lon="3.79491">
        <ele>149.5</ele>
        <time>2020-06-24T12:38:54Z</time>
      </trkpt>
      <trkpt lat="50.29822" lon="3.7949">
        <ele>149.5</ele>
        <time>2020-06-24T12:38:55Z</time>
      </trkpt>
      <trkpt lat="50.29823" lon="3.79489">
        <ele>149.5</ele>
        <time>2020-06-24T12:38:56Z</time>
      </trkpt>
      <trkpt lat="50.29824" lon="3.79487">
        <ele>149.5</ele>
        <time>2020-06-24T12:38:57Z</time>
      </trkpt>
      <trkpt lat="50.29825" lon="3.79486">
        <ele>149.5</ele>
        <time>2020-06-24T12:38:58Z</time>
      </trkpt>
      <trkpt lat="50.29826" lon="3.79485">
        <ele>149.5</ele>
        <time>2020-06-24T12:40:40Z</time>
      </trkpt>
      <trkpt lat="50.29827" lon="3.79484">
        <ele>149.5</ele>
        <time>2020-06-24T12:40:41Z</time>
      </trkpt>
      <trkpt lat="50.29828" lon="3.79482">
        <ele>149.5</ele>
        <time>2020-06-24T12:40:42Z</time>
      </trkpt>
      <trkpt lat="50.29829" lon="3.79481">
        <ele>149.5</ele>
        <time>2020-06-24T12:40:43Z</time>
      </trkpt>
      <trkpt lat="50.2983" lon="3.7948">
        <ele>149.5</ele>
        <time>2020-06-24T12:40:44Z</time>
      </trkpt>
      <trkpt lat="50.29831" lon="3.79479">
        <ele>149.5</ele>
        <time>2020-06-24T12:40:45Z</time>
      </trkpt>
      <trkpt lat="50.29832" lon="3.79478">
        <ele>149.5</ele>
        <time>2020-06-24T12:40:46Z</time>
      </trkpt>
      <trkpt lat="50.29833" lon="3.79476">
        <ele>149.5</ele>
        <time>2020-06-24T12:40:47Z</time>
      </trkpt>
      <trkpt lat="50.29834" lon="3.79475">
        <ele>149.5</ele>
        <time>2020-06-24T12:40:48Z</time>
      </trkpt>
      <trkpt lat="50.29835" lon="3.79474">
        <ele>149.5</ele>
        <time>2020-06-24T12:40:49Z</time>
      </trkpt>
      <trkpt lat="50.29836" lon="3.79473">
        <ele>149.5</ele>
        <time>2020-06-24T12:40:50Z</time>
      </trkpt>
      <trkpt lat="50.29837" lon="3.79472">
        <ele>149.5</ele>
        <time>2020-06-24T12:40:51Z</time>
      </trkpt>
      <trkpt lat="50.29838" lon="3.7947">
        <ele>149.5</ele>
        <time>2020-06-24T12:44:14Z</time>
      </trkpt>
      <trkpt lat="50.29839" lon="3.79469">
        <ele>149.5</ele>
        <time>2020-06-24T12:44:15Z</time>
      </trkpt>
      <trkpt lat="50.29838" lon="3.79467">
        <ele>149.5</ele>
        <time>2020-06-24T12:44:16Z</time>
      </trkpt>
      <trkpt lat="50.29838" lon="3.79465">
        <ele>149.5</ele>
        <time>2020-06-24T12:44:17Z</time>
      </trkpt>
      <trkpt lat="50.29838" lon="3.79464">
        <ele>149.5</ele>
        <time>2020-06-24T12:44:18Z</time>
      </trkpt>
      <trkpt lat="50.29838" lon="3.79464">
        <ele>149.5</ele>
        <time>2020-06-24T12:44:19Z</time>
      </trkpt>
      <trkpt lat="50.29838" lon="3.79463">
        <ele>149.5</ele>
        <time>2020-06-24T12:44:20Z</time>
      </trkpt>
      <trkpt lat="50.29838" lon="3.79463">
        <ele>149.5</ele>
        <time>2020-06-24T12:44:21Z</time>
      </trkpt>
      <trkpt lat="50.29838" lon="3.79463">
        <ele>149.5</ele>
        <time>2020-06-24T12:44:22Z</time>
      </trkpt>
      <trkpt lat="50.29838" lon="3.79463">
        <ele>149.5</ele>
        <time>2020-06-24T12:44:23Z</time>
      </trkpt>
      <trkpt lat="50.29838" lon="3.79463">
        <ele>149.5</ele>
        <time>2020-06-24T12:44:24Z</time>
      </trkpt>
      <trkpt lat="50.29838" lon="3.79463">
        <ele>149.5</ele>
        <time>2020-06-24T12:44:25Z</time>
      </trkpt>
      <trkpt lat="50.29838" lon="3.79463">
        <ele>149.5</ele>
        <time>2020-06-24T12:44:26Z</time>
      </trkpt>
      <trkpt lat="50.29838" lon="3.79463">
        <ele>149.5</ele>
        <time>2020-06-24T12:44:27Z</time>
      </trkpt>
      <trkpt lat="50.29838" lon="3.79463">
        <ele>149.5</ele>
        <time>2020-06-24T12:44:28Z</time>
      </trkpt>
      <trkpt lat="50.29838" lon="3.79463">
        <ele>149.5</ele>
        <time>2020-06-24T12:44:29Z</time>
      </trkpt>
      <trkpt lat="50.29838" lon="3.79463">
        <ele>149.5</ele>
        <time>2020-06-24T12:44:30Z</time>
      </trkpt>
      <trkpt lat="50.29838" lon="3.79463">
        <ele>149.5</ele>
        <time>2020-06-24T12:44:31Z</time>
      </trkpt>
      <trkpt lat="50.29838" lon="3.79463">
        <ele>149.5</ele>
        <time>2020-06-24T12:44:32Z</time>
      </trkpt>
      <trkpt lat="50.29836" lon="3.79474">
        <ele>149.5</ele>
        <time>2020-06-24T12:45:00Z</time>
      </trkpt>
      <trkpt lat="50.29836" lon="3.79474">
        <ele>149.5</ele>
        <time>2020-06-24T12:45:01Z</time>
      </trkpt>
      <trkpt lat="50.29836" lon="3.79475">
        <ele>149.5</ele>
        <time>2020-06-24T12:45:02Z</time>
      </trkpt>
      <trkpt lat="50.29836" lon="3.79475">
        <ele>149.5</ele>
        <time>2020-06-24T12:45:03Z</time>
      </trkpt>
      <trkpt lat="50.29836" lon="3.79477">
        <ele>149.5</ele>
        <time>2020-06-24T12:45:04Z</time>
      </trkpt>
      <trkpt lat="50.29836" lon="3.79478">
        <ele>149.5</ele>
        <time>2020-06-24T12:45:05Z</time>
      </trkpt>
      <trkpt lat="50.29836" lon="3.79477">
        <ele>149.5</ele>
        <time>2020-06-24T12:45:06Z</time>
      </trkpt>
      <trkpt lat="50.29835" lon="3.79477">
        <ele>149.5</ele>
        <time>2020-06-24T12:45:07Z</time>
      </trkpt>
      <trkpt lat="50.29835" lon="3.79477">
        <ele>149.5</ele>
        <time>2020-06-24T12:45:08Z</time>
      </trkpt>
      <trkpt lat="50.29835" lon="3.79477">
        <ele>149.5</ele>
        <time>2020-06-24T12:45:09Z</time>
      </trkpt>
      <trkpt lat="50.29835" lon="3.79477">
        <ele>149.5</ele>
        <time>2020-06-24T12:45:10Z</time>
      </trkpt>
      <trkpt lat="50.29835" lon="3.79477">
        <ele>149.5</ele>
        <time>2020-06-24T12:46:17Z</time>
      </trkpt>
      <trkpt lat="50.29835" lon="3.79477">
        <ele>149.5</ele>
        <time>2020-06-24T12:46:18Z</time>
      </trkpt>
      <trkpt lat="50.29835" lon="3.79476">
        <ele>149.5</ele>
        <time>2020-06-24T12:46:19Z</time>
      </trkpt>
      <trkpt lat="50.29834" lon="3.79476">
        <ele>149.5</ele>
        <time>2020-06-24T12:46:20Z</time>
      </trkpt>
      <trkpt lat="50.29834" lon="3.79476">
        <ele>149.5</ele>
        <time>2020-06-24T12:46:21Z</time>
      </trkpt>
      <trkpt lat="50.29834" lon="3.79476">
        <ele>149.5</ele>
        <time>2020-06-24T12:46:22Z</time>
      </trkpt>
      <trkpt lat="50.29834" lon="3.79476">
        <ele>149.5</ele>
        <time>2020-06-24T12:46:23Z</time>
      </trkpt>
      <trkpt lat="50.29834" lon="3.79476">
        <ele>149.5</ele>
        <time>2020-06-24T12:46:24Z</time>
      </trkpt>
      <trkpt lat="50.29834" lon="3.79476">
        <ele>149.5</ele>
        <time>2020-06-24T12:46:25Z</time>
      </trkpt>
      <trkpt lat="50.29834" lon="3.79475">
        <ele>149.5</ele>
        <time>2020-06-24T12:46:26Z</time>
      </trkpt>
      <trkpt lat="50.29833" lon="3.79475">
        <ele>149.5</ele>
        <time>2020-06-24T12:46:27Z</time>
      </trkpt>
      <trkpt lat="50.29833" lon="3.79475">
        <ele>149.5</ele>
        <time>2020-06-24T12:46:28Z</time>
      </trkpt>
      <trkpt lat="50.29833" lon="3.79475">
        <ele>149.5</ele>
        <time>2020-06-24T12:46:29Z</time>
      </trkpt>
      <trkpt lat="50.29833" lon="3.79475">
        <ele>149.5</ele>
        <time>2020-06-24T12:47:10Z</time>
      </trkpt>
      <trkpt lat="50.29833" lon="3.79475">
        <ele>149.5</ele>
        <time>2020-06-24T12:47:11Z</time>
      </trkpt>
      <trkpt lat="50.29833" lon="3.79475">
        <ele>149.5</ele>
        <time>2020-06-24T12:47:12Z</time>
      </trkpt>
      <trkpt lat="50.29832" lon="3.79472">
        <ele>149.5</ele>
        <time>2020-06-24T12:47:13Z</time>
      </trkpt>
      <trkpt lat="50.29832" lon="3.79469">
        <ele>149.5</ele>
        <time>2020-06-24T12:47:14Z</time>
      </trkpt>
      <trkpt lat="50.29834" lon="3.79464">
        <ele>149.5</ele>
        <time>2020-06-24T12:47:15Z</time>
      </trkpt>
      <trkpt lat="50.29835" lon="3.79463">
        <ele>149.5</ele>
        <time>2020-06-24T12:47:16Z</time>
      </trkpt>
      <trkpt lat="50.29834" lon="3.79464">
        <ele>149.5</ele>
        <time>2020-06-24T12:47:17Z</time>
      </trkpt>
      <trkpt lat="50.29834" lon="3.79464">
        <ele>149.5</ele>
        <time>2020-06-24T12:47:18Z</time>
      </trkpt>
      <trkpt lat="50.29835" lon="3.79465">
        <ele>149.5</ele>
        <time>2020-06-24T12:47:19Z</time>
      </trkpt>
      <trkpt lat="50.29835" lon="3.79465">
        <ele>149.5</ele>
        <time>2020-06-24T12:47:20Z</time>
      </trkpt>
      <trkpt lat="50.29835" lon="3.79465">
        <ele>149.5</ele>
        <time>2020-06-24T12:47:21Z</time>
      </trkpt>
      <trkpt lat="50.29835" lon="3.79465">
        <ele>149.5</ele>
        <time>2020-06-24T12:47:22Z</time>
      </trkpt>
      <trkpt lat="50.29835" lon="3.79465">
        <ele>149.5</ele>
        <time>2020-06-24T12:47:23Z</time>
      </trkpt>
      <trkpt lat="50.29835" lon="3.79466">
        <ele>149.5</ele>
        <time>2020-06-24T12:47:24Z</time>
      </trkpt>
      <trkpt lat="50.29835" lon="3.79466">
        <ele>149.5</ele>
        <time>2020-06-24T12:47:25Z</time>
      </trkpt>
      <trkpt lat="50.29835" lon="3.79466">
        <ele>149.5</ele>
        <time>2020-06-24T12:47:26Z</time>
      </trkpt>
      <trkpt lat="50.29835" lon="3.79466">
        <ele>149.5</ele>
        <time>2020-06-24T12:47:27Z</time>
      </trkpt>
      <trkpt lat="50.29835" lon="3.79466">
        <ele>149.5</ele>
        <time>2020-06-24T12:47:28Z</time>
      </trkpt>
      <trkpt lat="50.29835" lon="3.79466">
        <ele>149.5</ele>
        <time>2020-06-24T12:47:29Z</time>
      </trkpt>
      <trkpt lat="50.29835" lon="3.79466">
        <ele>149.5</ele>
        <time>2020-06-24T12:47:30Z</time>
      </trkpt>
      <trkpt lat="50.29835" lon="3.79466">
        <ele>149.5</ele>
        <time>2020-06-24T12:47:31Z</time>
      </trkpt>
      <trkpt lat="50.29844" lon="3.79475">
        <ele>149.6</ele>
        <time>2020-06-24T13:13:44Z</time>
      </trkpt>
      <trkpt lat="50.29844" lon="3.79472">
        <ele>149.6</ele>
        <time>2020-06-24T13:13:45Z</time>
      </trkpt>
      <trkpt lat="50.29845" lon="3.79471">
        <ele>149.6</ele>
        <time>2020-06-24T13:13:46Z</time>
      </trkpt>
      <trkpt lat="50.29844" lon="3.79472">
        <ele>149.6</ele>
        <time>2020-06-24T13:13:47Z</time>
      </trkpt>
      <trkpt lat="50.29843" lon="3.79471">
        <ele>149.6</ele>
        <time>2020-06-24T13:13:48Z</time>
      </trkpt>
      <trkpt lat="50.29842" lon="3.79471">
        <ele>149.6</ele>
        <time>2020-06-24T13:13:49Z</time>
      </trkpt>
      <trkpt lat="50.29841" lon="3.7947">
        <ele>149.5</ele>
        <time>2020-06-24T13:13:50Z</time>
      </trkpt>
      <trkpt lat="50.29839" lon="3.79468">
        <ele>149.5</ele>
        <time>2020-06-24T13:13:51Z</time>
      </trkpt>
      <trkpt lat="50.29838" lon="3.79467">
        <ele>149.5</ele>
        <time>2020-06-24T13:13:52Z</time>
      </trkpt>
      <trkpt lat="50.29837" lon="3.79467">
        <ele>149.5</ele>
        <time>2020-06-24T13:13:53Z</time>
      </trkpt>
      <trkpt lat="50.29836" lon="3.79467">
        <ele>149.5</ele>
        <time>2020-06-24T13:13:54Z</time>
      </trkpt>
      <trkpt lat="50.29836" lon="3.79465">
        <ele>149.5</ele>
        <time>2020-06-24T13:13:55Z</time>
      </trkpt>
      <trkpt lat="50.29835" lon="3.79464">
        <ele>149.5</ele>
        <time>2020-06-24T13:13:56Z</time>
      </trkpt>
      <trkpt lat="50.29835" lon="3.79463">
        <ele>149.5</ele>
        <time>2020-06-24T13:13:57Z</time>
      </trkpt>
      <trkpt lat="50.29835" lon="3.79463">
        <ele>149.5</ele>
        <time>2020-06-24T13:13:58Z</time>
      </trkpt>
      <trkpt lat="50.29835" lon="3.79463">
        <ele>149.5</ele>
        <time>2020-06-24T13:13:59Z</time>
      </trkpt>
      <trkpt lat="50.29835" lon="3.79463">
        <ele>149.5</ele>
        <time>2020-06-24T13:14:00Z</time>
      </trkpt>
      <trkpt lat="50.29835" lon="3.79463">
        <ele>149.5</ele>
        <time>2020-06-24T13:14:01Z</time>
      </trkpt>
      <trkpt lat="50.29835" lon="3.79463">
        <ele>149.5</ele>
        <time>2020-06-24T13:14:02Z</time>
      </trkpt>
      <trkpt lat="50.29835" lon="3.79462">
        <ele>149.5</ele>
        <time>2020-06-24T13:14:03Z</time>
      </trkpt>
      <trkpt lat="50.29847" lon="3.79484">
        <ele>149.6</ele>
        <time>2020-06-24T13:20:49Z</time>
      </trkpt>
      <trkpt lat="50.29847" lon="3.79484">
        <ele>149.6</ele>
        <time>2020-06-24T13:20:50Z</time>
      </trkpt>
      <trkpt lat="50.29847" lon="3.79483">
        <ele>149.6</ele>
        <time>2020-06-24T13:20:51Z</time>
      </trkpt>
      <trkpt lat="50.29847" lon="3.79482">
        <ele>149.6</ele>
        <time>2020-06-24T13:20:52Z</time>
      </trkpt>
      <trkpt lat="50.29846" lon="3.79481">
        <ele>149.6</ele>
        <time>2020-06-24T13:20:53Z</time>
      </trkpt>
      <trkpt lat="50.29847" lon="3.79481">
        <ele>149.6</ele>
        <time>2020-06-24T13:20:54Z</time>
      </trkpt>
      <trkpt lat="50.29847" lon="3.79481">
        <ele>149.6</ele>
        <time>2020-06-24T13:20:55Z</time>
      </trkpt>
      <trkpt lat="50.29847" lon="3.79481">
        <ele>149.6</ele>
        <time>2020-06-24T13:20:56Z</time>
      </trkpt>
      <trkpt lat="50.29846" lon="3.7948">
        <ele>149.6</ele>
        <time>2020-06-24T13:20:57Z</time>
      </trkpt>
      <trkpt lat="50.29846" lon="3.7948">
        <ele>149.6</ele>
        <time>2020-06-24T13:20:58Z</time>
      </trkpt>
      <trkpt lat="50.29846" lon="3.7948">
        <ele>149.6</ele>
        <time>2020-06-24T13:20:59Z</time>
      </trkpt>
      <trkpt lat="50.29843" lon="3.79473">
        <ele>149.6</ele>
        <time>2020-06-24T13:21:53Z</time>
      </trkpt>
      <trkpt lat="50.29842" lon="3.79472">
        <ele>149.6</ele>
        <time>2020-06-24T13:21:54Z</time>
      </trkpt>
      <trkpt lat="50.29841" lon="3.7947">
        <ele>149.6</ele>
        <time>2020-06-24T13:21:55Z</time>
      </trkpt>
      <trkpt lat="50.2984" lon="3.79467">
        <ele>149.6</ele>
        <time>2020-06-24T13:21:56Z</time>
      </trkpt>
      <trkpt lat="50.29839" lon="3.79465">
        <ele>149.6</ele>
        <time>2020-06-24T13:21:57Z</time>
      </trkpt>
      <trkpt lat="50.29839" lon="3.79464">
        <ele>149.6</ele>
        <time>2020-06-24T13:21:58Z</time>
      </trkpt>
      <trkpt lat="50.29839" lon="3.79463">
        <ele>149.6</ele>
        <time>2020-06-24T13:21:59Z</time>
      </trkpt>
      <trkpt lat="50.29839" lon="3.79464">
        <ele>149.6</ele>
        <time>2020-06-24T13:22:00Z</time>
      </trkpt>
      <trkpt lat="50.2984" lon="3.79463">
        <ele>149.6</ele>
        <time>2020-06-24T13:22:01Z</time>
      </trkpt>
      <trkpt lat="50.2984" lon="3.79463">
        <ele>149.6</ele>
        <time>2020-06-24T13:22:02Z</time>
      </trkpt>
      <trkpt lat="50.2984" lon="3.79463">
        <ele>149.6</ele>
        <time>2020-06-24T13:22:03Z</time>
      </trkpt>
      <trkpt lat="50.29841" lon="3.79463">
        <ele>149.6</ele>
        <time>2020-06-24T13:22:04Z</time>
      </trkpt>
      <trkpt lat="50.29841" lon="3.79463">
        <ele>149.6</ele>
        <time>2020-06-24T13:22:05Z</time>
      </trkpt>
      <trkpt lat="50.29841" lon="3.79463">
        <ele>149.6</ele>
        <time>2020-06-24T13:22:06Z</time>
      </trkpt>
      <trkpt lat="50.29841" lon="3.79463">
        <ele>149.6</ele>
        <time>2020-06-24T13:22:07Z</time>
      </trkpt>
      <trkpt lat="50.29841" lon="3.79462">
        <ele>149.6</ele>
        <time>2020-06-24T13:22:08Z</time>
      </trkpt>
      <trkpt lat="50.29841" lon="3.79462">
        <ele>149.6</ele>
        <time>2020-06-24T13:22:09Z</time>
      </trkpt>
      <trkpt lat="50.29841" lon="3.79462">
        <ele>149.6</ele>
        <time>2020-06-24T13:22:10Z</time>
      </trkpt>
      <trkpt lat="50.29836" lon="3.79453">
        <ele>149.6</ele>
        <time>2020-06-24T13:22:11Z</time>
      </trkpt>
      <trkpt lat="50.29831" lon="3.79443">
        <ele>149.6</ele>
        <time>2020-06-24T13:39:56Z</time>
      </trkpt>
      <trkpt lat="50.29826" lon="3.79434">
        <ele>149.6</ele>
        <time>2020-06-24T13:39:57Z</time>
      </trkpt>
      <trkpt lat="50.29826" lon="3.79441">
        <ele>149.6</ele>
        <time>2020-06-24T13:39:58Z</time>
      </trkpt>
      <trkpt lat="50.29827" lon="3.79447">
        <ele>149.6</ele>
        <time>2020-06-24T13:39:59Z</time>
      </trkpt>
      <trkpt lat="50.29826" lon="3.79449">
        <ele>149.6</ele>
        <time>2020-06-24T13:40:00Z</time>
      </trkpt>
      <trkpt lat="50.29827" lon="3.79453">
        <ele>149.6</ele>
        <time>2020-06-24T13:40:01Z</time>
      </trkpt>
      <trkpt lat="50.29827" lon="3.79454">
        <ele>149.6</ele>
        <time>2020-06-24T13:40:02Z</time>
      </trkpt>
      <trkpt lat="50.29829" lon="3.79459">
        <ele>149.6</ele>
        <time>2020-06-24T13:40:03Z</time>
      </trkpt>
      <trkpt lat="50.29831" lon="3.79464">
        <ele>149.6</ele>
        <time>2020-06-24T13:40:04Z</time>
      </trkpt>
      <trkpt lat="50.29834" lon="3.79468">
        <ele>149.6</ele>
        <time>2020-06-24T13:40:05Z</time>
      </trkpt>
      <trkpt lat="50.29835" lon="3.79469">
        <ele>149.6</ele>
        <time>2020-06-24T13:40:06Z</time>
      </trkpt>
      <trkpt lat="50.29837" lon="3.79473">
        <ele>149.6</ele>
        <time>2020-06-24T13:40:07Z</time>
      </trkpt>
      <trkpt lat="50.29838" lon="3.79477">
        <ele>149.6</ele>
        <time>2020-06-24T13:40:08Z</time>
      </trkpt>
      <trkpt lat="50.29839" lon="3.79478">
        <ele>149.6</ele>
        <time>2020-06-24T13:40:09Z</time>
      </trkpt>
      <trkpt lat="50.29841" lon="3.79481">
        <ele>149.6</ele>
        <time>2020-06-24T13:40:10Z</time>
      </trkpt>
      <trkpt lat="50.29842" lon="3.79482">
        <ele>149.6</ele>
        <time>2020-06-24T13:40:11Z</time>
      </trkpt>
      <trkpt lat="50.29843" lon="3.79484">
        <ele>149.6</ele>
        <time>2020-06-24T13:40:12Z</time>
      </trkpt>
      <trkpt lat="50.29844" lon="3.79485">
        <ele>149.6</ele>
        <time>2020-06-24T13:40:13Z</time>
      </trkpt>
      <trkpt lat="50.29844" lon="3.79486">
        <ele>149.6</ele>
        <time>2020-06-24T13:40:14Z</time>
      </trkpt>
      <trkpt lat="50.29845" lon="3.79486">
        <ele>149.6</ele>
        <time>2020-06-24T13:40:15Z</time>
      </trkpt>
      <trkpt lat="50.29845" lon="3.79486">
        <ele>149.6</ele>
        <time>2020-06-24T13:40:16Z</time>
      </trkpt>
      <trkpt lat="50.29846" lon="3.79486">
        <ele>149.6</ele>
        <time>2020-06-24T13:40:17Z</time>
      </trkpt>
      <trkpt lat="50.29846" lon="3.79486">
        <ele>149.6</ele>
        <time>2020-06-24T13:40:18Z</time>
      </trkpt>
      <trkpt lat="50.29847" lon="3.79486">
        <ele>149.6</ele>
        <time>2020-06-24T13:40:19Z</time>
      </trkpt>
      <trkpt lat="50.29848" lon="3.79486">
        <ele>149.6</ele>
        <time>2020-06-24T13:40:20Z</time>
      </trkpt>
      <trkpt lat="50.29849" lon="3.79486">
        <ele>149.6</ele>
        <time>2020-06-24T13:40:21Z</time>
      </trkpt>
      <trkpt lat="50.2985" lon="3.79486">
        <ele>149.6</ele>
        <time>2020-06-24T13:40:22Z</time>
      </trkpt>
      <trkpt lat="50.29851" lon="3.79485">
        <ele>149.6</ele>
        <time>2020-06-24T13:40:23Z</time>
      </trkpt>
      <trkpt lat="50.29852" lon="3.79484">
        <ele>149.6</ele>
        <time>2020-06-24T13:40:24Z</time>
      </trkpt>
      <trkpt lat="50.29853" lon="3.79483">
        <ele>149.6</ele>
        <time>2020-06-24T13:40:25Z</time>
      </trkpt>
      <trkpt lat="50.29854" lon="3.79483">
        <ele>149.6</ele>
        <time>2020-06-24T13:40:26Z</time>
      </trkpt>
      <trkpt lat="50.29855" lon="3.79482">
        <ele>149.6</ele>
        <time>2020-06-24T13:40:27Z</time>
      </trkpt>
      <trkpt lat="50.29856" lon="3.79481">
        <ele>149.6</ele>
        <time>2020-06-24T13:40:28Z</time>
      </trkpt>
      <trkpt lat="50.29856" lon="3.79481">
        <ele>149.6</ele>
        <time>2020-06-24T13:40:29Z</time>
      </trkpt>
      <trkpt lat="50.29857" lon="3.79479">
        <ele>149.6</ele>
        <time>2020-06-24T13:40:30Z</time>
      </trkpt>
      <trkpt lat="50.29858" lon="3.79478">
        <ele>149.6</ele>
        <time>2020-06-24T13:40:31Z</time>
      </trkpt>
      <trkpt lat="50.29858" lon="3.79477">
        <ele>149.6</ele>
        <time>2020-06-24T13:40:32Z</time>
      </trkpt>
      <trkpt lat="50.29858" lon="3.79477">
        <ele>149.6</ele>
        <time>2020-06-24T13:40:33Z</time>
      </trkpt>
      <trkpt lat="50.29858" lon="3.79476">
        <ele>149.6</ele>
        <time>2020-06-24T13:40:34Z</time>
      </trkpt>
      <trkpt lat="50.29859" lon="3.79476">
        <ele>149.6</ele>
        <time>2020-06-24T13:40:35Z</time>
      </trkpt>
      <trkpt lat="50.29858" lon="3.79476">
        <ele>149.6</ele>
        <time>2020-06-24T13:40:36Z</time>
      </trkpt>
      <trkpt lat="50.29858" lon="3.79478">
        <ele>149.6</ele>
        <time>2020-06-24T13:40:37Z</time>
      </trkpt>
      <trkpt lat="50.29859" lon="3.7948">
        <ele>149.6</ele>
        <time>2020-06-24T13:40:38Z</time>
      </trkpt>
      <trkpt lat="50.29859" lon="3.7948">
        <ele>149.6</ele>
        <time>2020-06-24T13:40:39Z</time>
      </trkpt>
      <trkpt lat="50.29859" lon="3.7948">
        <ele>149.6</ele>
        <time>2020-06-24T13:40:40Z</time>
      </trkpt>
      <trkpt lat="50.2986" lon="3.7948">
        <ele>149.6</ele>
        <time>2020-06-24T13:40:41Z</time>
      </trkpt>
      <trkpt lat="50.2986" lon="3.79479">
        <ele>149.6</ele>
        <time>2020-06-24T13:40:42Z</time>
      </trkpt>
      <trkpt lat="50.2986" lon="3.79479">
        <ele>149.6</ele>
        <time>2020-06-24T13:40:43Z</time>
      </trkpt>
      <trkpt lat="50.29861" lon="3.79479">
        <ele>149.6</ele>
        <time>2020-06-24T13:40:44Z</time>
      </trkpt>
      <trkpt lat="50.29861" lon="3.79479">
        <ele>149.6</ele>
        <time>2020-06-24T13:40:45Z</time>
      </trkpt>
      <trkpt lat="50.29861" lon="3.79478">
        <ele>149.6</ele>
        <time>2020-06-24T13:40:46Z</time>
      </trkpt>
      <trkpt lat="50.29861" lon="3.79478">
        <ele>149.6</ele>
        <time>2020-06-24T13:40:47Z</time>
      </trkpt>
      <trkpt lat="50.29861" lon="3.79477">
        <ele>149.6</ele>
        <time>2020-06-24T13:40:48Z</time>
      </trkpt>
      <trkpt lat="50.2986" lon="3.79478">
        <ele>149.6</ele>
        <time>2020-06-24T13:40:49Z</time>
      </trkpt>
      <trkpt lat="50.29861" lon="3.79478">
        <ele>149.6</ele>
        <time>2020-06-24T13:40:50Z</time>
      </trkpt>
      <trkpt lat="50.29861" lon="3.79478">
        <ele>149.6</ele>
        <time>2020-06-24T13:40:51Z</time>
      </trkpt>
      <trkpt lat="50.29862" lon="3.79479">
        <ele>149.6</ele>
        <time>2020-06-24T13:40:52Z</time>
      </trkpt>
      <trkpt lat="50.29864" lon="3.7948">
        <ele>149.7</ele>
        <time>2020-06-24T13:40:53Z</time>
      </trkpt>
      <trkpt lat="50.29864" lon="3.7948">
        <ele>149.7</ele>
        <time>2020-06-24T13:40:54Z</time>
      </trkpt>
      <trkpt lat="50.29864" lon="3.7948">
        <ele>149.7</ele>
        <time>2020-06-24T13:40:55Z</time>
      </trkpt>
      <trkpt lat="50.29865" lon="3.7948">
        <ele>149.7</ele>
        <time>2020-06-24T13:40:56Z</time>
      </trkpt>
      <trkpt lat="50.29865" lon="3.7948">
        <ele>149.7</ele>
        <time>2020-06-24T13:40:57Z</time>
      </trkpt>
      <trkpt lat="50.29865" lon="3.79479">
        <ele>149.7</ele>
        <time>2020-06-24T13:40:58Z</time>
      </trkpt>
      <trkpt lat="50.29865" lon="3.79479">
        <ele>149.7</ele>
        <time>2020-06-24T13:40:59Z</time>
      </trkpt>
      <trkpt lat="50.29864" lon="3.79478">
        <ele>149.7</ele>
        <time>2020-06-24T13:41:00Z</time>
      </trkpt>
      <trkpt lat="50.29865" lon="3.79483">
        <ele>149.7</ele>
        <time>2020-06-24T13:41:01Z</time>
      </trkpt>
      <trkpt lat="50.29864" lon="3.79484">
        <ele>149.7</ele>
        <time>2020-06-24T13:41:02Z</time>
      </trkpt>
      <trkpt lat="50.29864" lon="3.79486">
        <ele>149.7</ele>
        <time>2020-06-24T13:41:03Z</time>
      </trkpt>
      <trkpt lat="50.29864" lon="3.79488">
        <ele>149.7</ele>
        <time>2020-06-24T13:41:04Z</time>
      </trkpt>
      <trkpt lat="50.29864" lon="3.79489">
        <ele>149.7</ele>
        <time>2020-06-24T13:41:05Z</time>
      </trkpt>
      <trkpt lat="50.29864" lon="3.79489">
        <ele>149.7</ele>
        <time>2020-06-24T13:41:06Z</time>
      </trkpt>
      <trkpt lat="50.29864" lon="3.79488">
        <ele>149.7</ele>
        <time>2020-06-24T13:41:07Z</time>
      </trkpt>
      <trkpt lat="50.29864" lon="3.79488">
        <ele>149.7</ele>
        <time>2020-06-24T13:41:08Z</time>
      </trkpt>
      <trkpt lat="50.29864" lon="3.79486">
        <ele>149.7</ele>
        <time>2020-06-24T13:41:09Z</time>
      </trkpt>
      <trkpt lat="50.29864" lon="3.79485">
        <ele>149.7</ele>
        <time>2020-06-24T13:41:10Z</time>
      </trkpt>
      <trkpt lat="50.29863" lon="3.79484">
        <ele>149.7</ele>
        <time>2020-06-24T13:41:11Z</time>
      </trkpt>
      <trkpt lat="50.29863" lon="3.79483">
        <ele>149.7</ele>
        <time>2020-06-24T13:41:12Z</time>
      </trkpt>
      <trkpt lat="50.29863" lon="3.79483">
        <ele>149.7</ele>
        <time>2020-06-24T13:41:13Z</time>
      </trkpt>
      <trkpt lat="50.29863" lon="3.79483">
        <ele>149.7</ele>
        <time>2020-06-24T13:41:14Z</time>
      </trkpt>
      <trkpt lat="50.29863" lon="3.79483">
        <ele>149.7</ele>
        <time>2020-06-24T13:41:15Z</time>
      </trkpt>
      <trkpt lat="50.29863" lon="3.79483">
        <ele>149.7</ele>
        <time>2020-06-24T13:41:16Z</time>
      </trkpt>
      <trkpt lat="50.29864" lon="3.79482">
        <ele>149.7</ele>
        <time>2020-06-24T13:41:17Z</time>
      </trkpt>
      <trkpt lat="50.29863" lon="3.79481">
        <ele>149.7</ele>
        <time>2020-06-24T13:41:18Z</time>
      </trkpt>
      <trkpt lat="50.29861" lon="3.7948">
        <ele>149.7</ele>
        <time>2020-06-24T13:41:19Z</time>
      </trkpt>
      <trkpt lat="50.29858" lon="3.79478">
        <ele>149.7</ele>
        <time>2020-06-24T13:41:20Z</time>
      </trkpt>
      <trkpt lat="50.29856" lon="3.79476">
        <ele>149.6</ele>
        <time>2020-06-24T13:41:21Z</time>
      </trkpt>
      <trkpt lat="50.29853" lon="3.79475">
        <ele>149.6</ele>
        <time>2020-06-24T13:41:22Z</time>
      </trkpt>
      <trkpt lat="50.29851" lon="3.79473">
        <ele>149.6</ele>
        <time>2020-06-24T13:41:23Z</time>
      </trkpt>
      <trkpt lat="50.29849" lon="3.79471">
        <ele>149.6</ele>
        <time>2020-06-24T13:47:28Z</time>
      </trkpt>
      <trkpt lat="50.29846" lon="3.7947">
        <ele>149.6</ele>
        <time>2020-06-24T13:47:29Z</time>
      </trkpt>
      <trkpt lat="50.29844" lon="3.79468">
        <ele>149.6</ele>
        <time>2020-06-24T13:47:30Z</time>
      </trkpt>
      <trkpt lat="50.29841" lon="3.79466">
        <ele>149.6</ele>
        <time>2020-06-24T13:47:31Z</time>
      </trkpt>
      <trkpt lat="50.29839" lon="3.79465">
        <ele>149.6</ele>
        <time>2020-06-24T13:47:32Z</time>
      </trkpt>
      <trkpt lat="50.29837" lon="3.79463">
        <ele>149.5</ele>
        <time>2020-06-24T13:47:33Z</time>
      </trkpt>
      <trkpt lat="50.29834" lon="3.79461">
        <ele>149.5</ele>
        <time>2020-06-24T13:47:34Z</time>
      </trkpt>
      <trkpt lat="50.29832" lon="3.7946">
        <ele>149.5</ele>
        <time>2020-06-24T13:47:35Z</time>
      </trkpt>
      <trkpt lat="50.29831" lon="3.79464">
        <ele>149.5</ele>
        <time>2020-06-24T13:47:36Z</time>
      </trkpt>
      <trkpt lat="50.2983" lon="3.79469">
        <ele>149.5</ele>
        <time>2020-06-24T13:47:37Z</time>
      </trkpt>
      <trkpt lat="50.2983" lon="3.79471">
        <ele>149.5</ele>
        <time>2020-06-24T13:47:38Z</time>
      </trkpt>
      <trkpt lat="50.29829" lon="3.79475">
        <ele>149.5</ele>
        <time>2020-06-24T13:47:39Z</time>
      </trkpt>
      <trkpt lat="50.29829" lon="3.79477">
        <ele>149.5</ele>
        <time>2020-06-24T13:47:40Z</time>
      </trkpt>
      <trkpt lat="50.29828" lon="3.79482">
        <ele>149.5</ele>
        <time>2020-06-24T13:47:41Z</time>
      </trkpt>
      <trkpt lat="50.29827" lon="3.79483">
        <ele>149.5</ele>
        <time>2020-06-24T13:47:42Z</time>
      </trkpt>
      <trkpt lat="50.29826" lon="3.79488">
        <ele>149.6</ele>
        <time>2020-06-24T13:47:43Z</time>
      </trkpt>
      <trkpt lat="50.29824" lon="3.79493">
        <ele>149.6</ele>
        <time>2020-06-24T13:47:44Z</time>
      </trkpt>
      <trkpt lat="50.29822" lon="3.79498">
        <ele>149.6</ele>
        <time>2020-06-24T13:47:45Z</time>
      </trkpt>
      <trkpt lat="50.2982" lon="3.79503">
        <ele>149.6</ele>
        <time>2020-06-24T13:47:46Z</time>
      </trkpt>
      <trkpt lat="50.2982" lon="3.79505">
        <ele>149.6</ele>
        <time>2020-06-24T13:47:47Z</time>
      </trkpt>
      <trkpt lat="50.29819" lon="3.79509">
        <ele>149.6</ele>
        <time>2020-06-24T13:47:48Z</time>
      </trkpt>
      <trkpt lat="50.29818" lon="3.79515">
        <ele>149.6</ele>
        <time>2020-06-24T13:47:49Z</time>
      </trkpt>
      <trkpt lat="50.29817" lon="3.7952">
        <ele>149.6</ele>
        <time>2020-06-24T13:47:50Z</time>
      </trkpt>
      <trkpt lat="50.29816" lon="3.79524">
        <ele>149.7</ele>
        <time>2020-06-24T13:47:51Z</time>
      </trkpt>
      <trkpt lat="50.29816" lon="3.79529">
        <ele>149.7</ele>
        <time>2020-06-24T13:47:52Z</time>
      </trkpt>
      <trkpt lat="50.29815" lon="3.79533">
        <ele>149.8</ele>
        <time>2020-06-24T13:47:53Z</time>
      </trkpt>
      <trkpt lat="50.29814" lon="3.79537">
        <ele>149.8</ele>
        <time>2020-06-24T13:47:54Z</time>
      </trkpt>
      <trkpt lat="50.29812" lon="3.79543">
        <ele>149.8</ele>
        <time>2020-06-24T13:47:55Z</time>
      </trkpt>
      <trkpt lat="50.29812" lon="3.79546">
        <ele>149.9</ele>
        <time>2020-06-24T13:47:56Z</time>
      </trkpt>
      <trkpt lat="50.29811" lon="3.79551">
        <ele>149.9</ele>
        <time>2020-06-24T13:47:57Z</time>
      </trkpt>
      <trkpt lat="50.29809" lon="3.79556">
        <ele>150</ele>
        <time>2020-06-24T13:47:58Z</time>
      </trkpt>
      <trkpt lat="50.29807" lon="3.79561">
        <ele>150</ele>
        <time>2020-06-24T13:47:59Z</time>
      </trkpt>
      <trkpt lat="50.29804" lon="3.79567">
        <ele>150.1</ele>
        <time>2020-06-24T13:48:00Z</time>
      </trkpt>
      <trkpt lat="50.29801" lon="3.79573">
        <ele>150.2</ele>
        <time>2020-06-24T13:48:01Z</time>
      </trkpt>
      <trkpt lat="50.29798" lon="3.79579">
        <ele>150.2</ele>
        <time>2020-06-24T13:48:02Z</time>
      </trkpt>
      <trkpt lat="50.29797" lon="3.79584">
        <ele>150.3</ele>
        <time>2020-06-24T13:48:03Z</time>
      </trkpt>
      <trkpt lat="50.29794" lon="3.7959">
        <ele>150.3</ele>
        <time>2020-06-24T13:48:04Z</time>
      </trkpt>
      <trkpt lat="50.29792" lon="3.79597">
        <ele>150.4</ele>
        <time>2020-06-24T13:48:05Z</time>
      </trkpt>
      <trkpt lat="50.2979" lon="3.79602">
        <ele>150.5</ele>
        <time>2020-06-24T13:48:06Z</time>
      </trkpt>
      <trkpt lat="50.29787" lon="3.79608">
        <ele>150.5</ele>
        <time>2020-06-24T13:48:07Z</time>
      </trkpt>
      <trkpt lat="50.29785" lon="3.79616">
        <ele>150.6</ele>
        <time>2020-06-24T13:48:08Z</time>
      </trkpt>
      <trkpt lat="50.29782" lon="3.79624">
        <ele>150.7</ele>
        <time>2020-06-24T13:48:09Z</time>
      </trkpt>
      <trkpt lat="50.29781" lon="3.79631">
        <ele>150.8</ele>
        <time>2020-06-24T13:48:10Z</time>
      </trkpt>
      <trkpt lat="50.29778" lon="3.79637">
        <ele>150.9</ele>
        <time>2020-06-24T13:48:11Z</time>
      </trkpt>
      <trkpt lat="50.29769" lon="3.79644">
        <ele>151.1</ele>
        <time>2020-06-24T13:48:12Z</time>
      </trkpt>
      <trkpt lat="50.29767" lon="3.79651">
        <ele>151.1</ele>
        <time>2020-06-24T13:48:13Z</time>
      </trkpt>
      <trkpt lat="50.29765" lon="3.79657">
        <ele>151.1</ele>
        <time>2020-06-24T13:48:14Z</time>
      </trkpt>
      <trkpt lat="50.29763" lon="3.79664">
        <ele>151.1</ele>
        <time>2020-06-24T13:48:15Z</time>
      </trkpt>
      <trkpt lat="50.2976" lon="3.79669">
        <ele>151.1</ele>
        <time>2020-06-24T13:48:16Z</time>
      </trkpt>
      <trkpt lat="50.29758" lon="3.79675">
        <ele>151</ele>
        <time>2020-06-24T13:48:17Z</time>
      </trkpt>
      <trkpt lat="50.29756" lon="3.79679">
        <ele>151</ele>
        <time>2020-06-24T13:48:18Z</time>
      </trkpt>
      <trkpt lat="50.29753" lon="3.79684">
        <ele>151</ele>
        <time>2020-06-24T13:48:19Z</time>
      </trkpt>
      <trkpt lat="50.29751" lon="3.79689">
        <ele>151</ele>
        <time>2020-06-24T13:48:20Z</time>
      </trkpt>
      <trkpt lat="50.29748" lon="3.79694">
        <ele>151</ele>
        <time>2020-06-24T13:48:21Z</time>
      </trkpt>
      <trkpt lat="50.29745" lon="3.79699">
        <ele>151</ele>
        <time>2020-06-24T13:48:22Z</time>
      </trkpt>
      <trkpt lat="50.29743" lon="3.79703">
        <ele>151</ele>
        <time>2020-06-24T13:48:23Z</time>
      </trkpt>
      <trkpt lat="50.29741" lon="3.79706">
        <ele>151</ele>
        <time>2020-06-24T13:48:24Z</time>
      </trkpt>
      <trkpt lat="50.29739" lon="3.79712">
        <ele>151</ele>
        <time>2020-06-24T13:48:25Z</time>
      </trkpt>
      <trkpt lat="50.29737" lon="3.79717">
        <ele>151</ele>
        <time>2020-06-24T13:48:26Z</time>
      </trkpt>
      <trkpt lat="50.29735" lon="3.79721">
        <ele>151</ele>
        <time>2020-06-24T13:48:27Z</time>
      </trkpt>
      <trkpt lat="50.29732" lon="3.79725">
        <ele>151</ele>
        <time>2020-06-24T13:48:28Z</time>
      </trkpt>
      <trkpt lat="50.29729" lon="3.7973">
        <ele>151</ele>
        <time>2020-06-24T13:48:29Z</time>
      </trkpt>
      <trkpt lat="50.29727" lon="3.79736">
        <ele>151</ele>
        <time>2020-06-24T13:48:30Z</time>
      </trkpt>
      <trkpt lat="50.29724" lon="3.79741">
        <ele>151</ele>
        <time>2020-06-24T13:48:31Z</time>
      </trkpt>
      <trkpt lat="50.29722" lon="3.79747">
        <ele>151.1</ele>
        <time>2020-06-24T13:48:32Z</time>
      </trkpt>
      <trkpt lat="50.29721" lon="3.79756">
        <ele>151.1</ele>
        <time>2020-06-24T13:48:33Z</time>
      </trkpt>
      <trkpt lat="50.29719" lon="3.79763">
        <ele>151.2</ele>
        <time>2020-06-24T13:48:34Z</time>
      </trkpt>
      <trkpt lat="50.29717" lon="3.79769">
        <ele>151.2</ele>
        <time>2020-06-24T13:48:35Z</time>
      </trkpt>
      <trkpt lat="50.29716" lon="3.79774">
        <ele>151.2</ele>
        <time>2020-06-24T13:48:36Z</time>
      </trkpt>
      <trkpt lat="50.29715" lon="3.79778">
        <ele>151.3</ele>
        <time>2020-06-24T13:48:37Z</time>
      </trkpt>
      <trkpt lat="50.29713" lon="3.79783">
        <ele>151.3</ele>
        <time>2020-06-24T13:48:38Z</time>
      </trkpt>
      <trkpt lat="50.29711" lon="3.79789">
        <ele>151.4</ele>
        <time>2020-06-24T13:48:39Z</time>
      </trkpt>
      <trkpt lat="50.2971" lon="3.79791">
        <ele>151.3</ele>
        <time>2020-06-24T13:48:40Z</time>
      </trkpt>
      <trkpt lat="50.29709" lon="3.79794">
        <ele>151.1</ele>
        <time>2020-06-24T13:48:41Z</time>
      </trkpt>
      <trkpt lat="50.29708" lon="3.79799">
        <ele>150.9</ele>
        <time>2020-06-24T13:48:42Z</time>
      </trkpt>
      <trkpt lat="50.29708" lon="3.79802">
        <ele>150.7</ele>
        <time>2020-06-24T13:48:43Z</time>
      </trkpt>
      <trkpt lat="50.29708" lon="3.79804">
        <ele>150.6</ele>
        <time>2020-06-24T13:48:44Z</time>
      </trkpt>
      <trkpt lat="50.29707" lon="3.79806">
        <ele>150.5</ele>
        <time>2020-06-24T13:48:45Z</time>
      </trkpt>
      <trkpt lat="50.29706" lon="3.79807">
        <ele>150.4</ele>
        <time>2020-06-24T13:48:46Z</time>
      </trkpt>
      <trkpt lat="50.29705" lon="3.79808">
        <ele>150.3</ele>
        <time>2020-06-24T13:48:47Z</time>
      </trkpt>
      <trkpt lat="50.29705" lon="3.79808">
        <ele>150.3</ele>
        <time>2020-06-24T13:48:48Z</time>
      </trkpt>
      <trkpt lat="50.29705" lon="3.79809">
        <ele>150.3</ele>
        <time>2020-06-24T13:48:49Z</time>
      </trkpt>
      <trkpt lat="50.29705" lon="3.7981">
        <ele>150.2</ele>
        <time>2020-06-24T13:48:50Z</time>
      </trkpt>
      <trkpt lat="50.29704" lon="3.79811">
        <ele>150.1</ele>
        <time>2020-06-24T13:48:51Z</time>
      </trkpt>
      <trkpt lat="50.29703" lon="3.79815">
        <ele>149.7</ele>
        <time>2020-06-24T13:48:52Z</time>
      </trkpt>
      <trkpt lat="50.29703" lon="3.79817">
        <ele>149.7</ele>
        <time>2020-06-24T13:48:53Z</time>
      </trkpt>
      <trkpt lat="50.29704" lon="3.79821">
        <ele>149.7</ele>
        <time>2020-06-24T13:48:54Z</time>
      </trkpt>
      <trkpt lat="50.29705" lon="3.79827">
        <ele>149.7</ele>
        <time>2020-06-24T13:48:55Z</time>
      </trkpt>
      <trkpt lat="50.29708" lon="3.79831">
        <ele>149.7</ele>
        <time>2020-06-24T13:48:56Z</time>
      </trkpt>
      <trkpt lat="50.2971" lon="3.79836">
        <ele>149.8</ele>
        <time>2020-06-24T13:48:57Z</time>
      </trkpt>
      <trkpt lat="50.29713" lon="3.79843">
        <ele>149.8</ele>
        <time>2020-06-24T13:48:58Z</time>
      </trkpt>
      <trkpt lat="50.29716" lon="3.79849">
        <ele>149.8</ele>
        <time>2020-06-24T13:48:59Z</time>
      </trkpt>
      <trkpt lat="50.2972" lon="3.79855">
        <ele>149.8</ele>
        <time>2020-06-24T13:49:00Z</time>
      </trkpt>
      <trkpt lat="50.29724" lon="3.7986">
        <ele>149.8</ele>
        <time>2020-06-24T13:49:01Z</time>
      </trkpt>
      <trkpt lat="50.29727" lon="3.79867">
        <ele>149.8</ele>
        <time>2020-06-24T13:49:02Z</time>
      </trkpt>
      <trkpt lat="50.2973" lon="3.79874">
        <ele>149.8</ele>
        <time>2020-06-24T13:49:03Z</time>
      </trkpt>
      <trkpt lat="50.29733" lon="3.79881">
        <ele>149.8</ele>
        <time>2020-06-24T13:49:04Z</time>
      </trkpt>
      <trkpt lat="50.29735" lon="3.79887">
        <ele>149.8</ele>
        <time>2020-06-24T13:49:05Z</time>
      </trkpt>
      <trkpt lat="50.29739" lon="3.79893">
        <ele>149.8</ele>
        <time>2020-06-24T13:49:06Z</time>
      </trkpt>
      <trkpt lat="50.29742" lon="3.79899">
        <ele>149.9</ele>
        <time>2020-06-24T13:49:07Z</time>
      </trkpt>
      <trkpt lat="50.29746" lon="3.79906">
        <ele>149.9</ele>
        <time>2020-06-24T13:49:08Z</time>
      </trkpt>
      <trkpt lat="50.29749" lon="3.79912">
        <ele>149.9</ele>
        <time>2020-06-24T13:49:09Z</time>
      </trkpt>
      <trkpt lat="50.29751" lon="3.79918">
        <ele>149.9</ele>
        <time>2020-06-24T13:49:10Z</time>
      </trkpt>
      <trkpt lat="50.29754" lon="3.79924">
        <ele>150</ele>
        <time>2020-06-24T13:49:11Z</time>
      </trkpt>
      <trkpt lat="50.29757" lon="3.7993">
        <ele>150</ele>
        <time>2020-06-24T13:49:12Z</time>
      </trkpt>
      <trkpt lat="50.2976" lon="3.79937">
        <ele>150</ele>
        <time>2020-06-24T13:49:13Z</time>
      </trkpt>
      <trkpt lat="50.29762" lon="3.79945">
        <ele>150</ele>
        <time>2020-06-24T13:49:14Z</time>
      </trkpt>
      <trkpt lat="50.29764" lon="3.79952">
        <ele>150.1</ele>
        <time>2020-06-24T13:49:15Z</time>
      </trkpt>
      <trkpt lat="50.29765" lon="3.79959">
        <ele>150.1</ele>
        <time>2020-06-24T13:49:16Z</time>
      </trkpt>
      <trkpt lat="50.29765" lon="3.79967">
        <ele>150.1</ele>
        <time>2020-06-24T13:49:17Z</time>
      </trkpt>
      <trkpt lat="50.29764" lon="3.79975">
        <ele>150.2</ele>
        <time>2020-06-24T13:49:18Z</time>
      </trkpt>
      <trkpt lat="50.29765" lon="3.79984">
        <ele>150.2</ele>
        <time>2020-06-24T13:49:19Z</time>
      </trkpt>
      <trkpt lat="50.29765" lon="3.79992">
        <ele>150.3</ele>
        <time>2020-06-24T13:49:20Z</time>
      </trkpt>
      <trkpt lat="50.29765" lon="3.8">
        <ele>150.3</ele>
        <time>2020-06-24T13:49:21Z</time>
      </trkpt>
      <trkpt lat="50.29766" lon="3.80006">
        <ele>150.3</ele>
        <time>2020-06-24T13:49:22Z</time>
      </trkpt>
      <trkpt lat="50.29764" lon="3.80014">
        <ele>150.4</ele>
        <time>2020-06-24T13:49:23Z</time>
      </trkpt>
      <trkpt lat="50.29764" lon="3.80022">
        <ele>150.4</ele>
        <time>2020-06-24T13:49:24Z</time>
      </trkpt>
      <trkpt lat="50.29763" lon="3.8003">
        <ele>150.5</ele>
        <time>2020-06-24T13:49:25Z</time>
      </trkpt>
      <trkpt lat="50.29763" lon="3.80039">
        <ele>150.5</ele>
        <time>2020-06-24T13:49:26Z</time>
      </trkpt>
      <trkpt lat="50.29763" lon="3.80047">
        <ele>150.6</ele>
        <time>2020-06-24T13:49:27Z</time>
      </trkpt>
      <trkpt lat="50.29762" lon="3.80056">
        <ele>150.7</ele>
        <time>2020-06-24T13:49:28Z</time>
      </trkpt>
      <trkpt lat="50.29762" lon="3.80064">
        <ele>150.7</ele>
        <time>2020-06-24T13:49:29Z</time>
      </trkpt>
      <trkpt lat="50.29761" lon="3.80072">
        <ele>150.8</ele>
        <time>2020-06-24T13:49:30Z</time>
      </trkpt>
      <trkpt lat="50.29761" lon="3.8008">
        <ele>150.9</ele>
        <time>2020-06-24T13:49:31Z</time>
      </trkpt>
      <trkpt lat="50.2976" lon="3.80087">
        <ele>150.9</ele>
        <time>2020-06-24T13:49:32Z</time>
      </trkpt>
      <trkpt lat="50.2976" lon="3.80094">
        <ele>151</ele>
        <time>2020-06-24T13:49:33Z</time>
      </trkpt>
      <trkpt lat="50.29761" lon="3.80102">
        <ele>151</ele>
        <time>2020-06-24T13:49:34Z</time>
      </trkpt>
      <trkpt lat="50.29761" lon="3.80107">
        <ele>151</ele>
        <time>2020-06-24T13:49:35Z</time>
      </trkpt>
      <trkpt lat="50.29761" lon="3.80115">
        <ele>150.9</ele>
        <time>2020-06-24T13:49:36Z</time>
      </trkpt>
      <trkpt lat="50.29762" lon="3.80122">
        <ele>150.8</ele>
        <time>2020-06-24T13:49:37Z</time>
      </trkpt>
      <trkpt lat="50.29762" lon="3.8013">
        <ele>150.7</ele>
        <time>2020-06-24T13:49:38Z</time>
      </trkpt>
      <trkpt lat="50.29761" lon="3.80138">
        <ele>150.6</ele>
        <time>2020-06-24T13:49:39Z</time>
      </trkpt>
      <trkpt lat="50.2976" lon="3.80146">
        <ele>150.6</ele>
        <time>2020-06-24T13:49:40Z</time>
      </trkpt>
      <trkpt lat="50.29759" lon="3.80154">
        <ele>150.5</ele>
        <time>2020-06-24T13:49:41Z</time>
      </trkpt>
      <trkpt lat="50.29759" lon="3.80163">
        <ele>150.4</ele>
        <time>2020-06-24T13:49:42Z</time>
      </trkpt>
      <trkpt lat="50.29758" lon="3.80171">
        <ele>150.3</ele>
        <time>2020-06-24T13:49:43Z</time>
      </trkpt>
      <trkpt lat="50.29758" lon="3.80179">
        <ele>150.3</ele>
        <time>2020-06-24T13:49:44Z</time>
      </trkpt>
      <trkpt lat="50.29758" lon="3.80186">
        <ele>150.2</ele>
        <time>2020-06-24T13:49:45Z</time>
      </trkpt>
      <trkpt lat="50.29758" lon="3.80195">
        <ele>150.1</ele>
        <time>2020-06-24T13:49:46Z</time>
      </trkpt>
      <trkpt lat="50.29757" lon="3.80203">
        <ele>150.1</ele>
        <time>2020-06-24T13:49:47Z</time>
      </trkpt>
      <trkpt lat="50.29757" lon="3.8021">
        <ele>150</ele>
        <time>2020-06-24T13:49:48Z</time>
      </trkpt>
      <trkpt lat="50.29757" lon="3.80219">
        <ele>150</ele>
        <time>2020-06-24T13:49:49Z</time>
      </trkpt>
      <trkpt lat="50.29756" lon="3.80227">
        <ele>149.9</ele>
        <time>2020-06-24T13:49:50Z</time>
      </trkpt>
      <trkpt lat="50.29755" lon="3.80234">
        <ele>149.9</ele>
        <time>2020-06-24T13:49:51Z</time>
      </trkpt>
      <trkpt lat="50.29755" lon="3.80241">
        <ele>149.9</ele>
        <time>2020-06-24T13:49:52Z</time>
      </trkpt>
      <trkpt lat="50.29754" lon="3.80249">
        <ele>149.8</ele>
        <time>2020-06-24T13:49:53Z</time>
      </trkpt>
      <trkpt lat="50.29754" lon="3.80257">
        <ele>149.8</ele>
        <time>2020-06-24T13:49:54Z</time>
      </trkpt>
      <trkpt lat="50.29756" lon="3.80265">
        <ele>149.7</ele>
        <time>2020-06-24T13:49:55Z</time>
      </trkpt>
      <trkpt lat="50.29756" lon="3.80273">
        <ele>149.7</ele>
        <time>2020-06-24T13:49:56Z</time>
      </trkpt>
      <trkpt lat="50.29757" lon="3.8028">
        <ele>149.7</ele>
        <time>2020-06-24T13:49:57Z</time>
      </trkpt>
      <trkpt lat="50.29757" lon="3.80287">
        <ele>149.6</ele>
        <time>2020-06-24T13:49:58Z</time>
      </trkpt>
      <trkpt lat="50.29758" lon="3.80293">
        <ele>149.6</ele>
        <time>2020-06-24T13:49:59Z</time>
      </trkpt>
      <trkpt lat="50.29759" lon="3.80299">
        <ele>149.5</ele>
        <time>2020-06-24T13:50:00Z</time>
      </trkpt>
      <trkpt lat="50.2976" lon="3.80305">
        <ele>149.5</ele>
        <time>2020-06-24T13:50:01Z</time>
      </trkpt>
      <trkpt lat="50.2976" lon="3.80311">
        <ele>149.4</ele>
        <time>2020-06-24T13:50:02Z</time>
      </trkpt>
      <trkpt lat="50.29758" lon="3.80318">
        <ele>149.4</ele>
        <time>2020-06-24T13:50:03Z</time>
      </trkpt>
      <trkpt lat="50.29755" lon="3.80325">
        <ele>149.4</ele>
        <time>2020-06-24T13:50:04Z</time>
      </trkpt>
      <trkpt lat="50.29753" lon="3.80333">
        <ele>149.3</ele>
        <time>2020-06-24T13:50:05Z</time>
      </trkpt>
      <trkpt lat="50.29751" lon="3.80341">
        <ele>149.3</ele>
        <time>2020-06-24T13:50:06Z</time>
      </trkpt>
      <trkpt lat="50.2975" lon="3.80348">
        <ele>149.3</ele>
        <time>2020-06-24T13:50:07Z</time>
      </trkpt>
      <trkpt lat="50.29749" lon="3.80356">
        <ele>149.2</ele>
        <time>2020-06-24T13:50:08Z</time>
      </trkpt>
      <trkpt lat="50.29749" lon="3.80364">
        <ele>149.2</ele>
        <time>2020-06-24T13:50:09Z</time>
      </trkpt>
      <trkpt lat="50.2975" lon="3.80372">
        <ele>149.1</ele>
        <time>2020-06-24T13:50:10Z</time>
      </trkpt>
      <trkpt lat="50.2975" lon="3.8038">
        <ele>149.1</ele>
        <time>2020-06-24T13:50:11Z</time>
      </trkpt>
      <trkpt lat="50.29749" lon="3.80389">
        <ele>149</ele>
        <time>2020-06-24T13:50:12Z</time>
      </trkpt>
      <trkpt lat="50.29749" lon="3.80399">
        <ele>148.9</ele>
        <time>2020-06-24T13:50:13Z</time>
      </trkpt>
      <trkpt lat="50.29748" lon="3.80407">
        <ele>148.9</ele>
        <time>2020-06-24T13:50:14Z</time>
      </trkpt>
      <trkpt lat="50.29748" lon="3.80415">
        <ele>148.8</ele>
        <time>2020-06-24T13:50:15Z</time>
      </trkpt>
      <trkpt lat="50.29748" lon="3.80425">
        <ele>148.8</ele>
        <time>2020-06-24T13:50:16Z</time>
      </trkpt>
      <trkpt lat="50.29747" lon="3.80434">
        <ele>148.7</ele>
        <time>2020-06-24T13:50:17Z</time>
      </trkpt>
      <trkpt lat="50.29747" lon="3.80444">
        <ele>148.6</ele>
        <time>2020-06-24T13:50:18Z</time>
      </trkpt>
      <trkpt lat="50.29746" lon="3.80453">
        <ele>148.4</ele>
        <time>2020-06-24T13:50:19Z</time>
      </trkpt>
      <trkpt lat="50.29746" lon="3.80462">
        <ele>148.3</ele>
        <time>2020-06-24T13:50:20Z</time>
      </trkpt>
      <trkpt lat="50.29746" lon="3.80471">
        <ele>148.1</ele>
        <time>2020-06-24T13:50:21Z</time>
      </trkpt>
      <trkpt lat="50.29746" lon="3.8048">
        <ele>148</ele>
        <time>2020-06-24T13:50:22Z</time>
      </trkpt>
      <trkpt lat="50.29745" lon="3.80488">
        <ele>147.9</ele>
        <time>2020-06-24T13:50:23Z</time>
      </trkpt>
      <trkpt lat="50.29745" lon="3.80497">
        <ele>147.8</ele>
        <time>2020-06-24T13:50:24Z</time>
      </trkpt>
      <trkpt lat="50.29745" lon="3.80507">
        <ele>147.6</ele>
        <time>2020-06-24T13:50:25Z</time>
      </trkpt>
      <trkpt lat="50.29745" lon="3.80518">
        <ele>147.5</ele>
        <time>2020-06-24T13:50:26Z</time>
      </trkpt>
      <trkpt lat="50.29745" lon="3.80528">
        <ele>147.4</ele>
        <time>2020-06-24T13:50:27Z</time>
      </trkpt>
      <trkpt lat="50.29745" lon="3.80538">
        <ele>147.3</ele>
        <time>2020-06-24T13:50:28Z</time>
      </trkpt>
      <trkpt lat="50.29745" lon="3.80546">
        <ele>147.2</ele>
        <time>2020-06-24T13:50:29Z</time>
      </trkpt>
      <trkpt lat="50.29744" lon="3.80556">
        <ele>147.1</ele>
        <time>2020-06-24T13:50:31Z</time>
      </trkpt>
      <trkpt lat="50.29745" lon="3.80565">
        <ele>147</ele>
        <time>2020-06-24T13:50:32Z</time>
      </trkpt>
      <trkpt lat="50.29744" lon="3.80575">
        <ele>146.9</ele>
        <time>2020-06-24T13:50:33Z</time>
      </trkpt>
      <trkpt lat="50.29744" lon="3.80584">
        <ele>146.8</ele>
        <time>2020-06-24T13:50:34Z</time>
      </trkpt>
      <trkpt lat="50.29743" lon="3.80594">
        <ele>146.7</ele>
        <time>2020-06-24T13:50:35Z</time>
      </trkpt>
      <trkpt lat="50.29742" lon="3.80604">
        <ele>146.7</ele>
        <time>2020-06-24T13:50:36Z</time>
      </trkpt>
      <trkpt lat="50.29741" lon="3.80615">
        <ele>146.6</ele>
        <time>2020-06-24T13:50:37Z</time>
      </trkpt>
      <trkpt lat="50.29741" lon="3.80625">
        <ele>146.6</ele>
        <time>2020-06-24T13:50:38Z</time>
      </trkpt>
      <trkpt lat="50.2974" lon="3.80635">
        <ele>146.6</ele>
        <time>2020-06-24T13:50:39Z</time>
      </trkpt>
      <trkpt lat="50.29739" lon="3.80644">
        <ele>146.6</ele>
        <time>2020-06-24T13:50:40Z</time>
      </trkpt>
      <trkpt lat="50.29739" lon="3.80654">
        <ele>146.6</ele>
        <time>2020-06-24T13:50:41Z</time>
      </trkpt>
      <trkpt lat="50.29739" lon="3.80665">
        <ele>146.6</ele>
        <time>2020-06-24T13:50:42Z</time>
      </trkpt>
      <trkpt lat="50.29739" lon="3.80675">
        <ele>146.7</ele>
        <time>2020-06-24T13:50:43Z</time>
      </trkpt>
      <trkpt lat="50.29738" lon="3.80685">
        <ele>146.7</ele>
        <time>2020-06-24T13:50:44Z</time>
      </trkpt>
      <trkpt lat="50.29738" lon="3.80692">
        <ele>146.7</ele>
        <time>2020-06-24T13:50:45Z</time>
      </trkpt>
      <trkpt lat="50.29737" lon="3.80701">
        <ele>146.8</ele>
        <time>2020-06-24T13:50:46Z</time>
      </trkpt>
      <trkpt lat="50.29737" lon="3.8071">
        <ele>146.8</ele>
        <time>2020-06-24T13:50:47Z</time>
      </trkpt>
      <trkpt lat="50.29736" lon="3.80718">
        <ele>146.8</ele>
        <time>2020-06-24T13:50:48Z</time>
      </trkpt>
      <trkpt lat="50.29736" lon="3.80726">
        <ele>146.9</ele>
        <time>2020-06-24T13:50:49Z</time>
      </trkpt>
      <trkpt lat="50.29736" lon="3.80733">
        <ele>146.9</ele>
        <time>2020-06-24T13:50:50Z</time>
      </trkpt>
      <trkpt lat="50.29737" lon="3.80742">
        <ele>147</ele>
        <time>2020-06-24T13:50:51Z</time>
      </trkpt>
      <trkpt lat="50.29737" lon="3.80749">
        <ele>147</ele>
        <time>2020-06-24T13:50:52Z</time>
      </trkpt>
      <trkpt lat="50.29737" lon="3.80757">
        <ele>147.1</ele>
        <time>2020-06-24T13:50:53Z</time>
      </trkpt>
      <trkpt lat="50.29737" lon="3.80765">
        <ele>147.2</ele>
        <time>2020-06-24T13:50:54Z</time>
      </trkpt>
      <trkpt lat="50.29737" lon="3.80772">
        <ele>147.2</ele>
        <time>2020-06-24T13:50:55Z</time>
      </trkpt>
      <trkpt lat="50.29735" lon="3.80778">
        <ele>147.2</ele>
        <time>2020-06-24T13:50:56Z</time>
      </trkpt>
      <trkpt lat="50.29734" lon="3.80789">
        <ele>147.3</ele>
        <time>2020-06-24T13:50:57Z</time>
      </trkpt>
      <trkpt lat="50.29733" lon="3.80798">
        <ele>147.4</ele>
        <time>2020-06-24T13:50:58Z</time>
      </trkpt>
      <trkpt lat="50.29733" lon="3.80806">
        <ele>147.5</ele>
        <time>2020-06-24T13:50:59Z</time>
      </trkpt>
      <trkpt lat="50.29732" lon="3.80813">
        <ele>147.6</ele>
        <time>2020-06-24T13:51:00Z</time>
      </trkpt>
      <trkpt lat="50.29732" lon="3.80822">
        <ele>147.7</ele>
        <time>2020-06-24T13:51:01Z</time>
      </trkpt>
      <trkpt lat="50.29733" lon="3.8083">
        <ele>148</ele>
        <time>2020-06-24T13:51:02Z</time>
      </trkpt>
      <trkpt lat="50.29732" lon="3.80838">
        <ele>148</ele>
        <time>2020-06-24T13:51:03Z</time>
      </trkpt>
      <trkpt lat="50.29732" lon="3.80844">
        <ele>148</ele>
        <time>2020-06-24T13:51:04Z</time>
      </trkpt>
      <trkpt lat="50.29731" lon="3.80852">
        <ele>148</ele>
        <time>2020-06-24T13:51:05Z</time>
      </trkpt>
      <trkpt lat="50.29731" lon="3.80858">
        <ele>148</ele>
        <time>2020-06-24T13:51:06Z</time>
      </trkpt>
      <trkpt lat="50.29731" lon="3.80865">
        <ele>148</ele>
        <time>2020-06-24T13:51:07Z</time>
      </trkpt>
      <trkpt lat="50.2973" lon="3.80873">
        <ele>148.1</ele>
        <time>2020-06-24T13:51:08Z</time>
      </trkpt>
      <trkpt lat="50.2973" lon="3.8088">
        <ele>148.1</ele>
        <time>2020-06-24T13:51:09Z</time>
      </trkpt>
      <trkpt lat="50.2973" lon="3.80888">
        <ele>148.2</ele>
        <time>2020-06-24T13:51:10Z</time>
      </trkpt>
      <trkpt lat="50.2973" lon="3.80896">
        <ele>148.2</ele>
        <time>2020-06-24T13:51:11Z</time>
      </trkpt>
      <trkpt lat="50.2973" lon="3.80904">
        <ele>148.3</ele>
        <time>2020-06-24T13:51:12Z</time>
      </trkpt>
      <trkpt lat="50.2973" lon="3.80912">
        <ele>148.4</ele>
        <time>2020-06-24T13:51:13Z</time>
      </trkpt>
      <trkpt lat="50.29729" lon="3.80926">
        <ele>148.5</ele>
        <time>2020-06-24T13:51:14Z</time>
      </trkpt>
      <trkpt lat="50.29729" lon="3.80932">
        <ele>148.6</ele>
        <time>2020-06-24T13:51:15Z</time>
      </trkpt>
      <trkpt lat="50.29729" lon="3.80938">
        <ele>148.7</ele>
        <time>2020-06-24T13:51:16Z</time>
      </trkpt>
      <trkpt lat="50.29729" lon="3.80944">
        <ele>148.8</ele>
        <time>2020-06-24T13:51:17Z</time>
      </trkpt>
      <trkpt lat="50.29729" lon="3.8095">
        <ele>148.8</ele>
        <time>2020-06-24T13:51:18Z</time>
      </trkpt>
      <trkpt lat="50.29729" lon="3.80956">
        <ele>148.9</ele>
        <time>2020-06-24T13:51:19Z</time>
      </trkpt>
      <trkpt lat="50.29729" lon="3.80963">
        <ele>149.1</ele>
        <time>2020-06-24T13:51:20Z</time>
      </trkpt>
      <trkpt lat="50.2973" lon="3.80972">
        <ele>149.2</ele>
        <time>2020-06-24T13:51:21Z</time>
      </trkpt>
      <trkpt lat="50.2973" lon="3.80978">
        <ele>149.3</ele>
        <time>2020-06-24T13:51:22Z</time>
      </trkpt>
      <trkpt lat="50.29729" lon="3.80986">
        <ele>149.6</ele>
        <time>2020-06-24T13:51:23Z</time>
      </trkpt>
      <trkpt lat="50.29729" lon="3.80994">
        <ele>149.7</ele>
        <time>2020-06-24T13:51:24Z</time>
      </trkpt>
      <trkpt lat="50.29728" lon="3.81001">
        <ele>149.8</ele>
        <time>2020-06-24T13:51:25Z</time>
      </trkpt>
      <trkpt lat="50.29728" lon="3.81008">
        <ele>149.9</ele>
        <time>2020-06-24T13:51:26Z</time>
      </trkpt>
      <trkpt lat="50.29727" lon="3.81015">
        <ele>150.1</ele>
        <time>2020-06-24T13:51:27Z</time>
      </trkpt>
      <trkpt lat="50.29726" lon="3.81022">
        <ele>150.2</ele>
        <time>2020-06-24T13:51:28Z</time>
      </trkpt>
      <trkpt lat="50.29726" lon="3.81025">
        <ele>150.3</ele>
        <time>2020-06-24T13:51:29Z</time>
      </trkpt>
      <trkpt lat="50.29725" lon="3.81032">
        <ele>150.4</ele>
        <time>2020-06-24T13:51:30Z</time>
      </trkpt>
      <trkpt lat="50.29725" lon="3.81038">
        <ele>150.5</ele>
        <time>2020-06-24T13:51:31Z</time>
      </trkpt>
      <trkpt lat="50.29725" lon="3.81042">
        <ele>150.6</ele>
        <time>2020-06-24T13:51:32Z</time>
      </trkpt>
      <trkpt lat="50.29725" lon="3.81049">
        <ele>150.7</ele>
        <time>2020-06-24T13:51:33Z</time>
      </trkpt>
      <trkpt lat="50.29725" lon="3.81054">
        <ele>150.9</ele>
        <time>2020-06-24T13:51:34Z</time>
      </trkpt>
      <trkpt lat="50.29724" lon="3.81059">
        <ele>151</ele>
        <time>2020-06-24T13:51:35Z</time>
      </trkpt>
      <trkpt lat="50.29723" lon="3.81066">
        <ele>151.1</ele>
        <time>2020-06-24T13:51:36Z</time>
      </trkpt>
      <trkpt lat="50.29723" lon="3.81073">
        <ele>151.3</ele>
        <time>2020-06-24T13:51:37Z</time>
      </trkpt>
      <trkpt lat="50.29722" lon="3.81079">
        <ele>151.4</ele>
        <time>2020-06-24T13:51:38Z</time>
      </trkpt>
      <trkpt lat="50.29722" lon="3.81087">
        <ele>151.6</ele>
        <time>2020-06-24T13:51:39Z</time>
      </trkpt>
      <trkpt lat="50.29722" lon="3.81093">
        <ele>151.8</ele>
        <time>2020-06-24T13:51:40Z</time>
      </trkpt>
      <trkpt lat="50.29722" lon="3.811">
        <ele>151.9</ele>
        <time>2020-06-24T13:51:41Z</time>
      </trkpt>
      <trkpt lat="50.29722" lon="3.81106">
        <ele>152.1</ele>
        <time>2020-06-24T13:51:42Z</time>
      </trkpt>
      <trkpt lat="50.29722" lon="3.81112">
        <ele>152.2</ele>
        <time>2020-06-24T13:51:43Z</time>
      </trkpt>
      <trkpt lat="50.29721" lon="3.81118">
        <ele>152.4</ele>
        <time>2020-06-24T13:51:44Z</time>
      </trkpt>
      <trkpt lat="50.29721" lon="3.81122">
        <ele>152.4</ele>
        <time>2020-06-24T13:51:45Z</time>
      </trkpt>
      <trkpt lat="50.29721" lon="3.81127">
        <ele>152.6</ele>
        <time>2020-06-24T13:51:46Z</time>
      </trkpt>
      <trkpt lat="50.2972" lon="3.81132">
        <ele>152.7</ele>
        <time>2020-06-24T13:51:47Z</time>
      </trkpt>
      <trkpt lat="50.29719" lon="3.81137">
        <ele>152.8</ele>
        <time>2020-06-24T13:51:48Z</time>
      </trkpt>
      <trkpt lat="50.29719" lon="3.81139">
        <ele>152.9</ele>
        <time>2020-06-24T13:51:49Z</time>
      </trkpt>
      <trkpt lat="50.29719" lon="3.81144">
        <ele>153</ele>
        <time>2020-06-24T13:51:50Z</time>
      </trkpt>
      <trkpt lat="50.29719" lon="3.8115">
        <ele>153.1</ele>
        <time>2020-06-24T13:51:51Z</time>
      </trkpt>
      <trkpt lat="50.29719" lon="3.81156">
        <ele>153.3</ele>
        <time>2020-06-24T13:51:52Z</time>
      </trkpt>
      <trkpt lat="50.29718" lon="3.81161">
        <ele>153.4</ele>
        <time>2020-06-24T13:51:53Z</time>
      </trkpt>
      <trkpt lat="50.29718" lon="3.81167">
        <ele>153.6</ele>
        <time>2020-06-24T13:51:54Z</time>
      </trkpt>
      <trkpt lat="50.29718" lon="3.81174">
        <ele>153.8</ele>
        <time>2020-06-24T13:51:55Z</time>
      </trkpt>
      <trkpt lat="50.29719" lon="3.8118">
        <ele>153.9</ele>
        <time>2020-06-24T13:51:56Z</time>
      </trkpt>
      <trkpt lat="50.29719" lon="3.81186">
        <ele>154</ele>
        <time>2020-06-24T13:51:57Z</time>
      </trkpt>
      <trkpt lat="50.29719" lon="3.81191">
        <ele>154.2</ele>
        <time>2020-06-24T13:51:58Z</time>
      </trkpt>
      <trkpt lat="50.2972" lon="3.81196">
        <ele>154.3</ele>
        <time>2020-06-24T13:51:59Z</time>
      </trkpt>
      <trkpt lat="50.2972" lon="3.81202">
        <ele>154.5</ele>
        <time>2020-06-24T13:52:00Z</time>
      </trkpt>
      <trkpt lat="50.2972" lon="3.81208">
        <ele>154.6</ele>
        <time>2020-06-24T13:52:01Z</time>
      </trkpt>
      <trkpt lat="50.2972" lon="3.81213">
        <ele>154.8</ele>
        <time>2020-06-24T13:52:02Z</time>
      </trkpt>
      <trkpt lat="50.2972" lon="3.8122">
        <ele>154.9</ele>
        <time>2020-06-24T13:52:03Z</time>
      </trkpt>
      <trkpt lat="50.29721" lon="3.81227">
        <ele>155.1</ele>
        <time>2020-06-24T13:52:04Z</time>
      </trkpt>
      <trkpt lat="50.29722" lon="3.81232">
        <ele>155.3</ele>
        <time>2020-06-24T13:52:05Z</time>
      </trkpt>
      <trkpt lat="50.29722" lon="3.81237">
        <ele>155.4</ele>
        <time>2020-06-24T13:52:06Z</time>
      </trkpt>
      <trkpt lat="50.29723" lon="3.81243">
        <ele>155.6</ele>
        <time>2020-06-24T13:52:07Z</time>
      </trkpt>
      <trkpt lat="50.29723" lon="3.81249">
        <ele>155.7</ele>
        <time>2020-06-24T13:52:08Z</time>
      </trkpt>
      <trkpt lat="50.29725" lon="3.81255">
        <ele>155.9</ele>
        <time>2020-06-24T13:52:09Z</time>
      </trkpt>
      <trkpt lat="50.29727" lon="3.81261">
        <ele>156.1</ele>
        <time>2020-06-24T13:52:10Z</time>
      </trkpt>
      <trkpt lat="50.29729" lon="3.81266">
        <ele>156.2</ele>
        <time>2020-06-24T13:52:11Z</time>
      </trkpt>
      <trkpt lat="50.29731" lon="3.81272">
        <ele>156.4</ele>
        <time>2020-06-24T13:52:12Z</time>
      </trkpt>
      <trkpt lat="50.29733" lon="3.81278">
        <ele>156.6</ele>
        <time>2020-06-24T13:52:13Z</time>
      </trkpt>
      <trkpt lat="50.29736" lon="3.81285">
        <ele>156.8</ele>
        <time>2020-06-24T13:52:14Z</time>
      </trkpt>
      <trkpt lat="50.29738" lon="3.81291">
        <ele>157</ele>
        <time>2020-06-24T13:52:15Z</time>
      </trkpt>
      <trkpt lat="50.2974" lon="3.81297">
        <ele>157.2</ele>
        <time>2020-06-24T13:52:16Z</time>
      </trkpt>
      <trkpt lat="50.29744" lon="3.81302">
        <ele>157.3</ele>
        <time>2020-06-24T13:52:17Z</time>
      </trkpt>
      <trkpt lat="50.29746" lon="3.8131">
        <ele>157.5</ele>
        <time>2020-06-24T13:52:18Z</time>
      </trkpt>
      <trkpt lat="50.29748" lon="3.81315">
        <ele>157.7</ele>
        <time>2020-06-24T13:52:19Z</time>
      </trkpt>
      <trkpt lat="50.29751" lon="3.81321">
        <ele>157.8</ele>
        <time>2020-06-24T13:52:20Z</time>
      </trkpt>
      <trkpt lat="50.29754" lon="3.81327">
        <ele>157.9</ele>
        <time>2020-06-24T13:52:21Z</time>
      </trkpt>
      <trkpt lat="50.29757" lon="3.81332">
        <ele>158</ele>
        <time>2020-06-24T13:52:22Z</time>
      </trkpt>
      <trkpt lat="50.29761" lon="3.81337">
        <ele>158.1</ele>
        <time>2020-06-24T13:52:23Z</time>
      </trkpt>
      <trkpt lat="50.29764" lon="3.81342">
        <ele>158.2</ele>
        <time>2020-06-24T13:52:24Z</time>
      </trkpt>
      <trkpt lat="50.29768" lon="3.81348">
        <ele>158.3</ele>
        <time>2020-06-24T13:52:25Z</time>
      </trkpt>
      <trkpt lat="50.29772" lon="3.81353">
        <ele>158.4</ele>
        <time>2020-06-24T13:52:26Z</time>
      </trkpt>
      <trkpt lat="50.29776" lon="3.81358">
        <ele>158.4</ele>
        <time>2020-06-24T13:52:27Z</time>
      </trkpt>
      <trkpt lat="50.29778" lon="3.81361">
        <ele>158.4</ele>
        <time>2020-06-24T13:52:28Z</time>
      </trkpt>
      <trkpt lat="50.2978" lon="3.81365">
        <ele>158.1</ele>
        <time>2020-06-24T13:52:29Z</time>
      </trkpt>
      <trkpt lat="50.29779" lon="3.81367">
        <ele>158</ele>
        <time>2020-06-24T13:52:30Z</time>
      </trkpt>
      <trkpt lat="50.2978" lon="3.81368">
        <ele>158</ele>
        <time>2020-06-24T13:52:31Z</time>
      </trkpt>
      <trkpt lat="50.2978" lon="3.81368">
        <ele>158</ele>
        <time>2020-06-24T13:52:32Z</time>
      </trkpt>
      <trkpt lat="50.29779" lon="3.81367">
        <ele>158</ele>
        <time>2020-06-24T13:52:33Z</time>
      </trkpt>
      <trkpt lat="50.29779" lon="3.81368">
        <ele>158</ele>
        <time>2020-06-24T13:52:34Z</time>
      </trkpt>
      <trkpt lat="50.29778" lon="3.81369">
        <ele>157.9</ele>
        <time>2020-06-24T13:52:35Z</time>
      </trkpt>
      <trkpt lat="50.29777" lon="3.81369">
        <ele>157.9</ele>
        <time>2020-06-24T13:52:36Z</time>
      </trkpt>
      <trkpt lat="50.29777" lon="3.81369">
        <ele>157.9</ele>
        <time>2020-06-24T13:52:37Z</time>
      </trkpt>
      <trkpt lat="50.29776" lon="3.8137">
        <ele>157.8</ele>
        <time>2020-06-24T13:52:38Z</time>
      </trkpt>
      <trkpt lat="50.29775" lon="3.81371">
        <ele>157.8</ele>
        <time>2020-06-24T13:52:39Z</time>
      </trkpt>
      <trkpt lat="50.29774" lon="3.81371">
        <ele>157.8</ele>
        <time>2020-06-24T13:52:40Z</time>
      </trkpt>
      <trkpt lat="50.29773" lon="3.81371">
        <ele>157.7</ele>
        <time>2020-06-24T13:52:41Z</time>
      </trkpt>
      <trkpt lat="50.29773" lon="3.81372">
        <ele>157.7</ele>
        <time>2020-06-24T13:52:42Z</time>
      </trkpt>
      <trkpt lat="50.29772" lon="3.81372">
        <ele>157.7</ele>
        <time>2020-06-24T13:52:54Z</time>
      </trkpt>
      <trkpt lat="50.29771" lon="3.81372">
        <ele>157.6</ele>
        <time>2020-06-24T13:52:55Z</time>
      </trkpt>
      <trkpt lat="50.29769" lon="3.81377">
        <ele>157.5</ele>
        <time>2020-06-24T13:52:56Z</time>
      </trkpt>
      <trkpt lat="50.29766" lon="3.8138">
        <ele>157.3</ele>
        <time>2020-06-24T13:52:57Z</time>
      </trkpt>
      <trkpt lat="50.29764" lon="3.81384">
        <ele>157.2</ele>
        <time>2020-06-24T13:52:58Z</time>
      </trkpt>
      <trkpt lat="50.2976" lon="3.81389">
        <ele>157</ele>
        <time>2020-06-24T13:52:59Z</time>
      </trkpt>
      <trkpt lat="50.29757" lon="3.81395">
        <ele>156.7</ele>
        <time>2020-06-24T13:53:00Z</time>
      </trkpt>
      <trkpt lat="50.29754" lon="3.814">
        <ele>156.5</ele>
        <time>2020-06-24T13:53:01Z</time>
      </trkpt>
      <trkpt lat="50.2975" lon="3.81404">
        <ele>156.4</ele>
        <time>2020-06-24T13:53:02Z</time>
      </trkpt>
      <trkpt lat="50.29747" lon="3.81411">
        <ele>156.1</ele>
        <time>2020-06-24T13:53:03Z</time>
      </trkpt>
      <trkpt lat="50.29743" lon="3.81417">
        <ele>155.9</ele>
        <time>2020-06-24T13:53:04Z</time>
      </trkpt>
      <trkpt lat="50.29739" lon="3.81423">
        <ele>155.7</ele>
        <time>2020-06-24T13:53:05Z</time>
      </trkpt>
      <trkpt lat="50.29737" lon="3.8143">
        <ele>155.6</ele>
        <time>2020-06-24T13:53:06Z</time>
      </trkpt>
      <trkpt lat="50.29733" lon="3.81438">
        <ele>155.4</ele>
        <time>2020-06-24T13:53:07Z</time>
      </trkpt>
      <trkpt lat="50.29729" lon="3.81447">
        <ele>155.1</ele>
        <time>2020-06-24T13:53:08Z</time>
      </trkpt>
      <trkpt lat="50.29725" lon="3.81455">
        <ele>154.9</ele>
        <time>2020-06-24T13:53:09Z</time>
      </trkpt>
      <trkpt lat="50.29719" lon="3.81463">
        <ele>154.6</ele>
        <time>2020-06-24T13:53:10Z</time>
      </trkpt>
      <trkpt lat="50.29715" lon="3.81474">
        <ele>154.3</ele>
        <time>2020-06-24T13:53:11Z</time>
      </trkpt>
      <trkpt lat="50.29711" lon="3.81481">
        <ele>154.1</ele>
        <time>2020-06-24T13:53:12Z</time>
      </trkpt>
      <trkpt lat="50.29708" lon="3.81488">
        <ele>154</ele>
        <time>2020-06-24T13:53:13Z</time>
      </trkpt>
      <trkpt lat="50.29705" lon="3.81495">
        <ele>153.9</ele>
        <time>2020-06-24T13:53:14Z</time>
      </trkpt>
      <trkpt lat="50.29699" lon="3.81502">
        <ele>153.8</ele>
        <time>2020-06-24T13:53:15Z</time>
      </trkpt>
      <trkpt lat="50.29694" lon="3.81508">
        <ele>153.6</ele>
        <time>2020-06-24T13:53:16Z</time>
      </trkpt>
      <trkpt lat="50.29689" lon="3.81514">
        <ele>155.2</ele>
        <time>2020-06-24T13:53:17Z</time>
      </trkpt>
      <trkpt lat="50.29684" lon="3.81518">
        <ele>154.7</ele>
        <time>2020-06-24T13:53:18Z</time>
      </trkpt>
      <trkpt lat="50.29679" lon="3.81524">
        <ele>154.2</ele>
        <time>2020-06-24T13:53:19Z</time>
      </trkpt>
      <trkpt lat="50.29675" lon="3.81531">
        <ele>153.7</ele>
        <time>2020-06-24T13:53:20Z</time>
      </trkpt>
      <trkpt lat="50.29674" lon="3.81539">
        <ele>153.3</ele>
        <time>2020-06-24T13:53:21Z</time>
      </trkpt>
      <trkpt lat="50.29674" lon="3.81547">
        <ele>154.6</ele>
        <time>2020-06-24T13:53:22Z</time>
      </trkpt>
      <trkpt lat="50.29673" lon="3.81555">
        <ele>154.4</ele>
        <time>2020-06-24T13:53:23Z</time>
      </trkpt>
      <trkpt lat="50.2967" lon="3.81563">
        <ele>154.2</ele>
        <time>2020-06-24T13:53:24Z</time>
      </trkpt>
      <trkpt lat="50.29666" lon="3.81572">
        <ele>153.9</ele>
        <time>2020-06-24T13:53:25Z</time>
      </trkpt>
      <trkpt lat="50.29663" lon="3.81579">
        <ele>153.6</ele>
        <time>2020-06-24T13:53:26Z</time>
      </trkpt>
      <trkpt lat="50.2966" lon="3.81587">
        <ele>153.3</ele>
        <time>2020-06-24T13:53:27Z</time>
      </trkpt>
      <trkpt lat="50.29657" lon="3.81597">
        <ele>152.9</ele>
        <time>2020-06-24T13:53:28Z</time>
      </trkpt>
      <trkpt lat="50.29655" lon="3.81605">
        <ele>152.6</ele>
        <time>2020-06-24T13:53:29Z</time>
      </trkpt>
      <trkpt lat="50.29654" lon="3.81615">
        <ele>152.3</ele>
        <time>2020-06-24T13:53:30Z</time>
      </trkpt>
      <trkpt lat="50.29653" lon="3.81626">
        <ele>151.6</ele>
        <time>2020-06-24T13:53:31Z</time>
      </trkpt>
      <trkpt lat="50.29653" lon="3.81633">
        <ele>151.6</ele>
        <time>2020-06-24T13:53:32Z</time>
      </trkpt>
      <trkpt lat="50.29653" lon="3.81642">
        <ele>151.5</ele>
        <time>2020-06-24T13:53:33Z</time>
      </trkpt>
      <trkpt lat="50.29653" lon="3.81653">
        <ele>151.5</ele>
        <time>2020-06-24T13:53:34Z</time>
      </trkpt>
      <trkpt lat="50.29652" lon="3.81662">
        <ele>151.5</ele>
        <time>2020-06-24T13:53:35Z</time>
      </trkpt>
      <trkpt lat="50.29652" lon="3.81672">
        <ele>151.5</ele>
        <time>2020-06-24T13:53:36Z</time>
      </trkpt>
      <trkpt lat="50.29651" lon="3.81681">
        <ele>151.5</ele>
        <time>2020-06-24T13:53:37Z</time>
      </trkpt>
      <trkpt lat="50.29652" lon="3.81691">
        <ele>151.6</ele>
        <time>2020-06-24T13:53:38Z</time>
      </trkpt>
      <trkpt lat="50.29652" lon="3.81699">
        <ele>151.6</ele>
        <time>2020-06-24T13:53:39Z</time>
      </trkpt>
      <trkpt lat="50.29652" lon="3.81708">
        <ele>151.7</ele>
        <time>2020-06-24T13:53:40Z</time>
      </trkpt>
      <trkpt lat="50.29653" lon="3.81717">
        <ele>151.8</ele>
        <time>2020-06-24T13:53:41Z</time>
      </trkpt>
      <trkpt lat="50.29654" lon="3.81726">
        <ele>151.9</ele>
        <time>2020-06-24T13:53:42Z</time>
      </trkpt>
      <trkpt lat="50.29657" lon="3.81735">
        <ele>152</ele>
        <time>2020-06-24T13:53:43Z</time>
      </trkpt>
      <trkpt lat="50.29659" lon="3.81741">
        <ele>152.1</ele>
        <time>2020-06-24T13:53:44Z</time>
      </trkpt>
      <trkpt lat="50.29662" lon="3.81748">
        <ele>152.2</ele>
        <time>2020-06-24T13:53:45Z</time>
      </trkpt>
      <trkpt lat="50.29665" lon="3.81755">
        <ele>152.3</ele>
        <time>2020-06-24T13:53:46Z</time>
      </trkpt>
      <trkpt lat="50.29667" lon="3.81761">
        <ele>152.4</ele>
        <time>2020-06-24T13:53:47Z</time>
      </trkpt>
      <trkpt lat="50.29669" lon="3.81768">
        <ele>152.5</ele>
        <time>2020-06-24T13:53:48Z</time>
      </trkpt>
      <trkpt lat="50.29672" lon="3.81775">
        <ele>152.7</ele>
        <time>2020-06-24T13:53:49Z</time>
      </trkpt>
      <trkpt lat="50.29675" lon="3.81782">
        <ele>152.8</ele>
        <time>2020-06-24T13:53:50Z</time>
      </trkpt>
      <trkpt lat="50.29677" lon="3.81789">
        <ele>153</ele>
        <time>2020-06-24T13:53:51Z</time>
      </trkpt>
      <trkpt lat="50.29678" lon="3.81794">
        <ele>153.1</ele>
        <time>2020-06-24T13:53:52Z</time>
      </trkpt>
      <trkpt lat="50.2968" lon="3.81799">
        <ele>153.1</ele>
        <time>2020-06-24T13:53:53Z</time>
      </trkpt>
      <trkpt lat="50.29681" lon="3.81807">
        <ele>153.3</ele>
        <time>2020-06-24T13:53:54Z</time>
      </trkpt>
      <trkpt lat="50.29683" lon="3.81813">
        <ele>153.4</ele>
        <time>2020-06-24T13:53:55Z</time>
      </trkpt>
      <trkpt lat="50.29684" lon="3.81819">
        <ele>153.5</ele>
        <time>2020-06-24T13:53:56Z</time>
      </trkpt>
      <trkpt lat="50.29685" lon="3.81825">
        <ele>153.5</ele>
        <time>2020-06-24T13:53:57Z</time>
      </trkpt>
      <trkpt lat="50.29686" lon="3.81831">
        <ele>153.6</ele>
        <time>2020-06-24T13:53:58Z</time>
      </trkpt>
      <trkpt lat="50.29687" lon="3.81837">
        <ele>153.7</ele>
        <time>2020-06-24T13:53:59Z</time>
      </trkpt>
      <trkpt lat="50.29688" lon="3.81842">
        <ele>153.8</ele>
        <time>2020-06-24T13:54:00Z</time>
      </trkpt>
      <trkpt lat="50.29689" lon="3.81848">
        <ele>153.8</ele>
        <time>2020-06-24T13:54:01Z</time>
      </trkpt>
      <trkpt lat="50.2969" lon="3.81855">
        <ele>153.9</ele>
        <time>2020-06-24T13:54:02Z</time>
      </trkpt>
      <trkpt lat="50.29691" lon="3.81863">
        <ele>154</ele>
        <time>2020-06-24T13:54:03Z</time>
      </trkpt>
      <trkpt lat="50.29691" lon="3.81869">
        <ele>154</ele>
        <time>2020-06-24T13:54:04Z</time>
      </trkpt>
      <trkpt lat="50.29692" lon="3.81877">
        <ele>154.1</ele>
        <time>2020-06-24T13:54:05Z</time>
      </trkpt>
      <trkpt lat="50.29691" lon="3.81882">
        <ele>154.2</ele>
        <time>2020-06-24T13:54:06Z</time>
      </trkpt>
      <trkpt lat="50.29691" lon="3.8189">
        <ele>154.2</ele>
        <time>2020-06-24T13:54:07Z</time>
      </trkpt>
      <trkpt lat="50.29691" lon="3.81898">
        <ele>154.3</ele>
        <time>2020-06-24T13:54:08Z</time>
      </trkpt>
      <trkpt lat="50.2969" lon="3.81906">
        <ele>154.3</ele>
        <time>2020-06-24T13:54:09Z</time>
      </trkpt>
      <trkpt lat="50.2969" lon="3.81913">
        <ele>154.4</ele>
        <time>2020-06-24T13:54:10Z</time>
      </trkpt>
      <trkpt lat="50.29689" lon="3.8192">
        <ele>154.4</ele>
        <time>2020-06-24T13:54:11Z</time>
      </trkpt>
      <trkpt lat="50.29688" lon="3.81928">
        <ele>154.5</ele>
        <time>2020-06-24T13:54:12Z</time>
      </trkpt>
      <trkpt lat="50.29686" lon="3.81935">
        <ele>154.5</ele>
        <time>2020-06-24T13:54:13Z</time>
      </trkpt>
      <trkpt lat="50.29686" lon="3.81944">
        <ele>154.6</ele>
        <time>2020-06-24T13:54:14Z</time>
      </trkpt>
      <trkpt lat="50.29685" lon="3.8195">
        <ele>154.6</ele>
        <time>2020-06-24T13:54:15Z</time>
      </trkpt>
      <trkpt lat="50.29684" lon="3.81958">
        <ele>154.6</ele>
        <time>2020-06-24T13:54:16Z</time>
      </trkpt>
      <trkpt lat="50.29684" lon="3.81966">
        <ele>154.6</ele>
        <time>2020-06-24T13:54:17Z</time>
      </trkpt>
      <trkpt lat="50.29684" lon="3.81971">
        <ele>154.7</ele>
        <time>2020-06-24T13:54:18Z</time>
      </trkpt>
      <trkpt lat="50.29683" lon="3.81979">
        <ele>154.7</ele>
        <time>2020-06-24T13:54:19Z</time>
      </trkpt>
      <trkpt lat="50.29682" lon="3.81987">
        <ele>154.7</ele>
        <time>2020-06-24T13:54:20Z</time>
      </trkpt>
      <trkpt lat="50.29681" lon="3.81995">
        <ele>154.7</ele>
        <time>2020-06-24T13:54:21Z</time>
      </trkpt>
      <trkpt lat="50.29679" lon="3.82004">
        <ele>154.7</ele>
        <time>2020-06-24T13:54:22Z</time>
      </trkpt>
      <trkpt lat="50.29678" lon="3.82013">
        <ele>154.7</ele>
        <time>2020-06-24T13:54:23Z</time>
      </trkpt>
      <trkpt lat="50.29677" lon="3.82018">
        <ele>154.7</ele>
        <time>2020-06-24T13:54:24Z</time>
      </trkpt>
      <trkpt lat="50.29676" lon="3.82026">
        <ele>154.7</ele>
        <time>2020-06-24T13:54:25Z</time>
      </trkpt>
      <trkpt lat="50.29676" lon="3.82035">
        <ele>154.6</ele>
        <time>2020-06-24T13:54:26Z</time>
      </trkpt>
      <trkpt lat="50.29675" lon="3.82043">
        <ele>154.6</ele>
        <time>2020-06-24T13:54:27Z</time>
      </trkpt>
      <trkpt lat="50.29675" lon="3.82051">
        <ele>154.6</ele>
        <time>2020-06-24T13:54:28Z</time>
      </trkpt>
      <trkpt lat="50.29674" lon="3.8206">
        <ele>154.6</ele>
        <time>2020-06-24T13:54:29Z</time>
      </trkpt>
      <trkpt lat="50.29674" lon="3.82067">
        <ele>154.6</ele>
        <time>2020-06-24T13:54:30Z</time>
      </trkpt>
      <trkpt lat="50.29674" lon="3.82077">
        <ele>154.7</ele>
        <time>2020-06-24T13:54:31Z</time>
      </trkpt>
      <trkpt lat="50.29674" lon="3.82085">
        <ele>154.7</ele>
        <time>2020-06-24T13:54:32Z</time>
      </trkpt>
      <trkpt lat="50.29674" lon="3.82093">
        <ele>154.6</ele>
        <time>2020-06-24T13:54:33Z</time>
      </trkpt>
      <trkpt lat="50.29674" lon="3.821">
        <ele>154.5</ele>
        <time>2020-06-24T13:54:34Z</time>
      </trkpt>
      <trkpt lat="50.29674" lon="3.82109">
        <ele>154.4</ele>
        <time>2020-06-24T13:54:35Z</time>
      </trkpt>
      <trkpt lat="50.29673" lon="3.82116">
        <ele>154.3</ele>
        <time>2020-06-24T13:54:36Z</time>
      </trkpt>
      <trkpt lat="50.29674" lon="3.82124">
        <ele>154.2</ele>
        <time>2020-06-24T13:54:37Z</time>
      </trkpt>
      <trkpt lat="50.29674" lon="3.82134">
        <ele>154.1</ele>
        <time>2020-06-24T13:54:38Z</time>
      </trkpt>
      <trkpt lat="50.29674" lon="3.82143">
        <ele>154</ele>
        <time>2020-06-24T13:54:39Z</time>
      </trkpt>
      <trkpt lat="50.29674" lon="3.82151">
        <ele>154</ele>
        <time>2020-06-24T13:54:40Z</time>
      </trkpt>
      <trkpt lat="50.29674" lon="3.8216">
        <ele>153.9</ele>
        <time>2020-06-24T13:54:41Z</time>
      </trkpt>
      <trkpt lat="50.29674" lon="3.82168">
        <ele>153.8</ele>
        <time>2020-06-24T13:54:42Z</time>
      </trkpt>
      <trkpt lat="50.29673" lon="3.82176">
        <ele>153.7</ele>
        <time>2020-06-24T13:54:43Z</time>
      </trkpt>
      <trkpt lat="50.29673" lon="3.82186">
        <ele>153.6</ele>
        <time>2020-06-24T13:54:44Z</time>
      </trkpt>
      <trkpt lat="50.29673" lon="3.82196">
        <ele>153.5</ele>
        <time>2020-06-24T13:54:45Z</time>
      </trkpt>
      <trkpt lat="50.29673" lon="3.82203">
        <ele>153.4</ele>
        <time>2020-06-24T13:54:46Z</time>
      </trkpt>
      <trkpt lat="50.29673" lon="3.82212">
        <ele>153.3</ele>
        <time>2020-06-24T13:54:47Z</time>
      </trkpt>
      <trkpt lat="50.29674" lon="3.8222">
        <ele>153.2</ele>
        <time>2020-06-24T13:54:48Z</time>
      </trkpt>
      <trkpt lat="50.29673" lon="3.8223">
        <ele>153.1</ele>
        <time>2020-06-24T13:54:49Z</time>
      </trkpt>
      <trkpt lat="50.29673" lon="3.82239">
        <ele>153</ele>
        <time>2020-06-24T13:54:50Z</time>
      </trkpt>
      <trkpt lat="50.29672" lon="3.82248">
        <ele>152.9</ele>
        <time>2020-06-24T13:54:51Z</time>
      </trkpt>
      <trkpt lat="50.29671" lon="3.82259">
        <ele>152.7</ele>
        <time>2020-06-24T13:54:52Z</time>
      </trkpt>
      <trkpt lat="50.2967" lon="3.82268">
        <ele>152.6</ele>
        <time>2020-06-24T13:54:53Z</time>
      </trkpt>
      <trkpt lat="50.29671" lon="3.82279">
        <ele>152.5</ele>
        <time>2020-06-24T13:54:54Z</time>
      </trkpt>
      <trkpt lat="50.29671" lon="3.8229">
        <ele>152.3</ele>
        <time>2020-06-24T13:54:55Z</time>
      </trkpt>
      <trkpt lat="50.29672" lon="3.823">
        <ele>152.2</ele>
        <time>2020-06-24T13:54:56Z</time>
      </trkpt>
      <trkpt lat="50.29672" lon="3.82309">
        <ele>152.1</ele>
        <time>2020-06-24T13:54:57Z</time>
      </trkpt>
      <trkpt lat="50.29672" lon="3.8232">
        <ele>152</ele>
        <time>2020-06-24T13:54:58Z</time>
      </trkpt>
      <trkpt lat="50.29673" lon="3.8233">
        <ele>151.9</ele>
        <time>2020-06-24T13:54:59Z</time>
      </trkpt>
      <trkpt lat="50.29673" lon="3.8234">
        <ele>151.8</ele>
        <time>2020-06-24T13:55:00Z</time>
      </trkpt>
      <trkpt lat="50.29674" lon="3.82351">
        <ele>151.7</ele>
        <time>2020-06-24T13:55:01Z</time>
      </trkpt>
      <trkpt lat="50.29675" lon="3.82361">
        <ele>151.5</ele>
        <time>2020-06-24T13:55:02Z</time>
      </trkpt>
      <trkpt lat="50.29675" lon="3.82372">
        <ele>151.4</ele>
        <time>2020-06-24T13:55:03Z</time>
      </trkpt>
      <trkpt lat="50.29675" lon="3.82381">
        <ele>151.3</ele>
        <time>2020-06-24T13:55:04Z</time>
      </trkpt>
      <trkpt lat="50.29675" lon="3.82391">
        <ele>151.1</ele>
        <time>2020-06-24T13:55:05Z</time>
      </trkpt>
      <trkpt lat="50.29675" lon="3.82401">
        <ele>151</ele>
        <time>2020-06-24T13:55:06Z</time>
      </trkpt>
      <trkpt lat="50.29675" lon="3.82411">
        <ele>150.9</ele>
        <time>2020-06-24T13:55:07Z</time>
      </trkpt>
      <trkpt lat="50.29674" lon="3.82421">
        <ele>150.8</ele>
        <time>2020-06-24T13:55:08Z</time>
      </trkpt>
      <trkpt lat="50.29674" lon="3.82431">
        <ele>150.7</ele>
        <time>2020-06-24T13:55:09Z</time>
      </trkpt>
      <trkpt lat="50.29674" lon="3.82442">
        <ele>150.6</ele>
        <time>2020-06-24T13:55:10Z</time>
      </trkpt>
      <trkpt lat="50.29674" lon="3.82451">
        <ele>150.5</ele>
        <time>2020-06-24T13:55:11Z</time>
      </trkpt>
      <trkpt lat="50.29673" lon="3.82458">
        <ele>150.4</ele>
        <time>2020-06-24T13:55:12Z</time>
      </trkpt>
      <trkpt lat="50.29672" lon="3.82467">
        <ele>150.3</ele>
        <time>2020-06-24T13:55:13Z</time>
      </trkpt>
      <trkpt lat="50.29671" lon="3.82476">
        <ele>150.2</ele>
        <time>2020-06-24T13:55:14Z</time>
      </trkpt>
      <trkpt lat="50.29671" lon="3.82483">
        <ele>150.1</ele>
        <time>2020-06-24T13:55:15Z</time>
      </trkpt>
      <trkpt lat="50.29671" lon="3.82494">
        <ele>150</ele>
        <time>2020-06-24T13:55:16Z</time>
      </trkpt>
      <trkpt lat="50.29672" lon="3.82504">
        <ele>149.9</ele>
        <time>2020-06-24T13:55:17Z</time>
      </trkpt>
      <trkpt lat="50.29672" lon="3.82515">
        <ele>149.8</ele>
        <time>2020-06-24T13:55:18Z</time>
      </trkpt>
      <trkpt lat="50.29672" lon="3.82526">
        <ele>149.6</ele>
        <time>2020-06-24T13:55:19Z</time>
      </trkpt>
      <trkpt lat="50.29672" lon="3.82536">
        <ele>149.5</ele>
        <time>2020-06-24T13:55:20Z</time>
      </trkpt>
      <trkpt lat="50.29671" lon="3.82547">
        <ele>149.4</ele>
        <time>2020-06-24T13:55:21Z</time>
      </trkpt>
      <trkpt lat="50.29671" lon="3.82557">
        <ele>149.3</ele>
        <time>2020-06-24T13:55:22Z</time>
      </trkpt>
      <trkpt lat="50.2967" lon="3.82568">
        <ele>149.1</ele>
        <time>2020-06-24T13:55:23Z</time>
      </trkpt>
      <trkpt lat="50.29669" lon="3.82579">
        <ele>149</ele>
        <time>2020-06-24T13:55:24Z</time>
      </trkpt>
      <trkpt lat="50.29669" lon="3.8259">
        <ele>148.9</ele>
        <time>2020-06-24T13:55:25Z</time>
      </trkpt>
      <trkpt lat="50.29669" lon="3.82601">
        <ele>148.7</ele>
        <time>2020-06-24T13:55:26Z</time>
      </trkpt>
      <trkpt lat="50.29668" lon="3.82612">
        <ele>148.6</ele>
        <time>2020-06-24T13:55:27Z</time>
      </trkpt>
      <trkpt lat="50.29668" lon="3.82623">
        <ele>148.5</ele>
        <time>2020-06-24T13:55:28Z</time>
      </trkpt>
      <trkpt lat="50.29668" lon="3.82634">
        <ele>148.3</ele>
        <time>2020-06-24T13:55:29Z</time>
      </trkpt>
      <trkpt lat="50.29667" lon="3.82644">
        <ele>148.2</ele>
        <time>2020-06-24T13:55:30Z</time>
      </trkpt>
      <trkpt lat="50.29666" lon="3.82654">
        <ele>148.1</ele>
        <time>2020-06-24T13:55:31Z</time>
      </trkpt>
      <trkpt lat="50.29666" lon="3.82665">
        <ele>148</ele>
        <time>2020-06-24T13:55:32Z</time>
      </trkpt>
      <trkpt lat="50.29666" lon="3.82676">
        <ele>147.8</ele>
        <time>2020-06-24T13:55:33Z</time>
      </trkpt>
      <trkpt lat="50.29665" lon="3.82687">
        <ele>147.7</ele>
        <time>2020-06-24T13:55:34Z</time>
      </trkpt>
      <trkpt lat="50.29665" lon="3.82697">
        <ele>147.5</ele>
        <time>2020-06-24T13:55:35Z</time>
      </trkpt>
      <trkpt lat="50.29665" lon="3.82708">
        <ele>147.4</ele>
        <time>2020-06-24T13:55:36Z</time>
      </trkpt>
      <trkpt lat="50.29664" lon="3.82719">
        <ele>147.2</ele>
        <time>2020-06-24T13:55:37Z</time>
      </trkpt>
      <trkpt lat="50.29664" lon="3.8273">
        <ele>147.1</ele>
        <time>2020-06-24T13:55:38Z</time>
      </trkpt>
      <trkpt lat="50.29663" lon="3.82741">
        <ele>146.9</ele>
        <time>2020-06-24T13:55:39Z</time>
      </trkpt>
      <trkpt lat="50.29663" lon="3.82753">
        <ele>146.7</ele>
        <time>2020-06-24T13:55:40Z</time>
      </trkpt>
      <trkpt lat="50.29663" lon="3.82764">
        <ele>146.6</ele>
        <time>2020-06-24T13:55:41Z</time>
      </trkpt>
      <trkpt lat="50.29662" lon="3.82775">
        <ele>146.4</ele>
        <time>2020-06-24T13:55:42Z</time>
      </trkpt>
      <trkpt lat="50.29661" lon="3.82786">
        <ele>146.3</ele>
        <time>2020-06-24T13:55:43Z</time>
      </trkpt>
      <trkpt lat="50.29661" lon="3.82797">
        <ele>146.2</ele>
        <time>2020-06-24T13:55:44Z</time>
      </trkpt>
      <trkpt lat="50.29661" lon="3.82808">
        <ele>146</ele>
        <time>2020-06-24T13:55:45Z</time>
      </trkpt>
      <trkpt lat="50.2966" lon="3.82819">
        <ele>145.9</ele>
        <time>2020-06-24T13:55:46Z</time>
      </trkpt>
      <trkpt lat="50.2966" lon="3.8283">
        <ele>145.8</ele>
        <time>2020-06-24T13:55:47Z</time>
      </trkpt>
      <trkpt lat="50.2966" lon="3.82841">
        <ele>145.7</ele>
        <time>2020-06-24T13:55:48Z</time>
      </trkpt>
      <trkpt lat="50.2966" lon="3.82852">
        <ele>145.6</ele>
        <time>2020-06-24T13:55:49Z</time>
      </trkpt>
      <trkpt lat="50.29659" lon="3.82863">
        <ele>145.5</ele>
        <time>2020-06-24T13:55:50Z</time>
      </trkpt>
      <trkpt lat="50.2966" lon="3.82873">
        <ele>145.4</ele>
        <time>2020-06-24T13:55:51Z</time>
      </trkpt>
      <trkpt lat="50.29659" lon="3.82884">
        <ele>145.3</ele>
        <time>2020-06-24T13:55:52Z</time>
      </trkpt>
      <trkpt lat="50.29659" lon="3.82895">
        <ele>145.1</ele>
        <time>2020-06-24T13:55:53Z</time>
      </trkpt>
      <trkpt lat="50.29659" lon="3.82905">
        <ele>145</ele>
        <time>2020-06-24T13:55:54Z</time>
      </trkpt>
      <trkpt lat="50.29658" lon="3.82916">
        <ele>144.9</ele>
        <time>2020-06-24T13:55:55Z</time>
      </trkpt>
      <trkpt lat="50.29658" lon="3.82926">
        <ele>144.9</ele>
        <time>2020-06-24T13:55:56Z</time>
      </trkpt>
      <trkpt lat="50.29657" lon="3.82936">
        <ele>144.8</ele>
        <time>2020-06-24T13:55:57Z</time>
      </trkpt>
      <trkpt lat="50.29657" lon="3.82947">
        <ele>144.8</ele>
        <time>2020-06-24T13:55:58Z</time>
      </trkpt>
      <trkpt lat="50.29656" lon="3.82957">
        <ele>144.7</ele>
        <time>2020-06-24T13:55:59Z</time>
      </trkpt>
      <trkpt lat="50.29656" lon="3.82968">
        <ele>144.6</ele>
        <time>2020-06-24T13:56:00Z</time>
      </trkpt>
      <trkpt lat="50.29656" lon="3.82978">
        <ele>144.6</ele>
        <time>2020-06-24T13:56:01Z</time>
      </trkpt>
      <trkpt lat="50.29655" lon="3.82989">
        <ele>144.5</ele>
        <time>2020-06-24T13:56:02Z</time>
      </trkpt>
      <trkpt lat="50.29655" lon="3.82999">
        <ele>144.4</ele>
        <time>2020-06-24T13:56:03Z</time>
      </trkpt>
      <trkpt lat="50.29655" lon="3.83009">
        <ele>144.4</ele>
        <time>2020-06-24T13:56:04Z</time>
      </trkpt>
      <trkpt lat="50.29655" lon="3.83019">
        <ele>144.4</ele>
        <time>2020-06-24T13:56:05Z</time>
      </trkpt>
      <trkpt lat="50.29654" lon="3.83029">
        <ele>144.3</ele>
        <time>2020-06-24T13:56:06Z</time>
      </trkpt>
      <trkpt lat="50.29653" lon="3.83039">
        <ele>144.3</ele>
        <time>2020-06-24T13:56:07Z</time>
      </trkpt>
      <trkpt lat="50.29653" lon="3.83049">
        <ele>144.3</ele>
        <time>2020-06-24T13:56:08Z</time>
      </trkpt>
      <trkpt lat="50.29652" lon="3.83058">
        <ele>144.2</ele>
        <time>2020-06-24T13:56:09Z</time>
      </trkpt>
      <trkpt lat="50.29652" lon="3.83068">
        <ele>144.2</ele>
        <time>2020-06-24T13:56:10Z</time>
      </trkpt>
      <trkpt lat="50.29652" lon="3.83078">
        <ele>144.2</ele>
        <time>2020-06-24T13:56:11Z</time>
      </trkpt>
      <trkpt lat="50.29652" lon="3.83087">
        <ele>144.1</ele>
        <time>2020-06-24T13:56:12Z</time>
      </trkpt>
      <trkpt lat="50.29651" lon="3.83098">
        <ele>144.1</ele>
        <time>2020-06-24T13:56:13Z</time>
      </trkpt>
      <trkpt lat="50.29651" lon="3.83107">
        <ele>144</ele>
        <time>2020-06-24T13:56:14Z</time>
      </trkpt>
      <trkpt lat="50.29651" lon="3.83117">
        <ele>144</ele>
        <time>2020-06-24T13:56:15Z</time>
      </trkpt>
      <trkpt lat="50.29651" lon="3.83126">
        <ele>144</ele>
        <time>2020-06-24T13:56:16Z</time>
      </trkpt>
      <trkpt lat="50.2965" lon="3.83135">
        <ele>144</ele>
        <time>2020-06-24T13:56:17Z</time>
      </trkpt>
      <trkpt lat="50.2965" lon="3.83143">
        <ele>143.9</ele>
        <time>2020-06-24T13:56:18Z</time>
      </trkpt>
      <trkpt lat="50.29649" lon="3.83152">
        <ele>143.9</ele>
        <time>2020-06-24T13:56:19Z</time>
      </trkpt>
      <trkpt lat="50.29648" lon="3.8316">
        <ele>143.9</ele>
        <time>2020-06-24T13:56:20Z</time>
      </trkpt>
      <trkpt lat="50.29648" lon="3.83169">
        <ele>143.9</ele>
        <time>2020-06-24T13:56:21Z</time>
      </trkpt>
      <trkpt lat="50.29648" lon="3.83179">
        <ele>143.9</ele>
        <time>2020-06-24T13:56:22Z</time>
      </trkpt>
      <trkpt lat="50.29648" lon="3.83188">
        <ele>143.9</ele>
        <time>2020-06-24T13:56:23Z</time>
      </trkpt>
      <trkpt lat="50.29647" lon="3.83197">
        <ele>143.8</ele>
        <time>2020-06-24T13:56:24Z</time>
      </trkpt>
      <trkpt lat="50.29647" lon="3.83207">
        <ele>143.8</ele>
        <time>2020-06-24T13:56:25Z</time>
      </trkpt>
      <trkpt lat="50.29647" lon="3.83216">
        <ele>143.8</ele>
        <time>2020-06-24T13:56:26Z</time>
      </trkpt>
      <trkpt lat="50.29647" lon="3.83224">
        <ele>143.9</ele>
        <time>2020-06-24T13:56:27Z</time>
      </trkpt>
      <trkpt lat="50.29647" lon="3.83233">
        <ele>143.9</ele>
        <time>2020-06-24T13:56:28Z</time>
      </trkpt>
      <trkpt lat="50.29647" lon="3.83241">
        <ele>143.9</ele>
        <time>2020-06-24T13:56:29Z</time>
      </trkpt>
      <trkpt lat="50.29646" lon="3.8325">
        <ele>144</ele>
        <time>2020-06-24T13:56:30Z</time>
      </trkpt>
      <trkpt lat="50.29646" lon="3.83258">
        <ele>144</ele>
        <time>2020-06-24T13:56:31Z</time>
      </trkpt>
      <trkpt lat="50.29645" lon="3.83267">
        <ele>144</ele>
        <time>2020-06-24T13:56:32Z</time>
      </trkpt>
      <trkpt lat="50.29645" lon="3.83275">
        <ele>144.1</ele>
        <time>2020-06-24T13:56:33Z</time>
      </trkpt>
      <trkpt lat="50.29645" lon="3.83284">
        <ele>144.2</ele>
        <time>2020-06-24T13:56:34Z</time>
      </trkpt>
      <trkpt lat="50.29644" lon="3.83293">
        <ele>144.2</ele>
        <time>2020-06-24T13:56:35Z</time>
      </trkpt>
      <trkpt lat="50.29644" lon="3.83302">
        <ele>144.3</ele>
        <time>2020-06-24T13:56:36Z</time>
      </trkpt>
      <trkpt lat="50.29644" lon="3.83311">
        <ele>144.3</ele>
        <time>2020-06-24T13:56:37Z</time>
      </trkpt>
      <trkpt lat="50.29644" lon="3.83319">
        <ele>144.4</ele>
        <time>2020-06-24T13:56:38Z</time>
      </trkpt>
      <trkpt lat="50.29644" lon="3.83328">
        <ele>144.4</ele>
        <time>2020-06-24T13:56:39Z</time>
      </trkpt>
      <trkpt lat="50.29643" lon="3.83337">
        <ele>144.5</ele>
        <time>2020-06-24T13:56:40Z</time>
      </trkpt>
      <trkpt lat="50.29643" lon="3.83345">
        <ele>144.6</ele>
        <time>2020-06-24T13:56:41Z</time>
      </trkpt>
      <trkpt lat="50.29642" lon="3.83354">
        <ele>144.7</ele>
        <time>2020-06-24T13:56:42Z</time>
      </trkpt>
      <trkpt lat="50.29642" lon="3.83362">
        <ele>144.7</ele>
        <time>2020-06-24T13:56:43Z</time>
      </trkpt>
      <trkpt lat="50.29642" lon="3.83371">
        <ele>144.8</ele>
        <time>2020-06-24T13:56:44Z</time>
      </trkpt>
      <trkpt lat="50.29641" lon="3.83379">
        <ele>144.8</ele>
        <time>2020-06-24T13:56:45Z</time>
      </trkpt>
      <trkpt lat="50.29641" lon="3.83388">
        <ele>144.9</ele>
        <time>2020-06-24T13:56:46Z</time>
      </trkpt>
      <trkpt lat="50.29642" lon="3.83397">
        <ele>145</ele>
        <time>2020-06-24T13:56:47Z</time>
      </trkpt>
      <trkpt lat="50.29641" lon="3.83405">
        <ele>145.1</ele>
        <time>2020-06-24T13:56:48Z</time>
      </trkpt>
      <trkpt lat="50.29642" lon="3.83414">
        <ele>145.2</ele>
        <time>2020-06-24T13:56:49Z</time>
      </trkpt>
      <trkpt lat="50.29641" lon="3.83422">
        <ele>145.3</ele>
        <time>2020-06-24T13:56:50Z</time>
      </trkpt>
      <trkpt lat="50.29641" lon="3.8343">
        <ele>145.3</ele>
        <time>2020-06-24T13:56:51Z</time>
      </trkpt>
      <trkpt lat="50.29641" lon="3.83438">
        <ele>145.4</ele>
        <time>2020-06-24T13:56:52Z</time>
      </trkpt>
      <trkpt lat="50.2964" lon="3.83447">
        <ele>145.5</ele>
        <time>2020-06-24T13:56:53Z</time>
      </trkpt>
      <trkpt lat="50.2964" lon="3.83455">
        <ele>145.6</ele>
        <time>2020-06-24T13:56:54Z</time>
      </trkpt>
      <trkpt lat="50.2964" lon="3.83464">
        <ele>145.6</ele>
        <time>2020-06-24T13:56:55Z</time>
      </trkpt>
      <trkpt lat="50.2964" lon="3.83472">
        <ele>145.7</ele>
        <time>2020-06-24T13:56:56Z</time>
      </trkpt>
      <trkpt lat="50.2964" lon="3.8348">
        <ele>145.7</ele>
        <time>2020-06-24T13:56:57Z</time>
      </trkpt>
      <trkpt lat="50.2964" lon="3.83488">
        <ele>145.8</ele>
        <time>2020-06-24T13:56:58Z</time>
      </trkpt>
      <trkpt lat="50.2964" lon="3.83497">
        <ele>145.8</ele>
        <time>2020-06-24T13:56:59Z</time>
      </trkpt>
      <trkpt lat="50.2964" lon="3.83506">
        <ele>145.9</ele>
        <time>2020-06-24T13:57:00Z</time>
      </trkpt>
      <trkpt lat="50.2964" lon="3.83515">
        <ele>145.9</ele>
        <time>2020-06-24T13:57:01Z</time>
      </trkpt>
      <trkpt lat="50.2964" lon="3.83523">
        <ele>146</ele>
        <time>2020-06-24T13:57:02Z</time>
      </trkpt>
      <trkpt lat="50.29639" lon="3.83532">
        <ele>146</ele>
        <time>2020-06-24T13:57:03Z</time>
      </trkpt>
      <trkpt lat="50.29639" lon="3.83541">
        <ele>146</ele>
        <time>2020-06-24T13:57:04Z</time>
      </trkpt>
      <trkpt lat="50.29639" lon="3.8355">
        <ele>146.1</ele>
        <time>2020-06-24T13:57:05Z</time>
      </trkpt>
      <trkpt lat="50.29638" lon="3.83559">
        <ele>146.1</ele>
        <time>2020-06-24T13:57:06Z</time>
      </trkpt>
      <trkpt lat="50.29638" lon="3.83568">
        <ele>146.1</ele>
        <time>2020-06-24T13:57:07Z</time>
      </trkpt>
      <trkpt lat="50.29637" lon="3.83577">
        <ele>146.1</ele>
        <time>2020-06-24T13:57:08Z</time>
      </trkpt>
      <trkpt lat="50.29636" lon="3.83585">
        <ele>146.1</ele>
        <time>2020-06-24T13:57:09Z</time>
      </trkpt>
      <trkpt lat="50.29636" lon="3.83593">
        <ele>146.2</ele>
        <time>2020-06-24T13:57:10Z</time>
      </trkpt>
      <trkpt lat="50.29636" lon="3.83601">
        <ele>146.2</ele>
        <time>2020-06-24T13:57:11Z</time>
      </trkpt>
      <trkpt lat="50.29635" lon="3.8361">
        <ele>146.2</ele>
        <time>2020-06-24T13:57:12Z</time>
      </trkpt>
      <trkpt lat="50.29635" lon="3.83619">
        <ele>146.2</ele>
        <time>2020-06-24T13:57:13Z</time>
      </trkpt>
      <trkpt lat="50.29634" lon="3.83627">
        <ele>146.2</ele>
        <time>2020-06-24T13:57:14Z</time>
      </trkpt>
      <trkpt lat="50.29634" lon="3.83637">
        <ele>146.2</ele>
        <time>2020-06-24T13:57:15Z</time>
      </trkpt>
      <trkpt lat="50.29634" lon="3.83646">
        <ele>146.1</ele>
        <time>2020-06-24T13:57:16Z</time>
      </trkpt>
      <trkpt lat="50.29634" lon="3.83656">
        <ele>146.1</ele>
        <time>2020-06-24T13:57:17Z</time>
      </trkpt>
      <trkpt lat="50.29634" lon="3.83665">
        <ele>146.1</ele>
        <time>2020-06-24T13:57:18Z</time>
      </trkpt>
      <trkpt lat="50.29633" lon="3.83675">
        <ele>146</ele>
        <time>2020-06-24T13:57:19Z</time>
      </trkpt>
      <trkpt lat="50.29633" lon="3.83684">
        <ele>146</ele>
        <time>2020-06-24T13:57:20Z</time>
      </trkpt>
      <trkpt lat="50.29632" lon="3.83694">
        <ele>146</ele>
        <time>2020-06-24T13:57:21Z</time>
      </trkpt>
      <trkpt lat="50.29632" lon="3.83703">
        <ele>146</ele>
        <time>2020-06-24T13:57:22Z</time>
      </trkpt>
      <trkpt lat="50.29632" lon="3.83712">
        <ele>145.9</ele>
        <time>2020-06-24T13:57:23Z</time>
      </trkpt>
      <trkpt lat="50.29632" lon="3.83722">
        <ele>145.9</ele>
        <time>2020-06-24T13:57:24Z</time>
      </trkpt>
      <trkpt lat="50.29632" lon="3.83731">
        <ele>145.9</ele>
        <time>2020-06-24T13:57:25Z</time>
      </trkpt>
      <trkpt lat="50.29632" lon="3.8374">
        <ele>145.8</ele>
        <time>2020-06-24T13:57:26Z</time>
      </trkpt>
      <trkpt lat="50.29632" lon="3.8375">
        <ele>145.8</ele>
        <time>2020-06-24T13:57:27Z</time>
      </trkpt>
      <trkpt lat="50.29631" lon="3.83759">
        <ele>145.8</ele>
        <time>2020-06-24T13:57:28Z</time>
      </trkpt>
      <trkpt lat="50.29631" lon="3.83768">
        <ele>145.8</ele>
        <time>2020-06-24T13:57:29Z</time>
      </trkpt>
      <trkpt lat="50.29631" lon="3.83777">
        <ele>145.7</ele>
        <time>2020-06-24T13:57:30Z</time>
      </trkpt>
      <trkpt lat="50.2963" lon="3.83786">
        <ele>145.7</ele>
        <time>2020-06-24T13:57:31Z</time>
      </trkpt>
      <trkpt lat="50.2963" lon="3.83794">
        <ele>145.7</ele>
        <time>2020-06-24T13:57:32Z</time>
      </trkpt>
      <trkpt lat="50.29629" lon="3.83803">
        <ele>145.6</ele>
        <time>2020-06-24T13:57:33Z</time>
      </trkpt>
      <trkpt lat="50.29629" lon="3.83811">
        <ele>145.6</ele>
        <time>2020-06-24T13:57:34Z</time>
      </trkpt>
      <trkpt lat="50.29628" lon="3.8382">
        <ele>145.6</ele>
        <time>2020-06-24T13:57:35Z</time>
      </trkpt>
      <trkpt lat="50.29628" lon="3.83829">
        <ele>145.5</ele>
        <time>2020-06-24T13:57:36Z</time>
      </trkpt>
      <trkpt lat="50.29628" lon="3.83838">
        <ele>145.5</ele>
        <time>2020-06-24T13:57:37Z</time>
      </trkpt>
      <trkpt lat="50.29627" lon="3.83848">
        <ele>145.4</ele>
        <time>2020-06-24T13:57:38Z</time>
      </trkpt>
      <trkpt lat="50.29627" lon="3.83857">
        <ele>145.4</ele>
        <time>2020-06-24T13:57:39Z</time>
      </trkpt>
      <trkpt lat="50.29627" lon="3.83866">
        <ele>145.3</ele>
        <time>2020-06-24T13:57:40Z</time>
      </trkpt>
      <trkpt lat="50.29626" lon="3.83876">
        <ele>145.3</ele>
        <time>2020-06-24T13:57:41Z</time>
      </trkpt>
      <trkpt lat="50.29626" lon="3.83885">
        <ele>145.3</ele>
        <time>2020-06-24T13:57:42Z</time>
      </trkpt>
      <trkpt lat="50.29626" lon="3.83894">
        <ele>145.3</ele>
        <time>2020-06-24T13:57:43Z</time>
      </trkpt>
      <trkpt lat="50.29626" lon="3.83903">
        <ele>145.3</ele>
        <time>2020-06-24T13:57:44Z</time>
      </trkpt>
      <trkpt lat="50.29626" lon="3.83912">
        <ele>145.3</ele>
        <time>2020-06-24T13:57:45Z</time>
      </trkpt>
      <trkpt lat="50.29625" lon="3.83921">
        <ele>145.2</ele>
        <time>2020-06-24T13:57:46Z</time>
      </trkpt>
      <trkpt lat="50.29625" lon="3.83929">
        <ele>145.2</ele>
        <time>2020-06-24T13:57:47Z</time>
      </trkpt>
      <trkpt lat="50.29624" lon="3.83937">
        <ele>145.2</ele>
        <time>2020-06-24T13:57:48Z</time>
      </trkpt>
      <trkpt lat="50.29624" lon="3.83946">
        <ele>145.2</ele>
        <time>2020-06-24T13:57:49Z</time>
      </trkpt>
      <trkpt lat="50.29623" lon="3.83955">
        <ele>145.2</ele>
        <time>2020-06-24T13:57:50Z</time>
      </trkpt>
      <trkpt lat="50.29623" lon="3.83964">
        <ele>145.2</ele>
        <time>2020-06-24T13:57:51Z</time>
      </trkpt>
      <trkpt lat="50.29623" lon="3.83973">
        <ele>145.1</ele>
        <time>2020-06-24T13:57:52Z</time>
      </trkpt>
      <trkpt lat="50.29623" lon="3.83982">
        <ele>145.1</ele>
        <time>2020-06-24T13:57:53Z</time>
      </trkpt>
      <trkpt lat="50.29623" lon="3.83992">
        <ele>145.1</ele>
        <time>2020-06-24T13:57:54Z</time>
      </trkpt>
      <trkpt lat="50.29623" lon="3.84001">
        <ele>145</ele>
        <time>2020-06-24T13:57:55Z</time>
      </trkpt>
      <trkpt lat="50.29623" lon="3.84011">
        <ele>145</ele>
        <time>2020-06-24T13:57:56Z</time>
      </trkpt>
      <trkpt lat="50.29622" lon="3.8402">
        <ele>144.9</ele>
        <time>2020-06-24T13:57:57Z</time>
      </trkpt>
      <trkpt lat="50.29622" lon="3.84029">
        <ele>144.9</ele>
        <time>2020-06-24T13:57:58Z</time>
      </trkpt>
      <trkpt lat="50.29622" lon="3.84038">
        <ele>144.8</ele>
        <time>2020-06-24T13:57:59Z</time>
      </trkpt>
      <trkpt lat="50.29622" lon="3.84046">
        <ele>144.8</ele>
        <time>2020-06-24T13:58:00Z</time>
      </trkpt>
      <trkpt lat="50.29621" lon="3.84054">
        <ele>144.7</ele>
        <time>2020-06-24T13:58:01Z</time>
      </trkpt>
      <trkpt lat="50.29621" lon="3.84062">
        <ele>144.6</ele>
        <time>2020-06-24T13:58:02Z</time>
      </trkpt>
      <trkpt lat="50.29621" lon="3.8407">
        <ele>144.5</ele>
        <time>2020-06-24T13:58:03Z</time>
      </trkpt>
      <trkpt lat="50.29621" lon="3.84079">
        <ele>144.4</ele>
        <time>2020-06-24T13:58:04Z</time>
      </trkpt>
      <trkpt lat="50.29621" lon="3.84089">
        <ele>144.3</ele>
        <time>2020-06-24T13:58:05Z</time>
      </trkpt>
      <trkpt lat="50.2962" lon="3.84099">
        <ele>144.1</ele>
        <time>2020-06-24T13:58:06Z</time>
      </trkpt>
      <trkpt lat="50.2962" lon="3.84109">
        <ele>144</ele>
        <time>2020-06-24T13:58:07Z</time>
      </trkpt>
      <trkpt lat="50.2962" lon="3.84119">
        <ele>143.8</ele>
        <time>2020-06-24T13:58:08Z</time>
      </trkpt>
      <trkpt lat="50.29619" lon="3.8413">
        <ele>143.6</ele>
        <time>2020-06-24T13:58:09Z</time>
      </trkpt>
      <trkpt lat="50.29619" lon="3.8414">
        <ele>143.4</ele>
        <time>2020-06-24T13:58:10Z</time>
      </trkpt>
      <trkpt lat="50.29618" lon="3.84151">
        <ele>143.2</ele>
        <time>2020-06-24T13:58:11Z</time>
      </trkpt>
      <trkpt lat="50.29618" lon="3.84162">
        <ele>143</ele>
        <time>2020-06-24T13:58:12Z</time>
      </trkpt>
      <trkpt lat="50.29617" lon="3.84173">
        <ele>142.8</ele>
        <time>2020-06-24T13:58:13Z</time>
      </trkpt>
      <trkpt lat="50.29617" lon="3.84185">
        <ele>142.6</ele>
        <time>2020-06-24T13:58:14Z</time>
      </trkpt>
      <trkpt lat="50.29616" lon="3.84196">
        <ele>142.3</ele>
        <time>2020-06-24T13:58:15Z</time>
      </trkpt>
      <trkpt lat="50.29615" lon="3.84208">
        <ele>142.1</ele>
        <time>2020-06-24T13:58:16Z</time>
      </trkpt>
      <trkpt lat="50.29615" lon="3.84219">
        <ele>141.9</ele>
        <time>2020-06-24T13:58:17Z</time>
      </trkpt>
      <trkpt lat="50.29614" lon="3.84231">
        <ele>141.7</ele>
        <time>2020-06-24T13:58:18Z</time>
      </trkpt>
      <trkpt lat="50.29613" lon="3.84242">
        <ele>141.5</ele>
        <time>2020-06-24T13:58:19Z</time>
      </trkpt>
      <trkpt lat="50.29613" lon="3.84254">
        <ele>141.3</ele>
        <time>2020-06-24T13:58:20Z</time>
      </trkpt>
      <trkpt lat="50.29613" lon="3.84266">
        <ele>141.1</ele>
        <time>2020-06-24T13:58:21Z</time>
      </trkpt>
      <trkpt lat="50.29612" lon="3.84278">
        <ele>140.9</ele>
        <time>2020-06-24T13:58:22Z</time>
      </trkpt>
      <trkpt lat="50.29612" lon="3.84289">
        <ele>140.8</ele>
        <time>2020-06-24T13:58:23Z</time>
      </trkpt>
      <trkpt lat="50.29611" lon="3.843">
        <ele>140.8</ele>
        <time>2020-06-24T13:58:24Z</time>
      </trkpt>
      <trkpt lat="50.29611" lon="3.84312">
        <ele>140.8</ele>
        <time>2020-06-24T13:58:25Z</time>
      </trkpt>
      <trkpt lat="50.29611" lon="3.84323">
        <ele>140.8</ele>
        <time>2020-06-24T13:58:26Z</time>
      </trkpt>
      <trkpt lat="50.2961" lon="3.84334">
        <ele>140.9</ele>
        <time>2020-06-24T13:58:27Z</time>
      </trkpt>
      <trkpt lat="50.2961" lon="3.84344">
        <ele>141</ele>
        <time>2020-06-24T13:58:28Z</time>
      </trkpt>
      <trkpt lat="50.2961" lon="3.84355">
        <ele>141.3</ele>
        <time>2020-06-24T13:58:29Z</time>
      </trkpt>
      <trkpt lat="50.2961" lon="3.84365">
        <ele>141.4</ele>
        <time>2020-06-24T13:58:30Z</time>
      </trkpt>
      <trkpt lat="50.29609" lon="3.84375">
        <ele>141.5</ele>
        <time>2020-06-24T13:58:31Z</time>
      </trkpt>
      <trkpt lat="50.29609" lon="3.84384">
        <ele>141.6</ele>
        <time>2020-06-24T13:58:32Z</time>
      </trkpt>
      <trkpt lat="50.29609" lon="3.84394">
        <ele>141.7</ele>
        <time>2020-06-24T13:58:33Z</time>
      </trkpt>
      <trkpt lat="50.29608" lon="3.84403">
        <ele>141.8</ele>
        <time>2020-06-24T13:58:34Z</time>
      </trkpt>
      <trkpt lat="50.29608" lon="3.84412">
        <ele>141.9</ele>
        <time>2020-06-24T13:58:35Z</time>
      </trkpt>
      <trkpt lat="50.29608" lon="3.84421">
        <ele>142</ele>
        <time>2020-06-24T13:58:36Z</time>
      </trkpt>
      <trkpt lat="50.29608" lon="3.8443">
        <ele>142.1</ele>
        <time>2020-06-24T13:58:37Z</time>
      </trkpt>
      <trkpt lat="50.29608" lon="3.84439">
        <ele>142.3</ele>
        <time>2020-06-24T13:58:38Z</time>
      </trkpt>
      <trkpt lat="50.29608" lon="3.84448">
        <ele>142.4</ele>
        <time>2020-06-24T13:58:39Z</time>
      </trkpt>
      <trkpt lat="50.29608" lon="3.84456">
        <ele>142.5</ele>
        <time>2020-06-24T13:58:40Z</time>
      </trkpt>
      <trkpt lat="50.29607" lon="3.84465">
        <ele>142.6</ele>
        <time>2020-06-24T13:58:41Z</time>
      </trkpt>
      <trkpt lat="50.29607" lon="3.84473">
        <ele>142.7</ele>
        <time>2020-06-24T13:58:42Z</time>
      </trkpt>
      <trkpt lat="50.29607" lon="3.84482">
        <ele>142.9</ele>
        <time>2020-06-24T13:58:43Z</time>
      </trkpt>
      <trkpt lat="50.29606" lon="3.8449">
        <ele>143</ele>
        <time>2020-06-24T13:58:44Z</time>
      </trkpt>
      <trkpt lat="50.29606" lon="3.84499">
        <ele>143.1</ele>
        <time>2020-06-24T13:58:45Z</time>
      </trkpt>
      <trkpt lat="50.29606" lon="3.84508">
        <ele>143.2</ele>
        <time>2020-06-24T13:58:46Z</time>
      </trkpt>
      <trkpt lat="50.29605" lon="3.84516">
        <ele>143.3</ele>
        <time>2020-06-24T13:58:47Z</time>
      </trkpt>
      <trkpt lat="50.29604" lon="3.84524">
        <ele>143.3</ele>
        <time>2020-06-24T13:58:48Z</time>
      </trkpt>
      <trkpt lat="50.29604" lon="3.84532">
        <ele>143.4</ele>
        <time>2020-06-24T13:58:49Z</time>
      </trkpt>
      <trkpt lat="50.29604" lon="3.8454">
        <ele>143.5</ele>
        <time>2020-06-24T13:58:50Z</time>
      </trkpt>
      <trkpt lat="50.29603" lon="3.84548">
        <ele>143.6</ele>
        <time>2020-06-24T13:58:51Z</time>
      </trkpt>
      <trkpt lat="50.29603" lon="3.84556">
        <ele>143.6</ele>
        <time>2020-06-24T13:58:52Z</time>
      </trkpt>
      <trkpt lat="50.29603" lon="3.84565">
        <ele>143.7</ele>
        <time>2020-06-24T13:58:53Z</time>
      </trkpt>
      <trkpt lat="50.29603" lon="3.84573">
        <ele>143.7</ele>
        <time>2020-06-24T13:58:54Z</time>
      </trkpt>
      <trkpt lat="50.29602" lon="3.84581">
        <ele>143.8</ele>
        <time>2020-06-24T13:58:55Z</time>
      </trkpt>
      <trkpt lat="50.29601" lon="3.8459">
        <ele>143.8</ele>
        <time>2020-06-24T13:58:56Z</time>
      </trkpt>
      <trkpt lat="50.29601" lon="3.84598">
        <ele>143.8</ele>
        <time>2020-06-24T13:58:57Z</time>
      </trkpt>
      <trkpt lat="50.296" lon="3.84606">
        <ele>143.9</ele>
        <time>2020-06-24T13:58:58Z</time>
      </trkpt>
      <trkpt lat="50.296" lon="3.84614">
        <ele>143.9</ele>
        <time>2020-06-24T13:58:59Z</time>
      </trkpt>
      <trkpt lat="50.29599" lon="3.84622">
        <ele>143.9</ele>
        <time>2020-06-24T13:59:00Z</time>
      </trkpt>
      <trkpt lat="50.29598" lon="3.84631">
        <ele>143.9</ele>
        <time>2020-06-24T13:59:01Z</time>
      </trkpt>
      <trkpt lat="50.29598" lon="3.84639">
        <ele>143.9</ele>
        <time>2020-06-24T13:59:02Z</time>
      </trkpt>
      <trkpt lat="50.29596" lon="3.84647">
        <ele>143.9</ele>
        <time>2020-06-24T13:59:03Z</time>
      </trkpt>
      <trkpt lat="50.29594" lon="3.84655">
        <ele>143.8</ele>
        <time>2020-06-24T13:59:04Z</time>
      </trkpt>
      <trkpt lat="50.2959" lon="3.84663">
        <ele>143.8</ele>
        <time>2020-06-24T13:59:05Z</time>
      </trkpt>
      <trkpt lat="50.29586" lon="3.8467">
        <ele>143.7</ele>
        <time>2020-06-24T13:59:06Z</time>
      </trkpt>
      <trkpt lat="50.29582" lon="3.84677">
        <ele>143.7</ele>
        <time>2020-06-24T13:59:07Z</time>
      </trkpt>
      <trkpt lat="50.29577" lon="3.84683">
        <ele>143.7</ele>
        <time>2020-06-24T13:59:08Z</time>
      </trkpt>
      <trkpt lat="50.29573" lon="3.84689">
        <ele>143.7</ele>
        <time>2020-06-24T13:59:09Z</time>
      </trkpt>
      <trkpt lat="50.29568" lon="3.84693">
        <ele>143.7</ele>
        <time>2020-06-24T13:59:10Z</time>
      </trkpt>
      <trkpt lat="50.29563" lon="3.84698">
        <ele>143.7</ele>
        <time>2020-06-24T13:59:11Z</time>
      </trkpt>
      <trkpt lat="50.29559" lon="3.84702">
        <ele>143.7</ele>
        <time>2020-06-24T13:59:12Z</time>
      </trkpt>
      <trkpt lat="50.29554" lon="3.84707">
        <ele>143.7</ele>
        <time>2020-06-24T13:59:13Z</time>
      </trkpt>
      <trkpt lat="50.2955" lon="3.84712">
        <ele>143.6</ele>
        <time>2020-06-24T13:59:14Z</time>
      </trkpt>
      <trkpt lat="50.29545" lon="3.84717">
        <ele>143.5</ele>
        <time>2020-06-24T13:59:15Z</time>
      </trkpt>
      <trkpt lat="50.29541" lon="3.84722">
        <ele>143.5</ele>
        <time>2020-06-24T13:59:16Z</time>
      </trkpt>
      <trkpt lat="50.29536" lon="3.84727">
        <ele>143.4</ele>
        <time>2020-06-24T13:59:17Z</time>
      </trkpt>
      <trkpt lat="50.29531" lon="3.8473">
        <ele>143.3</ele>
        <time>2020-06-24T13:59:18Z</time>
      </trkpt>
      <trkpt lat="50.29526" lon="3.84735">
        <ele>143.1</ele>
        <time>2020-06-24T13:59:19Z</time>
      </trkpt>
      <trkpt lat="50.2952" lon="3.8474">
        <ele>143</ele>
        <time>2020-06-24T13:59:20Z</time>
      </trkpt>
      <trkpt lat="50.29515" lon="3.84746">
        <ele>142.9</ele>
        <time>2020-06-24T13:59:21Z</time>
      </trkpt>
      <trkpt lat="50.29509" lon="3.84751">
        <ele>142.7</ele>
        <time>2020-06-24T13:59:22Z</time>
      </trkpt>
      <trkpt lat="50.29503" lon="3.84757">
        <ele>142.6</ele>
        <time>2020-06-24T13:59:23Z</time>
      </trkpt>
      <trkpt lat="50.29498" lon="3.84762">
        <ele>142.4</ele>
        <time>2020-06-24T13:59:24Z</time>
      </trkpt>
      <trkpt lat="50.29492" lon="3.84768">
        <ele>142.3</ele>
        <time>2020-06-24T13:59:25Z</time>
      </trkpt>
      <trkpt lat="50.29487" lon="3.84775">
        <ele>142.2</ele>
        <time>2020-06-24T13:59:26Z</time>
      </trkpt>
      <trkpt lat="50.29481" lon="3.84781">
        <ele>142</ele>
        <time>2020-06-24T13:59:27Z</time>
      </trkpt>
      <trkpt lat="50.29475" lon="3.84787">
        <ele>141.9</ele>
        <time>2020-06-24T13:59:28Z</time>
      </trkpt>
      <trkpt lat="50.29469" lon="3.84792">
        <ele>141.8</ele>
        <time>2020-06-24T13:59:29Z</time>
      </trkpt>
      <trkpt lat="50.29464" lon="3.84798">
        <ele>141.8</ele>
        <time>2020-06-24T13:59:30Z</time>
      </trkpt>
      <trkpt lat="50.29458" lon="3.84804">
        <ele>141.8</ele>
        <time>2020-06-24T13:59:31Z</time>
      </trkpt>
      <trkpt lat="50.29452" lon="3.8481">
        <ele>141.8</ele>
        <time>2020-06-24T13:59:32Z</time>
      </trkpt>
      <trkpt lat="50.29446" lon="3.84816">
        <ele>141.9</ele>
        <time>2020-06-24T13:59:33Z</time>
      </trkpt>
      <trkpt lat="50.29441" lon="3.84822">
        <ele>141.9</ele>
        <time>2020-06-24T13:59:34Z</time>
      </trkpt>
      <trkpt lat="50.29436" lon="3.84827">
        <ele>142</ele>
        <time>2020-06-24T13:59:35Z</time>
      </trkpt>
      <trkpt lat="50.2943" lon="3.84833">
        <ele>142.1</ele>
        <time>2020-06-24T13:59:36Z</time>
      </trkpt>
      <trkpt lat="50.29425" lon="3.84839">
        <ele>142.3</ele>
        <time>2020-06-24T13:59:37Z</time>
      </trkpt>
      <trkpt lat="50.2942" lon="3.84844">
        <ele>142.4</ele>
        <time>2020-06-24T13:59:38Z</time>
      </trkpt>
      <trkpt lat="50.29415" lon="3.84849">
        <ele>142.6</ele>
        <time>2020-06-24T13:59:39Z</time>
      </trkpt>
      <trkpt lat="50.2941" lon="3.84854">
        <ele>142.8</ele>
        <time>2020-06-24T13:59:40Z</time>
      </trkpt>
      <trkpt lat="50.29405" lon="3.84859">
        <ele>143</ele>
        <time>2020-06-24T13:59:41Z</time>
      </trkpt>
      <trkpt lat="50.294" lon="3.84864">
        <ele>143.2</ele>
        <time>2020-06-24T13:59:42Z</time>
      </trkpt>
      <trkpt lat="50.29394" lon="3.84869">
        <ele>143.3</ele>
        <time>2020-06-24T13:59:43Z</time>
      </trkpt>
      <trkpt lat="50.29389" lon="3.84874">
        <ele>143.5</ele>
        <time>2020-06-24T13:59:44Z</time>
      </trkpt>
      <trkpt lat="50.29384" lon="3.84879">
        <ele>143.7</ele>
        <time>2020-06-24T13:59:45Z</time>
      </trkpt>
      <trkpt lat="50.29379" lon="3.84885">
        <ele>143.9</ele>
        <time>2020-06-24T13:59:46Z</time>
      </trkpt>
      <trkpt lat="50.29374" lon="3.8489">
        <ele>144.1</ele>
        <time>2020-06-24T13:59:47Z</time>
      </trkpt>
      <trkpt lat="50.29369" lon="3.84895">
        <ele>144.3</ele>
        <time>2020-06-24T13:59:48Z</time>
      </trkpt>
      <trkpt lat="50.29363" lon="3.849">
        <ele>144.5</ele>
        <time>2020-06-24T13:59:49Z</time>
      </trkpt>
      <trkpt lat="50.29358" lon="3.84904">
        <ele>144.7</ele>
        <time>2020-06-24T13:59:50Z</time>
      </trkpt>
      <trkpt lat="50.29353" lon="3.84909">
        <ele>144.9</ele>
        <time>2020-06-24T13:59:51Z</time>
      </trkpt>
      <trkpt lat="50.29348" lon="3.84914">
        <ele>145.1</ele>
        <time>2020-06-24T13:59:52Z</time>
      </trkpt>
      <trkpt lat="50.29343" lon="3.84919">
        <ele>145.3</ele>
        <time>2020-06-24T13:59:53Z</time>
      </trkpt>
      <trkpt lat="50.29338" lon="3.84925">
        <ele>145.5</ele>
        <time>2020-06-24T13:59:54Z</time>
      </trkpt>
      <trkpt lat="50.29333" lon="3.84931">
        <ele>145.7</ele>
        <time>2020-06-24T13:59:55Z</time>
      </trkpt>
      <trkpt lat="50.29328" lon="3.84936">
        <ele>145.9</ele>
        <time>2020-06-24T13:59:56Z</time>
      </trkpt>
      <trkpt lat="50.29324" lon="3.84941">
        <ele>146</ele>
        <time>2020-06-24T13:59:57Z</time>
      </trkpt>
      <trkpt lat="50.29318" lon="3.84945">
        <ele>146.2</ele>
        <time>2020-06-24T13:59:58Z</time>
      </trkpt>
      <trkpt lat="50.29313" lon="3.84949">
        <ele>146.3</ele>
        <time>2020-06-24T13:59:59Z</time>
      </trkpt>
      <trkpt lat="50.29309" lon="3.84954">
        <ele>146.5</ele>
        <time>2020-06-24T14:00:00Z</time>
      </trkpt>
      <trkpt lat="50.29304" lon="3.84958">
        <ele>146.6</ele>
        <time>2020-06-24T14:00:01Z</time>
      </trkpt>
      <trkpt lat="50.29299" lon="3.84963">
        <ele>146.6</ele>
        <time>2020-06-24T14:00:02Z</time>
      </trkpt>
      <trkpt lat="50.29293" lon="3.84969">
        <ele>146.6</ele>
        <time>2020-06-24T14:00:03Z</time>
      </trkpt>
      <trkpt lat="50.29288" lon="3.84974">
        <ele>146.6</ele>
        <time>2020-06-24T14:00:04Z</time>
      </trkpt>
      <trkpt lat="50.29284" lon="3.8498">
        <ele>146.6</ele>
        <time>2020-06-24T14:00:05Z</time>
      </trkpt>
      <trkpt lat="50.29279" lon="3.84985">
        <ele>146.6</ele>
        <time>2020-06-24T14:00:06Z</time>
      </trkpt>
      <trkpt lat="50.29274" lon="3.8499">
        <ele>146.5</ele>
        <time>2020-06-24T14:00:07Z</time>
      </trkpt>
      <trkpt lat="50.2927" lon="3.84994">
        <ele>146.5</ele>
        <time>2020-06-24T14:00:08Z</time>
      </trkpt>
      <trkpt lat="50.29265" lon="3.84999">
        <ele>146.4</ele>
        <time>2020-06-24T14:00:09Z</time>
      </trkpt>
      <trkpt lat="50.2926" lon="3.85005">
        <ele>146.4</ele>
        <time>2020-06-24T14:00:10Z</time>
      </trkpt>
      <trkpt lat="50.29255" lon="3.8501">
        <ele>146.3</ele>
        <time>2020-06-24T14:00:11Z</time>
      </trkpt>
      <trkpt lat="50.29251" lon="3.85014">
        <ele>146.2</ele>
        <time>2020-06-24T14:00:12Z</time>
      </trkpt>
      <trkpt lat="50.29246" lon="3.85019">
        <ele>146.2</ele>
        <time>2020-06-24T14:00:13Z</time>
      </trkpt>
      <trkpt lat="50.29241" lon="3.85024">
        <ele>146.2</ele>
        <time>2020-06-24T14:00:14Z</time>
      </trkpt>
      <trkpt lat="50.29236" lon="3.8503">
        <ele>146.1</ele>
        <time>2020-06-24T14:00:15Z</time>
      </trkpt>
      <trkpt lat="50.2923" lon="3.85035">
        <ele>146.1</ele>
        <time>2020-06-24T14:00:16Z</time>
      </trkpt>
      <trkpt lat="50.29224" lon="3.85041">
        <ele>146</ele>
        <time>2020-06-24T14:00:17Z</time>
      </trkpt>
      <trkpt lat="50.29219" lon="3.85046">
        <ele>145.8</ele>
        <time>2020-06-24T14:00:18Z</time>
      </trkpt>
      <trkpt lat="50.29213" lon="3.85052">
        <ele>145.7</ele>
        <time>2020-06-24T14:00:19Z</time>
      </trkpt>
      <trkpt lat="50.29207" lon="3.85058">
        <ele>145.5</ele>
        <time>2020-06-24T14:00:20Z</time>
      </trkpt>
      <trkpt lat="50.29202" lon="3.85064">
        <ele>145.4</ele>
        <time>2020-06-24T14:00:21Z</time>
      </trkpt>
      <trkpt lat="50.29196" lon="3.8507">
        <ele>145.2</ele>
        <time>2020-06-24T14:00:22Z</time>
      </trkpt>
      <trkpt lat="50.2919" lon="3.85075">
        <ele>145</ele>
        <time>2020-06-24T14:00:23Z</time>
      </trkpt>
      <trkpt lat="50.29183" lon="3.85081">
        <ele>144.9</ele>
        <time>2020-06-24T14:00:24Z</time>
      </trkpt>
      <trkpt lat="50.29177" lon="3.85087">
        <ele>144.7</ele>
        <time>2020-06-24T14:00:25Z</time>
      </trkpt>
      <trkpt lat="50.29171" lon="3.85093">
        <ele>144.4</ele>
        <time>2020-06-24T14:00:26Z</time>
      </trkpt>
      <trkpt lat="50.29165" lon="3.85099">
        <ele>144.2</ele>
        <time>2020-06-24T14:00:27Z</time>
      </trkpt>
      <trkpt lat="50.29159" lon="3.85105">
        <ele>144</ele>
        <time>2020-06-24T14:00:28Z</time>
      </trkpt>
      <trkpt lat="50.29153" lon="3.8511">
        <ele>143.8</ele>
        <time>2020-06-24T14:00:29Z</time>
      </trkpt>
      <trkpt lat="50.29147" lon="3.85117">
        <ele>143.6</ele>
        <time>2020-06-24T14:00:30Z</time>
      </trkpt>
      <trkpt lat="50.2914" lon="3.85122">
        <ele>143.4</ele>
        <time>2020-06-24T14:00:31Z</time>
      </trkpt>
      <trkpt lat="50.29134" lon="3.85128">
        <ele>143.2</ele>
        <time>2020-06-24T14:00:32Z</time>
      </trkpt>
      <trkpt lat="50.29128" lon="3.85134">
        <ele>142.9</ele>
        <time>2020-06-24T14:00:33Z</time>
      </trkpt>
      <trkpt lat="50.29121" lon="3.8514">
        <ele>142.7</ele>
        <time>2020-06-24T14:00:34Z</time>
      </trkpt>
      <trkpt lat="50.29115" lon="3.85146">
        <ele>142.5</ele>
        <time>2020-06-24T14:00:35Z</time>
      </trkpt>
      <trkpt lat="50.29109" lon="3.85152">
        <ele>142.3</ele>
        <time>2020-06-24T14:00:36Z</time>
      </trkpt>
      <trkpt lat="50.29103" lon="3.85158">
        <ele>142.1</ele>
        <time>2020-06-24T14:00:37Z</time>
      </trkpt>
      <trkpt lat="50.29097" lon="3.85165">
        <ele>142</ele>
        <time>2020-06-24T14:00:38Z</time>
      </trkpt>
      <trkpt lat="50.29091" lon="3.85171">
        <ele>141.8</ele>
        <time>2020-06-24T14:00:39Z</time>
      </trkpt>
      <trkpt lat="50.29085" lon="3.85178">
        <ele>141.7</ele>
        <time>2020-06-24T14:00:40Z</time>
      </trkpt>
      <trkpt lat="50.29079" lon="3.85185">
        <ele>141.6</ele>
        <time>2020-06-24T14:00:41Z</time>
      </trkpt>
      <trkpt lat="50.29072" lon="3.85192">
        <ele>141.5</ele>
        <time>2020-06-24T14:00:42Z</time>
      </trkpt>
      <trkpt lat="50.29067" lon="3.85201">
        <ele>141.5</ele>
        <time>2020-06-24T14:00:43Z</time>
      </trkpt>
      <trkpt lat="50.29063" lon="3.8521">
        <ele>141.4</ele>
        <time>2020-06-24T14:00:44Z</time>
      </trkpt>
      <trkpt lat="50.29059" lon="3.8522">
        <ele>141.4</ele>
        <time>2020-06-24T14:00:45Z</time>
      </trkpt>
      <trkpt lat="50.29057" lon="3.8523">
        <ele>141.3</ele>
        <time>2020-06-24T14:00:46Z</time>
      </trkpt>
      <trkpt lat="50.29055" lon="3.85241">
        <ele>141.3</ele>
        <time>2020-06-24T14:00:47Z</time>
      </trkpt>
      <trkpt lat="50.29055" lon="3.85252">
        <ele>141.3</ele>
        <time>2020-06-24T14:00:48Z</time>
      </trkpt>
      <trkpt lat="50.29054" lon="3.85263">
        <ele>141.3</ele>
        <time>2020-06-24T14:00:49Z</time>
      </trkpt>
      <trkpt lat="50.29054" lon="3.85274">
        <ele>141.3</ele>
        <time>2020-06-24T14:00:50Z</time>
      </trkpt>
      <trkpt lat="50.29054" lon="3.85284">
        <ele>141.3</ele>
        <time>2020-06-24T14:00:51Z</time>
      </trkpt>
      <trkpt lat="50.29054" lon="3.85295">
        <ele>141.2</ele>
        <time>2020-06-24T14:00:52Z</time>
      </trkpt>
      <trkpt lat="50.29053" lon="3.85306">
        <ele>141.2</ele>
        <time>2020-06-24T14:00:53Z</time>
      </trkpt>
      <trkpt lat="50.29053" lon="3.85316">
        <ele>141.1</ele>
        <time>2020-06-24T14:00:54Z</time>
      </trkpt>
      <trkpt lat="50.29053" lon="3.85326">
        <ele>141.1</ele>
        <time>2020-06-24T14:00:55Z</time>
      </trkpt>
      <trkpt lat="50.29053" lon="3.85336">
        <ele>141.1</ele>
        <time>2020-06-24T14:00:56Z</time>
      </trkpt>
      <trkpt lat="50.29054" lon="3.85347">
        <ele>141.1</ele>
        <time>2020-06-24T14:00:57Z</time>
      </trkpt>
      <trkpt lat="50.29053" lon="3.85356">
        <ele>141.1</ele>
        <time>2020-06-24T14:00:58Z</time>
      </trkpt>
      <trkpt lat="50.29053" lon="3.85365">
        <ele>141.1</ele>
        <time>2020-06-24T14:00:59Z</time>
      </trkpt>
      <trkpt lat="50.29054" lon="3.85375">
        <ele>141.1</ele>
        <time>2020-06-24T14:01:00Z</time>
      </trkpt>
      <trkpt lat="50.29054" lon="3.85384">
        <ele>141.1</ele>
        <time>2020-06-24T14:01:01Z</time>
      </trkpt>
      <trkpt lat="50.29053" lon="3.85394">
        <ele>141.2</ele>
        <time>2020-06-24T14:01:02Z</time>
      </trkpt>
      <trkpt lat="50.29053" lon="3.85403">
        <ele>141.2</ele>
        <time>2020-06-24T14:01:03Z</time>
      </trkpt>
      <trkpt lat="50.29053" lon="3.85412">
        <ele>141.2</ele>
        <time>2020-06-24T14:01:04Z</time>
      </trkpt>
      <trkpt lat="50.29053" lon="3.85421">
        <ele>141.2</ele>
        <time>2020-06-24T14:01:05Z</time>
      </trkpt>
      <trkpt lat="50.29053" lon="3.8543">
        <ele>141.3</ele>
        <time>2020-06-24T14:01:06Z</time>
      </trkpt>
      <trkpt lat="50.29053" lon="3.85439">
        <ele>141.3</ele>
        <time>2020-06-24T14:01:07Z</time>
      </trkpt>
      <trkpt lat="50.29053" lon="3.85447">
        <ele>141.3</ele>
        <time>2020-06-24T14:01:08Z</time>
      </trkpt>
      <trkpt lat="50.29053" lon="3.85456">
        <ele>141.3</ele>
        <time>2020-06-24T14:01:09Z</time>
      </trkpt>
      <trkpt lat="50.29053" lon="3.85465">
        <ele>141.4</ele>
        <time>2020-06-24T14:01:10Z</time>
      </trkpt>
      <trkpt lat="50.29052" lon="3.85473">
        <ele>141.5</ele>
        <time>2020-06-24T14:01:11Z</time>
      </trkpt>
      <trkpt lat="50.2905" lon="3.85481">
        <ele>141.5</ele>
        <time>2020-06-24T14:01:12Z</time>
      </trkpt>
      <trkpt lat="50.29047" lon="3.85489">
        <ele>141.6</ele>
        <time>2020-06-24T14:01:13Z</time>
      </trkpt>
      <trkpt lat="50.29044" lon="3.85497">
        <ele>141.7</ele>
        <time>2020-06-24T14:01:14Z</time>
      </trkpt>
      <trkpt lat="50.29041" lon="3.85505">
        <ele>141.7</ele>
        <time>2020-06-24T14:01:15Z</time>
      </trkpt>
      <trkpt lat="50.29039" lon="3.85513">
        <ele>141.8</ele>
        <time>2020-06-24T14:01:16Z</time>
      </trkpt>
      <trkpt lat="50.29036" lon="3.8552">
        <ele>141.9</ele>
        <time>2020-06-24T14:01:17Z</time>
      </trkpt>
      <trkpt lat="50.29033" lon="3.85528">
        <ele>141.9</ele>
        <time>2020-06-24T14:01:18Z</time>
      </trkpt>
      <trkpt lat="50.29031" lon="3.85534">
        <ele>142</ele>
        <time>2020-06-24T14:01:19Z</time>
      </trkpt>
      <trkpt lat="50.2903" lon="3.85541">
        <ele>142.1</ele>
        <time>2020-06-24T14:01:20Z</time>
      </trkpt>
      <trkpt lat="50.29027" lon="3.85549">
        <ele>142.2</ele>
        <time>2020-06-24T14:01:21Z</time>
      </trkpt>
      <trkpt lat="50.29025" lon="3.85557">
        <ele>142.3</ele>
        <time>2020-06-24T14:01:22Z</time>
      </trkpt>
      <trkpt lat="50.29022" lon="3.85565">
        <ele>142.4</ele>
        <time>2020-06-24T14:01:23Z</time>
      </trkpt>
      <trkpt lat="50.2902" lon="3.85573">
        <ele>142.6</ele>
        <time>2020-06-24T14:01:24Z</time>
      </trkpt>
      <trkpt lat="50.29016" lon="3.8558">
        <ele>142.7</ele>
        <time>2020-06-24T14:01:25Z</time>
      </trkpt>
      <trkpt lat="50.29013" lon="3.85588">
        <ele>142.8</ele>
        <time>2020-06-24T14:01:26Z</time>
      </trkpt>
      <trkpt lat="50.2901" lon="3.85596">
        <ele>142.9</ele>
        <time>2020-06-24T14:01:27Z</time>
      </trkpt>
      <trkpt lat="50.29006" lon="3.85603">
        <ele>143.1</ele>
        <time>2020-06-24T14:01:28Z</time>
      </trkpt>
      <trkpt lat="50.29003" lon="3.8561">
        <ele>143.2</ele>
        <time>2020-06-24T14:01:29Z</time>
      </trkpt>
      <trkpt lat="50.29" lon="3.85617">
        <ele>143.4</ele>
        <time>2020-06-24T14:01:30Z</time>
      </trkpt>
      <trkpt lat="50.28997" lon="3.85623">
        <ele>143.5</ele>
        <time>2020-06-24T14:01:31Z</time>
      </trkpt>
      <trkpt lat="50.28994" lon="3.85629">
        <ele>143.6</ele>
        <time>2020-06-24T14:01:32Z</time>
      </trkpt>
      <trkpt lat="50.28989" lon="3.85634">
        <ele>143.7</ele>
        <time>2020-06-24T14:01:33Z</time>
      </trkpt>
      <trkpt lat="50.28985" lon="3.8564">
        <ele>143.7</ele>
        <time>2020-06-24T14:01:34Z</time>
      </trkpt>
      <trkpt lat="50.2898" lon="3.85645">
        <ele>143.8</ele>
        <time>2020-06-24T14:01:35Z</time>
      </trkpt>
      <trkpt lat="50.28976" lon="3.8565">
        <ele>143.8</ele>
        <time>2020-06-24T14:01:36Z</time>
      </trkpt>
      <trkpt lat="50.28971" lon="3.85652">
        <ele>143.9</ele>
        <time>2020-06-24T14:01:37Z</time>
      </trkpt>
      <trkpt lat="50.28967" lon="3.85656">
        <ele>143.8</ele>
        <time>2020-06-24T14:01:38Z</time>
      </trkpt>
      <trkpt lat="50.28963" lon="3.8566">
        <ele>143.7</ele>
        <time>2020-06-24T14:01:39Z</time>
      </trkpt>
      <trkpt lat="50.28959" lon="3.85663">
        <ele>143.7</ele>
        <time>2020-06-24T14:01:40Z</time>
      </trkpt>
      <trkpt lat="50.28954" lon="3.85666">
        <ele>143.7</ele>
        <time>2020-06-24T14:01:41Z</time>
      </trkpt>
      <trkpt lat="50.2895" lon="3.8567">
        <ele>143.7</ele>
        <time>2020-06-24T14:01:42Z</time>
      </trkpt>
      <trkpt lat="50.28945" lon="3.85673">
        <ele>143.7</ele>
        <time>2020-06-24T14:01:43Z</time>
      </trkpt>
      <trkpt lat="50.2894" lon="3.85676">
        <ele>143.7</ele>
        <time>2020-06-24T14:01:44Z</time>
      </trkpt>
      <trkpt lat="50.28935" lon="3.8568">
        <ele>143.7</ele>
        <time>2020-06-24T14:01:45Z</time>
      </trkpt>
      <trkpt lat="50.2893" lon="3.85684">
        <ele>143.7</ele>
        <time>2020-06-24T14:01:46Z</time>
      </trkpt>
      <trkpt lat="50.28925" lon="3.85687">
        <ele>143.7</ele>
        <time>2020-06-24T14:01:47Z</time>
      </trkpt>
      <trkpt lat="50.28919" lon="3.8569">
        <ele>143.7</ele>
        <time>2020-06-24T14:01:48Z</time>
      </trkpt>
      <trkpt lat="50.28913" lon="3.85693">
        <ele>143.7</ele>
        <time>2020-06-24T14:01:49Z</time>
      </trkpt>
      <trkpt lat="50.28906" lon="3.85696">
        <ele>143.8</ele>
        <time>2020-06-24T14:01:50Z</time>
      </trkpt>
      <trkpt lat="50.289" lon="3.85701">
        <ele>143.8</ele>
        <time>2020-06-24T14:01:51Z</time>
      </trkpt>
      <trkpt lat="50.28894" lon="3.85704">
        <ele>143.8</ele>
        <time>2020-06-24T14:01:52Z</time>
      </trkpt>
      <trkpt lat="50.28888" lon="3.85707">
        <ele>143.8</ele>
        <time>2020-06-24T14:01:53Z</time>
      </trkpt>
      <trkpt lat="50.28883" lon="3.85711">
        <ele>143.9</ele>
        <time>2020-06-24T14:01:54Z</time>
      </trkpt>
      <trkpt lat="50.28878" lon="3.85716">
        <ele>143.9</ele>
        <time>2020-06-24T14:01:55Z</time>
      </trkpt>
      <trkpt lat="50.28872" lon="3.8572">
        <ele>143.9</ele>
        <time>2020-06-24T14:01:56Z</time>
      </trkpt>
      <trkpt lat="50.28866" lon="3.85725">
        <ele>143.9</ele>
        <time>2020-06-24T14:01:57Z</time>
      </trkpt>
      <trkpt lat="50.2886" lon="3.85729">
        <ele>143.9</ele>
        <time>2020-06-24T14:01:58Z</time>
      </trkpt>
      <trkpt lat="50.28854" lon="3.85733">
        <ele>144</ele>
        <time>2020-06-24T14:01:59Z</time>
      </trkpt>
      <trkpt lat="50.28847" lon="3.85738">
        <ele>144</ele>
        <time>2020-06-24T14:02:00Z</time>
      </trkpt>
      <trkpt lat="50.28842" lon="3.85742">
        <ele>144</ele>
        <time>2020-06-24T14:02:01Z</time>
      </trkpt>
      <trkpt lat="50.28836" lon="3.85747">
        <ele>144.1</ele>
        <time>2020-06-24T14:02:02Z</time>
      </trkpt>
      <trkpt lat="50.28831" lon="3.85752">
        <ele>144.1</ele>
        <time>2020-06-24T14:02:03Z</time>
      </trkpt>
      <trkpt lat="50.28825" lon="3.85757">
        <ele>144.2</ele>
        <time>2020-06-24T14:02:04Z</time>
      </trkpt>
      <trkpt lat="50.2882" lon="3.85763">
        <ele>144.2</ele>
        <time>2020-06-24T14:02:05Z</time>
      </trkpt>
      <trkpt lat="50.28815" lon="3.85768">
        <ele>144.3</ele>
        <time>2020-06-24T14:02:06Z</time>
      </trkpt>
      <trkpt lat="50.2881" lon="3.85773">
        <ele>144.3</ele>
        <time>2020-06-24T14:02:07Z</time>
      </trkpt>
      <trkpt lat="50.28806" lon="3.8578">
        <ele>144.4</ele>
        <time>2020-06-24T14:02:08Z</time>
      </trkpt>
      <trkpt lat="50.28801" lon="3.85787">
        <ele>144.4</ele>
        <time>2020-06-24T14:02:09Z</time>
      </trkpt>
      <trkpt lat="50.28797" lon="3.85793">
        <ele>144.4</ele>
        <time>2020-06-24T14:02:10Z</time>
      </trkpt>
      <trkpt lat="50.28792" lon="3.85799">
        <ele>144.5</ele>
        <time>2020-06-24T14:02:11Z</time>
      </trkpt>
      <trkpt lat="50.28787" lon="3.85805">
        <ele>144.5</ele>
        <time>2020-06-24T14:02:12Z</time>
      </trkpt>
      <trkpt lat="50.28782" lon="3.85812">
        <ele>144.5</ele>
        <time>2020-06-24T14:02:13Z</time>
      </trkpt>
      <trkpt lat="50.28777" lon="3.85819">
        <ele>144.5</ele>
        <time>2020-06-24T14:02:14Z</time>
      </trkpt>
      <trkpt lat="50.28772" lon="3.85827">
        <ele>144.5</ele>
        <time>2020-06-24T14:02:15Z</time>
      </trkpt>
      <trkpt lat="50.28768" lon="3.85833">
        <ele>144.5</ele>
        <time>2020-06-24T14:02:16Z</time>
      </trkpt>
      <trkpt lat="50.28764" lon="3.8584">
        <ele>144.5</ele>
        <time>2020-06-24T14:02:17Z</time>
      </trkpt>
      <trkpt lat="50.28759" lon="3.85847">
        <ele>144.5</ele>
        <time>2020-06-24T14:02:18Z</time>
      </trkpt>
      <trkpt lat="50.28755" lon="3.85855">
        <ele>144.5</ele>
        <time>2020-06-24T14:02:19Z</time>
      </trkpt>
      <trkpt lat="50.28751" lon="3.85862">
        <ele>144.5</ele>
        <time>2020-06-24T14:02:20Z</time>
      </trkpt>
      <trkpt lat="50.28746" lon="3.85869">
        <ele>144.5</ele>
        <time>2020-06-24T14:02:21Z</time>
      </trkpt>
      <trkpt lat="50.28742" lon="3.85876">
        <ele>144.6</ele>
        <time>2020-06-24T14:02:22Z</time>
      </trkpt>
      <trkpt lat="50.28735" lon="3.85882">
        <ele>144.8</ele>
        <time>2020-06-24T14:02:23Z</time>
      </trkpt>
      <trkpt lat="50.28729" lon="3.85888">
        <ele>144.8</ele>
        <time>2020-06-24T14:02:24Z</time>
      </trkpt>
      <trkpt lat="50.28724" lon="3.85895">
        <ele>144.8</ele>
        <time>2020-06-24T14:02:25Z</time>
      </trkpt>
      <trkpt lat="50.2872" lon="3.85901">
        <ele>144.9</ele>
        <time>2020-06-24T14:02:26Z</time>
      </trkpt>
      <trkpt lat="50.28716" lon="3.85907">
        <ele>144.9</ele>
        <time>2020-06-24T14:02:27Z</time>
      </trkpt>
      <trkpt lat="50.28712" lon="3.85913">
        <ele>145</ele>
        <time>2020-06-24T14:02:28Z</time>
      </trkpt>
      <trkpt lat="50.28708" lon="3.85919">
        <ele>145</ele>
        <time>2020-06-24T14:02:29Z</time>
      </trkpt>
      <trkpt lat="50.28702" lon="3.85925">
        <ele>145.1</ele>
        <time>2020-06-24T14:02:30Z</time>
      </trkpt>
      <trkpt lat="50.28697" lon="3.85931">
        <ele>145.2</ele>
        <time>2020-06-24T14:02:31Z</time>
      </trkpt>
      <trkpt lat="50.28692" lon="3.85936">
        <ele>145.2</ele>
        <time>2020-06-24T14:02:32Z</time>
      </trkpt>
      <trkpt lat="50.28687" lon="3.85943">
        <ele>145.3</ele>
        <time>2020-06-24T14:02:33Z</time>
      </trkpt>
      <trkpt lat="50.28682" lon="3.85949">
        <ele>145.3</ele>
        <time>2020-06-24T14:02:34Z</time>
      </trkpt>
      <trkpt lat="50.28677" lon="3.85955">
        <ele>145.4</ele>
        <time>2020-06-24T14:02:35Z</time>
      </trkpt>
      <trkpt lat="50.28673" lon="3.85962">
        <ele>145.4</ele>
        <time>2020-06-24T14:02:36Z</time>
      </trkpt>
      <trkpt lat="50.28668" lon="3.85969">
        <ele>145.4</ele>
        <time>2020-06-24T14:02:37Z</time>
      </trkpt>
      <trkpt lat="50.28664" lon="3.85976">
        <ele>145.5</ele>
        <time>2020-06-24T14:02:38Z</time>
      </trkpt>
      <trkpt lat="50.28659" lon="3.85983">
        <ele>145.5</ele>
        <time>2020-06-24T14:02:39Z</time>
      </trkpt>
      <trkpt lat="50.28654" lon="3.8599">
        <ele>145.5</ele>
        <time>2020-06-24T14:02:40Z</time>
      </trkpt>
      <trkpt lat="50.2865" lon="3.85998">
        <ele>145.5</ele>
        <time>2020-06-24T14:02:41Z</time>
      </trkpt>
      <trkpt lat="50.28645" lon="3.86005">
        <ele>145.6</ele>
        <time>2020-06-24T14:02:42Z</time>
      </trkpt>
      <trkpt lat="50.28642" lon="3.86011">
        <ele>145.6</ele>
        <time>2020-06-24T14:02:43Z</time>
      </trkpt>
      <trkpt lat="50.28638" lon="3.86018">
        <ele>145.7</ele>
        <time>2020-06-24T14:02:44Z</time>
      </trkpt>
      <trkpt lat="50.28634" lon="3.86024">
        <ele>145.7</ele>
        <time>2020-06-24T14:02:45Z</time>
      </trkpt>
      <trkpt lat="50.2863" lon="3.8603">
        <ele>145.7</ele>
        <time>2020-06-24T14:02:46Z</time>
      </trkpt>
      <trkpt lat="50.28626" lon="3.86037">
        <ele>145.8</ele>
        <time>2020-06-24T14:02:47Z</time>
      </trkpt>
      <trkpt lat="50.28623" lon="3.86043">
        <ele>145.8</ele>
        <time>2020-06-24T14:02:48Z</time>
      </trkpt>
      <trkpt lat="50.28619" lon="3.8605">
        <ele>145.9</ele>
        <time>2020-06-24T14:02:49Z</time>
      </trkpt>
      <trkpt lat="50.28615" lon="3.86056">
        <ele>145.9</ele>
        <time>2020-06-24T14:02:50Z</time>
      </trkpt>
      <trkpt lat="50.28611" lon="3.86062">
        <ele>146</ele>
        <time>2020-06-24T14:02:51Z</time>
      </trkpt>
      <trkpt lat="50.28608" lon="3.86068">
        <ele>146.1</ele>
        <time>2020-06-24T14:02:52Z</time>
      </trkpt>
      <trkpt lat="50.28604" lon="3.86074">
        <ele>146.1</ele>
        <time>2020-06-24T14:02:53Z</time>
      </trkpt>
      <trkpt lat="50.28601" lon="3.8608">
        <ele>146.2</ele>
        <time>2020-06-24T14:02:54Z</time>
      </trkpt>
      <trkpt lat="50.28597" lon="3.86085">
        <ele>146.3</ele>
        <time>2020-06-24T14:02:55Z</time>
      </trkpt>
      <trkpt lat="50.28594" lon="3.86091">
        <ele>146.4</ele>
        <time>2020-06-24T14:02:56Z</time>
      </trkpt>
      <trkpt lat="50.28591" lon="3.86096">
        <ele>146.5</ele>
        <time>2020-06-24T14:02:57Z</time>
      </trkpt>
      <trkpt lat="50.28588" lon="3.86102">
        <ele>146.5</ele>
        <time>2020-06-24T14:02:58Z</time>
      </trkpt>
      <trkpt lat="50.28586" lon="3.86111">
        <ele>146.6</ele>
        <time>2020-06-24T14:02:59Z</time>
      </trkpt>
      <trkpt lat="50.28585" lon="3.8612">
        <ele>146.6</ele>
        <time>2020-06-24T14:03:00Z</time>
      </trkpt>
      <trkpt lat="50.28584" lon="3.86129">
        <ele>146.7</ele>
        <time>2020-06-24T14:03:01Z</time>
      </trkpt>
      <trkpt lat="50.28585" lon="3.86138">
        <ele>146.8</ele>
        <time>2020-06-24T14:03:02Z</time>
      </trkpt>
      <trkpt lat="50.28586" lon="3.86146">
        <ele>146.9</ele>
        <time>2020-06-24T14:03:03Z</time>
      </trkpt>
      <trkpt lat="50.28587" lon="3.86154">
        <ele>146.9</ele>
        <time>2020-06-24T14:03:04Z</time>
      </trkpt>
      <trkpt lat="50.28589" lon="3.8616">
        <ele>147</ele>
        <time>2020-06-24T14:03:05Z</time>
      </trkpt>
      <trkpt lat="50.2859" lon="3.86167">
        <ele>147.1</ele>
        <time>2020-06-24T14:03:06Z</time>
      </trkpt>
      <trkpt lat="50.28591" lon="3.86173">
        <ele>147.1</ele>
        <time>2020-06-24T14:03:07Z</time>
      </trkpt>
      <trkpt lat="50.28593" lon="3.86179">
        <ele>147.2</ele>
        <time>2020-06-24T14:03:08Z</time>
      </trkpt>
      <trkpt lat="50.28594" lon="3.86188">
        <ele>147.3</ele>
        <time>2020-06-24T14:03:09Z</time>
      </trkpt>
      <trkpt lat="50.28596" lon="3.86195">
        <ele>147.3</ele>
        <time>2020-06-24T14:03:10Z</time>
      </trkpt>
      <trkpt lat="50.28597" lon="3.86203">
        <ele>147.4</ele>
        <time>2020-06-24T14:03:11Z</time>
      </trkpt>
      <trkpt lat="50.28598" lon="3.8621">
        <ele>147.4</ele>
        <time>2020-06-24T14:03:12Z</time>
      </trkpt>
      <trkpt lat="50.28599" lon="3.86219">
        <ele>147.5</ele>
        <time>2020-06-24T14:03:13Z</time>
      </trkpt>
      <trkpt lat="50.28599" lon="3.86225">
        <ele>147.5</ele>
        <time>2020-06-24T14:03:14Z</time>
      </trkpt>
      <trkpt lat="50.28599" lon="3.86232">
        <ele>147.6</ele>
        <time>2020-06-24T14:03:15Z</time>
      </trkpt>
      <trkpt lat="50.28598" lon="3.8624">
        <ele>147.7</ele>
        <time>2020-06-24T14:03:16Z</time>
      </trkpt>
      <trkpt lat="50.28597" lon="3.86248">
        <ele>147.8</ele>
        <time>2020-06-24T14:03:17Z</time>
      </trkpt>
      <trkpt lat="50.28596" lon="3.86255">
        <ele>147.8</ele>
        <time>2020-06-24T14:03:18Z</time>
      </trkpt>
      <trkpt lat="50.28596" lon="3.86259">
        <ele>147.9</ele>
        <time>2020-06-24T14:03:19Z</time>
      </trkpt>
      <trkpt lat="50.28595" lon="3.86266">
        <ele>148</ele>
        <time>2020-06-24T14:03:20Z</time>
      </trkpt>
      <trkpt lat="50.28595" lon="3.86273">
        <ele>148</ele>
        <time>2020-06-24T14:03:21Z</time>
      </trkpt>
      <trkpt lat="50.28594" lon="3.86281">
        <ele>148.1</ele>
        <time>2020-06-24T14:03:22Z</time>
      </trkpt>
      <trkpt lat="50.28593" lon="3.86288">
        <ele>148.2</ele>
        <time>2020-06-24T14:03:23Z</time>
      </trkpt>
      <trkpt lat="50.28592" lon="3.86296">
        <ele>148.3</ele>
        <time>2020-06-24T14:03:24Z</time>
      </trkpt>
      <trkpt lat="50.28591" lon="3.86304">
        <ele>148.4</ele>
        <time>2020-06-24T14:03:25Z</time>
      </trkpt>
      <trkpt lat="50.2859" lon="3.86312">
        <ele>148.5</ele>
        <time>2020-06-24T14:03:26Z</time>
      </trkpt>
      <trkpt lat="50.28589" lon="3.86318">
        <ele>148.6</ele>
        <time>2020-06-24T14:03:27Z</time>
      </trkpt>
      <trkpt lat="50.28587" lon="3.86324">
        <ele>148.7</ele>
        <time>2020-06-24T14:03:28Z</time>
      </trkpt>
      <trkpt lat="50.28586" lon="3.8633">
        <ele>148.8</ele>
        <time>2020-06-24T14:03:29Z</time>
      </trkpt>
      <trkpt lat="50.28584" lon="3.86337">
        <ele>148.8</ele>
        <time>2020-06-24T14:03:30Z</time>
      </trkpt>
      <trkpt lat="50.28582" lon="3.86344">
        <ele>148.8</ele>
        <time>2020-06-24T14:03:31Z</time>
      </trkpt>
      <trkpt lat="50.28579" lon="3.86351">
        <ele>148.8</ele>
        <time>2020-06-24T14:03:32Z</time>
      </trkpt>
      <trkpt lat="50.28576" lon="3.86357">
        <ele>148.9</ele>
        <time>2020-06-24T14:03:33Z</time>
      </trkpt>
      <trkpt lat="50.28573" lon="3.86363">
        <ele>148.9</ele>
        <time>2020-06-24T14:03:34Z</time>
      </trkpt>
      <trkpt lat="50.28569" lon="3.86369">
        <ele>148.9</ele>
        <time>2020-06-24T14:03:35Z</time>
      </trkpt>
      <trkpt lat="50.28565" lon="3.86375">
        <ele>148.9</ele>
        <time>2020-06-24T14:03:36Z</time>
      </trkpt>
      <trkpt lat="50.28562" lon="3.86381">
        <ele>148.9</ele>
        <time>2020-06-24T14:03:37Z</time>
      </trkpt>
      <trkpt lat="50.28558" lon="3.86387">
        <ele>149</ele>
        <time>2020-06-24T14:03:38Z</time>
      </trkpt>
      <trkpt lat="50.28555" lon="3.86393">
        <ele>149.2</ele>
        <time>2020-06-24T14:03:39Z</time>
      </trkpt>
      <trkpt lat="50.28551" lon="3.86397">
        <ele>149.3</ele>
        <time>2020-06-24T14:03:40Z</time>
      </trkpt>
      <trkpt lat="50.28548" lon="3.86402">
        <ele>149.4</ele>
        <time>2020-06-24T14:03:41Z</time>
      </trkpt>
      <trkpt lat="50.28544" lon="3.86409">
        <ele>149.6</ele>
        <time>2020-06-24T14:03:42Z</time>
      </trkpt>
      <trkpt lat="50.2854" lon="3.86415">
        <ele>149.7</ele>
        <time>2020-06-24T14:03:43Z</time>
      </trkpt>
      <trkpt lat="50.28536" lon="3.86421">
        <ele>149.9</ele>
        <time>2020-06-24T14:03:44Z</time>
      </trkpt>
      <trkpt lat="50.28534" lon="3.86425">
        <ele>150</ele>
        <time>2020-06-24T14:03:45Z</time>
      </trkpt>
      <trkpt lat="50.2853" lon="3.86431">
        <ele>150.1</ele>
        <time>2020-06-24T14:03:46Z</time>
      </trkpt>
      <trkpt lat="50.28527" lon="3.86436">
        <ele>150.2</ele>
        <time>2020-06-24T14:03:47Z</time>
      </trkpt>
      <trkpt lat="50.28524" lon="3.8644">
        <ele>150.2</ele>
        <time>2020-06-24T14:03:48Z</time>
      </trkpt>
      <trkpt lat="50.28521" lon="3.86446">
        <ele>150.3</ele>
        <time>2020-06-24T14:03:49Z</time>
      </trkpt>
      <trkpt lat="50.28517" lon="3.86452">
        <ele>150.3</ele>
        <time>2020-06-24T14:03:50Z</time>
      </trkpt>
      <trkpt lat="50.28513" lon="3.86457">
        <ele>150.4</ele>
        <time>2020-06-24T14:03:51Z</time>
      </trkpt>
      <trkpt lat="50.2851" lon="3.86463">
        <ele>150.4</ele>
        <time>2020-06-24T14:03:52Z</time>
      </trkpt>
      <trkpt lat="50.28506" lon="3.8647">
        <ele>150.5</ele>
        <time>2020-06-24T14:03:53Z</time>
      </trkpt>
      <trkpt lat="50.28501" lon="3.86476">
        <ele>150.6</ele>
        <time>2020-06-24T14:03:54Z</time>
      </trkpt>
      <trkpt lat="50.28497" lon="3.86484">
        <ele>150.7</ele>
        <time>2020-06-24T14:03:55Z</time>
      </trkpt>
      <trkpt lat="50.28493" lon="3.86489">
        <ele>150.8</ele>
        <time>2020-06-24T14:03:56Z</time>
      </trkpt>
      <trkpt lat="50.28489" lon="3.86494">
        <ele>150.9</ele>
        <time>2020-06-24T14:03:57Z</time>
      </trkpt>
      <trkpt lat="50.28485" lon="3.865">
        <ele>151</ele>
        <time>2020-06-24T14:03:58Z</time>
      </trkpt>
      <trkpt lat="50.28481" lon="3.86505">
        <ele>151.1</ele>
        <time>2020-06-24T14:03:59Z</time>
      </trkpt>
      <trkpt lat="50.28476" lon="3.86511">
        <ele>151.2</ele>
        <time>2020-06-24T14:04:00Z</time>
      </trkpt>
      <trkpt lat="50.28472" lon="3.86515">
        <ele>151.3</ele>
        <time>2020-06-24T14:04:01Z</time>
      </trkpt>
      <trkpt lat="50.28468" lon="3.8652">
        <ele>151.3</ele>
        <time>2020-06-24T14:04:02Z</time>
      </trkpt>
      <trkpt lat="50.28464" lon="3.86523">
        <ele>151.4</ele>
        <time>2020-06-24T14:04:03Z</time>
      </trkpt>
      <trkpt lat="50.28459" lon="3.86528">
        <ele>151.5</ele>
        <time>2020-06-24T14:04:04Z</time>
      </trkpt>
      <trkpt lat="50.28454" lon="3.86532">
        <ele>151.6</ele>
        <time>2020-06-24T14:04:05Z</time>
      </trkpt>
      <trkpt lat="50.28448" lon="3.86538">
        <ele>151.7</ele>
        <time>2020-06-24T14:04:06Z</time>
      </trkpt>
      <trkpt lat="50.2844" lon="3.86543">
        <ele>151.9</ele>
        <time>2020-06-24T14:04:07Z</time>
      </trkpt>
      <trkpt lat="50.28435" lon="3.86548">
        <ele>152</ele>
        <time>2020-06-24T14:04:08Z</time>
      </trkpt>
      <trkpt lat="50.2843" lon="3.86553">
        <ele>152</ele>
        <time>2020-06-24T14:04:09Z</time>
      </trkpt>
      <trkpt lat="50.28425" lon="3.86558">
        <ele>152.1</ele>
        <time>2020-06-24T14:04:10Z</time>
      </trkpt>
      <trkpt lat="50.2842" lon="3.86563">
        <ele>152.2</ele>
        <time>2020-06-24T14:04:11Z</time>
      </trkpt>
      <trkpt lat="50.28416" lon="3.86568">
        <ele>152.3</ele>
        <time>2020-06-24T14:04:12Z</time>
      </trkpt>
      <trkpt lat="50.28413" lon="3.86571">
        <ele>152.4</ele>
        <time>2020-06-24T14:04:13Z</time>
      </trkpt>
      <trkpt lat="50.2841" lon="3.86574">
        <ele>152.5</ele>
        <time>2020-06-24T14:04:14Z</time>
      </trkpt>
      <trkpt lat="50.28405" lon="3.86579">
        <ele>152.6</ele>
        <time>2020-06-24T14:04:15Z</time>
      </trkpt>
      <trkpt lat="50.28402" lon="3.86583">
        <ele>152.7</ele>
        <time>2020-06-24T14:04:16Z</time>
      </trkpt>
      <trkpt lat="50.28398" lon="3.86586">
        <ele>152.7</ele>
        <time>2020-06-24T14:04:17Z</time>
      </trkpt>
      <trkpt lat="50.28395" lon="3.8659">
        <ele>152.8</ele>
        <time>2020-06-24T14:04:18Z</time>
      </trkpt>
      <trkpt lat="50.28392" lon="3.86593">
        <ele>152.9</ele>
        <time>2020-06-24T14:04:19Z</time>
      </trkpt>
      <trkpt lat="50.28388" lon="3.86599">
        <ele>153</ele>
        <time>2020-06-24T14:04:20Z</time>
      </trkpt>
      <trkpt lat="50.28385" lon="3.86602">
        <ele>153.1</ele>
        <time>2020-06-24T14:04:21Z</time>
      </trkpt>
      <trkpt lat="50.28383" lon="3.86606">
        <ele>153.2</ele>
        <time>2020-06-24T14:04:22Z</time>
      </trkpt>
      <trkpt lat="50.2838" lon="3.86608">
        <ele>153.3</ele>
        <time>2020-06-24T14:04:23Z</time>
      </trkpt>
      <trkpt lat="50.28376" lon="3.86612">
        <ele>153.5</ele>
        <time>2020-06-24T14:04:24Z</time>
      </trkpt>
      <trkpt lat="50.28372" lon="3.86617">
        <ele>153.7</ele>
        <time>2020-06-24T14:04:25Z</time>
      </trkpt>
      <trkpt lat="50.28367" lon="3.86623">
        <ele>153.8</ele>
        <time>2020-06-24T14:04:26Z</time>
      </trkpt>
      <trkpt lat="50.28363" lon="3.86628">
        <ele>153.9</ele>
        <time>2020-06-24T14:04:27Z</time>
      </trkpt>
      <trkpt lat="50.2836" lon="3.86633">
        <ele>154.1</ele>
        <time>2020-06-24T14:04:28Z</time>
      </trkpt>
      <trkpt lat="50.28356" lon="3.86639">
        <ele>154.2</ele>
        <time>2020-06-24T14:04:29Z</time>
      </trkpt>
      <trkpt lat="50.28353" lon="3.86644">
        <ele>154.3</ele>
        <time>2020-06-24T14:04:30Z</time>
      </trkpt>
      <trkpt lat="50.28349" lon="3.8665">
        <ele>154.5</ele>
        <time>2020-06-24T14:04:31Z</time>
      </trkpt>
      <trkpt lat="50.28346" lon="3.86655">
        <ele>154.7</ele>
        <time>2020-06-24T14:04:32Z</time>
      </trkpt>
      <trkpt lat="50.28342" lon="3.86659">
        <ele>154.8</ele>
        <time>2020-06-24T14:04:33Z</time>
      </trkpt>
      <trkpt lat="50.28338" lon="3.86665">
        <ele>155</ele>
        <time>2020-06-24T14:04:34Z</time>
      </trkpt>
      <trkpt lat="50.28333" lon="3.86671">
        <ele>155.2</ele>
        <time>2020-06-24T14:04:35Z</time>
      </trkpt>
      <trkpt lat="50.2833" lon="3.86675">
        <ele>155.4</ele>
        <time>2020-06-24T14:04:36Z</time>
      </trkpt>
      <trkpt lat="50.28326" lon="3.8668">
        <ele>155.6</ele>
        <time>2020-06-24T14:04:37Z</time>
      </trkpt>
      <trkpt lat="50.28322" lon="3.86685">
        <ele>155.7</ele>
        <time>2020-06-24T14:04:38Z</time>
      </trkpt>
      <trkpt lat="50.28317" lon="3.8669">
        <ele>155.9</ele>
        <time>2020-06-24T14:04:39Z</time>
      </trkpt>
      <trkpt lat="50.28312" lon="3.86696">
        <ele>156.1</ele>
        <time>2020-06-24T14:04:40Z</time>
      </trkpt>
      <trkpt lat="50.28309" lon="3.86701">
        <ele>156.3</ele>
        <time>2020-06-24T14:04:41Z</time>
      </trkpt>
      <trkpt lat="50.28303" lon="3.86706">
        <ele>156.5</ele>
        <time>2020-06-24T14:04:42Z</time>
      </trkpt>
      <trkpt lat="50.28298" lon="3.86712">
        <ele>156.8</ele>
        <time>2020-06-24T14:04:43Z</time>
      </trkpt>
      <trkpt lat="50.28293" lon="3.86716">
        <ele>157</ele>
        <time>2020-06-24T14:04:44Z</time>
      </trkpt>
      <trkpt lat="50.28288" lon="3.86721">
        <ele>157.2</ele>
        <time>2020-06-24T14:04:45Z</time>
      </trkpt>
      <trkpt lat="50.28285" lon="3.86724">
        <ele>157.3</ele>
        <time>2020-06-24T14:04:46Z</time>
      </trkpt>
      <trkpt lat="50.28281" lon="3.86728">
        <ele>157.5</ele>
        <time>2020-06-24T14:04:47Z</time>
      </trkpt>
      <trkpt lat="50.28277" lon="3.86731">
        <ele>157.7</ele>
        <time>2020-06-24T14:04:48Z</time>
      </trkpt>
      <trkpt lat="50.28274" lon="3.86735">
        <ele>157.8</ele>
        <time>2020-06-24T14:04:49Z</time>
      </trkpt>
      <trkpt lat="50.28269" lon="3.8674">
        <ele>158</ele>
        <time>2020-06-24T14:04:50Z</time>
      </trkpt>
      <trkpt lat="50.28264" lon="3.86745">
        <ele>158.1</ele>
        <time>2020-06-24T14:04:51Z</time>
      </trkpt>
      <trkpt lat="50.2826" lon="3.8675">
        <ele>158.3</ele>
        <time>2020-06-24T14:04:52Z</time>
      </trkpt>
      <trkpt lat="50.28256" lon="3.86754">
        <ele>158.4</ele>
        <time>2020-06-24T14:04:53Z</time>
      </trkpt>
      <trkpt lat="50.28253" lon="3.86759">
        <ele>158.4</ele>
        <time>2020-06-24T14:04:54Z</time>
      </trkpt>
      <trkpt lat="50.28249" lon="3.86763">
        <ele>158.5</ele>
        <time>2020-06-24T14:04:55Z</time>
      </trkpt>
      <trkpt lat="50.28246" lon="3.86767">
        <ele>158.5</ele>
        <time>2020-06-24T14:04:56Z</time>
      </trkpt>
      <trkpt lat="50.28242" lon="3.86772">
        <ele>158.6</ele>
        <time>2020-06-24T14:04:57Z</time>
      </trkpt>
      <trkpt lat="50.28238" lon="3.86778">
        <ele>158.6</ele>
        <time>2020-06-24T14:04:58Z</time>
      </trkpt>
      <trkpt lat="50.28234" lon="3.86782">
        <ele>158.6</ele>
        <time>2020-06-24T14:04:59Z</time>
      </trkpt>
      <trkpt lat="50.2823" lon="3.86787">
        <ele>158.6</ele>
        <time>2020-06-24T14:05:00Z</time>
      </trkpt>
      <trkpt lat="50.28226" lon="3.86792">
        <ele>158.6</ele>
        <time>2020-06-24T14:05:01Z</time>
      </trkpt>
      <trkpt lat="50.28221" lon="3.86798">
        <ele>158.6</ele>
        <time>2020-06-24T14:05:02Z</time>
      </trkpt>
      <trkpt lat="50.28218" lon="3.86802">
        <ele>158.7</ele>
        <time>2020-06-24T14:05:03Z</time>
      </trkpt>
      <trkpt lat="50.28214" lon="3.86807">
        <ele>158.7</ele>
        <time>2020-06-24T14:05:04Z</time>
      </trkpt>
      <trkpt lat="50.2821" lon="3.8681">
        <ele>158.7</ele>
        <time>2020-06-24T14:05:05Z</time>
      </trkpt>
      <trkpt lat="50.28206" lon="3.86815">
        <ele>158.6</ele>
        <time>2020-06-24T14:05:06Z</time>
      </trkpt>
      <trkpt lat="50.28201" lon="3.8682">
        <ele>158.6</ele>
        <time>2020-06-24T14:05:07Z</time>
      </trkpt>
      <trkpt lat="50.28197" lon="3.86826">
        <ele>158.6</ele>
        <time>2020-06-24T14:05:08Z</time>
      </trkpt>
      <trkpt lat="50.28192" lon="3.86831">
        <ele>158.6</ele>
        <time>2020-06-24T14:05:09Z</time>
      </trkpt>
      <trkpt lat="50.28187" lon="3.86838">
        <ele>158.5</ele>
        <time>2020-06-24T14:05:10Z</time>
      </trkpt>
      <trkpt lat="50.28182" lon="3.86844">
        <ele>158.5</ele>
        <time>2020-06-24T14:05:11Z</time>
      </trkpt>
      <trkpt lat="50.28178" lon="3.86849">
        <ele>158.4</ele>
        <time>2020-06-24T14:05:12Z</time>
      </trkpt>
      <trkpt lat="50.28174" lon="3.86854">
        <ele>158.4</ele>
        <time>2020-06-24T14:05:13Z</time>
      </trkpt>
      <trkpt lat="50.28169" lon="3.86859">
        <ele>158.4</ele>
        <time>2020-06-24T14:05:14Z</time>
      </trkpt>
      <trkpt lat="50.28165" lon="3.86864">
        <ele>158.3</ele>
        <time>2020-06-24T14:05:15Z</time>
      </trkpt>
      <trkpt lat="50.28161" lon="3.86868">
        <ele>158.3</ele>
        <time>2020-06-24T14:05:16Z</time>
      </trkpt>
      <trkpt lat="50.28158" lon="3.86872">
        <ele>158.2</ele>
        <time>2020-06-24T14:05:17Z</time>
      </trkpt>
      <trkpt lat="50.28154" lon="3.86876">
        <ele>158.2</ele>
        <time>2020-06-24T14:05:18Z</time>
      </trkpt>
      <trkpt lat="50.2815" lon="3.86881">
        <ele>158.2</ele>
        <time>2020-06-24T14:05:19Z</time>
      </trkpt>
      <trkpt lat="50.28145" lon="3.86887">
        <ele>158.1</ele>
        <time>2020-06-24T14:05:20Z</time>
      </trkpt>
      <trkpt lat="50.28141" lon="3.86892">
        <ele>158.1</ele>
        <time>2020-06-24T14:05:21Z</time>
      </trkpt>
      <trkpt lat="50.28136" lon="3.86898">
        <ele>158.1</ele>
        <time>2020-06-24T14:05:22Z</time>
      </trkpt>
      <trkpt lat="50.28131" lon="3.86903">
        <ele>158.2</ele>
        <time>2020-06-24T14:05:23Z</time>
      </trkpt>
      <trkpt lat="50.28127" lon="3.86909">
        <ele>158.2</ele>
        <time>2020-06-24T14:05:24Z</time>
      </trkpt>
      <trkpt lat="50.28122" lon="3.86914">
        <ele>158.2</ele>
        <time>2020-06-24T14:05:25Z</time>
      </trkpt>
      <trkpt lat="50.28119" lon="3.8692">
        <ele>158.3</ele>
        <time>2020-06-24T14:05:26Z</time>
      </trkpt>
      <trkpt lat="50.28114" lon="3.86925">
        <ele>158.3</ele>
        <time>2020-06-24T14:05:27Z</time>
      </trkpt>
      <trkpt lat="50.2811" lon="3.86932">
        <ele>158.3</ele>
        <time>2020-06-24T14:05:28Z</time>
      </trkpt>
      <trkpt lat="50.28106" lon="3.86938">
        <ele>158.3</ele>
        <time>2020-06-24T14:05:29Z</time>
      </trkpt>
      <trkpt lat="50.28102" lon="3.86945">
        <ele>158.3</ele>
        <time>2020-06-24T14:05:30Z</time>
      </trkpt>
      <trkpt lat="50.28099" lon="3.8695">
        <ele>158.3</ele>
        <time>2020-06-24T14:05:31Z</time>
      </trkpt>
      <trkpt lat="50.28096" lon="3.86956">
        <ele>158.3</ele>
        <time>2020-06-24T14:05:32Z</time>
      </trkpt>
      <trkpt lat="50.28093" lon="3.86961">
        <ele>158.3</ele>
        <time>2020-06-24T14:05:33Z</time>
      </trkpt>
      <trkpt lat="50.2809" lon="3.86967">
        <ele>158.4</ele>
        <time>2020-06-24T14:05:34Z</time>
      </trkpt>
      <trkpt lat="50.28086" lon="3.86973">
        <ele>158.4</ele>
        <time>2020-06-24T14:05:35Z</time>
      </trkpt>
      <trkpt lat="50.28083" lon="3.8698">
        <ele>158.5</ele>
        <time>2020-06-24T14:05:36Z</time>
      </trkpt>
      <trkpt lat="50.28081" lon="3.86987">
        <ele>158.5</ele>
        <time>2020-06-24T14:05:37Z</time>
      </trkpt>
      <trkpt lat="50.28078" lon="3.86993">
        <ele>158.5</ele>
        <time>2020-06-24T14:05:38Z</time>
      </trkpt>
      <trkpt lat="50.28075" lon="3.87">
        <ele>158.6</ele>
        <time>2020-06-24T14:05:39Z</time>
      </trkpt>
      <trkpt lat="50.28072" lon="3.87006">
        <ele>158.6</ele>
        <time>2020-06-24T14:05:40Z</time>
      </trkpt>
      <trkpt lat="50.2807" lon="3.87012">
        <ele>158.6</ele>
        <time>2020-06-24T14:05:41Z</time>
      </trkpt>
      <trkpt lat="50.28067" lon="3.87019">
        <ele>158.6</ele>
        <time>2020-06-24T14:05:42Z</time>
      </trkpt>
      <trkpt lat="50.28064" lon="3.87025">
        <ele>158.6</ele>
        <time>2020-06-24T14:05:43Z</time>
      </trkpt>
      <trkpt lat="50.28062" lon="3.87032">
        <ele>158.6</ele>
        <time>2020-06-24T14:05:44Z</time>
      </trkpt>
      <trkpt lat="50.28059" lon="3.87038">
        <ele>158.6</ele>
        <time>2020-06-24T14:05:45Z</time>
      </trkpt>
      <trkpt lat="50.28056" lon="3.87043">
        <ele>158.6</ele>
        <time>2020-06-24T14:05:46Z</time>
      </trkpt>
      <trkpt lat="50.28053" lon="3.8705">
        <ele>158.6</ele>
        <time>2020-06-24T14:05:47Z</time>
      </trkpt>
      <trkpt lat="50.2805" lon="3.87056">
        <ele>158.6</ele>
        <time>2020-06-24T14:05:48Z</time>
      </trkpt>
      <trkpt lat="50.28047" lon="3.87063">
        <ele>158.6</ele>
        <time>2020-06-24T14:05:49Z</time>
      </trkpt>
      <trkpt lat="50.28044" lon="3.8707">
        <ele>158.6</ele>
        <time>2020-06-24T14:05:50Z</time>
      </trkpt>
      <trkpt lat="50.2804" lon="3.87077">
        <ele>158.7</ele>
        <time>2020-06-24T14:05:51Z</time>
      </trkpt>
      <trkpt lat="50.28037" lon="3.87084">
        <ele>158.7</ele>
        <time>2020-06-24T14:05:52Z</time>
      </trkpt>
      <trkpt lat="50.28033" lon="3.87091">
        <ele>158.6</ele>
        <time>2020-06-24T14:05:53Z</time>
      </trkpt>
      <trkpt lat="50.2803" lon="3.87097">
        <ele>158.6</ele>
        <time>2020-06-24T14:05:54Z</time>
      </trkpt>
      <trkpt lat="50.28026" lon="3.87104">
        <ele>158.6</ele>
        <time>2020-06-24T14:05:55Z</time>
      </trkpt>
      <trkpt lat="50.28022" lon="3.8711">
        <ele>158.5</ele>
        <time>2020-06-24T14:05:56Z</time>
      </trkpt>
      <trkpt lat="50.28019" lon="3.87116">
        <ele>158.5</ele>
        <time>2020-06-24T14:05:57Z</time>
      </trkpt>
      <trkpt lat="50.28015" lon="3.87123">
        <ele>158.5</ele>
        <time>2020-06-24T14:05:58Z</time>
      </trkpt>
      <trkpt lat="50.2801" lon="3.8713">
        <ele>158.5</ele>
        <time>2020-06-24T14:05:59Z</time>
      </trkpt>
      <trkpt lat="50.28007" lon="3.87136">
        <ele>158.5</ele>
        <time>2020-06-24T14:06:00Z</time>
      </trkpt>
      <trkpt lat="50.28003" lon="3.87141">
        <ele>158.5</ele>
        <time>2020-06-24T14:06:01Z</time>
      </trkpt>
      <trkpt lat="50.27999" lon="3.87148">
        <ele>158.5</ele>
        <time>2020-06-24T14:06:02Z</time>
      </trkpt>
      <trkpt lat="50.27995" lon="3.87154">
        <ele>158.5</ele>
        <time>2020-06-24T14:06:03Z</time>
      </trkpt>
      <trkpt lat="50.27991" lon="3.8716">
        <ele>158.5</ele>
        <time>2020-06-24T14:06:04Z</time>
      </trkpt>
      <trkpt lat="50.27987" lon="3.87167">
        <ele>158.5</ele>
        <time>2020-06-24T14:06:05Z</time>
      </trkpt>
      <trkpt lat="50.27983" lon="3.87172">
        <ele>158.5</ele>
        <time>2020-06-24T14:06:06Z</time>
      </trkpt>
      <trkpt lat="50.27979" lon="3.87179">
        <ele>158.5</ele>
        <time>2020-06-24T14:06:07Z</time>
      </trkpt>
      <trkpt lat="50.27975" lon="3.87186">
        <ele>158.5</ele>
        <time>2020-06-24T14:06:08Z</time>
      </trkpt>
      <trkpt lat="50.27971" lon="3.87192">
        <ele>158.5</ele>
        <time>2020-06-24T14:06:09Z</time>
      </trkpt>
      <trkpt lat="50.27967" lon="3.87198">
        <ele>158.5</ele>
        <time>2020-06-24T14:06:10Z</time>
      </trkpt>
      <trkpt lat="50.27963" lon="3.87204">
        <ele>158.5</ele>
        <time>2020-06-24T14:06:11Z</time>
      </trkpt>
      <trkpt lat="50.27959" lon="3.8721">
        <ele>158.5</ele>
        <time>2020-06-24T14:06:12Z</time>
      </trkpt>
      <trkpt lat="50.27954" lon="3.87216">
        <ele>158.5</ele>
        <time>2020-06-24T14:06:13Z</time>
      </trkpt>
      <trkpt lat="50.2795" lon="3.87222">
        <ele>158.6</ele>
        <time>2020-06-24T14:06:14Z</time>
      </trkpt>
      <trkpt lat="50.27947" lon="3.87228">
        <ele>158.6</ele>
        <time>2020-06-24T14:06:15Z</time>
      </trkpt>
      <trkpt lat="50.27942" lon="3.87235">
        <ele>158.6</ele>
        <time>2020-06-24T14:06:16Z</time>
      </trkpt>
      <trkpt lat="50.27938" lon="3.87241">
        <ele>158.6</ele>
        <time>2020-06-24T14:06:17Z</time>
      </trkpt>
      <trkpt lat="50.27935" lon="3.87246">
        <ele>158.6</ele>
        <time>2020-06-24T14:06:18Z</time>
      </trkpt>
      <trkpt lat="50.27931" lon="3.87252">
        <ele>158.7</ele>
        <time>2020-06-24T14:06:19Z</time>
      </trkpt>
      <trkpt lat="50.27927" lon="3.87258">
        <ele>158.7</ele>
        <time>2020-06-24T14:06:20Z</time>
      </trkpt>
      <trkpt lat="50.27922" lon="3.87265">
        <ele>158.7</ele>
        <time>2020-06-24T14:06:21Z</time>
      </trkpt>
      <trkpt lat="50.27918" lon="3.8727">
        <ele>158.7</ele>
        <time>2020-06-24T14:06:22Z</time>
      </trkpt>
      <trkpt lat="50.27914" lon="3.87276">
        <ele>158.7</ele>
        <time>2020-06-24T14:06:23Z</time>
      </trkpt>
      <trkpt lat="50.2791" lon="3.87283">
        <ele>158.8</ele>
        <time>2020-06-24T14:06:24Z</time>
      </trkpt>
      <trkpt lat="50.27906" lon="3.87289">
        <ele>158.8</ele>
        <time>2020-06-24T14:06:25Z</time>
      </trkpt>
      <trkpt lat="50.27902" lon="3.87295">
        <ele>158.8</ele>
        <time>2020-06-24T14:06:26Z</time>
      </trkpt>
      <trkpt lat="50.27898" lon="3.87301">
        <ele>158.8</ele>
        <time>2020-06-24T14:06:27Z</time>
      </trkpt>
      <trkpt lat="50.27894" lon="3.87307">
        <ele>158.8</ele>
        <time>2020-06-24T14:06:28Z</time>
      </trkpt>
      <trkpt lat="50.27891" lon="3.87313">
        <ele>158.8</ele>
        <time>2020-06-24T14:06:29Z</time>
      </trkpt>
      <trkpt lat="50.27886" lon="3.87319">
        <ele>158.9</ele>
        <time>2020-06-24T14:06:30Z</time>
      </trkpt>
      <trkpt lat="50.27883" lon="3.87325">
        <ele>158.9</ele>
        <time>2020-06-24T14:06:31Z</time>
      </trkpt>
      <trkpt lat="50.27879" lon="3.87332">
        <ele>159</ele>
        <time>2020-06-24T14:06:32Z</time>
      </trkpt>
      <trkpt lat="50.27875" lon="3.87339">
        <ele>159</ele>
        <time>2020-06-24T14:06:33Z</time>
      </trkpt>
      <trkpt lat="50.27871" lon="3.87346">
        <ele>159</ele>
        <time>2020-06-24T14:06:34Z</time>
      </trkpt>
      <trkpt lat="50.27867" lon="3.87352">
        <ele>159</ele>
        <time>2020-06-24T14:06:35Z</time>
      </trkpt>
      <trkpt lat="50.27863" lon="3.87358">
        <ele>159</ele>
        <time>2020-06-24T14:06:36Z</time>
      </trkpt>
      <trkpt lat="50.2786" lon="3.87364">
        <ele>159</ele>
        <time>2020-06-24T14:06:37Z</time>
      </trkpt>
      <trkpt lat="50.27856" lon="3.87371">
        <ele>159</ele>
        <time>2020-06-24T14:06:38Z</time>
      </trkpt>
      <trkpt lat="50.27852" lon="3.87378">
        <ele>159</ele>
        <time>2020-06-24T14:06:39Z</time>
      </trkpt>
      <trkpt lat="50.27849" lon="3.87385">
        <ele>159</ele>
        <time>2020-06-24T14:06:40Z</time>
      </trkpt>
      <trkpt lat="50.27846" lon="3.87392">
        <ele>159.1</ele>
        <time>2020-06-24T14:06:41Z</time>
      </trkpt>
      <trkpt lat="50.27841" lon="3.87399">
        <ele>159.1</ele>
        <time>2020-06-24T14:06:42Z</time>
      </trkpt>
      <trkpt lat="50.27837" lon="3.87406">
        <ele>159.1</ele>
        <time>2020-06-24T14:06:43Z</time>
      </trkpt>
      <trkpt lat="50.27833" lon="3.87413">
        <ele>159.1</ele>
        <time>2020-06-24T14:06:44Z</time>
      </trkpt>
      <trkpt lat="50.2783" lon="3.8742">
        <ele>159.1</ele>
        <time>2020-06-24T14:06:45Z</time>
      </trkpt>
      <trkpt lat="50.27826" lon="3.87427">
        <ele>159.1</ele>
        <time>2020-06-24T14:06:46Z</time>
      </trkpt>
      <trkpt lat="50.27823" lon="3.87431">
        <ele>159.1</ele>
        <time>2020-06-24T14:06:47Z</time>
      </trkpt>
      <trkpt lat="50.27819" lon="3.87437">
        <ele>159</ele>
        <time>2020-06-24T14:06:48Z</time>
      </trkpt>
      <trkpt lat="50.27815" lon="3.87444">
        <ele>159</ele>
        <time>2020-06-24T14:06:49Z</time>
      </trkpt>
      <trkpt lat="50.2781" lon="3.87452">
        <ele>158.9</ele>
        <time>2020-06-24T14:06:50Z</time>
      </trkpt>
      <trkpt lat="50.27806" lon="3.87462">
        <ele>158.7</ele>
        <time>2020-06-24T14:06:51Z</time>
      </trkpt>
      <trkpt lat="50.27802" lon="3.8747">
        <ele>158.6</ele>
        <time>2020-06-24T14:06:52Z</time>
      </trkpt>
      <trkpt lat="50.27799" lon="3.87477">
        <ele>158.5</ele>
        <time>2020-06-24T14:06:53Z</time>
      </trkpt>
      <trkpt lat="50.27795" lon="3.87485">
        <ele>158.4</ele>
        <time>2020-06-24T14:06:54Z</time>
      </trkpt>
      <trkpt lat="50.27792" lon="3.87494">
        <ele>158.2</ele>
        <time>2020-06-24T14:06:55Z</time>
      </trkpt>
      <trkpt lat="50.27789" lon="3.87502">
        <ele>158</ele>
        <time>2020-06-24T14:06:56Z</time>
      </trkpt>
      <trkpt lat="50.27786" lon="3.8751">
        <ele>157.9</ele>
        <time>2020-06-24T14:06:57Z</time>
      </trkpt>
      <trkpt lat="50.27782" lon="3.87518">
        <ele>157.7</ele>
        <time>2020-06-24T14:06:58Z</time>
      </trkpt>
      <trkpt lat="50.27779" lon="3.87525">
        <ele>157.5</ele>
        <time>2020-06-24T14:06:59Z</time>
      </trkpt>
      <trkpt lat="50.27777" lon="3.87534">
        <ele>157.3</ele>
        <time>2020-06-24T14:07:00Z</time>
      </trkpt>
      <trkpt lat="50.27774" lon="3.87544">
        <ele>157.1</ele>
        <time>2020-06-24T14:07:01Z</time>
      </trkpt>
      <trkpt lat="50.2777" lon="3.87553">
        <ele>156.9</ele>
        <time>2020-06-24T14:07:02Z</time>
      </trkpt>
      <trkpt lat="50.27767" lon="3.87562">
        <ele>156.6</ele>
        <time>2020-06-24T14:07:03Z</time>
      </trkpt>
      <trkpt lat="50.27763" lon="3.8757">
        <ele>156.5</ele>
        <time>2020-06-24T14:07:04Z</time>
      </trkpt>
      <trkpt lat="50.27759" lon="3.87579">
        <ele>156.3</ele>
        <time>2020-06-24T14:07:05Z</time>
      </trkpt>
      <trkpt lat="50.27756" lon="3.87588">
        <ele>156.1</ele>
        <time>2020-06-24T14:07:06Z</time>
      </trkpt>
      <trkpt lat="50.27752" lon="3.87597">
        <ele>155.9</ele>
        <time>2020-06-24T14:07:07Z</time>
      </trkpt>
      <trkpt lat="50.27748" lon="3.87606">
        <ele>155.8</ele>
        <time>2020-06-24T14:07:08Z</time>
      </trkpt>
      <trkpt lat="50.27745" lon="3.87614">
        <ele>155.7</ele>
        <time>2020-06-24T14:07:09Z</time>
      </trkpt>
      <trkpt lat="50.27742" lon="3.87622">
        <ele>155.6</ele>
        <time>2020-06-24T14:07:10Z</time>
      </trkpt>
      <trkpt lat="50.27739" lon="3.87629">
        <ele>155.6</ele>
        <time>2020-06-24T14:07:11Z</time>
      </trkpt>
      <trkpt lat="50.27735" lon="3.87637">
        <ele>155.5</ele>
        <time>2020-06-24T14:07:12Z</time>
      </trkpt>
      <trkpt lat="50.27731" lon="3.87644">
        <ele>155.4</ele>
        <time>2020-06-24T14:07:13Z</time>
      </trkpt>
      <trkpt lat="50.27727" lon="3.87651">
        <ele>155.3</ele>
        <time>2020-06-24T14:07:14Z</time>
      </trkpt>
      <trkpt lat="50.27722" lon="3.87657">
        <ele>155.2</ele>
        <time>2020-06-24T14:07:15Z</time>
      </trkpt>
      <trkpt lat="50.27719" lon="3.87664">
        <ele>155.1</ele>
        <time>2020-06-24T14:07:16Z</time>
      </trkpt>
      <trkpt lat="50.27716" lon="3.87669">
        <ele>155.1</ele>
        <time>2020-06-24T14:07:17Z</time>
      </trkpt>
      <trkpt lat="50.27712" lon="3.87676">
        <ele>155</ele>
        <time>2020-06-24T14:07:18Z</time>
      </trkpt>
      <trkpt lat="50.27708" lon="3.87682">
        <ele>154.9</ele>
        <time>2020-06-24T14:07:19Z</time>
      </trkpt>
      <trkpt lat="50.27705" lon="3.87687">
        <ele>154.8</ele>
        <time>2020-06-24T14:07:20Z</time>
      </trkpt>
      <trkpt lat="50.27701" lon="3.87695">
        <ele>154.6</ele>
        <time>2020-06-24T14:07:21Z</time>
      </trkpt>
      <trkpt lat="50.27696" lon="3.87703">
        <ele>154.4</ele>
        <time>2020-06-24T14:07:22Z</time>
      </trkpt>
      <trkpt lat="50.27693" lon="3.87713">
        <ele>154.1</ele>
        <time>2020-06-24T14:07:23Z</time>
      </trkpt>
      <trkpt lat="50.2769" lon="3.87724">
        <ele>153.8</ele>
        <time>2020-06-24T14:07:24Z</time>
      </trkpt>
      <trkpt lat="50.27687" lon="3.87734">
        <ele>153.5</ele>
        <time>2020-06-24T14:07:25Z</time>
      </trkpt>
      <trkpt lat="50.27684" lon="3.87744">
        <ele>153.3</ele>
        <time>2020-06-24T14:07:26Z</time>
      </trkpt>
      <trkpt lat="50.27681" lon="3.87755">
        <ele>153</ele>
        <time>2020-06-24T14:07:27Z</time>
      </trkpt>
      <trkpt lat="50.27678" lon="3.87765">
        <ele>152.8</ele>
        <time>2020-06-24T14:07:28Z</time>
      </trkpt>
      <trkpt lat="50.27676" lon="3.87776">
        <ele>152.6</ele>
        <time>2020-06-24T14:07:29Z</time>
      </trkpt>
      <trkpt lat="50.27673" lon="3.87786">
        <ele>152.4</ele>
        <time>2020-06-24T14:07:30Z</time>
      </trkpt>
      <trkpt lat="50.2767" lon="3.87796">
        <ele>152.4</ele>
        <time>2020-06-24T14:07:31Z</time>
      </trkpt>
      <trkpt lat="50.27666" lon="3.87805">
        <ele>152.3</ele>
        <time>2020-06-24T14:07:32Z</time>
      </trkpt>
      <trkpt lat="50.27662" lon="3.87814">
        <ele>152.3</ele>
        <time>2020-06-24T14:07:33Z</time>
      </trkpt>
      <trkpt lat="50.27659" lon="3.87823">
        <ele>152.2</ele>
        <time>2020-06-24T14:07:34Z</time>
      </trkpt>
      <trkpt lat="50.27656" lon="3.87833">
        <ele>152.2</ele>
        <time>2020-06-24T14:07:35Z</time>
      </trkpt>
      <trkpt lat="50.27652" lon="3.87842">
        <ele>152.1</ele>
        <time>2020-06-24T14:07:36Z</time>
      </trkpt>
      <trkpt lat="50.27648" lon="3.8785">
        <ele>152</ele>
        <time>2020-06-24T14:07:37Z</time>
      </trkpt>
      <trkpt lat="50.27644" lon="3.87858">
        <ele>151.9</ele>
        <time>2020-06-24T14:07:38Z</time>
      </trkpt>
      <trkpt lat="50.2764" lon="3.87867">
        <ele>151.8</ele>
        <time>2020-06-24T14:07:39Z</time>
      </trkpt>
      <trkpt lat="50.27636" lon="3.87876">
        <ele>151.8</ele>
        <time>2020-06-24T14:07:40Z</time>
      </trkpt>
      <trkpt lat="50.27631" lon="3.87885">
        <ele>151.7</ele>
        <time>2020-06-24T14:07:41Z</time>
      </trkpt>
      <trkpt lat="50.27627" lon="3.87894">
        <ele>151.6</ele>
        <time>2020-06-24T14:07:42Z</time>
      </trkpt>
      <trkpt lat="50.27623" lon="3.87903">
        <ele>151.5</ele>
        <time>2020-06-24T14:07:43Z</time>
      </trkpt>
      <trkpt lat="50.27619" lon="3.87911">
        <ele>151.4</ele>
        <time>2020-06-24T14:07:44Z</time>
      </trkpt>
      <trkpt lat="50.27612" lon="3.87918">
        <ele>151.3</ele>
        <time>2020-06-24T14:07:45Z</time>
      </trkpt>
      <trkpt lat="50.27607" lon="3.87926">
        <ele>151.3</ele>
        <time>2020-06-24T14:07:46Z</time>
      </trkpt>
      <trkpt lat="50.27601" lon="3.87933">
        <ele>151.3</ele>
        <time>2020-06-24T14:07:47Z</time>
      </trkpt>
      <trkpt lat="50.27596" lon="3.8794">
        <ele>151.3</ele>
        <time>2020-06-24T14:07:48Z</time>
      </trkpt>
      <trkpt lat="50.27591" lon="3.87948">
        <ele>151.3</ele>
        <time>2020-06-24T14:07:49Z</time>
      </trkpt>
      <trkpt lat="50.27586" lon="3.87955">
        <ele>151.3</ele>
        <time>2020-06-24T14:07:50Z</time>
      </trkpt>
      <trkpt lat="50.27581" lon="3.87964">
        <ele>151.2</ele>
        <time>2020-06-24T14:07:51Z</time>
      </trkpt>
      <trkpt lat="50.27577" lon="3.87972">
        <ele>151.3</ele>
        <time>2020-06-24T14:07:52Z</time>
      </trkpt>
      <trkpt lat="50.27572" lon="3.87981">
        <ele>151.4</ele>
        <time>2020-06-24T14:07:53Z</time>
      </trkpt>
      <trkpt lat="50.27569" lon="3.87989">
        <ele>151.5</ele>
        <time>2020-06-24T14:07:54Z</time>
      </trkpt>
      <trkpt lat="50.27567" lon="3.87999">
        <ele>151.6</ele>
        <time>2020-06-24T14:07:55Z</time>
      </trkpt>
      <trkpt lat="50.27564" lon="3.88009">
        <ele>151.7</ele>
        <time>2020-06-24T14:07:56Z</time>
      </trkpt>
      <trkpt lat="50.27562" lon="3.88018">
        <ele>151.8</ele>
        <time>2020-06-24T14:07:57Z</time>
      </trkpt>
      <trkpt lat="50.27559" lon="3.88027">
        <ele>151.8</ele>
        <time>2020-06-24T14:07:58Z</time>
      </trkpt>
      <trkpt lat="50.27555" lon="3.88035">
        <ele>151.8</ele>
        <time>2020-06-24T14:07:59Z</time>
      </trkpt>
      <trkpt lat="50.27553" lon="3.88044">
        <ele>151.9</ele>
        <time>2020-06-24T14:08:00Z</time>
      </trkpt>
      <trkpt lat="50.27548" lon="3.88052">
        <ele>151.9</ele>
        <time>2020-06-24T14:08:01Z</time>
      </trkpt>
      <trkpt lat="50.27544" lon="3.8806">
        <ele>152</ele>
        <time>2020-06-24T14:08:02Z</time>
      </trkpt>
      <trkpt lat="50.2754" lon="3.8807">
        <ele>152</ele>
        <time>2020-06-24T14:08:03Z</time>
      </trkpt>
      <trkpt lat="50.27536" lon="3.88079">
        <ele>152.1</ele>
        <time>2020-06-24T14:08:04Z</time>
      </trkpt>
      <trkpt lat="50.27532" lon="3.88088">
        <ele>152.1</ele>
        <time>2020-06-24T14:08:05Z</time>
      </trkpt>
      <trkpt lat="50.27528" lon="3.88096">
        <ele>152.2</ele>
        <time>2020-06-24T14:08:06Z</time>
      </trkpt>
      <trkpt lat="50.27524" lon="3.88104">
        <ele>152.2</ele>
        <time>2020-06-24T14:08:07Z</time>
      </trkpt>
      <trkpt lat="50.2752" lon="3.88112">
        <ele>152.3</ele>
        <time>2020-06-24T14:08:08Z</time>
      </trkpt>
      <trkpt lat="50.27516" lon="3.88119">
        <ele>152.4</ele>
        <time>2020-06-24T14:08:09Z</time>
      </trkpt>
      <trkpt lat="50.27512" lon="3.88127">
        <ele>152.5</ele>
        <time>2020-06-24T14:08:10Z</time>
      </trkpt>
      <trkpt lat="50.27508" lon="3.88135">
        <ele>152.5</ele>
        <time>2020-06-24T14:08:11Z</time>
      </trkpt>
      <trkpt lat="50.27505" lon="3.88143">
        <ele>152.6</ele>
        <time>2020-06-24T14:08:12Z</time>
      </trkpt>
      <trkpt lat="50.27501" lon="3.88151">
        <ele>152.6</ele>
        <time>2020-06-24T14:08:13Z</time>
      </trkpt>
      <trkpt lat="50.27497" lon="3.88159">
        <ele>152.6</ele>
        <time>2020-06-24T14:08:14Z</time>
      </trkpt>
      <trkpt lat="50.27493" lon="3.88167">
        <ele>152.6</ele>
        <time>2020-06-24T14:08:15Z</time>
      </trkpt>
      <trkpt lat="50.27489" lon="3.88175">
        <ele>152.6</ele>
        <time>2020-06-24T14:08:16Z</time>
      </trkpt>
      <trkpt lat="50.27485" lon="3.88183">
        <ele>152.7</ele>
        <time>2020-06-24T14:08:17Z</time>
      </trkpt>
      <trkpt lat="50.27481" lon="3.8819">
        <ele>152.7</ele>
        <time>2020-06-24T14:08:18Z</time>
      </trkpt>
      <trkpt lat="50.27477" lon="3.88198">
        <ele>152.7</ele>
        <time>2020-06-24T14:08:19Z</time>
      </trkpt>
      <trkpt lat="50.27471" lon="3.88206">
        <ele>152.7</ele>
        <time>2020-06-24T14:08:20Z</time>
      </trkpt>
      <trkpt lat="50.27467" lon="3.88213">
        <ele>152.7</ele>
        <time>2020-06-24T14:08:21Z</time>
      </trkpt>
      <trkpt lat="50.27462" lon="3.88222">
        <ele>152.6</ele>
        <time>2020-06-24T14:08:22Z</time>
      </trkpt>
      <trkpt lat="50.27457" lon="3.8823">
        <ele>152.6</ele>
        <time>2020-06-24T14:08:23Z</time>
      </trkpt>
      <trkpt lat="50.27453" lon="3.88238">
        <ele>152.6</ele>
        <time>2020-06-24T14:08:24Z</time>
      </trkpt>
      <trkpt lat="50.27448" lon="3.88246">
        <ele>152.5</ele>
        <time>2020-06-24T14:08:25Z</time>
      </trkpt>
      <trkpt lat="50.27445" lon="3.88254">
        <ele>152.4</ele>
        <time>2020-06-24T14:08:26Z</time>
      </trkpt>
      <trkpt lat="50.27441" lon="3.88262">
        <ele>152.4</ele>
        <time>2020-06-24T14:08:27Z</time>
      </trkpt>
      <trkpt lat="50.27436" lon="3.88269">
        <ele>152.3</ele>
        <time>2020-06-24T14:08:28Z</time>
      </trkpt>
      <trkpt lat="50.27432" lon="3.88277">
        <ele>152.2</ele>
        <time>2020-06-24T14:08:29Z</time>
      </trkpt>
      <trkpt lat="50.27428" lon="3.88283">
        <ele>152.1</ele>
        <time>2020-06-24T14:08:30Z</time>
      </trkpt>
      <trkpt lat="50.27425" lon="3.8829">
        <ele>152.1</ele>
        <time>2020-06-24T14:08:31Z</time>
      </trkpt>
      <trkpt lat="50.27421" lon="3.88297">
        <ele>152</ele>
        <time>2020-06-24T14:08:32Z</time>
      </trkpt>
      <trkpt lat="50.27416" lon="3.88306">
        <ele>152</ele>
        <time>2020-06-24T14:08:33Z</time>
      </trkpt>
      <trkpt lat="50.27412" lon="3.88313">
        <ele>151.9</ele>
        <time>2020-06-24T14:08:34Z</time>
      </trkpt>
      <trkpt lat="50.27408" lon="3.8832">
        <ele>151.9</ele>
        <time>2020-06-24T14:08:35Z</time>
      </trkpt>
      <trkpt lat="50.27404" lon="3.88327">
        <ele>151.8</ele>
        <time>2020-06-24T14:08:36Z</time>
      </trkpt>
      <trkpt lat="50.27401" lon="3.88334">
        <ele>151.8</ele>
        <time>2020-06-24T14:08:37Z</time>
      </trkpt>
      <trkpt lat="50.27396" lon="3.88342">
        <ele>151.7</ele>
        <time>2020-06-24T14:08:38Z</time>
      </trkpt>
      <trkpt lat="50.27392" lon="3.88348">
        <ele>151.5</ele>
        <time>2020-06-24T14:08:39Z</time>
      </trkpt>
      <trkpt lat="50.27388" lon="3.88357">
        <ele>151.4</ele>
        <time>2020-06-24T14:08:40Z</time>
      </trkpt>
      <trkpt lat="50.27384" lon="3.88366">
        <ele>151.2</ele>
        <time>2020-06-24T14:08:41Z</time>
      </trkpt>
      <trkpt lat="50.27381" lon="3.88374">
        <ele>151</ele>
        <time>2020-06-24T14:08:42Z</time>
      </trkpt>
      <trkpt lat="50.27378" lon="3.88382">
        <ele>150.9</ele>
        <time>2020-06-24T14:08:43Z</time>
      </trkpt>
      <trkpt lat="50.27373" lon="3.88391">
        <ele>150.7</ele>
        <time>2020-06-24T14:08:44Z</time>
      </trkpt>
      <trkpt lat="50.2737" lon="3.88399">
        <ele>150.6</ele>
        <time>2020-06-24T14:08:45Z</time>
      </trkpt>
      <trkpt lat="50.27366" lon="3.88409">
        <ele>150.4</ele>
        <time>2020-06-24T14:08:46Z</time>
      </trkpt>
      <trkpt lat="50.27363" lon="3.88418">
        <ele>150.3</ele>
        <time>2020-06-24T14:08:47Z</time>
      </trkpt>
      <trkpt lat="50.2736" lon="3.88425">
        <ele>150.2</ele>
        <time>2020-06-24T14:08:48Z</time>
      </trkpt>
      <trkpt lat="50.27356" lon="3.88434">
        <ele>150.1</ele>
        <time>2020-06-24T14:08:49Z</time>
      </trkpt>
      <trkpt lat="50.27353" lon="3.88443">
        <ele>150</ele>
        <time>2020-06-24T14:08:50Z</time>
      </trkpt>
      <trkpt lat="50.27349" lon="3.88453">
        <ele>150</ele>
        <time>2020-06-24T14:08:51Z</time>
      </trkpt>
      <trkpt lat="50.27345" lon="3.88462">
        <ele>150</ele>
        <time>2020-06-24T14:08:52Z</time>
      </trkpt>
      <trkpt lat="50.2734" lon="3.88472">
        <ele>149.9</ele>
        <time>2020-06-24T14:08:53Z</time>
      </trkpt>
      <trkpt lat="50.27336" lon="3.88481">
        <ele>149.9</ele>
        <time>2020-06-24T14:08:54Z</time>
      </trkpt>
      <trkpt lat="50.27332" lon="3.8849">
        <ele>149.9</ele>
        <time>2020-06-24T14:08:55Z</time>
      </trkpt>
      <trkpt lat="50.27328" lon="3.88498">
        <ele>149.9</ele>
        <time>2020-06-24T14:08:56Z</time>
      </trkpt>
      <trkpt lat="50.27324" lon="3.88506">
        <ele>149.9</ele>
        <time>2020-06-24T14:08:57Z</time>
      </trkpt>
      <trkpt lat="50.27321" lon="3.88513">
        <ele>150</ele>
        <time>2020-06-24T14:08:58Z</time>
      </trkpt>
      <trkpt lat="50.27317" lon="3.88521">
        <ele>150</ele>
        <time>2020-06-24T14:08:59Z</time>
      </trkpt>
      <trkpt lat="50.27314" lon="3.8853">
        <ele>150.1</ele>
        <time>2020-06-24T14:09:00Z</time>
      </trkpt>
      <trkpt lat="50.2731" lon="3.88538">
        <ele>150.2</ele>
        <time>2020-06-24T14:09:01Z</time>
      </trkpt>
      <trkpt lat="50.27307" lon="3.88546">
        <ele>150.3</ele>
        <time>2020-06-24T14:09:02Z</time>
      </trkpt>
      <trkpt lat="50.27304" lon="3.88555">
        <ele>150.4</ele>
        <time>2020-06-24T14:09:03Z</time>
      </trkpt>
      <trkpt lat="50.27301" lon="3.88563">
        <ele>150.5</ele>
        <time>2020-06-24T14:09:04Z</time>
      </trkpt>
      <trkpt lat="50.27298" lon="3.88572">
        <ele>150.5</ele>
        <time>2020-06-24T14:09:05Z</time>
      </trkpt>
      <trkpt lat="50.27295" lon="3.88582">
        <ele>150.6</ele>
        <time>2020-06-24T14:09:06Z</time>
      </trkpt>
      <trkpt lat="50.27293" lon="3.88589">
        <ele>150.7</ele>
        <time>2020-06-24T14:09:07Z</time>
      </trkpt>
      <trkpt lat="50.27291" lon="3.88597">
        <ele>150.8</ele>
        <time>2020-06-24T14:09:08Z</time>
      </trkpt>
      <trkpt lat="50.27288" lon="3.88604">
        <ele>150.9</ele>
        <time>2020-06-24T14:09:09Z</time>
      </trkpt>
      <trkpt lat="50.27285" lon="3.88614">
        <ele>151</ele>
        <time>2020-06-24T14:09:10Z</time>
      </trkpt>
      <trkpt lat="50.27283" lon="3.8862">
        <ele>151.1</ele>
        <time>2020-06-24T14:09:11Z</time>
      </trkpt>
      <trkpt lat="50.2728" lon="3.88627">
        <ele>151.3</ele>
        <time>2020-06-24T14:09:12Z</time>
      </trkpt>
      <trkpt lat="50.27277" lon="3.88633">
        <ele>151.4</ele>
        <time>2020-06-24T14:09:13Z</time>
      </trkpt>
      <trkpt lat="50.27275" lon="3.88638">
        <ele>151.5</ele>
        <time>2020-06-24T14:09:14Z</time>
      </trkpt>
      <trkpt lat="50.27272" lon="3.88645">
        <ele>151.6</ele>
        <time>2020-06-24T14:09:15Z</time>
      </trkpt>
      <trkpt lat="50.2727" lon="3.8865">
        <ele>151.7</ele>
        <time>2020-06-24T14:09:16Z</time>
      </trkpt>
      <trkpt lat="50.27267" lon="3.88656">
        <ele>151.8</ele>
        <time>2020-06-24T14:09:17Z</time>
      </trkpt>
      <trkpt lat="50.27264" lon="3.88664">
        <ele>151.9</ele>
        <time>2020-06-24T14:09:18Z</time>
      </trkpt>
      <trkpt lat="50.2726" lon="3.88671">
        <ele>152</ele>
        <time>2020-06-24T14:09:19Z</time>
      </trkpt>
      <trkpt lat="50.27257" lon="3.88678">
        <ele>152.1</ele>
        <time>2020-06-24T14:09:20Z</time>
      </trkpt>
      <trkpt lat="50.27254" lon="3.88683">
        <ele>152.2</ele>
        <time>2020-06-24T14:09:21Z</time>
      </trkpt>
      <trkpt lat="50.27251" lon="3.88689">
        <ele>152.3</ele>
        <time>2020-06-24T14:09:22Z</time>
      </trkpt>
      <trkpt lat="50.27248" lon="3.88695">
        <ele>152.4</ele>
        <time>2020-06-24T14:09:23Z</time>
      </trkpt>
      <trkpt lat="50.27245" lon="3.887">
        <ele>152.4</ele>
        <time>2020-06-24T14:09:24Z</time>
      </trkpt>
      <trkpt lat="50.27242" lon="3.88706">
        <ele>152.5</ele>
        <time>2020-06-24T14:09:25Z</time>
      </trkpt>
      <trkpt lat="50.27238" lon="3.88712">
        <ele>152.5</ele>
        <time>2020-06-24T14:09:26Z</time>
      </trkpt>
      <trkpt lat="50.27234" lon="3.88719">
        <ele>152.5</ele>
        <time>2020-06-24T14:09:27Z</time>
      </trkpt>
      <trkpt lat="50.27229" lon="3.88724">
        <ele>152.6</ele>
        <time>2020-06-24T14:09:28Z</time>
      </trkpt>
      <trkpt lat="50.27227" lon="3.88727">
        <ele>152.6</ele>
        <time>2020-06-24T14:09:29Z</time>
      </trkpt>
      <trkpt lat="50.27223" lon="3.88732">
        <ele>152.6</ele>
        <time>2020-06-24T14:09:30Z</time>
      </trkpt>
      <trkpt lat="50.27218" lon="3.88738">
        <ele>152.6</ele>
        <time>2020-06-24T14:09:31Z</time>
      </trkpt>
      <trkpt lat="50.27213" lon="3.88743">
        <ele>152.6</ele>
        <time>2020-06-24T14:09:32Z</time>
      </trkpt>
      <trkpt lat="50.27208" lon="3.8875">
        <ele>152.6</ele>
        <time>2020-06-24T14:09:33Z</time>
      </trkpt>
      <trkpt lat="50.27203" lon="3.88756">
        <ele>152.6</ele>
        <time>2020-06-24T14:09:34Z</time>
      </trkpt>
      <trkpt lat="50.27197" lon="3.88763">
        <ele>152.6</ele>
        <time>2020-06-24T14:09:35Z</time>
      </trkpt>
      <trkpt lat="50.27193" lon="3.8877">
        <ele>152.6</ele>
        <time>2020-06-24T14:09:36Z</time>
      </trkpt>
      <trkpt lat="50.27188" lon="3.88776">
        <ele>152.6</ele>
        <time>2020-06-24T14:09:37Z</time>
      </trkpt>
      <trkpt lat="50.27183" lon="3.88781">
        <ele>152.6</ele>
        <time>2020-06-24T14:09:38Z</time>
      </trkpt>
      <trkpt lat="50.27178" lon="3.88786">
        <ele>152.6</ele>
        <time>2020-06-24T14:09:39Z</time>
      </trkpt>
      <trkpt lat="50.27175" lon="3.88789">
        <ele>152.6</ele>
        <time>2020-06-24T14:09:40Z</time>
      </trkpt>
      <trkpt lat="50.27171" lon="3.88794">
        <ele>152.6</ele>
        <time>2020-06-24T14:09:41Z</time>
      </trkpt>
      <trkpt lat="50.27167" lon="3.88799">
        <ele>152.6</ele>
        <time>2020-06-24T14:09:42Z</time>
      </trkpt>
      <trkpt lat="50.27163" lon="3.88804">
        <ele>152.6</ele>
        <time>2020-06-24T14:09:43Z</time>
      </trkpt>
      <trkpt lat="50.27159" lon="3.88809">
        <ele>152.6</ele>
        <time>2020-06-24T14:09:44Z</time>
      </trkpt>
      <trkpt lat="50.27155" lon="3.88814">
        <ele>152.6</ele>
        <time>2020-06-24T14:09:45Z</time>
      </trkpt>
      <trkpt lat="50.27152" lon="3.88819">
        <ele>152.6</ele>
        <time>2020-06-24T14:09:46Z</time>
      </trkpt>
      <trkpt lat="50.27148" lon="3.88825">
        <ele>152.6</ele>
        <time>2020-06-24T14:09:47Z</time>
      </trkpt>
      <trkpt lat="50.27144" lon="3.8883">
        <ele>152.7</ele>
        <time>2020-06-24T14:09:48Z</time>
      </trkpt>
      <trkpt lat="50.27141" lon="3.88835">
        <ele>152.7</ele>
        <time>2020-06-24T14:09:49Z</time>
      </trkpt>
      <trkpt lat="50.27137" lon="3.88841">
        <ele>152.7</ele>
        <time>2020-06-24T14:09:50Z</time>
      </trkpt>
      <trkpt lat="50.27134" lon="3.88848">
        <ele>152.8</ele>
        <time>2020-06-24T14:09:51Z</time>
      </trkpt>
      <trkpt lat="50.2713" lon="3.88855">
        <ele>152.9</ele>
        <time>2020-06-24T14:09:52Z</time>
      </trkpt>
      <trkpt lat="50.27125" lon="3.88863">
        <ele>153</ele>
        <time>2020-06-24T14:09:53Z</time>
      </trkpt>
      <trkpt lat="50.27121" lon="3.88869">
        <ele>153.1</ele>
        <time>2020-06-24T14:09:54Z</time>
      </trkpt>
      <trkpt lat="50.27118" lon="3.88876">
        <ele>153.2</ele>
        <time>2020-06-24T14:09:55Z</time>
      </trkpt>
      <trkpt lat="50.27115" lon="3.88882">
        <ele>153.2</ele>
        <time>2020-06-24T14:09:56Z</time>
      </trkpt>
      <trkpt lat="50.27113" lon="3.88887">
        <ele>153.3</ele>
        <time>2020-06-24T14:09:57Z</time>
      </trkpt>
      <trkpt lat="50.2711" lon="3.88894">
        <ele>153.4</ele>
        <time>2020-06-24T14:09:58Z</time>
      </trkpt>
      <trkpt lat="50.27106" lon="3.88899">
        <ele>153.5</ele>
        <time>2020-06-24T14:09:59Z</time>
      </trkpt>
      <trkpt lat="50.27104" lon="3.88905">
        <ele>153.6</ele>
        <time>2020-06-24T14:10:00Z</time>
      </trkpt>
      <trkpt lat="50.27102" lon="3.88911">
        <ele>153.7</ele>
        <time>2020-06-24T14:10:01Z</time>
      </trkpt>
      <trkpt lat="50.271" lon="3.88918">
        <ele>153.8</ele>
        <time>2020-06-24T14:10:02Z</time>
      </trkpt>
      <trkpt lat="50.27097" lon="3.88925">
        <ele>153.8</ele>
        <time>2020-06-24T14:10:03Z</time>
      </trkpt>
      <trkpt lat="50.27096" lon="3.88931">
        <ele>153.9</ele>
        <time>2020-06-24T14:10:04Z</time>
      </trkpt>
      <trkpt lat="50.27093" lon="3.88939">
        <ele>154</ele>
        <time>2020-06-24T14:10:05Z</time>
      </trkpt>
      <trkpt lat="50.27092" lon="3.88946">
        <ele>154.2</ele>
        <time>2020-06-24T14:10:06Z</time>
      </trkpt>
      <trkpt lat="50.27091" lon="3.88953">
        <ele>154.3</ele>
        <time>2020-06-24T14:10:07Z</time>
      </trkpt>
      <trkpt lat="50.27089" lon="3.8896">
        <ele>154.5</ele>
        <time>2020-06-24T14:10:08Z</time>
      </trkpt>
      <trkpt lat="50.27087" lon="3.88966">
        <ele>154.6</ele>
        <time>2020-06-24T14:10:09Z</time>
      </trkpt>
      <trkpt lat="50.27086" lon="3.88972">
        <ele>154.7</ele>
        <time>2020-06-24T14:10:10Z</time>
      </trkpt>
      <trkpt lat="50.27084" lon="3.88977">
        <ele>154.9</ele>
        <time>2020-06-24T14:10:11Z</time>
      </trkpt>
      <trkpt lat="50.27083" lon="3.88982">
        <ele>155</ele>
        <time>2020-06-24T14:10:12Z</time>
      </trkpt>
      <trkpt lat="50.27081" lon="3.88988">
        <ele>155.1</ele>
        <time>2020-06-24T14:10:13Z</time>
      </trkpt>
      <trkpt lat="50.2708" lon="3.88994">
        <ele>155.3</ele>
        <time>2020-06-24T14:10:14Z</time>
      </trkpt>
      <trkpt lat="50.27079" lon="3.88998">
        <ele>155.4</ele>
        <time>2020-06-24T14:10:15Z</time>
      </trkpt>
      <trkpt lat="50.27078" lon="3.89004">
        <ele>155.5</ele>
        <time>2020-06-24T14:10:16Z</time>
      </trkpt>
      <trkpt lat="50.27077" lon="3.8901">
        <ele>155.6</ele>
        <time>2020-06-24T14:10:17Z</time>
      </trkpt>
      <trkpt lat="50.27076" lon="3.89014">
        <ele>155.7</ele>
        <time>2020-06-24T14:10:18Z</time>
      </trkpt>
      <trkpt lat="50.27074" lon="3.8902">
        <ele>155.8</ele>
        <time>2020-06-24T14:10:19Z</time>
      </trkpt>
      <trkpt lat="50.27073" lon="3.89027">
        <ele>156</ele>
        <time>2020-06-24T14:10:20Z</time>
      </trkpt>
      <trkpt lat="50.27071" lon="3.89033">
        <ele>156</ele>
        <time>2020-06-24T14:10:21Z</time>
      </trkpt>
      <trkpt lat="50.27069" lon="3.89039">
        <ele>156.1</ele>
        <time>2020-06-24T14:10:22Z</time>
      </trkpt>
      <trkpt lat="50.27067" lon="3.89044">
        <ele>156.1</ele>
        <time>2020-06-24T14:10:23Z</time>
      </trkpt>
      <trkpt lat="50.27065" lon="3.8905">
        <ele>156.1</ele>
        <time>2020-06-24T14:10:24Z</time>
      </trkpt>
      <trkpt lat="50.27064" lon="3.89055">
        <ele>156.1</ele>
        <time>2020-06-24T14:10:25Z</time>
      </trkpt>
      <trkpt lat="50.27063" lon="3.8906">
        <ele>156</ele>
        <time>2020-06-24T14:10:26Z</time>
      </trkpt>
      <trkpt lat="50.27061" lon="3.89066">
        <ele>156</ele>
        <time>2020-06-24T14:10:27Z</time>
      </trkpt>
      <trkpt lat="50.27058" lon="3.89072">
        <ele>155.9</ele>
        <time>2020-06-24T14:10:28Z</time>
      </trkpt>
      <trkpt lat="50.27055" lon="3.89078">
        <ele>155.8</ele>
        <time>2020-06-24T14:10:29Z</time>
      </trkpt>
      <trkpt lat="50.27052" lon="3.89083">
        <ele>155.7</ele>
        <time>2020-06-24T14:10:30Z</time>
      </trkpt>
      <trkpt lat="50.27049" lon="3.8909">
        <ele>155.6</ele>
        <time>2020-06-24T14:10:31Z</time>
      </trkpt>
      <trkpt lat="50.27046" lon="3.89098">
        <ele>155.4</ele>
        <time>2020-06-24T14:10:32Z</time>
      </trkpt>
      <trkpt lat="50.27043" lon="3.89107">
        <ele>155.3</ele>
        <time>2020-06-24T14:10:33Z</time>
      </trkpt>
      <trkpt lat="50.2704" lon="3.89116">
        <ele>155.1</ele>
        <time>2020-06-24T14:10:34Z</time>
      </trkpt>
      <trkpt lat="50.27036" lon="3.89124">
        <ele>154.9</ele>
        <time>2020-06-24T14:10:35Z</time>
      </trkpt>
      <trkpt lat="50.27032" lon="3.89133">
        <ele>154.7</ele>
        <time>2020-06-24T14:10:36Z</time>
      </trkpt>
      <trkpt lat="50.27029" lon="3.89141">
        <ele>154.6</ele>
        <time>2020-06-24T14:10:37Z</time>
      </trkpt>
      <trkpt lat="50.27025" lon="3.89148">
        <ele>154.5</ele>
        <time>2020-06-24T14:10:38Z</time>
      </trkpt>
      <trkpt lat="50.27021" lon="3.89155">
        <ele>154.4</ele>
        <time>2020-06-24T14:10:39Z</time>
      </trkpt>
      <trkpt lat="50.27018" lon="3.89163">
        <ele>154.2</ele>
        <time>2020-06-24T14:10:40Z</time>
      </trkpt>
      <trkpt lat="50.27015" lon="3.8917">
        <ele>154.1</ele>
        <time>2020-06-24T14:10:41Z</time>
      </trkpt>
      <trkpt lat="50.27011" lon="3.89178">
        <ele>154</ele>
        <time>2020-06-24T14:10:42Z</time>
      </trkpt>
      <trkpt lat="50.27008" lon="3.89185">
        <ele>153.9</ele>
        <time>2020-06-24T14:10:43Z</time>
      </trkpt>
      <trkpt lat="50.27005" lon="3.89194">
        <ele>153.7</ele>
        <time>2020-06-24T14:10:44Z</time>
      </trkpt>
      <trkpt lat="50.27001" lon="3.89204">
        <ele>153.6</ele>
        <time>2020-06-24T14:10:45Z</time>
      </trkpt>
      <trkpt lat="50.26998" lon="3.89212">
        <ele>153.5</ele>
        <time>2020-06-24T14:10:46Z</time>
      </trkpt>
      <trkpt lat="50.26995" lon="3.89221">
        <ele>153.4</ele>
        <time>2020-06-24T14:10:47Z</time>
      </trkpt>
      <trkpt lat="50.26992" lon="3.89231">
        <ele>153.4</ele>
        <time>2020-06-24T14:10:48Z</time>
      </trkpt>
      <trkpt lat="50.26989" lon="3.89239">
        <ele>153.3</ele>
        <time>2020-06-24T14:10:49Z</time>
      </trkpt>
      <trkpt lat="50.26985" lon="3.89247">
        <ele>153.2</ele>
        <time>2020-06-24T14:10:50Z</time>
      </trkpt>
      <trkpt lat="50.26981" lon="3.89255">
        <ele>153.1</ele>
        <time>2020-06-24T14:10:51Z</time>
      </trkpt>
      <trkpt lat="50.26979" lon="3.89262">
        <ele>153.1</ele>
        <time>2020-06-24T14:10:52Z</time>
      </trkpt>
      <trkpt lat="50.26976" lon="3.89269">
        <ele>153.1</ele>
        <time>2020-06-24T14:10:53Z</time>
      </trkpt>
      <trkpt lat="50.26973" lon="3.89275">
        <ele>153.1</ele>
        <time>2020-06-24T14:10:54Z</time>
      </trkpt>
      <trkpt lat="50.2697" lon="3.89281">
        <ele>153.1</ele>
        <time>2020-06-24T14:10:55Z</time>
      </trkpt>
      <trkpt lat="50.26965" lon="3.89289">
        <ele>153.2</ele>
        <time>2020-06-24T14:10:56Z</time>
      </trkpt>
      <trkpt lat="50.26961" lon="3.89296">
        <ele>153.3</ele>
        <time>2020-06-24T14:10:57Z</time>
      </trkpt>
      <trkpt lat="50.26958" lon="3.89302">
        <ele>153.4</ele>
        <time>2020-06-24T14:10:58Z</time>
      </trkpt>
      <trkpt lat="50.26955" lon="3.89308">
        <ele>153.5</ele>
        <time>2020-06-24T14:10:59Z</time>
      </trkpt>
      <trkpt lat="50.26952" lon="3.89312">
        <ele>153.6</ele>
        <time>2020-06-24T14:11:00Z</time>
      </trkpt>
      <trkpt lat="50.26949" lon="3.89317">
        <ele>153.7</ele>
        <time>2020-06-24T14:11:01Z</time>
      </trkpt>
      <trkpt lat="50.26946" lon="3.89322">
        <ele>153.8</ele>
        <time>2020-06-24T14:11:02Z</time>
      </trkpt>
      <trkpt lat="50.26942" lon="3.89327">
        <ele>153.9</ele>
        <time>2020-06-24T14:11:03Z</time>
      </trkpt>
      <trkpt lat="50.26938" lon="3.89331">
        <ele>154.1</ele>
        <time>2020-06-24T14:11:04Z</time>
      </trkpt>
      <trkpt lat="50.26935" lon="3.89334">
        <ele>154.1</ele>
        <time>2020-06-24T14:11:05Z</time>
      </trkpt>
      <trkpt lat="50.26931" lon="3.8934">
        <ele>154.3</ele>
        <time>2020-06-24T14:11:06Z</time>
      </trkpt>
      <trkpt lat="50.26926" lon="3.89347">
        <ele>154.4</ele>
        <time>2020-06-24T14:11:07Z</time>
      </trkpt>
      <trkpt lat="50.26924" lon="3.89353">
        <ele>154.6</ele>
        <time>2020-06-24T14:11:08Z</time>
      </trkpt>
      <trkpt lat="50.26919" lon="3.8936">
        <ele>154.7</ele>
        <time>2020-06-24T14:11:09Z</time>
      </trkpt>
      <trkpt lat="50.26915" lon="3.89366">
        <ele>154.8</ele>
        <time>2020-06-24T14:11:10Z</time>
      </trkpt>
      <trkpt lat="50.2691" lon="3.89373">
        <ele>155</ele>
        <time>2020-06-24T14:11:11Z</time>
      </trkpt>
      <trkpt lat="50.26907" lon="3.89378">
        <ele>155.2</ele>
        <time>2020-06-24T14:11:12Z</time>
      </trkpt>
      <trkpt lat="50.26903" lon="3.89383">
        <ele>155.3</ele>
        <time>2020-06-24T14:11:13Z</time>
      </trkpt>
      <trkpt lat="50.269" lon="3.89387">
        <ele>155.4</ele>
        <time>2020-06-24T14:11:14Z</time>
      </trkpt>
      <trkpt lat="50.26896" lon="3.89392">
        <ele>155.6</ele>
        <time>2020-06-24T14:11:15Z</time>
      </trkpt>
      <trkpt lat="50.26893" lon="3.89396">
        <ele>155.7</ele>
        <time>2020-06-24T14:11:16Z</time>
      </trkpt>
      <trkpt lat="50.2689" lon="3.89401">
        <ele>155.8</ele>
        <time>2020-06-24T14:11:17Z</time>
      </trkpt>
      <trkpt lat="50.26887" lon="3.89403">
        <ele>155.9</ele>
        <time>2020-06-24T14:11:18Z</time>
      </trkpt>
      <trkpt lat="50.26884" lon="3.89409">
        <ele>156</ele>
        <time>2020-06-24T14:11:19Z</time>
      </trkpt>
      <trkpt lat="50.26881" lon="3.89412">
        <ele>156.1</ele>
        <time>2020-06-24T14:11:20Z</time>
      </trkpt>
      <trkpt lat="50.26879" lon="3.89416">
        <ele>156.2</ele>
        <time>2020-06-24T14:11:21Z</time>
      </trkpt>
      <trkpt lat="50.26876" lon="3.89421">
        <ele>156.4</ele>
        <time>2020-06-24T14:11:22Z</time>
      </trkpt>
      <trkpt lat="50.26873" lon="3.89424">
        <ele>156.5</ele>
        <time>2020-06-24T14:11:23Z</time>
      </trkpt>
      <trkpt lat="50.26869" lon="3.89429">
        <ele>156.7</ele>
        <time>2020-06-24T14:11:24Z</time>
      </trkpt>
      <trkpt lat="50.26865" lon="3.89435">
        <ele>156.9</ele>
        <time>2020-06-24T14:11:25Z</time>
      </trkpt>
      <trkpt lat="50.26862" lon="3.8944">
        <ele>157</ele>
        <time>2020-06-24T14:11:26Z</time>
      </trkpt>
      <trkpt lat="50.2686" lon="3.89444">
        <ele>157.1</ele>
        <time>2020-06-24T14:11:27Z</time>
      </trkpt>
      <trkpt lat="50.26856" lon="3.89448">
        <ele>157.3</ele>
        <time>2020-06-24T14:11:28Z</time>
      </trkpt>
      <trkpt lat="50.26853" lon="3.8945">
        <ele>157.4</ele>
        <time>2020-06-24T14:11:29Z</time>
      </trkpt>
      <trkpt lat="50.2685" lon="3.89454">
        <ele>157.5</ele>
        <time>2020-06-24T14:11:30Z</time>
      </trkpt>
      <trkpt lat="50.26846" lon="3.89458">
        <ele>157.7</ele>
        <time>2020-06-24T14:11:31Z</time>
      </trkpt>
      <trkpt lat="50.26843" lon="3.89463">
        <ele>158</ele>
        <time>2020-06-24T14:11:32Z</time>
      </trkpt>
      <trkpt lat="50.26839" lon="3.89468">
        <ele>158.2</ele>
        <time>2020-06-24T14:11:33Z</time>
      </trkpt>
      <trkpt lat="50.26837" lon="3.89473">
        <ele>158.4</ele>
        <time>2020-06-24T14:11:34Z</time>
      </trkpt>
      <trkpt lat="50.26834" lon="3.89476">
        <ele>158.5</ele>
        <time>2020-06-24T14:11:35Z</time>
      </trkpt>
      <trkpt lat="50.26831" lon="3.8948">
        <ele>158.7</ele>
        <time>2020-06-24T14:11:36Z</time>
      </trkpt>
      <trkpt lat="50.26828" lon="3.89484">
        <ele>158.9</ele>
        <time>2020-06-24T14:11:37Z</time>
      </trkpt>
      <trkpt lat="50.26824" lon="3.89489">
        <ele>159.1</ele>
        <time>2020-06-24T14:11:38Z</time>
      </trkpt>
      <trkpt lat="50.26822" lon="3.89493">
        <ele>159.3</ele>
        <time>2020-06-24T14:11:39Z</time>
      </trkpt>
      <trkpt lat="50.26819" lon="3.89498">
        <ele>159.4</ele>
        <time>2020-06-24T14:11:40Z</time>
      </trkpt>
      <trkpt lat="50.26815" lon="3.89502">
        <ele>159.6</ele>
        <time>2020-06-24T14:11:41Z</time>
      </trkpt>
      <trkpt lat="50.26812" lon="3.89509">
        <ele>159.8</ele>
        <time>2020-06-24T14:11:42Z</time>
      </trkpt>
      <trkpt lat="50.26809" lon="3.89514">
        <ele>159.9</ele>
        <time>2020-06-24T14:11:43Z</time>
      </trkpt>
      <trkpt lat="50.26806" lon="3.89517">
        <ele>160</ele>
        <time>2020-06-24T14:11:44Z</time>
      </trkpt>
      <trkpt lat="50.26803" lon="3.89521">
        <ele>160.1</ele>
        <time>2020-06-24T14:11:45Z</time>
      </trkpt>
      <trkpt lat="50.268" lon="3.89524">
        <ele>160.2</ele>
        <time>2020-06-24T14:11:46Z</time>
      </trkpt>
      <trkpt lat="50.26797" lon="3.89528">
        <ele>160.3</ele>
        <time>2020-06-24T14:11:47Z</time>
      </trkpt>
      <trkpt lat="50.26793" lon="3.89533">
        <ele>160.4</ele>
        <time>2020-06-24T14:11:48Z</time>
      </trkpt>
      <trkpt lat="50.26789" lon="3.89537">
        <ele>160.5</ele>
        <time>2020-06-24T14:11:49Z</time>
      </trkpt>
      <trkpt lat="50.26784" lon="3.89541">
        <ele>160.6</ele>
        <time>2020-06-24T14:11:50Z</time>
      </trkpt>
      <trkpt lat="50.2678" lon="3.89546">
        <ele>160.6</ele>
        <time>2020-06-24T14:11:51Z</time>
      </trkpt>
      <trkpt lat="50.26778" lon="3.8955">
        <ele>160.5</ele>
        <time>2020-06-24T14:11:52Z</time>
      </trkpt>
      <trkpt lat="50.26773" lon="3.89557">
        <ele>160.5</ele>
        <time>2020-06-24T14:11:53Z</time>
      </trkpt>
      <trkpt lat="50.26769" lon="3.89562">
        <ele>160.4</ele>
        <time>2020-06-24T14:11:54Z</time>
      </trkpt>
      <trkpt lat="50.26764" lon="3.89567">
        <ele>160.2</ele>
        <time>2020-06-24T14:11:55Z</time>
      </trkpt>
      <trkpt lat="50.26761" lon="3.8957">
        <ele>160.1</ele>
        <time>2020-06-24T14:11:56Z</time>
      </trkpt>
      <trkpt lat="50.26757" lon="3.89574">
        <ele>159.9</ele>
        <time>2020-06-24T14:11:57Z</time>
      </trkpt>
      <trkpt lat="50.26753" lon="3.89579">
        <ele>159.7</ele>
        <time>2020-06-24T14:11:58Z</time>
      </trkpt>
      <trkpt lat="50.2675" lon="3.89584">
        <ele>159.6</ele>
        <time>2020-06-24T14:11:59Z</time>
      </trkpt>
      <trkpt lat="50.26745" lon="3.8959">
        <ele>159.4</ele>
        <time>2020-06-24T14:12:00Z</time>
      </trkpt>
      <trkpt lat="50.26741" lon="3.89596">
        <ele>159.2</ele>
        <time>2020-06-24T14:12:01Z</time>
      </trkpt>
      <trkpt lat="50.26739" lon="3.896">
        <ele>159</ele>
        <time>2020-06-24T14:12:02Z</time>
      </trkpt>
      <trkpt lat="50.26734" lon="3.89606">
        <ele>158.8</ele>
        <time>2020-06-24T14:12:03Z</time>
      </trkpt>
      <trkpt lat="50.26731" lon="3.89613">
        <ele>158.6</ele>
        <time>2020-06-24T14:12:04Z</time>
      </trkpt>
      <trkpt lat="50.26727" lon="3.8962">
        <ele>158.4</ele>
        <time>2020-06-24T14:12:05Z</time>
      </trkpt>
      <trkpt lat="50.26722" lon="3.89628">
        <ele>158.2</ele>
        <time>2020-06-24T14:12:06Z</time>
      </trkpt>
      <trkpt lat="50.26718" lon="3.89633">
        <ele>158</ele>
        <time>2020-06-24T14:12:07Z</time>
      </trkpt>
      <trkpt lat="50.26712" lon="3.8964">
        <ele>157.8</ele>
        <time>2020-06-24T14:12:08Z</time>
      </trkpt>
      <trkpt lat="50.26707" lon="3.89645">
        <ele>157.7</ele>
        <time>2020-06-24T14:12:09Z</time>
      </trkpt>
      <trkpt lat="50.26702" lon="3.89651">
        <ele>157.5</ele>
        <time>2020-06-24T14:12:10Z</time>
      </trkpt>
      <trkpt lat="50.26697" lon="3.89658">
        <ele>157.4</ele>
        <time>2020-06-24T14:12:11Z</time>
      </trkpt>
      <trkpt lat="50.26691" lon="3.89665">
        <ele>157.3</ele>
        <time>2020-06-24T14:12:12Z</time>
      </trkpt>
      <trkpt lat="50.26685" lon="3.89671">
        <ele>157.2</ele>
        <time>2020-06-24T14:12:13Z</time>
      </trkpt>
      <trkpt lat="50.26681" lon="3.89677">
        <ele>157.1</ele>
        <time>2020-06-24T14:12:14Z</time>
      </trkpt>
      <trkpt lat="50.26677" lon="3.89682">
        <ele>157</ele>
        <time>2020-06-24T14:12:15Z</time>
      </trkpt>
      <trkpt lat="50.26667" lon="3.89689">
        <ele>156.9</ele>
        <time>2020-06-24T14:12:16Z</time>
      </trkpt>
      <trkpt lat="50.26663" lon="3.89694">
        <ele>156.8</ele>
        <time>2020-06-24T14:12:17Z</time>
      </trkpt>
      <trkpt lat="50.26656" lon="3.89698">
        <ele>156.7</ele>
        <time>2020-06-24T14:12:18Z</time>
      </trkpt>
      <trkpt lat="50.26651" lon="3.89704">
        <ele>156.6</ele>
        <time>2020-06-24T14:12:19Z</time>
      </trkpt>
      <trkpt lat="50.26646" lon="3.8971">
        <ele>156.5</ele>
        <time>2020-06-24T14:12:20Z</time>
      </trkpt>
      <trkpt lat="50.26642" lon="3.89714">
        <ele>156.4</ele>
        <time>2020-06-24T14:12:21Z</time>
      </trkpt>
      <trkpt lat="50.26637" lon="3.89718">
        <ele>156.4</ele>
        <time>2020-06-24T14:12:22Z</time>
      </trkpt>
      <trkpt lat="50.26633" lon="3.89723">
        <ele>156.3</ele>
        <time>2020-06-24T14:12:23Z</time>
      </trkpt>
      <trkpt lat="50.26628" lon="3.89726">
        <ele>156.2</ele>
        <time>2020-06-24T14:12:24Z</time>
      </trkpt>
      <trkpt lat="50.26623" lon="3.8973">
        <ele>156.1</ele>
        <time>2020-06-24T14:12:25Z</time>
      </trkpt>
      <trkpt lat="50.26619" lon="3.89733">
        <ele>156.1</ele>
        <time>2020-06-24T14:12:26Z</time>
      </trkpt>
      <trkpt lat="50.26613" lon="3.89736">
        <ele>156</ele>
        <time>2020-06-24T14:12:27Z</time>
      </trkpt>
      <trkpt lat="50.26606" lon="3.89739">
        <ele>155.9</ele>
        <time>2020-06-24T14:12:28Z</time>
      </trkpt>
      <trkpt lat="50.266" lon="3.89743">
        <ele>155.9</ele>
        <time>2020-06-24T14:12:29Z</time>
      </trkpt>
      <trkpt lat="50.26595" lon="3.89747">
        <ele>155.8</ele>
        <time>2020-06-24T14:12:30Z</time>
      </trkpt>
      <trkpt lat="50.26589" lon="3.8975">
        <ele>155.8</ele>
        <time>2020-06-24T14:12:31Z</time>
      </trkpt>
      <trkpt lat="50.26583" lon="3.89755">
        <ele>155.7</ele>
        <time>2020-06-24T14:12:32Z</time>
      </trkpt>
      <trkpt lat="50.26577" lon="3.89759">
        <ele>155.6</ele>
        <time>2020-06-24T14:12:33Z</time>
      </trkpt>
      <trkpt lat="50.26572" lon="3.89764">
        <ele>155.6</ele>
        <time>2020-06-24T14:12:34Z</time>
      </trkpt>
      <trkpt lat="50.26568" lon="3.89768">
        <ele>155.5</ele>
        <time>2020-06-24T14:12:35Z</time>
      </trkpt>
      <trkpt lat="50.26562" lon="3.89772">
        <ele>155.4</ele>
        <time>2020-06-24T14:12:36Z</time>
      </trkpt>
      <trkpt lat="50.26557" lon="3.89777">
        <ele>155.4</ele>
        <time>2020-06-24T14:12:37Z</time>
      </trkpt>
      <trkpt lat="50.26551" lon="3.89782">
        <ele>155.3</ele>
        <time>2020-06-24T14:12:38Z</time>
      </trkpt>
      <trkpt lat="50.26547" lon="3.89787">
        <ele>155.3</ele>
        <time>2020-06-24T14:12:39Z</time>
      </trkpt>
      <trkpt lat="50.26543" lon="3.89791">
        <ele>155.2</ele>
        <time>2020-06-24T14:12:40Z</time>
      </trkpt>
      <trkpt lat="50.26538" lon="3.89796">
        <ele>155.1</ele>
        <time>2020-06-24T14:12:41Z</time>
      </trkpt>
      <trkpt lat="50.26533" lon="3.89801">
        <ele>155.1</ele>
        <time>2020-06-24T14:12:42Z</time>
      </trkpt>
      <trkpt lat="50.26529" lon="3.89804">
        <ele>155</ele>
        <time>2020-06-24T14:12:43Z</time>
      </trkpt>
      <trkpt lat="50.26525" lon="3.89807">
        <ele>155</ele>
        <time>2020-06-24T14:12:44Z</time>
      </trkpt>
      <trkpt lat="50.2652" lon="3.89811">
        <ele>154.9</ele>
        <time>2020-06-24T14:12:45Z</time>
      </trkpt>
      <trkpt lat="50.26516" lon="3.89814">
        <ele>154.9</ele>
        <time>2020-06-24T14:12:46Z</time>
      </trkpt>
      <trkpt lat="50.26511" lon="3.89818">
        <ele>154.8</ele>
        <time>2020-06-24T14:12:47Z</time>
      </trkpt>
      <trkpt lat="50.26507" lon="3.89821">
        <ele>154.7</ele>
        <time>2020-06-24T14:12:48Z</time>
      </trkpt>
      <trkpt lat="50.26503" lon="3.89826">
        <ele>154.6</ele>
        <time>2020-06-24T14:12:49Z</time>
      </trkpt>
      <trkpt lat="50.26501" lon="3.89831">
        <ele>154.6</ele>
        <time>2020-06-24T14:12:50Z</time>
      </trkpt>
      <trkpt lat="50.26497" lon="3.89834">
        <ele>154.6</ele>
        <time>2020-06-24T14:12:51Z</time>
      </trkpt>
      <trkpt lat="50.26493" lon="3.89838">
        <ele>154.6</ele>
        <time>2020-06-24T14:12:52Z</time>
      </trkpt>
      <trkpt lat="50.26488" lon="3.89841">
        <ele>154.5</ele>
        <time>2020-06-24T14:12:53Z</time>
      </trkpt>
      <trkpt lat="50.26483" lon="3.8984">
        <ele>154.5</ele>
        <time>2020-06-24T14:12:54Z</time>
      </trkpt>
      <trkpt lat="50.26478" lon="3.89839">
        <ele>154.7</ele>
        <time>2020-06-24T14:12:55Z</time>
      </trkpt>
      <trkpt lat="50.26473" lon="3.89837">
        <ele>154.7</ele>
        <time>2020-06-24T14:12:56Z</time>
      </trkpt>
      <trkpt lat="50.26468" lon="3.89838">
        <ele>154.6</ele>
        <time>2020-06-24T14:12:57Z</time>
      </trkpt>
      <trkpt lat="50.26463" lon="3.89839">
        <ele>154.6</ele>
        <time>2020-06-24T14:12:58Z</time>
      </trkpt>
      <trkpt lat="50.26458" lon="3.89841">
        <ele>154.5</ele>
        <time>2020-06-24T14:12:59Z</time>
      </trkpt>
      <trkpt lat="50.26454" lon="3.89844">
        <ele>154.5</ele>
        <time>2020-06-24T14:13:00Z</time>
      </trkpt>
      <trkpt lat="50.26451" lon="3.89849">
        <ele>154.4</ele>
        <time>2020-06-24T14:13:01Z</time>
      </trkpt>
      <trkpt lat="50.26448" lon="3.89857">
        <ele>154.5</ele>
        <time>2020-06-24T14:13:02Z</time>
      </trkpt>
      <trkpt lat="50.26446" lon="3.89865">
        <ele>154.6</ele>
        <time>2020-06-24T14:13:03Z</time>
      </trkpt>
      <trkpt lat="50.26444" lon="3.89872">
        <ele>154.7</ele>
        <time>2020-06-24T14:13:04Z</time>
      </trkpt>
      <trkpt lat="50.26443" lon="3.89879">
        <ele>155</ele>
        <time>2020-06-24T14:13:05Z</time>
      </trkpt>
      <trkpt lat="50.26442" lon="3.89886">
        <ele>155.1</ele>
        <time>2020-06-24T14:13:06Z</time>
      </trkpt>
      <trkpt lat="50.26441" lon="3.89893">
        <ele>155.4</ele>
        <time>2020-06-24T14:13:07Z</time>
      </trkpt>
      <trkpt lat="50.2644" lon="3.89901">
        <ele>155.6</ele>
        <time>2020-06-24T14:13:08Z</time>
      </trkpt>
      <trkpt lat="50.26438" lon="3.89909">
        <ele>155.7</ele>
        <time>2020-06-24T14:13:09Z</time>
      </trkpt>
      <trkpt lat="50.26435" lon="3.89915">
        <ele>155.8</ele>
        <time>2020-06-24T14:13:10Z</time>
      </trkpt>
      <trkpt lat="50.26433" lon="3.8992">
        <ele>155.9</ele>
        <time>2020-06-24T14:13:11Z</time>
      </trkpt>
      <trkpt lat="50.2643" lon="3.89925">
        <ele>156</ele>
        <time>2020-06-24T14:13:12Z</time>
      </trkpt>
      <trkpt lat="50.26427" lon="3.89929">
        <ele>156.1</ele>
        <time>2020-06-24T14:13:13Z</time>
      </trkpt>
      <trkpt lat="50.26425" lon="3.89934">
        <ele>156.2</ele>
        <time>2020-06-24T14:13:14Z</time>
      </trkpt>
      <trkpt lat="50.26422" lon="3.89941">
        <ele>156.4</ele>
        <time>2020-06-24T14:13:15Z</time>
      </trkpt>
      <trkpt lat="50.26419" lon="3.89949">
        <ele>156.6</ele>
        <time>2020-06-24T14:13:16Z</time>
      </trkpt>
      <trkpt lat="50.26417" lon="3.89956">
        <ele>156.7</ele>
        <time>2020-06-24T14:13:17Z</time>
      </trkpt>
      <trkpt lat="50.26414" lon="3.89961">
        <ele>156.9</ele>
        <time>2020-06-24T14:13:18Z</time>
      </trkpt>
      <trkpt lat="50.26411" lon="3.89968">
        <ele>157.1</ele>
        <time>2020-06-24T14:13:19Z</time>
      </trkpt>
      <trkpt lat="50.26409" lon="3.89973">
        <ele>157.2</ele>
        <time>2020-06-24T14:13:20Z</time>
      </trkpt>
      <trkpt lat="50.26405" lon="3.89978">
        <ele>157.4</ele>
        <time>2020-06-24T14:13:21Z</time>
      </trkpt>
      <trkpt lat="50.26402" lon="3.89983">
        <ele>157.6</ele>
        <time>2020-06-24T14:13:22Z</time>
      </trkpt>
      <trkpt lat="50.264" lon="3.89987">
        <ele>157.8</ele>
        <time>2020-06-24T14:13:23Z</time>
      </trkpt>
      <trkpt lat="50.26398" lon="3.89991">
        <ele>157.9</ele>
        <time>2020-06-24T14:13:24Z</time>
      </trkpt>
      <trkpt lat="50.26396" lon="3.89995">
        <ele>158</ele>
        <time>2020-06-24T14:13:25Z</time>
      </trkpt>
      <trkpt lat="50.26393" lon="3.9">
        <ele>158.2</ele>
        <time>2020-06-24T14:13:26Z</time>
      </trkpt>
      <trkpt lat="50.26391" lon="3.90004">
        <ele>158.4</ele>
        <time>2020-06-24T14:13:27Z</time>
      </trkpt>
      <trkpt lat="50.26389" lon="3.90009">
        <ele>158.6</ele>
        <time>2020-06-24T14:13:28Z</time>
      </trkpt>
      <trkpt lat="50.26386" lon="3.90014">
        <ele>158.7</ele>
        <time>2020-06-24T14:13:29Z</time>
      </trkpt>
      <trkpt lat="50.26384" lon="3.9002">
        <ele>158.9</ele>
        <time>2020-06-24T14:13:30Z</time>
      </trkpt>
      <trkpt lat="50.26381" lon="3.90027">
        <ele>159.2</ele>
        <time>2020-06-24T14:13:31Z</time>
      </trkpt>
      <trkpt lat="50.2638" lon="3.90031">
        <ele>159.4</ele>
        <time>2020-06-24T14:13:32Z</time>
      </trkpt>
      <trkpt lat="50.26378" lon="3.90033">
        <ele>159.5</ele>
        <time>2020-06-24T14:13:33Z</time>
      </trkpt>
      <trkpt lat="50.26372" lon="3.90037">
        <ele>159.8</ele>
        <time>2020-06-24T14:13:34Z</time>
      </trkpt>
      <trkpt lat="50.26369" lon="3.9004">
        <ele>160</ele>
        <time>2020-06-24T14:13:35Z</time>
      </trkpt>
      <trkpt lat="50.26368" lon="3.9004">
        <ele>160.1</ele>
        <time>2020-06-24T14:13:36Z</time>
      </trkpt>
      <trkpt lat="50.26366" lon="3.90041">
        <ele>160.1</ele>
        <time>2020-06-24T14:13:37Z</time>
      </trkpt>
      <trkpt lat="50.26365" lon="3.90041">
        <ele>160.2</ele>
        <time>2020-06-24T14:13:38Z</time>
      </trkpt>
      <trkpt lat="50.26362" lon="3.90039">
        <ele>160.3</ele>
        <time>2020-06-24T14:13:39Z</time>
      </trkpt>
      <trkpt lat="50.2636" lon="3.9004">
        <ele>160.4</ele>
        <time>2020-06-24T14:13:40Z</time>
      </trkpt>
      <trkpt lat="50.26357" lon="3.90042">
        <ele>160.5</ele>
        <time>2020-06-24T14:13:41Z</time>
      </trkpt>
      <trkpt lat="50.26355" lon="3.90047">
        <ele>160.7</ele>
        <time>2020-06-24T14:13:42Z</time>
      </trkpt>
      <trkpt lat="50.26354" lon="3.90049">
        <ele>160.7</ele>
        <time>2020-06-24T14:13:43Z</time>
      </trkpt>
      <trkpt lat="50.26353" lon="3.90056">
        <ele>160.8</ele>
        <time>2020-06-24T14:13:44Z</time>
      </trkpt>
      <trkpt lat="50.26352" lon="3.90064">
        <ele>160.9</ele>
        <time>2020-06-24T14:13:45Z</time>
      </trkpt>
      <trkpt lat="50.26351" lon="3.90069">
        <ele>161</ele>
        <time>2020-06-24T14:13:46Z</time>
      </trkpt>
      <trkpt lat="50.26348" lon="3.90074">
        <ele>161</ele>
        <time>2020-06-24T14:13:47Z</time>
      </trkpt>
      <trkpt lat="50.26345" lon="3.90079">
        <ele>161</ele>
        <time>2020-06-24T14:13:48Z</time>
      </trkpt>
      <trkpt lat="50.26343" lon="3.90083">
        <ele>161</ele>
        <time>2020-06-24T14:13:49Z</time>
      </trkpt>
      <trkpt lat="50.26339" lon="3.90086">
        <ele>161</ele>
        <time>2020-06-24T14:13:50Z</time>
      </trkpt>
      <trkpt lat="50.26336" lon="3.90089">
        <ele>161</ele>
        <time>2020-06-24T14:13:51Z</time>
      </trkpt>
      <trkpt lat="50.26334" lon="3.90092">
        <ele>161</ele>
        <time>2020-06-24T14:13:52Z</time>
      </trkpt>
      <trkpt lat="50.26331" lon="3.90096">
        <ele>161</ele>
        <time>2020-06-24T14:13:53Z</time>
      </trkpt>
      <trkpt lat="50.26328" lon="3.90099">
        <ele>161.1</ele>
        <time>2020-06-24T14:13:54Z</time>
      </trkpt>
      <trkpt lat="50.26324" lon="3.90102">
        <ele>161.1</ele>
        <time>2020-06-24T14:13:55Z</time>
      </trkpt>
      <trkpt lat="50.2632" lon="3.90105">
        <ele>161.2</ele>
        <time>2020-06-24T14:13:56Z</time>
      </trkpt>
      <trkpt lat="50.26316" lon="3.90109">
        <ele>161.2</ele>
        <time>2020-06-24T14:13:57Z</time>
      </trkpt>
      <trkpt lat="50.26313" lon="3.90113">
        <ele>161.3</ele>
        <time>2020-06-24T14:13:58Z</time>
      </trkpt>
      <trkpt lat="50.2631" lon="3.90117">
        <ele>161.3</ele>
        <time>2020-06-24T14:13:59Z</time>
      </trkpt>
      <trkpt lat="50.26307" lon="3.9012">
        <ele>161.3</ele>
        <time>2020-06-24T14:14:00Z</time>
      </trkpt>
      <trkpt lat="50.26303" lon="3.90125">
        <ele>161.4</ele>
        <time>2020-06-24T14:14:01Z</time>
      </trkpt>
      <trkpt lat="50.26299" lon="3.90129">
        <ele>161.4</ele>
        <time>2020-06-24T14:14:02Z</time>
      </trkpt>
      <trkpt lat="50.26296" lon="3.90134">
        <ele>161.5</ele>
        <time>2020-06-24T14:14:03Z</time>
      </trkpt>
      <trkpt lat="50.26292" lon="3.90139">
        <ele>161.5</ele>
        <time>2020-06-24T14:14:04Z</time>
      </trkpt>
      <trkpt lat="50.26283" lon="3.90145">
        <ele>161.5</ele>
        <time>2020-06-24T14:14:05Z</time>
      </trkpt>
      <trkpt lat="50.26278" lon="3.9015">
        <ele>161.6</ele>
        <time>2020-06-24T14:14:06Z</time>
      </trkpt>
      <trkpt lat="50.26274" lon="3.90152">
        <ele>161.6</ele>
        <time>2020-06-24T14:14:07Z</time>
      </trkpt>
      <trkpt lat="50.2627" lon="3.90158">
        <ele>161.6</ele>
        <time>2020-06-24T14:14:08Z</time>
      </trkpt>
      <trkpt lat="50.26265" lon="3.90164">
        <ele>161.6</ele>
        <time>2020-06-24T14:14:09Z</time>
      </trkpt>
      <trkpt lat="50.26262" lon="3.90169">
        <ele>161.7</ele>
        <time>2020-06-24T14:14:10Z</time>
      </trkpt>
      <trkpt lat="50.26257" lon="3.90177">
        <ele>161.7</ele>
        <time>2020-06-24T14:14:11Z</time>
      </trkpt>
      <trkpt lat="50.26254" lon="3.90182">
        <ele>161.8</ele>
        <time>2020-06-24T14:14:12Z</time>
      </trkpt>
      <trkpt lat="50.26251" lon="3.90188">
        <ele>161.8</ele>
        <time>2020-06-24T14:14:13Z</time>
      </trkpt>
      <trkpt lat="50.26248" lon="3.90196">
        <ele>161.8</ele>
        <time>2020-06-24T14:14:14Z</time>
      </trkpt>
      <trkpt lat="50.26245" lon="3.90205">
        <ele>161.9</ele>
        <time>2020-06-24T14:14:15Z</time>
      </trkpt>
      <trkpt lat="50.26242" lon="3.90215">
        <ele>161.9</ele>
        <time>2020-06-24T14:14:16Z</time>
      </trkpt>
      <trkpt lat="50.26239" lon="3.90223">
        <ele>162</ele>
        <time>2020-06-24T14:14:17Z</time>
      </trkpt>
      <trkpt lat="50.26236" lon="3.9023">
        <ele>162</ele>
        <time>2020-06-24T14:14:18Z</time>
      </trkpt>
      <trkpt lat="50.26234" lon="3.90237">
        <ele>161.9</ele>
        <time>2020-06-24T14:14:19Z</time>
      </trkpt>
      <trkpt lat="50.26232" lon="3.90244">
        <ele>161.9</ele>
        <time>2020-06-24T14:14:20Z</time>
      </trkpt>
      <trkpt lat="50.26229" lon="3.90252">
        <ele>161.9</ele>
        <time>2020-06-24T14:14:21Z</time>
      </trkpt>
      <trkpt lat="50.26226" lon="3.90261">
        <ele>161.8</ele>
        <time>2020-06-24T14:14:22Z</time>
      </trkpt>
      <trkpt lat="50.26222" lon="3.90269">
        <ele>161.8</ele>
        <time>2020-06-24T14:14:23Z</time>
      </trkpt>
      <trkpt lat="50.26218" lon="3.90278">
        <ele>161.7</ele>
        <time>2020-06-24T14:14:24Z</time>
      </trkpt>
      <trkpt lat="50.26215" lon="3.90288">
        <ele>161.7</ele>
        <time>2020-06-24T14:14:25Z</time>
      </trkpt>
      <trkpt lat="50.26213" lon="3.90295">
        <ele>161.6</ele>
        <time>2020-06-24T14:14:26Z</time>
      </trkpt>
      <trkpt lat="50.26211" lon="3.90302">
        <ele>161.6</ele>
        <time>2020-06-24T14:14:27Z</time>
      </trkpt>
      <trkpt lat="50.26208" lon="3.90311">
        <ele>161.6</ele>
        <time>2020-06-24T14:14:28Z</time>
      </trkpt>
      <trkpt lat="50.26205" lon="3.90319">
        <ele>161.6</ele>
        <time>2020-06-24T14:14:29Z</time>
      </trkpt>
      <trkpt lat="50.26203" lon="3.90327">
        <ele>161.6</ele>
        <time>2020-06-24T14:14:30Z</time>
      </trkpt>
      <trkpt lat="50.26201" lon="3.90334">
        <ele>161.6</ele>
        <time>2020-06-24T14:14:31Z</time>
      </trkpt>
      <trkpt lat="50.26199" lon="3.90342">
        <ele>161.6</ele>
        <time>2020-06-24T14:14:32Z</time>
      </trkpt>
      <trkpt lat="50.26197" lon="3.9035">
        <ele>161.6</ele>
        <time>2020-06-24T14:14:33Z</time>
      </trkpt>
      <trkpt lat="50.26193" lon="3.90359">
        <ele>161.5</ele>
        <time>2020-06-24T14:14:34Z</time>
      </trkpt>
      <trkpt lat="50.26189" lon="3.90368">
        <ele>161.5</ele>
        <time>2020-06-24T14:14:35Z</time>
      </trkpt>
      <trkpt lat="50.26185" lon="3.90377">
        <ele>161.5</ele>
        <time>2020-06-24T14:14:36Z</time>
      </trkpt>
      <trkpt lat="50.26184" lon="3.90385">
        <ele>161.5</ele>
        <time>2020-06-24T14:14:37Z</time>
      </trkpt>
      <trkpt lat="50.26181" lon="3.90391">
        <ele>161.6</ele>
        <time>2020-06-24T14:14:38Z</time>
      </trkpt>
      <trkpt lat="50.26177" lon="3.90399">
        <ele>161.6</ele>
        <time>2020-06-24T14:14:39Z</time>
      </trkpt>
      <trkpt lat="50.26174" lon="3.90408">
        <ele>161.6</ele>
        <time>2020-06-24T14:14:40Z</time>
      </trkpt>
      <trkpt lat="50.26171" lon="3.90416">
        <ele>161.6</ele>
        <time>2020-06-24T14:14:41Z</time>
      </trkpt>
      <trkpt lat="50.26168" lon="3.90424">
        <ele>161.6</ele>
        <time>2020-06-24T14:14:42Z</time>
      </trkpt>
      <trkpt lat="50.26165" lon="3.90432">
        <ele>161.6</ele>
        <time>2020-06-24T14:14:43Z</time>
      </trkpt>
      <trkpt lat="50.26161" lon="3.9044">
        <ele>161.7</ele>
        <time>2020-06-24T14:14:44Z</time>
      </trkpt>
      <trkpt lat="50.26158" lon="3.90446">
        <ele>161.7</ele>
        <time>2020-06-24T14:14:45Z</time>
      </trkpt>
      <trkpt lat="50.26155" lon="3.90452">
        <ele>161.7</ele>
        <time>2020-06-24T14:14:46Z</time>
      </trkpt>
      <trkpt lat="50.26151" lon="3.90459">
        <ele>161.8</ele>
        <time>2020-06-24T14:14:47Z</time>
      </trkpt>
      <trkpt lat="50.26148" lon="3.90467">
        <ele>161.9</ele>
        <time>2020-06-24T14:14:48Z</time>
      </trkpt>
      <trkpt lat="50.26145" lon="3.90475">
        <ele>161.9</ele>
        <time>2020-06-24T14:14:49Z</time>
      </trkpt>
      <trkpt lat="50.26141" lon="3.90481">
        <ele>162</ele>
        <time>2020-06-24T14:14:50Z</time>
      </trkpt>
      <trkpt lat="50.26136" lon="3.90489">
        <ele>162.1</ele>
        <time>2020-06-24T14:14:51Z</time>
      </trkpt>
      <trkpt lat="50.26133" lon="3.90495">
        <ele>162.2</ele>
        <time>2020-06-24T14:14:52Z</time>
      </trkpt>
      <trkpt lat="50.26129" lon="3.90502">
        <ele>162.2</ele>
        <time>2020-06-24T14:14:53Z</time>
      </trkpt>
      <trkpt lat="50.26124" lon="3.90508">
        <ele>162.2</ele>
        <time>2020-06-24T14:14:54Z</time>
      </trkpt>
      <trkpt lat="50.26119" lon="3.90514">
        <ele>162.2</ele>
        <time>2020-06-24T14:14:55Z</time>
      </trkpt>
      <trkpt lat="50.26116" lon="3.90519">
        <ele>162.2</ele>
        <time>2020-06-24T14:14:56Z</time>
      </trkpt>
      <trkpt lat="50.26112" lon="3.90524">
        <ele>162.2</ele>
        <time>2020-06-24T14:14:57Z</time>
      </trkpt>
      <trkpt lat="50.26108" lon="3.90528">
        <ele>162.3</ele>
        <time>2020-06-24T14:14:58Z</time>
      </trkpt>
      <trkpt lat="50.26103" lon="3.90533">
        <ele>162.3</ele>
        <time>2020-06-24T14:14:59Z</time>
      </trkpt>
      <trkpt lat="50.26099" lon="3.90537">
        <ele>162.3</ele>
        <time>2020-06-24T14:15:00Z</time>
      </trkpt>
      <trkpt lat="50.26094" lon="3.90542">
        <ele>162.4</ele>
        <time>2020-06-24T14:15:01Z</time>
      </trkpt>
      <trkpt lat="50.26089" lon="3.90545">
        <ele>162.4</ele>
        <time>2020-06-24T14:15:02Z</time>
      </trkpt>
      <trkpt lat="50.26085" lon="3.90549">
        <ele>162.4</ele>
        <time>2020-06-24T14:15:03Z</time>
      </trkpt>
      <trkpt lat="50.26079" lon="3.90553">
        <ele>162.5</ele>
        <time>2020-06-24T14:15:04Z</time>
      </trkpt>
      <trkpt lat="50.26075" lon="3.90557">
        <ele>162.5</ele>
        <time>2020-06-24T14:15:05Z</time>
      </trkpt>
      <trkpt lat="50.26069" lon="3.90562">
        <ele>162.6</ele>
        <time>2020-06-24T14:15:06Z</time>
      </trkpt>
      <trkpt lat="50.26065" lon="3.90565">
        <ele>162.7</ele>
        <time>2020-06-24T14:15:07Z</time>
      </trkpt>
      <trkpt lat="50.26061" lon="3.90569">
        <ele>162.7</ele>
        <time>2020-06-24T14:15:08Z</time>
      </trkpt>
      <trkpt lat="50.26056" lon="3.90572">
        <ele>162.7</ele>
        <time>2020-06-24T14:15:09Z</time>
      </trkpt>
      <trkpt lat="50.2605" lon="3.90576">
        <ele>162.8</ele>
        <time>2020-06-24T14:15:10Z</time>
      </trkpt>
      <trkpt lat="50.26044" lon="3.90579">
        <ele>162.8</ele>
        <time>2020-06-24T14:15:11Z</time>
      </trkpt>
      <trkpt lat="50.26039" lon="3.90582">
        <ele>162.8</ele>
        <time>2020-06-24T14:15:12Z</time>
      </trkpt>
      <trkpt lat="50.26034" lon="3.90586">
        <ele>162.9</ele>
        <time>2020-06-24T14:15:13Z</time>
      </trkpt>
      <trkpt lat="50.26029" lon="3.90589">
        <ele>162.9</ele>
        <time>2020-06-24T14:15:14Z</time>
      </trkpt>
      <trkpt lat="50.26025" lon="3.90593">
        <ele>162.9</ele>
        <time>2020-06-24T14:15:15Z</time>
      </trkpt>
      <trkpt lat="50.2602" lon="3.90598">
        <ele>162.9</ele>
        <time>2020-06-24T14:15:16Z</time>
      </trkpt>
      <trkpt lat="50.26014" lon="3.90602">
        <ele>162.9</ele>
        <time>2020-06-24T14:15:17Z</time>
      </trkpt>
      <trkpt lat="50.26009" lon="3.90606">
        <ele>162.9</ele>
        <time>2020-06-24T14:15:18Z</time>
      </trkpt>
      <trkpt lat="50.26004" lon="3.9061">
        <ele>162.9</ele>
        <time>2020-06-24T14:15:19Z</time>
      </trkpt>
      <trkpt lat="50.25998" lon="3.90616">
        <ele>162.9</ele>
        <time>2020-06-24T14:15:20Z</time>
      </trkpt>
      <trkpt lat="50.25994" lon="3.9062">
        <ele>162.9</ele>
        <time>2020-06-24T14:15:21Z</time>
      </trkpt>
      <trkpt lat="50.25989" lon="3.90625">
        <ele>162.9</ele>
        <time>2020-06-24T14:15:22Z</time>
      </trkpt>
      <trkpt lat="50.25985" lon="3.9063">
        <ele>162.9</ele>
        <time>2020-06-24T14:15:23Z</time>
      </trkpt>
      <trkpt lat="50.25979" lon="3.90636">
        <ele>162.9</ele>
        <time>2020-06-24T14:15:24Z</time>
      </trkpt>
      <trkpt lat="50.25974" lon="3.90641">
        <ele>162.8</ele>
        <time>2020-06-24T14:15:25Z</time>
      </trkpt>
      <trkpt lat="50.25968" lon="3.90647">
        <ele>162.8</ele>
        <time>2020-06-24T14:15:26Z</time>
      </trkpt>
      <trkpt lat="50.25962" lon="3.90653">
        <ele>162.7</ele>
        <time>2020-06-24T14:15:27Z</time>
      </trkpt>
      <trkpt lat="50.25957" lon="3.90658">
        <ele>162.6</ele>
        <time>2020-06-24T14:15:28Z</time>
      </trkpt>
      <trkpt lat="50.25953" lon="3.90664">
        <ele>162.6</ele>
        <time>2020-06-24T14:15:29Z</time>
      </trkpt>
      <trkpt lat="50.2595" lon="3.90671">
        <ele>162.5</ele>
        <time>2020-06-24T14:15:30Z</time>
      </trkpt>
      <trkpt lat="50.25946" lon="3.90677">
        <ele>162.5</ele>
        <time>2020-06-24T14:15:31Z</time>
      </trkpt>
      <trkpt lat="50.25941" lon="3.90683">
        <ele>162.4</ele>
        <time>2020-06-24T14:15:32Z</time>
      </trkpt>
      <trkpt lat="50.25938" lon="3.90688">
        <ele>162.4</ele>
        <time>2020-06-24T14:15:33Z</time>
      </trkpt>
      <trkpt lat="50.25933" lon="3.90692">
        <ele>162.3</ele>
        <time>2020-06-24T14:15:34Z</time>
      </trkpt>
      <trkpt lat="50.25931" lon="3.90696">
        <ele>162.3</ele>
        <time>2020-06-24T14:15:35Z</time>
      </trkpt>
      <trkpt lat="50.25928" lon="3.90702">
        <ele>162.2</ele>
        <time>2020-06-24T14:15:36Z</time>
      </trkpt>
      <trkpt lat="50.25924" lon="3.90708">
        <ele>162.2</ele>
        <time>2020-06-24T14:15:37Z</time>
      </trkpt>
      <trkpt lat="50.2592" lon="3.90713">
        <ele>162.1</ele>
        <time>2020-06-24T14:15:38Z</time>
      </trkpt>
      <trkpt lat="50.25915" lon="3.90719">
        <ele>162.1</ele>
        <time>2020-06-24T14:15:39Z</time>
      </trkpt>
      <trkpt lat="50.2591" lon="3.90725">
        <ele>162</ele>
        <time>2020-06-24T14:15:40Z</time>
      </trkpt>
      <trkpt lat="50.25906" lon="3.90729">
        <ele>162</ele>
        <time>2020-06-24T14:15:41Z</time>
      </trkpt>
      <trkpt lat="50.25901" lon="3.90736">
        <ele>161.9</ele>
        <time>2020-06-24T14:15:42Z</time>
      </trkpt>
      <trkpt lat="50.25897" lon="3.9074">
        <ele>161.9</ele>
        <time>2020-06-24T14:15:43Z</time>
      </trkpt>
      <trkpt lat="50.25893" lon="3.90747">
        <ele>161.8</ele>
        <time>2020-06-24T14:15:44Z</time>
      </trkpt>
      <trkpt lat="50.25887" lon="3.90754">
        <ele>161.7</ele>
        <time>2020-06-24T14:15:45Z</time>
      </trkpt>
      <trkpt lat="50.25882" lon="3.9076">
        <ele>161.6</ele>
        <time>2020-06-24T14:15:46Z</time>
      </trkpt>
      <trkpt lat="50.25877" lon="3.90766">
        <ele>161.5</ele>
        <time>2020-06-24T14:15:47Z</time>
      </trkpt>
      <trkpt lat="50.25872" lon="3.90771">
        <ele>161.4</ele>
        <time>2020-06-24T14:15:48Z</time>
      </trkpt>
      <trkpt lat="50.25868" lon="3.90777">
        <ele>161.3</ele>
        <time>2020-06-24T14:15:49Z</time>
      </trkpt>
      <trkpt lat="50.25862" lon="3.90783">
        <ele>161.3</ele>
        <time>2020-06-24T14:15:50Z</time>
      </trkpt>
      <trkpt lat="50.25858" lon="3.90786">
        <ele>161.2</ele>
        <time>2020-06-24T14:15:51Z</time>
      </trkpt>
      <trkpt lat="50.25854" lon="3.90791">
        <ele>161.2</ele>
        <time>2020-06-24T14:15:52Z</time>
      </trkpt>
      <trkpt lat="50.25849" lon="3.90795">
        <ele>161.1</ele>
        <time>2020-06-24T14:15:53Z</time>
      </trkpt>
      <trkpt lat="50.25846" lon="3.90796">
        <ele>161.1</ele>
        <time>2020-06-24T14:15:54Z</time>
      </trkpt>
      <trkpt lat="50.25839" lon="3.90796">
        <ele>161</ele>
        <time>2020-06-24T14:15:55Z</time>
      </trkpt>
      <trkpt lat="50.25832" lon="3.90797">
        <ele>160.9</ele>
        <time>2020-06-24T14:15:56Z</time>
      </trkpt>
      <trkpt lat="50.25825" lon="3.90799">
        <ele>160.9</ele>
        <time>2020-06-24T14:15:57Z</time>
      </trkpt>
      <trkpt lat="50.2582" lon="3.908">
        <ele>160.9</ele>
        <time>2020-06-24T14:15:58Z</time>
      </trkpt>
      <trkpt lat="50.25814" lon="3.908">
        <ele>160.9</ele>
        <time>2020-06-24T14:15:59Z</time>
      </trkpt>
      <trkpt lat="50.25807" lon="3.90803">
        <ele>160.9</ele>
        <time>2020-06-24T14:16:00Z</time>
      </trkpt>
      <trkpt lat="50.25801" lon="3.90805">
        <ele>160.6</ele>
        <time>2020-06-24T14:16:01Z</time>
      </trkpt>
      <trkpt lat="50.25796" lon="3.90808">
        <ele>160.6</ele>
        <time>2020-06-24T14:16:02Z</time>
      </trkpt>
      <trkpt lat="50.25792" lon="3.90815">
        <ele>160.6</ele>
        <time>2020-06-24T14:16:03Z</time>
      </trkpt>
      <trkpt lat="50.2579" lon="3.90822">
        <ele>160.5</ele>
        <time>2020-06-24T14:16:04Z</time>
      </trkpt>
      <trkpt lat="50.25786" lon="3.9083">
        <ele>160.5</ele>
        <time>2020-06-24T14:16:05Z</time>
      </trkpt>
      <trkpt lat="50.25781" lon="3.90836">
        <ele>160.5</ele>
        <time>2020-06-24T14:16:06Z</time>
      </trkpt>
      <trkpt lat="50.25777" lon="3.90841">
        <ele>160.5</ele>
        <time>2020-06-24T14:16:07Z</time>
      </trkpt>
      <trkpt lat="50.25772" lon="3.90844">
        <ele>160.5</ele>
        <time>2020-06-24T14:16:08Z</time>
      </trkpt>
      <trkpt lat="50.25767" lon="3.90847">
        <ele>160.5</ele>
        <time>2020-06-24T14:16:09Z</time>
      </trkpt>
      <trkpt lat="50.25762" lon="3.9085">
        <ele>160.6</ele>
        <time>2020-06-24T14:16:10Z</time>
      </trkpt>
      <trkpt lat="50.25757" lon="3.90854">
        <ele>160.6</ele>
        <time>2020-06-24T14:16:11Z</time>
      </trkpt>
      <trkpt lat="50.25752" lon="3.90858">
        <ele>160.7</ele>
        <time>2020-06-24T14:16:12Z</time>
      </trkpt>
      <trkpt lat="50.25748" lon="3.90862">
        <ele>160.8</ele>
        <time>2020-06-24T14:16:13Z</time>
      </trkpt>
      <trkpt lat="50.25744" lon="3.90867">
        <ele>160.9</ele>
        <time>2020-06-24T14:16:14Z</time>
      </trkpt>
      <trkpt lat="50.2574" lon="3.90873">
        <ele>161</ele>
        <time>2020-06-24T14:16:15Z</time>
      </trkpt>
      <trkpt lat="50.25735" lon="3.90877">
        <ele>161.1</ele>
        <time>2020-06-24T14:16:16Z</time>
      </trkpt>
      <trkpt lat="50.2573" lon="3.90883">
        <ele>161.3</ele>
        <time>2020-06-24T14:16:17Z</time>
      </trkpt>
      <trkpt lat="50.25728" lon="3.90888">
        <ele>161.3</ele>
        <time>2020-06-24T14:16:18Z</time>
      </trkpt>
      <trkpt lat="50.25725" lon="3.90896">
        <ele>161.4</ele>
        <time>2020-06-24T14:16:19Z</time>
      </trkpt>
      <trkpt lat="50.2572" lon="3.90902">
        <ele>161.6</ele>
        <time>2020-06-24T14:16:20Z</time>
      </trkpt>
      <trkpt lat="50.25717" lon="3.90908">
        <ele>161.7</ele>
        <time>2020-06-24T14:16:21Z</time>
      </trkpt>
      <trkpt lat="50.25712" lon="3.90916">
        <ele>161.8</ele>
        <time>2020-06-24T14:16:22Z</time>
      </trkpt>
      <trkpt lat="50.25708" lon="3.90923">
        <ele>161.9</ele>
        <time>2020-06-24T14:16:23Z</time>
      </trkpt>
      <trkpt lat="50.25703" lon="3.9093">
        <ele>162.1</ele>
        <time>2020-06-24T14:16:24Z</time>
      </trkpt>
      <trkpt lat="50.25699" lon="3.90936">
        <ele>162.2</ele>
        <time>2020-06-24T14:16:25Z</time>
      </trkpt>
      <trkpt lat="50.25694" lon="3.90944">
        <ele>162.3</ele>
        <time>2020-06-24T14:16:26Z</time>
      </trkpt>
      <trkpt lat="50.25689" lon="3.90953">
        <ele>162.4</ele>
        <time>2020-06-24T14:16:27Z</time>
      </trkpt>
      <trkpt lat="50.25686" lon="3.9096">
        <ele>162.5</ele>
        <time>2020-06-24T14:16:28Z</time>
      </trkpt>
      <trkpt lat="50.25683" lon="3.90967">
        <ele>162.6</ele>
        <time>2020-06-24T14:16:29Z</time>
      </trkpt>
      <trkpt lat="50.25678" lon="3.90975">
        <ele>162.6</ele>
        <time>2020-06-24T14:16:30Z</time>
      </trkpt>
      <trkpt lat="50.25675" lon="3.90982">
        <ele>162.7</ele>
        <time>2020-06-24T14:16:31Z</time>
      </trkpt>
      <trkpt lat="50.25672" lon="3.90988">
        <ele>162.7</ele>
        <time>2020-06-24T14:16:32Z</time>
      </trkpt>
      <trkpt lat="50.2567" lon="3.90994">
        <ele>162.7</ele>
        <time>2020-06-24T14:16:33Z</time>
      </trkpt>
      <trkpt lat="50.25668" lon="3.91003">
        <ele>162.7</ele>
        <time>2020-06-24T14:16:34Z</time>
      </trkpt>
      <trkpt lat="50.25667" lon="3.91009">
        <ele>162.6</ele>
        <time>2020-06-24T14:16:35Z</time>
      </trkpt>
      <trkpt lat="50.25667" lon="3.91016">
        <ele>162.6</ele>
        <time>2020-06-24T14:16:36Z</time>
      </trkpt>
      <trkpt lat="50.25664" lon="3.91023">
        <ele>162.5</ele>
        <time>2020-06-24T14:16:37Z</time>
      </trkpt>
      <trkpt lat="50.25662" lon="3.91029">
        <ele>162.4</ele>
        <time>2020-06-24T14:16:38Z</time>
      </trkpt>
      <trkpt lat="50.2566" lon="3.91036">
        <ele>162.3</ele>
        <time>2020-06-24T14:16:39Z</time>
      </trkpt>
      <trkpt lat="50.25658" lon="3.91043">
        <ele>162.3</ele>
        <time>2020-06-24T14:16:40Z</time>
      </trkpt>
      <trkpt lat="50.25656" lon="3.91048">
        <ele>162.2</ele>
        <time>2020-06-24T14:16:41Z</time>
      </trkpt>
      <trkpt lat="50.25655" lon="3.91054">
        <ele>162.1</ele>
        <time>2020-06-24T14:16:42Z</time>
      </trkpt>
      <trkpt lat="50.25652" lon="3.91061">
        <ele>162</ele>
        <time>2020-06-24T14:16:43Z</time>
      </trkpt>
      <trkpt lat="50.2565" lon="3.91068">
        <ele>161.9</ele>
        <time>2020-06-24T14:16:44Z</time>
      </trkpt>
      <trkpt lat="50.25647" lon="3.91076">
        <ele>161.8</ele>
        <time>2020-06-24T14:16:45Z</time>
      </trkpt>
      <trkpt lat="50.25645" lon="3.91083">
        <ele>161.7</ele>
        <time>2020-06-24T14:16:46Z</time>
      </trkpt>
      <trkpt lat="50.25642" lon="3.9109">
        <ele>161.6</ele>
        <time>2020-06-24T14:16:47Z</time>
      </trkpt>
      <trkpt lat="50.25635" lon="3.91099">
        <ele>161.5</ele>
        <time>2020-06-24T14:16:48Z</time>
      </trkpt>
      <trkpt lat="50.25631" lon="3.91105">
        <ele>161.5</ele>
        <time>2020-06-24T14:16:49Z</time>
      </trkpt>
      <trkpt lat="50.25626" lon="3.91111">
        <ele>161.4</ele>
        <time>2020-06-24T14:16:50Z</time>
      </trkpt>
      <trkpt lat="50.25624" lon="3.91114">
        <ele>161.3</ele>
        <time>2020-06-24T14:16:51Z</time>
      </trkpt>
      <trkpt lat="50.25621" lon="3.9112">
        <ele>161.1</ele>
        <time>2020-06-24T14:16:52Z</time>
      </trkpt>
      <trkpt lat="50.25618" lon="3.91128">
        <ele>161</ele>
        <time>2020-06-24T14:16:53Z</time>
      </trkpt>
      <trkpt lat="50.25616" lon="3.91136">
        <ele>160.8</ele>
        <time>2020-06-24T14:16:54Z</time>
      </trkpt>
      <trkpt lat="50.25614" lon="3.91142">
        <ele>160.7</ele>
        <time>2020-06-24T14:16:55Z</time>
      </trkpt>
      <trkpt lat="50.25613" lon="3.91148">
        <ele>160.7</ele>
        <time>2020-06-24T14:16:56Z</time>
      </trkpt>
      <trkpt lat="50.25612" lon="3.91151">
        <ele>160.6</ele>
        <time>2020-06-24T14:16:57Z</time>
      </trkpt>
      <trkpt lat="50.25612" lon="3.91153">
        <ele>160.6</ele>
        <time>2020-06-24T14:16:58Z</time>
      </trkpt>
      <trkpt lat="50.25611" lon="3.91156">
        <ele>160.6</ele>
        <time>2020-06-24T14:16:59Z</time>
      </trkpt>
      <trkpt lat="50.2561" lon="3.91158">
        <ele>160.5</ele>
        <time>2020-06-24T14:17:00Z</time>
      </trkpt>
      <trkpt lat="50.2561" lon="3.91161">
        <ele>160.3</ele>
        <time>2020-06-24T14:17:01Z</time>
      </trkpt>
      <trkpt lat="50.25607" lon="3.91163">
        <ele>160.2</ele>
        <time>2020-06-24T14:17:02Z</time>
      </trkpt>
      <trkpt lat="50.25603" lon="3.91165">
        <ele>160.2</ele>
        <time>2020-06-24T14:17:03Z</time>
      </trkpt>
      <trkpt lat="50.25601" lon="3.91169">
        <ele>160.2</ele>
        <time>2020-06-24T14:17:04Z</time>
      </trkpt>
      <trkpt lat="50.25598" lon="3.91173">
        <ele>160</ele>
        <time>2020-06-24T14:17:05Z</time>
      </trkpt>
      <trkpt lat="50.25596" lon="3.91178">
        <ele>160</ele>
        <time>2020-06-24T14:17:06Z</time>
      </trkpt>
      <trkpt lat="50.25592" lon="3.91181">
        <ele>159.9</ele>
        <time>2020-06-24T14:17:07Z</time>
      </trkpt>
      <trkpt lat="50.25588" lon="3.91184">
        <ele>159.7</ele>
        <time>2020-06-24T14:17:08Z</time>
      </trkpt>
      <trkpt lat="50.25584" lon="3.91186">
        <ele>159.5</ele>
        <time>2020-06-24T14:17:09Z</time>
      </trkpt>
      <trkpt lat="50.25582" lon="3.91188">
        <ele>159.4</ele>
        <time>2020-06-24T14:17:10Z</time>
      </trkpt>
      <trkpt lat="50.25578" lon="3.91192">
        <ele>159.1</ele>
        <time>2020-06-24T14:17:11Z</time>
      </trkpt>
      <trkpt lat="50.25575" lon="3.91196">
        <ele>158.9</ele>
        <time>2020-06-24T14:17:12Z</time>
      </trkpt>
      <trkpt lat="50.25571" lon="3.91201">
        <ele>158.6</ele>
        <time>2020-06-24T14:17:13Z</time>
      </trkpt>
      <trkpt lat="50.25568" lon="3.91205">
        <ele>158.3</ele>
        <time>2020-06-24T14:17:14Z</time>
      </trkpt>
      <trkpt lat="50.25564" lon="3.9121">
        <ele>158</ele>
        <time>2020-06-24T14:17:15Z</time>
      </trkpt>
      <trkpt lat="50.25561" lon="3.91217">
        <ele>157.7</ele>
        <time>2020-06-24T14:17:16Z</time>
      </trkpt>
      <trkpt lat="50.25557" lon="3.91221">
        <ele>157.4</ele>
        <time>2020-06-24T14:17:17Z</time>
      </trkpt>
      <trkpt lat="50.25554" lon="3.91224">
        <ele>157.2</ele>
        <time>2020-06-24T14:17:18Z</time>
      </trkpt>
      <trkpt lat="50.2555" lon="3.91226">
        <ele>156.9</ele>
        <time>2020-06-24T14:17:19Z</time>
      </trkpt>
      <trkpt lat="50.25547" lon="3.91228">
        <ele>156.6</ele>
        <time>2020-06-24T14:17:20Z</time>
      </trkpt>
      <trkpt lat="50.25545" lon="3.91229">
        <ele>156.5</ele>
        <time>2020-06-24T14:17:21Z</time>
      </trkpt>
      <trkpt lat="50.25542" lon="3.91232">
        <ele>156.1</ele>
        <time>2020-06-24T14:17:22Z</time>
      </trkpt>
      <trkpt lat="50.25538" lon="3.91236">
        <ele>155.8</ele>
        <time>2020-06-24T14:17:23Z</time>
      </trkpt>
      <trkpt lat="50.25537" lon="3.91237">
        <ele>155.6</ele>
        <time>2020-06-24T14:17:24Z</time>
      </trkpt>
      <trkpt lat="50.25534" lon="3.9124">
        <ele>155.4</ele>
        <time>2020-06-24T14:17:25Z</time>
      </trkpt>
      <trkpt lat="50.2553" lon="3.91243">
        <ele>155.1</ele>
        <time>2020-06-24T14:17:26Z</time>
      </trkpt>
      <trkpt lat="50.25527" lon="3.91246">
        <ele>154.8</ele>
        <time>2020-06-24T14:17:27Z</time>
      </trkpt>
      <trkpt lat="50.25523" lon="3.9125">
        <ele>154.5</ele>
        <time>2020-06-24T14:17:28Z</time>
      </trkpt>
      <trkpt lat="50.25518" lon="3.91254">
        <ele>154.1</ele>
        <time>2020-06-24T14:17:29Z</time>
      </trkpt>
      <trkpt lat="50.25514" lon="3.91259">
        <ele>153.7</ele>
        <time>2020-06-24T14:17:30Z</time>
      </trkpt>
      <trkpt lat="50.25509" lon="3.91264">
        <ele>153.3</ele>
        <time>2020-06-24T14:17:31Z</time>
      </trkpt>
      <trkpt lat="50.25504" lon="3.91269">
        <ele>152.8</ele>
        <time>2020-06-24T14:17:32Z</time>
      </trkpt>
      <trkpt lat="50.255" lon="3.91274">
        <ele>152.4</ele>
        <time>2020-06-24T14:17:33Z</time>
      </trkpt>
      <trkpt lat="50.2549" lon="3.91282">
        <ele>151.7</ele>
        <time>2020-06-24T14:17:34Z</time>
      </trkpt>
      <trkpt lat="50.25483" lon="3.91288">
        <ele>151</ele>
        <time>2020-06-24T14:17:35Z</time>
      </trkpt>
      <trkpt lat="50.25476" lon="3.91295">
        <ele>150.4</ele>
        <time>2020-06-24T14:17:36Z</time>
      </trkpt>
      <trkpt lat="50.2547" lon="3.913">
        <ele>149.8</ele>
        <time>2020-06-24T14:17:37Z</time>
      </trkpt>
      <trkpt lat="50.25465" lon="3.91305">
        <ele>149.3</ele>
        <time>2020-06-24T14:17:38Z</time>
      </trkpt>
      <trkpt lat="50.25461" lon="3.9131">
        <ele>148.9</ele>
        <time>2020-06-24T14:17:39Z</time>
      </trkpt>
      <trkpt lat="50.25457" lon="3.91314">
        <ele>148.5</ele>
        <time>2020-06-24T14:17:40Z</time>
      </trkpt>
      <trkpt lat="50.25453" lon="3.91319">
        <ele>148.1</ele>
        <time>2020-06-24T14:17:41Z</time>
      </trkpt>
      <trkpt lat="50.2545" lon="3.91324">
        <ele>147.7</ele>
        <time>2020-06-24T14:17:42Z</time>
      </trkpt>
      <trkpt lat="50.25445" lon="3.91328">
        <ele>147.3</ele>
        <time>2020-06-24T14:17:43Z</time>
      </trkpt>
      <trkpt lat="50.25442" lon="3.91334">
        <ele>147.2</ele>
        <time>2020-06-24T14:17:44Z</time>
      </trkpt>
      <trkpt lat="50.25438" lon="3.91337">
        <ele>147</ele>
        <time>2020-06-24T14:17:45Z</time>
      </trkpt>
      <trkpt lat="50.25434" lon="3.91341">
        <ele>146.8</ele>
        <time>2020-06-24T14:17:46Z</time>
      </trkpt>
      <trkpt lat="50.2543" lon="3.91345">
        <ele>146.6</ele>
        <time>2020-06-24T14:17:47Z</time>
      </trkpt>
      <trkpt lat="50.25425" lon="3.91349">
        <ele>146.2</ele>
        <time>2020-06-24T14:17:48Z</time>
      </trkpt>
      <trkpt lat="50.2542" lon="3.91353">
        <ele>145.7</ele>
        <time>2020-06-24T14:17:49Z</time>
      </trkpt>
      <trkpt lat="50.25416" lon="3.91357">
        <ele>145.2</ele>
        <time>2020-06-24T14:17:50Z</time>
      </trkpt>
      <trkpt lat="50.25412" lon="3.91362">
        <ele>144.7</ele>
        <time>2020-06-24T14:17:51Z</time>
      </trkpt>
      <trkpt lat="50.25409" lon="3.91367">
        <ele>144.2</ele>
        <time>2020-06-24T14:17:52Z</time>
      </trkpt>
      <trkpt lat="50.25406" lon="3.91374">
        <ele>143.7</ele>
        <time>2020-06-24T14:17:53Z</time>
      </trkpt>
      <trkpt lat="50.25403" lon="3.91379">
        <ele>142.7</ele>
        <time>2020-06-24T14:17:54Z</time>
      </trkpt>
      <trkpt lat="50.254" lon="3.91385">
        <ele>142.3</ele>
        <time>2020-06-24T14:17:55Z</time>
      </trkpt>
      <trkpt lat="50.25396" lon="3.9139">
        <ele>141.9</ele>
        <time>2020-06-24T14:17:56Z</time>
      </trkpt>
      <trkpt lat="50.25392" lon="3.91394">
        <ele>141.5</ele>
        <time>2020-06-24T14:17:57Z</time>
      </trkpt>
      <trkpt lat="50.25387" lon="3.91399">
        <ele>141.1</ele>
        <time>2020-06-24T14:17:58Z</time>
      </trkpt>
      <trkpt lat="50.25383" lon="3.91403">
        <ele>140.7</ele>
        <time>2020-06-24T14:17:59Z</time>
      </trkpt>
      <trkpt lat="50.2538" lon="3.91407">
        <ele>140.5</ele>
        <time>2020-06-24T14:18:00Z</time>
      </trkpt>
      <trkpt lat="50.25377" lon="3.91412">
        <ele>140.3</ele>
        <time>2020-06-24T14:18:01Z</time>
      </trkpt>
      <trkpt lat="50.25374" lon="3.91418">
        <ele>140.1</ele>
        <time>2020-06-24T14:18:02Z</time>
      </trkpt>
      <trkpt lat="50.25372" lon="3.91424">
        <ele>139.9</ele>
        <time>2020-06-24T14:18:03Z</time>
      </trkpt>
      <trkpt lat="50.2537" lon="3.91429">
        <ele>139.9</ele>
        <time>2020-06-24T14:18:04Z</time>
      </trkpt>
      <trkpt lat="50.25368" lon="3.91433">
        <ele>139.8</ele>
        <time>2020-06-24T14:18:05Z</time>
      </trkpt>
      <trkpt lat="50.25362" lon="3.91439">
        <ele>139.9</ele>
        <time>2020-06-24T14:18:06Z</time>
      </trkpt>
      <trkpt lat="50.25359" lon="3.91446">
        <ele>140.1</ele>
        <time>2020-06-24T14:18:07Z</time>
      </trkpt>
      <trkpt lat="50.25359" lon="3.91453">
        <ele>140.5</ele>
        <time>2020-06-24T14:18:08Z</time>
      </trkpt>
      <trkpt lat="50.25357" lon="3.91457">
        <ele>140.6</ele>
        <time>2020-06-24T14:18:09Z</time>
      </trkpt>
      <trkpt lat="50.2536" lon="3.91461">
        <ele>140.6</ele>
        <time>2020-06-24T14:18:10Z</time>
      </trkpt>
      <trkpt lat="50.25362" lon="3.91462">
        <ele>140.6</ele>
        <time>2020-06-24T14:18:11Z</time>
      </trkpt>
      <trkpt lat="50.25366" lon="3.91464">
        <ele>140.8</ele>
        <time>2020-06-24T14:18:12Z</time>
      </trkpt>
      <trkpt lat="50.2537" lon="3.91469">
        <ele>141</ele>
        <time>2020-06-24T14:18:13Z</time>
      </trkpt>
      <trkpt lat="50.25374" lon="3.91475">
        <ele>141.2</ele>
        <time>2020-06-24T14:18:14Z</time>
      </trkpt>
      <trkpt lat="50.2538" lon="3.91481">
        <ele>141.4</ele>
        <time>2020-06-24T14:18:15Z</time>
      </trkpt>
      <trkpt lat="50.25385" lon="3.91487">
        <ele>141.6</ele>
        <time>2020-06-24T14:18:16Z</time>
      </trkpt>
      <trkpt lat="50.25387" lon="3.9149">
        <ele>141.7</ele>
        <time>2020-06-24T14:18:17Z</time>
      </trkpt>
      <trkpt lat="50.2539" lon="3.91491">
        <ele>141.8</ele>
        <time>2020-06-24T14:18:18Z</time>
      </trkpt>
      <trkpt lat="50.25393" lon="3.91492">
        <ele>141.9</ele>
        <time>2020-06-24T14:18:19Z</time>
      </trkpt>
      <trkpt lat="50.25393" lon="3.91493">
        <ele>142</ele>
        <time>2020-06-24T14:18:20Z</time>
      </trkpt>
      <trkpt lat="50.25393" lon="3.91495">
        <ele>142</ele>
        <time>2020-06-24T14:18:21Z</time>
      </trkpt>
      <trkpt lat="50.25394" lon="3.91496">
        <ele>142</ele>
        <time>2020-06-24T14:18:22Z</time>
      </trkpt>
      <trkpt lat="50.25394" lon="3.91494">
        <ele>142.1</ele>
        <time>2020-06-24T14:18:23Z</time>
      </trkpt>
      <trkpt lat="50.25395" lon="3.91493">
        <ele>142.1</ele>
        <time>2020-06-24T14:18:24Z</time>
      </trkpt>
      <trkpt lat="50.25396" lon="3.91491">
        <ele>142.2</ele>
        <time>2020-06-24T14:18:25Z</time>
      </trkpt>
      <trkpt lat="50.25398" lon="3.91491">
        <ele>142.2</ele>
        <time>2020-06-24T14:18:26Z</time>
      </trkpt>
      <trkpt lat="50.25399" lon="3.91491">
        <ele>142.3</ele>
        <time>2020-06-24T14:18:27Z</time>
      </trkpt>
      <trkpt lat="50.254" lon="3.91491">
        <ele>142.3</ele>
        <time>2020-06-24T14:18:28Z</time>
      </trkpt>
      <trkpt lat="50.25401" lon="3.91492">
        <ele>142.4</ele>
        <time>2020-06-24T14:18:29Z</time>
      </trkpt>
      <trkpt lat="50.25402" lon="3.91492">
        <ele>142.4</ele>
        <time>2020-06-24T14:18:30Z</time>
      </trkpt>
      <trkpt lat="50.25403" lon="3.91492">
        <ele>142.4</ele>
        <time>2020-06-24T14:18:31Z</time>
      </trkpt>
      <trkpt lat="50.25404" lon="3.91492">
        <ele>142.5</ele>
        <time>2020-06-24T14:18:32Z</time>
      </trkpt>
      <trkpt lat="50.25405" lon="3.91493">
        <ele>142.5</ele>
        <time>2020-06-24T14:21:01Z</time>
      </trkpt>
      <trkpt lat="50.25407" lon="3.91493">
        <ele>142.6</ele>
        <time>2020-06-24T14:21:02Z</time>
      </trkpt>
      <trkpt lat="50.2541" lon="3.91495">
        <ele>142.7</ele>
        <time>2020-06-24T14:21:03Z</time>
      </trkpt>
      <trkpt lat="50.25415" lon="3.91499">
        <ele>142.8</ele>
        <time>2020-06-24T14:21:04Z</time>
      </trkpt>
      <trkpt lat="50.25419" lon="3.91502">
        <ele>143</ele>
        <time>2020-06-24T14:21:05Z</time>
      </trkpt>
      <trkpt lat="50.25423" lon="3.91504">
        <ele>143.1</ele>
        <time>2020-06-24T14:21:06Z</time>
      </trkpt>
      <trkpt lat="50.25426" lon="3.91505">
        <ele>143.3</ele>
        <time>2020-06-24T14:21:07Z</time>
      </trkpt>
      <trkpt lat="50.25429" lon="3.91508">
        <ele>143.4</ele>
        <time>2020-06-24T14:21:08Z</time>
      </trkpt>
      <trkpt lat="50.25432" lon="3.91512">
        <ele>143.5</ele>
        <time>2020-06-24T14:21:09Z</time>
      </trkpt>
      <trkpt lat="50.25436" lon="3.91516">
        <ele>143.8</ele>
        <time>2020-06-24T14:21:10Z</time>
      </trkpt>
      <trkpt lat="50.25439" lon="3.91517">
        <ele>143.9</ele>
        <time>2020-06-24T14:21:11Z</time>
      </trkpt>
      <trkpt lat="50.25441" lon="3.91519">
        <ele>144.1</ele>
        <time>2020-06-24T14:21:12Z</time>
      </trkpt>
      <trkpt lat="50.25445" lon="3.91521">
        <ele>144.3</ele>
        <time>2020-06-24T14:21:13Z</time>
      </trkpt>
      <trkpt lat="50.25447" lon="3.91522">
        <ele>144.5</ele>
        <time>2020-06-24T14:21:14Z</time>
      </trkpt>
      <trkpt lat="50.2545" lon="3.91525">
        <ele>144.7</ele>
        <time>2020-06-24T14:21:15Z</time>
      </trkpt>
      <trkpt lat="50.25453" lon="3.91529">
        <ele>144.9</ele>
        <time>2020-06-24T14:21:16Z</time>
      </trkpt>
      <trkpt lat="50.25456" lon="3.91531">
        <ele>145.1</ele>
        <time>2020-06-24T14:21:17Z</time>
      </trkpt>
      <trkpt lat="50.25459" lon="3.91534">
        <ele>145.5</ele>
        <time>2020-06-24T14:21:18Z</time>
      </trkpt>
      <trkpt lat="50.25461" lon="3.91536">
        <ele>145.5</ele>
        <time>2020-06-24T14:21:19Z</time>
      </trkpt>
      <trkpt lat="50.25463" lon="3.91538">
        <ele>145.5</ele>
        <time>2020-06-24T14:21:20Z</time>
      </trkpt>
      <trkpt lat="50.25464" lon="3.91539">
        <ele>145.6</ele>
        <time>2020-06-24T14:21:21Z</time>
      </trkpt>
      <trkpt lat="50.25464" lon="3.91539">
        <ele>145.6</ele>
        <time>2020-06-24T14:21:22Z</time>
      </trkpt>
      <trkpt lat="50.25464" lon="3.91539">
        <ele>145.6</ele>
        <time>2020-06-24T14:21:23Z</time>
      </trkpt>
      <trkpt lat="50.25464" lon="3.9154">
        <ele>145.6</ele>
        <time>2020-06-24T14:21:24Z</time>
      </trkpt>
      <trkpt lat="50.25465" lon="3.9154">
        <ele>145.6</ele>
        <time>2020-06-24T14:21:25Z</time>
      </trkpt>
      <trkpt lat="50.25465" lon="3.9154">
        <ele>145.6</ele>
        <time>2020-06-24T14:21:26Z</time>
      </trkpt>
      <trkpt lat="50.25465" lon="3.91541">
        <ele>145.6</ele>
        <time>2020-06-24T14:21:27Z</time>
      </trkpt>
      <trkpt lat="50.25465" lon="3.91541">
        <ele>145.6</ele>
        <time>2020-06-24T14:21:28Z</time>
      </trkpt>
      <trkpt lat="50.25464" lon="3.91541">
        <ele>145.6</ele>
        <time>2020-06-24T14:21:29Z</time>
      </trkpt>
      <trkpt lat="50.25464" lon="3.91541">
        <ele>145.6</ele>
        <time>2020-06-24T14:21:30Z</time>
      </trkpt>
      <trkpt lat="50.25463" lon="3.91541">
        <ele>145.6</ele>
        <time>2020-06-24T14:21:31Z</time>
      </trkpt>
      <trkpt lat="50.25463" lon="3.91541">
        <ele>145.6</ele>
        <time>2020-06-24T14:21:32Z</time>
      </trkpt>
      <trkpt lat="50.25463" lon="3.91541">
        <ele>145.6</ele>
        <time>2020-06-24T14:21:33Z</time>
      </trkpt>
      <trkpt lat="50.25463" lon="3.91541">
        <ele>145.6</ele>
        <time>2020-06-24T14:21:34Z</time>
      </trkpt>
      <trkpt lat="50.25463" lon="3.91541">
        <ele>145.6</ele>
        <time>2020-06-24T14:21:35Z</time>
      </trkpt>
      <trkpt lat="50.25462" lon="3.91541">
        <ele>145.6</ele>
        <time>2020-06-24T14:21:36Z</time>
      </trkpt>
      <trkpt lat="50.25458" lon="3.91524">
        <ele>145.7</ele>
        <time>2020-06-24T14:22:11Z</time>
      </trkpt>
      <trkpt lat="50.25457" lon="3.91519">
        <ele>145.7</ele>
        <time>2020-06-24T14:22:12Z</time>
      </trkpt>
      <trkpt lat="50.25457" lon="3.91514">
        <ele>145.7</ele>
        <time>2020-06-24T14:22:13Z</time>
      </trkpt>
      <trkpt lat="50.25456" lon="3.91508">
        <ele>145.8</ele>
        <time>2020-06-24T14:22:14Z</time>
      </trkpt>
      <trkpt lat="50.25456" lon="3.91501">
        <ele>145.8</ele>
        <time>2020-06-24T14:22:15Z</time>
      </trkpt>
      <trkpt lat="50.25455" lon="3.91496">
        <ele>145.9</ele>
        <time>2020-06-24T14:22:16Z</time>
      </trkpt>
      <trkpt lat="50.25454" lon="3.9149">
        <ele>145.9</ele>
        <time>2020-06-24T14:22:17Z</time>
      </trkpt>
      <trkpt lat="50.25452" lon="3.91482">
        <ele>146</ele>
        <time>2020-06-24T14:22:18Z</time>
      </trkpt>
      <trkpt lat="50.25451" lon="3.91475">
        <ele>146.1</ele>
        <time>2020-06-24T14:22:19Z</time>
      </trkpt>
      <trkpt lat="50.25449" lon="3.9147">
        <ele>146.1</ele>
        <time>2020-06-24T14:22:20Z</time>
      </trkpt>
      <trkpt lat="50.25447" lon="3.91464">
        <ele>146.2</ele>
        <time>2020-06-24T14:22:21Z</time>
      </trkpt>
      <trkpt lat="50.25445" lon="3.91458">
        <ele>146.2</ele>
        <time>2020-06-24T14:22:22Z</time>
      </trkpt>
      <trkpt lat="50.25443" lon="3.9145">
        <ele>146.3</ele>
        <time>2020-06-24T14:22:23Z</time>
      </trkpt>
      <trkpt lat="50.25441" lon="3.91445">
        <ele>146.3</ele>
        <time>2020-06-24T14:22:24Z</time>
      </trkpt>
      <trkpt lat="50.25439" lon="3.9144">
        <ele>146.3</ele>
        <time>2020-06-24T14:22:25Z</time>
      </trkpt>
      <trkpt lat="50.25436" lon="3.91435">
        <ele>146.3</ele>
        <time>2020-06-24T14:22:26Z</time>
      </trkpt>
      <trkpt lat="50.25433" lon="3.9143">
        <ele>146.3</ele>
        <time>2020-06-24T14:22:27Z</time>
      </trkpt>
      <trkpt lat="50.25431" lon="3.91426">
        <ele>146.3</ele>
        <time>2020-06-24T14:22:28Z</time>
      </trkpt>
      <trkpt lat="50.25429" lon="3.91423">
        <ele>144.3</ele>
        <time>2020-06-24T14:22:29Z</time>
      </trkpt>
      <trkpt lat="50.25428" lon="3.91419">
        <ele>143.5</ele>
        <time>2020-06-24T14:22:30Z</time>
      </trkpt>
      <trkpt lat="50.25426" lon="3.91415">
        <ele>142.5</ele>
        <time>2020-06-24T14:22:31Z</time>
      </trkpt>
      <trkpt lat="50.25424" lon="3.91411">
        <ele>142</ele>
        <time>2020-06-24T14:22:32Z</time>
      </trkpt>
      <trkpt lat="50.25422" lon="3.91406">
        <ele>142</ele>
        <time>2020-06-24T14:22:33Z</time>
      </trkpt>
      <trkpt lat="50.2542" lon="3.91401">
        <ele>142.1</ele>
        <time>2020-06-24T14:22:34Z</time>
      </trkpt>
      <trkpt lat="50.25418" lon="3.91398">
        <ele>142.3</ele>
        <time>2020-06-24T14:22:35Z</time>
      </trkpt>
      <trkpt lat="50.25415" lon="3.91397">
        <ele>142.5</ele>
        <time>2020-06-24T14:22:36Z</time>
      </trkpt>
      <trkpt lat="50.25411" lon="3.91396">
        <ele>142.6</ele>
        <time>2020-06-24T14:22:37Z</time>
      </trkpt>
      <trkpt lat="50.25408" lon="3.914">
        <ele>142.8</ele>
        <time>2020-06-24T14:22:38Z</time>
      </trkpt>
      <trkpt lat="50.25404" lon="3.91405">
        <ele>142.6</ele>
        <time>2020-06-24T14:22:39Z</time>
      </trkpt>
      <trkpt lat="50.25402" lon="3.91409">
        <ele>142.4</ele>
        <time>2020-06-24T14:22:40Z</time>
      </trkpt>
      <trkpt lat="50.25399" lon="3.91415">
        <ele>142.1</ele>
        <time>2020-06-24T14:22:41Z</time>
      </trkpt>
      <trkpt lat="50.25395" lon="3.91421">
        <ele>141.9</ele>
        <time>2020-06-24T14:22:42Z</time>
      </trkpt>
      <trkpt lat="50.25391" lon="3.91427">
        <ele>141.7</ele>
        <time>2020-06-24T14:22:43Z</time>
      </trkpt>
      <trkpt lat="50.25387" lon="3.91434">
        <ele>141.5</ele>
        <time>2020-06-24T14:22:44Z</time>
      </trkpt>
      <trkpt lat="50.25383" lon="3.91441">
        <ele>141.4</ele>
        <time>2020-06-24T14:22:45Z</time>
      </trkpt>
      <trkpt lat="50.2538" lon="3.91447">
        <ele>141.5</ele>
        <time>2020-06-24T14:22:46Z</time>
      </trkpt>
      <trkpt lat="50.25376" lon="3.91455">
        <ele>141.5</ele>
        <time>2020-06-24T14:22:47Z</time>
      </trkpt>
      <trkpt lat="50.25372" lon="3.91463">
        <ele>141.6</ele>
        <time>2020-06-24T14:22:48Z</time>
      </trkpt>
      <trkpt lat="50.25369" lon="3.91469">
        <ele>141.6</ele>
        <time>2020-06-24T14:22:49Z</time>
      </trkpt>
      <trkpt lat="50.25366" lon="3.91474">
        <ele>141.6</ele>
        <time>2020-06-24T14:22:50Z</time>
      </trkpt>
      <trkpt lat="50.25364" lon="3.9148">
        <ele>141.5</ele>
        <time>2020-06-24T14:22:51Z</time>
      </trkpt>
      <trkpt lat="50.2536" lon="3.91486">
        <ele>141.4</ele>
        <time>2020-06-24T14:22:52Z</time>
      </trkpt>
      <trkpt lat="50.25356" lon="3.91492">
        <ele>141.3</ele>
        <time>2020-06-24T14:22:53Z</time>
      </trkpt>
      <trkpt lat="50.25353" lon="3.91499">
        <ele>141</ele>
        <time>2020-06-24T14:22:54Z</time>
      </trkpt>
      <trkpt lat="50.25351" lon="3.91504">
        <ele>140.8</ele>
        <time>2020-06-24T14:22:55Z</time>
      </trkpt>
      <trkpt lat="50.25348" lon="3.91511">
        <ele>140.5</ele>
        <time>2020-06-24T14:22:56Z</time>
      </trkpt>
      <trkpt lat="50.25344" lon="3.91517">
        <ele>140.1</ele>
        <time>2020-06-24T14:22:57Z</time>
      </trkpt>
      <trkpt lat="50.25342" lon="3.91525">
        <ele>139.8</ele>
        <time>2020-06-24T14:22:58Z</time>
      </trkpt>
      <trkpt lat="50.25337" lon="3.91533">
        <ele>139.3</ele>
        <time>2020-06-24T14:22:59Z</time>
      </trkpt>
      <trkpt lat="50.25332" lon="3.9154">
        <ele>138.7</ele>
        <time>2020-06-24T14:23:00Z</time>
      </trkpt>
      <trkpt lat="50.25326" lon="3.91549">
        <ele>138</ele>
        <time>2020-06-24T14:23:01Z</time>
      </trkpt>
      <trkpt lat="50.2532" lon="3.91558">
        <ele>137.3</ele>
        <time>2020-06-24T14:23:02Z</time>
      </trkpt>
      <trkpt lat="50.25314" lon="3.91567">
        <ele>136.6</ele>
        <time>2020-06-24T14:23:03Z</time>
      </trkpt>
      <trkpt lat="50.25308" lon="3.91576">
        <ele>135.9</ele>
        <time>2020-06-24T14:23:04Z</time>
      </trkpt>
      <trkpt lat="50.253" lon="3.91586">
        <ele>135.1</ele>
        <time>2020-06-24T14:23:05Z</time>
      </trkpt>
      <trkpt lat="50.25293" lon="3.91597">
        <ele>134.3</ele>
        <time>2020-06-24T14:23:06Z</time>
      </trkpt>
      <trkpt lat="50.25285" lon="3.91608">
        <ele>133.4</ele>
        <time>2020-06-24T14:23:07Z</time>
      </trkpt>
      <trkpt lat="50.25278" lon="3.91619">
        <ele>132.6</ele>
        <time>2020-06-24T14:23:08Z</time>
      </trkpt>
      <trkpt lat="50.25272" lon="3.91628">
        <ele>132</ele>
        <time>2020-06-24T14:23:09Z</time>
      </trkpt>
      <trkpt lat="50.25265" lon="3.91636">
        <ele>131.4</ele>
        <time>2020-06-24T14:23:10Z</time>
      </trkpt>
      <trkpt lat="50.25259" lon="3.91645">
        <ele>130.3</ele>
        <time>2020-06-24T14:23:11Z</time>
      </trkpt>
      <trkpt lat="50.25253" lon="3.91653">
        <ele>130.3</ele>
        <time>2020-06-24T14:23:12Z</time>
      </trkpt>
      <trkpt lat="50.25246" lon="3.91663">
        <ele>130.2</ele>
        <time>2020-06-24T14:23:13Z</time>
      </trkpt>
      <trkpt lat="50.25241" lon="3.91673">
        <ele>129.6</ele>
        <time>2020-06-24T14:23:14Z</time>
      </trkpt>
      <trkpt lat="50.25237" lon="3.91683">
        <ele>129.1</ele>
        <time>2020-06-24T14:23:15Z</time>
      </trkpt>
      <trkpt lat="50.25232" lon="3.91692">
        <ele>128.3</ele>
        <time>2020-06-24T14:23:16Z</time>
      </trkpt>
      <trkpt lat="50.25228" lon="3.91698">
        <ele>128.3</ele>
        <time>2020-06-24T14:23:17Z</time>
      </trkpt>
      <trkpt lat="50.25224" lon="3.91706">
        <ele>128.3</ele>
        <time>2020-06-24T14:23:18Z</time>
      </trkpt>
      <trkpt lat="50.25221" lon="3.91712">
        <ele>128.3</ele>
        <time>2020-06-24T14:23:19Z</time>
      </trkpt>
      <trkpt lat="50.25218" lon="3.91717">
        <ele>128.4</ele>
        <time>2020-06-24T14:23:20Z</time>
      </trkpt>
      <trkpt lat="50.25214" lon="3.91723">
        <ele>129.3</ele>
        <time>2020-06-24T14:23:21Z</time>
      </trkpt>
      <trkpt lat="50.2521" lon="3.91728">
        <ele>129.2</ele>
        <time>2020-06-24T14:23:22Z</time>
      </trkpt>
      <trkpt lat="50.25204" lon="3.91733">
        <ele>129.1</ele>
        <time>2020-06-24T14:23:23Z</time>
      </trkpt>
      <trkpt lat="50.25201" lon="3.91742">
        <ele>129.2</ele>
        <time>2020-06-24T14:23:24Z</time>
      </trkpt>
      <trkpt lat="50.25199" lon="3.91751">
        <ele>128.8</ele>
        <time>2020-06-24T14:23:25Z</time>
      </trkpt>
      <trkpt lat="50.25196" lon="3.91759">
        <ele>128.5</ele>
        <time>2020-06-24T14:23:26Z</time>
      </trkpt>
      <trkpt lat="50.25192" lon="3.91765">
        <ele>128.5</ele>
        <time>2020-06-24T14:23:27Z</time>
      </trkpt>
      <trkpt lat="50.2519" lon="3.91772">
        <ele>128.5</ele>
        <time>2020-06-24T14:23:28Z</time>
      </trkpt>
      <trkpt lat="50.25187" lon="3.91778">
        <ele>128.5</ele>
        <time>2020-06-24T14:23:29Z</time>
      </trkpt>
      <trkpt lat="50.25184" lon="3.91785">
        <ele>128.5</ele>
        <time>2020-06-24T14:23:30Z</time>
      </trkpt>
      <trkpt lat="50.25179" lon="3.9179">
        <ele>128.5</ele>
        <time>2020-06-24T14:23:31Z</time>
      </trkpt>
      <trkpt lat="50.25177" lon="3.91796">
        <ele>128.6</ele>
        <time>2020-06-24T14:23:32Z</time>
      </trkpt>
      <trkpt lat="50.25175" lon="3.91802">
        <ele>128.6</ele>
        <time>2020-06-24T14:23:33Z</time>
      </trkpt>
      <trkpt lat="50.25173" lon="3.91808">
        <ele>128.7</ele>
        <time>2020-06-24T14:23:34Z</time>
      </trkpt>
      <trkpt lat="50.2517" lon="3.91814">
        <ele>128.7</ele>
        <time>2020-06-24T14:23:35Z</time>
      </trkpt>
      <trkpt lat="50.25168" lon="3.91819">
        <ele>128.8</ele>
        <time>2020-06-24T14:23:36Z</time>
      </trkpt>
      <trkpt lat="50.25166" lon="3.91825">
        <ele>128.9</ele>
        <time>2020-06-24T14:23:37Z</time>
      </trkpt>
      <trkpt lat="50.25163" lon="3.9183">
        <ele>128.9</ele>
        <time>2020-06-24T14:23:38Z</time>
      </trkpt>
      <trkpt lat="50.25161" lon="3.91835">
        <ele>129</ele>
        <time>2020-06-24T14:23:39Z</time>
      </trkpt>
      <trkpt lat="50.25158" lon="3.91841">
        <ele>129.1</ele>
        <time>2020-06-24T14:23:40Z</time>
      </trkpt>
      <trkpt lat="50.25155" lon="3.91845">
        <ele>129.2</ele>
        <time>2020-06-24T14:23:41Z</time>
      </trkpt>
      <trkpt lat="50.25152" lon="3.91851">
        <ele>129.4</ele>
        <time>2020-06-24T14:23:42Z</time>
      </trkpt>
      <trkpt lat="50.25149" lon="3.91857">
        <ele>129.5</ele>
        <time>2020-06-24T14:23:43Z</time>
      </trkpt>
      <trkpt lat="50.25146" lon="3.91863">
        <ele>129.6</ele>
        <time>2020-06-24T14:23:44Z</time>
      </trkpt>
      <trkpt lat="50.25144" lon="3.91869">
        <ele>129.8</ele>
        <time>2020-06-24T14:23:45Z</time>
      </trkpt>
      <trkpt lat="50.25141" lon="3.91874">
        <ele>130</ele>
        <time>2020-06-24T14:23:46Z</time>
      </trkpt>
      <trkpt lat="50.25138" lon="3.9188">
        <ele>130.1</ele>
        <time>2020-06-24T14:23:47Z</time>
      </trkpt>
      <trkpt lat="50.25136" lon="3.91885">
        <ele>130.1</ele>
        <time>2020-06-24T14:23:48Z</time>
      </trkpt>
      <trkpt lat="50.25134" lon="3.9189">
        <ele>130.2</ele>
        <time>2020-06-24T14:23:49Z</time>
      </trkpt>
      <trkpt lat="50.25132" lon="3.91893">
        <ele>130.3</ele>
        <time>2020-06-24T14:23:50Z</time>
      </trkpt>
      <trkpt lat="50.25129" lon="3.91896">
        <ele>130.3</ele>
        <time>2020-06-24T14:23:51Z</time>
      </trkpt>
      <trkpt lat="50.25127" lon="3.919">
        <ele>130.4</ele>
        <time>2020-06-24T14:23:52Z</time>
      </trkpt>
      <trkpt lat="50.25125" lon="3.91905">
        <ele>130.6</ele>
        <time>2020-06-24T14:23:53Z</time>
      </trkpt>
      <trkpt lat="50.25121" lon="3.91908">
        <ele>130.7</ele>
        <time>2020-06-24T14:23:54Z</time>
      </trkpt>
      <trkpt lat="50.25118" lon="3.91911">
        <ele>130.8</ele>
        <time>2020-06-24T14:23:55Z</time>
      </trkpt>
      <trkpt lat="50.25116" lon="3.91914">
        <ele>130.9</ele>
        <time>2020-06-24T14:23:56Z</time>
      </trkpt>
      <trkpt lat="50.25113" lon="3.91918">
        <ele>131.1</ele>
        <time>2020-06-24T14:23:57Z</time>
      </trkpt>
      <trkpt lat="50.2511" lon="3.91921">
        <ele>131.2</ele>
        <time>2020-06-24T14:23:58Z</time>
      </trkpt>
      <trkpt lat="50.25107" lon="3.91924">
        <ele>131.4</ele>
        <time>2020-06-24T14:23:59Z</time>
      </trkpt>
      <trkpt lat="50.25104" lon="3.91929">
        <ele>131.6</ele>
        <time>2020-06-24T14:24:00Z</time>
      </trkpt>
      <trkpt lat="50.25101" lon="3.91934">
        <ele>131.7</ele>
        <time>2020-06-24T14:24:01Z</time>
      </trkpt>
      <trkpt lat="50.25099" lon="3.9194">
        <ele>131.9</ele>
        <time>2020-06-24T14:24:02Z</time>
      </trkpt>
      <trkpt lat="50.25097" lon="3.91946">
        <ele>132.1</ele>
        <time>2020-06-24T14:24:03Z</time>
      </trkpt>
      <trkpt lat="50.25095" lon="3.91949">
        <ele>132.3</ele>
        <time>2020-06-24T14:24:04Z</time>
      </trkpt>
      <trkpt lat="50.25092" lon="3.91952">
        <ele>132.5</ele>
        <time>2020-06-24T14:24:05Z</time>
      </trkpt>
      <trkpt lat="50.25089" lon="3.91956">
        <ele>132.7</ele>
        <time>2020-06-24T14:24:06Z</time>
      </trkpt>
      <trkpt lat="50.25088" lon="3.91964">
        <ele>132.9</ele>
        <time>2020-06-24T14:24:07Z</time>
      </trkpt>
      <trkpt lat="50.25087" lon="3.91972">
        <ele>133.2</ele>
        <time>2020-06-24T14:24:08Z</time>
      </trkpt>
      <trkpt lat="50.25087" lon="3.91983">
        <ele>133.8</ele>
        <time>2020-06-24T14:24:09Z</time>
      </trkpt>
      <trkpt lat="50.25086" lon="3.9199">
        <ele>134.3</ele>
        <time>2020-06-24T14:24:10Z</time>
      </trkpt>
      <trkpt lat="50.25084" lon="3.91996">
        <ele>135.2</ele>
        <time>2020-06-24T14:24:11Z</time>
      </trkpt>
      <trkpt lat="50.25083" lon="3.91999">
        <ele>135.1</ele>
        <time>2020-06-24T14:24:12Z</time>
      </trkpt>
      <trkpt lat="50.2508" lon="3.92002">
        <ele>135.1</ele>
        <time>2020-06-24T14:24:13Z</time>
      </trkpt>
      <trkpt lat="50.25079" lon="3.92004">
        <ele>135.1</ele>
        <time>2020-06-24T14:24:14Z</time>
      </trkpt>
      <trkpt lat="50.25076" lon="3.92007">
        <ele>135.1</ele>
        <time>2020-06-24T14:24:15Z</time>
      </trkpt>
      <trkpt lat="50.25074" lon="3.92009">
        <ele>135.1</ele>
        <time>2020-06-24T14:24:16Z</time>
      </trkpt>
      <trkpt lat="50.25072" lon="3.9201">
        <ele>135</ele>
        <time>2020-06-24T14:24:17Z</time>
      </trkpt>
      <trkpt lat="50.2507" lon="3.92011">
        <ele>135.1</ele>
        <time>2020-06-24T14:24:18Z</time>
      </trkpt>
      <trkpt lat="50.25068" lon="3.92014">
        <ele>135.2</ele>
        <time>2020-06-24T14:24:19Z</time>
      </trkpt>
      <trkpt lat="50.25065" lon="3.92015">
        <ele>135.4</ele>
        <time>2020-06-24T14:24:20Z</time>
      </trkpt>
      <trkpt lat="50.25062" lon="3.92016">
        <ele>135.6</ele>
        <time>2020-06-24T14:24:21Z</time>
      </trkpt>
      <trkpt lat="50.25058" lon="3.92018">
        <ele>135.8</ele>
        <time>2020-06-24T14:24:22Z</time>
      </trkpt>
      <trkpt lat="50.25056" lon="3.92019">
        <ele>135.9</ele>
        <time>2020-06-24T14:24:23Z</time>
      </trkpt>
      <trkpt lat="50.25054" lon="3.92022">
        <ele>136.1</ele>
        <time>2020-06-24T14:24:24Z</time>
      </trkpt>
      <trkpt lat="50.25051" lon="3.92025">
        <ele>136.4</ele>
        <time>2020-06-24T14:24:25Z</time>
      </trkpt>
      <trkpt lat="50.2505" lon="3.92026">
        <ele>136.4</ele>
        <time>2020-06-24T14:24:26Z</time>
      </trkpt>
      <trkpt lat="50.25048" lon="3.92027">
        <ele>136.6</ele>
        <time>2020-06-24T14:24:27Z</time>
      </trkpt>
      <trkpt lat="50.25047" lon="3.92028">
        <ele>136.7</ele>
        <time>2020-06-24T14:24:28Z</time>
      </trkpt>
      <trkpt lat="50.25044" lon="3.92031">
        <ele>137</ele>
        <time>2020-06-24T14:24:29Z</time>
      </trkpt>
      <trkpt lat="50.25042" lon="3.92033">
        <ele>137.2</ele>
        <time>2020-06-24T14:24:30Z</time>
      </trkpt>
      <trkpt lat="50.25041" lon="3.92034">
        <ele>137.3</ele>
        <time>2020-06-24T14:24:31Z</time>
      </trkpt>
      <trkpt lat="50.25038" lon="3.92036">
        <ele>137.5</ele>
        <time>2020-06-24T14:24:32Z</time>
      </trkpt>
      <trkpt lat="50.25037" lon="3.92037">
        <ele>137.6</ele>
        <time>2020-06-24T14:24:33Z</time>
      </trkpt>
      <trkpt lat="50.25034" lon="3.92041">
        <ele>137.8</ele>
        <time>2020-06-24T14:24:34Z</time>
      </trkpt>
      <trkpt lat="50.25029" lon="3.92044">
        <ele>138.1</ele>
        <time>2020-06-24T14:24:35Z</time>
      </trkpt>
      <trkpt lat="50.25027" lon="3.92045">
        <ele>138.2</ele>
        <time>2020-06-24T14:24:36Z</time>
      </trkpt>
      <trkpt lat="50.25022" lon="3.92046">
        <ele>138.5</ele>
        <time>2020-06-24T14:24:37Z</time>
      </trkpt>
      <trkpt lat="50.25019" lon="3.92049">
        <ele>138.7</ele>
        <time>2020-06-24T14:24:38Z</time>
      </trkpt>
      <trkpt lat="50.25016" lon="3.92053">
        <ele>138.9</ele>
        <time>2020-06-24T14:24:39Z</time>
      </trkpt>
      <trkpt lat="50.25014" lon="3.92056">
        <ele>139.1</ele>
        <time>2020-06-24T14:24:40Z</time>
      </trkpt>
      <trkpt lat="50.25011" lon="3.9206">
        <ele>139.3</ele>
        <time>2020-06-24T14:24:41Z</time>
      </trkpt>
      <trkpt lat="50.2501" lon="3.92061">
        <ele>139.4</ele>
        <time>2020-06-24T14:24:42Z</time>
      </trkpt>
      <trkpt lat="50.25009" lon="3.92063">
        <ele>139.5</ele>
        <time>2020-06-24T14:24:43Z</time>
      </trkpt>
      <trkpt lat="50.25008" lon="3.92066">
        <ele>139.6</ele>
        <time>2020-06-24T14:24:44Z</time>
      </trkpt>
      <trkpt lat="50.25007" lon="3.92069">
        <ele>139.7</ele>
        <time>2020-06-24T14:24:45Z</time>
      </trkpt>
      <trkpt lat="50.25006" lon="3.9207">
        <ele>139.8</ele>
        <time>2020-06-24T14:24:46Z</time>
      </trkpt>
      <trkpt lat="50.25002" lon="3.92072">
        <ele>140.1</ele>
        <time>2020-06-24T14:24:47Z</time>
      </trkpt>
      <trkpt lat="50.25" lon="3.92073">
        <ele>140.2</ele>
        <time>2020-06-24T14:24:48Z</time>
      </trkpt>
      <trkpt lat="50.24997" lon="3.92076">
        <ele>140.3</ele>
        <time>2020-06-24T14:24:49Z</time>
      </trkpt>
      <trkpt lat="50.24996" lon="3.92082">
        <ele>140.5</ele>
        <time>2020-06-24T14:24:50Z</time>
      </trkpt>
      <trkpt lat="50.24995" lon="3.92084">
        <ele>140.6</ele>
        <time>2020-06-24T14:24:51Z</time>
      </trkpt>
      <trkpt lat="50.24995" lon="3.92089">
        <ele>140.7</ele>
        <time>2020-06-24T14:24:52Z</time>
      </trkpt>
      <trkpt lat="50.24994" lon="3.92094">
        <ele>140.8</ele>
        <time>2020-06-24T14:24:53Z</time>
      </trkpt>
      <trkpt lat="50.24994" lon="3.921">
        <ele>140.9</ele>
        <time>2020-06-24T14:24:54Z</time>
      </trkpt>
      <trkpt lat="50.24994" lon="3.92106">
        <ele>141.1</ele>
        <time>2020-06-24T14:24:55Z</time>
      </trkpt>
      <trkpt lat="50.24994" lon="3.92112">
        <ele>141.2</ele>
        <time>2020-06-24T14:24:56Z</time>
      </trkpt>
      <trkpt lat="50.24993" lon="3.92119">
        <ele>141.4</ele>
        <time>2020-06-24T14:24:57Z</time>
      </trkpt>
      <trkpt lat="50.24992" lon="3.92125">
        <ele>141.6</ele>
        <time>2020-06-24T14:24:58Z</time>
      </trkpt>
      <trkpt lat="50.24992" lon="3.9213">
        <ele>141.7</ele>
        <time>2020-06-24T14:24:59Z</time>
      </trkpt>
      <trkpt lat="50.24992" lon="3.92135">
        <ele>141.9</ele>
        <time>2020-06-24T14:25:00Z</time>
      </trkpt>
      <trkpt lat="50.24991" lon="3.92139">
        <ele>142</ele>
        <time>2020-06-24T14:25:01Z</time>
      </trkpt>
      <trkpt lat="50.24991" lon="3.92144">
        <ele>142.1</ele>
        <time>2020-06-24T14:25:02Z</time>
      </trkpt>
      <trkpt lat="50.24991" lon="3.92148">
        <ele>142.2</ele>
        <time>2020-06-24T14:25:03Z</time>
      </trkpt>
      <trkpt lat="50.24991" lon="3.92153">
        <ele>142.3</ele>
        <time>2020-06-24T14:25:04Z</time>
      </trkpt>
      <trkpt lat="50.2499" lon="3.92157">
        <ele>142.4</ele>
        <time>2020-06-24T14:25:05Z</time>
      </trkpt>
      <trkpt lat="50.2499" lon="3.92162">
        <ele>142.5</ele>
        <time>2020-06-24T14:25:06Z</time>
      </trkpt>
      <trkpt lat="50.24989" lon="3.92167">
        <ele>143.6</ele>
        <time>2020-06-24T14:25:07Z</time>
      </trkpt>
      <trkpt lat="50.24989" lon="3.92169">
        <ele>143.8</ele>
        <time>2020-06-24T14:25:08Z</time>
      </trkpt>
      <trkpt lat="50.24988" lon="3.92171">
        <ele>144.1</ele>
        <time>2020-06-24T14:25:09Z</time>
      </trkpt>
      <trkpt lat="50.24987" lon="3.92173">
        <ele>144.3</ele>
        <time>2020-06-24T14:25:10Z</time>
      </trkpt>
      <trkpt lat="50.24987" lon="3.92175">
        <ele>144.5</ele>
        <time>2020-06-24T14:25:11Z</time>
      </trkpt>
      <trkpt lat="50.24987" lon="3.92177">
        <ele>144.6</ele>
        <time>2020-06-24T14:25:12Z</time>
      </trkpt>
      <trkpt lat="50.24986" lon="3.92177">
        <ele>144.8</ele>
        <time>2020-06-24T14:25:13Z</time>
      </trkpt>
      <trkpt lat="50.24982" lon="3.92176">
        <ele>145.2</ele>
        <time>2020-06-24T14:25:14Z</time>
      </trkpt>
      <trkpt lat="50.24981" lon="3.92176">
        <ele>145.3</ele>
        <time>2020-06-24T14:25:15Z</time>
      </trkpt>
      <trkpt lat="50.24977" lon="3.92178">
        <ele>145.6</ele>
        <time>2020-06-24T14:25:16Z</time>
      </trkpt>
      <trkpt lat="50.24976" lon="3.92179">
        <ele>145.7</ele>
        <time>2020-06-24T14:25:17Z</time>
      </trkpt>
      <trkpt lat="50.24973" lon="3.92181">
        <ele>145.8</ele>
        <time>2020-06-24T14:25:18Z</time>
      </trkpt>
      <trkpt lat="50.24969" lon="3.9218">
        <ele>145.8</ele>
        <time>2020-06-24T14:25:19Z</time>
      </trkpt>
      <trkpt lat="50.24968" lon="3.9218">
        <ele>145.8</ele>
        <time>2020-06-24T14:25:20Z</time>
      </trkpt>
      <trkpt lat="50.24964" lon="3.92179">
        <ele>145.6</ele>
        <time>2020-06-24T14:25:21Z</time>
      </trkpt>
      <trkpt lat="50.24963" lon="3.92179">
        <ele>145.5</ele>
        <time>2020-06-24T14:25:22Z</time>
      </trkpt>
      <trkpt lat="50.24962" lon="3.9218">
        <ele>145.4</ele>
        <time>2020-06-24T14:25:23Z</time>
      </trkpt>
      <trkpt lat="50.24961" lon="3.9218">
        <ele>145.3</ele>
        <time>2020-06-24T14:25:24Z</time>
      </trkpt>
      <trkpt lat="50.2496" lon="3.9218">
        <ele>145.2</ele>
        <time>2020-06-24T14:25:25Z</time>
      </trkpt>
      <trkpt lat="50.24959" lon="3.92181">
        <ele>145.1</ele>
        <time>2020-06-24T14:25:26Z</time>
      </trkpt>
      <trkpt lat="50.24958" lon="3.92181">
        <ele>145</ele>
        <time>2020-06-24T14:25:27Z</time>
      </trkpt>
      <trkpt lat="50.24957" lon="3.92181">
        <ele>144.9</ele>
        <time>2020-06-24T14:25:28Z</time>
      </trkpt>
      <trkpt lat="50.24956" lon="3.92181">
        <ele>144.8</ele>
        <time>2020-06-24T14:25:29Z</time>
      </trkpt>
      <trkpt lat="50.24956" lon="3.92182">
        <ele>144.7</ele>
        <time>2020-06-24T14:25:30Z</time>
      </trkpt>
      <trkpt lat="50.24955" lon="3.92183">
        <ele>144.9</ele>
        <time>2020-06-24T14:25:31Z</time>
      </trkpt>
      <trkpt lat="50.24955" lon="3.92185">
        <ele>144.8</ele>
        <time>2020-06-24T14:25:32Z</time>
      </trkpt>
      <trkpt lat="50.24955" lon="3.92186">
        <ele>144.7</ele>
        <time>2020-06-24T14:25:33Z</time>
      </trkpt>
      <trkpt lat="50.24956" lon="3.92187">
        <ele>144.7</ele>
        <time>2020-06-24T14:25:34Z</time>
      </trkpt>
      <trkpt lat="50.24958" lon="3.92189">
        <ele>144.5</ele>
        <time>2020-06-24T14:25:35Z</time>
      </trkpt>
      <trkpt lat="50.24961" lon="3.92192">
        <ele>144.4</ele>
        <time>2020-06-24T14:25:36Z</time>
      </trkpt>
      <trkpt lat="50.24963" lon="3.92194">
        <ele>144.2</ele>
        <time>2020-06-24T14:25:37Z</time>
      </trkpt>
      <trkpt lat="50.24966" lon="3.92198">
        <ele>144</ele>
        <time>2020-06-24T14:25:38Z</time>
      </trkpt>
      <trkpt lat="50.24969" lon="3.92201">
        <ele>143.8</ele>
        <time>2020-06-24T14:25:39Z</time>
      </trkpt>
      <trkpt lat="50.24972" lon="3.92204">
        <ele>143.6</ele>
        <time>2020-06-24T14:25:40Z</time>
      </trkpt>
      <trkpt lat="50.24975" lon="3.92209">
        <ele>143.3</ele>
        <time>2020-06-24T14:25:41Z</time>
      </trkpt>
      <trkpt lat="50.24978" lon="3.92215">
        <ele>143.1</ele>
        <time>2020-06-24T14:25:42Z</time>
      </trkpt>
      <trkpt lat="50.2498" lon="3.92221">
        <ele>142.8</ele>
        <time>2020-06-24T14:25:43Z</time>
      </trkpt>
      <trkpt lat="50.24983" lon="3.92224">
        <ele>142.6</ele>
        <time>2020-06-24T14:25:44Z</time>
      </trkpt>
      <trkpt lat="50.24985" lon="3.92229">
        <ele>142.4</ele>
        <time>2020-06-24T14:25:45Z</time>
      </trkpt>
      <trkpt lat="50.24987" lon="3.92233">
        <ele>142.1</ele>
        <time>2020-06-24T14:25:46Z</time>
      </trkpt>
      <trkpt lat="50.24988" lon="3.92238">
        <ele>141.6</ele>
        <time>2020-06-24T14:25:47Z</time>
      </trkpt>
      <trkpt lat="50.24991" lon="3.92242">
        <ele>142.6</ele>
        <time>2020-06-24T14:25:48Z</time>
      </trkpt>
      <trkpt lat="50.24994" lon="3.92245">
        <ele>143.5</ele>
        <time>2020-06-24T14:25:49Z</time>
      </trkpt>
      <trkpt lat="50.24998" lon="3.92246">
        <ele>143.2</ele>
        <time>2020-06-24T14:25:50Z</time>
      </trkpt>
      <trkpt lat="50.25001" lon="3.92247">
        <ele>142.9</ele>
        <time>2020-06-24T14:25:51Z</time>
      </trkpt>
      <trkpt lat="50.25005" lon="3.92249">
        <ele>142.7</ele>
        <time>2020-06-24T14:25:52Z</time>
      </trkpt>
      <trkpt lat="50.25009" lon="3.92251">
        <ele>142.5</ele>
        <time>2020-06-24T14:25:53Z</time>
      </trkpt>
      <trkpt lat="50.25014" lon="3.92254">
        <ele>142.2</ele>
        <time>2020-06-24T14:25:54Z</time>
      </trkpt>
      <trkpt lat="50.25019" lon="3.92257">
        <ele>141.9</ele>
        <time>2020-06-24T14:25:55Z</time>
      </trkpt>
      <trkpt lat="50.25023" lon="3.9226">
        <ele>141.6</ele>
        <time>2020-06-24T14:25:56Z</time>
      </trkpt>
      <trkpt lat="50.25028" lon="3.92263">
        <ele>141.4</ele>
        <time>2020-06-24T14:25:57Z</time>
      </trkpt>
      <trkpt lat="50.25033" lon="3.92267">
        <ele>141.1</ele>
        <time>2020-06-24T14:25:58Z</time>
      </trkpt>
      <trkpt lat="50.25038" lon="3.92271">
        <ele>140.7</ele>
        <time>2020-06-24T14:25:59Z</time>
      </trkpt>
      <trkpt lat="50.25042" lon="3.92277">
        <ele>140.4</ele>
        <time>2020-06-24T14:26:00Z</time>
      </trkpt>
      <trkpt lat="50.25044" lon="3.92285">
        <ele>140.4</ele>
        <time>2020-06-24T14:26:01Z</time>
      </trkpt>
      <trkpt lat="50.25046" lon="3.92294">
        <ele>140.6</ele>
        <time>2020-06-24T14:26:02Z</time>
      </trkpt>
      <trkpt lat="50.25046" lon="3.92302">
        <ele>140.6</ele>
        <time>2020-06-24T14:26:03Z</time>
      </trkpt>
      <trkpt lat="50.25046" lon="3.92309">
        <ele>140.6</ele>
        <time>2020-06-24T14:26:04Z</time>
      </trkpt>
      <trkpt lat="50.25046" lon="3.92315">
        <ele>140.6</ele>
        <time>2020-06-24T14:26:05Z</time>
      </trkpt>
      <trkpt lat="50.25044" lon="3.9232">
        <ele>140.9</ele>
        <time>2020-06-24T14:26:06Z</time>
      </trkpt>
      <trkpt lat="50.25044" lon="3.92322">
        <ele>140.9</ele>
        <time>2020-06-24T14:26:07Z</time>
      </trkpt>
      <trkpt lat="50.25042" lon="3.92326">
        <ele>141</ele>
        <time>2020-06-24T14:26:08Z</time>
      </trkpt>
      <trkpt lat="50.25041" lon="3.92331">
        <ele>141.1</ele>
        <time>2020-06-24T14:26:09Z</time>
      </trkpt>
      <trkpt lat="50.2504" lon="3.92335">
        <ele>141.3</ele>
        <time>2020-06-24T14:26:10Z</time>
      </trkpt>
      <trkpt lat="50.25039" lon="3.9234">
        <ele>141.4</ele>
        <time>2020-06-24T14:26:11Z</time>
      </trkpt>
      <trkpt lat="50.25038" lon="3.92345">
        <ele>141.5</ele>
        <time>2020-06-24T14:26:12Z</time>
      </trkpt>
      <trkpt lat="50.25037" lon="3.92351">
        <ele>141.7</ele>
        <time>2020-06-24T14:26:13Z</time>
      </trkpt>
      <trkpt lat="50.25036" lon="3.92354">
        <ele>141.8</ele>
        <time>2020-06-24T14:26:14Z</time>
      </trkpt>
      <trkpt lat="50.25035" lon="3.92359">
        <ele>141.9</ele>
        <time>2020-06-24T14:26:15Z</time>
      </trkpt>
      <trkpt lat="50.25034" lon="3.92363">
        <ele>142.1</ele>
        <time>2020-06-24T14:26:16Z</time>
      </trkpt>
      <trkpt lat="50.25032" lon="3.92369">
        <ele>142.3</ele>
        <time>2020-06-24T14:26:17Z</time>
      </trkpt>
      <trkpt lat="50.25032" lon="3.92371">
        <ele>142.4</ele>
        <time>2020-06-24T14:26:18Z</time>
      </trkpt>
      <trkpt lat="50.2503" lon="3.92376">
        <ele>142.6</ele>
        <time>2020-06-24T14:26:19Z</time>
      </trkpt>
      <trkpt lat="50.25028" lon="3.92381">
        <ele>142.8</ele>
        <time>2020-06-24T14:26:20Z</time>
      </trkpt>
      <trkpt lat="50.25026" lon="3.92386">
        <ele>143.1</ele>
        <time>2020-06-24T14:26:21Z</time>
      </trkpt>
      <trkpt lat="50.25025" lon="3.9239">
        <ele>143.3</ele>
        <time>2020-06-24T14:26:22Z</time>
      </trkpt>
      <trkpt lat="50.25023" lon="3.92395">
        <ele>143.5</ele>
        <time>2020-06-24T14:26:23Z</time>
      </trkpt>
      <trkpt lat="50.25022" lon="3.92397">
        <ele>143.6</ele>
        <time>2020-06-24T14:26:24Z</time>
      </trkpt>
      <trkpt lat="50.25021" lon="3.92403">
        <ele>143.8</ele>
        <time>2020-06-24T14:26:25Z</time>
      </trkpt>
      <trkpt lat="50.2502" lon="3.92408">
        <ele>144</ele>
        <time>2020-06-24T14:26:26Z</time>
      </trkpt>
      <trkpt lat="50.25019" lon="3.92413">
        <ele>144.2</ele>
        <time>2020-06-24T14:26:27Z</time>
      </trkpt>
      <trkpt lat="50.25018" lon="3.92418">
        <ele>144.4</ele>
        <time>2020-06-24T14:26:28Z</time>
      </trkpt>
      <trkpt lat="50.25018" lon="3.92425">
        <ele>144.6</ele>
        <time>2020-06-24T14:26:29Z</time>
      </trkpt>
      <trkpt lat="50.25018" lon="3.92426">
        <ele>144.7</ele>
        <time>2020-06-24T14:26:30Z</time>
      </trkpt>
      <trkpt lat="50.25017" lon="3.92431">
        <ele>145.2</ele>
        <time>2020-06-24T14:26:31Z</time>
      </trkpt>
      <trkpt lat="50.25016" lon="3.92437">
        <ele>145.4</ele>
        <time>2020-06-24T14:26:32Z</time>
      </trkpt>
      <trkpt lat="50.25016" lon="3.92439">
        <ele>145.5</ele>
        <time>2020-06-24T14:26:33Z</time>
      </trkpt>
      <trkpt lat="50.25014" lon="3.92442">
        <ele>145.7</ele>
        <time>2020-06-24T14:26:34Z</time>
      </trkpt>
      <trkpt lat="50.25012" lon="3.92446">
        <ele>145.9</ele>
        <time>2020-06-24T14:26:35Z</time>
      </trkpt>
      <trkpt lat="50.2501" lon="3.9245">
        <ele>146.1</ele>
        <time>2020-06-24T14:26:36Z</time>
      </trkpt>
      <trkpt lat="50.25009" lon="3.92456">
        <ele>146.3</ele>
        <time>2020-06-24T14:26:37Z</time>
      </trkpt>
      <trkpt lat="50.25007" lon="3.92461">
        <ele>146.5</ele>
        <time>2020-06-24T14:26:38Z</time>
      </trkpt>
      <trkpt lat="50.25006" lon="3.92465">
        <ele>146.7</ele>
        <time>2020-06-24T14:26:39Z</time>
      </trkpt>
      <trkpt lat="50.25005" lon="3.92471">
        <ele>147</ele>
        <time>2020-06-24T14:26:40Z</time>
      </trkpt>
      <trkpt lat="50.25004" lon="3.92476">
        <ele>147.2</ele>
        <time>2020-06-24T14:26:41Z</time>
      </trkpt>
      <trkpt lat="50.25002" lon="3.9248">
        <ele>147.4</ele>
        <time>2020-06-24T14:26:42Z</time>
      </trkpt>
      <trkpt lat="50.25001" lon="3.92484">
        <ele>147.6</ele>
        <time>2020-06-24T14:26:43Z</time>
      </trkpt>
      <trkpt lat="50.25001" lon="3.92489">
        <ele>147.8</ele>
        <time>2020-06-24T14:26:44Z</time>
      </trkpt>
      <trkpt lat="50.25" lon="3.92491">
        <ele>147.8</ele>
        <time>2020-06-24T14:26:45Z</time>
      </trkpt>
      <trkpt lat="50.24999" lon="3.92497">
        <ele>148.1</ele>
        <time>2020-06-24T14:26:46Z</time>
      </trkpt>
      <trkpt lat="50.24998" lon="3.925">
        <ele>148.2</ele>
        <time>2020-06-24T14:26:47Z</time>
      </trkpt>
      <trkpt lat="50.24997" lon="3.92504">
        <ele>148.4</ele>
        <time>2020-06-24T14:26:48Z</time>
      </trkpt>
      <trkpt lat="50.24995" lon="3.92509">
        <ele>148.6</ele>
        <time>2020-06-24T14:26:49Z</time>
      </trkpt>
      <trkpt lat="50.24995" lon="3.92511">
        <ele>148.7</ele>
        <time>2020-06-24T14:26:50Z</time>
      </trkpt>
      <trkpt lat="50.24993" lon="3.92516">
        <ele>148.9</ele>
        <time>2020-06-24T14:26:51Z</time>
      </trkpt>
      <trkpt lat="50.2499" lon="3.92521">
        <ele>149.2</ele>
        <time>2020-06-24T14:26:52Z</time>
      </trkpt>
      <trkpt lat="50.24988" lon="3.92525">
        <ele>149.4</ele>
        <time>2020-06-24T14:26:53Z</time>
      </trkpt>
      <trkpt lat="50.24986" lon="3.92529">
        <ele>149.5</ele>
        <time>2020-06-24T14:26:54Z</time>
      </trkpt>
      <trkpt lat="50.24986" lon="3.9253">
        <ele>149.6</ele>
        <time>2020-06-24T14:26:55Z</time>
      </trkpt>
      <trkpt lat="50.24984" lon="3.92534">
        <ele>149.8</ele>
        <time>2020-06-24T14:26:56Z</time>
      </trkpt>
      <trkpt lat="50.24983" lon="3.9254">
        <ele>150</ele>
        <time>2020-06-24T14:26:57Z</time>
      </trkpt>
      <trkpt lat="50.24981" lon="3.92545">
        <ele>150.3</ele>
        <time>2020-06-24T14:26:58Z</time>
      </trkpt>
      <trkpt lat="50.2498" lon="3.9255">
        <ele>150.4</ele>
        <time>2020-06-24T14:26:59Z</time>
      </trkpt>
      <trkpt lat="50.24979" lon="3.92554">
        <ele>150.6</ele>
        <time>2020-06-24T14:27:00Z</time>
      </trkpt>
      <trkpt lat="50.24977" lon="3.92558">
        <ele>150.8</ele>
        <time>2020-06-24T14:27:01Z</time>
      </trkpt>
      <trkpt lat="50.24974" lon="3.92562">
        <ele>151</ele>
        <time>2020-06-24T14:27:02Z</time>
      </trkpt>
      <trkpt lat="50.24972" lon="3.92566">
        <ele>151.2</ele>
        <time>2020-06-24T14:27:03Z</time>
      </trkpt>
      <trkpt lat="50.2497" lon="3.92571">
        <ele>151.4</ele>
        <time>2020-06-24T14:27:04Z</time>
      </trkpt>
      <trkpt lat="50.24968" lon="3.92575">
        <ele>151.6</ele>
        <time>2020-06-24T14:27:05Z</time>
      </trkpt>
      <trkpt lat="50.24967" lon="3.92579">
        <ele>151.7</ele>
        <time>2020-06-24T14:27:06Z</time>
      </trkpt>
      <trkpt lat="50.24965" lon="3.92585">
        <ele>152</ele>
        <time>2020-06-24T14:27:07Z</time>
      </trkpt>
      <trkpt lat="50.24964" lon="3.92587">
        <ele>152.1</ele>
        <time>2020-06-24T14:27:08Z</time>
      </trkpt>
      <trkpt lat="50.24963" lon="3.92591">
        <ele>152.2</ele>
        <time>2020-06-24T14:27:09Z</time>
      </trkpt>
      <trkpt lat="50.24961" lon="3.92598">
        <ele>152.5</ele>
        <time>2020-06-24T14:27:10Z</time>
      </trkpt>
      <trkpt lat="50.2496" lon="3.92601">
        <ele>152.6</ele>
        <time>2020-06-24T14:27:11Z</time>
      </trkpt>
      <trkpt lat="50.24958" lon="3.92605">
        <ele>152.8</ele>
        <time>2020-06-24T14:27:12Z</time>
      </trkpt>
      <trkpt lat="50.24956" lon="3.9261">
        <ele>153</ele>
        <time>2020-06-24T14:27:13Z</time>
      </trkpt>
      <trkpt lat="50.24955" lon="3.92615">
        <ele>153.2</ele>
        <time>2020-06-24T14:27:14Z</time>
      </trkpt>
      <trkpt lat="50.24953" lon="3.9262">
        <ele>153.4</ele>
        <time>2020-06-24T14:27:15Z</time>
      </trkpt>
      <trkpt lat="50.24952" lon="3.92624">
        <ele>153.6</ele>
        <time>2020-06-24T14:27:16Z</time>
      </trkpt>
      <trkpt lat="50.24951" lon="3.92628">
        <ele>153.7</ele>
        <time>2020-06-24T14:27:17Z</time>
      </trkpt>
      <trkpt lat="50.24949" lon="3.92631">
        <ele>153.8</ele>
        <time>2020-06-24T14:27:18Z</time>
      </trkpt>
      <trkpt lat="50.24947" lon="3.92636">
        <ele>154</ele>
        <time>2020-06-24T14:27:19Z</time>
      </trkpt>
      <trkpt lat="50.24946" lon="3.92638">
        <ele>154</ele>
        <time>2020-06-24T14:27:20Z</time>
      </trkpt>
      <trkpt lat="50.24944" lon="3.92642">
        <ele>154.2</ele>
        <time>2020-06-24T14:27:21Z</time>
      </trkpt>
      <trkpt lat="50.24944" lon="3.92646">
        <ele>154.3</ele>
        <time>2020-06-24T14:27:22Z</time>
      </trkpt>
      <trkpt lat="50.24943" lon="3.92651">
        <ele>154.4</ele>
        <time>2020-06-24T14:27:23Z</time>
      </trkpt>
      <trkpt lat="50.24941" lon="3.92657">
        <ele>154.6</ele>
        <time>2020-06-24T14:27:24Z</time>
      </trkpt>
      <trkpt lat="50.24939" lon="3.92662">
        <ele>154.8</ele>
        <time>2020-06-24T14:27:25Z</time>
      </trkpt>
      <trkpt lat="50.24938" lon="3.92667">
        <ele>154.9</ele>
        <time>2020-06-24T14:27:26Z</time>
      </trkpt>
      <trkpt lat="50.24936" lon="3.9267">
        <ele>155.1</ele>
        <time>2020-06-24T14:27:27Z</time>
      </trkpt>
      <trkpt lat="50.24935" lon="3.92675">
        <ele>155.2</ele>
        <time>2020-06-24T14:27:28Z</time>
      </trkpt>
      <trkpt lat="50.24932" lon="3.92678">
        <ele>155.3</ele>
        <time>2020-06-24T14:27:29Z</time>
      </trkpt>
      <trkpt lat="50.24931" lon="3.92682">
        <ele>155.5</ele>
        <time>2020-06-24T14:27:30Z</time>
      </trkpt>
      <trkpt lat="50.24929" lon="3.92686">
        <ele>155.6</ele>
        <time>2020-06-24T14:27:31Z</time>
      </trkpt>
      <trkpt lat="50.24927" lon="3.92691">
        <ele>155.8</ele>
        <time>2020-06-24T14:27:32Z</time>
      </trkpt>
      <trkpt lat="50.24925" lon="3.92697">
        <ele>156</ele>
        <time>2020-06-24T14:27:33Z</time>
      </trkpt>
      <trkpt lat="50.24923" lon="3.92703">
        <ele>156.4</ele>
        <time>2020-06-24T14:27:34Z</time>
      </trkpt>
      <trkpt lat="50.24921" lon="3.92708">
        <ele>156.5</ele>
        <time>2020-06-24T14:27:35Z</time>
      </trkpt>
      <trkpt lat="50.2492" lon="3.92712">
        <ele>156.6</ele>
        <time>2020-06-24T14:27:36Z</time>
      </trkpt>
      <trkpt lat="50.24918" lon="3.92717">
        <ele>156.8</ele>
        <time>2020-06-24T14:27:37Z</time>
      </trkpt>
      <trkpt lat="50.24917" lon="3.92722">
        <ele>156.9</ele>
        <time>2020-06-24T14:27:38Z</time>
      </trkpt>
      <trkpt lat="50.24916" lon="3.92727">
        <ele>157</ele>
        <time>2020-06-24T14:27:39Z</time>
      </trkpt>
      <trkpt lat="50.24913" lon="3.92731">
        <ele>157.1</ele>
        <time>2020-06-24T14:27:40Z</time>
      </trkpt>
      <trkpt lat="50.24911" lon="3.92735">
        <ele>157.3</ele>
        <time>2020-06-24T14:27:41Z</time>
      </trkpt>
      <trkpt lat="50.24909" lon="3.9274">
        <ele>157.4</ele>
        <time>2020-06-24T14:27:42Z</time>
      </trkpt>
      <trkpt lat="50.24908" lon="3.92745">
        <ele>157.6</ele>
        <time>2020-06-24T14:27:43Z</time>
      </trkpt>
      <trkpt lat="50.24906" lon="3.92751">
        <ele>157.7</ele>
        <time>2020-06-24T14:27:44Z</time>
      </trkpt>
      <trkpt lat="50.24904" lon="3.92755">
        <ele>157.9</ele>
        <time>2020-06-24T14:27:45Z</time>
      </trkpt>
      <trkpt lat="50.24903" lon="3.92759">
        <ele>158</ele>
        <time>2020-06-24T14:27:46Z</time>
      </trkpt>
      <trkpt lat="50.24901" lon="3.92764">
        <ele>158.1</ele>
        <time>2020-06-24T14:27:47Z</time>
      </trkpt>
      <trkpt lat="50.24899" lon="3.9277">
        <ele>158.3</ele>
        <time>2020-06-24T14:27:48Z</time>
      </trkpt>
      <trkpt lat="50.24898" lon="3.92775">
        <ele>158.4</ele>
        <time>2020-06-24T14:27:49Z</time>
      </trkpt>
      <trkpt lat="50.24896" lon="3.92781">
        <ele>158.5</ele>
        <time>2020-06-24T14:27:50Z</time>
      </trkpt>
      <trkpt lat="50.24895" lon="3.92786">
        <ele>158.7</ele>
        <time>2020-06-24T14:27:51Z</time>
      </trkpt>
      <trkpt lat="50.24893" lon="3.92792">
        <ele>158.8</ele>
        <time>2020-06-24T14:27:52Z</time>
      </trkpt>
      <trkpt lat="50.24893" lon="3.92797">
        <ele>158.8</ele>
        <time>2020-06-24T14:27:53Z</time>
      </trkpt>
      <trkpt lat="50.24893" lon="3.92803">
        <ele>158.9</ele>
        <time>2020-06-24T14:27:54Z</time>
      </trkpt>
      <trkpt lat="50.24893" lon="3.9281">
        <ele>159.1</ele>
        <time>2020-06-24T14:27:55Z</time>
      </trkpt>
      <trkpt lat="50.24893" lon="3.92816">
        <ele>159.1</ele>
        <time>2020-06-24T14:27:56Z</time>
      </trkpt>
      <trkpt lat="50.24893" lon="3.92823">
        <ele>159.3</ele>
        <time>2020-06-24T14:27:57Z</time>
      </trkpt>
      <trkpt lat="50.24893" lon="3.92829">
        <ele>159.3</ele>
        <time>2020-06-24T14:27:58Z</time>
      </trkpt>
      <trkpt lat="50.24892" lon="3.92836">
        <ele>159.5</ele>
        <time>2020-06-24T14:27:59Z</time>
      </trkpt>
      <trkpt lat="50.24892" lon="3.92843">
        <ele>159.6</ele>
        <time>2020-06-24T14:28:00Z</time>
      </trkpt>
      <trkpt lat="50.2489" lon="3.92849">
        <ele>159.8</ele>
        <time>2020-06-24T14:28:01Z</time>
      </trkpt>
      <trkpt lat="50.24889" lon="3.92855">
        <ele>159.9</ele>
        <time>2020-06-24T14:28:02Z</time>
      </trkpt>
      <trkpt lat="50.24887" lon="3.92861">
        <ele>160</ele>
        <time>2020-06-24T14:28:03Z</time>
      </trkpt>
      <trkpt lat="50.24885" lon="3.92867">
        <ele>160.1</ele>
        <time>2020-06-24T14:28:04Z</time>
      </trkpt>
      <trkpt lat="50.24884" lon="3.92874">
        <ele>160.2</ele>
        <time>2020-06-24T14:28:05Z</time>
      </trkpt>
      <trkpt lat="50.24883" lon="3.9288">
        <ele>160.3</ele>
        <time>2020-06-24T14:28:06Z</time>
      </trkpt>
      <trkpt lat="50.24881" lon="3.92886">
        <ele>160.4</ele>
        <time>2020-06-24T14:28:07Z</time>
      </trkpt>
      <trkpt lat="50.24879" lon="3.9289">
        <ele>160.4</ele>
        <time>2020-06-24T14:28:08Z</time>
      </trkpt>
      <trkpt lat="50.24878" lon="3.92896">
        <ele>160.5</ele>
        <time>2020-06-24T14:28:09Z</time>
      </trkpt>
      <trkpt lat="50.24876" lon="3.92903">
        <ele>160.6</ele>
        <time>2020-06-24T14:28:10Z</time>
      </trkpt>
      <trkpt lat="50.24875" lon="3.9291">
        <ele>160.8</ele>
        <time>2020-06-24T14:28:11Z</time>
      </trkpt>
      <trkpt lat="50.24873" lon="3.92915">
        <ele>160.9</ele>
        <time>2020-06-24T14:28:12Z</time>
      </trkpt>
      <trkpt lat="50.24873" lon="3.9292">
        <ele>160.9</ele>
        <time>2020-06-24T14:28:13Z</time>
      </trkpt>
      <trkpt lat="50.24872" lon="3.92927">
        <ele>161.1</ele>
        <time>2020-06-24T14:28:14Z</time>
      </trkpt>
      <trkpt lat="50.24871" lon="3.92932">
        <ele>161.1</ele>
        <time>2020-06-24T14:28:15Z</time>
      </trkpt>
      <trkpt lat="50.2487" lon="3.92938">
        <ele>161.2</ele>
        <time>2020-06-24T14:28:16Z</time>
      </trkpt>
      <trkpt lat="50.24869" lon="3.92942">
        <ele>161.3</ele>
        <time>2020-06-24T14:28:17Z</time>
      </trkpt>
      <trkpt lat="50.24868" lon="3.92949">
        <ele>161.4</ele>
        <time>2020-06-24T14:28:18Z</time>
      </trkpt>
      <trkpt lat="50.24866" lon="3.92955">
        <ele>161.5</ele>
        <time>2020-06-24T14:28:19Z</time>
      </trkpt>
      <trkpt lat="50.24865" lon="3.9296">
        <ele>161.6</ele>
        <time>2020-06-24T14:28:20Z</time>
      </trkpt>
      <trkpt lat="50.24864" lon="3.92965">
        <ele>161.7</ele>
        <time>2020-06-24T14:28:21Z</time>
      </trkpt>
      <trkpt lat="50.24864" lon="3.9297">
        <ele>161.7</ele>
        <time>2020-06-24T14:28:22Z</time>
      </trkpt>
      <trkpt lat="50.24863" lon="3.92976">
        <ele>161.8</ele>
        <time>2020-06-24T14:28:23Z</time>
      </trkpt>
      <trkpt lat="50.2486" lon="3.92981">
        <ele>161.9</ele>
        <time>2020-06-24T14:28:24Z</time>
      </trkpt>
      <trkpt lat="50.24859" lon="3.92987">
        <ele>161.9</ele>
        <time>2020-06-24T14:28:25Z</time>
      </trkpt>
      <trkpt lat="50.24859" lon="3.92993">
        <ele>162.1</ele>
        <time>2020-06-24T14:28:26Z</time>
      </trkpt>
      <trkpt lat="50.24859" lon="3.93001">
        <ele>162.4</ele>
        <time>2020-06-24T14:28:27Z</time>
      </trkpt>
      <trkpt lat="50.2486" lon="3.93009">
        <ele>162.6</ele>
        <time>2020-06-24T14:28:28Z</time>
      </trkpt>
      <trkpt lat="50.2486" lon="3.93016">
        <ele>162.7</ele>
        <time>2020-06-24T14:28:29Z</time>
      </trkpt>
      <trkpt lat="50.2486" lon="3.93023">
        <ele>162.9</ele>
        <time>2020-06-24T14:28:30Z</time>
      </trkpt>
      <trkpt lat="50.2486" lon="3.93029">
        <ele>163</ele>
        <time>2020-06-24T14:28:31Z</time>
      </trkpt>
      <trkpt lat="50.24859" lon="3.93033">
        <ele>163.1</ele>
        <time>2020-06-24T14:28:32Z</time>
      </trkpt>
      <trkpt lat="50.24859" lon="3.93038">
        <ele>163.3</ele>
        <time>2020-06-24T14:28:33Z</time>
      </trkpt>
      <trkpt lat="50.24859" lon="3.93043">
        <ele>163.4</ele>
        <time>2020-06-24T14:28:34Z</time>
      </trkpt>
      <trkpt lat="50.24858" lon="3.9305">
        <ele>163.5</ele>
        <time>2020-06-24T14:28:35Z</time>
      </trkpt>
      <trkpt lat="50.24857" lon="3.93056">
        <ele>163.7</ele>
        <time>2020-06-24T14:28:36Z</time>
      </trkpt>
      <trkpt lat="50.24856" lon="3.93062">
        <ele>163.8</ele>
        <time>2020-06-24T14:28:37Z</time>
      </trkpt>
      <trkpt lat="50.24854" lon="3.93069">
        <ele>163.9</ele>
        <time>2020-06-24T14:28:38Z</time>
      </trkpt>
      <trkpt lat="50.24853" lon="3.93077">
        <ele>164.1</ele>
        <time>2020-06-24T14:28:39Z</time>
      </trkpt>
      <trkpt lat="50.24852" lon="3.93083">
        <ele>164.3</ele>
        <time>2020-06-24T14:28:40Z</time>
      </trkpt>
      <trkpt lat="50.2485" lon="3.9309">
        <ele>164.4</ele>
        <time>2020-06-24T14:28:41Z</time>
      </trkpt>
      <trkpt lat="50.24849" lon="3.93097">
        <ele>164.5</ele>
        <time>2020-06-24T14:28:42Z</time>
      </trkpt>
      <trkpt lat="50.24849" lon="3.93104">
        <ele>164.7</ele>
        <time>2020-06-24T14:28:43Z</time>
      </trkpt>
      <trkpt lat="50.24845" lon="3.9311">
        <ele>164.9</ele>
        <time>2020-06-24T14:28:44Z</time>
      </trkpt>
      <trkpt lat="50.24846" lon="3.93118">
        <ele>165</ele>
        <time>2020-06-24T14:28:45Z</time>
      </trkpt>
      <trkpt lat="50.24846" lon="3.93126">
        <ele>165.2</ele>
        <time>2020-06-24T14:28:46Z</time>
      </trkpt>
      <trkpt lat="50.24846" lon="3.93133">
        <ele>165.3</ele>
        <time>2020-06-24T14:28:47Z</time>
      </trkpt>
      <trkpt lat="50.24845" lon="3.93139">
        <ele>165.5</ele>
        <time>2020-06-24T14:28:48Z</time>
      </trkpt>
      <trkpt lat="50.24844" lon="3.93145">
        <ele>165.6</ele>
        <time>2020-06-24T14:28:49Z</time>
      </trkpt>
      <trkpt lat="50.24843" lon="3.93151">
        <ele>165.7</ele>
        <time>2020-06-24T14:28:50Z</time>
      </trkpt>
      <trkpt lat="50.24843" lon="3.93157">
        <ele>165.8</ele>
        <time>2020-06-24T14:28:51Z</time>
      </trkpt>
      <trkpt lat="50.24843" lon="3.93164">
        <ele>165.9</ele>
        <time>2020-06-24T14:28:52Z</time>
      </trkpt>
      <trkpt lat="50.24842" lon="3.93171">
        <ele>166</ele>
        <time>2020-06-24T14:28:53Z</time>
      </trkpt>
      <trkpt lat="50.24842" lon="3.93177">
        <ele>166.1</ele>
        <time>2020-06-24T14:28:54Z</time>
      </trkpt>
      <trkpt lat="50.24842" lon="3.93183">
        <ele>166.3</ele>
        <time>2020-06-24T14:28:55Z</time>
      </trkpt>
      <trkpt lat="50.24842" lon="3.93189">
        <ele>166.4</ele>
        <time>2020-06-24T14:28:56Z</time>
      </trkpt>
      <trkpt lat="50.24843" lon="3.93196">
        <ele>166.5</ele>
        <time>2020-06-24T14:28:57Z</time>
      </trkpt>
      <trkpt lat="50.24842" lon="3.93201">
        <ele>166.6</ele>
        <time>2020-06-24T14:28:58Z</time>
      </trkpt>
      <trkpt lat="50.24841" lon="3.93208">
        <ele>166.7</ele>
        <time>2020-06-24T14:28:59Z</time>
      </trkpt>
      <trkpt lat="50.2484" lon="3.93213">
        <ele>166.8</ele>
        <time>2020-06-24T14:29:00Z</time>
      </trkpt>
      <trkpt lat="50.24839" lon="3.93221">
        <ele>167</ele>
        <time>2020-06-24T14:29:01Z</time>
      </trkpt>
      <trkpt lat="50.24839" lon="3.93228">
        <ele>167.1</ele>
        <time>2020-06-24T14:29:02Z</time>
      </trkpt>
      <trkpt lat="50.24838" lon="3.93235">
        <ele>167.2</ele>
        <time>2020-06-24T14:29:03Z</time>
      </trkpt>
      <trkpt lat="50.24837" lon="3.93242">
        <ele>167.3</ele>
        <time>2020-06-24T14:29:04Z</time>
      </trkpt>
      <trkpt lat="50.24836" lon="3.93248">
        <ele>167.4</ele>
        <time>2020-06-24T14:29:05Z</time>
      </trkpt>
      <trkpt lat="50.24834" lon="3.93256">
        <ele>167.6</ele>
        <time>2020-06-24T14:29:06Z</time>
      </trkpt>
      <trkpt lat="50.24834" lon="3.93264">
        <ele>167.7</ele>
        <time>2020-06-24T14:29:07Z</time>
      </trkpt>
      <trkpt lat="50.24833" lon="3.9327">
        <ele>167.8</ele>
        <time>2020-06-24T14:29:08Z</time>
      </trkpt>
      <trkpt lat="50.24832" lon="3.93277">
        <ele>167.8</ele>
        <time>2020-06-24T14:29:09Z</time>
      </trkpt>
      <trkpt lat="50.24831" lon="3.93283">
        <ele>167.9</ele>
        <time>2020-06-24T14:29:10Z</time>
      </trkpt>
      <trkpt lat="50.2483" lon="3.9329">
        <ele>168</ele>
        <time>2020-06-24T14:29:11Z</time>
      </trkpt>
      <trkpt lat="50.24828" lon="3.93296">
        <ele>168</ele>
        <time>2020-06-24T14:29:12Z</time>
      </trkpt>
      <trkpt lat="50.24825" lon="3.93304">
        <ele>168.1</ele>
        <time>2020-06-24T14:29:13Z</time>
      </trkpt>
      <trkpt lat="50.24825" lon="3.93311">
        <ele>168.1</ele>
        <time>2020-06-24T14:29:14Z</time>
      </trkpt>
      <trkpt lat="50.24823" lon="3.93318">
        <ele>168.2</ele>
        <time>2020-06-24T14:29:15Z</time>
      </trkpt>
      <trkpt lat="50.24823" lon="3.93325">
        <ele>168.2</ele>
        <time>2020-06-24T14:29:16Z</time>
      </trkpt>
      <trkpt lat="50.24822" lon="3.93333">
        <ele>168.2</ele>
        <time>2020-06-24T14:29:17Z</time>
      </trkpt>
      <trkpt lat="50.24823" lon="3.9334">
        <ele>168.2</ele>
        <time>2020-06-24T14:29:18Z</time>
      </trkpt>
      <trkpt lat="50.24822" lon="3.93347">
        <ele>168.2</ele>
        <time>2020-06-24T14:29:19Z</time>
      </trkpt>
      <trkpt lat="50.24821" lon="3.93355">
        <ele>168.2</ele>
        <time>2020-06-24T14:29:20Z</time>
      </trkpt>
      <trkpt lat="50.24821" lon="3.93364">
        <ele>168.2</ele>
        <time>2020-06-24T14:29:21Z</time>
      </trkpt>
      <trkpt lat="50.2482" lon="3.93372">
        <ele>168.2</ele>
        <time>2020-06-24T14:29:22Z</time>
      </trkpt>
      <trkpt lat="50.2482" lon="3.9338">
        <ele>168.3</ele>
        <time>2020-06-24T14:29:23Z</time>
      </trkpt>
      <trkpt lat="50.24819" lon="3.93387">
        <ele>168.3</ele>
        <time>2020-06-24T14:29:24Z</time>
      </trkpt>
      <trkpt lat="50.24819" lon="3.93395">
        <ele>168.3</ele>
        <time>2020-06-24T14:29:25Z</time>
      </trkpt>
      <trkpt lat="50.24818" lon="3.93402">
        <ele>168.4</ele>
        <time>2020-06-24T14:29:26Z</time>
      </trkpt>
      <trkpt lat="50.24817" lon="3.9341">
        <ele>168.4</ele>
        <time>2020-06-24T14:29:27Z</time>
      </trkpt>
      <trkpt lat="50.24817" lon="3.93419">
        <ele>168.4</ele>
        <time>2020-06-24T14:29:28Z</time>
      </trkpt>
      <trkpt lat="50.24816" lon="3.93427">
        <ele>168.5</ele>
        <time>2020-06-24T14:29:29Z</time>
      </trkpt>
      <trkpt lat="50.24816" lon="3.93434">
        <ele>168.5</ele>
        <time>2020-06-24T14:29:30Z</time>
      </trkpt>
      <trkpt lat="50.24815" lon="3.93441">
        <ele>168.5</ele>
        <time>2020-06-24T14:29:31Z</time>
      </trkpt>
      <trkpt lat="50.24814" lon="3.93448">
        <ele>168.5</ele>
        <time>2020-06-24T14:29:32Z</time>
      </trkpt>
      <trkpt lat="50.24814" lon="3.93455">
        <ele>168.6</ele>
        <time>2020-06-24T14:29:33Z</time>
      </trkpt>
      <trkpt lat="50.24813" lon="3.93461">
        <ele>168.6</ele>
        <time>2020-06-24T14:29:34Z</time>
      </trkpt>
      <trkpt lat="50.24812" lon="3.93467">
        <ele>168.6</ele>
        <time>2020-06-24T14:29:35Z</time>
      </trkpt>
      <trkpt lat="50.2481" lon="3.93473">
        <ele>168.7</ele>
        <time>2020-06-24T14:29:36Z</time>
      </trkpt>
      <trkpt lat="50.24809" lon="3.9348">
        <ele>168.7</ele>
        <time>2020-06-24T14:29:37Z</time>
      </trkpt>
      <trkpt lat="50.24809" lon="3.93488">
        <ele>168.7</ele>
        <time>2020-06-24T14:29:38Z</time>
      </trkpt>
      <trkpt lat="50.24808" lon="3.93495">
        <ele>168.7</ele>
        <time>2020-06-24T14:29:39Z</time>
      </trkpt>
      <trkpt lat="50.24807" lon="3.93502">
        <ele>168.8</ele>
        <time>2020-06-24T14:29:40Z</time>
      </trkpt>
      <trkpt lat="50.24806" lon="3.9351">
        <ele>168.8</ele>
        <time>2020-06-24T14:29:41Z</time>
      </trkpt>
      <trkpt lat="50.24805" lon="3.93516">
        <ele>168.8</ele>
        <time>2020-06-24T14:29:42Z</time>
      </trkpt>
      <trkpt lat="50.24804" lon="3.93524">
        <ele>168.8</ele>
        <time>2020-06-24T14:29:43Z</time>
      </trkpt>
      <trkpt lat="50.24802" lon="3.9353">
        <ele>168.8</ele>
        <time>2020-06-24T14:29:44Z</time>
      </trkpt>
      <trkpt lat="50.24802" lon="3.93539">
        <ele>168.8</ele>
        <time>2020-06-24T14:29:45Z</time>
      </trkpt>
      <trkpt lat="50.24801" lon="3.93545">
        <ele>168.8</ele>
        <time>2020-06-24T14:29:46Z</time>
      </trkpt>
      <trkpt lat="50.248" lon="3.93552">
        <ele>168.8</ele>
        <time>2020-06-24T14:29:47Z</time>
      </trkpt>
      <trkpt lat="50.248" lon="3.93559">
        <ele>168.8</ele>
        <time>2020-06-24T14:29:48Z</time>
      </trkpt>
      <trkpt lat="50.24799" lon="3.93566">
        <ele>168.8</ele>
        <time>2020-06-24T14:29:49Z</time>
      </trkpt>
      <trkpt lat="50.24798" lon="3.93571">
        <ele>168.9</ele>
        <time>2020-06-24T14:29:50Z</time>
      </trkpt>
      <trkpt lat="50.24797" lon="3.93575">
        <ele>168.9</ele>
        <time>2020-06-24T14:29:51Z</time>
      </trkpt>
      <trkpt lat="50.24795" lon="3.93579">
        <ele>169</ele>
        <time>2020-06-24T14:29:52Z</time>
      </trkpt>
      <trkpt lat="50.24792" lon="3.9358">
        <ele>169.1</ele>
        <time>2020-06-24T14:29:53Z</time>
      </trkpt>
      <trkpt lat="50.24787" lon="3.9358">
        <ele>169.2</ele>
        <time>2020-06-24T14:29:54Z</time>
      </trkpt>
      <trkpt lat="50.24782" lon="3.93579">
        <ele>169.6</ele>
        <time>2020-06-24T14:29:55Z</time>
      </trkpt>
      <trkpt lat="50.24777" lon="3.93579">
        <ele>169.6</ele>
        <time>2020-06-24T14:29:56Z</time>
      </trkpt>
      <trkpt lat="50.24773" lon="3.93581">
        <ele>169.5</ele>
        <time>2020-06-24T14:29:57Z</time>
      </trkpt>
      <trkpt lat="50.24769" lon="3.93584">
        <ele>169.5</ele>
        <time>2020-06-24T14:29:58Z</time>
      </trkpt>
      <trkpt lat="50.24767" lon="3.93589">
        <ele>169.5</ele>
        <time>2020-06-24T14:29:59Z</time>
      </trkpt>
      <trkpt lat="50.24764" lon="3.93595">
        <ele>169.5</ele>
        <time>2020-06-24T14:30:00Z</time>
      </trkpt>
      <trkpt lat="50.24763" lon="3.93602">
        <ele>169.5</ele>
        <time>2020-06-24T14:30:01Z</time>
      </trkpt>
      <trkpt lat="50.24762" lon="3.9361">
        <ele>169.4</ele>
        <time>2020-06-24T14:30:02Z</time>
      </trkpt>
      <trkpt lat="50.2476" lon="3.93618">
        <ele>169.6</ele>
        <time>2020-06-24T14:30:03Z</time>
      </trkpt>
      <trkpt lat="50.24757" lon="3.93625">
        <ele>169.4</ele>
        <time>2020-06-24T14:30:04Z</time>
      </trkpt>
      <trkpt lat="50.24755" lon="3.93632">
        <ele>169.1</ele>
        <time>2020-06-24T14:30:05Z</time>
      </trkpt>
      <trkpt lat="50.24752" lon="3.93636">
        <ele>169</ele>
        <time>2020-06-24T14:30:06Z</time>
      </trkpt>
      <trkpt lat="50.24749" lon="3.9364">
        <ele>168.7</ele>
        <time>2020-06-24T14:30:07Z</time>
      </trkpt>
      <trkpt lat="50.24746" lon="3.93646">
        <ele>168.8</ele>
        <time>2020-06-24T14:30:08Z</time>
      </trkpt>
      <trkpt lat="50.24745" lon="3.93652">
        <ele>168.9</ele>
        <time>2020-06-24T14:30:09Z</time>
      </trkpt>
      <trkpt lat="50.24744" lon="3.9366">
        <ele>169</ele>
        <time>2020-06-24T14:30:10Z</time>
      </trkpt>
      <trkpt lat="50.24743" lon="3.93669">
        <ele>169</ele>
        <time>2020-06-24T14:30:11Z</time>
      </trkpt>
      <trkpt lat="50.24743" lon="3.93677">
        <ele>169.1</ele>
        <time>2020-06-24T14:30:12Z</time>
      </trkpt>
      <trkpt lat="50.24744" lon="3.93685">
        <ele>169.1</ele>
        <time>2020-06-24T14:30:13Z</time>
      </trkpt>
      <trkpt lat="50.24745" lon="3.93696">
        <ele>169.2</ele>
        <time>2020-06-24T14:30:14Z</time>
      </trkpt>
      <trkpt lat="50.2475" lon="3.93705">
        <ele>169.2</ele>
        <time>2020-06-24T14:30:15Z</time>
      </trkpt>
      <trkpt lat="50.24752" lon="3.93713">
        <ele>169.3</ele>
        <time>2020-06-24T14:30:16Z</time>
      </trkpt>
      <trkpt lat="50.24754" lon="3.9372">
        <ele>169.3</ele>
        <time>2020-06-24T14:30:17Z</time>
      </trkpt>
      <trkpt lat="50.24757" lon="3.93727">
        <ele>169.3</ele>
        <time>2020-06-24T14:30:18Z</time>
      </trkpt>
      <trkpt lat="50.24759" lon="3.93733">
        <ele>169.3</ele>
        <time>2020-06-24T14:30:19Z</time>
      </trkpt>
      <trkpt lat="50.24761" lon="3.9374">
        <ele>169.3</ele>
        <time>2020-06-24T14:30:20Z</time>
      </trkpt>
      <trkpt lat="50.24763" lon="3.93746">
        <ele>169.3</ele>
        <time>2020-06-24T14:30:21Z</time>
      </trkpt>
      <trkpt lat="50.24764" lon="3.93752">
        <ele>169.2</ele>
        <time>2020-06-24T14:30:22Z</time>
      </trkpt>
      <trkpt lat="50.24767" lon="3.93759">
        <ele>169.2</ele>
        <time>2020-06-24T14:30:23Z</time>
      </trkpt>
      <trkpt lat="50.24768" lon="3.93766">
        <ele>169.2</ele>
        <time>2020-06-24T14:30:24Z</time>
      </trkpt>
      <trkpt lat="50.2477" lon="3.93772">
        <ele>169.1</ele>
        <time>2020-06-24T14:30:25Z</time>
      </trkpt>
      <trkpt lat="50.24772" lon="3.9378">
        <ele>169.1</ele>
        <time>2020-06-24T14:30:26Z</time>
      </trkpt>
      <trkpt lat="50.24775" lon="3.93787">
        <ele>169</ele>
        <time>2020-06-24T14:30:27Z</time>
      </trkpt>
      <trkpt lat="50.24777" lon="3.93794">
        <ele>169</ele>
        <time>2020-06-24T14:30:28Z</time>
      </trkpt>
      <trkpt lat="50.24779" lon="3.93801">
        <ele>168.9</ele>
        <time>2020-06-24T14:30:29Z</time>
      </trkpt>
      <trkpt lat="50.24781" lon="3.93809">
        <ele>168.9</ele>
        <time>2020-06-24T14:30:30Z</time>
      </trkpt>
      <trkpt lat="50.24781" lon="3.93816">
        <ele>168.9</ele>
        <time>2020-06-24T14:30:31Z</time>
      </trkpt>
      <trkpt lat="50.24783" lon="3.93824">
        <ele>168.9</ele>
        <time>2020-06-24T14:30:32Z</time>
      </trkpt>
      <trkpt lat="50.24782" lon="3.93833">
        <ele>168.9</ele>
        <time>2020-06-24T14:30:33Z</time>
      </trkpt>
      <trkpt lat="50.24781" lon="3.93841">
        <ele>169</ele>
        <time>2020-06-24T14:30:34Z</time>
      </trkpt>
      <trkpt lat="50.24781" lon="3.93849">
        <ele>169.1</ele>
        <time>2020-06-24T14:30:35Z</time>
      </trkpt>
      <trkpt lat="50.2478" lon="3.93857">
        <ele>169.1</ele>
        <time>2020-06-24T14:30:36Z</time>
      </trkpt>
      <trkpt lat="50.24779" lon="3.93864">
        <ele>169.2</ele>
        <time>2020-06-24T14:30:37Z</time>
      </trkpt>
      <trkpt lat="50.24779" lon="3.93873">
        <ele>169.3</ele>
        <time>2020-06-24T14:30:38Z</time>
      </trkpt>
      <trkpt lat="50.24777" lon="3.93881">
        <ele>169.4</ele>
        <time>2020-06-24T14:30:39Z</time>
      </trkpt>
      <trkpt lat="50.24776" lon="3.93889">
        <ele>169.4</ele>
        <time>2020-06-24T14:30:40Z</time>
      </trkpt>
      <trkpt lat="50.24775" lon="3.93896">
        <ele>169.5</ele>
        <time>2020-06-24T14:30:41Z</time>
      </trkpt>
      <trkpt lat="50.24775" lon="3.93905">
        <ele>169.5</ele>
        <time>2020-06-24T14:30:42Z</time>
      </trkpt>
      <trkpt lat="50.24773" lon="3.93911">
        <ele>169.6</ele>
        <time>2020-06-24T14:30:43Z</time>
      </trkpt>
      <trkpt lat="50.24772" lon="3.9392">
        <ele>169.7</ele>
        <time>2020-06-24T14:30:44Z</time>
      </trkpt>
      <trkpt lat="50.24771" lon="3.93927">
        <ele>169.8</ele>
        <time>2020-06-24T14:30:45Z</time>
      </trkpt>
      <trkpt lat="50.2477" lon="3.93934">
        <ele>169.9</ele>
        <time>2020-06-24T14:30:46Z</time>
      </trkpt>
      <trkpt lat="50.24768" lon="3.93941">
        <ele>170.1</ele>
        <time>2020-06-24T14:30:47Z</time>
      </trkpt>
      <trkpt lat="50.24765" lon="3.93946">
        <ele>170.2</ele>
        <time>2020-06-24T14:30:48Z</time>
      </trkpt>
      <trkpt lat="50.24762" lon="3.93952">
        <ele>170.3</ele>
        <time>2020-06-24T14:30:49Z</time>
      </trkpt>
      <trkpt lat="50.24759" lon="3.93957">
        <ele>170.4</ele>
        <time>2020-06-24T14:30:50Z</time>
      </trkpt>
      <trkpt lat="50.24754" lon="3.93961">
        <ele>170.5</ele>
        <time>2020-06-24T14:30:51Z</time>
      </trkpt>
      <trkpt lat="50.24748" lon="3.93964">
        <ele>170.6</ele>
        <time>2020-06-24T14:30:52Z</time>
      </trkpt>
      <trkpt lat="50.24744" lon="3.93967">
        <ele>170.7</ele>
        <time>2020-06-24T14:30:53Z</time>
      </trkpt>
      <trkpt lat="50.24741" lon="3.9397">
        <ele>170.8</ele>
        <time>2020-06-24T14:30:54Z</time>
      </trkpt>
      <trkpt lat="50.24738" lon="3.93973">
        <ele>170.9</ele>
        <time>2020-06-24T14:30:55Z</time>
      </trkpt>
      <trkpt lat="50.24735" lon="3.93977">
        <ele>171</ele>
        <time>2020-06-24T14:30:56Z</time>
      </trkpt>
      <trkpt lat="50.24732" lon="3.93981">
        <ele>171.2</ele>
        <time>2020-06-24T14:30:57Z</time>
      </trkpt>
      <trkpt lat="50.24731" lon="3.93986">
        <ele>171.3</ele>
        <time>2020-06-24T14:30:58Z</time>
      </trkpt>
      <trkpt lat="50.24728" lon="3.9399">
        <ele>171.4</ele>
        <time>2020-06-24T14:30:59Z</time>
      </trkpt>
      <trkpt lat="50.24725" lon="3.93993">
        <ele>171.5</ele>
        <time>2020-06-24T14:31:00Z</time>
      </trkpt>
      <trkpt lat="50.24722" lon="3.94">
        <ele>171.8</ele>
        <time>2020-06-24T14:31:01Z</time>
      </trkpt>
      <trkpt lat="50.24719" lon="3.94004">
        <ele>171.8</ele>
        <time>2020-06-24T14:31:02Z</time>
      </trkpt>
      <trkpt lat="50.24716" lon="3.94008">
        <ele>171.8</ele>
        <time>2020-06-24T14:31:03Z</time>
      </trkpt>
      <trkpt lat="50.24712" lon="3.94013">
        <ele>171.8</ele>
        <time>2020-06-24T14:31:04Z</time>
      </trkpt>
      <trkpt lat="50.24708" lon="3.94018">
        <ele>171.8</ele>
        <time>2020-06-24T14:31:05Z</time>
      </trkpt>
      <trkpt lat="50.24705" lon="3.94024">
        <ele>171.9</ele>
        <time>2020-06-24T14:31:06Z</time>
      </trkpt>
      <trkpt lat="50.247" lon="3.94028">
        <ele>171.9</ele>
        <time>2020-06-24T14:31:07Z</time>
      </trkpt>
      <trkpt lat="50.24696" lon="3.94032">
        <ele>171.9</ele>
        <time>2020-06-24T14:31:08Z</time>
      </trkpt>
      <trkpt lat="50.24691" lon="3.94036">
        <ele>171.9</ele>
        <time>2020-06-24T14:31:09Z</time>
      </trkpt>
      <trkpt lat="50.24687" lon="3.94041">
        <ele>171.9</ele>
        <time>2020-06-24T14:31:10Z</time>
      </trkpt>
      <trkpt lat="50.24682" lon="3.94046">
        <ele>172</ele>
        <time>2020-06-24T14:31:11Z</time>
      </trkpt>
      <trkpt lat="50.24678" lon="3.94051">
        <ele>172</ele>
        <time>2020-06-24T14:31:12Z</time>
      </trkpt>
      <trkpt lat="50.24673" lon="3.94056">
        <ele>172</ele>
        <time>2020-06-24T14:31:13Z</time>
      </trkpt>
      <trkpt lat="50.24669" lon="3.94061">
        <ele>172.2</ele>
        <time>2020-06-24T14:31:14Z</time>
      </trkpt>
      <trkpt lat="50.24665" lon="3.94066">
        <ele>172.3</ele>
        <time>2020-06-24T14:31:15Z</time>
      </trkpt>
      <trkpt lat="50.24661" lon="3.94071">
        <ele>172.3</ele>
        <time>2020-06-24T14:31:16Z</time>
      </trkpt>
      <trkpt lat="50.24657" lon="3.94076">
        <ele>172.3</ele>
        <time>2020-06-24T14:31:17Z</time>
      </trkpt>
      <trkpt lat="50.24653" lon="3.94081">
        <ele>172.3</ele>
        <time>2020-06-24T14:31:18Z</time>
      </trkpt>
      <trkpt lat="50.2465" lon="3.94086">
        <ele>172.3</ele>
        <time>2020-06-24T14:31:19Z</time>
      </trkpt>
      <trkpt lat="50.24646" lon="3.94092">
        <ele>172.3</ele>
        <time>2020-06-24T14:31:20Z</time>
      </trkpt>
      <trkpt lat="50.24642" lon="3.94097">
        <ele>172.3</ele>
        <time>2020-06-24T14:31:21Z</time>
      </trkpt>
      <trkpt lat="50.24638" lon="3.94102">
        <ele>172.3</ele>
        <time>2020-06-24T14:31:22Z</time>
      </trkpt>
      <trkpt lat="50.24635" lon="3.94108">
        <ele>172.2</ele>
        <time>2020-06-24T14:31:23Z</time>
      </trkpt>
      <trkpt lat="50.24631" lon="3.94114">
        <ele>172.2</ele>
        <time>2020-06-24T14:31:24Z</time>
      </trkpt>
      <trkpt lat="50.24625" lon="3.94121">
        <ele>172.2</ele>
        <time>2020-06-24T14:31:25Z</time>
      </trkpt>
      <trkpt lat="50.24622" lon="3.94127">
        <ele>172.2</ele>
        <time>2020-06-24T14:31:26Z</time>
      </trkpt>
      <trkpt lat="50.24617" lon="3.94132">
        <ele>172.2</ele>
        <time>2020-06-24T14:31:27Z</time>
      </trkpt>
      <trkpt lat="50.24613" lon="3.94138">
        <ele>172.1</ele>
        <time>2020-06-24T14:31:28Z</time>
      </trkpt>
      <trkpt lat="50.24609" lon="3.94144">
        <ele>172.1</ele>
        <time>2020-06-24T14:31:29Z</time>
      </trkpt>
      <trkpt lat="50.24605" lon="3.94152">
        <ele>172</ele>
        <time>2020-06-24T14:31:30Z</time>
      </trkpt>
      <trkpt lat="50.24601" lon="3.94157">
        <ele>172</ele>
        <time>2020-06-24T14:31:31Z</time>
      </trkpt>
      <trkpt lat="50.24597" lon="3.94162">
        <ele>171.9</ele>
        <time>2020-06-24T14:31:32Z</time>
      </trkpt>
      <trkpt lat="50.24592" lon="3.94168">
        <ele>171.8</ele>
        <time>2020-06-24T14:31:33Z</time>
      </trkpt>
      <trkpt lat="50.24587" lon="3.94174">
        <ele>171.7</ele>
        <time>2020-06-24T14:31:34Z</time>
      </trkpt>
      <trkpt lat="50.24582" lon="3.9418">
        <ele>171.5</ele>
        <time>2020-06-24T14:31:35Z</time>
      </trkpt>
      <trkpt lat="50.24577" lon="3.94186">
        <ele>171.5</ele>
        <time>2020-06-24T14:31:36Z</time>
      </trkpt>
      <trkpt lat="50.24572" lon="3.94192">
        <ele>171.4</ele>
        <time>2020-06-24T14:31:37Z</time>
      </trkpt>
      <trkpt lat="50.24567" lon="3.94199">
        <ele>171.3</ele>
        <time>2020-06-24T14:31:38Z</time>
      </trkpt>
      <trkpt lat="50.24563" lon="3.94206">
        <ele>171.2</ele>
        <time>2020-06-24T14:31:39Z</time>
      </trkpt>
      <trkpt lat="50.24558" lon="3.94213">
        <ele>171.2</ele>
        <time>2020-06-24T14:31:40Z</time>
      </trkpt>
      <trkpt lat="50.24553" lon="3.94219">
        <ele>171.3</ele>
        <time>2020-06-24T14:31:41Z</time>
      </trkpt>
      <trkpt lat="50.24548" lon="3.94226">
        <ele>171.3</ele>
        <time>2020-06-24T14:31:42Z</time>
      </trkpt>
      <trkpt lat="50.24544" lon="3.94232">
        <ele>171.3</ele>
        <time>2020-06-24T14:31:43Z</time>
      </trkpt>
      <trkpt lat="50.24539" lon="3.94238">
        <ele>171.2</ele>
        <time>2020-06-24T14:31:44Z</time>
      </trkpt>
      <trkpt lat="50.24535" lon="3.94244">
        <ele>171.1</ele>
        <time>2020-06-24T14:31:45Z</time>
      </trkpt>
      <trkpt lat="50.24529" lon="3.9425">
        <ele>171</ele>
        <time>2020-06-24T14:31:46Z</time>
      </trkpt>
      <trkpt lat="50.24525" lon="3.94256">
        <ele>170.9</ele>
        <time>2020-06-24T14:31:47Z</time>
      </trkpt>
      <trkpt lat="50.24519" lon="3.94263">
        <ele>170.8</ele>
        <time>2020-06-24T14:31:48Z</time>
      </trkpt>
      <trkpt lat="50.24515" lon="3.9427">
        <ele>170.8</ele>
        <time>2020-06-24T14:31:49Z</time>
      </trkpt>
      <trkpt lat="50.2451" lon="3.94276">
        <ele>170.7</ele>
        <time>2020-06-24T14:31:50Z</time>
      </trkpt>
      <trkpt lat="50.24506" lon="3.94282">
        <ele>170.7</ele>
        <time>2020-06-24T14:31:51Z</time>
      </trkpt>
      <trkpt lat="50.24501" lon="3.94287">
        <ele>170.8</ele>
        <time>2020-06-24T14:31:52Z</time>
      </trkpt>
      <trkpt lat="50.24497" lon="3.94293">
        <ele>170.8</ele>
        <time>2020-06-24T14:31:53Z</time>
      </trkpt>
      <trkpt lat="50.24493" lon="3.943">
        <ele>171</ele>
        <time>2020-06-24T14:31:54Z</time>
      </trkpt>
      <trkpt lat="50.24489" lon="3.94305">
        <ele>171.1</ele>
        <time>2020-06-24T14:31:55Z</time>
      </trkpt>
      <trkpt lat="50.24485" lon="3.94312">
        <ele>171.2</ele>
        <time>2020-06-24T14:31:56Z</time>
      </trkpt>
      <trkpt lat="50.2448" lon="3.94318">
        <ele>171.3</ele>
        <time>2020-06-24T14:31:57Z</time>
      </trkpt>
      <trkpt lat="50.24477" lon="3.94324">
        <ele>171.3</ele>
        <time>2020-06-24T14:31:58Z</time>
      </trkpt>
      <trkpt lat="50.24472" lon="3.94331">
        <ele>171.3</ele>
        <time>2020-06-24T14:31:59Z</time>
      </trkpt>
      <trkpt lat="50.24468" lon="3.94336">
        <ele>171.3</ele>
        <time>2020-06-24T14:32:00Z</time>
      </trkpt>
      <trkpt lat="50.24463" lon="3.94341">
        <ele>171.4</ele>
        <time>2020-06-24T14:32:01Z</time>
      </trkpt>
      <trkpt lat="50.24459" lon="3.94347">
        <ele>171.4</ele>
        <time>2020-06-24T14:32:02Z</time>
      </trkpt>
      <trkpt lat="50.24455" lon="3.94352">
        <ele>171.3</ele>
        <time>2020-06-24T14:32:03Z</time>
      </trkpt>
      <trkpt lat="50.24451" lon="3.94359">
        <ele>171.3</ele>
        <time>2020-06-24T14:32:04Z</time>
      </trkpt>
      <trkpt lat="50.24447" lon="3.94363">
        <ele>171.3</ele>
        <time>2020-06-24T14:32:05Z</time>
      </trkpt>
      <trkpt lat="50.24443" lon="3.94369">
        <ele>171.3</ele>
        <time>2020-06-24T14:32:06Z</time>
      </trkpt>
      <trkpt lat="50.24439" lon="3.94375">
        <ele>171.3</ele>
        <time>2020-06-24T14:32:07Z</time>
      </trkpt>
      <trkpt lat="50.24434" lon="3.94381">
        <ele>171.3</ele>
        <time>2020-06-24T14:32:08Z</time>
      </trkpt>
      <trkpt lat="50.2443" lon="3.94388">
        <ele>171.4</ele>
        <time>2020-06-24T14:32:09Z</time>
      </trkpt>
      <trkpt lat="50.24424" lon="3.94394">
        <ele>171.5</ele>
        <time>2020-06-24T14:32:10Z</time>
      </trkpt>
      <trkpt lat="50.2442" lon="3.944">
        <ele>171.6</ele>
        <time>2020-06-24T14:32:11Z</time>
      </trkpt>
      <trkpt lat="50.24416" lon="3.94406">
        <ele>171.7</ele>
        <time>2020-06-24T14:32:12Z</time>
      </trkpt>
      <trkpt lat="50.24412" lon="3.94411">
        <ele>171.8</ele>
        <time>2020-06-24T14:32:13Z</time>
      </trkpt>
      <trkpt lat="50.24408" lon="3.94416">
        <ele>171.9</ele>
        <time>2020-06-24T14:32:14Z</time>
      </trkpt>
      <trkpt lat="50.24403" lon="3.94421">
        <ele>172</ele>
        <time>2020-06-24T14:32:15Z</time>
      </trkpt>
      <trkpt lat="50.24399" lon="3.94427">
        <ele>172.1</ele>
        <time>2020-06-24T14:32:16Z</time>
      </trkpt>
      <trkpt lat="50.24395" lon="3.94433">
        <ele>172.1</ele>
        <time>2020-06-24T14:32:17Z</time>
      </trkpt>
      <trkpt lat="50.24391" lon="3.94438">
        <ele>172.2</ele>
        <time>2020-06-24T14:32:18Z</time>
      </trkpt>
      <trkpt lat="50.24387" lon="3.94444">
        <ele>172.2</ele>
        <time>2020-06-24T14:32:19Z</time>
      </trkpt>
      <trkpt lat="50.24384" lon="3.94449">
        <ele>172.3</ele>
        <time>2020-06-24T14:32:20Z</time>
      </trkpt>
      <trkpt lat="50.2438" lon="3.94454">
        <ele>172.4</ele>
        <time>2020-06-24T14:32:21Z</time>
      </trkpt>
      <trkpt lat="50.24377" lon="3.94458">
        <ele>172.4</ele>
        <time>2020-06-24T14:32:22Z</time>
      </trkpt>
      <trkpt lat="50.24373" lon="3.94463">
        <ele>172.5</ele>
        <time>2020-06-24T14:32:23Z</time>
      </trkpt>
      <trkpt lat="50.2437" lon="3.94468">
        <ele>172.6</ele>
        <time>2020-06-24T14:32:24Z</time>
      </trkpt>
      <trkpt lat="50.24367" lon="3.94472">
        <ele>172.7</ele>
        <time>2020-06-24T14:32:25Z</time>
      </trkpt>
      <trkpt lat="50.24363" lon="3.94477">
        <ele>172.8</ele>
        <time>2020-06-24T14:32:26Z</time>
      </trkpt>
      <trkpt lat="50.24359" lon="3.94482">
        <ele>172.9</ele>
        <time>2020-06-24T14:32:27Z</time>
      </trkpt>
      <trkpt lat="50.24356" lon="3.94487">
        <ele>172.9</ele>
        <time>2020-06-24T14:32:28Z</time>
      </trkpt>
      <trkpt lat="50.24353" lon="3.94491">
        <ele>173</ele>
        <time>2020-06-24T14:32:29Z</time>
      </trkpt>
      <trkpt lat="50.2435" lon="3.94497">
        <ele>173.1</ele>
        <time>2020-06-24T14:32:30Z</time>
      </trkpt>
      <trkpt lat="50.24347" lon="3.94502">
        <ele>173.3</ele>
        <time>2020-06-24T14:32:31Z</time>
      </trkpt>
      <trkpt lat="50.24344" lon="3.94507">
        <ele>173.5</ele>
        <time>2020-06-24T14:32:32Z</time>
      </trkpt>
      <trkpt lat="50.24341" lon="3.94511">
        <ele>173.7</ele>
        <time>2020-06-24T14:32:33Z</time>
      </trkpt>
      <trkpt lat="50.24337" lon="3.94515">
        <ele>174</ele>
        <time>2020-06-24T14:32:34Z</time>
      </trkpt>
      <trkpt lat="50.24335" lon="3.94519">
        <ele>174.1</ele>
        <time>2020-06-24T14:32:35Z</time>
      </trkpt>
      <trkpt lat="50.24332" lon="3.94523">
        <ele>174.3</ele>
        <time>2020-06-24T14:32:36Z</time>
      </trkpt>
      <trkpt lat="50.24329" lon="3.94527">
        <ele>174.4</ele>
        <time>2020-06-24T14:32:37Z</time>
      </trkpt>
      <trkpt lat="50.24325" lon="3.9453">
        <ele>174.5</ele>
        <time>2020-06-24T14:32:38Z</time>
      </trkpt>
      <trkpt lat="50.24321" lon="3.94536">
        <ele>174.7</ele>
        <time>2020-06-24T14:32:39Z</time>
      </trkpt>
      <trkpt lat="50.24318" lon="3.9454">
        <ele>174.9</ele>
        <time>2020-06-24T14:32:40Z</time>
      </trkpt>
      <trkpt lat="50.24314" lon="3.94544">
        <ele>175</ele>
        <time>2020-06-24T14:32:41Z</time>
      </trkpt>
      <trkpt lat="50.24312" lon="3.94546">
        <ele>175.1</ele>
        <time>2020-06-24T14:32:42Z</time>
      </trkpt>
      <trkpt lat="50.24309" lon="3.94551">
        <ele>175.2</ele>
        <time>2020-06-24T14:32:43Z</time>
      </trkpt>
      <trkpt lat="50.24305" lon="3.94557">
        <ele>175.4</ele>
        <time>2020-06-24T14:32:44Z</time>
      </trkpt>
      <trkpt lat="50.24302" lon="3.94561">
        <ele>175.6</ele>
        <time>2020-06-24T14:32:45Z</time>
      </trkpt>
      <trkpt lat="50.24298" lon="3.94566">
        <ele>175.9</ele>
        <time>2020-06-24T14:32:46Z</time>
      </trkpt>
      <trkpt lat="50.24296" lon="3.94568">
        <ele>176</ele>
        <time>2020-06-24T14:32:47Z</time>
      </trkpt>
      <trkpt lat="50.24293" lon="3.94572">
        <ele>176.1</ele>
        <time>2020-06-24T14:32:48Z</time>
      </trkpt>
      <trkpt lat="50.24289" lon="3.9458">
        <ele>176.3</ele>
        <time>2020-06-24T14:32:49Z</time>
      </trkpt>
      <trkpt lat="50.24286" lon="3.94583">
        <ele>176.5</ele>
        <time>2020-06-24T14:32:50Z</time>
      </trkpt>
      <trkpt lat="50.24284" lon="3.94587">
        <ele>176.6</ele>
        <time>2020-06-24T14:32:51Z</time>
      </trkpt>
      <trkpt lat="50.2428" lon="3.9459">
        <ele>176.8</ele>
        <time>2020-06-24T14:32:52Z</time>
      </trkpt>
      <trkpt lat="50.24276" lon="3.94595">
        <ele>177.1</ele>
        <time>2020-06-24T14:32:53Z</time>
      </trkpt>
      <trkpt lat="50.24274" lon="3.94598">
        <ele>177.2</ele>
        <time>2020-06-24T14:32:54Z</time>
      </trkpt>
      <trkpt lat="50.24271" lon="3.946">
        <ele>177.3</ele>
        <time>2020-06-24T14:32:55Z</time>
      </trkpt>
      <trkpt lat="50.24269" lon="3.94605">
        <ele>177.5</ele>
        <time>2020-06-24T14:32:56Z</time>
      </trkpt>
      <trkpt lat="50.24266" lon="3.9461">
        <ele>177.8</ele>
        <time>2020-06-24T14:32:57Z</time>
      </trkpt>
      <trkpt lat="50.24263" lon="3.94614">
        <ele>178</ele>
        <time>2020-06-24T14:32:58Z</time>
      </trkpt>
      <trkpt lat="50.2426" lon="3.9462">
        <ele>178.3</ele>
        <time>2020-06-24T14:32:59Z</time>
      </trkpt>
      <trkpt lat="50.24259" lon="3.94622">
        <ele>178.4</ele>
        <time>2020-06-24T14:33:00Z</time>
      </trkpt>
      <trkpt lat="50.24258" lon="3.94626">
        <ele>178.6</ele>
        <time>2020-06-24T14:33:01Z</time>
      </trkpt>
      <trkpt lat="50.24255" lon="3.94631">
        <ele>178.9</ele>
        <time>2020-06-24T14:33:02Z</time>
      </trkpt>
      <trkpt lat="50.24253" lon="3.94636">
        <ele>179</ele>
        <time>2020-06-24T14:33:03Z</time>
      </trkpt>
      <trkpt lat="50.24251" lon="3.94639">
        <ele>179.1</ele>
        <time>2020-06-24T14:33:04Z</time>
      </trkpt>
      <trkpt lat="50.24249" lon="3.94645">
        <ele>179.2</ele>
        <time>2020-06-24T14:33:05Z</time>
      </trkpt>
      <trkpt lat="50.24248" lon="3.94652">
        <ele>179.3</ele>
        <time>2020-06-24T14:33:06Z</time>
      </trkpt>
      <trkpt lat="50.24246" lon="3.94659">
        <ele>179.4</ele>
        <time>2020-06-24T14:33:07Z</time>
      </trkpt>
      <trkpt lat="50.24245" lon="3.94666">
        <ele>179.5</ele>
        <time>2020-06-24T14:33:08Z</time>
      </trkpt>
      <trkpt lat="50.24243" lon="3.94672">
        <ele>179.6</ele>
        <time>2020-06-24T14:33:09Z</time>
      </trkpt>
      <trkpt lat="50.24241" lon="3.94679">
        <ele>179.8</ele>
        <time>2020-06-24T14:33:10Z</time>
      </trkpt>
      <trkpt lat="50.2424" lon="3.94684">
        <ele>179.9</ele>
        <time>2020-06-24T14:33:11Z</time>
      </trkpt>
      <trkpt lat="50.24239" lon="3.9469">
        <ele>180</ele>
        <time>2020-06-24T14:33:12Z</time>
      </trkpt>
      <trkpt lat="50.24237" lon="3.94695">
        <ele>180.1</ele>
        <time>2020-06-24T14:33:13Z</time>
      </trkpt>
      <trkpt lat="50.24235" lon="3.94702">
        <ele>180.2</ele>
        <time>2020-06-24T14:33:14Z</time>
      </trkpt>
      <trkpt lat="50.24233" lon="3.94708">
        <ele>180.3</ele>
        <time>2020-06-24T14:33:15Z</time>
      </trkpt>
      <trkpt lat="50.24231" lon="3.94716">
        <ele>180.4</ele>
        <time>2020-06-24T14:33:16Z</time>
      </trkpt>
      <trkpt lat="50.2423" lon="3.94723">
        <ele>180.6</ele>
        <time>2020-06-24T14:33:17Z</time>
      </trkpt>
      <trkpt lat="50.24229" lon="3.94728">
        <ele>180.7</ele>
        <time>2020-06-24T14:33:18Z</time>
      </trkpt>
      <trkpt lat="50.24227" lon="3.94734">
        <ele>180.9</ele>
        <time>2020-06-24T14:33:19Z</time>
      </trkpt>
      <trkpt lat="50.24225" lon="3.94741">
        <ele>181</ele>
        <time>2020-06-24T14:33:20Z</time>
      </trkpt>
      <trkpt lat="50.24224" lon="3.94749">
        <ele>181.1</ele>
        <time>2020-06-24T14:33:21Z</time>
      </trkpt>
      <trkpt lat="50.24223" lon="3.94756">
        <ele>181.1</ele>
        <time>2020-06-24T14:33:22Z</time>
      </trkpt>
      <trkpt lat="50.24222" lon="3.94759">
        <ele>181.1</ele>
        <time>2020-06-24T14:33:23Z</time>
      </trkpt>
      <trkpt lat="50.24221" lon="3.94764">
        <ele>181.2</ele>
        <time>2020-06-24T14:33:24Z</time>
      </trkpt>
      <trkpt lat="50.24221" lon="3.94769">
        <ele>181.2</ele>
        <time>2020-06-24T14:33:25Z</time>
      </trkpt>
      <trkpt lat="50.24219" lon="3.94774">
        <ele>181.2</ele>
        <time>2020-06-24T14:33:26Z</time>
      </trkpt>
      <trkpt lat="50.24218" lon="3.9478">
        <ele>181.3</ele>
        <time>2020-06-24T14:33:27Z</time>
      </trkpt>
      <trkpt lat="50.24216" lon="3.94786">
        <ele>181.3</ele>
        <time>2020-06-24T14:33:28Z</time>
      </trkpt>
      <trkpt lat="50.24214" lon="3.94793">
        <ele>181.4</ele>
        <time>2020-06-24T14:33:29Z</time>
      </trkpt>
      <trkpt lat="50.24213" lon="3.948">
        <ele>181.5</ele>
        <time>2020-06-24T14:33:30Z</time>
      </trkpt>
      <trkpt lat="50.24211" lon="3.94808">
        <ele>181.5</ele>
        <time>2020-06-24T14:33:31Z</time>
      </trkpt>
      <trkpt lat="50.2421" lon="3.94815">
        <ele>181.5</ele>
        <time>2020-06-24T14:33:32Z</time>
      </trkpt>
      <trkpt lat="50.24208" lon="3.94823">
        <ele>181.4</ele>
        <time>2020-06-24T14:33:33Z</time>
      </trkpt>
      <trkpt lat="50.24206" lon="3.9483">
        <ele>181.3</ele>
        <time>2020-06-24T14:33:34Z</time>
      </trkpt>
      <trkpt lat="50.24204" lon="3.94838">
        <ele>181.2</ele>
        <time>2020-06-24T14:33:35Z</time>
      </trkpt>
      <trkpt lat="50.24202" lon="3.94848">
        <ele>181</ele>
        <time>2020-06-24T14:33:36Z</time>
      </trkpt>
      <trkpt lat="50.24199" lon="3.94856">
        <ele>180.8</ele>
        <time>2020-06-24T14:33:37Z</time>
      </trkpt>
      <trkpt lat="50.24197" lon="3.94864">
        <ele>180.6</ele>
        <time>2020-06-24T14:33:38Z</time>
      </trkpt>
      <trkpt lat="50.24195" lon="3.94873">
        <ele>180.4</ele>
        <time>2020-06-24T14:33:39Z</time>
      </trkpt>
      <trkpt lat="50.24193" lon="3.94882">
        <ele>180.2</ele>
        <time>2020-06-24T14:33:40Z</time>
      </trkpt>
      <trkpt lat="50.24191" lon="3.94891">
        <ele>180</ele>
        <time>2020-06-24T14:33:41Z</time>
      </trkpt>
      <trkpt lat="50.2419" lon="3.94899">
        <ele>179.8</ele>
        <time>2020-06-24T14:33:42Z</time>
      </trkpt>
      <trkpt lat="50.24188" lon="3.94907">
        <ele>179.5</ele>
        <time>2020-06-24T14:33:43Z</time>
      </trkpt>
      <trkpt lat="50.24186" lon="3.94915">
        <ele>179.3</ele>
        <time>2020-06-24T14:33:44Z</time>
      </trkpt>
      <trkpt lat="50.24185" lon="3.94923">
        <ele>179</ele>
        <time>2020-06-24T14:33:45Z</time>
      </trkpt>
      <trkpt lat="50.24182" lon="3.94933">
        <ele>178.7</ele>
        <time>2020-06-24T14:33:46Z</time>
      </trkpt>
      <trkpt lat="50.2418" lon="3.94941">
        <ele>178.5</ele>
        <time>2020-06-24T14:33:47Z</time>
      </trkpt>
      <trkpt lat="50.24177" lon="3.9495">
        <ele>178.3</ele>
        <time>2020-06-24T14:33:48Z</time>
      </trkpt>
      <trkpt lat="50.24175" lon="3.94957">
        <ele>178</ele>
        <time>2020-06-24T14:33:49Z</time>
      </trkpt>
      <trkpt lat="50.24173" lon="3.94967">
        <ele>177.8</ele>
        <time>2020-06-24T14:33:50Z</time>
      </trkpt>
      <trkpt lat="50.24172" lon="3.94973">
        <ele>177.6</ele>
        <time>2020-06-24T14:33:51Z</time>
      </trkpt>
      <trkpt lat="50.24168" lon="3.94987">
        <ele>177.2</ele>
        <time>2020-06-24T14:33:52Z</time>
      </trkpt>
      <trkpt lat="50.24166" lon="3.94995">
        <ele>177</ele>
        <time>2020-06-24T14:33:53Z</time>
      </trkpt>
      <trkpt lat="50.24163" lon="3.95006">
        <ele>176.8</ele>
        <time>2020-06-24T14:33:54Z</time>
      </trkpt>
      <trkpt lat="50.24161" lon="3.95014">
        <ele>176.6</ele>
        <time>2020-06-24T14:33:55Z</time>
      </trkpt>
      <trkpt lat="50.24159" lon="3.95024">
        <ele>176.4</ele>
        <time>2020-06-24T14:33:56Z</time>
      </trkpt>
      <trkpt lat="50.24157" lon="3.95034">
        <ele>176</ele>
        <time>2020-06-24T14:33:57Z</time>
      </trkpt>
      <trkpt lat="50.24155" lon="3.95043">
        <ele>175.7</ele>
        <time>2020-06-24T14:33:58Z</time>
      </trkpt>
      <trkpt lat="50.24153" lon="3.95051">
        <ele>175.4</ele>
        <time>2020-06-24T14:33:59Z</time>
      </trkpt>
      <trkpt lat="50.2415" lon="3.9506">
        <ele>175</ele>
        <time>2020-06-24T14:34:00Z</time>
      </trkpt>
      <trkpt lat="50.24148" lon="3.95069">
        <ele>174.8</ele>
        <time>2020-06-24T14:34:01Z</time>
      </trkpt>
      <trkpt lat="50.24146" lon="3.95078">
        <ele>174.6</ele>
        <time>2020-06-24T14:34:02Z</time>
      </trkpt>
      <trkpt lat="50.24143" lon="3.95087">
        <ele>174.4</ele>
        <time>2020-06-24T14:34:03Z</time>
      </trkpt>
      <trkpt lat="50.24141" lon="3.95097">
        <ele>174.3</ele>
        <time>2020-06-24T14:34:04Z</time>
      </trkpt>
      <trkpt lat="50.24139" lon="3.95106">
        <ele>174.2</ele>
        <time>2020-06-24T14:34:05Z</time>
      </trkpt>
      <trkpt lat="50.24136" lon="3.95115">
        <ele>174.1</ele>
        <time>2020-06-24T14:34:06Z</time>
      </trkpt>
      <trkpt lat="50.24133" lon="3.95123">
        <ele>174.1</ele>
        <time>2020-06-24T14:34:07Z</time>
      </trkpt>
      <trkpt lat="50.24129" lon="3.9513">
        <ele>174</ele>
        <time>2020-06-24T14:34:08Z</time>
      </trkpt>
      <trkpt lat="50.24126" lon="3.95138">
        <ele>173.9</ele>
        <time>2020-06-24T14:34:09Z</time>
      </trkpt>
      <trkpt lat="50.24123" lon="3.95145">
        <ele>173.8</ele>
        <time>2020-06-24T14:34:10Z</time>
      </trkpt>
      <trkpt lat="50.24119" lon="3.9515">
        <ele>173.7</ele>
        <time>2020-06-24T14:34:11Z</time>
      </trkpt>
      <trkpt lat="50.24115" lon="3.95157">
        <ele>173.7</ele>
        <time>2020-06-24T14:34:12Z</time>
      </trkpt>
      <trkpt lat="50.24111" lon="3.95163">
        <ele>173.7</ele>
        <time>2020-06-24T14:34:13Z</time>
      </trkpt>
      <trkpt lat="50.24107" lon="3.95169">
        <ele>173.8</ele>
        <time>2020-06-24T14:34:14Z</time>
      </trkpt>
      <trkpt lat="50.24103" lon="3.95175">
        <ele>173.9</ele>
        <time>2020-06-24T14:34:15Z</time>
      </trkpt>
      <trkpt lat="50.24099" lon="3.9518">
        <ele>174</ele>
        <time>2020-06-24T14:34:16Z</time>
      </trkpt>
      <trkpt lat="50.24094" lon="3.95186">
        <ele>174.1</ele>
        <time>2020-06-24T14:34:17Z</time>
      </trkpt>
      <trkpt lat="50.2409" lon="3.95191">
        <ele>174.2</ele>
        <time>2020-06-24T14:34:18Z</time>
      </trkpt>
      <trkpt lat="50.24086" lon="3.95195">
        <ele>174.3</ele>
        <time>2020-06-24T14:34:19Z</time>
      </trkpt>
      <trkpt lat="50.24082" lon="3.95198">
        <ele>174.4</ele>
        <time>2020-06-24T14:34:20Z</time>
      </trkpt>
      <trkpt lat="50.24078" lon="3.95202">
        <ele>174.5</ele>
        <time>2020-06-24T14:34:21Z</time>
      </trkpt>
      <trkpt lat="50.24074" lon="3.95204">
        <ele>174.6</ele>
        <time>2020-06-24T14:34:22Z</time>
      </trkpt>
      <trkpt lat="50.24069" lon="3.95206">
        <ele>174.7</ele>
        <time>2020-06-24T14:34:23Z</time>
      </trkpt>
      <trkpt lat="50.24065" lon="3.95209">
        <ele>174.9</ele>
        <time>2020-06-24T14:34:24Z</time>
      </trkpt>
      <trkpt lat="50.2406" lon="3.95211">
        <ele>175.1</ele>
        <time>2020-06-24T14:34:25Z</time>
      </trkpt>
      <trkpt lat="50.24056" lon="3.95213">
        <ele>175.2</ele>
        <time>2020-06-24T14:34:26Z</time>
      </trkpt>
      <trkpt lat="50.24051" lon="3.95216">
        <ele>175.4</ele>
        <time>2020-06-24T14:34:27Z</time>
      </trkpt>
      <trkpt lat="50.24047" lon="3.9522">
        <ele>175.6</ele>
        <time>2020-06-24T14:34:28Z</time>
      </trkpt>
      <trkpt lat="50.24043" lon="3.95223">
        <ele>175.6</ele>
        <time>2020-06-24T14:34:29Z</time>
      </trkpt>
      <trkpt lat="50.24039" lon="3.95226">
        <ele>175.7</ele>
        <time>2020-06-24T14:34:30Z</time>
      </trkpt>
      <trkpt lat="50.24036" lon="3.95229">
        <ele>175.8</ele>
        <time>2020-06-24T14:34:31Z</time>
      </trkpt>
      <trkpt lat="50.24033" lon="3.95233">
        <ele>175.9</ele>
        <time>2020-06-24T14:34:32Z</time>
      </trkpt>
      <trkpt lat="50.2403" lon="3.95237">
        <ele>176.1</ele>
        <time>2020-06-24T14:34:33Z</time>
      </trkpt>
      <trkpt lat="50.24028" lon="3.95243">
        <ele>176.2</ele>
        <time>2020-06-24T14:34:34Z</time>
      </trkpt>
      <trkpt lat="50.24025" lon="3.95248">
        <ele>176.4</ele>
        <time>2020-06-24T14:34:35Z</time>
      </trkpt>
      <trkpt lat="50.24022" lon="3.95253">
        <ele>176.5</ele>
        <time>2020-06-24T14:34:36Z</time>
      </trkpt>
      <trkpt lat="50.24018" lon="3.95257">
        <ele>176.7</ele>
        <time>2020-06-24T14:34:37Z</time>
      </trkpt>
      <trkpt lat="50.24015" lon="3.95262">
        <ele>176.9</ele>
        <time>2020-06-24T14:34:38Z</time>
      </trkpt>
      <trkpt lat="50.24013" lon="3.95266">
        <ele>177</ele>
        <time>2020-06-24T14:34:39Z</time>
      </trkpt>
      <trkpt lat="50.24011" lon="3.9527">
        <ele>177.1</ele>
        <time>2020-06-24T14:34:40Z</time>
      </trkpt>
      <trkpt lat="50.24009" lon="3.95274">
        <ele>177.3</ele>
        <time>2020-06-24T14:34:41Z</time>
      </trkpt>
      <trkpt lat="50.24008" lon="3.95275">
        <ele>177.3</ele>
        <time>2020-06-24T14:34:42Z</time>
      </trkpt>
      <trkpt lat="50.24009" lon="3.95278">
        <ele>177.4</ele>
        <time>2020-06-24T14:34:43Z</time>
      </trkpt>
      <trkpt lat="50.24008" lon="3.95281">
        <ele>177.5</ele>
        <time>2020-06-24T14:34:44Z</time>
      </trkpt>
      <trkpt lat="50.24007" lon="3.95282">
        <ele>177.5</ele>
        <time>2020-06-24T14:34:45Z</time>
      </trkpt>
      <trkpt lat="50.24006" lon="3.95282">
        <ele>177.5</ele>
        <time>2020-06-24T14:34:46Z</time>
      </trkpt>
      <trkpt lat="50.24005" lon="3.9528">
        <ele>177.6</ele>
        <time>2020-06-24T14:34:47Z</time>
      </trkpt>
      <trkpt lat="50.24003" lon="3.9528">
        <ele>177.6</ele>
        <time>2020-06-24T14:34:48Z</time>
      </trkpt>
      <trkpt lat="50.24003" lon="3.95281">
        <ele>177.7</ele>
        <time>2020-06-24T14:34:49Z</time>
      </trkpt>
      <trkpt lat="50.24003" lon="3.95281">
        <ele>177.7</ele>
        <time>2020-06-24T14:34:50Z</time>
      </trkpt>
      <trkpt lat="50.24003" lon="3.95281">
        <ele>177.7</ele>
        <time>2020-06-24T14:34:51Z</time>
      </trkpt>
      <trkpt lat="50.24003" lon="3.9528">
        <ele>177.7</ele>
        <time>2020-06-24T14:34:52Z</time>
      </trkpt>
      <trkpt lat="50.24003" lon="3.95279">
        <ele>177.7</ele>
        <time>2020-06-24T14:34:53Z</time>
      </trkpt>
      <trkpt lat="50.24002" lon="3.95278">
        <ele>177.7</ele>
        <time>2020-06-24T14:34:54Z</time>
      </trkpt>
      <trkpt lat="50.24002" lon="3.95278">
        <ele>177.8</ele>
        <time>2020-06-24T14:34:55Z</time>
      </trkpt>
      <trkpt lat="50.24001" lon="3.95278">
        <ele>177.8</ele>
        <time>2020-06-24T14:34:56Z</time>
      </trkpt>
      <trkpt lat="50.24" lon="3.95278">
        <ele>177.8</ele>
        <time>2020-06-24T14:34:57Z</time>
      </trkpt>
      <trkpt lat="50.24" lon="3.95279">
        <ele>177.8</ele>
        <time>2020-06-24T14:34:58Z</time>
      </trkpt>
      <trkpt lat="50.24" lon="3.95279">
        <ele>177.8</ele>
        <time>2020-06-24T14:34:59Z</time>
      </trkpt>
      <trkpt lat="50.23999" lon="3.95279">
        <ele>177.9</ele>
        <time>2020-06-24T14:35:00Z</time>
      </trkpt>
      <trkpt lat="50.24" lon="3.95278">
        <ele>177.9</ele>
        <time>2020-06-24T14:35:01Z</time>
      </trkpt>
      <trkpt lat="50.24001" lon="3.95277">
        <ele>177.9</ele>
        <time>2020-06-24T14:35:02Z</time>
      </trkpt>
      <trkpt lat="50.2399" lon="3.95277">
        <ele>178.8</ele>
        <time>2020-06-24T14:35:16Z</time>
      </trkpt>
      <trkpt lat="50.23986" lon="3.95276">
        <ele>179.1</ele>
        <time>2020-06-24T14:35:17Z</time>
      </trkpt>
      <trkpt lat="50.23982" lon="3.95274">
        <ele>179.3</ele>
        <time>2020-06-24T14:35:18Z</time>
      </trkpt>
      <trkpt lat="50.23978" lon="3.95273">
        <ele>179.5</ele>
        <time>2020-06-24T14:35:19Z</time>
      </trkpt>
      <trkpt lat="50.23973" lon="3.95271">
        <ele>179.7</ele>
        <time>2020-06-24T14:35:20Z</time>
      </trkpt>
      <trkpt lat="50.23968" lon="3.95269">
        <ele>179.8</ele>
        <time>2020-06-24T14:35:21Z</time>
      </trkpt>
      <trkpt lat="50.23964" lon="3.95268">
        <ele>179.8</ele>
        <time>2020-06-24T14:35:22Z</time>
      </trkpt>
      <trkpt lat="50.23958" lon="3.95267">
        <ele>180</ele>
        <time>2020-06-24T14:35:23Z</time>
      </trkpt>
      <trkpt lat="50.23952" lon="3.95267">
        <ele>180.1</ele>
        <time>2020-06-24T14:35:24Z</time>
      </trkpt>
      <trkpt lat="50.23947" lon="3.95266">
        <ele>180.2</ele>
        <time>2020-06-24T14:35:25Z</time>
      </trkpt>
      <trkpt lat="50.23942" lon="3.95264">
        <ele>180.3</ele>
        <time>2020-06-24T14:35:26Z</time>
      </trkpt>
      <trkpt lat="50.23938" lon="3.95262">
        <ele>180.4</ele>
        <time>2020-06-24T14:35:27Z</time>
      </trkpt>
      <trkpt lat="50.23934" lon="3.95259">
        <ele>180.4</ele>
        <time>2020-06-24T14:35:28Z</time>
      </trkpt>
      <trkpt lat="50.2393" lon="3.95257">
        <ele>180.5</ele>
        <time>2020-06-24T14:35:29Z</time>
      </trkpt>
      <trkpt lat="50.23924" lon="3.95255">
        <ele>180.6</ele>
        <time>2020-06-24T14:35:30Z</time>
      </trkpt>
      <trkpt lat="50.2392" lon="3.95253">
        <ele>180.7</ele>
        <time>2020-06-24T14:35:31Z</time>
      </trkpt>
      <trkpt lat="50.23916" lon="3.9525">
        <ele>180.7</ele>
        <time>2020-06-24T14:35:32Z</time>
      </trkpt>
      <trkpt lat="50.23912" lon="3.95249">
        <ele>180.8</ele>
        <time>2020-06-24T14:35:33Z</time>
      </trkpt>
      <trkpt lat="50.23908" lon="3.95247">
        <ele>180.9</ele>
        <time>2020-06-24T14:35:34Z</time>
      </trkpt>
      <trkpt lat="50.23904" lon="3.95245">
        <ele>180.9</ele>
        <time>2020-06-24T14:35:35Z</time>
      </trkpt>
      <trkpt lat="50.23899" lon="3.95243">
        <ele>181</ele>
        <time>2020-06-24T14:35:36Z</time>
      </trkpt>
      <trkpt lat="50.23894" lon="3.95241">
        <ele>181.1</ele>
        <time>2020-06-24T14:35:37Z</time>
      </trkpt>
      <trkpt lat="50.23889" lon="3.9524">
        <ele>181.1</ele>
        <time>2020-06-24T14:35:38Z</time>
      </trkpt>
      <trkpt lat="50.23885" lon="3.95238">
        <ele>181.1</ele>
        <time>2020-06-24T14:35:39Z</time>
      </trkpt>
      <trkpt lat="50.2388" lon="3.95237">
        <ele>181.1</ele>
        <time>2020-06-24T14:35:40Z</time>
      </trkpt>
      <trkpt lat="50.23875" lon="3.95236">
        <ele>181.1</ele>
        <time>2020-06-24T14:35:41Z</time>
      </trkpt>
      <trkpt lat="50.2387" lon="3.95236">
        <ele>181.1</ele>
        <time>2020-06-24T14:35:42Z</time>
      </trkpt>
      <trkpt lat="50.23864" lon="3.95235">
        <ele>181.1</ele>
        <time>2020-06-24T14:35:43Z</time>
      </trkpt>
      <trkpt lat="50.23859" lon="3.95234">
        <ele>181.1</ele>
        <time>2020-06-24T14:35:44Z</time>
      </trkpt>
      <trkpt lat="50.23854" lon="3.95231">
        <ele>181.1</ele>
        <time>2020-06-24T14:35:45Z</time>
      </trkpt>
      <trkpt lat="50.23849" lon="3.9523">
        <ele>181.1</ele>
        <time>2020-06-24T14:35:46Z</time>
      </trkpt>
      <trkpt lat="50.23843" lon="3.95229">
        <ele>181.1</ele>
        <time>2020-06-24T14:35:47Z</time>
      </trkpt>
      <trkpt lat="50.23837" lon="3.95228">
        <ele>181.1</ele>
        <time>2020-06-24T14:35:48Z</time>
      </trkpt>
      <trkpt lat="50.2383" lon="3.95226">
        <ele>181</ele>
        <time>2020-06-24T14:35:49Z</time>
      </trkpt>
      <trkpt lat="50.23824" lon="3.95223">
        <ele>181</ele>
        <time>2020-06-24T14:35:50Z</time>
      </trkpt>
      <trkpt lat="50.23818" lon="3.95222">
        <ele>180.9</ele>
        <time>2020-06-24T14:35:51Z</time>
      </trkpt>
      <trkpt lat="50.23812" lon="3.9522">
        <ele>180.9</ele>
        <time>2020-06-24T14:35:52Z</time>
      </trkpt>
      <trkpt lat="50.23806" lon="3.95217">
        <ele>180.8</ele>
        <time>2020-06-24T14:35:53Z</time>
      </trkpt>
      <trkpt lat="50.238" lon="3.95215">
        <ele>180.7</ele>
        <time>2020-06-24T14:35:54Z</time>
      </trkpt>
      <trkpt lat="50.23794" lon="3.95213">
        <ele>180.7</ele>
        <time>2020-06-24T14:35:55Z</time>
      </trkpt>
      <trkpt lat="50.23788" lon="3.95211">
        <ele>180.6</ele>
        <time>2020-06-24T14:35:56Z</time>
      </trkpt>
      <trkpt lat="50.23782" lon="3.95209">
        <ele>180.4</ele>
        <time>2020-06-24T14:35:57Z</time>
      </trkpt>
      <trkpt lat="50.23776" lon="3.95207">
        <ele>180.3</ele>
        <time>2020-06-24T14:35:58Z</time>
      </trkpt>
      <trkpt lat="50.2377" lon="3.95206">
        <ele>180.1</ele>
        <time>2020-06-24T14:35:59Z</time>
      </trkpt>
      <trkpt lat="50.23764" lon="3.95204">
        <ele>179.9</ele>
        <time>2020-06-24T14:36:00Z</time>
      </trkpt>
      <trkpt lat="50.23757" lon="3.95202">
        <ele>179.7</ele>
        <time>2020-06-24T14:36:01Z</time>
      </trkpt>
      <trkpt lat="50.23751" lon="3.95201">
        <ele>179.6</ele>
        <time>2020-06-24T14:36:02Z</time>
      </trkpt>
      <trkpt lat="50.23744" lon="3.95198">
        <ele>179.4</ele>
        <time>2020-06-24T14:36:03Z</time>
      </trkpt>
      <trkpt lat="50.23738" lon="3.95195">
        <ele>179.2</ele>
        <time>2020-06-24T14:36:04Z</time>
      </trkpt>
      <trkpt lat="50.23732" lon="3.95192">
        <ele>179</ele>
        <time>2020-06-24T14:36:05Z</time>
      </trkpt>
      <trkpt lat="50.23725" lon="3.95189">
        <ele>178.8</ele>
        <time>2020-06-24T14:36:06Z</time>
      </trkpt>
      <trkpt lat="50.23718" lon="3.95187">
        <ele>178.6</ele>
        <time>2020-06-24T14:36:07Z</time>
      </trkpt>
      <trkpt lat="50.23711" lon="3.95185">
        <ele>178.4</ele>
        <time>2020-06-24T14:36:08Z</time>
      </trkpt>
      <trkpt lat="50.23704" lon="3.95183">
        <ele>178.2</ele>
        <time>2020-06-24T14:36:09Z</time>
      </trkpt>
      <trkpt lat="50.23698" lon="3.95181">
        <ele>177.9</ele>
        <time>2020-06-24T14:36:10Z</time>
      </trkpt>
      <trkpt lat="50.23691" lon="3.95179">
        <ele>177.7</ele>
        <time>2020-06-24T14:36:11Z</time>
      </trkpt>
      <trkpt lat="50.23683" lon="3.95177">
        <ele>177.5</ele>
        <time>2020-06-24T14:36:12Z</time>
      </trkpt>
      <trkpt lat="50.23676" lon="3.95174">
        <ele>177.4</ele>
        <time>2020-06-24T14:36:13Z</time>
      </trkpt>
      <trkpt lat="50.23669" lon="3.9517">
        <ele>177.1</ele>
        <time>2020-06-24T14:36:14Z</time>
      </trkpt>
      <trkpt lat="50.23662" lon="3.95169">
        <ele>176.8</ele>
        <time>2020-06-24T14:36:15Z</time>
      </trkpt>
      <trkpt lat="50.23654" lon="3.95168">
        <ele>176.6</ele>
        <time>2020-06-24T14:36:16Z</time>
      </trkpt>
      <trkpt lat="50.23648" lon="3.95165">
        <ele>176.3</ele>
        <time>2020-06-24T14:36:17Z</time>
      </trkpt>
      <trkpt lat="50.23641" lon="3.95162">
        <ele>176.1</ele>
        <time>2020-06-24T14:36:18Z</time>
      </trkpt>
      <trkpt lat="50.23634" lon="3.95159">
        <ele>175.8</ele>
        <time>2020-06-24T14:36:19Z</time>
      </trkpt>
      <trkpt lat="50.23626" lon="3.95156">
        <ele>175.5</ele>
        <time>2020-06-24T14:36:20Z</time>
      </trkpt>
      <trkpt lat="50.23618" lon="3.95151">
        <ele>175.1</ele>
        <time>2020-06-24T14:36:21Z</time>
      </trkpt>
      <trkpt lat="50.2361" lon="3.95148">
        <ele>174.9</ele>
        <time>2020-06-24T14:36:22Z</time>
      </trkpt>
      <trkpt lat="50.23601" lon="3.95145">
        <ele>174.6</ele>
        <time>2020-06-24T14:36:23Z</time>
      </trkpt>
      <trkpt lat="50.23593" lon="3.95142">
        <ele>174.2</ele>
        <time>2020-06-24T14:36:24Z</time>
      </trkpt>
      <trkpt lat="50.23584" lon="3.95139">
        <ele>173.8</ele>
        <time>2020-06-24T14:36:25Z</time>
      </trkpt>
      <trkpt lat="50.23576" lon="3.95135">
        <ele>173.5</ele>
        <time>2020-06-24T14:36:26Z</time>
      </trkpt>
      <trkpt lat="50.23567" lon="3.95131">
        <ele>173.2</ele>
        <time>2020-06-24T14:36:27Z</time>
      </trkpt>
      <trkpt lat="50.23558" lon="3.95128">
        <ele>172.9</ele>
        <time>2020-06-24T14:36:28Z</time>
      </trkpt>
      <trkpt lat="50.23549" lon="3.95125">
        <ele>172.6</ele>
        <time>2020-06-24T14:36:29Z</time>
      </trkpt>
      <trkpt lat="50.23541" lon="3.95121">
        <ele>172.3</ele>
        <time>2020-06-24T14:36:30Z</time>
      </trkpt>
      <trkpt lat="50.23532" lon="3.95118">
        <ele>171.9</ele>
        <time>2020-06-24T14:36:31Z</time>
      </trkpt>
      <trkpt lat="50.23523" lon="3.95115">
        <ele>171.6</ele>
        <time>2020-06-24T14:36:32Z</time>
      </trkpt>
      <trkpt lat="50.23514" lon="3.95113">
        <ele>171.3</ele>
        <time>2020-06-24T14:36:33Z</time>
      </trkpt>
      <trkpt lat="50.23505" lon="3.95109">
        <ele>171</ele>
        <time>2020-06-24T14:36:34Z</time>
      </trkpt>
      <trkpt lat="50.23496" lon="3.95106">
        <ele>170.7</ele>
        <time>2020-06-24T14:36:35Z</time>
      </trkpt>
      <trkpt lat="50.23486" lon="3.95103">
        <ele>170.4</ele>
        <time>2020-06-24T14:36:36Z</time>
      </trkpt>
      <trkpt lat="50.23477" lon="3.95101">
        <ele>170.1</ele>
        <time>2020-06-24T14:36:37Z</time>
      </trkpt>
      <trkpt lat="50.23468" lon="3.95098">
        <ele>169.9</ele>
        <time>2020-06-24T14:36:38Z</time>
      </trkpt>
      <trkpt lat="50.23459" lon="3.95095">
        <ele>169.6</ele>
        <time>2020-06-24T14:36:39Z</time>
      </trkpt>
      <trkpt lat="50.2345" lon="3.95092">
        <ele>169.4</ele>
        <time>2020-06-24T14:36:40Z</time>
      </trkpt>
      <trkpt lat="50.23441" lon="3.95089">
        <ele>169.2</ele>
        <time>2020-06-24T14:36:41Z</time>
      </trkpt>
      <trkpt lat="50.23433" lon="3.95087">
        <ele>168.9</ele>
        <time>2020-06-24T14:36:42Z</time>
      </trkpt>
      <trkpt lat="50.23424" lon="3.95084">
        <ele>168.7</ele>
        <time>2020-06-24T14:36:43Z</time>
      </trkpt>
      <trkpt lat="50.23415" lon="3.95082">
        <ele>168.5</ele>
        <time>2020-06-24T14:36:44Z</time>
      </trkpt>
      <trkpt lat="50.23407" lon="3.95078">
        <ele>168.3</ele>
        <time>2020-06-24T14:36:45Z</time>
      </trkpt>
      <trkpt lat="50.23399" lon="3.95075">
        <ele>168</ele>
        <time>2020-06-24T14:36:46Z</time>
      </trkpt>
      <trkpt lat="50.2339" lon="3.95072">
        <ele>167.8</ele>
        <time>2020-06-24T14:36:47Z</time>
      </trkpt>
      <trkpt lat="50.23383" lon="3.95067">
        <ele>167.7</ele>
        <time>2020-06-24T14:36:48Z</time>
      </trkpt>
      <trkpt lat="50.23375" lon="3.95063">
        <ele>167.5</ele>
        <time>2020-06-24T14:36:49Z</time>
      </trkpt>
      <trkpt lat="50.23367" lon="3.9506">
        <ele>167.2</ele>
        <time>2020-06-24T14:36:50Z</time>
      </trkpt>
      <trkpt lat="50.23359" lon="3.95058">
        <ele>167</ele>
        <time>2020-06-24T14:36:51Z</time>
      </trkpt>
      <trkpt lat="50.23351" lon="3.95054">
        <ele>166.8</ele>
        <time>2020-06-24T14:36:52Z</time>
      </trkpt>
      <trkpt lat="50.23343" lon="3.95052">
        <ele>166.7</ele>
        <time>2020-06-24T14:36:53Z</time>
      </trkpt>
      <trkpt lat="50.23335" lon="3.95051">
        <ele>166.5</ele>
        <time>2020-06-24T14:36:54Z</time>
      </trkpt>
      <trkpt lat="50.23327" lon="3.95048">
        <ele>166.4</ele>
        <time>2020-06-24T14:36:55Z</time>
      </trkpt>
      <trkpt lat="50.23319" lon="3.95046">
        <ele>166.2</ele>
        <time>2020-06-24T14:36:56Z</time>
      </trkpt>
      <trkpt lat="50.23311" lon="3.95043">
        <ele>166.2</ele>
        <time>2020-06-24T14:36:57Z</time>
      </trkpt>
      <trkpt lat="50.23303" lon="3.95041">
        <ele>166.2</ele>
        <time>2020-06-24T14:36:58Z</time>
      </trkpt>
      <trkpt lat="50.23295" lon="3.95038">
        <ele>166.2</ele>
        <time>2020-06-24T14:36:59Z</time>
      </trkpt>
      <trkpt lat="50.23288" lon="3.95035">
        <ele>166.2</ele>
        <time>2020-06-24T14:37:00Z</time>
      </trkpt>
      <trkpt lat="50.2328" lon="3.95033">
        <ele>166</ele>
        <time>2020-06-24T14:37:01Z</time>
      </trkpt>
      <trkpt lat="50.23272" lon="3.95031">
        <ele>165.7</ele>
        <time>2020-06-24T14:37:02Z</time>
      </trkpt>
      <trkpt lat="50.23264" lon="3.95028">
        <ele>165.4</ele>
        <time>2020-06-24T14:37:03Z</time>
      </trkpt>
      <trkpt lat="50.23256" lon="3.95025">
        <ele>165.2</ele>
        <time>2020-06-24T14:37:04Z</time>
      </trkpt>
      <trkpt lat="50.23248" lon="3.95021">
        <ele>164.9</ele>
        <time>2020-06-24T14:37:05Z</time>
      </trkpt>
      <trkpt lat="50.2324" lon="3.95018">
        <ele>164.6</ele>
        <time>2020-06-24T14:37:06Z</time>
      </trkpt>
      <trkpt lat="50.23232" lon="3.95015">
        <ele>164.3</ele>
        <time>2020-06-24T14:37:07Z</time>
      </trkpt>
      <trkpt lat="50.23224" lon="3.95012">
        <ele>164.1</ele>
        <time>2020-06-24T14:37:08Z</time>
      </trkpt>
      <trkpt lat="50.23216" lon="3.95009">
        <ele>163.9</ele>
        <time>2020-06-24T14:37:09Z</time>
      </trkpt>
      <trkpt lat="50.23207" lon="3.95007">
        <ele>163.7</ele>
        <time>2020-06-24T14:37:10Z</time>
      </trkpt>
      <trkpt lat="50.23199" lon="3.95005">
        <ele>163.5</ele>
        <time>2020-06-24T14:37:11Z</time>
      </trkpt>
      <trkpt lat="50.2319" lon="3.95002">
        <ele>163.3</ele>
        <time>2020-06-24T14:37:12Z</time>
      </trkpt>
      <trkpt lat="50.23182" lon="3.94999">
        <ele>163</ele>
        <time>2020-06-24T14:37:13Z</time>
      </trkpt>
      <trkpt lat="50.23174" lon="3.94995">
        <ele>162.8</ele>
        <time>2020-06-24T14:37:14Z</time>
      </trkpt>
      <trkpt lat="50.23166" lon="3.94991">
        <ele>162.6</ele>
        <time>2020-06-24T14:37:15Z</time>
      </trkpt>
      <trkpt lat="50.23157" lon="3.94988">
        <ele>162.4</ele>
        <time>2020-06-24T14:37:16Z</time>
      </trkpt>
      <trkpt lat="50.23149" lon="3.94986">
        <ele>162.2</ele>
        <time>2020-06-24T14:37:17Z</time>
      </trkpt>
      <trkpt lat="50.2314" lon="3.94986">
        <ele>162.1</ele>
        <time>2020-06-24T14:37:18Z</time>
      </trkpt>
      <trkpt lat="50.23132" lon="3.94985">
        <ele>162</ele>
        <time>2020-06-24T14:37:19Z</time>
      </trkpt>
      <trkpt lat="50.23124" lon="3.94985">
        <ele>161.9</ele>
        <time>2020-06-24T14:37:20Z</time>
      </trkpt>
      <trkpt lat="50.23116" lon="3.94984">
        <ele>161.8</ele>
        <time>2020-06-24T14:37:21Z</time>
      </trkpt>
      <trkpt lat="50.2311" lon="3.94988">
        <ele>161.5</ele>
        <time>2020-06-24T14:37:22Z</time>
      </trkpt>
      <trkpt lat="50.23105" lon="3.94996">
        <ele>161.2</ele>
        <time>2020-06-24T14:37:23Z</time>
      </trkpt>
      <trkpt lat="50.23102" lon="3.95005">
        <ele>160.9</ele>
        <time>2020-06-24T14:37:24Z</time>
      </trkpt>
      <trkpt lat="50.23099" lon="3.95014">
        <ele>160.6</ele>
        <time>2020-06-24T14:37:25Z</time>
      </trkpt>
      <trkpt lat="50.23095" lon="3.95022">
        <ele>160.5</ele>
        <time>2020-06-24T14:37:26Z</time>
      </trkpt>
      <trkpt lat="50.23092" lon="3.9503">
        <ele>160.4</ele>
        <time>2020-06-24T14:37:27Z</time>
      </trkpt>
      <trkpt lat="50.23089" lon="3.95039">
        <ele>160.2</ele>
        <time>2020-06-24T14:37:28Z</time>
      </trkpt>
      <trkpt lat="50.23085" lon="3.95048">
        <ele>160</ele>
        <time>2020-06-24T14:37:29Z</time>
      </trkpt>
      <trkpt lat="50.23082" lon="3.95056">
        <ele>159.9</ele>
        <time>2020-06-24T14:37:30Z</time>
      </trkpt>
      <trkpt lat="50.23079" lon="3.95064">
        <ele>159.8</ele>
        <time>2020-06-24T14:37:31Z</time>
      </trkpt>
      <trkpt lat="50.23075" lon="3.95071">
        <ele>159.8</ele>
        <time>2020-06-24T14:37:32Z</time>
      </trkpt>
      <trkpt lat="50.23071" lon="3.95076">
        <ele>159.7</ele>
        <time>2020-06-24T14:37:33Z</time>
      </trkpt>
      <trkpt lat="50.23066" lon="3.9508">
        <ele>159.7</ele>
        <time>2020-06-24T14:37:34Z</time>
      </trkpt>
      <trkpt lat="50.2306" lon="3.95083">
        <ele>159.6</ele>
        <time>2020-06-24T14:37:35Z</time>
      </trkpt>
      <trkpt lat="50.23054" lon="3.95086">
        <ele>159.6</ele>
        <time>2020-06-24T14:37:36Z</time>
      </trkpt>
      <trkpt lat="50.23049" lon="3.9509">
        <ele>159.7</ele>
        <time>2020-06-24T14:37:37Z</time>
      </trkpt>
      <trkpt lat="50.23044" lon="3.95093">
        <ele>159.8</ele>
        <time>2020-06-24T14:37:38Z</time>
      </trkpt>
      <trkpt lat="50.23039" lon="3.95096">
        <ele>159.8</ele>
        <time>2020-06-24T14:37:39Z</time>
      </trkpt>
      <trkpt lat="50.23033" lon="3.95097">
        <ele>159.8</ele>
        <time>2020-06-24T14:37:40Z</time>
      </trkpt>
      <trkpt lat="50.23028" lon="3.951">
        <ele>159.8</ele>
        <time>2020-06-24T14:37:41Z</time>
      </trkpt>
      <trkpt lat="50.23023" lon="3.95101">
        <ele>159.8</ele>
        <time>2020-06-24T14:37:42Z</time>
      </trkpt>
      <trkpt lat="50.23018" lon="3.95103">
        <ele>159.8</ele>
        <time>2020-06-24T14:37:43Z</time>
      </trkpt>
      <trkpt lat="50.23014" lon="3.95106">
        <ele>159.8</ele>
        <time>2020-06-24T14:37:44Z</time>
      </trkpt>
      <trkpt lat="50.23009" lon="3.95108">
        <ele>159.8</ele>
        <time>2020-06-24T14:37:45Z</time>
      </trkpt>
      <trkpt lat="50.23004" lon="3.9511">
        <ele>159.8</ele>
        <time>2020-06-24T14:37:46Z</time>
      </trkpt>
      <trkpt lat="50.22999" lon="3.95113">
        <ele>159.8</ele>
        <time>2020-06-24T14:37:47Z</time>
      </trkpt>
      <trkpt lat="50.22994" lon="3.95115">
        <ele>159.9</ele>
        <time>2020-06-24T14:37:48Z</time>
      </trkpt>
      <trkpt lat="50.22989" lon="3.95116">
        <ele>160</ele>
        <time>2020-06-24T14:37:49Z</time>
      </trkpt>
      <trkpt lat="50.22984" lon="3.95118">
        <ele>160.2</ele>
        <time>2020-06-24T14:37:50Z</time>
      </trkpt>
      <trkpt lat="50.22979" lon="3.9512">
        <ele>160.3</ele>
        <time>2020-06-24T14:37:51Z</time>
      </trkpt>
      <trkpt lat="50.22975" lon="3.95123">
        <ele>160.4</ele>
        <time>2020-06-24T14:37:52Z</time>
      </trkpt>
      <trkpt lat="50.22971" lon="3.95126">
        <ele>160.5</ele>
        <time>2020-06-24T14:37:53Z</time>
      </trkpt>
      <trkpt lat="50.22967" lon="3.95128">
        <ele>160.6</ele>
        <time>2020-06-24T14:37:54Z</time>
      </trkpt>
      <trkpt lat="50.22963" lon="3.95132">
        <ele>160.6</ele>
        <time>2020-06-24T14:37:55Z</time>
      </trkpt>
      <trkpt lat="50.22959" lon="3.95135">
        <ele>160.7</ele>
        <time>2020-06-24T14:37:56Z</time>
      </trkpt>
      <trkpt lat="50.22956" lon="3.95138">
        <ele>160.8</ele>
        <time>2020-06-24T14:37:57Z</time>
      </trkpt>
      <trkpt lat="50.22953" lon="3.95141">
        <ele>160.8</ele>
        <time>2020-06-24T14:37:58Z</time>
      </trkpt>
      <trkpt lat="50.22949" lon="3.95142">
        <ele>160.9</ele>
        <time>2020-06-24T14:37:59Z</time>
      </trkpt>
      <trkpt lat="50.22946" lon="3.95144">
        <ele>160.9</ele>
        <time>2020-06-24T14:38:00Z</time>
      </trkpt>
      <trkpt lat="50.22943" lon="3.95147">
        <ele>161</ele>
        <time>2020-06-24T14:38:01Z</time>
      </trkpt>
      <trkpt lat="50.22941" lon="3.9515">
        <ele>161</ele>
        <time>2020-06-24T14:38:02Z</time>
      </trkpt>
      <trkpt lat="50.22939" lon="3.95154">
        <ele>161</ele>
        <time>2020-06-24T14:38:03Z</time>
      </trkpt>
      <trkpt lat="50.22937" lon="3.95158">
        <ele>161</ele>
        <time>2020-06-24T14:38:04Z</time>
      </trkpt>
      <trkpt lat="50.22935" lon="3.95161">
        <ele>161</ele>
        <time>2020-06-24T14:38:05Z</time>
      </trkpt>
      <trkpt lat="50.22934" lon="3.95165">
        <ele>161</ele>
        <time>2020-06-24T14:38:06Z</time>
      </trkpt>
      <trkpt lat="50.22932" lon="3.95169">
        <ele>161</ele>
        <time>2020-06-24T14:38:07Z</time>
      </trkpt>
      <trkpt lat="50.22929" lon="3.95172">
        <ele>161</ele>
        <time>2020-06-24T14:38:08Z</time>
      </trkpt>
      <trkpt lat="50.22926" lon="3.95176">
        <ele>161.1</ele>
        <time>2020-06-24T14:38:09Z</time>
      </trkpt>
      <trkpt lat="50.22924" lon="3.9518">
        <ele>161.1</ele>
        <time>2020-06-24T14:38:10Z</time>
      </trkpt>
      <trkpt lat="50.22923" lon="3.95184">
        <ele>161.2</ele>
        <time>2020-06-24T14:38:11Z</time>
      </trkpt>
      <trkpt lat="50.22921" lon="3.95188">
        <ele>161.4</ele>
        <time>2020-06-24T14:38:12Z</time>
      </trkpt>
      <trkpt lat="50.22919" lon="3.95193">
        <ele>161.5</ele>
        <time>2020-06-24T14:38:13Z</time>
      </trkpt>
      <trkpt lat="50.22917" lon="3.95197">
        <ele>161.6</ele>
        <time>2020-06-24T14:38:14Z</time>
      </trkpt>
      <trkpt lat="50.22914" lon="3.95202">
        <ele>161.7</ele>
        <time>2020-06-24T14:38:15Z</time>
      </trkpt>
      <trkpt lat="50.22912" lon="3.95206">
        <ele>161.7</ele>
        <time>2020-06-24T14:38:16Z</time>
      </trkpt>
      <trkpt lat="50.22909" lon="3.95209">
        <ele>161.8</ele>
        <time>2020-06-24T14:38:17Z</time>
      </trkpt>
      <trkpt lat="50.22907" lon="3.95213">
        <ele>161.8</ele>
        <time>2020-06-24T14:38:18Z</time>
      </trkpt>
      <trkpt lat="50.22906" lon="3.95218">
        <ele>161.9</ele>
        <time>2020-06-24T14:38:19Z</time>
      </trkpt>
      <trkpt lat="50.22904" lon="3.95222">
        <ele>161.9</ele>
        <time>2020-06-24T14:38:20Z</time>
      </trkpt>
      <trkpt lat="50.22902" lon="3.95225">
        <ele>162</ele>
        <time>2020-06-24T14:38:21Z</time>
      </trkpt>
      <trkpt lat="50.229" lon="3.95229">
        <ele>162</ele>
        <time>2020-06-24T14:38:22Z</time>
      </trkpt>
      <trkpt lat="50.22898" lon="3.95233">
        <ele>162.1</ele>
        <time>2020-06-24T14:38:23Z</time>
      </trkpt>
      <trkpt lat="50.22897" lon="3.95237">
        <ele>162.2</ele>
        <time>2020-06-24T14:38:24Z</time>
      </trkpt>
      <trkpt lat="50.22895" lon="3.9524">
        <ele>162.2</ele>
        <time>2020-06-24T14:38:25Z</time>
      </trkpt>
      <trkpt lat="50.22894" lon="3.95245">
        <ele>162.4</ele>
        <time>2020-06-24T14:38:26Z</time>
      </trkpt>
      <trkpt lat="50.22892" lon="3.95249">
        <ele>162.5</ele>
        <time>2020-06-24T14:38:27Z</time>
      </trkpt>
      <trkpt lat="50.22891" lon="3.95252">
        <ele>162.6</ele>
        <time>2020-06-24T14:38:28Z</time>
      </trkpt>
      <trkpt lat="50.22889" lon="3.95256">
        <ele>162.7</ele>
        <time>2020-06-24T14:38:29Z</time>
      </trkpt>
      <trkpt lat="50.22887" lon="3.95259">
        <ele>162.9</ele>
        <time>2020-06-24T14:38:30Z</time>
      </trkpt>
      <trkpt lat="50.22885" lon="3.95262">
        <ele>163</ele>
        <time>2020-06-24T14:38:31Z</time>
      </trkpt>
      <trkpt lat="50.22882" lon="3.95267">
        <ele>163.1</ele>
        <time>2020-06-24T14:38:32Z</time>
      </trkpt>
      <trkpt lat="50.22881" lon="3.95269">
        <ele>163.2</ele>
        <time>2020-06-24T14:38:33Z</time>
      </trkpt>
      <trkpt lat="50.22879" lon="3.95272">
        <ele>163.3</ele>
        <time>2020-06-24T14:38:34Z</time>
      </trkpt>
      <trkpt lat="50.22878" lon="3.95276">
        <ele>163.4</ele>
        <time>2020-06-24T14:38:35Z</time>
      </trkpt>
      <trkpt lat="50.22877" lon="3.9528">
        <ele>163.5</ele>
        <time>2020-06-24T14:38:36Z</time>
      </trkpt>
      <trkpt lat="50.22874" lon="3.95284">
        <ele>163.6</ele>
        <time>2020-06-24T14:38:37Z</time>
      </trkpt>
      <trkpt lat="50.22873" lon="3.95286">
        <ele>163.6</ele>
        <time>2020-06-24T14:38:38Z</time>
      </trkpt>
      <trkpt lat="50.2287" lon="3.95289">
        <ele>163.7</ele>
        <time>2020-06-24T14:38:39Z</time>
      </trkpt>
      <trkpt lat="50.22869" lon="3.9529">
        <ele>163.7</ele>
        <time>2020-06-24T14:38:40Z</time>
      </trkpt>
      <trkpt lat="50.22868" lon="3.95291">
        <ele>163.8</ele>
        <time>2020-06-24T14:38:41Z</time>
      </trkpt>
      <trkpt lat="50.22867" lon="3.95293">
        <ele>163.8</ele>
        <time>2020-06-24T14:38:42Z</time>
      </trkpt>
      <trkpt lat="50.22864" lon="3.95297">
        <ele>164</ele>
        <time>2020-06-24T14:38:43Z</time>
      </trkpt>
      <trkpt lat="50.22862" lon="3.95298">
        <ele>164.1</ele>
        <time>2020-06-24T14:38:44Z</time>
      </trkpt>
      <trkpt lat="50.22859" lon="3.95302">
        <ele>164.2</ele>
        <time>2020-06-24T14:38:45Z</time>
      </trkpt>
      <trkpt lat="50.22854" lon="3.95305">
        <ele>164.4</ele>
        <time>2020-06-24T14:38:46Z</time>
      </trkpt>
      <trkpt lat="50.2285" lon="3.95309">
        <ele>164.6</ele>
        <time>2020-06-24T14:38:47Z</time>
      </trkpt>
      <trkpt lat="50.22846" lon="3.95314">
        <ele>164.8</ele>
        <time>2020-06-24T14:38:48Z</time>
      </trkpt>
      <trkpt lat="50.22842" lon="3.95317">
        <ele>165</ele>
        <time>2020-06-24T14:38:49Z</time>
      </trkpt>
      <trkpt lat="50.22838" lon="3.95319">
        <ele>165.1</ele>
        <time>2020-06-24T14:38:50Z</time>
      </trkpt>
      <trkpt lat="50.22833" lon="3.95322">
        <ele>165.3</ele>
        <time>2020-06-24T14:38:51Z</time>
      </trkpt>
      <trkpt lat="50.22828" lon="3.95324">
        <ele>165.4</ele>
        <time>2020-06-24T14:38:52Z</time>
      </trkpt>
      <trkpt lat="50.22824" lon="3.95327">
        <ele>165.6</ele>
        <time>2020-06-24T14:38:53Z</time>
      </trkpt>
      <trkpt lat="50.22819" lon="3.9533">
        <ele>165.7</ele>
        <time>2020-06-24T14:38:54Z</time>
      </trkpt>
      <trkpt lat="50.22815" lon="3.95333">
        <ele>165.8</ele>
        <time>2020-06-24T14:38:55Z</time>
      </trkpt>
      <trkpt lat="50.2281" lon="3.95336">
        <ele>166</ele>
        <time>2020-06-24T14:38:56Z</time>
      </trkpt>
      <trkpt lat="50.22805" lon="3.95339">
        <ele>166.2</ele>
        <time>2020-06-24T14:38:57Z</time>
      </trkpt>
      <trkpt lat="50.22801" lon="3.95342">
        <ele>166.4</ele>
        <time>2020-06-24T14:38:58Z</time>
      </trkpt>
      <trkpt lat="50.22796" lon="3.95345">
        <ele>166.6</ele>
        <time>2020-06-24T14:38:59Z</time>
      </trkpt>
      <trkpt lat="50.22792" lon="3.95347">
        <ele>166.7</ele>
        <time>2020-06-24T14:39:00Z</time>
      </trkpt>
      <trkpt lat="50.22787" lon="3.95351">
        <ele>166.8</ele>
        <time>2020-06-24T14:39:01Z</time>
      </trkpt>
      <trkpt lat="50.22783" lon="3.95354">
        <ele>166.9</ele>
        <time>2020-06-24T14:39:02Z</time>
      </trkpt>
      <trkpt lat="50.22778" lon="3.95356">
        <ele>167</ele>
        <time>2020-06-24T14:39:03Z</time>
      </trkpt>
      <trkpt lat="50.22773" lon="3.95358">
        <ele>167.1</ele>
        <time>2020-06-24T14:39:04Z</time>
      </trkpt>
      <trkpt lat="50.22768" lon="3.95362">
        <ele>167.2</ele>
        <time>2020-06-24T14:39:05Z</time>
      </trkpt>
      <trkpt lat="50.22763" lon="3.95365">
        <ele>167.4</ele>
        <time>2020-06-24T14:39:06Z</time>
      </trkpt>
      <trkpt lat="50.22758" lon="3.95368">
        <ele>167.6</ele>
        <time>2020-06-24T14:39:07Z</time>
      </trkpt>
      <trkpt lat="50.22753" lon="3.9537">
        <ele>167.8</ele>
        <time>2020-06-24T14:39:08Z</time>
      </trkpt>
      <trkpt lat="50.22748" lon="3.95373">
        <ele>168</ele>
        <time>2020-06-24T14:39:09Z</time>
      </trkpt>
      <trkpt lat="50.22744" lon="3.95377">
        <ele>168.1</ele>
        <time>2020-06-24T14:39:10Z</time>
      </trkpt>
      <trkpt lat="50.2274" lon="3.9538">
        <ele>168.2</ele>
        <time>2020-06-24T14:39:11Z</time>
      </trkpt>
      <trkpt lat="50.22736" lon="3.95384">
        <ele>168.3</ele>
        <time>2020-06-24T14:39:12Z</time>
      </trkpt>
      <trkpt lat="50.22731" lon="3.95387">
        <ele>168.4</ele>
        <time>2020-06-24T14:39:13Z</time>
      </trkpt>
      <trkpt lat="50.22727" lon="3.9539">
        <ele>168.6</ele>
        <time>2020-06-24T14:39:14Z</time>
      </trkpt>
      <trkpt lat="50.22723" lon="3.95394">
        <ele>168.7</ele>
        <time>2020-06-24T14:39:15Z</time>
      </trkpt>
      <trkpt lat="50.22718" lon="3.95398">
        <ele>169</ele>
        <time>2020-06-24T14:39:16Z</time>
      </trkpt>
      <trkpt lat="50.22714" lon="3.95401">
        <ele>169.2</ele>
        <time>2020-06-24T14:39:17Z</time>
      </trkpt>
      <trkpt lat="50.2271" lon="3.95405">
        <ele>169.4</ele>
        <time>2020-06-24T14:39:18Z</time>
      </trkpt>
      <trkpt lat="50.22705" lon="3.95409">
        <ele>169.5</ele>
        <time>2020-06-24T14:39:19Z</time>
      </trkpt>
      <trkpt lat="50.22701" lon="3.95413">
        <ele>169.6</ele>
        <time>2020-06-24T14:39:20Z</time>
      </trkpt>
      <trkpt lat="50.22697" lon="3.95418">
        <ele>169.6</ele>
        <time>2020-06-24T14:39:21Z</time>
      </trkpt>
      <trkpt lat="50.22694" lon="3.95422">
        <ele>169.6</ele>
        <time>2020-06-24T14:39:22Z</time>
      </trkpt>
      <trkpt lat="50.2269" lon="3.95427">
        <ele>169.7</ele>
        <time>2020-06-24T14:39:23Z</time>
      </trkpt>
      <trkpt lat="50.22686" lon="3.95432">
        <ele>169.9</ele>
        <time>2020-06-24T14:39:24Z</time>
      </trkpt>
      <trkpt lat="50.22682" lon="3.95436">
        <ele>170.1</ele>
        <time>2020-06-24T14:39:25Z</time>
      </trkpt>
      <trkpt lat="50.22678" lon="3.9544">
        <ele>170.3</ele>
        <time>2020-06-24T14:39:26Z</time>
      </trkpt>
      <trkpt lat="50.22674" lon="3.95445">
        <ele>170.5</ele>
        <time>2020-06-24T14:39:27Z</time>
      </trkpt>
      <trkpt lat="50.2267" lon="3.95449">
        <ele>170.6</ele>
        <time>2020-06-24T14:39:28Z</time>
      </trkpt>
      <trkpt lat="50.22666" lon="3.95452">
        <ele>170.7</ele>
        <time>2020-06-24T14:39:29Z</time>
      </trkpt>
      <trkpt lat="50.22661" lon="3.95457">
        <ele>170.8</ele>
        <time>2020-06-24T14:39:30Z</time>
      </trkpt>
      <trkpt lat="50.22658" lon="3.9546">
        <ele>170.9</ele>
        <time>2020-06-24T14:39:31Z</time>
      </trkpt>
      <trkpt lat="50.22655" lon="3.95463">
        <ele>171</ele>
        <time>2020-06-24T14:39:32Z</time>
      </trkpt>
      <trkpt lat="50.22651" lon="3.95468">
        <ele>171.2</ele>
        <time>2020-06-24T14:39:33Z</time>
      </trkpt>
      <trkpt lat="50.22646" lon="3.95473">
        <ele>171.4</ele>
        <time>2020-06-24T14:39:34Z</time>
      </trkpt>
      <trkpt lat="50.22643" lon="3.95477">
        <ele>171.6</ele>
        <time>2020-06-24T14:39:35Z</time>
      </trkpt>
      <trkpt lat="50.22639" lon="3.9548">
        <ele>171.7</ele>
        <time>2020-06-24T14:39:36Z</time>
      </trkpt>
      <trkpt lat="50.22635" lon="3.95485">
        <ele>171.9</ele>
        <time>2020-06-24T14:39:37Z</time>
      </trkpt>
      <trkpt lat="50.22632" lon="3.95489">
        <ele>172.1</ele>
        <time>2020-06-24T14:39:38Z</time>
      </trkpt>
      <trkpt lat="50.22628" lon="3.95493">
        <ele>172.3</ele>
        <time>2020-06-24T14:39:39Z</time>
      </trkpt>
      <trkpt lat="50.22625" lon="3.95498">
        <ele>172.5</ele>
        <time>2020-06-24T14:39:40Z</time>
      </trkpt>
      <trkpt lat="50.22621" lon="3.95503">
        <ele>172.7</ele>
        <time>2020-06-24T14:39:41Z</time>
      </trkpt>
      <trkpt lat="50.22618" lon="3.95506">
        <ele>172.8</ele>
        <time>2020-06-24T14:39:42Z</time>
      </trkpt>
      <trkpt lat="50.22613" lon="3.9551">
        <ele>173</ele>
        <time>2020-06-24T14:39:43Z</time>
      </trkpt>
      <trkpt lat="50.22609" lon="3.95512">
        <ele>173.1</ele>
        <time>2020-06-24T14:39:44Z</time>
      </trkpt>
      <trkpt lat="50.22606" lon="3.95515">
        <ele>173.2</ele>
        <time>2020-06-24T14:39:45Z</time>
      </trkpt>
      <trkpt lat="50.22602" lon="3.95519">
        <ele>173.3</ele>
        <time>2020-06-24T14:39:46Z</time>
      </trkpt>
      <trkpt lat="50.22598" lon="3.95524">
        <ele>173.5</ele>
        <time>2020-06-24T14:39:47Z</time>
      </trkpt>
      <trkpt lat="50.22594" lon="3.95528">
        <ele>173.6</ele>
        <time>2020-06-24T14:39:48Z</time>
      </trkpt>
      <trkpt lat="50.22591" lon="3.95533">
        <ele>173.8</ele>
        <time>2020-06-24T14:39:49Z</time>
      </trkpt>
      <trkpt lat="50.22587" lon="3.95538">
        <ele>173.9</ele>
        <time>2020-06-24T14:39:50Z</time>
      </trkpt>
      <trkpt lat="50.22581" lon="3.95542">
        <ele>174.1</ele>
        <time>2020-06-24T14:39:51Z</time>
      </trkpt>
      <trkpt lat="50.22576" lon="3.95547">
        <ele>174.2</ele>
        <time>2020-06-24T14:39:52Z</time>
      </trkpt>
      <trkpt lat="50.22571" lon="3.95552">
        <ele>174.3</ele>
        <time>2020-06-24T14:39:53Z</time>
      </trkpt>
      <trkpt lat="50.22566" lon="3.95555">
        <ele>174.5</ele>
        <time>2020-06-24T14:39:54Z</time>
      </trkpt>
      <trkpt lat="50.22562" lon="3.9556">
        <ele>174.6</ele>
        <time>2020-06-24T14:39:55Z</time>
      </trkpt>
      <trkpt lat="50.22558" lon="3.95564">
        <ele>174.7</ele>
        <time>2020-06-24T14:39:56Z</time>
      </trkpt>
      <trkpt lat="50.22554" lon="3.95567">
        <ele>174.8</ele>
        <time>2020-06-24T14:39:57Z</time>
      </trkpt>
      <trkpt lat="50.22549" lon="3.95573">
        <ele>174.9</ele>
        <time>2020-06-24T14:39:58Z</time>
      </trkpt>
      <trkpt lat="50.22545" lon="3.95576">
        <ele>175</ele>
        <time>2020-06-24T14:39:59Z</time>
      </trkpt>
      <trkpt lat="50.22541" lon="3.9558">
        <ele>175</ele>
        <time>2020-06-24T14:40:00Z</time>
      </trkpt>
      <trkpt lat="50.22537" lon="3.95584">
        <ele>175.1</ele>
        <time>2020-06-24T14:40:01Z</time>
      </trkpt>
      <trkpt lat="50.22533" lon="3.95587">
        <ele>175.2</ele>
        <time>2020-06-24T14:40:02Z</time>
      </trkpt>
      <trkpt lat="50.22528" lon="3.95591">
        <ele>175.3</ele>
        <time>2020-06-24T14:40:03Z</time>
      </trkpt>
      <trkpt lat="50.22522" lon="3.95596">
        <ele>175.4</ele>
        <time>2020-06-24T14:40:04Z</time>
      </trkpt>
      <trkpt lat="50.22517" lon="3.95601">
        <ele>175.5</ele>
        <time>2020-06-24T14:40:05Z</time>
      </trkpt>
      <trkpt lat="50.22513" lon="3.95605">
        <ele>175.6</ele>
        <time>2020-06-24T14:40:06Z</time>
      </trkpt>
      <trkpt lat="50.22509" lon="3.95609">
        <ele>175.7</ele>
        <time>2020-06-24T14:40:07Z</time>
      </trkpt>
      <trkpt lat="50.22506" lon="3.95612">
        <ele>175.8</ele>
        <time>2020-06-24T14:40:08Z</time>
      </trkpt>
      <trkpt lat="50.22503" lon="3.95615">
        <ele>176</ele>
        <time>2020-06-24T14:40:09Z</time>
      </trkpt>
      <trkpt lat="50.22499" lon="3.9562">
        <ele>176.2</ele>
        <time>2020-06-24T14:40:10Z</time>
      </trkpt>
      <trkpt lat="50.22493" lon="3.95625">
        <ele>176.4</ele>
        <time>2020-06-24T14:40:11Z</time>
      </trkpt>
      <trkpt lat="50.22489" lon="3.95629">
        <ele>176.5</ele>
        <time>2020-06-24T14:40:12Z</time>
      </trkpt>
      <trkpt lat="50.22485" lon="3.95634">
        <ele>176.5</ele>
        <time>2020-06-24T14:40:13Z</time>
      </trkpt>
      <trkpt lat="50.22481" lon="3.95639">
        <ele>176.6</ele>
        <time>2020-06-24T14:40:14Z</time>
      </trkpt>
      <trkpt lat="50.22476" lon="3.95644">
        <ele>176.6</ele>
        <time>2020-06-24T14:40:15Z</time>
      </trkpt>
      <trkpt lat="50.22473" lon="3.95648">
        <ele>176.7</ele>
        <time>2020-06-24T14:40:16Z</time>
      </trkpt>
      <trkpt lat="50.22469" lon="3.95652">
        <ele>176.8</ele>
        <time>2020-06-24T14:40:17Z</time>
      </trkpt>
      <trkpt lat="50.22465" lon="3.95656">
        <ele>176.9</ele>
        <time>2020-06-24T14:40:18Z</time>
      </trkpt>
      <trkpt lat="50.22462" lon="3.95659">
        <ele>177.1</ele>
        <time>2020-06-24T14:40:19Z</time>
      </trkpt>
      <trkpt lat="50.22459" lon="3.95663">
        <ele>177.2</ele>
        <time>2020-06-24T14:40:20Z</time>
      </trkpt>
      <trkpt lat="50.22454" lon="3.95668">
        <ele>177.4</ele>
        <time>2020-06-24T14:40:21Z</time>
      </trkpt>
      <trkpt lat="50.22451" lon="3.95672">
        <ele>177.4</ele>
        <time>2020-06-24T14:40:22Z</time>
      </trkpt>
      <trkpt lat="50.22447" lon="3.95677">
        <ele>177.5</ele>
        <time>2020-06-24T14:40:23Z</time>
      </trkpt>
      <trkpt lat="50.22443" lon="3.95683">
        <ele>177.6</ele>
        <time>2020-06-24T14:40:24Z</time>
      </trkpt>
      <trkpt lat="50.2244" lon="3.95687">
        <ele>177.6</ele>
        <time>2020-06-24T14:40:25Z</time>
      </trkpt>
      <trkpt lat="50.22436" lon="3.95691">
        <ele>177.7</ele>
        <time>2020-06-24T14:40:26Z</time>
      </trkpt>
      <trkpt lat="50.22432" lon="3.95695">
        <ele>177.8</ele>
        <time>2020-06-24T14:40:27Z</time>
      </trkpt>
      <trkpt lat="50.22428" lon="3.957">
        <ele>177.9</ele>
        <time>2020-06-24T14:40:28Z</time>
      </trkpt>
      <trkpt lat="50.22425" lon="3.95704">
        <ele>178</ele>
        <time>2020-06-24T14:40:29Z</time>
      </trkpt>
      <trkpt lat="50.22422" lon="3.95709">
        <ele>178.2</ele>
        <time>2020-06-24T14:40:30Z</time>
      </trkpt>
      <trkpt lat="50.22418" lon="3.95713">
        <ele>178.4</ele>
        <time>2020-06-24T14:40:31Z</time>
      </trkpt>
      <trkpt lat="50.22415" lon="3.95717">
        <ele>178.6</ele>
        <time>2020-06-24T14:40:32Z</time>
      </trkpt>
      <trkpt lat="50.22411" lon="3.95722">
        <ele>178.8</ele>
        <time>2020-06-24T14:40:33Z</time>
      </trkpt>
      <trkpt lat="50.22408" lon="3.95727">
        <ele>178.9</ele>
        <time>2020-06-24T14:40:34Z</time>
      </trkpt>
      <trkpt lat="50.22405" lon="3.9573">
        <ele>179</ele>
        <time>2020-06-24T14:40:35Z</time>
      </trkpt>
      <trkpt lat="50.22401" lon="3.95734">
        <ele>179</ele>
        <time>2020-06-24T14:40:36Z</time>
      </trkpt>
      <trkpt lat="50.22398" lon="3.95738">
        <ele>179.1</ele>
        <time>2020-06-24T14:40:37Z</time>
      </trkpt>
      <trkpt lat="50.22394" lon="3.95744">
        <ele>179.1</ele>
        <time>2020-06-24T14:40:38Z</time>
      </trkpt>
      <trkpt lat="50.22391" lon="3.95748">
        <ele>179.1</ele>
        <time>2020-06-24T14:40:39Z</time>
      </trkpt>
      <trkpt lat="50.22387" lon="3.95752">
        <ele>179.1</ele>
        <time>2020-06-24T14:40:40Z</time>
      </trkpt>
      <trkpt lat="50.22385" lon="3.95756">
        <ele>179.1</ele>
        <time>2020-06-24T14:40:41Z</time>
      </trkpt>
      <trkpt lat="50.22382" lon="3.95761">
        <ele>179.1</ele>
        <time>2020-06-24T14:40:42Z</time>
      </trkpt>
      <trkpt lat="50.22378" lon="3.95766">
        <ele>179.1</ele>
        <time>2020-06-24T14:40:43Z</time>
      </trkpt>
      <trkpt lat="50.22374" lon="3.95771">
        <ele>179.1</ele>
        <time>2020-06-24T14:40:44Z</time>
      </trkpt>
      <trkpt lat="50.2237" lon="3.95776">
        <ele>179.1</ele>
        <time>2020-06-24T14:40:45Z</time>
      </trkpt>
      <trkpt lat="50.22365" lon="3.95781">
        <ele>179.1</ele>
        <time>2020-06-24T14:40:46Z</time>
      </trkpt>
      <trkpt lat="50.2236" lon="3.95785">
        <ele>179.1</ele>
        <time>2020-06-24T14:40:47Z</time>
      </trkpt>
      <trkpt lat="50.22357" lon="3.9579">
        <ele>179</ele>
        <time>2020-06-24T14:40:48Z</time>
      </trkpt>
      <trkpt lat="50.22352" lon="3.95796">
        <ele>178.9</ele>
        <time>2020-06-24T14:40:49Z</time>
      </trkpt>
      <trkpt lat="50.22347" lon="3.95802">
        <ele>178.7</ele>
        <time>2020-06-24T14:40:50Z</time>
      </trkpt>
      <trkpt lat="50.22342" lon="3.95808">
        <ele>178.6</ele>
        <time>2020-06-24T14:40:51Z</time>
      </trkpt>
      <trkpt lat="50.22337" lon="3.95815">
        <ele>178.4</ele>
        <time>2020-06-24T14:40:52Z</time>
      </trkpt>
      <trkpt lat="50.22332" lon="3.95822">
        <ele>178.2</ele>
        <time>2020-06-24T14:40:53Z</time>
      </trkpt>
      <trkpt lat="50.22326" lon="3.95828">
        <ele>178.1</ele>
        <time>2020-06-24T14:40:54Z</time>
      </trkpt>
      <trkpt lat="50.22321" lon="3.95835">
        <ele>177.8</ele>
        <time>2020-06-24T14:40:55Z</time>
      </trkpt>
      <trkpt lat="50.22316" lon="3.95842">
        <ele>177.6</ele>
        <time>2020-06-24T14:40:56Z</time>
      </trkpt>
      <trkpt lat="50.22311" lon="3.95849">
        <ele>177.3</ele>
        <time>2020-06-24T14:40:57Z</time>
      </trkpt>
      <trkpt lat="50.22306" lon="3.95856">
        <ele>176.9</ele>
        <time>2020-06-24T14:40:58Z</time>
      </trkpt>
      <trkpt lat="50.223" lon="3.95863">
        <ele>176.6</ele>
        <time>2020-06-24T14:40:59Z</time>
      </trkpt>
      <trkpt lat="50.22293" lon="3.95871">
        <ele>176.1</ele>
        <time>2020-06-24T14:41:00Z</time>
      </trkpt>
      <trkpt lat="50.22288" lon="3.95878">
        <ele>175.8</ele>
        <time>2020-06-24T14:41:01Z</time>
      </trkpt>
      <trkpt lat="50.22282" lon="3.95886">
        <ele>175.6</ele>
        <time>2020-06-24T14:41:02Z</time>
      </trkpt>
      <trkpt lat="50.22277" lon="3.95893">
        <ele>175.4</ele>
        <time>2020-06-24T14:41:03Z</time>
      </trkpt>
      <trkpt lat="50.22271" lon="3.95901">
        <ele>175.2</ele>
        <time>2020-06-24T14:41:04Z</time>
      </trkpt>
      <trkpt lat="50.22266" lon="3.95909">
        <ele>174.9</ele>
        <time>2020-06-24T14:41:05Z</time>
      </trkpt>
      <trkpt lat="50.2226" lon="3.95916">
        <ele>174.6</ele>
        <time>2020-06-24T14:41:06Z</time>
      </trkpt>
      <trkpt lat="50.22255" lon="3.95924">
        <ele>174.4</ele>
        <time>2020-06-24T14:41:07Z</time>
      </trkpt>
      <trkpt lat="50.22249" lon="3.95932">
        <ele>174.1</ele>
        <time>2020-06-24T14:41:08Z</time>
      </trkpt>
      <trkpt lat="50.22243" lon="3.9594">
        <ele>173.9</ele>
        <time>2020-06-24T14:41:09Z</time>
      </trkpt>
      <trkpt lat="50.22238" lon="3.95947">
        <ele>173.7</ele>
        <time>2020-06-24T14:41:10Z</time>
      </trkpt>
      <trkpt lat="50.22233" lon="3.95955">
        <ele>173.6</ele>
        <time>2020-06-24T14:41:11Z</time>
      </trkpt>
      <trkpt lat="50.22227" lon="3.95963">
        <ele>173.5</ele>
        <time>2020-06-24T14:41:12Z</time>
      </trkpt>
      <trkpt lat="50.22222" lon="3.9597">
        <ele>173.5</ele>
        <time>2020-06-24T14:41:13Z</time>
      </trkpt>
      <trkpt lat="50.22217" lon="3.95977">
        <ele>173.4</ele>
        <time>2020-06-24T14:41:14Z</time>
      </trkpt>
      <trkpt lat="50.22212" lon="3.95984">
        <ele>173.4</ele>
        <time>2020-06-24T14:41:15Z</time>
      </trkpt>
      <trkpt lat="50.22207" lon="3.95991">
        <ele>173.4</ele>
        <time>2020-06-24T14:41:16Z</time>
      </trkpt>
      <trkpt lat="50.22202" lon="3.95998">
        <ele>173.4</ele>
        <time>2020-06-24T14:41:17Z</time>
      </trkpt>
      <trkpt lat="50.22197" lon="3.96004">
        <ele>173.4</ele>
        <time>2020-06-24T14:41:18Z</time>
      </trkpt>
      <trkpt lat="50.22191" lon="3.9601">
        <ele>173.4</ele>
        <time>2020-06-24T14:41:19Z</time>
      </trkpt>
      <trkpt lat="50.22187" lon="3.96016">
        <ele>173.4</ele>
        <time>2020-06-24T14:41:20Z</time>
      </trkpt>
      <trkpt lat="50.22183" lon="3.96023">
        <ele>173.5</ele>
        <time>2020-06-24T14:41:21Z</time>
      </trkpt>
      <trkpt lat="50.22179" lon="3.96029">
        <ele>173.6</ele>
        <time>2020-06-24T14:41:22Z</time>
      </trkpt>
      <trkpt lat="50.22174" lon="3.96036">
        <ele>173.7</ele>
        <time>2020-06-24T14:41:23Z</time>
      </trkpt>
      <trkpt lat="50.2217" lon="3.96042">
        <ele>173.8</ele>
        <time>2020-06-24T14:41:24Z</time>
      </trkpt>
      <trkpt lat="50.22165" lon="3.96048">
        <ele>174</ele>
        <time>2020-06-24T14:41:25Z</time>
      </trkpt>
      <trkpt lat="50.22161" lon="3.96053">
        <ele>174.2</ele>
        <time>2020-06-24T14:41:26Z</time>
      </trkpt>
      <trkpt lat="50.22156" lon="3.96059">
        <ele>174.3</ele>
        <time>2020-06-24T14:41:27Z</time>
      </trkpt>
      <trkpt lat="50.22152" lon="3.96064">
        <ele>174.5</ele>
        <time>2020-06-24T14:41:28Z</time>
      </trkpt>
      <trkpt lat="50.22148" lon="3.9607">
        <ele>174.7</ele>
        <time>2020-06-24T14:41:29Z</time>
      </trkpt>
      <trkpt lat="50.22144" lon="3.96075">
        <ele>174.8</ele>
        <time>2020-06-24T14:41:30Z</time>
      </trkpt>
      <trkpt lat="50.22139" lon="3.9608">
        <ele>174.9</ele>
        <time>2020-06-24T14:41:31Z</time>
      </trkpt>
      <trkpt lat="50.22135" lon="3.96086">
        <ele>175</ele>
        <time>2020-06-24T14:41:32Z</time>
      </trkpt>
      <trkpt lat="50.22131" lon="3.96091">
        <ele>175.1</ele>
        <time>2020-06-24T14:41:33Z</time>
      </trkpt>
      <trkpt lat="50.22127" lon="3.96096">
        <ele>175.2</ele>
        <time>2020-06-24T14:41:34Z</time>
      </trkpt>
      <trkpt lat="50.22123" lon="3.96102">
        <ele>175.3</ele>
        <time>2020-06-24T14:41:35Z</time>
      </trkpt>
      <trkpt lat="50.22118" lon="3.96107">
        <ele>175.4</ele>
        <time>2020-06-24T14:41:36Z</time>
      </trkpt>
      <trkpt lat="50.22114" lon="3.96112">
        <ele>175.5</ele>
        <time>2020-06-24T14:41:37Z</time>
      </trkpt>
      <trkpt lat="50.2211" lon="3.96117">
        <ele>175.6</ele>
        <time>2020-06-24T14:41:38Z</time>
      </trkpt>
      <trkpt lat="50.22106" lon="3.96122">
        <ele>175.7</ele>
        <time>2020-06-24T14:41:39Z</time>
      </trkpt>
      <trkpt lat="50.22102" lon="3.96127">
        <ele>175.8</ele>
        <time>2020-06-24T14:41:40Z</time>
      </trkpt>
      <trkpt lat="50.22099" lon="3.96133">
        <ele>176</ele>
        <time>2020-06-24T14:41:41Z</time>
      </trkpt>
      <trkpt lat="50.22094" lon="3.96137">
        <ele>176.1</ele>
        <time>2020-06-24T14:41:42Z</time>
      </trkpt>
      <trkpt lat="50.2209" lon="3.96142">
        <ele>176.2</ele>
        <time>2020-06-24T14:41:43Z</time>
      </trkpt>
      <trkpt lat="50.22086" lon="3.96147">
        <ele>176.4</ele>
        <time>2020-06-24T14:41:44Z</time>
      </trkpt>
      <trkpt lat="50.22082" lon="3.96153">
        <ele>176.5</ele>
        <time>2020-06-24T14:41:45Z</time>
      </trkpt>
      <trkpt lat="50.22079" lon="3.96157">
        <ele>176.6</ele>
        <time>2020-06-24T14:41:46Z</time>
      </trkpt>
      <trkpt lat="50.22075" lon="3.96161">
        <ele>176.8</ele>
        <time>2020-06-24T14:41:47Z</time>
      </trkpt>
      <trkpt lat="50.22071" lon="3.96165">
        <ele>176.9</ele>
        <time>2020-06-24T14:41:48Z</time>
      </trkpt>
      <trkpt lat="50.22067" lon="3.9617">
        <ele>177.1</ele>
        <time>2020-06-24T14:41:49Z</time>
      </trkpt>
      <trkpt lat="50.22063" lon="3.96174">
        <ele>177.3</ele>
        <time>2020-06-24T14:41:50Z</time>
      </trkpt>
      <trkpt lat="50.22059" lon="3.96177">
        <ele>177.4</ele>
        <time>2020-06-24T14:41:51Z</time>
      </trkpt>
      <trkpt lat="50.22054" lon="3.96182">
        <ele>177.6</ele>
        <time>2020-06-24T14:41:52Z</time>
      </trkpt>
      <trkpt lat="50.22049" lon="3.96185">
        <ele>177.7</ele>
        <time>2020-06-24T14:41:53Z</time>
      </trkpt>
      <trkpt lat="50.22046" lon="3.96189">
        <ele>177.8</ele>
        <time>2020-06-24T14:41:54Z</time>
      </trkpt>
      <trkpt lat="50.22041" lon="3.96194">
        <ele>177.9</ele>
        <time>2020-06-24T14:41:55Z</time>
      </trkpt>
      <trkpt lat="50.22037" lon="3.96199">
        <ele>178.1</ele>
        <time>2020-06-24T14:41:56Z</time>
      </trkpt>
      <trkpt lat="50.22033" lon="3.96205">
        <ele>178.3</ele>
        <time>2020-06-24T14:41:57Z</time>
      </trkpt>
      <trkpt lat="50.2203" lon="3.9621">
        <ele>178.4</ele>
        <time>2020-06-24T14:41:58Z</time>
      </trkpt>
      <trkpt lat="50.22026" lon="3.96216">
        <ele>178.6</ele>
        <time>2020-06-24T14:41:59Z</time>
      </trkpt>
      <trkpt lat="50.22022" lon="3.9622">
        <ele>178.8</ele>
        <time>2020-06-24T14:42:00Z</time>
      </trkpt>
      <trkpt lat="50.22018" lon="3.96224">
        <ele>179</ele>
        <time>2020-06-24T14:42:01Z</time>
      </trkpt>
      <trkpt lat="50.22014" lon="3.96228">
        <ele>179.1</ele>
        <time>2020-06-24T14:42:02Z</time>
      </trkpt>
      <trkpt lat="50.2201" lon="3.96231">
        <ele>179.3</ele>
        <time>2020-06-24T14:42:03Z</time>
      </trkpt>
      <trkpt lat="50.22006" lon="3.96235">
        <ele>179.4</ele>
        <time>2020-06-24T14:42:04Z</time>
      </trkpt>
      <trkpt lat="50.22001" lon="3.96239">
        <ele>179.6</ele>
        <time>2020-06-24T14:42:05Z</time>
      </trkpt>
      <trkpt lat="50.21997" lon="3.96242">
        <ele>179.7</ele>
        <time>2020-06-24T14:42:06Z</time>
      </trkpt>
      <trkpt lat="50.21992" lon="3.96246">
        <ele>179.9</ele>
        <time>2020-06-24T14:42:07Z</time>
      </trkpt>
      <trkpt lat="50.21987" lon="3.9625">
        <ele>179.8</ele>
        <time>2020-06-24T14:42:08Z</time>
      </trkpt>
      <trkpt lat="50.21983" lon="3.96254">
        <ele>179.5</ele>
        <time>2020-06-24T14:42:09Z</time>
      </trkpt>
      <trkpt lat="50.21979" lon="3.9626">
        <ele>178.9</ele>
        <time>2020-06-24T14:42:10Z</time>
      </trkpt>
      <trkpt lat="50.21976" lon="3.96265">
        <ele>178</ele>
        <time>2020-06-24T14:42:11Z</time>
      </trkpt>
      <trkpt lat="50.21972" lon="3.9627">
        <ele>178</ele>
        <time>2020-06-24T14:42:12Z</time>
      </trkpt>
      <trkpt lat="50.21969" lon="3.96275">
        <ele>178.1</ele>
        <time>2020-06-24T14:42:13Z</time>
      </trkpt>
      <trkpt lat="50.21965" lon="3.9628">
        <ele>178.1</ele>
        <time>2020-06-24T14:42:14Z</time>
      </trkpt>
      <trkpt lat="50.21962" lon="3.96285">
        <ele>178.2</ele>
        <time>2020-06-24T14:42:15Z</time>
      </trkpt>
      <trkpt lat="50.21959" lon="3.9629">
        <ele>178.2</ele>
        <time>2020-06-24T14:42:16Z</time>
      </trkpt>
      <trkpt lat="50.21954" lon="3.96293">
        <ele>178.2</ele>
        <time>2020-06-24T14:42:17Z</time>
      </trkpt>
      <trkpt lat="50.2195" lon="3.96298">
        <ele>178.3</ele>
        <time>2020-06-24T14:42:18Z</time>
      </trkpt>
      <trkpt lat="50.21946" lon="3.96304">
        <ele>178.3</ele>
        <time>2020-06-24T14:42:19Z</time>
      </trkpt>
      <trkpt lat="50.21943" lon="3.9631">
        <ele>178.4</ele>
        <time>2020-06-24T14:42:20Z</time>
      </trkpt>
      <trkpt lat="50.21939" lon="3.96313">
        <ele>178.4</ele>
        <time>2020-06-24T14:42:21Z</time>
      </trkpt>
      <trkpt lat="50.21935" lon="3.96317">
        <ele>178.5</ele>
        <time>2020-06-24T14:42:22Z</time>
      </trkpt>
      <trkpt lat="50.21932" lon="3.96323">
        <ele>178.6</ele>
        <time>2020-06-24T14:42:23Z</time>
      </trkpt>
      <trkpt lat="50.21929" lon="3.96328">
        <ele>178.7</ele>
        <time>2020-06-24T14:42:24Z</time>
      </trkpt>
      <trkpt lat="50.21926" lon="3.96334">
        <ele>178.7</ele>
        <time>2020-06-24T14:42:25Z</time>
      </trkpt>
      <trkpt lat="50.21923" lon="3.9634">
        <ele>178.8</ele>
        <time>2020-06-24T14:42:26Z</time>
      </trkpt>
      <trkpt lat="50.2192" lon="3.96345">
        <ele>178.8</ele>
        <time>2020-06-24T14:42:27Z</time>
      </trkpt>
      <trkpt lat="50.21916" lon="3.96352">
        <ele>178.8</ele>
        <time>2020-06-24T14:42:28Z</time>
      </trkpt>
      <trkpt lat="50.21912" lon="3.96357">
        <ele>178.8</ele>
        <time>2020-06-24T14:42:29Z</time>
      </trkpt>
      <trkpt lat="50.21909" lon="3.96363">
        <ele>178.8</ele>
        <time>2020-06-24T14:42:30Z</time>
      </trkpt>
      <trkpt lat="50.21906" lon="3.96368">
        <ele>178.8</ele>
        <time>2020-06-24T14:42:31Z</time>
      </trkpt>
      <trkpt lat="50.21902" lon="3.96375">
        <ele>178.8</ele>
        <time>2020-06-24T14:42:32Z</time>
      </trkpt>
      <trkpt lat="50.21898" lon="3.96381">
        <ele>178.9</ele>
        <time>2020-06-24T14:42:33Z</time>
      </trkpt>
      <trkpt lat="50.21894" lon="3.96385">
        <ele>178.9</ele>
        <time>2020-06-24T14:42:34Z</time>
      </trkpt>
      <trkpt lat="50.21891" lon="3.96389">
        <ele>178.9</ele>
        <time>2020-06-24T14:42:35Z</time>
      </trkpt>
      <trkpt lat="50.21887" lon="3.96394">
        <ele>179</ele>
        <time>2020-06-24T14:42:36Z</time>
      </trkpt>
      <trkpt lat="50.21884" lon="3.96401">
        <ele>179.1</ele>
        <time>2020-06-24T14:42:37Z</time>
      </trkpt>
      <trkpt lat="50.2188" lon="3.96406">
        <ele>179.2</ele>
        <time>2020-06-24T14:42:38Z</time>
      </trkpt>
      <trkpt lat="50.21876" lon="3.96412">
        <ele>179.3</ele>
        <time>2020-06-24T14:42:39Z</time>
      </trkpt>
      <trkpt lat="50.21873" lon="3.96417">
        <ele>179.4</ele>
        <time>2020-06-24T14:42:40Z</time>
      </trkpt>
      <trkpt lat="50.21869" lon="3.96423">
        <ele>179.5</ele>
        <time>2020-06-24T14:42:41Z</time>
      </trkpt>
      <trkpt lat="50.21865" lon="3.96429">
        <ele>179.6</ele>
        <time>2020-06-24T14:42:42Z</time>
      </trkpt>
      <trkpt lat="50.21861" lon="3.96434">
        <ele>179.7</ele>
        <time>2020-06-24T14:42:43Z</time>
      </trkpt>
      <trkpt lat="50.21858" lon="3.9644">
        <ele>179.8</ele>
        <time>2020-06-24T14:42:44Z</time>
      </trkpt>
      <trkpt lat="50.21855" lon="3.96445">
        <ele>179.9</ele>
        <time>2020-06-24T14:42:45Z</time>
      </trkpt>
      <trkpt lat="50.21851" lon="3.96449">
        <ele>180.1</ele>
        <time>2020-06-24T14:42:46Z</time>
      </trkpt>
      <trkpt lat="50.21846" lon="3.96453">
        <ele>180.3</ele>
        <time>2020-06-24T14:42:47Z</time>
      </trkpt>
      <trkpt lat="50.21842" lon="3.96457">
        <ele>180.4</ele>
        <time>2020-06-24T14:42:48Z</time>
      </trkpt>
      <trkpt lat="50.21837" lon="3.96459">
        <ele>180.5</ele>
        <time>2020-06-24T14:42:49Z</time>
      </trkpt>
      <trkpt lat="50.21832" lon="3.96463">
        <ele>180.5</ele>
        <time>2020-06-24T14:42:50Z</time>
      </trkpt>
      <trkpt lat="50.21827" lon="3.96466">
        <ele>180.5</ele>
        <time>2020-06-24T14:42:51Z</time>
      </trkpt>
      <trkpt lat="50.21822" lon="3.96469">
        <ele>180.3</ele>
        <time>2020-06-24T14:42:52Z</time>
      </trkpt>
      <trkpt lat="50.21817" lon="3.96474">
        <ele>180.2</ele>
        <time>2020-06-24T14:42:53Z</time>
      </trkpt>
      <trkpt lat="50.21811" lon="3.96477">
        <ele>180.1</ele>
        <time>2020-06-24T14:42:54Z</time>
      </trkpt>
      <trkpt lat="50.21805" lon="3.96479">
        <ele>179.9</ele>
        <time>2020-06-24T14:42:55Z</time>
      </trkpt>
      <trkpt lat="50.21799" lon="3.96482">
        <ele>179.6</ele>
        <time>2020-06-24T14:42:56Z</time>
      </trkpt>
      <trkpt lat="50.21794" lon="3.96486">
        <ele>179.4</ele>
        <time>2020-06-24T14:42:57Z</time>
      </trkpt>
      <trkpt lat="50.21788" lon="3.9649">
        <ele>179.2</ele>
        <time>2020-06-24T14:42:58Z</time>
      </trkpt>
      <trkpt lat="50.21783" lon="3.96493">
        <ele>179</ele>
        <time>2020-06-24T14:42:59Z</time>
      </trkpt>
      <trkpt lat="50.21777" lon="3.96498">
        <ele>178.9</ele>
        <time>2020-06-24T14:43:00Z</time>
      </trkpt>
      <trkpt lat="50.21771" lon="3.96502">
        <ele>178.8</ele>
        <time>2020-06-24T14:43:01Z</time>
      </trkpt>
      <trkpt lat="50.21765" lon="3.96506">
        <ele>178.6</ele>
        <time>2020-06-24T14:43:02Z</time>
      </trkpt>
      <trkpt lat="50.21759" lon="3.96511">
        <ele>178.5</ele>
        <time>2020-06-24T14:43:03Z</time>
      </trkpt>
      <trkpt lat="50.21752" lon="3.96515">
        <ele>178.4</ele>
        <time>2020-06-24T14:43:04Z</time>
      </trkpt>
      <trkpt lat="50.21746" lon="3.96521">
        <ele>178.5</ele>
        <time>2020-06-24T14:43:05Z</time>
      </trkpt>
      <trkpt lat="50.21739" lon="3.96524">
        <ele>178.7</ele>
        <time>2020-06-24T14:43:06Z</time>
      </trkpt>
      <trkpt lat="50.21732" lon="3.96525">
        <ele>179.1</ele>
        <time>2020-06-24T14:43:07Z</time>
      </trkpt>
      <trkpt lat="50.21725" lon="3.96525">
        <ele>179.4</ele>
        <time>2020-06-24T14:43:08Z</time>
      </trkpt>
      <trkpt lat="50.21719" lon="3.96523">
        <ele>179.4</ele>
        <time>2020-06-24T14:43:09Z</time>
      </trkpt>
      <trkpt lat="50.21714" lon="3.96521">
        <ele>179.3</ele>
        <time>2020-06-24T14:43:10Z</time>
      </trkpt>
      <trkpt lat="50.21709" lon="3.96518">
        <ele>179.2</ele>
        <time>2020-06-24T14:43:11Z</time>
      </trkpt>
      <trkpt lat="50.21704" lon="3.96518">
        <ele>179.1</ele>
        <time>2020-06-24T14:43:12Z</time>
      </trkpt>
      <trkpt lat="50.21698" lon="3.96517">
        <ele>178.9</ele>
        <time>2020-06-24T14:43:13Z</time>
      </trkpt>
      <trkpt lat="50.21693" lon="3.96516">
        <ele>178.8</ele>
        <time>2020-06-24T14:43:14Z</time>
      </trkpt>
      <trkpt lat="50.21688" lon="3.96516">
        <ele>178.6</ele>
        <time>2020-06-24T14:43:15Z</time>
      </trkpt>
      <trkpt lat="50.21683" lon="3.96516">
        <ele>178.4</ele>
        <time>2020-06-24T14:43:16Z</time>
      </trkpt>
      <trkpt lat="50.21679" lon="3.96514">
        <ele>178.3</ele>
        <time>2020-06-24T14:43:17Z</time>
      </trkpt>
      <trkpt lat="50.21673" lon="3.96514">
        <ele>178.1</ele>
        <time>2020-06-24T14:43:18Z</time>
      </trkpt>
      <trkpt lat="50.21665" lon="3.96514">
        <ele>177.8</ele>
        <time>2020-06-24T14:43:19Z</time>
      </trkpt>
      <trkpt lat="50.21658" lon="3.96514">
        <ele>177.4</ele>
        <time>2020-06-24T14:43:20Z</time>
      </trkpt>
      <trkpt lat="50.21651" lon="3.96513">
        <ele>177.2</ele>
        <time>2020-06-24T14:43:21Z</time>
      </trkpt>
      <trkpt lat="50.21644" lon="3.96513">
        <ele>176.9</ele>
        <time>2020-06-24T14:43:22Z</time>
      </trkpt>
      <trkpt lat="50.21639" lon="3.96511">
        <ele>176.7</ele>
        <time>2020-06-24T14:43:23Z</time>
      </trkpt>
      <trkpt lat="50.21632" lon="3.96509">
        <ele>176.4</ele>
        <time>2020-06-24T14:43:24Z</time>
      </trkpt>
      <trkpt lat="50.21624" lon="3.9651">
        <ele>176</ele>
        <time>2020-06-24T14:43:25Z</time>
      </trkpt>
      <trkpt lat="50.21616" lon="3.96512">
        <ele>175.7</ele>
        <time>2020-06-24T14:43:26Z</time>
      </trkpt>
      <trkpt lat="50.21607" lon="3.96512">
        <ele>175.3</ele>
        <time>2020-06-24T14:43:27Z</time>
      </trkpt>
      <trkpt lat="50.21599" lon="3.96513">
        <ele>174.9</ele>
        <time>2020-06-24T14:43:28Z</time>
      </trkpt>
      <trkpt lat="50.2159" lon="3.96514">
        <ele>174.2</ele>
        <time>2020-06-24T14:43:29Z</time>
      </trkpt>
      <trkpt lat="50.21582" lon="3.96514">
        <ele>174.2</ele>
        <time>2020-06-24T14:43:30Z</time>
      </trkpt>
      <trkpt lat="50.21574" lon="3.96513">
        <ele>174.2</ele>
        <time>2020-06-24T14:43:31Z</time>
      </trkpt>
      <trkpt lat="50.21566" lon="3.96513">
        <ele>173.6</ele>
        <time>2020-06-24T14:43:32Z</time>
      </trkpt>
      <trkpt lat="50.21558" lon="3.96514">
        <ele>173.2</ele>
        <time>2020-06-24T14:43:33Z</time>
      </trkpt>
      <trkpt lat="50.21549" lon="3.96515">
        <ele>172.8</ele>
        <time>2020-06-24T14:43:34Z</time>
      </trkpt>
      <trkpt lat="50.21541" lon="3.96516">
        <ele>172.3</ele>
        <time>2020-06-24T14:43:35Z</time>
      </trkpt>
      <trkpt lat="50.21533" lon="3.96518">
        <ele>171.9</ele>
        <time>2020-06-24T14:43:36Z</time>
      </trkpt>
      <trkpt lat="50.21524" lon="3.9652">
        <ele>171.5</ele>
        <time>2020-06-24T14:43:37Z</time>
      </trkpt>
      <trkpt lat="50.21516" lon="3.96523">
        <ele>171.1</ele>
        <time>2020-06-24T14:43:38Z</time>
      </trkpt>
      <trkpt lat="50.21508" lon="3.96525">
        <ele>170.6</ele>
        <time>2020-06-24T14:43:39Z</time>
      </trkpt>
      <trkpt lat="50.21499" lon="3.96528">
        <ele>170.2</ele>
        <time>2020-06-24T14:43:40Z</time>
      </trkpt>
      <trkpt lat="50.21491" lon="3.96531">
        <ele>169.8</ele>
        <time>2020-06-24T14:43:41Z</time>
      </trkpt>
      <trkpt lat="50.21482" lon="3.96534">
        <ele>169.4</ele>
        <time>2020-06-24T14:43:42Z</time>
      </trkpt>
      <trkpt lat="50.21473" lon="3.96536">
        <ele>169</ele>
        <time>2020-06-24T14:43:43Z</time>
      </trkpt>
      <trkpt lat="50.21466" lon="3.96536">
        <ele>168.7</ele>
        <time>2020-06-24T14:43:44Z</time>
      </trkpt>
      <trkpt lat="50.21459" lon="3.96537">
        <ele>168.4</ele>
        <time>2020-06-24T14:43:45Z</time>
      </trkpt>
      <trkpt lat="50.21451" lon="3.96537">
        <ele>168.4</ele>
        <time>2020-06-24T14:43:46Z</time>
      </trkpt>
      <trkpt lat="50.21444" lon="3.96534">
        <ele>168.4</ele>
        <time>2020-06-24T14:43:47Z</time>
      </trkpt>
      <trkpt lat="50.21437" lon="3.96534">
        <ele>168.2</ele>
        <time>2020-06-24T14:43:48Z</time>
      </trkpt>
      <trkpt lat="50.2143" lon="3.96536">
        <ele>168.1</ele>
        <time>2020-06-24T14:43:49Z</time>
      </trkpt>
      <trkpt lat="50.21424" lon="3.96539">
        <ele>168</ele>
        <time>2020-06-24T14:43:50Z</time>
      </trkpt>
      <trkpt lat="50.21417" lon="3.96543">
        <ele>167.9</ele>
        <time>2020-06-24T14:43:51Z</time>
      </trkpt>
      <trkpt lat="50.21411" lon="3.96546">
        <ele>167.9</ele>
        <time>2020-06-24T14:43:52Z</time>
      </trkpt>
      <trkpt lat="50.21405" lon="3.96549">
        <ele>167.9</ele>
        <time>2020-06-24T14:43:53Z</time>
      </trkpt>
      <trkpt lat="50.214" lon="3.96552">
        <ele>167.8</ele>
        <time>2020-06-24T14:43:54Z</time>
      </trkpt>
      <trkpt lat="50.21393" lon="3.96553">
        <ele>167.8</ele>
        <time>2020-06-24T14:43:55Z</time>
      </trkpt>
      <trkpt lat="50.21387" lon="3.96555">
        <ele>167.8</ele>
        <time>2020-06-24T14:43:56Z</time>
      </trkpt>
      <trkpt lat="50.21381" lon="3.96559">
        <ele>167.8</ele>
        <time>2020-06-24T14:43:57Z</time>
      </trkpt>
      <trkpt lat="50.21376" lon="3.96564">
        <ele>167.8</ele>
        <time>2020-06-24T14:43:58Z</time>
      </trkpt>
      <trkpt lat="50.2137" lon="3.96567">
        <ele>167.8</ele>
        <time>2020-06-24T14:43:59Z</time>
      </trkpt>
      <trkpt lat="50.21365" lon="3.9657">
        <ele>167.9</ele>
        <time>2020-06-24T14:44:00Z</time>
      </trkpt>
      <trkpt lat="50.2136" lon="3.96572">
        <ele>167.9</ele>
        <time>2020-06-24T14:44:01Z</time>
      </trkpt>
      <trkpt lat="50.21356" lon="3.96573">
        <ele>168</ele>
        <time>2020-06-24T14:44:02Z</time>
      </trkpt>
      <trkpt lat="50.21352" lon="3.96575">
        <ele>168</ele>
        <time>2020-06-24T14:44:03Z</time>
      </trkpt>
      <trkpt lat="50.21347" lon="3.96572">
        <ele>168.1</ele>
        <time>2020-06-24T14:44:04Z</time>
      </trkpt>
      <trkpt lat="50.21345" lon="3.9657">
        <ele>168.1</ele>
        <time>2020-06-24T14:44:05Z</time>
      </trkpt>
      <trkpt lat="50.21343" lon="3.96569">
        <ele>168.2</ele>
        <time>2020-06-24T14:44:06Z</time>
      </trkpt>
      <trkpt lat="50.21342" lon="3.96569">
        <ele>168.2</ele>
        <time>2020-06-24T14:44:07Z</time>
      </trkpt>
      <trkpt lat="50.21341" lon="3.96569">
        <ele>168.2</ele>
        <time>2020-06-24T14:44:08Z</time>
      </trkpt>
      <trkpt lat="50.2134" lon="3.96569">
        <ele>168.2</ele>
        <time>2020-06-24T14:44:09Z</time>
      </trkpt>
      <trkpt lat="50.21339" lon="3.9657">
        <ele>168.2</ele>
        <time>2020-06-24T14:44:10Z</time>
      </trkpt>
      <trkpt lat="50.21339" lon="3.9657">
        <ele>168.3</ele>
        <time>2020-06-24T14:44:11Z</time>
      </trkpt>
      <trkpt lat="50.21339" lon="3.9657">
        <ele>168.3</ele>
        <time>2020-06-24T14:44:12Z</time>
      </trkpt>
      <trkpt lat="50.21339" lon="3.96571">
        <ele>168.3</ele>
        <time>2020-06-24T14:44:13Z</time>
      </trkpt>
      <trkpt lat="50.21339" lon="3.96572">
        <ele>168.3</ele>
        <time>2020-06-24T14:44:14Z</time>
      </trkpt>
      <trkpt lat="50.21339" lon="3.96571">
        <ele>168.3</ele>
        <time>2020-06-24T14:44:15Z</time>
      </trkpt>
      <trkpt lat="50.21339" lon="3.96572">
        <ele>168.3</ele>
        <time>2020-06-24T14:44:16Z</time>
      </trkpt>
      <trkpt lat="50.21339" lon="3.96572">
        <ele>168.3</ele>
        <time>2020-06-24T14:44:17Z</time>
      </trkpt>
      <trkpt lat="50.21338" lon="3.96571">
        <ele>168.3</ele>
        <time>2020-06-24T14:44:18Z</time>
      </trkpt>
      <trkpt lat="50.21338" lon="3.96572">
        <ele>168.3</ele>
        <time>2020-06-24T14:44:19Z</time>
      </trkpt>
      <trkpt lat="50.21338" lon="3.96573">
        <ele>168.3</ele>
        <time>2020-06-24T14:44:20Z</time>
      </trkpt>
      <trkpt lat="50.21338" lon="3.96572">
        <ele>168.3</ele>
        <time>2020-06-24T14:44:21Z</time>
      </trkpt>
      <trkpt lat="50.2133" lon="3.96581">
        <ele>168.4</ele>
        <time>2020-06-24T14:46:03Z</time>
      </trkpt>
      <trkpt lat="50.2133" lon="3.96582">
        <ele>168.4</ele>
        <time>2020-06-24T14:46:04Z</time>
      </trkpt>
      <trkpt lat="50.2133" lon="3.96584">
        <ele>168.4</ele>
        <time>2020-06-24T14:46:05Z</time>
      </trkpt>
      <trkpt lat="50.2133" lon="3.96586">
        <ele>168.5</ele>
        <time>2020-06-24T14:46:06Z</time>
      </trkpt>
      <trkpt lat="50.2133" lon="3.96588">
        <ele>168.5</ele>
        <time>2020-06-24T14:46:07Z</time>
      </trkpt>
      <trkpt lat="50.21332" lon="3.96592">
        <ele>168.4</ele>
        <time>2020-06-24T14:46:08Z</time>
      </trkpt>
      <trkpt lat="50.21332" lon="3.96595">
        <ele>168.4</ele>
        <time>2020-06-24T14:46:09Z</time>
      </trkpt>
      <trkpt lat="50.21334" lon="3.966">
        <ele>168.3</ele>
        <time>2020-06-24T14:46:10Z</time>
      </trkpt>
      <trkpt lat="50.21334" lon="3.96606">
        <ele>168.3</ele>
        <time>2020-06-24T14:46:11Z</time>
      </trkpt>
      <trkpt lat="50.21334" lon="3.96608">
        <ele>168.2</ele>
        <time>2020-06-24T14:46:12Z</time>
      </trkpt>
      <trkpt lat="50.21335" lon="3.96613">
        <ele>168.2</ele>
        <time>2020-06-24T14:46:13Z</time>
      </trkpt>
      <trkpt lat="50.21335" lon="3.96617">
        <ele>168.1</ele>
        <time>2020-06-24T14:46:14Z</time>
      </trkpt>
      <trkpt lat="50.21336" lon="3.96622">
        <ele>168.1</ele>
        <time>2020-06-24T14:46:15Z</time>
      </trkpt>
      <trkpt lat="50.21337" lon="3.96629">
        <ele>168</ele>
        <time>2020-06-24T14:46:16Z</time>
      </trkpt>
      <trkpt lat="50.21337" lon="3.96634">
        <ele>168</ele>
        <time>2020-06-24T14:46:17Z</time>
      </trkpt>
      <trkpt lat="50.21338" lon="3.96641">
        <ele>167.9</ele>
        <time>2020-06-24T14:46:18Z</time>
      </trkpt>
      <trkpt lat="50.21338" lon="3.96648">
        <ele>167.9</ele>
        <time>2020-06-24T14:46:19Z</time>
      </trkpt>
      <trkpt lat="50.21338" lon="3.96655">
        <ele>167.8</ele>
        <time>2020-06-24T14:46:20Z</time>
      </trkpt>
      <trkpt lat="50.21338" lon="3.96662">
        <ele>167.8</ele>
        <time>2020-06-24T14:46:21Z</time>
      </trkpt>
      <trkpt lat="50.21339" lon="3.96669">
        <ele>167.8</ele>
        <time>2020-06-24T14:46:22Z</time>
      </trkpt>
      <trkpt lat="50.21341" lon="3.96678">
        <ele>167.7</ele>
        <time>2020-06-24T14:46:23Z</time>
      </trkpt>
      <trkpt lat="50.21342" lon="3.96684">
        <ele>167.7</ele>
        <time>2020-06-24T14:46:24Z</time>
      </trkpt>
      <trkpt lat="50.21344" lon="3.9669">
        <ele>167.7</ele>
        <time>2020-06-24T14:46:25Z</time>
      </trkpt>
      <trkpt lat="50.21345" lon="3.96697">
        <ele>167.7</ele>
        <time>2020-06-24T14:46:26Z</time>
      </trkpt>
      <trkpt lat="50.21346" lon="3.96703">
        <ele>167.7</ele>
        <time>2020-06-24T14:46:27Z</time>
      </trkpt>
      <trkpt lat="50.21349" lon="3.96712">
        <ele>167.6</ele>
        <time>2020-06-24T14:46:28Z</time>
      </trkpt>
      <trkpt lat="50.21351" lon="3.96719">
        <ele>167.6</ele>
        <time>2020-06-24T14:46:29Z</time>
      </trkpt>
      <trkpt lat="50.21353" lon="3.96726">
        <ele>167.6</ele>
        <time>2020-06-24T14:46:30Z</time>
      </trkpt>
      <trkpt lat="50.21355" lon="3.96734">
        <ele>167.6</ele>
        <time>2020-06-24T14:46:31Z</time>
      </trkpt>
      <trkpt lat="50.21358" lon="3.96742">
        <ele>167.6</ele>
        <time>2020-06-24T14:46:32Z</time>
      </trkpt>
      <trkpt lat="50.2136" lon="3.9675">
        <ele>167.6</ele>
        <time>2020-06-24T14:46:33Z</time>
      </trkpt>
      <trkpt lat="50.21361" lon="3.96757">
        <ele>167.6</ele>
        <time>2020-06-24T14:46:34Z</time>
      </trkpt>
      <trkpt lat="50.21363" lon="3.96764">
        <ele>167.6</ele>
        <time>2020-06-24T14:46:35Z</time>
      </trkpt>
      <trkpt lat="50.21365" lon="3.96772">
        <ele>167.6</ele>
        <time>2020-06-24T14:46:36Z</time>
      </trkpt>
      <trkpt lat="50.21367" lon="3.96778">
        <ele>167.6</ele>
        <time>2020-06-24T14:46:37Z</time>
      </trkpt>
      <trkpt lat="50.21369" lon="3.96786">
        <ele>167.6</ele>
        <time>2020-06-24T14:46:38Z</time>
      </trkpt>
      <trkpt lat="50.21371" lon="3.96793">
        <ele>167.6</ele>
        <time>2020-06-24T14:46:39Z</time>
      </trkpt>
      <trkpt lat="50.21374" lon="3.96801">
        <ele>167.7</ele>
        <time>2020-06-24T14:46:40Z</time>
      </trkpt>
      <trkpt lat="50.21377" lon="3.96809">
        <ele>167.7</ele>
        <time>2020-06-24T14:46:41Z</time>
      </trkpt>
      <trkpt lat="50.2138" lon="3.96816">
        <ele>167.7</ele>
        <time>2020-06-24T14:46:42Z</time>
      </trkpt>
      <trkpt lat="50.21382" lon="3.96823">
        <ele>167.7</ele>
        <time>2020-06-24T14:46:43Z</time>
      </trkpt>
      <trkpt lat="50.21384" lon="3.96831">
        <ele>167.7</ele>
        <time>2020-06-24T14:46:44Z</time>
      </trkpt>
      <trkpt lat="50.21387" lon="3.96838">
        <ele>167.8</ele>
        <time>2020-06-24T14:46:45Z</time>
      </trkpt>
      <trkpt lat="50.2139" lon="3.96845">
        <ele>167.8</ele>
        <time>2020-06-24T14:46:46Z</time>
      </trkpt>
      <trkpt lat="50.21393" lon="3.96852">
        <ele>167.9</ele>
        <time>2020-06-24T14:46:47Z</time>
      </trkpt>
      <trkpt lat="50.21395" lon="3.9686">
        <ele>168</ele>
        <time>2020-06-24T14:46:48Z</time>
      </trkpt>
      <trkpt lat="50.21397" lon="3.96867">
        <ele>168</ele>
        <time>2020-06-24T14:46:49Z</time>
      </trkpt>
      <trkpt lat="50.214" lon="3.96873">
        <ele>168.1</ele>
        <time>2020-06-24T14:46:50Z</time>
      </trkpt>
      <trkpt lat="50.21402" lon="3.96879">
        <ele>168.2</ele>
        <time>2020-06-24T14:46:51Z</time>
      </trkpt>
      <trkpt lat="50.21404" lon="3.96885">
        <ele>168.3</ele>
        <time>2020-06-24T14:46:52Z</time>
      </trkpt>
      <trkpt lat="50.21405" lon="3.9689">
        <ele>168.4</ele>
        <time>2020-06-24T14:46:53Z</time>
      </trkpt>
      <trkpt lat="50.21407" lon="3.96895">
        <ele>168.6</ele>
        <time>2020-06-24T14:46:54Z</time>
      </trkpt>
      <trkpt lat="50.21408" lon="3.969">
        <ele>168.5</ele>
        <time>2020-06-24T14:46:55Z</time>
      </trkpt>
      <trkpt lat="50.21409" lon="3.96906">
        <ele>168.5</ele>
        <time>2020-06-24T14:46:56Z</time>
      </trkpt>
      <trkpt lat="50.2141" lon="3.96912">
        <ele>168.5</ele>
        <time>2020-06-24T14:46:57Z</time>
      </trkpt>
      <trkpt lat="50.2141" lon="3.96917">
        <ele>168.4</ele>
        <time>2020-06-24T14:46:58Z</time>
      </trkpt>
      <trkpt lat="50.21409" lon="3.96923">
        <ele>168.4</ele>
        <time>2020-06-24T14:46:59Z</time>
      </trkpt>
      <trkpt lat="50.21409" lon="3.9693">
        <ele>168.4</ele>
        <time>2020-06-24T14:47:00Z</time>
      </trkpt>
      <trkpt lat="50.2141" lon="3.96936">
        <ele>168.4</ele>
        <time>2020-06-24T14:47:01Z</time>
      </trkpt>
      <trkpt lat="50.2141" lon="3.96943">
        <ele>168.4</ele>
        <time>2020-06-24T14:47:02Z</time>
      </trkpt>
      <trkpt lat="50.2141" lon="3.96949">
        <ele>168.4</ele>
        <time>2020-06-24T14:47:03Z</time>
      </trkpt>
      <trkpt lat="50.21409" lon="3.96956">
        <ele>168.5</ele>
        <time>2020-06-24T14:47:04Z</time>
      </trkpt>
      <trkpt lat="50.21409" lon="3.96963">
        <ele>168.5</ele>
        <time>2020-06-24T14:47:05Z</time>
      </trkpt>
      <trkpt lat="50.21409" lon="3.9697">
        <ele>168.6</ele>
        <time>2020-06-24T14:47:06Z</time>
      </trkpt>
      <trkpt lat="50.21409" lon="3.96977">
        <ele>168.7</ele>
        <time>2020-06-24T14:47:07Z</time>
      </trkpt>
      <trkpt lat="50.21408" lon="3.96984">
        <ele>168.7</ele>
        <time>2020-06-24T14:47:08Z</time>
      </trkpt>
      <trkpt lat="50.21408" lon="3.96991">
        <ele>168.8</ele>
        <time>2020-06-24T14:47:09Z</time>
      </trkpt>
      <trkpt lat="50.21408" lon="3.96999">
        <ele>168.9</ele>
        <time>2020-06-24T14:47:10Z</time>
      </trkpt>
      <trkpt lat="50.21408" lon="3.97006">
        <ele>169.1</ele>
        <time>2020-06-24T14:47:11Z</time>
      </trkpt>
      <trkpt lat="50.21408" lon="3.97013">
        <ele>169.2</ele>
        <time>2020-06-24T14:47:12Z</time>
      </trkpt>
      <trkpt lat="50.21408" lon="3.97021">
        <ele>169.3</ele>
        <time>2020-06-24T14:47:13Z</time>
      </trkpt>
      <trkpt lat="50.21408" lon="3.97028">
        <ele>169.4</ele>
        <time>2020-06-24T14:47:14Z</time>
      </trkpt>
      <trkpt lat="50.21407" lon="3.97036">
        <ele>169.6</ele>
        <time>2020-06-24T14:47:15Z</time>
      </trkpt>
      <trkpt lat="50.21407" lon="3.97044">
        <ele>169.7</ele>
        <time>2020-06-24T14:47:16Z</time>
      </trkpt>
      <trkpt lat="50.21408" lon="3.97052">
        <ele>169.8</ele>
        <time>2020-06-24T14:47:17Z</time>
      </trkpt>
      <trkpt lat="50.21407" lon="3.97059">
        <ele>170</ele>
        <time>2020-06-24T14:47:18Z</time>
      </trkpt>
      <trkpt lat="50.21407" lon="3.97065">
        <ele>170.1</ele>
        <time>2020-06-24T14:47:19Z</time>
      </trkpt>
      <trkpt lat="50.21407" lon="3.97071">
        <ele>170.1</ele>
        <time>2020-06-24T14:47:20Z</time>
      </trkpt>
      <trkpt lat="50.21407" lon="3.97079">
        <ele>170.2</ele>
        <time>2020-06-24T14:47:21Z</time>
      </trkpt>
      <trkpt lat="50.21406" lon="3.97088">
        <ele>170.4</ele>
        <time>2020-06-24T14:47:22Z</time>
      </trkpt>
      <trkpt lat="50.21406" lon="3.97095">
        <ele>170.4</ele>
        <time>2020-06-24T14:47:23Z</time>
      </trkpt>
      <trkpt lat="50.21406" lon="3.97101">
        <ele>170.6</ele>
        <time>2020-06-24T14:47:24Z</time>
      </trkpt>
      <trkpt lat="50.21406" lon="3.97108">
        <ele>170.7</ele>
        <time>2020-06-24T14:47:25Z</time>
      </trkpt>
      <trkpt lat="50.21405" lon="3.97113">
        <ele>170.8</ele>
        <time>2020-06-24T14:47:26Z</time>
      </trkpt>
      <trkpt lat="50.21404" lon="3.9712">
        <ele>170.9</ele>
        <time>2020-06-24T14:47:27Z</time>
      </trkpt>
      <trkpt lat="50.21403" lon="3.97126">
        <ele>171.1</ele>
        <time>2020-06-24T14:47:28Z</time>
      </trkpt>
      <trkpt lat="50.21403" lon="3.97133">
        <ele>171.2</ele>
        <time>2020-06-24T14:47:29Z</time>
      </trkpt>
      <trkpt lat="50.21402" lon="3.97137">
        <ele>171.3</ele>
        <time>2020-06-24T14:47:30Z</time>
      </trkpt>
      <trkpt lat="50.214" lon="3.97145">
        <ele>171.5</ele>
        <time>2020-06-24T14:47:31Z</time>
      </trkpt>
      <trkpt lat="50.21399" lon="3.97152">
        <ele>171.7</ele>
        <time>2020-06-24T14:47:32Z</time>
      </trkpt>
      <trkpt lat="50.21397" lon="3.97159">
        <ele>171.9</ele>
        <time>2020-06-24T14:47:33Z</time>
      </trkpt>
      <trkpt lat="50.21396" lon="3.97165">
        <ele>172</ele>
        <time>2020-06-24T14:47:34Z</time>
      </trkpt>
      <trkpt lat="50.21394" lon="3.97172">
        <ele>172.2</ele>
        <time>2020-06-24T14:47:35Z</time>
      </trkpt>
      <trkpt lat="50.21392" lon="3.97178">
        <ele>172.3</ele>
        <time>2020-06-24T14:47:36Z</time>
      </trkpt>
      <trkpt lat="50.21391" lon="3.97185">
        <ele>172.4</ele>
        <time>2020-06-24T14:47:37Z</time>
      </trkpt>
      <trkpt lat="50.2139" lon="3.97189">
        <ele>172.4</ele>
        <time>2020-06-24T14:47:38Z</time>
      </trkpt>
      <trkpt lat="50.21389" lon="3.97195">
        <ele>172.5</ele>
        <time>2020-06-24T14:47:39Z</time>
      </trkpt>
      <trkpt lat="50.21388" lon="3.97201">
        <ele>172.6</ele>
        <time>2020-06-24T14:47:40Z</time>
      </trkpt>
      <trkpt lat="50.21386" lon="3.9721">
        <ele>172.8</ele>
        <time>2020-06-24T14:47:41Z</time>
      </trkpt>
      <trkpt lat="50.21384" lon="3.97215">
        <ele>172.9</ele>
        <time>2020-06-24T14:47:42Z</time>
      </trkpt>
      <trkpt lat="50.21383" lon="3.97221">
        <ele>173</ele>
        <time>2020-06-24T14:47:43Z</time>
      </trkpt>
      <trkpt lat="50.21381" lon="3.97227">
        <ele>173.1</ele>
        <time>2020-06-24T14:47:44Z</time>
      </trkpt>
      <trkpt lat="50.21379" lon="3.97234">
        <ele>173.3</ele>
        <time>2020-06-24T14:47:45Z</time>
      </trkpt>
      <trkpt lat="50.21378" lon="3.9724">
        <ele>173.4</ele>
        <time>2020-06-24T14:47:46Z</time>
      </trkpt>
      <trkpt lat="50.21377" lon="3.97246">
        <ele>173.5</ele>
        <time>2020-06-24T14:47:47Z</time>
      </trkpt>
      <trkpt lat="50.21375" lon="3.97252">
        <ele>173.6</ele>
        <time>2020-06-24T14:47:48Z</time>
      </trkpt>
      <trkpt lat="50.21373" lon="3.97258">
        <ele>173.7</ele>
        <time>2020-06-24T14:47:49Z</time>
      </trkpt>
      <trkpt lat="50.21372" lon="3.97265">
        <ele>173.9</ele>
        <time>2020-06-24T14:47:50Z</time>
      </trkpt>
      <trkpt lat="50.2137" lon="3.97272">
        <ele>174</ele>
        <time>2020-06-24T14:47:51Z</time>
      </trkpt>
      <trkpt lat="50.21369" lon="3.97278">
        <ele>174</ele>
        <time>2020-06-24T14:47:52Z</time>
      </trkpt>
      <trkpt lat="50.21368" lon="3.97284">
        <ele>174.1</ele>
        <time>2020-06-24T14:47:53Z</time>
      </trkpt>
      <trkpt lat="50.21367" lon="3.9729">
        <ele>174.2</ele>
        <time>2020-06-24T14:47:54Z</time>
      </trkpt>
      <trkpt lat="50.21366" lon="3.97295">
        <ele>174.3</ele>
        <time>2020-06-24T14:47:55Z</time>
      </trkpt>
      <trkpt lat="50.21364" lon="3.97302">
        <ele>174.4</ele>
        <time>2020-06-24T14:47:56Z</time>
      </trkpt>
      <trkpt lat="50.21362" lon="3.97309">
        <ele>174.5</ele>
        <time>2020-06-24T14:47:57Z</time>
      </trkpt>
      <trkpt lat="50.2136" lon="3.97315">
        <ele>174.6</ele>
        <time>2020-06-24T14:47:58Z</time>
      </trkpt>
      <trkpt lat="50.21358" lon="3.97322">
        <ele>174.7</ele>
        <time>2020-06-24T14:47:59Z</time>
      </trkpt>
      <trkpt lat="50.21357" lon="3.97329">
        <ele>174.8</ele>
        <time>2020-06-24T14:48:00Z</time>
      </trkpt>
      <trkpt lat="50.21356" lon="3.97335">
        <ele>174.8</ele>
        <time>2020-06-24T14:48:01Z</time>
      </trkpt>
      <trkpt lat="50.21355" lon="3.97341">
        <ele>174.9</ele>
        <time>2020-06-24T14:48:02Z</time>
      </trkpt>
      <trkpt lat="50.21353" lon="3.97348">
        <ele>174.9</ele>
        <time>2020-06-24T14:48:03Z</time>
      </trkpt>
      <trkpt lat="50.21352" lon="3.97353">
        <ele>175</ele>
        <time>2020-06-24T14:48:04Z</time>
      </trkpt>
      <trkpt lat="50.21351" lon="3.97359">
        <ele>175</ele>
        <time>2020-06-24T14:48:05Z</time>
      </trkpt>
      <trkpt lat="50.2135" lon="3.97366">
        <ele>175</ele>
        <time>2020-06-24T14:48:06Z</time>
      </trkpt>
      <trkpt lat="50.21348" lon="3.97375">
        <ele>175.1</ele>
        <time>2020-06-24T14:48:07Z</time>
      </trkpt>
      <trkpt lat="50.21347" lon="3.97381">
        <ele>175.1</ele>
        <time>2020-06-24T14:48:08Z</time>
      </trkpt>
      <trkpt lat="50.21345" lon="3.97388">
        <ele>175.2</ele>
        <time>2020-06-24T14:48:09Z</time>
      </trkpt>
      <trkpt lat="50.21344" lon="3.97396">
        <ele>175.3</ele>
        <time>2020-06-24T14:48:10Z</time>
      </trkpt>
      <trkpt lat="50.21342" lon="3.97403">
        <ele>175.3</ele>
        <time>2020-06-24T14:48:11Z</time>
      </trkpt>
      <trkpt lat="50.2134" lon="3.97409">
        <ele>175.3</ele>
        <time>2020-06-24T14:48:12Z</time>
      </trkpt>
      <trkpt lat="50.21339" lon="3.97415">
        <ele>175.4</ele>
        <time>2020-06-24T14:48:13Z</time>
      </trkpt>
      <trkpt lat="50.21338" lon="3.97423">
        <ele>175.4</ele>
        <time>2020-06-24T14:48:14Z</time>
      </trkpt>
      <trkpt lat="50.21336" lon="3.97428">
        <ele>175.5</ele>
        <time>2020-06-24T14:48:15Z</time>
      </trkpt>
      <trkpt lat="50.21334" lon="3.97435">
        <ele>175.5</ele>
        <time>2020-06-24T14:48:16Z</time>
      </trkpt>
      <trkpt lat="50.21333" lon="3.97441">
        <ele>175.6</ele>
        <time>2020-06-24T14:48:17Z</time>
      </trkpt>
      <trkpt lat="50.21332" lon="3.97448">
        <ele>175.7</ele>
        <time>2020-06-24T14:48:18Z</time>
      </trkpt>
      <trkpt lat="50.2133" lon="3.97455">
        <ele>175.8</ele>
        <time>2020-06-24T14:48:19Z</time>
      </trkpt>
      <trkpt lat="50.21328" lon="3.97462">
        <ele>175.8</ele>
        <time>2020-06-24T14:48:20Z</time>
      </trkpt>
      <trkpt lat="50.21326" lon="3.97469">
        <ele>175.9</ele>
        <time>2020-06-24T14:48:21Z</time>
      </trkpt>
      <trkpt lat="50.21324" lon="3.97478">
        <ele>175.9</ele>
        <time>2020-06-24T14:48:22Z</time>
      </trkpt>
      <trkpt lat="50.21323" lon="3.97485">
        <ele>176</ele>
        <time>2020-06-24T14:48:23Z</time>
      </trkpt>
      <trkpt lat="50.21321" lon="3.97492">
        <ele>176</ele>
        <time>2020-06-24T14:48:24Z</time>
      </trkpt>
      <trkpt lat="50.21319" lon="3.975">
        <ele>176.1</ele>
        <time>2020-06-24T14:48:25Z</time>
      </trkpt>
      <trkpt lat="50.21317" lon="3.97508">
        <ele>176.2</ele>
        <time>2020-06-24T14:48:26Z</time>
      </trkpt>
      <trkpt lat="50.21315" lon="3.97515">
        <ele>176.3</ele>
        <time>2020-06-24T14:48:27Z</time>
      </trkpt>
      <trkpt lat="50.21313" lon="3.97522">
        <ele>176.4</ele>
        <time>2020-06-24T14:48:28Z</time>
      </trkpt>
      <trkpt lat="50.21312" lon="3.97529">
        <ele>176.4</ele>
        <time>2020-06-24T14:48:29Z</time>
      </trkpt>
      <trkpt lat="50.2131" lon="3.97534">
        <ele>176.5</ele>
        <time>2020-06-24T14:48:30Z</time>
      </trkpt>
      <trkpt lat="50.21308" lon="3.97541">
        <ele>176.5</ele>
        <time>2020-06-24T14:48:31Z</time>
      </trkpt>
      <trkpt lat="50.21306" lon="3.97548">
        <ele>176.6</ele>
        <time>2020-06-24T14:48:32Z</time>
      </trkpt>
      <trkpt lat="50.21303" lon="3.97555">
        <ele>176.7</ele>
        <time>2020-06-24T14:48:33Z</time>
      </trkpt>
      <trkpt lat="50.21301" lon="3.97563">
        <ele>176.8</ele>
        <time>2020-06-24T14:48:34Z</time>
      </trkpt>
      <trkpt lat="50.21299" lon="3.9757">
        <ele>176.8</ele>
        <time>2020-06-24T14:48:35Z</time>
      </trkpt>
      <trkpt lat="50.21297" lon="3.97577">
        <ele>177</ele>
        <time>2020-06-24T14:48:36Z</time>
      </trkpt>
      <trkpt lat="50.21295" lon="3.97584">
        <ele>177</ele>
        <time>2020-06-24T14:48:37Z</time>
      </trkpt>
      <trkpt lat="50.21294" lon="3.97592">
        <ele>177.1</ele>
        <time>2020-06-24T14:48:38Z</time>
      </trkpt>
      <trkpt lat="50.21292" lon="3.97598">
        <ele>177.2</ele>
        <time>2020-06-24T14:48:39Z</time>
      </trkpt>
      <trkpt lat="50.2129" lon="3.97605">
        <ele>177.3</ele>
        <time>2020-06-24T14:48:40Z</time>
      </trkpt>
      <trkpt lat="50.21288" lon="3.97612">
        <ele>177.4</ele>
        <time>2020-06-24T14:48:41Z</time>
      </trkpt>
      <trkpt lat="50.21286" lon="3.97619">
        <ele>177.5</ele>
        <time>2020-06-24T14:48:42Z</time>
      </trkpt>
      <trkpt lat="50.21284" lon="3.97625">
        <ele>177.6</ele>
        <time>2020-06-24T14:48:43Z</time>
      </trkpt>
      <trkpt lat="50.21282" lon="3.97632">
        <ele>177.7</ele>
        <time>2020-06-24T14:48:44Z</time>
      </trkpt>
      <trkpt lat="50.2128" lon="3.97639">
        <ele>177.8</ele>
        <time>2020-06-24T14:48:45Z</time>
      </trkpt>
      <trkpt lat="50.21278" lon="3.97646">
        <ele>177.9</ele>
        <time>2020-06-24T14:48:46Z</time>
      </trkpt>
      <trkpt lat="50.21276" lon="3.97652">
        <ele>178</ele>
        <time>2020-06-24T14:48:47Z</time>
      </trkpt>
      <trkpt lat="50.21274" lon="3.97658">
        <ele>178.1</ele>
        <time>2020-06-24T14:48:48Z</time>
      </trkpt>
      <trkpt lat="50.21272" lon="3.97664">
        <ele>178.2</ele>
        <time>2020-06-24T14:48:49Z</time>
      </trkpt>
      <trkpt lat="50.2127" lon="3.97671">
        <ele>178.4</ele>
        <time>2020-06-24T14:48:50Z</time>
      </trkpt>
      <trkpt lat="50.21268" lon="3.97677">
        <ele>178.5</ele>
        <time>2020-06-24T14:48:51Z</time>
      </trkpt>
      <trkpt lat="50.21266" lon="3.97683">
        <ele>178.6</ele>
        <time>2020-06-24T14:48:52Z</time>
      </trkpt>
      <trkpt lat="50.21264" lon="3.97689">
        <ele>178.7</ele>
        <time>2020-06-24T14:48:53Z</time>
      </trkpt>
      <trkpt lat="50.21262" lon="3.97695">
        <ele>178.8</ele>
        <time>2020-06-24T14:48:54Z</time>
      </trkpt>
      <trkpt lat="50.2126" lon="3.97701">
        <ele>179</ele>
        <time>2020-06-24T14:48:55Z</time>
      </trkpt>
      <trkpt lat="50.21258" lon="3.97706">
        <ele>179</ele>
        <time>2020-06-24T14:48:56Z</time>
      </trkpt>
      <trkpt lat="50.21256" lon="3.97712">
        <ele>179.1</ele>
        <time>2020-06-24T14:48:57Z</time>
      </trkpt>
      <trkpt lat="50.21254" lon="3.97717">
        <ele>179.2</ele>
        <time>2020-06-24T14:48:58Z</time>
      </trkpt>
      <trkpt lat="50.21252" lon="3.97723">
        <ele>179.2</ele>
        <time>2020-06-24T14:48:59Z</time>
      </trkpt>
      <trkpt lat="50.2125" lon="3.97729">
        <ele>179.2</ele>
        <time>2020-06-24T14:49:00Z</time>
      </trkpt>
      <trkpt lat="50.21248" lon="3.97735">
        <ele>179.2</ele>
        <time>2020-06-24T14:49:01Z</time>
      </trkpt>
      <trkpt lat="50.21245" lon="3.97741">
        <ele>179.3</ele>
        <time>2020-06-24T14:49:02Z</time>
      </trkpt>
      <trkpt lat="50.21243" lon="3.97747">
        <ele>179.2</ele>
        <time>2020-06-24T14:49:03Z</time>
      </trkpt>
      <trkpt lat="50.21241" lon="3.97753">
        <ele>179.2</ele>
        <time>2020-06-24T14:49:04Z</time>
      </trkpt>
      <trkpt lat="50.21238" lon="3.9776">
        <ele>179.2</ele>
        <time>2020-06-24T14:49:05Z</time>
      </trkpt>
      <trkpt lat="50.21236" lon="3.97766">
        <ele>179.2</ele>
        <time>2020-06-24T14:49:06Z</time>
      </trkpt>
      <trkpt lat="50.21233" lon="3.97772">
        <ele>179.2</ele>
        <time>2020-06-24T14:49:07Z</time>
      </trkpt>
      <trkpt lat="50.21231" lon="3.97778">
        <ele>179.2</ele>
        <time>2020-06-24T14:49:08Z</time>
      </trkpt>
      <trkpt lat="50.21228" lon="3.97786">
        <ele>179.1</ele>
        <time>2020-06-24T14:49:09Z</time>
      </trkpt>
      <trkpt lat="50.21226" lon="3.97792">
        <ele>179.1</ele>
        <time>2020-06-24T14:49:10Z</time>
      </trkpt>
      <trkpt lat="50.21224" lon="3.97799">
        <ele>179</ele>
        <time>2020-06-24T14:49:11Z</time>
      </trkpt>
      <trkpt lat="50.21221" lon="3.97806">
        <ele>178.9</ele>
        <time>2020-06-24T14:49:12Z</time>
      </trkpt>
      <trkpt lat="50.21218" lon="3.97813">
        <ele>178.9</ele>
        <time>2020-06-24T14:49:13Z</time>
      </trkpt>
      <trkpt lat="50.21215" lon="3.97821">
        <ele>178.8</ele>
        <time>2020-06-24T14:49:14Z</time>
      </trkpt>
      <trkpt lat="50.21212" lon="3.97828">
        <ele>178.7</ele>
        <time>2020-06-24T14:49:15Z</time>
      </trkpt>
      <trkpt lat="50.21208" lon="3.97835">
        <ele>178.6</ele>
        <time>2020-06-24T14:49:16Z</time>
      </trkpt>
      <trkpt lat="50.21204" lon="3.97843">
        <ele>178.5</ele>
        <time>2020-06-24T14:49:17Z</time>
      </trkpt>
      <trkpt lat="50.21201" lon="3.97851">
        <ele>178.4</ele>
        <time>2020-06-24T14:49:18Z</time>
      </trkpt>
      <trkpt lat="50.21197" lon="3.97859">
        <ele>178.4</ele>
        <time>2020-06-24T14:49:19Z</time>
      </trkpt>
      <trkpt lat="50.21195" lon="3.97865">
        <ele>178.4</ele>
        <time>2020-06-24T14:49:20Z</time>
      </trkpt>
      <trkpt lat="50.2119" lon="3.97873">
        <ele>178.4</ele>
        <time>2020-06-24T14:49:21Z</time>
      </trkpt>
      <trkpt lat="50.21187" lon="3.9788">
        <ele>178.3</ele>
        <time>2020-06-24T14:49:22Z</time>
      </trkpt>
      <trkpt lat="50.21183" lon="3.97889">
        <ele>178.3</ele>
        <time>2020-06-24T14:49:23Z</time>
      </trkpt>
      <trkpt lat="50.21179" lon="3.97897">
        <ele>178.3</ele>
        <time>2020-06-24T14:49:24Z</time>
      </trkpt>
      <trkpt lat="50.21176" lon="3.97905">
        <ele>178.3</ele>
        <time>2020-06-24T14:49:25Z</time>
      </trkpt>
      <trkpt lat="50.21174" lon="3.97914">
        <ele>178.3</ele>
        <time>2020-06-24T14:49:26Z</time>
      </trkpt>
      <trkpt lat="50.21172" lon="3.97922">
        <ele>178.3</ele>
        <time>2020-06-24T14:49:27Z</time>
      </trkpt>
      <trkpt lat="50.2117" lon="3.9793">
        <ele>178.3</ele>
        <time>2020-06-24T14:49:28Z</time>
      </trkpt>
      <trkpt lat="50.21168" lon="3.97937">
        <ele>178.3</ele>
        <time>2020-06-24T14:49:29Z</time>
      </trkpt>
      <trkpt lat="50.21166" lon="3.97944">
        <ele>178.3</ele>
        <time>2020-06-24T14:49:30Z</time>
      </trkpt>
      <trkpt lat="50.21164" lon="3.97954">
        <ele>178.3</ele>
        <time>2020-06-24T14:49:31Z</time>
      </trkpt>
      <trkpt lat="50.21162" lon="3.97963">
        <ele>178.3</ele>
        <time>2020-06-24T14:49:32Z</time>
      </trkpt>
      <trkpt lat="50.21162" lon="3.97972">
        <ele>178.3</ele>
        <time>2020-06-24T14:49:33Z</time>
      </trkpt>
      <trkpt lat="50.21161" lon="3.97981">
        <ele>178.3</ele>
        <time>2020-06-24T14:49:34Z</time>
      </trkpt>
      <trkpt lat="50.2116" lon="3.9799">
        <ele>178.3</ele>
        <time>2020-06-24T14:49:35Z</time>
      </trkpt>
      <trkpt lat="50.2116" lon="3.97998">
        <ele>178.3</ele>
        <time>2020-06-24T14:49:36Z</time>
      </trkpt>
      <trkpt lat="50.21159" lon="3.98007">
        <ele>178.4</ele>
        <time>2020-06-24T14:49:37Z</time>
      </trkpt>
      <trkpt lat="50.21158" lon="3.98016">
        <ele>178.4</ele>
        <time>2020-06-24T14:49:38Z</time>
      </trkpt>
      <trkpt lat="50.21157" lon="3.98024">
        <ele>178.5</ele>
        <time>2020-06-24T14:49:39Z</time>
      </trkpt>
      <trkpt lat="50.21156" lon="3.98032">
        <ele>178.5</ele>
        <time>2020-06-24T14:49:40Z</time>
      </trkpt>
      <trkpt lat="50.21156" lon="3.9804">
        <ele>178.6</ele>
        <time>2020-06-24T14:49:41Z</time>
      </trkpt>
      <trkpt lat="50.21155" lon="3.98048">
        <ele>178.6</ele>
        <time>2020-06-24T14:49:42Z</time>
      </trkpt>
      <trkpt lat="50.21155" lon="3.98054">
        <ele>178.7</ele>
        <time>2020-06-24T14:49:43Z</time>
      </trkpt>
      <trkpt lat="50.21155" lon="3.98061">
        <ele>178.7</ele>
        <time>2020-06-24T14:49:44Z</time>
      </trkpt>
      <trkpt lat="50.21154" lon="3.98071">
        <ele>178.8</ele>
        <time>2020-06-24T14:49:45Z</time>
      </trkpt>
      <trkpt lat="50.21153" lon="3.98078">
        <ele>178.8</ele>
        <time>2020-06-24T14:49:46Z</time>
      </trkpt>
      <trkpt lat="50.21153" lon="3.98086">
        <ele>178.9</ele>
        <time>2020-06-24T14:49:47Z</time>
      </trkpt>
      <trkpt lat="50.21152" lon="3.98094">
        <ele>179</ele>
        <time>2020-06-24T14:49:48Z</time>
      </trkpt>
      <trkpt lat="50.21152" lon="3.98102">
        <ele>179</ele>
        <time>2020-06-24T14:49:49Z</time>
      </trkpt>
      <trkpt lat="50.21151" lon="3.9811">
        <ele>179.1</ele>
        <time>2020-06-24T14:49:50Z</time>
      </trkpt>
      <trkpt lat="50.21151" lon="3.98118">
        <ele>179.2</ele>
        <time>2020-06-24T14:49:51Z</time>
      </trkpt>
      <trkpt lat="50.2115" lon="3.98126">
        <ele>179.2</ele>
        <time>2020-06-24T14:49:52Z</time>
      </trkpt>
      <trkpt lat="50.2115" lon="3.98135">
        <ele>179.3</ele>
        <time>2020-06-24T14:49:53Z</time>
      </trkpt>
      <trkpt lat="50.21149" lon="3.98144">
        <ele>179.4</ele>
        <time>2020-06-24T14:49:54Z</time>
      </trkpt>
      <trkpt lat="50.21149" lon="3.9815">
        <ele>179.5</ele>
        <time>2020-06-24T14:49:55Z</time>
      </trkpt>
      <trkpt lat="50.21148" lon="3.98159">
        <ele>179.6</ele>
        <time>2020-06-24T14:49:56Z</time>
      </trkpt>
      <trkpt lat="50.21148" lon="3.98167">
        <ele>179.7</ele>
        <time>2020-06-24T14:49:57Z</time>
      </trkpt>
      <trkpt lat="50.21147" lon="3.98176">
        <ele>179.8</ele>
        <time>2020-06-24T14:49:58Z</time>
      </trkpt>
      <trkpt lat="50.21147" lon="3.98184">
        <ele>179.9</ele>
        <time>2020-06-24T14:49:59Z</time>
      </trkpt>
      <trkpt lat="50.21146" lon="3.98191">
        <ele>180</ele>
        <time>2020-06-24T14:50:00Z</time>
      </trkpt>
      <trkpt lat="50.21146" lon="3.98199">
        <ele>180.1</ele>
        <time>2020-06-24T14:50:01Z</time>
      </trkpt>
      <trkpt lat="50.21145" lon="3.98206">
        <ele>180.2</ele>
        <time>2020-06-24T14:50:02Z</time>
      </trkpt>
      <trkpt lat="50.21144" lon="3.98214">
        <ele>180.4</ele>
        <time>2020-06-24T14:50:03Z</time>
      </trkpt>
      <trkpt lat="50.21143" lon="3.98223">
        <ele>180.5</ele>
        <time>2020-06-24T14:50:04Z</time>
      </trkpt>
      <trkpt lat="50.21143" lon="3.9823">
        <ele>180.7</ele>
        <time>2020-06-24T14:50:05Z</time>
      </trkpt>
      <trkpt lat="50.21142" lon="3.98237">
        <ele>180.9</ele>
        <time>2020-06-24T14:50:06Z</time>
      </trkpt>
      <trkpt lat="50.21142" lon="3.98244">
        <ele>181.1</ele>
        <time>2020-06-24T14:50:07Z</time>
      </trkpt>
      <trkpt lat="50.21141" lon="3.98252">
        <ele>181.3</ele>
        <time>2020-06-24T14:50:08Z</time>
      </trkpt>
      <trkpt lat="50.21141" lon="3.98259">
        <ele>181.5</ele>
        <time>2020-06-24T14:50:09Z</time>
      </trkpt>
      <trkpt lat="50.21142" lon="3.98267">
        <ele>181.7</ele>
        <time>2020-06-24T14:50:10Z</time>
      </trkpt>
      <trkpt lat="50.21144" lon="3.98275">
        <ele>182</ele>
        <time>2020-06-24T14:50:11Z</time>
      </trkpt>
      <trkpt lat="50.21145" lon="3.9828">
        <ele>182.1</ele>
        <time>2020-06-24T14:50:12Z</time>
      </trkpt>
      <trkpt lat="50.21147" lon="3.98285">
        <ele>182.3</ele>
        <time>2020-06-24T14:50:13Z</time>
      </trkpt>
      <trkpt lat="50.2115" lon="3.98291">
        <ele>182.4</ele>
        <time>2020-06-24T14:50:14Z</time>
      </trkpt>
      <trkpt lat="50.21152" lon="3.98295">
        <ele>182.6</ele>
        <time>2020-06-24T14:50:15Z</time>
      </trkpt>
      <trkpt lat="50.21155" lon="3.98298">
        <ele>182.7</ele>
        <time>2020-06-24T14:50:16Z</time>
      </trkpt>
      <trkpt lat="50.21159" lon="3.98302">
        <ele>182.9</ele>
        <time>2020-06-24T14:50:17Z</time>
      </trkpt>
      <trkpt lat="50.21161" lon="3.98305">
        <ele>183</ele>
        <time>2020-06-24T14:50:18Z</time>
      </trkpt>
      <trkpt lat="50.21164" lon="3.9831">
        <ele>183.2</ele>
        <time>2020-06-24T14:50:19Z</time>
      </trkpt>
      <trkpt lat="50.21166" lon="3.98313">
        <ele>183.3</ele>
        <time>2020-06-24T14:50:20Z</time>
      </trkpt>
      <trkpt lat="50.21169" lon="3.98318">
        <ele>183.4</ele>
        <time>2020-06-24T14:50:21Z</time>
      </trkpt>
      <trkpt lat="50.2117" lon="3.98322">
        <ele>183.6</ele>
        <time>2020-06-24T14:50:22Z</time>
      </trkpt>
      <trkpt lat="50.21172" lon="3.98328">
        <ele>183.6</ele>
        <time>2020-06-24T14:50:23Z</time>
      </trkpt>
      <trkpt lat="50.21173" lon="3.98335">
        <ele>183.7</ele>
        <time>2020-06-24T14:50:24Z</time>
      </trkpt>
      <trkpt lat="50.21174" lon="3.98341">
        <ele>183.8</ele>
        <time>2020-06-24T14:50:25Z</time>
      </trkpt>
      <trkpt lat="50.21175" lon="3.98348">
        <ele>183.9</ele>
        <time>2020-06-24T14:50:26Z</time>
      </trkpt>
      <trkpt lat="50.21175" lon="3.98353">
        <ele>183.9</ele>
        <time>2020-06-24T14:50:27Z</time>
      </trkpt>
      <trkpt lat="50.21175" lon="3.98358">
        <ele>184</ele>
        <time>2020-06-24T14:50:28Z</time>
      </trkpt>
      <trkpt lat="50.21175" lon="3.98365">
        <ele>184.1</ele>
        <time>2020-06-24T14:50:29Z</time>
      </trkpt>
      <trkpt lat="50.21174" lon="3.98371">
        <ele>184.3</ele>
        <time>2020-06-24T14:50:30Z</time>
      </trkpt>
      <trkpt lat="50.21173" lon="3.98378">
        <ele>184.4</ele>
        <time>2020-06-24T14:50:31Z</time>
      </trkpt>
      <trkpt lat="50.21172" lon="3.98383">
        <ele>184.6</ele>
        <time>2020-06-24T14:50:32Z</time>
      </trkpt>
      <trkpt lat="50.21171" lon="3.98389">
        <ele>184.7</ele>
        <time>2020-06-24T14:50:33Z</time>
      </trkpt>
      <trkpt lat="50.2117" lon="3.98396">
        <ele>184.9</ele>
        <time>2020-06-24T14:50:34Z</time>
      </trkpt>
      <trkpt lat="50.21168" lon="3.98402">
        <ele>185.1</ele>
        <time>2020-06-24T14:50:35Z</time>
      </trkpt>
      <trkpt lat="50.21166" lon="3.98408">
        <ele>185.3</ele>
        <time>2020-06-24T14:50:36Z</time>
      </trkpt>
      <trkpt lat="50.21164" lon="3.98413">
        <ele>185.4</ele>
        <time>2020-06-24T14:50:37Z</time>
      </trkpt>
      <trkpt lat="50.21163" lon="3.98418">
        <ele>185.5</ele>
        <time>2020-06-24T14:50:38Z</time>
      </trkpt>
      <trkpt lat="50.21162" lon="3.98423">
        <ele>185.7</ele>
        <time>2020-06-24T14:50:39Z</time>
      </trkpt>
      <trkpt lat="50.2116" lon="3.98429">
        <ele>185.8</ele>
        <time>2020-06-24T14:50:40Z</time>
      </trkpt>
      <trkpt lat="50.21159" lon="3.98435">
        <ele>185.9</ele>
        <time>2020-06-24T14:50:41Z</time>
      </trkpt>
      <trkpt lat="50.21157" lon="3.98439">
        <ele>186.1</ele>
        <time>2020-06-24T14:50:42Z</time>
      </trkpt>
      <trkpt lat="50.21156" lon="3.98443">
        <ele>186.1</ele>
        <time>2020-06-24T14:50:43Z</time>
      </trkpt>
      <trkpt lat="50.21155" lon="3.98449">
        <ele>186.2</ele>
        <time>2020-06-24T14:50:44Z</time>
      </trkpt>
      <trkpt lat="50.21154" lon="3.98453">
        <ele>186.3</ele>
        <time>2020-06-24T14:50:45Z</time>
      </trkpt>
      <trkpt lat="50.21152" lon="3.98458">
        <ele>186.4</ele>
        <time>2020-06-24T14:50:46Z</time>
      </trkpt>
      <trkpt lat="50.21151" lon="3.98463">
        <ele>186.5</ele>
        <time>2020-06-24T14:50:47Z</time>
      </trkpt>
      <trkpt lat="50.2115" lon="3.98468">
        <ele>186.5</ele>
        <time>2020-06-24T14:50:48Z</time>
      </trkpt>
      <trkpt lat="50.21149" lon="3.98472">
        <ele>186.6</ele>
        <time>2020-06-24T14:50:49Z</time>
      </trkpt>
      <trkpt lat="50.21148" lon="3.98479">
        <ele>186.6</ele>
        <time>2020-06-24T14:50:50Z</time>
      </trkpt>
      <trkpt lat="50.21146" lon="3.98486">
        <ele>186.5</ele>
        <time>2020-06-24T14:50:51Z</time>
      </trkpt>
      <trkpt lat="50.21144" lon="3.98493">
        <ele>186.4</ele>
        <time>2020-06-24T14:50:52Z</time>
      </trkpt>
      <trkpt lat="50.21142" lon="3.98499">
        <ele>186.3</ele>
        <time>2020-06-24T14:50:53Z</time>
      </trkpt>
      <trkpt lat="50.2114" lon="3.98507">
        <ele>186.2</ele>
        <time>2020-06-24T14:50:54Z</time>
      </trkpt>
      <trkpt lat="50.21138" lon="3.98514">
        <ele>186</ele>
        <time>2020-06-24T14:50:55Z</time>
      </trkpt>
      <trkpt lat="50.21136" lon="3.98521">
        <ele>185.9</ele>
        <time>2020-06-24T14:50:56Z</time>
      </trkpt>
      <trkpt lat="50.21132" lon="3.98532">
        <ele>185.7</ele>
        <time>2020-06-24T14:50:57Z</time>
      </trkpt>
      <trkpt lat="50.2113" lon="3.9854">
        <ele>185.5</ele>
        <time>2020-06-24T14:50:58Z</time>
      </trkpt>
      <trkpt lat="50.21127" lon="3.98548">
        <ele>185.3</ele>
        <time>2020-06-24T14:50:59Z</time>
      </trkpt>
      <trkpt lat="50.21124" lon="3.98557">
        <ele>185.1</ele>
        <time>2020-06-24T14:51:00Z</time>
      </trkpt>
      <trkpt lat="50.21121" lon="3.98565">
        <ele>185</ele>
        <time>2020-06-24T14:51:01Z</time>
      </trkpt>
      <trkpt lat="50.21118" lon="3.98574">
        <ele>184.8</ele>
        <time>2020-06-24T14:51:02Z</time>
      </trkpt>
      <trkpt lat="50.21115" lon="3.98582">
        <ele>184.7</ele>
        <time>2020-06-24T14:51:03Z</time>
      </trkpt>
      <trkpt lat="50.21112" lon="3.98591">
        <ele>184.6</ele>
        <time>2020-06-24T14:51:04Z</time>
      </trkpt>
      <trkpt lat="50.2111" lon="3.98597">
        <ele>184.6</ele>
        <time>2020-06-24T14:51:05Z</time>
      </trkpt>
      <trkpt lat="50.21107" lon="3.98606">
        <ele>184.5</ele>
        <time>2020-06-24T14:51:06Z</time>
      </trkpt>
      <trkpt lat="50.21103" lon="3.98614">
        <ele>184.4</ele>
        <time>2020-06-24T14:51:07Z</time>
      </trkpt>
      <trkpt lat="50.211" lon="3.98623">
        <ele>184.3</ele>
        <time>2020-06-24T14:51:08Z</time>
      </trkpt>
      <trkpt lat="50.21096" lon="3.98633">
        <ele>184.3</ele>
        <time>2020-06-24T14:51:09Z</time>
      </trkpt>
      <trkpt lat="50.21092" lon="3.98641">
        <ele>184.2</ele>
        <time>2020-06-24T14:51:10Z</time>
      </trkpt>
      <trkpt lat="50.21089" lon="3.98649">
        <ele>184.2</ele>
        <time>2020-06-24T14:51:11Z</time>
      </trkpt>
      <trkpt lat="50.21085" lon="3.98657">
        <ele>184.2</ele>
        <time>2020-06-24T14:51:12Z</time>
      </trkpt>
      <trkpt lat="50.21082" lon="3.98666">
        <ele>184.2</ele>
        <time>2020-06-24T14:51:13Z</time>
      </trkpt>
      <trkpt lat="50.21078" lon="3.98673">
        <ele>184.2</ele>
        <time>2020-06-24T14:51:14Z</time>
      </trkpt>
      <trkpt lat="50.21075" lon="3.9868">
        <ele>184.3</ele>
        <time>2020-06-24T14:51:15Z</time>
      </trkpt>
      <trkpt lat="50.21071" lon="3.98687">
        <ele>184.3</ele>
        <time>2020-06-24T14:51:16Z</time>
      </trkpt>
      <trkpt lat="50.21068" lon="3.98695">
        <ele>184.4</ele>
        <time>2020-06-24T14:51:17Z</time>
      </trkpt>
      <trkpt lat="50.21064" lon="3.98703">
        <ele>184.4</ele>
        <time>2020-06-24T14:51:18Z</time>
      </trkpt>
      <trkpt lat="50.2106" lon="3.98711">
        <ele>184.5</ele>
        <time>2020-06-24T14:51:19Z</time>
      </trkpt>
      <trkpt lat="50.21057" lon="3.98719">
        <ele>184.6</ele>
        <time>2020-06-24T14:51:20Z</time>
      </trkpt>
      <trkpt lat="50.21053" lon="3.98728">
        <ele>184.7</ele>
        <time>2020-06-24T14:51:21Z</time>
      </trkpt>
      <trkpt lat="50.2105" lon="3.98735">
        <ele>184.8</ele>
        <time>2020-06-24T14:51:22Z</time>
      </trkpt>
      <trkpt lat="50.21046" lon="3.98742">
        <ele>184.9</ele>
        <time>2020-06-24T14:51:23Z</time>
      </trkpt>
      <trkpt lat="50.21043" lon="3.98749">
        <ele>185</ele>
        <time>2020-06-24T14:51:24Z</time>
      </trkpt>
      <trkpt lat="50.2104" lon="3.98756">
        <ele>185.1</ele>
        <time>2020-06-24T14:51:25Z</time>
      </trkpt>
      <trkpt lat="50.21037" lon="3.98763">
        <ele>185.2</ele>
        <time>2020-06-24T14:51:26Z</time>
      </trkpt>
      <trkpt lat="50.21034" lon="3.9877">
        <ele>185.3</ele>
        <time>2020-06-24T14:51:27Z</time>
      </trkpt>
      <trkpt lat="50.21032" lon="3.98775">
        <ele>185.4</ele>
        <time>2020-06-24T14:51:28Z</time>
      </trkpt>
      <trkpt lat="50.2103" lon="3.98783">
        <ele>185.5</ele>
        <time>2020-06-24T14:51:29Z</time>
      </trkpt>
      <trkpt lat="50.21028" lon="3.98789">
        <ele>185.6</ele>
        <time>2020-06-24T14:51:30Z</time>
      </trkpt>
      <trkpt lat="50.21026" lon="3.98795">
        <ele>185.7</ele>
        <time>2020-06-24T14:51:31Z</time>
      </trkpt>
      <trkpt lat="50.21024" lon="3.98801">
        <ele>185.8</ele>
        <time>2020-06-24T14:51:32Z</time>
      </trkpt>
      <trkpt lat="50.21023" lon="3.98807">
        <ele>185.9</ele>
        <time>2020-06-24T14:51:33Z</time>
      </trkpt>
      <trkpt lat="50.21021" lon="3.98813">
        <ele>186</ele>
        <time>2020-06-24T14:51:34Z</time>
      </trkpt>
      <trkpt lat="50.21019" lon="3.98819">
        <ele>186.1</ele>
        <time>2020-06-24T14:51:35Z</time>
      </trkpt>
      <trkpt lat="50.21017" lon="3.98826">
        <ele>186.2</ele>
        <time>2020-06-24T14:51:36Z</time>
      </trkpt>
      <trkpt lat="50.21016" lon="3.9883">
        <ele>186.3</ele>
        <time>2020-06-24T14:51:37Z</time>
      </trkpt>
      <trkpt lat="50.21015" lon="3.98836">
        <ele>186.4</ele>
        <time>2020-06-24T14:51:38Z</time>
      </trkpt>
      <trkpt lat="50.21013" lon="3.98844">
        <ele>186.6</ele>
        <time>2020-06-24T14:51:39Z</time>
      </trkpt>
      <trkpt lat="50.21011" lon="3.98852">
        <ele>186.7</ele>
        <time>2020-06-24T14:51:40Z</time>
      </trkpt>
      <trkpt lat="50.21009" lon="3.98859">
        <ele>186.8</ele>
        <time>2020-06-24T14:51:41Z</time>
      </trkpt>
      <trkpt lat="50.21007" lon="3.98867">
        <ele>187</ele>
        <time>2020-06-24T14:51:42Z</time>
      </trkpt>
      <trkpt lat="50.21006" lon="3.98874">
        <ele>187.1</ele>
        <time>2020-06-24T14:51:43Z</time>
      </trkpt>
      <trkpt lat="50.21004" lon="3.9888">
        <ele>187.2</ele>
        <time>2020-06-24T14:51:44Z</time>
      </trkpt>
      <trkpt lat="50.21002" lon="3.98884">
        <ele>187.3</ele>
        <time>2020-06-24T14:51:45Z</time>
      </trkpt>
      <trkpt lat="50.21001" lon="3.98889">
        <ele>187.4</ele>
        <time>2020-06-24T14:51:46Z</time>
      </trkpt>
      <trkpt lat="50.20999" lon="3.98894">
        <ele>187.5</ele>
        <time>2020-06-24T14:51:47Z</time>
      </trkpt>
      <trkpt lat="50.20997" lon="3.989">
        <ele>187.6</ele>
        <time>2020-06-24T14:51:48Z</time>
      </trkpt>
      <trkpt lat="50.20996" lon="3.98906">
        <ele>187.7</ele>
        <time>2020-06-24T14:51:49Z</time>
      </trkpt>
      <trkpt lat="50.20994" lon="3.98913">
        <ele>187.9</ele>
        <time>2020-06-24T14:51:50Z</time>
      </trkpt>
      <trkpt lat="50.20992" lon="3.98918">
        <ele>188</ele>
        <time>2020-06-24T14:51:51Z</time>
      </trkpt>
      <trkpt lat="50.20991" lon="3.98924">
        <ele>188.1</ele>
        <time>2020-06-24T14:51:52Z</time>
      </trkpt>
      <trkpt lat="50.20989" lon="3.98929">
        <ele>188.3</ele>
        <time>2020-06-24T14:51:53Z</time>
      </trkpt>
      <trkpt lat="50.20987" lon="3.98936">
        <ele>188.5</ele>
        <time>2020-06-24T14:51:54Z</time>
      </trkpt>
      <trkpt lat="50.20986" lon="3.98942">
        <ele>188.6</ele>
        <time>2020-06-24T14:51:55Z</time>
      </trkpt>
      <trkpt lat="50.20984" lon="3.98947">
        <ele>188.8</ele>
        <time>2020-06-24T14:51:56Z</time>
      </trkpt>
      <trkpt lat="50.20983" lon="3.98954">
        <ele>188.9</ele>
        <time>2020-06-24T14:51:57Z</time>
      </trkpt>
      <trkpt lat="50.20981" lon="3.98961">
        <ele>189</ele>
        <time>2020-06-24T14:51:58Z</time>
      </trkpt>
      <trkpt lat="50.2098" lon="3.98967">
        <ele>189.1</ele>
        <time>2020-06-24T14:51:59Z</time>
      </trkpt>
      <trkpt lat="50.20979" lon="3.98972">
        <ele>189.2</ele>
        <time>2020-06-24T14:52:00Z</time>
      </trkpt>
      <trkpt lat="50.20977" lon="3.98978">
        <ele>189.2</ele>
        <time>2020-06-24T14:52:01Z</time>
      </trkpt>
      <trkpt lat="50.20975" lon="3.98985">
        <ele>189.2</ele>
        <time>2020-06-24T14:52:02Z</time>
      </trkpt>
      <trkpt lat="50.20974" lon="3.98991">
        <ele>189.2</ele>
        <time>2020-06-24T14:52:03Z</time>
      </trkpt>
      <trkpt lat="50.20971" lon="3.98996">
        <ele>189.1</ele>
        <time>2020-06-24T14:52:04Z</time>
      </trkpt>
      <trkpt lat="50.20969" lon="3.99002">
        <ele>189</ele>
        <time>2020-06-24T14:52:05Z</time>
      </trkpt>
      <trkpt lat="50.20968" lon="3.99009">
        <ele>188.9</ele>
        <time>2020-06-24T14:52:06Z</time>
      </trkpt>
      <trkpt lat="50.20966" lon="3.99015">
        <ele>188.8</ele>
        <time>2020-06-24T14:52:07Z</time>
      </trkpt>
      <trkpt lat="50.20965" lon="3.99021">
        <ele>188.7</ele>
        <time>2020-06-24T14:52:08Z</time>
      </trkpt>
      <trkpt lat="50.20963" lon="3.99032">
        <ele>188.6</ele>
        <time>2020-06-24T14:52:09Z</time>
      </trkpt>
      <trkpt lat="50.20961" lon="3.99039">
        <ele>188.5</ele>
        <time>2020-06-24T14:52:10Z</time>
      </trkpt>
      <trkpt lat="50.20959" lon="3.99047">
        <ele>188.3</ele>
        <time>2020-06-24T14:52:11Z</time>
      </trkpt>
      <trkpt lat="50.20958" lon="3.99054">
        <ele>188.2</ele>
        <time>2020-06-24T14:52:12Z</time>
      </trkpt>
      <trkpt lat="50.20957" lon="3.99061">
        <ele>188.1</ele>
        <time>2020-06-24T14:52:13Z</time>
      </trkpt>
      <trkpt lat="50.20956" lon="3.99068">
        <ele>187.9</ele>
        <time>2020-06-24T14:52:14Z</time>
      </trkpt>
      <trkpt lat="50.20956" lon="3.99075">
        <ele>187.8</ele>
        <time>2020-06-24T14:52:15Z</time>
      </trkpt>
      <trkpt lat="50.20955" lon="3.99082">
        <ele>187.6</ele>
        <time>2020-06-24T14:52:16Z</time>
      </trkpt>
      <trkpt lat="50.20952" lon="3.99089">
        <ele>187.5</ele>
        <time>2020-06-24T14:52:17Z</time>
      </trkpt>
      <trkpt lat="50.20951" lon="3.99098">
        <ele>187.3</ele>
        <time>2020-06-24T14:52:18Z</time>
      </trkpt>
      <trkpt lat="50.20949" lon="3.99105">
        <ele>187.1</ele>
        <time>2020-06-24T14:52:19Z</time>
      </trkpt>
      <trkpt lat="50.20948" lon="3.99112">
        <ele>187</ele>
        <time>2020-06-24T14:52:20Z</time>
      </trkpt>
      <trkpt lat="50.20946" lon="3.99119">
        <ele>186.8</ele>
        <time>2020-06-24T14:52:21Z</time>
      </trkpt>
      <trkpt lat="50.20944" lon="3.99126">
        <ele>186.7</ele>
        <time>2020-06-24T14:52:22Z</time>
      </trkpt>
      <trkpt lat="50.20942" lon="3.99134">
        <ele>186.5</ele>
        <time>2020-06-24T14:52:23Z</time>
      </trkpt>
      <trkpt lat="50.2094" lon="3.99142">
        <ele>186.3</ele>
        <time>2020-06-24T14:52:24Z</time>
      </trkpt>
      <trkpt lat="50.20937" lon="3.99152">
        <ele>186.1</ele>
        <time>2020-06-24T14:52:25Z</time>
      </trkpt>
      <trkpt lat="50.20936" lon="3.99159">
        <ele>186</ele>
        <time>2020-06-24T14:52:26Z</time>
      </trkpt>
      <trkpt lat="50.20933" lon="3.99168">
        <ele>185.7</ele>
        <time>2020-06-24T14:52:27Z</time>
      </trkpt>
      <trkpt lat="50.2093" lon="3.99176">
        <ele>185.5</ele>
        <time>2020-06-24T14:52:28Z</time>
      </trkpt>
      <trkpt lat="50.20929" lon="3.99183">
        <ele>185.3</ele>
        <time>2020-06-24T14:52:29Z</time>
      </trkpt>
      <trkpt lat="50.20927" lon="3.99191">
        <ele>185.1</ele>
        <time>2020-06-24T14:52:30Z</time>
      </trkpt>
      <trkpt lat="50.20923" lon="3.992">
        <ele>184.9</ele>
        <time>2020-06-24T14:52:31Z</time>
      </trkpt>
      <trkpt lat="50.2092" lon="3.9921">
        <ele>184.6</ele>
        <time>2020-06-24T14:52:32Z</time>
      </trkpt>
      <trkpt lat="50.20919" lon="3.99217">
        <ele>184.4</ele>
        <time>2020-06-24T14:52:33Z</time>
      </trkpt>
      <trkpt lat="50.20916" lon="3.99228">
        <ele>184.1</ele>
        <time>2020-06-24T14:52:34Z</time>
      </trkpt>
      <trkpt lat="50.20914" lon="3.99236">
        <ele>184</ele>
        <time>2020-06-24T14:52:35Z</time>
      </trkpt>
      <trkpt lat="50.20911" lon="3.99246">
        <ele>183.8</ele>
        <time>2020-06-24T14:52:36Z</time>
      </trkpt>
      <trkpt lat="50.20908" lon="3.99256">
        <ele>183.6</ele>
        <time>2020-06-24T14:52:37Z</time>
      </trkpt>
      <trkpt lat="50.20905" lon="3.99267">
        <ele>183.4</ele>
        <time>2020-06-24T14:52:38Z</time>
      </trkpt>
      <trkpt lat="50.20902" lon="3.99277">
        <ele>183.2</ele>
        <time>2020-06-24T14:52:39Z</time>
      </trkpt>
      <trkpt lat="50.20898" lon="3.99286">
        <ele>183</ele>
        <time>2020-06-24T14:52:40Z</time>
      </trkpt>
      <trkpt lat="50.20895" lon="3.99294">
        <ele>182.9</ele>
        <time>2020-06-24T14:52:41Z</time>
      </trkpt>
      <trkpt lat="50.20892" lon="3.99302">
        <ele>182.8</ele>
        <time>2020-06-24T14:52:42Z</time>
      </trkpt>
      <trkpt lat="50.2089" lon="3.9931">
        <ele>182.7</ele>
        <time>2020-06-24T14:52:43Z</time>
      </trkpt>
      <trkpt lat="50.20887" lon="3.99319">
        <ele>182.5</ele>
        <time>2020-06-24T14:52:44Z</time>
      </trkpt>
      <trkpt lat="50.20884" lon="3.99327">
        <ele>182.4</ele>
        <time>2020-06-24T14:52:45Z</time>
      </trkpt>
      <trkpt lat="50.20881" lon="3.99335">
        <ele>182.3</ele>
        <time>2020-06-24T14:52:46Z</time>
      </trkpt>
      <trkpt lat="50.20878" lon="3.99343">
        <ele>182.2</ele>
        <time>2020-06-24T14:52:47Z</time>
      </trkpt>
      <trkpt lat="50.20875" lon="3.99352">
        <ele>182.1</ele>
        <time>2020-06-24T14:52:48Z</time>
      </trkpt>
      <trkpt lat="50.20873" lon="3.9936">
        <ele>182</ele>
        <time>2020-06-24T14:52:49Z</time>
      </trkpt>
      <trkpt lat="50.2087" lon="3.99368">
        <ele>182</ele>
        <time>2020-06-24T14:52:50Z</time>
      </trkpt>
      <trkpt lat="50.20867" lon="3.99377">
        <ele>181.9</ele>
        <time>2020-06-24T14:52:51Z</time>
      </trkpt>
      <trkpt lat="50.20865" lon="3.99385">
        <ele>181.8</ele>
        <time>2020-06-24T14:52:52Z</time>
      </trkpt>
      <trkpt lat="50.20862" lon="3.99394">
        <ele>181.8</ele>
        <time>2020-06-24T14:52:53Z</time>
      </trkpt>
      <trkpt lat="50.20859" lon="3.99401">
        <ele>181.7</ele>
        <time>2020-06-24T14:52:54Z</time>
      </trkpt>
      <trkpt lat="50.20857" lon="3.99409">
        <ele>181.7</ele>
        <time>2020-06-24T14:52:55Z</time>
      </trkpt>
      <trkpt lat="50.20854" lon="3.99417">
        <ele>181.6</ele>
        <time>2020-06-24T14:52:56Z</time>
      </trkpt>
      <trkpt lat="50.20852" lon="3.99426">
        <ele>181.5</ele>
        <time>2020-06-24T14:52:57Z</time>
      </trkpt>
      <trkpt lat="50.20848" lon="3.99434">
        <ele>181.5</ele>
        <time>2020-06-24T14:52:58Z</time>
      </trkpt>
      <trkpt lat="50.20844" lon="3.9944">
        <ele>181.4</ele>
        <time>2020-06-24T14:52:59Z</time>
      </trkpt>
      <trkpt lat="50.2084" lon="3.99447">
        <ele>181.3</ele>
        <time>2020-06-24T14:53:00Z</time>
      </trkpt>
      <trkpt lat="50.20835" lon="3.99454">
        <ele>181.2</ele>
        <time>2020-06-24T14:53:01Z</time>
      </trkpt>
      <trkpt lat="50.20831" lon="3.9946">
        <ele>181.1</ele>
        <time>2020-06-24T14:53:02Z</time>
      </trkpt>
      <trkpt lat="50.20825" lon="3.99465">
        <ele>181</ele>
        <time>2020-06-24T14:53:03Z</time>
      </trkpt>
      <trkpt lat="50.20819" lon="3.99469">
        <ele>180.9</ele>
        <time>2020-06-24T14:53:04Z</time>
      </trkpt>
      <trkpt lat="50.20814" lon="3.99473">
        <ele>180.8</ele>
        <time>2020-06-24T14:53:05Z</time>
      </trkpt>
      <trkpt lat="50.20808" lon="3.99476">
        <ele>180.7</ele>
        <time>2020-06-24T14:53:06Z</time>
      </trkpt>
      <trkpt lat="50.20801" lon="3.99478">
        <ele>180.4</ele>
        <time>2020-06-24T14:53:07Z</time>
      </trkpt>
      <trkpt lat="50.20794" lon="3.9948">
        <ele>180.2</ele>
        <time>2020-06-24T14:53:08Z</time>
      </trkpt>
      <trkpt lat="50.20788" lon="3.99478">
        <ele>180</ele>
        <time>2020-06-24T14:53:09Z</time>
      </trkpt>
      <trkpt lat="50.20781" lon="3.99476">
        <ele>179.7</ele>
        <time>2020-06-24T14:53:10Z</time>
      </trkpt>
      <trkpt lat="50.20775" lon="3.99476">
        <ele>179.4</ele>
        <time>2020-06-24T14:53:11Z</time>
      </trkpt>
      <trkpt lat="50.20768" lon="3.99475">
        <ele>179.1</ele>
        <time>2020-06-24T14:53:12Z</time>
      </trkpt>
      <trkpt lat="50.20761" lon="3.99473">
        <ele>178.8</ele>
        <time>2020-06-24T14:53:13Z</time>
      </trkpt>
      <trkpt lat="50.20754" lon="3.99472">
        <ele>178.5</ele>
        <time>2020-06-24T14:53:14Z</time>
      </trkpt>
      <trkpt lat="50.20747" lon="3.99471">
        <ele>178.1</ele>
        <time>2020-06-24T14:53:15Z</time>
      </trkpt>
      <trkpt lat="50.20739" lon="3.99471">
        <ele>177.7</ele>
        <time>2020-06-24T14:53:16Z</time>
      </trkpt>
      <trkpt lat="50.20731" lon="3.99472">
        <ele>177.4</ele>
        <time>2020-06-24T14:53:17Z</time>
      </trkpt>
      <trkpt lat="50.20723" lon="3.99473">
        <ele>177.1</ele>
        <time>2020-06-24T14:53:18Z</time>
      </trkpt>
      <trkpt lat="50.20715" lon="3.99476">
        <ele>176.7</ele>
        <time>2020-06-24T14:53:19Z</time>
      </trkpt>
      <trkpt lat="50.20707" lon="3.99479">
        <ele>176.4</ele>
        <time>2020-06-24T14:53:20Z</time>
      </trkpt>
      <trkpt lat="50.20699" lon="3.99483">
        <ele>176</ele>
        <time>2020-06-24T14:53:21Z</time>
      </trkpt>
      <trkpt lat="50.20691" lon="3.99487">
        <ele>175.7</ele>
        <time>2020-06-24T14:53:22Z</time>
      </trkpt>
      <trkpt lat="50.20683" lon="3.99492">
        <ele>175.3</ele>
        <time>2020-06-24T14:53:23Z</time>
      </trkpt>
      <trkpt lat="50.20675" lon="3.99497">
        <ele>175</ele>
        <time>2020-06-24T14:53:24Z</time>
      </trkpt>
      <trkpt lat="50.20667" lon="3.99503">
        <ele>174.6</ele>
        <time>2020-06-24T14:53:25Z</time>
      </trkpt>
      <trkpt lat="50.2066" lon="3.9951">
        <ele>174.2</ele>
        <time>2020-06-24T14:53:26Z</time>
      </trkpt>
      <trkpt lat="50.20654" lon="3.99517">
        <ele>173.7</ele>
        <time>2020-06-24T14:53:27Z</time>
      </trkpt>
      <trkpt lat="50.20647" lon="3.99524">
        <ele>173.3</ele>
        <time>2020-06-24T14:53:28Z</time>
      </trkpt>
      <trkpt lat="50.20641" lon="3.99531">
        <ele>172.8</ele>
        <time>2020-06-24T14:53:29Z</time>
      </trkpt>
      <trkpt lat="50.20635" lon="3.9954">
        <ele>172.3</ele>
        <time>2020-06-24T14:53:30Z</time>
      </trkpt>
      <trkpt lat="50.20629" lon="3.99551">
        <ele>171.9</ele>
        <time>2020-06-24T14:53:31Z</time>
      </trkpt>
      <trkpt lat="50.20624" lon="3.99562">
        <ele>171.6</ele>
        <time>2020-06-24T14:53:32Z</time>
      </trkpt>
      <trkpt lat="50.20617" lon="3.99572">
        <ele>171.4</ele>
        <time>2020-06-24T14:53:33Z</time>
      </trkpt>
      <trkpt lat="50.20611" lon="3.99582">
        <ele>171.3</ele>
        <time>2020-06-24T14:53:34Z</time>
      </trkpt>
      <trkpt lat="50.20606" lon="3.99592">
        <ele>171.4</ele>
        <time>2020-06-24T14:53:35Z</time>
      </trkpt>
      <trkpt lat="50.20601" lon="3.99602">
        <ele>171.5</ele>
        <time>2020-06-24T14:53:36Z</time>
      </trkpt>
      <trkpt lat="50.20597" lon="3.9961">
        <ele>171.7</ele>
        <time>2020-06-24T14:53:37Z</time>
      </trkpt>
      <trkpt lat="50.20593" lon="3.99618">
        <ele>171.9</ele>
        <time>2020-06-24T14:53:38Z</time>
      </trkpt>
      <trkpt lat="50.20589" lon="3.99627">
        <ele>172.1</ele>
        <time>2020-06-24T14:53:39Z</time>
      </trkpt>
      <trkpt lat="50.20586" lon="3.99636">
        <ele>172.4</ele>
        <time>2020-06-24T14:53:40Z</time>
      </trkpt>
      <trkpt lat="50.20583" lon="3.99644">
        <ele>172.7</ele>
        <time>2020-06-24T14:53:41Z</time>
      </trkpt>
      <trkpt lat="50.20581" lon="3.99652">
        <ele>173</ele>
        <time>2020-06-24T14:53:42Z</time>
      </trkpt>
      <trkpt lat="50.20579" lon="3.99659">
        <ele>173.2</ele>
        <time>2020-06-24T14:53:43Z</time>
      </trkpt>
      <trkpt lat="50.20577" lon="3.99667">
        <ele>173.5</ele>
        <time>2020-06-24T14:53:44Z</time>
      </trkpt>
      <trkpt lat="50.20575" lon="3.99674">
        <ele>173.9</ele>
        <time>2020-06-24T14:53:45Z</time>
      </trkpt>
      <trkpt lat="50.20574" lon="3.99682">
        <ele>174.2</ele>
        <time>2020-06-24T14:53:46Z</time>
      </trkpt>
      <trkpt lat="50.20572" lon="3.99689">
        <ele>174.6</ele>
        <time>2020-06-24T14:53:47Z</time>
      </trkpt>
      <trkpt lat="50.2057" lon="3.99695">
        <ele>175</ele>
        <time>2020-06-24T14:53:48Z</time>
      </trkpt>
      <trkpt lat="50.20569" lon="3.99702">
        <ele>175.3</ele>
        <time>2020-06-24T14:53:49Z</time>
      </trkpt>
      <trkpt lat="50.20567" lon="3.99708">
        <ele>175.7</ele>
        <time>2020-06-24T14:53:50Z</time>
      </trkpt>
      <trkpt lat="50.20566" lon="3.99715">
        <ele>176.1</ele>
        <time>2020-06-24T14:53:51Z</time>
      </trkpt>
      <trkpt lat="50.20565" lon="3.99721">
        <ele>176.5</ele>
        <time>2020-06-24T14:53:52Z</time>
      </trkpt>
      <trkpt lat="50.20563" lon="3.99727">
        <ele>176.9</ele>
        <time>2020-06-24T14:53:53Z</time>
      </trkpt>
      <trkpt lat="50.20562" lon="3.99733">
        <ele>177.3</ele>
        <time>2020-06-24T14:53:54Z</time>
      </trkpt>
      <trkpt lat="50.20561" lon="3.99738">
        <ele>177.6</ele>
        <time>2020-06-24T14:53:55Z</time>
      </trkpt>
      <trkpt lat="50.2056" lon="3.99743">
        <ele>178</ele>
        <time>2020-06-24T14:53:56Z</time>
      </trkpt>
      <trkpt lat="50.20558" lon="3.99748">
        <ele>178.3</ele>
        <time>2020-06-24T14:53:57Z</time>
      </trkpt>
      <trkpt lat="50.20557" lon="3.99753">
        <ele>178.7</ele>
        <time>2020-06-24T14:53:58Z</time>
      </trkpt>
      <trkpt lat="50.20556" lon="3.99758">
        <ele>179</ele>
        <time>2020-06-24T14:53:59Z</time>
      </trkpt>
      <trkpt lat="50.20555" lon="3.99762">
        <ele>179.3</ele>
        <time>2020-06-24T14:54:00Z</time>
      </trkpt>
      <trkpt lat="50.20554" lon="3.99766">
        <ele>179.6</ele>
        <time>2020-06-24T14:54:01Z</time>
      </trkpt>
      <trkpt lat="50.20552" lon="3.9977">
        <ele>179.9</ele>
        <time>2020-06-24T14:54:02Z</time>
      </trkpt>
      <trkpt lat="50.20551" lon="3.99775">
        <ele>180.2</ele>
        <time>2020-06-24T14:54:03Z</time>
      </trkpt>
      <trkpt lat="50.20551" lon="3.99776">
        <ele>180.3</ele>
        <time>2020-06-24T14:54:04Z</time>
      </trkpt>
      <trkpt lat="50.20549" lon="3.99781">
        <ele>180.6</ele>
        <time>2020-06-24T14:54:05Z</time>
      </trkpt>
      <trkpt lat="50.20547" lon="3.99786">
        <ele>180.9</ele>
        <time>2020-06-24T14:54:06Z</time>
      </trkpt>
      <trkpt lat="50.20545" lon="3.99789">
        <ele>181.2</ele>
        <time>2020-06-24T14:54:07Z</time>
      </trkpt>
      <trkpt lat="50.20543" lon="3.99794">
        <ele>181.6</ele>
        <time>2020-06-24T14:54:08Z</time>
      </trkpt>
      <trkpt lat="50.2054" lon="3.99798">
        <ele>181.9</ele>
        <time>2020-06-24T14:54:09Z</time>
      </trkpt>
      <trkpt lat="50.20539" lon="3.99799">
        <ele>182</ele>
        <time>2020-06-24T14:54:10Z</time>
      </trkpt>
      <trkpt lat="50.20537" lon="3.99802">
        <ele>182.3</ele>
        <time>2020-06-24T14:54:11Z</time>
      </trkpt>
      <trkpt lat="50.20533" lon="3.99807">
        <ele>182.6</ele>
        <time>2020-06-24T14:54:12Z</time>
      </trkpt>
      <trkpt lat="50.20532" lon="3.99809">
        <ele>182.8</ele>
        <time>2020-06-24T14:54:13Z</time>
      </trkpt>
      <trkpt lat="50.20529" lon="3.99811">
        <ele>183.1</ele>
        <time>2020-06-24T14:54:14Z</time>
      </trkpt>
      <trkpt lat="50.20526" lon="3.99814">
        <ele>183.4</ele>
        <time>2020-06-24T14:54:15Z</time>
      </trkpt>
      <trkpt lat="50.20522" lon="3.99818">
        <ele>183.8</ele>
        <time>2020-06-24T14:54:16Z</time>
      </trkpt>
      <trkpt lat="50.20518" lon="3.99821">
        <ele>184.2</ele>
        <time>2020-06-24T14:54:17Z</time>
      </trkpt>
      <trkpt lat="50.20517" lon="3.99823">
        <ele>184.3</ele>
        <time>2020-06-24T14:54:18Z</time>
      </trkpt>
      <trkpt lat="50.20515" lon="3.99826">
        <ele>184.6</ele>
        <time>2020-06-24T14:54:19Z</time>
      </trkpt>
      <trkpt lat="50.20512" lon="3.99828">
        <ele>184.8</ele>
        <time>2020-06-24T14:54:20Z</time>
      </trkpt>
      <trkpt lat="50.2051" lon="3.99831">
        <ele>185.1</ele>
        <time>2020-06-24T14:54:21Z</time>
      </trkpt>
      <trkpt lat="50.20509" lon="3.99832">
        <ele>185.1</ele>
        <time>2020-06-24T14:54:22Z</time>
      </trkpt>
      <trkpt lat="50.20506" lon="3.99834">
        <ele>185.4</ele>
        <time>2020-06-24T14:54:23Z</time>
      </trkpt>
      <trkpt lat="50.20505" lon="3.99835">
        <ele>185.5</ele>
        <time>2020-06-24T14:54:24Z</time>
      </trkpt>
      <trkpt lat="50.20502" lon="3.99838">
        <ele>185.6</ele>
        <time>2020-06-24T14:54:25Z</time>
      </trkpt>
      <trkpt lat="50.205" lon="3.99841">
        <ele>185.7</ele>
        <time>2020-06-24T14:54:26Z</time>
      </trkpt>
      <trkpt lat="50.20497" lon="3.99843">
        <ele>185.8</ele>
        <time>2020-06-24T14:54:27Z</time>
      </trkpt>
      <trkpt lat="50.20494" lon="3.99845">
        <ele>186</ele>
        <time>2020-06-24T14:54:28Z</time>
      </trkpt>
      <trkpt lat="50.20494" lon="3.99845">
        <ele>186</ele>
        <time>2020-06-24T14:54:29Z</time>
      </trkpt>
      <trkpt lat="50.2049" lon="3.99849">
        <ele>186.2</ele>
        <time>2020-06-24T14:54:30Z</time>
      </trkpt>
      <trkpt lat="50.20489" lon="3.9985">
        <ele>186.2</ele>
        <time>2020-06-24T14:54:31Z</time>
      </trkpt>
      <trkpt lat="50.20486" lon="3.99851">
        <ele>186.3</ele>
        <time>2020-06-24T14:54:32Z</time>
      </trkpt>
      <trkpt lat="50.20483" lon="3.99853">
        <ele>186.5</ele>
        <time>2020-06-24T14:54:33Z</time>
      </trkpt>
      <trkpt lat="50.2048" lon="3.99856">
        <ele>186.6</ele>
        <time>2020-06-24T14:54:34Z</time>
      </trkpt>
      <trkpt lat="50.20478" lon="3.99858">
        <ele>186.7</ele>
        <time>2020-06-24T14:54:35Z</time>
      </trkpt>
      <trkpt lat="50.20475" lon="3.99861">
        <ele>187</ele>
        <time>2020-06-24T14:54:36Z</time>
      </trkpt>
      <trkpt lat="50.20471" lon="3.99862">
        <ele>187.3</ele>
        <time>2020-06-24T14:54:37Z</time>
      </trkpt>
      <trkpt lat="50.20468" lon="3.99863">
        <ele>187.4</ele>
        <time>2020-06-24T14:54:38Z</time>
      </trkpt>
      <trkpt lat="50.20464" lon="3.99863">
        <ele>187.6</ele>
        <time>2020-06-24T14:54:39Z</time>
      </trkpt>
      <trkpt lat="50.20463" lon="3.99864">
        <ele>187.7</ele>
        <time>2020-06-24T14:54:40Z</time>
      </trkpt>
      <trkpt lat="50.2046" lon="3.99865">
        <ele>187.9</ele>
        <time>2020-06-24T14:54:41Z</time>
      </trkpt>
      <trkpt lat="50.20459" lon="3.99865">
        <ele>187.9</ele>
        <time>2020-06-24T14:54:42Z</time>
      </trkpt>
      <trkpt lat="50.20457" lon="3.99866">
        <ele>188</ele>
        <time>2020-06-24T14:54:43Z</time>
      </trkpt>
      <trkpt lat="50.20456" lon="3.99866">
        <ele>188.1</ele>
        <time>2020-06-24T14:54:44Z</time>
      </trkpt>
      <trkpt lat="50.20455" lon="3.99866">
        <ele>188.1</ele>
        <time>2020-06-24T14:54:45Z</time>
      </trkpt>
      <trkpt lat="50.20452" lon="3.99869">
        <ele>188.3</ele>
        <time>2020-06-24T14:54:46Z</time>
      </trkpt>
      <trkpt lat="50.2045" lon="3.99869">
        <ele>188.4</ele>
        <time>2020-06-24T14:54:47Z</time>
      </trkpt>
      <trkpt lat="50.20447" lon="3.99871">
        <ele>188.6</ele>
        <time>2020-06-24T14:54:48Z</time>
      </trkpt>
      <trkpt lat="50.20441" lon="3.99873">
        <ele>188.8</ele>
        <time>2020-06-24T14:54:49Z</time>
      </trkpt>
      <trkpt lat="50.20436" lon="3.99874">
        <ele>189.1</ele>
        <time>2020-06-24T14:54:50Z</time>
      </trkpt>
      <trkpt lat="50.20432" lon="3.99876">
        <ele>189.3</ele>
        <time>2020-06-24T14:54:51Z</time>
      </trkpt>
      <trkpt lat="50.20429" lon="3.99877">
        <ele>189.4</ele>
        <time>2020-06-24T14:54:52Z</time>
      </trkpt>
      <trkpt lat="50.20426" lon="3.99879">
        <ele>189.5</ele>
        <time>2020-06-24T14:54:53Z</time>
      </trkpt>
      <trkpt lat="50.20423" lon="3.99881">
        <ele>189.7</ele>
        <time>2020-06-24T14:54:54Z</time>
      </trkpt>
      <trkpt lat="50.20419" lon="3.99882">
        <ele>189.8</ele>
        <time>2020-06-24T14:54:55Z</time>
      </trkpt>
      <trkpt lat="50.20415" lon="3.99884">
        <ele>190</ele>
        <time>2020-06-24T14:54:56Z</time>
      </trkpt>
      <trkpt lat="50.2041" lon="3.99886">
        <ele>190.2</ele>
        <time>2020-06-24T14:54:57Z</time>
      </trkpt>
      <trkpt lat="50.20408" lon="3.99888">
        <ele>190.4</ele>
        <time>2020-06-24T14:54:58Z</time>
      </trkpt>
      <trkpt lat="50.20404" lon="3.99889">
        <ele>190.5</ele>
        <time>2020-06-24T14:54:59Z</time>
      </trkpt>
      <trkpt lat="50.20401" lon="3.9989">
        <ele>190.6</ele>
        <time>2020-06-24T14:55:00Z</time>
      </trkpt>
      <trkpt lat="50.20397" lon="3.99892">
        <ele>190.8</ele>
        <time>2020-06-24T14:55:01Z</time>
      </trkpt>
      <trkpt lat="50.20394" lon="3.99893">
        <ele>190.9</ele>
        <time>2020-06-24T14:55:02Z</time>
      </trkpt>
      <trkpt lat="50.2039" lon="3.99895">
        <ele>191.1</ele>
        <time>2020-06-24T14:55:03Z</time>
      </trkpt>
      <trkpt lat="50.20387" lon="3.99896">
        <ele>191.2</ele>
        <time>2020-06-24T14:55:04Z</time>
      </trkpt>
      <trkpt lat="50.20382" lon="3.99897">
        <ele>191.4</ele>
        <time>2020-06-24T14:55:05Z</time>
      </trkpt>
      <trkpt lat="50.20378" lon="3.99899">
        <ele>191.5</ele>
        <time>2020-06-24T14:55:06Z</time>
      </trkpt>
      <trkpt lat="50.20374" lon="3.999">
        <ele>191.6</ele>
        <time>2020-06-24T14:55:07Z</time>
      </trkpt>
      <trkpt lat="50.20369" lon="3.99902">
        <ele>191.8</ele>
        <time>2020-06-24T14:55:08Z</time>
      </trkpt>
      <trkpt lat="50.20365" lon="3.99903">
        <ele>191.9</ele>
        <time>2020-06-24T14:55:09Z</time>
      </trkpt>
      <trkpt lat="50.20361" lon="3.99905">
        <ele>192</ele>
        <time>2020-06-24T14:55:10Z</time>
      </trkpt>
      <trkpt lat="50.20358" lon="3.99906">
        <ele>192.1</ele>
        <time>2020-06-24T14:55:11Z</time>
      </trkpt>
      <trkpt lat="50.20353" lon="3.99907">
        <ele>192.3</ele>
        <time>2020-06-24T14:55:12Z</time>
      </trkpt>
      <trkpt lat="50.2035" lon="3.99909">
        <ele>192.3</ele>
        <time>2020-06-24T14:55:13Z</time>
      </trkpt>
      <trkpt lat="50.20346" lon="3.9991">
        <ele>192.4</ele>
        <time>2020-06-24T14:55:14Z</time>
      </trkpt>
      <trkpt lat="50.20342" lon="3.99911">
        <ele>192.5</ele>
        <time>2020-06-24T14:55:15Z</time>
      </trkpt>
      <trkpt lat="50.20339" lon="3.99913">
        <ele>192.6</ele>
        <time>2020-06-24T14:55:16Z</time>
      </trkpt>
      <trkpt lat="50.20334" lon="3.99914">
        <ele>192.7</ele>
        <time>2020-06-24T14:55:17Z</time>
      </trkpt>
      <trkpt lat="50.20329" lon="3.99916">
        <ele>192.8</ele>
        <time>2020-06-24T14:55:18Z</time>
      </trkpt>
      <trkpt lat="50.20325" lon="3.99917">
        <ele>192.9</ele>
        <time>2020-06-24T14:55:19Z</time>
      </trkpt>
      <trkpt lat="50.20321" lon="3.99919">
        <ele>193.1</ele>
        <time>2020-06-24T14:55:20Z</time>
      </trkpt>
      <trkpt lat="50.20316" lon="3.99921">
        <ele>193.2</ele>
        <time>2020-06-24T14:55:21Z</time>
      </trkpt>
      <trkpt lat="50.20313" lon="3.99922">
        <ele>193.3</ele>
        <time>2020-06-24T14:55:22Z</time>
      </trkpt>
      <trkpt lat="50.20309" lon="3.99923">
        <ele>193.4</ele>
        <time>2020-06-24T14:55:23Z</time>
      </trkpt>
      <trkpt lat="50.20305" lon="3.99926">
        <ele>193.5</ele>
        <time>2020-06-24T14:55:24Z</time>
      </trkpt>
      <trkpt lat="50.20301" lon="3.99928">
        <ele>193.6</ele>
        <time>2020-06-24T14:55:25Z</time>
      </trkpt>
      <trkpt lat="50.20298" lon="3.99931">
        <ele>193.7</ele>
        <time>2020-06-24T14:55:26Z</time>
      </trkpt>
      <trkpt lat="50.20295" lon="3.99934">
        <ele>193.7</ele>
        <time>2020-06-24T14:55:27Z</time>
      </trkpt>
      <trkpt lat="50.20292" lon="3.99936">
        <ele>193.8</ele>
        <time>2020-06-24T14:55:28Z</time>
      </trkpt>
      <trkpt lat="50.20289" lon="3.99939">
        <ele>193.9</ele>
        <time>2020-06-24T14:55:29Z</time>
      </trkpt>
      <trkpt lat="50.20285" lon="3.99944">
        <ele>193.9</ele>
        <time>2020-06-24T14:55:30Z</time>
      </trkpt>
      <trkpt lat="50.20281" lon="3.99949">
        <ele>194</ele>
        <time>2020-06-24T14:55:31Z</time>
      </trkpt>
      <trkpt lat="50.20277" lon="3.99953">
        <ele>194.1</ele>
        <time>2020-06-24T14:55:32Z</time>
      </trkpt>
      <trkpt lat="50.20273" lon="3.99957">
        <ele>194.2</ele>
        <time>2020-06-24T14:55:33Z</time>
      </trkpt>
      <trkpt lat="50.20269" lon="3.99961">
        <ele>194.2</ele>
        <time>2020-06-24T14:55:34Z</time>
      </trkpt>
      <trkpt lat="50.20264" lon="3.99966">
        <ele>194.3</ele>
        <time>2020-06-24T14:55:35Z</time>
      </trkpt>
      <trkpt lat="50.20261" lon="3.9997">
        <ele>194.4</ele>
        <time>2020-06-24T14:55:36Z</time>
      </trkpt>
      <trkpt lat="50.20256" lon="3.99974">
        <ele>194.5</ele>
        <time>2020-06-24T14:55:37Z</time>
      </trkpt>
      <trkpt lat="50.20252" lon="3.99978">
        <ele>194.5</ele>
        <time>2020-06-24T14:55:38Z</time>
      </trkpt>
      <trkpt lat="50.20248" lon="3.99982">
        <ele>194.6</ele>
        <time>2020-06-24T14:55:39Z</time>
      </trkpt>
      <trkpt lat="50.20244" lon="3.99985">
        <ele>194.7</ele>
        <time>2020-06-24T14:55:40Z</time>
      </trkpt>
      <trkpt lat="50.2024" lon="3.99988">
        <ele>194.8</ele>
        <time>2020-06-24T14:55:41Z</time>
      </trkpt>
      <trkpt lat="50.20236" lon="3.99992">
        <ele>194.8</ele>
        <time>2020-06-24T14:55:42Z</time>
      </trkpt>
      <trkpt lat="50.20232" lon="3.99996">
        <ele>194.9</ele>
        <time>2020-06-24T14:55:43Z</time>
      </trkpt>
      <trkpt lat="50.20227" lon="4">
        <ele>195</ele>
        <time>2020-06-24T14:55:44Z</time>
      </trkpt>
      <trkpt lat="50.20223" lon="4.00003">
        <ele>195.1</ele>
        <time>2020-06-24T14:55:45Z</time>
      </trkpt>
      <trkpt lat="50.20219" lon="4.00007">
        <ele>195.2</ele>
        <time>2020-06-24T14:55:46Z</time>
      </trkpt>
      <trkpt lat="50.20216" lon="4.0001">
        <ele>195.3</ele>
        <time>2020-06-24T14:55:47Z</time>
      </trkpt>
      <trkpt lat="50.20212" lon="4.00012">
        <ele>195.4</ele>
        <time>2020-06-24T14:55:48Z</time>
      </trkpt>
      <trkpt lat="50.20208" lon="4.00015">
        <ele>195.5</ele>
        <time>2020-06-24T14:55:49Z</time>
      </trkpt>
      <trkpt lat="50.20203" lon="4.00018">
        <ele>195.6</ele>
        <time>2020-06-24T14:55:50Z</time>
      </trkpt>
      <trkpt lat="50.20199" lon="4.0002">
        <ele>195.8</ele>
        <time>2020-06-24T14:55:51Z</time>
      </trkpt>
      <trkpt lat="50.20194" lon="4.00023">
        <ele>195.9</ele>
        <time>2020-06-24T14:55:52Z</time>
      </trkpt>
      <trkpt lat="50.2019" lon="4.00025">
        <ele>196.1</ele>
        <time>2020-06-24T14:55:53Z</time>
      </trkpt>
      <trkpt lat="50.20185" lon="4.00029">
        <ele>196.2</ele>
        <time>2020-06-24T14:55:54Z</time>
      </trkpt>
      <trkpt lat="50.2018" lon="4.00032">
        <ele>196.4</ele>
        <time>2020-06-24T14:55:55Z</time>
      </trkpt>
      <trkpt lat="50.20177" lon="4.00035">
        <ele>196.5</ele>
        <time>2020-06-24T14:55:56Z</time>
      </trkpt>
      <trkpt lat="50.20172" lon="4.00037">
        <ele>196.7</ele>
        <time>2020-06-24T14:55:57Z</time>
      </trkpt>
      <trkpt lat="50.20168" lon="4.0004">
        <ele>196.9</ele>
        <time>2020-06-24T14:55:58Z</time>
      </trkpt>
      <trkpt lat="50.20163" lon="4.00043">
        <ele>197</ele>
        <time>2020-06-24T14:55:59Z</time>
      </trkpt>
      <trkpt lat="50.20159" lon="4.00045">
        <ele>197.2</ele>
        <time>2020-06-24T14:56:00Z</time>
      </trkpt>
      <trkpt lat="50.20155" lon="4.00048">
        <ele>197.4</ele>
        <time>2020-06-24T14:56:01Z</time>
      </trkpt>
      <trkpt lat="50.20151" lon="4.00051">
        <ele>197.6</ele>
        <time>2020-06-24T14:56:02Z</time>
      </trkpt>
      <trkpt lat="50.20147" lon="4.00053">
        <ele>197.9</ele>
        <time>2020-06-24T14:56:03Z</time>
      </trkpt>
      <trkpt lat="50.20143" lon="4.00056">
        <ele>198.1</ele>
        <time>2020-06-24T14:56:04Z</time>
      </trkpt>
      <trkpt lat="50.20138" lon="4.00058">
        <ele>198.3</ele>
        <time>2020-06-24T14:56:05Z</time>
      </trkpt>
      <trkpt lat="50.20134" lon="4.0006">
        <ele>198.5</ele>
        <time>2020-06-24T14:56:06Z</time>
      </trkpt>
      <trkpt lat="50.20129" lon="4.00063">
        <ele>198.8</ele>
        <time>2020-06-24T14:56:07Z</time>
      </trkpt>
      <trkpt lat="50.20123" lon="4.00066">
        <ele>199.1</ele>
        <time>2020-06-24T14:56:08Z</time>
      </trkpt>
      <trkpt lat="50.20119" lon="4.00069">
        <ele>199.3</ele>
        <time>2020-06-24T14:56:09Z</time>
      </trkpt>
      <trkpt lat="50.20114" lon="4.00072">
        <ele>199.5</ele>
        <time>2020-06-24T14:56:10Z</time>
      </trkpt>
      <trkpt lat="50.20111" lon="4.00075">
        <ele>199.6</ele>
        <time>2020-06-24T14:56:11Z</time>
      </trkpt>
      <trkpt lat="50.20107" lon="4.00077">
        <ele>199.8</ele>
        <time>2020-06-24T14:56:12Z</time>
      </trkpt>
      <trkpt lat="50.20103" lon="4.0008">
        <ele>199.9</ele>
        <time>2020-06-24T14:56:13Z</time>
      </trkpt>
      <trkpt lat="50.20098" lon="4.00083">
        <ele>200.1</ele>
        <time>2020-06-24T14:56:14Z</time>
      </trkpt>
      <trkpt lat="50.20095" lon="4.00085">
        <ele>200.2</ele>
        <time>2020-06-24T14:56:15Z</time>
      </trkpt>
      <trkpt lat="50.20091" lon="4.00087">
        <ele>200.3</ele>
        <time>2020-06-24T14:56:16Z</time>
      </trkpt>
      <trkpt lat="50.20087" lon="4.00089">
        <ele>200.4</ele>
        <time>2020-06-24T14:56:17Z</time>
      </trkpt>
      <trkpt lat="50.20082" lon="4.00092">
        <ele>200.6</ele>
        <time>2020-06-24T14:56:18Z</time>
      </trkpt>
      <trkpt lat="50.20079" lon="4.00094">
        <ele>200.7</ele>
        <time>2020-06-24T14:56:19Z</time>
      </trkpt>
      <trkpt lat="50.20074" lon="4.00097">
        <ele>200.8</ele>
        <time>2020-06-24T14:56:20Z</time>
      </trkpt>
      <trkpt lat="50.2007" lon="4.00099">
        <ele>200.9</ele>
        <time>2020-06-24T14:56:21Z</time>
      </trkpt>
      <trkpt lat="50.20065" lon="4.00103">
        <ele>201</ele>
        <time>2020-06-24T14:56:22Z</time>
      </trkpt>
      <trkpt lat="50.2006" lon="4.00106">
        <ele>201.1</ele>
        <time>2020-06-24T14:56:23Z</time>
      </trkpt>
      <trkpt lat="50.20056" lon="4.00109">
        <ele>201.1</ele>
        <time>2020-06-24T14:56:24Z</time>
      </trkpt>
      <trkpt lat="50.20051" lon="4.00112">
        <ele>201.2</ele>
        <time>2020-06-24T14:56:25Z</time>
      </trkpt>
      <trkpt lat="50.20047" lon="4.00116">
        <ele>201.3</ele>
        <time>2020-06-24T14:56:26Z</time>
      </trkpt>
      <trkpt lat="50.20042" lon="4.00119">
        <ele>201.3</ele>
        <time>2020-06-24T14:56:27Z</time>
      </trkpt>
      <trkpt lat="50.20037" lon="4.00122">
        <ele>201.4</ele>
        <time>2020-06-24T14:56:28Z</time>
      </trkpt>
      <trkpt lat="50.20034" lon="4.00126">
        <ele>201.4</ele>
        <time>2020-06-24T14:56:29Z</time>
      </trkpt>
      <trkpt lat="50.20029" lon="4.00129">
        <ele>201.4</ele>
        <time>2020-06-24T14:56:30Z</time>
      </trkpt>
      <trkpt lat="50.20025" lon="4.00132">
        <ele>201.3</ele>
        <time>2020-06-24T14:56:31Z</time>
      </trkpt>
      <trkpt lat="50.2002" lon="4.00135">
        <ele>201.2</ele>
        <time>2020-06-24T14:56:32Z</time>
      </trkpt>
      <trkpt lat="50.20016" lon="4.00139">
        <ele>201.1</ele>
        <time>2020-06-24T14:56:33Z</time>
      </trkpt>
      <trkpt lat="50.20011" lon="4.00142">
        <ele>200.9</ele>
        <time>2020-06-24T14:56:34Z</time>
      </trkpt>
      <trkpt lat="50.20007" lon="4.00146">
        <ele>200.8</ele>
        <time>2020-06-24T14:56:35Z</time>
      </trkpt>
      <trkpt lat="50.20002" lon="4.0015">
        <ele>200.7</ele>
        <time>2020-06-24T14:56:36Z</time>
      </trkpt>
      <trkpt lat="50.19998" lon="4.00155">
        <ele>200.6</ele>
        <time>2020-06-24T14:56:37Z</time>
      </trkpt>
      <trkpt lat="50.19994" lon="4.00158">
        <ele>200.5</ele>
        <time>2020-06-24T14:56:38Z</time>
      </trkpt>
      <trkpt lat="50.1999" lon="4.00162">
        <ele>200.5</ele>
        <time>2020-06-24T14:56:39Z</time>
      </trkpt>
      <trkpt lat="50.19986" lon="4.00166">
        <ele>200.5</ele>
        <time>2020-06-24T14:56:40Z</time>
      </trkpt>
      <trkpt lat="50.19982" lon="4.0017">
        <ele>200.4</ele>
        <time>2020-06-24T14:56:41Z</time>
      </trkpt>
      <trkpt lat="50.19978" lon="4.00175">
        <ele>200.4</ele>
        <time>2020-06-24T14:56:42Z</time>
      </trkpt>
      <trkpt lat="50.19974" lon="4.00181">
        <ele>200.3</ele>
        <time>2020-06-24T14:56:43Z</time>
      </trkpt>
      <trkpt lat="50.1997" lon="4.00186">
        <ele>200.3</ele>
        <time>2020-06-24T14:56:44Z</time>
      </trkpt>
      <trkpt lat="50.19966" lon="4.0019">
        <ele>200.2</ele>
        <time>2020-06-24T14:56:45Z</time>
      </trkpt>
      <trkpt lat="50.19963" lon="4.00194">
        <ele>200.2</ele>
        <time>2020-06-24T14:56:46Z</time>
      </trkpt>
      <trkpt lat="50.19959" lon="4.00199">
        <ele>200.2</ele>
        <time>2020-06-24T14:56:47Z</time>
      </trkpt>
      <trkpt lat="50.19955" lon="4.00204">
        <ele>200.2</ele>
        <time>2020-06-24T14:56:48Z</time>
      </trkpt>
      <trkpt lat="50.19952" lon="4.00208">
        <ele>200.2</ele>
        <time>2020-06-24T14:56:49Z</time>
      </trkpt>
      <trkpt lat="50.19948" lon="4.00212">
        <ele>200.2</ele>
        <time>2020-06-24T14:56:50Z</time>
      </trkpt>
      <trkpt lat="50.19945" lon="4.00216">
        <ele>200.1</ele>
        <time>2020-06-24T14:56:51Z</time>
      </trkpt>
      <trkpt lat="50.19941" lon="4.00221">
        <ele>200.1</ele>
        <time>2020-06-24T14:56:52Z</time>
      </trkpt>
      <trkpt lat="50.19937" lon="4.00225">
        <ele>200.1</ele>
        <time>2020-06-24T14:56:53Z</time>
      </trkpt>
      <trkpt lat="50.19933" lon="4.0023">
        <ele>200.1</ele>
        <time>2020-06-24T14:56:54Z</time>
      </trkpt>
      <trkpt lat="50.19929" lon="4.00235">
        <ele>200</ele>
        <time>2020-06-24T14:56:55Z</time>
      </trkpt>
      <trkpt lat="50.19926" lon="4.0024">
        <ele>200</ele>
        <time>2020-06-24T14:56:56Z</time>
      </trkpt>
      <trkpt lat="50.19923" lon="4.00246">
        <ele>200</ele>
        <time>2020-06-24T14:56:57Z</time>
      </trkpt>
      <trkpt lat="50.19919" lon="4.00252">
        <ele>199.9</ele>
        <time>2020-06-24T14:56:58Z</time>
      </trkpt>
      <trkpt lat="50.19917" lon="4.00259">
        <ele>199.9</ele>
        <time>2020-06-24T14:56:59Z</time>
      </trkpt>
      <trkpt lat="50.19914" lon="4.00267">
        <ele>199.9</ele>
        <time>2020-06-24T14:57:00Z</time>
      </trkpt>
      <trkpt lat="50.19912" lon="4.00275">
        <ele>199.8</ele>
        <time>2020-06-24T14:57:01Z</time>
      </trkpt>
      <trkpt lat="50.1991" lon="4.00284">
        <ele>199.8</ele>
        <time>2020-06-24T14:57:02Z</time>
      </trkpt>
      <trkpt lat="50.19909" lon="4.00293">
        <ele>199.6</ele>
        <time>2020-06-24T14:57:03Z</time>
      </trkpt>
      <trkpt lat="50.1991" lon="4.00302">
        <ele>199.6</ele>
        <time>2020-06-24T14:57:04Z</time>
      </trkpt>
      <trkpt lat="50.1991" lon="4.0031">
        <ele>199.6</ele>
        <time>2020-06-24T14:57:05Z</time>
      </trkpt>
      <trkpt lat="50.1991" lon="4.00318">
        <ele>199.6</ele>
        <time>2020-06-24T14:57:06Z</time>
      </trkpt>
      <trkpt lat="50.1991" lon="4.00327">
        <ele>199.5</ele>
        <time>2020-06-24T14:57:07Z</time>
      </trkpt>
      <trkpt lat="50.19912" lon="4.00335">
        <ele>199.4</ele>
        <time>2020-06-24T14:57:08Z</time>
      </trkpt>
      <trkpt lat="50.19914" lon="4.00342">
        <ele>199.3</ele>
        <time>2020-06-24T14:57:09Z</time>
      </trkpt>
      <trkpt lat="50.19917" lon="4.0035">
        <ele>199.2</ele>
        <time>2020-06-24T14:57:10Z</time>
      </trkpt>
      <trkpt lat="50.1992" lon="4.00356">
        <ele>199.1</ele>
        <time>2020-06-24T14:57:11Z</time>
      </trkpt>
      <trkpt lat="50.19923" lon="4.00363">
        <ele>199</ele>
        <time>2020-06-24T14:57:12Z</time>
      </trkpt>
      <trkpt lat="50.19927" lon="4.00371">
        <ele>198.9</ele>
        <time>2020-06-24T14:57:13Z</time>
      </trkpt>
      <trkpt lat="50.1993" lon="4.00378">
        <ele>198.8</ele>
        <time>2020-06-24T14:57:14Z</time>
      </trkpt>
      <trkpt lat="50.19934" lon="4.00386">
        <ele>198.8</ele>
        <time>2020-06-24T14:57:15Z</time>
      </trkpt>
      <trkpt lat="50.19938" lon="4.00393">
        <ele>198.7</ele>
        <time>2020-06-24T14:57:16Z</time>
      </trkpt>
      <trkpt lat="50.19941" lon="4.004">
        <ele>198.7</ele>
        <time>2020-06-24T14:57:17Z</time>
      </trkpt>
      <trkpt lat="50.19945" lon="4.00407">
        <ele>198.6</ele>
        <time>2020-06-24T14:57:18Z</time>
      </trkpt>
      <trkpt lat="50.19948" lon="4.00414">
        <ele>198.6</ele>
        <time>2020-06-24T14:57:19Z</time>
      </trkpt>
      <trkpt lat="50.1995" lon="4.0042">
        <ele>198.5</ele>
        <time>2020-06-24T14:57:20Z</time>
      </trkpt>
      <trkpt lat="50.19953" lon="4.00427">
        <ele>198.5</ele>
        <time>2020-06-24T14:57:21Z</time>
      </trkpt>
      <trkpt lat="50.19956" lon="4.00434">
        <ele>198.4</ele>
        <time>2020-06-24T14:57:22Z</time>
      </trkpt>
      <trkpt lat="50.19959" lon="4.0044">
        <ele>198.4</ele>
        <time>2020-06-24T14:57:23Z</time>
      </trkpt>
      <trkpt lat="50.19963" lon="4.00448">
        <ele>198.3</ele>
        <time>2020-06-24T14:57:24Z</time>
      </trkpt>
      <trkpt lat="50.19967" lon="4.00456">
        <ele>198.2</ele>
        <time>2020-06-24T14:57:25Z</time>
      </trkpt>
      <trkpt lat="50.1997" lon="4.00463">
        <ele>198.2</ele>
        <time>2020-06-24T14:57:26Z</time>
      </trkpt>
      <trkpt lat="50.19973" lon="4.00471">
        <ele>198.1</ele>
        <time>2020-06-24T14:57:27Z</time>
      </trkpt>
      <trkpt lat="50.19976" lon="4.00478">
        <ele>198</ele>
        <time>2020-06-24T14:57:28Z</time>
      </trkpt>
      <trkpt lat="50.1998" lon="4.00487">
        <ele>197.9</ele>
        <time>2020-06-24T14:57:29Z</time>
      </trkpt>
      <trkpt lat="50.19983" lon="4.00495">
        <ele>197.9</ele>
        <time>2020-06-24T14:57:30Z</time>
      </trkpt>
      <trkpt lat="50.19987" lon="4.00503">
        <ele>197.8</ele>
        <time>2020-06-24T14:57:31Z</time>
      </trkpt>
      <trkpt lat="50.19989" lon="4.00512">
        <ele>197.7</ele>
        <time>2020-06-24T14:57:32Z</time>
      </trkpt>
      <trkpt lat="50.19992" lon="4.0052">
        <ele>197.6</ele>
        <time>2020-06-24T14:57:33Z</time>
      </trkpt>
      <trkpt lat="50.19995" lon="4.00529">
        <ele>197.5</ele>
        <time>2020-06-24T14:57:34Z</time>
      </trkpt>
      <trkpt lat="50.19998" lon="4.00537">
        <ele>197.4</ele>
        <time>2020-06-24T14:57:35Z</time>
      </trkpt>
      <trkpt lat="50.20001" lon="4.00547">
        <ele>197.3</ele>
        <time>2020-06-24T14:57:36Z</time>
      </trkpt>
      <trkpt lat="50.20004" lon="4.00556">
        <ele>197.2</ele>
        <time>2020-06-24T14:57:37Z</time>
      </trkpt>
      <trkpt lat="50.20006" lon="4.00564">
        <ele>197.1</ele>
        <time>2020-06-24T14:57:38Z</time>
      </trkpt>
      <trkpt lat="50.20009" lon="4.00573">
        <ele>197.1</ele>
        <time>2020-06-24T14:57:39Z</time>
      </trkpt>
      <trkpt lat="50.20012" lon="4.00582">
        <ele>197</ele>
        <time>2020-06-24T14:57:40Z</time>
      </trkpt>
      <trkpt lat="50.20015" lon="4.00592">
        <ele>196.9</ele>
        <time>2020-06-24T14:57:41Z</time>
      </trkpt>
      <trkpt lat="50.20017" lon="4.006">
        <ele>196.8</ele>
        <time>2020-06-24T14:57:42Z</time>
      </trkpt>
      <trkpt lat="50.20019" lon="4.00608">
        <ele>196.7</ele>
        <time>2020-06-24T14:57:43Z</time>
      </trkpt>
      <trkpt lat="50.20021" lon="4.00616">
        <ele>196.6</ele>
        <time>2020-06-24T14:57:44Z</time>
      </trkpt>
      <trkpt lat="50.20024" lon="4.00624">
        <ele>196.6</ele>
        <time>2020-06-24T14:57:45Z</time>
      </trkpt>
      <trkpt lat="50.20026" lon="4.00633">
        <ele>196.5</ele>
        <time>2020-06-24T14:57:46Z</time>
      </trkpt>
      <trkpt lat="50.20028" lon="4.00641">
        <ele>196.5</ele>
        <time>2020-06-24T14:57:47Z</time>
      </trkpt>
      <trkpt lat="50.20031" lon="4.0065">
        <ele>196.4</ele>
        <time>2020-06-24T14:57:48Z</time>
      </trkpt>
      <trkpt lat="50.20033" lon="4.00659">
        <ele>196.3</ele>
        <time>2020-06-24T14:57:49Z</time>
      </trkpt>
      <trkpt lat="50.20035" lon="4.00668">
        <ele>196.3</ele>
        <time>2020-06-24T14:57:50Z</time>
      </trkpt>
      <trkpt lat="50.20038" lon="4.00678">
        <ele>196.2</ele>
        <time>2020-06-24T14:57:51Z</time>
      </trkpt>
      <trkpt lat="50.2004" lon="4.00687">
        <ele>196.2</ele>
        <time>2020-06-24T14:57:52Z</time>
      </trkpt>
      <trkpt lat="50.20042" lon="4.00696">
        <ele>196.1</ele>
        <time>2020-06-24T14:57:53Z</time>
      </trkpt>
      <trkpt lat="50.20044" lon="4.00706">
        <ele>196.1</ele>
        <time>2020-06-24T14:57:54Z</time>
      </trkpt>
      <trkpt lat="50.20047" lon="4.00714">
        <ele>196.1</ele>
        <time>2020-06-24T14:57:55Z</time>
      </trkpt>
      <trkpt lat="50.20049" lon="4.00722">
        <ele>196</ele>
        <time>2020-06-24T14:57:56Z</time>
      </trkpt>
      <trkpt lat="50.20051" lon="4.0073">
        <ele>196</ele>
        <time>2020-06-24T14:57:57Z</time>
      </trkpt>
      <trkpt lat="50.20054" lon="4.00738">
        <ele>195.9</ele>
        <time>2020-06-24T14:57:58Z</time>
      </trkpt>
      <trkpt lat="50.20056" lon="4.00746">
        <ele>195.8</ele>
        <time>2020-06-24T14:57:59Z</time>
      </trkpt>
      <trkpt lat="50.20058" lon="4.00755">
        <ele>195.8</ele>
        <time>2020-06-24T14:58:00Z</time>
      </trkpt>
      <trkpt lat="50.2006" lon="4.00764">
        <ele>195.7</ele>
        <time>2020-06-24T14:58:01Z</time>
      </trkpt>
      <trkpt lat="50.20063" lon="4.00772">
        <ele>195.6</ele>
        <time>2020-06-24T14:58:02Z</time>
      </trkpt>
      <trkpt lat="50.20064" lon="4.00779">
        <ele>195.6</ele>
        <time>2020-06-24T14:58:03Z</time>
      </trkpt>
      <trkpt lat="50.20066" lon="4.00787">
        <ele>195.6</ele>
        <time>2020-06-24T14:58:04Z</time>
      </trkpt>
      <trkpt lat="50.20067" lon="4.00797">
        <ele>195.5</ele>
        <time>2020-06-24T14:58:05Z</time>
      </trkpt>
      <trkpt lat="50.20068" lon="4.00806">
        <ele>195.4</ele>
        <time>2020-06-24T14:58:06Z</time>
      </trkpt>
      <trkpt lat="50.2007" lon="4.00817">
        <ele>195.4</ele>
        <time>2020-06-24T14:58:07Z</time>
      </trkpt>
      <trkpt lat="50.20072" lon="4.00827">
        <ele>195.3</ele>
        <time>2020-06-24T14:58:08Z</time>
      </trkpt>
      <trkpt lat="50.20073" lon="4.00837">
        <ele>195.2</ele>
        <time>2020-06-24T14:58:09Z</time>
      </trkpt>
      <trkpt lat="50.20075" lon="4.00845">
        <ele>195.2</ele>
        <time>2020-06-24T14:58:10Z</time>
      </trkpt>
      <trkpt lat="50.20076" lon="4.00855">
        <ele>195.1</ele>
        <time>2020-06-24T14:58:11Z</time>
      </trkpt>
      <trkpt lat="50.20077" lon="4.00865">
        <ele>195.1</ele>
        <time>2020-06-24T14:58:12Z</time>
      </trkpt>
      <trkpt lat="50.20078" lon="4.00874">
        <ele>195</ele>
        <time>2020-06-24T14:58:13Z</time>
      </trkpt>
      <trkpt lat="50.20078" lon="4.00884">
        <ele>195</ele>
        <time>2020-06-24T14:58:14Z</time>
      </trkpt>
      <trkpt lat="50.20079" lon="4.00893">
        <ele>195</ele>
        <time>2020-06-24T14:58:15Z</time>
      </trkpt>
      <trkpt lat="50.20079" lon="4.00901">
        <ele>195</ele>
        <time>2020-06-24T14:58:16Z</time>
      </trkpt>
      <trkpt lat="50.2008" lon="4.00909">
        <ele>194.9</ele>
        <time>2020-06-24T14:58:17Z</time>
      </trkpt>
      <trkpt lat="50.2008" lon="4.00918">
        <ele>194.9</ele>
        <time>2020-06-24T14:58:18Z</time>
      </trkpt>
      <trkpt lat="50.2008" lon="4.00928">
        <ele>195</ele>
        <time>2020-06-24T14:58:19Z</time>
      </trkpt>
      <trkpt lat="50.2008" lon="4.00939">
        <ele>195</ele>
        <time>2020-06-24T14:58:20Z</time>
      </trkpt>
      <trkpt lat="50.20081" lon="4.00949">
        <ele>195</ele>
        <time>2020-06-24T14:58:21Z</time>
      </trkpt>
      <trkpt lat="50.20081" lon="4.00959">
        <ele>195.1</ele>
        <time>2020-06-24T14:58:22Z</time>
      </trkpt>
      <trkpt lat="50.20081" lon="4.00969">
        <ele>195.1</ele>
        <time>2020-06-24T14:58:23Z</time>
      </trkpt>
      <trkpt lat="50.20082" lon="4.00979">
        <ele>195.1</ele>
        <time>2020-06-24T14:58:24Z</time>
      </trkpt>
      <trkpt lat="50.20084" lon="4.00988">
        <ele>195.1</ele>
        <time>2020-06-24T14:58:25Z</time>
      </trkpt>
      <trkpt lat="50.20085" lon="4.00997">
        <ele>195.1</ele>
        <time>2020-06-24T14:58:26Z</time>
      </trkpt>
      <trkpt lat="50.20086" lon="4.01005">
        <ele>195.1</ele>
        <time>2020-06-24T14:58:27Z</time>
      </trkpt>
      <trkpt lat="50.20088" lon="4.01013">
        <ele>195.2</ele>
        <time>2020-06-24T14:58:28Z</time>
      </trkpt>
      <trkpt lat="50.20089" lon="4.01021">
        <ele>195.2</ele>
        <time>2020-06-24T14:58:29Z</time>
      </trkpt>
      <trkpt lat="50.2009" lon="4.0103">
        <ele>195.2</ele>
        <time>2020-06-24T14:58:30Z</time>
      </trkpt>
      <trkpt lat="50.2009" lon="4.01039">
        <ele>195.1</ele>
        <time>2020-06-24T14:58:31Z</time>
      </trkpt>
      <trkpt lat="50.20089" lon="4.01048">
        <ele>195.1</ele>
        <time>2020-06-24T14:58:32Z</time>
      </trkpt>
      <trkpt lat="50.20089" lon="4.01058">
        <ele>195.1</ele>
        <time>2020-06-24T14:58:33Z</time>
      </trkpt>
      <trkpt lat="50.2009" lon="4.01068">
        <ele>195.1</ele>
        <time>2020-06-24T14:58:34Z</time>
      </trkpt>
      <trkpt lat="50.2009" lon="4.01078">
        <ele>195.1</ele>
        <time>2020-06-24T14:58:35Z</time>
      </trkpt>
      <trkpt lat="50.2009" lon="4.01086">
        <ele>195.1</ele>
        <time>2020-06-24T14:58:36Z</time>
      </trkpt>
      <trkpt lat="50.2009" lon="4.01092">
        <ele>195</ele>
        <time>2020-06-24T14:58:37Z</time>
      </trkpt>
      <trkpt lat="50.2009" lon="4.011">
        <ele>195</ele>
        <time>2020-06-24T14:58:38Z</time>
      </trkpt>
      <trkpt lat="50.20092" lon="4.01109">
        <ele>195</ele>
        <time>2020-06-24T14:58:39Z</time>
      </trkpt>
      <trkpt lat="50.20094" lon="4.01116">
        <ele>195</ele>
        <time>2020-06-24T14:58:40Z</time>
      </trkpt>
      <trkpt lat="50.20096" lon="4.01123">
        <ele>195</ele>
        <time>2020-06-24T14:58:41Z</time>
      </trkpt>
      <trkpt lat="50.20099" lon="4.0113">
        <ele>195</ele>
        <time>2020-06-24T14:58:42Z</time>
      </trkpt>
      <trkpt lat="50.20102" lon="4.01138">
        <ele>195</ele>
        <time>2020-06-24T14:58:43Z</time>
      </trkpt>
      <trkpt lat="50.20104" lon="4.01144">
        <ele>195</ele>
        <time>2020-06-24T14:58:44Z</time>
      </trkpt>
      <trkpt lat="50.20107" lon="4.01153">
        <ele>195</ele>
        <time>2020-06-24T14:58:45Z</time>
      </trkpt>
      <trkpt lat="50.2011" lon="4.0116">
        <ele>195</ele>
        <time>2020-06-24T14:58:46Z</time>
      </trkpt>
      <trkpt lat="50.20113" lon="4.01168">
        <ele>195</ele>
        <time>2020-06-24T14:58:47Z</time>
      </trkpt>
      <trkpt lat="50.20116" lon="4.01177">
        <ele>194.9</ele>
        <time>2020-06-24T14:58:48Z</time>
      </trkpt>
      <trkpt lat="50.20118" lon="4.01184">
        <ele>194.9</ele>
        <time>2020-06-24T14:58:49Z</time>
      </trkpt>
      <trkpt lat="50.2012" lon="4.01191">
        <ele>194.9</ele>
        <time>2020-06-24T14:58:50Z</time>
      </trkpt>
      <trkpt lat="50.20123" lon="4.01198">
        <ele>194.9</ele>
        <time>2020-06-24T14:58:51Z</time>
      </trkpt>
      <trkpt lat="50.20125" lon="4.01206">
        <ele>194.8</ele>
        <time>2020-06-24T14:58:52Z</time>
      </trkpt>
      <trkpt lat="50.20126" lon="4.01213">
        <ele>194.8</ele>
        <time>2020-06-24T14:58:53Z</time>
      </trkpt>
      <trkpt lat="50.20125" lon="4.01221">
        <ele>194.7</ele>
        <time>2020-06-24T14:58:54Z</time>
      </trkpt>
      <trkpt lat="50.20124" lon="4.01228">
        <ele>194.7</ele>
        <time>2020-06-24T14:58:55Z</time>
      </trkpt>
      <trkpt lat="50.20122" lon="4.01234">
        <ele>194.6</ele>
        <time>2020-06-24T14:58:56Z</time>
      </trkpt>
      <trkpt lat="50.2012" lon="4.01242">
        <ele>194.5</ele>
        <time>2020-06-24T14:58:57Z</time>
      </trkpt>
      <trkpt lat="50.20118" lon="4.01251">
        <ele>194.5</ele>
        <time>2020-06-24T14:58:58Z</time>
      </trkpt>
      <trkpt lat="50.20116" lon="4.01259">
        <ele>194.4</ele>
        <time>2020-06-24T14:58:59Z</time>
      </trkpt>
      <trkpt lat="50.20114" lon="4.01269">
        <ele>194.3</ele>
        <time>2020-06-24T14:59:00Z</time>
      </trkpt>
      <trkpt lat="50.20113" lon="4.01279">
        <ele>194.2</ele>
        <time>2020-06-24T14:59:01Z</time>
      </trkpt>
      <trkpt lat="50.20111" lon="4.01289">
        <ele>194.2</ele>
        <time>2020-06-24T14:59:02Z</time>
      </trkpt>
      <trkpt lat="50.2011" lon="4.01297">
        <ele>194.1</ele>
        <time>2020-06-24T14:59:03Z</time>
      </trkpt>
      <trkpt lat="50.20107" lon="4.01309">
        <ele>194.1</ele>
        <time>2020-06-24T14:59:04Z</time>
      </trkpt>
      <trkpt lat="50.20106" lon="4.01316">
        <ele>194.1</ele>
        <time>2020-06-24T14:59:05Z</time>
      </trkpt>
      <trkpt lat="50.20104" lon="4.01325">
        <ele>194</ele>
        <time>2020-06-24T14:59:06Z</time>
      </trkpt>
      <trkpt lat="50.20102" lon="4.01333">
        <ele>193.9</ele>
        <time>2020-06-24T14:59:07Z</time>
      </trkpt>
      <trkpt lat="50.20101" lon="4.01341">
        <ele>193.8</ele>
        <time>2020-06-24T14:59:08Z</time>
      </trkpt>
      <trkpt lat="50.201" lon="4.01349">
        <ele>193.7</ele>
        <time>2020-06-24T14:59:09Z</time>
      </trkpt>
      <trkpt lat="50.20099" lon="4.01358">
        <ele>193.6</ele>
        <time>2020-06-24T14:59:10Z</time>
      </trkpt>
      <trkpt lat="50.20097" lon="4.01368">
        <ele>193.5</ele>
        <time>2020-06-24T14:59:11Z</time>
      </trkpt>
      <trkpt lat="50.20097" lon="4.01375">
        <ele>193.4</ele>
        <time>2020-06-24T14:59:12Z</time>
      </trkpt>
      <trkpt lat="50.20096" lon="4.01383">
        <ele>193.4</ele>
        <time>2020-06-24T14:59:13Z</time>
      </trkpt>
      <trkpt lat="50.20096" lon="4.01391">
        <ele>193.3</ele>
        <time>2020-06-24T14:59:14Z</time>
      </trkpt>
      <trkpt lat="50.20096" lon="4.01399">
        <ele>193.3</ele>
        <time>2020-06-24T14:59:15Z</time>
      </trkpt>
      <trkpt lat="50.20096" lon="4.01407">
        <ele>193.4</ele>
        <time>2020-06-24T14:59:16Z</time>
      </trkpt>
      <trkpt lat="50.20096" lon="4.01415">
        <ele>193.5</ele>
        <time>2020-06-24T14:59:17Z</time>
      </trkpt>
      <trkpt lat="50.20097" lon="4.01424">
        <ele>193.6</ele>
        <time>2020-06-24T14:59:18Z</time>
      </trkpt>
      <trkpt lat="50.20098" lon="4.01431">
        <ele>193.6</ele>
        <time>2020-06-24T14:59:19Z</time>
      </trkpt>
      <trkpt lat="50.20099" lon="4.01437">
        <ele>193.7</ele>
        <time>2020-06-24T14:59:20Z</time>
      </trkpt>
      <trkpt lat="50.20099" lon="4.01444">
        <ele>193.7</ele>
        <time>2020-06-24T14:59:21Z</time>
      </trkpt>
      <trkpt lat="50.20099" lon="4.01451">
        <ele>193.7</ele>
        <time>2020-06-24T14:59:22Z</time>
      </trkpt>
      <trkpt lat="50.20099" lon="4.01458">
        <ele>193.7</ele>
        <time>2020-06-24T14:59:23Z</time>
      </trkpt>
      <trkpt lat="50.20098" lon="4.01465">
        <ele>193.6</ele>
        <time>2020-06-24T14:59:24Z</time>
      </trkpt>
      <trkpt lat="50.20098" lon="4.01473">
        <ele>193.5</ele>
        <time>2020-06-24T14:59:25Z</time>
      </trkpt>
      <trkpt lat="50.20096" lon="4.01484">
        <ele>193.4</ele>
        <time>2020-06-24T14:59:26Z</time>
      </trkpt>
      <trkpt lat="50.20095" lon="4.01494">
        <ele>193.2</ele>
        <time>2020-06-24T14:59:27Z</time>
      </trkpt>
      <trkpt lat="50.20095" lon="4.01502">
        <ele>193.1</ele>
        <time>2020-06-24T14:59:28Z</time>
      </trkpt>
      <trkpt lat="50.20095" lon="4.01511">
        <ele>193</ele>
        <time>2020-06-24T14:59:29Z</time>
      </trkpt>
      <trkpt lat="50.20095" lon="4.0152">
        <ele>193</ele>
        <time>2020-06-24T14:59:30Z</time>
      </trkpt>
      <trkpt lat="50.20094" lon="4.01527">
        <ele>193</ele>
        <time>2020-06-24T14:59:31Z</time>
      </trkpt>
      <trkpt lat="50.20093" lon="4.01532">
        <ele>192.9</ele>
        <time>2020-06-24T14:59:32Z</time>
      </trkpt>
      <trkpt lat="50.20093" lon="4.01541">
        <ele>192.9</ele>
        <time>2020-06-24T14:59:33Z</time>
      </trkpt>
      <trkpt lat="50.20093" lon="4.0155">
        <ele>192.9</ele>
        <time>2020-06-24T14:59:34Z</time>
      </trkpt>
      <trkpt lat="50.20094" lon="4.01559">
        <ele>192.9</ele>
        <time>2020-06-24T14:59:35Z</time>
      </trkpt>
      <trkpt lat="50.20094" lon="4.01567">
        <ele>193</ele>
        <time>2020-06-24T14:59:36Z</time>
      </trkpt>
      <trkpt lat="50.20093" lon="4.01576">
        <ele>193</ele>
        <time>2020-06-24T14:59:37Z</time>
      </trkpt>
      <trkpt lat="50.20093" lon="4.01585">
        <ele>193</ele>
        <time>2020-06-24T14:59:38Z</time>
      </trkpt>
      <trkpt lat="50.20093" lon="4.01593">
        <ele>192.9</ele>
        <time>2020-06-24T14:59:39Z</time>
      </trkpt>
      <trkpt lat="50.20093" lon="4.01603">
        <ele>192.9</ele>
        <time>2020-06-24T14:59:40Z</time>
      </trkpt>
      <trkpt lat="50.20093" lon="4.01612">
        <ele>192.8</ele>
        <time>2020-06-24T14:59:41Z</time>
      </trkpt>
      <trkpt lat="50.20093" lon="4.0162">
        <ele>192.8</ele>
        <time>2020-06-24T14:59:42Z</time>
      </trkpt>
      <trkpt lat="50.20093" lon="4.0163">
        <ele>192.7</ele>
        <time>2020-06-24T14:59:43Z</time>
      </trkpt>
      <trkpt lat="50.20094" lon="4.01638">
        <ele>192.7</ele>
        <time>2020-06-24T14:59:44Z</time>
      </trkpt>
      <trkpt lat="50.20094" lon="4.01647">
        <ele>192.6</ele>
        <time>2020-06-24T14:59:45Z</time>
      </trkpt>
      <trkpt lat="50.20094" lon="4.01656">
        <ele>192.5</ele>
        <time>2020-06-24T14:59:46Z</time>
      </trkpt>
      <trkpt lat="50.20094" lon="4.01664">
        <ele>192.5</ele>
        <time>2020-06-24T14:59:47Z</time>
      </trkpt>
      <trkpt lat="50.20094" lon="4.01673">
        <ele>192.4</ele>
        <time>2020-06-24T14:59:48Z</time>
      </trkpt>
      <trkpt lat="50.20094" lon="4.0168">
        <ele>192.4</ele>
        <time>2020-06-24T14:59:49Z</time>
      </trkpt>
      <trkpt lat="50.20095" lon="4.01686">
        <ele>192.3</ele>
        <time>2020-06-24T14:59:50Z</time>
      </trkpt>
      <trkpt lat="50.20095" lon="4.01693">
        <ele>192.3</ele>
        <time>2020-06-24T14:59:51Z</time>
      </trkpt>
      <trkpt lat="50.20094" lon="4.01702">
        <ele>192.2</ele>
        <time>2020-06-24T14:59:52Z</time>
      </trkpt>
      <trkpt lat="50.20095" lon="4.0171">
        <ele>192.1</ele>
        <time>2020-06-24T14:59:53Z</time>
      </trkpt>
      <trkpt lat="50.20094" lon="4.01718">
        <ele>192</ele>
        <time>2020-06-24T14:59:54Z</time>
      </trkpt>
      <trkpt lat="50.20094" lon="4.01728">
        <ele>191.9</ele>
        <time>2020-06-24T14:59:55Z</time>
      </trkpt>
      <trkpt lat="50.20094" lon="4.01739">
        <ele>191.8</ele>
        <time>2020-06-24T14:59:56Z</time>
      </trkpt>
      <trkpt lat="50.20094" lon="4.01749">
        <ele>191.7</ele>
        <time>2020-06-24T14:59:57Z</time>
      </trkpt>
      <trkpt lat="50.20094" lon="4.01757">
        <ele>191.7</ele>
        <time>2020-06-24T14:59:58Z</time>
      </trkpt>
      <trkpt lat="50.20094" lon="4.01769">
        <ele>191.6</ele>
        <time>2020-06-24T14:59:59Z</time>
      </trkpt>
      <trkpt lat="50.20095" lon="4.01777">
        <ele>191.6</ele>
        <time>2020-06-24T15:00:00Z</time>
      </trkpt>
      <trkpt lat="50.20095" lon="4.01784">
        <ele>191.5</ele>
        <time>2020-06-24T15:00:01Z</time>
      </trkpt>
      <trkpt lat="50.20095" lon="4.01792">
        <ele>191.5</ele>
        <time>2020-06-24T15:00:02Z</time>
      </trkpt>
      <trkpt lat="50.20095" lon="4.01801">
        <ele>191.4</ele>
        <time>2020-06-24T15:00:03Z</time>
      </trkpt>
      <trkpt lat="50.20095" lon="4.01809">
        <ele>191.3</ele>
        <time>2020-06-24T15:00:04Z</time>
      </trkpt>
      <trkpt lat="50.20094" lon="4.01817">
        <ele>191.2</ele>
        <time>2020-06-24T15:00:05Z</time>
      </trkpt>
      <trkpt lat="50.20094" lon="4.01827">
        <ele>191.1</ele>
        <time>2020-06-24T15:00:06Z</time>
      </trkpt>
      <trkpt lat="50.20093" lon="4.01834">
        <ele>191</ele>
        <time>2020-06-24T15:00:07Z</time>
      </trkpt>
      <trkpt lat="50.20092" lon="4.01843">
        <ele>190.9</ele>
        <time>2020-06-24T15:00:08Z</time>
      </trkpt>
      <trkpt lat="50.20092" lon="4.01852">
        <ele>190.7</ele>
        <time>2020-06-24T15:00:09Z</time>
      </trkpt>
      <trkpt lat="50.20091" lon="4.01861">
        <ele>190.6</ele>
        <time>2020-06-24T15:00:10Z</time>
      </trkpt>
      <trkpt lat="50.2009" lon="4.0187">
        <ele>190.4</ele>
        <time>2020-06-24T15:00:11Z</time>
      </trkpt>
      <trkpt lat="50.20089" lon="4.01879">
        <ele>190.2</ele>
        <time>2020-06-24T15:00:12Z</time>
      </trkpt>
      <trkpt lat="50.20088" lon="4.01888">
        <ele>190</ele>
        <time>2020-06-24T15:00:13Z</time>
      </trkpt>
      <trkpt lat="50.20086" lon="4.019">
        <ele>189.8</ele>
        <time>2020-06-24T15:00:14Z</time>
      </trkpt>
      <trkpt lat="50.20085" lon="4.01909">
        <ele>189.6</ele>
        <time>2020-06-24T15:00:15Z</time>
      </trkpt>
      <trkpt lat="50.20083" lon="4.01918">
        <ele>189.4</ele>
        <time>2020-06-24T15:00:16Z</time>
      </trkpt>
      <trkpt lat="50.20082" lon="4.01929">
        <ele>189.1</ele>
        <time>2020-06-24T15:00:17Z</time>
      </trkpt>
      <trkpt lat="50.2008" lon="4.0194">
        <ele>188.7</ele>
        <time>2020-06-24T15:00:18Z</time>
      </trkpt>
      <trkpt lat="50.20078" lon="4.0195">
        <ele>188.3</ele>
        <time>2020-06-24T15:00:19Z</time>
      </trkpt>
      <trkpt lat="50.20073" lon="4.01959">
        <ele>187.9</ele>
        <time>2020-06-24T15:00:20Z</time>
      </trkpt>
      <trkpt lat="50.20068" lon="4.01967">
        <ele>187.4</ele>
        <time>2020-06-24T15:00:21Z</time>
      </trkpt>
      <trkpt lat="50.20062" lon="4.01975">
        <ele>186.9</ele>
        <time>2020-06-24T15:00:22Z</time>
      </trkpt>
      <trkpt lat="50.20057" lon="4.01982">
        <ele>186.4</ele>
        <time>2020-06-24T15:00:23Z</time>
      </trkpt>
      <trkpt lat="50.20052" lon="4.01991">
        <ele>185.9</ele>
        <time>2020-06-24T15:00:24Z</time>
      </trkpt>
      <trkpt lat="50.20046" lon="4.01998">
        <ele>185.4</ele>
        <time>2020-06-24T15:00:25Z</time>
      </trkpt>
      <trkpt lat="50.20041" lon="4.02006">
        <ele>185</ele>
        <time>2020-06-24T15:00:26Z</time>
      </trkpt>
      <trkpt lat="50.20036" lon="4.02013">
        <ele>184.6</ele>
        <time>2020-06-24T15:00:27Z</time>
      </trkpt>
      <trkpt lat="50.20031" lon="4.02021">
        <ele>184.2</ele>
        <time>2020-06-24T15:00:28Z</time>
      </trkpt>
      <trkpt lat="50.20026" lon="4.0203">
        <ele>183.7</ele>
        <time>2020-06-24T15:00:29Z</time>
      </trkpt>
      <trkpt lat="50.20022" lon="4.02038">
        <ele>183.3</ele>
        <time>2020-06-24T15:00:30Z</time>
      </trkpt>
      <trkpt lat="50.20019" lon="4.02047">
        <ele>182.9</ele>
        <time>2020-06-24T15:00:31Z</time>
      </trkpt>
      <trkpt lat="50.20015" lon="4.02057">
        <ele>182.4</ele>
        <time>2020-06-24T15:00:32Z</time>
      </trkpt>
      <trkpt lat="50.20012" lon="4.02067">
        <ele>181.8</ele>
        <time>2020-06-24T15:00:33Z</time>
      </trkpt>
      <trkpt lat="50.20008" lon="4.02078">
        <ele>181.3</ele>
        <time>2020-06-24T15:00:34Z</time>
      </trkpt>
      <trkpt lat="50.20006" lon="4.0209">
        <ele>180.6</ele>
        <time>2020-06-24T15:00:35Z</time>
      </trkpt>
      <trkpt lat="50.20004" lon="4.02103">
        <ele>180</ele>
        <time>2020-06-24T15:00:36Z</time>
      </trkpt>
      <trkpt lat="50.20003" lon="4.02116">
        <ele>179.4</ele>
        <time>2020-06-24T15:00:37Z</time>
      </trkpt>
      <trkpt lat="50.20002" lon="4.0213">
        <ele>178.7</ele>
        <time>2020-06-24T15:00:38Z</time>
      </trkpt>
      <trkpt lat="50.2" lon="4.02144">
        <ele>177.9</ele>
        <time>2020-06-24T15:00:39Z</time>
      </trkpt>
      <trkpt lat="50.19999" lon="4.02158">
        <ele>177.1</ele>
        <time>2020-06-24T15:00:40Z</time>
      </trkpt>
      <trkpt lat="50.19998" lon="4.02172">
        <ele>176.3</ele>
        <time>2020-06-24T15:00:41Z</time>
      </trkpt>
      <trkpt lat="50.19998" lon="4.02186">
        <ele>175.5</ele>
        <time>2020-06-24T15:00:42Z</time>
      </trkpt>
      <trkpt lat="50.19997" lon="4.022">
        <ele>174.7</ele>
        <time>2020-06-24T15:00:43Z</time>
      </trkpt>
      <trkpt lat="50.19996" lon="4.02214">
        <ele>173.9</ele>
        <time>2020-06-24T15:00:44Z</time>
      </trkpt>
      <trkpt lat="50.19994" lon="4.02229">
        <ele>173</ele>
        <time>2020-06-24T15:00:45Z</time>
      </trkpt>
      <trkpt lat="50.19991" lon="4.02244">
        <ele>172.1</ele>
        <time>2020-06-24T15:00:46Z</time>
      </trkpt>
      <trkpt lat="50.19988" lon="4.02259">
        <ele>171.3</ele>
        <time>2020-06-24T15:00:47Z</time>
      </trkpt>
      <trkpt lat="50.19986" lon="4.02274">
        <ele>170.4</ele>
        <time>2020-06-24T15:00:48Z</time>
      </trkpt>
      <trkpt lat="50.19981" lon="4.02288">
        <ele>169.6</ele>
        <time>2020-06-24T15:00:49Z</time>
      </trkpt>
      <trkpt lat="50.19978" lon="4.02303">
        <ele>168.7</ele>
        <time>2020-06-24T15:00:50Z</time>
      </trkpt>
      <trkpt lat="50.19975" lon="4.02319">
        <ele>167.8</ele>
        <time>2020-06-24T15:00:51Z</time>
      </trkpt>
      <trkpt lat="50.19972" lon="4.02336">
        <ele>166.7</ele>
        <time>2020-06-24T15:00:52Z</time>
      </trkpt>
      <trkpt lat="50.19969" lon="4.02352">
        <ele>165.7</ele>
        <time>2020-06-24T15:00:53Z</time>
      </trkpt>
      <trkpt lat="50.19967" lon="4.02368">
        <ele>164.7</ele>
        <time>2020-06-24T15:00:54Z</time>
      </trkpt>
      <trkpt lat="50.19964" lon="4.02384">
        <ele>163.8</ele>
        <time>2020-06-24T15:00:55Z</time>
      </trkpt>
      <trkpt lat="50.19961" lon="4.02401">
        <ele>163</ele>
        <time>2020-06-24T15:00:56Z</time>
      </trkpt>
      <trkpt lat="50.19959" lon="4.02417">
        <ele>162.2</ele>
        <time>2020-06-24T15:00:57Z</time>
      </trkpt>
      <trkpt lat="50.19958" lon="4.02434">
        <ele>161.4</ele>
        <time>2020-06-24T15:00:58Z</time>
      </trkpt>
      <trkpt lat="50.19956" lon="4.02451">
        <ele>160.7</ele>
        <time>2020-06-24T15:00:59Z</time>
      </trkpt>
      <trkpt lat="50.19957" lon="4.02468">
        <ele>160</ele>
        <time>2020-06-24T15:01:00Z</time>
      </trkpt>
      <trkpt lat="50.19958" lon="4.02485">
        <ele>159.3</ele>
        <time>2020-06-24T15:01:01Z</time>
      </trkpt>
      <trkpt lat="50.19961" lon="4.02501">
        <ele>158.5</ele>
        <time>2020-06-24T15:01:02Z</time>
      </trkpt>
      <trkpt lat="50.19964" lon="4.02516">
        <ele>157.8</ele>
        <time>2020-06-24T15:01:03Z</time>
      </trkpt>
      <trkpt lat="50.19967" lon="4.02531">
        <ele>157</ele>
        <time>2020-06-24T15:01:04Z</time>
      </trkpt>
      <trkpt lat="50.1997" lon="4.02546">
        <ele>156.3</ele>
        <time>2020-06-24T15:01:05Z</time>
      </trkpt>
      <trkpt lat="50.19973" lon="4.0256">
        <ele>155.7</ele>
        <time>2020-06-24T15:01:06Z</time>
      </trkpt>
      <trkpt lat="50.19976" lon="4.02573">
        <ele>155.1</ele>
        <time>2020-06-24T15:01:07Z</time>
      </trkpt>
      <trkpt lat="50.19979" lon="4.02586">
        <ele>154.5</ele>
        <time>2020-06-24T15:01:08Z</time>
      </trkpt>
      <trkpt lat="50.19983" lon="4.026">
        <ele>154.1</ele>
        <time>2020-06-24T15:01:09Z</time>
      </trkpt>
      <trkpt lat="50.19986" lon="4.02614">
        <ele>153.6</ele>
        <time>2020-06-24T15:01:10Z</time>
      </trkpt>
      <trkpt lat="50.1999" lon="4.02629">
        <ele>153.3</ele>
        <time>2020-06-24T15:01:11Z</time>
      </trkpt>
      <trkpt lat="50.19994" lon="4.02643">
        <ele>153</ele>
        <time>2020-06-24T15:01:12Z</time>
      </trkpt>
      <trkpt lat="50.19998" lon="4.02655">
        <ele>152.9</ele>
        <time>2020-06-24T15:01:13Z</time>
      </trkpt>
      <trkpt lat="50.20002" lon="4.02667">
        <ele>152.7</ele>
        <time>2020-06-24T15:01:14Z</time>
      </trkpt>
      <trkpt lat="50.20007" lon="4.02678">
        <ele>152.5</ele>
        <time>2020-06-24T15:01:15Z</time>
      </trkpt>
      <trkpt lat="50.20009" lon="4.02691">
        <ele>152.2</ele>
        <time>2020-06-24T15:01:16Z</time>
      </trkpt>
      <trkpt lat="50.20008" lon="4.02703">
        <ele>152.1</ele>
        <time>2020-06-24T15:01:17Z</time>
      </trkpt>
      <trkpt lat="50.20006" lon="4.02715">
        <ele>152</ele>
        <time>2020-06-24T15:01:18Z</time>
      </trkpt>
      <trkpt lat="50.20004" lon="4.02726">
        <ele>151.8</ele>
        <time>2020-06-24T15:01:19Z</time>
      </trkpt>
      <trkpt lat="50.20003" lon="4.02736">
        <ele>151.7</ele>
        <time>2020-06-24T15:01:20Z</time>
      </trkpt>
      <trkpt lat="50.20002" lon="4.02747">
        <ele>151.5</ele>
        <time>2020-06-24T15:01:21Z</time>
      </trkpt>
      <trkpt lat="50.2" lon="4.02758">
        <ele>151.3</ele>
        <time>2020-06-24T15:01:22Z</time>
      </trkpt>
      <trkpt lat="50.19998" lon="4.02771">
        <ele>151.2</ele>
        <time>2020-06-24T15:01:23Z</time>
      </trkpt>
      <trkpt lat="50.19997" lon="4.02782">
        <ele>151.1</ele>
        <time>2020-06-24T15:01:24Z</time>
      </trkpt>
      <trkpt lat="50.19996" lon="4.02791">
        <ele>151.1</ele>
        <time>2020-06-24T15:01:25Z</time>
      </trkpt>
      <trkpt lat="50.19996" lon="4.02802">
        <ele>151</ele>
        <time>2020-06-24T15:01:26Z</time>
      </trkpt>
      <trkpt lat="50.19996" lon="4.02812">
        <ele>151.1</ele>
        <time>2020-06-24T15:01:27Z</time>
      </trkpt>
      <trkpt lat="50.19997" lon="4.02823">
        <ele>151.1</ele>
        <time>2020-06-24T15:01:28Z</time>
      </trkpt>
      <trkpt lat="50.19997" lon="4.02833">
        <ele>151.3</ele>
        <time>2020-06-24T15:01:29Z</time>
      </trkpt>
      <trkpt lat="50.19998" lon="4.02841">
        <ele>151.5</ele>
        <time>2020-06-24T15:01:30Z</time>
      </trkpt>
      <trkpt lat="50.2" lon="4.02851">
        <ele>151.7</ele>
        <time>2020-06-24T15:01:31Z</time>
      </trkpt>
      <trkpt lat="50.20002" lon="4.02859">
        <ele>151.9</ele>
        <time>2020-06-24T15:01:32Z</time>
      </trkpt>
      <trkpt lat="50.20004" lon="4.02867">
        <ele>152.1</ele>
        <time>2020-06-24T15:01:33Z</time>
      </trkpt>
      <trkpt lat="50.20006" lon="4.02873">
        <ele>152.3</ele>
        <time>2020-06-24T15:01:34Z</time>
      </trkpt>
      <trkpt lat="50.20008" lon="4.0288">
        <ele>152.5</ele>
        <time>2020-06-24T15:01:35Z</time>
      </trkpt>
      <trkpt lat="50.20011" lon="4.02886">
        <ele>152.7</ele>
        <time>2020-06-24T15:01:36Z</time>
      </trkpt>
      <trkpt lat="50.20012" lon="4.0289">
        <ele>152.9</ele>
        <time>2020-06-24T15:01:37Z</time>
      </trkpt>
      <trkpt lat="50.20014" lon="4.02893">
        <ele>153.1</ele>
        <time>2020-06-24T15:01:38Z</time>
      </trkpt>
      <trkpt lat="50.20017" lon="4.02898">
        <ele>153.5</ele>
        <time>2020-06-24T15:01:39Z</time>
      </trkpt>
      <trkpt lat="50.2002" lon="4.02902">
        <ele>153.7</ele>
        <time>2020-06-24T15:01:40Z</time>
      </trkpt>
      <trkpt lat="50.20022" lon="4.02906">
        <ele>154</ele>
        <time>2020-06-24T15:01:41Z</time>
      </trkpt>
      <trkpt lat="50.20024" lon="4.02909">
        <ele>154.2</ele>
        <time>2020-06-24T15:01:42Z</time>
      </trkpt>
      <trkpt lat="50.20026" lon="4.02913">
        <ele>154.4</ele>
        <time>2020-06-24T15:01:43Z</time>
      </trkpt>
      <trkpt lat="50.20028" lon="4.02916">
        <ele>154.7</ele>
        <time>2020-06-24T15:01:44Z</time>
      </trkpt>
      <trkpt lat="50.20029" lon="4.0292">
        <ele>154.9</ele>
        <time>2020-06-24T15:01:45Z</time>
      </trkpt>
      <trkpt lat="50.2003" lon="4.02925">
        <ele>155.2</ele>
        <time>2020-06-24T15:01:46Z</time>
      </trkpt>
      <trkpt lat="50.20032" lon="4.02929">
        <ele>155.5</ele>
        <time>2020-06-24T15:01:47Z</time>
      </trkpt>
      <trkpt lat="50.20034" lon="4.02934">
        <ele>155.8</ele>
        <time>2020-06-24T15:01:48Z</time>
      </trkpt>
      <trkpt lat="50.20037" lon="4.0294">
        <ele>156.2</ele>
        <time>2020-06-24T15:01:49Z</time>
      </trkpt>
      <trkpt lat="50.20039" lon="4.02945">
        <ele>156.5</ele>
        <time>2020-06-24T15:01:50Z</time>
      </trkpt>
      <trkpt lat="50.20042" lon="4.02951">
        <ele>157</ele>
        <time>2020-06-24T15:01:51Z</time>
      </trkpt>
      <trkpt lat="50.20044" lon="4.02956">
        <ele>157.4</ele>
        <time>2020-06-24T15:01:52Z</time>
      </trkpt>
      <trkpt lat="50.20047" lon="4.02963">
        <ele>157.9</ele>
        <time>2020-06-24T15:01:53Z</time>
      </trkpt>
      <trkpt lat="50.20049" lon="4.02969">
        <ele>158.3</ele>
        <time>2020-06-24T15:01:54Z</time>
      </trkpt>
      <trkpt lat="50.20051" lon="4.02975">
        <ele>158.8</ele>
        <time>2020-06-24T15:01:55Z</time>
      </trkpt>
      <trkpt lat="50.20052" lon="4.02981">
        <ele>159.2</ele>
        <time>2020-06-24T15:01:56Z</time>
      </trkpt>
      <trkpt lat="50.20053" lon="4.02986">
        <ele>159.6</ele>
        <time>2020-06-24T15:01:57Z</time>
      </trkpt>
      <trkpt lat="50.20054" lon="4.02992">
        <ele>160</ele>
        <time>2020-06-24T15:01:58Z</time>
      </trkpt>
      <trkpt lat="50.20055" lon="4.02998">
        <ele>160.4</ele>
        <time>2020-06-24T15:01:59Z</time>
      </trkpt>
      <trkpt lat="50.20055" lon="4.03003">
        <ele>160.7</ele>
        <time>2020-06-24T15:02:00Z</time>
      </trkpt>
      <trkpt lat="50.20055" lon="4.03007">
        <ele>161</ele>
        <time>2020-06-24T15:02:01Z</time>
      </trkpt>
      <trkpt lat="50.20055" lon="4.03013">
        <ele>161.4</ele>
        <time>2020-06-24T15:02:02Z</time>
      </trkpt>
      <trkpt lat="50.20054" lon="4.03018">
        <ele>161.7</ele>
        <time>2020-06-24T15:02:03Z</time>
      </trkpt>
      <trkpt lat="50.20053" lon="4.03022">
        <ele>162</ele>
        <time>2020-06-24T15:02:04Z</time>
      </trkpt>
      <trkpt lat="50.2005" lon="4.03028">
        <ele>162.5</ele>
        <time>2020-06-24T15:02:05Z</time>
      </trkpt>
      <trkpt lat="50.20046" lon="4.03034">
        <ele>163.1</ele>
        <time>2020-06-24T15:02:06Z</time>
      </trkpt>
      <trkpt lat="50.20042" lon="4.03041">
        <ele>163.7</ele>
        <time>2020-06-24T15:02:07Z</time>
      </trkpt>
      <trkpt lat="50.20039" lon="4.03044">
        <ele>164</ele>
        <time>2020-06-24T15:02:08Z</time>
      </trkpt>
      <trkpt lat="50.20036" lon="4.03046">
        <ele>164.3</ele>
        <time>2020-06-24T15:02:09Z</time>
      </trkpt>
      <trkpt lat="50.20034" lon="4.03049">
        <ele>164.6</ele>
        <time>2020-06-24T15:02:10Z</time>
      </trkpt>
      <trkpt lat="50.20031" lon="4.03053">
        <ele>165</ele>
        <time>2020-06-24T15:02:11Z</time>
      </trkpt>
      <trkpt lat="50.20029" lon="4.03054">
        <ele>165.1</ele>
        <time>2020-06-24T15:02:12Z</time>
      </trkpt>
      <trkpt lat="50.20027" lon="4.03057">
        <ele>165.4</ele>
        <time>2020-06-24T15:02:13Z</time>
      </trkpt>
      <trkpt lat="50.20023" lon="4.03059">
        <ele>165.7</ele>
        <time>2020-06-24T15:02:14Z</time>
      </trkpt>
      <trkpt lat="50.2002" lon="4.0306">
        <ele>165.9</ele>
        <time>2020-06-24T15:02:15Z</time>
      </trkpt>
      <trkpt lat="50.20017" lon="4.03062">
        <ele>166.2</ele>
        <time>2020-06-24T15:02:16Z</time>
      </trkpt>
      <trkpt lat="50.20014" lon="4.03063">
        <ele>166.4</ele>
        <time>2020-06-24T15:02:17Z</time>
      </trkpt>
      <trkpt lat="50.20011" lon="4.03064">
        <ele>166.7</ele>
        <time>2020-06-24T15:02:18Z</time>
      </trkpt>
      <trkpt lat="50.20008" lon="4.03067">
        <ele>166.9</ele>
        <time>2020-06-24T15:02:19Z</time>
      </trkpt>
      <trkpt lat="50.20007" lon="4.03067">
        <ele>166.9</ele>
        <time>2020-06-24T15:02:20Z</time>
      </trkpt>
      <trkpt lat="50.20005" lon="4.03069">
        <ele>167.1</ele>
        <time>2020-06-24T15:02:21Z</time>
      </trkpt>
      <trkpt lat="50.20002" lon="4.03071">
        <ele>167.4</ele>
        <time>2020-06-24T15:02:22Z</time>
      </trkpt>
      <trkpt lat="50.19997" lon="4.03074">
        <ele>167.7</ele>
        <time>2020-06-24T15:02:23Z</time>
      </trkpt>
      <trkpt lat="50.19994" lon="4.03078">
        <ele>168</ele>
        <time>2020-06-24T15:02:24Z</time>
      </trkpt>
      <trkpt lat="50.19992" lon="4.03079">
        <ele>168.2</ele>
        <time>2020-06-24T15:02:25Z</time>
      </trkpt>
      <trkpt lat="50.19989" lon="4.03083">
        <ele>168.5</ele>
        <time>2020-06-24T15:02:26Z</time>
      </trkpt>
      <trkpt lat="50.19985" lon="4.03089">
        <ele>168.9</ele>
        <time>2020-06-24T15:02:27Z</time>
      </trkpt>
      <trkpt lat="50.19982" lon="4.03094">
        <ele>169.2</ele>
        <time>2020-06-24T15:02:28Z</time>
      </trkpt>
      <trkpt lat="50.19978" lon="4.03099">
        <ele>169.6</ele>
        <time>2020-06-24T15:02:29Z</time>
      </trkpt>
      <trkpt lat="50.19976" lon="4.03102">
        <ele>169.8</ele>
        <time>2020-06-24T15:02:30Z</time>
      </trkpt>
      <trkpt lat="50.19973" lon="4.03107">
        <ele>170.1</ele>
        <time>2020-06-24T15:02:31Z</time>
      </trkpt>
      <trkpt lat="50.1997" lon="4.03109">
        <ele>170.4</ele>
        <time>2020-06-24T15:02:32Z</time>
      </trkpt>
      <trkpt lat="50.19968" lon="4.03112">
        <ele>170.6</ele>
        <time>2020-06-24T15:02:33Z</time>
      </trkpt>
      <trkpt lat="50.19967" lon="4.03113">
        <ele>170.6</ele>
        <time>2020-06-24T15:02:34Z</time>
      </trkpt>
      <trkpt lat="50.19965" lon="4.03117">
        <ele>170.8</ele>
        <time>2020-06-24T15:02:35Z</time>
      </trkpt>
      <trkpt lat="50.19963" lon="4.03121">
        <ele>171.1</ele>
        <time>2020-06-24T15:02:36Z</time>
      </trkpt>
      <trkpt lat="50.19962" lon="4.03126">
        <ele>171.2</ele>
        <time>2020-06-24T15:02:37Z</time>
      </trkpt>
      <trkpt lat="50.1996" lon="4.0313">
        <ele>171.4</ele>
        <time>2020-06-24T15:02:38Z</time>
      </trkpt>
      <trkpt lat="50.19958" lon="4.03135">
        <ele>171.6</ele>
        <time>2020-06-24T15:02:39Z</time>
      </trkpt>
      <trkpt lat="50.19957" lon="4.03137">
        <ele>171.7</ele>
        <time>2020-06-24T15:02:40Z</time>
      </trkpt>
      <trkpt lat="50.19954" lon="4.03142">
        <ele>171.9</ele>
        <time>2020-06-24T15:02:41Z</time>
      </trkpt>
      <trkpt lat="50.19953" lon="4.03143">
        <ele>172</ele>
        <time>2020-06-24T15:02:42Z</time>
      </trkpt>
      <trkpt lat="50.19952" lon="4.03147">
        <ele>172.1</ele>
        <time>2020-06-24T15:02:43Z</time>
      </trkpt>
      <trkpt lat="50.19951" lon="4.03149">
        <ele>172.2</ele>
        <time>2020-06-24T15:02:44Z</time>
      </trkpt>
      <trkpt lat="50.19949" lon="4.03153">
        <ele>172.3</ele>
        <time>2020-06-24T15:02:45Z</time>
      </trkpt>
      <trkpt lat="50.19948" lon="4.03155">
        <ele>172.3</ele>
        <time>2020-06-24T15:02:46Z</time>
      </trkpt>
      <trkpt lat="50.19947" lon="4.03157">
        <ele>172.4</ele>
        <time>2020-06-24T15:02:47Z</time>
      </trkpt>
      <trkpt lat="50.19946" lon="4.03159">
        <ele>172.4</ele>
        <time>2020-06-24T15:02:48Z</time>
      </trkpt>
      <trkpt lat="50.19945" lon="4.0316">
        <ele>172.4</ele>
        <time>2020-06-24T15:02:49Z</time>
      </trkpt>
      <trkpt lat="50.19945" lon="4.0316">
        <ele>172.4</ele>
        <time>2020-06-24T15:02:50Z</time>
      </trkpt>
      <trkpt lat="50.19944" lon="4.0316">
        <ele>172.4</ele>
        <time>2020-06-24T15:02:51Z</time>
      </trkpt>
      <trkpt lat="50.19944" lon="4.0316">
        <ele>172.4</ele>
        <time>2020-06-24T15:02:52Z</time>
      </trkpt>
      <trkpt lat="50.19944" lon="4.0316">
        <ele>172.4</ele>
        <time>2020-06-24T15:02:53Z</time>
      </trkpt>
      <trkpt lat="50.19943" lon="4.0316">
        <ele>172.4</ele>
        <time>2020-06-24T15:02:54Z</time>
      </trkpt>
      <trkpt lat="50.19943" lon="4.0316">
        <ele>172.4</ele>
        <time>2020-06-24T15:02:55Z</time>
      </trkpt>
      <trkpt lat="50.19942" lon="4.0316">
        <ele>172.5</ele>
        <time>2020-06-24T15:02:56Z</time>
      </trkpt>
      <trkpt lat="50.19942" lon="4.03161">
        <ele>172.5</ele>
        <time>2020-06-24T15:02:57Z</time>
      </trkpt>
      <trkpt lat="50.19941" lon="4.03161">
        <ele>172.5</ele>
        <time>2020-06-24T15:02:58Z</time>
      </trkpt>
      <trkpt lat="50.19941" lon="4.03161">
        <ele>172.5</ele>
        <time>2020-06-24T15:02:59Z</time>
      </trkpt>
      <trkpt lat="50.1994" lon="4.03161">
        <ele>172.5</ele>
        <time>2020-06-24T15:03:27Z</time>
      </trkpt>
      <trkpt lat="50.1994" lon="4.03161">
        <ele>172.5</ele>
        <time>2020-06-24T15:03:28Z</time>
      </trkpt>
      <trkpt lat="50.19938" lon="4.03165">
        <ele>172.5</ele>
        <time>2020-06-24T15:03:29Z</time>
      </trkpt>
      <trkpt lat="50.19936" lon="4.03169">
        <ele>172.5</ele>
        <time>2020-06-24T15:03:30Z</time>
      </trkpt>
      <trkpt lat="50.19934" lon="4.03173">
        <ele>172.5</ele>
        <time>2020-06-24T15:03:31Z</time>
      </trkpt>
      <trkpt lat="50.19931" lon="4.03177">
        <ele>172.5</ele>
        <time>2020-06-24T15:03:32Z</time>
      </trkpt>
      <trkpt lat="50.19928" lon="4.03181">
        <ele>172.5</ele>
        <time>2020-06-24T15:03:33Z</time>
      </trkpt>
      <trkpt lat="50.19925" lon="4.03186">
        <ele>172.5</ele>
        <time>2020-06-24T15:03:34Z</time>
      </trkpt>
      <trkpt lat="50.19923" lon="4.0319">
        <ele>172.4</ele>
        <time>2020-06-24T15:03:35Z</time>
      </trkpt>
      <trkpt lat="50.19919" lon="4.03193">
        <ele>172.3</ele>
        <time>2020-06-24T15:03:36Z</time>
      </trkpt>
      <trkpt lat="50.19915" lon="4.03196">
        <ele>172.2</ele>
        <time>2020-06-24T15:03:37Z</time>
      </trkpt>
      <trkpt lat="50.19911" lon="4.032">
        <ele>172.1</ele>
        <time>2020-06-24T15:03:38Z</time>
      </trkpt>
      <trkpt lat="50.19907" lon="4.03204">
        <ele>171.9</ele>
        <time>2020-06-24T15:03:39Z</time>
      </trkpt>
      <trkpt lat="50.19902" lon="4.03208">
        <ele>171.7</ele>
        <time>2020-06-24T15:03:40Z</time>
      </trkpt>
      <trkpt lat="50.19897" lon="4.03212">
        <ele>171.4</ele>
        <time>2020-06-24T15:03:41Z</time>
      </trkpt>
      <trkpt lat="50.19893" lon="4.03216">
        <ele>171.2</ele>
        <time>2020-06-24T15:03:42Z</time>
      </trkpt>
      <trkpt lat="50.19888" lon="4.03221">
        <ele>170.9</ele>
        <time>2020-06-24T15:03:43Z</time>
      </trkpt>
      <trkpt lat="50.19883" lon="4.03226">
        <ele>170.6</ele>
        <time>2020-06-24T15:03:44Z</time>
      </trkpt>
      <trkpt lat="50.19878" lon="4.03231">
        <ele>170.3</ele>
        <time>2020-06-24T15:03:45Z</time>
      </trkpt>
      <trkpt lat="50.19871" lon="4.03237">
        <ele>170</ele>
        <time>2020-06-24T15:03:46Z</time>
      </trkpt>
      <trkpt lat="50.19864" lon="4.03243">
        <ele>169.6</ele>
        <time>2020-06-24T15:03:47Z</time>
      </trkpt>
      <trkpt lat="50.19857" lon="4.03249">
        <ele>169.3</ele>
        <time>2020-06-24T15:03:48Z</time>
      </trkpt>
      <trkpt lat="50.19852" lon="4.03253">
        <ele>169</ele>
        <time>2020-06-24T15:03:49Z</time>
      </trkpt>
      <trkpt lat="50.19845" lon="4.03258">
        <ele>168.7</ele>
        <time>2020-06-24T15:03:50Z</time>
      </trkpt>
      <trkpt lat="50.19838" lon="4.03263">
        <ele>168.4</ele>
        <time>2020-06-24T15:03:51Z</time>
      </trkpt>
      <trkpt lat="50.19831" lon="4.03267">
        <ele>168</ele>
        <time>2020-06-24T15:03:52Z</time>
      </trkpt>
      <trkpt lat="50.19824" lon="4.03271">
        <ele>167.6</ele>
        <time>2020-06-24T15:03:53Z</time>
      </trkpt>
      <trkpt lat="50.19817" lon="4.03275">
        <ele>167.2</ele>
        <time>2020-06-24T15:03:54Z</time>
      </trkpt>
      <trkpt lat="50.1981" lon="4.0328">
        <ele>166.8</ele>
        <time>2020-06-24T15:03:55Z</time>
      </trkpt>
      <trkpt lat="50.19802" lon="4.03284">
        <ele>166.3</ele>
        <time>2020-06-24T15:03:56Z</time>
      </trkpt>
      <trkpt lat="50.19794" lon="4.03289">
        <ele>165.8</ele>
        <time>2020-06-24T15:03:57Z</time>
      </trkpt>
      <trkpt lat="50.19787" lon="4.03294">
        <ele>165.3</ele>
        <time>2020-06-24T15:03:58Z</time>
      </trkpt>
      <trkpt lat="50.19779" lon="4.033">
        <ele>164.9</ele>
        <time>2020-06-24T15:03:59Z</time>
      </trkpt>
      <trkpt lat="50.19772" lon="4.03306">
        <ele>164.5</ele>
        <time>2020-06-24T15:04:00Z</time>
      </trkpt>
      <trkpt lat="50.19764" lon="4.03312">
        <ele>164</ele>
        <time>2020-06-24T15:04:01Z</time>
      </trkpt>
      <trkpt lat="50.19756" lon="4.03318">
        <ele>163.7</ele>
        <time>2020-06-24T15:04:02Z</time>
      </trkpt>
      <trkpt lat="50.19749" lon="4.03325">
        <ele>163.4</ele>
        <time>2020-06-24T15:04:03Z</time>
      </trkpt>
      <trkpt lat="50.19741" lon="4.03332">
        <ele>163.2</ele>
        <time>2020-06-24T15:04:04Z</time>
      </trkpt>
      <trkpt lat="50.19734" lon="4.03338">
        <ele>163</ele>
        <time>2020-06-24T15:04:05Z</time>
      </trkpt>
      <trkpt lat="50.19726" lon="4.03343">
        <ele>162.9</ele>
        <time>2020-06-24T15:04:06Z</time>
      </trkpt>
      <trkpt lat="50.19719" lon="4.03348">
        <ele>162.9</ele>
        <time>2020-06-24T15:04:07Z</time>
      </trkpt>
      <trkpt lat="50.19712" lon="4.03351">
        <ele>163</ele>
        <time>2020-06-24T15:04:08Z</time>
      </trkpt>
      <trkpt lat="50.19706" lon="4.03356">
        <ele>163</ele>
        <time>2020-06-24T15:04:09Z</time>
      </trkpt>
      <trkpt lat="50.19699" lon="4.03361">
        <ele>163.1</ele>
        <time>2020-06-24T15:04:10Z</time>
      </trkpt>
      <trkpt lat="50.19693" lon="4.03366">
        <ele>163.2</ele>
        <time>2020-06-24T15:04:11Z</time>
      </trkpt>
      <trkpt lat="50.19687" lon="4.03371">
        <ele>163.3</ele>
        <time>2020-06-24T15:04:12Z</time>
      </trkpt>
      <trkpt lat="50.19681" lon="4.03375">
        <ele>163.4</ele>
        <time>2020-06-24T15:04:13Z</time>
      </trkpt>
      <trkpt lat="50.19676" lon="4.0338">
        <ele>163.4</ele>
        <time>2020-06-24T15:04:14Z</time>
      </trkpt>
      <trkpt lat="50.19671" lon="4.03387">
        <ele>163.5</ele>
        <time>2020-06-24T15:04:15Z</time>
      </trkpt>
      <trkpt lat="50.19666" lon="4.03393">
        <ele>163.6</ele>
        <time>2020-06-24T15:04:16Z</time>
      </trkpt>
      <trkpt lat="50.19662" lon="4.034">
        <ele>163.6</ele>
        <time>2020-06-24T15:04:17Z</time>
      </trkpt>
      <trkpt lat="50.19658" lon="4.03406">
        <ele>163.6</ele>
        <time>2020-06-24T15:04:18Z</time>
      </trkpt>
      <trkpt lat="50.19653" lon="4.03412">
        <ele>163.6</ele>
        <time>2020-06-24T15:04:19Z</time>
      </trkpt>
      <trkpt lat="50.19649" lon="4.03419">
        <ele>163.5</ele>
        <time>2020-06-24T15:04:20Z</time>
      </trkpt>
      <trkpt lat="50.19644" lon="4.03425">
        <ele>163.4</ele>
        <time>2020-06-24T15:04:21Z</time>
      </trkpt>
      <trkpt lat="50.1964" lon="4.03433">
        <ele>163.3</ele>
        <time>2020-06-24T15:04:22Z</time>
      </trkpt>
      <trkpt lat="50.19636" lon="4.03442">
        <ele>163.2</ele>
        <time>2020-06-24T15:04:23Z</time>
      </trkpt>
      <trkpt lat="50.19632" lon="4.03451">
        <ele>163</ele>
        <time>2020-06-24T15:04:24Z</time>
      </trkpt>
      <trkpt lat="50.1963" lon="4.03462">
        <ele>162.9</ele>
        <time>2020-06-24T15:04:25Z</time>
      </trkpt>
      <trkpt lat="50.19629" lon="4.03473">
        <ele>162.8</ele>
        <time>2020-06-24T15:04:26Z</time>
      </trkpt>
      <trkpt lat="50.19628" lon="4.03484">
        <ele>162.7</ele>
        <time>2020-06-24T15:04:27Z</time>
      </trkpt>
      <trkpt lat="50.1963" lon="4.03496">
        <ele>162.7</ele>
        <time>2020-06-24T15:04:28Z</time>
      </trkpt>
      <trkpt lat="50.19633" lon="4.03509">
        <ele>162.7</ele>
        <time>2020-06-24T15:04:29Z</time>
      </trkpt>
      <trkpt lat="50.19636" lon="4.03521">
        <ele>162.7</ele>
        <time>2020-06-24T15:04:30Z</time>
      </trkpt>
      <trkpt lat="50.19638" lon="4.03531">
        <ele>162.8</ele>
        <time>2020-06-24T15:04:31Z</time>
      </trkpt>
      <trkpt lat="50.1964" lon="4.0354">
        <ele>162.8</ele>
        <time>2020-06-24T15:04:32Z</time>
      </trkpt>
      <trkpt lat="50.19643" lon="4.03549">
        <ele>162.8</ele>
        <time>2020-06-24T15:04:33Z</time>
      </trkpt>
      <trkpt lat="50.19646" lon="4.03558">
        <ele>162.9</ele>
        <time>2020-06-24T15:04:34Z</time>
      </trkpt>
      <trkpt lat="50.19648" lon="4.03567">
        <ele>162.9</ele>
        <time>2020-06-24T15:04:35Z</time>
      </trkpt>
      <trkpt lat="50.1965" lon="4.03576">
        <ele>163</ele>
        <time>2020-06-24T15:04:36Z</time>
      </trkpt>
      <trkpt lat="50.19653" lon="4.03585">
        <ele>163</ele>
        <time>2020-06-24T15:04:37Z</time>
      </trkpt>
      <trkpt lat="50.19655" lon="4.03594">
        <ele>163.1</ele>
        <time>2020-06-24T15:04:38Z</time>
      </trkpt>
      <trkpt lat="50.19657" lon="4.03603">
        <ele>163.1</ele>
        <time>2020-06-24T15:04:39Z</time>
      </trkpt>
      <trkpt lat="50.19659" lon="4.03612">
        <ele>163.1</ele>
        <time>2020-06-24T15:04:40Z</time>
      </trkpt>
      <trkpt lat="50.1966" lon="4.03622">
        <ele>163.2</ele>
        <time>2020-06-24T15:04:41Z</time>
      </trkpt>
      <trkpt lat="50.19662" lon="4.03632">
        <ele>163.2</ele>
        <time>2020-06-24T15:04:42Z</time>
      </trkpt>
      <trkpt lat="50.19663" lon="4.03641">
        <ele>163.3</ele>
        <time>2020-06-24T15:04:43Z</time>
      </trkpt>
      <trkpt lat="50.19664" lon="4.03649">
        <ele>163.4</ele>
        <time>2020-06-24T15:04:44Z</time>
      </trkpt>
      <trkpt lat="50.19665" lon="4.03659">
        <ele>163.4</ele>
        <time>2020-06-24T15:04:45Z</time>
      </trkpt>
      <trkpt lat="50.19666" lon="4.03665">
        <ele>163.4</ele>
        <time>2020-06-24T15:04:46Z</time>
      </trkpt>
      <trkpt lat="50.19667" lon="4.03672">
        <ele>163.5</ele>
        <time>2020-06-24T15:04:47Z</time>
      </trkpt>
      <trkpt lat="50.19669" lon="4.03679">
        <ele>163.5</ele>
        <time>2020-06-24T15:04:48Z</time>
      </trkpt>
      <trkpt lat="50.1967" lon="4.03685">
        <ele>163.5</ele>
        <time>2020-06-24T15:04:49Z</time>
      </trkpt>
      <trkpt lat="50.19671" lon="4.0369">
        <ele>163.6</ele>
        <time>2020-06-24T15:04:50Z</time>
      </trkpt>
      <trkpt lat="50.19671" lon="4.03695">
        <ele>163.6</ele>
        <time>2020-06-24T15:04:51Z</time>
      </trkpt>
      <trkpt lat="50.19672" lon="4.03702">
        <ele>163.6</ele>
        <time>2020-06-24T15:04:52Z</time>
      </trkpt>
      <trkpt lat="50.19671" lon="4.03708">
        <ele>163.7</ele>
        <time>2020-06-24T15:04:53Z</time>
      </trkpt>
      <trkpt lat="50.19672" lon="4.03715">
        <ele>163.7</ele>
        <time>2020-06-24T15:04:54Z</time>
      </trkpt>
      <trkpt lat="50.19673" lon="4.03723">
        <ele>163.7</ele>
        <time>2020-06-24T15:04:55Z</time>
      </trkpt>
      <trkpt lat="50.19673" lon="4.0373">
        <ele>163.7</ele>
        <time>2020-06-24T15:04:56Z</time>
      </trkpt>
      <trkpt lat="50.19672" lon="4.03736">
        <ele>163.7</ele>
        <time>2020-06-24T15:04:57Z</time>
      </trkpt>
      <trkpt lat="50.19672" lon="4.03744">
        <ele>163.7</ele>
        <time>2020-06-24T15:04:58Z</time>
      </trkpt>
      <trkpt lat="50.19672" lon="4.0375">
        <ele>163.8</ele>
        <time>2020-06-24T15:04:59Z</time>
      </trkpt>
      <trkpt lat="50.19672" lon="4.03757">
        <ele>163.8</ele>
        <time>2020-06-24T15:05:00Z</time>
      </trkpt>
      <trkpt lat="50.19672" lon="4.03764">
        <ele>163.8</ele>
        <time>2020-06-24T15:05:01Z</time>
      </trkpt>
      <trkpt lat="50.19671" lon="4.03771">
        <ele>163.8</ele>
        <time>2020-06-24T15:05:02Z</time>
      </trkpt>
      <trkpt lat="50.1967" lon="4.03777">
        <ele>163.9</ele>
        <time>2020-06-24T15:05:03Z</time>
      </trkpt>
      <trkpt lat="50.1967" lon="4.03784">
        <ele>163.9</ele>
        <time>2020-06-24T15:05:04Z</time>
      </trkpt>
      <trkpt lat="50.19669" lon="4.03792">
        <ele>164</ele>
        <time>2020-06-24T15:05:05Z</time>
      </trkpt>
      <trkpt lat="50.19668" lon="4.03797">
        <ele>164</ele>
        <time>2020-06-24T15:05:06Z</time>
      </trkpt>
      <trkpt lat="50.19666" lon="4.03802">
        <ele>164</ele>
        <time>2020-06-24T15:05:07Z</time>
      </trkpt>
      <trkpt lat="50.19663" lon="4.03806">
        <ele>163.9</ele>
        <time>2020-06-24T15:05:08Z</time>
      </trkpt>
      <trkpt lat="50.19661" lon="4.03808">
        <ele>163.7</ele>
        <time>2020-06-24T15:05:09Z</time>
      </trkpt>
      <trkpt lat="50.19656" lon="4.03808">
        <ele>163.6</ele>
        <time>2020-06-24T15:05:10Z</time>
      </trkpt>
      <trkpt lat="50.19652" lon="4.03806">
        <ele>163.5</ele>
        <time>2020-06-24T15:05:11Z</time>
      </trkpt>
      <trkpt lat="50.19648" lon="4.03802">
        <ele>163.4</ele>
        <time>2020-06-24T15:05:12Z</time>
      </trkpt>
      <trkpt lat="50.19645" lon="4.03798">
        <ele>163.4</ele>
        <time>2020-06-24T15:05:13Z</time>
      </trkpt>
      <trkpt lat="50.19641" lon="4.03794">
        <ele>163.3</ele>
        <time>2020-06-24T15:05:14Z</time>
      </trkpt>
      <trkpt lat="50.19636" lon="4.03791">
        <ele>163.3</ele>
        <time>2020-06-24T15:05:15Z</time>
      </trkpt>
      <trkpt lat="50.19633" lon="4.03788">
        <ele>163.2</ele>
        <time>2020-06-24T15:05:16Z</time>
      </trkpt>
      <trkpt lat="50.19629" lon="4.03786">
        <ele>163.2</ele>
        <time>2020-06-24T15:05:17Z</time>
      </trkpt>
      <trkpt lat="50.19626" lon="4.03784">
        <ele>163.2</ele>
        <time>2020-06-24T15:05:18Z</time>
      </trkpt>
      <trkpt lat="50.1962" lon="4.03782">
        <ele>163.2</ele>
        <time>2020-06-24T15:05:19Z</time>
      </trkpt>
      <trkpt lat="50.19615" lon="4.0378">
        <ele>163.2</ele>
        <time>2020-06-24T15:05:20Z</time>
      </trkpt>
      <trkpt lat="50.19611" lon="4.03779">
        <ele>163.3</ele>
        <time>2020-06-24T15:05:21Z</time>
      </trkpt>
      <trkpt lat="50.19607" lon="4.03779">
        <ele>163.3</ele>
        <time>2020-06-24T15:05:22Z</time>
      </trkpt>
      <trkpt lat="50.19603" lon="4.03779">
        <ele>163.4</ele>
        <time>2020-06-24T15:05:23Z</time>
      </trkpt>
      <trkpt lat="50.19598" lon="4.0378">
        <ele>163.5</ele>
        <time>2020-06-24T15:05:24Z</time>
      </trkpt>
      <trkpt lat="50.19594" lon="4.03782">
        <ele>163.6</ele>
        <time>2020-06-24T15:05:25Z</time>
      </trkpt>
      <trkpt lat="50.19588" lon="4.03784">
        <ele>163.8</ele>
        <time>2020-06-24T15:05:26Z</time>
      </trkpt>
      <trkpt lat="50.19583" lon="4.03787">
        <ele>164.1</ele>
        <time>2020-06-24T15:05:27Z</time>
      </trkpt>
      <trkpt lat="50.19578" lon="4.03789">
        <ele>164.3</ele>
        <time>2020-06-24T15:05:28Z</time>
      </trkpt>
      <trkpt lat="50.19574" lon="4.03791">
        <ele>164.6</ele>
        <time>2020-06-24T15:05:29Z</time>
      </trkpt>
      <trkpt lat="50.19569" lon="4.03792">
        <ele>164.8</ele>
        <time>2020-06-24T15:05:30Z</time>
      </trkpt>
      <trkpt lat="50.19565" lon="4.03795">
        <ele>165.1</ele>
        <time>2020-06-24T15:05:31Z</time>
      </trkpt>
      <trkpt lat="50.19561" lon="4.03796">
        <ele>165.4</ele>
        <time>2020-06-24T15:05:32Z</time>
      </trkpt>
      <trkpt lat="50.19557" lon="4.03798">
        <ele>165.6</ele>
        <time>2020-06-24T15:05:33Z</time>
      </trkpt>
      <trkpt lat="50.19553" lon="4.038">
        <ele>165.9</ele>
        <time>2020-06-24T15:05:34Z</time>
      </trkpt>
      <trkpt lat="50.19548" lon="4.03803">
        <ele>166.3</ele>
        <time>2020-06-24T15:05:35Z</time>
      </trkpt>
      <trkpt lat="50.19544" lon="4.03804">
        <ele>166.5</ele>
        <time>2020-06-24T15:05:36Z</time>
      </trkpt>
      <trkpt lat="50.1954" lon="4.03806">
        <ele>166.8</ele>
        <time>2020-06-24T15:05:37Z</time>
      </trkpt>
      <trkpt lat="50.19536" lon="4.03808">
        <ele>167.1</ele>
        <time>2020-06-24T15:05:38Z</time>
      </trkpt>
      <trkpt lat="50.19532" lon="4.03811">
        <ele>167.5</ele>
        <time>2020-06-24T15:05:39Z</time>
      </trkpt>
      <trkpt lat="50.19528" lon="4.03813">
        <ele>167.8</ele>
        <time>2020-06-24T15:05:40Z</time>
      </trkpt>
      <trkpt lat="50.19524" lon="4.03817">
        <ele>168.1</ele>
        <time>2020-06-24T15:05:41Z</time>
      </trkpt>
      <trkpt lat="50.1952" lon="4.03819">
        <ele>168.4</ele>
        <time>2020-06-24T15:05:42Z</time>
      </trkpt>
      <trkpt lat="50.19517" lon="4.03822">
        <ele>168.6</ele>
        <time>2020-06-24T15:05:43Z</time>
      </trkpt>
      <trkpt lat="50.19513" lon="4.03824">
        <ele>168.9</ele>
        <time>2020-06-24T15:05:44Z</time>
      </trkpt>
      <trkpt lat="50.1951" lon="4.03827">
        <ele>169.1</ele>
        <time>2020-06-24T15:05:45Z</time>
      </trkpt>
      <trkpt lat="50.19506" lon="4.03831">
        <ele>169.4</ele>
        <time>2020-06-24T15:05:46Z</time>
      </trkpt>
      <trkpt lat="50.19502" lon="4.03833">
        <ele>169.6</ele>
        <time>2020-06-24T15:05:47Z</time>
      </trkpt>
      <trkpt lat="50.19498" lon="4.03834">
        <ele>169.8</ele>
        <time>2020-06-24T15:05:48Z</time>
      </trkpt>
      <trkpt lat="50.19495" lon="4.03835">
        <ele>170</ele>
        <time>2020-06-24T15:05:49Z</time>
      </trkpt>
      <trkpt lat="50.19491" lon="4.03835">
        <ele>170.2</ele>
        <time>2020-06-24T15:05:50Z</time>
      </trkpt>
      <trkpt lat="50.19487" lon="4.03836">
        <ele>170.3</ele>
        <time>2020-06-24T15:05:51Z</time>
      </trkpt>
      <trkpt lat="50.19483" lon="4.03838">
        <ele>170.5</ele>
        <time>2020-06-24T15:05:52Z</time>
      </trkpt>
      <trkpt lat="50.1948" lon="4.03839">
        <ele>170.6</ele>
        <time>2020-06-24T15:05:53Z</time>
      </trkpt>
      <trkpt lat="50.19476" lon="4.0384">
        <ele>170.8</ele>
        <time>2020-06-24T15:05:54Z</time>
      </trkpt>
      <trkpt lat="50.19472" lon="4.03841">
        <ele>170.9</ele>
        <time>2020-06-24T15:05:55Z</time>
      </trkpt>
      <trkpt lat="50.19468" lon="4.03842">
        <ele>171</ele>
        <time>2020-06-24T15:05:56Z</time>
      </trkpt>
      <trkpt lat="50.19464" lon="4.03843">
        <ele>171.1</ele>
        <time>2020-06-24T15:05:57Z</time>
      </trkpt>
      <trkpt lat="50.1946" lon="4.03844">
        <ele>171.2</ele>
        <time>2020-06-24T15:05:58Z</time>
      </trkpt>
      <trkpt lat="50.19456" lon="4.03846">
        <ele>171.3</ele>
        <time>2020-06-24T15:05:59Z</time>
      </trkpt>
      <trkpt lat="50.19453" lon="4.03847">
        <ele>171.4</ele>
        <time>2020-06-24T15:06:00Z</time>
      </trkpt>
      <trkpt lat="50.19449" lon="4.03848">
        <ele>171.5</ele>
        <time>2020-06-24T15:06:01Z</time>
      </trkpt>
      <trkpt lat="50.19445" lon="4.03848">
        <ele>171.7</ele>
        <time>2020-06-24T15:06:02Z</time>
      </trkpt>
      <trkpt lat="50.19439" lon="4.03849">
        <ele>171.9</ele>
        <time>2020-06-24T15:06:03Z</time>
      </trkpt>
      <trkpt lat="50.19435" lon="4.0385">
        <ele>172.1</ele>
        <time>2020-06-24T15:06:04Z</time>
      </trkpt>
      <trkpt lat="50.19432" lon="4.0385">
        <ele>172.2</ele>
        <time>2020-06-24T15:06:05Z</time>
      </trkpt>
      <trkpt lat="50.19429" lon="4.0385">
        <ele>172.4</ele>
        <time>2020-06-24T15:06:06Z</time>
      </trkpt>
      <trkpt lat="50.19425" lon="4.03851">
        <ele>172.6</ele>
        <time>2020-06-24T15:06:07Z</time>
      </trkpt>
      <trkpt lat="50.19421" lon="4.03852">
        <ele>172.7</ele>
        <time>2020-06-24T15:06:08Z</time>
      </trkpt>
      <trkpt lat="50.19418" lon="4.03853">
        <ele>172.9</ele>
        <time>2020-06-24T15:06:09Z</time>
      </trkpt>
      <trkpt lat="50.19415" lon="4.03852">
        <ele>173</ele>
        <time>2020-06-24T15:06:10Z</time>
      </trkpt>
      <trkpt lat="50.19412" lon="4.03852">
        <ele>173.1</ele>
        <time>2020-06-24T15:06:11Z</time>
      </trkpt>
      <trkpt lat="50.19409" lon="4.03852">
        <ele>173.2</ele>
        <time>2020-06-24T15:06:12Z</time>
      </trkpt>
      <trkpt lat="50.19408" lon="4.03852">
        <ele>173.3</ele>
        <time>2020-06-24T15:06:13Z</time>
      </trkpt>
      <trkpt lat="50.19407" lon="4.03851">
        <ele>173.3</ele>
        <time>2020-06-24T15:06:14Z</time>
      </trkpt>
      <trkpt lat="50.19407" lon="4.0385">
        <ele>173.3</ele>
        <time>2020-06-24T15:06:15Z</time>
      </trkpt>
      <trkpt lat="50.19408" lon="4.03851">
        <ele>173.3</ele>
        <time>2020-06-24T15:06:16Z</time>
      </trkpt>
      <trkpt lat="50.19408" lon="4.03851">
        <ele>173.3</ele>
        <time>2020-06-24T15:06:17Z</time>
      </trkpt>
      <trkpt lat="50.19408" lon="4.03851">
        <ele>173.3</ele>
        <time>2020-06-24T15:06:18Z</time>
      </trkpt>
      <trkpt lat="50.19409" lon="4.03852">
        <ele>173.4</ele>
        <time>2020-06-24T15:06:19Z</time>
      </trkpt>
      <trkpt lat="50.19409" lon="4.03852">
        <ele>173.4</ele>
        <time>2020-06-24T15:06:20Z</time>
      </trkpt>
      <trkpt lat="50.19409" lon="4.03852">
        <ele>173.4</ele>
        <time>2020-06-24T15:06:21Z</time>
      </trkpt>
      <trkpt lat="50.19409" lon="4.03852">
        <ele>173.4</ele>
        <time>2020-06-24T15:06:22Z</time>
      </trkpt>
      <trkpt lat="50.19409" lon="4.03852">
        <ele>173.4</ele>
        <time>2020-06-24T15:06:23Z</time>
      </trkpt>
      <trkpt lat="50.19409" lon="4.03852">
        <ele>173.4</ele>
        <time>2020-06-24T15:06:24Z</time>
      </trkpt>
      <trkpt lat="50.19409" lon="4.03852">
        <ele>173.4</ele>
        <time>2020-06-24T15:06:25Z</time>
      </trkpt>
      <trkpt lat="50.19405" lon="4.03846">
        <ele>173.5</ele>
        <time>2020-06-24T15:06:29Z</time>
      </trkpt>
      <trkpt lat="50.19403" lon="4.03844">
        <ele>173.5</ele>
        <time>2020-06-24T15:06:30Z</time>
      </trkpt>
      <trkpt lat="50.194" lon="4.03842">
        <ele>173.6</ele>
        <time>2020-06-24T15:06:31Z</time>
      </trkpt>
      <trkpt lat="50.19398" lon="4.03841">
        <ele>173.7</ele>
        <time>2020-06-24T15:06:32Z</time>
      </trkpt>
      <trkpt lat="50.19396" lon="4.03838">
        <ele>173.8</ele>
        <time>2020-06-24T15:06:33Z</time>
      </trkpt>
      <trkpt lat="50.19391" lon="4.03836">
        <ele>173.9</ele>
        <time>2020-06-24T15:06:34Z</time>
      </trkpt>
      <trkpt lat="50.19387" lon="4.03833">
        <ele>174</ele>
        <time>2020-06-24T15:06:35Z</time>
      </trkpt>
      <trkpt lat="50.19383" lon="4.03831">
        <ele>174.2</ele>
        <time>2020-06-24T15:06:36Z</time>
      </trkpt>
      <trkpt lat="50.19379" lon="4.03829">
        <ele>174.3</ele>
        <time>2020-06-24T15:06:37Z</time>
      </trkpt>
      <trkpt lat="50.19375" lon="4.03827">
        <ele>174.4</ele>
        <time>2020-06-24T15:06:38Z</time>
      </trkpt>
      <trkpt lat="50.19369" lon="4.03823">
        <ele>174.6</ele>
        <time>2020-06-24T15:06:39Z</time>
      </trkpt>
      <trkpt lat="50.19364" lon="4.03819">
        <ele>174.8</ele>
        <time>2020-06-24T15:06:40Z</time>
      </trkpt>
      <trkpt lat="50.1936" lon="4.03814">
        <ele>175</ele>
        <time>2020-06-24T15:06:41Z</time>
      </trkpt>
      <trkpt lat="50.19355" lon="4.03813">
        <ele>175.1</ele>
        <time>2020-06-24T15:06:42Z</time>
      </trkpt>
      <trkpt lat="50.19351" lon="4.0381">
        <ele>175.3</ele>
        <time>2020-06-24T15:06:43Z</time>
      </trkpt>
      <trkpt lat="50.19348" lon="4.03806">
        <ele>175.4</ele>
        <time>2020-06-24T15:06:44Z</time>
      </trkpt>
      <trkpt lat="50.19345" lon="4.03801">
        <ele>175.5</ele>
        <time>2020-06-24T15:06:45Z</time>
      </trkpt>
      <trkpt lat="50.19342" lon="4.03797">
        <ele>175.6</ele>
        <time>2020-06-24T15:06:46Z</time>
      </trkpt>
      <trkpt lat="50.1934" lon="4.03794">
        <ele>175.6</ele>
        <time>2020-06-24T15:06:47Z</time>
      </trkpt>
      <trkpt lat="50.19339" lon="4.03789">
        <ele>175.7</ele>
        <time>2020-06-24T15:06:48Z</time>
      </trkpt>
      <trkpt lat="50.19338" lon="4.03787">
        <ele>175.6</ele>
        <time>2020-06-24T15:06:49Z</time>
      </trkpt>
      <trkpt lat="50.19337" lon="4.03785">
        <ele>175.6</ele>
        <time>2020-06-24T15:06:50Z</time>
      </trkpt>
      <trkpt lat="50.19337" lon="4.03784">
        <ele>175.6</ele>
        <time>2020-06-24T15:06:51Z</time>
      </trkpt>
      <trkpt lat="50.19337" lon="4.03785">
        <ele>175.6</ele>
        <time>2020-06-24T15:06:52Z</time>
      </trkpt>
      <trkpt lat="50.19336" lon="4.03786">
        <ele>175.6</ele>
        <time>2020-06-24T15:06:53Z</time>
      </trkpt>
      <trkpt lat="50.19336" lon="4.03787">
        <ele>175.6</ele>
        <time>2020-06-24T15:06:54Z</time>
      </trkpt>
      <trkpt lat="50.19335" lon="4.03788">
        <ele>175.6</ele>
        <time>2020-06-24T15:06:55Z</time>
      </trkpt>
      <trkpt lat="50.19335" lon="4.03789">
        <ele>175.5</ele>
        <time>2020-06-24T15:06:56Z</time>
      </trkpt>
      <trkpt lat="50.19332" lon="4.03792">
        <ele>175.5</ele>
        <time>2020-06-24T15:06:57Z</time>
      </trkpt>
      <trkpt lat="50.1933" lon="4.03792">
        <ele>175.5</ele>
        <time>2020-06-24T15:06:58Z</time>
      </trkpt>
      <trkpt lat="50.1933" lon="4.03794">
        <ele>175.4</ele>
        <time>2020-06-24T15:06:59Z</time>
      </trkpt>
      <trkpt lat="50.19329" lon="4.03794">
        <ele>175.4</ele>
        <time>2020-06-24T15:07:00Z</time>
      </trkpt>
      <trkpt lat="50.19329" lon="4.03795">
        <ele>175.4</ele>
        <time>2020-06-24T15:07:01Z</time>
      </trkpt>
      <trkpt lat="50.19341" lon="4.03802">
        <ele>175.1</ele>
        <time>2020-06-24T15:13:20Z</time>
      </trkpt>
      <trkpt lat="50.19344" lon="4.03805">
        <ele>175</ele>
        <time>2020-06-24T15:13:21Z</time>
      </trkpt>
      <trkpt lat="50.19348" lon="4.03809">
        <ele>174.9</ele>
        <time>2020-06-24T15:13:22Z</time>
      </trkpt>
      <trkpt lat="50.19352" lon="4.03813">
        <ele>174.8</ele>
        <time>2020-06-24T15:13:23Z</time>
      </trkpt>
      <trkpt lat="50.19356" lon="4.03817">
        <ele>174.7</ele>
        <time>2020-06-24T15:13:24Z</time>
      </trkpt>
      <trkpt lat="50.1936" lon="4.0382">
        <ele>174.6</ele>
        <time>2020-06-24T15:13:25Z</time>
      </trkpt>
      <trkpt lat="50.19364" lon="4.03823">
        <ele>174.5</ele>
        <time>2020-06-24T15:13:26Z</time>
      </trkpt>
      <trkpt lat="50.19368" lon="4.03827">
        <ele>174.4</ele>
        <time>2020-06-24T15:13:27Z</time>
      </trkpt>
      <trkpt lat="50.19373" lon="4.0383">
        <ele>174.2</ele>
        <time>2020-06-24T15:13:28Z</time>
      </trkpt>
      <trkpt lat="50.19378" lon="4.03834">
        <ele>174.1</ele>
        <time>2020-06-24T15:13:29Z</time>
      </trkpt>
      <trkpt lat="50.19384" lon="4.03838">
        <ele>174</ele>
        <time>2020-06-24T15:13:30Z</time>
      </trkpt>
      <trkpt lat="50.19389" lon="4.03842">
        <ele>173.8</ele>
        <time>2020-06-24T15:13:31Z</time>
      </trkpt>
      <trkpt lat="50.19393" lon="4.03847">
        <ele>173.7</ele>
        <time>2020-06-24T15:13:32Z</time>
      </trkpt>
      <trkpt lat="50.19395" lon="4.03853">
        <ele>173.6</ele>
        <time>2020-06-24T15:13:33Z</time>
      </trkpt>
      <trkpt lat="50.19396" lon="4.03859">
        <ele>173.6</ele>
        <time>2020-06-24T15:13:34Z</time>
      </trkpt>
      <trkpt lat="50.19397" lon="4.03864">
        <ele>173.6</ele>
        <time>2020-06-24T15:13:35Z</time>
      </trkpt>
      <trkpt lat="50.19397" lon="4.03866">
        <ele>173.6</ele>
        <time>2020-06-24T15:13:36Z</time>
      </trkpt>
      <trkpt lat="50.19398" lon="4.0387">
        <ele>173.7</ele>
        <time>2020-06-24T15:13:37Z</time>
      </trkpt>
      <trkpt lat="50.19399" lon="4.03871">
        <ele>173.7</ele>
        <time>2020-06-24T15:13:38Z</time>
      </trkpt>
      <trkpt lat="50.19399" lon="4.03872">
        <ele>173.7</ele>
        <time>2020-06-24T15:13:39Z</time>
      </trkpt>
      <trkpt lat="50.194" lon="4.03874">
        <ele>173.7</ele>
        <time>2020-06-24T15:13:40Z</time>
      </trkpt>
      <trkpt lat="50.194" lon="4.03875">
        <ele>173.7</ele>
        <time>2020-06-24T15:13:41Z</time>
      </trkpt>
      <trkpt lat="50.19399" lon="4.03878">
        <ele>173.7</ele>
        <time>2020-06-24T15:13:42Z</time>
      </trkpt>
      <trkpt lat="50.19398" lon="4.03879">
        <ele>173.7</ele>
        <time>2020-06-24T15:13:43Z</time>
      </trkpt>
      <trkpt lat="50.19398" lon="4.03881">
        <ele>173.7</ele>
        <time>2020-06-24T15:13:44Z</time>
      </trkpt>
      <trkpt lat="50.19396" lon="4.03885">
        <ele>173.8</ele>
        <time>2020-06-24T15:13:45Z</time>
      </trkpt>
      <trkpt lat="50.19395" lon="4.03886">
        <ele>173.8</ele>
        <time>2020-06-24T15:13:46Z</time>
      </trkpt>
      <trkpt lat="50.19394" lon="4.03891">
        <ele>173.8</ele>
        <time>2020-06-24T15:13:47Z</time>
      </trkpt>
      <trkpt lat="50.19394" lon="4.03893">
        <ele>173.8</ele>
        <time>2020-06-24T15:13:48Z</time>
      </trkpt>
      <trkpt lat="50.19393" lon="4.03897">
        <ele>173.8</ele>
        <time>2020-06-24T15:13:49Z</time>
      </trkpt>
      <trkpt lat="50.19392" lon="4.03899">
        <ele>173.8</ele>
        <time>2020-06-24T15:13:50Z</time>
      </trkpt>
      <trkpt lat="50.19392" lon="4.039">
        <ele>173.8</ele>
        <time>2020-06-24T15:13:51Z</time>
      </trkpt>
      <trkpt lat="50.19392" lon="4.03901">
        <ele>173.8</ele>
        <time>2020-06-24T15:13:52Z</time>
      </trkpt>
      <trkpt lat="50.19392" lon="4.03901">
        <ele>173.8</ele>
        <time>2020-06-24T15:13:53Z</time>
      </trkpt>
      <trkpt lat="50.19392" lon="4.03901">
        <ele>173.8</ele>
        <time>2020-06-24T15:13:54Z</time>
      </trkpt>
      <trkpt lat="50.19392" lon="4.03901">
        <ele>173.8</ele>
        <time>2020-06-24T15:13:55Z</time>
      </trkpt>
      <trkpt lat="50.19392" lon="4.03901">
        <ele>173.8</ele>
        <time>2020-06-24T15:13:56Z</time>
      </trkpt>
      <trkpt lat="50.19392" lon="4.03901">
        <ele>173.8</ele>
        <time>2020-06-24T15:13:57Z</time>
      </trkpt>
      <trkpt lat="50.19392" lon="4.03901">
        <ele>173.8</ele>
        <time>2020-06-24T15:13:58Z</time>
      </trkpt>
      <trkpt lat="50.19392" lon="4.03901">
        <ele>173.8</ele>
        <time>2020-06-24T15:13:59Z</time>
      </trkpt>
      <trkpt lat="50.19392" lon="4.03901">
        <ele>173.8</ele>
        <time>2020-06-24T15:14:00Z</time>
      </trkpt>
      <trkpt lat="50.19392" lon="4.03901">
        <ele>173.8</ele>
        <time>2020-06-24T15:14:01Z</time>
      </trkpt>
      <trkpt lat="50.19394" lon="4.03893">
        <ele>173.7</ele>
        <time>2020-06-24T15:14:20Z</time>
      </trkpt>
      <trkpt lat="50.19395" lon="4.03892">
        <ele>173.7</ele>
        <time>2020-06-24T15:14:21Z</time>
      </trkpt>
      <trkpt lat="50.19396" lon="4.0389">
        <ele>173.8</ele>
        <time>2020-06-24T15:14:22Z</time>
      </trkpt>
      <trkpt lat="50.19396" lon="4.03888">
        <ele>173.8</ele>
        <time>2020-06-24T15:14:23Z</time>
      </trkpt>
      <trkpt lat="50.19398" lon="4.03885">
        <ele>173.8</ele>
        <time>2020-06-24T15:14:24Z</time>
      </trkpt>
      <trkpt lat="50.19399" lon="4.0388">
        <ele>173.8</ele>
        <time>2020-06-24T15:14:25Z</time>
      </trkpt>
      <trkpt lat="50.194" lon="4.03878">
        <ele>173.7</ele>
        <time>2020-06-24T15:14:26Z</time>
      </trkpt>
      <trkpt lat="50.19401" lon="4.03872">
        <ele>173.7</ele>
        <time>2020-06-24T15:14:27Z</time>
      </trkpt>
      <trkpt lat="50.19401" lon="4.03871">
        <ele>173.6</ele>
        <time>2020-06-24T15:14:28Z</time>
      </trkpt>
      <trkpt lat="50.19402" lon="4.03869">
        <ele>173.6</ele>
        <time>2020-06-24T15:14:29Z</time>
      </trkpt>
      <trkpt lat="50.19403" lon="4.03867">
        <ele>173.6</ele>
        <time>2020-06-24T15:14:30Z</time>
      </trkpt>
      <trkpt lat="50.19406" lon="4.03865">
        <ele>173.5</ele>
        <time>2020-06-24T15:14:31Z</time>
      </trkpt>
      <trkpt lat="50.1941" lon="4.03866">
        <ele>173.5</ele>
        <time>2020-06-24T15:14:32Z</time>
      </trkpt>
      <trkpt lat="50.19411" lon="4.03867">
        <ele>173.5</ele>
        <time>2020-06-24T15:14:33Z</time>
      </trkpt>
      <trkpt lat="50.19413" lon="4.0387">
        <ele>172.6</ele>
        <time>2020-06-24T15:14:34Z</time>
      </trkpt>
      <trkpt lat="50.19414" lon="4.03875">
        <ele>172.3</ele>
        <time>2020-06-24T15:14:35Z</time>
      </trkpt>
      <trkpt lat="50.19415" lon="4.03882">
        <ele>171.9</ele>
        <time>2020-06-24T15:14:36Z</time>
      </trkpt>
      <trkpt lat="50.19416" lon="4.03889">
        <ele>171.4</ele>
        <time>2020-06-24T15:14:37Z</time>
      </trkpt>
      <trkpt lat="50.19417" lon="4.03897">
        <ele>170.9</ele>
        <time>2020-06-24T15:14:38Z</time>
      </trkpt>
      <trkpt lat="50.19418" lon="4.03905">
        <ele>170.5</ele>
        <time>2020-06-24T15:14:39Z</time>
      </trkpt>
      <trkpt lat="50.1942" lon="4.03913">
        <ele>169.9</ele>
        <time>2020-06-24T15:14:40Z</time>
      </trkpt>
      <trkpt lat="50.19419" lon="4.03921">
        <ele>169.4</ele>
        <time>2020-06-24T15:14:41Z</time>
      </trkpt>
      <trkpt lat="50.19421" lon="4.03926">
        <ele>169</ele>
        <time>2020-06-24T15:14:42Z</time>
      </trkpt>
      <trkpt lat="50.19421" lon="4.03934">
        <ele>168.5</ele>
        <time>2020-06-24T15:14:43Z</time>
      </trkpt>
      <trkpt lat="50.19422" lon="4.0394">
        <ele>168.1</ele>
        <time>2020-06-24T15:14:44Z</time>
      </trkpt>
      <trkpt lat="50.19422" lon="4.03946">
        <ele>168.1</ele>
        <time>2020-06-24T15:14:45Z</time>
      </trkpt>
      <trkpt lat="50.19422" lon="4.0395">
        <ele>168.1</ele>
        <time>2020-06-24T15:14:46Z</time>
      </trkpt>
      <trkpt lat="50.19419" lon="4.03953">
        <ele>168.2</ele>
        <time>2020-06-24T15:14:47Z</time>
      </trkpt>
      <trkpt lat="50.19418" lon="4.03953">
        <ele>168.2</ele>
        <time>2020-06-24T15:14:48Z</time>
      </trkpt>
      <trkpt lat="50.19417" lon="4.03954">
        <ele>168.2</ele>
        <time>2020-06-24T15:14:49Z</time>
      </trkpt>
      <trkpt lat="50.19415" lon="4.03955">
        <ele>168.2</ele>
        <time>2020-06-24T15:14:50Z</time>
      </trkpt>
      <trkpt lat="50.19413" lon="4.03956">
        <ele>168.3</ele>
        <time>2020-06-24T15:14:51Z</time>
      </trkpt>
      <trkpt lat="50.19412" lon="4.03956">
        <ele>168.3</ele>
        <time>2020-06-24T15:14:52Z</time>
      </trkpt>
      <trkpt lat="50.19409" lon="4.03957">
        <ele>168.3</ele>
        <time>2020-06-24T15:14:53Z</time>
      </trkpt>
      <trkpt lat="50.19408" lon="4.03958">
        <ele>168.3</ele>
        <time>2020-06-24T15:14:54Z</time>
      </trkpt>
      <trkpt lat="50.19405" lon="4.03961">
        <ele>168.4</ele>
        <time>2020-06-24T15:14:55Z</time>
      </trkpt>
      <trkpt lat="50.19404" lon="4.03961">
        <ele>168.4</ele>
        <time>2020-06-24T15:14:56Z</time>
      </trkpt>
      <trkpt lat="50.19403" lon="4.03962">
        <ele>168.4</ele>
        <time>2020-06-24T15:14:57Z</time>
      </trkpt>
      <trkpt lat="50.19402" lon="4.03963">
        <ele>168.4</ele>
        <time>2020-06-24T15:14:58Z</time>
      </trkpt>
      <trkpt lat="50.19402" lon="4.03964">
        <ele>168.5</ele>
        <time>2020-06-24T15:14:59Z</time>
      </trkpt>
      <trkpt lat="50.19402" lon="4.03963">
        <ele>168.5</ele>
        <time>2020-06-24T15:15:00Z</time>
      </trkpt>
      <trkpt lat="50.19402" lon="4.03963">
        <ele>168.5</ele>
        <time>2020-06-24T15:15:01Z</time>
      </trkpt>
      <trkpt lat="50.19403" lon="4.03962">
        <ele>168.5</ele>
        <time>2020-06-24T15:15:02Z</time>
      </trkpt>
      <trkpt lat="50.19403" lon="4.03962">
        <ele>168.5</ele>
        <time>2020-06-24T15:15:03Z</time>
      </trkpt>
      <trkpt lat="50.19404" lon="4.03961">
        <ele>168.5</ele>
        <time>2020-06-24T15:15:04Z</time>
      </trkpt>
      <trkpt lat="50.19405" lon="4.0396">
        <ele>168.5</ele>
        <time>2020-06-24T15:15:05Z</time>
      </trkpt>
      <trkpt lat="50.19405" lon="4.0396">
        <ele>168.5</ele>
        <time>2020-06-24T15:15:06Z</time>
      </trkpt>
      <trkpt lat="50.19406" lon="4.03959">
        <ele>168.5</ele>
        <time>2020-06-24T15:15:07Z</time>
      </trkpt>
      <trkpt lat="50.19406" lon="4.03959">
        <ele>168.6</ele>
        <time>2020-06-24T15:15:08Z</time>
      </trkpt>
      <trkpt lat="50.19409" lon="4.03957">
        <ele>168.6</ele>
        <time>2020-06-24T15:15:09Z</time>
      </trkpt>
      <trkpt lat="50.19412" lon="4.03955">
        <ele>168.7</ele>
        <time>2020-06-24T15:15:10Z</time>
      </trkpt>
      <trkpt lat="50.19414" lon="4.03954">
        <ele>168.7</ele>
        <time>2020-06-24T15:15:11Z</time>
      </trkpt>
      <trkpt lat="50.19417" lon="4.03952">
        <ele>168.8</ele>
        <time>2020-06-24T15:15:12Z</time>
      </trkpt>
      <trkpt lat="50.1942" lon="4.03951">
        <ele>168.8</ele>
        <time>2020-06-24T15:15:13Z</time>
      </trkpt>
      <trkpt lat="50.19423" lon="4.03953">
        <ele>168.9</ele>
        <time>2020-06-24T15:15:14Z</time>
      </trkpt>
      <trkpt lat="50.19426" lon="4.03951">
        <ele>168.9</ele>
        <time>2020-06-24T15:15:15Z</time>
      </trkpt>
      <trkpt lat="50.19427" lon="4.03951">
        <ele>168.9</ele>
        <time>2020-06-24T15:15:16Z</time>
      </trkpt>
      <trkpt lat="50.19428" lon="4.0395">
        <ele>169</ele>
        <time>2020-06-24T15:15:17Z</time>
      </trkpt>
      <trkpt lat="50.19429" lon="4.0395">
        <ele>169</ele>
        <time>2020-06-24T15:15:18Z</time>
      </trkpt>
      <trkpt lat="50.1943" lon="4.03951">
        <ele>169</ele>
        <time>2020-06-24T15:15:19Z</time>
      </trkpt>
      <trkpt lat="50.19432" lon="4.03952">
        <ele>169.1</ele>
        <time>2020-06-24T15:15:20Z</time>
      </trkpt>
      <trkpt lat="50.19433" lon="4.03953">
        <ele>169.1</ele>
        <time>2020-06-24T15:15:21Z</time>
      </trkpt>
      <trkpt lat="50.19435" lon="4.03953">
        <ele>169.1</ele>
        <time>2020-06-24T15:15:22Z</time>
      </trkpt>
      <trkpt lat="50.19436" lon="4.03953">
        <ele>169.2</ele>
        <time>2020-06-24T15:15:23Z</time>
      </trkpt>
      <trkpt lat="50.19437" lon="4.03952">
        <ele>169.2</ele>
        <time>2020-06-24T15:15:24Z</time>
      </trkpt>
      <trkpt lat="50.19437" lon="4.03952">
        <ele>169.2</ele>
        <time>2020-06-24T15:15:25Z</time>
      </trkpt>
      <trkpt lat="50.19436" lon="4.03952">
        <ele>169.2</ele>
        <time>2020-06-24T15:15:26Z</time>
      </trkpt>
      <trkpt lat="50.19436" lon="4.03952">
        <ele>169.2</ele>
        <time>2020-06-24T15:15:27Z</time>
      </trkpt>
      <trkpt lat="50.19436" lon="4.03952">
        <ele>169.2</ele>
        <time>2020-06-24T15:15:28Z</time>
      </trkpt>
      <trkpt lat="50.19435" lon="4.03952">
        <ele>169.2</ele>
        <time>2020-06-24T15:15:29Z</time>
      </trkpt>
      <trkpt lat="50.19435" lon="4.03952">
        <ele>169.2</ele>
        <time>2020-06-24T15:15:30Z</time>
      </trkpt>
      <trkpt lat="50.19435" lon="4.03952">
        <ele>169.2</ele>
        <time>2020-06-24T15:15:31Z</time>
      </trkpt>
      <trkpt lat="50.19434" lon="4.03952">
        <ele>169.2</ele>
        <time>2020-06-24T15:15:32Z</time>
      </trkpt>
      <trkpt lat="50.19434" lon="4.03952">
        <ele>169.2</ele>
        <time>2020-06-24T15:15:33Z</time>
      </trkpt>
      <trkpt lat="50.19434" lon="4.03952">
        <ele>169.2</ele>
        <time>2020-06-24T15:15:34Z</time>
      </trkpt>
      <trkpt lat="50.19434" lon="4.03952">
        <ele>169.2</ele>
        <time>2020-06-24T15:15:35Z</time>
      </trkpt>
      <trkpt lat="50.19433" lon="4.03952">
        <ele>169.3</ele>
        <time>2020-06-24T15:15:36Z</time>
      </trkpt>
      <trkpt lat="50.19433" lon="4.03952">
        <ele>169.3</ele>
        <time>2020-06-24T15:15:37Z</time>
      </trkpt>
      <trkpt lat="50.19433" lon="4.03952">
        <ele>169.3</ele>
        <time>2020-06-24T15:15:38Z</time>
      </trkpt>
      <trkpt lat="50.19432" lon="4.03952">
        <ele>169.3</ele>
        <time>2020-06-24T15:15:39Z</time>
      </trkpt>
      <trkpt lat="50.19432" lon="4.03952">
        <ele>169.3</ele>
        <time>2020-06-24T15:15:40Z</time>
      </trkpt>
      <trkpt lat="50.1943" lon="4.03951">
        <ele>169.3</ele>
        <time>2020-06-24T15:15:41Z</time>
      </trkpt>
      <trkpt lat="50.19428" lon="4.03951">
        <ele>169.4</ele>
        <time>2020-06-24T15:15:42Z</time>
      </trkpt>
      <trkpt lat="50.19427" lon="4.03951">
        <ele>169.4</ele>
        <time>2020-06-24T15:15:43Z</time>
      </trkpt>
      <trkpt lat="50.19426" lon="4.03951">
        <ele>169.4</ele>
        <time>2020-06-24T15:15:44Z</time>
      </trkpt>
      <trkpt lat="50.19424" lon="4.03951">
        <ele>169.5</ele>
        <time>2020-06-24T15:15:45Z</time>
      </trkpt>
      <trkpt lat="50.19422" lon="4.03953">
        <ele>169.5</ele>
        <time>2020-06-24T15:15:46Z</time>
      </trkpt>
      <trkpt lat="50.19421" lon="4.03954">
        <ele>169.6</ele>
        <time>2020-06-24T15:15:47Z</time>
      </trkpt>
      <trkpt lat="50.19417" lon="4.03954">
        <ele>169.7</ele>
        <time>2020-06-24T15:15:48Z</time>
      </trkpt>
      <trkpt lat="50.19416" lon="4.03954">
        <ele>169.7</ele>
        <time>2020-06-24T15:15:49Z</time>
      </trkpt>
      <trkpt lat="50.19414" lon="4.03955">
        <ele>169.7</ele>
        <time>2020-06-24T15:15:50Z</time>
      </trkpt>
      <trkpt lat="50.19413" lon="4.03956">
        <ele>169.8</ele>
        <time>2020-06-24T15:15:51Z</time>
      </trkpt>
      <trkpt lat="50.1941" lon="4.03957">
        <ele>169.8</ele>
        <time>2020-06-24T15:15:52Z</time>
      </trkpt>
      <trkpt lat="50.19407" lon="4.03959">
        <ele>169.9</ele>
        <time>2020-06-24T15:15:53Z</time>
      </trkpt>
      <trkpt lat="50.19406" lon="4.0396">
        <ele>170</ele>
        <time>2020-06-24T15:15:54Z</time>
      </trkpt>
      <trkpt lat="50.19405" lon="4.03961">
        <ele>171.2</ele>
        <time>2020-06-24T15:15:55Z</time>
      </trkpt>
      <trkpt lat="50.19404" lon="4.03962">
        <ele>171.1</ele>
        <time>2020-06-24T15:15:56Z</time>
      </trkpt>
      <trkpt lat="50.19404" lon="4.03962">
        <ele>171.1</ele>
        <time>2020-06-24T15:15:57Z</time>
      </trkpt>
      <trkpt lat="50.19403" lon="4.03965">
        <ele>171</ele>
        <time>2020-06-24T15:15:58Z</time>
      </trkpt>
      <trkpt lat="50.19404" lon="4.03967">
        <ele>171</ele>
        <time>2020-06-24T15:15:59Z</time>
      </trkpt>
      <trkpt lat="50.19405" lon="4.03971">
        <ele>170.9</ele>
        <time>2020-06-24T15:16:00Z</time>
      </trkpt>
      <trkpt lat="50.19405" lon="4.03972">
        <ele>170.8</ele>
        <time>2020-06-24T15:16:01Z</time>
      </trkpt>
      <trkpt lat="50.19406" lon="4.03974">
        <ele>170.7</ele>
        <time>2020-06-24T15:16:02Z</time>
      </trkpt>
      <trkpt lat="50.19407" lon="4.03975">
        <ele>170.7</ele>
        <time>2020-06-24T15:16:03Z</time>
      </trkpt>
      <trkpt lat="50.19407" lon="4.03976">
        <ele>170.7</ele>
        <time>2020-06-24T15:16:04Z</time>
      </trkpt>
      <trkpt lat="50.19407" lon="4.03977">
        <ele>170.6</ele>
        <time>2020-06-24T15:16:05Z</time>
      </trkpt>
      <trkpt lat="50.19407" lon="4.03978">
        <ele>170.6</ele>
        <time>2020-06-24T15:16:06Z</time>
      </trkpt>
      <trkpt lat="50.19407" lon="4.03979">
        <ele>170.6</ele>
        <time>2020-06-24T15:16:07Z</time>
      </trkpt>
      <trkpt lat="50.19408" lon="4.03979">
        <ele>170.6</ele>
        <time>2020-06-24T15:16:08Z</time>
      </trkpt>
      <trkpt lat="50.19408" lon="4.0398">
        <ele>170.5</ele>
        <time>2020-06-24T15:16:09Z</time>
      </trkpt>
      <trkpt lat="50.19408" lon="4.03981">
        <ele>170.5</ele>
        <time>2020-06-24T15:16:10Z</time>
      </trkpt>
      <trkpt lat="50.19408" lon="4.03982">
        <ele>170.5</ele>
        <time>2020-06-24T15:16:11Z</time>
      </trkpt>
      <trkpt lat="50.19407" lon="4.03987">
        <ele>170.3</ele>
        <time>2020-06-24T15:16:12Z</time>
      </trkpt>
      <trkpt lat="50.19406" lon="4.03992">
        <ele>170.2</ele>
        <time>2020-06-24T15:16:13Z</time>
      </trkpt>
      <trkpt lat="50.19405" lon="4.03996">
        <ele>170.1</ele>
        <time>2020-06-24T15:16:14Z</time>
      </trkpt>
      <trkpt lat="50.19404" lon="4.04001">
        <ele>169.9</ele>
        <time>2020-06-24T15:16:15Z</time>
      </trkpt>
      <trkpt lat="50.19404" lon="4.04006">
        <ele>169.8</ele>
        <time>2020-06-24T15:16:16Z</time>
      </trkpt>
      <trkpt lat="50.19404" lon="4.0401">
        <ele>169.7</ele>
        <time>2020-06-24T15:16:17Z</time>
      </trkpt>
      <trkpt lat="50.19403" lon="4.04014">
        <ele>169.5</ele>
        <time>2020-06-24T15:16:18Z</time>
      </trkpt>
      <trkpt lat="50.19402" lon="4.04016">
        <ele>169.5</ele>
        <time>2020-06-24T15:16:19Z</time>
      </trkpt>
      <trkpt lat="50.19401" lon="4.0402">
        <ele>169.3</ele>
        <time>2020-06-24T15:16:20Z</time>
      </trkpt>
      <trkpt lat="50.19399" lon="4.04025">
        <ele>169.2</ele>
        <time>2020-06-24T15:16:21Z</time>
      </trkpt>
      <trkpt lat="50.19399" lon="4.04026">
        <ele>169.2</ele>
        <time>2020-06-24T15:16:22Z</time>
      </trkpt>
      <trkpt lat="50.19398" lon="4.04028">
        <ele>169.3</ele>
        <time>2020-06-24T15:16:23Z</time>
      </trkpt>
      <trkpt lat="50.19398" lon="4.0403">
        <ele>169.3</ele>
        <time>2020-06-24T15:16:24Z</time>
      </trkpt>
      <trkpt lat="50.19397" lon="4.04031">
        <ele>169.3</ele>
        <time>2020-06-24T15:16:25Z</time>
      </trkpt>
      <trkpt lat="50.19397" lon="4.04033">
        <ele>169.3</ele>
        <time>2020-06-24T15:16:26Z</time>
      </trkpt>
      <trkpt lat="50.19397" lon="4.04033">
        <ele>169.3</ele>
        <time>2020-06-24T15:16:27Z</time>
      </trkpt>
      <trkpt lat="50.19397" lon="4.04034">
        <ele>169.3</ele>
        <time>2020-06-24T15:16:28Z</time>
      </trkpt>
      <trkpt lat="50.19397" lon="4.04035">
        <ele>169.3</ele>
        <time>2020-06-24T15:16:29Z</time>
      </trkpt>
      <trkpt lat="50.19397" lon="4.04035">
        <ele>169.3</ele>
        <time>2020-06-24T15:16:30Z</time>
      </trkpt>
      <trkpt lat="50.19397" lon="4.04035">
        <ele>169.3</ele>
        <time>2020-06-24T15:16:31Z</time>
      </trkpt>
      <trkpt lat="50.19397" lon="4.04035">
        <ele>169.3</ele>
        <time>2020-06-24T15:16:32Z</time>
      </trkpt>
      <trkpt lat="50.19397" lon="4.04035">
        <ele>169.3</ele>
        <time>2020-06-24T15:16:33Z</time>
      </trkpt>
      <trkpt lat="50.19397" lon="4.04035">
        <ele>169.3</ele>
        <time>2020-06-24T15:16:34Z</time>
      </trkpt>
      <trkpt lat="50.19397" lon="4.04035">
        <ele>169.3</ele>
        <time>2020-06-24T15:16:35Z</time>
      </trkpt>
      <trkpt lat="50.194" lon="4.04051">
        <ele>169</ele>
        <time>2020-06-24T15:17:25Z</time>
      </trkpt>
      <trkpt lat="50.194" lon="4.04056">
        <ele>168.8</ele>
        <time>2020-06-24T15:17:26Z</time>
      </trkpt>
      <trkpt lat="50.19401" lon="4.04063">
        <ele>168.5</ele>
        <time>2020-06-24T15:17:27Z</time>
      </trkpt>
      <trkpt lat="50.19402" lon="4.04068">
        <ele>168.4</ele>
        <time>2020-06-24T15:17:28Z</time>
      </trkpt>
      <trkpt lat="50.19402" lon="4.04072">
        <ele>168.3</ele>
        <time>2020-06-24T15:17:29Z</time>
      </trkpt>
      <trkpt lat="50.19403" lon="4.04077">
        <ele>168.2</ele>
        <time>2020-06-24T15:17:30Z</time>
      </trkpt>
      <trkpt lat="50.19404" lon="4.04082">
        <ele>168.2</ele>
        <time>2020-06-24T15:17:31Z</time>
      </trkpt>
      <trkpt lat="50.19406" lon="4.04087">
        <ele>168.2</ele>
        <time>2020-06-24T15:17:32Z</time>
      </trkpt>
      <trkpt lat="50.19406" lon="4.04088">
        <ele>168.2</ele>
        <time>2020-06-24T15:17:33Z</time>
      </trkpt>
      <trkpt lat="50.1941" lon="4.04089">
        <ele>168.2</ele>
        <time>2020-06-24T15:17:34Z</time>
      </trkpt>
      <trkpt lat="50.19411" lon="4.0409">
        <ele>168.2</ele>
        <time>2020-06-24T15:17:35Z</time>
      </trkpt>
      <trkpt lat="50.19414" lon="4.0409">
        <ele>168.3</ele>
        <time>2020-06-24T15:17:36Z</time>
      </trkpt>
      <trkpt lat="50.19417" lon="4.04089">
        <ele>168.3</ele>
        <time>2020-06-24T15:17:37Z</time>
      </trkpt>
      <trkpt lat="50.19419" lon="4.04089">
        <ele>168.3</ele>
        <time>2020-06-24T15:17:38Z</time>
      </trkpt>
      <trkpt lat="50.19422" lon="4.04091">
        <ele>168.4</ele>
        <time>2020-06-24T15:17:39Z</time>
      </trkpt>
      <trkpt lat="50.19426" lon="4.04094">
        <ele>168.4</ele>
        <time>2020-06-24T15:17:40Z</time>
      </trkpt>
      <trkpt lat="50.19428" lon="4.04097">
        <ele>168.5</ele>
        <time>2020-06-24T15:17:41Z</time>
      </trkpt>
      <trkpt lat="50.1943" lon="4.04103">
        <ele>168.5</ele>
        <time>2020-06-24T15:17:42Z</time>
      </trkpt>
      <trkpt lat="50.19432" lon="4.04108">
        <ele>168.6</ele>
        <time>2020-06-24T15:17:43Z</time>
      </trkpt>
      <trkpt lat="50.19433" lon="4.04114">
        <ele>168.8</ele>
        <time>2020-06-24T15:17:44Z</time>
      </trkpt>
      <trkpt lat="50.19433" lon="4.0412">
        <ele>168.9</ele>
        <time>2020-06-24T15:17:45Z</time>
      </trkpt>
      <trkpt lat="50.19433" lon="4.04125">
        <ele>169.1</ele>
        <time>2020-06-24T15:17:46Z</time>
      </trkpt>
      <trkpt lat="50.19434" lon="4.0413">
        <ele>169.3</ele>
        <time>2020-06-24T15:17:47Z</time>
      </trkpt>
      <trkpt lat="50.19434" lon="4.04135">
        <ele>169.5</ele>
        <time>2020-06-24T15:17:48Z</time>
      </trkpt>
      <trkpt lat="50.19433" lon="4.04141">
        <ele>169.8</ele>
        <time>2020-06-24T15:17:49Z</time>
      </trkpt>
      <trkpt lat="50.19433" lon="4.04147">
        <ele>170</ele>
        <time>2020-06-24T15:17:50Z</time>
      </trkpt>
      <trkpt lat="50.19432" lon="4.04151">
        <ele>170.2</ele>
        <time>2020-06-24T15:17:51Z</time>
      </trkpt>
      <trkpt lat="50.19432" lon="4.04157">
        <ele>170.4</ele>
        <time>2020-06-24T15:17:52Z</time>
      </trkpt>
      <trkpt lat="50.19432" lon="4.04158">
        <ele>170.5</ele>
        <time>2020-06-24T15:17:53Z</time>
      </trkpt>
      <trkpt lat="50.19432" lon="4.04164">
        <ele>170.7</ele>
        <time>2020-06-24T15:17:54Z</time>
      </trkpt>
      <trkpt lat="50.19431" lon="4.04166">
        <ele>170.7</ele>
        <time>2020-06-24T15:17:55Z</time>
      </trkpt>
      <trkpt lat="50.19431" lon="4.04171">
        <ele>170.8</ele>
        <time>2020-06-24T15:17:56Z</time>
      </trkpt>
      <trkpt lat="50.19431" lon="4.04177">
        <ele>170.9</ele>
        <time>2020-06-24T15:17:57Z</time>
      </trkpt>
      <trkpt lat="50.19431" lon="4.04179">
        <ele>171</ele>
        <time>2020-06-24T15:17:58Z</time>
      </trkpt>
      <trkpt lat="50.19431" lon="4.04185">
        <ele>171</ele>
        <time>2020-06-24T15:17:59Z</time>
      </trkpt>
      <trkpt lat="50.19431" lon="4.04187">
        <ele>171.1</ele>
        <time>2020-06-24T15:18:00Z</time>
      </trkpt>
      <trkpt lat="50.19431" lon="4.04192">
        <ele>171.2</ele>
        <time>2020-06-24T15:18:01Z</time>
      </trkpt>
      <trkpt lat="50.19431" lon="4.04196">
        <ele>171.2</ele>
        <time>2020-06-24T15:18:02Z</time>
      </trkpt>
      <trkpt lat="50.19431" lon="4.04201">
        <ele>171.3</ele>
        <time>2020-06-24T15:18:03Z</time>
      </trkpt>
      <trkpt lat="50.19431" lon="4.04206">
        <ele>171.4</ele>
        <time>2020-06-24T15:18:04Z</time>
      </trkpt>
      <trkpt lat="50.19431" lon="4.04213">
        <ele>171.6</ele>
        <time>2020-06-24T15:18:05Z</time>
      </trkpt>
      <trkpt lat="50.1943" lon="4.04215">
        <ele>171.6</ele>
        <time>2020-06-24T15:18:06Z</time>
      </trkpt>
      <trkpt lat="50.1943" lon="4.0422">
        <ele>171.8</ele>
        <time>2020-06-24T15:18:07Z</time>
      </trkpt>
      <trkpt lat="50.1943" lon="4.04225">
        <ele>172</ele>
        <time>2020-06-24T15:18:08Z</time>
      </trkpt>
      <trkpt lat="50.1943" lon="4.0423">
        <ele>172.2</ele>
        <time>2020-06-24T15:18:09Z</time>
      </trkpt>
      <trkpt lat="50.1943" lon="4.04235">
        <ele>172.4</ele>
        <time>2020-06-24T15:18:10Z</time>
      </trkpt>
      <trkpt lat="50.1943" lon="4.04236">
        <ele>172.5</ele>
        <time>2020-06-24T15:18:11Z</time>
      </trkpt>
      <trkpt lat="50.1943" lon="4.04242">
        <ele>172.7</ele>
        <time>2020-06-24T15:18:12Z</time>
      </trkpt>
      <trkpt lat="50.19431" lon="4.04243">
        <ele>172.7</ele>
        <time>2020-06-24T15:18:13Z</time>
      </trkpt>
      <trkpt lat="50.19428" lon="4.04247">
        <ele>173</ele>
        <time>2020-06-24T15:18:14Z</time>
      </trkpt>
      <trkpt lat="50.19427" lon="4.04247">
        <ele>173</ele>
        <time>2020-06-24T15:18:15Z</time>
      </trkpt>
      <trkpt lat="50.19424" lon="4.04248">
        <ele>173.2</ele>
        <time>2020-06-24T15:18:16Z</time>
      </trkpt>
      <trkpt lat="50.19423" lon="4.04248">
        <ele>173.3</ele>
        <time>2020-06-24T15:18:17Z</time>
      </trkpt>
      <trkpt lat="50.1942" lon="4.04248">
        <ele>173.4</ele>
        <time>2020-06-24T15:18:18Z</time>
      </trkpt>
      <trkpt lat="50.19417" lon="4.04248">
        <ele>173.5</ele>
        <time>2020-06-24T15:18:19Z</time>
      </trkpt>
      <trkpt lat="50.19413" lon="4.04248">
        <ele>173.5</ele>
        <time>2020-06-24T15:18:20Z</time>
      </trkpt>
      <trkpt lat="50.1941" lon="4.04248">
        <ele>173.6</ele>
        <time>2020-06-24T15:18:21Z</time>
      </trkpt>
      <trkpt lat="50.19406" lon="4.04247">
        <ele>173.7</ele>
        <time>2020-06-24T15:18:22Z</time>
      </trkpt>
      <trkpt lat="50.19403" lon="4.04247">
        <ele>173.7</ele>
        <time>2020-06-24T15:18:23Z</time>
      </trkpt>
      <trkpt lat="50.19399" lon="4.04246">
        <ele>173.8</ele>
        <time>2020-06-24T15:18:24Z</time>
      </trkpt>
      <trkpt lat="50.19396" lon="4.04246">
        <ele>173.9</ele>
        <time>2020-06-24T15:18:25Z</time>
      </trkpt>
      <trkpt lat="50.19392" lon="4.04246">
        <ele>174</ele>
        <time>2020-06-24T15:18:26Z</time>
      </trkpt>
      <trkpt lat="50.19388" lon="4.04246">
        <ele>174.1</ele>
        <time>2020-06-24T15:18:27Z</time>
      </trkpt>
      <trkpt lat="50.19384" lon="4.04246">
        <ele>174.2</ele>
        <time>2020-06-24T15:18:28Z</time>
      </trkpt>
      <trkpt lat="50.19381" lon="4.04247">
        <ele>174.3</ele>
        <time>2020-06-24T15:18:29Z</time>
      </trkpt>
      <trkpt lat="50.19378" lon="4.04247">
        <ele>174.4</ele>
        <time>2020-06-24T15:18:30Z</time>
      </trkpt>
      <trkpt lat="50.19375" lon="4.04247">
        <ele>174.5</ele>
        <time>2020-06-24T15:18:31Z</time>
      </trkpt>
      <trkpt lat="50.19371" lon="4.04247">
        <ele>174.6</ele>
        <time>2020-06-24T15:18:32Z</time>
      </trkpt>
      <trkpt lat="50.19368" lon="4.04248">
        <ele>174.7</ele>
        <time>2020-06-24T15:18:33Z</time>
      </trkpt>
      <trkpt lat="50.19364" lon="4.04249">
        <ele>174.8</ele>
        <time>2020-06-24T15:18:34Z</time>
      </trkpt>
      <trkpt lat="50.1936" lon="4.04248">
        <ele>175</ele>
        <time>2020-06-24T15:18:35Z</time>
      </trkpt>
      <trkpt lat="50.19357" lon="4.04249">
        <ele>175.1</ele>
        <time>2020-06-24T15:18:36Z</time>
      </trkpt>
      <trkpt lat="50.19354" lon="4.0425">
        <ele>175.2</ele>
        <time>2020-06-24T15:18:37Z</time>
      </trkpt>
      <trkpt lat="50.19351" lon="4.0425">
        <ele>175.3</ele>
        <time>2020-06-24T15:18:38Z</time>
      </trkpt>
      <trkpt lat="50.19348" lon="4.0425">
        <ele>175.4</ele>
        <time>2020-06-24T15:18:39Z</time>
      </trkpt>
      <trkpt lat="50.19345" lon="4.0425">
        <ele>175.5</ele>
        <time>2020-06-24T15:18:40Z</time>
      </trkpt>
      <trkpt lat="50.19342" lon="4.0425">
        <ele>175.7</ele>
        <time>2020-06-24T15:18:41Z</time>
      </trkpt>
      <trkpt lat="50.19339" lon="4.0425">
        <ele>175.8</ele>
        <time>2020-06-24T15:18:42Z</time>
      </trkpt>
      <trkpt lat="50.19335" lon="4.04251">
        <ele>176</ele>
        <time>2020-06-24T15:18:43Z</time>
      </trkpt>
      <trkpt lat="50.19332" lon="4.04251">
        <ele>176.1</ele>
        <time>2020-06-24T15:18:44Z</time>
      </trkpt>
      <trkpt lat="50.19329" lon="4.04251">
        <ele>176.2</ele>
        <time>2020-06-24T15:18:45Z</time>
      </trkpt>
      <trkpt lat="50.19326" lon="4.04253">
        <ele>176.3</ele>
        <time>2020-06-24T15:18:46Z</time>
      </trkpt>
      <trkpt lat="50.19325" lon="4.04253">
        <ele>176.4</ele>
        <time>2020-06-24T15:18:47Z</time>
      </trkpt>
      <trkpt lat="50.19322" lon="4.04254">
        <ele>176.5</ele>
        <time>2020-06-24T15:18:48Z</time>
      </trkpt>
      <trkpt lat="50.19319" lon="4.04256">
        <ele>176.5</ele>
        <time>2020-06-24T15:18:49Z</time>
      </trkpt>
      <trkpt lat="50.19317" lon="4.04257">
        <ele>176.6</ele>
        <time>2020-06-24T15:18:50Z</time>
      </trkpt>
      <trkpt lat="50.19314" lon="4.04258">
        <ele>176.7</ele>
        <time>2020-06-24T15:18:51Z</time>
      </trkpt>
      <trkpt lat="50.19311" lon="4.0426">
        <ele>176.9</ele>
        <time>2020-06-24T15:18:52Z</time>
      </trkpt>
      <trkpt lat="50.19308" lon="4.04262">
        <ele>177.1</ele>
        <time>2020-06-24T15:18:53Z</time>
      </trkpt>
      <trkpt lat="50.19305" lon="4.04265">
        <ele>177.2</ele>
        <time>2020-06-24T15:18:54Z</time>
      </trkpt>
      <trkpt lat="50.19302" lon="4.04267">
        <ele>177.3</ele>
        <time>2020-06-24T15:18:55Z</time>
      </trkpt>
      <trkpt lat="50.19299" lon="4.04269">
        <ele>177.5</ele>
        <time>2020-06-24T15:18:56Z</time>
      </trkpt>
      <trkpt lat="50.19296" lon="4.0427">
        <ele>177.6</ele>
        <time>2020-06-24T15:18:57Z</time>
      </trkpt>
      <trkpt lat="50.19293" lon="4.04273">
        <ele>177.8</ele>
        <time>2020-06-24T15:18:58Z</time>
      </trkpt>
      <trkpt lat="50.19291" lon="4.04276">
        <ele>177.9</ele>
        <time>2020-06-24T15:18:59Z</time>
      </trkpt>
      <trkpt lat="50.19288" lon="4.04279">
        <ele>178.1</ele>
        <time>2020-06-24T15:19:00Z</time>
      </trkpt>
      <trkpt lat="50.19286" lon="4.04282">
        <ele>178.2</ele>
        <time>2020-06-24T15:19:01Z</time>
      </trkpt>
      <trkpt lat="50.19284" lon="4.04286">
        <ele>178.4</ele>
        <time>2020-06-24T15:19:02Z</time>
      </trkpt>
      <trkpt lat="50.19281" lon="4.04288">
        <ele>178.5</ele>
        <time>2020-06-24T15:19:03Z</time>
      </trkpt>
      <trkpt lat="50.19279" lon="4.04291">
        <ele>178.7</ele>
        <time>2020-06-24T15:19:04Z</time>
      </trkpt>
      <trkpt lat="50.19276" lon="4.04296">
        <ele>178.9</ele>
        <time>2020-06-24T15:19:05Z</time>
      </trkpt>
      <trkpt lat="50.19275" lon="4.04298">
        <ele>179</ele>
        <time>2020-06-24T15:19:06Z</time>
      </trkpt>
      <trkpt lat="50.19273" lon="4.04302">
        <ele>179.1</ele>
        <time>2020-06-24T15:19:07Z</time>
      </trkpt>
      <trkpt lat="50.19272" lon="4.04306">
        <ele>179.3</ele>
        <time>2020-06-24T15:19:08Z</time>
      </trkpt>
      <trkpt lat="50.19269" lon="4.0431">
        <ele>179.4</ele>
        <time>2020-06-24T15:19:09Z</time>
      </trkpt>
      <trkpt lat="50.19269" lon="4.04311">
        <ele>179.5</ele>
        <time>2020-06-24T15:19:10Z</time>
      </trkpt>
      <trkpt lat="50.19266" lon="4.04315">
        <ele>179.7</ele>
        <time>2020-06-24T15:19:11Z</time>
      </trkpt>
      <trkpt lat="50.19264" lon="4.04318">
        <ele>179.8</ele>
        <time>2020-06-24T15:19:12Z</time>
      </trkpt>
      <trkpt lat="50.19261" lon="4.04323">
        <ele>180</ele>
        <time>2020-06-24T15:19:13Z</time>
      </trkpt>
      <trkpt lat="50.19259" lon="4.04326">
        <ele>180.1</ele>
        <time>2020-06-24T15:19:14Z</time>
      </trkpt>
      <trkpt lat="50.19257" lon="4.04329">
        <ele>180.3</ele>
        <time>2020-06-24T15:19:15Z</time>
      </trkpt>
      <trkpt lat="50.19255" lon="4.04333">
        <ele>180.4</ele>
        <time>2020-06-24T15:19:16Z</time>
      </trkpt>
      <trkpt lat="50.19253" lon="4.04336">
        <ele>180.6</ele>
        <time>2020-06-24T15:19:17Z</time>
      </trkpt>
      <trkpt lat="50.19251" lon="4.0434">
        <ele>180.7</ele>
        <time>2020-06-24T15:19:18Z</time>
      </trkpt>
      <trkpt lat="50.19249" lon="4.04344">
        <ele>180.9</ele>
        <time>2020-06-24T15:19:19Z</time>
      </trkpt>
      <trkpt lat="50.19246" lon="4.04348">
        <ele>181</ele>
        <time>2020-06-24T15:19:20Z</time>
      </trkpt>
      <trkpt lat="50.19244" lon="4.04352">
        <ele>181.2</ele>
        <time>2020-06-24T15:19:21Z</time>
      </trkpt>
      <trkpt lat="50.19242" lon="4.04356">
        <ele>181.4</ele>
        <time>2020-06-24T15:19:22Z</time>
      </trkpt>
      <trkpt lat="50.1924" lon="4.04361">
        <ele>181.5</ele>
        <time>2020-06-24T15:19:23Z</time>
      </trkpt>
      <trkpt lat="50.19238" lon="4.04364">
        <ele>181.7</ele>
        <time>2020-06-24T15:19:24Z</time>
      </trkpt>
      <trkpt lat="50.19235" lon="4.04368">
        <ele>181.9</ele>
        <time>2020-06-24T15:19:25Z</time>
      </trkpt>
      <trkpt lat="50.19233" lon="4.04372">
        <ele>182</ele>
        <time>2020-06-24T15:19:26Z</time>
      </trkpt>
      <trkpt lat="50.19231" lon="4.04375">
        <ele>182.2</ele>
        <time>2020-06-24T15:19:27Z</time>
      </trkpt>
      <trkpt lat="50.1923" lon="4.0438">
        <ele>182.3</ele>
        <time>2020-06-24T15:19:28Z</time>
      </trkpt>
      <trkpt lat="50.19228" lon="4.04384">
        <ele>182.5</ele>
        <time>2020-06-24T15:19:29Z</time>
      </trkpt>
      <trkpt lat="50.19226" lon="4.04388">
        <ele>182.6</ele>
        <time>2020-06-24T15:19:30Z</time>
      </trkpt>
      <trkpt lat="50.19224" lon="4.04393">
        <ele>182.7</ele>
        <time>2020-06-24T15:19:31Z</time>
      </trkpt>
      <trkpt lat="50.19222" lon="4.04397">
        <ele>182.9</ele>
        <time>2020-06-24T15:19:32Z</time>
      </trkpt>
      <trkpt lat="50.19219" lon="4.04401">
        <ele>183.1</ele>
        <time>2020-06-24T15:19:33Z</time>
      </trkpt>
      <trkpt lat="50.19217" lon="4.04405">
        <ele>183.2</ele>
        <time>2020-06-24T15:19:34Z</time>
      </trkpt>
      <trkpt lat="50.19215" lon="4.04409">
        <ele>183.3</ele>
        <time>2020-06-24T15:19:35Z</time>
      </trkpt>
      <trkpt lat="50.19212" lon="4.04413">
        <ele>183.5</ele>
        <time>2020-06-24T15:19:36Z</time>
      </trkpt>
      <trkpt lat="50.1921" lon="4.04417">
        <ele>183.6</ele>
        <time>2020-06-24T15:19:37Z</time>
      </trkpt>
      <trkpt lat="50.19208" lon="4.04421">
        <ele>183.7</ele>
        <time>2020-06-24T15:19:38Z</time>
      </trkpt>
      <trkpt lat="50.19206" lon="4.04425">
        <ele>183.8</ele>
        <time>2020-06-24T15:19:39Z</time>
      </trkpt>
      <trkpt lat="50.19204" lon="4.04429">
        <ele>184</ele>
        <time>2020-06-24T15:19:40Z</time>
      </trkpt>
      <trkpt lat="50.19201" lon="4.04434">
        <ele>184.1</ele>
        <time>2020-06-24T15:19:41Z</time>
      </trkpt>
      <trkpt lat="50.19199" lon="4.04439">
        <ele>184.2</ele>
        <time>2020-06-24T15:19:42Z</time>
      </trkpt>
      <trkpt lat="50.19197" lon="4.04442">
        <ele>184.3</ele>
        <time>2020-06-24T15:19:43Z</time>
      </trkpt>
      <trkpt lat="50.19195" lon="4.04447">
        <ele>184.4</ele>
        <time>2020-06-24T15:19:44Z</time>
      </trkpt>
      <trkpt lat="50.19193" lon="4.04451">
        <ele>184.5</ele>
        <time>2020-06-24T15:19:45Z</time>
      </trkpt>
      <trkpt lat="50.19191" lon="4.04455">
        <ele>184.6</ele>
        <time>2020-06-24T15:19:46Z</time>
      </trkpt>
      <trkpt lat="50.1919" lon="4.04458">
        <ele>184.7</ele>
        <time>2020-06-24T15:19:47Z</time>
      </trkpt>
      <trkpt lat="50.19187" lon="4.04462">
        <ele>184.8</ele>
        <time>2020-06-24T15:19:48Z</time>
      </trkpt>
      <trkpt lat="50.19185" lon="4.04466">
        <ele>184.9</ele>
        <time>2020-06-24T15:19:49Z</time>
      </trkpt>
      <trkpt lat="50.19183" lon="4.0447">
        <ele>185</ele>
        <time>2020-06-24T15:19:50Z</time>
      </trkpt>
      <trkpt lat="50.1918" lon="4.04473">
        <ele>185.1</ele>
        <time>2020-06-24T15:19:51Z</time>
      </trkpt>
      <trkpt lat="50.19178" lon="4.04477">
        <ele>185.2</ele>
        <time>2020-06-24T15:19:52Z</time>
      </trkpt>
      <trkpt lat="50.19177" lon="4.04481">
        <ele>185.3</ele>
        <time>2020-06-24T15:19:53Z</time>
      </trkpt>
      <trkpt lat="50.19175" lon="4.04485">
        <ele>185.4</ele>
        <time>2020-06-24T15:19:54Z</time>
      </trkpt>
      <trkpt lat="50.19173" lon="4.0449">
        <ele>185.5</ele>
        <time>2020-06-24T15:19:55Z</time>
      </trkpt>
      <trkpt lat="50.1917" lon="4.04493">
        <ele>185.5</ele>
        <time>2020-06-24T15:19:56Z</time>
      </trkpt>
      <trkpt lat="50.19168" lon="4.04498">
        <ele>185.6</ele>
        <time>2020-06-24T15:19:57Z</time>
      </trkpt>
      <trkpt lat="50.19166" lon="4.04502">
        <ele>185.7</ele>
        <time>2020-06-24T15:19:58Z</time>
      </trkpt>
      <trkpt lat="50.19163" lon="4.04507">
        <ele>185.8</ele>
        <time>2020-06-24T15:19:59Z</time>
      </trkpt>
      <trkpt lat="50.19162" lon="4.04508">
        <ele>185.8</ele>
        <time>2020-06-24T15:20:00Z</time>
      </trkpt>
      <trkpt lat="50.1916" lon="4.04513">
        <ele>185.9</ele>
        <time>2020-06-24T15:20:01Z</time>
      </trkpt>
      <trkpt lat="50.19157" lon="4.04518">
        <ele>186</ele>
        <time>2020-06-24T15:20:02Z</time>
      </trkpt>
      <trkpt lat="50.19155" lon="4.04522">
        <ele>186.1</ele>
        <time>2020-06-24T15:20:03Z</time>
      </trkpt>
      <trkpt lat="50.19153" lon="4.04526">
        <ele>186.2</ele>
        <time>2020-06-24T15:20:04Z</time>
      </trkpt>
      <trkpt lat="50.19151" lon="4.0453">
        <ele>186.3</ele>
        <time>2020-06-24T15:20:05Z</time>
      </trkpt>
      <trkpt lat="50.19149" lon="4.04534">
        <ele>186.4</ele>
        <time>2020-06-24T15:20:06Z</time>
      </trkpt>
      <trkpt lat="50.19147" lon="4.04539">
        <ele>186.4</ele>
        <time>2020-06-24T15:20:07Z</time>
      </trkpt>
      <trkpt lat="50.19145" lon="4.04544">
        <ele>186.5</ele>
        <time>2020-06-24T15:20:08Z</time>
      </trkpt>
      <trkpt lat="50.19142" lon="4.04549">
        <ele>186.6</ele>
        <time>2020-06-24T15:20:09Z</time>
      </trkpt>
      <trkpt lat="50.19141" lon="4.0455">
        <ele>186.6</ele>
        <time>2020-06-24T15:20:10Z</time>
      </trkpt>
      <trkpt lat="50.19138" lon="4.04555">
        <ele>186.7</ele>
        <time>2020-06-24T15:20:11Z</time>
      </trkpt>
      <trkpt lat="50.19136" lon="4.04559">
        <ele>186.8</ele>
        <time>2020-06-24T15:20:12Z</time>
      </trkpt>
      <trkpt lat="50.19134" lon="4.04564">
        <ele>186.9</ele>
        <time>2020-06-24T15:20:13Z</time>
      </trkpt>
      <trkpt lat="50.19131" lon="4.04568">
        <ele>187</ele>
        <time>2020-06-24T15:20:14Z</time>
      </trkpt>
      <trkpt lat="50.19128" lon="4.04572">
        <ele>187.1</ele>
        <time>2020-06-24T15:20:15Z</time>
      </trkpt>
      <trkpt lat="50.19126" lon="4.04576">
        <ele>187.2</ele>
        <time>2020-06-24T15:20:16Z</time>
      </trkpt>
      <trkpt lat="50.19124" lon="4.04581">
        <ele>187.3</ele>
        <time>2020-06-24T15:20:17Z</time>
      </trkpt>
      <trkpt lat="50.19122" lon="4.04586">
        <ele>187.5</ele>
        <time>2020-06-24T15:20:18Z</time>
      </trkpt>
      <trkpt lat="50.1912" lon="4.04591">
        <ele>187.6</ele>
        <time>2020-06-24T15:20:19Z</time>
      </trkpt>
      <trkpt lat="50.19118" lon="4.04595">
        <ele>187.7</ele>
        <time>2020-06-24T15:20:20Z</time>
      </trkpt>
      <trkpt lat="50.19115" lon="4.04599">
        <ele>187.8</ele>
        <time>2020-06-24T15:20:21Z</time>
      </trkpt>
      <trkpt lat="50.19113" lon="4.04604">
        <ele>187.9</ele>
        <time>2020-06-24T15:20:22Z</time>
      </trkpt>
      <trkpt lat="50.1911" lon="4.04608">
        <ele>188.1</ele>
        <time>2020-06-24T15:20:23Z</time>
      </trkpt>
      <trkpt lat="50.19108" lon="4.04612">
        <ele>188.2</ele>
        <time>2020-06-24T15:20:24Z</time>
      </trkpt>
      <trkpt lat="50.19106" lon="4.04617">
        <ele>188.3</ele>
        <time>2020-06-24T15:20:25Z</time>
      </trkpt>
      <trkpt lat="50.19103" lon="4.04622">
        <ele>188.5</ele>
        <time>2020-06-24T15:20:26Z</time>
      </trkpt>
      <trkpt lat="50.19101" lon="4.04627">
        <ele>188.6</ele>
        <time>2020-06-24T15:20:27Z</time>
      </trkpt>
      <trkpt lat="50.19098" lon="4.04631">
        <ele>188.7</ele>
        <time>2020-06-24T15:20:28Z</time>
      </trkpt>
      <trkpt lat="50.19097" lon="4.04635">
        <ele>188.8</ele>
        <time>2020-06-24T15:20:29Z</time>
      </trkpt>
      <trkpt lat="50.19094" lon="4.04639">
        <ele>189</ele>
        <time>2020-06-24T15:20:30Z</time>
      </trkpt>
      <trkpt lat="50.19092" lon="4.04644">
        <ele>189.1</ele>
        <time>2020-06-24T15:20:31Z</time>
      </trkpt>
      <trkpt lat="50.19089" lon="4.04648">
        <ele>189.3</ele>
        <time>2020-06-24T15:20:32Z</time>
      </trkpt>
      <trkpt lat="50.19087" lon="4.04651">
        <ele>189.4</ele>
        <time>2020-06-24T15:20:33Z</time>
      </trkpt>
      <trkpt lat="50.19085" lon="4.04655">
        <ele>189.6</ele>
        <time>2020-06-24T15:20:34Z</time>
      </trkpt>
      <trkpt lat="50.19083" lon="4.04659">
        <ele>189.7</ele>
        <time>2020-06-24T15:20:35Z</time>
      </trkpt>
      <trkpt lat="50.19081" lon="4.04664">
        <ele>189.9</ele>
        <time>2020-06-24T15:20:36Z</time>
      </trkpt>
      <trkpt lat="50.19079" lon="4.04668">
        <ele>190.1</ele>
        <time>2020-06-24T15:20:37Z</time>
      </trkpt>
      <trkpt lat="50.19077" lon="4.04672">
        <ele>190.2</ele>
        <time>2020-06-24T15:20:38Z</time>
      </trkpt>
      <trkpt lat="50.19075" lon="4.04676">
        <ele>190.3</ele>
        <time>2020-06-24T15:20:39Z</time>
      </trkpt>
      <trkpt lat="50.19075" lon="4.04677">
        <ele>190.4</ele>
        <time>2020-06-24T15:20:40Z</time>
      </trkpt>
      <trkpt lat="50.19072" lon="4.04681">
        <ele>190.5</ele>
        <time>2020-06-24T15:20:41Z</time>
      </trkpt>
      <trkpt lat="50.1907" lon="4.04685">
        <ele>190.7</ele>
        <time>2020-06-24T15:20:42Z</time>
      </trkpt>
      <trkpt lat="50.19067" lon="4.0469">
        <ele>190.9</ele>
        <time>2020-06-24T15:20:43Z</time>
      </trkpt>
      <trkpt lat="50.19066" lon="4.04692">
        <ele>190.9</ele>
        <time>2020-06-24T15:20:44Z</time>
      </trkpt>
      <trkpt lat="50.19065" lon="4.04695">
        <ele>191.1</ele>
        <time>2020-06-24T15:20:45Z</time>
      </trkpt>
      <trkpt lat="50.19061" lon="4.047">
        <ele>191.3</ele>
        <time>2020-06-24T15:20:46Z</time>
      </trkpt>
      <trkpt lat="50.1906" lon="4.04702">
        <ele>191.3</ele>
        <time>2020-06-24T15:20:47Z</time>
      </trkpt>
      <trkpt lat="50.19058" lon="4.04707">
        <ele>191.5</ele>
        <time>2020-06-24T15:20:48Z</time>
      </trkpt>
      <trkpt lat="50.19057" lon="4.04709">
        <ele>191.6</ele>
        <time>2020-06-24T15:20:49Z</time>
      </trkpt>
      <trkpt lat="50.19055" lon="4.04712">
        <ele>191.8</ele>
        <time>2020-06-24T15:20:50Z</time>
      </trkpt>
      <trkpt lat="50.19052" lon="4.04715">
        <ele>191.9</ele>
        <time>2020-06-24T15:20:51Z</time>
      </trkpt>
      <trkpt lat="50.1905" lon="4.04718">
        <ele>192.1</ele>
        <time>2020-06-24T15:20:52Z</time>
      </trkpt>
      <trkpt lat="50.19048" lon="4.04722">
        <ele>192.3</ele>
        <time>2020-06-24T15:20:53Z</time>
      </trkpt>
      <trkpt lat="50.19046" lon="4.04726">
        <ele>192.5</ele>
        <time>2020-06-24T15:20:54Z</time>
      </trkpt>
      <trkpt lat="50.19044" lon="4.0473">
        <ele>192.7</ele>
        <time>2020-06-24T15:20:55Z</time>
      </trkpt>
      <trkpt lat="50.19042" lon="4.04735">
        <ele>192.9</ele>
        <time>2020-06-24T15:20:56Z</time>
      </trkpt>
      <trkpt lat="50.1904" lon="4.04739">
        <ele>193.1</ele>
        <time>2020-06-24T15:20:57Z</time>
      </trkpt>
      <trkpt lat="50.19037" lon="4.04743">
        <ele>193.3</ele>
        <time>2020-06-24T15:20:58Z</time>
      </trkpt>
      <trkpt lat="50.19036" lon="4.04746">
        <ele>193.5</ele>
        <time>2020-06-24T15:20:59Z</time>
      </trkpt>
      <trkpt lat="50.19033" lon="4.0475">
        <ele>193.7</ele>
        <time>2020-06-24T15:21:00Z</time>
      </trkpt>
      <trkpt lat="50.19031" lon="4.04753">
        <ele>193.8</ele>
        <time>2020-06-24T15:21:01Z</time>
      </trkpt>
      <trkpt lat="50.19029" lon="4.04756">
        <ele>194</ele>
        <time>2020-06-24T15:21:02Z</time>
      </trkpt>
      <trkpt lat="50.19027" lon="4.04759">
        <ele>194.1</ele>
        <time>2020-06-24T15:21:03Z</time>
      </trkpt>
      <trkpt lat="50.19025" lon="4.04763">
        <ele>194.3</ele>
        <time>2020-06-24T15:21:04Z</time>
      </trkpt>
      <trkpt lat="50.19023" lon="4.04767">
        <ele>194.4</ele>
        <time>2020-06-24T15:21:05Z</time>
      </trkpt>
      <trkpt lat="50.19021" lon="4.04771">
        <ele>194.6</ele>
        <time>2020-06-24T15:21:06Z</time>
      </trkpt>
      <trkpt lat="50.19019" lon="4.04774">
        <ele>194.7</ele>
        <time>2020-06-24T15:21:07Z</time>
      </trkpt>
      <trkpt lat="50.19017" lon="4.04778">
        <ele>194.8</ele>
        <time>2020-06-24T15:21:08Z</time>
      </trkpt>
      <trkpt lat="50.19015" lon="4.04783">
        <ele>195</ele>
        <time>2020-06-24T15:21:09Z</time>
      </trkpt>
      <trkpt lat="50.19013" lon="4.04787">
        <ele>195.1</ele>
        <time>2020-06-24T15:21:10Z</time>
      </trkpt>
      <trkpt lat="50.19011" lon="4.0479">
        <ele>195.3</ele>
        <time>2020-06-24T15:21:11Z</time>
      </trkpt>
      <trkpt lat="50.19009" lon="4.04794">
        <ele>195.4</ele>
        <time>2020-06-24T15:21:12Z</time>
      </trkpt>
      <trkpt lat="50.19007" lon="4.04798">
        <ele>195.5</ele>
        <time>2020-06-24T15:21:13Z</time>
      </trkpt>
      <trkpt lat="50.19004" lon="4.04802">
        <ele>195.7</ele>
        <time>2020-06-24T15:21:14Z</time>
      </trkpt>
      <trkpt lat="50.19002" lon="4.04807">
        <ele>195.9</ele>
        <time>2020-06-24T15:21:15Z</time>
      </trkpt>
      <trkpt lat="50.19" lon="4.04811">
        <ele>196</ele>
        <time>2020-06-24T15:21:16Z</time>
      </trkpt>
      <trkpt lat="50.18998" lon="4.04815">
        <ele>196.2</ele>
        <time>2020-06-24T15:21:17Z</time>
      </trkpt>
      <trkpt lat="50.18996" lon="4.04818">
        <ele>196.3</ele>
        <time>2020-06-24T15:21:18Z</time>
      </trkpt>
      <trkpt lat="50.18994" lon="4.04822">
        <ele>196.5</ele>
        <time>2020-06-24T15:21:19Z</time>
      </trkpt>
      <trkpt lat="50.18992" lon="4.04826">
        <ele>196.7</ele>
        <time>2020-06-24T15:21:20Z</time>
      </trkpt>
      <trkpt lat="50.18991" lon="4.0483">
        <ele>196.8</ele>
        <time>2020-06-24T15:21:21Z</time>
      </trkpt>
      <trkpt lat="50.18989" lon="4.04834">
        <ele>197</ele>
        <time>2020-06-24T15:21:22Z</time>
      </trkpt>
      <trkpt lat="50.18987" lon="4.04837">
        <ele>197.2</ele>
        <time>2020-06-24T15:21:23Z</time>
      </trkpt>
      <trkpt lat="50.18985" lon="4.04841">
        <ele>197.3</ele>
        <time>2020-06-24T15:21:24Z</time>
      </trkpt>
      <trkpt lat="50.18982" lon="4.04845">
        <ele>197.5</ele>
        <time>2020-06-24T15:21:25Z</time>
      </trkpt>
      <trkpt lat="50.18981" lon="4.04847">
        <ele>197.6</ele>
        <time>2020-06-24T15:21:26Z</time>
      </trkpt>
      <trkpt lat="50.18979" lon="4.0485">
        <ele>197.8</ele>
        <time>2020-06-24T15:21:27Z</time>
      </trkpt>
      <trkpt lat="50.18977" lon="4.04854">
        <ele>197.9</ele>
        <time>2020-06-24T15:21:28Z</time>
      </trkpt>
      <trkpt lat="50.18975" lon="4.04858">
        <ele>198.1</ele>
        <time>2020-06-24T15:21:29Z</time>
      </trkpt>
      <trkpt lat="50.18973" lon="4.04862">
        <ele>198.3</ele>
        <time>2020-06-24T15:21:30Z</time>
      </trkpt>
      <trkpt lat="50.1897" lon="4.04866">
        <ele>198.4</ele>
        <time>2020-06-24T15:21:31Z</time>
      </trkpt>
      <trkpt lat="50.18969" lon="4.0487">
        <ele>198.6</ele>
        <time>2020-06-24T15:21:32Z</time>
      </trkpt>
      <trkpt lat="50.18967" lon="4.04874">
        <ele>198.7</ele>
        <time>2020-06-24T15:21:33Z</time>
      </trkpt>
      <trkpt lat="50.18964" lon="4.04878">
        <ele>198.9</ele>
        <time>2020-06-24T15:21:34Z</time>
      </trkpt>
      <trkpt lat="50.18962" lon="4.04882">
        <ele>199.1</ele>
        <time>2020-06-24T15:21:35Z</time>
      </trkpt>
      <trkpt lat="50.1896" lon="4.04886">
        <ele>199.2</ele>
        <time>2020-06-24T15:21:36Z</time>
      </trkpt>
      <trkpt lat="50.18958" lon="4.04889">
        <ele>199.4</ele>
        <time>2020-06-24T15:21:37Z</time>
      </trkpt>
      <trkpt lat="50.18956" lon="4.04892">
        <ele>199.5</ele>
        <time>2020-06-24T15:21:38Z</time>
      </trkpt>
      <trkpt lat="50.18954" lon="4.04896">
        <ele>199.7</ele>
        <time>2020-06-24T15:21:39Z</time>
      </trkpt>
      <trkpt lat="50.18952" lon="4.049">
        <ele>199.8</ele>
        <time>2020-06-24T15:21:40Z</time>
      </trkpt>
      <trkpt lat="50.1895" lon="4.04904">
        <ele>200</ele>
        <time>2020-06-24T15:21:41Z</time>
      </trkpt>
      <trkpt lat="50.18948" lon="4.04909">
        <ele>200.2</ele>
        <time>2020-06-24T15:21:42Z</time>
      </trkpt>
      <trkpt lat="50.18946" lon="4.04913">
        <ele>200.4</ele>
        <time>2020-06-24T15:21:43Z</time>
      </trkpt>
      <trkpt lat="50.18944" lon="4.04916">
        <ele>200.6</ele>
        <time>2020-06-24T15:21:44Z</time>
      </trkpt>
      <trkpt lat="50.18942" lon="4.0492">
        <ele>200.8</ele>
        <time>2020-06-24T15:21:45Z</time>
      </trkpt>
      <trkpt lat="50.1894" lon="4.04923">
        <ele>200.9</ele>
        <time>2020-06-24T15:21:46Z</time>
      </trkpt>
      <trkpt lat="50.18938" lon="4.04927">
        <ele>201.1</ele>
        <time>2020-06-24T15:21:47Z</time>
      </trkpt>
      <trkpt lat="50.18936" lon="4.04931">
        <ele>201.3</ele>
        <time>2020-06-24T15:21:48Z</time>
      </trkpt>
      <trkpt lat="50.18934" lon="4.04935">
        <ele>201.5</ele>
        <time>2020-06-24T15:21:49Z</time>
      </trkpt>
      <trkpt lat="50.18932" lon="4.04939">
        <ele>201.7</ele>
        <time>2020-06-24T15:21:50Z</time>
      </trkpt>
      <trkpt lat="50.1893" lon="4.04943">
        <ele>201.9</ele>
        <time>2020-06-24T15:21:51Z</time>
      </trkpt>
      <trkpt lat="50.18927" lon="4.04947">
        <ele>202</ele>
        <time>2020-06-24T15:21:52Z</time>
      </trkpt>
      <trkpt lat="50.18925" lon="4.0495">
        <ele>202.2</ele>
        <time>2020-06-24T15:21:53Z</time>
      </trkpt>
      <trkpt lat="50.18923" lon="4.04956">
        <ele>202.4</ele>
        <time>2020-06-24T15:21:54Z</time>
      </trkpt>
      <trkpt lat="50.18921" lon="4.04957">
        <ele>202.5</ele>
        <time>2020-06-24T15:21:55Z</time>
      </trkpt>
      <trkpt lat="50.18919" lon="4.04961">
        <ele>202.6</ele>
        <time>2020-06-24T15:21:56Z</time>
      </trkpt>
      <trkpt lat="50.18918" lon="4.04965">
        <ele>202.8</ele>
        <time>2020-06-24T15:21:57Z</time>
      </trkpt>
      <trkpt lat="50.18915" lon="4.0497">
        <ele>203</ele>
        <time>2020-06-24T15:21:58Z</time>
      </trkpt>
      <trkpt lat="50.18914" lon="4.04971">
        <ele>203</ele>
        <time>2020-06-24T15:21:59Z</time>
      </trkpt>
      <trkpt lat="50.18912" lon="4.04975">
        <ele>203.2</ele>
        <time>2020-06-24T15:22:00Z</time>
      </trkpt>
      <trkpt lat="50.1891" lon="4.0498">
        <ele>203.4</ele>
        <time>2020-06-24T15:22:01Z</time>
      </trkpt>
      <trkpt lat="50.18908" lon="4.04984">
        <ele>203.5</ele>
        <time>2020-06-24T15:22:02Z</time>
      </trkpt>
      <trkpt lat="50.18906" lon="4.04988">
        <ele>203.6</ele>
        <time>2020-06-24T15:22:03Z</time>
      </trkpt>
      <trkpt lat="50.18904" lon="4.04991">
        <ele>203.8</ele>
        <time>2020-06-24T15:22:04Z</time>
      </trkpt>
      <trkpt lat="50.18902" lon="4.04995">
        <ele>203.9</ele>
        <time>2020-06-24T15:22:05Z</time>
      </trkpt>
      <trkpt lat="50.189" lon="4.04999">
        <ele>204</ele>
        <time>2020-06-24T15:22:06Z</time>
      </trkpt>
      <trkpt lat="50.18898" lon="4.05003">
        <ele>204.2</ele>
        <time>2020-06-24T15:22:07Z</time>
      </trkpt>
      <trkpt lat="50.18896" lon="4.05006">
        <ele>204.3</ele>
        <time>2020-06-24T15:22:08Z</time>
      </trkpt>
      <trkpt lat="50.18894" lon="4.05009">
        <ele>204.5</ele>
        <time>2020-06-24T15:22:09Z</time>
      </trkpt>
      <trkpt lat="50.18891" lon="4.05013">
        <ele>204.6</ele>
        <time>2020-06-24T15:22:10Z</time>
      </trkpt>
      <trkpt lat="50.1889" lon="4.05017">
        <ele>204.8</ele>
        <time>2020-06-24T15:22:11Z</time>
      </trkpt>
      <trkpt lat="50.18888" lon="4.05021">
        <ele>205</ele>
        <time>2020-06-24T15:22:12Z</time>
      </trkpt>
      <trkpt lat="50.18885" lon="4.05025">
        <ele>205.1</ele>
        <time>2020-06-24T15:22:13Z</time>
      </trkpt>
      <trkpt lat="50.18882" lon="4.05029">
        <ele>205.3</ele>
        <time>2020-06-24T15:22:14Z</time>
      </trkpt>
      <trkpt lat="50.1888" lon="4.05032">
        <ele>205.4</ele>
        <time>2020-06-24T15:22:15Z</time>
      </trkpt>
      <trkpt lat="50.18878" lon="4.05035">
        <ele>205.5</ele>
        <time>2020-06-24T15:22:16Z</time>
      </trkpt>
      <trkpt lat="50.18876" lon="4.05038">
        <ele>205.7</ele>
        <time>2020-06-24T15:22:17Z</time>
      </trkpt>
      <trkpt lat="50.18874" lon="4.05041">
        <ele>205.8</ele>
        <time>2020-06-24T15:22:18Z</time>
      </trkpt>
      <trkpt lat="50.18871" lon="4.05045">
        <ele>205.9</ele>
        <time>2020-06-24T15:22:19Z</time>
      </trkpt>
      <trkpt lat="50.18868" lon="4.05049">
        <ele>206.1</ele>
        <time>2020-06-24T15:22:20Z</time>
      </trkpt>
      <trkpt lat="50.18865" lon="4.05052">
        <ele>206.3</ele>
        <time>2020-06-24T15:22:21Z</time>
      </trkpt>
      <trkpt lat="50.18863" lon="4.05056">
        <ele>206.5</ele>
        <time>2020-06-24T15:22:22Z</time>
      </trkpt>
      <trkpt lat="50.1886" lon="4.05059">
        <ele>206.7</ele>
        <time>2020-06-24T15:22:23Z</time>
      </trkpt>
      <trkpt lat="50.18858" lon="4.05062">
        <ele>206.8</ele>
        <time>2020-06-24T15:22:24Z</time>
      </trkpt>
      <trkpt lat="50.18855" lon="4.05066">
        <ele>207</ele>
        <time>2020-06-24T15:22:25Z</time>
      </trkpt>
      <trkpt lat="50.18853" lon="4.05069">
        <ele>207.1</ele>
        <time>2020-06-24T15:22:26Z</time>
      </trkpt>
      <trkpt lat="50.18849" lon="4.05073">
        <ele>207.3</ele>
        <time>2020-06-24T15:22:27Z</time>
      </trkpt>
      <trkpt lat="50.18847" lon="4.05076">
        <ele>207.5</ele>
        <time>2020-06-24T15:22:28Z</time>
      </trkpt>
      <trkpt lat="50.18844" lon="4.05079">
        <ele>207.6</ele>
        <time>2020-06-24T15:22:29Z</time>
      </trkpt>
      <trkpt lat="50.18842" lon="4.05082">
        <ele>207.8</ele>
        <time>2020-06-24T15:22:30Z</time>
      </trkpt>
      <trkpt lat="50.1884" lon="4.05086">
        <ele>207.9</ele>
        <time>2020-06-24T15:22:31Z</time>
      </trkpt>
      <trkpt lat="50.18837" lon="4.05088">
        <ele>208.1</ele>
        <time>2020-06-24T15:22:32Z</time>
      </trkpt>
      <trkpt lat="50.18834" lon="4.05092">
        <ele>208.2</ele>
        <time>2020-06-24T15:22:33Z</time>
      </trkpt>
      <trkpt lat="50.18831" lon="4.05095">
        <ele>208.4</ele>
        <time>2020-06-24T15:22:34Z</time>
      </trkpt>
      <trkpt lat="50.18828" lon="4.05097">
        <ele>208.5</ele>
        <time>2020-06-24T15:22:35Z</time>
      </trkpt>
      <trkpt lat="50.18826" lon="4.051">
        <ele>208.7</ele>
        <time>2020-06-24T15:22:36Z</time>
      </trkpt>
      <trkpt lat="50.18823" lon="4.05103">
        <ele>208.8</ele>
        <time>2020-06-24T15:22:37Z</time>
      </trkpt>
      <trkpt lat="50.1882" lon="4.05106">
        <ele>208.9</ele>
        <time>2020-06-24T15:22:38Z</time>
      </trkpt>
      <trkpt lat="50.18817" lon="4.05109">
        <ele>209.1</ele>
        <time>2020-06-24T15:22:39Z</time>
      </trkpt>
      <trkpt lat="50.18815" lon="4.05112">
        <ele>209.2</ele>
        <time>2020-06-24T15:22:40Z</time>
      </trkpt>
      <trkpt lat="50.18812" lon="4.05116">
        <ele>209.3</ele>
        <time>2020-06-24T15:22:41Z</time>
      </trkpt>
      <trkpt lat="50.18809" lon="4.05119">
        <ele>209.5</ele>
        <time>2020-06-24T15:22:42Z</time>
      </trkpt>
      <trkpt lat="50.18806" lon="4.05122">
        <ele>209.6</ele>
        <time>2020-06-24T15:22:43Z</time>
      </trkpt>
      <trkpt lat="50.18803" lon="4.05125">
        <ele>209.7</ele>
        <time>2020-06-24T15:22:44Z</time>
      </trkpt>
      <trkpt lat="50.18801" lon="4.05129">
        <ele>209.8</ele>
        <time>2020-06-24T15:22:45Z</time>
      </trkpt>
      <trkpt lat="50.18798" lon="4.05132">
        <ele>210</ele>
        <time>2020-06-24T15:22:46Z</time>
      </trkpt>
      <trkpt lat="50.18795" lon="4.05135">
        <ele>210</ele>
        <time>2020-06-24T15:22:47Z</time>
      </trkpt>
      <trkpt lat="50.18792" lon="4.05138">
        <ele>210.1</ele>
        <time>2020-06-24T15:22:48Z</time>
      </trkpt>
      <trkpt lat="50.18789" lon="4.05142">
        <ele>210.2</ele>
        <time>2020-06-24T15:22:49Z</time>
      </trkpt>
      <trkpt lat="50.18787" lon="4.05145">
        <ele>210.3</ele>
        <time>2020-06-24T15:22:50Z</time>
      </trkpt>
      <trkpt lat="50.18784" lon="4.05149">
        <ele>210.4</ele>
        <time>2020-06-24T15:22:51Z</time>
      </trkpt>
      <trkpt lat="50.18781" lon="4.05153">
        <ele>210.5</ele>
        <time>2020-06-24T15:22:52Z</time>
      </trkpt>
      <trkpt lat="50.18779" lon="4.05156">
        <ele>210.5</ele>
        <time>2020-06-24T15:22:53Z</time>
      </trkpt>
      <trkpt lat="50.18776" lon="4.0516">
        <ele>210.5</ele>
        <time>2020-06-24T15:22:54Z</time>
      </trkpt>
      <trkpt lat="50.18772" lon="4.05165">
        <ele>210.5</ele>
        <time>2020-06-24T15:22:55Z</time>
      </trkpt>
      <trkpt lat="50.18769" lon="4.05169">
        <ele>210.5</ele>
        <time>2020-06-24T15:22:56Z</time>
      </trkpt>
      <trkpt lat="50.18766" lon="4.05173">
        <ele>210.4</ele>
        <time>2020-06-24T15:22:57Z</time>
      </trkpt>
      <trkpt lat="50.18763" lon="4.05177">
        <ele>210.4</ele>
        <time>2020-06-24T15:22:58Z</time>
      </trkpt>
      <trkpt lat="50.1876" lon="4.05182">
        <ele>210.3</ele>
        <time>2020-06-24T15:22:59Z</time>
      </trkpt>
      <trkpt lat="50.18757" lon="4.05187">
        <ele>210.2</ele>
        <time>2020-06-24T15:23:00Z</time>
      </trkpt>
      <trkpt lat="50.18753" lon="4.05193">
        <ele>210.1</ele>
        <time>2020-06-24T15:23:01Z</time>
      </trkpt>
      <trkpt lat="50.1875" lon="4.05199">
        <ele>210</ele>
        <time>2020-06-24T15:23:02Z</time>
      </trkpt>
      <trkpt lat="50.18746" lon="4.05205">
        <ele>209.9</ele>
        <time>2020-06-24T15:23:03Z</time>
      </trkpt>
      <trkpt lat="50.18742" lon="4.05211">
        <ele>209.9</ele>
        <time>2020-06-24T15:23:04Z</time>
      </trkpt>
      <trkpt lat="50.18739" lon="4.05217">
        <ele>209.8</ele>
        <time>2020-06-24T15:23:05Z</time>
      </trkpt>
      <trkpt lat="50.18735" lon="4.05223">
        <ele>209.6</ele>
        <time>2020-06-24T15:23:06Z</time>
      </trkpt>
      <trkpt lat="50.18731" lon="4.0523">
        <ele>209.5</ele>
        <time>2020-06-24T15:23:07Z</time>
      </trkpt>
      <trkpt lat="50.18727" lon="4.05236">
        <ele>209.4</ele>
        <time>2020-06-24T15:23:08Z</time>
      </trkpt>
      <trkpt lat="50.18723" lon="4.05244">
        <ele>209.2</ele>
        <time>2020-06-24T15:23:09Z</time>
      </trkpt>
      <trkpt lat="50.18719" lon="4.05252">
        <ele>209</ele>
        <time>2020-06-24T15:23:10Z</time>
      </trkpt>
      <trkpt lat="50.18716" lon="4.05258">
        <ele>208.9</ele>
        <time>2020-06-24T15:23:11Z</time>
      </trkpt>
      <trkpt lat="50.18711" lon="4.05264">
        <ele>208.7</ele>
        <time>2020-06-24T15:23:12Z</time>
      </trkpt>
      <trkpt lat="50.18706" lon="4.05271">
        <ele>208.6</ele>
        <time>2020-06-24T15:23:13Z</time>
      </trkpt>
      <trkpt lat="50.18702" lon="4.05278">
        <ele>208.4</ele>
        <time>2020-06-24T15:23:14Z</time>
      </trkpt>
      <trkpt lat="50.18698" lon="4.05286">
        <ele>208.3</ele>
        <time>2020-06-24T15:23:15Z</time>
      </trkpt>
      <trkpt lat="50.18694" lon="4.05293">
        <ele>208.2</ele>
        <time>2020-06-24T15:23:16Z</time>
      </trkpt>
      <trkpt lat="50.1869" lon="4.05301">
        <ele>208</ele>
        <time>2020-06-24T15:23:17Z</time>
      </trkpt>
      <trkpt lat="50.18685" lon="4.05308">
        <ele>207.9</ele>
        <time>2020-06-24T15:23:18Z</time>
      </trkpt>
      <trkpt lat="50.18681" lon="4.05314">
        <ele>207.8</ele>
        <time>2020-06-24T15:23:19Z</time>
      </trkpt>
      <trkpt lat="50.18677" lon="4.05322">
        <ele>207.7</ele>
        <time>2020-06-24T15:23:20Z</time>
      </trkpt>
      <trkpt lat="50.18673" lon="4.0533">
        <ele>207.6</ele>
        <time>2020-06-24T15:23:21Z</time>
      </trkpt>
      <trkpt lat="50.18667" lon="4.05339">
        <ele>207.5</ele>
        <time>2020-06-24T15:23:22Z</time>
      </trkpt>
      <trkpt lat="50.18663" lon="4.05346">
        <ele>207.4</ele>
        <time>2020-06-24T15:23:23Z</time>
      </trkpt>
      <trkpt lat="50.18659" lon="4.05353">
        <ele>207.4</ele>
        <time>2020-06-24T15:23:24Z</time>
      </trkpt>
      <trkpt lat="50.18655" lon="4.0536">
        <ele>207.3</ele>
        <time>2020-06-24T15:23:25Z</time>
      </trkpt>
      <trkpt lat="50.18652" lon="4.05367">
        <ele>207.3</ele>
        <time>2020-06-24T15:23:26Z</time>
      </trkpt>
      <trkpt lat="50.18648" lon="4.05373">
        <ele>207.3</ele>
        <time>2020-06-24T15:23:27Z</time>
      </trkpt>
      <trkpt lat="50.18644" lon="4.05379">
        <ele>207.3</ele>
        <time>2020-06-24T15:23:28Z</time>
      </trkpt>
      <trkpt lat="50.1864" lon="4.05386">
        <ele>207.3</ele>
        <time>2020-06-24T15:23:29Z</time>
      </trkpt>
      <trkpt lat="50.18636" lon="4.05393">
        <ele>207.3</ele>
        <time>2020-06-24T15:23:30Z</time>
      </trkpt>
      <trkpt lat="50.18631" lon="4.05399">
        <ele>207.4</ele>
        <time>2020-06-24T15:23:31Z</time>
      </trkpt>
      <trkpt lat="50.18628" lon="4.05405">
        <ele>207.4</ele>
        <time>2020-06-24T15:23:32Z</time>
      </trkpt>
      <trkpt lat="50.18624" lon="4.05411">
        <ele>207.5</ele>
        <time>2020-06-24T15:23:33Z</time>
      </trkpt>
      <trkpt lat="50.1862" lon="4.05417">
        <ele>207.5</ele>
        <time>2020-06-24T15:23:34Z</time>
      </trkpt>
      <trkpt lat="50.18615" lon="4.05424">
        <ele>207.5</ele>
        <time>2020-06-24T15:23:35Z</time>
      </trkpt>
      <trkpt lat="50.18611" lon="4.05431">
        <ele>207.5</ele>
        <time>2020-06-24T15:23:36Z</time>
      </trkpt>
      <trkpt lat="50.18607" lon="4.05435">
        <ele>207.5</ele>
        <time>2020-06-24T15:23:37Z</time>
      </trkpt>
      <trkpt lat="50.18603" lon="4.05442">
        <ele>207.6</ele>
        <time>2020-06-24T15:23:38Z</time>
      </trkpt>
      <trkpt lat="50.18599" lon="4.05448">
        <ele>207.6</ele>
        <time>2020-06-24T15:23:39Z</time>
      </trkpt>
      <trkpt lat="50.18595" lon="4.05454">
        <ele>207.7</ele>
        <time>2020-06-24T15:23:40Z</time>
      </trkpt>
      <trkpt lat="50.18592" lon="4.0546">
        <ele>207.7</ele>
        <time>2020-06-24T15:23:41Z</time>
      </trkpt>
      <trkpt lat="50.18588" lon="4.05466">
        <ele>207.8</ele>
        <time>2020-06-24T15:23:42Z</time>
      </trkpt>
      <trkpt lat="50.18584" lon="4.05472">
        <ele>207.8</ele>
        <time>2020-06-24T15:23:43Z</time>
      </trkpt>
      <trkpt lat="50.18579" lon="4.05478">
        <ele>207.9</ele>
        <time>2020-06-24T15:23:44Z</time>
      </trkpt>
      <trkpt lat="50.18575" lon="4.05483">
        <ele>207.9</ele>
        <time>2020-06-24T15:23:45Z</time>
      </trkpt>
      <trkpt lat="50.18571" lon="4.0549">
        <ele>207.9</ele>
        <time>2020-06-24T15:23:46Z</time>
      </trkpt>
      <trkpt lat="50.18566" lon="4.05496">
        <ele>208</ele>
        <time>2020-06-24T15:23:47Z</time>
      </trkpt>
      <trkpt lat="50.18562" lon="4.05502">
        <ele>208</ele>
        <time>2020-06-24T15:23:48Z</time>
      </trkpt>
      <trkpt lat="50.18558" lon="4.05509">
        <ele>208.1</ele>
        <time>2020-06-24T15:23:49Z</time>
      </trkpt>
      <trkpt lat="50.18553" lon="4.05515">
        <ele>208.2</ele>
        <time>2020-06-24T15:23:50Z</time>
      </trkpt>
      <trkpt lat="50.18548" lon="4.0552">
        <ele>208.2</ele>
        <time>2020-06-24T15:23:51Z</time>
      </trkpt>
      <trkpt lat="50.18545" lon="4.05526">
        <ele>208.3</ele>
        <time>2020-06-24T15:23:52Z</time>
      </trkpt>
      <trkpt lat="50.18541" lon="4.05531">
        <ele>208.4</ele>
        <time>2020-06-24T15:23:53Z</time>
      </trkpt>
      <trkpt lat="50.18537" lon="4.05537">
        <ele>208.5</ele>
        <time>2020-06-24T15:23:54Z</time>
      </trkpt>
      <trkpt lat="50.18532" lon="4.05543">
        <ele>208.6</ele>
        <time>2020-06-24T15:23:55Z</time>
      </trkpt>
      <trkpt lat="50.18528" lon="4.05549">
        <ele>208.6</ele>
        <time>2020-06-24T15:23:56Z</time>
      </trkpt>
      <trkpt lat="50.18524" lon="4.05556">
        <ele>208.7</ele>
        <time>2020-06-24T15:23:57Z</time>
      </trkpt>
      <trkpt lat="50.18522" lon="4.05561">
        <ele>208.7</ele>
        <time>2020-06-24T15:23:58Z</time>
      </trkpt>
      <trkpt lat="50.18517" lon="4.05565">
        <ele>208.8</ele>
        <time>2020-06-24T15:23:59Z</time>
      </trkpt>
      <trkpt lat="50.18514" lon="4.0557">
        <ele>208.8</ele>
        <time>2020-06-24T15:24:00Z</time>
      </trkpt>
      <trkpt lat="50.18509" lon="4.05576">
        <ele>208.9</ele>
        <time>2020-06-24T15:24:01Z</time>
      </trkpt>
      <trkpt lat="50.18506" lon="4.05583">
        <ele>208.9</ele>
        <time>2020-06-24T15:24:02Z</time>
      </trkpt>
      <trkpt lat="50.18501" lon="4.05589">
        <ele>209</ele>
        <time>2020-06-24T15:24:03Z</time>
      </trkpt>
      <trkpt lat="50.18498" lon="4.05594">
        <ele>209</ele>
        <time>2020-06-24T15:24:04Z</time>
      </trkpt>
      <trkpt lat="50.18494" lon="4.05599">
        <ele>209</ele>
        <time>2020-06-24T15:24:05Z</time>
      </trkpt>
      <trkpt lat="50.18491" lon="4.05605">
        <ele>209</ele>
        <time>2020-06-24T15:24:06Z</time>
      </trkpt>
      <trkpt lat="50.18487" lon="4.0561">
        <ele>209.1</ele>
        <time>2020-06-24T15:24:07Z</time>
      </trkpt>
      <trkpt lat="50.18483" lon="4.05616">
        <ele>209.1</ele>
        <time>2020-06-24T15:24:08Z</time>
      </trkpt>
      <trkpt lat="50.18479" lon="4.05621">
        <ele>209.2</ele>
        <time>2020-06-24T15:24:09Z</time>
      </trkpt>
      <trkpt lat="50.18476" lon="4.05626">
        <ele>209.2</ele>
        <time>2020-06-24T15:24:10Z</time>
      </trkpt>
      <trkpt lat="50.18473" lon="4.0563">
        <ele>209.2</ele>
        <time>2020-06-24T15:24:11Z</time>
      </trkpt>
      <trkpt lat="50.1847" lon="4.05636">
        <ele>209.2</ele>
        <time>2020-06-24T15:24:12Z</time>
      </trkpt>
      <trkpt lat="50.18466" lon="4.05643">
        <ele>209.1</ele>
        <time>2020-06-24T15:24:13Z</time>
      </trkpt>
      <trkpt lat="50.18461" lon="4.05651">
        <ele>209.1</ele>
        <time>2020-06-24T15:24:14Z</time>
      </trkpt>
      <trkpt lat="50.18458" lon="4.05657">
        <ele>209.1</ele>
        <time>2020-06-24T15:24:15Z</time>
      </trkpt>
      <trkpt lat="50.18453" lon="4.05663">
        <ele>209.1</ele>
        <time>2020-06-24T15:24:16Z</time>
      </trkpt>
      <trkpt lat="50.18449" lon="4.05669">
        <ele>209</ele>
        <time>2020-06-24T15:24:17Z</time>
      </trkpt>
      <trkpt lat="50.18445" lon="4.05676">
        <ele>209</ele>
        <time>2020-06-24T15:24:18Z</time>
      </trkpt>
      <trkpt lat="50.18441" lon="4.05683">
        <ele>209</ele>
        <time>2020-06-24T15:24:19Z</time>
      </trkpt>
      <trkpt lat="50.18437" lon="4.05688">
        <ele>208.9</ele>
        <time>2020-06-24T15:24:20Z</time>
      </trkpt>
      <trkpt lat="50.18432" lon="4.05695">
        <ele>208.9</ele>
        <time>2020-06-24T15:24:21Z</time>
      </trkpt>
      <trkpt lat="50.18428" lon="4.05701">
        <ele>208.8</ele>
        <time>2020-06-24T15:24:22Z</time>
      </trkpt>
      <trkpt lat="50.18425" lon="4.05705">
        <ele>208.7</ele>
        <time>2020-06-24T15:24:23Z</time>
      </trkpt>
      <trkpt lat="50.18421" lon="4.05709">
        <ele>208.7</ele>
        <time>2020-06-24T15:24:24Z</time>
      </trkpt>
      <trkpt lat="50.18417" lon="4.05715">
        <ele>208.6</ele>
        <time>2020-06-24T15:24:25Z</time>
      </trkpt>
      <trkpt lat="50.18413" lon="4.05721">
        <ele>208.5</ele>
        <time>2020-06-24T15:24:26Z</time>
      </trkpt>
      <trkpt lat="50.18409" lon="4.05725">
        <ele>208.4</ele>
        <time>2020-06-24T15:24:27Z</time>
      </trkpt>
      <trkpt lat="50.18404" lon="4.0573">
        <ele>208.3</ele>
        <time>2020-06-24T15:24:28Z</time>
      </trkpt>
      <trkpt lat="50.18398" lon="4.05738">
        <ele>208.2</ele>
        <time>2020-06-24T15:24:29Z</time>
      </trkpt>
      <trkpt lat="50.18393" lon="4.05745">
        <ele>208.1</ele>
        <time>2020-06-24T15:24:30Z</time>
      </trkpt>
      <trkpt lat="50.18389" lon="4.05751">
        <ele>208</ele>
        <time>2020-06-24T15:24:31Z</time>
      </trkpt>
      <trkpt lat="50.18385" lon="4.05759">
        <ele>207.9</ele>
        <time>2020-06-24T15:24:32Z</time>
      </trkpt>
      <trkpt lat="50.1838" lon="4.05765">
        <ele>207.8</ele>
        <time>2020-06-24T15:24:33Z</time>
      </trkpt>
      <trkpt lat="50.18376" lon="4.05772">
        <ele>207.7</ele>
        <time>2020-06-24T15:24:34Z</time>
      </trkpt>
      <trkpt lat="50.18373" lon="4.05778">
        <ele>207.5</ele>
        <time>2020-06-24T15:24:35Z</time>
      </trkpt>
      <trkpt lat="50.18369" lon="4.05782">
        <ele>207.4</ele>
        <time>2020-06-24T15:24:36Z</time>
      </trkpt>
      <trkpt lat="50.18364" lon="4.05788">
        <ele>207.3</ele>
        <time>2020-06-24T15:24:37Z</time>
      </trkpt>
      <trkpt lat="50.18361" lon="4.05794">
        <ele>207.2</ele>
        <time>2020-06-24T15:24:38Z</time>
      </trkpt>
      <trkpt lat="50.18357" lon="4.05801">
        <ele>207.1</ele>
        <time>2020-06-24T15:24:39Z</time>
      </trkpt>
      <trkpt lat="50.18352" lon="4.05807">
        <ele>207</ele>
        <time>2020-06-24T15:24:40Z</time>
      </trkpt>
      <trkpt lat="50.18348" lon="4.05815">
        <ele>206.8</ele>
        <time>2020-06-24T15:24:41Z</time>
      </trkpt>
      <trkpt lat="50.18344" lon="4.05821">
        <ele>206.6</ele>
        <time>2020-06-24T15:24:42Z</time>
      </trkpt>
      <trkpt lat="50.1834" lon="4.05825">
        <ele>206.6</ele>
        <time>2020-06-24T15:24:43Z</time>
      </trkpt>
      <trkpt lat="50.18336" lon="4.05832">
        <ele>206.4</ele>
        <time>2020-06-24T15:24:44Z</time>
      </trkpt>
      <trkpt lat="50.18331" lon="4.05839">
        <ele>206.3</ele>
        <time>2020-06-24T15:24:45Z</time>
      </trkpt>
      <trkpt lat="50.18327" lon="4.05846">
        <ele>206.2</ele>
        <time>2020-06-24T15:24:46Z</time>
      </trkpt>
      <trkpt lat="50.18323" lon="4.05853">
        <ele>206</ele>
        <time>2020-06-24T15:24:47Z</time>
      </trkpt>
      <trkpt lat="50.18318" lon="4.05859">
        <ele>205.9</ele>
        <time>2020-06-24T15:24:48Z</time>
      </trkpt>
      <trkpt lat="50.18314" lon="4.05866">
        <ele>205.7</ele>
        <time>2020-06-24T15:24:49Z</time>
      </trkpt>
      <trkpt lat="50.18311" lon="4.05872">
        <ele>205.6</ele>
        <time>2020-06-24T15:24:50Z</time>
      </trkpt>
      <trkpt lat="50.18306" lon="4.05878">
        <ele>205.4</ele>
        <time>2020-06-24T15:24:51Z</time>
      </trkpt>
      <trkpt lat="50.18302" lon="4.05885">
        <ele>205.3</ele>
        <time>2020-06-24T15:24:52Z</time>
      </trkpt>
      <trkpt lat="50.18297" lon="4.0589">
        <ele>205.1</ele>
        <time>2020-06-24T15:24:53Z</time>
      </trkpt>
      <trkpt lat="50.18292" lon="4.05897">
        <ele>204.9</ele>
        <time>2020-06-24T15:24:54Z</time>
      </trkpt>
      <trkpt lat="50.18287" lon="4.05903">
        <ele>204.7</ele>
        <time>2020-06-24T15:24:55Z</time>
      </trkpt>
      <trkpt lat="50.18283" lon="4.0591">
        <ele>204.4</ele>
        <time>2020-06-24T15:24:56Z</time>
      </trkpt>
      <trkpt lat="50.18277" lon="4.05915">
        <ele>204.2</ele>
        <time>2020-06-24T15:24:57Z</time>
      </trkpt>
      <trkpt lat="50.18271" lon="4.05923">
        <ele>203.8</ele>
        <time>2020-06-24T15:24:58Z</time>
      </trkpt>
      <trkpt lat="50.18266" lon="4.05931">
        <ele>203.5</ele>
        <time>2020-06-24T15:24:59Z</time>
      </trkpt>
      <trkpt lat="50.18261" lon="4.05939">
        <ele>203.1</ele>
        <time>2020-06-24T15:25:00Z</time>
      </trkpt>
      <trkpt lat="50.18257" lon="4.05947">
        <ele>202.7</ele>
        <time>2020-06-24T15:25:01Z</time>
      </trkpt>
      <trkpt lat="50.18253" lon="4.05953">
        <ele>202.4</ele>
        <time>2020-06-24T15:25:02Z</time>
      </trkpt>
      <trkpt lat="50.18247" lon="4.0596">
        <ele>201.9</ele>
        <time>2020-06-24T15:25:03Z</time>
      </trkpt>
      <trkpt lat="50.18241" lon="4.05968">
        <ele>201.5</ele>
        <time>2020-06-24T15:25:04Z</time>
      </trkpt>
      <trkpt lat="50.18236" lon="4.05976">
        <ele>201</ele>
        <time>2020-06-24T15:25:05Z</time>
      </trkpt>
      <trkpt lat="50.18231" lon="4.05984">
        <ele>200.6</ele>
        <time>2020-06-24T15:25:06Z</time>
      </trkpt>
      <trkpt lat="50.18225" lon="4.05993">
        <ele>200.1</ele>
        <time>2020-06-24T15:25:07Z</time>
      </trkpt>
      <trkpt lat="50.1822" lon="4.06002">
        <ele>199.5</ele>
        <time>2020-06-24T15:25:08Z</time>
      </trkpt>
      <trkpt lat="50.18214" lon="4.06011">
        <ele>198.9</ele>
        <time>2020-06-24T15:25:09Z</time>
      </trkpt>
      <trkpt lat="50.18207" lon="4.0602">
        <ele>198.4</ele>
        <time>2020-06-24T15:25:10Z</time>
      </trkpt>
      <trkpt lat="50.18201" lon="4.0603">
        <ele>197.9</ele>
        <time>2020-06-24T15:25:11Z</time>
      </trkpt>
      <trkpt lat="50.18194" lon="4.0604">
        <ele>197.3</ele>
        <time>2020-06-24T15:25:12Z</time>
      </trkpt>
      <trkpt lat="50.18188" lon="4.06051">
        <ele>196.6</ele>
        <time>2020-06-24T15:25:13Z</time>
      </trkpt>
      <trkpt lat="50.18182" lon="4.06063">
        <ele>195.9</ele>
        <time>2020-06-24T15:25:14Z</time>
      </trkpt>
      <trkpt lat="50.18177" lon="4.06076">
        <ele>195.3</ele>
        <time>2020-06-24T15:25:15Z</time>
      </trkpt>
      <trkpt lat="50.18172" lon="4.06089">
        <ele>194.6</ele>
        <time>2020-06-24T15:25:16Z</time>
      </trkpt>
      <trkpt lat="50.18168" lon="4.06103">
        <ele>194</ele>
        <time>2020-06-24T15:25:17Z</time>
      </trkpt>
      <trkpt lat="50.18164" lon="4.06118">
        <ele>193.2</ele>
        <time>2020-06-24T15:25:18Z</time>
      </trkpt>
      <trkpt lat="50.18161" lon="4.06134">
        <ele>192.5</ele>
        <time>2020-06-24T15:25:19Z</time>
      </trkpt>
      <trkpt lat="50.18158" lon="4.06149">
        <ele>191.8</ele>
        <time>2020-06-24T15:25:20Z</time>
      </trkpt>
      <trkpt lat="50.18154" lon="4.06165">
        <ele>191.2</ele>
        <time>2020-06-24T15:25:21Z</time>
      </trkpt>
      <trkpt lat="50.18151" lon="4.0618">
        <ele>190.5</ele>
        <time>2020-06-24T15:25:22Z</time>
      </trkpt>
      <trkpt lat="50.18148" lon="4.06195">
        <ele>189.8</ele>
        <time>2020-06-24T15:25:23Z</time>
      </trkpt>
      <trkpt lat="50.18144" lon="4.0621">
        <ele>189.2</ele>
        <time>2020-06-24T15:25:24Z</time>
      </trkpt>
      <trkpt lat="50.18141" lon="4.06225">
        <ele>188.5</ele>
        <time>2020-06-24T15:25:25Z</time>
      </trkpt>
      <trkpt lat="50.18137" lon="4.0624">
        <ele>187.8</ele>
        <time>2020-06-24T15:25:26Z</time>
      </trkpt>
      <trkpt lat="50.18134" lon="4.06255">
        <ele>187.1</ele>
        <time>2020-06-24T15:25:27Z</time>
      </trkpt>
      <trkpt lat="50.18131" lon="4.0627">
        <ele>186.4</ele>
        <time>2020-06-24T15:25:28Z</time>
      </trkpt>
      <trkpt lat="50.18127" lon="4.06286">
        <ele>185.7</ele>
        <time>2020-06-24T15:25:29Z</time>
      </trkpt>
      <trkpt lat="50.18124" lon="4.06302">
        <ele>184.9</ele>
        <time>2020-06-24T15:25:30Z</time>
      </trkpt>
      <trkpt lat="50.1812" lon="4.06319">
        <ele>184</ele>
        <time>2020-06-24T15:25:31Z</time>
      </trkpt>
      <trkpt lat="50.18116" lon="4.06335">
        <ele>183.2</ele>
        <time>2020-06-24T15:25:32Z</time>
      </trkpt>
      <trkpt lat="50.18113" lon="4.06351">
        <ele>182.5</ele>
        <time>2020-06-24T15:25:33Z</time>
      </trkpt>
      <trkpt lat="50.18109" lon="4.06368">
        <ele>181.7</ele>
        <time>2020-06-24T15:25:34Z</time>
      </trkpt>
      <trkpt lat="50.18105" lon="4.06384">
        <ele>180.9</ele>
        <time>2020-06-24T15:25:35Z</time>
      </trkpt>
      <trkpt lat="50.18102" lon="4.064">
        <ele>180.1</ele>
        <time>2020-06-24T15:25:36Z</time>
      </trkpt>
      <trkpt lat="50.18098" lon="4.06416">
        <ele>179.4</ele>
        <time>2020-06-24T15:25:37Z</time>
      </trkpt>
      <trkpt lat="50.18092" lon="4.06432">
        <ele>178.8</ele>
        <time>2020-06-24T15:25:38Z</time>
      </trkpt>
      <trkpt lat="50.18087" lon="4.06447">
        <ele>178</ele>
        <time>2020-06-24T15:25:39Z</time>
      </trkpt>
      <trkpt lat="50.1808" lon="4.06461">
        <ele>177.8</ele>
        <time>2020-06-24T15:25:40Z</time>
      </trkpt>
      <trkpt lat="50.18073" lon="4.06473">
        <ele>177.1</ele>
        <time>2020-06-24T15:25:41Z</time>
      </trkpt>
      <trkpt lat="50.18066" lon="4.06486">
        <ele>176.5</ele>
        <time>2020-06-24T15:25:42Z</time>
      </trkpt>
      <trkpt lat="50.18059" lon="4.06499">
        <ele>176</ele>
        <time>2020-06-24T15:25:43Z</time>
      </trkpt>
      <trkpt lat="50.18052" lon="4.06511">
        <ele>175.5</ele>
        <time>2020-06-24T15:25:44Z</time>
      </trkpt>
      <trkpt lat="50.18044" lon="4.06524">
        <ele>175.2</ele>
        <time>2020-06-24T15:25:45Z</time>
      </trkpt>
      <trkpt lat="50.18036" lon="4.06535">
        <ele>175</ele>
        <time>2020-06-24T15:25:46Z</time>
      </trkpt>
      <trkpt lat="50.18027" lon="4.06544">
        <ele>174.8</ele>
        <time>2020-06-24T15:25:47Z</time>
      </trkpt>
      <trkpt lat="50.18019" lon="4.06553">
        <ele>174.8</ele>
        <time>2020-06-24T15:25:48Z</time>
      </trkpt>
      <trkpt lat="50.1801" lon="4.06562">
        <ele>174.9</ele>
        <time>2020-06-24T15:25:49Z</time>
      </trkpt>
      <trkpt lat="50.18002" lon="4.06571">
        <ele>175.1</ele>
        <time>2020-06-24T15:25:50Z</time>
      </trkpt>
      <trkpt lat="50.17995" lon="4.06581">
        <ele>175.4</ele>
        <time>2020-06-24T15:25:51Z</time>
      </trkpt>
      <trkpt lat="50.17988" lon="4.06591">
        <ele>175.8</ele>
        <time>2020-06-24T15:25:52Z</time>
      </trkpt>
      <trkpt lat="50.17982" lon="4.06599">
        <ele>176.2</ele>
        <time>2020-06-24T15:25:53Z</time>
      </trkpt>
      <trkpt lat="50.17976" lon="4.06608">
        <ele>176.5</ele>
        <time>2020-06-24T15:25:54Z</time>
      </trkpt>
      <trkpt lat="50.17971" lon="4.06616">
        <ele>176.7</ele>
        <time>2020-06-24T15:25:55Z</time>
      </trkpt>
      <trkpt lat="50.17966" lon="4.06624">
        <ele>176.9</ele>
        <time>2020-06-24T15:25:56Z</time>
      </trkpt>
      <trkpt lat="50.17962" lon="4.06632">
        <ele>177.1</ele>
        <time>2020-06-24T15:25:57Z</time>
      </trkpt>
      <trkpt lat="50.17958" lon="4.06639">
        <ele>177.3</ele>
        <time>2020-06-24T15:25:58Z</time>
      </trkpt>
      <trkpt lat="50.17955" lon="4.06647">
        <ele>177.4</ele>
        <time>2020-06-24T15:25:59Z</time>
      </trkpt>
      <trkpt lat="50.17952" lon="4.06655">
        <ele>177.5</ele>
        <time>2020-06-24T15:26:00Z</time>
      </trkpt>
      <trkpt lat="50.17948" lon="4.06661">
        <ele>177.6</ele>
        <time>2020-06-24T15:26:01Z</time>
      </trkpt>
      <trkpt lat="50.17946" lon="4.06667">
        <ele>177.7</ele>
        <time>2020-06-24T15:26:02Z</time>
      </trkpt>
      <trkpt lat="50.17944" lon="4.06673">
        <ele>177.7</ele>
        <time>2020-06-24T15:26:03Z</time>
      </trkpt>
      <trkpt lat="50.17942" lon="4.06679">
        <ele>177.7</ele>
        <time>2020-06-24T15:26:04Z</time>
      </trkpt>
      <trkpt lat="50.17939" lon="4.06684">
        <ele>177.8</ele>
        <time>2020-06-24T15:26:05Z</time>
      </trkpt>
      <trkpt lat="50.17937" lon="4.0669">
        <ele>177.8</ele>
        <time>2020-06-24T15:26:06Z</time>
      </trkpt>
      <trkpt lat="50.17935" lon="4.06696">
        <ele>177.9</ele>
        <time>2020-06-24T15:26:07Z</time>
      </trkpt>
      <trkpt lat="50.17932" lon="4.067">
        <ele>177.9</ele>
        <time>2020-06-24T15:26:08Z</time>
      </trkpt>
      <trkpt lat="50.1793" lon="4.06704">
        <ele>177.9</ele>
        <time>2020-06-24T15:26:09Z</time>
      </trkpt>
      <trkpt lat="50.17928" lon="4.06708">
        <ele>178</ele>
        <time>2020-06-24T15:26:10Z</time>
      </trkpt>
      <trkpt lat="50.17927" lon="4.06713">
        <ele>178</ele>
        <time>2020-06-24T15:26:11Z</time>
      </trkpt>
      <trkpt lat="50.17925" lon="4.06717">
        <ele>178.1</ele>
        <time>2020-06-24T15:26:12Z</time>
      </trkpt>
      <trkpt lat="50.17924" lon="4.06721">
        <ele>178.1</ele>
        <time>2020-06-24T15:26:13Z</time>
      </trkpt>
      <trkpt lat="50.17923" lon="4.06723">
        <ele>178.1</ele>
        <time>2020-06-24T15:26:14Z</time>
      </trkpt>
      <trkpt lat="50.17921" lon="4.06728">
        <ele>178.2</ele>
        <time>2020-06-24T15:26:15Z</time>
      </trkpt>
      <trkpt lat="50.1792" lon="4.06729">
        <ele>178.2</ele>
        <time>2020-06-24T15:26:16Z</time>
      </trkpt>
      <trkpt lat="50.17918" lon="4.06733">
        <ele>178.3</ele>
        <time>2020-06-24T15:26:17Z</time>
      </trkpt>
      <trkpt lat="50.17917" lon="4.06738">
        <ele>178.3</ele>
        <time>2020-06-24T15:26:18Z</time>
      </trkpt>
      <trkpt lat="50.17916" lon="4.06743">
        <ele>178.3</ele>
        <time>2020-06-24T15:26:19Z</time>
      </trkpt>
      <trkpt lat="50.17915" lon="4.06748">
        <ele>178.3</ele>
        <time>2020-06-24T15:26:20Z</time>
      </trkpt>
      <trkpt lat="50.17914" lon="4.06753">
        <ele>178.4</ele>
        <time>2020-06-24T15:26:21Z</time>
      </trkpt>
      <trkpt lat="50.17914" lon="4.06757">
        <ele>178.5</ele>
        <time>2020-06-24T15:26:22Z</time>
      </trkpt>
      <trkpt lat="50.17914" lon="4.06759">
        <ele>178.5</ele>
        <time>2020-06-24T15:26:23Z</time>
      </trkpt>
      <trkpt lat="50.17914" lon="4.06764">
        <ele>178.6</ele>
        <time>2020-06-24T15:26:24Z</time>
      </trkpt>
      <trkpt lat="50.17914" lon="4.06765">
        <ele>178.6</ele>
        <time>2020-06-24T15:26:25Z</time>
      </trkpt>
      <trkpt lat="50.17914" lon="4.0677">
        <ele>178.7</ele>
        <time>2020-06-24T15:26:26Z</time>
      </trkpt>
      <trkpt lat="50.17914" lon="4.06772">
        <ele>178.7</ele>
        <time>2020-06-24T15:26:27Z</time>
      </trkpt>
      <trkpt lat="50.17915" lon="4.06778">
        <ele>178.8</ele>
        <time>2020-06-24T15:26:28Z</time>
      </trkpt>
      <trkpt lat="50.17915" lon="4.0678">
        <ele>178.8</ele>
        <time>2020-06-24T15:26:29Z</time>
      </trkpt>
      <trkpt lat="50.17915" lon="4.06786">
        <ele>178.9</ele>
        <time>2020-06-24T15:26:30Z</time>
      </trkpt>
      <trkpt lat="50.17915" lon="4.06788">
        <ele>179</ele>
        <time>2020-06-24T15:26:31Z</time>
      </trkpt>
      <trkpt lat="50.17915" lon="4.06793">
        <ele>179</ele>
        <time>2020-06-24T15:26:32Z</time>
      </trkpt>
      <trkpt lat="50.17915" lon="4.06798">
        <ele>179.1</ele>
        <time>2020-06-24T15:26:33Z</time>
      </trkpt>
      <trkpt lat="50.17915" lon="4.06803">
        <ele>179.1</ele>
        <time>2020-06-24T15:26:34Z</time>
      </trkpt>
      <trkpt lat="50.17915" lon="4.06809">
        <ele>179.2</ele>
        <time>2020-06-24T15:26:35Z</time>
      </trkpt>
      <trkpt lat="50.17916" lon="4.06814">
        <ele>179.2</ele>
        <time>2020-06-24T15:26:36Z</time>
      </trkpt>
      <trkpt lat="50.17916" lon="4.06819">
        <ele>179.2</ele>
        <time>2020-06-24T15:26:37Z</time>
      </trkpt>
      <trkpt lat="50.17916" lon="4.06825">
        <ele>179.3</ele>
        <time>2020-06-24T15:26:38Z</time>
      </trkpt>
      <trkpt lat="50.17916" lon="4.06831">
        <ele>179.3</ele>
        <time>2020-06-24T15:26:39Z</time>
      </trkpt>
      <trkpt lat="50.17917" lon="4.06838">
        <ele>179.4</ele>
        <time>2020-06-24T15:26:40Z</time>
      </trkpt>
      <trkpt lat="50.17917" lon="4.06845">
        <ele>179.5</ele>
        <time>2020-06-24T15:26:41Z</time>
      </trkpt>
      <trkpt lat="50.17918" lon="4.06852">
        <ele>179.5</ele>
        <time>2020-06-24T15:26:42Z</time>
      </trkpt>
      <trkpt lat="50.17918" lon="4.06859">
        <ele>179.6</ele>
        <time>2020-06-24T15:26:43Z</time>
      </trkpt>
      <trkpt lat="50.17918" lon="4.06866">
        <ele>179.7</ele>
        <time>2020-06-24T15:26:44Z</time>
      </trkpt>
      <trkpt lat="50.17918" lon="4.06872">
        <ele>179.8</ele>
        <time>2020-06-24T15:26:45Z</time>
      </trkpt>
      <trkpt lat="50.17919" lon="4.06877">
        <ele>179.9</ele>
        <time>2020-06-24T15:26:46Z</time>
      </trkpt>
      <trkpt lat="50.17919" lon="4.06883">
        <ele>180</ele>
        <time>2020-06-24T15:26:47Z</time>
      </trkpt>
      <trkpt lat="50.17919" lon="4.06889">
        <ele>180.1</ele>
        <time>2020-06-24T15:26:48Z</time>
      </trkpt>
      <trkpt lat="50.1792" lon="4.06894">
        <ele>180.1</ele>
        <time>2020-06-24T15:26:49Z</time>
      </trkpt>
      <trkpt lat="50.1792" lon="4.069">
        <ele>180.2</ele>
        <time>2020-06-24T15:26:50Z</time>
      </trkpt>
      <trkpt lat="50.17921" lon="4.06905">
        <ele>180.3</ele>
        <time>2020-06-24T15:26:51Z</time>
      </trkpt>
      <trkpt lat="50.17921" lon="4.06911">
        <ele>180.3</ele>
        <time>2020-06-24T15:26:52Z</time>
      </trkpt>
      <trkpt lat="50.17921" lon="4.06917">
        <ele>180.4</ele>
        <time>2020-06-24T15:26:53Z</time>
      </trkpt>
      <trkpt lat="50.17922" lon="4.06924">
        <ele>180.4</ele>
        <time>2020-06-24T15:26:54Z</time>
      </trkpt>
      <trkpt lat="50.17923" lon="4.0693">
        <ele>180.5</ele>
        <time>2020-06-24T15:26:55Z</time>
      </trkpt>
      <trkpt lat="50.17923" lon="4.06936">
        <ele>180.5</ele>
        <time>2020-06-24T15:26:56Z</time>
      </trkpt>
      <trkpt lat="50.17924" lon="4.06943">
        <ele>180.6</ele>
        <time>2020-06-24T15:26:57Z</time>
      </trkpt>
      <trkpt lat="50.17924" lon="4.0695">
        <ele>180.7</ele>
        <time>2020-06-24T15:26:58Z</time>
      </trkpt>
      <trkpt lat="50.17924" lon="4.06957">
        <ele>180.8</ele>
        <time>2020-06-24T15:26:59Z</time>
      </trkpt>
      <trkpt lat="50.17924" lon="4.06964">
        <ele>180.9</ele>
        <time>2020-06-24T15:27:00Z</time>
      </trkpt>
      <trkpt lat="50.17925" lon="4.06971">
        <ele>181</ele>
        <time>2020-06-24T15:27:01Z</time>
      </trkpt>
      <trkpt lat="50.17925" lon="4.06978">
        <ele>181.2</ele>
        <time>2020-06-24T15:27:02Z</time>
      </trkpt>
      <trkpt lat="50.17925" lon="4.06986">
        <ele>181.3</ele>
        <time>2020-06-24T15:27:03Z</time>
      </trkpt>
      <trkpt lat="50.17925" lon="4.06992">
        <ele>181.3</ele>
        <time>2020-06-24T15:27:04Z</time>
      </trkpt>
      <trkpt lat="50.17924" lon="4.06999">
        <ele>181.4</ele>
        <time>2020-06-24T15:27:05Z</time>
      </trkpt>
      <trkpt lat="50.17924" lon="4.07005">
        <ele>181.4</ele>
        <time>2020-06-24T15:27:06Z</time>
      </trkpt>
      <trkpt lat="50.17923" lon="4.0701">
        <ele>181.4</ele>
        <time>2020-06-24T15:27:07Z</time>
      </trkpt>
      <trkpt lat="50.17923" lon="4.07015">
        <ele>181.5</ele>
        <time>2020-06-24T15:27:08Z</time>
      </trkpt>
      <trkpt lat="50.17923" lon="4.07021">
        <ele>181.5</ele>
        <time>2020-06-24T15:27:09Z</time>
      </trkpt>
      <trkpt lat="50.17922" lon="4.07027">
        <ele>181.6</ele>
        <time>2020-06-24T15:27:10Z</time>
      </trkpt>
      <trkpt lat="50.17922" lon="4.07033">
        <ele>181.6</ele>
        <time>2020-06-24T15:27:11Z</time>
      </trkpt>
      <trkpt lat="50.17921" lon="4.0704">
        <ele>181.7</ele>
        <time>2020-06-24T15:27:12Z</time>
      </trkpt>
      <trkpt lat="50.1792" lon="4.07049">
        <ele>181.8</ele>
        <time>2020-06-24T15:27:13Z</time>
      </trkpt>
      <trkpt lat="50.1792" lon="4.07056">
        <ele>181.9</ele>
        <time>2020-06-24T15:27:14Z</time>
      </trkpt>
      <trkpt lat="50.1792" lon="4.07063">
        <ele>182</ele>
        <time>2020-06-24T15:27:15Z</time>
      </trkpt>
      <trkpt lat="50.1792" lon="4.07069">
        <ele>182</ele>
        <time>2020-06-24T15:27:16Z</time>
      </trkpt>
      <trkpt lat="50.17919" lon="4.07074">
        <ele>182.1</ele>
        <time>2020-06-24T15:27:17Z</time>
      </trkpt>
      <trkpt lat="50.17918" lon="4.07081">
        <ele>182.2</ele>
        <time>2020-06-24T15:27:18Z</time>
      </trkpt>
      <trkpt lat="50.17917" lon="4.07087">
        <ele>182.2</ele>
        <time>2020-06-24T15:27:19Z</time>
      </trkpt>
      <trkpt lat="50.17917" lon="4.07092">
        <ele>182.3</ele>
        <time>2020-06-24T15:27:20Z</time>
      </trkpt>
      <trkpt lat="50.17917" lon="4.07099">
        <ele>182.4</ele>
        <time>2020-06-24T15:27:21Z</time>
      </trkpt>
      <trkpt lat="50.17916" lon="4.07105">
        <ele>182.4</ele>
        <time>2020-06-24T15:27:22Z</time>
      </trkpt>
      <trkpt lat="50.17915" lon="4.07111">
        <ele>182.5</ele>
        <time>2020-06-24T15:27:23Z</time>
      </trkpt>
      <trkpt lat="50.17915" lon="4.07116">
        <ele>182.6</ele>
        <time>2020-06-24T15:27:24Z</time>
      </trkpt>
      <trkpt lat="50.17914" lon="4.07122">
        <ele>182.6</ele>
        <time>2020-06-24T15:27:25Z</time>
      </trkpt>
      <trkpt lat="50.17913" lon="4.0713">
        <ele>182.8</ele>
        <time>2020-06-24T15:27:26Z</time>
      </trkpt>
      <trkpt lat="50.17912" lon="4.07136">
        <ele>182.9</ele>
        <time>2020-06-24T15:27:27Z</time>
      </trkpt>
      <trkpt lat="50.1791" lon="4.07143">
        <ele>183</ele>
        <time>2020-06-24T15:27:28Z</time>
      </trkpt>
      <trkpt lat="50.1791" lon="4.07149">
        <ele>183.1</ele>
        <time>2020-06-24T15:27:29Z</time>
      </trkpt>
      <trkpt lat="50.17909" lon="4.07156">
        <ele>183.2</ele>
        <time>2020-06-24T15:27:30Z</time>
      </trkpt>
      <trkpt lat="50.17908" lon="4.07163">
        <ele>183.3</ele>
        <time>2020-06-24T15:27:31Z</time>
      </trkpt>
      <trkpt lat="50.17907" lon="4.07169">
        <ele>183.4</ele>
        <time>2020-06-24T15:27:32Z</time>
      </trkpt>
      <trkpt lat="50.17906" lon="4.07176">
        <ele>183.4</ele>
        <time>2020-06-24T15:27:33Z</time>
      </trkpt>
      <trkpt lat="50.17905" lon="4.07182">
        <ele>183.5</ele>
        <time>2020-06-24T15:27:34Z</time>
      </trkpt>
      <trkpt lat="50.17904" lon="4.07188">
        <ele>183.6</ele>
        <time>2020-06-24T15:27:35Z</time>
      </trkpt>
      <trkpt lat="50.17903" lon="4.07194">
        <ele>183.7</ele>
        <time>2020-06-24T15:27:36Z</time>
      </trkpt>
      <trkpt lat="50.17902" lon="4.07202">
        <ele>183.7</ele>
        <time>2020-06-24T15:27:37Z</time>
      </trkpt>
      <trkpt lat="50.17901" lon="4.0721">
        <ele>183.9</ele>
        <time>2020-06-24T15:27:38Z</time>
      </trkpt>
      <trkpt lat="50.17899" lon="4.07218">
        <ele>184</ele>
        <time>2020-06-24T15:27:39Z</time>
      </trkpt>
      <trkpt lat="50.17897" lon="4.07227">
        <ele>184.1</ele>
        <time>2020-06-24T15:27:40Z</time>
      </trkpt>
      <trkpt lat="50.17896" lon="4.07234">
        <ele>184.2</ele>
        <time>2020-06-24T15:27:41Z</time>
      </trkpt>
      <trkpt lat="50.17894" lon="4.07241">
        <ele>184.2</ele>
        <time>2020-06-24T15:27:42Z</time>
      </trkpt>
      <trkpt lat="50.17892" lon="4.07247">
        <ele>184.3</ele>
        <time>2020-06-24T15:27:43Z</time>
      </trkpt>
      <trkpt lat="50.17891" lon="4.07253">
        <ele>184.3</ele>
        <time>2020-06-24T15:27:44Z</time>
      </trkpt>
      <trkpt lat="50.17889" lon="4.0726">
        <ele>184.4</ele>
        <time>2020-06-24T15:27:45Z</time>
      </trkpt>
      <trkpt lat="50.17888" lon="4.07266">
        <ele>184.5</ele>
        <time>2020-06-24T15:27:46Z</time>
      </trkpt>
      <trkpt lat="50.17886" lon="4.07274">
        <ele>184.5</ele>
        <time>2020-06-24T15:27:47Z</time>
      </trkpt>
      <trkpt lat="50.17884" lon="4.0728">
        <ele>184.6</ele>
        <time>2020-06-24T15:27:48Z</time>
      </trkpt>
      <trkpt lat="50.17883" lon="4.07286">
        <ele>184.7</ele>
        <time>2020-06-24T15:27:49Z</time>
      </trkpt>
      <trkpt lat="50.17881" lon="4.07292">
        <ele>184.7</ele>
        <time>2020-06-24T15:27:50Z</time>
      </trkpt>
      <trkpt lat="50.1788" lon="4.07298">
        <ele>184.8</ele>
        <time>2020-06-24T15:27:51Z</time>
      </trkpt>
      <trkpt lat="50.17878" lon="4.07305">
        <ele>184.9</ele>
        <time>2020-06-24T15:27:52Z</time>
      </trkpt>
      <trkpt lat="50.17876" lon="4.07312">
        <ele>185</ele>
        <time>2020-06-24T15:27:53Z</time>
      </trkpt>
      <trkpt lat="50.17875" lon="4.07318">
        <ele>185.1</ele>
        <time>2020-06-24T15:27:54Z</time>
      </trkpt>
      <trkpt lat="50.17873" lon="4.07324">
        <ele>185.2</ele>
        <time>2020-06-24T15:27:55Z</time>
      </trkpt>
      <trkpt lat="50.17871" lon="4.07332">
        <ele>185.3</ele>
        <time>2020-06-24T15:27:56Z</time>
      </trkpt>
      <trkpt lat="50.1787" lon="4.07338">
        <ele>185.4</ele>
        <time>2020-06-24T15:27:57Z</time>
      </trkpt>
      <trkpt lat="50.17869" lon="4.07344">
        <ele>185.5</ele>
        <time>2020-06-24T15:27:58Z</time>
      </trkpt>
      <trkpt lat="50.17867" lon="4.07349">
        <ele>185.6</ele>
        <time>2020-06-24T15:27:59Z</time>
      </trkpt>
      <trkpt lat="50.17865" lon="4.07356">
        <ele>185.7</ele>
        <time>2020-06-24T15:28:00Z</time>
      </trkpt>
      <trkpt lat="50.17864" lon="4.07363">
        <ele>185.8</ele>
        <time>2020-06-24T15:28:01Z</time>
      </trkpt>
      <trkpt lat="50.17862" lon="4.07369">
        <ele>185.8</ele>
        <time>2020-06-24T15:28:02Z</time>
      </trkpt>
      <trkpt lat="50.1786" lon="4.07376">
        <ele>185.9</ele>
        <time>2020-06-24T15:28:03Z</time>
      </trkpt>
      <trkpt lat="50.17858" lon="4.07383">
        <ele>186</ele>
        <time>2020-06-24T15:28:04Z</time>
      </trkpt>
      <trkpt lat="50.17856" lon="4.0739">
        <ele>186.1</ele>
        <time>2020-06-24T15:28:05Z</time>
      </trkpt>
      <trkpt lat="50.17854" lon="4.07398">
        <ele>186.3</ele>
        <time>2020-06-24T15:28:06Z</time>
      </trkpt>
      <trkpt lat="50.17852" lon="4.07405">
        <ele>186.4</ele>
        <time>2020-06-24T15:28:07Z</time>
      </trkpt>
      <trkpt lat="50.1785" lon="4.0741">
        <ele>186.4</ele>
        <time>2020-06-24T15:28:08Z</time>
      </trkpt>
      <trkpt lat="50.17848" lon="4.07417">
        <ele>186.5</ele>
        <time>2020-06-24T15:28:09Z</time>
      </trkpt>
      <trkpt lat="50.17846" lon="4.07424">
        <ele>186.6</ele>
        <time>2020-06-24T15:28:10Z</time>
      </trkpt>
      <trkpt lat="50.17844" lon="4.07432">
        <ele>186.7</ele>
        <time>2020-06-24T15:28:11Z</time>
      </trkpt>
      <trkpt lat="50.17842" lon="4.0744">
        <ele>186.9</ele>
        <time>2020-06-24T15:28:12Z</time>
      </trkpt>
      <trkpt lat="50.1784" lon="4.07447">
        <ele>187</ele>
        <time>2020-06-24T15:28:13Z</time>
      </trkpt>
      <trkpt lat="50.17837" lon="4.07455">
        <ele>187.1</ele>
        <time>2020-06-24T15:28:14Z</time>
      </trkpt>
      <trkpt lat="50.17836" lon="4.0746">
        <ele>187.2</ele>
        <time>2020-06-24T15:28:15Z</time>
      </trkpt>
      <trkpt lat="50.17834" lon="4.07465">
        <ele>187.2</ele>
        <time>2020-06-24T15:28:16Z</time>
      </trkpt>
      <trkpt lat="50.17833" lon="4.07469">
        <ele>187.3</ele>
        <time>2020-06-24T15:28:17Z</time>
      </trkpt>
      <trkpt lat="50.17832" lon="4.07474">
        <ele>187.3</ele>
        <time>2020-06-24T15:28:18Z</time>
      </trkpt>
      <trkpt lat="50.17831" lon="4.0748">
        <ele>187.4</ele>
        <time>2020-06-24T15:28:19Z</time>
      </trkpt>
      <trkpt lat="50.17829" lon="4.07486">
        <ele>187.4</ele>
        <time>2020-06-24T15:28:20Z</time>
      </trkpt>
      <trkpt lat="50.17827" lon="4.07492">
        <ele>187.5</ele>
        <time>2020-06-24T15:28:21Z</time>
      </trkpt>
      <trkpt lat="50.17825" lon="4.075">
        <ele>187.6</ele>
        <time>2020-06-24T15:28:22Z</time>
      </trkpt>
      <trkpt lat="50.17824" lon="4.07507">
        <ele>187.7</ele>
        <time>2020-06-24T15:28:23Z</time>
      </trkpt>
      <trkpt lat="50.17822" lon="4.07513">
        <ele>187.7</ele>
        <time>2020-06-24T15:28:24Z</time>
      </trkpt>
      <trkpt lat="50.1782" lon="4.07519">
        <ele>187.8</ele>
        <time>2020-06-24T15:28:25Z</time>
      </trkpt>
      <trkpt lat="50.17819" lon="4.07525">
        <ele>187.9</ele>
        <time>2020-06-24T15:28:26Z</time>
      </trkpt>
      <trkpt lat="50.17817" lon="4.07531">
        <ele>188</ele>
        <time>2020-06-24T15:28:27Z</time>
      </trkpt>
      <trkpt lat="50.17816" lon="4.07537">
        <ele>188.1</ele>
        <time>2020-06-24T15:28:28Z</time>
      </trkpt>
      <trkpt lat="50.17814" lon="4.07544">
        <ele>188.1</ele>
        <time>2020-06-24T15:28:29Z</time>
      </trkpt>
      <trkpt lat="50.17812" lon="4.0755">
        <ele>188.2</ele>
        <time>2020-06-24T15:28:30Z</time>
      </trkpt>
      <trkpt lat="50.1781" lon="4.07557">
        <ele>188.3</ele>
        <time>2020-06-24T15:28:31Z</time>
      </trkpt>
      <trkpt lat="50.17808" lon="4.07562">
        <ele>188.4</ele>
        <time>2020-06-24T15:28:32Z</time>
      </trkpt>
      <trkpt lat="50.17806" lon="4.07567">
        <ele>188.4</ele>
        <time>2020-06-24T15:28:33Z</time>
      </trkpt>
      <trkpt lat="50.17805" lon="4.07571">
        <ele>188.5</ele>
        <time>2020-06-24T15:28:34Z</time>
      </trkpt>
      <trkpt lat="50.17804" lon="4.07577">
        <ele>188.5</ele>
        <time>2020-06-24T15:28:35Z</time>
      </trkpt>
      <trkpt lat="50.17802" lon="4.07583">
        <ele>188.6</ele>
        <time>2020-06-24T15:28:36Z</time>
      </trkpt>
      <trkpt lat="50.178" lon="4.07589">
        <ele>188.7</ele>
        <time>2020-06-24T15:28:37Z</time>
      </trkpt>
      <trkpt lat="50.17798" lon="4.07594">
        <ele>188.7</ele>
        <time>2020-06-24T15:28:38Z</time>
      </trkpt>
      <trkpt lat="50.17797" lon="4.076">
        <ele>188.8</ele>
        <time>2020-06-24T15:28:39Z</time>
      </trkpt>
      <trkpt lat="50.17795" lon="4.07607">
        <ele>188.8</ele>
        <time>2020-06-24T15:28:40Z</time>
      </trkpt>
      <trkpt lat="50.17793" lon="4.07616">
        <ele>188.9</ele>
        <time>2020-06-24T15:28:41Z</time>
      </trkpt>
      <trkpt lat="50.17791" lon="4.07625">
        <ele>189</ele>
        <time>2020-06-24T15:28:42Z</time>
      </trkpt>
      <trkpt lat="50.17789" lon="4.07632">
        <ele>189.1</ele>
        <time>2020-06-24T15:28:43Z</time>
      </trkpt>
      <trkpt lat="50.17788" lon="4.0764">
        <ele>189.2</ele>
        <time>2020-06-24T15:28:44Z</time>
      </trkpt>
      <trkpt lat="50.17786" lon="4.07646">
        <ele>189.2</ele>
        <time>2020-06-24T15:28:45Z</time>
      </trkpt>
      <trkpt lat="50.17785" lon="4.07652">
        <ele>189.3</ele>
        <time>2020-06-24T15:28:46Z</time>
      </trkpt>
      <trkpt lat="50.17783" lon="4.07658">
        <ele>189.4</ele>
        <time>2020-06-24T15:28:47Z</time>
      </trkpt>
      <trkpt lat="50.17782" lon="4.07665">
        <ele>189.5</ele>
        <time>2020-06-24T15:28:48Z</time>
      </trkpt>
      <trkpt lat="50.17781" lon="4.07672">
        <ele>189.5</ele>
        <time>2020-06-24T15:28:49Z</time>
      </trkpt>
      <trkpt lat="50.17779" lon="4.07677">
        <ele>189.6</ele>
        <time>2020-06-24T15:28:50Z</time>
      </trkpt>
      <trkpt lat="50.17778" lon="4.07681">
        <ele>189.7</ele>
        <time>2020-06-24T15:28:51Z</time>
      </trkpt>
      <trkpt lat="50.17776" lon="4.07688">
        <ele>189.8</ele>
        <time>2020-06-24T15:28:52Z</time>
      </trkpt>
      <trkpt lat="50.17774" lon="4.07694">
        <ele>189.9</ele>
        <time>2020-06-24T15:28:53Z</time>
      </trkpt>
      <trkpt lat="50.17773" lon="4.07701">
        <ele>190</ele>
        <time>2020-06-24T15:28:54Z</time>
      </trkpt>
      <trkpt lat="50.17771" lon="4.07708">
        <ele>190.1</ele>
        <time>2020-06-24T15:28:55Z</time>
      </trkpt>
      <trkpt lat="50.17768" lon="4.07715">
        <ele>190.2</ele>
        <time>2020-06-24T15:28:56Z</time>
      </trkpt>
      <trkpt lat="50.17767" lon="4.07722">
        <ele>190.3</ele>
        <time>2020-06-24T15:28:57Z</time>
      </trkpt>
      <trkpt lat="50.17765" lon="4.07729">
        <ele>190.4</ele>
        <time>2020-06-24T15:28:58Z</time>
      </trkpt>
      <trkpt lat="50.17763" lon="4.07735">
        <ele>190.5</ele>
        <time>2020-06-24T15:28:59Z</time>
      </trkpt>
      <trkpt lat="50.17761" lon="4.07742">
        <ele>190.6</ele>
        <time>2020-06-24T15:29:00Z</time>
      </trkpt>
      <trkpt lat="50.17759" lon="4.07748">
        <ele>190.7</ele>
        <time>2020-06-24T15:29:01Z</time>
      </trkpt>
      <trkpt lat="50.17757" lon="4.07755">
        <ele>190.8</ele>
        <time>2020-06-24T15:29:02Z</time>
      </trkpt>
      <trkpt lat="50.17755" lon="4.07762">
        <ele>190.9</ele>
        <time>2020-06-24T15:29:03Z</time>
      </trkpt>
      <trkpt lat="50.17753" lon="4.07768">
        <ele>191</ele>
        <time>2020-06-24T15:29:04Z</time>
      </trkpt>
      <trkpt lat="50.17751" lon="4.07773">
        <ele>191.1</ele>
        <time>2020-06-24T15:29:05Z</time>
      </trkpt>
      <trkpt lat="50.17749" lon="4.07779">
        <ele>191.2</ele>
        <time>2020-06-24T15:29:06Z</time>
      </trkpt>
      <trkpt lat="50.17746" lon="4.07785">
        <ele>191.3</ele>
        <time>2020-06-24T15:29:07Z</time>
      </trkpt>
      <trkpt lat="50.17744" lon="4.07792">
        <ele>191.4</ele>
        <time>2020-06-24T15:29:08Z</time>
      </trkpt>
      <trkpt lat="50.17741" lon="4.07799">
        <ele>191.5</ele>
        <time>2020-06-24T15:29:09Z</time>
      </trkpt>
      <trkpt lat="50.17738" lon="4.07807">
        <ele>191.6</ele>
        <time>2020-06-24T15:29:10Z</time>
      </trkpt>
      <trkpt lat="50.17737" lon="4.07811">
        <ele>191.6</ele>
        <time>2020-06-24T15:29:11Z</time>
      </trkpt>
      <trkpt lat="50.17734" lon="4.07817">
        <ele>191.7</ele>
        <time>2020-06-24T15:29:12Z</time>
      </trkpt>
      <trkpt lat="50.17732" lon="4.07822">
        <ele>191.7</ele>
        <time>2020-06-24T15:29:13Z</time>
      </trkpt>
      <trkpt lat="50.17729" lon="4.0783">
        <ele>191.8</ele>
        <time>2020-06-24T15:29:14Z</time>
      </trkpt>
      <trkpt lat="50.17726" lon="4.07838">
        <ele>191.9</ele>
        <time>2020-06-24T15:29:15Z</time>
      </trkpt>
      <trkpt lat="50.17724" lon="4.07845">
        <ele>192</ele>
        <time>2020-06-24T15:29:16Z</time>
      </trkpt>
      <trkpt lat="50.17721" lon="4.07851">
        <ele>192.1</ele>
        <time>2020-06-24T15:29:17Z</time>
      </trkpt>
      <trkpt lat="50.17717" lon="4.07858">
        <ele>192.2</ele>
        <time>2020-06-24T15:29:18Z</time>
      </trkpt>
      <trkpt lat="50.17714" lon="4.07865">
        <ele>192.3</ele>
        <time>2020-06-24T15:29:19Z</time>
      </trkpt>
      <trkpt lat="50.17711" lon="4.0787">
        <ele>192.4</ele>
        <time>2020-06-24T15:29:20Z</time>
      </trkpt>
      <trkpt lat="50.17708" lon="4.07876">
        <ele>192.4</ele>
        <time>2020-06-24T15:29:21Z</time>
      </trkpt>
      <trkpt lat="50.17705" lon="4.07881">
        <ele>192.5</ele>
        <time>2020-06-24T15:29:22Z</time>
      </trkpt>
      <trkpt lat="50.17702" lon="4.07886">
        <ele>192.6</ele>
        <time>2020-06-24T15:29:23Z</time>
      </trkpt>
      <trkpt lat="50.17698" lon="4.07891">
        <ele>192.7</ele>
        <time>2020-06-24T15:29:24Z</time>
      </trkpt>
      <trkpt lat="50.17695" lon="4.07897">
        <ele>192.7</ele>
        <time>2020-06-24T15:29:25Z</time>
      </trkpt>
      <trkpt lat="50.17692" lon="4.07902">
        <ele>192.8</ele>
        <time>2020-06-24T15:29:26Z</time>
      </trkpt>
      <trkpt lat="50.17688" lon="4.07908">
        <ele>192.9</ele>
        <time>2020-06-24T15:29:27Z</time>
      </trkpt>
      <trkpt lat="50.17684" lon="4.07913">
        <ele>193</ele>
        <time>2020-06-24T15:29:28Z</time>
      </trkpt>
      <trkpt lat="50.17681" lon="4.07919">
        <ele>193.1</ele>
        <time>2020-06-24T15:29:29Z</time>
      </trkpt>
      <trkpt lat="50.17677" lon="4.07924">
        <ele>193.2</ele>
        <time>2020-06-24T15:29:30Z</time>
      </trkpt>
      <trkpt lat="50.17673" lon="4.07929">
        <ele>193.4</ele>
        <time>2020-06-24T15:29:31Z</time>
      </trkpt>
      <trkpt lat="50.17669" lon="4.07933">
        <ele>193.5</ele>
        <time>2020-06-24T15:29:32Z</time>
      </trkpt>
      <trkpt lat="50.17666" lon="4.07937">
        <ele>193.6</ele>
        <time>2020-06-24T15:29:33Z</time>
      </trkpt>
      <trkpt lat="50.17662" lon="4.07943">
        <ele>193.7</ele>
        <time>2020-06-24T15:29:34Z</time>
      </trkpt>
      <trkpt lat="50.17658" lon="4.07947">
        <ele>193.8</ele>
        <time>2020-06-24T15:29:35Z</time>
      </trkpt>
      <trkpt lat="50.17654" lon="4.07951">
        <ele>193.9</ele>
        <time>2020-06-24T15:29:36Z</time>
      </trkpt>
      <trkpt lat="50.17649" lon="4.07956">
        <ele>194</ele>
        <time>2020-06-24T15:29:37Z</time>
      </trkpt>
      <trkpt lat="50.17645" lon="4.0796">
        <ele>194.1</ele>
        <time>2020-06-24T15:29:38Z</time>
      </trkpt>
      <trkpt lat="50.17641" lon="4.07964">
        <ele>194.1</ele>
        <time>2020-06-24T15:29:39Z</time>
      </trkpt>
      <trkpt lat="50.17636" lon="4.07967">
        <ele>194.2</ele>
        <time>2020-06-24T15:29:40Z</time>
      </trkpt>
      <trkpt lat="50.17632" lon="4.0797">
        <ele>194.3</ele>
        <time>2020-06-24T15:29:41Z</time>
      </trkpt>
      <trkpt lat="50.17629" lon="4.07973">
        <ele>194.4</ele>
        <time>2020-06-24T15:29:42Z</time>
      </trkpt>
      <trkpt lat="50.17624" lon="4.07976">
        <ele>194.6</ele>
        <time>2020-06-24T15:29:43Z</time>
      </trkpt>
      <trkpt lat="50.1762" lon="4.0798">
        <ele>194.7</ele>
        <time>2020-06-24T15:29:44Z</time>
      </trkpt>
      <trkpt lat="50.17615" lon="4.07984">
        <ele>194.8</ele>
        <time>2020-06-24T15:29:45Z</time>
      </trkpt>
      <trkpt lat="50.17612" lon="4.07987">
        <ele>194.8</ele>
        <time>2020-06-24T15:29:46Z</time>
      </trkpt>
      <trkpt lat="50.17608" lon="4.07989">
        <ele>194.9</ele>
        <time>2020-06-24T15:29:47Z</time>
      </trkpt>
      <trkpt lat="50.17604" lon="4.07992">
        <ele>194.9</ele>
        <time>2020-06-24T15:29:48Z</time>
      </trkpt>
      <trkpt lat="50.17599" lon="4.07994">
        <ele>195</ele>
        <time>2020-06-24T15:29:49Z</time>
      </trkpt>
      <trkpt lat="50.17595" lon="4.07997">
        <ele>195</ele>
        <time>2020-06-24T15:29:50Z</time>
      </trkpt>
      <trkpt lat="50.17591" lon="4.08">
        <ele>195.2</ele>
        <time>2020-06-24T15:29:51Z</time>
      </trkpt>
      <trkpt lat="50.17588" lon="4.08002">
        <ele>195.2</ele>
        <time>2020-06-24T15:29:52Z</time>
      </trkpt>
      <trkpt lat="50.17584" lon="4.08003">
        <ele>195.3</ele>
        <time>2020-06-24T15:29:53Z</time>
      </trkpt>
      <trkpt lat="50.17581" lon="4.08005">
        <ele>195.4</ele>
        <time>2020-06-24T15:29:54Z</time>
      </trkpt>
      <trkpt lat="50.17577" lon="4.08007">
        <ele>195.5</ele>
        <time>2020-06-24T15:29:55Z</time>
      </trkpt>
      <trkpt lat="50.17571" lon="4.08009">
        <ele>195.6</ele>
        <time>2020-06-24T15:29:56Z</time>
      </trkpt>
      <trkpt lat="50.17567" lon="4.08012">
        <ele>195.7</ele>
        <time>2020-06-24T15:29:57Z</time>
      </trkpt>
      <trkpt lat="50.17561" lon="4.08014">
        <ele>195.7</ele>
        <time>2020-06-24T15:29:58Z</time>
      </trkpt>
      <trkpt lat="50.17557" lon="4.08017">
        <ele>195.8</ele>
        <time>2020-06-24T15:29:59Z</time>
      </trkpt>
      <trkpt lat="50.17551" lon="4.0802">
        <ele>195.8</ele>
        <time>2020-06-24T15:30:00Z</time>
      </trkpt>
      <trkpt lat="50.17548" lon="4.08021">
        <ele>195.9</ele>
        <time>2020-06-24T15:30:01Z</time>
      </trkpt>
      <trkpt lat="50.17544" lon="4.08022">
        <ele>196</ele>
        <time>2020-06-24T15:30:02Z</time>
      </trkpt>
      <trkpt lat="50.17541" lon="4.08023">
        <ele>196</ele>
        <time>2020-06-24T15:30:03Z</time>
      </trkpt>
      <trkpt lat="50.17537" lon="4.08023">
        <ele>196.1</ele>
        <time>2020-06-24T15:30:04Z</time>
      </trkpt>
      <trkpt lat="50.17533" lon="4.08025">
        <ele>196.2</ele>
        <time>2020-06-24T15:30:05Z</time>
      </trkpt>
      <trkpt lat="50.17528" lon="4.08027">
        <ele>196.3</ele>
        <time>2020-06-24T15:30:06Z</time>
      </trkpt>
      <trkpt lat="50.17524" lon="4.08029">
        <ele>196.4</ele>
        <time>2020-06-24T15:30:07Z</time>
      </trkpt>
      <trkpt lat="50.17519" lon="4.0803">
        <ele>196.5</ele>
        <time>2020-06-24T15:30:08Z</time>
      </trkpt>
      <trkpt lat="50.17514" lon="4.08032">
        <ele>196.6</ele>
        <time>2020-06-24T15:30:09Z</time>
      </trkpt>
      <trkpt lat="50.1751" lon="4.08032">
        <ele>196.7</ele>
        <time>2020-06-24T15:30:10Z</time>
      </trkpt>
      <trkpt lat="50.17505" lon="4.08032">
        <ele>196.8</ele>
        <time>2020-06-24T15:30:11Z</time>
      </trkpt>
      <trkpt lat="50.17501" lon="4.08033">
        <ele>196.9</ele>
        <time>2020-06-24T15:30:12Z</time>
      </trkpt>
      <trkpt lat="50.17496" lon="4.08034">
        <ele>197</ele>
        <time>2020-06-24T15:30:13Z</time>
      </trkpt>
      <trkpt lat="50.17491" lon="4.08034">
        <ele>197.1</ele>
        <time>2020-06-24T15:30:14Z</time>
      </trkpt>
      <trkpt lat="50.17486" lon="4.08034">
        <ele>197.2</ele>
        <time>2020-06-24T15:30:15Z</time>
      </trkpt>
      <trkpt lat="50.1748" lon="4.08036">
        <ele>197.4</ele>
        <time>2020-06-24T15:30:16Z</time>
      </trkpt>
      <trkpt lat="50.17477" lon="4.08036">
        <ele>197.5</ele>
        <time>2020-06-24T15:30:17Z</time>
      </trkpt>
      <trkpt lat="50.17473" lon="4.08037">
        <ele>197.6</ele>
        <time>2020-06-24T15:30:18Z</time>
      </trkpt>
      <trkpt lat="50.17469" lon="4.08036">
        <ele>197.7</ele>
        <time>2020-06-24T15:30:19Z</time>
      </trkpt>
      <trkpt lat="50.17465" lon="4.08036">
        <ele>197.9</ele>
        <time>2020-06-24T15:30:20Z</time>
      </trkpt>
      <trkpt lat="50.17461" lon="4.08035">
        <ele>198</ele>
        <time>2020-06-24T15:30:21Z</time>
      </trkpt>
      <trkpt lat="50.17456" lon="4.08034">
        <ele>198.2</ele>
        <time>2020-06-24T15:30:22Z</time>
      </trkpt>
      <trkpt lat="50.17451" lon="4.08033">
        <ele>198.3</ele>
        <time>2020-06-24T15:30:23Z</time>
      </trkpt>
      <trkpt lat="50.17448" lon="4.08032">
        <ele>198.4</ele>
        <time>2020-06-24T15:30:24Z</time>
      </trkpt>
      <trkpt lat="50.17447" lon="4.08032">
        <ele>198.4</ele>
        <time>2020-06-24T15:30:25Z</time>
      </trkpt>
      <trkpt lat="50.17445" lon="4.08033">
        <ele>198.5</ele>
        <time>2020-06-24T15:30:26Z</time>
      </trkpt>
      <trkpt lat="50.17445" lon="4.08034">
        <ele>198.5</ele>
        <time>2020-06-24T15:30:27Z</time>
      </trkpt>
      <trkpt lat="50.17444" lon="4.08034">
        <ele>198.5</ele>
        <time>2020-06-24T15:30:28Z</time>
      </trkpt>
      <trkpt lat="50.17443" lon="4.08034">
        <ele>198.5</ele>
        <time>2020-06-24T15:30:29Z</time>
      </trkpt>
      <trkpt lat="50.17443" lon="4.08035">
        <ele>198.5</ele>
        <time>2020-06-24T15:30:30Z</time>
      </trkpt>
      <trkpt lat="50.17442" lon="4.08033">
        <ele>198.5</ele>
        <time>2020-06-24T15:30:31Z</time>
      </trkpt>
      <trkpt lat="50.17441" lon="4.08031">
        <ele>198.5</ele>
        <time>2020-06-24T15:30:32Z</time>
      </trkpt>
      <trkpt lat="50.17441" lon="4.08028">
        <ele>198.5</ele>
        <time>2020-06-24T15:30:33Z</time>
      </trkpt>
      <trkpt lat="50.17442" lon="4.08027">
        <ele>198.5</ele>
        <time>2020-06-24T15:30:34Z</time>
      </trkpt>
      <trkpt lat="50.17442" lon="4.08026">
        <ele>198.5</ele>
        <time>2020-06-24T15:30:35Z</time>
      </trkpt>
      <trkpt lat="50.17442" lon="4.08026">
        <ele>198.5</ele>
        <time>2020-06-24T15:30:36Z</time>
      </trkpt>
      <trkpt lat="50.17444" lon="4.08027">
        <ele>198.5</ele>
        <time>2020-06-24T15:30:37Z</time>
      </trkpt>
      <trkpt lat="50.17444" lon="4.08029">
        <ele>198.5</ele>
        <time>2020-06-24T15:30:38Z</time>
      </trkpt>
      <trkpt lat="50.17444" lon="4.08031">
        <ele>198.5</ele>
        <time>2020-06-24T15:30:39Z</time>
      </trkpt>
      <trkpt lat="50.17444" lon="4.08035">
        <ele>198.5</ele>
        <time>2020-06-24T15:30:40Z</time>
      </trkpt>
      <trkpt lat="50.17443" lon="4.08036">
        <ele>198.5</ele>
        <time>2020-06-24T15:30:41Z</time>
      </trkpt>
      <trkpt lat="50.17443" lon="4.08038">
        <ele>198.5</ele>
        <time>2020-06-24T15:30:42Z</time>
      </trkpt>
      <trkpt lat="50.17442" lon="4.08041">
        <ele>198.5</ele>
        <time>2020-06-24T15:30:43Z</time>
      </trkpt>
      <trkpt lat="50.17441" lon="4.08046">
        <ele>198.5</ele>
        <time>2020-06-24T15:30:44Z</time>
      </trkpt>
      <trkpt lat="50.17439" lon="4.08051">
        <ele>198.5</ele>
        <time>2020-06-24T15:30:45Z</time>
      </trkpt>
      <trkpt lat="50.17439" lon="4.08053">
        <ele>198.5</ele>
        <time>2020-06-24T15:30:46Z</time>
      </trkpt>
      <trkpt lat="50.17438" lon="4.08059">
        <ele>198.5</ele>
        <time>2020-06-24T15:30:47Z</time>
      </trkpt>
      <trkpt lat="50.17438" lon="4.08061">
        <ele>198.5</ele>
        <time>2020-06-24T15:30:48Z</time>
      </trkpt>
      <trkpt lat="50.17437" lon="4.08066">
        <ele>198.5</ele>
        <time>2020-06-24T15:30:49Z</time>
      </trkpt>
      <trkpt lat="50.17437" lon="4.08068">
        <ele>198.5</ele>
        <time>2020-06-24T15:30:50Z</time>
      </trkpt>
      <trkpt lat="50.17437" lon="4.08071">
        <ele>198.5</ele>
        <time>2020-06-24T15:30:51Z</time>
      </trkpt>
      <trkpt lat="50.17437" lon="4.08072">
        <ele>198.5</ele>
        <time>2020-06-24T15:30:52Z</time>
      </trkpt>
      <trkpt lat="50.17437" lon="4.08074">
        <ele>198.5</ele>
        <time>2020-06-24T15:30:53Z</time>
      </trkpt>
      <trkpt lat="50.17436" lon="4.08078">
        <ele>198.5</ele>
        <time>2020-06-24T15:30:54Z</time>
      </trkpt>
      <trkpt lat="50.17436" lon="4.0808">
        <ele>198.5</ele>
        <time>2020-06-24T15:30:55Z</time>
      </trkpt>
      <trkpt lat="50.17436" lon="4.08085">
        <ele>198.5</ele>
        <time>2020-06-24T15:30:56Z</time>
      </trkpt>
      <trkpt lat="50.17436" lon="4.08087">
        <ele>198.5</ele>
        <time>2020-06-24T15:30:57Z</time>
      </trkpt>
      <trkpt lat="50.17435" lon="4.08093">
        <ele>198.5</ele>
        <time>2020-06-24T15:30:58Z</time>
      </trkpt>
      <trkpt lat="50.17435" lon="4.08095">
        <ele>198.5</ele>
        <time>2020-06-24T15:30:59Z</time>
      </trkpt>
      <trkpt lat="50.17434" lon="4.08099">
        <ele>198.5</ele>
        <time>2020-06-24T15:31:00Z</time>
      </trkpt>
      <trkpt lat="50.17434" lon="4.08106">
        <ele>198.5</ele>
        <time>2020-06-24T15:31:01Z</time>
      </trkpt>
      <trkpt lat="50.17433" lon="4.08113">
        <ele>198.6</ele>
        <time>2020-06-24T15:31:02Z</time>
      </trkpt>
      <trkpt lat="50.17433" lon="4.0812">
        <ele>198.6</ele>
        <time>2020-06-24T15:31:03Z</time>
      </trkpt>
      <trkpt lat="50.17433" lon="4.08127">
        <ele>198.7</ele>
        <time>2020-06-24T15:31:04Z</time>
      </trkpt>
      <trkpt lat="50.17432" lon="4.08133">
        <ele>198.7</ele>
        <time>2020-06-24T15:31:05Z</time>
      </trkpt>
      <trkpt lat="50.17431" lon="4.08139">
        <ele>198.8</ele>
        <time>2020-06-24T15:31:06Z</time>
      </trkpt>
      <trkpt lat="50.1743" lon="4.08145">
        <ele>198.8</ele>
        <time>2020-06-24T15:31:07Z</time>
      </trkpt>
      <trkpt lat="50.1743" lon="4.08151">
        <ele>198.9</ele>
        <time>2020-06-24T15:31:08Z</time>
      </trkpt>
      <trkpt lat="50.17429" lon="4.08156">
        <ele>198.9</ele>
        <time>2020-06-24T15:31:09Z</time>
      </trkpt>
      <trkpt lat="50.17428" lon="4.08162">
        <ele>199</ele>
        <time>2020-06-24T15:31:10Z</time>
      </trkpt>
      <trkpt lat="50.17427" lon="4.0817">
        <ele>199.1</ele>
        <time>2020-06-24T15:31:11Z</time>
      </trkpt>
      <trkpt lat="50.17426" lon="4.08178">
        <ele>199.1</ele>
        <time>2020-06-24T15:31:12Z</time>
      </trkpt>
      <trkpt lat="50.17425" lon="4.08186">
        <ele>199.2</ele>
        <time>2020-06-24T15:31:13Z</time>
      </trkpt>
      <trkpt lat="50.17425" lon="4.08192">
        <ele>199.2</ele>
        <time>2020-06-24T15:31:14Z</time>
      </trkpt>
      <trkpt lat="50.17424" lon="4.08199">
        <ele>199.3</ele>
        <time>2020-06-24T15:31:15Z</time>
      </trkpt>
      <trkpt lat="50.17423" lon="4.08206">
        <ele>199.4</ele>
        <time>2020-06-24T15:31:16Z</time>
      </trkpt>
      <trkpt lat="50.17422" lon="4.08213">
        <ele>199.4</ele>
        <time>2020-06-24T15:31:17Z</time>
      </trkpt>
      <trkpt lat="50.17421" lon="4.08221">
        <ele>199.5</ele>
        <time>2020-06-24T15:31:18Z</time>
      </trkpt>
      <trkpt lat="50.1742" lon="4.08229">
        <ele>199.6</ele>
        <time>2020-06-24T15:31:19Z</time>
      </trkpt>
      <trkpt lat="50.17419" lon="4.08235">
        <ele>199.6</ele>
        <time>2020-06-24T15:31:20Z</time>
      </trkpt>
      <trkpt lat="50.17418" lon="4.08244">
        <ele>199.7</ele>
        <time>2020-06-24T15:31:21Z</time>
      </trkpt>
      <trkpt lat="50.17417" lon="4.08251">
        <ele>199.8</ele>
        <time>2020-06-24T15:31:22Z</time>
      </trkpt>
      <trkpt lat="50.17417" lon="4.08258">
        <ele>199.8</ele>
        <time>2020-06-24T15:31:23Z</time>
      </trkpt>
      <trkpt lat="50.17416" lon="4.08265">
        <ele>199.9</ele>
        <time>2020-06-24T15:31:24Z</time>
      </trkpt>
      <trkpt lat="50.17415" lon="4.08272">
        <ele>200</ele>
        <time>2020-06-24T15:31:25Z</time>
      </trkpt>
      <trkpt lat="50.17415" lon="4.08278">
        <ele>200</ele>
        <time>2020-06-24T15:31:26Z</time>
      </trkpt>
      <trkpt lat="50.17414" lon="4.08284">
        <ele>200.1</ele>
        <time>2020-06-24T15:31:27Z</time>
      </trkpt>
      <trkpt lat="50.17414" lon="4.08291">
        <ele>200.1</ele>
        <time>2020-06-24T15:31:28Z</time>
      </trkpt>
      <trkpt lat="50.17413" lon="4.08299">
        <ele>200.2</ele>
        <time>2020-06-24T15:31:29Z</time>
      </trkpt>
      <trkpt lat="50.17413" lon="4.08305">
        <ele>200.2</ele>
        <time>2020-06-24T15:31:30Z</time>
      </trkpt>
      <trkpt lat="50.17412" lon="4.08313">
        <ele>200.3</ele>
        <time>2020-06-24T15:31:31Z</time>
      </trkpt>
      <trkpt lat="50.17412" lon="4.0832">
        <ele>200.3</ele>
        <time>2020-06-24T15:31:32Z</time>
      </trkpt>
      <trkpt lat="50.17411" lon="4.08327">
        <ele>200.3</ele>
        <time>2020-06-24T15:31:33Z</time>
      </trkpt>
      <trkpt lat="50.1741" lon="4.08337">
        <ele>200.4</ele>
        <time>2020-06-24T15:31:34Z</time>
      </trkpt>
      <trkpt lat="50.1741" lon="4.08344">
        <ele>200.4</ele>
        <time>2020-06-24T15:31:35Z</time>
      </trkpt>
      <trkpt lat="50.17409" lon="4.0835">
        <ele>200.3</ele>
        <time>2020-06-24T15:31:36Z</time>
      </trkpt>
      <trkpt lat="50.17408" lon="4.08358">
        <ele>200.3</ele>
        <time>2020-06-24T15:31:37Z</time>
      </trkpt>
      <trkpt lat="50.17407" lon="4.08365">
        <ele>200.3</ele>
        <time>2020-06-24T15:31:38Z</time>
      </trkpt>
      <trkpt lat="50.17407" lon="4.08372">
        <ele>200.3</ele>
        <time>2020-06-24T15:31:39Z</time>
      </trkpt>
      <trkpt lat="50.17406" lon="4.0838">
        <ele>200.3</ele>
        <time>2020-06-24T15:31:40Z</time>
      </trkpt>
      <trkpt lat="50.17405" lon="4.08388">
        <ele>200.2</ele>
        <time>2020-06-24T15:31:41Z</time>
      </trkpt>
      <trkpt lat="50.17405" lon="4.08395">
        <ele>200.2</ele>
        <time>2020-06-24T15:31:42Z</time>
      </trkpt>
      <trkpt lat="50.17404" lon="4.08402">
        <ele>200.1</ele>
        <time>2020-06-24T15:31:43Z</time>
      </trkpt>
      <trkpt lat="50.17403" lon="4.08409">
        <ele>200</ele>
        <time>2020-06-24T15:31:44Z</time>
      </trkpt>
      <trkpt lat="50.17403" lon="4.08417">
        <ele>200</ele>
        <time>2020-06-24T15:31:45Z</time>
      </trkpt>
      <trkpt lat="50.17402" lon="4.08424">
        <ele>199.9</ele>
        <time>2020-06-24T15:31:46Z</time>
      </trkpt>
      <trkpt lat="50.174" lon="4.08431">
        <ele>199.8</ele>
        <time>2020-06-24T15:31:47Z</time>
      </trkpt>
      <trkpt lat="50.17399" lon="4.08437">
        <ele>199.7</ele>
        <time>2020-06-24T15:31:48Z</time>
      </trkpt>
      <trkpt lat="50.17398" lon="4.08443">
        <ele>199.6</ele>
        <time>2020-06-24T15:31:49Z</time>
      </trkpt>
      <trkpt lat="50.17397" lon="4.08451">
        <ele>199.5</ele>
        <time>2020-06-24T15:31:50Z</time>
      </trkpt>
      <trkpt lat="50.17397" lon="4.08458">
        <ele>199.4</ele>
        <time>2020-06-24T15:31:51Z</time>
      </trkpt>
      <trkpt lat="50.17396" lon="4.08465">
        <ele>199.3</ele>
        <time>2020-06-24T15:31:52Z</time>
      </trkpt>
      <trkpt lat="50.17394" lon="4.08474">
        <ele>199.1</ele>
        <time>2020-06-24T15:31:53Z</time>
      </trkpt>
      <trkpt lat="50.17393" lon="4.08481">
        <ele>199</ele>
        <time>2020-06-24T15:31:54Z</time>
      </trkpt>
      <trkpt lat="50.17392" lon="4.0849">
        <ele>198.9</ele>
        <time>2020-06-24T15:31:55Z</time>
      </trkpt>
      <trkpt lat="50.17392" lon="4.08494">
        <ele>198.8</ele>
        <time>2020-06-24T15:31:56Z</time>
      </trkpt>
      <trkpt lat="50.17391" lon="4.08503">
        <ele>198.7</ele>
        <time>2020-06-24T15:31:57Z</time>
      </trkpt>
      <trkpt lat="50.1739" lon="4.08513">
        <ele>198.5</ele>
        <time>2020-06-24T15:31:58Z</time>
      </trkpt>
      <trkpt lat="50.1739" lon="4.08525">
        <ele>198.3</ele>
        <time>2020-06-24T15:31:59Z</time>
      </trkpt>
      <trkpt lat="50.17389" lon="4.08533">
        <ele>198.1</ele>
        <time>2020-06-24T15:32:00Z</time>
      </trkpt>
      <trkpt lat="50.17387" lon="4.08542">
        <ele>198</ele>
        <time>2020-06-24T15:32:01Z</time>
      </trkpt>
      <trkpt lat="50.17386" lon="4.0855">
        <ele>197.9</ele>
        <time>2020-06-24T15:32:02Z</time>
      </trkpt>
      <trkpt lat="50.17386" lon="4.08558">
        <ele>197.8</ele>
        <time>2020-06-24T15:32:03Z</time>
      </trkpt>
      <trkpt lat="50.17385" lon="4.08566">
        <ele>197.7</ele>
        <time>2020-06-24T15:32:04Z</time>
      </trkpt>
      <trkpt lat="50.17384" lon="4.08575">
        <ele>197.6</ele>
        <time>2020-06-24T15:32:05Z</time>
      </trkpt>
      <trkpt lat="50.17384" lon="4.08585">
        <ele>197.4</ele>
        <time>2020-06-24T15:32:06Z</time>
      </trkpt>
      <trkpt lat="50.17384" lon="4.08593">
        <ele>197.3</ele>
        <time>2020-06-24T15:32:07Z</time>
      </trkpt>
      <trkpt lat="50.17384" lon="4.08603">
        <ele>197.1</ele>
        <time>2020-06-24T15:32:08Z</time>
      </trkpt>
      <trkpt lat="50.17383" lon="4.08611">
        <ele>197</ele>
        <time>2020-06-24T15:32:09Z</time>
      </trkpt>
      <trkpt lat="50.17383" lon="4.08619">
        <ele>197</ele>
        <time>2020-06-24T15:32:10Z</time>
      </trkpt>
      <trkpt lat="50.17382" lon="4.08625">
        <ele>196.9</ele>
        <time>2020-06-24T15:32:11Z</time>
      </trkpt>
      <trkpt lat="50.17381" lon="4.08632">
        <ele>196.9</ele>
        <time>2020-06-24T15:32:12Z</time>
      </trkpt>
      <trkpt lat="50.17379" lon="4.08639">
        <ele>196.8</ele>
        <time>2020-06-24T15:32:13Z</time>
      </trkpt>
      <trkpt lat="50.17377" lon="4.08644">
        <ele>196.7</ele>
        <time>2020-06-24T15:32:14Z</time>
      </trkpt>
      <trkpt lat="50.17377" lon="4.08648">
        <ele>196.6</ele>
        <time>2020-06-24T15:32:15Z</time>
      </trkpt>
      <trkpt lat="50.17377" lon="4.0865">
        <ele>196.6</ele>
        <time>2020-06-24T15:32:16Z</time>
      </trkpt>
      <trkpt lat="50.17376" lon="4.08651">
        <ele>196.5</ele>
        <time>2020-06-24T15:32:17Z</time>
      </trkpt>
      <trkpt lat="50.17376" lon="4.08652">
        <ele>196.5</ele>
        <time>2020-06-24T15:32:18Z</time>
      </trkpt>
      <trkpt lat="50.17376" lon="4.08653">
        <ele>196.5</ele>
        <time>2020-06-24T15:32:19Z</time>
      </trkpt>
      <trkpt lat="50.17375" lon="4.08654">
        <ele>196.5</ele>
        <time>2020-06-24T15:32:20Z</time>
      </trkpt>
      <trkpt lat="50.17375" lon="4.08655">
        <ele>196.4</ele>
        <time>2020-06-24T15:32:21Z</time>
      </trkpt>
      <trkpt lat="50.17378" lon="4.08659">
        <ele>196.4</ele>
        <time>2020-06-24T15:32:22Z</time>
      </trkpt>
      <trkpt lat="50.1738" lon="4.08661">
        <ele>196.2</ele>
        <time>2020-06-24T15:32:23Z</time>
      </trkpt>
      <trkpt lat="50.17382" lon="4.08663">
        <ele>196</ele>
        <time>2020-06-24T15:32:24Z</time>
      </trkpt>
      <trkpt lat="50.17386" lon="4.08665">
        <ele>195.8</ele>
        <time>2020-06-24T15:32:25Z</time>
      </trkpt>
      <trkpt lat="50.1739" lon="4.08668">
        <ele>195.5</ele>
        <time>2020-06-24T15:32:26Z</time>
      </trkpt>
      <trkpt lat="50.17394" lon="4.08671">
        <ele>195.2</ele>
        <time>2020-06-24T15:32:27Z</time>
      </trkpt>
      <trkpt lat="50.17397" lon="4.08673">
        <ele>195</ele>
        <time>2020-06-24T15:32:28Z</time>
      </trkpt>
      <trkpt lat="50.17402" lon="4.08674">
        <ele>194.7</ele>
        <time>2020-06-24T15:32:29Z</time>
      </trkpt>
      <trkpt lat="50.17408" lon="4.08676">
        <ele>194.4</ele>
        <time>2020-06-24T15:32:30Z</time>
      </trkpt>
      <trkpt lat="50.17412" lon="4.08678">
        <ele>194.1</ele>
        <time>2020-06-24T15:32:31Z</time>
      </trkpt>
      <trkpt lat="50.17418" lon="4.08682">
        <ele>193.7</ele>
        <time>2020-06-24T15:32:32Z</time>
      </trkpt>
      <trkpt lat="50.17424" lon="4.08685">
        <ele>193.3</ele>
        <time>2020-06-24T15:32:33Z</time>
      </trkpt>
      <trkpt lat="50.1743" lon="4.08688">
        <ele>193.2</ele>
        <time>2020-06-24T15:32:34Z</time>
      </trkpt>
      <trkpt lat="50.17436" lon="4.08691">
        <ele>193</ele>
        <time>2020-06-24T15:32:35Z</time>
      </trkpt>
      <trkpt lat="50.17441" lon="4.08695">
        <ele>192.5</ele>
        <time>2020-06-24T15:32:36Z</time>
      </trkpt>
      <trkpt lat="50.17444" lon="4.08701">
        <ele>192</ele>
        <time>2020-06-24T15:32:37Z</time>
      </trkpt>
      <trkpt lat="50.17444" lon="4.0871">
        <ele>191.5</ele>
        <time>2020-06-24T15:32:38Z</time>
      </trkpt>
      <trkpt lat="50.17443" lon="4.08719">
        <ele>190.9</ele>
        <time>2020-06-24T15:32:39Z</time>
      </trkpt>
      <trkpt lat="50.17443" lon="4.0873">
        <ele>190.2</ele>
        <time>2020-06-24T15:32:40Z</time>
      </trkpt>
      <trkpt lat="50.17442" lon="4.08743">
        <ele>189.3</ele>
        <time>2020-06-24T15:32:41Z</time>
      </trkpt>
      <trkpt lat="50.17442" lon="4.08754">
        <ele>188.5</ele>
        <time>2020-06-24T15:32:42Z</time>
      </trkpt>
      <trkpt lat="50.17444" lon="4.08768">
        <ele>187.6</ele>
        <time>2020-06-24T15:32:43Z</time>
      </trkpt>
      <trkpt lat="50.17448" lon="4.08782">
        <ele>186.8</ele>
        <time>2020-06-24T15:32:44Z</time>
      </trkpt>
      <trkpt lat="50.1745" lon="4.08797">
        <ele>186</ele>
        <time>2020-06-24T15:32:45Z</time>
      </trkpt>
      <trkpt lat="50.17452" lon="4.08811">
        <ele>185.2</ele>
        <time>2020-06-24T15:32:46Z</time>
      </trkpt>
      <trkpt lat="50.17452" lon="4.08825">
        <ele>184.7</ele>
        <time>2020-06-24T15:32:47Z</time>
      </trkpt>
      <trkpt lat="50.17451" lon="4.08838">
        <ele>184.2</ele>
        <time>2020-06-24T15:32:48Z</time>
      </trkpt>
      <trkpt lat="50.17451" lon="4.08849">
        <ele>183.9</ele>
        <time>2020-06-24T15:32:49Z</time>
      </trkpt>
      <trkpt lat="50.17451" lon="4.0886">
        <ele>183.5</ele>
        <time>2020-06-24T15:32:50Z</time>
      </trkpt>
      <trkpt lat="50.1745" lon="4.08874">
        <ele>183.2</ele>
        <time>2020-06-24T15:32:51Z</time>
      </trkpt>
      <trkpt lat="50.1745" lon="4.08888">
        <ele>182.9</ele>
        <time>2020-06-24T15:32:52Z</time>
      </trkpt>
      <trkpt lat="50.17449" lon="4.089">
        <ele>182.8</ele>
        <time>2020-06-24T15:32:53Z</time>
      </trkpt>
      <trkpt lat="50.17448" lon="4.0891">
        <ele>182.8</ele>
        <time>2020-06-24T15:32:54Z</time>
      </trkpt>
      <trkpt lat="50.17448" lon="4.0892">
        <ele>182.7</ele>
        <time>2020-06-24T15:32:55Z</time>
      </trkpt>
      <trkpt lat="50.17447" lon="4.08933">
        <ele>182.9</ele>
        <time>2020-06-24T15:32:56Z</time>
      </trkpt>
      <trkpt lat="50.17447" lon="4.08944">
        <ele>183.2</ele>
        <time>2020-06-24T15:32:57Z</time>
      </trkpt>
      <trkpt lat="50.17446" lon="4.08954">
        <ele>183.4</ele>
        <time>2020-06-24T15:32:58Z</time>
      </trkpt>
      <trkpt lat="50.17446" lon="4.08965">
        <ele>183.7</ele>
        <time>2020-06-24T15:32:59Z</time>
      </trkpt>
      <trkpt lat="50.17446" lon="4.08975">
        <ele>184</ele>
        <time>2020-06-24T15:33:00Z</time>
      </trkpt>
      <trkpt lat="50.17445" lon="4.08984">
        <ele>184.3</ele>
        <time>2020-06-24T15:33:01Z</time>
      </trkpt>
      <trkpt lat="50.17444" lon="4.08995">
        <ele>184.6</ele>
        <time>2020-06-24T15:33:02Z</time>
      </trkpt>
      <trkpt lat="50.17444" lon="4.09004">
        <ele>185</ele>
        <time>2020-06-24T15:33:03Z</time>
      </trkpt>
      <trkpt lat="50.17443" lon="4.09013">
        <ele>185.3</ele>
        <time>2020-06-24T15:33:04Z</time>
      </trkpt>
      <trkpt lat="50.17442" lon="4.09022">
        <ele>185.6</ele>
        <time>2020-06-24T15:33:05Z</time>
      </trkpt>
      <trkpt lat="50.17441" lon="4.0903">
        <ele>185.9</ele>
        <time>2020-06-24T15:33:06Z</time>
      </trkpt>
      <trkpt lat="50.1744" lon="4.09038">
        <ele>186.2</ele>
        <time>2020-06-24T15:33:07Z</time>
      </trkpt>
      <trkpt lat="50.1744" lon="4.09045">
        <ele>186.5</ele>
        <time>2020-06-24T15:33:08Z</time>
      </trkpt>
      <trkpt lat="50.1744" lon="4.0905">
        <ele>186.7</ele>
        <time>2020-06-24T15:33:09Z</time>
      </trkpt>
      <trkpt lat="50.17439" lon="4.09055">
        <ele>186.9</ele>
        <time>2020-06-24T15:33:10Z</time>
      </trkpt>
      <trkpt lat="50.17438" lon="4.0906">
        <ele>187.1</ele>
        <time>2020-06-24T15:33:11Z</time>
      </trkpt>
      <trkpt lat="50.17437" lon="4.09065">
        <ele>187.3</ele>
        <time>2020-06-24T15:33:12Z</time>
      </trkpt>
      <trkpt lat="50.17437" lon="4.0907">
        <ele>187.4</ele>
        <time>2020-06-24T15:33:13Z</time>
      </trkpt>
      <trkpt lat="50.17436" lon="4.09074">
        <ele>187.6</ele>
        <time>2020-06-24T15:33:14Z</time>
      </trkpt>
      <trkpt lat="50.17435" lon="4.09081">
        <ele>187.3</ele>
        <time>2020-06-24T15:33:15Z</time>
      </trkpt>
      <trkpt lat="50.17434" lon="4.09084">
        <ele>187.4</ele>
        <time>2020-06-24T15:33:16Z</time>
      </trkpt>
      <trkpt lat="50.17435" lon="4.09089">
        <ele>187.4</ele>
        <time>2020-06-24T15:33:17Z</time>
      </trkpt>
      <trkpt lat="50.17434" lon="4.09094">
        <ele>187.5</ele>
        <time>2020-06-24T15:33:18Z</time>
      </trkpt>
      <trkpt lat="50.17434" lon="4.09098">
        <ele>187.6</ele>
        <time>2020-06-24T15:33:19Z</time>
      </trkpt>
      <trkpt lat="50.17433" lon="4.09104">
        <ele>187.6</ele>
        <time>2020-06-24T15:33:20Z</time>
      </trkpt>
      <trkpt lat="50.17433" lon="4.09105">
        <ele>187.6</ele>
        <time>2020-06-24T15:33:21Z</time>
      </trkpt>
      <trkpt lat="50.17432" lon="4.0911">
        <ele>187.7</ele>
        <time>2020-06-24T15:33:22Z</time>
      </trkpt>
      <trkpt lat="50.17432" lon="4.09112">
        <ele>187.7</ele>
        <time>2020-06-24T15:33:23Z</time>
      </trkpt>
      <trkpt lat="50.17432" lon="4.09118">
        <ele>187.8</ele>
        <time>2020-06-24T15:33:24Z</time>
      </trkpt>
      <trkpt lat="50.17432" lon="4.0912">
        <ele>187.9</ele>
        <time>2020-06-24T15:33:25Z</time>
      </trkpt>
      <trkpt lat="50.17432" lon="4.09125">
        <ele>188</ele>
        <time>2020-06-24T15:33:26Z</time>
      </trkpt>
      <trkpt lat="50.17432" lon="4.0913">
        <ele>188.1</ele>
        <time>2020-06-24T15:33:27Z</time>
      </trkpt>
      <trkpt lat="50.17432" lon="4.09136">
        <ele>188.1</ele>
        <time>2020-06-24T15:33:28Z</time>
      </trkpt>
      <trkpt lat="50.17431" lon="4.09142">
        <ele>188.2</ele>
        <time>2020-06-24T15:33:29Z</time>
      </trkpt>
      <trkpt lat="50.17431" lon="4.09148">
        <ele>188.3</ele>
        <time>2020-06-24T15:33:30Z</time>
      </trkpt>
      <trkpt lat="50.17432" lon="4.09153">
        <ele>188.3</ele>
        <time>2020-06-24T15:33:31Z</time>
      </trkpt>
      <trkpt lat="50.17433" lon="4.09158">
        <ele>188.4</ele>
        <time>2020-06-24T15:33:32Z</time>
      </trkpt>
      <trkpt lat="50.17433" lon="4.09163">
        <ele>188.4</ele>
        <time>2020-06-24T15:33:33Z</time>
      </trkpt>
      <trkpt lat="50.17434" lon="4.09169">
        <ele>188.5</ele>
        <time>2020-06-24T15:33:34Z</time>
      </trkpt>
      <trkpt lat="50.17431" lon="4.09174">
        <ele>188.6</ele>
        <time>2020-06-24T15:33:35Z</time>
      </trkpt>
      <trkpt lat="50.1743" lon="4.09176">
        <ele>188.9</ele>
        <time>2020-06-24T15:33:36Z</time>
      </trkpt>
      <trkpt lat="50.17427" lon="4.09178">
        <ele>189</ele>
        <time>2020-06-24T15:33:37Z</time>
      </trkpt>
      <trkpt lat="50.17423" lon="4.09179">
        <ele>189.2</ele>
        <time>2020-06-24T15:33:38Z</time>
      </trkpt>
      <trkpt lat="50.1742" lon="4.0918">
        <ele>189.3</ele>
        <time>2020-06-24T15:33:39Z</time>
      </trkpt>
      <trkpt lat="50.17415" lon="4.0918">
        <ele>189.5</ele>
        <time>2020-06-24T15:33:40Z</time>
      </trkpt>
      <trkpt lat="50.17412" lon="4.09181">
        <ele>189.6</ele>
        <time>2020-06-24T15:33:41Z</time>
      </trkpt>
      <trkpt lat="50.17408" lon="4.09182">
        <ele>189.9</ele>
        <time>2020-06-24T15:33:42Z</time>
      </trkpt>
      <trkpt lat="50.17404" lon="4.09182">
        <ele>189.9</ele>
        <time>2020-06-24T15:33:43Z</time>
      </trkpt>
      <trkpt lat="50.17401" lon="4.09183">
        <ele>190</ele>
        <time>2020-06-24T15:33:44Z</time>
      </trkpt>
      <trkpt lat="50.17397" lon="4.09184">
        <ele>190</ele>
        <time>2020-06-24T15:33:45Z</time>
      </trkpt>
      <trkpt lat="50.17393" lon="4.09185">
        <ele>190.1</ele>
        <time>2020-06-24T15:33:46Z</time>
      </trkpt>
      <trkpt lat="50.17389" lon="4.09187">
        <ele>190.2</ele>
        <time>2020-06-24T15:33:47Z</time>
      </trkpt>
      <trkpt lat="50.17387" lon="4.09187">
        <ele>190.2</ele>
        <time>2020-06-24T15:33:48Z</time>
      </trkpt>
      <trkpt lat="50.17383" lon="4.09188">
        <ele>190.3</ele>
        <time>2020-06-24T15:33:49Z</time>
      </trkpt>
      <trkpt lat="50.1738" lon="4.09189">
        <ele>190.3</ele>
        <time>2020-06-24T15:33:50Z</time>
      </trkpt>
      <trkpt lat="50.17379" lon="4.09189">
        <ele>190.4</ele>
        <time>2020-06-24T15:33:51Z</time>
      </trkpt>
      <trkpt lat="50.17376" lon="4.09191">
        <ele>190.4</ele>
        <time>2020-06-24T15:33:52Z</time>
      </trkpt>
      <trkpt lat="50.17373" lon="4.09193">
        <ele>190.4</ele>
        <time>2020-06-24T15:33:53Z</time>
      </trkpt>
      <trkpt lat="50.17369" lon="4.09197">
        <ele>190.5</ele>
        <time>2020-06-24T15:33:54Z</time>
      </trkpt>
      <trkpt lat="50.17365" lon="4.09203">
        <ele>190.5</ele>
        <time>2020-06-24T15:33:55Z</time>
      </trkpt>
      <trkpt lat="50.17363" lon="4.09206">
        <ele>190.5</ele>
        <time>2020-06-24T15:33:56Z</time>
      </trkpt>
      <trkpt lat="50.17363" lon="4.09211">
        <ele>190.5</ele>
        <time>2020-06-24T15:33:57Z</time>
      </trkpt>
      <trkpt lat="50.17363" lon="4.09214">
        <ele>190.5</ele>
        <time>2020-06-24T15:33:58Z</time>
      </trkpt>
      <trkpt lat="50.17363" lon="4.09219">
        <ele>190.5</ele>
        <time>2020-06-24T15:33:59Z</time>
      </trkpt>
      <trkpt lat="50.17362" lon="4.09224">
        <ele>190.5</ele>
        <time>2020-06-24T15:34:00Z</time>
      </trkpt>
      <trkpt lat="50.17362" lon="4.09228">
        <ele>190.5</ele>
        <time>2020-06-24T15:34:01Z</time>
      </trkpt>
      <trkpt lat="50.17363" lon="4.09233">
        <ele>190.5</ele>
        <time>2020-06-24T15:34:02Z</time>
      </trkpt>
      <trkpt lat="50.17363" lon="4.0924">
        <ele>190.5</ele>
        <time>2020-06-24T15:34:03Z</time>
      </trkpt>
      <trkpt lat="50.17363" lon="4.09244">
        <ele>190.5</ele>
        <time>2020-06-24T15:34:04Z</time>
      </trkpt>
      <trkpt lat="50.17364" lon="4.09249">
        <ele>190.6</ele>
        <time>2020-06-24T15:34:05Z</time>
      </trkpt>
      <trkpt lat="50.17364" lon="4.09254">
        <ele>190.6</ele>
        <time>2020-06-24T15:34:06Z</time>
      </trkpt>
      <trkpt lat="50.17364" lon="4.09259">
        <ele>190.6</ele>
        <time>2020-06-24T15:34:07Z</time>
      </trkpt>
      <trkpt lat="50.17364" lon="4.09266">
        <ele>190.7</ele>
        <time>2020-06-24T15:34:08Z</time>
      </trkpt>
      <trkpt lat="50.17364" lon="4.09272">
        <ele>190.7</ele>
        <time>2020-06-24T15:34:09Z</time>
      </trkpt>
      <trkpt lat="50.17365" lon="4.09277">
        <ele>190.8</ele>
        <time>2020-06-24T15:34:10Z</time>
      </trkpt>
      <trkpt lat="50.17365" lon="4.09283">
        <ele>190.8</ele>
        <time>2020-06-24T15:34:11Z</time>
      </trkpt>
      <trkpt lat="50.17365" lon="4.09288">
        <ele>190.9</ele>
        <time>2020-06-24T15:34:12Z</time>
      </trkpt>
      <trkpt lat="50.17364" lon="4.09293">
        <ele>191</ele>
        <time>2020-06-24T15:34:13Z</time>
      </trkpt>
      <trkpt lat="50.17365" lon="4.09297">
        <ele>191.1</ele>
        <time>2020-06-24T15:34:14Z</time>
      </trkpt>
      <trkpt lat="50.17366" lon="4.09301">
        <ele>191.2</ele>
        <time>2020-06-24T15:34:15Z</time>
      </trkpt>
      <trkpt lat="50.17366" lon="4.09306">
        <ele>191.2</ele>
        <time>2020-06-24T15:34:16Z</time>
      </trkpt>
      <trkpt lat="50.17365" lon="4.09312">
        <ele>191.4</ele>
        <time>2020-06-24T15:34:17Z</time>
      </trkpt>
      <trkpt lat="50.17365" lon="4.09323">
        <ele>191.6</ele>
        <time>2020-06-24T15:34:18Z</time>
      </trkpt>
      <trkpt lat="50.17365" lon="4.09331">
        <ele>191.7</ele>
        <time>2020-06-24T15:34:19Z</time>
      </trkpt>
      <trkpt lat="50.17365" lon="4.09338">
        <ele>191.8</ele>
        <time>2020-06-24T15:34:20Z</time>
      </trkpt>
      <trkpt lat="50.17366" lon="4.09343">
        <ele>191.9</ele>
        <time>2020-06-24T15:34:21Z</time>
      </trkpt>
      <trkpt lat="50.17367" lon="4.09352">
        <ele>192</ele>
        <time>2020-06-24T15:34:22Z</time>
      </trkpt>
      <trkpt lat="50.17367" lon="4.09359">
        <ele>192.1</ele>
        <time>2020-06-24T15:34:23Z</time>
      </trkpt>
      <trkpt lat="50.17366" lon="4.09364">
        <ele>192.2</ele>
        <time>2020-06-24T15:34:24Z</time>
      </trkpt>
      <trkpt lat="50.17364" lon="4.09369">
        <ele>192.3</ele>
        <time>2020-06-24T15:34:25Z</time>
      </trkpt>
      <trkpt lat="50.17363" lon="4.09371">
        <ele>192.3</ele>
        <time>2020-06-24T15:34:26Z</time>
      </trkpt>
      <trkpt lat="50.17361" lon="4.09378">
        <ele>192.4</ele>
        <time>2020-06-24T15:34:27Z</time>
      </trkpt>
      <trkpt lat="50.17359" lon="4.09384">
        <ele>192.5</ele>
        <time>2020-06-24T15:34:28Z</time>
      </trkpt>
      <trkpt lat="50.17356" lon="4.0939">
        <ele>192.5</ele>
        <time>2020-06-24T15:34:29Z</time>
      </trkpt>
      <trkpt lat="50.17353" lon="4.09395">
        <ele>192.7</ele>
        <time>2020-06-24T15:34:30Z</time>
      </trkpt>
      <trkpt lat="50.17352" lon="4.09401">
        <ele>192.8</ele>
        <time>2020-06-24T15:34:31Z</time>
      </trkpt>
      <trkpt lat="50.1735" lon="4.09405">
        <ele>192.8</ele>
        <time>2020-06-24T15:34:32Z</time>
      </trkpt>
      <trkpt lat="50.17348" lon="4.09409">
        <ele>192.9</ele>
        <time>2020-06-24T15:34:33Z</time>
      </trkpt>
      <trkpt lat="50.17346" lon="4.09413">
        <ele>192.9</ele>
        <time>2020-06-24T15:34:34Z</time>
      </trkpt>
      <trkpt lat="50.17343" lon="4.09419">
        <ele>193</ele>
        <time>2020-06-24T15:34:35Z</time>
      </trkpt>
      <trkpt lat="50.17341" lon="4.09425">
        <ele>193.1</ele>
        <time>2020-06-24T15:34:36Z</time>
      </trkpt>
      <trkpt lat="50.17339" lon="4.0943">
        <ele>193.1</ele>
        <time>2020-06-24T15:34:37Z</time>
      </trkpt>
      <trkpt lat="50.17337" lon="4.09434">
        <ele>193.2</ele>
        <time>2020-06-24T15:34:38Z</time>
      </trkpt>
      <trkpt lat="50.17335" lon="4.09438">
        <ele>193.3</ele>
        <time>2020-06-24T15:34:39Z</time>
      </trkpt>
      <trkpt lat="50.17334" lon="4.09443">
        <ele>193.3</ele>
        <time>2020-06-24T15:34:40Z</time>
      </trkpt>
      <trkpt lat="50.17332" lon="4.09447">
        <ele>193.4</ele>
        <time>2020-06-24T15:34:41Z</time>
      </trkpt>
      <trkpt lat="50.1733" lon="4.09452">
        <ele>193.5</ele>
        <time>2020-06-24T15:34:42Z</time>
      </trkpt>
      <trkpt lat="50.17328" lon="4.09458">
        <ele>193.6</ele>
        <time>2020-06-24T15:34:43Z</time>
      </trkpt>
      <trkpt lat="50.17326" lon="4.09463">
        <ele>193.7</ele>
        <time>2020-06-24T15:34:44Z</time>
      </trkpt>
      <trkpt lat="50.17324" lon="4.09468">
        <ele>193.7</ele>
        <time>2020-06-24T15:34:45Z</time>
      </trkpt>
      <trkpt lat="50.17322" lon="4.09473">
        <ele>193.8</ele>
        <time>2020-06-24T15:34:46Z</time>
      </trkpt>
      <trkpt lat="50.17319" lon="4.09479">
        <ele>193.9</ele>
        <time>2020-06-24T15:34:47Z</time>
      </trkpt>
      <trkpt lat="50.17315" lon="4.09483">
        <ele>194</ele>
        <time>2020-06-24T15:34:48Z</time>
      </trkpt>
      <trkpt lat="50.17315" lon="4.0949">
        <ele>194.1</ele>
        <time>2020-06-24T15:34:49Z</time>
      </trkpt>
      <trkpt lat="50.17313" lon="4.09494">
        <ele>194.2</ele>
        <time>2020-06-24T15:34:50Z</time>
      </trkpt>
      <trkpt lat="50.17311" lon="4.09499">
        <ele>194.2</ele>
        <time>2020-06-24T15:34:51Z</time>
      </trkpt>
      <trkpt lat="50.17309" lon="4.09504">
        <ele>194.3</ele>
        <time>2020-06-24T15:34:52Z</time>
      </trkpt>
      <trkpt lat="50.17307" lon="4.09508">
        <ele>194.3</ele>
        <time>2020-06-24T15:34:53Z</time>
      </trkpt>
      <trkpt lat="50.17303" lon="4.09512">
        <ele>194.4</ele>
        <time>2020-06-24T15:34:54Z</time>
      </trkpt>
      <trkpt lat="50.17299" lon="4.09517">
        <ele>194.5</ele>
        <time>2020-06-24T15:34:55Z</time>
      </trkpt>
      <trkpt lat="50.17295" lon="4.09522">
        <ele>194.6</ele>
        <time>2020-06-24T15:34:56Z</time>
      </trkpt>
      <trkpt lat="50.17292" lon="4.09528">
        <ele>194.7</ele>
        <time>2020-06-24T15:34:57Z</time>
      </trkpt>
      <trkpt lat="50.1729" lon="4.09533">
        <ele>194.8</ele>
        <time>2020-06-24T15:34:58Z</time>
      </trkpt>
      <trkpt lat="50.17289" lon="4.09539">
        <ele>194.9</ele>
        <time>2020-06-24T15:34:59Z</time>
      </trkpt>
      <trkpt lat="50.17288" lon="4.09545">
        <ele>195</ele>
        <time>2020-06-24T15:35:00Z</time>
      </trkpt>
      <trkpt lat="50.17285" lon="4.09549">
        <ele>195.1</ele>
        <time>2020-06-24T15:35:01Z</time>
      </trkpt>
      <trkpt lat="50.17282" lon="4.09552">
        <ele>195.1</ele>
        <time>2020-06-24T15:35:02Z</time>
      </trkpt>
      <trkpt lat="50.1728" lon="4.09557">
        <ele>195.2</ele>
        <time>2020-06-24T15:35:03Z</time>
      </trkpt>
      <trkpt lat="50.17278" lon="4.09563">
        <ele>195.3</ele>
        <time>2020-06-24T15:35:04Z</time>
      </trkpt>
      <trkpt lat="50.17278" lon="4.09571">
        <ele>195.4</ele>
        <time>2020-06-24T15:35:05Z</time>
      </trkpt>
      <trkpt lat="50.17276" lon="4.09578">
        <ele>195.5</ele>
        <time>2020-06-24T15:35:06Z</time>
      </trkpt>
      <trkpt lat="50.17274" lon="4.09583">
        <ele>195.6</ele>
        <time>2020-06-24T15:35:07Z</time>
      </trkpt>
      <trkpt lat="50.17272" lon="4.09587">
        <ele>195.7</ele>
        <time>2020-06-24T15:35:08Z</time>
      </trkpt>
      <trkpt lat="50.1727" lon="4.09594">
        <ele>195.9</ele>
        <time>2020-06-24T15:35:09Z</time>
      </trkpt>
      <trkpt lat="50.17268" lon="4.09599">
        <ele>196</ele>
        <time>2020-06-24T15:35:10Z</time>
      </trkpt>
      <trkpt lat="50.17266" lon="4.09603">
        <ele>196.1</ele>
        <time>2020-06-24T15:35:11Z</time>
      </trkpt>
      <trkpt lat="50.17263" lon="4.09609">
        <ele>196.3</ele>
        <time>2020-06-24T15:35:12Z</time>
      </trkpt>
      <trkpt lat="50.17262" lon="4.09614">
        <ele>196.4</ele>
        <time>2020-06-24T15:35:13Z</time>
      </trkpt>
      <trkpt lat="50.1726" lon="4.09619">
        <ele>196.5</ele>
        <time>2020-06-24T15:35:14Z</time>
      </trkpt>
      <trkpt lat="50.17257" lon="4.09623">
        <ele>196.6</ele>
        <time>2020-06-24T15:35:15Z</time>
      </trkpt>
      <trkpt lat="50.17255" lon="4.09628">
        <ele>196.7</ele>
        <time>2020-06-24T15:35:16Z</time>
      </trkpt>
      <trkpt lat="50.17252" lon="4.09633">
        <ele>196.9</ele>
        <time>2020-06-24T15:35:17Z</time>
      </trkpt>
      <trkpt lat="50.1725" lon="4.09638">
        <ele>197</ele>
        <time>2020-06-24T15:35:18Z</time>
      </trkpt>
      <trkpt lat="50.1725" lon="4.09644">
        <ele>197.1</ele>
        <time>2020-06-24T15:35:19Z</time>
      </trkpt>
      <trkpt lat="50.17248" lon="4.09648">
        <ele>197.2</ele>
        <time>2020-06-24T15:35:20Z</time>
      </trkpt>
      <trkpt lat="50.17246" lon="4.09652">
        <ele>197.3</ele>
        <time>2020-06-24T15:35:21Z</time>
      </trkpt>
      <trkpt lat="50.17245" lon="4.09658">
        <ele>197.5</ele>
        <time>2020-06-24T15:35:22Z</time>
      </trkpt>
      <trkpt lat="50.17242" lon="4.09662">
        <ele>197.6</ele>
        <time>2020-06-24T15:35:23Z</time>
      </trkpt>
      <trkpt lat="50.1724" lon="4.09666">
        <ele>197.8</ele>
        <time>2020-06-24T15:35:24Z</time>
      </trkpt>
      <trkpt lat="50.17238" lon="4.0967">
        <ele>197.9</ele>
        <time>2020-06-24T15:35:25Z</time>
      </trkpt>
      <trkpt lat="50.17236" lon="4.09674">
        <ele>198</ele>
        <time>2020-06-24T15:35:26Z</time>
      </trkpt>
      <trkpt lat="50.17234" lon="4.09679">
        <ele>198.2</ele>
        <time>2020-06-24T15:35:27Z</time>
      </trkpt>
      <trkpt lat="50.17233" lon="4.09685">
        <ele>198.3</ele>
        <time>2020-06-24T15:35:28Z</time>
      </trkpt>
      <trkpt lat="50.17232" lon="4.09691">
        <ele>198.5</ele>
        <time>2020-06-24T15:35:29Z</time>
      </trkpt>
      <trkpt lat="50.1723" lon="4.09694">
        <ele>198.7</ele>
        <time>2020-06-24T15:35:30Z</time>
      </trkpt>
      <trkpt lat="50.17228" lon="4.09698">
        <ele>198.9</ele>
        <time>2020-06-24T15:35:31Z</time>
      </trkpt>
      <trkpt lat="50.17226" lon="4.09702">
        <ele>199</ele>
        <time>2020-06-24T15:35:32Z</time>
      </trkpt>
      <trkpt lat="50.17224" lon="4.09706">
        <ele>199.2</ele>
        <time>2020-06-24T15:35:33Z</time>
      </trkpt>
      <trkpt lat="50.17222" lon="4.09711">
        <ele>199.4</ele>
        <time>2020-06-24T15:35:34Z</time>
      </trkpt>
      <trkpt lat="50.1722" lon="4.09717">
        <ele>199.7</ele>
        <time>2020-06-24T15:35:35Z</time>
      </trkpt>
      <trkpt lat="50.17218" lon="4.09721">
        <ele>199.8</ele>
        <time>2020-06-24T15:35:36Z</time>
      </trkpt>
      <trkpt lat="50.17217" lon="4.09725">
        <ele>200</ele>
        <time>2020-06-24T15:35:37Z</time>
      </trkpt>
      <trkpt lat="50.17216" lon="4.0973">
        <ele>200.2</ele>
        <time>2020-06-24T15:35:38Z</time>
      </trkpt>
      <trkpt lat="50.17213" lon="4.09733">
        <ele>200.4</ele>
        <time>2020-06-24T15:35:39Z</time>
      </trkpt>
      <trkpt lat="50.17211" lon="4.09738">
        <ele>200.6</ele>
        <time>2020-06-24T15:35:40Z</time>
      </trkpt>
      <trkpt lat="50.17209" lon="4.09741">
        <ele>200.8</ele>
        <time>2020-06-24T15:35:41Z</time>
      </trkpt>
      <trkpt lat="50.17207" lon="4.09746">
        <ele>201.1</ele>
        <time>2020-06-24T15:35:42Z</time>
      </trkpt>
      <trkpt lat="50.17205" lon="4.09751">
        <ele>201.3</ele>
        <time>2020-06-24T15:35:43Z</time>
      </trkpt>
      <trkpt lat="50.17203" lon="4.09755">
        <ele>201.5</ele>
        <time>2020-06-24T15:35:44Z</time>
      </trkpt>
      <trkpt lat="50.17201" lon="4.09759">
        <ele>201.8</ele>
        <time>2020-06-24T15:35:45Z</time>
      </trkpt>
      <trkpt lat="50.17199" lon="4.09763">
        <ele>202</ele>
        <time>2020-06-24T15:35:46Z</time>
      </trkpt>
      <trkpt lat="50.17197" lon="4.09767">
        <ele>202.2</ele>
        <time>2020-06-24T15:35:47Z</time>
      </trkpt>
      <trkpt lat="50.17196" lon="4.09772">
        <ele>202.5</ele>
        <time>2020-06-24T15:35:48Z</time>
      </trkpt>
      <trkpt lat="50.17195" lon="4.09777">
        <ele>202.7</ele>
        <time>2020-06-24T15:35:49Z</time>
      </trkpt>
      <trkpt lat="50.17193" lon="4.09782">
        <ele>203</ele>
        <time>2020-06-24T15:35:50Z</time>
      </trkpt>
      <trkpt lat="50.17191" lon="4.09786">
        <ele>203.3</ele>
        <time>2020-06-24T15:35:51Z</time>
      </trkpt>
      <trkpt lat="50.17188" lon="4.0979">
        <ele>203.5</ele>
        <time>2020-06-24T15:35:52Z</time>
      </trkpt>
      <trkpt lat="50.17186" lon="4.09794">
        <ele>203.8</ele>
        <time>2020-06-24T15:35:53Z</time>
      </trkpt>
      <trkpt lat="50.17184" lon="4.09798">
        <ele>204.1</ele>
        <time>2020-06-24T15:35:54Z</time>
      </trkpt>
      <trkpt lat="50.17183" lon="4.09802">
        <ele>204.3</ele>
        <time>2020-06-24T15:35:55Z</time>
      </trkpt>
      <trkpt lat="50.17181" lon="4.09806">
        <ele>204.6</ele>
        <time>2020-06-24T15:35:56Z</time>
      </trkpt>
      <trkpt lat="50.17179" lon="4.09811">
        <ele>204.8</ele>
        <time>2020-06-24T15:35:57Z</time>
      </trkpt>
      <trkpt lat="50.17178" lon="4.09816">
        <ele>205.1</ele>
        <time>2020-06-24T15:35:58Z</time>
      </trkpt>
      <trkpt lat="50.17176" lon="4.0982">
        <ele>205.4</ele>
        <time>2020-06-24T15:35:59Z</time>
      </trkpt>
      <trkpt lat="50.17174" lon="4.09824">
        <ele>205.6</ele>
        <time>2020-06-24T15:36:00Z</time>
      </trkpt>
      <trkpt lat="50.17172" lon="4.09829">
        <ele>205.8</ele>
        <time>2020-06-24T15:36:01Z</time>
      </trkpt>
      <trkpt lat="50.17171" lon="4.0983">
        <ele>205.9</ele>
        <time>2020-06-24T15:36:02Z</time>
      </trkpt>
      <trkpt lat="50.17168" lon="4.09832">
        <ele>206</ele>
        <time>2020-06-24T15:36:03Z</time>
      </trkpt>
      <trkpt lat="50.17165" lon="4.09833">
        <ele>206.1</ele>
        <time>2020-06-24T15:36:04Z</time>
      </trkpt>
      <trkpt lat="50.17162" lon="4.09836">
        <ele>206.7</ele>
        <time>2020-06-24T15:36:05Z</time>
      </trkpt>
      <trkpt lat="50.17158" lon="4.09838">
        <ele>206.8</ele>
        <time>2020-06-24T15:36:06Z</time>
      </trkpt>
      <trkpt lat="50.17155" lon="4.09839">
        <ele>207</ele>
        <time>2020-06-24T15:36:07Z</time>
      </trkpt>
      <trkpt lat="50.17151" lon="4.09841">
        <ele>207.1</ele>
        <time>2020-06-24T15:36:08Z</time>
      </trkpt>
      <trkpt lat="50.17148" lon="4.09842">
        <ele>207.2</ele>
        <time>2020-06-24T15:36:09Z</time>
      </trkpt>
      <trkpt lat="50.17143" lon="4.09843">
        <ele>207.3</ele>
        <time>2020-06-24T15:36:10Z</time>
      </trkpt>
      <trkpt lat="50.17139" lon="4.09844">
        <ele>207.4</ele>
        <time>2020-06-24T15:36:11Z</time>
      </trkpt>
      <trkpt lat="50.17135" lon="4.09845">
        <ele>207.5</ele>
        <time>2020-06-24T15:36:12Z</time>
      </trkpt>
      <trkpt lat="50.17131" lon="4.09845">
        <ele>207.6</ele>
        <time>2020-06-24T15:36:13Z</time>
      </trkpt>
      <trkpt lat="50.17127" lon="4.09845">
        <ele>207.7</ele>
        <time>2020-06-24T15:36:14Z</time>
      </trkpt>
      <trkpt lat="50.17122" lon="4.09846">
        <ele>207.8</ele>
        <time>2020-06-24T15:36:15Z</time>
      </trkpt>
      <trkpt lat="50.17118" lon="4.09847">
        <ele>207.8</ele>
        <time>2020-06-24T15:36:16Z</time>
      </trkpt>
      <trkpt lat="50.17115" lon="4.09846">
        <ele>207.9</ele>
        <time>2020-06-24T15:36:17Z</time>
      </trkpt>
      <trkpt lat="50.1711" lon="4.09845">
        <ele>207.9</ele>
        <time>2020-06-24T15:36:18Z</time>
      </trkpt>
      <trkpt lat="50.17106" lon="4.09846">
        <ele>208</ele>
        <time>2020-06-24T15:36:19Z</time>
      </trkpt>
      <trkpt lat="50.17101" lon="4.09847">
        <ele>208</ele>
        <time>2020-06-24T15:36:20Z</time>
      </trkpt>
      <trkpt lat="50.17096" lon="4.09847">
        <ele>208.1</ele>
        <time>2020-06-24T15:36:21Z</time>
      </trkpt>
      <trkpt lat="50.17092" lon="4.09846">
        <ele>208.1</ele>
        <time>2020-06-24T15:36:22Z</time>
      </trkpt>
      <trkpt lat="50.17086" lon="4.09846">
        <ele>208.1</ele>
        <time>2020-06-24T15:36:23Z</time>
      </trkpt>
      <trkpt lat="50.17081" lon="4.09847">
        <ele>208.1</ele>
        <time>2020-06-24T15:36:24Z</time>
      </trkpt>
      <trkpt lat="50.17076" lon="4.09848">
        <ele>208.1</ele>
        <time>2020-06-24T15:36:25Z</time>
      </trkpt>
      <trkpt lat="50.17071" lon="4.09849">
        <ele>208.1</ele>
        <time>2020-06-24T15:36:26Z</time>
      </trkpt>
      <trkpt lat="50.17067" lon="4.09849">
        <ele>208.1</ele>
        <time>2020-06-24T15:36:27Z</time>
      </trkpt>
      <trkpt lat="50.17063" lon="4.09848">
        <ele>208.1</ele>
        <time>2020-06-24T15:36:28Z</time>
      </trkpt>
      <trkpt lat="50.1706" lon="4.09849">
        <ele>208.2</ele>
        <time>2020-06-24T15:36:29Z</time>
      </trkpt>
      <trkpt lat="50.17054" lon="4.09848">
        <ele>208.2</ele>
        <time>2020-06-24T15:36:30Z</time>
      </trkpt>
      <trkpt lat="50.17049" lon="4.09847">
        <ele>208.3</ele>
        <time>2020-06-24T15:36:31Z</time>
      </trkpt>
      <trkpt lat="50.17042" lon="4.09847">
        <ele>208.4</ele>
        <time>2020-06-24T15:36:32Z</time>
      </trkpt>
      <trkpt lat="50.17037" lon="4.09846">
        <ele>208.4</ele>
        <time>2020-06-24T15:36:33Z</time>
      </trkpt>
      <trkpt lat="50.17032" lon="4.09847">
        <ele>208.5</ele>
        <time>2020-06-24T15:36:34Z</time>
      </trkpt>
      <trkpt lat="50.17026" lon="4.09847">
        <ele>208.5</ele>
        <time>2020-06-24T15:36:35Z</time>
      </trkpt>
      <trkpt lat="50.17021" lon="4.09847">
        <ele>208.6</ele>
        <time>2020-06-24T15:36:36Z</time>
      </trkpt>
      <trkpt lat="50.17017" lon="4.09847">
        <ele>208.6</ele>
        <time>2020-06-24T15:36:37Z</time>
      </trkpt>
      <trkpt lat="50.17012" lon="4.09846">
        <ele>208.7</ele>
        <time>2020-06-24T15:36:38Z</time>
      </trkpt>
      <trkpt lat="50.17007" lon="4.09845">
        <ele>208.7</ele>
        <time>2020-06-24T15:36:39Z</time>
      </trkpt>
      <trkpt lat="50.17002" lon="4.09845">
        <ele>208.8</ele>
        <time>2020-06-24T15:36:40Z</time>
      </trkpt>
      <trkpt lat="50.16997" lon="4.09846">
        <ele>208.9</ele>
        <time>2020-06-24T15:36:41Z</time>
      </trkpt>
      <trkpt lat="50.16992" lon="4.09845">
        <ele>209</ele>
        <time>2020-06-24T15:36:42Z</time>
      </trkpt>
      <trkpt lat="50.16987" lon="4.09847">
        <ele>209.1</ele>
        <time>2020-06-24T15:36:43Z</time>
      </trkpt>
      <trkpt lat="50.16982" lon="4.09848">
        <ele>209.2</ele>
        <time>2020-06-24T15:36:44Z</time>
      </trkpt>
      <trkpt lat="50.16977" lon="4.09848">
        <ele>209.3</ele>
        <time>2020-06-24T15:36:45Z</time>
      </trkpt>
      <trkpt lat="50.16972" lon="4.09848">
        <ele>209.4</ele>
        <time>2020-06-24T15:36:46Z</time>
      </trkpt>
      <trkpt lat="50.16968" lon="4.09848">
        <ele>209.4</ele>
        <time>2020-06-24T15:36:47Z</time>
      </trkpt>
      <trkpt lat="50.16964" lon="4.09849">
        <ele>209.5</ele>
        <time>2020-06-24T15:36:48Z</time>
      </trkpt>
      <trkpt lat="50.16958" lon="4.09848">
        <ele>209.5</ele>
        <time>2020-06-24T15:36:49Z</time>
      </trkpt>
      <trkpt lat="50.16953" lon="4.09849">
        <ele>209.6</ele>
        <time>2020-06-24T15:36:50Z</time>
      </trkpt>
      <trkpt lat="50.16946" lon="4.0985">
        <ele>209.7</ele>
        <time>2020-06-24T15:36:51Z</time>
      </trkpt>
      <trkpt lat="50.16942" lon="4.09853">
        <ele>209.8</ele>
        <time>2020-06-24T15:36:52Z</time>
      </trkpt>
      <trkpt lat="50.16937" lon="4.09852">
        <ele>209.9</ele>
        <time>2020-06-24T15:36:53Z</time>
      </trkpt>
      <trkpt lat="50.16933" lon="4.09852">
        <ele>209.9</ele>
        <time>2020-06-24T15:36:54Z</time>
      </trkpt>
      <trkpt lat="50.16928" lon="4.09852">
        <ele>210</ele>
        <time>2020-06-24T15:36:55Z</time>
      </trkpt>
      <trkpt lat="50.16923" lon="4.09853">
        <ele>210.1</ele>
        <time>2020-06-24T15:36:56Z</time>
      </trkpt>
      <trkpt lat="50.16918" lon="4.09854">
        <ele>210.2</ele>
        <time>2020-06-24T15:36:57Z</time>
      </trkpt>
      <trkpt lat="50.16913" lon="4.09855">
        <ele>210.3</ele>
        <time>2020-06-24T15:36:58Z</time>
      </trkpt>
      <trkpt lat="50.16908" lon="4.09856">
        <ele>210.4</ele>
        <time>2020-06-24T15:36:59Z</time>
      </trkpt>
      <trkpt lat="50.16903" lon="4.09857">
        <ele>210.5</ele>
        <time>2020-06-24T15:37:00Z</time>
      </trkpt>
      <trkpt lat="50.16898" lon="4.09858">
        <ele>210.6</ele>
        <time>2020-06-24T15:37:01Z</time>
      </trkpt>
      <trkpt lat="50.16893" lon="4.09858">
        <ele>210.6</ele>
        <time>2020-06-24T15:37:02Z</time>
      </trkpt>
      <trkpt lat="50.16888" lon="4.09859">
        <ele>210.7</ele>
        <time>2020-06-24T15:37:03Z</time>
      </trkpt>
      <trkpt lat="50.16883" lon="4.09859">
        <ele>210.8</ele>
        <time>2020-06-24T15:37:04Z</time>
      </trkpt>
      <trkpt lat="50.16878" lon="4.0986">
        <ele>210.8</ele>
        <time>2020-06-24T15:37:05Z</time>
      </trkpt>
      <trkpt lat="50.16873" lon="4.09861">
        <ele>210.9</ele>
        <time>2020-06-24T15:37:06Z</time>
      </trkpt>
      <trkpt lat="50.16867" lon="4.09862">
        <ele>211</ele>
        <time>2020-06-24T15:37:07Z</time>
      </trkpt>
      <trkpt lat="50.16862" lon="4.09863">
        <ele>211.2</ele>
        <time>2020-06-24T15:37:08Z</time>
      </trkpt>
      <trkpt lat="50.16858" lon="4.09863">
        <ele>211.3</ele>
        <time>2020-06-24T15:37:09Z</time>
      </trkpt>
      <trkpt lat="50.16853" lon="4.09865">
        <ele>211.4</ele>
        <time>2020-06-24T15:37:10Z</time>
      </trkpt>
      <trkpt lat="50.16848" lon="4.09866">
        <ele>211.5</ele>
        <time>2020-06-24T15:37:11Z</time>
      </trkpt>
      <trkpt lat="50.16843" lon="4.09869">
        <ele>211.6</ele>
        <time>2020-06-24T15:37:12Z</time>
      </trkpt>
      <trkpt lat="50.16838" lon="4.0987">
        <ele>211.6</ele>
        <time>2020-06-24T15:37:13Z</time>
      </trkpt>
      <trkpt lat="50.16833" lon="4.0987">
        <ele>211.8</ele>
        <time>2020-06-24T15:37:14Z</time>
      </trkpt>
      <trkpt lat="50.16828" lon="4.09872">
        <ele>211.9</ele>
        <time>2020-06-24T15:37:15Z</time>
      </trkpt>
      <trkpt lat="50.16823" lon="4.09875">
        <ele>212</ele>
        <time>2020-06-24T15:37:16Z</time>
      </trkpt>
      <trkpt lat="50.16819" lon="4.09877">
        <ele>212</ele>
        <time>2020-06-24T15:37:17Z</time>
      </trkpt>
      <trkpt lat="50.16814" lon="4.09879">
        <ele>212.1</ele>
        <time>2020-06-24T15:37:18Z</time>
      </trkpt>
      <trkpt lat="50.1681" lon="4.09881">
        <ele>212.1</ele>
        <time>2020-06-24T15:37:19Z</time>
      </trkpt>
      <trkpt lat="50.16806" lon="4.09883">
        <ele>212.1</ele>
        <time>2020-06-24T15:37:20Z</time>
      </trkpt>
      <trkpt lat="50.16803" lon="4.09886">
        <ele>212.2</ele>
        <time>2020-06-24T15:37:21Z</time>
      </trkpt>
      <trkpt lat="50.168" lon="4.09889">
        <ele>212.2</ele>
        <time>2020-06-24T15:37:22Z</time>
      </trkpt>
      <trkpt lat="50.16798" lon="4.09893">
        <ele>212.3</ele>
        <time>2020-06-24T15:37:23Z</time>
      </trkpt>
      <trkpt lat="50.16796" lon="4.09899">
        <ele>212.3</ele>
        <time>2020-06-24T15:37:24Z</time>
      </trkpt>
      <trkpt lat="50.16794" lon="4.09904">
        <ele>212.3</ele>
        <time>2020-06-24T15:37:25Z</time>
      </trkpt>
      <trkpt lat="50.16793" lon="4.09912">
        <ele>212.3</ele>
        <time>2020-06-24T15:37:26Z</time>
      </trkpt>
      <trkpt lat="50.16793" lon="4.09917">
        <ele>212.3</ele>
        <time>2020-06-24T15:37:27Z</time>
      </trkpt>
      <trkpt lat="50.16792" lon="4.09923">
        <ele>212.4</ele>
        <time>2020-06-24T15:37:28Z</time>
      </trkpt>
      <trkpt lat="50.16791" lon="4.09929">
        <ele>212.4</ele>
        <time>2020-06-24T15:37:29Z</time>
      </trkpt>
      <trkpt lat="50.16791" lon="4.09937">
        <ele>212.4</ele>
        <time>2020-06-24T15:37:30Z</time>
      </trkpt>
      <trkpt lat="50.1679" lon="4.09943">
        <ele>212.5</ele>
        <time>2020-06-24T15:37:31Z</time>
      </trkpt>
      <trkpt lat="50.16789" lon="4.0995">
        <ele>212.6</ele>
        <time>2020-06-24T15:37:32Z</time>
      </trkpt>
      <trkpt lat="50.16788" lon="4.09957">
        <ele>212.6</ele>
        <time>2020-06-24T15:37:33Z</time>
      </trkpt>
      <trkpt lat="50.16786" lon="4.09964">
        <ele>212.8</ele>
        <time>2020-06-24T15:37:34Z</time>
      </trkpt>
      <trkpt lat="50.16785" lon="4.0997">
        <ele>212.9</ele>
        <time>2020-06-24T15:37:35Z</time>
      </trkpt>
      <trkpt lat="50.16785" lon="4.09978">
        <ele>213</ele>
        <time>2020-06-24T15:37:36Z</time>
      </trkpt>
      <trkpt lat="50.16784" lon="4.09984">
        <ele>213.1</ele>
        <time>2020-06-24T15:37:37Z</time>
      </trkpt>
      <trkpt lat="50.16783" lon="4.09991">
        <ele>213.1</ele>
        <time>2020-06-24T15:37:38Z</time>
      </trkpt>
      <trkpt lat="50.16782" lon="4.09998">
        <ele>213.2</ele>
        <time>2020-06-24T15:37:39Z</time>
      </trkpt>
      <trkpt lat="50.1678" lon="4.10005">
        <ele>213.3</ele>
        <time>2020-06-24T15:37:40Z</time>
      </trkpt>
      <trkpt lat="50.1678" lon="4.10011">
        <ele>213.4</ele>
        <time>2020-06-24T15:37:41Z</time>
      </trkpt>
      <trkpt lat="50.16779" lon="4.10016">
        <ele>213.4</ele>
        <time>2020-06-24T15:37:42Z</time>
      </trkpt>
      <trkpt lat="50.16779" lon="4.10021">
        <ele>213.4</ele>
        <time>2020-06-24T15:37:43Z</time>
      </trkpt>
      <trkpt lat="50.16778" lon="4.10026">
        <ele>213.4</ele>
        <time>2020-06-24T15:37:44Z</time>
      </trkpt>
      <trkpt lat="50.16776" lon="4.10032">
        <ele>213.3</ele>
        <time>2020-06-24T15:37:45Z</time>
      </trkpt>
      <trkpt lat="50.16774" lon="4.10038">
        <ele>213.1</ele>
        <time>2020-06-24T15:37:46Z</time>
      </trkpt>
      <trkpt lat="50.16771" lon="4.10045">
        <ele>213</ele>
        <time>2020-06-24T15:37:47Z</time>
      </trkpt>
      <trkpt lat="50.16769" lon="4.10054">
        <ele>212.8</ele>
        <time>2020-06-24T15:37:48Z</time>
      </trkpt>
      <trkpt lat="50.16767" lon="4.10061">
        <ele>212.7</ele>
        <time>2020-06-24T15:37:49Z</time>
      </trkpt>
      <trkpt lat="50.16765" lon="4.10066">
        <ele>212.6</ele>
        <time>2020-06-24T15:37:50Z</time>
      </trkpt>
      <trkpt lat="50.16763" lon="4.1007">
        <ele>212.5</ele>
        <time>2020-06-24T15:37:51Z</time>
      </trkpt>
      <trkpt lat="50.16761" lon="4.10076">
        <ele>212.4</ele>
        <time>2020-06-24T15:37:52Z</time>
      </trkpt>
      <trkpt lat="50.16758" lon="4.10081">
        <ele>212.3</ele>
        <time>2020-06-24T15:37:53Z</time>
      </trkpt>
      <trkpt lat="50.16755" lon="4.10088">
        <ele>212.2</ele>
        <time>2020-06-24T15:37:54Z</time>
      </trkpt>
      <trkpt lat="50.16753" lon="4.10094">
        <ele>212.1</ele>
        <time>2020-06-24T15:37:55Z</time>
      </trkpt>
      <trkpt lat="50.1675" lon="4.10099">
        <ele>212.1</ele>
        <time>2020-06-24T15:37:56Z</time>
      </trkpt>
      <trkpt lat="50.16747" lon="4.10105">
        <ele>212</ele>
        <time>2020-06-24T15:37:57Z</time>
      </trkpt>
      <trkpt lat="50.16744" lon="4.10111">
        <ele>212</ele>
        <time>2020-06-24T15:37:58Z</time>
      </trkpt>
      <trkpt lat="50.16741" lon="4.10118">
        <ele>211.9</ele>
        <time>2020-06-24T15:37:59Z</time>
      </trkpt>
      <trkpt lat="50.16737" lon="4.10124">
        <ele>211.8</ele>
        <time>2020-06-24T15:38:00Z</time>
      </trkpt>
      <trkpt lat="50.16733" lon="4.1013">
        <ele>211.7</ele>
        <time>2020-06-24T15:38:01Z</time>
      </trkpt>
      <trkpt lat="50.1673" lon="4.10139">
        <ele>211.6</ele>
        <time>2020-06-24T15:38:02Z</time>
      </trkpt>
      <trkpt lat="50.16726" lon="4.10145">
        <ele>211.5</ele>
        <time>2020-06-24T15:38:03Z</time>
      </trkpt>
      <trkpt lat="50.16721" lon="4.10151">
        <ele>211.4</ele>
        <time>2020-06-24T15:38:04Z</time>
      </trkpt>
      <trkpt lat="50.16717" lon="4.10158">
        <ele>211.4</ele>
        <time>2020-06-24T15:38:05Z</time>
      </trkpt>
      <trkpt lat="50.16712" lon="4.10164">
        <ele>211.5</ele>
        <time>2020-06-24T15:38:06Z</time>
      </trkpt>
      <trkpt lat="50.16707" lon="4.10171">
        <ele>211.6</ele>
        <time>2020-06-24T15:38:07Z</time>
      </trkpt>
      <trkpt lat="50.16704" lon="4.10177">
        <ele>211.6</ele>
        <time>2020-06-24T15:38:08Z</time>
      </trkpt>
      <trkpt lat="50.167" lon="4.10183">
        <ele>211.7</ele>
        <time>2020-06-24T15:38:09Z</time>
      </trkpt>
      <trkpt lat="50.16696" lon="4.10188">
        <ele>211.7</ele>
        <time>2020-06-24T15:38:10Z</time>
      </trkpt>
      <trkpt lat="50.16693" lon="4.10194">
        <ele>211.7</ele>
        <time>2020-06-24T15:38:11Z</time>
      </trkpt>
      <trkpt lat="50.16689" lon="4.10199">
        <ele>211.8</ele>
        <time>2020-06-24T15:38:12Z</time>
      </trkpt>
      <trkpt lat="50.16685" lon="4.10206">
        <ele>211.9</ele>
        <time>2020-06-24T15:38:13Z</time>
      </trkpt>
      <trkpt lat="50.16681" lon="4.10214">
        <ele>212.1</ele>
        <time>2020-06-24T15:38:14Z</time>
      </trkpt>
      <trkpt lat="50.16676" lon="4.10221">
        <ele>212.3</ele>
        <time>2020-06-24T15:38:15Z</time>
      </trkpt>
      <trkpt lat="50.16672" lon="4.10228">
        <ele>212.6</ele>
        <time>2020-06-24T15:38:16Z</time>
      </trkpt>
      <trkpt lat="50.16667" lon="4.10231">
        <ele>212.8</ele>
        <time>2020-06-24T15:38:17Z</time>
      </trkpt>
      <trkpt lat="50.16662" lon="4.10236">
        <ele>213</ele>
        <time>2020-06-24T15:38:18Z</time>
      </trkpt>
      <trkpt lat="50.16659" lon="4.10241">
        <ele>213.3</ele>
        <time>2020-06-24T15:38:19Z</time>
      </trkpt>
      <trkpt lat="50.16655" lon="4.10245">
        <ele>213.5</ele>
        <time>2020-06-24T15:38:20Z</time>
      </trkpt>
      <trkpt lat="50.16651" lon="4.10249">
        <ele>213.7</ele>
        <time>2020-06-24T15:38:21Z</time>
      </trkpt>
      <trkpt lat="50.16648" lon="4.10254">
        <ele>213.9</ele>
        <time>2020-06-24T15:38:22Z</time>
      </trkpt>
      <trkpt lat="50.16644" lon="4.10259">
        <ele>214.1</ele>
        <time>2020-06-24T15:38:23Z</time>
      </trkpt>
      <trkpt lat="50.1664" lon="4.10262">
        <ele>214.3</ele>
        <time>2020-06-24T15:38:24Z</time>
      </trkpt>
      <trkpt lat="50.16637" lon="4.10266">
        <ele>214.6</ele>
        <time>2020-06-24T15:38:25Z</time>
      </trkpt>
      <trkpt lat="50.16633" lon="4.10271">
        <ele>214.8</ele>
        <time>2020-06-24T15:38:26Z</time>
      </trkpt>
      <trkpt lat="50.1663" lon="4.10276">
        <ele>215</ele>
        <time>2020-06-24T15:38:27Z</time>
      </trkpt>
      <trkpt lat="50.16626" lon="4.1028">
        <ele>215.2</ele>
        <time>2020-06-24T15:38:28Z</time>
      </trkpt>
      <trkpt lat="50.16622" lon="4.10285">
        <ele>215.3</ele>
        <time>2020-06-24T15:38:29Z</time>
      </trkpt>
      <trkpt lat="50.16617" lon="4.10289">
        <ele>215.4</ele>
        <time>2020-06-24T15:38:30Z</time>
      </trkpt>
      <trkpt lat="50.16613" lon="4.10294">
        <ele>215.6</ele>
        <time>2020-06-24T15:38:31Z</time>
      </trkpt>
      <trkpt lat="50.16609" lon="4.103">
        <ele>215.7</ele>
        <time>2020-06-24T15:38:32Z</time>
      </trkpt>
      <trkpt lat="50.16605" lon="4.10305">
        <ele>215.9</ele>
        <time>2020-06-24T15:38:33Z</time>
      </trkpt>
      <trkpt lat="50.16601" lon="4.10309">
        <ele>216.1</ele>
        <time>2020-06-24T15:38:34Z</time>
      </trkpt>
      <trkpt lat="50.16597" lon="4.10313">
        <ele>216.3</ele>
        <time>2020-06-24T15:38:35Z</time>
      </trkpt>
      <trkpt lat="50.16593" lon="4.10318">
        <ele>216.5</ele>
        <time>2020-06-24T15:38:36Z</time>
      </trkpt>
      <trkpt lat="50.1659" lon="4.10325">
        <ele>216.8</ele>
        <time>2020-06-24T15:38:37Z</time>
      </trkpt>
      <trkpt lat="50.16587" lon="4.1033">
        <ele>217</ele>
        <time>2020-06-24T15:38:38Z</time>
      </trkpt>
      <trkpt lat="50.16584" lon="4.10335">
        <ele>217.2</ele>
        <time>2020-06-24T15:38:39Z</time>
      </trkpt>
      <trkpt lat="50.16581" lon="4.10341">
        <ele>217.5</ele>
        <time>2020-06-24T15:38:40Z</time>
      </trkpt>
      <trkpt lat="50.16577" lon="4.10346">
        <ele>217.8</ele>
        <time>2020-06-24T15:38:41Z</time>
      </trkpt>
      <trkpt lat="50.16574" lon="4.10352">
        <ele>218.1</ele>
        <time>2020-06-24T15:38:42Z</time>
      </trkpt>
      <trkpt lat="50.16572" lon="4.10358">
        <ele>218.4</ele>
        <time>2020-06-24T15:38:43Z</time>
      </trkpt>
      <trkpt lat="50.16569" lon="4.10364">
        <ele>218.6</ele>
        <time>2020-06-24T15:38:44Z</time>
      </trkpt>
      <trkpt lat="50.16567" lon="4.10369">
        <ele>218.9</ele>
        <time>2020-06-24T15:38:45Z</time>
      </trkpt>
      <trkpt lat="50.16564" lon="4.10374">
        <ele>219.1</ele>
        <time>2020-06-24T15:38:46Z</time>
      </trkpt>
      <trkpt lat="50.16561" lon="4.10379">
        <ele>219.4</ele>
        <time>2020-06-24T15:38:47Z</time>
      </trkpt>
      <trkpt lat="50.16559" lon="4.10385">
        <ele>219.7</ele>
        <time>2020-06-24T15:38:48Z</time>
      </trkpt>
      <trkpt lat="50.16556" lon="4.1039">
        <ele>220</ele>
        <time>2020-06-24T15:38:49Z</time>
      </trkpt>
      <trkpt lat="50.16555" lon="4.10397">
        <ele>220.2</ele>
        <time>2020-06-24T15:38:50Z</time>
      </trkpt>
      <trkpt lat="50.16553" lon="4.10403">
        <ele>220.4</ele>
        <time>2020-06-24T15:38:51Z</time>
      </trkpt>
      <trkpt lat="50.16551" lon="4.10407">
        <ele>220.6</ele>
        <time>2020-06-24T15:38:52Z</time>
      </trkpt>
      <trkpt lat="50.16549" lon="4.10413">
        <ele>220.8</ele>
        <time>2020-06-24T15:38:53Z</time>
      </trkpt>
      <trkpt lat="50.16547" lon="4.10417">
        <ele>220.9</ele>
        <time>2020-06-24T15:38:54Z</time>
      </trkpt>
      <trkpt lat="50.16544" lon="4.10421">
        <ele>221.1</ele>
        <time>2020-06-24T15:38:55Z</time>
      </trkpt>
      <trkpt lat="50.16542" lon="4.10426">
        <ele>221.2</ele>
        <time>2020-06-24T15:38:56Z</time>
      </trkpt>
      <trkpt lat="50.1654" lon="4.10433">
        <ele>221.4</ele>
        <time>2020-06-24T15:38:57Z</time>
      </trkpt>
      <trkpt lat="50.16538" lon="4.10439">
        <ele>221.5</ele>
        <time>2020-06-24T15:38:58Z</time>
      </trkpt>
      <trkpt lat="50.16536" lon="4.10446">
        <ele>221.6</ele>
        <time>2020-06-24T15:38:59Z</time>
      </trkpt>
      <trkpt lat="50.16534" lon="4.10451">
        <ele>221.7</ele>
        <time>2020-06-24T15:39:00Z</time>
      </trkpt>
      <trkpt lat="50.16532" lon="4.10456">
        <ele>221.8</ele>
        <time>2020-06-24T15:39:01Z</time>
      </trkpt>
      <trkpt lat="50.1653" lon="4.10463">
        <ele>221.9</ele>
        <time>2020-06-24T15:39:02Z</time>
      </trkpt>
      <trkpt lat="50.16528" lon="4.1047">
        <ele>221.9</ele>
        <time>2020-06-24T15:39:03Z</time>
      </trkpt>
      <trkpt lat="50.16525" lon="4.10475">
        <ele>222</ele>
        <time>2020-06-24T15:39:04Z</time>
      </trkpt>
      <trkpt lat="50.16523" lon="4.10482">
        <ele>222</ele>
        <time>2020-06-24T15:39:05Z</time>
      </trkpt>
      <trkpt lat="50.16521" lon="4.10488">
        <ele>222</ele>
        <time>2020-06-24T15:39:06Z</time>
      </trkpt>
      <trkpt lat="50.16519" lon="4.10494">
        <ele>222</ele>
        <time>2020-06-24T15:39:07Z</time>
      </trkpt>
      <trkpt lat="50.16518" lon="4.10501">
        <ele>222</ele>
        <time>2020-06-24T15:39:08Z</time>
      </trkpt>
      <trkpt lat="50.16517" lon="4.10507">
        <ele>222</ele>
        <time>2020-06-24T15:39:09Z</time>
      </trkpt>
      <trkpt lat="50.16515" lon="4.10512">
        <ele>222</ele>
        <time>2020-06-24T15:39:10Z</time>
      </trkpt>
      <trkpt lat="50.16513" lon="4.10517">
        <ele>222</ele>
        <time>2020-06-24T15:39:11Z</time>
      </trkpt>
      <trkpt lat="50.1651" lon="4.10523">
        <ele>222</ele>
        <time>2020-06-24T15:39:12Z</time>
      </trkpt>
      <trkpt lat="50.16507" lon="4.1053">
        <ele>222.1</ele>
        <time>2020-06-24T15:39:13Z</time>
      </trkpt>
      <trkpt lat="50.16505" lon="4.10537">
        <ele>222.1</ele>
        <time>2020-06-24T15:39:14Z</time>
      </trkpt>
      <trkpt lat="50.16502" lon="4.10543">
        <ele>222</ele>
        <time>2020-06-24T15:39:15Z</time>
      </trkpt>
      <trkpt lat="50.165" lon="4.10548">
        <ele>221.9</ele>
        <time>2020-06-24T15:39:16Z</time>
      </trkpt>
      <trkpt lat="50.16499" lon="4.10553">
        <ele>221.8</ele>
        <time>2020-06-24T15:39:17Z</time>
      </trkpt>
      <trkpt lat="50.16497" lon="4.10558">
        <ele>221.6</ele>
        <time>2020-06-24T15:39:18Z</time>
      </trkpt>
      <trkpt lat="50.16495" lon="4.10565">
        <ele>221.2</ele>
        <time>2020-06-24T15:39:19Z</time>
      </trkpt>
      <trkpt lat="50.16492" lon="4.10573">
        <ele>220.9</ele>
        <time>2020-06-24T15:39:20Z</time>
      </trkpt>
      <trkpt lat="50.16489" lon="4.1058">
        <ele>220.5</ele>
        <time>2020-06-24T15:39:21Z</time>
      </trkpt>
      <trkpt lat="50.16486" lon="4.10587">
        <ele>220.2</ele>
        <time>2020-06-24T15:39:22Z</time>
      </trkpt>
      <trkpt lat="50.16483" lon="4.10594">
        <ele>219.9</ele>
        <time>2020-06-24T15:39:23Z</time>
      </trkpt>
      <trkpt lat="50.16479" lon="4.10601">
        <ele>219.6</ele>
        <time>2020-06-24T15:39:24Z</time>
      </trkpt>
      <trkpt lat="50.16476" lon="4.10608">
        <ele>219.4</ele>
        <time>2020-06-24T15:39:25Z</time>
      </trkpt>
      <trkpt lat="50.16472" lon="4.10617">
        <ele>219.3</ele>
        <time>2020-06-24T15:39:26Z</time>
      </trkpt>
      <trkpt lat="50.16468" lon="4.10625">
        <ele>219.1</ele>
        <time>2020-06-24T15:39:27Z</time>
      </trkpt>
      <trkpt lat="50.16465" lon="4.10634">
        <ele>219.1</ele>
        <time>2020-06-24T15:39:28Z</time>
      </trkpt>
      <trkpt lat="50.16461" lon="4.10642">
        <ele>219</ele>
        <time>2020-06-24T15:39:29Z</time>
      </trkpt>
      <trkpt lat="50.16458" lon="4.1065">
        <ele>219</ele>
        <time>2020-06-24T15:39:30Z</time>
      </trkpt>
      <trkpt lat="50.16455" lon="4.10657">
        <ele>219</ele>
        <time>2020-06-24T15:39:31Z</time>
      </trkpt>
      <trkpt lat="50.16453" lon="4.10665">
        <ele>219.1</ele>
        <time>2020-06-24T15:39:32Z</time>
      </trkpt>
      <trkpt lat="50.16451" lon="4.10673">
        <ele>219.1</ele>
        <time>2020-06-24T15:39:33Z</time>
      </trkpt>
      <trkpt lat="50.16448" lon="4.1068">
        <ele>219.1</ele>
        <time>2020-06-24T15:39:34Z</time>
      </trkpt>
      <trkpt lat="50.16445" lon="4.10689">
        <ele>219.2</ele>
        <time>2020-06-24T15:39:35Z</time>
      </trkpt>
      <trkpt lat="50.16443" lon="4.10697">
        <ele>219.2</ele>
        <time>2020-06-24T15:39:36Z</time>
      </trkpt>
      <trkpt lat="50.1644" lon="4.10705">
        <ele>219.2</ele>
        <time>2020-06-24T15:39:37Z</time>
      </trkpt>
      <trkpt lat="50.16437" lon="4.10713">
        <ele>219.2</ele>
        <time>2020-06-24T15:39:38Z</time>
      </trkpt>
      <trkpt lat="50.16434" lon="4.1072">
        <ele>219.3</ele>
        <time>2020-06-24T15:39:39Z</time>
      </trkpt>
      <trkpt lat="50.1643" lon="4.10726">
        <ele>219.4</ele>
        <time>2020-06-24T15:39:40Z</time>
      </trkpt>
      <trkpt lat="50.16426" lon="4.10732">
        <ele>219.5</ele>
        <time>2020-06-24T15:39:41Z</time>
      </trkpt>
      <trkpt lat="50.16422" lon="4.10737">
        <ele>219.6</ele>
        <time>2020-06-24T15:39:42Z</time>
      </trkpt>
      <trkpt lat="50.16418" lon="4.1074">
        <ele>219.7</ele>
        <time>2020-06-24T15:39:43Z</time>
      </trkpt>
      <trkpt lat="50.16413" lon="4.10744">
        <ele>219.8</ele>
        <time>2020-06-24T15:39:44Z</time>
      </trkpt>
      <trkpt lat="50.16409" lon="4.10746">
        <ele>219.9</ele>
        <time>2020-06-24T15:39:45Z</time>
      </trkpt>
      <trkpt lat="50.16404" lon="4.10749">
        <ele>220.1</ele>
        <time>2020-06-24T15:39:46Z</time>
      </trkpt>
      <trkpt lat="50.164" lon="4.10752">
        <ele>220.2</ele>
        <time>2020-06-24T15:39:47Z</time>
      </trkpt>
      <trkpt lat="50.16396" lon="4.10755">
        <ele>220.3</ele>
        <time>2020-06-24T15:39:48Z</time>
      </trkpt>
      <trkpt lat="50.16391" lon="4.10758">
        <ele>220.5</ele>
        <time>2020-06-24T15:39:49Z</time>
      </trkpt>
      <trkpt lat="50.16387" lon="4.10762">
        <ele>220.6</ele>
        <time>2020-06-24T15:39:50Z</time>
      </trkpt>
      <trkpt lat="50.16383" lon="4.10766">
        <ele>220.8</ele>
        <time>2020-06-24T15:39:51Z</time>
      </trkpt>
      <trkpt lat="50.16378" lon="4.10769">
        <ele>220.9</ele>
        <time>2020-06-24T15:39:52Z</time>
      </trkpt>
      <trkpt lat="50.16375" lon="4.10774">
        <ele>221.1</ele>
        <time>2020-06-24T15:39:53Z</time>
      </trkpt>
      <trkpt lat="50.16371" lon="4.10778">
        <ele>221.2</ele>
        <time>2020-06-24T15:39:54Z</time>
      </trkpt>
      <trkpt lat="50.16368" lon="4.10783">
        <ele>221.4</ele>
        <time>2020-06-24T15:39:55Z</time>
      </trkpt>
      <trkpt lat="50.16364" lon="4.10787">
        <ele>221.6</ele>
        <time>2020-06-24T15:39:56Z</time>
      </trkpt>
      <trkpt lat="50.1636" lon="4.10791">
        <ele>221.7</ele>
        <time>2020-06-24T15:39:57Z</time>
      </trkpt>
      <trkpt lat="50.16355" lon="4.10795">
        <ele>221.9</ele>
        <time>2020-06-24T15:39:58Z</time>
      </trkpt>
      <trkpt lat="50.16351" lon="4.10799">
        <ele>222.1</ele>
        <time>2020-06-24T15:39:59Z</time>
      </trkpt>
      <trkpt lat="50.16346" lon="4.10802">
        <ele>222.3</ele>
        <time>2020-06-24T15:40:00Z</time>
      </trkpt>
      <trkpt lat="50.16341" lon="4.10806">
        <ele>222.5</ele>
        <time>2020-06-24T15:40:01Z</time>
      </trkpt>
      <trkpt lat="50.16337" lon="4.1081">
        <ele>222.7</ele>
        <time>2020-06-24T15:40:02Z</time>
      </trkpt>
      <trkpt lat="50.16334" lon="4.10816">
        <ele>222.9</ele>
        <time>2020-06-24T15:40:03Z</time>
      </trkpt>
      <trkpt lat="50.1633" lon="4.1082">
        <ele>223.1</ele>
        <time>2020-06-24T15:40:04Z</time>
      </trkpt>
      <trkpt lat="50.16326" lon="4.10823">
        <ele>223.3</ele>
        <time>2020-06-24T15:40:05Z</time>
      </trkpt>
      <trkpt lat="50.16323" lon="4.10827">
        <ele>223.5</ele>
        <time>2020-06-24T15:40:06Z</time>
      </trkpt>
      <trkpt lat="50.16319" lon="4.1083">
        <ele>223.6</ele>
        <time>2020-06-24T15:40:07Z</time>
      </trkpt>
      <trkpt lat="50.16315" lon="4.10832">
        <ele>223.8</ele>
        <time>2020-06-24T15:40:08Z</time>
      </trkpt>
      <trkpt lat="50.16311" lon="4.10833">
        <ele>224</ele>
        <time>2020-06-24T15:40:09Z</time>
      </trkpt>
      <trkpt lat="50.16308" lon="4.10835">
        <ele>224.1</ele>
        <time>2020-06-24T15:40:10Z</time>
      </trkpt>
      <trkpt lat="50.16305" lon="4.10838">
        <ele>224.2</ele>
        <time>2020-06-24T15:40:11Z</time>
      </trkpt>
      <trkpt lat="50.16302" lon="4.10839">
        <ele>224.5</ele>
        <time>2020-06-24T15:40:12Z</time>
      </trkpt>
      <trkpt lat="50.16299" lon="4.1084">
        <ele>224.5</ele>
        <time>2020-06-24T15:40:13Z</time>
      </trkpt>
      <trkpt lat="50.16299" lon="4.10844">
        <ele>224.5</ele>
        <time>2020-06-24T15:40:14Z</time>
      </trkpt>
      <trkpt lat="50.16296" lon="4.10849">
        <ele>224.6</ele>
        <time>2020-06-24T15:40:15Z</time>
      </trkpt>
      <trkpt lat="50.16295" lon="4.10851">
        <ele>224.6</ele>
        <time>2020-06-24T15:40:16Z</time>
      </trkpt>
      <trkpt lat="50.16292" lon="4.10853">
        <ele>224.6</ele>
        <time>2020-06-24T15:40:17Z</time>
      </trkpt>
      <trkpt lat="50.1629" lon="4.10855">
        <ele>224.6</ele>
        <time>2020-06-24T15:40:18Z</time>
      </trkpt>
      <trkpt lat="50.16287" lon="4.10857">
        <ele>224.6</ele>
        <time>2020-06-24T15:40:19Z</time>
      </trkpt>
      <trkpt lat="50.16284" lon="4.10861">
        <ele>224.6</ele>
        <time>2020-06-24T15:40:20Z</time>
      </trkpt>
      <trkpt lat="50.16282" lon="4.10864">
        <ele>224.5</ele>
        <time>2020-06-24T15:40:21Z</time>
      </trkpt>
      <trkpt lat="50.16279" lon="4.10866">
        <ele>224.5</ele>
        <time>2020-06-24T15:40:22Z</time>
      </trkpt>
      <trkpt lat="50.16277" lon="4.10871">
        <ele>224.4</ele>
        <time>2020-06-24T15:40:23Z</time>
      </trkpt>
      <trkpt lat="50.16274" lon="4.10875">
        <ele>224.4</ele>
        <time>2020-06-24T15:40:24Z</time>
      </trkpt>
      <trkpt lat="50.16273" lon="4.10881">
        <ele>224.3</ele>
        <time>2020-06-24T15:40:25Z</time>
      </trkpt>
      <trkpt lat="50.16268" lon="4.10884">
        <ele>224.2</ele>
        <time>2020-06-24T15:40:26Z</time>
      </trkpt>
      <trkpt lat="50.16264" lon="4.10888">
        <ele>224.1</ele>
        <time>2020-06-24T15:40:27Z</time>
      </trkpt>
      <trkpt lat="50.16261" lon="4.10893">
        <ele>224</ele>
        <time>2020-06-24T15:40:28Z</time>
      </trkpt>
      <trkpt lat="50.16258" lon="4.10899">
        <ele>224</ele>
        <time>2020-06-24T15:40:29Z</time>
      </trkpt>
      <trkpt lat="50.16254" lon="4.10902">
        <ele>223.9</ele>
        <time>2020-06-24T15:40:30Z</time>
      </trkpt>
      <trkpt lat="50.16251" lon="4.10905">
        <ele>223.7</ele>
        <time>2020-06-24T15:40:31Z</time>
      </trkpt>
      <trkpt lat="50.16248" lon="4.10909">
        <ele>223.6</ele>
        <time>2020-06-24T15:40:32Z</time>
      </trkpt>
      <trkpt lat="50.16244" lon="4.10914">
        <ele>223.4</ele>
        <time>2020-06-24T15:40:33Z</time>
      </trkpt>
      <trkpt lat="50.1624" lon="4.10918">
        <ele>223.3</ele>
        <time>2020-06-24T15:40:34Z</time>
      </trkpt>
      <trkpt lat="50.16237" lon="4.10924">
        <ele>223.1</ele>
        <time>2020-06-24T15:40:35Z</time>
      </trkpt>
      <trkpt lat="50.16234" lon="4.1093">
        <ele>223</ele>
        <time>2020-06-24T15:40:36Z</time>
      </trkpt>
      <trkpt lat="50.1623" lon="4.10935">
        <ele>222.8</ele>
        <time>2020-06-24T15:40:37Z</time>
      </trkpt>
      <trkpt lat="50.16226" lon="4.10941">
        <ele>222.7</ele>
        <time>2020-06-24T15:40:38Z</time>
      </trkpt>
      <trkpt lat="50.16223" lon="4.10947">
        <ele>222.5</ele>
        <time>2020-06-24T15:40:39Z</time>
      </trkpt>
      <trkpt lat="50.16219" lon="4.10953">
        <ele>222.3</ele>
        <time>2020-06-24T15:40:40Z</time>
      </trkpt>
      <trkpt lat="50.16215" lon="4.10959">
        <ele>222.1</ele>
        <time>2020-06-24T15:40:41Z</time>
      </trkpt>
      <trkpt lat="50.1621" lon="4.10965">
        <ele>222</ele>
        <time>2020-06-24T15:40:42Z</time>
      </trkpt>
      <trkpt lat="50.16206" lon="4.1097">
        <ele>221.9</ele>
        <time>2020-06-24T15:40:43Z</time>
      </trkpt>
      <trkpt lat="50.16202" lon="4.10977">
        <ele>221.8</ele>
        <time>2020-06-24T15:40:44Z</time>
      </trkpt>
      <trkpt lat="50.16198" lon="4.10983">
        <ele>221.6</ele>
        <time>2020-06-24T15:40:45Z</time>
      </trkpt>
      <trkpt lat="50.16194" lon="4.10989">
        <ele>221.4</ele>
        <time>2020-06-24T15:40:46Z</time>
      </trkpt>
      <trkpt lat="50.1619" lon="4.10996">
        <ele>221.2</ele>
        <time>2020-06-24T15:40:47Z</time>
      </trkpt>
      <trkpt lat="50.16185" lon="4.11002">
        <ele>221</ele>
        <time>2020-06-24T15:40:48Z</time>
      </trkpt>
      <trkpt lat="50.16181" lon="4.11008">
        <ele>220.8</ele>
        <time>2020-06-24T15:40:49Z</time>
      </trkpt>
      <trkpt lat="50.16177" lon="4.11015">
        <ele>220.6</ele>
        <time>2020-06-24T15:40:50Z</time>
      </trkpt>
      <trkpt lat="50.16173" lon="4.11021">
        <ele>220.3</ele>
        <time>2020-06-24T15:40:51Z</time>
      </trkpt>
      <trkpt lat="50.16168" lon="4.11028">
        <ele>220.1</ele>
        <time>2020-06-24T15:40:52Z</time>
      </trkpt>
      <trkpt lat="50.16165" lon="4.11034">
        <ele>219.8</ele>
        <time>2020-06-24T15:40:53Z</time>
      </trkpt>
      <trkpt lat="50.1616" lon="4.11041">
        <ele>219.5</ele>
        <time>2020-06-24T15:40:54Z</time>
      </trkpt>
      <trkpt lat="50.16156" lon="4.11048">
        <ele>219.2</ele>
        <time>2020-06-24T15:40:55Z</time>
      </trkpt>
      <trkpt lat="50.1615" lon="4.11057">
        <ele>218.8</ele>
        <time>2020-06-24T15:40:56Z</time>
      </trkpt>
      <trkpt lat="50.16145" lon="4.11068">
        <ele>218.5</ele>
        <time>2020-06-24T15:40:57Z</time>
      </trkpt>
      <trkpt lat="50.1614" lon="4.11077">
        <ele>218.1</ele>
        <time>2020-06-24T15:40:58Z</time>
      </trkpt>
      <trkpt lat="50.16135" lon="4.11086">
        <ele>217.7</ele>
        <time>2020-06-24T15:40:59Z</time>
      </trkpt>
      <trkpt lat="50.16129" lon="4.11094">
        <ele>217.2</ele>
        <time>2020-06-24T15:41:00Z</time>
      </trkpt>
      <trkpt lat="50.16124" lon="4.11104">
        <ele>216.4</ele>
        <time>2020-06-24T15:41:01Z</time>
      </trkpt>
      <trkpt lat="50.16119" lon="4.11115">
        <ele>215.5</ele>
        <time>2020-06-24T15:41:02Z</time>
      </trkpt>
      <trkpt lat="50.16113" lon="4.11125">
        <ele>214.8</ele>
        <time>2020-06-24T15:41:03Z</time>
      </trkpt>
      <trkpt lat="50.16107" lon="4.11135">
        <ele>214.2</ele>
        <time>2020-06-24T15:41:04Z</time>
      </trkpt>
      <trkpt lat="50.16099" lon="4.11145">
        <ele>213.7</ele>
        <time>2020-06-24T15:41:05Z</time>
      </trkpt>
      <trkpt lat="50.16092" lon="4.11155">
        <ele>213.2</ele>
        <time>2020-06-24T15:41:06Z</time>
      </trkpt>
      <trkpt lat="50.16086" lon="4.11165">
        <ele>212.8</ele>
        <time>2020-06-24T15:41:07Z</time>
      </trkpt>
      <trkpt lat="50.1608" lon="4.11174">
        <ele>212.6</ele>
        <time>2020-06-24T15:41:08Z</time>
      </trkpt>
      <trkpt lat="50.16073" lon="4.11184">
        <ele>212.5</ele>
        <time>2020-06-24T15:41:09Z</time>
      </trkpt>
      <trkpt lat="50.16067" lon="4.11194">
        <ele>212.6</ele>
        <time>2020-06-24T15:41:10Z</time>
      </trkpt>
      <trkpt lat="50.16062" lon="4.11203">
        <ele>212.8</ele>
        <time>2020-06-24T15:41:11Z</time>
      </trkpt>
      <trkpt lat="50.16059" lon="4.11213">
        <ele>213</ele>
        <time>2020-06-24T15:41:12Z</time>
      </trkpt>
      <trkpt lat="50.16057" lon="4.11223">
        <ele>213.4</ele>
        <time>2020-06-24T15:41:13Z</time>
      </trkpt>
      <trkpt lat="50.16056" lon="4.11232">
        <ele>213.8</ele>
        <time>2020-06-24T15:41:14Z</time>
      </trkpt>
      <trkpt lat="50.16054" lon="4.11239">
        <ele>214.2</ele>
        <time>2020-06-24T15:41:15Z</time>
      </trkpt>
      <trkpt lat="50.16053" lon="4.11245">
        <ele>214.5</ele>
        <time>2020-06-24T15:41:16Z</time>
      </trkpt>
      <trkpt lat="50.16051" lon="4.1125">
        <ele>214.8</ele>
        <time>2020-06-24T15:41:17Z</time>
      </trkpt>
      <trkpt lat="50.1605" lon="4.11254">
        <ele>215.1</ele>
        <time>2020-06-24T15:41:18Z</time>
      </trkpt>
      <trkpt lat="50.16049" lon="4.1126">
        <ele>215.4</ele>
        <time>2020-06-24T15:41:19Z</time>
      </trkpt>
      <trkpt lat="50.16049" lon="4.11265">
        <ele>215.6</ele>
        <time>2020-06-24T15:41:20Z</time>
      </trkpt>
      <trkpt lat="50.16048" lon="4.11269">
        <ele>215.9</ele>
        <time>2020-06-24T15:41:21Z</time>
      </trkpt>
      <trkpt lat="50.16047" lon="4.11275">
        <ele>216.3</ele>
        <time>2020-06-24T15:41:22Z</time>
      </trkpt>
      <trkpt lat="50.16046" lon="4.11277">
        <ele>216.4</ele>
        <time>2020-06-24T15:41:23Z</time>
      </trkpt>
      <trkpt lat="50.16045" lon="4.11283">
        <ele>216.8</ele>
        <time>2020-06-24T15:41:24Z</time>
      </trkpt>
      <trkpt lat="50.16045" lon="4.1129">
        <ele>217.2</ele>
        <time>2020-06-24T15:41:25Z</time>
      </trkpt>
      <trkpt lat="50.16044" lon="4.11297">
        <ele>217.6</ele>
        <time>2020-06-24T15:41:26Z</time>
      </trkpt>
      <trkpt lat="50.16043" lon="4.11302">
        <ele>217.9</ele>
        <time>2020-06-24T15:41:27Z</time>
      </trkpt>
      <trkpt lat="50.16041" lon="4.11307">
        <ele>218.2</ele>
        <time>2020-06-24T15:41:28Z</time>
      </trkpt>
      <trkpt lat="50.1604" lon="4.11311">
        <ele>218.4</ele>
        <time>2020-06-24T15:41:29Z</time>
      </trkpt>
      <trkpt lat="50.16039" lon="4.11315">
        <ele>218.7</ele>
        <time>2020-06-24T15:41:30Z</time>
      </trkpt>
      <trkpt lat="50.16037" lon="4.11321">
        <ele>219.1</ele>
        <time>2020-06-24T15:41:31Z</time>
      </trkpt>
      <trkpt lat="50.16037" lon="4.11327">
        <ele>219.4</ele>
        <time>2020-06-24T15:41:32Z</time>
      </trkpt>
      <trkpt lat="50.16037" lon="4.11333">
        <ele>219.8</ele>
        <time>2020-06-24T15:41:33Z</time>
      </trkpt>
      <trkpt lat="50.16037" lon="4.11338">
        <ele>220.1</ele>
        <time>2020-06-24T15:41:34Z</time>
      </trkpt>
      <trkpt lat="50.16036" lon="4.11343">
        <ele>220.4</ele>
        <time>2020-06-24T15:41:35Z</time>
      </trkpt>
      <trkpt lat="50.16035" lon="4.11348">
        <ele>220.6</ele>
        <time>2020-06-24T15:41:36Z</time>
      </trkpt>
      <trkpt lat="50.16034" lon="4.11353">
        <ele>220.9</ele>
        <time>2020-06-24T15:41:37Z</time>
      </trkpt>
      <trkpt lat="50.16033" lon="4.11359">
        <ele>221.1</ele>
        <time>2020-06-24T15:41:38Z</time>
      </trkpt>
      <trkpt lat="50.16032" lon="4.11364">
        <ele>221.4</ele>
        <time>2020-06-24T15:41:39Z</time>
      </trkpt>
      <trkpt lat="50.1603" lon="4.11371">
        <ele>221.7</ele>
        <time>2020-06-24T15:41:40Z</time>
      </trkpt>
      <trkpt lat="50.16028" lon="4.11377">
        <ele>222</ele>
        <time>2020-06-24T15:41:41Z</time>
      </trkpt>
      <trkpt lat="50.16026" lon="4.11382">
        <ele>222.3</ele>
        <time>2020-06-24T15:41:42Z</time>
      </trkpt>
      <trkpt lat="50.16025" lon="4.11387">
        <ele>222.5</ele>
        <time>2020-06-24T15:41:43Z</time>
      </trkpt>
      <trkpt lat="50.16024" lon="4.11395">
        <ele>222.8</ele>
        <time>2020-06-24T15:41:44Z</time>
      </trkpt>
      <trkpt lat="50.16022" lon="4.11401">
        <ele>223</ele>
        <time>2020-06-24T15:41:45Z</time>
      </trkpt>
      <trkpt lat="50.16021" lon="4.11406">
        <ele>223.3</ele>
        <time>2020-06-24T15:41:46Z</time>
      </trkpt>
      <trkpt lat="50.16019" lon="4.11411">
        <ele>223.5</ele>
        <time>2020-06-24T15:41:47Z</time>
      </trkpt>
      <trkpt lat="50.16018" lon="4.11417">
        <ele>223.7</ele>
        <time>2020-06-24T15:41:48Z</time>
      </trkpt>
      <trkpt lat="50.16016" lon="4.11422">
        <ele>223.9</ele>
        <time>2020-06-24T15:41:49Z</time>
      </trkpt>
      <trkpt lat="50.16015" lon="4.11427">
        <ele>224</ele>
        <time>2020-06-24T15:41:50Z</time>
      </trkpt>
      <trkpt lat="50.16013" lon="4.11433">
        <ele>224.2</ele>
        <time>2020-06-24T15:41:51Z</time>
      </trkpt>
      <trkpt lat="50.16012" lon="4.11435">
        <ele>224.3</ele>
        <time>2020-06-24T15:41:52Z</time>
      </trkpt>
      <trkpt lat="50.16011" lon="4.11441">
        <ele>224.4</ele>
        <time>2020-06-24T15:41:53Z</time>
      </trkpt>
      <trkpt lat="50.16009" lon="4.11446">
        <ele>224.6</ele>
        <time>2020-06-24T15:41:54Z</time>
      </trkpt>
      <trkpt lat="50.16007" lon="4.11451">
        <ele>224.7</ele>
        <time>2020-06-24T15:41:55Z</time>
      </trkpt>
      <trkpt lat="50.16005" lon="4.11458">
        <ele>224.9</ele>
        <time>2020-06-24T15:41:56Z</time>
      </trkpt>
      <trkpt lat="50.16003" lon="4.11464">
        <ele>225</ele>
        <time>2020-06-24T15:41:57Z</time>
      </trkpt>
      <trkpt lat="50.16001" lon="4.11471">
        <ele>225.1</ele>
        <time>2020-06-24T15:41:58Z</time>
      </trkpt>
      <trkpt lat="50.15999" lon="4.11476">
        <ele>225.1</ele>
        <time>2020-06-24T15:41:59Z</time>
      </trkpt>
      <trkpt lat="50.15996" lon="4.11482">
        <ele>225.3</ele>
        <time>2020-06-24T15:42:00Z</time>
      </trkpt>
      <trkpt lat="50.15993" lon="4.11487">
        <ele>225.4</ele>
        <time>2020-06-24T15:42:01Z</time>
      </trkpt>
      <trkpt lat="50.1599" lon="4.11492">
        <ele>225.2</ele>
        <time>2020-06-24T15:42:02Z</time>
      </trkpt>
      <trkpt lat="50.15988" lon="4.11498">
        <ele>225.2</ele>
        <time>2020-06-24T15:42:03Z</time>
      </trkpt>
      <trkpt lat="50.15986" lon="4.11502">
        <ele>225.2</ele>
        <time>2020-06-24T15:42:04Z</time>
      </trkpt>
      <trkpt lat="50.15984" lon="4.11507">
        <ele>225.2</ele>
        <time>2020-06-24T15:42:05Z</time>
      </trkpt>
      <trkpt lat="50.15982" lon="4.11513">
        <ele>225.3</ele>
        <time>2020-06-24T15:42:06Z</time>
      </trkpt>
      <trkpt lat="50.15979" lon="4.11519">
        <ele>225.4</ele>
        <time>2020-06-24T15:42:07Z</time>
      </trkpt>
      <trkpt lat="50.15977" lon="4.11524">
        <ele>225.4</ele>
        <time>2020-06-24T15:42:08Z</time>
      </trkpt>
      <trkpt lat="50.15974" lon="4.1153">
        <ele>225.5</ele>
        <time>2020-06-24T15:42:09Z</time>
      </trkpt>
      <trkpt lat="50.15972" lon="4.11534">
        <ele>225.5</ele>
        <time>2020-06-24T15:42:10Z</time>
      </trkpt>
      <trkpt lat="50.15969" lon="4.1154">
        <ele>225.5</ele>
        <time>2020-06-24T15:42:11Z</time>
      </trkpt>
      <trkpt lat="50.15968" lon="4.11542">
        <ele>225.5</ele>
        <time>2020-06-24T15:42:12Z</time>
      </trkpt>
      <trkpt lat="50.15965" lon="4.11546">
        <ele>225.5</ele>
        <time>2020-06-24T15:42:13Z</time>
      </trkpt>
      <trkpt lat="50.15962" lon="4.11552">
        <ele>225.4</ele>
        <time>2020-06-24T15:42:14Z</time>
      </trkpt>
      <trkpt lat="50.15959" lon="4.11557">
        <ele>225.4</ele>
        <time>2020-06-24T15:42:15Z</time>
      </trkpt>
      <trkpt lat="50.15956" lon="4.11561">
        <ele>225.3</ele>
        <time>2020-06-24T15:42:16Z</time>
      </trkpt>
      <trkpt lat="50.15953" lon="4.11568">
        <ele>225.1</ele>
        <time>2020-06-24T15:42:17Z</time>
      </trkpt>
      <trkpt lat="50.1595" lon="4.11573">
        <ele>224.9</ele>
        <time>2020-06-24T15:42:18Z</time>
      </trkpt>
      <trkpt lat="50.15946" lon="4.11579">
        <ele>224.8</ele>
        <time>2020-06-24T15:42:19Z</time>
      </trkpt>
      <trkpt lat="50.15942" lon="4.11585">
        <ele>224.6</ele>
        <time>2020-06-24T15:42:20Z</time>
      </trkpt>
      <trkpt lat="50.15938" lon="4.1159">
        <ele>224.5</ele>
        <time>2020-06-24T15:42:21Z</time>
      </trkpt>
      <trkpt lat="50.15935" lon="4.11596">
        <ele>224.3</ele>
        <time>2020-06-24T15:42:22Z</time>
      </trkpt>
      <trkpt lat="50.1593" lon="4.11602">
        <ele>224</ele>
        <time>2020-06-24T15:42:23Z</time>
      </trkpt>
      <trkpt lat="50.15926" lon="4.11608">
        <ele>223.9</ele>
        <time>2020-06-24T15:42:24Z</time>
      </trkpt>
      <trkpt lat="50.15923" lon="4.11613">
        <ele>223.8</ele>
        <time>2020-06-24T15:42:25Z</time>
      </trkpt>
      <trkpt lat="50.15919" lon="4.11618">
        <ele>223.7</ele>
        <time>2020-06-24T15:42:26Z</time>
      </trkpt>
      <trkpt lat="50.15916" lon="4.11623">
        <ele>223.6</ele>
        <time>2020-06-24T15:42:27Z</time>
      </trkpt>
      <trkpt lat="50.15912" lon="4.11628">
        <ele>223.6</ele>
        <time>2020-06-24T15:42:28Z</time>
      </trkpt>
      <trkpt lat="50.15907" lon="4.11633">
        <ele>223.5</ele>
        <time>2020-06-24T15:42:29Z</time>
      </trkpt>
      <trkpt lat="50.15904" lon="4.11638">
        <ele>223.4</ele>
        <time>2020-06-24T15:42:30Z</time>
      </trkpt>
      <trkpt lat="50.15901" lon="4.11644">
        <ele>223.3</ele>
        <time>2020-06-24T15:42:31Z</time>
      </trkpt>
      <trkpt lat="50.15898" lon="4.1165">
        <ele>223.3</ele>
        <time>2020-06-24T15:42:32Z</time>
      </trkpt>
      <trkpt lat="50.15894" lon="4.11655">
        <ele>223.3</ele>
        <time>2020-06-24T15:42:33Z</time>
      </trkpt>
      <trkpt lat="50.15891" lon="4.1166">
        <ele>223.3</ele>
        <time>2020-06-24T15:42:34Z</time>
      </trkpt>
      <trkpt lat="50.15889" lon="4.11665">
        <ele>223.4</ele>
        <time>2020-06-24T15:42:35Z</time>
      </trkpt>
      <trkpt lat="50.15887" lon="4.1167">
        <ele>223.4</ele>
        <time>2020-06-24T15:42:36Z</time>
      </trkpt>
      <trkpt lat="50.15886" lon="4.11675">
        <ele>223.5</ele>
        <time>2020-06-24T15:42:37Z</time>
      </trkpt>
      <trkpt lat="50.15883" lon="4.1168">
        <ele>223.6</ele>
        <time>2020-06-24T15:42:38Z</time>
      </trkpt>
      <trkpt lat="50.15881" lon="4.11685">
        <ele>223.7</ele>
        <time>2020-06-24T15:42:39Z</time>
      </trkpt>
      <trkpt lat="50.15878" lon="4.11691">
        <ele>223.9</ele>
        <time>2020-06-24T15:42:40Z</time>
      </trkpt>
      <trkpt lat="50.15875" lon="4.11695">
        <ele>224</ele>
        <time>2020-06-24T15:42:41Z</time>
      </trkpt>
      <trkpt lat="50.15873" lon="4.11701">
        <ele>224.2</ele>
        <time>2020-06-24T15:42:42Z</time>
      </trkpt>
      <trkpt lat="50.15872" lon="4.11706">
        <ele>224.3</ele>
        <time>2020-06-24T15:42:43Z</time>
      </trkpt>
      <trkpt lat="50.15869" lon="4.11712">
        <ele>224.4</ele>
        <time>2020-06-24T15:42:44Z</time>
      </trkpt>
      <trkpt lat="50.15867" lon="4.11717">
        <ele>224.6</ele>
        <time>2020-06-24T15:42:45Z</time>
      </trkpt>
      <trkpt lat="50.15866" lon="4.11722">
        <ele>224.7</ele>
        <time>2020-06-24T15:42:46Z</time>
      </trkpt>
      <trkpt lat="50.15864" lon="4.11727">
        <ele>224.9</ele>
        <time>2020-06-24T15:42:47Z</time>
      </trkpt>
      <trkpt lat="50.15863" lon="4.11731">
        <ele>225.1</ele>
        <time>2020-06-24T15:42:48Z</time>
      </trkpt>
      <trkpt lat="50.15861" lon="4.11736">
        <ele>225.4</ele>
        <time>2020-06-24T15:42:49Z</time>
      </trkpt>
      <trkpt lat="50.1586" lon="4.11739">
        <ele>225.5</ele>
        <time>2020-06-24T15:42:50Z</time>
      </trkpt>
      <trkpt lat="50.15859" lon="4.11744">
        <ele>225.8</ele>
        <time>2020-06-24T15:42:51Z</time>
      </trkpt>
      <trkpt lat="50.15857" lon="4.11751">
        <ele>226.1</ele>
        <time>2020-06-24T15:42:52Z</time>
      </trkpt>
      <trkpt lat="50.15855" lon="4.11755">
        <ele>226.4</ele>
        <time>2020-06-24T15:42:53Z</time>
      </trkpt>
      <trkpt lat="50.15852" lon="4.11759">
        <ele>226.7</ele>
        <time>2020-06-24T15:42:54Z</time>
      </trkpt>
      <trkpt lat="50.15851" lon="4.11763">
        <ele>226.9</ele>
        <time>2020-06-24T15:42:55Z</time>
      </trkpt>
      <trkpt lat="50.1585" lon="4.11768">
        <ele>227.1</ele>
        <time>2020-06-24T15:42:56Z</time>
      </trkpt>
      <trkpt lat="50.15848" lon="4.11773">
        <ele>227.4</ele>
        <time>2020-06-24T15:42:57Z</time>
      </trkpt>
      <trkpt lat="50.15847" lon="4.11778">
        <ele>227.6</ele>
        <time>2020-06-24T15:42:58Z</time>
      </trkpt>
      <trkpt lat="50.15846" lon="4.11784">
        <ele>227.9</ele>
        <time>2020-06-24T15:42:59Z</time>
      </trkpt>
      <trkpt lat="50.15844" lon="4.11787">
        <ele>228.1</ele>
        <time>2020-06-24T15:43:00Z</time>
      </trkpt>
      <trkpt lat="50.15842" lon="4.11792">
        <ele>228.3</ele>
        <time>2020-06-24T15:43:01Z</time>
      </trkpt>
      <trkpt lat="50.1584" lon="4.11796">
        <ele>228.5</ele>
        <time>2020-06-24T15:43:02Z</time>
      </trkpt>
      <trkpt lat="50.15838" lon="4.118">
        <ele>228.8</ele>
        <time>2020-06-24T15:43:03Z</time>
      </trkpt>
      <trkpt lat="50.15836" lon="4.11805">
        <ele>229.1</ele>
        <time>2020-06-24T15:43:04Z</time>
      </trkpt>
      <trkpt lat="50.15834" lon="4.1181">
        <ele>229.4</ele>
        <time>2020-06-24T15:43:05Z</time>
      </trkpt>
      <trkpt lat="50.15833" lon="4.11812">
        <ele>229.5</ele>
        <time>2020-06-24T15:43:06Z</time>
      </trkpt>
      <trkpt lat="50.1583" lon="4.11816">
        <ele>229.7</ele>
        <time>2020-06-24T15:43:07Z</time>
      </trkpt>
      <trkpt lat="50.15829" lon="4.11821">
        <ele>230</ele>
        <time>2020-06-24T15:43:08Z</time>
      </trkpt>
      <trkpt lat="50.15827" lon="4.11825">
        <ele>230.2</ele>
        <time>2020-06-24T15:43:09Z</time>
      </trkpt>
      <trkpt lat="50.15825" lon="4.11831">
        <ele>230.6</ele>
        <time>2020-06-24T15:43:10Z</time>
      </trkpt>
      <trkpt lat="50.15822" lon="4.11832">
        <ele>230.8</ele>
        <time>2020-06-24T15:43:11Z</time>
      </trkpt>
      <trkpt lat="50.15819" lon="4.11834">
        <ele>231</ele>
        <time>2020-06-24T15:43:12Z</time>
      </trkpt>
      <trkpt lat="50.15817" lon="4.11838">
        <ele>231.3</ele>
        <time>2020-06-24T15:43:13Z</time>
      </trkpt>
      <trkpt lat="50.15815" lon="4.11843">
        <ele>231.5</ele>
        <time>2020-06-24T15:43:14Z</time>
      </trkpt>
      <trkpt lat="50.15814" lon="4.11845">
        <ele>231.5</ele>
        <time>2020-06-24T15:43:15Z</time>
      </trkpt>
      <trkpt lat="50.15812" lon="4.1185">
        <ele>231.7</ele>
        <time>2020-06-24T15:43:16Z</time>
      </trkpt>
      <trkpt lat="50.15811" lon="4.11854">
        <ele>231.9</ele>
        <time>2020-06-24T15:43:17Z</time>
      </trkpt>
      <trkpt lat="50.1581" lon="4.1186">
        <ele>232.1</ele>
        <time>2020-06-24T15:43:18Z</time>
      </trkpt>
      <trkpt lat="50.15808" lon="4.11865">
        <ele>232.3</ele>
        <time>2020-06-24T15:43:19Z</time>
      </trkpt>
      <trkpt lat="50.15805" lon="4.11871">
        <ele>232.4</ele>
        <time>2020-06-24T15:43:20Z</time>
      </trkpt>
      <trkpt lat="50.15803" lon="4.11876">
        <ele>232.6</ele>
        <time>2020-06-24T15:43:21Z</time>
      </trkpt>
      <trkpt lat="50.15801" lon="4.11879">
        <ele>232.7</ele>
        <time>2020-06-24T15:43:22Z</time>
      </trkpt>
      <trkpt lat="50.15799" lon="4.11883">
        <ele>232.9</ele>
        <time>2020-06-24T15:43:23Z</time>
      </trkpt>
      <trkpt lat="50.15797" lon="4.11887">
        <ele>233.1</ele>
        <time>2020-06-24T15:43:24Z</time>
      </trkpt>
      <trkpt lat="50.15795" lon="4.11892">
        <ele>233.2</ele>
        <time>2020-06-24T15:43:25Z</time>
      </trkpt>
      <trkpt lat="50.15793" lon="4.11896">
        <ele>233.4</ele>
        <time>2020-06-24T15:43:26Z</time>
      </trkpt>
      <trkpt lat="50.1579" lon="4.119">
        <ele>233.6</ele>
        <time>2020-06-24T15:43:27Z</time>
      </trkpt>
      <trkpt lat="50.15789" lon="4.11904">
        <ele>233.8</ele>
        <time>2020-06-24T15:43:28Z</time>
      </trkpt>
      <trkpt lat="50.15787" lon="4.11908">
        <ele>233.9</ele>
        <time>2020-06-24T15:43:29Z</time>
      </trkpt>
      <trkpt lat="50.15784" lon="4.11912">
        <ele>234.1</ele>
        <time>2020-06-24T15:43:30Z</time>
      </trkpt>
      <trkpt lat="50.15782" lon="4.11917">
        <ele>234.2</ele>
        <time>2020-06-24T15:43:31Z</time>
      </trkpt>
      <trkpt lat="50.15779" lon="4.1192">
        <ele>234.3</ele>
        <time>2020-06-24T15:43:32Z</time>
      </trkpt>
      <trkpt lat="50.15777" lon="4.11924">
        <ele>234.5</ele>
        <time>2020-06-24T15:43:33Z</time>
      </trkpt>
      <trkpt lat="50.15773" lon="4.11928">
        <ele>234.6</ele>
        <time>2020-06-24T15:43:34Z</time>
      </trkpt>
      <trkpt lat="50.1577" lon="4.11932">
        <ele>234.7</ele>
        <time>2020-06-24T15:43:35Z</time>
      </trkpt>
      <trkpt lat="50.15768" lon="4.11936">
        <ele>234.9</ele>
        <time>2020-06-24T15:43:36Z</time>
      </trkpt>
      <trkpt lat="50.15765" lon="4.11938">
        <ele>234.9</ele>
        <time>2020-06-24T15:43:37Z</time>
      </trkpt>
      <trkpt lat="50.15762" lon="4.11941">
        <ele>235</ele>
        <time>2020-06-24T15:43:38Z</time>
      </trkpt>
      <trkpt lat="50.15759" lon="4.11942">
        <ele>235.1</ele>
        <time>2020-06-24T15:43:39Z</time>
      </trkpt>
      <trkpt lat="50.15754" lon="4.11944">
        <ele>235.2</ele>
        <time>2020-06-24T15:43:40Z</time>
      </trkpt>
      <trkpt lat="50.15751" lon="4.11946">
        <ele>235.2</ele>
        <time>2020-06-24T15:43:41Z</time>
      </trkpt>
      <trkpt lat="50.15747" lon="4.11947">
        <ele>235.2</ele>
        <time>2020-06-24T15:43:42Z</time>
      </trkpt>
      <trkpt lat="50.15743" lon="4.11949">
        <ele>235.2</ele>
        <time>2020-06-24T15:43:43Z</time>
      </trkpt>
      <trkpt lat="50.15738" lon="4.11952">
        <ele>235.2</ele>
        <time>2020-06-24T15:43:44Z</time>
      </trkpt>
      <trkpt lat="50.15734" lon="4.11954">
        <ele>235.3</ele>
        <time>2020-06-24T15:43:45Z</time>
      </trkpt>
      <trkpt lat="50.15731" lon="4.11956">
        <ele>235.3</ele>
        <time>2020-06-24T15:43:46Z</time>
      </trkpt>
      <trkpt lat="50.15727" lon="4.11958">
        <ele>235.3</ele>
        <time>2020-06-24T15:43:47Z</time>
      </trkpt>
      <trkpt lat="50.15724" lon="4.11959">
        <ele>235.4</ele>
        <time>2020-06-24T15:43:48Z</time>
      </trkpt>
      <trkpt lat="50.15721" lon="4.1196">
        <ele>235.4</ele>
        <time>2020-06-24T15:43:49Z</time>
      </trkpt>
      <trkpt lat="50.15718" lon="4.11962">
        <ele>235.5</ele>
        <time>2020-06-24T15:43:50Z</time>
      </trkpt>
      <trkpt lat="50.15714" lon="4.11962">
        <ele>235.6</ele>
        <time>2020-06-24T15:43:51Z</time>
      </trkpt>
      <trkpt lat="50.15711" lon="4.11964">
        <ele>235.6</ele>
        <time>2020-06-24T15:43:52Z</time>
      </trkpt>
      <trkpt lat="50.15709" lon="4.11965">
        <ele>235.7</ele>
        <time>2020-06-24T15:43:53Z</time>
      </trkpt>
      <trkpt lat="50.15705" lon="4.11967">
        <ele>235.7</ele>
        <time>2020-06-24T15:43:54Z</time>
      </trkpt>
      <trkpt lat="50.15704" lon="4.11967">
        <ele>235.7</ele>
        <time>2020-06-24T15:43:55Z</time>
      </trkpt>
      <trkpt lat="50.157" lon="4.11969">
        <ele>235.7</ele>
        <time>2020-06-24T15:43:56Z</time>
      </trkpt>
      <trkpt lat="50.15699" lon="4.1197">
        <ele>235.7</ele>
        <time>2020-06-24T15:43:57Z</time>
      </trkpt>
      <trkpt lat="50.15697" lon="4.11975">
        <ele>235.6</ele>
        <time>2020-06-24T15:43:58Z</time>
      </trkpt>
      <trkpt lat="50.15697" lon="4.11977">
        <ele>235.5</ele>
        <time>2020-06-24T15:43:59Z</time>
      </trkpt>
      <trkpt lat="50.15696" lon="4.1198">
        <ele>235.4</ele>
        <time>2020-06-24T15:44:00Z</time>
      </trkpt>
      <trkpt lat="50.15695" lon="4.11982">
        <ele>236.4</ele>
        <time>2020-06-24T15:44:01Z</time>
      </trkpt>
      <trkpt lat="50.15694" lon="4.11983">
        <ele>236.9</ele>
        <time>2020-06-24T15:44:02Z</time>
      </trkpt>
      <trkpt lat="50.15694" lon="4.11987">
        <ele>237.5</ele>
        <time>2020-06-24T15:44:03Z</time>
      </trkpt>
      <trkpt lat="50.15694" lon="4.11989">
        <ele>237.9</ele>
        <time>2020-06-24T15:44:04Z</time>
      </trkpt>
      <trkpt lat="50.15695" lon="4.1199">
        <ele>238.1</ele>
        <time>2020-06-24T15:44:05Z</time>
      </trkpt>
      <trkpt lat="50.15696" lon="4.11991">
        <ele>238.4</ele>
        <time>2020-06-24T15:44:06Z</time>
      </trkpt>
      <trkpt lat="50.15696" lon="4.11992">
        <ele>238.5</ele>
        <time>2020-06-24T15:44:07Z</time>
      </trkpt>
      <trkpt lat="50.15696" lon="4.11992">
        <ele>238.5</ele>
        <time>2020-06-24T15:44:08Z</time>
      </trkpt>
      <trkpt lat="50.15696" lon="4.11992">
        <ele>238.5</ele>
        <time>2020-06-24T15:44:09Z</time>
      </trkpt>
      <trkpt lat="50.15696" lon="4.11992">
        <ele>238.5</ele>
        <time>2020-06-24T15:44:10Z</time>
      </trkpt>
      <trkpt lat="50.15696" lon="4.11992">
        <ele>238.5</ele>
        <time>2020-06-24T15:44:11Z</time>
      </trkpt>
      <trkpt lat="50.15696" lon="4.11992">
        <ele>238.5</ele>
        <time>2020-06-24T15:44:12Z</time>
      </trkpt>
      <trkpt lat="50.15696" lon="4.11992">
        <ele>238.5</ele>
        <time>2020-06-24T15:44:13Z</time>
      </trkpt>
      <trkpt lat="50.15696" lon="4.11992">
        <ele>238.6</ele>
        <time>2020-06-24T15:44:14Z</time>
      </trkpt>
      <trkpt lat="50.15696" lon="4.11992">
        <ele>238.6</ele>
        <time>2020-06-24T15:44:15Z</time>
      </trkpt>
      <trkpt lat="50.15696" lon="4.11992">
        <ele>238.6</ele>
        <time>2020-06-24T15:44:16Z</time>
      </trkpt>
      <trkpt lat="50.15696" lon="4.11992">
        <ele>238.6</ele>
        <time>2020-06-24T15:44:17Z</time>
      </trkpt>
      <trkpt lat="50.15691" lon="4.1199">
        <ele>239.2</ele>
        <time>2020-06-24T15:44:29Z</time>
      </trkpt>
      <trkpt lat="50.1569" lon="4.1199">
        <ele>239.4</ele>
        <time>2020-06-24T15:44:30Z</time>
      </trkpt>
      <trkpt lat="50.15687" lon="4.11989">
        <ele>239.5</ele>
        <time>2020-06-24T15:44:31Z</time>
      </trkpt>
      <trkpt lat="50.15686" lon="4.11989">
        <ele>239.6</ele>
        <time>2020-06-24T15:44:32Z</time>
      </trkpt>
      <trkpt lat="50.15683" lon="4.11991">
        <ele>239.6</ele>
        <time>2020-06-24T15:44:33Z</time>
      </trkpt>
      <trkpt lat="50.15681" lon="4.11991">
        <ele>239.6</ele>
        <time>2020-06-24T15:44:34Z</time>
      </trkpt>
      <trkpt lat="50.15679" lon="4.11992">
        <ele>239.6</ele>
        <time>2020-06-24T15:44:35Z</time>
      </trkpt>
      <trkpt lat="50.15676" lon="4.11995">
        <ele>239.5</ele>
        <time>2020-06-24T15:44:36Z</time>
      </trkpt>
      <trkpt lat="50.15674" lon="4.11997">
        <ele>239.4</ele>
        <time>2020-06-24T15:44:37Z</time>
      </trkpt>
      <trkpt lat="50.1567" lon="4.11998">
        <ele>239.3</ele>
        <time>2020-06-24T15:44:38Z</time>
      </trkpt>
      <trkpt lat="50.15669" lon="4.11999">
        <ele>239.3</ele>
        <time>2020-06-24T15:44:39Z</time>
      </trkpt>
      <trkpt lat="50.15666" lon="4.11999">
        <ele>239.2</ele>
        <time>2020-06-24T15:44:40Z</time>
      </trkpt>
      <trkpt lat="50.15664" lon="4.11999">
        <ele>239.1</ele>
        <time>2020-06-24T15:44:41Z</time>
      </trkpt>
      <trkpt lat="50.15661" lon="4.12002">
        <ele>239</ele>
        <time>2020-06-24T15:44:42Z</time>
      </trkpt>
      <trkpt lat="50.1566" lon="4.12003">
        <ele>239</ele>
        <time>2020-06-24T15:44:43Z</time>
      </trkpt>
      <trkpt lat="50.15657" lon="4.12005">
        <ele>238.8</ele>
        <time>2020-06-24T15:44:44Z</time>
      </trkpt>
      <trkpt lat="50.15653" lon="4.12006">
        <ele>238.7</ele>
        <time>2020-06-24T15:44:45Z</time>
      </trkpt>
      <trkpt lat="50.15649" lon="4.12009">
        <ele>238.5</ele>
        <time>2020-06-24T15:44:46Z</time>
      </trkpt>
      <trkpt lat="50.15645" lon="4.12012">
        <ele>238.3</ele>
        <time>2020-06-24T15:44:47Z</time>
      </trkpt>
      <trkpt lat="50.15641" lon="4.12016">
        <ele>238</ele>
        <time>2020-06-24T15:44:48Z</time>
      </trkpt>
      <trkpt lat="50.15637" lon="4.12021">
        <ele>237.8</ele>
        <time>2020-06-24T15:44:49Z</time>
      </trkpt>
      <trkpt lat="50.15634" lon="4.12027">
        <ele>237.7</ele>
        <time>2020-06-24T15:44:50Z</time>
      </trkpt>
      <trkpt lat="50.15632" lon="4.12034">
        <ele>237.6</ele>
        <time>2020-06-24T15:44:51Z</time>
      </trkpt>
      <trkpt lat="50.15629" lon="4.1204">
        <ele>237.4</ele>
        <time>2020-06-24T15:44:52Z</time>
      </trkpt>
      <trkpt lat="50.15625" lon="4.12045">
        <ele>237.2</ele>
        <time>2020-06-24T15:44:53Z</time>
      </trkpt>
      <trkpt lat="50.15624" lon="4.12052">
        <ele>237</ele>
        <time>2020-06-24T15:44:54Z</time>
      </trkpt>
      <trkpt lat="50.1562" lon="4.12055">
        <ele>236.9</ele>
        <time>2020-06-24T15:44:55Z</time>
      </trkpt>
      <trkpt lat="50.15617" lon="4.1206">
        <ele>236.8</ele>
        <time>2020-06-24T15:44:56Z</time>
      </trkpt>
      <trkpt lat="50.15614" lon="4.12067">
        <ele>236.7</ele>
        <time>2020-06-24T15:44:57Z</time>
      </trkpt>
      <trkpt lat="50.15611" lon="4.12072">
        <ele>236.6</ele>
        <time>2020-06-24T15:44:58Z</time>
      </trkpt>
      <trkpt lat="50.15607" lon="4.12078">
        <ele>236.6</ele>
        <time>2020-06-24T15:44:59Z</time>
      </trkpt>
      <trkpt lat="50.15604" lon="4.12085">
        <ele>236.5</ele>
        <time>2020-06-24T15:45:00Z</time>
      </trkpt>
      <trkpt lat="50.156" lon="4.1209">
        <ele>236.4</ele>
        <time>2020-06-24T15:45:01Z</time>
      </trkpt>
      <trkpt lat="50.15596" lon="4.12096">
        <ele>236.3</ele>
        <time>2020-06-24T15:45:02Z</time>
      </trkpt>
      <trkpt lat="50.15592" lon="4.12102">
        <ele>236.2</ele>
        <time>2020-06-24T15:45:03Z</time>
      </trkpt>
      <trkpt lat="50.15589" lon="4.12109">
        <ele>236.1</ele>
        <time>2020-06-24T15:45:04Z</time>
      </trkpt>
      <trkpt lat="50.15586" lon="4.12116">
        <ele>235.9</ele>
        <time>2020-06-24T15:45:05Z</time>
      </trkpt>
      <trkpt lat="50.15584" lon="4.12123">
        <ele>235.6</ele>
        <time>2020-06-24T15:45:06Z</time>
      </trkpt>
      <trkpt lat="50.15581" lon="4.1213">
        <ele>235.4</ele>
        <time>2020-06-24T15:45:07Z</time>
      </trkpt>
      <trkpt lat="50.15579" lon="4.12135">
        <ele>235.3</ele>
        <time>2020-06-24T15:45:08Z</time>
      </trkpt>
      <trkpt lat="50.15576" lon="4.12142">
        <ele>235.1</ele>
        <time>2020-06-24T15:45:09Z</time>
      </trkpt>
      <trkpt lat="50.15573" lon="4.12148">
        <ele>235</ele>
        <time>2020-06-24T15:45:10Z</time>
      </trkpt>
      <trkpt lat="50.1557" lon="4.12155">
        <ele>234.9</ele>
        <time>2020-06-24T15:45:11Z</time>
      </trkpt>
      <trkpt lat="50.15567" lon="4.12161">
        <ele>234.7</ele>
        <time>2020-06-24T15:45:12Z</time>
      </trkpt>
      <trkpt lat="50.15563" lon="4.12165">
        <ele>234.6</ele>
        <time>2020-06-24T15:45:13Z</time>
      </trkpt>
      <trkpt lat="50.1556" lon="4.12169">
        <ele>234.4</ele>
        <time>2020-06-24T15:45:14Z</time>
      </trkpt>
      <trkpt lat="50.15556" lon="4.12174">
        <ele>234.2</ele>
        <time>2020-06-24T15:45:15Z</time>
      </trkpt>
      <trkpt lat="50.15554" lon="4.12179">
        <ele>234</ele>
        <time>2020-06-24T15:45:16Z</time>
      </trkpt>
      <trkpt lat="50.15549" lon="4.12183">
        <ele>233.7</ele>
        <time>2020-06-24T15:45:17Z</time>
      </trkpt>
      <trkpt lat="50.15545" lon="4.12188">
        <ele>233.6</ele>
        <time>2020-06-24T15:45:18Z</time>
      </trkpt>
      <trkpt lat="50.15542" lon="4.12192">
        <ele>233.5</ele>
        <time>2020-06-24T15:45:19Z</time>
      </trkpt>
      <trkpt lat="50.15539" lon="4.12198">
        <ele>233.4</ele>
        <time>2020-06-24T15:45:20Z</time>
      </trkpt>
      <trkpt lat="50.15535" lon="4.12204">
        <ele>233.4</ele>
        <time>2020-06-24T15:45:21Z</time>
      </trkpt>
      <trkpt lat="50.15532" lon="4.12209">
        <ele>233.4</ele>
        <time>2020-06-24T15:45:22Z</time>
      </trkpt>
      <trkpt lat="50.15528" lon="4.12213">
        <ele>233.3</ele>
        <time>2020-06-24T15:45:23Z</time>
      </trkpt>
      <trkpt lat="50.15524" lon="4.12217">
        <ele>233.3</ele>
        <time>2020-06-24T15:45:24Z</time>
      </trkpt>
      <trkpt lat="50.15521" lon="4.12221">
        <ele>233.2</ele>
        <time>2020-06-24T15:45:25Z</time>
      </trkpt>
      <trkpt lat="50.15518" lon="4.12225">
        <ele>233.1</ele>
        <time>2020-06-24T15:45:26Z</time>
      </trkpt>
      <trkpt lat="50.15514" lon="4.1223">
        <ele>233</ele>
        <time>2020-06-24T15:45:27Z</time>
      </trkpt>
      <trkpt lat="50.15512" lon="4.12234">
        <ele>233</ele>
        <time>2020-06-24T15:45:28Z</time>
      </trkpt>
      <trkpt lat="50.15509" lon="4.12238">
        <ele>232.9</ele>
        <time>2020-06-24T15:45:29Z</time>
      </trkpt>
      <trkpt lat="50.15505" lon="4.12243">
        <ele>232.8</ele>
        <time>2020-06-24T15:45:30Z</time>
      </trkpt>
      <trkpt lat="50.15502" lon="4.12248">
        <ele>232.8</ele>
        <time>2020-06-24T15:45:31Z</time>
      </trkpt>
      <trkpt lat="50.15498" lon="4.12253">
        <ele>232.8</ele>
        <time>2020-06-24T15:45:32Z</time>
      </trkpt>
      <trkpt lat="50.15495" lon="4.12257">
        <ele>232.8</ele>
        <time>2020-06-24T15:45:33Z</time>
      </trkpt>
      <trkpt lat="50.15492" lon="4.12263">
        <ele>232.9</ele>
        <time>2020-06-24T15:45:34Z</time>
      </trkpt>
      <trkpt lat="50.15489" lon="4.12268">
        <ele>232.9</ele>
        <time>2020-06-24T15:45:35Z</time>
      </trkpt>
      <trkpt lat="50.15486" lon="4.12273">
        <ele>233</ele>
        <time>2020-06-24T15:45:36Z</time>
      </trkpt>
      <trkpt lat="50.15483" lon="4.12277">
        <ele>233.1</ele>
        <time>2020-06-24T15:45:37Z</time>
      </trkpt>
      <trkpt lat="50.1548" lon="4.12283">
        <ele>233.2</ele>
        <time>2020-06-24T15:45:38Z</time>
      </trkpt>
      <trkpt lat="50.15478" lon="4.12287">
        <ele>233.3</ele>
        <time>2020-06-24T15:45:39Z</time>
      </trkpt>
      <trkpt lat="50.15476" lon="4.12292">
        <ele>233.3</ele>
        <time>2020-06-24T15:45:40Z</time>
      </trkpt>
      <trkpt lat="50.15475" lon="4.12297">
        <ele>233.4</ele>
        <time>2020-06-24T15:45:41Z</time>
      </trkpt>
      <trkpt lat="50.15473" lon="4.12301">
        <ele>233.4</ele>
        <time>2020-06-24T15:45:42Z</time>
      </trkpt>
      <trkpt lat="50.15472" lon="4.12306">
        <ele>233.5</ele>
        <time>2020-06-24T15:45:43Z</time>
      </trkpt>
      <trkpt lat="50.15473" lon="4.12313">
        <ele>233.6</ele>
        <time>2020-06-24T15:45:44Z</time>
      </trkpt>
      <trkpt lat="50.15473" lon="4.12319">
        <ele>233.7</ele>
        <time>2020-06-24T15:45:45Z</time>
      </trkpt>
      <trkpt lat="50.15473" lon="4.12325">
        <ele>233.8</ele>
        <time>2020-06-24T15:45:46Z</time>
      </trkpt>
      <trkpt lat="50.15474" lon="4.1233">
        <ele>233.8</ele>
        <time>2020-06-24T15:45:47Z</time>
      </trkpt>
      <trkpt lat="50.15475" lon="4.12337">
        <ele>233.8</ele>
        <time>2020-06-24T15:45:48Z</time>
      </trkpt>
      <trkpt lat="50.15476" lon="4.12344">
        <ele>233.9</ele>
        <time>2020-06-24T15:45:49Z</time>
      </trkpt>
      <trkpt lat="50.15477" lon="4.12351">
        <ele>234</ele>
        <time>2020-06-24T15:45:50Z</time>
      </trkpt>
      <trkpt lat="50.15477" lon="4.12357">
        <ele>234</ele>
        <time>2020-06-24T15:45:51Z</time>
      </trkpt>
      <trkpt lat="50.15478" lon="4.12363">
        <ele>234.1</ele>
        <time>2020-06-24T15:45:52Z</time>
      </trkpt>
      <trkpt lat="50.15479" lon="4.1237">
        <ele>234.2</ele>
        <time>2020-06-24T15:45:53Z</time>
      </trkpt>
      <trkpt lat="50.1548" lon="4.12376">
        <ele>234.3</ele>
        <time>2020-06-24T15:45:54Z</time>
      </trkpt>
      <trkpt lat="50.15481" lon="4.12383">
        <ele>234.4</ele>
        <time>2020-06-24T15:45:55Z</time>
      </trkpt>
      <trkpt lat="50.15481" lon="4.12388">
        <ele>234.4</ele>
        <time>2020-06-24T15:45:56Z</time>
      </trkpt>
      <trkpt lat="50.15481" lon="4.12394">
        <ele>234.5</ele>
        <time>2020-06-24T15:45:57Z</time>
      </trkpt>
      <trkpt lat="50.15481" lon="4.124">
        <ele>234.5</ele>
        <time>2020-06-24T15:45:58Z</time>
      </trkpt>
      <trkpt lat="50.15481" lon="4.12405">
        <ele>234.4</ele>
        <time>2020-06-24T15:45:59Z</time>
      </trkpt>
      <trkpt lat="50.15481" lon="4.1241">
        <ele>234.2</ele>
        <time>2020-06-24T15:46:00Z</time>
      </trkpt>
      <trkpt lat="50.15481" lon="4.12415">
        <ele>234</ele>
        <time>2020-06-24T15:46:01Z</time>
      </trkpt>
      <trkpt lat="50.1548" lon="4.12419">
        <ele>233.7</ele>
        <time>2020-06-24T15:46:02Z</time>
      </trkpt>
      <trkpt lat="50.15479" lon="4.12424">
        <ele>232.8</ele>
        <time>2020-06-24T15:46:03Z</time>
      </trkpt>
      <trkpt lat="50.15478" lon="4.12426">
        <ele>232.8</ele>
        <time>2020-06-24T15:46:04Z</time>
      </trkpt>
      <trkpt lat="50.15477" lon="4.12427">
        <ele>232.8</ele>
        <time>2020-06-24T15:46:05Z</time>
      </trkpt>
      <trkpt lat="50.15477" lon="4.12427">
        <ele>232.8</ele>
        <time>2020-06-24T15:46:06Z</time>
      </trkpt>
      <trkpt lat="50.15477" lon="4.12427">
        <ele>232.7</ele>
        <time>2020-06-24T15:46:07Z</time>
      </trkpt>
      <trkpt lat="50.15477" lon="4.12426">
        <ele>232.7</ele>
        <time>2020-06-24T15:46:08Z</time>
      </trkpt>
      <trkpt lat="50.15477" lon="4.12427">
        <ele>232.7</ele>
        <time>2020-06-24T15:46:09Z</time>
      </trkpt>
      <trkpt lat="50.15477" lon="4.12427">
        <ele>232.7</ele>
        <time>2020-06-24T15:46:10Z</time>
      </trkpt>
      <trkpt lat="50.15477" lon="4.12427">
        <ele>232.7</ele>
        <time>2020-06-24T15:46:11Z</time>
      </trkpt>
      <trkpt lat="50.15477" lon="4.12427">
        <ele>232.7</ele>
        <time>2020-06-24T15:46:12Z</time>
      </trkpt>
      <trkpt lat="50.15477" lon="4.12427">
        <ele>232.7</ele>
        <time>2020-06-24T15:46:13Z</time>
      </trkpt>
      <trkpt lat="50.15477" lon="4.12427">
        <ele>232.7</ele>
        <time>2020-06-24T15:46:14Z</time>
      </trkpt>
      <trkpt lat="50.15477" lon="4.12427">
        <ele>232.7</ele>
        <time>2020-06-24T15:46:15Z</time>
      </trkpt>
      <trkpt lat="50.15477" lon="4.12427">
        <ele>232.7</ele>
        <time>2020-06-24T15:46:16Z</time>
      </trkpt>
      <trkpt lat="50.15475" lon="4.12431">
        <ele>232.7</ele>
        <time>2020-06-24T15:46:35Z</time>
      </trkpt>
      <trkpt lat="50.15473" lon="4.12432">
        <ele>232.7</ele>
        <time>2020-06-24T15:46:36Z</time>
      </trkpt>
      <trkpt lat="50.1547" lon="4.12434">
        <ele>232.7</ele>
        <time>2020-06-24T15:46:37Z</time>
      </trkpt>
      <trkpt lat="50.15468" lon="4.12435">
        <ele>232.7</ele>
        <time>2020-06-24T15:46:38Z</time>
      </trkpt>
      <trkpt lat="50.15465" lon="4.12438">
        <ele>232.7</ele>
        <time>2020-06-24T15:46:39Z</time>
      </trkpt>
      <trkpt lat="50.15462" lon="4.1244">
        <ele>232.7</ele>
        <time>2020-06-24T15:46:40Z</time>
      </trkpt>
      <trkpt lat="50.15459" lon="4.12442">
        <ele>232.7</ele>
        <time>2020-06-24T15:46:41Z</time>
      </trkpt>
      <trkpt lat="50.15456" lon="4.12444">
        <ele>232.8</ele>
        <time>2020-06-24T15:46:42Z</time>
      </trkpt>
      <trkpt lat="50.15452" lon="4.12446">
        <ele>232.8</ele>
        <time>2020-06-24T15:46:43Z</time>
      </trkpt>
      <trkpt lat="50.15449" lon="4.12449">
        <ele>232.9</ele>
        <time>2020-06-24T15:46:44Z</time>
      </trkpt>
      <trkpt lat="50.15445" lon="4.12453">
        <ele>232.9</ele>
        <time>2020-06-24T15:46:45Z</time>
      </trkpt>
      <trkpt lat="50.15441" lon="4.12457">
        <ele>233</ele>
        <time>2020-06-24T15:46:46Z</time>
      </trkpt>
      <trkpt lat="50.15437" lon="4.1246">
        <ele>233</ele>
        <time>2020-06-24T15:46:47Z</time>
      </trkpt>
      <trkpt lat="50.15434" lon="4.12463">
        <ele>233.1</ele>
        <time>2020-06-24T15:46:48Z</time>
      </trkpt>
      <trkpt lat="50.1543" lon="4.12467">
        <ele>233.2</ele>
        <time>2020-06-24T15:46:49Z</time>
      </trkpt>
      <trkpt lat="50.15426" lon="4.1247">
        <ele>233.3</ele>
        <time>2020-06-24T15:46:50Z</time>
      </trkpt>
      <trkpt lat="50.15423" lon="4.12473">
        <ele>233.4</ele>
        <time>2020-06-24T15:46:51Z</time>
      </trkpt>
      <trkpt lat="50.15418" lon="4.12477">
        <ele>233.5</ele>
        <time>2020-06-24T15:46:52Z</time>
      </trkpt>
      <trkpt lat="50.15414" lon="4.12479">
        <ele>233.6</ele>
        <time>2020-06-24T15:46:53Z</time>
      </trkpt>
      <trkpt lat="50.1541" lon="4.12483">
        <ele>233.6</ele>
        <time>2020-06-24T15:46:54Z</time>
      </trkpt>
      <trkpt lat="50.15407" lon="4.12486">
        <ele>233.6</ele>
        <time>2020-06-24T15:46:55Z</time>
      </trkpt>
      <trkpt lat="50.15403" lon="4.12489">
        <ele>233.7</ele>
        <time>2020-06-24T15:46:56Z</time>
      </trkpt>
      <trkpt lat="50.154" lon="4.12492">
        <ele>233.7</ele>
        <time>2020-06-24T15:46:57Z</time>
      </trkpt>
      <trkpt lat="50.15398" lon="4.12495">
        <ele>233.8</ele>
        <time>2020-06-24T15:46:58Z</time>
      </trkpt>
      <trkpt lat="50.15395" lon="4.12497">
        <ele>233.8</ele>
        <time>2020-06-24T15:46:59Z</time>
      </trkpt>
      <trkpt lat="50.15392" lon="4.125">
        <ele>233.9</ele>
        <time>2020-06-24T15:47:00Z</time>
      </trkpt>
      <trkpt lat="50.1539" lon="4.12501">
        <ele>233.9</ele>
        <time>2020-06-24T15:47:01Z</time>
      </trkpt>
      <trkpt lat="50.15388" lon="4.12504">
        <ele>234</ele>
        <time>2020-06-24T15:47:02Z</time>
      </trkpt>
      <trkpt lat="50.15387" lon="4.12504">
        <ele>234</ele>
        <time>2020-06-24T15:47:03Z</time>
      </trkpt>
      <trkpt lat="50.15385" lon="4.12507">
        <ele>234.1</ele>
        <time>2020-06-24T15:47:04Z</time>
      </trkpt>
      <trkpt lat="50.15382" lon="4.12509">
        <ele>234.1</ele>
        <time>2020-06-24T15:47:05Z</time>
      </trkpt>
      <trkpt lat="50.15379" lon="4.12511">
        <ele>234.2</ele>
        <time>2020-06-24T15:47:06Z</time>
      </trkpt>
      <trkpt lat="50.15377" lon="4.12514">
        <ele>234.2</ele>
        <time>2020-06-24T15:47:07Z</time>
      </trkpt>
      <trkpt lat="50.15374" lon="4.12517">
        <ele>234.3</ele>
        <time>2020-06-24T15:47:08Z</time>
      </trkpt>
      <trkpt lat="50.15372" lon="4.1252">
        <ele>234.3</ele>
        <time>2020-06-24T15:47:09Z</time>
      </trkpt>
      <trkpt lat="50.15369" lon="4.12522">
        <ele>234.4</ele>
        <time>2020-06-24T15:47:10Z</time>
      </trkpt>
      <trkpt lat="50.15365" lon="4.12526">
        <ele>234.4</ele>
        <time>2020-06-24T15:47:11Z</time>
      </trkpt>
      <trkpt lat="50.15364" lon="4.12527">
        <ele>234.5</ele>
        <time>2020-06-24T15:47:12Z</time>
      </trkpt>
      <trkpt lat="50.1536" lon="4.12531">
        <ele>234.5</ele>
        <time>2020-06-24T15:47:13Z</time>
      </trkpt>
      <trkpt lat="50.15358" lon="4.12533">
        <ele>234.5</ele>
        <time>2020-06-24T15:47:14Z</time>
      </trkpt>
      <trkpt lat="50.15354" lon="4.12536">
        <ele>234.6</ele>
        <time>2020-06-24T15:47:15Z</time>
      </trkpt>
      <trkpt lat="50.1535" lon="4.12538">
        <ele>234.6</ele>
        <time>2020-06-24T15:47:16Z</time>
      </trkpt>
      <trkpt lat="50.15347" lon="4.12542">
        <ele>234.7</ele>
        <time>2020-06-24T15:47:17Z</time>
      </trkpt>
      <trkpt lat="50.15344" lon="4.12545">
        <ele>234.8</ele>
        <time>2020-06-24T15:47:18Z</time>
      </trkpt>
      <trkpt lat="50.15341" lon="4.12548">
        <ele>234.8</ele>
        <time>2020-06-24T15:47:19Z</time>
      </trkpt>
      <trkpt lat="50.15337" lon="4.12551">
        <ele>234.9</ele>
        <time>2020-06-24T15:47:20Z</time>
      </trkpt>
      <trkpt lat="50.15334" lon="4.12554">
        <ele>235</ele>
        <time>2020-06-24T15:47:21Z</time>
      </trkpt>
      <trkpt lat="50.1533" lon="4.12557">
        <ele>235.1</ele>
        <time>2020-06-24T15:47:22Z</time>
      </trkpt>
      <trkpt lat="50.15326" lon="4.12561">
        <ele>235.2</ele>
        <time>2020-06-24T15:47:23Z</time>
      </trkpt>
      <trkpt lat="50.15322" lon="4.12564">
        <ele>235.2</ele>
        <time>2020-06-24T15:47:24Z</time>
      </trkpt>
      <trkpt lat="50.15318" lon="4.12567">
        <ele>235.2</ele>
        <time>2020-06-24T15:47:25Z</time>
      </trkpt>
      <trkpt lat="50.15315" lon="4.12569">
        <ele>235.2</ele>
        <time>2020-06-24T15:47:26Z</time>
      </trkpt>
      <trkpt lat="50.15311" lon="4.12573">
        <ele>235.2</ele>
        <time>2020-06-24T15:47:27Z</time>
      </trkpt>
      <trkpt lat="50.15307" lon="4.12578">
        <ele>235.2</ele>
        <time>2020-06-24T15:47:28Z</time>
      </trkpt>
      <trkpt lat="50.15303" lon="4.12581">
        <ele>235.2</ele>
        <time>2020-06-24T15:47:29Z</time>
      </trkpt>
      <trkpt lat="50.15298" lon="4.12586">
        <ele>235.1</ele>
        <time>2020-06-24T15:47:30Z</time>
      </trkpt>
      <trkpt lat="50.15293" lon="4.1259">
        <ele>235</ele>
        <time>2020-06-24T15:47:31Z</time>
      </trkpt>
      <trkpt lat="50.15288" lon="4.12594">
        <ele>234.8</ele>
        <time>2020-06-24T15:47:32Z</time>
      </trkpt>
      <trkpt lat="50.15283" lon="4.12599">
        <ele>234.7</ele>
        <time>2020-06-24T15:47:33Z</time>
      </trkpt>
      <trkpt lat="50.15278" lon="4.12604">
        <ele>234.6</ele>
        <time>2020-06-24T15:47:34Z</time>
      </trkpt>
      <trkpt lat="50.15273" lon="4.12608">
        <ele>234.4</ele>
        <time>2020-06-24T15:47:35Z</time>
      </trkpt>
      <trkpt lat="50.15267" lon="4.12614">
        <ele>234.2</ele>
        <time>2020-06-24T15:47:36Z</time>
      </trkpt>
      <trkpt lat="50.15262" lon="4.12619">
        <ele>234</ele>
        <time>2020-06-24T15:47:37Z</time>
      </trkpt>
      <trkpt lat="50.15256" lon="4.12625">
        <ele>233.8</ele>
        <time>2020-06-24T15:47:38Z</time>
      </trkpt>
      <trkpt lat="50.1525" lon="4.1263">
        <ele>233.6</ele>
        <time>2020-06-24T15:47:39Z</time>
      </trkpt>
      <trkpt lat="50.15244" lon="4.12635">
        <ele>233.4</ele>
        <time>2020-06-24T15:47:40Z</time>
      </trkpt>
      <trkpt lat="50.15239" lon="4.12641">
        <ele>233.2</ele>
        <time>2020-06-24T15:47:41Z</time>
      </trkpt>
      <trkpt lat="50.15233" lon="4.12646">
        <ele>233</ele>
        <time>2020-06-24T15:47:42Z</time>
      </trkpt>
      <trkpt lat="50.15227" lon="4.12652">
        <ele>232.8</ele>
        <time>2020-06-24T15:47:43Z</time>
      </trkpt>
      <trkpt lat="50.1522" lon="4.12658">
        <ele>232.5</ele>
        <time>2020-06-24T15:47:44Z</time>
      </trkpt>
      <trkpt lat="50.15213" lon="4.12664">
        <ele>232.3</ele>
        <time>2020-06-24T15:47:45Z</time>
      </trkpt>
      <trkpt lat="50.15206" lon="4.12669">
        <ele>232.1</ele>
        <time>2020-06-24T15:47:46Z</time>
      </trkpt>
      <trkpt lat="50.15199" lon="4.12675">
        <ele>231.8</ele>
        <time>2020-06-24T15:47:47Z</time>
      </trkpt>
      <trkpt lat="50.15192" lon="4.12681">
        <ele>231.6</ele>
        <time>2020-06-24T15:47:48Z</time>
      </trkpt>
      <trkpt lat="50.15185" lon="4.12687">
        <ele>231.4</ele>
        <time>2020-06-24T15:47:49Z</time>
      </trkpt>
      <trkpt lat="50.15178" lon="4.12693">
        <ele>231.2</ele>
        <time>2020-06-24T15:47:50Z</time>
      </trkpt>
      <trkpt lat="50.15171" lon="4.12698">
        <ele>231</ele>
        <time>2020-06-24T15:47:51Z</time>
      </trkpt>
      <trkpt lat="50.15164" lon="4.12704">
        <ele>230.8</ele>
        <time>2020-06-24T15:47:52Z</time>
      </trkpt>
      <trkpt lat="50.15157" lon="4.12708">
        <ele>230.7</ele>
        <time>2020-06-24T15:47:53Z</time>
      </trkpt>
      <trkpt lat="50.15151" lon="4.12711">
        <ele>230.5</ele>
        <time>2020-06-24T15:47:54Z</time>
      </trkpt>
      <trkpt lat="50.15144" lon="4.12715">
        <ele>230.4</ele>
        <time>2020-06-24T15:47:55Z</time>
      </trkpt>
      <trkpt lat="50.15137" lon="4.12718">
        <ele>230.2</ele>
        <time>2020-06-24T15:47:56Z</time>
      </trkpt>
      <trkpt lat="50.15128" lon="4.12723">
        <ele>230.1</ele>
        <time>2020-06-24T15:47:57Z</time>
      </trkpt>
      <trkpt lat="50.15122" lon="4.12728">
        <ele>229.9</ele>
        <time>2020-06-24T15:47:58Z</time>
      </trkpt>
      <trkpt lat="50.15114" lon="4.12733">
        <ele>229.8</ele>
        <time>2020-06-24T15:47:59Z</time>
      </trkpt>
      <trkpt lat="50.15108" lon="4.12738">
        <ele>229.7</ele>
        <time>2020-06-24T15:48:00Z</time>
      </trkpt>
      <trkpt lat="50.15102" lon="4.12744">
        <ele>229.6</ele>
        <time>2020-06-24T15:48:01Z</time>
      </trkpt>
      <trkpt lat="50.15095" lon="4.1275">
        <ele>229.5</ele>
        <time>2020-06-24T15:48:02Z</time>
      </trkpt>
      <trkpt lat="50.15088" lon="4.12755">
        <ele>229.4</ele>
        <time>2020-06-24T15:48:03Z</time>
      </trkpt>
      <trkpt lat="50.15082" lon="4.12761">
        <ele>229.4</ele>
        <time>2020-06-24T15:48:04Z</time>
      </trkpt>
      <trkpt lat="50.15075" lon="4.12766">
        <ele>229.4</ele>
        <time>2020-06-24T15:48:05Z</time>
      </trkpt>
      <trkpt lat="50.15069" lon="4.12772">
        <ele>229.3</ele>
        <time>2020-06-24T15:48:06Z</time>
      </trkpt>
      <trkpt lat="50.15063" lon="4.12778">
        <ele>229.2</ele>
        <time>2020-06-24T15:48:07Z</time>
      </trkpt>
      <trkpt lat="50.15057" lon="4.12782">
        <ele>229.1</ele>
        <time>2020-06-24T15:48:08Z</time>
      </trkpt>
      <trkpt lat="50.15052" lon="4.12786">
        <ele>229.1</ele>
        <time>2020-06-24T15:48:09Z</time>
      </trkpt>
      <trkpt lat="50.15046" lon="4.12792">
        <ele>229</ele>
        <time>2020-06-24T15:48:10Z</time>
      </trkpt>
      <trkpt lat="50.1504" lon="4.12797">
        <ele>228.9</ele>
        <time>2020-06-24T15:48:11Z</time>
      </trkpt>
      <trkpt lat="50.15034" lon="4.12803">
        <ele>228.8</ele>
        <time>2020-06-24T15:48:12Z</time>
      </trkpt>
      <trkpt lat="50.15028" lon="4.12808">
        <ele>228.8</ele>
        <time>2020-06-24T15:48:13Z</time>
      </trkpt>
      <trkpt lat="50.15022" lon="4.12813">
        <ele>228.7</ele>
        <time>2020-06-24T15:48:14Z</time>
      </trkpt>
      <trkpt lat="50.15016" lon="4.12817">
        <ele>228.6</ele>
        <time>2020-06-24T15:48:15Z</time>
      </trkpt>
      <trkpt lat="50.1501" lon="4.12821">
        <ele>228.5</ele>
        <time>2020-06-24T15:48:16Z</time>
      </trkpt>
      <trkpt lat="50.15004" lon="4.12825">
        <ele>228.4</ele>
        <time>2020-06-24T15:48:17Z</time>
      </trkpt>
      <trkpt lat="50.14999" lon="4.12828">
        <ele>228.4</ele>
        <time>2020-06-24T15:48:18Z</time>
      </trkpt>
      <trkpt lat="50.14992" lon="4.12831">
        <ele>228.3</ele>
        <time>2020-06-24T15:48:19Z</time>
      </trkpt>
      <trkpt lat="50.14986" lon="4.12834">
        <ele>228.3</ele>
        <time>2020-06-24T15:48:20Z</time>
      </trkpt>
      <trkpt lat="50.1498" lon="4.12837">
        <ele>228.3</ele>
        <time>2020-06-24T15:48:21Z</time>
      </trkpt>
      <trkpt lat="50.14973" lon="4.1284">
        <ele>228.3</ele>
        <time>2020-06-24T15:48:22Z</time>
      </trkpt>
      <trkpt lat="50.14967" lon="4.12842">
        <ele>228.3</ele>
        <time>2020-06-24T15:48:23Z</time>
      </trkpt>
      <trkpt lat="50.14961" lon="4.12845">
        <ele>228.2</ele>
        <time>2020-06-24T15:48:24Z</time>
      </trkpt>
      <trkpt lat="50.14955" lon="4.12848">
        <ele>228</ele>
        <time>2020-06-24T15:48:25Z</time>
      </trkpt>
      <trkpt lat="50.14948" lon="4.12851">
        <ele>227.7</ele>
        <time>2020-06-24T15:48:26Z</time>
      </trkpt>
      <trkpt lat="50.14942" lon="4.12854">
        <ele>227.4</ele>
        <time>2020-06-24T15:48:27Z</time>
      </trkpt>
      <trkpt lat="50.14935" lon="4.12857">
        <ele>227.1</ele>
        <time>2020-06-24T15:48:28Z</time>
      </trkpt>
      <trkpt lat="50.14928" lon="4.1286">
        <ele>226.8</ele>
        <time>2020-06-24T15:48:29Z</time>
      </trkpt>
      <trkpt lat="50.14921" lon="4.12863">
        <ele>226.5</ele>
        <time>2020-06-24T15:48:30Z</time>
      </trkpt>
      <trkpt lat="50.14914" lon="4.12866">
        <ele>226.2</ele>
        <time>2020-06-24T15:48:31Z</time>
      </trkpt>
      <trkpt lat="50.14908" lon="4.12869">
        <ele>225.9</ele>
        <time>2020-06-24T15:48:32Z</time>
      </trkpt>
      <trkpt lat="50.14901" lon="4.12872">
        <ele>225.6</ele>
        <time>2020-06-24T15:48:33Z</time>
      </trkpt>
      <trkpt lat="50.14894" lon="4.12876">
        <ele>225.3</ele>
        <time>2020-06-24T15:48:34Z</time>
      </trkpt>
      <trkpt lat="50.14887" lon="4.12879">
        <ele>225</ele>
        <time>2020-06-24T15:48:35Z</time>
      </trkpt>
      <trkpt lat="50.1488" lon="4.12881">
        <ele>224.7</ele>
        <time>2020-06-24T15:48:36Z</time>
      </trkpt>
      <trkpt lat="50.14873" lon="4.12884">
        <ele>224.4</ele>
        <time>2020-06-24T15:48:37Z</time>
      </trkpt>
      <trkpt lat="50.14866" lon="4.12887">
        <ele>224.1</ele>
        <time>2020-06-24T15:48:38Z</time>
      </trkpt>
      <trkpt lat="50.14859" lon="4.12891">
        <ele>223.7</ele>
        <time>2020-06-24T15:48:39Z</time>
      </trkpt>
      <trkpt lat="50.14851" lon="4.12895">
        <ele>223.4</ele>
        <time>2020-06-24T15:48:40Z</time>
      </trkpt>
      <trkpt lat="50.14844" lon="4.12898">
        <ele>223</ele>
        <time>2020-06-24T15:48:41Z</time>
      </trkpt>
      <trkpt lat="50.14836" lon="4.12902">
        <ele>222.7</ele>
        <time>2020-06-24T15:48:42Z</time>
      </trkpt>
      <trkpt lat="50.14828" lon="4.12905">
        <ele>222.3</ele>
        <time>2020-06-24T15:48:43Z</time>
      </trkpt>
      <trkpt lat="50.14821" lon="4.12909">
        <ele>222</ele>
        <time>2020-06-24T15:48:44Z</time>
      </trkpt>
      <trkpt lat="50.14813" lon="4.12913">
        <ele>221.7</ele>
        <time>2020-06-24T15:48:45Z</time>
      </trkpt>
      <trkpt lat="50.14805" lon="4.12918">
        <ele>221.4</ele>
        <time>2020-06-24T15:48:46Z</time>
      </trkpt>
      <trkpt lat="50.14797" lon="4.12923">
        <ele>221.1</ele>
        <time>2020-06-24T15:48:47Z</time>
      </trkpt>
      <trkpt lat="50.14789" lon="4.12927">
        <ele>220.9</ele>
        <time>2020-06-24T15:48:48Z</time>
      </trkpt>
      <trkpt lat="50.14782" lon="4.12932">
        <ele>220.6</ele>
        <time>2020-06-24T15:48:49Z</time>
      </trkpt>
      <trkpt lat="50.14774" lon="4.12938">
        <ele>220.4</ele>
        <time>2020-06-24T15:48:50Z</time>
      </trkpt>
      <trkpt lat="50.14767" lon="4.12944">
        <ele>220.2</ele>
        <time>2020-06-24T15:48:51Z</time>
      </trkpt>
      <trkpt lat="50.14759" lon="4.12948">
        <ele>220</ele>
        <time>2020-06-24T15:48:52Z</time>
      </trkpt>
      <trkpt lat="50.14751" lon="4.12953">
        <ele>219.8</ele>
        <time>2020-06-24T15:48:53Z</time>
      </trkpt>
      <trkpt lat="50.14744" lon="4.12958">
        <ele>219.7</ele>
        <time>2020-06-24T15:48:54Z</time>
      </trkpt>
      <trkpt lat="50.14737" lon="4.12962">
        <ele>219.5</ele>
        <time>2020-06-24T15:48:55Z</time>
      </trkpt>
      <trkpt lat="50.14729" lon="4.12967">
        <ele>219.4</ele>
        <time>2020-06-24T15:48:56Z</time>
      </trkpt>
      <trkpt lat="50.14723" lon="4.12971">
        <ele>219.3</ele>
        <time>2020-06-24T15:48:57Z</time>
      </trkpt>
      <trkpt lat="50.14717" lon="4.12974">
        <ele>219.1</ele>
        <time>2020-06-24T15:48:58Z</time>
      </trkpt>
      <trkpt lat="50.1471" lon="4.12978">
        <ele>219.1</ele>
        <time>2020-06-24T15:48:59Z</time>
      </trkpt>
      <trkpt lat="50.14704" lon="4.12982">
        <ele>219</ele>
        <time>2020-06-24T15:49:00Z</time>
      </trkpt>
      <trkpt lat="50.14698" lon="4.12985">
        <ele>218.9</ele>
        <time>2020-06-24T15:49:01Z</time>
      </trkpt>
      <trkpt lat="50.14691" lon="4.12987">
        <ele>218.8</ele>
        <time>2020-06-24T15:49:02Z</time>
      </trkpt>
      <trkpt lat="50.14685" lon="4.12991">
        <ele>218.8</ele>
        <time>2020-06-24T15:49:03Z</time>
      </trkpt>
      <trkpt lat="50.14678" lon="4.12994">
        <ele>218.7</ele>
        <time>2020-06-24T15:49:04Z</time>
      </trkpt>
      <trkpt lat="50.14671" lon="4.12996">
        <ele>218.7</ele>
        <time>2020-06-24T15:49:05Z</time>
      </trkpt>
      <trkpt lat="50.14665" lon="4.12998">
        <ele>218.7</ele>
        <time>2020-06-24T15:49:06Z</time>
      </trkpt>
      <trkpt lat="50.14658" lon="4.13">
        <ele>218.8</ele>
        <time>2020-06-24T15:49:07Z</time>
      </trkpt>
      <trkpt lat="50.14651" lon="4.13004">
        <ele>218.8</ele>
        <time>2020-06-24T15:49:08Z</time>
      </trkpt>
      <trkpt lat="50.14645" lon="4.13007">
        <ele>218.9</ele>
        <time>2020-06-24T15:49:09Z</time>
      </trkpt>
      <trkpt lat="50.14639" lon="4.13009">
        <ele>219</ele>
        <time>2020-06-24T15:49:10Z</time>
      </trkpt>
      <trkpt lat="50.14633" lon="4.1301">
        <ele>219</ele>
        <time>2020-06-24T15:49:11Z</time>
      </trkpt>
      <trkpt lat="50.14627" lon="4.13013">
        <ele>219.1</ele>
        <time>2020-06-24T15:49:12Z</time>
      </trkpt>
      <trkpt lat="50.14621" lon="4.13016">
        <ele>219.2</ele>
        <time>2020-06-24T15:49:13Z</time>
      </trkpt>
      <trkpt lat="50.14614" lon="4.13018">
        <ele>219.4</ele>
        <time>2020-06-24T15:49:14Z</time>
      </trkpt>
      <trkpt lat="50.14609" lon="4.13021">
        <ele>219.6</ele>
        <time>2020-06-24T15:49:15Z</time>
      </trkpt>
      <trkpt lat="50.14603" lon="4.13023">
        <ele>219.8</ele>
        <time>2020-06-24T15:49:16Z</time>
      </trkpt>
      <trkpt lat="50.14599" lon="4.13025">
        <ele>220.1</ele>
        <time>2020-06-24T15:49:17Z</time>
      </trkpt>
      <trkpt lat="50.14595" lon="4.13027">
        <ele>220.3</ele>
        <time>2020-06-24T15:49:18Z</time>
      </trkpt>
      <trkpt lat="50.1459" lon="4.1303">
        <ele>220.5</ele>
        <time>2020-06-24T15:49:19Z</time>
      </trkpt>
      <trkpt lat="50.14586" lon="4.13032">
        <ele>220.7</ele>
        <time>2020-06-24T15:49:20Z</time>
      </trkpt>
      <trkpt lat="50.14582" lon="4.13035">
        <ele>220.9</ele>
        <time>2020-06-24T15:49:21Z</time>
      </trkpt>
      <trkpt lat="50.14577" lon="4.13037">
        <ele>221.1</ele>
        <time>2020-06-24T15:49:22Z</time>
      </trkpt>
      <trkpt lat="50.14573" lon="4.13039">
        <ele>221.4</ele>
        <time>2020-06-24T15:49:23Z</time>
      </trkpt>
      <trkpt lat="50.14568" lon="4.1304">
        <ele>221.6</ele>
        <time>2020-06-24T15:49:24Z</time>
      </trkpt>
      <trkpt lat="50.14563" lon="4.13041">
        <ele>221.8</ele>
        <time>2020-06-24T15:49:25Z</time>
      </trkpt>
      <trkpt lat="50.14559" lon="4.13043">
        <ele>222</ele>
        <time>2020-06-24T15:49:26Z</time>
      </trkpt>
      <trkpt lat="50.14555" lon="4.13045">
        <ele>222.1</ele>
        <time>2020-06-24T15:49:27Z</time>
      </trkpt>
      <trkpt lat="50.14551" lon="4.13047">
        <ele>222.3</ele>
        <time>2020-06-24T15:49:28Z</time>
      </trkpt>
      <trkpt lat="50.14546" lon="4.13049">
        <ele>222.4</ele>
        <time>2020-06-24T15:49:29Z</time>
      </trkpt>
      <trkpt lat="50.14541" lon="4.13051">
        <ele>222.6</ele>
        <time>2020-06-24T15:49:30Z</time>
      </trkpt>
      <trkpt lat="50.14536" lon="4.13053">
        <ele>222.7</ele>
        <time>2020-06-24T15:49:31Z</time>
      </trkpt>
      <trkpt lat="50.14532" lon="4.13055">
        <ele>222.8</ele>
        <time>2020-06-24T15:49:32Z</time>
      </trkpt>
      <trkpt lat="50.14528" lon="4.13057">
        <ele>222.9</ele>
        <time>2020-06-24T15:49:33Z</time>
      </trkpt>
      <trkpt lat="50.14525" lon="4.13059">
        <ele>222.9</ele>
        <time>2020-06-24T15:49:34Z</time>
      </trkpt>
      <trkpt lat="50.14522" lon="4.1306">
        <ele>223</ele>
        <time>2020-06-24T15:49:35Z</time>
      </trkpt>
      <trkpt lat="50.14519" lon="4.13062">
        <ele>223</ele>
        <time>2020-06-24T15:49:36Z</time>
      </trkpt>
      <trkpt lat="50.14515" lon="4.13062">
        <ele>223</ele>
        <time>2020-06-24T15:49:37Z</time>
      </trkpt>
      <trkpt lat="50.14512" lon="4.13063">
        <ele>223</ele>
        <time>2020-06-24T15:49:38Z</time>
      </trkpt>
      <trkpt lat="50.14509" lon="4.13065">
        <ele>223.1</ele>
        <time>2020-06-24T15:49:39Z</time>
      </trkpt>
      <trkpt lat="50.14506" lon="4.13067">
        <ele>223.1</ele>
        <time>2020-06-24T15:49:40Z</time>
      </trkpt>
      <trkpt lat="50.14503" lon="4.13069">
        <ele>223.1</ele>
        <time>2020-06-24T15:49:41Z</time>
      </trkpt>
      <trkpt lat="50.145" lon="4.13069">
        <ele>223.1</ele>
        <time>2020-06-24T15:49:42Z</time>
      </trkpt>
      <trkpt lat="50.14497" lon="4.1307">
        <ele>223.1</ele>
        <time>2020-06-24T15:49:43Z</time>
      </trkpt>
      <trkpt lat="50.14494" lon="4.13071">
        <ele>223.1</ele>
        <time>2020-06-24T15:49:44Z</time>
      </trkpt>
      <trkpt lat="50.1449" lon="4.13072">
        <ele>223.1</ele>
        <time>2020-06-24T15:49:45Z</time>
      </trkpt>
      <trkpt lat="50.14486" lon="4.13073">
        <ele>223.1</ele>
        <time>2020-06-24T15:49:46Z</time>
      </trkpt>
      <trkpt lat="50.14485" lon="4.13073">
        <ele>223.1</ele>
        <time>2020-06-24T15:49:47Z</time>
      </trkpt>
      <trkpt lat="50.14481" lon="4.13073">
        <ele>223</ele>
        <time>2020-06-24T15:49:48Z</time>
      </trkpt>
      <trkpt lat="50.14477" lon="4.13074">
        <ele>222.9</ele>
        <time>2020-06-24T15:49:49Z</time>
      </trkpt>
      <trkpt lat="50.14472" lon="4.13075">
        <ele>222.8</ele>
        <time>2020-06-24T15:49:50Z</time>
      </trkpt>
      <trkpt lat="50.14469" lon="4.13077">
        <ele>222.8</ele>
        <time>2020-06-24T15:49:51Z</time>
      </trkpt>
      <trkpt lat="50.14465" lon="4.1308">
        <ele>222.7</ele>
        <time>2020-06-24T15:49:52Z</time>
      </trkpt>
      <trkpt lat="50.14461" lon="4.13082">
        <ele>222.6</ele>
        <time>2020-06-24T15:49:53Z</time>
      </trkpt>
      <trkpt lat="50.14457" lon="4.13084">
        <ele>222.4</ele>
        <time>2020-06-24T15:49:54Z</time>
      </trkpt>
      <trkpt lat="50.14452" lon="4.13086">
        <ele>222.3</ele>
        <time>2020-06-24T15:49:55Z</time>
      </trkpt>
      <trkpt lat="50.14448" lon="4.13087">
        <ele>222.2</ele>
        <time>2020-06-24T15:49:56Z</time>
      </trkpt>
      <trkpt lat="50.14444" lon="4.13089">
        <ele>222</ele>
        <time>2020-06-24T15:49:57Z</time>
      </trkpt>
      <trkpt lat="50.14439" lon="4.13092">
        <ele>221.9</ele>
        <time>2020-06-24T15:49:58Z</time>
      </trkpt>
      <trkpt lat="50.14434" lon="4.13095">
        <ele>221.7</ele>
        <time>2020-06-24T15:49:59Z</time>
      </trkpt>
      <trkpt lat="50.14429" lon="4.13097">
        <ele>221.5</ele>
        <time>2020-06-24T15:50:00Z</time>
      </trkpt>
      <trkpt lat="50.14422" lon="4.131">
        <ele>221.2</ele>
        <time>2020-06-24T15:50:01Z</time>
      </trkpt>
      <trkpt lat="50.14416" lon="4.13104">
        <ele>220.9</ele>
        <time>2020-06-24T15:50:02Z</time>
      </trkpt>
      <trkpt lat="50.1441" lon="4.13108">
        <ele>220.6</ele>
        <time>2020-06-24T15:50:03Z</time>
      </trkpt>
      <trkpt lat="50.14403" lon="4.13111">
        <ele>220.2</ele>
        <time>2020-06-24T15:50:04Z</time>
      </trkpt>
      <trkpt lat="50.14395" lon="4.13114">
        <ele>219.8</ele>
        <time>2020-06-24T15:50:05Z</time>
      </trkpt>
      <trkpt lat="50.14388" lon="4.13117">
        <ele>219.4</ele>
        <time>2020-06-24T15:50:06Z</time>
      </trkpt>
      <trkpt lat="50.1438" lon="4.1312">
        <ele>219</ele>
        <time>2020-06-24T15:50:07Z</time>
      </trkpt>
      <trkpt lat="50.14372" lon="4.13123">
        <ele>218.5</ele>
        <time>2020-06-24T15:50:08Z</time>
      </trkpt>
      <trkpt lat="50.14364" lon="4.13126">
        <ele>218.1</ele>
        <time>2020-06-24T15:50:09Z</time>
      </trkpt>
      <trkpt lat="50.14357" lon="4.1313">
        <ele>217.7</ele>
        <time>2020-06-24T15:50:10Z</time>
      </trkpt>
      <trkpt lat="50.14348" lon="4.13133">
        <ele>217.1</ele>
        <time>2020-06-24T15:50:11Z</time>
      </trkpt>
      <trkpt lat="50.1434" lon="4.13137">
        <ele>216.6</ele>
        <time>2020-06-24T15:50:12Z</time>
      </trkpt>
      <trkpt lat="50.14331" lon="4.13139">
        <ele>216.1</ele>
        <time>2020-06-24T15:50:13Z</time>
      </trkpt>
      <trkpt lat="50.14321" lon="4.1314">
        <ele>215.6</ele>
        <time>2020-06-24T15:50:14Z</time>
      </trkpt>
      <trkpt lat="50.14312" lon="4.13138">
        <ele>215</ele>
        <time>2020-06-24T15:50:15Z</time>
      </trkpt>
      <trkpt lat="50.14303" lon="4.13135">
        <ele>214.5</ele>
        <time>2020-06-24T15:50:16Z</time>
      </trkpt>
      <trkpt lat="50.14294" lon="4.13129">
        <ele>214.1</ele>
        <time>2020-06-24T15:50:17Z</time>
      </trkpt>
      <trkpt lat="50.14286" lon="4.13122">
        <ele>213.6</ele>
        <time>2020-06-24T15:50:18Z</time>
      </trkpt>
      <trkpt lat="50.14278" lon="4.13115">
        <ele>213.2</ele>
        <time>2020-06-24T15:50:19Z</time>
      </trkpt>
      <trkpt lat="50.1427" lon="4.13106">
        <ele>212.8</ele>
        <time>2020-06-24T15:50:20Z</time>
      </trkpt>
      <trkpt lat="50.14263" lon="4.13098">
        <ele>212.4</ele>
        <time>2020-06-24T15:50:21Z</time>
      </trkpt>
      <trkpt lat="50.14254" lon="4.1309">
        <ele>211.9</ele>
        <time>2020-06-24T15:50:22Z</time>
      </trkpt>
      <trkpt lat="50.14246" lon="4.13082">
        <ele>211.6</ele>
        <time>2020-06-24T15:50:23Z</time>
      </trkpt>
      <trkpt lat="50.14239" lon="4.13074">
        <ele>211.4</ele>
        <time>2020-06-24T15:50:24Z</time>
      </trkpt>
      <trkpt lat="50.14231" lon="4.13067">
        <ele>211.1</ele>
        <time>2020-06-24T15:50:25Z</time>
      </trkpt>
      <trkpt lat="50.14224" lon="4.1306">
        <ele>210.9</ele>
        <time>2020-06-24T15:50:26Z</time>
      </trkpt>
      <trkpt lat="50.14217" lon="4.13052">
        <ele>210.7</ele>
        <time>2020-06-24T15:50:27Z</time>
      </trkpt>
      <trkpt lat="50.1421" lon="4.13044">
        <ele>210.5</ele>
        <time>2020-06-24T15:50:28Z</time>
      </trkpt>
      <trkpt lat="50.14203" lon="4.13038">
        <ele>210.2</ele>
        <time>2020-06-24T15:50:29Z</time>
      </trkpt>
      <trkpt lat="50.14194" lon="4.13033">
        <ele>210</ele>
        <time>2020-06-24T15:50:30Z</time>
      </trkpt>
      <trkpt lat="50.14185" lon="4.1303">
        <ele>209.8</ele>
        <time>2020-06-24T15:50:31Z</time>
      </trkpt>
      <trkpt lat="50.14175" lon="4.1303">
        <ele>209.4</ele>
        <time>2020-06-24T15:50:32Z</time>
      </trkpt>
      <trkpt lat="50.14167" lon="4.13036">
        <ele>209</ele>
        <time>2020-06-24T15:50:33Z</time>
      </trkpt>
      <trkpt lat="50.14159" lon="4.13043">
        <ele>208.6</ele>
        <time>2020-06-24T15:50:34Z</time>
      </trkpt>
      <trkpt lat="50.14152" lon="4.13049">
        <ele>208.2</ele>
        <time>2020-06-24T15:50:35Z</time>
      </trkpt>
      <trkpt lat="50.14144" lon="4.13055">
        <ele>207.7</ele>
        <time>2020-06-24T15:50:36Z</time>
      </trkpt>
      <trkpt lat="50.14136" lon="4.13063">
        <ele>207</ele>
        <time>2020-06-24T15:50:37Z</time>
      </trkpt>
      <trkpt lat="50.14128" lon="4.1307">
        <ele>206.3</ele>
        <time>2020-06-24T15:50:38Z</time>
      </trkpt>
      <trkpt lat="50.14121" lon="4.13074">
        <ele>205.6</ele>
        <time>2020-06-24T15:50:39Z</time>
      </trkpt>
      <trkpt lat="50.1411" lon="4.13075">
        <ele>204.6</ele>
        <time>2020-06-24T15:50:40Z</time>
      </trkpt>
      <trkpt lat="50.14099" lon="4.13072">
        <ele>203.6</ele>
        <time>2020-06-24T15:50:41Z</time>
      </trkpt>
      <trkpt lat="50.1409" lon="4.13064">
        <ele>202.6</ele>
        <time>2020-06-24T15:50:42Z</time>
      </trkpt>
      <trkpt lat="50.14082" lon="4.13053">
        <ele>201.7</ele>
        <time>2020-06-24T15:50:43Z</time>
      </trkpt>
      <trkpt lat="50.14073" lon="4.13042">
        <ele>200.8</ele>
        <time>2020-06-24T15:50:44Z</time>
      </trkpt>
      <trkpt lat="50.14065" lon="4.1303">
        <ele>199.9</ele>
        <time>2020-06-24T15:50:45Z</time>
      </trkpt>
      <trkpt lat="50.14057" lon="4.13019">
        <ele>199</ele>
        <time>2020-06-24T15:50:46Z</time>
      </trkpt>
      <trkpt lat="50.1405" lon="4.13008">
        <ele>198.2</ele>
        <time>2020-06-24T15:50:47Z</time>
      </trkpt>
      <trkpt lat="50.14041" lon="4.12998">
        <ele>197.4</ele>
        <time>2020-06-24T15:50:48Z</time>
      </trkpt>
      <trkpt lat="50.1403" lon="4.12992">
        <ele>196.4</ele>
        <time>2020-06-24T15:50:49Z</time>
      </trkpt>
      <trkpt lat="50.14019" lon="4.12988">
        <ele>195.4</ele>
        <time>2020-06-24T15:50:50Z</time>
      </trkpt>
      <trkpt lat="50.14007" lon="4.12987">
        <ele>194.5</ele>
        <time>2020-06-24T15:50:51Z</time>
      </trkpt>
      <trkpt lat="50.13995" lon="4.12983">
        <ele>193.5</ele>
        <time>2020-06-24T15:50:52Z</time>
      </trkpt>
      <trkpt lat="50.13982" lon="4.1298">
        <ele>192.5</ele>
        <time>2020-06-24T15:50:53Z</time>
      </trkpt>
      <trkpt lat="50.13971" lon="4.12979">
        <ele>191.7</ele>
        <time>2020-06-24T15:50:54Z</time>
      </trkpt>
      <trkpt lat="50.13959" lon="4.12978">
        <ele>190.9</ele>
        <time>2020-06-24T15:50:55Z</time>
      </trkpt>
      <trkpt lat="50.13948" lon="4.12975">
        <ele>190.3</ele>
        <time>2020-06-24T15:50:56Z</time>
      </trkpt>
      <trkpt lat="50.13936" lon="4.12971">
        <ele>189.7</ele>
        <time>2020-06-24T15:50:57Z</time>
      </trkpt>
      <trkpt lat="50.13924" lon="4.12966">
        <ele>189.4</ele>
        <time>2020-06-24T15:50:58Z</time>
      </trkpt>
      <trkpt lat="50.13913" lon="4.1296">
        <ele>189.2</ele>
        <time>2020-06-24T15:50:59Z</time>
      </trkpt>
      <trkpt lat="50.13901" lon="4.12954">
        <ele>188.9</ele>
        <time>2020-06-24T15:51:00Z</time>
      </trkpt>
      <trkpt lat="50.1389" lon="4.12946">
        <ele>188.5</ele>
        <time>2020-06-24T15:51:01Z</time>
      </trkpt>
      <trkpt lat="50.13881" lon="4.12938">
        <ele>188.3</ele>
        <time>2020-06-24T15:51:02Z</time>
      </trkpt>
      <trkpt lat="50.13872" lon="4.1293">
        <ele>188.1</ele>
        <time>2020-06-24T15:51:03Z</time>
      </trkpt>
      <trkpt lat="50.13864" lon="4.12924">
        <ele>187.9</ele>
        <time>2020-06-24T15:51:04Z</time>
      </trkpt>
      <trkpt lat="50.13856" lon="4.12917">
        <ele>187.8</ele>
        <time>2020-06-24T15:51:05Z</time>
      </trkpt>
      <trkpt lat="50.13847" lon="4.12911">
        <ele>187.6</ele>
        <time>2020-06-24T15:51:06Z</time>
      </trkpt>
      <trkpt lat="50.13839" lon="4.12904">
        <ele>187.4</ele>
        <time>2020-06-24T15:51:07Z</time>
      </trkpt>
      <trkpt lat="50.13831" lon="4.12897">
        <ele>187.3</ele>
        <time>2020-06-24T15:51:08Z</time>
      </trkpt>
      <trkpt lat="50.13824" lon="4.1289">
        <ele>187.1</ele>
        <time>2020-06-24T15:51:09Z</time>
      </trkpt>
      <trkpt lat="50.13815" lon="4.12882">
        <ele>186.8</ele>
        <time>2020-06-24T15:51:10Z</time>
      </trkpt>
      <trkpt lat="50.13808" lon="4.12875">
        <ele>186.6</ele>
        <time>2020-06-24T15:51:11Z</time>
      </trkpt>
      <trkpt lat="50.138" lon="4.12868">
        <ele>186.5</ele>
        <time>2020-06-24T15:51:12Z</time>
      </trkpt>
      <trkpt lat="50.13792" lon="4.1286">
        <ele>186.3</ele>
        <time>2020-06-24T15:51:13Z</time>
      </trkpt>
      <trkpt lat="50.13785" lon="4.12853">
        <ele>186.2</ele>
        <time>2020-06-24T15:51:14Z</time>
      </trkpt>
      <trkpt lat="50.13778" lon="4.12846">
        <ele>186.1</ele>
        <time>2020-06-24T15:51:15Z</time>
      </trkpt>
      <trkpt lat="50.13772" lon="4.12841">
        <ele>186</ele>
        <time>2020-06-24T15:51:16Z</time>
      </trkpt>
      <trkpt lat="50.13765" lon="4.12836">
        <ele>185.9</ele>
        <time>2020-06-24T15:51:17Z</time>
      </trkpt>
      <trkpt lat="50.13757" lon="4.1283">
        <ele>185.8</ele>
        <time>2020-06-24T15:51:18Z</time>
      </trkpt>
      <trkpt lat="50.13749" lon="4.12826">
        <ele>185.6</ele>
        <time>2020-06-24T15:51:19Z</time>
      </trkpt>
      <trkpt lat="50.13742" lon="4.12821">
        <ele>185.6</ele>
        <time>2020-06-24T15:51:20Z</time>
      </trkpt>
      <trkpt lat="50.13734" lon="4.12814">
        <ele>185.4</ele>
        <time>2020-06-24T15:51:21Z</time>
      </trkpt>
      <trkpt lat="50.13727" lon="4.12808">
        <ele>185.3</ele>
        <time>2020-06-24T15:51:22Z</time>
      </trkpt>
      <trkpt lat="50.1372" lon="4.12802">
        <ele>185.3</ele>
        <time>2020-06-24T15:51:23Z</time>
      </trkpt>
      <trkpt lat="50.13713" lon="4.12796">
        <ele>185.2</ele>
        <time>2020-06-24T15:51:24Z</time>
      </trkpt>
      <trkpt lat="50.13706" lon="4.1279">
        <ele>185.1</ele>
        <time>2020-06-24T15:51:25Z</time>
      </trkpt>
      <trkpt lat="50.13699" lon="4.12784">
        <ele>185</ele>
        <time>2020-06-24T15:51:26Z</time>
      </trkpt>
      <trkpt lat="50.13694" lon="4.12779">
        <ele>184.9</ele>
        <time>2020-06-24T15:51:27Z</time>
      </trkpt>
      <trkpt lat="50.13688" lon="4.12773">
        <ele>184.8</ele>
        <time>2020-06-24T15:51:28Z</time>
      </trkpt>
      <trkpt lat="50.13682" lon="4.12767">
        <ele>184.8</ele>
        <time>2020-06-24T15:51:29Z</time>
      </trkpt>
      <trkpt lat="50.13676" lon="4.12761">
        <ele>184.7</ele>
        <time>2020-06-24T15:51:30Z</time>
      </trkpt>
      <trkpt lat="50.13671" lon="4.12755">
        <ele>184.7</ele>
        <time>2020-06-24T15:51:31Z</time>
      </trkpt>
      <trkpt lat="50.13666" lon="4.1275">
        <ele>184.7</ele>
        <time>2020-06-24T15:51:32Z</time>
      </trkpt>
      <trkpt lat="50.13661" lon="4.12742">
        <ele>184.6</ele>
        <time>2020-06-24T15:51:33Z</time>
      </trkpt>
      <trkpt lat="50.13654" lon="4.12735">
        <ele>184.6</ele>
        <time>2020-06-24T15:51:34Z</time>
      </trkpt>
      <trkpt lat="50.13648" lon="4.12728">
        <ele>184.5</ele>
        <time>2020-06-24T15:51:35Z</time>
      </trkpt>
      <trkpt lat="50.13642" lon="4.12722">
        <ele>184.4</ele>
        <time>2020-06-24T15:51:36Z</time>
      </trkpt>
      <trkpt lat="50.13636" lon="4.12717">
        <ele>184.3</ele>
        <time>2020-06-24T15:51:37Z</time>
      </trkpt>
      <trkpt lat="50.1363" lon="4.12712">
        <ele>184.2</ele>
        <time>2020-06-24T15:51:38Z</time>
      </trkpt>
      <trkpt lat="50.13624" lon="4.12707">
        <ele>184.1</ele>
        <time>2020-06-24T15:51:39Z</time>
      </trkpt>
      <trkpt lat="50.13617" lon="4.12701">
        <ele>184</ele>
        <time>2020-06-24T15:51:40Z</time>
      </trkpt>
      <trkpt lat="50.1361" lon="4.12696">
        <ele>183.8</ele>
        <time>2020-06-24T15:51:41Z</time>
      </trkpt>
      <trkpt lat="50.13604" lon="4.1269">
        <ele>183.8</ele>
        <time>2020-06-24T15:51:42Z</time>
      </trkpt>
      <trkpt lat="50.13598" lon="4.12685">
        <ele>183.7</ele>
        <time>2020-06-24T15:51:43Z</time>
      </trkpt>
      <trkpt lat="50.13592" lon="4.12678">
        <ele>183.7</ele>
        <time>2020-06-24T15:51:44Z</time>
      </trkpt>
      <trkpt lat="50.13586" lon="4.12672">
        <ele>183.7</ele>
        <time>2020-06-24T15:51:45Z</time>
      </trkpt>
      <trkpt lat="50.13581" lon="4.12667">
        <ele>183.7</ele>
        <time>2020-06-24T15:51:46Z</time>
      </trkpt>
      <trkpt lat="50.13576" lon="4.12663">
        <ele>183.7</ele>
        <time>2020-06-24T15:51:47Z</time>
      </trkpt>
      <trkpt lat="50.13573" lon="4.12659">
        <ele>183.7</ele>
        <time>2020-06-24T15:51:48Z</time>
      </trkpt>
      <trkpt lat="50.13567" lon="4.12652">
        <ele>183.7</ele>
        <time>2020-06-24T15:51:49Z</time>
      </trkpt>
      <trkpt lat="50.13562" lon="4.12646">
        <ele>183.8</ele>
        <time>2020-06-24T15:51:50Z</time>
      </trkpt>
      <trkpt lat="50.13558" lon="4.12642">
        <ele>183.8</ele>
        <time>2020-06-24T15:51:51Z</time>
      </trkpt>
      <trkpt lat="50.13554" lon="4.12638">
        <ele>183.8</ele>
        <time>2020-06-24T15:51:52Z</time>
      </trkpt>
      <trkpt lat="50.13548" lon="4.12633">
        <ele>183.9</ele>
        <time>2020-06-24T15:51:53Z</time>
      </trkpt>
      <trkpt lat="50.13544" lon="4.12628">
        <ele>183.9</ele>
        <time>2020-06-24T15:51:54Z</time>
      </trkpt>
      <trkpt lat="50.13539" lon="4.12623">
        <ele>183.9</ele>
        <time>2020-06-24T15:51:55Z</time>
      </trkpt>
      <trkpt lat="50.13535" lon="4.12619">
        <ele>184</ele>
        <time>2020-06-24T15:51:56Z</time>
      </trkpt>
      <trkpt lat="50.13531" lon="4.12614">
        <ele>184.1</ele>
        <time>2020-06-24T15:51:57Z</time>
      </trkpt>
      <trkpt lat="50.13526" lon="4.12611">
        <ele>184.1</ele>
        <time>2020-06-24T15:51:58Z</time>
      </trkpt>
      <trkpt lat="50.13521" lon="4.12607">
        <ele>184.3</ele>
        <time>2020-06-24T15:51:59Z</time>
      </trkpt>
      <trkpt lat="50.13514" lon="4.126">
        <ele>184.4</ele>
        <time>2020-06-24T15:52:00Z</time>
      </trkpt>
      <trkpt lat="50.13507" lon="4.12594">
        <ele>184.6</ele>
        <time>2020-06-24T15:52:01Z</time>
      </trkpt>
      <trkpt lat="50.13503" lon="4.12593">
        <ele>184.4</ele>
        <time>2020-06-24T15:52:02Z</time>
      </trkpt>
      <trkpt lat="50.13498" lon="4.126">
        <ele>184.2</ele>
        <time>2020-06-24T15:52:03Z</time>
      </trkpt>
      <trkpt lat="50.13495" lon="4.1261">
        <ele>184.1</ele>
        <time>2020-06-24T15:52:04Z</time>
      </trkpt>
      <trkpt lat="50.13494" lon="4.12617">
        <ele>184</ele>
        <time>2020-06-24T15:52:05Z</time>
      </trkpt>
      <trkpt lat="50.13494" lon="4.12623">
        <ele>183.9</ele>
        <time>2020-06-24T15:52:06Z</time>
      </trkpt>
      <trkpt lat="50.13492" lon="4.12631">
        <ele>183.9</ele>
        <time>2020-06-24T15:52:07Z</time>
      </trkpt>
      <trkpt lat="50.13491" lon="4.12641">
        <ele>183.9</ele>
        <time>2020-06-24T15:52:08Z</time>
      </trkpt>
      <trkpt lat="50.1349" lon="4.12648">
        <ele>183.9</ele>
        <time>2020-06-24T15:52:09Z</time>
      </trkpt>
      <trkpt lat="50.1349" lon="4.12654">
        <ele>184</ele>
        <time>2020-06-24T15:52:10Z</time>
      </trkpt>
      <trkpt lat="50.13489" lon="4.12662">
        <ele>184.1</ele>
        <time>2020-06-24T15:52:11Z</time>
      </trkpt>
      <trkpt lat="50.13487" lon="4.12669">
        <ele>184.2</ele>
        <time>2020-06-24T15:52:12Z</time>
      </trkpt>
      <trkpt lat="50.13487" lon="4.12676">
        <ele>184.4</ele>
        <time>2020-06-24T15:52:13Z</time>
      </trkpt>
      <trkpt lat="50.13487" lon="4.12681">
        <ele>184.5</ele>
        <time>2020-06-24T15:52:14Z</time>
      </trkpt>
      <trkpt lat="50.13486" lon="4.12687">
        <ele>184.6</ele>
        <time>2020-06-24T15:52:15Z</time>
      </trkpt>
      <trkpt lat="50.13487" lon="4.12692">
        <ele>184.8</ele>
        <time>2020-06-24T15:52:16Z</time>
      </trkpt>
      <trkpt lat="50.13488" lon="4.12698">
        <ele>184.9</ele>
        <time>2020-06-24T15:52:17Z</time>
      </trkpt>
      <trkpt lat="50.13489" lon="4.12703">
        <ele>185.1</ele>
        <time>2020-06-24T15:52:18Z</time>
      </trkpt>
      <trkpt lat="50.1349" lon="4.12708">
        <ele>185.3</ele>
        <time>2020-06-24T15:52:19Z</time>
      </trkpt>
      <trkpt lat="50.13491" lon="4.1271">
        <ele>185.4</ele>
        <time>2020-06-24T15:52:20Z</time>
      </trkpt>
      <trkpt lat="50.13492" lon="4.12714">
        <ele>185.5</ele>
        <time>2020-06-24T15:52:21Z</time>
      </trkpt>
      <trkpt lat="50.13495" lon="4.12717">
        <ele>185.7</ele>
        <time>2020-06-24T15:52:22Z</time>
      </trkpt>
      <trkpt lat="50.13496" lon="4.12721">
        <ele>185.9</ele>
        <time>2020-06-24T15:52:23Z</time>
      </trkpt>
      <trkpt lat="50.13498" lon="4.12725">
        <ele>186.1</ele>
        <time>2020-06-24T15:52:24Z</time>
      </trkpt>
      <trkpt lat="50.135" lon="4.1273">
        <ele>186.3</ele>
        <time>2020-06-24T15:52:25Z</time>
      </trkpt>
      <trkpt lat="50.135" lon="4.12734">
        <ele>186.5</ele>
        <time>2020-06-24T15:52:26Z</time>
      </trkpt>
      <trkpt lat="50.13501" lon="4.12741">
        <ele>186.9</ele>
        <time>2020-06-24T15:52:27Z</time>
      </trkpt>
      <trkpt lat="50.13502" lon="4.12744">
        <ele>187.1</ele>
        <time>2020-06-24T15:52:28Z</time>
      </trkpt>
      <trkpt lat="50.13503" lon="4.12749">
        <ele>187.3</ele>
        <time>2020-06-24T15:52:29Z</time>
      </trkpt>
      <trkpt lat="50.13503" lon="4.12754">
        <ele>187.6</ele>
        <time>2020-06-24T15:52:30Z</time>
      </trkpt>
      <trkpt lat="50.13503" lon="4.12759">
        <ele>187.9</ele>
        <time>2020-06-24T15:52:31Z</time>
      </trkpt>
      <trkpt lat="50.13504" lon="4.12762">
        <ele>188</ele>
        <time>2020-06-24T15:52:32Z</time>
      </trkpt>
      <trkpt lat="50.13504" lon="4.12768">
        <ele>188.4</ele>
        <time>2020-06-24T15:52:33Z</time>
      </trkpt>
      <trkpt lat="50.13504" lon="4.1277">
        <ele>188.6</ele>
        <time>2020-06-24T15:52:34Z</time>
      </trkpt>
      <trkpt lat="50.13504" lon="4.12777">
        <ele>189</ele>
        <time>2020-06-24T15:52:35Z</time>
      </trkpt>
      <trkpt lat="50.13504" lon="4.1278">
        <ele>189.1</ele>
        <time>2020-06-24T15:52:36Z</time>
      </trkpt>
      <trkpt lat="50.13503" lon="4.12786">
        <ele>189.5</ele>
        <time>2020-06-24T15:52:37Z</time>
      </trkpt>
      <trkpt lat="50.13503" lon="4.12792">
        <ele>189.9</ele>
        <time>2020-06-24T15:52:38Z</time>
      </trkpt>
      <trkpt lat="50.13502" lon="4.12797">
        <ele>190.2</ele>
        <time>2020-06-24T15:52:39Z</time>
      </trkpt>
      <trkpt lat="50.13501" lon="4.128">
        <ele>190.4</ele>
        <time>2020-06-24T15:52:40Z</time>
      </trkpt>
      <trkpt lat="50.135" lon="4.12804">
        <ele>190.6</ele>
        <time>2020-06-24T15:52:41Z</time>
      </trkpt>
      <trkpt lat="50.13499" lon="4.12808">
        <ele>190.9</ele>
        <time>2020-06-24T15:52:42Z</time>
      </trkpt>
      <trkpt lat="50.13498" lon="4.1281">
        <ele>191</ele>
        <time>2020-06-24T15:52:43Z</time>
      </trkpt>
      <trkpt lat="50.13496" lon="4.12814">
        <ele>191.3</ele>
        <time>2020-06-24T15:52:44Z</time>
      </trkpt>
      <trkpt lat="50.13495" lon="4.12816">
        <ele>191.4</ele>
        <time>2020-06-24T15:52:45Z</time>
      </trkpt>
      <trkpt lat="50.13493" lon="4.12819">
        <ele>191.6</ele>
        <time>2020-06-24T15:52:46Z</time>
      </trkpt>
      <trkpt lat="50.13492" lon="4.12823">
        <ele>191.9</ele>
        <time>2020-06-24T15:52:47Z</time>
      </trkpt>
      <trkpt lat="50.13491" lon="4.12824">
        <ele>192</ele>
        <time>2020-06-24T15:52:48Z</time>
      </trkpt>
      <trkpt lat="50.1349" lon="4.12827">
        <ele>192.2</ele>
        <time>2020-06-24T15:52:49Z</time>
      </trkpt>
      <trkpt lat="50.13489" lon="4.12832">
        <ele>192.4</ele>
        <time>2020-06-24T15:52:50Z</time>
      </trkpt>
      <trkpt lat="50.13487" lon="4.12838">
        <ele>192.8</ele>
        <time>2020-06-24T15:52:51Z</time>
      </trkpt>
      <trkpt lat="50.13485" lon="4.12842">
        <ele>193</ele>
        <time>2020-06-24T15:52:52Z</time>
      </trkpt>
      <trkpt lat="50.13484" lon="4.12843">
        <ele>193.1</ele>
        <time>2020-06-24T15:52:53Z</time>
      </trkpt>
      <trkpt lat="50.13483" lon="4.12847">
        <ele>193.3</ele>
        <time>2020-06-24T15:52:54Z</time>
      </trkpt>
      <trkpt lat="50.13482" lon="4.12855">
        <ele>193.7</ele>
        <time>2020-06-24T15:52:55Z</time>
      </trkpt>
      <trkpt lat="50.13481" lon="4.1286">
        <ele>194</ele>
        <time>2020-06-24T15:52:56Z</time>
      </trkpt>
      <trkpt lat="50.13479" lon="4.12867">
        <ele>194.4</ele>
        <time>2020-06-24T15:52:57Z</time>
      </trkpt>
      <trkpt lat="50.13479" lon="4.12869">
        <ele>194.5</ele>
        <time>2020-06-24T15:52:58Z</time>
      </trkpt>
      <trkpt lat="50.13477" lon="4.12874">
        <ele>194.8</ele>
        <time>2020-06-24T15:52:59Z</time>
      </trkpt>
      <trkpt lat="50.13475" lon="4.1288">
        <ele>195.1</ele>
        <time>2020-06-24T15:53:00Z</time>
      </trkpt>
      <trkpt lat="50.13474" lon="4.12881">
        <ele>195.2</ele>
        <time>2020-06-24T15:53:01Z</time>
      </trkpt>
      <trkpt lat="50.13472" lon="4.12886">
        <ele>195.5</ele>
        <time>2020-06-24T15:53:02Z</time>
      </trkpt>
      <trkpt lat="50.13472" lon="4.12888">
        <ele>195.6</ele>
        <time>2020-06-24T15:53:03Z</time>
      </trkpt>
      <trkpt lat="50.1347" lon="4.12894">
        <ele>196</ele>
        <time>2020-06-24T15:53:04Z</time>
      </trkpt>
      <trkpt lat="50.13469" lon="4.12897">
        <ele>196.1</ele>
        <time>2020-06-24T15:53:05Z</time>
      </trkpt>
      <trkpt lat="50.13467" lon="4.12903">
        <ele>196.5</ele>
        <time>2020-06-24T15:53:06Z</time>
      </trkpt>
      <trkpt lat="50.13464" lon="4.12906">
        <ele>196.8</ele>
        <time>2020-06-24T15:53:07Z</time>
      </trkpt>
      <trkpt lat="50.13464" lon="4.12908">
        <ele>196.9</ele>
        <time>2020-06-24T15:53:08Z</time>
      </trkpt>
      <trkpt lat="50.13463" lon="4.12909">
        <ele>196.9</ele>
        <time>2020-06-24T15:53:09Z</time>
      </trkpt>
      <trkpt lat="50.13461" lon="4.1291">
        <ele>197.1</ele>
        <time>2020-06-24T15:53:10Z</time>
      </trkpt>
      <trkpt lat="50.13458" lon="4.12914">
        <ele>197.4</ele>
        <time>2020-06-24T15:53:11Z</time>
      </trkpt>
      <trkpt lat="50.13457" lon="4.12918">
        <ele>197.6</ele>
        <time>2020-06-24T15:53:12Z</time>
      </trkpt>
      <trkpt lat="50.13455" lon="4.12923">
        <ele>197.9</ele>
        <time>2020-06-24T15:53:13Z</time>
      </trkpt>
      <trkpt lat="50.13454" lon="4.12925">
        <ele>198</ele>
        <time>2020-06-24T15:53:14Z</time>
      </trkpt>
      <trkpt lat="50.13452" lon="4.12928">
        <ele>198.2</ele>
        <time>2020-06-24T15:53:15Z</time>
      </trkpt>
      <trkpt lat="50.1345" lon="4.12933">
        <ele>198.6</ele>
        <time>2020-06-24T15:53:16Z</time>
      </trkpt>
      <trkpt lat="50.13449" lon="4.12936">
        <ele>198.7</ele>
        <time>2020-06-24T15:53:17Z</time>
      </trkpt>
      <trkpt lat="50.13446" lon="4.12937">
        <ele>198.9</ele>
        <time>2020-06-24T15:53:18Z</time>
      </trkpt>
      <trkpt lat="50.13444" lon="4.1294">
        <ele>199.2</ele>
        <time>2020-06-24T15:53:19Z</time>
      </trkpt>
      <trkpt lat="50.13443" lon="4.12942">
        <ele>199.3</ele>
        <time>2020-06-24T15:53:20Z</time>
      </trkpt>
      <trkpt lat="50.1344" lon="4.12945">
        <ele>199.5</ele>
        <time>2020-06-24T15:53:21Z</time>
      </trkpt>
      <trkpt lat="50.13438" lon="4.12949">
        <ele>199.8</ele>
        <time>2020-06-24T15:53:22Z</time>
      </trkpt>
      <trkpt lat="50.13436" lon="4.12953">
        <ele>200</ele>
        <time>2020-06-24T15:53:23Z</time>
      </trkpt>
      <trkpt lat="50.13433" lon="4.12959">
        <ele>200.3</ele>
        <time>2020-06-24T15:53:24Z</time>
      </trkpt>
      <trkpt lat="50.13431" lon="4.12962">
        <ele>200.6</ele>
        <time>2020-06-24T15:53:25Z</time>
      </trkpt>
      <trkpt lat="50.13429" lon="4.12965">
        <ele>200.8</ele>
        <time>2020-06-24T15:53:26Z</time>
      </trkpt>
      <trkpt lat="50.13426" lon="4.12969">
        <ele>201.1</ele>
        <time>2020-06-24T15:53:27Z</time>
      </trkpt>
      <trkpt lat="50.13424" lon="4.12971">
        <ele>201.2</ele>
        <time>2020-06-24T15:53:28Z</time>
      </trkpt>
      <trkpt lat="50.13422" lon="4.12973">
        <ele>201.4</ele>
        <time>2020-06-24T15:53:29Z</time>
      </trkpt>
      <trkpt lat="50.13421" lon="4.12978">
        <ele>201.7</ele>
        <time>2020-06-24T15:53:30Z</time>
      </trkpt>
      <trkpt lat="50.13418" lon="4.12982">
        <ele>201.9</ele>
        <time>2020-06-24T15:53:31Z</time>
      </trkpt>
      <trkpt lat="50.13417" lon="4.12983">
        <ele>202</ele>
        <time>2020-06-24T15:53:32Z</time>
      </trkpt>
      <trkpt lat="50.13415" lon="4.12988">
        <ele>202.3</ele>
        <time>2020-06-24T15:53:33Z</time>
      </trkpt>
      <trkpt lat="50.13414" lon="4.12989">
        <ele>202.4</ele>
        <time>2020-06-24T15:53:34Z</time>
      </trkpt>
      <trkpt lat="50.13411" lon="4.12994">
        <ele>202.7</ele>
        <time>2020-06-24T15:53:35Z</time>
      </trkpt>
      <trkpt lat="50.13411" lon="4.12995">
        <ele>202.8</ele>
        <time>2020-06-24T15:53:36Z</time>
      </trkpt>
      <trkpt lat="50.13409" lon="4.13001">
        <ele>203.1</ele>
        <time>2020-06-24T15:53:37Z</time>
      </trkpt>
      <trkpt lat="50.13408" lon="4.13005">
        <ele>203.4</ele>
        <time>2020-06-24T15:53:38Z</time>
      </trkpt>
      <trkpt lat="50.13406" lon="4.1301">
        <ele>203.6</ele>
        <time>2020-06-24T15:53:39Z</time>
      </trkpt>
      <trkpt lat="50.13406" lon="4.13014">
        <ele>203.8</ele>
        <time>2020-06-24T15:53:40Z</time>
      </trkpt>
      <trkpt lat="50.13405" lon="4.13016">
        <ele>203.9</ele>
        <time>2020-06-24T15:53:41Z</time>
      </trkpt>
      <trkpt lat="50.13403" lon="4.1302">
        <ele>204.1</ele>
        <time>2020-06-24T15:53:42Z</time>
      </trkpt>
      <trkpt lat="50.134" lon="4.13024">
        <ele>204.3</ele>
        <time>2020-06-24T15:53:43Z</time>
      </trkpt>
      <trkpt lat="50.13397" lon="4.13029">
        <ele>204.6</ele>
        <time>2020-06-24T15:53:44Z</time>
      </trkpt>
      <trkpt lat="50.13396" lon="4.13031">
        <ele>204.7</ele>
        <time>2020-06-24T15:53:45Z</time>
      </trkpt>
      <trkpt lat="50.13393" lon="4.13033">
        <ele>204.9</ele>
        <time>2020-06-24T15:53:46Z</time>
      </trkpt>
      <trkpt lat="50.13391" lon="4.13037">
        <ele>205.1</ele>
        <time>2020-06-24T15:53:47Z</time>
      </trkpt>
      <trkpt lat="50.13388" lon="4.13042">
        <ele>205.4</ele>
        <time>2020-06-24T15:53:48Z</time>
      </trkpt>
      <trkpt lat="50.13385" lon="4.13046">
        <ele>205.7</ele>
        <time>2020-06-24T15:53:49Z</time>
      </trkpt>
      <trkpt lat="50.13383" lon="4.13051">
        <ele>205.9</ele>
        <time>2020-06-24T15:53:50Z</time>
      </trkpt>
      <trkpt lat="50.13378" lon="4.13055">
        <ele>206.3</ele>
        <time>2020-06-24T15:53:51Z</time>
      </trkpt>
      <trkpt lat="50.13375" lon="4.13057">
        <ele>206.6</ele>
        <time>2020-06-24T15:53:52Z</time>
      </trkpt>
      <trkpt lat="50.13371" lon="4.1306">
        <ele>206.8</ele>
        <time>2020-06-24T15:53:53Z</time>
      </trkpt>
      <trkpt lat="50.1337" lon="4.13061">
        <ele>206.9</ele>
        <time>2020-06-24T15:53:54Z</time>
      </trkpt>
      <trkpt lat="50.13367" lon="4.13064">
        <ele>207.2</ele>
        <time>2020-06-24T15:53:55Z</time>
      </trkpt>
      <trkpt lat="50.13366" lon="4.13065">
        <ele>207.3</ele>
        <time>2020-06-24T15:53:56Z</time>
      </trkpt>
      <trkpt lat="50.13362" lon="4.13068">
        <ele>207.6</ele>
        <time>2020-06-24T15:53:57Z</time>
      </trkpt>
      <trkpt lat="50.13359" lon="4.1307">
        <ele>207.8</ele>
        <time>2020-06-24T15:53:58Z</time>
      </trkpt>
      <trkpt lat="50.13356" lon="4.13073">
        <ele>208.1</ele>
        <time>2020-06-24T15:53:59Z</time>
      </trkpt>
      <trkpt lat="50.13354" lon="4.13075">
        <ele>208.2</ele>
        <time>2020-06-24T15:54:00Z</time>
      </trkpt>
      <trkpt lat="50.1335" lon="4.13076">
        <ele>208.6</ele>
        <time>2020-06-24T15:54:01Z</time>
      </trkpt>
      <trkpt lat="50.13347" lon="4.13079">
        <ele>208.9</ele>
        <time>2020-06-24T15:54:02Z</time>
      </trkpt>
      <trkpt lat="50.13345" lon="4.1308">
        <ele>209</ele>
        <time>2020-06-24T15:54:03Z</time>
      </trkpt>
      <trkpt lat="50.13342" lon="4.13082">
        <ele>209.3</ele>
        <time>2020-06-24T15:54:04Z</time>
      </trkpt>
      <trkpt lat="50.13341" lon="4.13083">
        <ele>209.4</ele>
        <time>2020-06-24T15:54:05Z</time>
      </trkpt>
      <trkpt lat="50.13337" lon="4.13085">
        <ele>209.6</ele>
        <time>2020-06-24T15:54:06Z</time>
      </trkpt>
      <trkpt lat="50.13334" lon="4.13087">
        <ele>209.9</ele>
        <time>2020-06-24T15:54:07Z</time>
      </trkpt>
      <trkpt lat="50.13331" lon="4.13089">
        <ele>210.2</ele>
        <time>2020-06-24T15:54:08Z</time>
      </trkpt>
      <trkpt lat="50.13328" lon="4.13091">
        <ele>210.4</ele>
        <time>2020-06-24T15:54:09Z</time>
      </trkpt>
      <trkpt lat="50.13325" lon="4.13096">
        <ele>210.7</ele>
        <time>2020-06-24T15:54:10Z</time>
      </trkpt>
      <trkpt lat="50.13323" lon="4.13097">
        <ele>210.9</ele>
        <time>2020-06-24T15:54:11Z</time>
      </trkpt>
      <trkpt lat="50.1332" lon="4.13101">
        <ele>211.2</ele>
        <time>2020-06-24T15:54:12Z</time>
      </trkpt>
      <trkpt lat="50.13316" lon="4.13106">
        <ele>211.6</ele>
        <time>2020-06-24T15:54:13Z</time>
      </trkpt>
      <trkpt lat="50.13314" lon="4.13108">
        <ele>211.8</ele>
        <time>2020-06-24T15:54:14Z</time>
      </trkpt>
      <trkpt lat="50.13311" lon="4.13111">
        <ele>212</ele>
        <time>2020-06-24T15:54:15Z</time>
      </trkpt>
      <trkpt lat="50.13308" lon="4.13115">
        <ele>212.3</ele>
        <time>2020-06-24T15:54:16Z</time>
      </trkpt>
      <trkpt lat="50.13305" lon="4.13117">
        <ele>212.5</ele>
        <time>2020-06-24T15:54:17Z</time>
      </trkpt>
      <trkpt lat="50.13304" lon="4.13118">
        <ele>212.6</ele>
        <time>2020-06-24T15:54:18Z</time>
      </trkpt>
      <trkpt lat="50.13302" lon="4.13119">
        <ele>212.8</ele>
        <time>2020-06-24T15:54:19Z</time>
      </trkpt>
      <trkpt lat="50.13297" lon="4.1312">
        <ele>213.1</ele>
        <time>2020-06-24T15:54:20Z</time>
      </trkpt>
      <trkpt lat="50.13293" lon="4.13122">
        <ele>213.4</ele>
        <time>2020-06-24T15:54:21Z</time>
      </trkpt>
      <trkpt lat="50.1329" lon="4.13122">
        <ele>213.6</ele>
        <time>2020-06-24T15:54:22Z</time>
      </trkpt>
      <trkpt lat="50.13285" lon="4.13125">
        <ele>214</ele>
        <time>2020-06-24T15:54:23Z</time>
      </trkpt>
      <trkpt lat="50.13283" lon="4.13126">
        <ele>214.1</ele>
        <time>2020-06-24T15:54:24Z</time>
      </trkpt>
      <trkpt lat="50.1328" lon="4.13128">
        <ele>214.4</ele>
        <time>2020-06-24T15:54:25Z</time>
      </trkpt>
      <trkpt lat="50.13277" lon="4.1313">
        <ele>214.7</ele>
        <time>2020-06-24T15:54:26Z</time>
      </trkpt>
      <trkpt lat="50.13276" lon="4.1313">
        <ele>214.8</ele>
        <time>2020-06-24T15:54:27Z</time>
      </trkpt>
      <trkpt lat="50.13272" lon="4.13133">
        <ele>215.1</ele>
        <time>2020-06-24T15:54:28Z</time>
      </trkpt>
      <trkpt lat="50.13271" lon="4.13133">
        <ele>215.2</ele>
        <time>2020-06-24T15:54:29Z</time>
      </trkpt>
      <trkpt lat="50.13268" lon="4.13134">
        <ele>215.4</ele>
        <time>2020-06-24T15:54:30Z</time>
      </trkpt>
      <trkpt lat="50.13265" lon="4.13135">
        <ele>215.7</ele>
        <time>2020-06-24T15:54:31Z</time>
      </trkpt>
      <trkpt lat="50.13264" lon="4.13135">
        <ele>215.7</ele>
        <time>2020-06-24T15:54:32Z</time>
      </trkpt>
      <trkpt lat="50.1326" lon="4.13137">
        <ele>216</ele>
        <time>2020-06-24T15:54:33Z</time>
      </trkpt>
      <trkpt lat="50.13258" lon="4.13137">
        <ele>216.2</ele>
        <time>2020-06-24T15:54:34Z</time>
      </trkpt>
      <trkpt lat="50.13256" lon="4.13139">
        <ele>216.4</ele>
        <time>2020-06-24T15:54:35Z</time>
      </trkpt>
      <trkpt lat="50.13253" lon="4.13139">
        <ele>216.6</ele>
        <time>2020-06-24T15:54:36Z</time>
      </trkpt>
      <trkpt lat="50.13251" lon="4.13139">
        <ele>216.7</ele>
        <time>2020-06-24T15:54:37Z</time>
      </trkpt>
      <trkpt lat="50.13248" lon="4.13139">
        <ele>217</ele>
        <time>2020-06-24T15:54:38Z</time>
      </trkpt>
      <trkpt lat="50.13246" lon="4.13139">
        <ele>217.1</ele>
        <time>2020-06-24T15:54:39Z</time>
      </trkpt>
      <trkpt lat="50.13242" lon="4.1314">
        <ele>217.4</ele>
        <time>2020-06-24T15:54:40Z</time>
      </trkpt>
      <trkpt lat="50.13239" lon="4.13141">
        <ele>217.7</ele>
        <time>2020-06-24T15:54:41Z</time>
      </trkpt>
      <trkpt lat="50.13236" lon="4.13141">
        <ele>217.9</ele>
        <time>2020-06-24T15:54:42Z</time>
      </trkpt>
      <trkpt lat="50.13232" lon="4.13143">
        <ele>218.2</ele>
        <time>2020-06-24T15:54:43Z</time>
      </trkpt>
      <trkpt lat="50.13231" lon="4.13144">
        <ele>218.3</ele>
        <time>2020-06-24T15:54:44Z</time>
      </trkpt>
      <trkpt lat="50.13228" lon="4.13148">
        <ele>218.6</ele>
        <time>2020-06-24T15:54:45Z</time>
      </trkpt>
      <trkpt lat="50.13225" lon="4.13151">
        <ele>218.9</ele>
        <time>2020-06-24T15:54:46Z</time>
      </trkpt>
      <trkpt lat="50.13224" lon="4.13152">
        <ele>219</ele>
        <time>2020-06-24T15:54:47Z</time>
      </trkpt>
      <trkpt lat="50.13222" lon="4.13153">
        <ele>219.1</ele>
        <time>2020-06-24T15:54:48Z</time>
      </trkpt>
      <trkpt lat="50.13221" lon="4.13155">
        <ele>219.2</ele>
        <time>2020-06-24T15:54:49Z</time>
      </trkpt>
      <trkpt lat="50.13219" lon="4.1316">
        <ele>219.5</ele>
        <time>2020-06-24T15:54:50Z</time>
      </trkpt>
      <trkpt lat="50.13217" lon="4.13162">
        <ele>219.6</ele>
        <time>2020-06-24T15:54:51Z</time>
      </trkpt>
      <trkpt lat="50.13214" lon="4.13168">
        <ele>220</ele>
        <time>2020-06-24T15:54:52Z</time>
      </trkpt>
      <trkpt lat="50.13212" lon="4.13174">
        <ele>220.3</ele>
        <time>2020-06-24T15:54:53Z</time>
      </trkpt>
      <trkpt lat="50.13211" lon="4.13179">
        <ele>220.6</ele>
        <time>2020-06-24T15:54:54Z</time>
      </trkpt>
      <trkpt lat="50.13209" lon="4.13186">
        <ele>220.9</ele>
        <time>2020-06-24T15:54:55Z</time>
      </trkpt>
      <trkpt lat="50.13208" lon="4.1319">
        <ele>221.1</ele>
        <time>2020-06-24T15:54:56Z</time>
      </trkpt>
      <trkpt lat="50.13206" lon="4.13196">
        <ele>221.4</ele>
        <time>2020-06-24T15:54:57Z</time>
      </trkpt>
      <trkpt lat="50.13206" lon="4.132">
        <ele>221.6</ele>
        <time>2020-06-24T15:54:58Z</time>
      </trkpt>
      <trkpt lat="50.13205" lon="4.13205">
        <ele>221.8</ele>
        <time>2020-06-24T15:54:59Z</time>
      </trkpt>
      <trkpt lat="50.13204" lon="4.1321">
        <ele>222</ele>
        <time>2020-06-24T15:55:00Z</time>
      </trkpt>
      <trkpt lat="50.13203" lon="4.13212">
        <ele>222.1</ele>
        <time>2020-06-24T15:55:01Z</time>
      </trkpt>
      <trkpt lat="50.13202" lon="4.13216">
        <ele>222.2</ele>
        <time>2020-06-24T15:55:02Z</time>
      </trkpt>
      <trkpt lat="50.132" lon="4.13221">
        <ele>222.4</ele>
        <time>2020-06-24T15:55:03Z</time>
      </trkpt>
      <trkpt lat="50.13199" lon="4.13227">
        <ele>222.6</ele>
        <time>2020-06-24T15:55:04Z</time>
      </trkpt>
      <trkpt lat="50.13199" lon="4.13229">
        <ele>222.7</ele>
        <time>2020-06-24T15:55:05Z</time>
      </trkpt>
      <trkpt lat="50.13198" lon="4.13234">
        <ele>222.9</ele>
        <time>2020-06-24T15:55:06Z</time>
      </trkpt>
      <trkpt lat="50.13196" lon="4.13239">
        <ele>223.1</ele>
        <time>2020-06-24T15:55:07Z</time>
      </trkpt>
      <trkpt lat="50.13195" lon="4.13241">
        <ele>223.2</ele>
        <time>2020-06-24T15:55:08Z</time>
      </trkpt>
      <trkpt lat="50.13195" lon="4.13247">
        <ele>223.4</ele>
        <time>2020-06-24T15:55:09Z</time>
      </trkpt>
      <trkpt lat="50.13194" lon="4.13251">
        <ele>223.5</ele>
        <time>2020-06-24T15:55:10Z</time>
      </trkpt>
      <trkpt lat="50.13193" lon="4.13255">
        <ele>223.6</ele>
        <time>2020-06-24T15:55:11Z</time>
      </trkpt>
      <trkpt lat="50.13192" lon="4.13261">
        <ele>223.8</ele>
        <time>2020-06-24T15:55:12Z</time>
      </trkpt>
      <trkpt lat="50.13191" lon="4.13264">
        <ele>223.9</ele>
        <time>2020-06-24T15:55:13Z</time>
      </trkpt>
      <trkpt lat="50.13191" lon="4.13269">
        <ele>224.1</ele>
        <time>2020-06-24T15:55:14Z</time>
      </trkpt>
      <trkpt lat="50.13189" lon="4.13274">
        <ele>224.2</ele>
        <time>2020-06-24T15:55:15Z</time>
      </trkpt>
      <trkpt lat="50.13188" lon="4.13276">
        <ele>224.3</ele>
        <time>2020-06-24T15:55:16Z</time>
      </trkpt>
      <trkpt lat="50.13187" lon="4.13284">
        <ele>224.5</ele>
        <time>2020-06-24T15:55:17Z</time>
      </trkpt>
      <trkpt lat="50.13186" lon="4.13289">
        <ele>224.7</ele>
        <time>2020-06-24T15:55:18Z</time>
      </trkpt>
      <trkpt lat="50.13184" lon="4.13295">
        <ele>224.8</ele>
        <time>2020-06-24T15:55:19Z</time>
      </trkpt>
      <trkpt lat="50.13184" lon="4.13299">
        <ele>224.9</ele>
        <time>2020-06-24T15:55:20Z</time>
      </trkpt>
      <trkpt lat="50.13181" lon="4.13304">
        <ele>225.1</ele>
        <time>2020-06-24T15:55:21Z</time>
      </trkpt>
      <trkpt lat="50.1318" lon="4.13306">
        <ele>225.1</ele>
        <time>2020-06-24T15:55:22Z</time>
      </trkpt>
      <trkpt lat="50.13179" lon="4.13312">
        <ele>225.3</ele>
        <time>2020-06-24T15:55:23Z</time>
      </trkpt>
      <trkpt lat="50.13178" lon="4.13314">
        <ele>225.3</ele>
        <time>2020-06-24T15:55:24Z</time>
      </trkpt>
      <trkpt lat="50.13176" lon="4.13319">
        <ele>225.4</ele>
        <time>2020-06-24T15:55:25Z</time>
      </trkpt>
      <trkpt lat="50.13175" lon="4.13326">
        <ele>225.5</ele>
        <time>2020-06-24T15:55:26Z</time>
      </trkpt>
      <trkpt lat="50.13175" lon="4.13329">
        <ele>225.5</ele>
        <time>2020-06-24T15:55:27Z</time>
      </trkpt>
      <trkpt lat="50.13174" lon="4.13334">
        <ele>225.6</ele>
        <time>2020-06-24T15:55:28Z</time>
      </trkpt>
      <trkpt lat="50.13172" lon="4.13338">
        <ele>225.7</ele>
        <time>2020-06-24T15:55:29Z</time>
      </trkpt>
      <trkpt lat="50.13171" lon="4.13344">
        <ele>225.8</ele>
        <time>2020-06-24T15:55:30Z</time>
      </trkpt>
      <trkpt lat="50.1317" lon="4.13347">
        <ele>225.8</ele>
        <time>2020-06-24T15:55:31Z</time>
      </trkpt>
      <trkpt lat="50.13169" lon="4.13352">
        <ele>225.9</ele>
        <time>2020-06-24T15:55:32Z</time>
      </trkpt>
      <trkpt lat="50.13167" lon="4.13357">
        <ele>225.9</ele>
        <time>2020-06-24T15:55:33Z</time>
      </trkpt>
      <trkpt lat="50.13165" lon="4.13363">
        <ele>226</ele>
        <time>2020-06-24T15:55:34Z</time>
      </trkpt>
      <trkpt lat="50.13163" lon="4.13368">
        <ele>226</ele>
        <time>2020-06-24T15:55:35Z</time>
      </trkpt>
      <trkpt lat="50.13161" lon="4.13371">
        <ele>226.1</ele>
        <time>2020-06-24T15:55:36Z</time>
      </trkpt>
      <trkpt lat="50.1316" lon="4.13377">
        <ele>226.1</ele>
        <time>2020-06-24T15:55:37Z</time>
      </trkpt>
      <trkpt lat="50.13159" lon="4.13381">
        <ele>226.1</ele>
        <time>2020-06-24T15:55:38Z</time>
      </trkpt>
      <trkpt lat="50.13158" lon="4.13386">
        <ele>226.1</ele>
        <time>2020-06-24T15:55:39Z</time>
      </trkpt>
      <trkpt lat="50.13156" lon="4.13392">
        <ele>226.2</ele>
        <time>2020-06-24T15:55:40Z</time>
      </trkpt>
      <trkpt lat="50.13155" lon="4.13398">
        <ele>226.2</ele>
        <time>2020-06-24T15:55:41Z</time>
      </trkpt>
      <trkpt lat="50.13153" lon="4.13404">
        <ele>226.2</ele>
        <time>2020-06-24T15:55:42Z</time>
      </trkpt>
      <trkpt lat="50.13151" lon="4.13408">
        <ele>226.2</ele>
        <time>2020-06-24T15:55:43Z</time>
      </trkpt>
      <trkpt lat="50.13149" lon="4.13413">
        <ele>226.2</ele>
        <time>2020-06-24T15:55:44Z</time>
      </trkpt>
      <trkpt lat="50.13148" lon="4.13418">
        <ele>226.2</ele>
        <time>2020-06-24T15:55:45Z</time>
      </trkpt>
      <trkpt lat="50.13147" lon="4.13422">
        <ele>226.2</ele>
        <time>2020-06-24T15:55:46Z</time>
      </trkpt>
      <trkpt lat="50.13144" lon="4.13427">
        <ele>226.2</ele>
        <time>2020-06-24T15:55:47Z</time>
      </trkpt>
      <trkpt lat="50.13143" lon="4.13431">
        <ele>226.1</ele>
        <time>2020-06-24T15:55:48Z</time>
      </trkpt>
      <trkpt lat="50.13141" lon="4.13435">
        <ele>226.1</ele>
        <time>2020-06-24T15:55:49Z</time>
      </trkpt>
      <trkpt lat="50.13139" lon="4.13439">
        <ele>226.1</ele>
        <time>2020-06-24T15:55:50Z</time>
      </trkpt>
      <trkpt lat="50.13138" lon="4.13444">
        <ele>226.1</ele>
        <time>2020-06-24T15:55:51Z</time>
      </trkpt>
      <trkpt lat="50.13135" lon="4.13451">
        <ele>226.1</ele>
        <time>2020-06-24T15:55:52Z</time>
      </trkpt>
      <trkpt lat="50.13132" lon="4.13456">
        <ele>226.1</ele>
        <time>2020-06-24T15:55:53Z</time>
      </trkpt>
      <trkpt lat="50.1313" lon="4.1346">
        <ele>226.2</ele>
        <time>2020-06-24T15:55:54Z</time>
      </trkpt>
      <trkpt lat="50.13129" lon="4.13464">
        <ele>226.2</ele>
        <time>2020-06-24T15:55:55Z</time>
      </trkpt>
      <trkpt lat="50.13127" lon="4.13469">
        <ele>226.2</ele>
        <time>2020-06-24T15:55:56Z</time>
      </trkpt>
      <trkpt lat="50.13126" lon="4.13475">
        <ele>226.2</ele>
        <time>2020-06-24T15:55:57Z</time>
      </trkpt>
      <trkpt lat="50.13124" lon="4.13482">
        <ele>226.2</ele>
        <time>2020-06-24T15:55:58Z</time>
      </trkpt>
      <trkpt lat="50.13122" lon="4.13486">
        <ele>226.2</ele>
        <time>2020-06-24T15:55:59Z</time>
      </trkpt>
      <trkpt lat="50.1312" lon="4.13492">
        <ele>226.2</ele>
        <time>2020-06-24T15:56:00Z</time>
      </trkpt>
      <trkpt lat="50.13119" lon="4.13498">
        <ele>226.2</ele>
        <time>2020-06-24T15:56:01Z</time>
      </trkpt>
      <trkpt lat="50.13116" lon="4.13505">
        <ele>226.2</ele>
        <time>2020-06-24T15:56:02Z</time>
      </trkpt>
      <trkpt lat="50.13113" lon="4.13512">
        <ele>226</ele>
        <time>2020-06-24T15:56:03Z</time>
      </trkpt>
      <trkpt lat="50.13111" lon="4.13519">
        <ele>225.9</ele>
        <time>2020-06-24T15:56:04Z</time>
      </trkpt>
      <trkpt lat="50.13109" lon="4.13526">
        <ele>225.8</ele>
        <time>2020-06-24T15:56:05Z</time>
      </trkpt>
      <trkpt lat="50.13108" lon="4.13534">
        <ele>225.7</ele>
        <time>2020-06-24T15:56:06Z</time>
      </trkpt>
      <trkpt lat="50.13105" lon="4.13541">
        <ele>225.6</ele>
        <time>2020-06-24T15:56:07Z</time>
      </trkpt>
      <trkpt lat="50.13103" lon="4.13548">
        <ele>225.6</ele>
        <time>2020-06-24T15:56:08Z</time>
      </trkpt>
      <trkpt lat="50.131" lon="4.13555">
        <ele>225.5</ele>
        <time>2020-06-24T15:56:09Z</time>
      </trkpt>
      <trkpt lat="50.13098" lon="4.13562">
        <ele>225.5</ele>
        <time>2020-06-24T15:56:10Z</time>
      </trkpt>
      <trkpt lat="50.13096" lon="4.13571">
        <ele>225.4</ele>
        <time>2020-06-24T15:56:11Z</time>
      </trkpt>
      <trkpt lat="50.13094" lon="4.13578">
        <ele>225.4</ele>
        <time>2020-06-24T15:56:12Z</time>
      </trkpt>
      <trkpt lat="50.13092" lon="4.13586">
        <ele>225.3</ele>
        <time>2020-06-24T15:56:13Z</time>
      </trkpt>
      <trkpt lat="50.1309" lon="4.13593">
        <ele>225.3</ele>
        <time>2020-06-24T15:56:14Z</time>
      </trkpt>
      <trkpt lat="50.13088" lon="4.13601">
        <ele>225.3</ele>
        <time>2020-06-24T15:56:15Z</time>
      </trkpt>
      <trkpt lat="50.13086" lon="4.13608">
        <ele>225.2</ele>
        <time>2020-06-24T15:56:16Z</time>
      </trkpt>
      <trkpt lat="50.13084" lon="4.13615">
        <ele>225.2</ele>
        <time>2020-06-24T15:56:17Z</time>
      </trkpt>
      <trkpt lat="50.1308" lon="4.13622">
        <ele>225.1</ele>
        <time>2020-06-24T15:56:18Z</time>
      </trkpt>
      <trkpt lat="50.13079" lon="4.13631">
        <ele>225.1</ele>
        <time>2020-06-24T15:56:19Z</time>
      </trkpt>
      <trkpt lat="50.13077" lon="4.13639">
        <ele>225.1</ele>
        <time>2020-06-24T15:56:20Z</time>
      </trkpt>
      <trkpt lat="50.13076" lon="4.13647">
        <ele>225</ele>
        <time>2020-06-24T15:56:21Z</time>
      </trkpt>
      <trkpt lat="50.13074" lon="4.13655">
        <ele>225</ele>
        <time>2020-06-24T15:56:22Z</time>
      </trkpt>
      <trkpt lat="50.13072" lon="4.13664">
        <ele>225</ele>
        <time>2020-06-24T15:56:23Z</time>
      </trkpt>
      <trkpt lat="50.1307" lon="4.13672">
        <ele>225</ele>
        <time>2020-06-24T15:56:24Z</time>
      </trkpt>
      <trkpt lat="50.13068" lon="4.13681">
        <ele>225</ele>
        <time>2020-06-24T15:56:25Z</time>
      </trkpt>
      <trkpt lat="50.13066" lon="4.13689">
        <ele>225</ele>
        <time>2020-06-24T15:56:26Z</time>
      </trkpt>
      <trkpt lat="50.13065" lon="4.13696">
        <ele>225</ele>
        <time>2020-06-24T15:56:27Z</time>
      </trkpt>
      <trkpt lat="50.13062" lon="4.13704">
        <ele>225</ele>
        <time>2020-06-24T15:56:28Z</time>
      </trkpt>
      <trkpt lat="50.1306" lon="4.1371">
        <ele>225.1</ele>
        <time>2020-06-24T15:56:29Z</time>
      </trkpt>
      <trkpt lat="50.13058" lon="4.13718">
        <ele>225.1</ele>
        <time>2020-06-24T15:56:30Z</time>
      </trkpt>
      <trkpt lat="50.13056" lon="4.13726">
        <ele>225.2</ele>
        <time>2020-06-24T15:56:31Z</time>
      </trkpt>
      <trkpt lat="50.13053" lon="4.13734">
        <ele>225.3</ele>
        <time>2020-06-24T15:56:32Z</time>
      </trkpt>
      <trkpt lat="50.1305" lon="4.13743">
        <ele>225.5</ele>
        <time>2020-06-24T15:56:33Z</time>
      </trkpt>
      <trkpt lat="50.13048" lon="4.13751">
        <ele>225.6</ele>
        <time>2020-06-24T15:56:34Z</time>
      </trkpt>
      <trkpt lat="50.13046" lon="4.1376">
        <ele>225.7</ele>
        <time>2020-06-24T15:56:35Z</time>
      </trkpt>
      <trkpt lat="50.13043" lon="4.13769">
        <ele>225.9</ele>
        <time>2020-06-24T15:56:36Z</time>
      </trkpt>
      <trkpt lat="50.13041" lon="4.13778">
        <ele>226</ele>
        <time>2020-06-24T15:56:37Z</time>
      </trkpt>
      <trkpt lat="50.13039" lon="4.13788">
        <ele>226.2</ele>
        <time>2020-06-24T15:56:38Z</time>
      </trkpt>
      <trkpt lat="50.13037" lon="4.13798">
        <ele>226.5</ele>
        <time>2020-06-24T15:56:39Z</time>
      </trkpt>
      <trkpt lat="50.13035" lon="4.13808">
        <ele>226.7</ele>
        <time>2020-06-24T15:56:40Z</time>
      </trkpt>
      <trkpt lat="50.13033" lon="4.13817">
        <ele>226.9</ele>
        <time>2020-06-24T15:56:41Z</time>
      </trkpt>
      <trkpt lat="50.13032" lon="4.13826">
        <ele>227</ele>
        <time>2020-06-24T15:56:42Z</time>
      </trkpt>
      <trkpt lat="50.1303" lon="4.13834">
        <ele>227.2</ele>
        <time>2020-06-24T15:56:43Z</time>
      </trkpt>
      <trkpt lat="50.13029" lon="4.13841">
        <ele>227.4</ele>
        <time>2020-06-24T15:56:44Z</time>
      </trkpt>
      <trkpt lat="50.13028" lon="4.13848">
        <ele>227.5</ele>
        <time>2020-06-24T15:56:45Z</time>
      </trkpt>
      <trkpt lat="50.13027" lon="4.13855">
        <ele>227.7</ele>
        <time>2020-06-24T15:56:46Z</time>
      </trkpt>
      <trkpt lat="50.13026" lon="4.13862">
        <ele>227.9</ele>
        <time>2020-06-24T15:56:47Z</time>
      </trkpt>
      <trkpt lat="50.13024" lon="4.13867">
        <ele>228</ele>
        <time>2020-06-24T15:56:48Z</time>
      </trkpt>
      <trkpt lat="50.13022" lon="4.13872">
        <ele>228</ele>
        <time>2020-06-24T15:56:49Z</time>
      </trkpt>
      <trkpt lat="50.1302" lon="4.13878">
        <ele>228.1</ele>
        <time>2020-06-24T15:56:50Z</time>
      </trkpt>
      <trkpt lat="50.13018" lon="4.13883">
        <ele>228.2</ele>
        <time>2020-06-24T15:56:51Z</time>
      </trkpt>
      <trkpt lat="50.13017" lon="4.13889">
        <ele>228.2</ele>
        <time>2020-06-24T15:56:52Z</time>
      </trkpt>
      <trkpt lat="50.13016" lon="4.13895">
        <ele>228.3</ele>
        <time>2020-06-24T15:56:53Z</time>
      </trkpt>
      <trkpt lat="50.13014" lon="4.13902">
        <ele>228.4</ele>
        <time>2020-06-24T15:56:54Z</time>
      </trkpt>
      <trkpt lat="50.13013" lon="4.1391">
        <ele>228.5</ele>
        <time>2020-06-24T15:56:55Z</time>
      </trkpt>
      <trkpt lat="50.13011" lon="4.13918">
        <ele>228.6</ele>
        <time>2020-06-24T15:56:56Z</time>
      </trkpt>
      <trkpt lat="50.13009" lon="4.13925">
        <ele>228.7</ele>
        <time>2020-06-24T15:56:57Z</time>
      </trkpt>
      <trkpt lat="50.13008" lon="4.13932">
        <ele>228.8</ele>
        <time>2020-06-24T15:56:58Z</time>
      </trkpt>
      <trkpt lat="50.13006" lon="4.13938">
        <ele>228.9</ele>
        <time>2020-06-24T15:56:59Z</time>
      </trkpt>
      <trkpt lat="50.13005" lon="4.13945">
        <ele>229</ele>
        <time>2020-06-24T15:57:00Z</time>
      </trkpt>
      <trkpt lat="50.13004" lon="4.13951">
        <ele>229.1</ele>
        <time>2020-06-24T15:57:01Z</time>
      </trkpt>
      <trkpt lat="50.13003" lon="4.13958">
        <ele>229.2</ele>
        <time>2020-06-24T15:57:02Z</time>
      </trkpt>
      <trkpt lat="50.13002" lon="4.13964">
        <ele>229.3</ele>
        <time>2020-06-24T15:57:03Z</time>
      </trkpt>
      <trkpt lat="50.13" lon="4.1397">
        <ele>229.3</ele>
        <time>2020-06-24T15:57:04Z</time>
      </trkpt>
      <trkpt lat="50.12999" lon="4.13976">
        <ele>229.4</ele>
        <time>2020-06-24T15:57:05Z</time>
      </trkpt>
      <trkpt lat="50.12998" lon="4.13983">
        <ele>229.5</ele>
        <time>2020-06-24T15:57:06Z</time>
      </trkpt>
      <trkpt lat="50.12997" lon="4.13991">
        <ele>229.6</ele>
        <time>2020-06-24T15:57:07Z</time>
      </trkpt>
      <trkpt lat="50.12996" lon="4.13998">
        <ele>229.7</ele>
        <time>2020-06-24T15:57:08Z</time>
      </trkpt>
      <trkpt lat="50.12996" lon="4.14004">
        <ele>229.8</ele>
        <time>2020-06-24T15:57:09Z</time>
      </trkpt>
      <trkpt lat="50.12995" lon="4.14009">
        <ele>229.9</ele>
        <time>2020-06-24T15:57:10Z</time>
      </trkpt>
      <trkpt lat="50.12994" lon="4.14015">
        <ele>229.9</ele>
        <time>2020-06-24T15:57:11Z</time>
      </trkpt>
      <trkpt lat="50.12993" lon="4.14021">
        <ele>230</ele>
        <time>2020-06-24T15:57:12Z</time>
      </trkpt>
      <trkpt lat="50.12991" lon="4.14026">
        <ele>230.1</ele>
        <time>2020-06-24T15:57:13Z</time>
      </trkpt>
      <trkpt lat="50.1299" lon="4.14031">
        <ele>230.1</ele>
        <time>2020-06-24T15:57:14Z</time>
      </trkpt>
      <trkpt lat="50.12989" lon="4.14038">
        <ele>230.2</ele>
        <time>2020-06-24T15:57:15Z</time>
      </trkpt>
      <trkpt lat="50.12988" lon="4.14044">
        <ele>230.3</ele>
        <time>2020-06-24T15:57:16Z</time>
      </trkpt>
      <trkpt lat="50.12985" lon="4.14052">
        <ele>230.4</ele>
        <time>2020-06-24T15:57:17Z</time>
      </trkpt>
      <trkpt lat="50.12984" lon="4.14057">
        <ele>230.4</ele>
        <time>2020-06-24T15:57:18Z</time>
      </trkpt>
      <trkpt lat="50.12983" lon="4.14064">
        <ele>230.5</ele>
        <time>2020-06-24T15:57:19Z</time>
      </trkpt>
      <trkpt lat="50.1298" lon="4.1407">
        <ele>230.6</ele>
        <time>2020-06-24T15:57:20Z</time>
      </trkpt>
      <trkpt lat="50.12978" lon="4.14074">
        <ele>230.6</ele>
        <time>2020-06-24T15:57:21Z</time>
      </trkpt>
      <trkpt lat="50.12977" lon="4.14079">
        <ele>230.7</ele>
        <time>2020-06-24T15:57:22Z</time>
      </trkpt>
      <trkpt lat="50.12976" lon="4.14083">
        <ele>230.7</ele>
        <time>2020-06-24T15:57:23Z</time>
      </trkpt>
      <trkpt lat="50.12974" lon="4.14089">
        <ele>230.8</ele>
        <time>2020-06-24T15:57:24Z</time>
      </trkpt>
      <trkpt lat="50.12974" lon="4.14091">
        <ele>230.8</ele>
        <time>2020-06-24T15:57:25Z</time>
      </trkpt>
      <trkpt lat="50.12974" lon="4.14095">
        <ele>230.9</ele>
        <time>2020-06-24T15:57:26Z</time>
      </trkpt>
      <trkpt lat="50.12976" lon="4.14098">
        <ele>230.9</ele>
        <time>2020-06-24T15:57:27Z</time>
      </trkpt>
      <trkpt lat="50.12979" lon="4.14097">
        <ele>231</ele>
        <time>2020-06-24T15:57:28Z</time>
      </trkpt>
      <trkpt lat="50.1298" lon="4.14096">
        <ele>231</ele>
        <time>2020-06-24T15:57:29Z</time>
      </trkpt>
      <trkpt lat="50.12982" lon="4.14092">
        <ele>231</ele>
        <time>2020-06-24T15:57:30Z</time>
      </trkpt>
      <trkpt lat="50.12985" lon="4.1409">
        <ele>231.1</ele>
        <time>2020-06-24T15:57:31Z</time>
      </trkpt>
      <trkpt lat="50.12987" lon="4.14089">
        <ele>231.1</ele>
        <time>2020-06-24T15:57:32Z</time>
      </trkpt>
      <trkpt lat="50.12991" lon="4.1409">
        <ele>231.1</ele>
        <time>2020-06-24T15:57:33Z</time>
      </trkpt>
      <trkpt lat="50.12992" lon="4.1409">
        <ele>231.2</ele>
        <time>2020-06-24T15:57:34Z</time>
      </trkpt>
      <trkpt lat="50.12994" lon="4.14092">
        <ele>231.2</ele>
        <time>2020-06-24T15:57:35Z</time>
      </trkpt>
      <trkpt lat="50.12995" lon="4.14093">
        <ele>231.2</ele>
        <time>2020-06-24T15:57:36Z</time>
      </trkpt>
      <trkpt lat="50.12996" lon="4.14093">
        <ele>231.2</ele>
        <time>2020-06-24T15:57:37Z</time>
      </trkpt>
      <trkpt lat="50.12998" lon="4.14093">
        <ele>231.2</ele>
        <time>2020-06-24T15:57:38Z</time>
      </trkpt>
      <trkpt lat="50.13" lon="4.14093">
        <ele>231.3</ele>
        <time>2020-06-24T15:57:39Z</time>
      </trkpt>
      <trkpt lat="50.13001" lon="4.14093">
        <ele>231.3</ele>
        <time>2020-06-24T15:57:40Z</time>
      </trkpt>
      <trkpt lat="50.13004" lon="4.14093">
        <ele>231.3</ele>
        <time>2020-06-24T15:57:41Z</time>
      </trkpt>
      <trkpt lat="50.13005" lon="4.14093">
        <ele>231.3</ele>
        <time>2020-06-24T15:57:42Z</time>
      </trkpt>
      <trkpt lat="50.13006" lon="4.14093">
        <ele>231.3</ele>
        <time>2020-06-24T15:57:43Z</time>
      </trkpt>
      <trkpt lat="50.13008" lon="4.14093">
        <ele>231.3</ele>
        <time>2020-06-24T15:57:44Z</time>
      </trkpt>
      <trkpt lat="50.13009" lon="4.14092">
        <ele>231.3</ele>
        <time>2020-06-24T15:57:45Z</time>
      </trkpt>
      <trkpt lat="50.13012" lon="4.14092">
        <ele>231.4</ele>
        <time>2020-06-24T15:57:46Z</time>
      </trkpt>
      <trkpt lat="50.13013" lon="4.14093">
        <ele>231.4</ele>
        <time>2020-06-24T15:57:47Z</time>
      </trkpt>
      <trkpt lat="50.13016" lon="4.14092">
        <ele>231.4</ele>
        <time>2020-06-24T15:57:48Z</time>
      </trkpt>
      <trkpt lat="50.13018" lon="4.14092">
        <ele>231.4</ele>
        <time>2020-06-24T15:57:49Z</time>
      </trkpt>
      <trkpt lat="50.1302" lon="4.14091">
        <ele>231.4</ele>
        <time>2020-06-24T15:57:50Z</time>
      </trkpt>
      <trkpt lat="50.13021" lon="4.14091">
        <ele>231.4</ele>
        <time>2020-06-24T15:57:51Z</time>
      </trkpt>
      <trkpt lat="50.13025" lon="4.1409">
        <ele>231.5</ele>
        <time>2020-06-24T15:57:52Z</time>
      </trkpt>
      <trkpt lat="50.13026" lon="4.1409">
        <ele>231.5</ele>
        <time>2020-06-24T15:57:53Z</time>
      </trkpt>
      <trkpt lat="50.13029" lon="4.14088">
        <ele>231.5</ele>
        <time>2020-06-24T15:57:54Z</time>
      </trkpt>
      <trkpt lat="50.1303" lon="4.14088">
        <ele>231.5</ele>
        <time>2020-06-24T15:57:55Z</time>
      </trkpt>
      <trkpt lat="50.13032" lon="4.14085">
        <ele>231.5</ele>
        <time>2020-06-24T15:57:56Z</time>
      </trkpt>
      <trkpt lat="50.13033" lon="4.14083">
        <ele>231.5</ele>
        <time>2020-06-24T15:57:57Z</time>
      </trkpt>
      <trkpt lat="50.13033" lon="4.14082">
        <ele>231.5</ele>
        <time>2020-06-24T15:57:58Z</time>
      </trkpt>
      <trkpt lat="50.13033" lon="4.1408">
        <ele>231.5</ele>
        <time>2020-06-24T15:57:59Z</time>
      </trkpt>
      <trkpt lat="50.13032" lon="4.14078">
        <ele>231.5</ele>
        <time>2020-06-24T15:58:00Z</time>
      </trkpt>
      <trkpt lat="50.13031" lon="4.14076">
        <ele>231.5</ele>
        <time>2020-06-24T15:58:01Z</time>
      </trkpt>
      <trkpt lat="50.13031" lon="4.14076">
        <ele>231.5</ele>
        <time>2020-06-24T15:58:02Z</time>
      </trkpt>
      <trkpt lat="50.1303" lon="4.14075">
        <ele>231.5</ele>
        <time>2020-06-24T15:58:03Z</time>
      </trkpt>
      <trkpt lat="50.13029" lon="4.14073">
        <ele>231.5</ele>
        <time>2020-06-24T15:58:04Z</time>
      </trkpt>
      <trkpt lat="50.13029" lon="4.14073">
        <ele>231.5</ele>
        <time>2020-06-24T15:58:05Z</time>
      </trkpt>
      <trkpt lat="50.13029" lon="4.14071">
        <ele>231.5</ele>
        <time>2020-06-24T15:58:06Z</time>
      </trkpt>
      <trkpt lat="50.13029" lon="4.1407">
        <ele>231.5</ele>
        <time>2020-06-24T15:58:07Z</time>
      </trkpt>
      <trkpt lat="50.13028" lon="4.14071">
        <ele>231.5</ele>
        <time>2020-06-24T15:58:08Z</time>
      </trkpt>
      <trkpt lat="50.13027" lon="4.14071">
        <ele>231.5</ele>
        <time>2020-06-24T15:58:09Z</time>
      </trkpt>
      <trkpt lat="50.13027" lon="4.14072">
        <ele>231.5</ele>
        <time>2020-06-24T15:58:10Z</time>
      </trkpt>
      <trkpt lat="50.13026" lon="4.14072">
        <ele>231.5</ele>
        <time>2020-06-24T15:58:11Z</time>
      </trkpt>
      <trkpt lat="50.13025" lon="4.14072">
        <ele>231.5</ele>
        <time>2020-06-24T15:58:12Z</time>
      </trkpt>
      <trkpt lat="50.13025" lon="4.14073">
        <ele>231.5</ele>
        <time>2020-06-24T15:58:13Z</time>
      </trkpt>
      <trkpt lat="50.13024" lon="4.14073">
        <ele>231.5</ele>
        <time>2020-06-24T15:58:14Z</time>
      </trkpt>
      <trkpt lat="50.13023" lon="4.14074">
        <ele>231.5</ele>
        <time>2020-06-24T15:58:15Z</time>
      </trkpt>
      <trkpt lat="50.13023" lon="4.14074">
        <ele>231.5</ele>
        <time>2020-06-24T15:58:16Z</time>
      </trkpt>
      <trkpt lat="50.13022" lon="4.14075">
        <ele>231.5</ele>
        <time>2020-06-24T15:58:17Z</time>
      </trkpt>
      <trkpt lat="50.13021" lon="4.14075">
        <ele>231.5</ele>
        <time>2020-06-24T15:58:18Z</time>
      </trkpt>
      <trkpt lat="50.13021" lon="4.14075">
        <ele>231.5</ele>
        <time>2020-06-24T16:02:27Z</time>
      </trkpt>
      <trkpt lat="50.1302" lon="4.14076">
        <ele>231.6</ele>
        <time>2020-06-24T16:02:28Z</time>
      </trkpt>
      <trkpt lat="50.13019" lon="4.14075">
        <ele>231.6</ele>
        <time>2020-06-24T16:02:29Z</time>
      </trkpt>
      <trkpt lat="50.13017" lon="4.14074">
        <ele>231.6</ele>
        <time>2020-06-24T16:02:30Z</time>
      </trkpt>
      <trkpt lat="50.13015" lon="4.14073">
        <ele>231.6</ele>
        <time>2020-06-24T16:02:31Z</time>
      </trkpt>
      <trkpt lat="50.13014" lon="4.14073">
        <ele>231.6</ele>
        <time>2020-06-24T16:02:32Z</time>
      </trkpt>
      <trkpt lat="50.13012" lon="4.14073">
        <ele>231.6</ele>
        <time>2020-06-24T16:02:33Z</time>
      </trkpt>
      <trkpt lat="50.13012" lon="4.14072">
        <ele>231.6</ele>
        <time>2020-06-24T16:02:34Z</time>
      </trkpt>
      <trkpt lat="50.13012" lon="4.14072">
        <ele>231.6</ele>
        <time>2020-06-24T16:02:35Z</time>
      </trkpt>
      <trkpt lat="50.13011" lon="4.14071">
        <ele>231.6</ele>
        <time>2020-06-24T16:02:36Z</time>
      </trkpt>
      <trkpt lat="50.13011" lon="4.14071">
        <ele>231.6</ele>
        <time>2020-06-24T16:02:37Z</time>
      </trkpt>
      <trkpt lat="50.1301" lon="4.1407">
        <ele>231.5</ele>
        <time>2020-06-24T16:02:38Z</time>
      </trkpt>
      <trkpt lat="50.13009" lon="4.1407">
        <ele>231.5</ele>
        <time>2020-06-24T16:02:39Z</time>
      </trkpt>
      <trkpt lat="50.13009" lon="4.1407">
        <ele>231.5</ele>
        <time>2020-06-24T16:02:40Z</time>
      </trkpt>
      <trkpt lat="50.13009" lon="4.14071">
        <ele>231.5</ele>
        <time>2020-06-24T16:02:41Z</time>
      </trkpt>
      <trkpt lat="50.13008" lon="4.14069">
        <ele>231.5</ele>
        <time>2020-06-24T16:02:42Z</time>
      </trkpt>
      <trkpt lat="50.13008" lon="4.14069">
        <ele>231.5</ele>
        <time>2020-06-24T16:02:43Z</time>
      </trkpt>
      <trkpt lat="50.13008" lon="4.14069">
        <ele>231.5</ele>
        <time>2020-06-24T16:02:44Z</time>
      </trkpt>
      <trkpt lat="50.13008" lon="4.14069">
        <ele>231.5</ele>
        <time>2020-06-24T16:02:45Z</time>
      </trkpt>
      <trkpt lat="50.13007" lon="4.14068">
        <ele>231.5</ele>
        <time>2020-06-24T16:02:46Z</time>
      </trkpt>
      <trkpt lat="50.13007" lon="4.14067">
        <ele>231.5</ele>
        <time>2020-06-24T16:02:47Z</time>
      </trkpt>
      <trkpt lat="50.13006" lon="4.14065">
        <ele>231.5</ele>
        <time>2020-06-24T16:02:48Z</time>
      </trkpt>
      <trkpt lat="50.13006" lon="4.14065">
        <ele>231.5</ele>
        <time>2020-06-24T16:02:49Z</time>
      </trkpt>
      <trkpt lat="50.13006" lon="4.14065">
        <ele>231.5</ele>
        <time>2020-06-24T16:02:50Z</time>
      </trkpt>
      <trkpt lat="50.13006" lon="4.14065">
        <ele>231.5</ele>
        <time>2020-06-24T16:02:51Z</time>
      </trkpt>
      <trkpt lat="50.13006" lon="4.14065">
        <ele>231.5</ele>
        <time>2020-06-24T16:02:52Z</time>
      </trkpt>
      <trkpt lat="50.13006" lon="4.14065">
        <ele>231.5</ele>
        <time>2020-06-24T16:02:53Z</time>
      </trkpt>
      <trkpt lat="50.13016" lon="4.14075">
        <ele>231.5</ele>
        <time>2020-06-24T16:46:17Z</time>
      </trkpt>
      <trkpt lat="50.13017" lon="4.14074">
        <ele>231.5</ele>
        <time>2020-06-24T16:46:18Z</time>
      </trkpt>
      <trkpt lat="50.13018" lon="4.14074">
        <ele>231.5</ele>
        <time>2020-06-24T16:46:19Z</time>
      </trkpt>
      <trkpt lat="50.13018" lon="4.14073">
        <ele>231.5</ele>
        <time>2020-06-24T16:46:20Z</time>
      </trkpt>
      <trkpt lat="50.13019" lon="4.14074">
        <ele>231.5</ele>
        <time>2020-06-24T16:46:21Z</time>
      </trkpt>
      <trkpt lat="50.13019" lon="4.14074">
        <ele>231.5</ele>
        <time>2020-06-24T16:46:22Z</time>
      </trkpt>
      <trkpt lat="50.13021" lon="4.14074">
        <ele>231.5</ele>
        <time>2020-06-24T16:46:23Z</time>
      </trkpt>
      <trkpt lat="50.13021" lon="4.14074">
        <ele>231.5</ele>
        <time>2020-06-24T16:46:24Z</time>
      </trkpt>
      <trkpt lat="50.13022" lon="4.14074">
        <ele>231.5</ele>
        <time>2020-06-24T16:46:25Z</time>
      </trkpt>
      <trkpt lat="50.13022" lon="4.14073">
        <ele>231.5</ele>
        <time>2020-06-24T16:46:26Z</time>
      </trkpt>
      <trkpt lat="50.13022" lon="4.14073">
        <ele>231.5</ele>
        <time>2020-06-24T16:46:27Z</time>
      </trkpt>
      <trkpt lat="50.13022" lon="4.14072">
        <ele>231.5</ele>
        <time>2020-06-24T16:46:28Z</time>
      </trkpt>
      <trkpt lat="50.13023" lon="4.14071">
        <ele>231.4</ele>
        <time>2020-06-24T16:46:29Z</time>
      </trkpt>
      <trkpt lat="50.13024" lon="4.14071">
        <ele>231.4</ele>
        <time>2020-06-24T16:46:30Z</time>
      </trkpt>
      <trkpt lat="50.13024" lon="4.1407">
        <ele>231.4</ele>
        <time>2020-06-24T16:46:31Z</time>
      </trkpt>
      <trkpt lat="50.13024" lon="4.1407">
        <ele>231.4</ele>
        <time>2020-06-24T16:46:32Z</time>
      </trkpt>
      <trkpt lat="50.13025" lon="4.1407">
        <ele>231.4</ele>
        <time>2020-06-24T16:46:33Z</time>
      </trkpt>
      <trkpt lat="50.13026" lon="4.14071">
        <ele>231.4</ele>
        <time>2020-06-24T16:46:34Z</time>
      </trkpt>
      <trkpt lat="50.13027" lon="4.14071">
        <ele>231.4</ele>
        <time>2020-06-24T16:46:35Z</time>
      </trkpt>
      <trkpt lat="50.13027" lon="4.1407">
        <ele>231.4</ele>
        <time>2020-06-24T16:46:36Z</time>
      </trkpt>
      <trkpt lat="50.13028" lon="4.1407">
        <ele>231.4</ele>
        <time>2020-06-24T16:46:37Z</time>
      </trkpt>
      <trkpt lat="50.13028" lon="4.1407">
        <ele>231.4</ele>
        <time>2020-06-24T16:46:38Z</time>
      </trkpt>
      <trkpt lat="50.13029" lon="4.14069">
        <ele>231.4</ele>
        <time>2020-06-24T16:46:39Z</time>
      </trkpt>
      <trkpt lat="50.13029" lon="4.14069">
        <ele>231.4</ele>
        <time>2020-06-24T16:46:40Z</time>
      </trkpt>
      <trkpt lat="50.13029" lon="4.14069">
        <ele>231.4</ele>
        <time>2020-06-24T16:46:41Z</time>
      </trkpt>
      <trkpt lat="50.13029" lon="4.14069">
        <ele>231.4</ele>
        <time>2020-06-24T16:46:42Z</time>
      </trkpt>
      <trkpt lat="50.13029" lon="4.14069">
        <ele>231.4</ele>
        <time>2020-06-24T16:46:43Z</time>
      </trkpt>
      <trkpt lat="50.13029" lon="4.14069">
        <ele>231.4</ele>
        <time>2020-06-24T16:46:44Z</time>
      </trkpt>
      <trkpt lat="50.13029" lon="4.14069">
        <ele>231.4</ele>
        <time>2020-06-24T16:46:45Z</time>
      </trkpt>
      <trkpt lat="50.13029" lon="4.1407">
        <ele>231.4</ele>
        <time>2020-06-24T16:46:46Z</time>
      </trkpt>
      <trkpt lat="50.1303" lon="4.14069">
        <ele>231.4</ele>
        <time>2020-06-24T16:46:47Z</time>
      </trkpt>
      <trkpt lat="50.1303" lon="4.14068">
        <ele>231.4</ele>
        <time>2020-06-24T16:46:48Z</time>
      </trkpt>
      <trkpt lat="50.1303" lon="4.14068">
        <ele>231.4</ele>
        <time>2020-06-24T16:46:49Z</time>
      </trkpt>
      <trkpt lat="50.13031" lon="4.14068">
        <ele>231.4</ele>
        <time>2020-06-24T16:46:50Z</time>
      </trkpt>
      <trkpt lat="50.13031" lon="4.14068">
        <ele>231.4</ele>
        <time>2020-06-24T16:46:51Z</time>
      </trkpt>
      <trkpt lat="50.13032" lon="4.14068">
        <ele>231.4</ele>
        <time>2020-06-24T16:46:52Z</time>
      </trkpt>
      <trkpt lat="50.13032" lon="4.14067">
        <ele>231.4</ele>
        <time>2020-06-24T16:46:53Z</time>
      </trkpt>
      <trkpt lat="50.13032" lon="4.14067">
        <ele>231.4</ele>
        <time>2020-06-24T16:46:54Z</time>
      </trkpt>
      <trkpt lat="50.13032" lon="4.14068">
        <ele>231.4</ele>
        <time>2020-06-24T16:46:55Z</time>
      </trkpt>
      <trkpt lat="50.13033" lon="4.14067">
        <ele>231.4</ele>
        <time>2020-06-24T16:46:56Z</time>
      </trkpt>
      <trkpt lat="50.13034" lon="4.14068">
        <ele>231.3</ele>
        <time>2020-06-24T16:46:57Z</time>
      </trkpt>
      <trkpt lat="50.13034" lon="4.14068">
        <ele>231.3</ele>
        <time>2020-06-24T16:46:58Z</time>
      </trkpt>
      <trkpt lat="50.13034" lon="4.14068">
        <ele>231.3</ele>
        <time>2020-06-24T16:46:59Z</time>
      </trkpt>
      <trkpt lat="50.13034" lon="4.14068">
        <ele>231.3</ele>
        <time>2020-06-24T16:47:00Z</time>
      </trkpt>
      <trkpt lat="50.13034" lon="4.14067">
        <ele>231.3</ele>
        <time>2020-06-24T16:47:01Z</time>
      </trkpt>
      <trkpt lat="50.13034" lon="4.14066">
        <ele>231.3</ele>
        <time>2020-06-24T16:47:02Z</time>
      </trkpt>
      <trkpt lat="50.13035" lon="4.14066">
        <ele>231.3</ele>
        <time>2020-06-24T16:47:03Z</time>
      </trkpt>
      <trkpt lat="50.13035" lon="4.14064">
        <ele>231.3</ele>
        <time>2020-06-24T16:47:04Z</time>
      </trkpt>
      <trkpt lat="50.13035" lon="4.14063">
        <ele>231.3</ele>
        <time>2020-06-24T16:47:05Z</time>
      </trkpt>
      <trkpt lat="50.13035" lon="4.14062">
        <ele>231.3</ele>
        <time>2020-06-24T16:47:06Z</time>
      </trkpt>
      <trkpt lat="50.13035" lon="4.14063">
        <ele>231.3</ele>
        <time>2020-06-24T16:47:07Z</time>
      </trkpt>
      <trkpt lat="50.13035" lon="4.14063">
        <ele>231.3</ele>
        <time>2020-06-24T16:47:08Z</time>
      </trkpt>
      <trkpt lat="50.13035" lon="4.14062">
        <ele>231.3</ele>
        <time>2020-06-24T16:47:09Z</time>
      </trkpt>
      <trkpt lat="50.13035" lon="4.14062">
        <ele>231.3</ele>
        <time>2020-06-24T16:47:10Z</time>
      </trkpt>
      <trkpt lat="50.13034" lon="4.14064">
        <ele>231.3</ele>
        <time>2020-06-24T16:47:11Z</time>
      </trkpt>
      <trkpt lat="50.13034" lon="4.14066">
        <ele>231.2</ele>
        <time>2020-06-24T16:47:12Z</time>
      </trkpt>
      <trkpt lat="50.13033" lon="4.14067">
        <ele>231.2</ele>
        <time>2020-06-24T16:47:13Z</time>
      </trkpt>
      <trkpt lat="50.13032" lon="4.14069">
        <ele>231.2</ele>
        <time>2020-06-24T16:47:29Z</time>
      </trkpt>
      <trkpt lat="50.13031" lon="4.1407">
        <ele>231.2</ele>
        <time>2020-06-24T16:47:30Z</time>
      </trkpt>
      <trkpt lat="50.1303" lon="4.14072">
        <ele>231.2</ele>
        <time>2020-06-24T16:47:31Z</time>
      </trkpt>
      <trkpt lat="50.13029" lon="4.14073">
        <ele>231.2</ele>
        <time>2020-06-24T16:47:32Z</time>
      </trkpt>
      <trkpt lat="50.13028" lon="4.14075">
        <ele>231.1</ele>
        <time>2020-06-24T16:47:33Z</time>
      </trkpt>
      <trkpt lat="50.13028" lon="4.14077">
        <ele>231.1</ele>
        <time>2020-06-24T16:47:34Z</time>
      </trkpt>
      <trkpt lat="50.13028" lon="4.1408">
        <ele>231.1</ele>
        <time>2020-06-24T16:47:35Z</time>
      </trkpt>
      <trkpt lat="50.13027" lon="4.14082">
        <ele>231.1</ele>
        <time>2020-06-24T16:47:36Z</time>
      </trkpt>
      <trkpt lat="50.13026" lon="4.14083">
        <ele>231.1</ele>
        <time>2020-06-24T16:47:37Z</time>
      </trkpt>
      <trkpt lat="50.13025" lon="4.14083">
        <ele>231</ele>
        <time>2020-06-24T16:47:38Z</time>
      </trkpt>
      <trkpt lat="50.13024" lon="4.14084">
        <ele>231</ele>
        <time>2020-06-24T16:47:39Z</time>
      </trkpt>
      <trkpt lat="50.13022" lon="4.14085">
        <ele>231</ele>
        <time>2020-06-24T16:47:40Z</time>
      </trkpt>
      <trkpt lat="50.13021" lon="4.14087">
        <ele>231</ele>
        <time>2020-06-24T16:47:41Z</time>
      </trkpt>
      <trkpt lat="50.1302" lon="4.14088">
        <ele>231</ele>
        <time>2020-06-24T16:47:42Z</time>
      </trkpt>
      <trkpt lat="50.13018" lon="4.14089">
        <ele>230.9</ele>
        <time>2020-06-24T16:47:43Z</time>
      </trkpt>
      <trkpt lat="50.13017" lon="4.1409">
        <ele>230.9</ele>
        <time>2020-06-24T16:47:44Z</time>
      </trkpt>
      <trkpt lat="50.13014" lon="4.1409">
        <ele>230.9</ele>
        <time>2020-06-24T16:47:45Z</time>
      </trkpt>
      <trkpt lat="50.13013" lon="4.1409">
        <ele>230.9</ele>
        <time>2020-06-24T16:47:46Z</time>
      </trkpt>
      <trkpt lat="50.1301" lon="4.1409">
        <ele>230.8</ele>
        <time>2020-06-24T16:47:47Z</time>
      </trkpt>
      <trkpt lat="50.13009" lon="4.1409">
        <ele>230.8</ele>
        <time>2020-06-24T16:47:48Z</time>
      </trkpt>
      <trkpt lat="50.13006" lon="4.1409">
        <ele>230.8</ele>
        <time>2020-06-24T16:47:49Z</time>
      </trkpt>
      <trkpt lat="50.13004" lon="4.1409">
        <ele>230.7</ele>
        <time>2020-06-24T16:47:50Z</time>
      </trkpt>
      <trkpt lat="50.13003" lon="4.1409">
        <ele>230.7</ele>
        <time>2020-06-24T16:47:51Z</time>
      </trkpt>
      <trkpt lat="50.13" lon="4.14088">
        <ele>230.7</ele>
        <time>2020-06-24T16:47:52Z</time>
      </trkpt>
      <trkpt lat="50.12999" lon="4.14087">
        <ele>230.7</ele>
        <time>2020-06-24T16:47:53Z</time>
      </trkpt>
      <trkpt lat="50.12995" lon="4.14086">
        <ele>230.6</ele>
        <time>2020-06-24T16:47:54Z</time>
      </trkpt>
      <trkpt lat="50.12994" lon="4.14086">
        <ele>230.6</ele>
        <time>2020-06-24T16:47:55Z</time>
      </trkpt>
      <trkpt lat="50.12991" lon="4.14087">
        <ele>230.5</ele>
        <time>2020-06-24T16:47:56Z</time>
      </trkpt>
      <trkpt lat="50.12988" lon="4.14087">
        <ele>230.5</ele>
        <time>2020-06-24T16:47:57Z</time>
      </trkpt>
      <trkpt lat="50.12985" lon="4.14088">
        <ele>230.4</ele>
        <time>2020-06-24T16:47:58Z</time>
      </trkpt>
      <trkpt lat="50.12983" lon="4.14089">
        <ele>230.4</ele>
        <time>2020-06-24T16:47:59Z</time>
      </trkpt>
      <trkpt lat="50.12979" lon="4.14091">
        <ele>230.3</ele>
        <time>2020-06-24T16:48:00Z</time>
      </trkpt>
      <trkpt lat="50.12978" lon="4.14091">
        <ele>230.3</ele>
        <time>2020-06-24T16:48:01Z</time>
      </trkpt>
      <trkpt lat="50.12976" lon="4.14096">
        <ele>230.3</ele>
        <time>2020-06-24T16:48:02Z</time>
      </trkpt>
      <trkpt lat="50.12975" lon="4.14097">
        <ele>230.3</ele>
        <time>2020-06-24T16:48:03Z</time>
      </trkpt>
      <trkpt lat="50.12974" lon="4.14101">
        <ele>230.2</ele>
        <time>2020-06-24T16:48:04Z</time>
      </trkpt>
      <trkpt lat="50.12973" lon="4.14102">
        <ele>230.2</ele>
        <time>2020-06-24T16:48:05Z</time>
      </trkpt>
      <trkpt lat="50.12972" lon="4.14107">
        <ele>230.2</ele>
        <time>2020-06-24T16:48:06Z</time>
      </trkpt>
      <trkpt lat="50.12971" lon="4.14108">
        <ele>230.1</ele>
        <time>2020-06-24T16:48:07Z</time>
      </trkpt>
      <trkpt lat="50.1297" lon="4.14114">
        <ele>230.1</ele>
        <time>2020-06-24T16:48:08Z</time>
      </trkpt>
      <trkpt lat="50.1297" lon="4.14116">
        <ele>230</ele>
        <time>2020-06-24T16:48:09Z</time>
      </trkpt>
      <trkpt lat="50.12968" lon="4.14121">
        <ele>230</ele>
        <time>2020-06-24T16:48:10Z</time>
      </trkpt>
      <trkpt lat="50.12968" lon="4.14122">
        <ele>230</ele>
        <time>2020-06-24T16:48:11Z</time>
      </trkpt>
      <trkpt lat="50.12967" lon="4.14128">
        <ele>229.9</ele>
        <time>2020-06-24T16:48:12Z</time>
      </trkpt>
      <trkpt lat="50.12967" lon="4.1413">
        <ele>229.9</ele>
        <time>2020-06-24T16:48:13Z</time>
      </trkpt>
      <trkpt lat="50.12966" lon="4.14134">
        <ele>229.8</ele>
        <time>2020-06-24T16:48:14Z</time>
      </trkpt>
      <trkpt lat="50.12965" lon="4.14139">
        <ele>229.8</ele>
        <time>2020-06-24T16:48:15Z</time>
      </trkpt>
      <trkpt lat="50.12964" lon="4.14143">
        <ele>229.7</ele>
        <time>2020-06-24T16:48:16Z</time>
      </trkpt>
      <trkpt lat="50.12963" lon="4.14148">
        <ele>229.6</ele>
        <time>2020-06-24T16:48:17Z</time>
      </trkpt>
      <trkpt lat="50.12962" lon="4.14153">
        <ele>229.5</ele>
        <time>2020-06-24T16:48:18Z</time>
      </trkpt>
      <trkpt lat="50.12961" lon="4.14158">
        <ele>229.5</ele>
        <time>2020-06-24T16:48:19Z</time>
      </trkpt>
      <trkpt lat="50.1296" lon="4.14163">
        <ele>229.4</ele>
        <time>2020-06-24T16:48:20Z</time>
      </trkpt>
      <trkpt lat="50.12958" lon="4.14169">
        <ele>229.3</ele>
        <time>2020-06-24T16:48:21Z</time>
      </trkpt>
      <trkpt lat="50.12957" lon="4.14175">
        <ele>229.2</ele>
        <time>2020-06-24T16:48:22Z</time>
      </trkpt>
      <trkpt lat="50.12956" lon="4.14181">
        <ele>229.1</ele>
        <time>2020-06-24T16:48:23Z</time>
      </trkpt>
      <trkpt lat="50.12954" lon="4.14185">
        <ele>229.1</ele>
        <time>2020-06-24T16:48:24Z</time>
      </trkpt>
      <trkpt lat="50.12952" lon="4.14191">
        <ele>229</ele>
        <time>2020-06-24T16:48:25Z</time>
      </trkpt>
      <trkpt lat="50.12951" lon="4.14197">
        <ele>228.9</ele>
        <time>2020-06-24T16:48:26Z</time>
      </trkpt>
      <trkpt lat="50.12949" lon="4.14202">
        <ele>228.8</ele>
        <time>2020-06-24T16:48:27Z</time>
      </trkpt>
      <trkpt lat="50.12947" lon="4.14209">
        <ele>228.7</ele>
        <time>2020-06-24T16:48:28Z</time>
      </trkpt>
      <trkpt lat="50.12945" lon="4.14216">
        <ele>228.5</ele>
        <time>2020-06-24T16:48:29Z</time>
      </trkpt>
      <trkpt lat="50.12943" lon="4.14223">
        <ele>228.4</ele>
        <time>2020-06-24T16:48:30Z</time>
      </trkpt>
      <trkpt lat="50.12941" lon="4.14231">
        <ele>228.3</ele>
        <time>2020-06-24T16:48:31Z</time>
      </trkpt>
      <trkpt lat="50.12939" lon="4.14238">
        <ele>228.2</ele>
        <time>2020-06-24T16:48:32Z</time>
      </trkpt>
      <trkpt lat="50.12937" lon="4.14246">
        <ele>228.1</ele>
        <time>2020-06-24T16:48:33Z</time>
      </trkpt>
      <trkpt lat="50.12934" lon="4.14254">
        <ele>228</ele>
        <time>2020-06-24T16:48:34Z</time>
      </trkpt>
      <trkpt lat="50.12932" lon="4.14262">
        <ele>228</ele>
        <time>2020-06-24T16:48:35Z</time>
      </trkpt>
      <trkpt lat="50.1293" lon="4.1427">
        <ele>227.9</ele>
        <time>2020-06-24T16:48:36Z</time>
      </trkpt>
      <trkpt lat="50.12927" lon="4.14278">
        <ele>227.8</ele>
        <time>2020-06-24T16:48:37Z</time>
      </trkpt>
      <trkpt lat="50.12924" lon="4.14286">
        <ele>227.7</ele>
        <time>2020-06-24T16:48:38Z</time>
      </trkpt>
      <trkpt lat="50.12921" lon="4.14294">
        <ele>227.6</ele>
        <time>2020-06-24T16:48:39Z</time>
      </trkpt>
      <trkpt lat="50.12918" lon="4.14301">
        <ele>227.6</ele>
        <time>2020-06-24T16:48:40Z</time>
      </trkpt>
      <trkpt lat="50.12915" lon="4.1431">
        <ele>227.5</ele>
        <time>2020-06-24T16:48:41Z</time>
      </trkpt>
      <trkpt lat="50.12912" lon="4.14319">
        <ele>227.4</ele>
        <time>2020-06-24T16:48:42Z</time>
      </trkpt>
      <trkpt lat="50.12908" lon="4.14326">
        <ele>227.4</ele>
        <time>2020-06-24T16:48:43Z</time>
      </trkpt>
      <trkpt lat="50.12905" lon="4.14333">
        <ele>227.3</ele>
        <time>2020-06-24T16:48:44Z</time>
      </trkpt>
      <trkpt lat="50.12902" lon="4.1434">
        <ele>227.3</ele>
        <time>2020-06-24T16:48:45Z</time>
      </trkpt>
      <trkpt lat="50.12899" lon="4.14348">
        <ele>227.3</ele>
        <time>2020-06-24T16:48:46Z</time>
      </trkpt>
      <trkpt lat="50.12896" lon="4.14357">
        <ele>227.3</ele>
        <time>2020-06-24T16:48:47Z</time>
      </trkpt>
      <trkpt lat="50.12893" lon="4.14366">
        <ele>227.2</ele>
        <time>2020-06-24T16:48:48Z</time>
      </trkpt>
      <trkpt lat="50.1289" lon="4.14372">
        <ele>227.1</ele>
        <time>2020-06-24T16:48:49Z</time>
      </trkpt>
      <trkpt lat="50.12886" lon="4.1438">
        <ele>227</ele>
        <time>2020-06-24T16:48:50Z</time>
      </trkpt>
      <trkpt lat="50.12883" lon="4.14386">
        <ele>227</ele>
        <time>2020-06-24T16:48:51Z</time>
      </trkpt>
      <trkpt lat="50.12879" lon="4.14394">
        <ele>226.9</ele>
        <time>2020-06-24T16:48:52Z</time>
      </trkpt>
      <trkpt lat="50.12875" lon="4.14401">
        <ele>226.8</ele>
        <time>2020-06-24T16:48:53Z</time>
      </trkpt>
      <trkpt lat="50.1287" lon="4.14408">
        <ele>226.9</ele>
        <time>2020-06-24T16:48:54Z</time>
      </trkpt>
      <trkpt lat="50.12866" lon="4.14414">
        <ele>226.8</ele>
        <time>2020-06-24T16:48:55Z</time>
      </trkpt>
      <trkpt lat="50.12862" lon="4.14419">
        <ele>226.8</ele>
        <time>2020-06-24T16:48:56Z</time>
      </trkpt>
      <trkpt lat="50.12858" lon="4.14424">
        <ele>226.8</ele>
        <time>2020-06-24T16:48:57Z</time>
      </trkpt>
      <trkpt lat="50.12853" lon="4.14428">
        <ele>226.7</ele>
        <time>2020-06-24T16:48:58Z</time>
      </trkpt>
      <trkpt lat="50.12849" lon="4.14433">
        <ele>226.7</ele>
        <time>2020-06-24T16:48:59Z</time>
      </trkpt>
      <trkpt lat="50.12843" lon="4.14437">
        <ele>226.7</ele>
        <time>2020-06-24T16:49:00Z</time>
      </trkpt>
      <trkpt lat="50.12839" lon="4.1444">
        <ele>226.7</ele>
        <time>2020-06-24T16:49:01Z</time>
      </trkpt>
      <trkpt lat="50.12834" lon="4.14444">
        <ele>226.7</ele>
        <time>2020-06-24T16:49:02Z</time>
      </trkpt>
      <trkpt lat="50.12829" lon="4.14447">
        <ele>226.7</ele>
        <time>2020-06-24T16:49:03Z</time>
      </trkpt>
      <trkpt lat="50.12823" lon="4.1445">
        <ele>226.7</ele>
        <time>2020-06-24T16:49:04Z</time>
      </trkpt>
      <trkpt lat="50.12818" lon="4.14453">
        <ele>226.7</ele>
        <time>2020-06-24T16:49:05Z</time>
      </trkpt>
      <trkpt lat="50.12813" lon="4.14457">
        <ele>226.7</ele>
        <time>2020-06-24T16:49:06Z</time>
      </trkpt>
      <trkpt lat="50.12808" lon="4.1446">
        <ele>226.7</ele>
        <time>2020-06-24T16:49:07Z</time>
      </trkpt>
      <trkpt lat="50.12804" lon="4.14463">
        <ele>226.7</ele>
        <time>2020-06-24T16:49:08Z</time>
      </trkpt>
      <trkpt lat="50.12799" lon="4.14466">
        <ele>226.6</ele>
        <time>2020-06-24T16:49:09Z</time>
      </trkpt>
      <trkpt lat="50.12795" lon="4.14468">
        <ele>226.6</ele>
        <time>2020-06-24T16:49:10Z</time>
      </trkpt>
      <trkpt lat="50.1279" lon="4.14471">
        <ele>226.5</ele>
        <time>2020-06-24T16:49:11Z</time>
      </trkpt>
      <trkpt lat="50.12786" lon="4.14474">
        <ele>226.5</ele>
        <time>2020-06-24T16:49:12Z</time>
      </trkpt>
      <trkpt lat="50.12782" lon="4.14477">
        <ele>226.5</ele>
        <time>2020-06-24T16:49:13Z</time>
      </trkpt>
      <trkpt lat="50.12778" lon="4.1448">
        <ele>226.4</ele>
        <time>2020-06-24T16:49:14Z</time>
      </trkpt>
      <trkpt lat="50.12774" lon="4.14483">
        <ele>226.4</ele>
        <time>2020-06-24T16:49:15Z</time>
      </trkpt>
      <trkpt lat="50.1277" lon="4.14486">
        <ele>226.3</ele>
        <time>2020-06-24T16:49:16Z</time>
      </trkpt>
      <trkpt lat="50.12765" lon="4.14489">
        <ele>226.3</ele>
        <time>2020-06-24T16:49:17Z</time>
      </trkpt>
      <trkpt lat="50.12761" lon="4.14492">
        <ele>226.2</ele>
        <time>2020-06-24T16:49:18Z</time>
      </trkpt>
      <trkpt lat="50.12756" lon="4.14495">
        <ele>226.1</ele>
        <time>2020-06-24T16:49:19Z</time>
      </trkpt>
      <trkpt lat="50.12751" lon="4.14498">
        <ele>226</ele>
        <time>2020-06-24T16:49:20Z</time>
      </trkpt>
      <trkpt lat="50.12746" lon="4.14501">
        <ele>225.9</ele>
        <time>2020-06-24T16:49:21Z</time>
      </trkpt>
      <trkpt lat="50.12741" lon="4.14505">
        <ele>225.8</ele>
        <time>2020-06-24T16:49:22Z</time>
      </trkpt>
      <trkpt lat="50.12736" lon="4.14509">
        <ele>225.7</ele>
        <time>2020-06-24T16:49:23Z</time>
      </trkpt>
      <trkpt lat="50.1273" lon="4.14511">
        <ele>225.6</ele>
        <time>2020-06-24T16:49:24Z</time>
      </trkpt>
      <trkpt lat="50.12725" lon="4.14514">
        <ele>225.5</ele>
        <time>2020-06-24T16:49:25Z</time>
      </trkpt>
      <trkpt lat="50.12719" lon="4.14517">
        <ele>225.3</ele>
        <time>2020-06-24T16:49:26Z</time>
      </trkpt>
      <trkpt lat="50.12714" lon="4.14521">
        <ele>225.2</ele>
        <time>2020-06-24T16:49:27Z</time>
      </trkpt>
      <trkpt lat="50.12709" lon="4.14525">
        <ele>225</ele>
        <time>2020-06-24T16:49:28Z</time>
      </trkpt>
      <trkpt lat="50.12704" lon="4.14528">
        <ele>224.9</ele>
        <time>2020-06-24T16:49:29Z</time>
      </trkpt>
      <trkpt lat="50.12698" lon="4.14532">
        <ele>224.7</ele>
        <time>2020-06-24T16:49:30Z</time>
      </trkpt>
      <trkpt lat="50.12692" lon="4.14536">
        <ele>224.5</ele>
        <time>2020-06-24T16:49:31Z</time>
      </trkpt>
      <trkpt lat="50.12687" lon="4.1454">
        <ele>224.3</ele>
        <time>2020-06-24T16:49:32Z</time>
      </trkpt>
      <trkpt lat="50.12681" lon="4.14543">
        <ele>224.2</ele>
        <time>2020-06-24T16:49:33Z</time>
      </trkpt>
      <trkpt lat="50.12675" lon="4.14547">
        <ele>224.1</ele>
        <time>2020-06-24T16:49:34Z</time>
      </trkpt>
      <trkpt lat="50.12669" lon="4.1455">
        <ele>223.9</ele>
        <time>2020-06-24T16:49:35Z</time>
      </trkpt>
      <trkpt lat="50.12663" lon="4.14552">
        <ele>223.8</ele>
        <time>2020-06-24T16:49:36Z</time>
      </trkpt>
      <trkpt lat="50.12657" lon="4.14556">
        <ele>223.6</ele>
        <time>2020-06-24T16:49:37Z</time>
      </trkpt>
      <trkpt lat="50.12652" lon="4.14559">
        <ele>223.5</ele>
        <time>2020-06-24T16:49:38Z</time>
      </trkpt>
      <trkpt lat="50.12646" lon="4.14563">
        <ele>223.3</ele>
        <time>2020-06-24T16:49:39Z</time>
      </trkpt>
      <trkpt lat="50.1264" lon="4.14566">
        <ele>223.1</ele>
        <time>2020-06-24T16:49:40Z</time>
      </trkpt>
      <trkpt lat="50.12634" lon="4.14569">
        <ele>223</ele>
        <time>2020-06-24T16:49:41Z</time>
      </trkpt>
      <trkpt lat="50.12628" lon="4.14572">
        <ele>222.8</ele>
        <time>2020-06-24T16:49:42Z</time>
      </trkpt>
      <trkpt lat="50.12622" lon="4.14576">
        <ele>222.6</ele>
        <time>2020-06-24T16:49:43Z</time>
      </trkpt>
      <trkpt lat="50.12617" lon="4.14581">
        <ele>222.4</ele>
        <time>2020-06-24T16:49:44Z</time>
      </trkpt>
      <trkpt lat="50.12611" lon="4.14584">
        <ele>222.2</ele>
        <time>2020-06-24T16:49:45Z</time>
      </trkpt>
      <trkpt lat="50.12605" lon="4.14587">
        <ele>222</ele>
        <time>2020-06-24T16:49:46Z</time>
      </trkpt>
      <trkpt lat="50.12599" lon="4.14591">
        <ele>221.9</ele>
        <time>2020-06-24T16:49:47Z</time>
      </trkpt>
      <trkpt lat="50.12594" lon="4.14595">
        <ele>221.8</ele>
        <time>2020-06-24T16:49:48Z</time>
      </trkpt>
      <trkpt lat="50.12589" lon="4.146">
        <ele>221.7</ele>
        <time>2020-06-24T16:49:49Z</time>
      </trkpt>
      <trkpt lat="50.12584" lon="4.14605">
        <ele>221.4</ele>
        <time>2020-06-24T16:49:50Z</time>
      </trkpt>
      <trkpt lat="50.12578" lon="4.1461">
        <ele>221</ele>
        <time>2020-06-24T16:49:51Z</time>
      </trkpt>
      <trkpt lat="50.12571" lon="4.14615">
        <ele>220.7</ele>
        <time>2020-06-24T16:49:52Z</time>
      </trkpt>
      <trkpt lat="50.12565" lon="4.1462">
        <ele>220.3</ele>
        <time>2020-06-24T16:49:53Z</time>
      </trkpt>
      <trkpt lat="50.12559" lon="4.14626">
        <ele>219.9</ele>
        <time>2020-06-24T16:49:54Z</time>
      </trkpt>
      <trkpt lat="50.12552" lon="4.14634">
        <ele>219.5</ele>
        <time>2020-06-24T16:49:55Z</time>
      </trkpt>
      <trkpt lat="50.12547" lon="4.14641">
        <ele>219.1</ele>
        <time>2020-06-24T16:49:56Z</time>
      </trkpt>
      <trkpt lat="50.12542" lon="4.14648">
        <ele>218.8</ele>
        <time>2020-06-24T16:49:57Z</time>
      </trkpt>
      <trkpt lat="50.12538" lon="4.14655">
        <ele>218.4</ele>
        <time>2020-06-24T16:49:58Z</time>
      </trkpt>
      <trkpt lat="50.12534" lon="4.14665">
        <ele>218.1</ele>
        <time>2020-06-24T16:49:59Z</time>
      </trkpt>
      <trkpt lat="50.12531" lon="4.14674">
        <ele>217.8</ele>
        <time>2020-06-24T16:50:00Z</time>
      </trkpt>
      <trkpt lat="50.12528" lon="4.14683">
        <ele>217.4</ele>
        <time>2020-06-24T16:50:01Z</time>
      </trkpt>
      <trkpt lat="50.12525" lon="4.14693">
        <ele>216.9</ele>
        <time>2020-06-24T16:50:02Z</time>
      </trkpt>
      <trkpt lat="50.12521" lon="4.14703">
        <ele>216.5</ele>
        <time>2020-06-24T16:50:03Z</time>
      </trkpt>
      <trkpt lat="50.12518" lon="4.14715">
        <ele>215.9</ele>
        <time>2020-06-24T16:50:04Z</time>
      </trkpt>
      <trkpt lat="50.12516" lon="4.14728">
        <ele>215.7</ele>
        <time>2020-06-24T16:50:05Z</time>
      </trkpt>
      <trkpt lat="50.12513" lon="4.14741">
        <ele>215.6</ele>
        <time>2020-06-24T16:50:06Z</time>
      </trkpt>
      <trkpt lat="50.12512" lon="4.14754">
        <ele>215.8</ele>
        <time>2020-06-24T16:50:07Z</time>
      </trkpt>
      <trkpt lat="50.12511" lon="4.14766">
        <ele>215.5</ele>
        <time>2020-06-24T16:50:08Z</time>
      </trkpt>
      <trkpt lat="50.1251" lon="4.14778">
        <ele>215</ele>
        <time>2020-06-24T16:50:09Z</time>
      </trkpt>
      <trkpt lat="50.12511" lon="4.1479">
        <ele>214.3</ele>
        <time>2020-06-24T16:50:10Z</time>
      </trkpt>
      <trkpt lat="50.12512" lon="4.14802">
        <ele>213.2</ele>
        <time>2020-06-24T16:50:11Z</time>
      </trkpt>
      <trkpt lat="50.12513" lon="4.14814">
        <ele>212.5</ele>
        <time>2020-06-24T16:50:12Z</time>
      </trkpt>
      <trkpt lat="50.12515" lon="4.14827">
        <ele>212</ele>
        <time>2020-06-24T16:50:13Z</time>
      </trkpt>
      <trkpt lat="50.12517" lon="4.14839">
        <ele>211.4</ele>
        <time>2020-06-24T16:50:14Z</time>
      </trkpt>
      <trkpt lat="50.1252" lon="4.14851">
        <ele>210.9</ele>
        <time>2020-06-24T16:50:15Z</time>
      </trkpt>
      <trkpt lat="50.12524" lon="4.14862">
        <ele>210.4</ele>
        <time>2020-06-24T16:50:16Z</time>
      </trkpt>
      <trkpt lat="50.12527" lon="4.14874">
        <ele>209.8</ele>
        <time>2020-06-24T16:50:17Z</time>
      </trkpt>
      <trkpt lat="50.1253" lon="4.14886">
        <ele>209.4</ele>
        <time>2020-06-24T16:50:18Z</time>
      </trkpt>
      <trkpt lat="50.12532" lon="4.14898">
        <ele>208.8</ele>
        <time>2020-06-24T16:50:19Z</time>
      </trkpt>
      <trkpt lat="50.12535" lon="4.14911">
        <ele>208.3</ele>
        <time>2020-06-24T16:50:20Z</time>
      </trkpt>
      <trkpt lat="50.12538" lon="4.14924">
        <ele>207.7</ele>
        <time>2020-06-24T16:50:21Z</time>
      </trkpt>
      <trkpt lat="50.12541" lon="4.14937">
        <ele>207.1</ele>
        <time>2020-06-24T16:50:22Z</time>
      </trkpt>
      <trkpt lat="50.12543" lon="4.14949">
        <ele>206.5</ele>
        <time>2020-06-24T16:50:23Z</time>
      </trkpt>
      <trkpt lat="50.12544" lon="4.14961">
        <ele>206</ele>
        <time>2020-06-24T16:50:24Z</time>
      </trkpt>
      <trkpt lat="50.12546" lon="4.14973">
        <ele>205.4</ele>
        <time>2020-06-24T16:50:25Z</time>
      </trkpt>
      <trkpt lat="50.12547" lon="4.14986">
        <ele>204.8</ele>
        <time>2020-06-24T16:50:26Z</time>
      </trkpt>
      <trkpt lat="50.12548" lon="4.14998">
        <ele>204.2</ele>
        <time>2020-06-24T16:50:27Z</time>
      </trkpt>
      <trkpt lat="50.12548" lon="4.15012">
        <ele>203.6</ele>
        <time>2020-06-24T16:50:28Z</time>
      </trkpt>
      <trkpt lat="50.12547" lon="4.15027">
        <ele>202.8</ele>
        <time>2020-06-24T16:50:29Z</time>
      </trkpt>
      <trkpt lat="50.12544" lon="4.15041">
        <ele>202.1</ele>
        <time>2020-06-24T16:50:30Z</time>
      </trkpt>
      <trkpt lat="50.1254" lon="4.15056">
        <ele>201.3</ele>
        <time>2020-06-24T16:50:31Z</time>
      </trkpt>
      <trkpt lat="50.12536" lon="4.1507">
        <ele>200.5</ele>
        <time>2020-06-24T16:50:32Z</time>
      </trkpt>
      <trkpt lat="50.12531" lon="4.15084">
        <ele>199.7</ele>
        <time>2020-06-24T16:50:33Z</time>
      </trkpt>
      <trkpt lat="50.12524" lon="4.15098">
        <ele>198.8</ele>
        <time>2020-06-24T16:50:34Z</time>
      </trkpt>
      <trkpt lat="50.12518" lon="4.1511">
        <ele>198</ele>
        <time>2020-06-24T16:50:35Z</time>
      </trkpt>
      <trkpt lat="50.12511" lon="4.15124">
        <ele>197.1</ele>
        <time>2020-06-24T16:50:36Z</time>
      </trkpt>
      <trkpt lat="50.12506" lon="4.15136">
        <ele>196.3</ele>
        <time>2020-06-24T16:50:37Z</time>
      </trkpt>
      <trkpt lat="50.12499" lon="4.1515">
        <ele>195.4</ele>
        <time>2020-06-24T16:50:38Z</time>
      </trkpt>
      <trkpt lat="50.12492" lon="4.15164">
        <ele>194.5</ele>
        <time>2020-06-24T16:50:39Z</time>
      </trkpt>
      <trkpt lat="50.12484" lon="4.15177">
        <ele>193.5</ele>
        <time>2020-06-24T16:50:40Z</time>
      </trkpt>
      <trkpt lat="50.12476" lon="4.1519">
        <ele>192.4</ele>
        <time>2020-06-24T16:50:41Z</time>
      </trkpt>
      <trkpt lat="50.12467" lon="4.15203">
        <ele>191.1</ele>
        <time>2020-06-24T16:50:42Z</time>
      </trkpt>
      <trkpt lat="50.12458" lon="4.15216">
        <ele>190</ele>
        <time>2020-06-24T16:50:43Z</time>
      </trkpt>
      <trkpt lat="50.12449" lon="4.15228">
        <ele>188.8</ele>
        <time>2020-06-24T16:50:44Z</time>
      </trkpt>
      <trkpt lat="50.12438" lon="4.15239">
        <ele>187.6</ele>
        <time>2020-06-24T16:50:45Z</time>
      </trkpt>
      <trkpt lat="50.12427" lon="4.1525">
        <ele>186.6</ele>
        <time>2020-06-24T16:50:46Z</time>
      </trkpt>
      <trkpt lat="50.12417" lon="4.15262">
        <ele>185.9</ele>
        <time>2020-06-24T16:50:47Z</time>
      </trkpt>
      <trkpt lat="50.12407" lon="4.15274">
        <ele>185.8</ele>
        <time>2020-06-24T16:50:48Z</time>
      </trkpt>
      <trkpt lat="50.12396" lon="4.15284">
        <ele>185.3</ele>
        <time>2020-06-24T16:50:49Z</time>
      </trkpt>
      <trkpt lat="50.12385" lon="4.15295">
        <ele>184.1</ele>
        <time>2020-06-24T16:50:50Z</time>
      </trkpt>
      <trkpt lat="50.12375" lon="4.15306">
        <ele>183.1</ele>
        <time>2020-06-24T16:50:51Z</time>
      </trkpt>
      <trkpt lat="50.12364" lon="4.15318">
        <ele>182.1</ele>
        <time>2020-06-24T16:50:52Z</time>
      </trkpt>
      <trkpt lat="50.12355" lon="4.15329">
        <ele>181.5</ele>
        <time>2020-06-24T16:50:53Z</time>
      </trkpt>
      <trkpt lat="50.12346" lon="4.1534">
        <ele>181</ele>
        <time>2020-06-24T16:50:54Z</time>
      </trkpt>
      <trkpt lat="50.12336" lon="4.15352">
        <ele>180.7</ele>
        <time>2020-06-24T16:50:55Z</time>
      </trkpt>
      <trkpt lat="50.12327" lon="4.15362">
        <ele>180.5</ele>
        <time>2020-06-24T16:50:56Z</time>
      </trkpt>
      <trkpt lat="50.12319" lon="4.15373">
        <ele>180.3</ele>
        <time>2020-06-24T16:50:57Z</time>
      </trkpt>
      <trkpt lat="50.12311" lon="4.15384">
        <ele>180.3</ele>
        <time>2020-06-24T16:50:58Z</time>
      </trkpt>
      <trkpt lat="50.12304" lon="4.15395">
        <ele>180.4</ele>
        <time>2020-06-24T16:50:59Z</time>
      </trkpt>
      <trkpt lat="50.12297" lon="4.15405">
        <ele>180.6</ele>
        <time>2020-06-24T16:51:00Z</time>
      </trkpt>
      <trkpt lat="50.12291" lon="4.15416">
        <ele>181</ele>
        <time>2020-06-24T16:51:01Z</time>
      </trkpt>
      <trkpt lat="50.12285" lon="4.15428">
        <ele>181.5</ele>
        <time>2020-06-24T16:51:02Z</time>
      </trkpt>
      <trkpt lat="50.1228" lon="4.15438">
        <ele>182</ele>
        <time>2020-06-24T16:51:03Z</time>
      </trkpt>
      <trkpt lat="50.12275" lon="4.15447">
        <ele>182.3</ele>
        <time>2020-06-24T16:51:04Z</time>
      </trkpt>
      <trkpt lat="50.12271" lon="4.15457">
        <ele>182.6</ele>
        <time>2020-06-24T16:51:05Z</time>
      </trkpt>
      <trkpt lat="50.12268" lon="4.15466">
        <ele>182.9</ele>
        <time>2020-06-24T16:51:06Z</time>
      </trkpt>
      <trkpt lat="50.12264" lon="4.15472">
        <ele>183.1</ele>
        <time>2020-06-24T16:51:07Z</time>
      </trkpt>
      <trkpt lat="50.12262" lon="4.15478">
        <ele>183.3</ele>
        <time>2020-06-24T16:51:08Z</time>
      </trkpt>
      <trkpt lat="50.1226" lon="4.15483">
        <ele>183.4</ele>
        <time>2020-06-24T16:51:09Z</time>
      </trkpt>
      <trkpt lat="50.12258" lon="4.15488">
        <ele>183.6</ele>
        <time>2020-06-24T16:51:10Z</time>
      </trkpt>
      <trkpt lat="50.12256" lon="4.15492">
        <ele>183.7</ele>
        <time>2020-06-24T16:51:11Z</time>
      </trkpt>
      <trkpt lat="50.12254" lon="4.15496">
        <ele>183.9</ele>
        <time>2020-06-24T16:51:12Z</time>
      </trkpt>
      <trkpt lat="50.12254" lon="4.15497">
        <ele>183.9</ele>
        <time>2020-06-24T16:51:13Z</time>
      </trkpt>
      <trkpt lat="50.12251" lon="4.15503">
        <ele>184.1</ele>
        <time>2020-06-24T16:51:14Z</time>
      </trkpt>
      <trkpt lat="50.12251" lon="4.15505">
        <ele>184.2</ele>
        <time>2020-06-24T16:51:15Z</time>
      </trkpt>
      <trkpt lat="50.12249" lon="4.1551">
        <ele>184.4</ele>
        <time>2020-06-24T16:51:16Z</time>
      </trkpt>
      <trkpt lat="50.12248" lon="4.15511">
        <ele>184.5</ele>
        <time>2020-06-24T16:51:17Z</time>
      </trkpt>
      <trkpt lat="50.12247" lon="4.15516">
        <ele>184.6</ele>
        <time>2020-06-24T16:51:18Z</time>
      </trkpt>
      <trkpt lat="50.12247" lon="4.15517">
        <ele>184.7</ele>
        <time>2020-06-24T16:51:19Z</time>
      </trkpt>
      <trkpt lat="50.12247" lon="4.1552">
        <ele>184.8</ele>
        <time>2020-06-24T16:51:20Z</time>
      </trkpt>
      <trkpt lat="50.12246" lon="4.15522">
        <ele>184.9</ele>
        <time>2020-06-24T16:51:21Z</time>
      </trkpt>
      <trkpt lat="50.12244" lon="4.15527">
        <ele>185.2</ele>
        <time>2020-06-24T16:51:22Z</time>
      </trkpt>
      <trkpt lat="50.12244" lon="4.15529">
        <ele>185.3</ele>
        <time>2020-06-24T16:51:23Z</time>
      </trkpt>
      <trkpt lat="50.12242" lon="4.15534">
        <ele>185.7</ele>
        <time>2020-06-24T16:51:24Z</time>
      </trkpt>
      <trkpt lat="50.12242" lon="4.15535">
        <ele>185.8</ele>
        <time>2020-06-24T16:51:25Z</time>
      </trkpt>
      <trkpt lat="50.12241" lon="4.15541">
        <ele>186.2</ele>
        <time>2020-06-24T16:51:26Z</time>
      </trkpt>
      <trkpt lat="50.12241" lon="4.15543">
        <ele>186.3</ele>
        <time>2020-06-24T16:51:27Z</time>
      </trkpt>
      <trkpt lat="50.12238" lon="4.15548">
        <ele>186.7</ele>
        <time>2020-06-24T16:51:28Z</time>
      </trkpt>
      <trkpt lat="50.12237" lon="4.15553">
        <ele>187</ele>
        <time>2020-06-24T16:51:29Z</time>
      </trkpt>
      <trkpt lat="50.12236" lon="4.15558">
        <ele>187.4</ele>
        <time>2020-06-24T16:51:30Z</time>
      </trkpt>
      <trkpt lat="50.12236" lon="4.1556">
        <ele>187.5</ele>
        <time>2020-06-24T16:51:31Z</time>
      </trkpt>
      <trkpt lat="50.12235" lon="4.15565">
        <ele>187.8</ele>
        <time>2020-06-24T16:51:32Z</time>
      </trkpt>
      <trkpt lat="50.12235" lon="4.15569">
        <ele>188.1</ele>
        <time>2020-06-24T16:51:33Z</time>
      </trkpt>
      <trkpt lat="50.12233" lon="4.15575">
        <ele>188.5</ele>
        <time>2020-06-24T16:51:34Z</time>
      </trkpt>
      <trkpt lat="50.12233" lon="4.15576">
        <ele>188.6</ele>
        <time>2020-06-24T16:51:35Z</time>
      </trkpt>
      <trkpt lat="50.12233" lon="4.15582">
        <ele>189</ele>
        <time>2020-06-24T16:51:36Z</time>
      </trkpt>
      <trkpt lat="50.12232" lon="4.15585">
        <ele>189.1</ele>
        <time>2020-06-24T16:51:37Z</time>
      </trkpt>
      <trkpt lat="50.12232" lon="4.1559">
        <ele>189.5</ele>
        <time>2020-06-24T16:51:38Z</time>
      </trkpt>
      <trkpt lat="50.12232" lon="4.15596">
        <ele>189.9</ele>
        <time>2020-06-24T16:51:39Z</time>
      </trkpt>
      <trkpt lat="50.12232" lon="4.15598">
        <ele>190</ele>
        <time>2020-06-24T16:51:40Z</time>
      </trkpt>
      <trkpt lat="50.12231" lon="4.15602">
        <ele>190.2</ele>
        <time>2020-06-24T16:51:41Z</time>
      </trkpt>
      <trkpt lat="50.12231" lon="4.15607">
        <ele>190.5</ele>
        <time>2020-06-24T16:51:42Z</time>
      </trkpt>
      <trkpt lat="50.1223" lon="4.15612">
        <ele>190.8</ele>
        <time>2020-06-24T16:51:43Z</time>
      </trkpt>
      <trkpt lat="50.12229" lon="4.15618">
        <ele>191.2</ele>
        <time>2020-06-24T16:51:44Z</time>
      </trkpt>
      <trkpt lat="50.12228" lon="4.15623">
        <ele>191.5</ele>
        <time>2020-06-24T16:51:45Z</time>
      </trkpt>
      <trkpt lat="50.12227" lon="4.15628">
        <ele>191.8</ele>
        <time>2020-06-24T16:51:46Z</time>
      </trkpt>
      <trkpt lat="50.12227" lon="4.15631">
        <ele>192</ele>
        <time>2020-06-24T16:51:47Z</time>
      </trkpt>
      <trkpt lat="50.12227" lon="4.15633">
        <ele>192.1</ele>
        <time>2020-06-24T16:51:48Z</time>
      </trkpt>
      <trkpt lat="50.12227" lon="4.15638">
        <ele>192.4</ele>
        <time>2020-06-24T16:51:49Z</time>
      </trkpt>
      <trkpt lat="50.12226" lon="4.1564">
        <ele>192.5</ele>
        <time>2020-06-24T16:51:50Z</time>
      </trkpt>
      <trkpt lat="50.12225" lon="4.15646">
        <ele>192.9</ele>
        <time>2020-06-24T16:51:51Z</time>
      </trkpt>
      <trkpt lat="50.12225" lon="4.15648">
        <ele>193</ele>
        <time>2020-06-24T16:51:52Z</time>
      </trkpt>
      <trkpt lat="50.12224" lon="4.15653">
        <ele>193.3</ele>
        <time>2020-06-24T16:51:53Z</time>
      </trkpt>
      <trkpt lat="50.12223" lon="4.15654">
        <ele>193.5</ele>
        <time>2020-06-24T16:51:54Z</time>
      </trkpt>
      <trkpt lat="50.12222" lon="4.1566">
        <ele>193.8</ele>
        <time>2020-06-24T16:51:55Z</time>
      </trkpt>
      <trkpt lat="50.12222" lon="4.15661">
        <ele>193.9</ele>
        <time>2020-06-24T16:51:56Z</time>
      </trkpt>
      <trkpt lat="50.12221" lon="4.15667">
        <ele>194.3</ele>
        <time>2020-06-24T16:51:57Z</time>
      </trkpt>
      <trkpt lat="50.12221" lon="4.15669">
        <ele>194.4</ele>
        <time>2020-06-24T16:51:58Z</time>
      </trkpt>
      <trkpt lat="50.12219" lon="4.15674">
        <ele>194.7</ele>
        <time>2020-06-24T16:51:59Z</time>
      </trkpt>
      <trkpt lat="50.12218" lon="4.15678">
        <ele>195</ele>
        <time>2020-06-24T16:52:00Z</time>
      </trkpt>
      <trkpt lat="50.12217" lon="4.15682">
        <ele>195.2</ele>
        <time>2020-06-24T16:52:01Z</time>
      </trkpt>
      <trkpt lat="50.12215" lon="4.15688">
        <ele>195.6</ele>
        <time>2020-06-24T16:52:02Z</time>
      </trkpt>
      <trkpt lat="50.12215" lon="4.1569">
        <ele>195.7</ele>
        <time>2020-06-24T16:52:03Z</time>
      </trkpt>
      <trkpt lat="50.12214" lon="4.15694">
        <ele>196</ele>
        <time>2020-06-24T16:52:04Z</time>
      </trkpt>
      <trkpt lat="50.12213" lon="4.15699">
        <ele>196.2</ele>
        <time>2020-06-24T16:52:05Z</time>
      </trkpt>
      <trkpt lat="50.12213" lon="4.15703">
        <ele>196.5</ele>
        <time>2020-06-24T16:52:06Z</time>
      </trkpt>
      <trkpt lat="50.12212" lon="4.15707">
        <ele>196.7</ele>
        <time>2020-06-24T16:52:07Z</time>
      </trkpt>
      <trkpt lat="50.1221" lon="4.15711">
        <ele>197</ele>
        <time>2020-06-24T16:52:08Z</time>
      </trkpt>
      <trkpt lat="50.12209" lon="4.15714">
        <ele>197.2</ele>
        <time>2020-06-24T16:52:09Z</time>
      </trkpt>
      <trkpt lat="50.12208" lon="4.15716">
        <ele>197.3</ele>
        <time>2020-06-24T16:52:10Z</time>
      </trkpt>
      <trkpt lat="50.12208" lon="4.15721">
        <ele>197.5</ele>
        <time>2020-06-24T16:52:11Z</time>
      </trkpt>
      <trkpt lat="50.12207" lon="4.15722">
        <ele>197.6</ele>
        <time>2020-06-24T16:52:12Z</time>
      </trkpt>
      <trkpt lat="50.12206" lon="4.15728">
        <ele>197.9</ele>
        <time>2020-06-24T16:52:13Z</time>
      </trkpt>
      <trkpt lat="50.12205" lon="4.1573">
        <ele>198.1</ele>
        <time>2020-06-24T16:52:14Z</time>
      </trkpt>
      <trkpt lat="50.12204" lon="4.15735">
        <ele>198.4</ele>
        <time>2020-06-24T16:52:15Z</time>
      </trkpt>
      <trkpt lat="50.12202" lon="4.1574">
        <ele>198.7</ele>
        <time>2020-06-24T16:52:16Z</time>
      </trkpt>
      <trkpt lat="50.12202" lon="4.15742">
        <ele>198.8</ele>
        <time>2020-06-24T16:52:17Z</time>
      </trkpt>
      <trkpt lat="50.122" lon="4.15747">
        <ele>199.1</ele>
        <time>2020-06-24T16:52:18Z</time>
      </trkpt>
      <trkpt lat="50.12199" lon="4.1575">
        <ele>199.2</ele>
        <time>2020-06-24T16:52:19Z</time>
      </trkpt>
      <trkpt lat="50.12198" lon="4.15755">
        <ele>199.5</ele>
        <time>2020-06-24T16:52:20Z</time>
      </trkpt>
      <trkpt lat="50.12198" lon="4.15757">
        <ele>199.6</ele>
        <time>2020-06-24T16:52:21Z</time>
      </trkpt>
      <trkpt lat="50.12196" lon="4.15763">
        <ele>199.9</ele>
        <time>2020-06-24T16:52:22Z</time>
      </trkpt>
      <trkpt lat="50.12196" lon="4.15764">
        <ele>200</ele>
        <time>2020-06-24T16:52:23Z</time>
      </trkpt>
      <trkpt lat="50.12195" lon="4.1577">
        <ele>200.3</ele>
        <time>2020-06-24T16:52:24Z</time>
      </trkpt>
      <trkpt lat="50.12194" lon="4.15772">
        <ele>200.4</ele>
        <time>2020-06-24T16:52:25Z</time>
      </trkpt>
      <trkpt lat="50.12192" lon="4.15776">
        <ele>200.6</ele>
        <time>2020-06-24T16:52:26Z</time>
      </trkpt>
      <trkpt lat="50.12191" lon="4.15781">
        <ele>200.9</ele>
        <time>2020-06-24T16:52:27Z</time>
      </trkpt>
      <trkpt lat="50.1219" lon="4.15783">
        <ele>200.9</ele>
        <time>2020-06-24T16:52:28Z</time>
      </trkpt>
      <trkpt lat="50.12189" lon="4.15787">
        <ele>201.1</ele>
        <time>2020-06-24T16:52:29Z</time>
      </trkpt>
      <trkpt lat="50.12188" lon="4.15791">
        <ele>201.3</ele>
        <time>2020-06-24T16:52:30Z</time>
      </trkpt>
      <trkpt lat="50.12187" lon="4.15795">
        <ele>201.5</ele>
        <time>2020-06-24T16:52:31Z</time>
      </trkpt>
      <trkpt lat="50.12185" lon="4.15801">
        <ele>201.7</ele>
        <time>2020-06-24T16:52:32Z</time>
      </trkpt>
      <trkpt lat="50.12185" lon="4.15803">
        <ele>201.8</ele>
        <time>2020-06-24T16:52:33Z</time>
      </trkpt>
      <trkpt lat="50.12184" lon="4.15809">
        <ele>202</ele>
        <time>2020-06-24T16:52:34Z</time>
      </trkpt>
      <trkpt lat="50.12184" lon="4.15811">
        <ele>202.1</ele>
        <time>2020-06-24T16:52:35Z</time>
      </trkpt>
      <trkpt lat="50.12182" lon="4.15817">
        <ele>202.1</ele>
        <time>2020-06-24T16:52:36Z</time>
      </trkpt>
      <trkpt lat="50.12181" lon="4.15819">
        <ele>202.2</ele>
        <time>2020-06-24T16:52:37Z</time>
      </trkpt>
      <trkpt lat="50.12179" lon="4.15823">
        <ele>202.3</ele>
        <time>2020-06-24T16:52:38Z</time>
      </trkpt>
      <trkpt lat="50.12177" lon="4.15828">
        <ele>202.4</ele>
        <time>2020-06-24T16:52:39Z</time>
      </trkpt>
      <trkpt lat="50.12177" lon="4.1583">
        <ele>202.4</ele>
        <time>2020-06-24T16:52:40Z</time>
      </trkpt>
      <trkpt lat="50.12175" lon="4.15834">
        <ele>202.5</ele>
        <time>2020-06-24T16:52:41Z</time>
      </trkpt>
      <trkpt lat="50.12174" lon="4.1584">
        <ele>202.6</ele>
        <time>2020-06-24T16:52:42Z</time>
      </trkpt>
      <trkpt lat="50.12173" lon="4.15842">
        <ele>202.6</ele>
        <time>2020-06-24T16:52:43Z</time>
      </trkpt>
      <trkpt lat="50.12172" lon="4.15848">
        <ele>202.6</ele>
        <time>2020-06-24T16:52:44Z</time>
      </trkpt>
      <trkpt lat="50.12171" lon="4.15852">
        <ele>202.7</ele>
        <time>2020-06-24T16:52:45Z</time>
      </trkpt>
      <trkpt lat="50.1217" lon="4.15858">
        <ele>202.7</ele>
        <time>2020-06-24T16:52:46Z</time>
      </trkpt>
      <trkpt lat="50.12169" lon="4.1586">
        <ele>202.7</ele>
        <time>2020-06-24T16:52:47Z</time>
      </trkpt>
      <trkpt lat="50.12168" lon="4.15865">
        <ele>202.7</ele>
        <time>2020-06-24T16:52:48Z</time>
      </trkpt>
      <trkpt lat="50.12167" lon="4.1587">
        <ele>202.7</ele>
        <time>2020-06-24T16:52:49Z</time>
      </trkpt>
      <trkpt lat="50.12165" lon="4.15874">
        <ele>202.6</ele>
        <time>2020-06-24T16:52:50Z</time>
      </trkpt>
      <trkpt lat="50.12164" lon="4.15879">
        <ele>202.6</ele>
        <time>2020-06-24T16:52:51Z</time>
      </trkpt>
      <trkpt lat="50.12162" lon="4.15885">
        <ele>202.5</ele>
        <time>2020-06-24T16:52:52Z</time>
      </trkpt>
      <trkpt lat="50.12161" lon="4.15887">
        <ele>202.5</ele>
        <time>2020-06-24T16:52:53Z</time>
      </trkpt>
      <trkpt lat="50.1216" lon="4.15893">
        <ele>202.4</ele>
        <time>2020-06-24T16:52:54Z</time>
      </trkpt>
      <trkpt lat="50.12159" lon="4.15898">
        <ele>202.3</ele>
        <time>2020-06-24T16:52:55Z</time>
      </trkpt>
      <trkpt lat="50.12158" lon="4.15903">
        <ele>202.2</ele>
        <time>2020-06-24T16:52:56Z</time>
      </trkpt>
      <trkpt lat="50.12158" lon="4.1591">
        <ele>202.1</ele>
        <time>2020-06-24T16:52:57Z</time>
      </trkpt>
      <trkpt lat="50.12157" lon="4.15917">
        <ele>202</ele>
        <time>2020-06-24T16:52:58Z</time>
      </trkpt>
      <trkpt lat="50.12157" lon="4.15923">
        <ele>201.8</ele>
        <time>2020-06-24T16:52:59Z</time>
      </trkpt>
      <trkpt lat="50.12156" lon="4.15928">
        <ele>201.7</ele>
        <time>2020-06-24T16:53:00Z</time>
      </trkpt>
      <trkpt lat="50.12156" lon="4.15935">
        <ele>201.6</ele>
        <time>2020-06-24T16:53:01Z</time>
      </trkpt>
      <trkpt lat="50.12157" lon="4.15942">
        <ele>201.4</ele>
        <time>2020-06-24T16:53:02Z</time>
      </trkpt>
      <trkpt lat="50.12158" lon="4.1595">
        <ele>201.1</ele>
        <time>2020-06-24T16:53:03Z</time>
      </trkpt>
      <trkpt lat="50.12159" lon="4.15959">
        <ele>200.8</ele>
        <time>2020-06-24T16:53:04Z</time>
      </trkpt>
      <trkpt lat="50.1216" lon="4.15968">
        <ele>200.5</ele>
        <time>2020-06-24T16:53:05Z</time>
      </trkpt>
      <trkpt lat="50.12163" lon="4.15979">
        <ele>200.2</ele>
        <time>2020-06-24T16:53:06Z</time>
      </trkpt>
      <trkpt lat="50.12166" lon="4.15989">
        <ele>199.8</ele>
        <time>2020-06-24T16:53:07Z</time>
      </trkpt>
      <trkpt lat="50.1217" lon="4.15999">
        <ele>199.5</ele>
        <time>2020-06-24T16:53:08Z</time>
      </trkpt>
      <trkpt lat="50.12174" lon="4.16008">
        <ele>199.3</ele>
        <time>2020-06-24T16:53:09Z</time>
      </trkpt>
      <trkpt lat="50.12179" lon="4.16017">
        <ele>199.1</ele>
        <time>2020-06-24T16:53:10Z</time>
      </trkpt>
      <trkpt lat="50.12184" lon="4.16025">
        <ele>199</ele>
        <time>2020-06-24T16:53:11Z</time>
      </trkpt>
      <trkpt lat="50.12189" lon="4.16032">
        <ele>198.9</ele>
        <time>2020-06-24T16:53:12Z</time>
      </trkpt>
      <trkpt lat="50.12194" lon="4.16039">
        <ele>198.8</ele>
        <time>2020-06-24T16:53:13Z</time>
      </trkpt>
      <trkpt lat="50.12199" lon="4.16046">
        <ele>198.7</ele>
        <time>2020-06-24T16:53:14Z</time>
      </trkpt>
      <trkpt lat="50.12204" lon="4.16054">
        <ele>198.6</ele>
        <time>2020-06-24T16:53:15Z</time>
      </trkpt>
      <trkpt lat="50.12209" lon="4.16062">
        <ele>198.5</ele>
        <time>2020-06-24T16:53:16Z</time>
      </trkpt>
      <trkpt lat="50.12213" lon="4.16069">
        <ele>198.4</ele>
        <time>2020-06-24T16:53:17Z</time>
      </trkpt>
      <trkpt lat="50.12217" lon="4.16075">
        <ele>198.3</ele>
        <time>2020-06-24T16:53:18Z</time>
      </trkpt>
      <trkpt lat="50.12222" lon="4.16081">
        <ele>198.2</ele>
        <time>2020-06-24T16:53:19Z</time>
      </trkpt>
      <trkpt lat="50.12225" lon="4.16087">
        <ele>198.1</ele>
        <time>2020-06-24T16:53:20Z</time>
      </trkpt>
      <trkpt lat="50.12229" lon="4.16094">
        <ele>198</ele>
        <time>2020-06-24T16:53:21Z</time>
      </trkpt>
      <trkpt lat="50.12233" lon="4.161">
        <ele>197.9</ele>
        <time>2020-06-24T16:53:22Z</time>
      </trkpt>
      <trkpt lat="50.12237" lon="4.16106">
        <ele>197.8</ele>
        <time>2020-06-24T16:53:23Z</time>
      </trkpt>
      <trkpt lat="50.12241" lon="4.16112">
        <ele>197.7</ele>
        <time>2020-06-24T16:53:24Z</time>
      </trkpt>
      <trkpt lat="50.12245" lon="4.16118">
        <ele>197.6</ele>
        <time>2020-06-24T16:53:25Z</time>
      </trkpt>
      <trkpt lat="50.12249" lon="4.16125">
        <ele>197.5</ele>
        <time>2020-06-24T16:53:26Z</time>
      </trkpt>
      <trkpt lat="50.12252" lon="4.16131">
        <ele>197.4</ele>
        <time>2020-06-24T16:53:27Z</time>
      </trkpt>
      <trkpt lat="50.12257" lon="4.16138">
        <ele>197.3</ele>
        <time>2020-06-24T16:53:28Z</time>
      </trkpt>
      <trkpt lat="50.12261" lon="4.16144">
        <ele>197.1</ele>
        <time>2020-06-24T16:53:29Z</time>
      </trkpt>
      <trkpt lat="50.12265" lon="4.16149">
        <ele>197</ele>
        <time>2020-06-24T16:53:30Z</time>
      </trkpt>
      <trkpt lat="50.12269" lon="4.16155">
        <ele>196.9</ele>
        <time>2020-06-24T16:53:31Z</time>
      </trkpt>
      <trkpt lat="50.12273" lon="4.16162">
        <ele>196.7</ele>
        <time>2020-06-24T16:53:32Z</time>
      </trkpt>
      <trkpt lat="50.12277" lon="4.16169">
        <ele>196.5</ele>
        <time>2020-06-24T16:53:33Z</time>
      </trkpt>
      <trkpt lat="50.12282" lon="4.16176">
        <ele>196.2</ele>
        <time>2020-06-24T16:53:34Z</time>
      </trkpt>
      <trkpt lat="50.12286" lon="4.16183">
        <ele>195.9</ele>
        <time>2020-06-24T16:53:35Z</time>
      </trkpt>
      <trkpt lat="50.12291" lon="4.1619">
        <ele>195.6</ele>
        <time>2020-06-24T16:53:36Z</time>
      </trkpt>
      <trkpt lat="50.12295" lon="4.16197">
        <ele>195.2</ele>
        <time>2020-06-24T16:53:37Z</time>
      </trkpt>
      <trkpt lat="50.12299" lon="4.16206">
        <ele>194.8</ele>
        <time>2020-06-24T16:53:38Z</time>
      </trkpt>
      <trkpt lat="50.12303" lon="4.16215">
        <ele>194.4</ele>
        <time>2020-06-24T16:53:39Z</time>
      </trkpt>
      <trkpt lat="50.12308" lon="4.16224">
        <ele>194</ele>
        <time>2020-06-24T16:53:40Z</time>
      </trkpt>
      <trkpt lat="50.12311" lon="4.16235">
        <ele>193.6</ele>
        <time>2020-06-24T16:53:41Z</time>
      </trkpt>
      <trkpt lat="50.12314" lon="4.16244">
        <ele>193.3</ele>
        <time>2020-06-24T16:53:42Z</time>
      </trkpt>
      <trkpt lat="50.12316" lon="4.16255">
        <ele>192.9</ele>
        <time>2020-06-24T16:53:43Z</time>
      </trkpt>
      <trkpt lat="50.12319" lon="4.16267">
        <ele>192.5</ele>
        <time>2020-06-24T16:53:44Z</time>
      </trkpt>
      <trkpt lat="50.1232" lon="4.1628">
        <ele>192.1</ele>
        <time>2020-06-24T16:53:45Z</time>
      </trkpt>
      <trkpt lat="50.1232" lon="4.16293">
        <ele>191.7</ele>
        <time>2020-06-24T16:53:46Z</time>
      </trkpt>
      <trkpt lat="50.12319" lon="4.16304">
        <ele>191.3</ele>
        <time>2020-06-24T16:53:47Z</time>
      </trkpt>
      <trkpt lat="50.12319" lon="4.16316">
        <ele>191</ele>
        <time>2020-06-24T16:53:48Z</time>
      </trkpt>
      <trkpt lat="50.12316" lon="4.16329">
        <ele>190.6</ele>
        <time>2020-06-24T16:53:49Z</time>
      </trkpt>
      <trkpt lat="50.12313" lon="4.16343">
        <ele>190.2</ele>
        <time>2020-06-24T16:53:50Z</time>
      </trkpt>
      <trkpt lat="50.12309" lon="4.16356">
        <ele>189.8</ele>
        <time>2020-06-24T16:53:51Z</time>
      </trkpt>
      <trkpt lat="50.12305" lon="4.16367">
        <ele>189.5</ele>
        <time>2020-06-24T16:53:52Z</time>
      </trkpt>
      <trkpt lat="50.123" lon="4.16379">
        <ele>189.3</ele>
        <time>2020-06-24T16:53:53Z</time>
      </trkpt>
      <trkpt lat="50.12296" lon="4.16389">
        <ele>189.1</ele>
        <time>2020-06-24T16:53:54Z</time>
      </trkpt>
      <trkpt lat="50.12292" lon="4.16399">
        <ele>188.9</ele>
        <time>2020-06-24T16:53:55Z</time>
      </trkpt>
      <trkpt lat="50.12287" lon="4.16408">
        <ele>188.8</ele>
        <time>2020-06-24T16:53:56Z</time>
      </trkpt>
      <trkpt lat="50.12283" lon="4.16418">
        <ele>188.7</ele>
        <time>2020-06-24T16:53:57Z</time>
      </trkpt>
      <trkpt lat="50.12279" lon="4.16426">
        <ele>188.6</ele>
        <time>2020-06-24T16:53:58Z</time>
      </trkpt>
      <trkpt lat="50.12274" lon="4.16435">
        <ele>188.4</ele>
        <time>2020-06-24T16:53:59Z</time>
      </trkpt>
      <trkpt lat="50.1227" lon="4.16444">
        <ele>188.2</ele>
        <time>2020-06-24T16:54:00Z</time>
      </trkpt>
      <trkpt lat="50.12267" lon="4.16452">
        <ele>188.1</ele>
        <time>2020-06-24T16:54:01Z</time>
      </trkpt>
      <trkpt lat="50.12264" lon="4.1646">
        <ele>187.9</ele>
        <time>2020-06-24T16:54:02Z</time>
      </trkpt>
      <trkpt lat="50.12261" lon="4.16469">
        <ele>187.8</ele>
        <time>2020-06-24T16:54:03Z</time>
      </trkpt>
      <trkpt lat="50.12258" lon="4.16477">
        <ele>187.6</ele>
        <time>2020-06-24T16:54:04Z</time>
      </trkpt>
      <trkpt lat="50.12256" lon="4.16487">
        <ele>187.5</ele>
        <time>2020-06-24T16:54:05Z</time>
      </trkpt>
      <trkpt lat="50.12254" lon="4.16496">
        <ele>187.3</ele>
        <time>2020-06-24T16:54:06Z</time>
      </trkpt>
      <trkpt lat="50.12253" lon="4.16505">
        <ele>187.2</ele>
        <time>2020-06-24T16:54:07Z</time>
      </trkpt>
      <trkpt lat="50.12253" lon="4.16514">
        <ele>187</ele>
        <time>2020-06-24T16:54:08Z</time>
      </trkpt>
      <trkpt lat="50.12252" lon="4.16524">
        <ele>186.8</ele>
        <time>2020-06-24T16:54:09Z</time>
      </trkpt>
      <trkpt lat="50.12251" lon="4.16533">
        <ele>186.5</ele>
        <time>2020-06-24T16:54:10Z</time>
      </trkpt>
      <trkpt lat="50.1225" lon="4.16543">
        <ele>186.2</ele>
        <time>2020-06-24T16:54:11Z</time>
      </trkpt>
      <trkpt lat="50.12249" lon="4.16552">
        <ele>185.9</ele>
        <time>2020-06-24T16:54:12Z</time>
      </trkpt>
      <trkpt lat="50.12247" lon="4.16563">
        <ele>185.5</ele>
        <time>2020-06-24T16:54:13Z</time>
      </trkpt>
      <trkpt lat="50.12245" lon="4.16573">
        <ele>185.1</ele>
        <time>2020-06-24T16:54:14Z</time>
      </trkpt>
      <trkpt lat="50.12242" lon="4.16583">
        <ele>184.6</ele>
        <time>2020-06-24T16:54:15Z</time>
      </trkpt>
      <trkpt lat="50.12238" lon="4.16594">
        <ele>184.2</ele>
        <time>2020-06-24T16:54:16Z</time>
      </trkpt>
      <trkpt lat="50.12233" lon="4.16603">
        <ele>183.7</ele>
        <time>2020-06-24T16:54:17Z</time>
      </trkpt>
      <trkpt lat="50.12229" lon="4.16613">
        <ele>183.2</ele>
        <time>2020-06-24T16:54:18Z</time>
      </trkpt>
      <trkpt lat="50.12223" lon="4.16623">
        <ele>182.9</ele>
        <time>2020-06-24T16:54:19Z</time>
      </trkpt>
      <trkpt lat="50.12217" lon="4.16634">
        <ele>182.5</ele>
        <time>2020-06-24T16:54:20Z</time>
      </trkpt>
      <trkpt lat="50.12212" lon="4.16643">
        <ele>182.1</ele>
        <time>2020-06-24T16:54:21Z</time>
      </trkpt>
      <trkpt lat="50.12206" lon="4.16653">
        <ele>181.7</ele>
        <time>2020-06-24T16:54:22Z</time>
      </trkpt>
      <trkpt lat="50.12201" lon="4.16664">
        <ele>181.3</ele>
        <time>2020-06-24T16:54:23Z</time>
      </trkpt>
      <trkpt lat="50.12196" lon="4.16673">
        <ele>180.9</ele>
        <time>2020-06-24T16:54:24Z</time>
      </trkpt>
      <trkpt lat="50.1219" lon="4.16684">
        <ele>180.6</ele>
        <time>2020-06-24T16:54:25Z</time>
      </trkpt>
      <trkpt lat="50.12185" lon="4.16694">
        <ele>180.3</ele>
        <time>2020-06-24T16:54:26Z</time>
      </trkpt>
      <trkpt lat="50.1218" lon="4.16706">
        <ele>180.1</ele>
        <time>2020-06-24T16:54:27Z</time>
      </trkpt>
      <trkpt lat="50.12176" lon="4.16717">
        <ele>179.9</ele>
        <time>2020-06-24T16:54:28Z</time>
      </trkpt>
      <trkpt lat="50.12171" lon="4.16727">
        <ele>179.8</ele>
        <time>2020-06-24T16:54:29Z</time>
      </trkpt>
      <trkpt lat="50.12167" lon="4.16738">
        <ele>179.7</ele>
        <time>2020-06-24T16:54:30Z</time>
      </trkpt>
      <trkpt lat="50.12162" lon="4.16748">
        <ele>179.7</ele>
        <time>2020-06-24T16:54:31Z</time>
      </trkpt>
      <trkpt lat="50.12158" lon="4.16759">
        <ele>179.5</ele>
        <time>2020-06-24T16:54:32Z</time>
      </trkpt>
      <trkpt lat="50.12154" lon="4.16769">
        <ele>179.4</ele>
        <time>2020-06-24T16:54:33Z</time>
      </trkpt>
      <trkpt lat="50.12151" lon="4.16779">
        <ele>179.3</ele>
        <time>2020-06-24T16:54:34Z</time>
      </trkpt>
      <trkpt lat="50.12147" lon="4.16788">
        <ele>179.4</ele>
        <time>2020-06-24T16:54:35Z</time>
      </trkpt>
      <trkpt lat="50.12144" lon="4.16798">
        <ele>179.5</ele>
        <time>2020-06-24T16:54:36Z</time>
      </trkpt>
      <trkpt lat="50.12141" lon="4.16806">
        <ele>179.7</ele>
        <time>2020-06-24T16:54:37Z</time>
      </trkpt>
      <trkpt lat="50.12137" lon="4.16815">
        <ele>179.9</ele>
        <time>2020-06-24T16:54:38Z</time>
      </trkpt>
      <trkpt lat="50.12133" lon="4.16825">
        <ele>180.2</ele>
        <time>2020-06-24T16:54:39Z</time>
      </trkpt>
      <trkpt lat="50.1213" lon="4.16834">
        <ele>180.5</ele>
        <time>2020-06-24T16:54:40Z</time>
      </trkpt>
      <trkpt lat="50.12128" lon="4.16842">
        <ele>180.7</ele>
        <time>2020-06-24T16:54:41Z</time>
      </trkpt>
      <trkpt lat="50.12127" lon="4.1685">
        <ele>180.9</ele>
        <time>2020-06-24T16:54:42Z</time>
      </trkpt>
      <trkpt lat="50.12125" lon="4.16859">
        <ele>181.2</ele>
        <time>2020-06-24T16:54:43Z</time>
      </trkpt>
      <trkpt lat="50.12124" lon="4.16868">
        <ele>181.5</ele>
        <time>2020-06-24T16:54:44Z</time>
      </trkpt>
      <trkpt lat="50.12123" lon="4.16875">
        <ele>181.6</ele>
        <time>2020-06-24T16:54:45Z</time>
      </trkpt>
      <trkpt lat="50.12121" lon="4.16882">
        <ele>181.8</ele>
        <time>2020-06-24T16:54:46Z</time>
      </trkpt>
      <trkpt lat="50.1212" lon="4.16889">
        <ele>182</ele>
        <time>2020-06-24T16:54:47Z</time>
      </trkpt>
      <trkpt lat="50.1212" lon="4.16895">
        <ele>182.1</ele>
        <time>2020-06-24T16:54:48Z</time>
      </trkpt>
      <trkpt lat="50.12119" lon="4.16902">
        <ele>182.3</ele>
        <time>2020-06-24T16:54:49Z</time>
      </trkpt>
      <trkpt lat="50.12118" lon="4.1691">
        <ele>182.5</ele>
        <time>2020-06-24T16:54:50Z</time>
      </trkpt>
      <trkpt lat="50.12117" lon="4.16918">
        <ele>182.6</ele>
        <time>2020-06-24T16:54:51Z</time>
      </trkpt>
      <trkpt lat="50.12116" lon="4.16925">
        <ele>182.7</ele>
        <time>2020-06-24T16:54:52Z</time>
      </trkpt>
      <trkpt lat="50.12115" lon="4.16931">
        <ele>182.8</ele>
        <time>2020-06-24T16:54:53Z</time>
      </trkpt>
      <trkpt lat="50.12114" lon="4.16938">
        <ele>182.9</ele>
        <time>2020-06-24T16:54:54Z</time>
      </trkpt>
      <trkpt lat="50.12113" lon="4.16945">
        <ele>183</ele>
        <time>2020-06-24T16:54:55Z</time>
      </trkpt>
      <trkpt lat="50.12112" lon="4.16951">
        <ele>183.1</ele>
        <time>2020-06-24T16:54:56Z</time>
      </trkpt>
      <trkpt lat="50.12111" lon="4.16959">
        <ele>183.2</ele>
        <time>2020-06-24T16:54:57Z</time>
      </trkpt>
      <trkpt lat="50.1211" lon="4.16968">
        <ele>183.4</ele>
        <time>2020-06-24T16:54:58Z</time>
      </trkpt>
      <trkpt lat="50.1211" lon="4.16974">
        <ele>183.5</ele>
        <time>2020-06-24T16:54:59Z</time>
      </trkpt>
      <trkpt lat="50.12109" lon="4.16979">
        <ele>183.6</ele>
        <time>2020-06-24T16:55:00Z</time>
      </trkpt>
      <trkpt lat="50.12108" lon="4.16986">
        <ele>183.7</ele>
        <time>2020-06-24T16:55:01Z</time>
      </trkpt>
      <trkpt lat="50.12108" lon="4.16992">
        <ele>183.8</ele>
        <time>2020-06-24T16:55:02Z</time>
      </trkpt>
      <trkpt lat="50.12107" lon="4.16997">
        <ele>183.8</ele>
        <time>2020-06-24T16:55:03Z</time>
      </trkpt>
      <trkpt lat="50.12106" lon="4.17003">
        <ele>183.9</ele>
        <time>2020-06-24T16:55:04Z</time>
      </trkpt>
      <trkpt lat="50.12104" lon="4.17009">
        <ele>183.9</ele>
        <time>2020-06-24T16:55:05Z</time>
      </trkpt>
      <trkpt lat="50.12103" lon="4.17016">
        <ele>184</ele>
        <time>2020-06-24T16:55:06Z</time>
      </trkpt>
      <trkpt lat="50.12102" lon="4.17022">
        <ele>184</ele>
        <time>2020-06-24T16:55:07Z</time>
      </trkpt>
      <trkpt lat="50.121" lon="4.1703">
        <ele>184.1</ele>
        <time>2020-06-24T16:55:08Z</time>
      </trkpt>
      <trkpt lat="50.12099" lon="4.17037">
        <ele>184.1</ele>
        <time>2020-06-24T16:55:09Z</time>
      </trkpt>
      <trkpt lat="50.12099" lon="4.17043">
        <ele>184.1</ele>
        <time>2020-06-24T16:55:10Z</time>
      </trkpt>
      <trkpt lat="50.12097" lon="4.1705">
        <ele>184.1</ele>
        <time>2020-06-24T16:55:11Z</time>
      </trkpt>
      <trkpt lat="50.12095" lon="4.17058">
        <ele>184.1</ele>
        <time>2020-06-24T16:55:12Z</time>
      </trkpt>
      <trkpt lat="50.12094" lon="4.17066">
        <ele>184.1</ele>
        <time>2020-06-24T16:55:13Z</time>
      </trkpt>
      <trkpt lat="50.12092" lon="4.17073">
        <ele>184.2</ele>
        <time>2020-06-24T16:55:14Z</time>
      </trkpt>
      <trkpt lat="50.1209" lon="4.1708">
        <ele>184.2</ele>
        <time>2020-06-24T16:55:15Z</time>
      </trkpt>
      <trkpt lat="50.12089" lon="4.17087">
        <ele>184.2</ele>
        <time>2020-06-24T16:55:16Z</time>
      </trkpt>
      <trkpt lat="50.12087" lon="4.17096">
        <ele>184.2</ele>
        <time>2020-06-24T16:55:17Z</time>
      </trkpt>
      <trkpt lat="50.12086" lon="4.17105">
        <ele>184.2</ele>
        <time>2020-06-24T16:55:18Z</time>
      </trkpt>
      <trkpt lat="50.12085" lon="4.17114">
        <ele>184.2</ele>
        <time>2020-06-24T16:55:19Z</time>
      </trkpt>
      <trkpt lat="50.12084" lon="4.17122">
        <ele>184.2</ele>
        <time>2020-06-24T16:55:20Z</time>
      </trkpt>
      <trkpt lat="50.12083" lon="4.17131">
        <ele>184.2</ele>
        <time>2020-06-24T16:55:21Z</time>
      </trkpt>
      <trkpt lat="50.12083" lon="4.1714">
        <ele>184.3</ele>
        <time>2020-06-24T16:55:22Z</time>
      </trkpt>
      <trkpt lat="50.12083" lon="4.1715">
        <ele>184.3</ele>
        <time>2020-06-24T16:55:23Z</time>
      </trkpt>
      <trkpt lat="50.12082" lon="4.17159">
        <ele>184.4</ele>
        <time>2020-06-24T16:55:24Z</time>
      </trkpt>
      <trkpt lat="50.12082" lon="4.17167">
        <ele>184.5</ele>
        <time>2020-06-24T16:55:25Z</time>
      </trkpt>
      <trkpt lat="50.12082" lon="4.17175">
        <ele>184.6</ele>
        <time>2020-06-24T16:55:26Z</time>
      </trkpt>
      <trkpt lat="50.12081" lon="4.17184">
        <ele>184.6</ele>
        <time>2020-06-24T16:55:27Z</time>
      </trkpt>
      <trkpt lat="50.1208" lon="4.17193">
        <ele>184.7</ele>
        <time>2020-06-24T16:55:28Z</time>
      </trkpt>
      <trkpt lat="50.12079" lon="4.17201">
        <ele>184.7</ele>
        <time>2020-06-24T16:55:29Z</time>
      </trkpt>
      <trkpt lat="50.12079" lon="4.17208">
        <ele>184.8</ele>
        <time>2020-06-24T16:55:30Z</time>
      </trkpt>
      <trkpt lat="50.12078" lon="4.17216">
        <ele>184.8</ele>
        <time>2020-06-24T16:55:31Z</time>
      </trkpt>
      <trkpt lat="50.12077" lon="4.17223">
        <ele>184.7</ele>
        <time>2020-06-24T16:55:32Z</time>
      </trkpt>
      <trkpt lat="50.12077" lon="4.17231">
        <ele>184.7</ele>
        <time>2020-06-24T16:55:33Z</time>
      </trkpt>
      <trkpt lat="50.12076" lon="4.17237">
        <ele>184.7</ele>
        <time>2020-06-24T16:55:34Z</time>
      </trkpt>
      <trkpt lat="50.12075" lon="4.17245">
        <ele>184.7</ele>
        <time>2020-06-24T16:55:35Z</time>
      </trkpt>
      <trkpt lat="50.12075" lon="4.17251">
        <ele>184.7</ele>
        <time>2020-06-24T16:55:36Z</time>
      </trkpt>
      <trkpt lat="50.12074" lon="4.17259">
        <ele>184.8</ele>
        <time>2020-06-24T16:55:37Z</time>
      </trkpt>
      <trkpt lat="50.12074" lon="4.17265">
        <ele>184.8</ele>
        <time>2020-06-24T16:55:38Z</time>
      </trkpt>
      <trkpt lat="50.12073" lon="4.17273">
        <ele>184.8</ele>
        <time>2020-06-24T16:55:39Z</time>
      </trkpt>
      <trkpt lat="50.12071" lon="4.1728">
        <ele>184.9</ele>
        <time>2020-06-24T16:55:40Z</time>
      </trkpt>
      <trkpt lat="50.1207" lon="4.17286">
        <ele>184.9</ele>
        <time>2020-06-24T16:55:41Z</time>
      </trkpt>
      <trkpt lat="50.12068" lon="4.17293">
        <ele>184.9</ele>
        <time>2020-06-24T16:55:42Z</time>
      </trkpt>
      <trkpt lat="50.12067" lon="4.17299">
        <ele>184.9</ele>
        <time>2020-06-24T16:55:43Z</time>
      </trkpt>
      <trkpt lat="50.12065" lon="4.17306">
        <ele>184.9</ele>
        <time>2020-06-24T16:55:44Z</time>
      </trkpt>
      <trkpt lat="50.12064" lon="4.17313">
        <ele>185</ele>
        <time>2020-06-24T16:55:45Z</time>
      </trkpt>
      <trkpt lat="50.12063" lon="4.1732">
        <ele>185</ele>
        <time>2020-06-24T16:55:46Z</time>
      </trkpt>
      <trkpt lat="50.12062" lon="4.17327">
        <ele>185</ele>
        <time>2020-06-24T16:55:47Z</time>
      </trkpt>
      <trkpt lat="50.1206" lon="4.17335">
        <ele>185</ele>
        <time>2020-06-24T16:55:48Z</time>
      </trkpt>
      <trkpt lat="50.12058" lon="4.17342">
        <ele>185</ele>
        <time>2020-06-24T16:55:49Z</time>
      </trkpt>
      <trkpt lat="50.12056" lon="4.17349">
        <ele>185</ele>
        <time>2020-06-24T16:55:50Z</time>
      </trkpt>
      <trkpt lat="50.12055" lon="4.17356">
        <ele>185</ele>
        <time>2020-06-24T16:55:51Z</time>
      </trkpt>
      <trkpt lat="50.12054" lon="4.17363">
        <ele>185</ele>
        <time>2020-06-24T16:55:52Z</time>
      </trkpt>
      <trkpt lat="50.12053" lon="4.17371">
        <ele>185</ele>
        <time>2020-06-24T16:55:53Z</time>
      </trkpt>
      <trkpt lat="50.12052" lon="4.1738">
        <ele>185.1</ele>
        <time>2020-06-24T16:55:54Z</time>
      </trkpt>
      <trkpt lat="50.12051" lon="4.17389">
        <ele>185.1</ele>
        <time>2020-06-24T16:55:55Z</time>
      </trkpt>
      <trkpt lat="50.12049" lon="4.17398">
        <ele>185.1</ele>
        <time>2020-06-24T16:55:56Z</time>
      </trkpt>
      <trkpt lat="50.12047" lon="4.17407">
        <ele>185.2</ele>
        <time>2020-06-24T16:55:57Z</time>
      </trkpt>
      <trkpt lat="50.12045" lon="4.17415">
        <ele>185.2</ele>
        <time>2020-06-24T16:55:58Z</time>
      </trkpt>
      <trkpt lat="50.12043" lon="4.17424">
        <ele>185.3</ele>
        <time>2020-06-24T16:55:59Z</time>
      </trkpt>
      <trkpt lat="50.12041" lon="4.17433">
        <ele>185.4</ele>
        <time>2020-06-24T16:56:00Z</time>
      </trkpt>
      <trkpt lat="50.12038" lon="4.17441">
        <ele>185.5</ele>
        <time>2020-06-24T16:56:01Z</time>
      </trkpt>
      <trkpt lat="50.12037" lon="4.17448">
        <ele>185.6</ele>
        <time>2020-06-24T16:56:02Z</time>
      </trkpt>
      <trkpt lat="50.12035" lon="4.17456">
        <ele>185.6</ele>
        <time>2020-06-24T16:56:03Z</time>
      </trkpt>
      <trkpt lat="50.12033" lon="4.17463">
        <ele>185.7</ele>
        <time>2020-06-24T16:56:04Z</time>
      </trkpt>
      <trkpt lat="50.12031" lon="4.1747">
        <ele>185.8</ele>
        <time>2020-06-24T16:56:05Z</time>
      </trkpt>
      <trkpt lat="50.1203" lon="4.17477">
        <ele>185.8</ele>
        <time>2020-06-24T16:56:06Z</time>
      </trkpt>
      <trkpt lat="50.12028" lon="4.17484">
        <ele>185.9</ele>
        <time>2020-06-24T16:56:07Z</time>
      </trkpt>
      <trkpt lat="50.12025" lon="4.17491">
        <ele>186</ele>
        <time>2020-06-24T16:56:08Z</time>
      </trkpt>
      <trkpt lat="50.12023" lon="4.17498">
        <ele>186.1</ele>
        <time>2020-06-24T16:56:09Z</time>
      </trkpt>
      <trkpt lat="50.12021" lon="4.17505">
        <ele>186.1</ele>
        <time>2020-06-24T16:56:10Z</time>
      </trkpt>
      <trkpt lat="50.12019" lon="4.1751">
        <ele>186.2</ele>
        <time>2020-06-24T16:56:11Z</time>
      </trkpt>
      <trkpt lat="50.12018" lon="4.17516">
        <ele>186.3</ele>
        <time>2020-06-24T16:56:12Z</time>
      </trkpt>
      <trkpt lat="50.12016" lon="4.17523">
        <ele>186.4</ele>
        <time>2020-06-24T16:56:13Z</time>
      </trkpt>
      <trkpt lat="50.12015" lon="4.17529">
        <ele>186.5</ele>
        <time>2020-06-24T16:56:14Z</time>
      </trkpt>
      <trkpt lat="50.12013" lon="4.17536">
        <ele>186.5</ele>
        <time>2020-06-24T16:56:15Z</time>
      </trkpt>
      <trkpt lat="50.12012" lon="4.17545">
        <ele>186.6</ele>
        <time>2020-06-24T16:56:16Z</time>
      </trkpt>
      <trkpt lat="50.1201" lon="4.17553">
        <ele>186.6</ele>
        <time>2020-06-24T16:56:17Z</time>
      </trkpt>
      <trkpt lat="50.12009" lon="4.17559">
        <ele>186.7</ele>
        <time>2020-06-24T16:56:18Z</time>
      </trkpt>
      <trkpt lat="50.12007" lon="4.17566">
        <ele>186.7</ele>
        <time>2020-06-24T16:56:19Z</time>
      </trkpt>
      <trkpt lat="50.12006" lon="4.17573">
        <ele>186.8</ele>
        <time>2020-06-24T16:56:20Z</time>
      </trkpt>
      <trkpt lat="50.12005" lon="4.17579">
        <ele>186.8</ele>
        <time>2020-06-24T16:56:21Z</time>
      </trkpt>
      <trkpt lat="50.12003" lon="4.17586">
        <ele>186.9</ele>
        <time>2020-06-24T16:56:22Z</time>
      </trkpt>
      <trkpt lat="50.12002" lon="4.17592">
        <ele>186.9</ele>
        <time>2020-06-24T16:56:23Z</time>
      </trkpt>
      <trkpt lat="50.12" lon="4.17599">
        <ele>187</ele>
        <time>2020-06-24T16:56:24Z</time>
      </trkpt>
      <trkpt lat="50.11998" lon="4.17607">
        <ele>187.1</ele>
        <time>2020-06-24T16:56:25Z</time>
      </trkpt>
      <trkpt lat="50.11997" lon="4.17615">
        <ele>187.1</ele>
        <time>2020-06-24T16:56:26Z</time>
      </trkpt>
      <trkpt lat="50.11996" lon="4.17622">
        <ele>187.2</ele>
        <time>2020-06-24T16:56:27Z</time>
      </trkpt>
      <trkpt lat="50.11995" lon="4.17629">
        <ele>187.2</ele>
        <time>2020-06-24T16:56:28Z</time>
      </trkpt>
      <trkpt lat="50.11995" lon="4.17634">
        <ele>187.2</ele>
        <time>2020-06-24T16:56:29Z</time>
      </trkpt>
      <trkpt lat="50.11994" lon="4.17641">
        <ele>187.2</ele>
        <time>2020-06-24T16:56:30Z</time>
      </trkpt>
      <trkpt lat="50.11994" lon="4.17647">
        <ele>187.2</ele>
        <time>2020-06-24T16:56:31Z</time>
      </trkpt>
      <trkpt lat="50.11993" lon="4.17654">
        <ele>187.2</ele>
        <time>2020-06-24T16:56:32Z</time>
      </trkpt>
      <trkpt lat="50.11992" lon="4.1766">
        <ele>187.2</ele>
        <time>2020-06-24T16:56:33Z</time>
      </trkpt>
      <trkpt lat="50.11993" lon="4.17667">
        <ele>187.1</ele>
        <time>2020-06-24T16:56:34Z</time>
      </trkpt>
      <trkpt lat="50.11993" lon="4.17674">
        <ele>186.8</ele>
        <time>2020-06-24T16:56:35Z</time>
      </trkpt>
      <trkpt lat="50.11992" lon="4.17679">
        <ele>186.7</ele>
        <time>2020-06-24T16:56:36Z</time>
      </trkpt>
      <trkpt lat="50.11992" lon="4.17686">
        <ele>186.4</ele>
        <time>2020-06-24T16:56:37Z</time>
      </trkpt>
      <trkpt lat="50.11991" lon="4.17692">
        <ele>186.2</ele>
        <time>2020-06-24T16:56:38Z</time>
      </trkpt>
      <trkpt lat="50.1199" lon="4.17698">
        <ele>186</ele>
        <time>2020-06-24T16:56:39Z</time>
      </trkpt>
      <trkpt lat="50.11989" lon="4.17706">
        <ele>185.7</ele>
        <time>2020-06-24T16:56:40Z</time>
      </trkpt>
      <trkpt lat="50.11988" lon="4.17714">
        <ele>185.5</ele>
        <time>2020-06-24T16:56:41Z</time>
      </trkpt>
      <trkpt lat="50.11987" lon="4.17723">
        <ele>185.2</ele>
        <time>2020-06-24T16:56:42Z</time>
      </trkpt>
      <trkpt lat="50.11986" lon="4.17731">
        <ele>185</ele>
        <time>2020-06-24T16:56:43Z</time>
      </trkpt>
      <trkpt lat="50.11985" lon="4.17738">
        <ele>184.8</ele>
        <time>2020-06-24T16:56:44Z</time>
      </trkpt>
      <trkpt lat="50.11983" lon="4.17747">
        <ele>184.6</ele>
        <time>2020-06-24T16:56:45Z</time>
      </trkpt>
      <trkpt lat="50.1198" lon="4.17755">
        <ele>184.4</ele>
        <time>2020-06-24T16:56:46Z</time>
      </trkpt>
      <trkpt lat="50.11977" lon="4.17761">
        <ele>184.3</ele>
        <time>2020-06-24T16:56:47Z</time>
      </trkpt>
      <trkpt lat="50.11975" lon="4.17767">
        <ele>183.9</ele>
        <time>2020-06-24T16:56:48Z</time>
      </trkpt>
      <trkpt lat="50.1197" lon="4.17773">
        <ele>183.7</ele>
        <time>2020-06-24T16:56:49Z</time>
      </trkpt>
      <trkpt lat="50.11963" lon="4.1778">
        <ele>183.4</ele>
        <time>2020-06-24T16:56:50Z</time>
      </trkpt>
      <trkpt lat="50.11955" lon="4.17785">
        <ele>183.4</ele>
        <time>2020-06-24T16:56:51Z</time>
      </trkpt>
      <trkpt lat="50.11947" lon="4.17789">
        <ele>182</ele>
        <time>2020-06-24T16:56:52Z</time>
      </trkpt>
      <trkpt lat="50.11939" lon="4.17791">
        <ele>181.4</ele>
        <time>2020-06-24T16:56:53Z</time>
      </trkpt>
      <trkpt lat="50.11932" lon="4.17791">
        <ele>180.8</ele>
        <time>2020-06-24T16:56:54Z</time>
      </trkpt>
      <trkpt lat="50.11924" lon="4.17792">
        <ele>180.3</ele>
        <time>2020-06-24T16:56:55Z</time>
      </trkpt>
      <trkpt lat="50.11916" lon="4.17792">
        <ele>179.8</ele>
        <time>2020-06-24T16:56:56Z</time>
      </trkpt>
      <trkpt lat="50.11907" lon="4.17791">
        <ele>179.3</ele>
        <time>2020-06-24T16:56:57Z</time>
      </trkpt>
      <trkpt lat="50.11898" lon="4.17792">
        <ele>178.8</ele>
        <time>2020-06-24T16:56:58Z</time>
      </trkpt>
      <trkpt lat="50.1189" lon="4.17792">
        <ele>178.4</ele>
        <time>2020-06-24T16:56:59Z</time>
      </trkpt>
      <trkpt lat="50.11882" lon="4.17792">
        <ele>178.3</ele>
        <time>2020-06-24T16:57:00Z</time>
      </trkpt>
      <trkpt lat="50.11875" lon="4.17791">
        <ele>178.3</ele>
        <time>2020-06-24T16:57:01Z</time>
      </trkpt>
      <trkpt lat="50.11869" lon="4.17793">
        <ele>178.3</ele>
        <time>2020-06-24T16:57:02Z</time>
      </trkpt>
      <trkpt lat="50.11862" lon="4.17794">
        <ele>178.3</ele>
        <time>2020-06-24T16:57:03Z</time>
      </trkpt>
      <trkpt lat="50.11856" lon="4.17795">
        <ele>178.3</ele>
        <time>2020-06-24T16:57:04Z</time>
      </trkpt>
      <trkpt lat="50.11849" lon="4.17797">
        <ele>178.4</ele>
        <time>2020-06-24T16:57:05Z</time>
      </trkpt>
      <trkpt lat="50.11841" lon="4.17799">
        <ele>178.6</ele>
        <time>2020-06-24T16:57:06Z</time>
      </trkpt>
      <trkpt lat="50.11835" lon="4.17801">
        <ele>178.7</ele>
        <time>2020-06-24T16:57:07Z</time>
      </trkpt>
      <trkpt lat="50.1183" lon="4.17804">
        <ele>178.9</ele>
        <time>2020-06-24T16:57:08Z</time>
      </trkpt>
      <trkpt lat="50.11824" lon="4.1781">
        <ele>179.1</ele>
        <time>2020-06-24T16:57:09Z</time>
      </trkpt>
      <trkpt lat="50.11819" lon="4.17814">
        <ele>179.3</ele>
        <time>2020-06-24T16:57:10Z</time>
      </trkpt>
      <trkpt lat="50.11814" lon="4.17818">
        <ele>179.4</ele>
        <time>2020-06-24T16:57:11Z</time>
      </trkpt>
      <trkpt lat="50.1181" lon="4.17822">
        <ele>179.6</ele>
        <time>2020-06-24T16:57:12Z</time>
      </trkpt>
      <trkpt lat="50.11805" lon="4.17827">
        <ele>179.7</ele>
        <time>2020-06-24T16:57:13Z</time>
      </trkpt>
      <trkpt lat="50.11802" lon="4.17832">
        <ele>179.8</ele>
        <time>2020-06-24T16:57:14Z</time>
      </trkpt>
      <trkpt lat="50.11798" lon="4.17836">
        <ele>179.6</ele>
        <time>2020-06-24T16:57:15Z</time>
      </trkpt>
      <trkpt lat="50.11794" lon="4.1784">
        <ele>179.3</ele>
        <time>2020-06-24T16:57:16Z</time>
      </trkpt>
      <trkpt lat="50.1179" lon="4.17844">
        <ele>179.1</ele>
        <time>2020-06-24T16:57:17Z</time>
      </trkpt>
      <trkpt lat="50.11786" lon="4.17849">
        <ele>178.9</ele>
        <time>2020-06-24T16:57:18Z</time>
      </trkpt>
      <trkpt lat="50.11782" lon="4.17854">
        <ele>178.6</ele>
        <time>2020-06-24T16:57:19Z</time>
      </trkpt>
      <trkpt lat="50.11777" lon="4.17859">
        <ele>178.4</ele>
        <time>2020-06-24T16:57:20Z</time>
      </trkpt>
      <trkpt lat="50.11772" lon="4.17864">
        <ele>178.2</ele>
        <time>2020-06-24T16:57:21Z</time>
      </trkpt>
      <trkpt lat="50.11766" lon="4.17869">
        <ele>178</ele>
        <time>2020-06-24T16:57:22Z</time>
      </trkpt>
      <trkpt lat="50.1176" lon="4.17872">
        <ele>177.7</ele>
        <time>2020-06-24T16:57:23Z</time>
      </trkpt>
      <trkpt lat="50.11754" lon="4.17876">
        <ele>177.8</ele>
        <time>2020-06-24T16:57:24Z</time>
      </trkpt>
      <trkpt lat="50.11747" lon="4.17879">
        <ele>177.9</ele>
        <time>2020-06-24T16:57:25Z</time>
      </trkpt>
      <trkpt lat="50.11741" lon="4.17881">
        <ele>178</ele>
        <time>2020-06-24T16:57:26Z</time>
      </trkpt>
      <trkpt lat="50.11735" lon="4.17882">
        <ele>178.1</ele>
        <time>2020-06-24T16:57:27Z</time>
      </trkpt>
      <trkpt lat="50.11729" lon="4.17883">
        <ele>178.3</ele>
        <time>2020-06-24T16:57:28Z</time>
      </trkpt>
      <trkpt lat="50.11723" lon="4.17885">
        <ele>178.5</ele>
        <time>2020-06-24T16:57:29Z</time>
      </trkpt>
      <trkpt lat="50.11718" lon="4.17886">
        <ele>178.7</ele>
        <time>2020-06-24T16:57:30Z</time>
      </trkpt>
      <trkpt lat="50.11712" lon="4.17889">
        <ele>179</ele>
        <time>2020-06-24T16:57:31Z</time>
      </trkpt>
      <trkpt lat="50.11708" lon="4.17891">
        <ele>179.2</ele>
        <time>2020-06-24T16:57:32Z</time>
      </trkpt>
      <trkpt lat="50.11704" lon="4.17892">
        <ele>179.5</ele>
        <time>2020-06-24T16:57:33Z</time>
      </trkpt>
      <trkpt lat="50.117" lon="4.17893">
        <ele>179.8</ele>
        <time>2020-06-24T16:57:34Z</time>
      </trkpt>
      <trkpt lat="50.11695" lon="4.17895">
        <ele>180.1</ele>
        <time>2020-06-24T16:57:35Z</time>
      </trkpt>
      <trkpt lat="50.11692" lon="4.17896">
        <ele>180.4</ele>
        <time>2020-06-24T16:57:36Z</time>
      </trkpt>
      <trkpt lat="50.11689" lon="4.17898">
        <ele>180.7</ele>
        <time>2020-06-24T16:57:37Z</time>
      </trkpt>
      <trkpt lat="50.11685" lon="4.179">
        <ele>180.9</ele>
        <time>2020-06-24T16:57:38Z</time>
      </trkpt>
      <trkpt lat="50.11682" lon="4.17902">
        <ele>181.1</ele>
        <time>2020-06-24T16:57:39Z</time>
      </trkpt>
      <trkpt lat="50.11679" lon="4.17905">
        <ele>181.4</ele>
        <time>2020-06-24T16:57:40Z</time>
      </trkpt>
      <trkpt lat="50.11676" lon="4.17909">
        <ele>181.6</ele>
        <time>2020-06-24T16:57:41Z</time>
      </trkpt>
      <trkpt lat="50.11675" lon="4.1791">
        <ele>181.7</ele>
        <time>2020-06-24T16:57:42Z</time>
      </trkpt>
      <trkpt lat="50.11672" lon="4.17914">
        <ele>182</ele>
        <time>2020-06-24T16:57:43Z</time>
      </trkpt>
      <trkpt lat="50.1167" lon="4.17915">
        <ele>182.1</ele>
        <time>2020-06-24T16:57:44Z</time>
      </trkpt>
      <trkpt lat="50.11668" lon="4.17918">
        <ele>182.3</ele>
        <time>2020-06-24T16:57:45Z</time>
      </trkpt>
      <trkpt lat="50.11665" lon="4.1792">
        <ele>182.6</ele>
        <time>2020-06-24T16:57:46Z</time>
      </trkpt>
      <trkpt lat="50.11662" lon="4.17924">
        <ele>182.9</ele>
        <time>2020-06-24T16:57:47Z</time>
      </trkpt>
      <trkpt lat="50.11661" lon="4.17925">
        <ele>183</ele>
        <time>2020-06-24T16:57:48Z</time>
      </trkpt>
      <trkpt lat="50.11658" lon="4.17929">
        <ele>183.4</ele>
        <time>2020-06-24T16:57:49Z</time>
      </trkpt>
      <trkpt lat="50.11657" lon="4.1793">
        <ele>183.5</ele>
        <time>2020-06-24T16:57:50Z</time>
      </trkpt>
      <trkpt lat="50.11653" lon="4.17932">
        <ele>183.9</ele>
        <time>2020-06-24T16:57:51Z</time>
      </trkpt>
      <trkpt lat="50.11652" lon="4.17933">
        <ele>184.1</ele>
        <time>2020-06-24T16:57:52Z</time>
      </trkpt>
      <trkpt lat="50.11649" lon="4.17936">
        <ele>184.5</ele>
        <time>2020-06-24T16:57:53Z</time>
      </trkpt>
      <trkpt lat="50.11648" lon="4.17937">
        <ele>184.6</ele>
        <time>2020-06-24T16:57:54Z</time>
      </trkpt>
      <trkpt lat="50.11645" lon="4.1794">
        <ele>185</ele>
        <time>2020-06-24T16:57:55Z</time>
      </trkpt>
      <trkpt lat="50.11643" lon="4.17941">
        <ele>185.2</ele>
        <time>2020-06-24T16:57:56Z</time>
      </trkpt>
      <trkpt lat="50.11641" lon="4.17942">
        <ele>185.5</ele>
        <time>2020-06-24T16:57:57Z</time>
      </trkpt>
      <trkpt lat="50.11637" lon="4.17945">
        <ele>185.8</ele>
        <time>2020-06-24T16:57:58Z</time>
      </trkpt>
      <trkpt lat="50.11636" lon="4.17946">
        <ele>186</ele>
        <time>2020-06-24T16:57:59Z</time>
      </trkpt>
      <trkpt lat="50.11635" lon="4.17948">
        <ele>186.1</ele>
        <time>2020-06-24T16:58:00Z</time>
      </trkpt>
      <trkpt lat="50.11634" lon="4.17949">
        <ele>186.3</ele>
        <time>2020-06-24T16:58:01Z</time>
      </trkpt>
      <trkpt lat="50.11631" lon="4.17953">
        <ele>186.6</ele>
        <time>2020-06-24T16:58:02Z</time>
      </trkpt>
      <trkpt lat="50.1163" lon="4.17954">
        <ele>186.7</ele>
        <time>2020-06-24T16:58:03Z</time>
      </trkpt>
      <trkpt lat="50.11627" lon="4.17957">
        <ele>186.9</ele>
        <time>2020-06-24T16:58:04Z</time>
      </trkpt>
      <trkpt lat="50.11624" lon="4.1796">
        <ele>187.3</ele>
        <time>2020-06-24T16:58:05Z</time>
      </trkpt>
      <trkpt lat="50.11623" lon="4.17961">
        <ele>187.4</ele>
        <time>2020-06-24T16:58:06Z</time>
      </trkpt>
      <trkpt lat="50.1162" lon="4.17963">
        <ele>187.7</ele>
        <time>2020-06-24T16:58:07Z</time>
      </trkpt>
      <trkpt lat="50.11619" lon="4.17964">
        <ele>187.8</ele>
        <time>2020-06-24T16:58:08Z</time>
      </trkpt>
      <trkpt lat="50.11617" lon="4.17966">
        <ele>187.9</ele>
        <time>2020-06-24T16:58:09Z</time>
      </trkpt>
      <trkpt lat="50.11616" lon="4.17967">
        <ele>188</ele>
        <time>2020-06-24T16:58:10Z</time>
      </trkpt>
      <trkpt lat="50.11613" lon="4.1797">
        <ele>188.4</ele>
        <time>2020-06-24T16:58:11Z</time>
      </trkpt>
      <trkpt lat="50.11612" lon="4.17971">
        <ele>188.5</ele>
        <time>2020-06-24T16:58:12Z</time>
      </trkpt>
      <trkpt lat="50.11609" lon="4.17974">
        <ele>188.8</ele>
        <time>2020-06-24T16:58:13Z</time>
      </trkpt>
      <trkpt lat="50.11609" lon="4.17975">
        <ele>188.8</ele>
        <time>2020-06-24T16:58:14Z</time>
      </trkpt>
      <trkpt lat="50.11607" lon="4.17979">
        <ele>189.1</ele>
        <time>2020-06-24T16:58:15Z</time>
      </trkpt>
      <trkpt lat="50.11606" lon="4.1798">
        <ele>189.2</ele>
        <time>2020-06-24T16:58:16Z</time>
      </trkpt>
      <trkpt lat="50.11603" lon="4.17982">
        <ele>189.5</ele>
        <time>2020-06-24T16:58:17Z</time>
      </trkpt>
      <trkpt lat="50.11602" lon="4.17983">
        <ele>189.6</ele>
        <time>2020-06-24T16:58:18Z</time>
      </trkpt>
      <trkpt lat="50.11599" lon="4.17986">
        <ele>189.9</ele>
        <time>2020-06-24T16:58:19Z</time>
      </trkpt>
      <trkpt lat="50.11598" lon="4.17987">
        <ele>190</ele>
        <time>2020-06-24T16:58:20Z</time>
      </trkpt>
      <trkpt lat="50.11595" lon="4.1799">
        <ele>190.3</ele>
        <time>2020-06-24T16:58:21Z</time>
      </trkpt>
      <trkpt lat="50.11594" lon="4.17991">
        <ele>190.4</ele>
        <time>2020-06-24T16:58:22Z</time>
      </trkpt>
      <trkpt lat="50.11591" lon="4.17995">
        <ele>190.7</ele>
        <time>2020-06-24T16:58:23Z</time>
      </trkpt>
      <trkpt lat="50.1159" lon="4.17996">
        <ele>190.8</ele>
        <time>2020-06-24T16:58:24Z</time>
      </trkpt>
      <trkpt lat="50.11588" lon="4.18001">
        <ele>191</ele>
        <time>2020-06-24T16:58:25Z</time>
      </trkpt>
      <trkpt lat="50.11587" lon="4.18002">
        <ele>191.1</ele>
        <time>2020-06-24T16:58:26Z</time>
      </trkpt>
      <trkpt lat="50.11585" lon="4.18006">
        <ele>191.4</ele>
        <time>2020-06-24T16:58:27Z</time>
      </trkpt>
      <trkpt lat="50.11583" lon="4.18007">
        <ele>191.5</ele>
        <time>2020-06-24T16:58:28Z</time>
      </trkpt>
      <trkpt lat="50.11581" lon="4.18011">
        <ele>191.7</ele>
        <time>2020-06-24T16:58:29Z</time>
      </trkpt>
      <trkpt lat="50.1158" lon="4.18012">
        <ele>191.8</ele>
        <time>2020-06-24T16:58:30Z</time>
      </trkpt>
      <trkpt lat="50.11578" lon="4.18016">
        <ele>191.9</ele>
        <time>2020-06-24T16:58:31Z</time>
      </trkpt>
      <trkpt lat="50.11576" lon="4.1802">
        <ele>192.1</ele>
        <time>2020-06-24T16:58:32Z</time>
      </trkpt>
      <trkpt lat="50.11575" lon="4.18022">
        <ele>192.2</ele>
        <time>2020-06-24T16:58:33Z</time>
      </trkpt>
      <trkpt lat="50.11573" lon="4.18026">
        <ele>192.3</ele>
        <time>2020-06-24T16:58:34Z</time>
      </trkpt>
      <trkpt lat="50.11572" lon="4.18028">
        <ele>192.4</ele>
        <time>2020-06-24T16:58:35Z</time>
      </trkpt>
      <trkpt lat="50.1157" lon="4.18032">
        <ele>192.5</ele>
        <time>2020-06-24T16:58:36Z</time>
      </trkpt>
      <trkpt lat="50.11569" lon="4.18033">
        <ele>192.6</ele>
        <time>2020-06-24T16:58:37Z</time>
      </trkpt>
      <trkpt lat="50.11567" lon="4.18037">
        <ele>192.7</ele>
        <time>2020-06-24T16:58:38Z</time>
      </trkpt>
      <trkpt lat="50.11566" lon="4.18039">
        <ele>192.8</ele>
        <time>2020-06-24T16:58:39Z</time>
      </trkpt>
      <trkpt lat="50.11563" lon="4.18043">
        <ele>193</ele>
        <time>2020-06-24T16:58:40Z</time>
      </trkpt>
      <trkpt lat="50.11562" lon="4.18044">
        <ele>193</ele>
        <time>2020-06-24T16:58:41Z</time>
      </trkpt>
      <trkpt lat="50.11559" lon="4.18047">
        <ele>193.1</ele>
        <time>2020-06-24T16:58:42Z</time>
      </trkpt>
      <trkpt lat="50.11557" lon="4.1805">
        <ele>193.2</ele>
        <time>2020-06-24T16:58:43Z</time>
      </trkpt>
      <trkpt lat="50.11554" lon="4.18054">
        <ele>193.2</ele>
        <time>2020-06-24T16:58:44Z</time>
      </trkpt>
      <trkpt lat="50.11553" lon="4.18056">
        <ele>193.1</ele>
        <time>2020-06-24T16:58:45Z</time>
      </trkpt>
      <trkpt lat="50.11551" lon="4.18059">
        <ele>193.1</ele>
        <time>2020-06-24T16:58:46Z</time>
      </trkpt>
      <trkpt lat="50.11549" lon="4.18063">
        <ele>193</ele>
        <time>2020-06-24T16:58:47Z</time>
      </trkpt>
      <trkpt lat="50.11547" lon="4.18066">
        <ele>192.9</ele>
        <time>2020-06-24T16:58:48Z</time>
      </trkpt>
      <trkpt lat="50.11544" lon="4.18068">
        <ele>192.8</ele>
        <time>2020-06-24T16:58:49Z</time>
      </trkpt>
      <trkpt lat="50.1154" lon="4.1807">
        <ele>192.6</ele>
        <time>2020-06-24T16:58:50Z</time>
      </trkpt>
      <trkpt lat="50.11536" lon="4.18074">
        <ele>192.4</ele>
        <time>2020-06-24T16:58:51Z</time>
      </trkpt>
      <trkpt lat="50.1153" lon="4.18077">
        <ele>192.1</ele>
        <time>2020-06-24T16:58:52Z</time>
      </trkpt>
      <trkpt lat="50.11526" lon="4.18081">
        <ele>191.7</ele>
        <time>2020-06-24T16:58:53Z</time>
      </trkpt>
      <trkpt lat="50.11521" lon="4.18085">
        <ele>191.4</ele>
        <time>2020-06-24T16:58:54Z</time>
      </trkpt>
      <trkpt lat="50.11517" lon="4.18089">
        <ele>191</ele>
        <time>2020-06-24T16:58:55Z</time>
      </trkpt>
      <trkpt lat="50.11514" lon="4.18094">
        <ele>190.6</ele>
        <time>2020-06-24T16:58:56Z</time>
      </trkpt>
      <trkpt lat="50.1151" lon="4.181">
        <ele>190.2</ele>
        <time>2020-06-24T16:58:57Z</time>
      </trkpt>
      <trkpt lat="50.11507" lon="4.18105">
        <ele>189.8</ele>
        <time>2020-06-24T16:58:58Z</time>
      </trkpt>
      <trkpt lat="50.11504" lon="4.18109">
        <ele>189.4</ele>
        <time>2020-06-24T16:58:59Z</time>
      </trkpt>
      <trkpt lat="50.11501" lon="4.18114">
        <ele>189</ele>
        <time>2020-06-24T16:59:00Z</time>
      </trkpt>
      <trkpt lat="50.11498" lon="4.18117">
        <ele>188.6</ele>
        <time>2020-06-24T16:59:01Z</time>
      </trkpt>
      <trkpt lat="50.11494" lon="4.1812">
        <ele>188.2</ele>
        <time>2020-06-24T16:59:02Z</time>
      </trkpt>
      <trkpt lat="50.11489" lon="4.18124">
        <ele>187.7</ele>
        <time>2020-06-24T16:59:03Z</time>
      </trkpt>
      <trkpt lat="50.11485" lon="4.18128">
        <ele>187.3</ele>
        <time>2020-06-24T16:59:04Z</time>
      </trkpt>
      <trkpt lat="50.11482" lon="4.18132">
        <ele>186.8</ele>
        <time>2020-06-24T16:59:05Z</time>
      </trkpt>
      <trkpt lat="50.11478" lon="4.18137">
        <ele>186.3</ele>
        <time>2020-06-24T16:59:06Z</time>
      </trkpt>
      <trkpt lat="50.11474" lon="4.18142">
        <ele>185.9</ele>
        <time>2020-06-24T16:59:07Z</time>
      </trkpt>
      <trkpt lat="50.1147" lon="4.18146">
        <ele>185.5</ele>
        <time>2020-06-24T16:59:08Z</time>
      </trkpt>
      <trkpt lat="50.11465" lon="4.18151">
        <ele>185</ele>
        <time>2020-06-24T16:59:09Z</time>
      </trkpt>
      <trkpt lat="50.1146" lon="4.18155">
        <ele>184.5</ele>
        <time>2020-06-24T16:59:10Z</time>
      </trkpt>
      <trkpt lat="50.11456" lon="4.18161">
        <ele>184.1</ele>
        <time>2020-06-24T16:59:11Z</time>
      </trkpt>
      <trkpt lat="50.1145" lon="4.18165">
        <ele>183.7</ele>
        <time>2020-06-24T16:59:12Z</time>
      </trkpt>
      <trkpt lat="50.11445" lon="4.1817">
        <ele>183.2</ele>
        <time>2020-06-24T16:59:13Z</time>
      </trkpt>
      <trkpt lat="50.11439" lon="4.18175">
        <ele>182.8</ele>
        <time>2020-06-24T16:59:14Z</time>
      </trkpt>
      <trkpt lat="50.11433" lon="4.18179">
        <ele>182.5</ele>
        <time>2020-06-24T16:59:15Z</time>
      </trkpt>
      <trkpt lat="50.11426" lon="4.18184">
        <ele>182.2</ele>
        <time>2020-06-24T16:59:16Z</time>
      </trkpt>
      <trkpt lat="50.1142" lon="4.1819">
        <ele>181.9</ele>
        <time>2020-06-24T16:59:17Z</time>
      </trkpt>
      <trkpt lat="50.11414" lon="4.18195">
        <ele>181.7</ele>
        <time>2020-06-24T16:59:18Z</time>
      </trkpt>
      <trkpt lat="50.11408" lon="4.18201">
        <ele>181.6</ele>
        <time>2020-06-24T16:59:19Z</time>
      </trkpt>
      <trkpt lat="50.11401" lon="4.18207">
        <ele>181.4</ele>
        <time>2020-06-24T16:59:20Z</time>
      </trkpt>
      <trkpt lat="50.11395" lon="4.18212">
        <ele>181.4</ele>
        <time>2020-06-24T16:59:21Z</time>
      </trkpt>
      <trkpt lat="50.11388" lon="4.18216">
        <ele>181.3</ele>
        <time>2020-06-24T16:59:22Z</time>
      </trkpt>
      <trkpt lat="50.11381" lon="4.1822">
        <ele>181.3</ele>
        <time>2020-06-24T16:59:23Z</time>
      </trkpt>
      <trkpt lat="50.11376" lon="4.18225">
        <ele>181.4</ele>
        <time>2020-06-24T16:59:24Z</time>
      </trkpt>
      <trkpt lat="50.1137" lon="4.18229">
        <ele>181.5</ele>
        <time>2020-06-24T16:59:25Z</time>
      </trkpt>
      <trkpt lat="50.11365" lon="4.18233">
        <ele>181.6</ele>
        <time>2020-06-24T16:59:26Z</time>
      </trkpt>
      <trkpt lat="50.1136" lon="4.18236">
        <ele>181.7</ele>
        <time>2020-06-24T16:59:27Z</time>
      </trkpt>
      <trkpt lat="50.11355" lon="4.1824">
        <ele>181.9</ele>
        <time>2020-06-24T16:59:28Z</time>
      </trkpt>
      <trkpt lat="50.11351" lon="4.18243">
        <ele>182</ele>
        <time>2020-06-24T16:59:29Z</time>
      </trkpt>
      <trkpt lat="50.11347" lon="4.18246">
        <ele>182.1</ele>
        <time>2020-06-24T16:59:30Z</time>
      </trkpt>
      <trkpt lat="50.11343" lon="4.1825">
        <ele>182.2</ele>
        <time>2020-06-24T16:59:31Z</time>
      </trkpt>
      <trkpt lat="50.1134" lon="4.18254">
        <ele>182.3</ele>
        <time>2020-06-24T16:59:32Z</time>
      </trkpt>
      <trkpt lat="50.11336" lon="4.18257">
        <ele>182.4</ele>
        <time>2020-06-24T16:59:33Z</time>
      </trkpt>
      <trkpt lat="50.11333" lon="4.1826">
        <ele>182.5</ele>
        <time>2020-06-24T16:59:34Z</time>
      </trkpt>
      <trkpt lat="50.1133" lon="4.18263">
        <ele>182.6</ele>
        <time>2020-06-24T16:59:35Z</time>
      </trkpt>
      <trkpt lat="50.11326" lon="4.18265">
        <ele>182.8</ele>
        <time>2020-06-24T16:59:36Z</time>
      </trkpt>
      <trkpt lat="50.11323" lon="4.18269">
        <ele>182.9</ele>
        <time>2020-06-24T16:59:37Z</time>
      </trkpt>
      <trkpt lat="50.1132" lon="4.18274">
        <ele>183</ele>
        <time>2020-06-24T16:59:38Z</time>
      </trkpt>
      <trkpt lat="50.11317" lon="4.18278">
        <ele>183.1</ele>
        <time>2020-06-24T16:59:39Z</time>
      </trkpt>
      <trkpt lat="50.11314" lon="4.18282">
        <ele>183.1</ele>
        <time>2020-06-24T16:59:40Z</time>
      </trkpt>
      <trkpt lat="50.11311" lon="4.18284">
        <ele>183.2</ele>
        <time>2020-06-24T16:59:41Z</time>
      </trkpt>
      <trkpt lat="50.11307" lon="4.18287">
        <ele>183.2</ele>
        <time>2020-06-24T16:59:42Z</time>
      </trkpt>
      <trkpt lat="50.11303" lon="4.1829">
        <ele>183.2</ele>
        <time>2020-06-24T16:59:43Z</time>
      </trkpt>
      <trkpt lat="50.11299" lon="4.18292">
        <ele>183.2</ele>
        <time>2020-06-24T16:59:44Z</time>
      </trkpt>
      <trkpt lat="50.11294" lon="4.18295">
        <ele>183.2</ele>
        <time>2020-06-24T16:59:45Z</time>
      </trkpt>
      <trkpt lat="50.1129" lon="4.18297">
        <ele>183.1</ele>
        <time>2020-06-24T16:59:46Z</time>
      </trkpt>
      <trkpt lat="50.11285" lon="4.183">
        <ele>183.1</ele>
        <time>2020-06-24T16:59:47Z</time>
      </trkpt>
      <trkpt lat="50.11281" lon="4.18303">
        <ele>183</ele>
        <time>2020-06-24T16:59:48Z</time>
      </trkpt>
      <trkpt lat="50.11276" lon="4.18306">
        <ele>183</ele>
        <time>2020-06-24T16:59:49Z</time>
      </trkpt>
      <trkpt lat="50.11271" lon="4.18308">
        <ele>182.9</ele>
        <time>2020-06-24T16:59:50Z</time>
      </trkpt>
      <trkpt lat="50.11265" lon="4.1831">
        <ele>182.8</ele>
        <time>2020-06-24T16:59:51Z</time>
      </trkpt>
      <trkpt lat="50.1126" lon="4.18312">
        <ele>182.8</ele>
        <time>2020-06-24T16:59:52Z</time>
      </trkpt>
      <trkpt lat="50.11254" lon="4.18315">
        <ele>182.9</ele>
        <time>2020-06-24T16:59:53Z</time>
      </trkpt>
      <trkpt lat="50.11248" lon="4.18318">
        <ele>182.9</ele>
        <time>2020-06-24T16:59:54Z</time>
      </trkpt>
      <trkpt lat="50.11242" lon="4.1832">
        <ele>183</ele>
        <time>2020-06-24T16:59:55Z</time>
      </trkpt>
      <trkpt lat="50.11236" lon="4.18322">
        <ele>183.1</ele>
        <time>2020-06-24T16:59:56Z</time>
      </trkpt>
      <trkpt lat="50.1123" lon="4.18324">
        <ele>183.2</ele>
        <time>2020-06-24T16:59:57Z</time>
      </trkpt>
      <trkpt lat="50.11224" lon="4.18325">
        <ele>183.3</ele>
        <time>2020-06-24T16:59:58Z</time>
      </trkpt>
      <trkpt lat="50.11217" lon="4.18328">
        <ele>183.6</ele>
        <time>2020-06-24T16:59:59Z</time>
      </trkpt>
      <trkpt lat="50.11211" lon="4.1833">
        <ele>183.9</ele>
        <time>2020-06-24T17:00:00Z</time>
      </trkpt>
      <trkpt lat="50.11207" lon="4.18332">
        <ele>184.2</ele>
        <time>2020-06-24T17:00:01Z</time>
      </trkpt>
      <trkpt lat="50.11202" lon="4.18333">
        <ele>184.5</ele>
        <time>2020-06-24T17:00:02Z</time>
      </trkpt>
      <trkpt lat="50.11197" lon="4.18334">
        <ele>184.8</ele>
        <time>2020-06-24T17:00:03Z</time>
      </trkpt>
      <trkpt lat="50.11192" lon="4.18335">
        <ele>185.2</ele>
        <time>2020-06-24T17:00:04Z</time>
      </trkpt>
      <trkpt lat="50.11188" lon="4.18335">
        <ele>185.5</ele>
        <time>2020-06-24T17:00:05Z</time>
      </trkpt>
      <trkpt lat="50.11183" lon="4.18336">
        <ele>185.8</ele>
        <time>2020-06-24T17:00:06Z</time>
      </trkpt>
      <trkpt lat="50.1118" lon="4.18337">
        <ele>186.1</ele>
        <time>2020-06-24T17:00:07Z</time>
      </trkpt>
      <trkpt lat="50.11178" lon="4.18338">
        <ele>186.3</ele>
        <time>2020-06-24T17:00:08Z</time>
      </trkpt>
      <trkpt lat="50.11175" lon="4.18339">
        <ele>186.5</ele>
        <time>2020-06-24T17:00:09Z</time>
      </trkpt>
      <trkpt lat="50.11172" lon="4.1834">
        <ele>186.7</ele>
        <time>2020-06-24T17:00:10Z</time>
      </trkpt>
      <trkpt lat="50.11169" lon="4.18341">
        <ele>186.9</ele>
        <time>2020-06-24T17:00:11Z</time>
      </trkpt>
      <trkpt lat="50.11166" lon="4.18343">
        <ele>187.1</ele>
        <time>2020-06-24T17:00:12Z</time>
      </trkpt>
      <trkpt lat="50.11165" lon="4.18344">
        <ele>187.2</ele>
        <time>2020-06-24T17:00:13Z</time>
      </trkpt>
      <trkpt lat="50.11162" lon="4.18347">
        <ele>187.5</ele>
        <time>2020-06-24T17:00:14Z</time>
      </trkpt>
      <trkpt lat="50.11161" lon="4.18348">
        <ele>187.6</ele>
        <time>2020-06-24T17:00:15Z</time>
      </trkpt>
      <trkpt lat="50.11158" lon="4.18351">
        <ele>187.8</ele>
        <time>2020-06-24T17:00:16Z</time>
      </trkpt>
      <trkpt lat="50.11156" lon="4.18352">
        <ele>187.9</ele>
        <time>2020-06-24T17:00:17Z</time>
      </trkpt>
      <trkpt lat="50.11154" lon="4.18353">
        <ele>188.1</ele>
        <time>2020-06-24T17:00:18Z</time>
      </trkpt>
      <trkpt lat="50.11151" lon="4.18354">
        <ele>188.3</ele>
        <time>2020-06-24T17:00:19Z</time>
      </trkpt>
      <trkpt lat="50.11147" lon="4.18357">
        <ele>188.6</ele>
        <time>2020-06-24T17:00:20Z</time>
      </trkpt>
      <trkpt lat="50.11146" lon="4.18358">
        <ele>188.7</ele>
        <time>2020-06-24T17:00:21Z</time>
      </trkpt>
      <trkpt lat="50.11143" lon="4.1836">
        <ele>188.9</ele>
        <time>2020-06-24T17:00:22Z</time>
      </trkpt>
      <trkpt lat="50.1114" lon="4.18362">
        <ele>189.1</ele>
        <time>2020-06-24T17:00:23Z</time>
      </trkpt>
      <trkpt lat="50.11137" lon="4.18364">
        <ele>189.4</ele>
        <time>2020-06-24T17:00:24Z</time>
      </trkpt>
      <trkpt lat="50.11134" lon="4.18366">
        <ele>189.6</ele>
        <time>2020-06-24T17:00:25Z</time>
      </trkpt>
      <trkpt lat="50.1113" lon="4.18368">
        <ele>189.9</ele>
        <time>2020-06-24T17:00:26Z</time>
      </trkpt>
      <trkpt lat="50.11127" lon="4.1837">
        <ele>190.1</ele>
        <time>2020-06-24T17:00:27Z</time>
      </trkpt>
      <trkpt lat="50.11125" lon="4.18371">
        <ele>190.3</ele>
        <time>2020-06-24T17:00:28Z</time>
      </trkpt>
      <trkpt lat="50.11122" lon="4.18372">
        <ele>190.5</ele>
        <time>2020-06-24T17:00:29Z</time>
      </trkpt>
      <trkpt lat="50.11119" lon="4.18373">
        <ele>190.7</ele>
        <time>2020-06-24T17:00:30Z</time>
      </trkpt>
      <trkpt lat="50.11116" lon="4.18375">
        <ele>190.9</ele>
        <time>2020-06-24T17:00:31Z</time>
      </trkpt>
      <trkpt lat="50.11113" lon="4.18377">
        <ele>191.1</ele>
        <time>2020-06-24T17:00:32Z</time>
      </trkpt>
      <trkpt lat="50.11108" lon="4.18379">
        <ele>191.4</ele>
        <time>2020-06-24T17:00:33Z</time>
      </trkpt>
      <trkpt lat="50.11104" lon="4.1838">
        <ele>191.5</ele>
        <time>2020-06-24T17:00:34Z</time>
      </trkpt>
      <trkpt lat="50.111" lon="4.18382">
        <ele>191.7</ele>
        <time>2020-06-24T17:00:35Z</time>
      </trkpt>
      <trkpt lat="50.11097" lon="4.18383">
        <ele>191.8</ele>
        <time>2020-06-24T17:00:36Z</time>
      </trkpt>
      <trkpt lat="50.11094" lon="4.18385">
        <ele>191.9</ele>
        <time>2020-06-24T17:00:37Z</time>
      </trkpt>
      <trkpt lat="50.11091" lon="4.18387">
        <ele>192</ele>
        <time>2020-06-24T17:00:38Z</time>
      </trkpt>
      <trkpt lat="50.11089" lon="4.1839">
        <ele>192.1</ele>
        <time>2020-06-24T17:00:39Z</time>
      </trkpt>
      <trkpt lat="50.11087" lon="4.18392">
        <ele>192.1</ele>
        <time>2020-06-24T17:00:40Z</time>
      </trkpt>
      <trkpt lat="50.11084" lon="4.18396">
        <ele>192.2</ele>
        <time>2020-06-24T17:00:41Z</time>
      </trkpt>
      <trkpt lat="50.11081" lon="4.18399">
        <ele>192.3</ele>
        <time>2020-06-24T17:00:42Z</time>
      </trkpt>
      <trkpt lat="50.11079" lon="4.18402">
        <ele>192.4</ele>
        <time>2020-06-24T17:00:43Z</time>
      </trkpt>
      <trkpt lat="50.11076" lon="4.18405">
        <ele>192.4</ele>
        <time>2020-06-24T17:00:44Z</time>
      </trkpt>
      <trkpt lat="50.11074" lon="4.18409">
        <ele>192.5</ele>
        <time>2020-06-24T17:00:45Z</time>
      </trkpt>
      <trkpt lat="50.11071" lon="4.18413">
        <ele>192.6</ele>
        <time>2020-06-24T17:00:46Z</time>
      </trkpt>
      <trkpt lat="50.11068" lon="4.18418">
        <ele>192.6</ele>
        <time>2020-06-24T17:00:47Z</time>
      </trkpt>
      <trkpt lat="50.11065" lon="4.18422">
        <ele>192.6</ele>
        <time>2020-06-24T17:00:48Z</time>
      </trkpt>
      <trkpt lat="50.11063" lon="4.18428">
        <ele>192.7</ele>
        <time>2020-06-24T17:00:49Z</time>
      </trkpt>
      <trkpt lat="50.1106" lon="4.18433">
        <ele>192.6</ele>
        <time>2020-06-24T17:00:50Z</time>
      </trkpt>
      <trkpt lat="50.11057" lon="4.18439">
        <ele>192.6</ele>
        <time>2020-06-24T17:00:51Z</time>
      </trkpt>
      <trkpt lat="50.11055" lon="4.18445">
        <ele>192.5</ele>
        <time>2020-06-24T17:00:52Z</time>
      </trkpt>
      <trkpt lat="50.1105" lon="4.18452">
        <ele>192.3</ele>
        <time>2020-06-24T17:00:53Z</time>
      </trkpt>
      <trkpt lat="50.11046" lon="4.18457">
        <ele>192</ele>
        <time>2020-06-24T17:00:54Z</time>
      </trkpt>
      <trkpt lat="50.11043" lon="4.18463">
        <ele>191.4</ele>
        <time>2020-06-24T17:00:55Z</time>
      </trkpt>
      <trkpt lat="50.1104" lon="4.18469">
        <ele>191.4</ele>
        <time>2020-06-24T17:00:56Z</time>
      </trkpt>
      <trkpt lat="50.11036" lon="4.18476">
        <ele>191.4</ele>
        <time>2020-06-24T17:00:57Z</time>
      </trkpt>
      <trkpt lat="50.11033" lon="4.18482">
        <ele>191.3</ele>
        <time>2020-06-24T17:00:58Z</time>
      </trkpt>
      <trkpt lat="50.11028" lon="4.18488">
        <ele>191.2</ele>
        <time>2020-06-24T17:00:59Z</time>
      </trkpt>
      <trkpt lat="50.11023" lon="4.18494">
        <ele>191</ele>
        <time>2020-06-24T17:01:00Z</time>
      </trkpt>
      <trkpt lat="50.11018" lon="4.185">
        <ele>190.9</ele>
        <time>2020-06-24T17:01:01Z</time>
      </trkpt>
      <trkpt lat="50.11013" lon="4.18507">
        <ele>190.7</ele>
        <time>2020-06-24T17:01:02Z</time>
      </trkpt>
      <trkpt lat="50.11009" lon="4.18514">
        <ele>190.5</ele>
        <time>2020-06-24T17:01:03Z</time>
      </trkpt>
      <trkpt lat="50.11007" lon="4.1852">
        <ele>190.3</ele>
        <time>2020-06-24T17:01:04Z</time>
      </trkpt>
      <trkpt lat="50.11004" lon="4.18526">
        <ele>190.2</ele>
        <time>2020-06-24T17:01:05Z</time>
      </trkpt>
      <trkpt lat="50.11" lon="4.18531">
        <ele>190.1</ele>
        <time>2020-06-24T17:01:06Z</time>
      </trkpt>
      <trkpt lat="50.10996" lon="4.18536">
        <ele>189.9</ele>
        <time>2020-06-24T17:01:07Z</time>
      </trkpt>
      <trkpt lat="50.10992" lon="4.18543">
        <ele>189.7</ele>
        <time>2020-06-24T17:01:08Z</time>
      </trkpt>
      <trkpt lat="50.10988" lon="4.1855">
        <ele>189.5</ele>
        <time>2020-06-24T17:01:09Z</time>
      </trkpt>
      <trkpt lat="50.10983" lon="4.18556">
        <ele>189.4</ele>
        <time>2020-06-24T17:01:10Z</time>
      </trkpt>
      <trkpt lat="50.10979" lon="4.18562">
        <ele>189.1</ele>
        <time>2020-06-24T17:01:11Z</time>
      </trkpt>
      <trkpt lat="50.10974" lon="4.18568">
        <ele>188.9</ele>
        <time>2020-06-24T17:01:12Z</time>
      </trkpt>
      <trkpt lat="50.1097" lon="4.18575">
        <ele>188.6</ele>
        <time>2020-06-24T17:01:13Z</time>
      </trkpt>
      <trkpt lat="50.10965" lon="4.18582">
        <ele>188.3</ele>
        <time>2020-06-24T17:01:14Z</time>
      </trkpt>
      <trkpt lat="50.10961" lon="4.18588">
        <ele>188</ele>
        <time>2020-06-24T17:01:15Z</time>
      </trkpt>
      <trkpt lat="50.10957" lon="4.18594">
        <ele>187.8</ele>
        <time>2020-06-24T17:01:16Z</time>
      </trkpt>
      <trkpt lat="50.10952" lon="4.186">
        <ele>187.5</ele>
        <time>2020-06-24T17:01:17Z</time>
      </trkpt>
      <trkpt lat="50.10947" lon="4.18608">
        <ele>187.2</ele>
        <time>2020-06-24T17:01:18Z</time>
      </trkpt>
      <trkpt lat="50.10942" lon="4.18617">
        <ele>186.9</ele>
        <time>2020-06-24T17:01:19Z</time>
      </trkpt>
      <trkpt lat="50.10937" lon="4.18625">
        <ele>186.5</ele>
        <time>2020-06-24T17:01:20Z</time>
      </trkpt>
      <trkpt lat="50.10933" lon="4.18634">
        <ele>186.3</ele>
        <time>2020-06-24T17:01:21Z</time>
      </trkpt>
      <trkpt lat="50.1093" lon="4.18644">
        <ele>186</ele>
        <time>2020-06-24T17:01:22Z</time>
      </trkpt>
      <trkpt lat="50.10926" lon="4.18654">
        <ele>185.7</ele>
        <time>2020-06-24T17:01:23Z</time>
      </trkpt>
      <trkpt lat="50.10922" lon="4.18662">
        <ele>185.4</ele>
        <time>2020-06-24T17:01:24Z</time>
      </trkpt>
      <trkpt lat="50.10918" lon="4.18673">
        <ele>185.1</ele>
        <time>2020-06-24T17:01:25Z</time>
      </trkpt>
      <trkpt lat="50.10913" lon="4.18682">
        <ele>184.8</ele>
        <time>2020-06-24T17:01:26Z</time>
      </trkpt>
      <trkpt lat="50.10909" lon="4.18691">
        <ele>184.5</ele>
        <time>2020-06-24T17:01:27Z</time>
      </trkpt>
      <trkpt lat="50.10906" lon="4.18699">
        <ele>184.3</ele>
        <time>2020-06-24T17:01:28Z</time>
      </trkpt>
      <trkpt lat="50.10902" lon="4.18708">
        <ele>184.1</ele>
        <time>2020-06-24T17:01:29Z</time>
      </trkpt>
      <trkpt lat="50.10899" lon="4.18716">
        <ele>183.9</ele>
        <time>2020-06-24T17:01:30Z</time>
      </trkpt>
      <trkpt lat="50.10894" lon="4.18726">
        <ele>183.6</ele>
        <time>2020-06-24T17:01:31Z</time>
      </trkpt>
      <trkpt lat="50.1089" lon="4.18734">
        <ele>183.4</ele>
        <time>2020-06-24T17:01:32Z</time>
      </trkpt>
      <trkpt lat="50.10886" lon="4.18742">
        <ele>183.2</ele>
        <time>2020-06-24T17:01:33Z</time>
      </trkpt>
      <trkpt lat="50.10882" lon="4.1875">
        <ele>183</ele>
        <time>2020-06-24T17:01:34Z</time>
      </trkpt>
      <trkpt lat="50.10878" lon="4.18759">
        <ele>182.8</ele>
        <time>2020-06-24T17:01:35Z</time>
      </trkpt>
      <trkpt lat="50.10874" lon="4.18768">
        <ele>182.5</ele>
        <time>2020-06-24T17:01:36Z</time>
      </trkpt>
      <trkpt lat="50.1087" lon="4.18777">
        <ele>182.4</ele>
        <time>2020-06-24T17:01:37Z</time>
      </trkpt>
      <trkpt lat="50.10866" lon="4.18785">
        <ele>182.2</ele>
        <time>2020-06-24T17:01:38Z</time>
      </trkpt>
      <trkpt lat="50.10862" lon="4.18793">
        <ele>182.1</ele>
        <time>2020-06-24T17:01:39Z</time>
      </trkpt>
      <trkpt lat="50.10858" lon="4.188">
        <ele>182</ele>
        <time>2020-06-24T17:01:40Z</time>
      </trkpt>
      <trkpt lat="50.10855" lon="4.18808">
        <ele>181.8</ele>
        <time>2020-06-24T17:01:41Z</time>
      </trkpt>
      <trkpt lat="50.10852" lon="4.18815">
        <ele>181.8</ele>
        <time>2020-06-24T17:01:42Z</time>
      </trkpt>
      <trkpt lat="50.10849" lon="4.18821">
        <ele>181.7</ele>
        <time>2020-06-24T17:01:43Z</time>
      </trkpt>
      <trkpt lat="50.10846" lon="4.18829">
        <ele>181.6</ele>
        <time>2020-06-24T17:01:44Z</time>
      </trkpt>
      <trkpt lat="50.10843" lon="4.18837">
        <ele>181.5</ele>
        <time>2020-06-24T17:01:45Z</time>
      </trkpt>
      <trkpt lat="50.10839" lon="4.18846">
        <ele>181.4</ele>
        <time>2020-06-24T17:01:46Z</time>
      </trkpt>
      <trkpt lat="50.10835" lon="4.18856">
        <ele>181.2</ele>
        <time>2020-06-24T17:01:47Z</time>
      </trkpt>
      <trkpt lat="50.10832" lon="4.18867">
        <ele>181.1</ele>
        <time>2020-06-24T17:01:48Z</time>
      </trkpt>
      <trkpt lat="50.1083" lon="4.18876">
        <ele>181</ele>
        <time>2020-06-24T17:01:49Z</time>
      </trkpt>
      <trkpt lat="50.10828" lon="4.18885">
        <ele>181</ele>
        <time>2020-06-24T17:01:50Z</time>
      </trkpt>
      <trkpt lat="50.10825" lon="4.18894">
        <ele>181</ele>
        <time>2020-06-24T17:01:51Z</time>
      </trkpt>
      <trkpt lat="50.10823" lon="4.18902">
        <ele>181.1</ele>
        <time>2020-06-24T17:01:52Z</time>
      </trkpt>
      <trkpt lat="50.10822" lon="4.1891">
        <ele>181.2</ele>
        <time>2020-06-24T17:01:53Z</time>
      </trkpt>
      <trkpt lat="50.1082" lon="4.18919">
        <ele>181.3</ele>
        <time>2020-06-24T17:01:54Z</time>
      </trkpt>
      <trkpt lat="50.1082" lon="4.18929">
        <ele>181.4</ele>
        <time>2020-06-24T17:01:55Z</time>
      </trkpt>
      <trkpt lat="50.10819" lon="4.18939">
        <ele>181.5</ele>
        <time>2020-06-24T17:01:56Z</time>
      </trkpt>
      <trkpt lat="50.10818" lon="4.18949">
        <ele>181.6</ele>
        <time>2020-06-24T17:01:57Z</time>
      </trkpt>
      <trkpt lat="50.10817" lon="4.18958">
        <ele>181.7</ele>
        <time>2020-06-24T17:01:58Z</time>
      </trkpt>
      <trkpt lat="50.10816" lon="4.18967">
        <ele>181.9</ele>
        <time>2020-06-24T17:01:59Z</time>
      </trkpt>
      <trkpt lat="50.10815" lon="4.18976">
        <ele>182.2</ele>
        <time>2020-06-24T17:02:00Z</time>
      </trkpt>
      <trkpt lat="50.10814" lon="4.18984">
        <ele>182.4</ele>
        <time>2020-06-24T17:02:01Z</time>
      </trkpt>
      <trkpt lat="50.10814" lon="4.18991">
        <ele>182.6</ele>
        <time>2020-06-24T17:02:02Z</time>
      </trkpt>
      <trkpt lat="50.10813" lon="4.18998">
        <ele>182.8</ele>
        <time>2020-06-24T17:02:03Z</time>
      </trkpt>
      <trkpt lat="50.10812" lon="4.19005">
        <ele>182.9</ele>
        <time>2020-06-24T17:02:04Z</time>
      </trkpt>
      <trkpt lat="50.10811" lon="4.19013">
        <ele>183</ele>
        <time>2020-06-24T17:02:05Z</time>
      </trkpt>
      <trkpt lat="50.1081" lon="4.1902">
        <ele>183.1</ele>
        <time>2020-06-24T17:02:06Z</time>
      </trkpt>
      <trkpt lat="50.10809" lon="4.19027">
        <ele>183.2</ele>
        <time>2020-06-24T17:02:07Z</time>
      </trkpt>
      <trkpt lat="50.10807" lon="4.19035">
        <ele>183.3</ele>
        <time>2020-06-24T17:02:08Z</time>
      </trkpt>
      <trkpt lat="50.10806" lon="4.1904">
        <ele>183.4</ele>
        <time>2020-06-24T17:02:09Z</time>
      </trkpt>
      <trkpt lat="50.10804" lon="4.19047">
        <ele>183.6</ele>
        <time>2020-06-24T17:02:10Z</time>
      </trkpt>
      <trkpt lat="50.10802" lon="4.19054">
        <ele>183.7</ele>
        <time>2020-06-24T17:02:11Z</time>
      </trkpt>
      <trkpt lat="50.108" lon="4.1906">
        <ele>183.9</ele>
        <time>2020-06-24T17:02:12Z</time>
      </trkpt>
      <trkpt lat="50.10798" lon="4.19066">
        <ele>184</ele>
        <time>2020-06-24T17:02:13Z</time>
      </trkpt>
      <trkpt lat="50.10797" lon="4.19072">
        <ele>184.2</ele>
        <time>2020-06-24T17:02:14Z</time>
      </trkpt>
      <trkpt lat="50.10795" lon="4.19078">
        <ele>184.4</ele>
        <time>2020-06-24T17:02:15Z</time>
      </trkpt>
      <trkpt lat="50.10793" lon="4.19083">
        <ele>184.6</ele>
        <time>2020-06-24T17:02:16Z</time>
      </trkpt>
      <trkpt lat="50.10792" lon="4.19088">
        <ele>184.8</ele>
        <time>2020-06-24T17:02:17Z</time>
      </trkpt>
      <trkpt lat="50.10791" lon="4.19093">
        <ele>184.9</ele>
        <time>2020-06-24T17:02:18Z</time>
      </trkpt>
      <trkpt lat="50.10788" lon="4.19098">
        <ele>185.1</ele>
        <time>2020-06-24T17:02:19Z</time>
      </trkpt>
      <trkpt lat="50.10786" lon="4.19103">
        <ele>185.2</ele>
        <time>2020-06-24T17:02:20Z</time>
      </trkpt>
      <trkpt lat="50.10784" lon="4.19108">
        <ele>185.3</ele>
        <time>2020-06-24T17:02:21Z</time>
      </trkpt>
      <trkpt lat="50.10783" lon="4.19112">
        <ele>185.4</ele>
        <time>2020-06-24T17:02:22Z</time>
      </trkpt>
      <trkpt lat="50.10781" lon="4.19117">
        <ele>185.5</ele>
        <time>2020-06-24T17:02:23Z</time>
      </trkpt>
      <trkpt lat="50.1078" lon="4.19121">
        <ele>185.6</ele>
        <time>2020-06-24T17:02:24Z</time>
      </trkpt>
      <trkpt lat="50.10778" lon="4.19127">
        <ele>185.7</ele>
        <time>2020-06-24T17:02:25Z</time>
      </trkpt>
      <trkpt lat="50.10777" lon="4.19128">
        <ele>185.8</ele>
        <time>2020-06-24T17:02:26Z</time>
      </trkpt>
      <trkpt lat="50.10775" lon="4.19134">
        <ele>185.9</ele>
        <time>2020-06-24T17:02:27Z</time>
      </trkpt>
      <trkpt lat="50.10772" lon="4.19139">
        <ele>186</ele>
        <time>2020-06-24T17:02:28Z</time>
      </trkpt>
      <trkpt lat="50.1077" lon="4.19145">
        <ele>186.1</ele>
        <time>2020-06-24T17:02:29Z</time>
      </trkpt>
      <trkpt lat="50.10768" lon="4.19149">
        <ele>186.2</ele>
        <time>2020-06-24T17:02:30Z</time>
      </trkpt>
      <trkpt lat="50.10766" lon="4.19155">
        <ele>186.2</ele>
        <time>2020-06-24T17:02:31Z</time>
      </trkpt>
      <trkpt lat="50.10764" lon="4.1916">
        <ele>186.4</ele>
        <time>2020-06-24T17:02:32Z</time>
      </trkpt>
      <trkpt lat="50.10761" lon="4.19164">
        <ele>186.5</ele>
        <time>2020-06-24T17:02:33Z</time>
      </trkpt>
      <trkpt lat="50.10758" lon="4.19171">
        <ele>186.5</ele>
        <time>2020-06-24T17:02:34Z</time>
      </trkpt>
      <trkpt lat="50.10754" lon="4.19176">
        <ele>186.5</ele>
        <time>2020-06-24T17:02:35Z</time>
      </trkpt>
      <trkpt lat="50.10751" lon="4.19179">
        <ele>186.5</ele>
        <time>2020-06-24T17:02:36Z</time>
      </trkpt>
      <trkpt lat="50.10748" lon="4.19184">
        <ele>186.5</ele>
        <time>2020-06-24T17:02:37Z</time>
      </trkpt>
      <trkpt lat="50.10744" lon="4.19189">
        <ele>186.5</ele>
        <time>2020-06-24T17:02:38Z</time>
      </trkpt>
      <trkpt lat="50.10741" lon="4.19195">
        <ele>186.4</ele>
        <time>2020-06-24T17:02:39Z</time>
      </trkpt>
      <trkpt lat="50.10736" lon="4.19202">
        <ele>186.2</ele>
        <time>2020-06-24T17:02:40Z</time>
      </trkpt>
      <trkpt lat="50.10732" lon="4.19209">
        <ele>186.1</ele>
        <time>2020-06-24T17:02:41Z</time>
      </trkpt>
      <trkpt lat="50.10728" lon="4.19215">
        <ele>185.9</ele>
        <time>2020-06-24T17:02:42Z</time>
      </trkpt>
      <trkpt lat="50.10724" lon="4.1922">
        <ele>185.7</ele>
        <time>2020-06-24T17:02:43Z</time>
      </trkpt>
      <trkpt lat="50.1072" lon="4.19228">
        <ele>185.5</ele>
        <time>2020-06-24T17:02:44Z</time>
      </trkpt>
      <trkpt lat="50.10716" lon="4.19235">
        <ele>185.3</ele>
        <time>2020-06-24T17:02:45Z</time>
      </trkpt>
      <trkpt lat="50.10713" lon="4.19243">
        <ele>185.1</ele>
        <time>2020-06-24T17:02:46Z</time>
      </trkpt>
      <trkpt lat="50.1071" lon="4.19251">
        <ele>184.9</ele>
        <time>2020-06-24T17:02:47Z</time>
      </trkpt>
      <trkpt lat="50.10707" lon="4.19259">
        <ele>184.7</ele>
        <time>2020-06-24T17:02:48Z</time>
      </trkpt>
      <trkpt lat="50.10701" lon="4.19267">
        <ele>184.5</ele>
        <time>2020-06-24T17:02:49Z</time>
      </trkpt>
      <trkpt lat="50.10697" lon="4.19275">
        <ele>184.2</ele>
        <time>2020-06-24T17:02:50Z</time>
      </trkpt>
      <trkpt lat="50.10692" lon="4.19284">
        <ele>184</ele>
        <time>2020-06-24T17:02:51Z</time>
      </trkpt>
      <trkpt lat="50.10687" lon="4.19291">
        <ele>183.9</ele>
        <time>2020-06-24T17:02:52Z</time>
      </trkpt>
      <trkpt lat="50.10682" lon="4.19299">
        <ele>183.7</ele>
        <time>2020-06-24T17:02:53Z</time>
      </trkpt>
      <trkpt lat="50.10677" lon="4.19307">
        <ele>183.6</ele>
        <time>2020-06-24T17:02:54Z</time>
      </trkpt>
      <trkpt lat="50.10673" lon="4.19314">
        <ele>183.5</ele>
        <time>2020-06-24T17:02:55Z</time>
      </trkpt>
      <trkpt lat="50.10666" lon="4.19322">
        <ele>183.5</ele>
        <time>2020-06-24T17:02:56Z</time>
      </trkpt>
      <trkpt lat="50.10661" lon="4.19329">
        <ele>183.4</ele>
        <time>2020-06-24T17:02:57Z</time>
      </trkpt>
      <trkpt lat="50.10656" lon="4.19335">
        <ele>183.4</ele>
        <time>2020-06-24T17:02:58Z</time>
      </trkpt>
      <trkpt lat="50.1065" lon="4.19338">
        <ele>183.4</ele>
        <time>2020-06-24T17:02:59Z</time>
      </trkpt>
      <trkpt lat="50.10645" lon="4.19341">
        <ele>183.5</ele>
        <time>2020-06-24T17:03:00Z</time>
      </trkpt>
      <trkpt lat="50.10639" lon="4.19342">
        <ele>183.5</ele>
        <time>2020-06-24T17:03:01Z</time>
      </trkpt>
      <trkpt lat="50.10633" lon="4.19342">
        <ele>183.6</ele>
        <time>2020-06-24T17:03:02Z</time>
      </trkpt>
      <trkpt lat="50.10627" lon="4.19343">
        <ele>183.6</ele>
        <time>2020-06-24T17:03:03Z</time>
      </trkpt>
      <trkpt lat="50.10621" lon="4.19345">
        <ele>183.7</ele>
        <time>2020-06-24T17:03:04Z</time>
      </trkpt>
      <trkpt lat="50.10615" lon="4.19346">
        <ele>183.8</ele>
        <time>2020-06-24T17:03:05Z</time>
      </trkpt>
      <trkpt lat="50.10611" lon="4.19347">
        <ele>183.8</ele>
        <time>2020-06-24T17:03:06Z</time>
      </trkpt>
      <trkpt lat="50.10605" lon="4.19348">
        <ele>183.9</ele>
        <time>2020-06-24T17:03:07Z</time>
      </trkpt>
      <trkpt lat="50.106" lon="4.19348">
        <ele>184.1</ele>
        <time>2020-06-24T17:03:08Z</time>
      </trkpt>
      <trkpt lat="50.10594" lon="4.19348">
        <ele>184.2</ele>
        <time>2020-06-24T17:03:09Z</time>
      </trkpt>
      <trkpt lat="50.10589" lon="4.19348">
        <ele>184.3</ele>
        <time>2020-06-24T17:03:10Z</time>
      </trkpt>
      <trkpt lat="50.10585" lon="4.19348">
        <ele>184.5</ele>
        <time>2020-06-24T17:03:11Z</time>
      </trkpt>
      <trkpt lat="50.1058" lon="4.19348">
        <ele>184.6</ele>
        <time>2020-06-24T17:03:12Z</time>
      </trkpt>
      <trkpt lat="50.10575" lon="4.19347">
        <ele>184.7</ele>
        <time>2020-06-24T17:03:13Z</time>
      </trkpt>
      <trkpt lat="50.1057" lon="4.19347">
        <ele>184.9</ele>
        <time>2020-06-24T17:03:14Z</time>
      </trkpt>
      <trkpt lat="50.10565" lon="4.19345">
        <ele>185</ele>
        <time>2020-06-24T17:03:15Z</time>
      </trkpt>
      <trkpt lat="50.1056" lon="4.19344">
        <ele>185.1</ele>
        <time>2020-06-24T17:03:16Z</time>
      </trkpt>
      <trkpt lat="50.10556" lon="4.19343">
        <ele>185.1</ele>
        <time>2020-06-24T17:03:17Z</time>
      </trkpt>
      <trkpt lat="50.10551" lon="4.19342">
        <ele>185.2</ele>
        <time>2020-06-24T17:03:18Z</time>
      </trkpt>
      <trkpt lat="50.10546" lon="4.1934">
        <ele>185.2</ele>
        <time>2020-06-24T17:03:19Z</time>
      </trkpt>
      <trkpt lat="50.10541" lon="4.19339">
        <ele>185.2</ele>
        <time>2020-06-24T17:03:20Z</time>
      </trkpt>
      <trkpt lat="50.10537" lon="4.19337">
        <ele>185.1</ele>
        <time>2020-06-24T17:03:21Z</time>
      </trkpt>
      <trkpt lat="50.10533" lon="4.19336">
        <ele>185.1</ele>
        <time>2020-06-24T17:03:22Z</time>
      </trkpt>
      <trkpt lat="50.10528" lon="4.19334">
        <ele>185</ele>
        <time>2020-06-24T17:03:23Z</time>
      </trkpt>
      <trkpt lat="50.10523" lon="4.19332">
        <ele>184.8</ele>
        <time>2020-06-24T17:03:24Z</time>
      </trkpt>
      <trkpt lat="50.10518" lon="4.19331">
        <ele>184.7</ele>
        <time>2020-06-24T17:03:25Z</time>
      </trkpt>
      <trkpt lat="50.10514" lon="4.19331">
        <ele>184.5</ele>
        <time>2020-06-24T17:03:26Z</time>
      </trkpt>
      <trkpt lat="50.10509" lon="4.1933">
        <ele>184.3</ele>
        <time>2020-06-24T17:03:27Z</time>
      </trkpt>
      <trkpt lat="50.10504" lon="4.1933">
        <ele>184.1</ele>
        <time>2020-06-24T17:03:28Z</time>
      </trkpt>
      <trkpt lat="50.10499" lon="4.19329">
        <ele>183.9</ele>
        <time>2020-06-24T17:03:29Z</time>
      </trkpt>
      <trkpt lat="50.10493" lon="4.19328">
        <ele>183.7</ele>
        <time>2020-06-24T17:03:30Z</time>
      </trkpt>
      <trkpt lat="50.10486" lon="4.19328">
        <ele>183.5</ele>
        <time>2020-06-24T17:03:31Z</time>
      </trkpt>
      <trkpt lat="50.10479" lon="4.19328">
        <ele>183.2</ele>
        <time>2020-06-24T17:03:32Z</time>
      </trkpt>
      <trkpt lat="50.10472" lon="4.19327">
        <ele>183.1</ele>
        <time>2020-06-24T17:03:33Z</time>
      </trkpt>
      <trkpt lat="50.10465" lon="4.19326">
        <ele>182.9</ele>
        <time>2020-06-24T17:03:34Z</time>
      </trkpt>
      <trkpt lat="50.10458" lon="4.19325">
        <ele>182.8</ele>
        <time>2020-06-24T17:03:35Z</time>
      </trkpt>
      <trkpt lat="50.10451" lon="4.19324">
        <ele>182.7</ele>
        <time>2020-06-24T17:03:36Z</time>
      </trkpt>
      <trkpt lat="50.10444" lon="4.19323">
        <ele>182.7</ele>
        <time>2020-06-24T17:03:37Z</time>
      </trkpt>
      <trkpt lat="50.10437" lon="4.19321">
        <ele>182.7</ele>
        <time>2020-06-24T17:03:38Z</time>
      </trkpt>
      <trkpt lat="50.10432" lon="4.1932">
        <ele>182.7</ele>
        <time>2020-06-24T17:03:39Z</time>
      </trkpt>
      <trkpt lat="50.10425" lon="4.1932">
        <ele>182.7</ele>
        <time>2020-06-24T17:03:40Z</time>
      </trkpt>
      <trkpt lat="50.10419" lon="4.19318">
        <ele>182.7</ele>
        <time>2020-06-24T17:03:41Z</time>
      </trkpt>
      <trkpt lat="50.10412" lon="4.19317">
        <ele>182.7</ele>
        <time>2020-06-24T17:03:42Z</time>
      </trkpt>
      <trkpt lat="50.10405" lon="4.19316">
        <ele>182.7</ele>
        <time>2020-06-24T17:03:43Z</time>
      </trkpt>
      <trkpt lat="50.10398" lon="4.19316">
        <ele>182.7</ele>
        <time>2020-06-24T17:03:44Z</time>
      </trkpt>
      <trkpt lat="50.10391" lon="4.19315">
        <ele>182.8</ele>
        <time>2020-06-24T17:03:45Z</time>
      </trkpt>
      <trkpt lat="50.10386" lon="4.19315">
        <ele>182.9</ele>
        <time>2020-06-24T17:03:46Z</time>
      </trkpt>
      <trkpt lat="50.1038" lon="4.19315">
        <ele>183.1</ele>
        <time>2020-06-24T17:03:47Z</time>
      </trkpt>
      <trkpt lat="50.10374" lon="4.19315">
        <ele>183.2</ele>
        <time>2020-06-24T17:03:48Z</time>
      </trkpt>
      <trkpt lat="50.10367" lon="4.19315">
        <ele>183.4</ele>
        <time>2020-06-24T17:03:49Z</time>
      </trkpt>
      <trkpt lat="50.10362" lon="4.19314">
        <ele>183.5</ele>
        <time>2020-06-24T17:03:50Z</time>
      </trkpt>
      <trkpt lat="50.10356" lon="4.19314">
        <ele>183.7</ele>
        <time>2020-06-24T17:03:51Z</time>
      </trkpt>
      <trkpt lat="50.1035" lon="4.19314">
        <ele>183.8</ele>
        <time>2020-06-24T17:03:52Z</time>
      </trkpt>
      <trkpt lat="50.10345" lon="4.19314">
        <ele>184</ele>
        <time>2020-06-24T17:03:53Z</time>
      </trkpt>
      <trkpt lat="50.1034" lon="4.19314">
        <ele>184.1</ele>
        <time>2020-06-24T17:03:54Z</time>
      </trkpt>
      <trkpt lat="50.10335" lon="4.19315">
        <ele>184.3</ele>
        <time>2020-06-24T17:03:55Z</time>
      </trkpt>
      <trkpt lat="50.1033" lon="4.19315">
        <ele>184.5</ele>
        <time>2020-06-24T17:03:56Z</time>
      </trkpt>
      <trkpt lat="50.10325" lon="4.19315">
        <ele>184.6</ele>
        <time>2020-06-24T17:03:57Z</time>
      </trkpt>
      <trkpt lat="50.10321" lon="4.19315">
        <ele>184.7</ele>
        <time>2020-06-24T17:03:58Z</time>
      </trkpt>
      <trkpt lat="50.10315" lon="4.19315">
        <ele>184.9</ele>
        <time>2020-06-24T17:03:59Z</time>
      </trkpt>
      <trkpt lat="50.1031" lon="4.19315">
        <ele>185.1</ele>
        <time>2020-06-24T17:04:00Z</time>
      </trkpt>
      <trkpt lat="50.10306" lon="4.19315">
        <ele>185.2</ele>
        <time>2020-06-24T17:04:01Z</time>
      </trkpt>
      <trkpt lat="50.10301" lon="4.19315">
        <ele>185.3</ele>
        <time>2020-06-24T17:04:02Z</time>
      </trkpt>
      <trkpt lat="50.10297" lon="4.19315">
        <ele>185.5</ele>
        <time>2020-06-24T17:04:03Z</time>
      </trkpt>
      <trkpt lat="50.10292" lon="4.19315">
        <ele>185.6</ele>
        <time>2020-06-24T17:04:04Z</time>
      </trkpt>
      <trkpt lat="50.10287" lon="4.19315">
        <ele>185.8</ele>
        <time>2020-06-24T17:04:05Z</time>
      </trkpt>
      <trkpt lat="50.10282" lon="4.19316">
        <ele>185.9</ele>
        <time>2020-06-24T17:04:06Z</time>
      </trkpt>
      <trkpt lat="50.10278" lon="4.19315">
        <ele>186.1</ele>
        <time>2020-06-24T17:04:07Z</time>
      </trkpt>
      <trkpt lat="50.10272" lon="4.19316">
        <ele>186.2</ele>
        <time>2020-06-24T17:04:08Z</time>
      </trkpt>
      <trkpt lat="50.10266" lon="4.19315">
        <ele>186.3</ele>
        <time>2020-06-24T17:04:09Z</time>
      </trkpt>
      <trkpt lat="50.1026" lon="4.19315">
        <ele>186.5</ele>
        <time>2020-06-24T17:04:10Z</time>
      </trkpt>
      <trkpt lat="50.10254" lon="4.19315">
        <ele>186.7</ele>
        <time>2020-06-24T17:04:11Z</time>
      </trkpt>
      <trkpt lat="50.1025" lon="4.19315">
        <ele>186.8</ele>
        <time>2020-06-24T17:04:12Z</time>
      </trkpt>
      <trkpt lat="50.10245" lon="4.19315">
        <ele>186.9</ele>
        <time>2020-06-24T17:04:13Z</time>
      </trkpt>
      <trkpt lat="50.1024" lon="4.19316">
        <ele>187</ele>
        <time>2020-06-24T17:04:14Z</time>
      </trkpt>
      <trkpt lat="50.10235" lon="4.19316">
        <ele>187.1</ele>
        <time>2020-06-24T17:04:15Z</time>
      </trkpt>
      <trkpt lat="50.10229" lon="4.19316">
        <ele>187.2</ele>
        <time>2020-06-24T17:04:16Z</time>
      </trkpt>
      <trkpt lat="50.10224" lon="4.19316">
        <ele>187.3</ele>
        <time>2020-06-24T17:04:17Z</time>
      </trkpt>
      <trkpt lat="50.10218" lon="4.19315">
        <ele>187.5</ele>
        <time>2020-06-24T17:04:18Z</time>
      </trkpt>
      <trkpt lat="50.10213" lon="4.19315">
        <ele>187.6</ele>
        <time>2020-06-24T17:04:19Z</time>
      </trkpt>
      <trkpt lat="50.10207" lon="4.19315">
        <ele>187.7</ele>
        <time>2020-06-24T17:04:20Z</time>
      </trkpt>
      <trkpt lat="50.10202" lon="4.19316">
        <ele>187.9</ele>
        <time>2020-06-24T17:04:21Z</time>
      </trkpt>
      <trkpt lat="50.10198" lon="4.19316">
        <ele>188</ele>
        <time>2020-06-24T17:04:22Z</time>
      </trkpt>
      <trkpt lat="50.10192" lon="4.19316">
        <ele>188.2</ele>
        <time>2020-06-24T17:04:23Z</time>
      </trkpt>
      <trkpt lat="50.10186" lon="4.19316">
        <ele>188.3</ele>
        <time>2020-06-24T17:04:24Z</time>
      </trkpt>
      <trkpt lat="50.10181" lon="4.19316">
        <ele>188.5</ele>
        <time>2020-06-24T17:04:25Z</time>
      </trkpt>
      <trkpt lat="50.10176" lon="4.19315">
        <ele>188.6</ele>
        <time>2020-06-24T17:04:26Z</time>
      </trkpt>
      <trkpt lat="50.10171" lon="4.19315">
        <ele>188.8</ele>
        <time>2020-06-24T17:04:27Z</time>
      </trkpt>
      <trkpt lat="50.10166" lon="4.19315">
        <ele>188.9</ele>
        <time>2020-06-24T17:04:28Z</time>
      </trkpt>
      <trkpt lat="50.1016" lon="4.19316">
        <ele>189.1</ele>
        <time>2020-06-24T17:04:29Z</time>
      </trkpt>
      <trkpt lat="50.10157" lon="4.19317">
        <ele>189.1</ele>
        <time>2020-06-24T17:04:30Z</time>
      </trkpt>
      <trkpt lat="50.10151" lon="4.19318">
        <ele>189.3</ele>
        <time>2020-06-24T17:04:31Z</time>
      </trkpt>
      <trkpt lat="50.10147" lon="4.19318">
        <ele>189.4</ele>
        <time>2020-06-24T17:04:32Z</time>
      </trkpt>
      <trkpt lat="50.10143" lon="4.19319">
        <ele>189.5</ele>
        <time>2020-06-24T17:04:33Z</time>
      </trkpt>
      <trkpt lat="50.10138" lon="4.1932">
        <ele>189.7</ele>
        <time>2020-06-24T17:04:34Z</time>
      </trkpt>
      <trkpt lat="50.10132" lon="4.19321">
        <ele>189.9</ele>
        <time>2020-06-24T17:04:35Z</time>
      </trkpt>
      <trkpt lat="50.10127" lon="4.19323">
        <ele>190.1</ele>
        <time>2020-06-24T17:04:36Z</time>
      </trkpt>
      <trkpt lat="50.10123" lon="4.19326">
        <ele>190.3</ele>
        <time>2020-06-24T17:04:37Z</time>
      </trkpt>
      <trkpt lat="50.10119" lon="4.19328">
        <ele>190.5</ele>
        <time>2020-06-24T17:04:38Z</time>
      </trkpt>
      <trkpt lat="50.10114" lon="4.19331">
        <ele>190.7</ele>
        <time>2020-06-24T17:04:39Z</time>
      </trkpt>
      <trkpt lat="50.1011" lon="4.19334">
        <ele>190.9</ele>
        <time>2020-06-24T17:04:40Z</time>
      </trkpt>
      <trkpt lat="50.10106" lon="4.19335">
        <ele>191</ele>
        <time>2020-06-24T17:04:41Z</time>
      </trkpt>
      <trkpt lat="50.10102" lon="4.19338">
        <ele>191.2</ele>
        <time>2020-06-24T17:04:42Z</time>
      </trkpt>
      <trkpt lat="50.10098" lon="4.19341">
        <ele>191.3</ele>
        <time>2020-06-24T17:04:43Z</time>
      </trkpt>
      <trkpt lat="50.10094" lon="4.19344">
        <ele>191.4</ele>
        <time>2020-06-24T17:04:44Z</time>
      </trkpt>
      <trkpt lat="50.10089" lon="4.19347">
        <ele>191.4</ele>
        <time>2020-06-24T17:04:45Z</time>
      </trkpt>
      <trkpt lat="50.10086" lon="4.1935">
        <ele>191.4</ele>
        <time>2020-06-24T17:04:46Z</time>
      </trkpt>
      <trkpt lat="50.10082" lon="4.19353">
        <ele>191.4</ele>
        <time>2020-06-24T17:04:47Z</time>
      </trkpt>
      <trkpt lat="50.10078" lon="4.19357">
        <ele>191.4</ele>
        <time>2020-06-24T17:04:48Z</time>
      </trkpt>
      <trkpt lat="50.10073" lon="4.1936">
        <ele>191.5</ele>
        <time>2020-06-24T17:04:49Z</time>
      </trkpt>
      <trkpt lat="50.10069" lon="4.19364">
        <ele>191.5</ele>
        <time>2020-06-24T17:04:50Z</time>
      </trkpt>
      <trkpt lat="50.10065" lon="4.19367">
        <ele>191.5</ele>
        <time>2020-06-24T17:04:51Z</time>
      </trkpt>
      <trkpt lat="50.10061" lon="4.1937">
        <ele>191.5</ele>
        <time>2020-06-24T17:04:52Z</time>
      </trkpt>
      <trkpt lat="50.10056" lon="4.19372">
        <ele>191.5</ele>
        <time>2020-06-24T17:04:53Z</time>
      </trkpt>
      <trkpt lat="50.10052" lon="4.19374">
        <ele>191.5</ele>
        <time>2020-06-24T17:04:54Z</time>
      </trkpt>
      <trkpt lat="50.10047" lon="4.19377">
        <ele>191.5</ele>
        <time>2020-06-24T17:04:55Z</time>
      </trkpt>
      <trkpt lat="50.10043" lon="4.1938">
        <ele>191.5</ele>
        <time>2020-06-24T17:04:56Z</time>
      </trkpt>
      <trkpt lat="50.10038" lon="4.19382">
        <ele>191.5</ele>
        <time>2020-06-24T17:04:57Z</time>
      </trkpt>
      <trkpt lat="50.10033" lon="4.19383">
        <ele>191.4</ele>
        <time>2020-06-24T17:04:58Z</time>
      </trkpt>
      <trkpt lat="50.10029" lon="4.19385">
        <ele>191.4</ele>
        <time>2020-06-24T17:04:59Z</time>
      </trkpt>
      <trkpt lat="50.10025" lon="4.19387">
        <ele>191.4</ele>
        <time>2020-06-24T17:05:00Z</time>
      </trkpt>
      <trkpt lat="50.1002" lon="4.19389">
        <ele>191.3</ele>
        <time>2020-06-24T17:05:01Z</time>
      </trkpt>
      <trkpt lat="50.10016" lon="4.19391">
        <ele>191.2</ele>
        <time>2020-06-24T17:05:02Z</time>
      </trkpt>
      <trkpt lat="50.10012" lon="4.19392">
        <ele>191.1</ele>
        <time>2020-06-24T17:05:03Z</time>
      </trkpt>
      <trkpt lat="50.10007" lon="4.19394">
        <ele>191</ele>
        <time>2020-06-24T17:05:04Z</time>
      </trkpt>
      <trkpt lat="50.10003" lon="4.19395">
        <ele>190.9</ele>
        <time>2020-06-24T17:05:05Z</time>
      </trkpt>
      <trkpt lat="50.09999" lon="4.19396">
        <ele>190.7</ele>
        <time>2020-06-24T17:05:06Z</time>
      </trkpt>
      <trkpt lat="50.09994" lon="4.19396">
        <ele>190.6</ele>
        <time>2020-06-24T17:05:07Z</time>
      </trkpt>
      <trkpt lat="50.09989" lon="4.19396">
        <ele>190.4</ele>
        <time>2020-06-24T17:05:08Z</time>
      </trkpt>
      <trkpt lat="50.09984" lon="4.19396">
        <ele>190.2</ele>
        <time>2020-06-24T17:05:09Z</time>
      </trkpt>
      <trkpt lat="50.09978" lon="4.19396">
        <ele>189.9</ele>
        <time>2020-06-24T17:05:10Z</time>
      </trkpt>
      <trkpt lat="50.09972" lon="4.19396">
        <ele>189.7</ele>
        <time>2020-06-24T17:05:11Z</time>
      </trkpt>
      <trkpt lat="50.09966" lon="4.19397">
        <ele>189.4</ele>
        <time>2020-06-24T17:05:12Z</time>
      </trkpt>
      <trkpt lat="50.09961" lon="4.19398">
        <ele>189.2</ele>
        <time>2020-06-24T17:05:13Z</time>
      </trkpt>
      <trkpt lat="50.09955" lon="4.19398">
        <ele>189</ele>
        <time>2020-06-24T17:05:14Z</time>
      </trkpt>
      <trkpt lat="50.0995" lon="4.19399">
        <ele>188.7</ele>
        <time>2020-06-24T17:05:15Z</time>
      </trkpt>
      <trkpt lat="50.09944" lon="4.194">
        <ele>188.5</ele>
        <time>2020-06-24T17:05:16Z</time>
      </trkpt>
      <trkpt lat="50.09938" lon="4.19401">
        <ele>188.2</ele>
        <time>2020-06-24T17:05:17Z</time>
      </trkpt>
      <trkpt lat="50.09931" lon="4.19401">
        <ele>187.9</ele>
        <time>2020-06-24T17:05:18Z</time>
      </trkpt>
      <trkpt lat="50.09924" lon="4.19402">
        <ele>187.6</ele>
        <time>2020-06-24T17:05:19Z</time>
      </trkpt>
      <trkpt lat="50.09917" lon="4.19402">
        <ele>187.3</ele>
        <time>2020-06-24T17:05:20Z</time>
      </trkpt>
      <trkpt lat="50.0991" lon="4.19403">
        <ele>186.9</ele>
        <time>2020-06-24T17:05:21Z</time>
      </trkpt>
      <trkpt lat="50.09903" lon="4.19404">
        <ele>186.6</ele>
        <time>2020-06-24T17:05:22Z</time>
      </trkpt>
      <trkpt lat="50.09896" lon="4.19405">
        <ele>186.2</ele>
        <time>2020-06-24T17:05:23Z</time>
      </trkpt>
      <trkpt lat="50.09889" lon="4.19406">
        <ele>185.8</ele>
        <time>2020-06-24T17:05:24Z</time>
      </trkpt>
      <trkpt lat="50.09882" lon="4.19407">
        <ele>185.4</ele>
        <time>2020-06-24T17:05:25Z</time>
      </trkpt>
      <trkpt lat="50.09876" lon="4.19406">
        <ele>185.1</ele>
        <time>2020-06-24T17:05:26Z</time>
      </trkpt>
      <trkpt lat="50.09868" lon="4.19407">
        <ele>184.9</ele>
        <time>2020-06-24T17:05:27Z</time>
      </trkpt>
      <trkpt lat="50.0986" lon="4.19408">
        <ele>184.6</ele>
        <time>2020-06-24T17:05:28Z</time>
      </trkpt>
      <trkpt lat="50.09851" lon="4.19408">
        <ele>184.2</ele>
        <time>2020-06-24T17:05:29Z</time>
      </trkpt>
      <trkpt lat="50.09842" lon="4.19409">
        <ele>184</ele>
        <time>2020-06-24T17:05:30Z</time>
      </trkpt>
      <trkpt lat="50.09835" lon="4.19408">
        <ele>183.9</ele>
        <time>2020-06-24T17:05:31Z</time>
      </trkpt>
      <trkpt lat="50.09827" lon="4.19407">
        <ele>183.8</ele>
        <time>2020-06-24T17:05:32Z</time>
      </trkpt>
      <trkpt lat="50.09819" lon="4.19406">
        <ele>183.7</ele>
        <time>2020-06-24T17:05:33Z</time>
      </trkpt>
      <trkpt lat="50.09812" lon="4.19405">
        <ele>183.5</ele>
        <time>2020-06-24T17:05:34Z</time>
      </trkpt>
      <trkpt lat="50.09804" lon="4.19405">
        <ele>183.5</ele>
        <time>2020-06-24T17:05:35Z</time>
      </trkpt>
      <trkpt lat="50.09798" lon="4.19404">
        <ele>183.4</ele>
        <time>2020-06-24T17:05:36Z</time>
      </trkpt>
      <trkpt lat="50.09791" lon="4.19403">
        <ele>183.3</ele>
        <time>2020-06-24T17:05:37Z</time>
      </trkpt>
      <trkpt lat="50.09785" lon="4.19403">
        <ele>183.3</ele>
        <time>2020-06-24T17:05:38Z</time>
      </trkpt>
      <trkpt lat="50.09778" lon="4.19403">
        <ele>183.2</ele>
        <time>2020-06-24T17:05:39Z</time>
      </trkpt>
      <trkpt lat="50.09773" lon="4.19403">
        <ele>183.2</ele>
        <time>2020-06-24T17:05:40Z</time>
      </trkpt>
      <trkpt lat="50.09767" lon="4.19403">
        <ele>183.1</ele>
        <time>2020-06-24T17:05:41Z</time>
      </trkpt>
      <trkpt lat="50.09762" lon="4.19403">
        <ele>183.1</ele>
        <time>2020-06-24T17:05:42Z</time>
      </trkpt>
      <trkpt lat="50.09757" lon="4.19404">
        <ele>183</ele>
        <time>2020-06-24T17:05:43Z</time>
      </trkpt>
      <trkpt lat="50.09751" lon="4.19403">
        <ele>182.9</ele>
        <time>2020-06-24T17:05:44Z</time>
      </trkpt>
      <trkpt lat="50.09747" lon="4.19403">
        <ele>182.8</ele>
        <time>2020-06-24T17:05:45Z</time>
      </trkpt>
      <trkpt lat="50.09741" lon="4.19404">
        <ele>182.8</ele>
        <time>2020-06-24T17:05:46Z</time>
      </trkpt>
      <trkpt lat="50.09736" lon="4.19405">
        <ele>182.7</ele>
        <time>2020-06-24T17:05:47Z</time>
      </trkpt>
      <trkpt lat="50.0973" lon="4.19406">
        <ele>182.6</ele>
        <time>2020-06-24T17:05:48Z</time>
      </trkpt>
      <trkpt lat="50.09726" lon="4.19407">
        <ele>182.6</ele>
        <time>2020-06-24T17:05:49Z</time>
      </trkpt>
      <trkpt lat="50.09721" lon="4.1941">
        <ele>182.5</ele>
        <time>2020-06-24T17:05:50Z</time>
      </trkpt>
      <trkpt lat="50.09717" lon="4.19413">
        <ele>182.5</ele>
        <time>2020-06-24T17:05:51Z</time>
      </trkpt>
      <trkpt lat="50.09712" lon="4.19416">
        <ele>182.5</ele>
        <time>2020-06-24T17:05:52Z</time>
      </trkpt>
      <trkpt lat="50.09708" lon="4.19419">
        <ele>182.5</ele>
        <time>2020-06-24T17:05:53Z</time>
      </trkpt>
      <trkpt lat="50.09704" lon="4.19423">
        <ele>182.5</ele>
        <time>2020-06-24T17:05:54Z</time>
      </trkpt>
      <trkpt lat="50.097" lon="4.19426">
        <ele>182.5</ele>
        <time>2020-06-24T17:05:55Z</time>
      </trkpt>
      <trkpt lat="50.09696" lon="4.1943">
        <ele>182.5</ele>
        <time>2020-06-24T17:05:56Z</time>
      </trkpt>
      <trkpt lat="50.09692" lon="4.19434">
        <ele>182.5</ele>
        <time>2020-06-24T17:05:57Z</time>
      </trkpt>
      <trkpt lat="50.09689" lon="4.19437">
        <ele>182.5</ele>
        <time>2020-06-24T17:05:58Z</time>
      </trkpt>
      <trkpt lat="50.09685" lon="4.19441">
        <ele>182.5</ele>
        <time>2020-06-24T17:05:59Z</time>
      </trkpt>
      <trkpt lat="50.09681" lon="4.19445">
        <ele>182.5</ele>
        <time>2020-06-24T17:06:00Z</time>
      </trkpt>
      <trkpt lat="50.09677" lon="4.19448">
        <ele>182.5</ele>
        <time>2020-06-24T17:06:01Z</time>
      </trkpt>
      <trkpt lat="50.09673" lon="4.19452">
        <ele>182.5</ele>
        <time>2020-06-24T17:06:02Z</time>
      </trkpt>
      <trkpt lat="50.09669" lon="4.19456">
        <ele>182.4</ele>
        <time>2020-06-24T17:06:03Z</time>
      </trkpt>
      <trkpt lat="50.09665" lon="4.19462">
        <ele>182.4</ele>
        <time>2020-06-24T17:06:04Z</time>
      </trkpt>
      <trkpt lat="50.0966" lon="4.19467">
        <ele>182.4</ele>
        <time>2020-06-24T17:06:05Z</time>
      </trkpt>
      <trkpt lat="50.09656" lon="4.19472">
        <ele>182.4</ele>
        <time>2020-06-24T17:06:06Z</time>
      </trkpt>
      <trkpt lat="50.09651" lon="4.19476">
        <ele>182.4</ele>
        <time>2020-06-24T17:06:07Z</time>
      </trkpt>
      <trkpt lat="50.09646" lon="4.1948">
        <ele>182.4</ele>
        <time>2020-06-24T17:06:08Z</time>
      </trkpt>
      <trkpt lat="50.09641" lon="4.19486">
        <ele>182.4</ele>
        <time>2020-06-24T17:06:09Z</time>
      </trkpt>
      <trkpt lat="50.09636" lon="4.19492">
        <ele>182.4</ele>
        <time>2020-06-24T17:06:10Z</time>
      </trkpt>
      <trkpt lat="50.09631" lon="4.195">
        <ele>182.4</ele>
        <time>2020-06-24T17:06:11Z</time>
      </trkpt>
      <trkpt lat="50.09627" lon="4.19508">
        <ele>182.5</ele>
        <time>2020-06-24T17:06:12Z</time>
      </trkpt>
      <trkpt lat="50.09622" lon="4.19515">
        <ele>182.5</ele>
        <time>2020-06-24T17:06:13Z</time>
      </trkpt>
      <trkpt lat="50.09618" lon="4.19522">
        <ele>182.6</ele>
        <time>2020-06-24T17:06:14Z</time>
      </trkpt>
      <trkpt lat="50.09614" lon="4.19528">
        <ele>182.6</ele>
        <time>2020-06-24T17:06:15Z</time>
      </trkpt>
      <trkpt lat="50.09609" lon="4.19533">
        <ele>182.7</ele>
        <time>2020-06-24T17:06:16Z</time>
      </trkpt>
      <trkpt lat="50.09604" lon="4.19537">
        <ele>182.8</ele>
        <time>2020-06-24T17:06:17Z</time>
      </trkpt>
      <trkpt lat="50.09598" lon="4.19541">
        <ele>182.8</ele>
        <time>2020-06-24T17:06:18Z</time>
      </trkpt>
      <trkpt lat="50.09593" lon="4.19543">
        <ele>182.9</ele>
        <time>2020-06-24T17:06:19Z</time>
      </trkpt>
      <trkpt lat="50.09587" lon="4.19545">
        <ele>183</ele>
        <time>2020-06-24T17:06:20Z</time>
      </trkpt>
      <trkpt lat="50.09582" lon="4.19545">
        <ele>183.2</ele>
        <time>2020-06-24T17:06:21Z</time>
      </trkpt>
      <trkpt lat="50.09576" lon="4.19546">
        <ele>183.3</ele>
        <time>2020-06-24T17:06:22Z</time>
      </trkpt>
      <trkpt lat="50.09571" lon="4.19547">
        <ele>183.4</ele>
        <time>2020-06-24T17:06:23Z</time>
      </trkpt>
      <trkpt lat="50.09566" lon="4.19547">
        <ele>183.5</ele>
        <time>2020-06-24T17:06:24Z</time>
      </trkpt>
      <trkpt lat="50.09561" lon="4.19547">
        <ele>183.7</ele>
        <time>2020-06-24T17:06:25Z</time>
      </trkpt>
      <trkpt lat="50.09556" lon="4.19547">
        <ele>183.8</ele>
        <time>2020-06-24T17:06:26Z</time>
      </trkpt>
      <trkpt lat="50.09552" lon="4.19547">
        <ele>183.9</ele>
        <time>2020-06-24T17:06:27Z</time>
      </trkpt>
      <trkpt lat="50.09547" lon="4.19546">
        <ele>184.1</ele>
        <time>2020-06-24T17:06:28Z</time>
      </trkpt>
      <trkpt lat="50.09542" lon="4.19546">
        <ele>184.2</ele>
        <time>2020-06-24T17:06:29Z</time>
      </trkpt>
      <trkpt lat="50.09538" lon="4.19546">
        <ele>184.3</ele>
        <time>2020-06-24T17:06:30Z</time>
      </trkpt>
      <trkpt lat="50.09533" lon="4.19545">
        <ele>184.5</ele>
        <time>2020-06-24T17:06:31Z</time>
      </trkpt>
      <trkpt lat="50.09529" lon="4.19546">
        <ele>184.6</ele>
        <time>2020-06-24T17:06:32Z</time>
      </trkpt>
      <trkpt lat="50.09524" lon="4.19545">
        <ele>184.7</ele>
        <time>2020-06-24T17:06:33Z</time>
      </trkpt>
      <trkpt lat="50.0952" lon="4.19545">
        <ele>184.8</ele>
        <time>2020-06-24T17:06:34Z</time>
      </trkpt>
      <trkpt lat="50.09516" lon="4.19543">
        <ele>184.9</ele>
        <time>2020-06-24T17:06:35Z</time>
      </trkpt>
      <trkpt lat="50.09512" lon="4.1954">
        <ele>184.9</ele>
        <time>2020-06-24T17:06:36Z</time>
      </trkpt>
      <trkpt lat="50.09508" lon="4.19536">
        <ele>185</ele>
        <time>2020-06-24T17:06:37Z</time>
      </trkpt>
      <trkpt lat="50.09504" lon="4.19532">
        <ele>185</ele>
        <time>2020-06-24T17:06:38Z</time>
      </trkpt>
      <trkpt lat="50.09501" lon="4.19526">
        <ele>185.1</ele>
        <time>2020-06-24T17:06:39Z</time>
      </trkpt>
      <trkpt lat="50.09497" lon="4.19521">
        <ele>185.1</ele>
        <time>2020-06-24T17:06:40Z</time>
      </trkpt>
      <trkpt lat="50.09494" lon="4.19515">
        <ele>185.1</ele>
        <time>2020-06-24T17:06:41Z</time>
      </trkpt>
      <trkpt lat="50.0949" lon="4.19509">
        <ele>185.1</ele>
        <time>2020-06-24T17:06:42Z</time>
      </trkpt>
      <trkpt lat="50.09487" lon="4.19502">
        <ele>185.1</ele>
        <time>2020-06-24T17:06:43Z</time>
      </trkpt>
      <trkpt lat="50.09484" lon="4.19496">
        <ele>185.1</ele>
        <time>2020-06-24T17:06:44Z</time>
      </trkpt>
      <trkpt lat="50.0948" lon="4.19489">
        <ele>185.1</ele>
        <time>2020-06-24T17:06:45Z</time>
      </trkpt>
      <trkpt lat="50.09477" lon="4.19484">
        <ele>185.1</ele>
        <time>2020-06-24T17:06:46Z</time>
      </trkpt>
      <trkpt lat="50.09473" lon="4.19478">
        <ele>185.1</ele>
        <time>2020-06-24T17:06:47Z</time>
      </trkpt>
      <trkpt lat="50.09469" lon="4.19471">
        <ele>185.1</ele>
        <time>2020-06-24T17:06:48Z</time>
      </trkpt>
      <trkpt lat="50.09465" lon="4.19466">
        <ele>185.1</ele>
        <time>2020-06-24T17:06:49Z</time>
      </trkpt>
      <trkpt lat="50.09462" lon="4.19461">
        <ele>185.2</ele>
        <time>2020-06-24T17:06:50Z</time>
      </trkpt>
      <trkpt lat="50.09459" lon="4.19455">
        <ele>185.2</ele>
        <time>2020-06-24T17:06:51Z</time>
      </trkpt>
      <trkpt lat="50.09454" lon="4.19449">
        <ele>185.3</ele>
        <time>2020-06-24T17:06:52Z</time>
      </trkpt>
      <trkpt lat="50.0945" lon="4.19443">
        <ele>185.3</ele>
        <time>2020-06-24T17:06:53Z</time>
      </trkpt>
      <trkpt lat="50.09445" lon="4.19438">
        <ele>185.4</ele>
        <time>2020-06-24T17:06:54Z</time>
      </trkpt>
      <trkpt lat="50.09441" lon="4.19431">
        <ele>185.4</ele>
        <time>2020-06-24T17:06:55Z</time>
      </trkpt>
      <trkpt lat="50.09437" lon="4.19426">
        <ele>185.5</ele>
        <time>2020-06-24T17:06:56Z</time>
      </trkpt>
      <trkpt lat="50.09433" lon="4.1942">
        <ele>185.6</ele>
        <time>2020-06-24T17:06:57Z</time>
      </trkpt>
      <trkpt lat="50.0943" lon="4.19415">
        <ele>185.6</ele>
        <time>2020-06-24T17:06:58Z</time>
      </trkpt>
      <trkpt lat="50.09427" lon="4.19409">
        <ele>185.7</ele>
        <time>2020-06-24T17:06:59Z</time>
      </trkpt>
      <trkpt lat="50.09423" lon="4.19404">
        <ele>185.8</ele>
        <time>2020-06-24T17:07:00Z</time>
      </trkpt>
      <trkpt lat="50.09419" lon="4.19396">
        <ele>185.8</ele>
        <time>2020-06-24T17:07:01Z</time>
      </trkpt>
      <trkpt lat="50.09417" lon="4.1939">
        <ele>185.9</ele>
        <time>2020-06-24T17:07:02Z</time>
      </trkpt>
      <trkpt lat="50.09414" lon="4.19383">
        <ele>186</ele>
        <time>2020-06-24T17:07:03Z</time>
      </trkpt>
      <trkpt lat="50.09411" lon="4.19378">
        <ele>186</ele>
        <time>2020-06-24T17:07:04Z</time>
      </trkpt>
      <trkpt lat="50.09408" lon="4.19372">
        <ele>186.1</ele>
        <time>2020-06-24T17:07:05Z</time>
      </trkpt>
      <trkpt lat="50.09406" lon="4.19367">
        <ele>186.1</ele>
        <time>2020-06-24T17:07:06Z</time>
      </trkpt>
      <trkpt lat="50.09402" lon="4.19363">
        <ele>186.2</ele>
        <time>2020-06-24T17:07:07Z</time>
      </trkpt>
      <trkpt lat="50.09399" lon="4.19357">
        <ele>186.3</ele>
        <time>2020-06-24T17:07:08Z</time>
      </trkpt>
      <trkpt lat="50.09396" lon="4.19352">
        <ele>186.4</ele>
        <time>2020-06-24T17:07:09Z</time>
      </trkpt>
      <trkpt lat="50.09392" lon="4.19347">
        <ele>186.4</ele>
        <time>2020-06-24T17:07:10Z</time>
      </trkpt>
      <trkpt lat="50.09386" lon="4.19342">
        <ele>186.4</ele>
        <time>2020-06-24T17:07:11Z</time>
      </trkpt>
      <trkpt lat="50.09382" lon="4.19338">
        <ele>186.6</ele>
        <time>2020-06-24T17:07:12Z</time>
      </trkpt>
      <trkpt lat="50.09377" lon="4.19335">
        <ele>186.8</ele>
        <time>2020-06-24T17:07:13Z</time>
      </trkpt>
      <trkpt lat="50.09372" lon="4.19333">
        <ele>187</ele>
        <time>2020-06-24T17:07:14Z</time>
      </trkpt>
      <trkpt lat="50.09366" lon="4.19331">
        <ele>187.1</ele>
        <time>2020-06-24T17:07:15Z</time>
      </trkpt>
      <trkpt lat="50.09361" lon="4.1933">
        <ele>187.3</ele>
        <time>2020-06-24T17:07:16Z</time>
      </trkpt>
      <trkpt lat="50.09357" lon="4.19329">
        <ele>187.4</ele>
        <time>2020-06-24T17:07:17Z</time>
      </trkpt>
      <trkpt lat="50.09351" lon="4.19329">
        <ele>187.5</ele>
        <time>2020-06-24T17:07:18Z</time>
      </trkpt>
      <trkpt lat="50.09346" lon="4.19328">
        <ele>187.6</ele>
        <time>2020-06-24T17:07:19Z</time>
      </trkpt>
      <trkpt lat="50.09343" lon="4.19327">
        <ele>187.6</ele>
        <time>2020-06-24T17:07:20Z</time>
      </trkpt>
      <trkpt lat="50.09339" lon="4.19326">
        <ele>187.7</ele>
        <time>2020-06-24T17:07:21Z</time>
      </trkpt>
      <trkpt lat="50.09335" lon="4.19325">
        <ele>187.7</ele>
        <time>2020-06-24T17:07:22Z</time>
      </trkpt>
      <trkpt lat="50.0933" lon="4.19325">
        <ele>187.8</ele>
        <time>2020-06-24T17:07:23Z</time>
      </trkpt>
      <trkpt lat="50.09325" lon="4.19325">
        <ele>187.8</ele>
        <time>2020-06-24T17:07:24Z</time>
      </trkpt>
      <trkpt lat="50.09321" lon="4.19324">
        <ele>187.9</ele>
        <time>2020-06-24T17:07:25Z</time>
      </trkpt>
      <trkpt lat="50.09316" lon="4.19325">
        <ele>187.9</ele>
        <time>2020-06-24T17:07:26Z</time>
      </trkpt>
      <trkpt lat="50.09311" lon="4.19325">
        <ele>188</ele>
        <time>2020-06-24T17:07:27Z</time>
      </trkpt>
      <trkpt lat="50.09306" lon="4.19324">
        <ele>188.1</ele>
        <time>2020-06-24T17:07:28Z</time>
      </trkpt>
      <trkpt lat="50.09301" lon="4.19324">
        <ele>188.2</ele>
        <time>2020-06-24T17:07:29Z</time>
      </trkpt>
      <trkpt lat="50.09295" lon="4.19325">
        <ele>188.4</ele>
        <time>2020-06-24T17:07:30Z</time>
      </trkpt>
      <trkpt lat="50.0929" lon="4.19325">
        <ele>188.5</ele>
        <time>2020-06-24T17:07:31Z</time>
      </trkpt>
      <trkpt lat="50.09284" lon="4.19326">
        <ele>188.6</ele>
        <time>2020-06-24T17:07:32Z</time>
      </trkpt>
      <trkpt lat="50.0928" lon="4.19327">
        <ele>188.7</ele>
        <time>2020-06-24T17:07:33Z</time>
      </trkpt>
      <trkpt lat="50.09276" lon="4.19328">
        <ele>188.8</ele>
        <time>2020-06-24T17:07:34Z</time>
      </trkpt>
      <trkpt lat="50.09271" lon="4.1933">
        <ele>188.9</ele>
        <time>2020-06-24T17:07:35Z</time>
      </trkpt>
      <trkpt lat="50.09266" lon="4.19332">
        <ele>189</ele>
        <time>2020-06-24T17:07:36Z</time>
      </trkpt>
      <trkpt lat="50.0926" lon="4.19334">
        <ele>189.2</ele>
        <time>2020-06-24T17:07:37Z</time>
      </trkpt>
      <trkpt lat="50.09255" lon="4.19335">
        <ele>189.3</ele>
        <time>2020-06-24T17:07:38Z</time>
      </trkpt>
      <trkpt lat="50.09249" lon="4.19337">
        <ele>189.5</ele>
        <time>2020-06-24T17:07:39Z</time>
      </trkpt>
      <trkpt lat="50.09244" lon="4.19339">
        <ele>189.7</ele>
        <time>2020-06-24T17:07:40Z</time>
      </trkpt>
      <trkpt lat="50.0924" lon="4.19341">
        <ele>189.7</ele>
        <time>2020-06-24T17:07:41Z</time>
      </trkpt>
      <trkpt lat="50.09235" lon="4.19342">
        <ele>189.8</ele>
        <time>2020-06-24T17:07:42Z</time>
      </trkpt>
      <trkpt lat="50.0923" lon="4.19344">
        <ele>189.9</ele>
        <time>2020-06-24T17:07:43Z</time>
      </trkpt>
      <trkpt lat="50.09225" lon="4.19347">
        <ele>190</ele>
        <time>2020-06-24T17:07:44Z</time>
      </trkpt>
      <trkpt lat="50.09221" lon="4.19349">
        <ele>190</ele>
        <time>2020-06-24T17:07:45Z</time>
      </trkpt>
      <trkpt lat="50.09216" lon="4.1935">
        <ele>190.1</ele>
        <time>2020-06-24T17:07:46Z</time>
      </trkpt>
      <trkpt lat="50.09211" lon="4.19352">
        <ele>190.2</ele>
        <time>2020-06-24T17:07:47Z</time>
      </trkpt>
      <trkpt lat="50.09206" lon="4.19353">
        <ele>190.2</ele>
        <time>2020-06-24T17:07:48Z</time>
      </trkpt>
      <trkpt lat="50.09202" lon="4.19353">
        <ele>190.3</ele>
        <time>2020-06-24T17:07:49Z</time>
      </trkpt>
      <trkpt lat="50.09196" lon="4.19354">
        <ele>190.4</ele>
        <time>2020-06-24T17:07:50Z</time>
      </trkpt>
      <trkpt lat="50.09191" lon="4.19355">
        <ele>190.5</ele>
        <time>2020-06-24T17:07:51Z</time>
      </trkpt>
      <trkpt lat="50.09186" lon="4.19356">
        <ele>190.6</ele>
        <time>2020-06-24T17:07:52Z</time>
      </trkpt>
      <trkpt lat="50.09181" lon="4.19357">
        <ele>190.6</ele>
        <time>2020-06-24T17:07:53Z</time>
      </trkpt>
      <trkpt lat="50.09177" lon="4.19356">
        <ele>190.7</ele>
        <time>2020-06-24T17:07:54Z</time>
      </trkpt>
      <trkpt lat="50.09171" lon="4.19356">
        <ele>190.9</ele>
        <time>2020-06-24T17:07:55Z</time>
      </trkpt>
      <trkpt lat="50.09166" lon="4.19356">
        <ele>191</ele>
        <time>2020-06-24T17:07:56Z</time>
      </trkpt>
      <trkpt lat="50.09162" lon="4.19357">
        <ele>191</ele>
        <time>2020-06-24T17:07:57Z</time>
      </trkpt>
      <trkpt lat="50.09157" lon="4.19357">
        <ele>191.1</ele>
        <time>2020-06-24T17:07:58Z</time>
      </trkpt>
      <trkpt lat="50.09152" lon="4.19358">
        <ele>191.1</ele>
        <time>2020-06-24T17:07:59Z</time>
      </trkpt>
      <trkpt lat="50.09146" lon="4.19358">
        <ele>191.1</ele>
        <time>2020-06-24T17:08:00Z</time>
      </trkpt>
      <trkpt lat="50.09142" lon="4.19357">
        <ele>191.1</ele>
        <time>2020-06-24T17:08:01Z</time>
      </trkpt>
      <trkpt lat="50.09137" lon="4.19357">
        <ele>191.1</ele>
        <time>2020-06-24T17:08:02Z</time>
      </trkpt>
      <trkpt lat="50.09132" lon="4.19357">
        <ele>191.1</ele>
        <time>2020-06-24T17:08:03Z</time>
      </trkpt>
      <trkpt lat="50.09127" lon="4.19357">
        <ele>191.1</ele>
        <time>2020-06-24T17:08:04Z</time>
      </trkpt>
      <trkpt lat="50.09122" lon="4.19356">
        <ele>191</ele>
        <time>2020-06-24T17:08:05Z</time>
      </trkpt>
      <trkpt lat="50.09117" lon="4.19356">
        <ele>191</ele>
        <time>2020-06-24T17:08:06Z</time>
      </trkpt>
      <trkpt lat="50.09111" lon="4.19355">
        <ele>191</ele>
        <time>2020-06-24T17:08:07Z</time>
      </trkpt>
      <trkpt lat="50.09106" lon="4.19355">
        <ele>190.9</ele>
        <time>2020-06-24T17:08:08Z</time>
      </trkpt>
      <trkpt lat="50.09101" lon="4.19356">
        <ele>190.9</ele>
        <time>2020-06-24T17:08:09Z</time>
      </trkpt>
      <trkpt lat="50.09095" lon="4.19356">
        <ele>190.8</ele>
        <time>2020-06-24T17:08:10Z</time>
      </trkpt>
      <trkpt lat="50.09089" lon="4.19355">
        <ele>190.7</ele>
        <time>2020-06-24T17:08:11Z</time>
      </trkpt>
      <trkpt lat="50.09083" lon="4.19354">
        <ele>190.5</ele>
        <time>2020-06-24T17:08:12Z</time>
      </trkpt>
      <trkpt lat="50.09078" lon="4.19353">
        <ele>190.4</ele>
        <time>2020-06-24T17:08:13Z</time>
      </trkpt>
      <trkpt lat="50.09073" lon="4.19352">
        <ele>190.3</ele>
        <time>2020-06-24T17:08:14Z</time>
      </trkpt>
      <trkpt lat="50.09068" lon="4.19352">
        <ele>190.2</ele>
        <time>2020-06-24T17:08:15Z</time>
      </trkpt>
      <trkpt lat="50.09062" lon="4.19353">
        <ele>190</ele>
        <time>2020-06-24T17:08:16Z</time>
      </trkpt>
      <trkpt lat="50.09056" lon="4.19353">
        <ele>189.9</ele>
        <time>2020-06-24T17:08:17Z</time>
      </trkpt>
      <trkpt lat="50.09051" lon="4.19354">
        <ele>189.8</ele>
        <time>2020-06-24T17:08:18Z</time>
      </trkpt>
      <trkpt lat="50.09045" lon="4.19355">
        <ele>189.7</ele>
        <time>2020-06-24T17:08:19Z</time>
      </trkpt>
      <trkpt lat="50.09039" lon="4.19355">
        <ele>189.5</ele>
        <time>2020-06-24T17:08:20Z</time>
      </trkpt>
      <trkpt lat="50.09033" lon="4.19356">
        <ele>189.4</ele>
        <time>2020-06-24T17:08:21Z</time>
      </trkpt>
      <trkpt lat="50.09028" lon="4.19355">
        <ele>189.3</ele>
        <time>2020-06-24T17:08:22Z</time>
      </trkpt>
      <trkpt lat="50.09023" lon="4.19354">
        <ele>189.1</ele>
        <time>2020-06-24T17:08:23Z</time>
      </trkpt>
      <trkpt lat="50.09017" lon="4.19353">
        <ele>189</ele>
        <time>2020-06-24T17:08:24Z</time>
      </trkpt>
      <trkpt lat="50.09011" lon="4.19353">
        <ele>188.8</ele>
        <time>2020-06-24T17:08:25Z</time>
      </trkpt>
      <trkpt lat="50.09005" lon="4.19352">
        <ele>188.7</ele>
        <time>2020-06-24T17:08:26Z</time>
      </trkpt>
      <trkpt lat="50.08999" lon="4.1935">
        <ele>188.5</ele>
        <time>2020-06-24T17:08:27Z</time>
      </trkpt>
      <trkpt lat="50.08993" lon="4.19348">
        <ele>188.3</ele>
        <time>2020-06-24T17:08:28Z</time>
      </trkpt>
      <trkpt lat="50.08987" lon="4.19346">
        <ele>188.1</ele>
        <time>2020-06-24T17:08:29Z</time>
      </trkpt>
      <trkpt lat="50.08981" lon="4.19345">
        <ele>188</ele>
        <time>2020-06-24T17:08:30Z</time>
      </trkpt>
      <trkpt lat="50.08975" lon="4.19342">
        <ele>187.8</ele>
        <time>2020-06-24T17:08:31Z</time>
      </trkpt>
      <trkpt lat="50.08969" lon="4.1934">
        <ele>187.7</ele>
        <time>2020-06-24T17:08:32Z</time>
      </trkpt>
      <trkpt lat="50.08963" lon="4.19337">
        <ele>187.5</ele>
        <time>2020-06-24T17:08:33Z</time>
      </trkpt>
      <trkpt lat="50.08956" lon="4.19334">
        <ele>187.3</ele>
        <time>2020-06-24T17:08:34Z</time>
      </trkpt>
      <trkpt lat="50.0895" lon="4.19331">
        <ele>187.2</ele>
        <time>2020-06-24T17:08:35Z</time>
      </trkpt>
      <trkpt lat="50.08943" lon="4.19327">
        <ele>187</ele>
        <time>2020-06-24T17:08:36Z</time>
      </trkpt>
      <trkpt lat="50.08937" lon="4.19324">
        <ele>186.8</ele>
        <time>2020-06-24T17:08:37Z</time>
      </trkpt>
      <trkpt lat="50.08931" lon="4.19321">
        <ele>186.7</ele>
        <time>2020-06-24T17:08:38Z</time>
      </trkpt>
      <trkpt lat="50.08926" lon="4.19319">
        <ele>186.6</ele>
        <time>2020-06-24T17:08:39Z</time>
      </trkpt>
      <trkpt lat="50.08919" lon="4.19316">
        <ele>186.5</ele>
        <time>2020-06-24T17:08:40Z</time>
      </trkpt>
      <trkpt lat="50.08912" lon="4.19314">
        <ele>186.4</ele>
        <time>2020-06-24T17:08:41Z</time>
      </trkpt>
      <trkpt lat="50.08906" lon="4.19312">
        <ele>186.3</ele>
        <time>2020-06-24T17:08:42Z</time>
      </trkpt>
      <trkpt lat="50.08899" lon="4.1931">
        <ele>186.2</ele>
        <time>2020-06-24T17:08:43Z</time>
      </trkpt>
      <trkpt lat="50.08892" lon="4.19309">
        <ele>186.2</ele>
        <time>2020-06-24T17:08:44Z</time>
      </trkpt>
      <trkpt lat="50.08886" lon="4.19309">
        <ele>186.1</ele>
        <time>2020-06-24T17:08:45Z</time>
      </trkpt>
      <trkpt lat="50.0888" lon="4.19309">
        <ele>186.1</ele>
        <time>2020-06-24T17:08:46Z</time>
      </trkpt>
      <trkpt lat="50.08876" lon="4.19309">
        <ele>186</ele>
        <time>2020-06-24T17:08:47Z</time>
      </trkpt>
      <trkpt lat="50.08871" lon="4.19309">
        <ele>186</ele>
        <time>2020-06-24T17:08:48Z</time>
      </trkpt>
      <trkpt lat="50.08865" lon="4.1931">
        <ele>185.9</ele>
        <time>2020-06-24T17:08:49Z</time>
      </trkpt>
      <trkpt lat="50.0886" lon="4.19311">
        <ele>185.9</ele>
        <time>2020-06-24T17:08:50Z</time>
      </trkpt>
      <trkpt lat="50.08854" lon="4.19312">
        <ele>185.9</ele>
        <time>2020-06-24T17:08:51Z</time>
      </trkpt>
      <trkpt lat="50.08848" lon="4.19314">
        <ele>185.8</ele>
        <time>2020-06-24T17:08:52Z</time>
      </trkpt>
      <trkpt lat="50.08842" lon="4.19316">
        <ele>185.8</ele>
        <time>2020-06-24T17:08:53Z</time>
      </trkpt>
      <trkpt lat="50.08837" lon="4.19317">
        <ele>185.7</ele>
        <time>2020-06-24T17:08:54Z</time>
      </trkpt>
      <trkpt lat="50.08831" lon="4.19318">
        <ele>185.7</ele>
        <time>2020-06-24T17:08:55Z</time>
      </trkpt>
      <trkpt lat="50.08825" lon="4.19319">
        <ele>185.7</ele>
        <time>2020-06-24T17:08:56Z</time>
      </trkpt>
      <trkpt lat="50.08819" lon="4.1932">
        <ele>185.7</ele>
        <time>2020-06-24T17:08:57Z</time>
      </trkpt>
      <trkpt lat="50.08814" lon="4.19321">
        <ele>185.7</ele>
        <time>2020-06-24T17:08:58Z</time>
      </trkpt>
      <trkpt lat="50.08808" lon="4.19322">
        <ele>185.8</ele>
        <time>2020-06-24T17:08:59Z</time>
      </trkpt>
      <trkpt lat="50.08803" lon="4.19323">
        <ele>185.8</ele>
        <time>2020-06-24T17:09:00Z</time>
      </trkpt>
      <trkpt lat="50.08797" lon="4.19324">
        <ele>185.8</ele>
        <time>2020-06-24T17:09:01Z</time>
      </trkpt>
      <trkpt lat="50.08791" lon="4.19325">
        <ele>185.8</ele>
        <time>2020-06-24T17:09:02Z</time>
      </trkpt>
      <trkpt lat="50.08786" lon="4.19326">
        <ele>185.8</ele>
        <time>2020-06-24T17:09:03Z</time>
      </trkpt>
      <trkpt lat="50.0878" lon="4.19326">
        <ele>185.8</ele>
        <time>2020-06-24T17:09:04Z</time>
      </trkpt>
      <trkpt lat="50.08774" lon="4.19327">
        <ele>185.8</ele>
        <time>2020-06-24T17:09:05Z</time>
      </trkpt>
      <trkpt lat="50.0877" lon="4.19327">
        <ele>185.8</ele>
        <time>2020-06-24T17:09:06Z</time>
      </trkpt>
      <trkpt lat="50.08765" lon="4.19328">
        <ele>185.8</ele>
        <time>2020-06-24T17:09:07Z</time>
      </trkpt>
      <trkpt lat="50.0876" lon="4.19327">
        <ele>185.8</ele>
        <time>2020-06-24T17:09:08Z</time>
      </trkpt>
      <trkpt lat="50.08754" lon="4.19328">
        <ele>185.8</ele>
        <time>2020-06-24T17:09:09Z</time>
      </trkpt>
      <trkpt lat="50.08748" lon="4.19329">
        <ele>185.8</ele>
        <time>2020-06-24T17:09:10Z</time>
      </trkpt>
      <trkpt lat="50.08743" lon="4.19329">
        <ele>185.8</ele>
        <time>2020-06-24T17:09:11Z</time>
      </trkpt>
      <trkpt lat="50.08737" lon="4.19329">
        <ele>185.8</ele>
        <time>2020-06-24T17:09:12Z</time>
      </trkpt>
      <trkpt lat="50.08731" lon="4.1933">
        <ele>185.9</ele>
        <time>2020-06-24T17:09:13Z</time>
      </trkpt>
      <trkpt lat="50.08725" lon="4.19329">
        <ele>186</ele>
        <time>2020-06-24T17:09:14Z</time>
      </trkpt>
      <trkpt lat="50.0872" lon="4.1933">
        <ele>186</ele>
        <time>2020-06-24T17:09:15Z</time>
      </trkpt>
      <trkpt lat="50.08715" lon="4.1933">
        <ele>186.1</ele>
        <time>2020-06-24T17:09:16Z</time>
      </trkpt>
      <trkpt lat="50.08709" lon="4.19329">
        <ele>186.2</ele>
        <time>2020-06-24T17:09:17Z</time>
      </trkpt>
      <trkpt lat="50.08702" lon="4.19329">
        <ele>186.3</ele>
        <time>2020-06-24T17:09:18Z</time>
      </trkpt>
      <trkpt lat="50.08697" lon="4.19327">
        <ele>186.5</ele>
        <time>2020-06-24T17:09:19Z</time>
      </trkpt>
      <trkpt lat="50.08691" lon="4.19325">
        <ele>186.6</ele>
        <time>2020-06-24T17:09:20Z</time>
      </trkpt>
      <trkpt lat="50.08686" lon="4.19324">
        <ele>186.7</ele>
        <time>2020-06-24T17:09:21Z</time>
      </trkpt>
      <trkpt lat="50.08681" lon="4.19322">
        <ele>186.9</ele>
        <time>2020-06-24T17:09:22Z</time>
      </trkpt>
      <trkpt lat="50.08675" lon="4.1932">
        <ele>187</ele>
        <time>2020-06-24T17:09:23Z</time>
      </trkpt>
      <trkpt lat="50.0867" lon="4.19319">
        <ele>187.2</ele>
        <time>2020-06-24T17:09:24Z</time>
      </trkpt>
      <trkpt lat="50.08664" lon="4.19316">
        <ele>187.3</ele>
        <time>2020-06-24T17:09:25Z</time>
      </trkpt>
      <trkpt lat="50.0866" lon="4.19314">
        <ele>187.4</ele>
        <time>2020-06-24T17:09:26Z</time>
      </trkpt>
      <trkpt lat="50.08655" lon="4.19312">
        <ele>187.6</ele>
        <time>2020-06-24T17:09:27Z</time>
      </trkpt>
      <trkpt lat="50.0865" lon="4.19311">
        <ele>187.7</ele>
        <time>2020-06-24T17:09:28Z</time>
      </trkpt>
      <trkpt lat="50.08645" lon="4.1931">
        <ele>187.8</ele>
        <time>2020-06-24T17:09:29Z</time>
      </trkpt>
      <trkpt lat="50.08641" lon="4.19308">
        <ele>187.9</ele>
        <time>2020-06-24T17:09:30Z</time>
      </trkpt>
      <trkpt lat="50.08636" lon="4.19306">
        <ele>188</ele>
        <time>2020-06-24T17:09:31Z</time>
      </trkpt>
      <trkpt lat="50.08631" lon="4.19305">
        <ele>188.2</ele>
        <time>2020-06-24T17:09:32Z</time>
      </trkpt>
      <trkpt lat="50.08627" lon="4.19304">
        <ele>188.3</ele>
        <time>2020-06-24T17:09:33Z</time>
      </trkpt>
      <trkpt lat="50.08622" lon="4.19302">
        <ele>188.5</ele>
        <time>2020-06-24T17:09:34Z</time>
      </trkpt>
      <trkpt lat="50.08617" lon="4.19299">
        <ele>188.7</ele>
        <time>2020-06-24T17:09:35Z</time>
      </trkpt>
      <trkpt lat="50.08612" lon="4.19296">
        <ele>188.9</ele>
        <time>2020-06-24T17:09:36Z</time>
      </trkpt>
      <trkpt lat="50.08607" lon="4.19294">
        <ele>189.1</ele>
        <time>2020-06-24T17:09:37Z</time>
      </trkpt>
      <trkpt lat="50.08603" lon="4.19292">
        <ele>189.3</ele>
        <time>2020-06-24T17:09:38Z</time>
      </trkpt>
      <trkpt lat="50.08599" lon="4.19289">
        <ele>189.5</ele>
        <time>2020-06-24T17:09:39Z</time>
      </trkpt>
      <trkpt lat="50.08595" lon="4.19285">
        <ele>189.7</ele>
        <time>2020-06-24T17:09:40Z</time>
      </trkpt>
      <trkpt lat="50.08589" lon="4.19283">
        <ele>189.9</ele>
        <time>2020-06-24T17:09:41Z</time>
      </trkpt>
      <trkpt lat="50.08585" lon="4.19281">
        <ele>190.2</ele>
        <time>2020-06-24T17:09:42Z</time>
      </trkpt>
      <trkpt lat="50.08581" lon="4.19279">
        <ele>190.4</ele>
        <time>2020-06-24T17:09:43Z</time>
      </trkpt>
      <trkpt lat="50.08576" lon="4.19277">
        <ele>190.6</ele>
        <time>2020-06-24T17:09:44Z</time>
      </trkpt>
      <trkpt lat="50.08571" lon="4.19275">
        <ele>190.9</ele>
        <time>2020-06-24T17:09:45Z</time>
      </trkpt>
      <trkpt lat="50.08567" lon="4.19272">
        <ele>191.2</ele>
        <time>2020-06-24T17:09:46Z</time>
      </trkpt>
      <trkpt lat="50.08562" lon="4.1927">
        <ele>191.4</ele>
        <time>2020-06-24T17:09:47Z</time>
      </trkpt>
      <trkpt lat="50.08558" lon="4.19268">
        <ele>191.7</ele>
        <time>2020-06-24T17:09:48Z</time>
      </trkpt>
      <trkpt lat="50.08553" lon="4.19265">
        <ele>191.9</ele>
        <time>2020-06-24T17:09:49Z</time>
      </trkpt>
      <trkpt lat="50.08549" lon="4.19263">
        <ele>192.1</ele>
        <time>2020-06-24T17:09:50Z</time>
      </trkpt>
      <trkpt lat="50.08544" lon="4.1926">
        <ele>192.4</ele>
        <time>2020-06-24T17:09:51Z</time>
      </trkpt>
      <trkpt lat="50.0854" lon="4.19259">
        <ele>192.6</ele>
        <time>2020-06-24T17:09:52Z</time>
      </trkpt>
      <trkpt lat="50.08536" lon="4.19257">
        <ele>192.8</ele>
        <time>2020-06-24T17:09:53Z</time>
      </trkpt>
      <trkpt lat="50.08532" lon="4.19255">
        <ele>193.1</ele>
        <time>2020-06-24T17:09:54Z</time>
      </trkpt>
      <trkpt lat="50.08529" lon="4.19253">
        <ele>193.3</ele>
        <time>2020-06-24T17:09:55Z</time>
      </trkpt>
      <trkpt lat="50.08524" lon="4.19251">
        <ele>193.5</ele>
        <time>2020-06-24T17:09:56Z</time>
      </trkpt>
      <trkpt lat="50.0852" lon="4.19249">
        <ele>193.7</ele>
        <time>2020-06-24T17:09:57Z</time>
      </trkpt>
      <trkpt lat="50.08515" lon="4.19247">
        <ele>193.9</ele>
        <time>2020-06-24T17:09:58Z</time>
      </trkpt>
      <trkpt lat="50.08511" lon="4.19246">
        <ele>194.1</ele>
        <time>2020-06-24T17:09:59Z</time>
      </trkpt>
      <trkpt lat="50.08508" lon="4.19244">
        <ele>194.2</ele>
        <time>2020-06-24T17:10:00Z</time>
      </trkpt>
      <trkpt lat="50.08505" lon="4.19241">
        <ele>194.3</ele>
        <time>2020-06-24T17:10:01Z</time>
      </trkpt>
      <trkpt lat="50.08501" lon="4.19238">
        <ele>194.5</ele>
        <time>2020-06-24T17:10:02Z</time>
      </trkpt>
      <trkpt lat="50.08497" lon="4.19236">
        <ele>194.7</ele>
        <time>2020-06-24T17:10:03Z</time>
      </trkpt>
      <trkpt lat="50.08492" lon="4.19235">
        <ele>194.9</ele>
        <time>2020-06-24T17:10:04Z</time>
      </trkpt>
      <trkpt lat="50.08487" lon="4.19233">
        <ele>195.1</ele>
        <time>2020-06-24T17:10:05Z</time>
      </trkpt>
      <trkpt lat="50.08481" lon="4.19231">
        <ele>195.3</ele>
        <time>2020-06-24T17:10:06Z</time>
      </trkpt>
      <trkpt lat="50.08476" lon="4.19229">
        <ele>195.5</ele>
        <time>2020-06-24T17:10:07Z</time>
      </trkpt>
      <trkpt lat="50.08471" lon="4.19227">
        <ele>195.7</ele>
        <time>2020-06-24T17:10:08Z</time>
      </trkpt>
      <trkpt lat="50.08466" lon="4.19224">
        <ele>195.8</ele>
        <time>2020-06-24T17:10:09Z</time>
      </trkpt>
      <trkpt lat="50.08462" lon="4.19222">
        <ele>195.9</ele>
        <time>2020-06-24T17:10:10Z</time>
      </trkpt>
      <trkpt lat="50.08457" lon="4.1922">
        <ele>196</ele>
        <time>2020-06-24T17:10:11Z</time>
      </trkpt>
      <trkpt lat="50.08452" lon="4.19217">
        <ele>196.1</ele>
        <time>2020-06-24T17:10:12Z</time>
      </trkpt>
      <trkpt lat="50.08448" lon="4.19216">
        <ele>196.1</ele>
        <time>2020-06-24T17:10:13Z</time>
      </trkpt>
      <trkpt lat="50.08444" lon="4.19214">
        <ele>196.2</ele>
        <time>2020-06-24T17:10:14Z</time>
      </trkpt>
      <trkpt lat="50.08441" lon="4.19213">
        <ele>196.2</ele>
        <time>2020-06-24T17:10:15Z</time>
      </trkpt>
      <trkpt lat="50.08437" lon="4.19212">
        <ele>196.3</ele>
        <time>2020-06-24T17:10:16Z</time>
      </trkpt>
      <trkpt lat="50.08432" lon="4.19211">
        <ele>196.3</ele>
        <time>2020-06-24T17:10:17Z</time>
      </trkpt>
      <trkpt lat="50.08427" lon="4.1921">
        <ele>196.4</ele>
        <time>2020-06-24T17:10:18Z</time>
      </trkpt>
      <trkpt lat="50.08422" lon="4.19209">
        <ele>196.4</ele>
        <time>2020-06-24T17:10:19Z</time>
      </trkpt>
      <trkpt lat="50.08417" lon="4.19208">
        <ele>196.4</ele>
        <time>2020-06-24T17:10:20Z</time>
      </trkpt>
      <trkpt lat="50.08412" lon="4.19206">
        <ele>196.4</ele>
        <time>2020-06-24T17:10:21Z</time>
      </trkpt>
      <trkpt lat="50.08407" lon="4.19205">
        <ele>196.4</ele>
        <time>2020-06-24T17:10:22Z</time>
      </trkpt>
      <trkpt lat="50.08402" lon="4.19205">
        <ele>196.4</ele>
        <time>2020-06-24T17:10:23Z</time>
      </trkpt>
      <trkpt lat="50.08397" lon="4.19204">
        <ele>196.4</ele>
        <time>2020-06-24T17:10:24Z</time>
      </trkpt>
      <trkpt lat="50.08392" lon="4.19203">
        <ele>196.3</ele>
        <time>2020-06-24T17:10:25Z</time>
      </trkpt>
      <trkpt lat="50.08387" lon="4.19202">
        <ele>196.3</ele>
        <time>2020-06-24T17:10:26Z</time>
      </trkpt>
      <trkpt lat="50.08382" lon="4.19202">
        <ele>196.2</ele>
        <time>2020-06-24T17:10:27Z</time>
      </trkpt>
      <trkpt lat="50.08377" lon="4.192">
        <ele>196.1</ele>
        <time>2020-06-24T17:10:28Z</time>
      </trkpt>
      <trkpt lat="50.08373" lon="4.19199">
        <ele>196</ele>
        <time>2020-06-24T17:10:29Z</time>
      </trkpt>
      <trkpt lat="50.08367" lon="4.19197">
        <ele>195.9</ele>
        <time>2020-06-24T17:10:30Z</time>
      </trkpt>
      <trkpt lat="50.08362" lon="4.19195">
        <ele>195.7</ele>
        <time>2020-06-24T17:10:31Z</time>
      </trkpt>
      <trkpt lat="50.08356" lon="4.19194">
        <ele>195.6</ele>
        <time>2020-06-24T17:10:32Z</time>
      </trkpt>
      <trkpt lat="50.08351" lon="4.19192">
        <ele>195.4</ele>
        <time>2020-06-24T17:10:33Z</time>
      </trkpt>
      <trkpt lat="50.08345" lon="4.1919">
        <ele>195.2</ele>
        <time>2020-06-24T17:10:34Z</time>
      </trkpt>
      <trkpt lat="50.08339" lon="4.19186">
        <ele>194.7</ele>
        <time>2020-06-24T17:10:35Z</time>
      </trkpt>
      <trkpt lat="50.08333" lon="4.19183">
        <ele>194.5</ele>
        <time>2020-06-24T17:10:36Z</time>
      </trkpt>
      <trkpt lat="50.08326" lon="4.1918">
        <ele>194.3</ele>
        <time>2020-06-24T17:10:37Z</time>
      </trkpt>
      <trkpt lat="50.0832" lon="4.19176">
        <ele>194.2</ele>
        <time>2020-06-24T17:10:38Z</time>
      </trkpt>
      <trkpt lat="50.08315" lon="4.19172">
        <ele>194</ele>
        <time>2020-06-24T17:10:39Z</time>
      </trkpt>
      <trkpt lat="50.0831" lon="4.19168">
        <ele>193.9</ele>
        <time>2020-06-24T17:10:40Z</time>
      </trkpt>
      <trkpt lat="50.08305" lon="4.19164">
        <ele>193.7</ele>
        <time>2020-06-24T17:10:41Z</time>
      </trkpt>
      <trkpt lat="50.08299" lon="4.1916">
        <ele>193.6</ele>
        <time>2020-06-24T17:10:42Z</time>
      </trkpt>
      <trkpt lat="50.08294" lon="4.19156">
        <ele>193.5</ele>
        <time>2020-06-24T17:10:43Z</time>
      </trkpt>
      <trkpt lat="50.0829" lon="4.19151">
        <ele>193.4</ele>
        <time>2020-06-24T17:10:44Z</time>
      </trkpt>
      <trkpt lat="50.08285" lon="4.19147">
        <ele>193.2</ele>
        <time>2020-06-24T17:10:45Z</time>
      </trkpt>
      <trkpt lat="50.08281" lon="4.19143">
        <ele>193.1</ele>
        <time>2020-06-24T17:10:46Z</time>
      </trkpt>
      <trkpt lat="50.08275" lon="4.19139">
        <ele>192.9</ele>
        <time>2020-06-24T17:10:47Z</time>
      </trkpt>
      <trkpt lat="50.08269" lon="4.19136">
        <ele>192.7</ele>
        <time>2020-06-24T17:10:48Z</time>
      </trkpt>
      <trkpt lat="50.08264" lon="4.19132">
        <ele>192.5</ele>
        <time>2020-06-24T17:10:49Z</time>
      </trkpt>
      <trkpt lat="50.08258" lon="4.19129">
        <ele>192.3</ele>
        <time>2020-06-24T17:10:50Z</time>
      </trkpt>
      <trkpt lat="50.08253" lon="4.19126">
        <ele>192.1</ele>
        <time>2020-06-24T17:10:51Z</time>
      </trkpt>
      <trkpt lat="50.08248" lon="4.19123">
        <ele>192</ele>
        <time>2020-06-24T17:10:52Z</time>
      </trkpt>
      <trkpt lat="50.08242" lon="4.1912">
        <ele>191.8</ele>
        <time>2020-06-24T17:10:53Z</time>
      </trkpt>
      <trkpt lat="50.08237" lon="4.19117">
        <ele>191.6</ele>
        <time>2020-06-24T17:10:54Z</time>
      </trkpt>
      <trkpt lat="50.08231" lon="4.19115">
        <ele>191.5</ele>
        <time>2020-06-24T17:10:55Z</time>
      </trkpt>
      <trkpt lat="50.08227" lon="4.19112">
        <ele>191.3</ele>
        <time>2020-06-24T17:10:56Z</time>
      </trkpt>
      <trkpt lat="50.08221" lon="4.19109">
        <ele>191.1</ele>
        <time>2020-06-24T17:10:57Z</time>
      </trkpt>
      <trkpt lat="50.08215" lon="4.19106">
        <ele>190.9</ele>
        <time>2020-06-24T17:10:58Z</time>
      </trkpt>
      <trkpt lat="50.0821" lon="4.19103">
        <ele>190.8</ele>
        <time>2020-06-24T17:10:59Z</time>
      </trkpt>
      <trkpt lat="50.08204" lon="4.19099">
        <ele>190.6</ele>
        <time>2020-06-24T17:11:00Z</time>
      </trkpt>
      <trkpt lat="50.08197" lon="4.19096">
        <ele>190.4</ele>
        <time>2020-06-24T17:11:01Z</time>
      </trkpt>
      <trkpt lat="50.08191" lon="4.19093">
        <ele>190.2</ele>
        <time>2020-06-24T17:11:02Z</time>
      </trkpt>
      <trkpt lat="50.08185" lon="4.19091">
        <ele>190</ele>
        <time>2020-06-24T17:11:03Z</time>
      </trkpt>
      <trkpt lat="50.08179" lon="4.19089">
        <ele>189.9</ele>
        <time>2020-06-24T17:11:04Z</time>
      </trkpt>
      <trkpt lat="50.08173" lon="4.19087">
        <ele>189.7</ele>
        <time>2020-06-24T17:11:05Z</time>
      </trkpt>
      <trkpt lat="50.08166" lon="4.19085">
        <ele>189.6</ele>
        <time>2020-06-24T17:11:06Z</time>
      </trkpt>
      <trkpt lat="50.0816" lon="4.19084">
        <ele>189.6</ele>
        <time>2020-06-24T17:11:07Z</time>
      </trkpt>
      <trkpt lat="50.08154" lon="4.19084">
        <ele>189.6</ele>
        <time>2020-06-24T17:11:08Z</time>
      </trkpt>
      <trkpt lat="50.08148" lon="4.19085">
        <ele>189.6</ele>
        <time>2020-06-24T17:11:09Z</time>
      </trkpt>
      <trkpt lat="50.08142" lon="4.19085">
        <ele>189.6</ele>
        <time>2020-06-24T17:11:10Z</time>
      </trkpt>
      <trkpt lat="50.08137" lon="4.19085">
        <ele>189.6</ele>
        <time>2020-06-24T17:11:11Z</time>
      </trkpt>
      <trkpt lat="50.08131" lon="4.19085">
        <ele>189.5</ele>
        <time>2020-06-24T17:11:12Z</time>
      </trkpt>
      <trkpt lat="50.08126" lon="4.19085">
        <ele>189.5</ele>
        <time>2020-06-24T17:11:13Z</time>
      </trkpt>
      <trkpt lat="50.08121" lon="4.19085">
        <ele>189.5</ele>
        <time>2020-06-24T17:11:14Z</time>
      </trkpt>
      <trkpt lat="50.08115" lon="4.19085">
        <ele>189.5</ele>
        <time>2020-06-24T17:11:15Z</time>
      </trkpt>
      <trkpt lat="50.08108" lon="4.19086">
        <ele>189.6</ele>
        <time>2020-06-24T17:11:16Z</time>
      </trkpt>
      <trkpt lat="50.08101" lon="4.19087">
        <ele>189.6</ele>
        <time>2020-06-24T17:11:17Z</time>
      </trkpt>
      <trkpt lat="50.08094" lon="4.19088">
        <ele>189.6</ele>
        <time>2020-06-24T17:11:18Z</time>
      </trkpt>
      <trkpt lat="50.08088" lon="4.19088">
        <ele>189.6</ele>
        <time>2020-06-24T17:11:19Z</time>
      </trkpt>
      <trkpt lat="50.08082" lon="4.19089">
        <ele>189.6</ele>
        <time>2020-06-24T17:11:20Z</time>
      </trkpt>
      <trkpt lat="50.08076" lon="4.19089">
        <ele>189.6</ele>
        <time>2020-06-24T17:11:21Z</time>
      </trkpt>
      <trkpt lat="50.08071" lon="4.19089">
        <ele>189.7</ele>
        <time>2020-06-24T17:11:22Z</time>
      </trkpt>
      <trkpt lat="50.08066" lon="4.19089">
        <ele>189.7</ele>
        <time>2020-06-24T17:11:23Z</time>
      </trkpt>
      <trkpt lat="50.08062" lon="4.19089">
        <ele>189.7</ele>
        <time>2020-06-24T17:11:24Z</time>
      </trkpt>
      <trkpt lat="50.08057" lon="4.19089">
        <ele>189.8</ele>
        <time>2020-06-24T17:11:25Z</time>
      </trkpt>
      <trkpt lat="50.08053" lon="4.1909">
        <ele>189.8</ele>
        <time>2020-06-24T17:11:26Z</time>
      </trkpt>
      <trkpt lat="50.08048" lon="4.1909">
        <ele>189.8</ele>
        <time>2020-06-24T17:11:27Z</time>
      </trkpt>
      <trkpt lat="50.08044" lon="4.19091">
        <ele>189.9</ele>
        <time>2020-06-24T17:11:28Z</time>
      </trkpt>
      <trkpt lat="50.08041" lon="4.1909">
        <ele>189.9</ele>
        <time>2020-06-24T17:11:29Z</time>
      </trkpt>
      <trkpt lat="50.08038" lon="4.1909">
        <ele>190</ele>
        <time>2020-06-24T17:11:30Z</time>
      </trkpt>
      <trkpt lat="50.08037" lon="4.19089">
        <ele>190</ele>
        <time>2020-06-24T17:11:31Z</time>
      </trkpt>
      <trkpt lat="50.08037" lon="4.1909">
        <ele>190</ele>
        <time>2020-06-24T17:11:32Z</time>
      </trkpt>
      <trkpt lat="50.08037" lon="4.1909">
        <ele>190</ele>
        <time>2020-06-24T17:11:33Z</time>
      </trkpt>
      <trkpt lat="50.08037" lon="4.1909">
        <ele>190</ele>
        <time>2020-06-24T17:11:34Z</time>
      </trkpt>
      <trkpt lat="50.08037" lon="4.1909">
        <ele>190</ele>
        <time>2020-06-24T17:11:35Z</time>
      </trkpt>
      <trkpt lat="50.08037" lon="4.19089">
        <ele>190</ele>
        <time>2020-06-24T17:11:36Z</time>
      </trkpt>
      <trkpt lat="50.08037" lon="4.19089">
        <ele>190</ele>
        <time>2020-06-24T17:11:37Z</time>
      </trkpt>
      <trkpt lat="50.08036" lon="4.19089">
        <ele>190</ele>
        <time>2020-06-24T17:11:38Z</time>
      </trkpt>
      <trkpt lat="50.08036" lon="4.19089">
        <ele>190</ele>
        <time>2020-06-24T17:11:39Z</time>
      </trkpt>
      <trkpt lat="50.08036" lon="4.1909">
        <ele>190</ele>
        <time>2020-06-24T17:11:40Z</time>
      </trkpt>
      <trkpt lat="50.08036" lon="4.1909">
        <ele>190</ele>
        <time>2020-06-24T17:11:41Z</time>
      </trkpt>
      <trkpt lat="50.08036" lon="4.1909">
        <ele>190</ele>
        <time>2020-06-24T17:11:42Z</time>
      </trkpt>
      <trkpt lat="50.08036" lon="4.1909">
        <ele>190</ele>
        <time>2020-06-24T17:11:43Z</time>
      </trkpt>
      <trkpt lat="50.08027" lon="4.19098">
        <ele>189.9</ele>
        <time>2020-06-24T17:13:20Z</time>
      </trkpt>
      <trkpt lat="50.08027" lon="4.19098">
        <ele>189.9</ele>
        <time>2020-06-24T17:13:21Z</time>
      </trkpt>
      <trkpt lat="50.08026" lon="4.19098">
        <ele>189.9</ele>
        <time>2020-06-24T17:13:22Z</time>
      </trkpt>
      <trkpt lat="50.08026" lon="4.19098">
        <ele>189.9</ele>
        <time>2020-06-24T17:13:23Z</time>
      </trkpt>
      <trkpt lat="50.08025" lon="4.19097">
        <ele>189.8</ele>
        <time>2020-06-24T17:13:24Z</time>
      </trkpt>
      <trkpt lat="50.08023" lon="4.19097">
        <ele>189.8</ele>
        <time>2020-06-24T17:13:25Z</time>
      </trkpt>
      <trkpt lat="50.08023" lon="4.19097">
        <ele>189.8</ele>
        <time>2020-06-24T17:13:26Z</time>
      </trkpt>
      <trkpt lat="50.08022" lon="4.19098">
        <ele>189.8</ele>
        <time>2020-06-24T17:13:27Z</time>
      </trkpt>
      <trkpt lat="50.08022" lon="4.19097">
        <ele>189.8</ele>
        <time>2020-06-24T17:13:28Z</time>
      </trkpt>
      <trkpt lat="50.08021" lon="4.19097">
        <ele>189.8</ele>
        <time>2020-06-24T17:13:29Z</time>
      </trkpt>
      <trkpt lat="50.0802" lon="4.19096">
        <ele>189.8</ele>
        <time>2020-06-24T17:13:30Z</time>
      </trkpt>
      <trkpt lat="50.0802" lon="4.19096">
        <ele>189.7</ele>
        <time>2020-06-24T17:13:31Z</time>
      </trkpt>
      <trkpt lat="50.08019" lon="4.19096">
        <ele>189.7</ele>
        <time>2020-06-24T17:13:32Z</time>
      </trkpt>
      <trkpt lat="50.08018" lon="4.19096">
        <ele>189.7</ele>
        <time>2020-06-24T17:13:33Z</time>
      </trkpt>
      <trkpt lat="50.08017" lon="4.19097">
        <ele>189.7</ele>
        <time>2020-06-24T17:13:34Z</time>
      </trkpt>
      <trkpt lat="50.08016" lon="4.19097">
        <ele>189.7</ele>
        <time>2020-06-24T17:13:35Z</time>
      </trkpt>
      <trkpt lat="50.08015" lon="4.19097">
        <ele>189.7</ele>
        <time>2020-06-24T17:13:36Z</time>
      </trkpt>
      <trkpt lat="50.08014" lon="4.19097">
        <ele>189.7</ele>
        <time>2020-06-24T17:13:37Z</time>
      </trkpt>
      <trkpt lat="50.08013" lon="4.19097">
        <ele>189.6</ele>
        <time>2020-06-24T17:13:38Z</time>
      </trkpt>
      <trkpt lat="50.08012" lon="4.19098">
        <ele>189.6</ele>
        <time>2020-06-24T17:13:39Z</time>
      </trkpt>
      <trkpt lat="50.08011" lon="4.19098">
        <ele>189.6</ele>
        <time>2020-06-24T17:14:37Z</time>
      </trkpt>
      <trkpt lat="50.0801" lon="4.19098">
        <ele>189.6</ele>
        <time>2020-06-24T17:14:38Z</time>
      </trkpt>
      <trkpt lat="50.08008" lon="4.19099">
        <ele>189.6</ele>
        <time>2020-06-24T17:14:39Z</time>
      </trkpt>
      <trkpt lat="50.08004" lon="4.191">
        <ele>189.6</ele>
        <time>2020-06-24T17:14:40Z</time>
      </trkpt>
      <trkpt lat="50.08001" lon="4.191">
        <ele>189.6</ele>
        <time>2020-06-24T17:14:41Z</time>
      </trkpt>
      <trkpt lat="50.07996" lon="4.19102">
        <ele>189.6</ele>
        <time>2020-06-24T17:14:42Z</time>
      </trkpt>
      <trkpt lat="50.07991" lon="4.19103">
        <ele>189.6</ele>
        <time>2020-06-24T17:14:43Z</time>
      </trkpt>
      <trkpt lat="50.07986" lon="4.19106">
        <ele>189.7</ele>
        <time>2020-06-24T17:14:44Z</time>
      </trkpt>
      <trkpt lat="50.07981" lon="4.19109">
        <ele>189.8</ele>
        <time>2020-06-24T17:14:45Z</time>
      </trkpt>
      <trkpt lat="50.07975" lon="4.19111">
        <ele>189.8</ele>
        <time>2020-06-24T17:14:46Z</time>
      </trkpt>
      <trkpt lat="50.07971" lon="4.19113">
        <ele>189.9</ele>
        <time>2020-06-24T17:14:47Z</time>
      </trkpt>
      <trkpt lat="50.07966" lon="4.19116">
        <ele>190</ele>
        <time>2020-06-24T17:14:48Z</time>
      </trkpt>
      <trkpt lat="50.07963" lon="4.19118">
        <ele>190</ele>
        <time>2020-06-24T17:14:49Z</time>
      </trkpt>
      <trkpt lat="50.07958" lon="4.19121">
        <ele>190.1</ele>
        <time>2020-06-24T17:14:50Z</time>
      </trkpt>
      <trkpt lat="50.07954" lon="4.19124">
        <ele>190.2</ele>
        <time>2020-06-24T17:14:51Z</time>
      </trkpt>
      <trkpt lat="50.07949" lon="4.19126">
        <ele>190.2</ele>
        <time>2020-06-24T17:14:52Z</time>
      </trkpt>
      <trkpt lat="50.07945" lon="4.19129">
        <ele>190.3</ele>
        <time>2020-06-24T17:14:53Z</time>
      </trkpt>
      <trkpt lat="50.07941" lon="4.19132">
        <ele>190.4</ele>
        <time>2020-06-24T17:14:54Z</time>
      </trkpt>
      <trkpt lat="50.07936" lon="4.19135">
        <ele>190.6</ele>
        <time>2020-06-24T17:14:55Z</time>
      </trkpt>
      <trkpt lat="50.07933" lon="4.19138">
        <ele>190.6</ele>
        <time>2020-06-24T17:14:56Z</time>
      </trkpt>
      <trkpt lat="50.07929" lon="4.19142">
        <ele>190.8</ele>
        <time>2020-06-24T17:14:57Z</time>
      </trkpt>
      <trkpt lat="50.07925" lon="4.19145">
        <ele>190.9</ele>
        <time>2020-06-24T17:14:58Z</time>
      </trkpt>
      <trkpt lat="50.07921" lon="4.19149">
        <ele>191</ele>
        <time>2020-06-24T17:14:59Z</time>
      </trkpt>
      <trkpt lat="50.07917" lon="4.19151">
        <ele>191.2</ele>
        <time>2020-06-24T17:15:00Z</time>
      </trkpt>
      <trkpt lat="50.07913" lon="4.19153">
        <ele>191.3</ele>
        <time>2020-06-24T17:15:01Z</time>
      </trkpt>
      <trkpt lat="50.0791" lon="4.19155">
        <ele>191.4</ele>
        <time>2020-06-24T17:15:02Z</time>
      </trkpt>
      <trkpt lat="50.07906" lon="4.19158">
        <ele>191.5</ele>
        <time>2020-06-24T17:15:03Z</time>
      </trkpt>
      <trkpt lat="50.07901" lon="4.19161">
        <ele>191.7</ele>
        <time>2020-06-24T17:15:04Z</time>
      </trkpt>
      <trkpt lat="50.07897" lon="4.19164">
        <ele>191.8</ele>
        <time>2020-06-24T17:15:05Z</time>
      </trkpt>
      <trkpt lat="50.07893" lon="4.19166">
        <ele>192</ele>
        <time>2020-06-24T17:15:06Z</time>
      </trkpt>
      <trkpt lat="50.07889" lon="4.19168">
        <ele>192.1</ele>
        <time>2020-06-24T17:15:07Z</time>
      </trkpt>
      <trkpt lat="50.07885" lon="4.1917">
        <ele>192.2</ele>
        <time>2020-06-24T17:15:08Z</time>
      </trkpt>
      <trkpt lat="50.0788" lon="4.19173">
        <ele>192.4</ele>
        <time>2020-06-24T17:15:09Z</time>
      </trkpt>
      <trkpt lat="50.07875" lon="4.19175">
        <ele>192.5</ele>
        <time>2020-06-24T17:15:10Z</time>
      </trkpt>
      <trkpt lat="50.07871" lon="4.19178">
        <ele>192.7</ele>
        <time>2020-06-24T17:15:11Z</time>
      </trkpt>
      <trkpt lat="50.07866" lon="4.19182">
        <ele>192.8</ele>
        <time>2020-06-24T17:15:12Z</time>
      </trkpt>
      <trkpt lat="50.07861" lon="4.19184">
        <ele>192.9</ele>
        <time>2020-06-24T17:15:13Z</time>
      </trkpt>
      <trkpt lat="50.07856" lon="4.19188">
        <ele>193</ele>
        <time>2020-06-24T17:15:14Z</time>
      </trkpt>
      <trkpt lat="50.07851" lon="4.19191">
        <ele>193.2</ele>
        <time>2020-06-24T17:15:15Z</time>
      </trkpt>
      <trkpt lat="50.07848" lon="4.19192">
        <ele>193.2</ele>
        <time>2020-06-24T17:15:16Z</time>
      </trkpt>
      <trkpt lat="50.07842" lon="4.19195">
        <ele>193.3</ele>
        <time>2020-06-24T17:15:17Z</time>
      </trkpt>
      <trkpt lat="50.07837" lon="4.19198">
        <ele>193.4</ele>
        <time>2020-06-24T17:15:18Z</time>
      </trkpt>
      <trkpt lat="50.07834" lon="4.19202">
        <ele>193.5</ele>
        <time>2020-06-24T17:15:19Z</time>
      </trkpt>
      <trkpt lat="50.0783" lon="4.19205">
        <ele>193.5</ele>
        <time>2020-06-24T17:15:20Z</time>
      </trkpt>
      <trkpt lat="50.07825" lon="4.19209">
        <ele>193.6</ele>
        <time>2020-06-24T17:15:21Z</time>
      </trkpt>
      <trkpt lat="50.0782" lon="4.19213">
        <ele>193.7</ele>
        <time>2020-06-24T17:15:22Z</time>
      </trkpt>
      <trkpt lat="50.07814" lon="4.19218">
        <ele>193.8</ele>
        <time>2020-06-24T17:15:23Z</time>
      </trkpt>
      <trkpt lat="50.0781" lon="4.19222">
        <ele>193.8</ele>
        <time>2020-06-24T17:15:24Z</time>
      </trkpt>
      <trkpt lat="50.07806" lon="4.19225">
        <ele>193.8</ele>
        <time>2020-06-24T17:15:25Z</time>
      </trkpt>
      <trkpt lat="50.07802" lon="4.19228">
        <ele>193.9</ele>
        <time>2020-06-24T17:15:26Z</time>
      </trkpt>
      <trkpt lat="50.07797" lon="4.19232">
        <ele>193.9</ele>
        <time>2020-06-24T17:15:27Z</time>
      </trkpt>
      <trkpt lat="50.0779" lon="4.19237">
        <ele>194</ele>
        <time>2020-06-24T17:15:28Z</time>
      </trkpt>
      <trkpt lat="50.07785" lon="4.19241">
        <ele>194.1</ele>
        <time>2020-06-24T17:15:29Z</time>
      </trkpt>
      <trkpt lat="50.0778" lon="4.19245">
        <ele>194.1</ele>
        <time>2020-06-24T17:15:30Z</time>
      </trkpt>
      <trkpt lat="50.07775" lon="4.19249">
        <ele>194.1</ele>
        <time>2020-06-24T17:15:31Z</time>
      </trkpt>
      <trkpt lat="50.07769" lon="4.19252">
        <ele>194.2</ele>
        <time>2020-06-24T17:15:32Z</time>
      </trkpt>
      <trkpt lat="50.07764" lon="4.19256">
        <ele>194.2</ele>
        <time>2020-06-24T17:15:33Z</time>
      </trkpt>
      <trkpt lat="50.07759" lon="4.19259">
        <ele>194.2</ele>
        <time>2020-06-24T17:15:34Z</time>
      </trkpt>
      <trkpt lat="50.07754" lon="4.19263">
        <ele>194.2</ele>
        <time>2020-06-24T17:15:35Z</time>
      </trkpt>
      <trkpt lat="50.0775" lon="4.19266">
        <ele>194.2</ele>
        <time>2020-06-24T17:15:36Z</time>
      </trkpt>
      <trkpt lat="50.07745" lon="4.19269">
        <ele>194.1</ele>
        <time>2020-06-24T17:15:37Z</time>
      </trkpt>
      <trkpt lat="50.0774" lon="4.19273">
        <ele>194</ele>
        <time>2020-06-24T17:15:38Z</time>
      </trkpt>
      <trkpt lat="50.07735" lon="4.19276">
        <ele>193.9</ele>
        <time>2020-06-24T17:15:39Z</time>
      </trkpt>
      <trkpt lat="50.07731" lon="4.19279">
        <ele>193.8</ele>
        <time>2020-06-24T17:15:40Z</time>
      </trkpt>
      <trkpt lat="50.07725" lon="4.19282">
        <ele>193.6</ele>
        <time>2020-06-24T17:15:41Z</time>
      </trkpt>
      <trkpt lat="50.07719" lon="4.19285">
        <ele>193.4</ele>
        <time>2020-06-24T17:15:42Z</time>
      </trkpt>
      <trkpt lat="50.07714" lon="4.19288">
        <ele>193.2</ele>
        <time>2020-06-24T17:15:43Z</time>
      </trkpt>
      <trkpt lat="50.07708" lon="4.19291">
        <ele>192.9</ele>
        <time>2020-06-24T17:15:44Z</time>
      </trkpt>
      <trkpt lat="50.07702" lon="4.19294">
        <ele>192.6</ele>
        <time>2020-06-24T17:15:45Z</time>
      </trkpt>
      <trkpt lat="50.07696" lon="4.19297">
        <ele>192.3</ele>
        <time>2020-06-24T17:15:46Z</time>
      </trkpt>
      <trkpt lat="50.0769" lon="4.19301">
        <ele>192</ele>
        <time>2020-06-24T17:15:47Z</time>
      </trkpt>
      <trkpt lat="50.07684" lon="4.19306">
        <ele>191.7</ele>
        <time>2020-06-24T17:15:48Z</time>
      </trkpt>
      <trkpt lat="50.07678" lon="4.19311">
        <ele>191.5</ele>
        <time>2020-06-24T17:15:49Z</time>
      </trkpt>
      <trkpt lat="50.07672" lon="4.19317">
        <ele>191.1</ele>
        <time>2020-06-24T17:15:50Z</time>
      </trkpt>
      <trkpt lat="50.07666" lon="4.19323">
        <ele>190.8</ele>
        <time>2020-06-24T17:15:51Z</time>
      </trkpt>
      <trkpt lat="50.07659" lon="4.1933">
        <ele>190.5</ele>
        <time>2020-06-24T17:15:52Z</time>
      </trkpt>
      <trkpt lat="50.07653" lon="4.19336">
        <ele>190.2</ele>
        <time>2020-06-24T17:15:53Z</time>
      </trkpt>
      <trkpt lat="50.07645" lon="4.19342">
        <ele>189.9</ele>
        <time>2020-06-24T17:15:54Z</time>
      </trkpt>
      <trkpt lat="50.07639" lon="4.19348">
        <ele>189.6</ele>
        <time>2020-06-24T17:15:55Z</time>
      </trkpt>
      <trkpt lat="50.07632" lon="4.19353">
        <ele>189.3</ele>
        <time>2020-06-24T17:15:56Z</time>
      </trkpt>
      <trkpt lat="50.07624" lon="4.19359">
        <ele>188.9</ele>
        <time>2020-06-24T17:15:57Z</time>
      </trkpt>
      <trkpt lat="50.07617" lon="4.19365">
        <ele>188.7</ele>
        <time>2020-06-24T17:15:58Z</time>
      </trkpt>
      <trkpt lat="50.0761" lon="4.19371">
        <ele>188.4</ele>
        <time>2020-06-24T17:15:59Z</time>
      </trkpt>
      <trkpt lat="50.07603" lon="4.19377">
        <ele>188.3</ele>
        <time>2020-06-24T17:16:00Z</time>
      </trkpt>
      <trkpt lat="50.07596" lon="4.19384">
        <ele>188.1</ele>
        <time>2020-06-24T17:16:01Z</time>
      </trkpt>
      <trkpt lat="50.0759" lon="4.19391">
        <ele>188.1</ele>
        <time>2020-06-24T17:16:02Z</time>
      </trkpt>
      <trkpt lat="50.07584" lon="4.194">
        <ele>188.1</ele>
        <time>2020-06-24T17:16:03Z</time>
      </trkpt>
      <trkpt lat="50.0758" lon="4.19409">
        <ele>188.1</ele>
        <time>2020-06-24T17:16:04Z</time>
      </trkpt>
      <trkpt lat="50.07575" lon="4.19418">
        <ele>188.2</ele>
        <time>2020-06-24T17:16:05Z</time>
      </trkpt>
      <trkpt lat="50.07571" lon="4.19426">
        <ele>188.4</ele>
        <time>2020-06-24T17:16:06Z</time>
      </trkpt>
      <trkpt lat="50.07568" lon="4.19435">
        <ele>188.5</ele>
        <time>2020-06-24T17:16:07Z</time>
      </trkpt>
      <trkpt lat="50.07564" lon="4.19444">
        <ele>188.4</ele>
        <time>2020-06-24T17:16:08Z</time>
      </trkpt>
      <trkpt lat="50.0756" lon="4.19451">
        <ele>188.1</ele>
        <time>2020-06-24T17:16:09Z</time>
      </trkpt>
      <trkpt lat="50.07557" lon="4.19459">
        <ele>187.9</ele>
        <time>2020-06-24T17:16:10Z</time>
      </trkpt>
      <trkpt lat="50.07553" lon="4.19468">
        <ele>187.7</ele>
        <time>2020-06-24T17:16:11Z</time>
      </trkpt>
      <trkpt lat="50.0755" lon="4.19477">
        <ele>187.5</ele>
        <time>2020-06-24T17:16:12Z</time>
      </trkpt>
      <trkpt lat="50.07546" lon="4.19486">
        <ele>187.3</ele>
        <time>2020-06-24T17:16:13Z</time>
      </trkpt>
      <trkpt lat="50.07543" lon="4.19496">
        <ele>187.2</ele>
        <time>2020-06-24T17:16:14Z</time>
      </trkpt>
      <trkpt lat="50.0754" lon="4.19505">
        <ele>187</ele>
        <time>2020-06-24T17:16:15Z</time>
      </trkpt>
      <trkpt lat="50.07536" lon="4.19514">
        <ele>186.9</ele>
        <time>2020-06-24T17:16:16Z</time>
      </trkpt>
      <trkpt lat="50.07533" lon="4.19523">
        <ele>186.8</ele>
        <time>2020-06-24T17:16:17Z</time>
      </trkpt>
      <trkpt lat="50.07529" lon="4.19532">
        <ele>186.8</ele>
        <time>2020-06-24T17:16:18Z</time>
      </trkpt>
      <trkpt lat="50.07525" lon="4.1954">
        <ele>186.7</ele>
        <time>2020-06-24T17:16:19Z</time>
      </trkpt>
      <trkpt lat="50.07521" lon="4.19549">
        <ele>186.7</ele>
        <time>2020-06-24T17:16:20Z</time>
      </trkpt>
      <trkpt lat="50.07516" lon="4.19556">
        <ele>186.7</ele>
        <time>2020-06-24T17:16:21Z</time>
      </trkpt>
      <trkpt lat="50.0751" lon="4.19561">
        <ele>186.8</ele>
        <time>2020-06-24T17:16:22Z</time>
      </trkpt>
      <trkpt lat="50.07504" lon="4.19563">
        <ele>186.8</ele>
        <time>2020-06-24T17:16:23Z</time>
      </trkpt>
      <trkpt lat="50.07498" lon="4.19565">
        <ele>186.9</ele>
        <time>2020-06-24T17:16:24Z</time>
      </trkpt>
      <trkpt lat="50.07491" lon="4.19567">
        <ele>186.9</ele>
        <time>2020-06-24T17:16:25Z</time>
      </trkpt>
      <trkpt lat="50.07485" lon="4.19567">
        <ele>187</ele>
        <time>2020-06-24T17:16:26Z</time>
      </trkpt>
      <trkpt lat="50.07479" lon="4.19566">
        <ele>187.1</ele>
        <time>2020-06-24T17:16:27Z</time>
      </trkpt>
      <trkpt lat="50.07473" lon="4.19566">
        <ele>187.2</ele>
        <time>2020-06-24T17:16:28Z</time>
      </trkpt>
      <trkpt lat="50.07466" lon="4.19565">
        <ele>187.3</ele>
        <time>2020-06-24T17:16:29Z</time>
      </trkpt>
      <trkpt lat="50.07461" lon="4.19564">
        <ele>187.4</ele>
        <time>2020-06-24T17:16:30Z</time>
      </trkpt>
      <trkpt lat="50.07455" lon="4.19563">
        <ele>187.5</ele>
        <time>2020-06-24T17:16:31Z</time>
      </trkpt>
      <trkpt lat="50.07449" lon="4.19562">
        <ele>187.6</ele>
        <time>2020-06-24T17:16:32Z</time>
      </trkpt>
      <trkpt lat="50.07442" lon="4.19561">
        <ele>187.8</ele>
        <time>2020-06-24T17:16:33Z</time>
      </trkpt>
      <trkpt lat="50.07437" lon="4.1956">
        <ele>187.9</ele>
        <time>2020-06-24T17:16:34Z</time>
      </trkpt>
      <trkpt lat="50.07431" lon="4.1956">
        <ele>188.1</ele>
        <time>2020-06-24T17:16:35Z</time>
      </trkpt>
      <trkpt lat="50.07425" lon="4.19559">
        <ele>188.3</ele>
        <time>2020-06-24T17:16:36Z</time>
      </trkpt>
      <trkpt lat="50.07419" lon="4.19559">
        <ele>188.5</ele>
        <time>2020-06-24T17:16:37Z</time>
      </trkpt>
      <trkpt lat="50.07414" lon="4.19558">
        <ele>188.6</ele>
        <time>2020-06-24T17:16:38Z</time>
      </trkpt>
      <trkpt lat="50.07408" lon="4.19557">
        <ele>188.8</ele>
        <time>2020-06-24T17:16:39Z</time>
      </trkpt>
      <trkpt lat="50.07403" lon="4.19556">
        <ele>189</ele>
        <time>2020-06-24T17:16:40Z</time>
      </trkpt>
      <trkpt lat="50.07397" lon="4.19556">
        <ele>189.1</ele>
        <time>2020-06-24T17:16:41Z</time>
      </trkpt>
      <trkpt lat="50.07391" lon="4.19556">
        <ele>189.3</ele>
        <time>2020-06-24T17:16:42Z</time>
      </trkpt>
      <trkpt lat="50.07386" lon="4.19556">
        <ele>189.4</ele>
        <time>2020-06-24T17:16:43Z</time>
      </trkpt>
      <trkpt lat="50.07379" lon="4.19557">
        <ele>189.5</ele>
        <time>2020-06-24T17:16:44Z</time>
      </trkpt>
      <trkpt lat="50.07373" lon="4.19557">
        <ele>189.6</ele>
        <time>2020-06-24T17:16:45Z</time>
      </trkpt>
      <trkpt lat="50.07367" lon="4.19557">
        <ele>189.7</ele>
        <time>2020-06-24T17:16:46Z</time>
      </trkpt>
      <trkpt lat="50.0736" lon="4.19557">
        <ele>189.9</ele>
        <time>2020-06-24T17:16:47Z</time>
      </trkpt>
      <trkpt lat="50.07354" lon="4.19558">
        <ele>190</ele>
        <time>2020-06-24T17:16:48Z</time>
      </trkpt>
      <trkpt lat="50.07348" lon="4.19558">
        <ele>190.1</ele>
        <time>2020-06-24T17:16:49Z</time>
      </trkpt>
      <trkpt lat="50.07342" lon="4.19559">
        <ele>190.3</ele>
        <time>2020-06-24T17:16:50Z</time>
      </trkpt>
      <trkpt lat="50.07337" lon="4.19559">
        <ele>190.5</ele>
        <time>2020-06-24T17:16:51Z</time>
      </trkpt>
      <trkpt lat="50.07331" lon="4.19559">
        <ele>190.7</ele>
        <time>2020-06-24T17:16:52Z</time>
      </trkpt>
      <trkpt lat="50.07326" lon="4.1956">
        <ele>191</ele>
        <time>2020-06-24T17:16:53Z</time>
      </trkpt>
      <trkpt lat="50.07321" lon="4.1956">
        <ele>191.3</ele>
        <time>2020-06-24T17:16:54Z</time>
      </trkpt>
      <trkpt lat="50.07315" lon="4.19561">
        <ele>191.5</ele>
        <time>2020-06-24T17:16:55Z</time>
      </trkpt>
      <trkpt lat="50.07308" lon="4.19561">
        <ele>191.7</ele>
        <time>2020-06-24T17:16:56Z</time>
      </trkpt>
      <trkpt lat="50.07302" lon="4.19561">
        <ele>191.8</ele>
        <time>2020-06-24T17:16:57Z</time>
      </trkpt>
      <trkpt lat="50.07297" lon="4.19562">
        <ele>191.9</ele>
        <time>2020-06-24T17:16:58Z</time>
      </trkpt>
      <trkpt lat="50.07292" lon="4.19563">
        <ele>191.9</ele>
        <time>2020-06-24T17:16:59Z</time>
      </trkpt>
      <trkpt lat="50.07286" lon="4.19564">
        <ele>192</ele>
        <time>2020-06-24T17:17:00Z</time>
      </trkpt>
      <trkpt lat="50.0728" lon="4.19565">
        <ele>192.1</ele>
        <time>2020-06-24T17:17:01Z</time>
      </trkpt>
      <trkpt lat="50.07275" lon="4.19565">
        <ele>192.2</ele>
        <time>2020-06-24T17:17:02Z</time>
      </trkpt>
      <trkpt lat="50.07269" lon="4.19565">
        <ele>192.3</ele>
        <time>2020-06-24T17:17:03Z</time>
      </trkpt>
      <trkpt lat="50.07264" lon="4.19566">
        <ele>192.4</ele>
        <time>2020-06-24T17:17:04Z</time>
      </trkpt>
      <trkpt lat="50.07258" lon="4.19566">
        <ele>192.5</ele>
        <time>2020-06-24T17:17:05Z</time>
      </trkpt>
      <trkpt lat="50.07252" lon="4.19566">
        <ele>192.6</ele>
        <time>2020-06-24T17:17:06Z</time>
      </trkpt>
      <trkpt lat="50.07247" lon="4.19567">
        <ele>192.7</ele>
        <time>2020-06-24T17:17:07Z</time>
      </trkpt>
      <trkpt lat="50.07242" lon="4.19568">
        <ele>192.7</ele>
        <time>2020-06-24T17:17:08Z</time>
      </trkpt>
      <trkpt lat="50.07236" lon="4.19568">
        <ele>192.8</ele>
        <time>2020-06-24T17:17:09Z</time>
      </trkpt>
      <trkpt lat="50.0723" lon="4.19569">
        <ele>192.9</ele>
        <time>2020-06-24T17:17:10Z</time>
      </trkpt>
      <trkpt lat="50.07224" lon="4.19569">
        <ele>193</ele>
        <time>2020-06-24T17:17:11Z</time>
      </trkpt>
      <trkpt lat="50.07218" lon="4.1957">
        <ele>193.1</ele>
        <time>2020-06-24T17:17:12Z</time>
      </trkpt>
      <trkpt lat="50.07212" lon="4.19571">
        <ele>193.2</ele>
        <time>2020-06-24T17:17:13Z</time>
      </trkpt>
      <trkpt lat="50.07205" lon="4.19572">
        <ele>193.2</ele>
        <time>2020-06-24T17:17:14Z</time>
      </trkpt>
      <trkpt lat="50.07199" lon="4.19573">
        <ele>193.3</ele>
        <time>2020-06-24T17:17:15Z</time>
      </trkpt>
      <trkpt lat="50.07193" lon="4.19574">
        <ele>193.3</ele>
        <time>2020-06-24T17:17:16Z</time>
      </trkpt>
      <trkpt lat="50.07188" lon="4.19575">
        <ele>193.4</ele>
        <time>2020-06-24T17:17:17Z</time>
      </trkpt>
      <trkpt lat="50.07182" lon="4.19577">
        <ele>193.4</ele>
        <time>2020-06-24T17:17:18Z</time>
      </trkpt>
      <trkpt lat="50.07176" lon="4.19578">
        <ele>193.5</ele>
        <time>2020-06-24T17:17:19Z</time>
      </trkpt>
      <trkpt lat="50.0717" lon="4.19578">
        <ele>193.6</ele>
        <time>2020-06-24T17:17:20Z</time>
      </trkpt>
      <trkpt lat="50.07164" lon="4.19579">
        <ele>193.7</ele>
        <time>2020-06-24T17:17:21Z</time>
      </trkpt>
      <trkpt lat="50.07158" lon="4.1958">
        <ele>193.8</ele>
        <time>2020-06-24T17:17:22Z</time>
      </trkpt>
      <trkpt lat="50.07152" lon="4.19582">
        <ele>193.9</ele>
        <time>2020-06-24T17:17:23Z</time>
      </trkpt>
      <trkpt lat="50.07147" lon="4.19583">
        <ele>194</ele>
        <time>2020-06-24T17:17:24Z</time>
      </trkpt>
      <trkpt lat="50.07142" lon="4.19584">
        <ele>194.1</ele>
        <time>2020-06-24T17:17:25Z</time>
      </trkpt>
      <trkpt lat="50.07138" lon="4.19584">
        <ele>194.2</ele>
        <time>2020-06-24T17:17:26Z</time>
      </trkpt>
      <trkpt lat="50.07133" lon="4.19585">
        <ele>194.3</ele>
        <time>2020-06-24T17:17:27Z</time>
      </trkpt>
      <trkpt lat="50.07127" lon="4.19586">
        <ele>194.4</ele>
        <time>2020-06-24T17:17:28Z</time>
      </trkpt>
      <trkpt lat="50.07121" lon="4.19587">
        <ele>194.4</ele>
        <time>2020-06-24T17:17:29Z</time>
      </trkpt>
      <trkpt lat="50.07116" lon="4.19587">
        <ele>194.5</ele>
        <time>2020-06-24T17:17:30Z</time>
      </trkpt>
      <trkpt lat="50.07111" lon="4.19589">
        <ele>194.6</ele>
        <time>2020-06-24T17:17:31Z</time>
      </trkpt>
      <trkpt lat="50.07106" lon="4.1959">
        <ele>194.6</ele>
        <time>2020-06-24T17:17:32Z</time>
      </trkpt>
      <trkpt lat="50.071" lon="4.19592">
        <ele>194.7</ele>
        <time>2020-06-24T17:17:33Z</time>
      </trkpt>
      <trkpt lat="50.07095" lon="4.19594">
        <ele>194.8</ele>
        <time>2020-06-24T17:17:34Z</time>
      </trkpt>
      <trkpt lat="50.07091" lon="4.19594">
        <ele>194.8</ele>
        <time>2020-06-24T17:17:35Z</time>
      </trkpt>
      <trkpt lat="50.07087" lon="4.19595">
        <ele>194.9</ele>
        <time>2020-06-24T17:17:36Z</time>
      </trkpt>
      <trkpt lat="50.07082" lon="4.19596">
        <ele>195</ele>
        <time>2020-06-24T17:17:37Z</time>
      </trkpt>
      <trkpt lat="50.07076" lon="4.19597">
        <ele>195.1</ele>
        <time>2020-06-24T17:17:38Z</time>
      </trkpt>
      <trkpt lat="50.0707" lon="4.19598">
        <ele>195.2</ele>
        <time>2020-06-24T17:17:39Z</time>
      </trkpt>
      <trkpt lat="50.07065" lon="4.19598">
        <ele>195.3</ele>
        <time>2020-06-24T17:17:40Z</time>
      </trkpt>
      <trkpt lat="50.07057" lon="4.196">
        <ele>195.5</ele>
        <time>2020-06-24T17:17:41Z</time>
      </trkpt>
      <trkpt lat="50.0705" lon="4.196">
        <ele>195.7</ele>
        <time>2020-06-24T17:17:42Z</time>
      </trkpt>
      <trkpt lat="50.07043" lon="4.19601">
        <ele>195.7</ele>
        <time>2020-06-24T17:17:43Z</time>
      </trkpt>
      <trkpt lat="50.07036" lon="4.19602">
        <ele>195.7</ele>
        <time>2020-06-24T17:17:44Z</time>
      </trkpt>
      <trkpt lat="50.0703" lon="4.19603">
        <ele>195.7</ele>
        <time>2020-06-24T17:17:45Z</time>
      </trkpt>
      <trkpt lat="50.07022" lon="4.19604">
        <ele>195.7</ele>
        <time>2020-06-24T17:17:46Z</time>
      </trkpt>
      <trkpt lat="50.07017" lon="4.19603">
        <ele>195.7</ele>
        <time>2020-06-24T17:17:47Z</time>
      </trkpt>
      <trkpt lat="50.0701" lon="4.19603">
        <ele>195.7</ele>
        <time>2020-06-24T17:17:48Z</time>
      </trkpt>
      <trkpt lat="50.07004" lon="4.19604">
        <ele>195.7</ele>
        <time>2020-06-24T17:17:49Z</time>
      </trkpt>
      <trkpt lat="50.06999" lon="4.19604">
        <ele>195.7</ele>
        <time>2020-06-24T17:17:50Z</time>
      </trkpt>
      <trkpt lat="50.06993" lon="4.19604">
        <ele>195.8</ele>
        <time>2020-06-24T17:17:51Z</time>
      </trkpt>
      <trkpt lat="50.06987" lon="4.19605">
        <ele>195.8</ele>
        <time>2020-06-24T17:17:52Z</time>
      </trkpt>
      <trkpt lat="50.06981" lon="4.19605">
        <ele>195.8</ele>
        <time>2020-06-24T17:17:53Z</time>
      </trkpt>
      <trkpt lat="50.06974" lon="4.19606">
        <ele>195.9</ele>
        <time>2020-06-24T17:17:54Z</time>
      </trkpt>
      <trkpt lat="50.06967" lon="4.19607">
        <ele>196</ele>
        <time>2020-06-24T17:17:55Z</time>
      </trkpt>
      <trkpt lat="50.06961" lon="4.19608">
        <ele>196</ele>
        <time>2020-06-24T17:17:56Z</time>
      </trkpt>
      <trkpt lat="50.06955" lon="4.19609">
        <ele>196.1</ele>
        <time>2020-06-24T17:17:57Z</time>
      </trkpt>
      <trkpt lat="50.06949" lon="4.19609">
        <ele>196.2</ele>
        <time>2020-06-24T17:17:58Z</time>
      </trkpt>
      <trkpt lat="50.06942" lon="4.1961">
        <ele>196.2</ele>
        <time>2020-06-24T17:17:59Z</time>
      </trkpt>
      <trkpt lat="50.06937" lon="4.1961">
        <ele>196.2</ele>
        <time>2020-06-24T17:18:00Z</time>
      </trkpt>
      <trkpt lat="50.0693" lon="4.1961">
        <ele>196.3</ele>
        <time>2020-06-24T17:18:01Z</time>
      </trkpt>
      <trkpt lat="50.06924" lon="4.1961">
        <ele>196.3</ele>
        <time>2020-06-24T17:18:02Z</time>
      </trkpt>
      <trkpt lat="50.06919" lon="4.1961">
        <ele>196.4</ele>
        <time>2020-06-24T17:18:03Z</time>
      </trkpt>
      <trkpt lat="50.06913" lon="4.19609">
        <ele>196.5</ele>
        <time>2020-06-24T17:18:04Z</time>
      </trkpt>
      <trkpt lat="50.06908" lon="4.19608">
        <ele>196.6</ele>
        <time>2020-06-24T17:18:05Z</time>
      </trkpt>
      <trkpt lat="50.06903" lon="4.19607">
        <ele>196.7</ele>
        <time>2020-06-24T17:18:06Z</time>
      </trkpt>
      <trkpt lat="50.06898" lon="4.19606">
        <ele>196.7</ele>
        <time>2020-06-24T17:18:07Z</time>
      </trkpt>
      <trkpt lat="50.06893" lon="4.19605">
        <ele>196.8</ele>
        <time>2020-06-24T17:18:08Z</time>
      </trkpt>
      <trkpt lat="50.06888" lon="4.19604">
        <ele>196.9</ele>
        <time>2020-06-24T17:18:09Z</time>
      </trkpt>
      <trkpt lat="50.06882" lon="4.19603">
        <ele>197</ele>
        <time>2020-06-24T17:18:10Z</time>
      </trkpt>
      <trkpt lat="50.06875" lon="4.196">
        <ele>197.2</ele>
        <time>2020-06-24T17:18:11Z</time>
      </trkpt>
      <trkpt lat="50.06868" lon="4.19597">
        <ele>197.3</ele>
        <time>2020-06-24T17:18:12Z</time>
      </trkpt>
      <trkpt lat="50.06863" lon="4.19595">
        <ele>197.4</ele>
        <time>2020-06-24T17:18:13Z</time>
      </trkpt>
      <trkpt lat="50.06857" lon="4.19592">
        <ele>197.5</ele>
        <time>2020-06-24T17:18:14Z</time>
      </trkpt>
      <trkpt lat="50.06851" lon="4.19589">
        <ele>197.6</ele>
        <time>2020-06-24T17:18:15Z</time>
      </trkpt>
      <trkpt lat="50.06845" lon="4.19587">
        <ele>197.7</ele>
        <time>2020-06-24T17:18:16Z</time>
      </trkpt>
      <trkpt lat="50.0684" lon="4.19584">
        <ele>197.7</ele>
        <time>2020-06-24T17:18:17Z</time>
      </trkpt>
      <trkpt lat="50.06834" lon="4.19582">
        <ele>197.8</ele>
        <time>2020-06-24T17:18:18Z</time>
      </trkpt>
      <trkpt lat="50.06828" lon="4.19579">
        <ele>197.9</ele>
        <time>2020-06-24T17:18:19Z</time>
      </trkpt>
      <trkpt lat="50.06824" lon="4.19577">
        <ele>197.9</ele>
        <time>2020-06-24T17:18:20Z</time>
      </trkpt>
      <trkpt lat="50.06818" lon="4.19575">
        <ele>197.9</ele>
        <time>2020-06-24T17:18:21Z</time>
      </trkpt>
      <trkpt lat="50.06814" lon="4.19573">
        <ele>197.9</ele>
        <time>2020-06-24T17:18:22Z</time>
      </trkpt>
      <trkpt lat="50.06808" lon="4.19571">
        <ele>197.9</ele>
        <time>2020-06-24T17:18:23Z</time>
      </trkpt>
      <trkpt lat="50.06803" lon="4.19569">
        <ele>197.9</ele>
        <time>2020-06-24T17:18:24Z</time>
      </trkpt>
      <trkpt lat="50.06798" lon="4.19568">
        <ele>197.8</ele>
        <time>2020-06-24T17:18:25Z</time>
      </trkpt>
      <trkpt lat="50.06792" lon="4.19565">
        <ele>197.7</ele>
        <time>2020-06-24T17:18:26Z</time>
      </trkpt>
      <trkpt lat="50.06787" lon="4.19563">
        <ele>197.6</ele>
        <time>2020-06-24T17:18:27Z</time>
      </trkpt>
      <trkpt lat="50.06781" lon="4.1956">
        <ele>197.5</ele>
        <time>2020-06-24T17:18:28Z</time>
      </trkpt>
      <trkpt lat="50.06774" lon="4.19558">
        <ele>197.4</ele>
        <time>2020-06-24T17:18:29Z</time>
      </trkpt>
      <trkpt lat="50.06768" lon="4.19556">
        <ele>197.3</ele>
        <time>2020-06-24T17:18:30Z</time>
      </trkpt>
      <trkpt lat="50.06762" lon="4.19554">
        <ele>197.1</ele>
        <time>2020-06-24T17:18:31Z</time>
      </trkpt>
      <trkpt lat="50.06755" lon="4.19552">
        <ele>196.9</ele>
        <time>2020-06-24T17:18:32Z</time>
      </trkpt>
      <trkpt lat="50.06748" lon="4.1955">
        <ele>196.7</ele>
        <time>2020-06-24T17:18:33Z</time>
      </trkpt>
      <trkpt lat="50.06741" lon="4.19548">
        <ele>196.5</ele>
        <time>2020-06-24T17:18:34Z</time>
      </trkpt>
      <trkpt lat="50.06734" lon="4.19546">
        <ele>196.4</ele>
        <time>2020-06-24T17:18:35Z</time>
      </trkpt>
      <trkpt lat="50.06726" lon="4.19544">
        <ele>196.2</ele>
        <time>2020-06-24T17:18:36Z</time>
      </trkpt>
      <trkpt lat="50.06719" lon="4.19542">
        <ele>196.1</ele>
        <time>2020-06-24T17:18:37Z</time>
      </trkpt>
      <trkpt lat="50.06711" lon="4.19541">
        <ele>196</ele>
        <time>2020-06-24T17:18:38Z</time>
      </trkpt>
      <trkpt lat="50.06704" lon="4.1954">
        <ele>195.9</ele>
        <time>2020-06-24T17:18:39Z</time>
      </trkpt>
      <trkpt lat="50.06697" lon="4.19539">
        <ele>195.8</ele>
        <time>2020-06-24T17:18:40Z</time>
      </trkpt>
      <trkpt lat="50.0669" lon="4.19539">
        <ele>195.7</ele>
        <time>2020-06-24T17:18:41Z</time>
      </trkpt>
      <trkpt lat="50.06683" lon="4.19539">
        <ele>195.7</ele>
        <time>2020-06-24T17:18:42Z</time>
      </trkpt>
      <trkpt lat="50.06676" lon="4.19539">
        <ele>195.6</ele>
        <time>2020-06-24T17:18:43Z</time>
      </trkpt>
      <trkpt lat="50.06669" lon="4.1954">
        <ele>195.6</ele>
        <time>2020-06-24T17:18:44Z</time>
      </trkpt>
      <trkpt lat="50.06663" lon="4.19541">
        <ele>195.5</ele>
        <time>2020-06-24T17:18:45Z</time>
      </trkpt>
      <trkpt lat="50.06656" lon="4.19541">
        <ele>195.5</ele>
        <time>2020-06-24T17:18:46Z</time>
      </trkpt>
      <trkpt lat="50.06649" lon="4.19542">
        <ele>195.4</ele>
        <time>2020-06-24T17:18:47Z</time>
      </trkpt>
      <trkpt lat="50.06642" lon="4.19543">
        <ele>195.4</ele>
        <time>2020-06-24T17:18:48Z</time>
      </trkpt>
      <trkpt lat="50.06635" lon="4.19543">
        <ele>195.3</ele>
        <time>2020-06-24T17:18:49Z</time>
      </trkpt>
      <trkpt lat="50.06628" lon="4.19544">
        <ele>195.3</ele>
        <time>2020-06-24T17:18:50Z</time>
      </trkpt>
      <trkpt lat="50.06621" lon="4.19544">
        <ele>195.3</ele>
        <time>2020-06-24T17:18:51Z</time>
      </trkpt>
      <trkpt lat="50.06614" lon="4.19545">
        <ele>195.3</ele>
        <time>2020-06-24T17:18:52Z</time>
      </trkpt>
      <trkpt lat="50.06607" lon="4.19545">
        <ele>195.3</ele>
        <time>2020-06-24T17:18:53Z</time>
      </trkpt>
      <trkpt lat="50.066" lon="4.19545">
        <ele>195.3</ele>
        <time>2020-06-24T17:18:54Z</time>
      </trkpt>
      <trkpt lat="50.06594" lon="4.19545">
        <ele>195.3</ele>
        <time>2020-06-24T17:18:55Z</time>
      </trkpt>
      <trkpt lat="50.06587" lon="4.19546">
        <ele>195.3</ele>
        <time>2020-06-24T17:18:56Z</time>
      </trkpt>
      <trkpt lat="50.0658" lon="4.19545">
        <ele>195.3</ele>
        <time>2020-06-24T17:18:57Z</time>
      </trkpt>
      <trkpt lat="50.06573" lon="4.19545">
        <ele>195.4</ele>
        <time>2020-06-24T17:18:58Z</time>
      </trkpt>
      <trkpt lat="50.06566" lon="4.19546">
        <ele>195.5</ele>
        <time>2020-06-24T17:18:59Z</time>
      </trkpt>
      <trkpt lat="50.06559" lon="4.19546">
        <ele>195.5</ele>
        <time>2020-06-24T17:19:00Z</time>
      </trkpt>
      <trkpt lat="50.06553" lon="4.19547">
        <ele>195.6</ele>
        <time>2020-06-24T17:19:01Z</time>
      </trkpt>
      <trkpt lat="50.06546" lon="4.19547">
        <ele>195.6</ele>
        <time>2020-06-24T17:19:02Z</time>
      </trkpt>
      <trkpt lat="50.0654" lon="4.19548">
        <ele>195.7</ele>
        <time>2020-06-24T17:19:03Z</time>
      </trkpt>
      <trkpt lat="50.06533" lon="4.19547">
        <ele>195.7</ele>
        <time>2020-06-24T17:19:04Z</time>
      </trkpt>
      <trkpt lat="50.06528" lon="4.19547">
        <ele>195.7</ele>
        <time>2020-06-24T17:19:05Z</time>
      </trkpt>
      <trkpt lat="50.06523" lon="4.19547">
        <ele>195.8</ele>
        <time>2020-06-24T17:19:06Z</time>
      </trkpt>
      <trkpt lat="50.06518" lon="4.19547">
        <ele>195.8</ele>
        <time>2020-06-24T17:19:07Z</time>
      </trkpt>
      <trkpt lat="50.06514" lon="4.19547">
        <ele>195.9</ele>
        <time>2020-06-24T17:19:08Z</time>
      </trkpt>
      <trkpt lat="50.0651" lon="4.19547">
        <ele>195.9</ele>
        <time>2020-06-24T17:19:09Z</time>
      </trkpt>
      <trkpt lat="50.06506" lon="4.19548">
        <ele>196</ele>
        <time>2020-06-24T17:19:10Z</time>
      </trkpt>
      <trkpt lat="50.06502" lon="4.1955">
        <ele>196.1</ele>
        <time>2020-06-24T17:19:11Z</time>
      </trkpt>
      <trkpt lat="50.06498" lon="4.19552">
        <ele>196.1</ele>
        <time>2020-06-24T17:19:12Z</time>
      </trkpt>
      <trkpt lat="50.06493" lon="4.19554">
        <ele>196</ele>
        <time>2020-06-24T17:19:13Z</time>
      </trkpt>
      <trkpt lat="50.06489" lon="4.19558">
        <ele>196</ele>
        <time>2020-06-24T17:19:14Z</time>
      </trkpt>
      <trkpt lat="50.06485" lon="4.19562">
        <ele>195.9</ele>
        <time>2020-06-24T17:19:15Z</time>
      </trkpt>
      <trkpt lat="50.06482" lon="4.19567">
        <ele>195.8</ele>
        <time>2020-06-24T17:19:16Z</time>
      </trkpt>
      <trkpt lat="50.06478" lon="4.19572">
        <ele>195.6</ele>
        <time>2020-06-24T17:19:17Z</time>
      </trkpt>
      <trkpt lat="50.06473" lon="4.19577">
        <ele>195.5</ele>
        <time>2020-06-24T17:19:18Z</time>
      </trkpt>
      <trkpt lat="50.06469" lon="4.19585">
        <ele>195.3</ele>
        <time>2020-06-24T17:19:19Z</time>
      </trkpt>
      <trkpt lat="50.06465" lon="4.19592">
        <ele>195.2</ele>
        <time>2020-06-24T17:19:20Z</time>
      </trkpt>
      <trkpt lat="50.06461" lon="4.196">
        <ele>195</ele>
        <time>2020-06-24T17:19:21Z</time>
      </trkpt>
      <trkpt lat="50.06457" lon="4.19608">
        <ele>194.8</ele>
        <time>2020-06-24T17:19:22Z</time>
      </trkpt>
      <trkpt lat="50.06453" lon="4.19617">
        <ele>194.6</ele>
        <time>2020-06-24T17:19:23Z</time>
      </trkpt>
      <trkpt lat="50.0645" lon="4.19626">
        <ele>194.3</ele>
        <time>2020-06-24T17:19:24Z</time>
      </trkpt>
      <trkpt lat="50.06448" lon="4.19637">
        <ele>194.1</ele>
        <time>2020-06-24T17:19:25Z</time>
      </trkpt>
      <trkpt lat="50.06446" lon="4.19648">
        <ele>193.9</ele>
        <time>2020-06-24T17:19:26Z</time>
      </trkpt>
      <trkpt lat="50.06446" lon="4.19659">
        <ele>193.7</ele>
        <time>2020-06-24T17:19:27Z</time>
      </trkpt>
      <trkpt lat="50.06445" lon="4.19672">
        <ele>193.4</ele>
        <time>2020-06-24T17:19:28Z</time>
      </trkpt>
      <trkpt lat="50.06444" lon="4.19684">
        <ele>193.2</ele>
        <time>2020-06-24T17:19:29Z</time>
      </trkpt>
      <trkpt lat="50.06443" lon="4.19697">
        <ele>193</ele>
        <time>2020-06-24T17:19:30Z</time>
      </trkpt>
      <trkpt lat="50.06442" lon="4.1971">
        <ele>192.9</ele>
        <time>2020-06-24T17:19:31Z</time>
      </trkpt>
      <trkpt lat="50.0644" lon="4.19723">
        <ele>192.7</ele>
        <time>2020-06-24T17:19:32Z</time>
      </trkpt>
      <trkpt lat="50.06439" lon="4.19737">
        <ele>192.5</ele>
        <time>2020-06-24T17:19:33Z</time>
      </trkpt>
      <trkpt lat="50.06437" lon="4.1975">
        <ele>192.4</ele>
        <time>2020-06-24T17:19:34Z</time>
      </trkpt>
      <trkpt lat="50.06435" lon="4.19762">
        <ele>192.4</ele>
        <time>2020-06-24T17:19:35Z</time>
      </trkpt>
      <trkpt lat="50.06433" lon="4.19775">
        <ele>192.4</ele>
        <time>2020-06-24T17:19:36Z</time>
      </trkpt>
      <trkpt lat="50.06431" lon="4.19789">
        <ele>192.4</ele>
        <time>2020-06-24T17:19:37Z</time>
      </trkpt>
      <trkpt lat="50.06428" lon="4.19801">
        <ele>192.5</ele>
        <time>2020-06-24T17:19:38Z</time>
      </trkpt>
      <trkpt lat="50.06426" lon="4.19814">
        <ele>192.5</ele>
        <time>2020-06-24T17:19:39Z</time>
      </trkpt>
      <trkpt lat="50.06424" lon="4.19825">
        <ele>192.5</ele>
        <time>2020-06-24T17:19:40Z</time>
      </trkpt>
      <trkpt lat="50.06422" lon="4.19838">
        <ele>192.6</ele>
        <time>2020-06-24T17:19:41Z</time>
      </trkpt>
      <trkpt lat="50.0642" lon="4.1985">
        <ele>192.6</ele>
        <time>2020-06-24T17:19:42Z</time>
      </trkpt>
      <trkpt lat="50.06417" lon="4.19861">
        <ele>192.6</ele>
        <time>2020-06-24T17:19:43Z</time>
      </trkpt>
      <trkpt lat="50.06415" lon="4.19871">
        <ele>192.6</ele>
        <time>2020-06-24T17:19:44Z</time>
      </trkpt>
      <trkpt lat="50.06412" lon="4.19882">
        <ele>192.6</ele>
        <time>2020-06-24T17:19:45Z</time>
      </trkpt>
      <trkpt lat="50.06407" lon="4.19891">
        <ele>192.6</ele>
        <time>2020-06-24T17:19:46Z</time>
      </trkpt>
      <trkpt lat="50.06401" lon="4.19897">
        <ele>192.7</ele>
        <time>2020-06-24T17:19:47Z</time>
      </trkpt>
      <trkpt lat="50.06394" lon="4.19901">
        <ele>192.8</ele>
        <time>2020-06-24T17:19:48Z</time>
      </trkpt>
      <trkpt lat="50.06386" lon="4.19904">
        <ele>193</ele>
        <time>2020-06-24T17:19:49Z</time>
      </trkpt>
      <trkpt lat="50.06379" lon="4.19907">
        <ele>193.2</ele>
        <time>2020-06-24T17:19:50Z</time>
      </trkpt>
      <trkpt lat="50.06372" lon="4.1991">
        <ele>193.5</ele>
        <time>2020-06-24T17:19:51Z</time>
      </trkpt>
      <trkpt lat="50.06366" lon="4.19913">
        <ele>193.8</ele>
        <time>2020-06-24T17:19:52Z</time>
      </trkpt>
      <trkpt lat="50.06359" lon="4.19915">
        <ele>194.1</ele>
        <time>2020-06-24T17:19:53Z</time>
      </trkpt>
      <trkpt lat="50.06353" lon="4.19919">
        <ele>194.5</ele>
        <time>2020-06-24T17:19:54Z</time>
      </trkpt>
      <trkpt lat="50.06347" lon="4.19922">
        <ele>194.8</ele>
        <time>2020-06-24T17:19:55Z</time>
      </trkpt>
      <trkpt lat="50.06341" lon="4.19926">
        <ele>195.1</ele>
        <time>2020-06-24T17:19:56Z</time>
      </trkpt>
      <trkpt lat="50.06336" lon="4.19929">
        <ele>195.1</ele>
        <time>2020-06-24T17:19:57Z</time>
      </trkpt>
      <trkpt lat="50.06332" lon="4.19933">
        <ele>195.1</ele>
        <time>2020-06-24T17:19:58Z</time>
      </trkpt>
      <trkpt lat="50.06328" lon="4.19936">
        <ele>195.2</ele>
        <time>2020-06-24T17:19:59Z</time>
      </trkpt>
      <trkpt lat="50.06324" lon="4.19941">
        <ele>195.3</ele>
        <time>2020-06-24T17:20:00Z</time>
      </trkpt>
      <trkpt lat="50.0632" lon="4.19946">
        <ele>195.4</ele>
        <time>2020-06-24T17:20:01Z</time>
      </trkpt>
      <trkpt lat="50.06317" lon="4.19951">
        <ele>195.6</ele>
        <time>2020-06-24T17:20:02Z</time>
      </trkpt>
      <trkpt lat="50.06314" lon="4.19958">
        <ele>195.8</ele>
        <time>2020-06-24T17:20:03Z</time>
      </trkpt>
      <trkpt lat="50.06313" lon="4.19964">
        <ele>196</ele>
        <time>2020-06-24T17:20:04Z</time>
      </trkpt>
      <trkpt lat="50.06313" lon="4.19971">
        <ele>196.2</ele>
        <time>2020-06-24T17:20:05Z</time>
      </trkpt>
      <trkpt lat="50.06313" lon="4.19976">
        <ele>196.3</ele>
        <time>2020-06-24T17:20:06Z</time>
      </trkpt>
      <trkpt lat="50.06313" lon="4.19983">
        <ele>196.5</ele>
        <time>2020-06-24T17:20:07Z</time>
      </trkpt>
      <trkpt lat="50.06313" lon="4.19989">
        <ele>196.6</ele>
        <time>2020-06-24T17:20:08Z</time>
      </trkpt>
      <trkpt lat="50.06313" lon="4.19996">
        <ele>196.8</ele>
        <time>2020-06-24T17:20:09Z</time>
      </trkpt>
      <trkpt lat="50.06314" lon="4.20002">
        <ele>196.9</ele>
        <time>2020-06-24T17:20:10Z</time>
      </trkpt>
      <trkpt lat="50.06315" lon="4.20009">
        <ele>197.1</ele>
        <time>2020-06-24T17:20:11Z</time>
      </trkpt>
      <trkpt lat="50.06315" lon="4.20016">
        <ele>197.3</ele>
        <time>2020-06-24T17:20:12Z</time>
      </trkpt>
      <trkpt lat="50.06316" lon="4.20024">
        <ele>197.5</ele>
        <time>2020-06-24T17:20:13Z</time>
      </trkpt>
      <trkpt lat="50.06316" lon="4.20032">
        <ele>197.6</ele>
        <time>2020-06-24T17:20:14Z</time>
      </trkpt>
      <trkpt lat="50.06315" lon="4.20039">
        <ele>197.8</ele>
        <time>2020-06-24T17:20:15Z</time>
      </trkpt>
      <trkpt lat="50.06313" lon="4.20046">
        <ele>197.9</ele>
        <time>2020-06-24T17:20:16Z</time>
      </trkpt>
      <trkpt lat="50.06311" lon="4.20054">
        <ele>198.1</ele>
        <time>2020-06-24T17:20:17Z</time>
      </trkpt>
      <trkpt lat="50.06308" lon="4.20062">
        <ele>198.2</ele>
        <time>2020-06-24T17:20:18Z</time>
      </trkpt>
      <trkpt lat="50.06305" lon="4.2007">
        <ele>198.4</ele>
        <time>2020-06-24T17:20:19Z</time>
      </trkpt>
      <trkpt lat="50.06302" lon="4.20077">
        <ele>198.6</ele>
        <time>2020-06-24T17:20:20Z</time>
      </trkpt>
      <trkpt lat="50.063" lon="4.20084">
        <ele>198.8</ele>
        <time>2020-06-24T17:20:21Z</time>
      </trkpt>
      <trkpt lat="50.06298" lon="4.20091">
        <ele>198.9</ele>
        <time>2020-06-24T17:20:22Z</time>
      </trkpt>
      <trkpt lat="50.06298" lon="4.20101">
        <ele>199.1</ele>
        <time>2020-06-24T17:20:23Z</time>
      </trkpt>
      <trkpt lat="50.06298" lon="4.2011">
        <ele>199.3</ele>
        <time>2020-06-24T17:20:24Z</time>
      </trkpt>
      <trkpt lat="50.06297" lon="4.2012">
        <ele>199.4</ele>
        <time>2020-06-24T17:20:25Z</time>
      </trkpt>
      <trkpt lat="50.06297" lon="4.20128">
        <ele>199.6</ele>
        <time>2020-06-24T17:20:26Z</time>
      </trkpt>
      <trkpt lat="50.06296" lon="4.20137">
        <ele>199.7</ele>
        <time>2020-06-24T17:20:27Z</time>
      </trkpt>
      <trkpt lat="50.06296" lon="4.20145">
        <ele>199.8</ele>
        <time>2020-06-24T17:20:28Z</time>
      </trkpt>
      <trkpt lat="50.06295" lon="4.20153">
        <ele>200</ele>
        <time>2020-06-24T17:20:29Z</time>
      </trkpt>
      <trkpt lat="50.06295" lon="4.20162">
        <ele>200.2</ele>
        <time>2020-06-24T17:20:30Z</time>
      </trkpt>
      <trkpt lat="50.06294" lon="4.2017">
        <ele>200.3</ele>
        <time>2020-06-24T17:20:31Z</time>
      </trkpt>
      <trkpt lat="50.06294" lon="4.20179">
        <ele>200.5</ele>
        <time>2020-06-24T17:20:32Z</time>
      </trkpt>
      <trkpt lat="50.06294" lon="4.20186">
        <ele>200.6</ele>
        <time>2020-06-24T17:20:33Z</time>
      </trkpt>
      <trkpt lat="50.06294" lon="4.20193">
        <ele>200.7</ele>
        <time>2020-06-24T17:20:34Z</time>
      </trkpt>
      <trkpt lat="50.06294" lon="4.20198">
        <ele>200.8</ele>
        <time>2020-06-24T17:20:35Z</time>
      </trkpt>
      <trkpt lat="50.06293" lon="4.20206">
        <ele>200.9</ele>
        <time>2020-06-24T17:20:36Z</time>
      </trkpt>
      <trkpt lat="50.06293" lon="4.20212">
        <ele>201.1</ele>
        <time>2020-06-24T17:20:37Z</time>
      </trkpt>
      <trkpt lat="50.06293" lon="4.20219">
        <ele>201.2</ele>
        <time>2020-06-24T17:20:38Z</time>
      </trkpt>
      <trkpt lat="50.06293" lon="4.20225">
        <ele>201.3</ele>
        <time>2020-06-24T17:20:39Z</time>
      </trkpt>
      <trkpt lat="50.06293" lon="4.20231">
        <ele>201.4</ele>
        <time>2020-06-24T17:20:40Z</time>
      </trkpt>
      <trkpt lat="50.06292" lon="4.20238">
        <ele>201.5</ele>
        <time>2020-06-24T17:20:41Z</time>
      </trkpt>
      <trkpt lat="50.06292" lon="4.20243">
        <ele>201.6</ele>
        <time>2020-06-24T17:20:42Z</time>
      </trkpt>
      <trkpt lat="50.06292" lon="4.2025">
        <ele>201.7</ele>
        <time>2020-06-24T17:20:43Z</time>
      </trkpt>
      <trkpt lat="50.06292" lon="4.20258">
        <ele>201.8</ele>
        <time>2020-06-24T17:20:44Z</time>
      </trkpt>
      <trkpt lat="50.06292" lon="4.20265">
        <ele>201.9</ele>
        <time>2020-06-24T17:20:45Z</time>
      </trkpt>
      <trkpt lat="50.06292" lon="4.20272">
        <ele>202</ele>
        <time>2020-06-24T17:20:46Z</time>
      </trkpt>
      <trkpt lat="50.06292" lon="4.2028">
        <ele>202.1</ele>
        <time>2020-06-24T17:20:47Z</time>
      </trkpt>
      <trkpt lat="50.06291" lon="4.20289">
        <ele>202.2</ele>
        <time>2020-06-24T17:20:48Z</time>
      </trkpt>
      <trkpt lat="50.06291" lon="4.20298">
        <ele>202.3</ele>
        <time>2020-06-24T17:20:49Z</time>
      </trkpt>
      <trkpt lat="50.0629" lon="4.20308">
        <ele>202.3</ele>
        <time>2020-06-24T17:20:50Z</time>
      </trkpt>
      <trkpt lat="50.0629" lon="4.20316">
        <ele>202.4</ele>
        <time>2020-06-24T17:20:51Z</time>
      </trkpt>
      <trkpt lat="50.0629" lon="4.20324">
        <ele>202.4</ele>
        <time>2020-06-24T17:20:52Z</time>
      </trkpt>
      <trkpt lat="50.0629" lon="4.20332">
        <ele>202.5</ele>
        <time>2020-06-24T17:20:53Z</time>
      </trkpt>
      <trkpt lat="50.06289" lon="4.2034">
        <ele>202.6</ele>
        <time>2020-06-24T17:20:54Z</time>
      </trkpt>
      <trkpt lat="50.06289" lon="4.20347">
        <ele>202.6</ele>
        <time>2020-06-24T17:20:55Z</time>
      </trkpt>
      <trkpt lat="50.06289" lon="4.20355">
        <ele>202.7</ele>
        <time>2020-06-24T17:20:56Z</time>
      </trkpt>
      <trkpt lat="50.06289" lon="4.20362">
        <ele>202.8</ele>
        <time>2020-06-24T17:20:57Z</time>
      </trkpt>
      <trkpt lat="50.06289" lon="4.20368">
        <ele>202.8</ele>
        <time>2020-06-24T17:20:58Z</time>
      </trkpt>
      <trkpt lat="50.06288" lon="4.20374">
        <ele>202.9</ele>
        <time>2020-06-24T17:20:59Z</time>
      </trkpt>
      <trkpt lat="50.06288" lon="4.20381">
        <ele>202.9</ele>
        <time>2020-06-24T17:21:00Z</time>
      </trkpt>
      <trkpt lat="50.06287" lon="4.20389">
        <ele>203</ele>
        <time>2020-06-24T17:21:01Z</time>
      </trkpt>
      <trkpt lat="50.06287" lon="4.20397">
        <ele>203</ele>
        <time>2020-06-24T17:21:02Z</time>
      </trkpt>
      <trkpt lat="50.06286" lon="4.20404">
        <ele>203.1</ele>
        <time>2020-06-24T17:21:03Z</time>
      </trkpt>
      <trkpt lat="50.06286" lon="4.20411">
        <ele>203.1</ele>
        <time>2020-06-24T17:21:04Z</time>
      </trkpt>
      <trkpt lat="50.06286" lon="4.20418">
        <ele>203.1</ele>
        <time>2020-06-24T17:21:05Z</time>
      </trkpt>
      <trkpt lat="50.06286" lon="4.20427">
        <ele>203</ele>
        <time>2020-06-24T17:21:06Z</time>
      </trkpt>
      <trkpt lat="50.06286" lon="4.20435">
        <ele>203</ele>
        <time>2020-06-24T17:21:07Z</time>
      </trkpt>
      <trkpt lat="50.06286" lon="4.20442">
        <ele>203</ele>
        <time>2020-06-24T17:21:08Z</time>
      </trkpt>
      <trkpt lat="50.06285" lon="4.2045">
        <ele>203</ele>
        <time>2020-06-24T17:21:09Z</time>
      </trkpt>
      <trkpt lat="50.06285" lon="4.20458">
        <ele>203</ele>
        <time>2020-06-24T17:21:10Z</time>
      </trkpt>
      <trkpt lat="50.06285" lon="4.20466">
        <ele>203</ele>
        <time>2020-06-24T17:21:11Z</time>
      </trkpt>
      <trkpt lat="50.06284" lon="4.20475">
        <ele>203</ele>
        <time>2020-06-24T17:21:12Z</time>
      </trkpt>
      <trkpt lat="50.06284" lon="4.20482">
        <ele>203.1</ele>
        <time>2020-06-24T17:21:13Z</time>
      </trkpt>
      <trkpt lat="50.06284" lon="4.20491">
        <ele>203.1</ele>
        <time>2020-06-24T17:21:14Z</time>
      </trkpt>
      <trkpt lat="50.06284" lon="4.20499">
        <ele>203.1</ele>
        <time>2020-06-24T17:21:15Z</time>
      </trkpt>
      <trkpt lat="50.06283" lon="4.20507">
        <ele>203.1</ele>
        <time>2020-06-24T17:21:16Z</time>
      </trkpt>
      <trkpt lat="50.06283" lon="4.20516">
        <ele>203.1</ele>
        <time>2020-06-24T17:21:17Z</time>
      </trkpt>
      <trkpt lat="50.06282" lon="4.20523">
        <ele>203.1</ele>
        <time>2020-06-24T17:21:18Z</time>
      </trkpt>
      <trkpt lat="50.06282" lon="4.20531">
        <ele>203.1</ele>
        <time>2020-06-24T17:21:19Z</time>
      </trkpt>
      <trkpt lat="50.06282" lon="4.20541">
        <ele>203.1</ele>
        <time>2020-06-24T17:21:20Z</time>
      </trkpt>
      <trkpt lat="50.06282" lon="4.2055">
        <ele>203.1</ele>
        <time>2020-06-24T17:21:21Z</time>
      </trkpt>
      <trkpt lat="50.06282" lon="4.2056">
        <ele>203</ele>
        <time>2020-06-24T17:21:22Z</time>
      </trkpt>
      <trkpt lat="50.06283" lon="4.20569">
        <ele>203</ele>
        <time>2020-06-24T17:21:23Z</time>
      </trkpt>
      <trkpt lat="50.06283" lon="4.20577">
        <ele>202.9</ele>
        <time>2020-06-24T17:21:24Z</time>
      </trkpt>
      <trkpt lat="50.06283" lon="4.20585">
        <ele>202.9</ele>
        <time>2020-06-24T17:21:25Z</time>
      </trkpt>
      <trkpt lat="50.06284" lon="4.20595">
        <ele>202.8</ele>
        <time>2020-06-24T17:21:26Z</time>
      </trkpt>
      <trkpt lat="50.06285" lon="4.20604">
        <ele>202.8</ele>
        <time>2020-06-24T17:21:27Z</time>
      </trkpt>
      <trkpt lat="50.06286" lon="4.20613">
        <ele>202.8</ele>
        <time>2020-06-24T17:21:28Z</time>
      </trkpt>
      <trkpt lat="50.06287" lon="4.20622">
        <ele>202.9</ele>
        <time>2020-06-24T17:21:29Z</time>
      </trkpt>
      <trkpt lat="50.06288" lon="4.20631">
        <ele>202.9</ele>
        <time>2020-06-24T17:21:30Z</time>
      </trkpt>
      <trkpt lat="50.06288" lon="4.20641">
        <ele>202.9</ele>
        <time>2020-06-24T17:21:31Z</time>
      </trkpt>
      <trkpt lat="50.06289" lon="4.2065">
        <ele>203</ele>
        <time>2020-06-24T17:21:32Z</time>
      </trkpt>
      <trkpt lat="50.0629" lon="4.20659">
        <ele>203</ele>
        <time>2020-06-24T17:21:33Z</time>
      </trkpt>
      <trkpt lat="50.06291" lon="4.20668">
        <ele>203.1</ele>
        <time>2020-06-24T17:21:34Z</time>
      </trkpt>
      <trkpt lat="50.06292" lon="4.20676">
        <ele>203.1</ele>
        <time>2020-06-24T17:21:35Z</time>
      </trkpt>
      <trkpt lat="50.06293" lon="4.20684">
        <ele>203.1</ele>
        <time>2020-06-24T17:21:36Z</time>
      </trkpt>
      <trkpt lat="50.06294" lon="4.20692">
        <ele>203.2</ele>
        <time>2020-06-24T17:21:37Z</time>
      </trkpt>
      <trkpt lat="50.06296" lon="4.20701">
        <ele>203.2</ele>
        <time>2020-06-24T17:21:38Z</time>
      </trkpt>
      <trkpt lat="50.06298" lon="4.20709">
        <ele>203.2</ele>
        <time>2020-06-24T17:21:39Z</time>
      </trkpt>
      <trkpt lat="50.06301" lon="4.20718">
        <ele>203.3</ele>
        <time>2020-06-24T17:21:40Z</time>
      </trkpt>
      <trkpt lat="50.06302" lon="4.20724">
        <ele>203.3</ele>
        <time>2020-06-24T17:21:41Z</time>
      </trkpt>
      <trkpt lat="50.06305" lon="4.20732">
        <ele>203.3</ele>
        <time>2020-06-24T17:21:42Z</time>
      </trkpt>
      <trkpt lat="50.06307" lon="4.20741">
        <ele>203.4</ele>
        <time>2020-06-24T17:21:43Z</time>
      </trkpt>
      <trkpt lat="50.06311" lon="4.20749">
        <ele>203.4</ele>
        <time>2020-06-24T17:21:44Z</time>
      </trkpt>
      <trkpt lat="50.06313" lon="4.20759">
        <ele>203.6</ele>
        <time>2020-06-24T17:21:45Z</time>
      </trkpt>
      <trkpt lat="50.06316" lon="4.20766">
        <ele>203.7</ele>
        <time>2020-06-24T17:21:46Z</time>
      </trkpt>
      <trkpt lat="50.06319" lon="4.20774">
        <ele>203.8</ele>
        <time>2020-06-24T17:21:47Z</time>
      </trkpt>
      <trkpt lat="50.06321" lon="4.20781">
        <ele>204</ele>
        <time>2020-06-24T17:21:48Z</time>
      </trkpt>
      <trkpt lat="50.06323" lon="4.20788">
        <ele>204.2</ele>
        <time>2020-06-24T17:21:49Z</time>
      </trkpt>
      <trkpt lat="50.06326" lon="4.20796">
        <ele>204.4</ele>
        <time>2020-06-24T17:21:50Z</time>
      </trkpt>
      <trkpt lat="50.06329" lon="4.20803">
        <ele>204.7</ele>
        <time>2020-06-24T17:21:51Z</time>
      </trkpt>
      <trkpt lat="50.06331" lon="4.20811">
        <ele>204.9</ele>
        <time>2020-06-24T17:21:52Z</time>
      </trkpt>
      <trkpt lat="50.06334" lon="4.20817">
        <ele>205.2</ele>
        <time>2020-06-24T17:21:53Z</time>
      </trkpt>
      <trkpt lat="50.06336" lon="4.20824">
        <ele>205.5</ele>
        <time>2020-06-24T17:21:54Z</time>
      </trkpt>
      <trkpt lat="50.06339" lon="4.20831">
        <ele>205.7</ele>
        <time>2020-06-24T17:21:55Z</time>
      </trkpt>
      <trkpt lat="50.06341" lon="4.20838">
        <ele>205.9</ele>
        <time>2020-06-24T17:21:56Z</time>
      </trkpt>
      <trkpt lat="50.06344" lon="4.20845">
        <ele>206.1</ele>
        <time>2020-06-24T17:21:57Z</time>
      </trkpt>
      <trkpt lat="50.06346" lon="4.20852">
        <ele>206.3</ele>
        <time>2020-06-24T17:21:58Z</time>
      </trkpt>
      <trkpt lat="50.06349" lon="4.2086">
        <ele>206.5</ele>
        <time>2020-06-24T17:21:59Z</time>
      </trkpt>
      <trkpt lat="50.06351" lon="4.20866">
        <ele>206.6</ele>
        <time>2020-06-24T17:22:00Z</time>
      </trkpt>
      <trkpt lat="50.06354" lon="4.20873">
        <ele>206.8</ele>
        <time>2020-06-24T17:22:01Z</time>
      </trkpt>
      <trkpt lat="50.06356" lon="4.20881">
        <ele>207</ele>
        <time>2020-06-24T17:22:02Z</time>
      </trkpt>
      <trkpt lat="50.06359" lon="4.20888">
        <ele>207.2</ele>
        <time>2020-06-24T17:22:03Z</time>
      </trkpt>
      <trkpt lat="50.06362" lon="4.20895">
        <ele>207.5</ele>
        <time>2020-06-24T17:22:04Z</time>
      </trkpt>
      <trkpt lat="50.06364" lon="4.20902">
        <ele>207.7</ele>
        <time>2020-06-24T17:22:05Z</time>
      </trkpt>
      <trkpt lat="50.06367" lon="4.20909">
        <ele>207.9</ele>
        <time>2020-06-24T17:22:06Z</time>
      </trkpt>
      <trkpt lat="50.06369" lon="4.20916">
        <ele>208.1</ele>
        <time>2020-06-24T17:22:07Z</time>
      </trkpt>
      <trkpt lat="50.06372" lon="4.20924">
        <ele>208.3</ele>
        <time>2020-06-24T17:22:08Z</time>
      </trkpt>
      <trkpt lat="50.06374" lon="4.20931">
        <ele>208.5</ele>
        <time>2020-06-24T17:22:09Z</time>
      </trkpt>
      <trkpt lat="50.06377" lon="4.20938">
        <ele>208.6</ele>
        <time>2020-06-24T17:22:10Z</time>
      </trkpt>
      <trkpt lat="50.0638" lon="4.20945">
        <ele>208.8</ele>
        <time>2020-06-24T17:22:11Z</time>
      </trkpt>
      <trkpt lat="50.06383" lon="4.20952">
        <ele>208.9</ele>
        <time>2020-06-24T17:22:12Z</time>
      </trkpt>
      <trkpt lat="50.06386" lon="4.20958">
        <ele>209.1</ele>
        <time>2020-06-24T17:22:13Z</time>
      </trkpt>
      <trkpt lat="50.06389" lon="4.20966">
        <ele>209.2</ele>
        <time>2020-06-24T17:22:14Z</time>
      </trkpt>
      <trkpt lat="50.06392" lon="4.20972">
        <ele>209.3</ele>
        <time>2020-06-24T17:22:15Z</time>
      </trkpt>
      <trkpt lat="50.06395" lon="4.20979">
        <ele>209.5</ele>
        <time>2020-06-24T17:22:16Z</time>
      </trkpt>
      <trkpt lat="50.06398" lon="4.20985">
        <ele>209.6</ele>
        <time>2020-06-24T17:22:17Z</time>
      </trkpt>
      <trkpt lat="50.06401" lon="4.20992">
        <ele>209.8</ele>
        <time>2020-06-24T17:22:18Z</time>
      </trkpt>
      <trkpt lat="50.06405" lon="4.20998">
        <ele>209.9</ele>
        <time>2020-06-24T17:22:19Z</time>
      </trkpt>
      <trkpt lat="50.06408" lon="4.21003">
        <ele>210.1</ele>
        <time>2020-06-24T17:22:20Z</time>
      </trkpt>
      <trkpt lat="50.06412" lon="4.2101">
        <ele>210.3</ele>
        <time>2020-06-24T17:22:21Z</time>
      </trkpt>
      <trkpt lat="50.06415" lon="4.21015">
        <ele>210.4</ele>
        <time>2020-06-24T17:22:22Z</time>
      </trkpt>
      <trkpt lat="50.06418" lon="4.21022">
        <ele>210.6</ele>
        <time>2020-06-24T17:22:23Z</time>
      </trkpt>
      <trkpt lat="50.06422" lon="4.21028">
        <ele>210.8</ele>
        <time>2020-06-24T17:22:24Z</time>
      </trkpt>
      <trkpt lat="50.06425" lon="4.21035">
        <ele>211</ele>
        <time>2020-06-24T17:22:25Z</time>
      </trkpt>
      <trkpt lat="50.06428" lon="4.21042">
        <ele>211.3</ele>
        <time>2020-06-24T17:22:26Z</time>
      </trkpt>
      <trkpt lat="50.0643" lon="4.21048">
        <ele>211.6</ele>
        <time>2020-06-24T17:22:27Z</time>
      </trkpt>
      <trkpt lat="50.06432" lon="4.21055">
        <ele>211.9</ele>
        <time>2020-06-24T17:22:28Z</time>
      </trkpt>
      <trkpt lat="50.06433" lon="4.21063">
        <ele>212.2</ele>
        <time>2020-06-24T17:22:29Z</time>
      </trkpt>
      <trkpt lat="50.06435" lon="4.2107">
        <ele>212.5</ele>
        <time>2020-06-24T17:22:30Z</time>
      </trkpt>
      <trkpt lat="50.06437" lon="4.21076">
        <ele>212.7</ele>
        <time>2020-06-24T17:22:31Z</time>
      </trkpt>
      <trkpt lat="50.06438" lon="4.21081">
        <ele>212.9</ele>
        <time>2020-06-24T17:22:32Z</time>
      </trkpt>
      <trkpt lat="50.0644" lon="4.21087">
        <ele>213.1</ele>
        <time>2020-06-24T17:22:33Z</time>
      </trkpt>
      <trkpt lat="50.06442" lon="4.21093">
        <ele>213.3</ele>
        <time>2020-06-24T17:22:34Z</time>
      </trkpt>
      <trkpt lat="50.06444" lon="4.21099">
        <ele>213.5</ele>
        <time>2020-06-24T17:22:35Z</time>
      </trkpt>
      <trkpt lat="50.06445" lon="4.21104">
        <ele>213.7</ele>
        <time>2020-06-24T17:22:36Z</time>
      </trkpt>
      <trkpt lat="50.06447" lon="4.2111">
        <ele>213.9</ele>
        <time>2020-06-24T17:22:37Z</time>
      </trkpt>
      <trkpt lat="50.06449" lon="4.21115">
        <ele>214.1</ele>
        <time>2020-06-24T17:22:38Z</time>
      </trkpt>
      <trkpt lat="50.0645" lon="4.2112">
        <ele>214.3</ele>
        <time>2020-06-24T17:22:39Z</time>
      </trkpt>
      <trkpt lat="50.06452" lon="4.21125">
        <ele>214.6</ele>
        <time>2020-06-24T17:22:40Z</time>
      </trkpt>
      <trkpt lat="50.06454" lon="4.21131">
        <ele>214.8</ele>
        <time>2020-06-24T17:22:41Z</time>
      </trkpt>
      <trkpt lat="50.06455" lon="4.21135">
        <ele>215</ele>
        <time>2020-06-24T17:22:42Z</time>
      </trkpt>
      <trkpt lat="50.06457" lon="4.2114">
        <ele>215.3</ele>
        <time>2020-06-24T17:22:43Z</time>
      </trkpt>
      <trkpt lat="50.06459" lon="4.21143">
        <ele>215.5</ele>
        <time>2020-06-24T17:22:44Z</time>
      </trkpt>
      <trkpt lat="50.06461" lon="4.21148">
        <ele>215.7</ele>
        <time>2020-06-24T17:22:45Z</time>
      </trkpt>
      <trkpt lat="50.06463" lon="4.21154">
        <ele>216</ele>
        <time>2020-06-24T17:22:46Z</time>
      </trkpt>
      <trkpt lat="50.06465" lon="4.2116">
        <ele>216.4</ele>
        <time>2020-06-24T17:22:47Z</time>
      </trkpt>
      <trkpt lat="50.06468" lon="4.21166">
        <ele>216.7</ele>
        <time>2020-06-24T17:22:48Z</time>
      </trkpt>
      <trkpt lat="50.0647" lon="4.21171">
        <ele>217.1</ele>
        <time>2020-06-24T17:22:49Z</time>
      </trkpt>
      <trkpt lat="50.06473" lon="4.21175">
        <ele>217.3</ele>
        <time>2020-06-24T17:22:50Z</time>
      </trkpt>
      <trkpt lat="50.06475" lon="4.21179">
        <ele>217.6</ele>
        <time>2020-06-24T17:22:51Z</time>
      </trkpt>
      <trkpt lat="50.06477" lon="4.21183">
        <ele>217.9</ele>
        <time>2020-06-24T17:22:52Z</time>
      </trkpt>
      <trkpt lat="50.0648" lon="4.21187">
        <ele>218.2</ele>
        <time>2020-06-24T17:22:53Z</time>
      </trkpt>
      <trkpt lat="50.06482" lon="4.2119">
        <ele>218.4</ele>
        <time>2020-06-24T17:22:54Z</time>
      </trkpt>
      <trkpt lat="50.06484" lon="4.21195">
        <ele>218.7</ele>
        <time>2020-06-24T17:22:55Z</time>
      </trkpt>
      <trkpt lat="50.06486" lon="4.212">
        <ele>219</ele>
        <time>2020-06-24T17:22:56Z</time>
      </trkpt>
      <trkpt lat="50.06488" lon="4.21205">
        <ele>219.3</ele>
        <time>2020-06-24T17:22:57Z</time>
      </trkpt>
      <trkpt lat="50.0649" lon="4.2121">
        <ele>219.6</ele>
        <time>2020-06-24T17:22:58Z</time>
      </trkpt>
      <trkpt lat="50.06492" lon="4.21214">
        <ele>219.8</ele>
        <time>2020-06-24T17:22:59Z</time>
      </trkpt>
      <trkpt lat="50.06494" lon="4.21219">
        <ele>220</ele>
        <time>2020-06-24T17:23:00Z</time>
      </trkpt>
      <trkpt lat="50.06495" lon="4.21223">
        <ele>220.3</ele>
        <time>2020-06-24T17:23:01Z</time>
      </trkpt>
      <trkpt lat="50.06497" lon="4.21228">
        <ele>220.5</ele>
        <time>2020-06-24T17:23:02Z</time>
      </trkpt>
      <trkpt lat="50.06498" lon="4.21232">
        <ele>220.7</ele>
        <time>2020-06-24T17:23:03Z</time>
      </trkpt>
      <trkpt lat="50.065" lon="4.21237">
        <ele>221</ele>
        <time>2020-06-24T17:23:04Z</time>
      </trkpt>
      <trkpt lat="50.06502" lon="4.21241">
        <ele>221.2</ele>
        <time>2020-06-24T17:23:05Z</time>
      </trkpt>
      <trkpt lat="50.06503" lon="4.21246">
        <ele>221.5</ele>
        <time>2020-06-24T17:23:06Z</time>
      </trkpt>
      <trkpt lat="50.06505" lon="4.21251">
        <ele>221.7</ele>
        <time>2020-06-24T17:23:07Z</time>
      </trkpt>
      <trkpt lat="50.06507" lon="4.21255">
        <ele>221.9</ele>
        <time>2020-06-24T17:23:08Z</time>
      </trkpt>
      <trkpt lat="50.06509" lon="4.21258">
        <ele>222.1</ele>
        <time>2020-06-24T17:23:09Z</time>
      </trkpt>
      <trkpt lat="50.06511" lon="4.21264">
        <ele>222.4</ele>
        <time>2020-06-24T17:23:10Z</time>
      </trkpt>
      <trkpt lat="50.06511" lon="4.21266">
        <ele>222.5</ele>
        <time>2020-06-24T17:23:11Z</time>
      </trkpt>
      <trkpt lat="50.06512" lon="4.2127">
        <ele>222.7</ele>
        <time>2020-06-24T17:23:12Z</time>
      </trkpt>
      <trkpt lat="50.06514" lon="4.21275">
        <ele>223</ele>
        <time>2020-06-24T17:23:13Z</time>
      </trkpt>
      <trkpt lat="50.06514" lon="4.21277">
        <ele>223.1</ele>
        <time>2020-06-24T17:23:14Z</time>
      </trkpt>
      <trkpt lat="50.06515" lon="4.21281">
        <ele>223.3</ele>
        <time>2020-06-24T17:23:15Z</time>
      </trkpt>
      <trkpt lat="50.06518" lon="4.21287">
        <ele>223.6</ele>
        <time>2020-06-24T17:23:16Z</time>
      </trkpt>
      <trkpt lat="50.06518" lon="4.21289">
        <ele>223.7</ele>
        <time>2020-06-24T17:23:17Z</time>
      </trkpt>
      <trkpt lat="50.06519" lon="4.21293">
        <ele>223.9</ele>
        <time>2020-06-24T17:23:18Z</time>
      </trkpt>
      <trkpt lat="50.06521" lon="4.21298">
        <ele>224.2</ele>
        <time>2020-06-24T17:23:19Z</time>
      </trkpt>
      <trkpt lat="50.06522" lon="4.213">
        <ele>224.3</ele>
        <time>2020-06-24T17:23:20Z</time>
      </trkpt>
      <trkpt lat="50.06524" lon="4.21306">
        <ele>224.6</ele>
        <time>2020-06-24T17:23:21Z</time>
      </trkpt>
      <trkpt lat="50.06525" lon="4.21308">
        <ele>224.7</ele>
        <time>2020-06-24T17:23:22Z</time>
      </trkpt>
      <trkpt lat="50.06526" lon="4.21312">
        <ele>224.9</ele>
        <time>2020-06-24T17:23:23Z</time>
      </trkpt>
      <trkpt lat="50.06528" lon="4.21316">
        <ele>225.1</ele>
        <time>2020-06-24T17:23:24Z</time>
      </trkpt>
      <trkpt lat="50.06529" lon="4.2132">
        <ele>225.3</ele>
        <time>2020-06-24T17:23:25Z</time>
      </trkpt>
      <trkpt lat="50.0653" lon="4.21324">
        <ele>225.5</ele>
        <time>2020-06-24T17:23:26Z</time>
      </trkpt>
      <trkpt lat="50.06532" lon="4.21329">
        <ele>225.8</ele>
        <time>2020-06-24T17:23:27Z</time>
      </trkpt>
      <trkpt lat="50.06533" lon="4.21335">
        <ele>226.1</ele>
        <time>2020-06-24T17:23:28Z</time>
      </trkpt>
      <trkpt lat="50.06534" lon="4.21337">
        <ele>226.2</ele>
        <time>2020-06-24T17:23:29Z</time>
      </trkpt>
      <trkpt lat="50.06535" lon="4.21342">
        <ele>226.4</ele>
        <time>2020-06-24T17:23:30Z</time>
      </trkpt>
      <trkpt lat="50.06536" lon="4.21344">
        <ele>226.5</ele>
        <time>2020-06-24T17:23:31Z</time>
      </trkpt>
      <trkpt lat="50.06537" lon="4.21348">
        <ele>226.7</ele>
        <time>2020-06-24T17:23:32Z</time>
      </trkpt>
      <trkpt lat="50.06538" lon="4.21354">
        <ele>227</ele>
        <time>2020-06-24T17:23:33Z</time>
      </trkpt>
      <trkpt lat="50.06539" lon="4.21355">
        <ele>227.1</ele>
        <time>2020-06-24T17:23:34Z</time>
      </trkpt>
      <trkpt lat="50.0654" lon="4.21361">
        <ele>227.3</ele>
        <time>2020-06-24T17:23:35Z</time>
      </trkpt>
      <trkpt lat="50.0654" lon="4.21362">
        <ele>227.4</ele>
        <time>2020-06-24T17:23:36Z</time>
      </trkpt>
      <trkpt lat="50.06542" lon="4.21366">
        <ele>227.6</ele>
        <time>2020-06-24T17:23:37Z</time>
      </trkpt>
      <trkpt lat="50.06543" lon="4.21372">
        <ele>227.8</ele>
        <time>2020-06-24T17:23:38Z</time>
      </trkpt>
      <trkpt lat="50.06544" lon="4.21374">
        <ele>227.9</ele>
        <time>2020-06-24T17:23:39Z</time>
      </trkpt>
      <trkpt lat="50.06546" lon="4.2138">
        <ele>228.2</ele>
        <time>2020-06-24T17:23:40Z</time>
      </trkpt>
      <trkpt lat="50.06546" lon="4.21381">
        <ele>228.3</ele>
        <time>2020-06-24T17:23:41Z</time>
      </trkpt>
      <trkpt lat="50.06548" lon="4.21386">
        <ele>228.5</ele>
        <time>2020-06-24T17:23:42Z</time>
      </trkpt>
      <trkpt lat="50.06549" lon="4.2139">
        <ele>228.8</ele>
        <time>2020-06-24T17:23:43Z</time>
      </trkpt>
      <trkpt lat="50.0655" lon="4.21395">
        <ele>229</ele>
        <time>2020-06-24T17:23:44Z</time>
      </trkpt>
      <trkpt lat="50.06551" lon="4.21402">
        <ele>229.4</ele>
        <time>2020-06-24T17:23:45Z</time>
      </trkpt>
      <trkpt lat="50.06551" lon="4.21404">
        <ele>229.5</ele>
        <time>2020-06-24T17:23:46Z</time>
      </trkpt>
      <trkpt lat="50.06552" lon="4.2141">
        <ele>229.8</ele>
        <time>2020-06-24T17:23:47Z</time>
      </trkpt>
      <trkpt lat="50.06552" lon="4.21416">
        <ele>230.1</ele>
        <time>2020-06-24T17:23:48Z</time>
      </trkpt>
      <trkpt lat="50.06552" lon="4.21418">
        <ele>230.2</ele>
        <time>2020-06-24T17:23:49Z</time>
      </trkpt>
      <trkpt lat="50.06552" lon="4.21422">
        <ele>230.4</ele>
        <time>2020-06-24T17:23:50Z</time>
      </trkpt>
      <trkpt lat="50.06553" lon="4.21427">
        <ele>230.7</ele>
        <time>2020-06-24T17:23:51Z</time>
      </trkpt>
      <trkpt lat="50.06553" lon="4.21432">
        <ele>230.9</ele>
        <time>2020-06-24T17:23:52Z</time>
      </trkpt>
      <trkpt lat="50.06552" lon="4.21436">
        <ele>231.3</ele>
        <time>2020-06-24T17:23:53Z</time>
      </trkpt>
      <trkpt lat="50.06553" lon="4.21441">
        <ele>231.5</ele>
        <time>2020-06-24T17:23:54Z</time>
      </trkpt>
      <trkpt lat="50.06553" lon="4.21446">
        <ele>231.7</ele>
        <time>2020-06-24T17:23:55Z</time>
      </trkpt>
      <trkpt lat="50.06553" lon="4.21453">
        <ele>231.9</ele>
        <time>2020-06-24T17:23:56Z</time>
      </trkpt>
      <trkpt lat="50.06553" lon="4.21456">
        <ele>232</ele>
        <time>2020-06-24T17:23:57Z</time>
      </trkpt>
      <trkpt lat="50.06552" lon="4.21461">
        <ele>232.2</ele>
        <time>2020-06-24T17:23:58Z</time>
      </trkpt>
      <trkpt lat="50.06552" lon="4.21468">
        <ele>232.5</ele>
        <time>2020-06-24T17:23:59Z</time>
      </trkpt>
      <trkpt lat="50.06552" lon="4.21472">
        <ele>232.7</ele>
        <time>2020-06-24T17:24:00Z</time>
      </trkpt>
      <trkpt lat="50.06551" lon="4.21478">
        <ele>232.9</ele>
        <time>2020-06-24T17:24:01Z</time>
      </trkpt>
      <trkpt lat="50.06551" lon="4.2148">
        <ele>233</ele>
        <time>2020-06-24T17:24:02Z</time>
      </trkpt>
      <trkpt lat="50.06551" lon="4.21486">
        <ele>233.3</ele>
        <time>2020-06-24T17:24:03Z</time>
      </trkpt>
      <trkpt lat="50.0655" lon="4.21488">
        <ele>233.3</ele>
        <time>2020-06-24T17:24:04Z</time>
      </trkpt>
      <trkpt lat="50.0655" lon="4.21494">
        <ele>233.6</ele>
        <time>2020-06-24T17:24:05Z</time>
      </trkpt>
      <trkpt lat="50.06549" lon="4.21496">
        <ele>233.6</ele>
        <time>2020-06-24T17:24:06Z</time>
      </trkpt>
      <trkpt lat="50.06548" lon="4.215">
        <ele>233.8</ele>
        <time>2020-06-24T17:24:07Z</time>
      </trkpt>
      <trkpt lat="50.06547" lon="4.21505">
        <ele>234</ele>
        <time>2020-06-24T17:24:08Z</time>
      </trkpt>
      <trkpt lat="50.06547" lon="4.21507">
        <ele>234</ele>
        <time>2020-06-24T17:24:09Z</time>
      </trkpt>
      <trkpt lat="50.06546" lon="4.21512">
        <ele>234.2</ele>
        <time>2020-06-24T17:24:10Z</time>
      </trkpt>
      <trkpt lat="50.06545" lon="4.21518">
        <ele>234.4</ele>
        <time>2020-06-24T17:24:11Z</time>
      </trkpt>
      <trkpt lat="50.06544" lon="4.21522">
        <ele>234.5</ele>
        <time>2020-06-24T17:24:12Z</time>
      </trkpt>
      <trkpt lat="50.06543" lon="4.21528">
        <ele>234.7</ele>
        <time>2020-06-24T17:24:13Z</time>
      </trkpt>
      <trkpt lat="50.06543" lon="4.21531">
        <ele>234.8</ele>
        <time>2020-06-24T17:24:14Z</time>
      </trkpt>
      <trkpt lat="50.06543" lon="4.21536">
        <ele>235</ele>
        <time>2020-06-24T17:24:15Z</time>
      </trkpt>
      <trkpt lat="50.06543" lon="4.21541">
        <ele>235.2</ele>
        <time>2020-06-24T17:24:16Z</time>
      </trkpt>
      <trkpt lat="50.06541" lon="4.21547">
        <ele>235.4</ele>
        <time>2020-06-24T17:24:17Z</time>
      </trkpt>
      <trkpt lat="50.06541" lon="4.21554">
        <ele>235.6</ele>
        <time>2020-06-24T17:24:18Z</time>
      </trkpt>
      <trkpt lat="50.0654" lon="4.21557">
        <ele>235.7</ele>
        <time>2020-06-24T17:24:19Z</time>
      </trkpt>
      <trkpt lat="50.0654" lon="4.21562">
        <ele>235.9</ele>
        <time>2020-06-24T17:24:20Z</time>
      </trkpt>
      <trkpt lat="50.06539" lon="4.21568">
        <ele>236.1</ele>
        <time>2020-06-24T17:24:21Z</time>
      </trkpt>
      <trkpt lat="50.06538" lon="4.21573">
        <ele>236.3</ele>
        <time>2020-06-24T17:24:22Z</time>
      </trkpt>
      <trkpt lat="50.06538" lon="4.21578">
        <ele>236.5</ele>
        <time>2020-06-24T17:24:23Z</time>
      </trkpt>
      <trkpt lat="50.06538" lon="4.21583">
        <ele>236.7</ele>
        <time>2020-06-24T17:24:24Z</time>
      </trkpt>
      <trkpt lat="50.06537" lon="4.21589">
        <ele>236.9</ele>
        <time>2020-06-24T17:24:25Z</time>
      </trkpt>
      <trkpt lat="50.06536" lon="4.21595">
        <ele>237</ele>
        <time>2020-06-24T17:24:26Z</time>
      </trkpt>
      <trkpt lat="50.06535" lon="4.21601">
        <ele>237.2</ele>
        <time>2020-06-24T17:24:27Z</time>
      </trkpt>
      <trkpt lat="50.06534" lon="4.21607">
        <ele>237.3</ele>
        <time>2020-06-24T17:24:28Z</time>
      </trkpt>
      <trkpt lat="50.06534" lon="4.21612">
        <ele>237.4</ele>
        <time>2020-06-24T17:24:29Z</time>
      </trkpt>
      <trkpt lat="50.06533" lon="4.21617">
        <ele>237.5</ele>
        <time>2020-06-24T17:24:30Z</time>
      </trkpt>
      <trkpt lat="50.06533" lon="4.21624">
        <ele>237.7</ele>
        <time>2020-06-24T17:24:31Z</time>
      </trkpt>
      <trkpt lat="50.06532" lon="4.2163">
        <ele>237.8</ele>
        <time>2020-06-24T17:24:32Z</time>
      </trkpt>
      <trkpt lat="50.06531" lon="4.21636">
        <ele>237.9</ele>
        <time>2020-06-24T17:24:33Z</time>
      </trkpt>
      <trkpt lat="50.06531" lon="4.21642">
        <ele>238</ele>
        <time>2020-06-24T17:24:34Z</time>
      </trkpt>
      <trkpt lat="50.0653" lon="4.21648">
        <ele>238.2</ele>
        <time>2020-06-24T17:24:35Z</time>
      </trkpt>
      <trkpt lat="50.06529" lon="4.21655">
        <ele>238.3</ele>
        <time>2020-06-24T17:24:36Z</time>
      </trkpt>
      <trkpt lat="50.06528" lon="4.21661">
        <ele>238.4</ele>
        <time>2020-06-24T17:24:37Z</time>
      </trkpt>
      <trkpt lat="50.06527" lon="4.21667">
        <ele>238.5</ele>
        <time>2020-06-24T17:24:38Z</time>
      </trkpt>
      <trkpt lat="50.06526" lon="4.21673">
        <ele>238.6</ele>
        <time>2020-06-24T17:24:39Z</time>
      </trkpt>
      <trkpt lat="50.06526" lon="4.21678">
        <ele>238.7</ele>
        <time>2020-06-24T17:24:40Z</time>
      </trkpt>
      <trkpt lat="50.06525" lon="4.21684">
        <ele>238.8</ele>
        <time>2020-06-24T17:24:41Z</time>
      </trkpt>
      <trkpt lat="50.06524" lon="4.21691">
        <ele>238.9</ele>
        <time>2020-06-24T17:24:42Z</time>
      </trkpt>
      <trkpt lat="50.06524" lon="4.21698">
        <ele>239</ele>
        <time>2020-06-24T17:24:43Z</time>
      </trkpt>
      <trkpt lat="50.06524" lon="4.21705">
        <ele>239.1</ele>
        <time>2020-06-24T17:24:44Z</time>
      </trkpt>
      <trkpt lat="50.06524" lon="4.21712">
        <ele>239.2</ele>
        <time>2020-06-24T17:24:45Z</time>
      </trkpt>
      <trkpt lat="50.06524" lon="4.21719">
        <ele>239.2</ele>
        <time>2020-06-24T17:24:46Z</time>
      </trkpt>
      <trkpt lat="50.06524" lon="4.21727">
        <ele>239.3</ele>
        <time>2020-06-24T17:24:47Z</time>
      </trkpt>
      <trkpt lat="50.06524" lon="4.21733">
        <ele>239.4</ele>
        <time>2020-06-24T17:24:48Z</time>
      </trkpt>
      <trkpt lat="50.06524" lon="4.21741">
        <ele>239.4</ele>
        <time>2020-06-24T17:24:49Z</time>
      </trkpt>
      <trkpt lat="50.06525" lon="4.21749">
        <ele>239.5</ele>
        <time>2020-06-24T17:24:50Z</time>
      </trkpt>
      <trkpt lat="50.06526" lon="4.21757">
        <ele>239.5</ele>
        <time>2020-06-24T17:24:51Z</time>
      </trkpt>
      <trkpt lat="50.06528" lon="4.21764">
        <ele>239.5</ele>
        <time>2020-06-24T17:24:52Z</time>
      </trkpt>
      <trkpt lat="50.06529" lon="4.21772">
        <ele>239.5</ele>
        <time>2020-06-24T17:24:53Z</time>
      </trkpt>
      <trkpt lat="50.0653" lon="4.21779">
        <ele>239.5</ele>
        <time>2020-06-24T17:24:54Z</time>
      </trkpt>
      <trkpt lat="50.06531" lon="4.21786">
        <ele>239.5</ele>
        <time>2020-06-24T17:24:55Z</time>
      </trkpt>
      <trkpt lat="50.06532" lon="4.21794">
        <ele>239.5</ele>
        <time>2020-06-24T17:24:56Z</time>
      </trkpt>
      <trkpt lat="50.06533" lon="4.21803">
        <ele>239.5</ele>
        <time>2020-06-24T17:24:57Z</time>
      </trkpt>
      <trkpt lat="50.06534" lon="4.21811">
        <ele>239.5</ele>
        <time>2020-06-24T17:24:58Z</time>
      </trkpt>
      <trkpt lat="50.06534" lon="4.21818">
        <ele>239.5</ele>
        <time>2020-06-24T17:24:59Z</time>
      </trkpt>
      <trkpt lat="50.06535" lon="4.21825">
        <ele>239.5</ele>
        <time>2020-06-24T17:25:00Z</time>
      </trkpt>
      <trkpt lat="50.06536" lon="4.21832">
        <ele>239.5</ele>
        <time>2020-06-24T17:25:01Z</time>
      </trkpt>
      <trkpt lat="50.06537" lon="4.2184">
        <ele>239.5</ele>
        <time>2020-06-24T17:25:02Z</time>
      </trkpt>
      <trkpt lat="50.06538" lon="4.21849">
        <ele>239.4</ele>
        <time>2020-06-24T17:25:03Z</time>
      </trkpt>
      <trkpt lat="50.06538" lon="4.21856">
        <ele>239.4</ele>
        <time>2020-06-24T17:25:04Z</time>
      </trkpt>
      <trkpt lat="50.06539" lon="4.21863">
        <ele>239.3</ele>
        <time>2020-06-24T17:25:05Z</time>
      </trkpt>
      <trkpt lat="50.0654" lon="4.21871">
        <ele>239.3</ele>
        <time>2020-06-24T17:25:06Z</time>
      </trkpt>
      <trkpt lat="50.0654" lon="4.21878">
        <ele>239.2</ele>
        <time>2020-06-24T17:25:07Z</time>
      </trkpt>
      <trkpt lat="50.0654" lon="4.21886">
        <ele>239.2</ele>
        <time>2020-06-24T17:25:08Z</time>
      </trkpt>
      <trkpt lat="50.06541" lon="4.21894">
        <ele>239.2</ele>
        <time>2020-06-24T17:25:09Z</time>
      </trkpt>
      <trkpt lat="50.06542" lon="4.21903">
        <ele>239.3</ele>
        <time>2020-06-24T17:25:10Z</time>
      </trkpt>
      <trkpt lat="50.06542" lon="4.21911">
        <ele>239.3</ele>
        <time>2020-06-24T17:25:11Z</time>
      </trkpt>
      <trkpt lat="50.06543" lon="4.21919">
        <ele>239.3</ele>
        <time>2020-06-24T17:25:12Z</time>
      </trkpt>
      <trkpt lat="50.06543" lon="4.21927">
        <ele>239.3</ele>
        <time>2020-06-24T17:25:13Z</time>
      </trkpt>
      <trkpt lat="50.06544" lon="4.21935">
        <ele>239.3</ele>
        <time>2020-06-24T17:25:14Z</time>
      </trkpt>
      <trkpt lat="50.06545" lon="4.21944">
        <ele>239.3</ele>
        <time>2020-06-24T17:25:15Z</time>
      </trkpt>
      <trkpt lat="50.06546" lon="4.21952">
        <ele>239.4</ele>
        <time>2020-06-24T17:25:16Z</time>
      </trkpt>
      <trkpt lat="50.06546" lon="4.21961">
        <ele>239.4</ele>
        <time>2020-06-24T17:25:17Z</time>
      </trkpt>
      <trkpt lat="50.06547" lon="4.21969">
        <ele>239.4</ele>
        <time>2020-06-24T17:25:18Z</time>
      </trkpt>
      <trkpt lat="50.06548" lon="4.21979">
        <ele>239.4</ele>
        <time>2020-06-24T17:25:19Z</time>
      </trkpt>
      <trkpt lat="50.06549" lon="4.21988">
        <ele>239.4</ele>
        <time>2020-06-24T17:25:20Z</time>
      </trkpt>
      <trkpt lat="50.06549" lon="4.21997">
        <ele>239.4</ele>
        <time>2020-06-24T17:25:21Z</time>
      </trkpt>
      <trkpt lat="50.0655" lon="4.22006">
        <ele>239.4</ele>
        <time>2020-06-24T17:25:22Z</time>
      </trkpt>
      <trkpt lat="50.06551" lon="4.22015">
        <ele>239.4</ele>
        <time>2020-06-24T17:25:23Z</time>
      </trkpt>
      <trkpt lat="50.06552" lon="4.22023">
        <ele>239.4</ele>
        <time>2020-06-24T17:25:24Z</time>
      </trkpt>
      <trkpt lat="50.06553" lon="4.22031">
        <ele>239.5</ele>
        <time>2020-06-24T17:25:25Z</time>
      </trkpt>
      <trkpt lat="50.06553" lon="4.22039">
        <ele>239.5</ele>
        <time>2020-06-24T17:25:26Z</time>
      </trkpt>
      <trkpt lat="50.06554" lon="4.22047">
        <ele>239.5</ele>
        <time>2020-06-24T17:25:27Z</time>
      </trkpt>
      <trkpt lat="50.06555" lon="4.22055">
        <ele>239.5</ele>
        <time>2020-06-24T17:25:28Z</time>
      </trkpt>
      <trkpt lat="50.06555" lon="4.22064">
        <ele>239.5</ele>
        <time>2020-06-24T17:25:29Z</time>
      </trkpt>
      <trkpt lat="50.06556" lon="4.22074">
        <ele>239.5</ele>
        <time>2020-06-24T17:25:30Z</time>
      </trkpt>
      <trkpt lat="50.06557" lon="4.22083">
        <ele>239.5</ele>
        <time>2020-06-24T17:25:31Z</time>
      </trkpt>
      <trkpt lat="50.06558" lon="4.22092">
        <ele>239.5</ele>
        <time>2020-06-24T17:25:32Z</time>
      </trkpt>
      <trkpt lat="50.06559" lon="4.22102">
        <ele>239.5</ele>
        <time>2020-06-24T17:25:33Z</time>
      </trkpt>
      <trkpt lat="50.0656" lon="4.22112">
        <ele>239.6</ele>
        <time>2020-06-24T17:25:34Z</time>
      </trkpt>
      <trkpt lat="50.0656" lon="4.22122">
        <ele>239.5</ele>
        <time>2020-06-24T17:25:35Z</time>
      </trkpt>
      <trkpt lat="50.06561" lon="4.22131">
        <ele>239.5</ele>
        <time>2020-06-24T17:25:36Z</time>
      </trkpt>
      <trkpt lat="50.06561" lon="4.22139">
        <ele>239.5</ele>
        <time>2020-06-24T17:25:37Z</time>
      </trkpt>
      <trkpt lat="50.06562" lon="4.22149">
        <ele>239.5</ele>
        <time>2020-06-24T17:25:38Z</time>
      </trkpt>
      <trkpt lat="50.06563" lon="4.22158">
        <ele>239.5</ele>
        <time>2020-06-24T17:25:39Z</time>
      </trkpt>
      <trkpt lat="50.06563" lon="4.22168">
        <ele>239.6</ele>
        <time>2020-06-24T17:25:40Z</time>
      </trkpt>
      <trkpt lat="50.06564" lon="4.22178">
        <ele>239.6</ele>
        <time>2020-06-24T17:25:41Z</time>
      </trkpt>
      <trkpt lat="50.06565" lon="4.22186">
        <ele>239.6</ele>
        <time>2020-06-24T17:25:42Z</time>
      </trkpt>
      <trkpt lat="50.06566" lon="4.22195">
        <ele>239.6</ele>
        <time>2020-06-24T17:25:43Z</time>
      </trkpt>
      <trkpt lat="50.06567" lon="4.22205">
        <ele>239.6</ele>
        <time>2020-06-24T17:25:44Z</time>
      </trkpt>
      <trkpt lat="50.06568" lon="4.22214">
        <ele>239.6</ele>
        <time>2020-06-24T17:25:45Z</time>
      </trkpt>
      <trkpt lat="50.06569" lon="4.22224">
        <ele>239.6</ele>
        <time>2020-06-24T17:25:46Z</time>
      </trkpt>
      <trkpt lat="50.0657" lon="4.22235">
        <ele>239.6</ele>
        <time>2020-06-24T17:25:47Z</time>
      </trkpt>
      <trkpt lat="50.06571" lon="4.22245">
        <ele>239.7</ele>
        <time>2020-06-24T17:25:48Z</time>
      </trkpt>
      <trkpt lat="50.06571" lon="4.22254">
        <ele>239.7</ele>
        <time>2020-06-24T17:25:49Z</time>
      </trkpt>
      <trkpt lat="50.06572" lon="4.22264">
        <ele>239.7</ele>
        <time>2020-06-24T17:25:50Z</time>
      </trkpt>
      <trkpt lat="50.06573" lon="4.22273">
        <ele>239.7</ele>
        <time>2020-06-24T17:25:51Z</time>
      </trkpt>
      <trkpt lat="50.06573" lon="4.22283">
        <ele>239.7</ele>
        <time>2020-06-24T17:25:52Z</time>
      </trkpt>
      <trkpt lat="50.06573" lon="4.22291">
        <ele>239.7</ele>
        <time>2020-06-24T17:25:53Z</time>
      </trkpt>
      <trkpt lat="50.06573" lon="4.223">
        <ele>239.7</ele>
        <time>2020-06-24T17:25:54Z</time>
      </trkpt>
      <trkpt lat="50.06574" lon="4.22309">
        <ele>239.6</ele>
        <time>2020-06-24T17:25:55Z</time>
      </trkpt>
      <trkpt lat="50.06575" lon="4.22318">
        <ele>239.6</ele>
        <time>2020-06-24T17:25:56Z</time>
      </trkpt>
      <trkpt lat="50.06575" lon="4.22326">
        <ele>239.5</ele>
        <time>2020-06-24T17:25:57Z</time>
      </trkpt>
      <trkpt lat="50.06575" lon="4.22337">
        <ele>239.5</ele>
        <time>2020-06-24T17:25:58Z</time>
      </trkpt>
      <trkpt lat="50.06576" lon="4.22347">
        <ele>239.4</ele>
        <time>2020-06-24T17:25:59Z</time>
      </trkpt>
      <trkpt lat="50.06576" lon="4.22357">
        <ele>239.5</ele>
        <time>2020-06-24T17:26:00Z</time>
      </trkpt>
      <trkpt lat="50.06576" lon="4.22366">
        <ele>239.5</ele>
        <time>2020-06-24T17:26:01Z</time>
      </trkpt>
      <trkpt lat="50.06576" lon="4.22374">
        <ele>239.5</ele>
        <time>2020-06-24T17:26:02Z</time>
      </trkpt>
      <trkpt lat="50.06576" lon="4.22381">
        <ele>239.6</ele>
        <time>2020-06-24T17:26:03Z</time>
      </trkpt>
      <trkpt lat="50.06576" lon="4.2239">
        <ele>239.6</ele>
        <time>2020-06-24T17:26:04Z</time>
      </trkpt>
      <trkpt lat="50.06577" lon="4.22401">
        <ele>239.6</ele>
        <time>2020-06-24T17:26:05Z</time>
      </trkpt>
      <trkpt lat="50.06578" lon="4.22411">
        <ele>239.6</ele>
        <time>2020-06-24T17:26:06Z</time>
      </trkpt>
      <trkpt lat="50.06578" lon="4.22421">
        <ele>239.6</ele>
        <time>2020-06-24T17:26:07Z</time>
      </trkpt>
      <trkpt lat="50.06578" lon="4.22432">
        <ele>239.6</ele>
        <time>2020-06-24T17:26:08Z</time>
      </trkpt>
      <trkpt lat="50.06579" lon="4.22441">
        <ele>239.6</ele>
        <time>2020-06-24T17:26:09Z</time>
      </trkpt>
      <trkpt lat="50.0658" lon="4.2245">
        <ele>239.6</ele>
        <time>2020-06-24T17:26:10Z</time>
      </trkpt>
      <trkpt lat="50.0658" lon="4.2246">
        <ele>239.6</ele>
        <time>2020-06-24T17:26:11Z</time>
      </trkpt>
      <trkpt lat="50.0658" lon="4.2247">
        <ele>239.6</ele>
        <time>2020-06-24T17:26:12Z</time>
      </trkpt>
      <trkpt lat="50.06581" lon="4.22481">
        <ele>239.6</ele>
        <time>2020-06-24T17:26:13Z</time>
      </trkpt>
      <trkpt lat="50.06582" lon="4.22489">
        <ele>239.7</ele>
        <time>2020-06-24T17:26:14Z</time>
      </trkpt>
      <trkpt lat="50.06582" lon="4.22497">
        <ele>239.7</ele>
        <time>2020-06-24T17:26:15Z</time>
      </trkpt>
      <trkpt lat="50.06582" lon="4.22505">
        <ele>239.8</ele>
        <time>2020-06-24T17:26:16Z</time>
      </trkpt>
      <trkpt lat="50.06582" lon="4.22514">
        <ele>239.8</ele>
        <time>2020-06-24T17:26:17Z</time>
      </trkpt>
      <trkpt lat="50.06583" lon="4.22524">
        <ele>239.8</ele>
        <time>2020-06-24T17:26:18Z</time>
      </trkpt>
      <trkpt lat="50.06583" lon="4.22534">
        <ele>239.8</ele>
        <time>2020-06-24T17:26:19Z</time>
      </trkpt>
      <trkpt lat="50.06583" lon="4.22544">
        <ele>239.7</ele>
        <time>2020-06-24T17:26:20Z</time>
      </trkpt>
      <trkpt lat="50.06583" lon="4.22554">
        <ele>239.7</ele>
        <time>2020-06-24T17:26:21Z</time>
      </trkpt>
      <trkpt lat="50.06583" lon="4.22564">
        <ele>239.6</ele>
        <time>2020-06-24T17:26:22Z</time>
      </trkpt>
      <trkpt lat="50.06583" lon="4.22576">
        <ele>239.5</ele>
        <time>2020-06-24T17:26:23Z</time>
      </trkpt>
      <trkpt lat="50.06583" lon="4.22586">
        <ele>239.3</ele>
        <time>2020-06-24T17:26:24Z</time>
      </trkpt>
      <trkpt lat="50.06584" lon="4.22595">
        <ele>239.2</ele>
        <time>2020-06-24T17:26:25Z</time>
      </trkpt>
      <trkpt lat="50.06584" lon="4.22605">
        <ele>239.1</ele>
        <time>2020-06-24T17:26:26Z</time>
      </trkpt>
      <trkpt lat="50.06584" lon="4.22614">
        <ele>239</ele>
        <time>2020-06-24T17:26:27Z</time>
      </trkpt>
      <trkpt lat="50.06584" lon="4.22624">
        <ele>238.8</ele>
        <time>2020-06-24T17:26:28Z</time>
      </trkpt>
      <trkpt lat="50.06584" lon="4.22633">
        <ele>238.7</ele>
        <time>2020-06-24T17:26:29Z</time>
      </trkpt>
      <trkpt lat="50.06584" lon="4.22643">
        <ele>238.6</ele>
        <time>2020-06-24T17:26:30Z</time>
      </trkpt>
      <trkpt lat="50.06585" lon="4.22651">
        <ele>238.5</ele>
        <time>2020-06-24T17:26:31Z</time>
      </trkpt>
      <trkpt lat="50.06585" lon="4.2266">
        <ele>238.4</ele>
        <time>2020-06-24T17:26:32Z</time>
      </trkpt>
      <trkpt lat="50.06585" lon="4.22669">
        <ele>238.3</ele>
        <time>2020-06-24T17:26:33Z</time>
      </trkpt>
      <trkpt lat="50.06585" lon="4.22678">
        <ele>238.1</ele>
        <time>2020-06-24T17:26:34Z</time>
      </trkpt>
      <trkpt lat="50.06585" lon="4.22688">
        <ele>237.8</ele>
        <time>2020-06-24T17:26:35Z</time>
      </trkpt>
      <trkpt lat="50.06585" lon="4.22698">
        <ele>237.6</ele>
        <time>2020-06-24T17:26:36Z</time>
      </trkpt>
      <trkpt lat="50.06585" lon="4.22709">
        <ele>237.2</ele>
        <time>2020-06-24T17:26:37Z</time>
      </trkpt>
      <trkpt lat="50.06586" lon="4.22719">
        <ele>236.9</ele>
        <time>2020-06-24T17:26:38Z</time>
      </trkpt>
      <trkpt lat="50.06587" lon="4.2273">
        <ele>236.6</ele>
        <time>2020-06-24T17:26:39Z</time>
      </trkpt>
      <trkpt lat="50.06587" lon="4.22742">
        <ele>236.1</ele>
        <time>2020-06-24T17:26:40Z</time>
      </trkpt>
      <trkpt lat="50.06587" lon="4.22753">
        <ele>235.7</ele>
        <time>2020-06-24T17:26:41Z</time>
      </trkpt>
      <trkpt lat="50.06587" lon="4.22766">
        <ele>235.2</ele>
        <time>2020-06-24T17:26:42Z</time>
      </trkpt>
      <trkpt lat="50.06588" lon="4.22778">
        <ele>234.7</ele>
        <time>2020-06-24T17:26:43Z</time>
      </trkpt>
      <trkpt lat="50.06588" lon="4.2279">
        <ele>233.6</ele>
        <time>2020-06-24T17:26:44Z</time>
      </trkpt>
      <trkpt lat="50.06588" lon="4.228">
        <ele>233.5</ele>
        <time>2020-06-24T17:26:45Z</time>
      </trkpt>
      <trkpt lat="50.06588" lon="4.22811">
        <ele>233.4</ele>
        <time>2020-06-24T17:26:46Z</time>
      </trkpt>
      <trkpt lat="50.0659" lon="4.22821">
        <ele>233.2</ele>
        <time>2020-06-24T17:26:47Z</time>
      </trkpt>
      <trkpt lat="50.06592" lon="4.2283">
        <ele>233</ele>
        <time>2020-06-24T17:26:48Z</time>
      </trkpt>
      <trkpt lat="50.06594" lon="4.2284">
        <ele>232.8</ele>
        <time>2020-06-24T17:26:49Z</time>
      </trkpt>
      <trkpt lat="50.06595" lon="4.22849">
        <ele>232.6</ele>
        <time>2020-06-24T17:26:50Z</time>
      </trkpt>
      <trkpt lat="50.06598" lon="4.2286">
        <ele>232.4</ele>
        <time>2020-06-24T17:26:51Z</time>
      </trkpt>
      <trkpt lat="50.066" lon="4.22869">
        <ele>232.2</ele>
        <time>2020-06-24T17:26:52Z</time>
      </trkpt>
      <trkpt lat="50.06601" lon="4.22877">
        <ele>232</ele>
        <time>2020-06-24T17:26:53Z</time>
      </trkpt>
      <trkpt lat="50.06604" lon="4.22886">
        <ele>231.8</ele>
        <time>2020-06-24T17:26:54Z</time>
      </trkpt>
      <trkpt lat="50.06606" lon="4.22896">
        <ele>231.6</ele>
        <time>2020-06-24T17:26:55Z</time>
      </trkpt>
      <trkpt lat="50.06608" lon="4.22906">
        <ele>231.3</ele>
        <time>2020-06-24T17:26:56Z</time>
      </trkpt>
      <trkpt lat="50.06611" lon="4.22916">
        <ele>231</ele>
        <time>2020-06-24T17:26:57Z</time>
      </trkpt>
      <trkpt lat="50.06613" lon="4.22926">
        <ele>230.8</ele>
        <time>2020-06-24T17:26:58Z</time>
      </trkpt>
      <trkpt lat="50.06616" lon="4.22937">
        <ele>230.5</ele>
        <time>2020-06-24T17:26:59Z</time>
      </trkpt>
      <trkpt lat="50.06618" lon="4.22947">
        <ele>230.2</ele>
        <time>2020-06-24T17:27:00Z</time>
      </trkpt>
      <trkpt lat="50.0662" lon="4.22959">
        <ele>229.9</ele>
        <time>2020-06-24T17:27:01Z</time>
      </trkpt>
      <trkpt lat="50.06623" lon="4.2297">
        <ele>229.6</ele>
        <time>2020-06-24T17:27:02Z</time>
      </trkpt>
      <trkpt lat="50.06625" lon="4.2298">
        <ele>229.3</ele>
        <time>2020-06-24T17:27:03Z</time>
      </trkpt>
      <trkpt lat="50.06627" lon="4.22991">
        <ele>229</ele>
        <time>2020-06-24T17:27:04Z</time>
      </trkpt>
      <trkpt lat="50.06629" lon="4.23002">
        <ele>228.7</ele>
        <time>2020-06-24T17:27:05Z</time>
      </trkpt>
      <trkpt lat="50.06632" lon="4.23013">
        <ele>228.4</ele>
        <time>2020-06-24T17:27:06Z</time>
      </trkpt>
      <trkpt lat="50.06634" lon="4.23024">
        <ele>228</ele>
        <time>2020-06-24T17:27:07Z</time>
      </trkpt>
      <trkpt lat="50.06637" lon="4.23036">
        <ele>227.7</ele>
        <time>2020-06-24T17:27:08Z</time>
      </trkpt>
      <trkpt lat="50.0664" lon="4.23047">
        <ele>227.3</ele>
        <time>2020-06-24T17:27:09Z</time>
      </trkpt>
      <trkpt lat="50.06643" lon="4.23059">
        <ele>226.9</ele>
        <time>2020-06-24T17:27:10Z</time>
      </trkpt>
      <trkpt lat="50.06646" lon="4.2307">
        <ele>226.6</ele>
        <time>2020-06-24T17:27:11Z</time>
      </trkpt>
      <trkpt lat="50.06649" lon="4.23081">
        <ele>226.2</ele>
        <time>2020-06-24T17:27:12Z</time>
      </trkpt>
      <trkpt lat="50.06651" lon="4.23092">
        <ele>225.8</ele>
        <time>2020-06-24T17:27:13Z</time>
      </trkpt>
      <trkpt lat="50.06654" lon="4.23102">
        <ele>225.4</ele>
        <time>2020-06-24T17:27:14Z</time>
      </trkpt>
      <trkpt lat="50.06657" lon="4.23113">
        <ele>224.9</ele>
        <time>2020-06-24T17:27:15Z</time>
      </trkpt>
      <trkpt lat="50.0666" lon="4.23123">
        <ele>224.5</ele>
        <time>2020-06-24T17:27:16Z</time>
      </trkpt>
      <trkpt lat="50.06662" lon="4.23133">
        <ele>224</ele>
        <time>2020-06-24T17:27:17Z</time>
      </trkpt>
      <trkpt lat="50.06664" lon="4.23143">
        <ele>223.6</ele>
        <time>2020-06-24T17:27:18Z</time>
      </trkpt>
      <trkpt lat="50.06665" lon="4.23155">
        <ele>223.1</ele>
        <time>2020-06-24T17:27:19Z</time>
      </trkpt>
      <trkpt lat="50.06667" lon="4.23168">
        <ele>222.5</ele>
        <time>2020-06-24T17:27:20Z</time>
      </trkpt>
      <trkpt lat="50.06669" lon="4.2318">
        <ele>222</ele>
        <time>2020-06-24T17:27:21Z</time>
      </trkpt>
      <trkpt lat="50.06671" lon="4.23193">
        <ele>221.5</ele>
        <time>2020-06-24T17:27:22Z</time>
      </trkpt>
      <trkpt lat="50.06673" lon="4.23207">
        <ele>220.9</ele>
        <time>2020-06-24T17:27:23Z</time>
      </trkpt>
      <trkpt lat="50.06675" lon="4.2322">
        <ele>220.3</ele>
        <time>2020-06-24T17:27:24Z</time>
      </trkpt>
      <trkpt lat="50.06677" lon="4.23233">
        <ele>219.6</ele>
        <time>2020-06-24T17:27:25Z</time>
      </trkpt>
      <trkpt lat="50.0668" lon="4.23247">
        <ele>218.9</ele>
        <time>2020-06-24T17:27:26Z</time>
      </trkpt>
      <trkpt lat="50.06682" lon="4.23262">
        <ele>218.2</ele>
        <time>2020-06-24T17:27:27Z</time>
      </trkpt>
      <trkpt lat="50.06685" lon="4.23276">
        <ele>217.4</ele>
        <time>2020-06-24T17:27:28Z</time>
      </trkpt>
      <trkpt lat="50.06687" lon="4.23292">
        <ele>216.6</ele>
        <time>2020-06-24T17:27:29Z</time>
      </trkpt>
      <trkpt lat="50.06689" lon="4.23308">
        <ele>215.8</ele>
        <time>2020-06-24T17:27:30Z</time>
      </trkpt>
      <trkpt lat="50.06692" lon="4.23324">
        <ele>215.1</ele>
        <time>2020-06-24T17:27:31Z</time>
      </trkpt>
      <trkpt lat="50.06695" lon="4.2334">
        <ele>214.5</ele>
        <time>2020-06-24T17:27:32Z</time>
      </trkpt>
      <trkpt lat="50.06697" lon="4.23355">
        <ele>214</ele>
        <time>2020-06-24T17:27:33Z</time>
      </trkpt>
      <trkpt lat="50.06699" lon="4.2337">
        <ele>213.7</ele>
        <time>2020-06-24T17:27:34Z</time>
      </trkpt>
      <trkpt lat="50.06702" lon="4.23385">
        <ele>213.6</ele>
        <time>2020-06-24T17:27:35Z</time>
      </trkpt>
      <trkpt lat="50.06705" lon="4.23398">
        <ele>213.4</ele>
        <time>2020-06-24T17:27:36Z</time>
      </trkpt>
      <trkpt lat="50.06709" lon="4.23412">
        <ele>213.2</ele>
        <time>2020-06-24T17:27:37Z</time>
      </trkpt>
      <trkpt lat="50.06714" lon="4.23425">
        <ele>212.9</ele>
        <time>2020-06-24T17:27:38Z</time>
      </trkpt>
      <trkpt lat="50.06719" lon="4.23438">
        <ele>212.6</ele>
        <time>2020-06-24T17:27:39Z</time>
      </trkpt>
      <trkpt lat="50.06724" lon="4.23449">
        <ele>212.4</ele>
        <time>2020-06-24T17:27:40Z</time>
      </trkpt>
      <trkpt lat="50.0673" lon="4.23461">
        <ele>212.3</ele>
        <time>2020-06-24T17:27:41Z</time>
      </trkpt>
      <trkpt lat="50.06735" lon="4.23472">
        <ele>212.1</ele>
        <time>2020-06-24T17:27:42Z</time>
      </trkpt>
      <trkpt lat="50.06741" lon="4.23483">
        <ele>212</ele>
        <time>2020-06-24T17:27:43Z</time>
      </trkpt>
      <trkpt lat="50.06746" lon="4.23493">
        <ele>211.7</ele>
        <time>2020-06-24T17:27:44Z</time>
      </trkpt>
      <trkpt lat="50.06752" lon="4.23502">
        <ele>211.5</ele>
        <time>2020-06-24T17:27:45Z</time>
      </trkpt>
      <trkpt lat="50.06758" lon="4.23512">
        <ele>211</ele>
        <time>2020-06-24T17:27:46Z</time>
      </trkpt>
      <trkpt lat="50.06763" lon="4.23522">
        <ele>210.6</ele>
        <time>2020-06-24T17:27:47Z</time>
      </trkpt>
      <trkpt lat="50.06769" lon="4.23531">
        <ele>210.3</ele>
        <time>2020-06-24T17:27:48Z</time>
      </trkpt>
      <trkpt lat="50.06774" lon="4.2354">
        <ele>210</ele>
        <time>2020-06-24T17:27:49Z</time>
      </trkpt>
      <trkpt lat="50.0678" lon="4.2355">
        <ele>209.6</ele>
        <time>2020-06-24T17:27:50Z</time>
      </trkpt>
      <trkpt lat="50.06785" lon="4.23558">
        <ele>209.4</ele>
        <time>2020-06-24T17:27:51Z</time>
      </trkpt>
      <trkpt lat="50.06791" lon="4.23567">
        <ele>209.3</ele>
        <time>2020-06-24T17:27:52Z</time>
      </trkpt>
      <trkpt lat="50.06796" lon="4.23576">
        <ele>209.2</ele>
        <time>2020-06-24T17:27:53Z</time>
      </trkpt>
      <trkpt lat="50.06802" lon="4.23584">
        <ele>209.2</ele>
        <time>2020-06-24T17:27:54Z</time>
      </trkpt>
      <trkpt lat="50.06808" lon="4.23593">
        <ele>209.2</ele>
        <time>2020-06-24T17:27:55Z</time>
      </trkpt>
      <trkpt lat="50.06814" lon="4.23601">
        <ele>209.2</ele>
        <time>2020-06-24T17:27:56Z</time>
      </trkpt>
      <trkpt lat="50.0682" lon="4.23608">
        <ele>209.3</ele>
        <time>2020-06-24T17:27:57Z</time>
      </trkpt>
      <trkpt lat="50.06827" lon="4.23615">
        <ele>209</ele>
        <time>2020-06-24T17:27:58Z</time>
      </trkpt>
      <trkpt lat="50.06834" lon="4.2362">
        <ele>209</ele>
        <time>2020-06-24T17:27:59Z</time>
      </trkpt>
      <trkpt lat="50.0684" lon="4.23626">
        <ele>209.3</ele>
        <time>2020-06-24T17:28:00Z</time>
      </trkpt>
      <trkpt lat="50.06847" lon="4.23632">
        <ele>209.6</ele>
        <time>2020-06-24T17:28:01Z</time>
      </trkpt>
      <trkpt lat="50.06853" lon="4.23639">
        <ele>210</ele>
        <time>2020-06-24T17:28:02Z</time>
      </trkpt>
      <trkpt lat="50.06859" lon="4.23644">
        <ele>210.3</ele>
        <time>2020-06-24T17:28:03Z</time>
      </trkpt>
      <trkpt lat="50.06863" lon="4.23648">
        <ele>210.6</ele>
        <time>2020-06-24T17:28:04Z</time>
      </trkpt>
      <trkpt lat="50.06866" lon="4.23652">
        <ele>210.8</ele>
        <time>2020-06-24T17:28:05Z</time>
      </trkpt>
      <trkpt lat="50.06869" lon="4.23659">
        <ele>211.1</ele>
        <time>2020-06-24T17:28:06Z</time>
      </trkpt>
      <trkpt lat="50.06872" lon="4.23666">
        <ele>211.4</ele>
        <time>2020-06-24T17:28:07Z</time>
      </trkpt>
      <trkpt lat="50.06875" lon="4.23674">
        <ele>211.7</ele>
        <time>2020-06-24T17:28:08Z</time>
      </trkpt>
      <trkpt lat="50.06878" lon="4.23681">
        <ele>212</ele>
        <time>2020-06-24T17:28:09Z</time>
      </trkpt>
      <trkpt lat="50.0688" lon="4.23689">
        <ele>212.3</ele>
        <time>2020-06-24T17:28:10Z</time>
      </trkpt>
      <trkpt lat="50.06881" lon="4.23696">
        <ele>212.6</ele>
        <time>2020-06-24T17:28:11Z</time>
      </trkpt>
      <trkpt lat="50.06883" lon="4.23702">
        <ele>212.8</ele>
        <time>2020-06-24T17:28:12Z</time>
      </trkpt>
      <trkpt lat="50.06885" lon="4.2371">
        <ele>213.2</ele>
        <time>2020-06-24T17:28:13Z</time>
      </trkpt>
      <trkpt lat="50.06886" lon="4.23717">
        <ele>213.3</ele>
        <time>2020-06-24T17:28:14Z</time>
      </trkpt>
      <trkpt lat="50.06888" lon="4.23723">
        <ele>213.4</ele>
        <time>2020-06-24T17:28:15Z</time>
      </trkpt>
      <trkpt lat="50.06889" lon="4.2373">
        <ele>213.5</ele>
        <time>2020-06-24T17:28:16Z</time>
      </trkpt>
      <trkpt lat="50.06891" lon="4.23737">
        <ele>213.6</ele>
        <time>2020-06-24T17:28:17Z</time>
      </trkpt>
      <trkpt lat="50.06892" lon="4.23743">
        <ele>213.7</ele>
        <time>2020-06-24T17:28:18Z</time>
      </trkpt>
      <trkpt lat="50.06894" lon="4.2375">
        <ele>213.8</ele>
        <time>2020-06-24T17:28:19Z</time>
      </trkpt>
      <trkpt lat="50.06895" lon="4.23756">
        <ele>213.9</ele>
        <time>2020-06-24T17:28:20Z</time>
      </trkpt>
      <trkpt lat="50.06897" lon="4.23761">
        <ele>214</ele>
        <time>2020-06-24T17:28:21Z</time>
      </trkpt>
      <trkpt lat="50.06898" lon="4.23767">
        <ele>214</ele>
        <time>2020-06-24T17:28:22Z</time>
      </trkpt>
      <trkpt lat="50.06899" lon="4.23772">
        <ele>214.1</ele>
        <time>2020-06-24T17:28:23Z</time>
      </trkpt>
      <trkpt lat="50.06901" lon="4.23778">
        <ele>214.2</ele>
        <time>2020-06-24T17:28:24Z</time>
      </trkpt>
      <trkpt lat="50.06903" lon="4.23784">
        <ele>214.3</ele>
        <time>2020-06-24T17:28:25Z</time>
      </trkpt>
      <trkpt lat="50.06905" lon="4.23789">
        <ele>214.4</ele>
        <time>2020-06-24T17:28:26Z</time>
      </trkpt>
      <trkpt lat="50.06907" lon="4.23795">
        <ele>214.4</ele>
        <time>2020-06-24T17:28:27Z</time>
      </trkpt>
      <trkpt lat="50.06909" lon="4.238">
        <ele>214.5</ele>
        <time>2020-06-24T17:28:28Z</time>
      </trkpt>
      <trkpt lat="50.0691" lon="4.23806">
        <ele>214.5</ele>
        <time>2020-06-24T17:28:29Z</time>
      </trkpt>
      <trkpt lat="50.06911" lon="4.23812">
        <ele>214.5</ele>
        <time>2020-06-24T17:28:30Z</time>
      </trkpt>
      <trkpt lat="50.06913" lon="4.23818">
        <ele>214.6</ele>
        <time>2020-06-24T17:28:31Z</time>
      </trkpt>
      <trkpt lat="50.06915" lon="4.23825">
        <ele>214.5</ele>
        <time>2020-06-24T17:28:32Z</time>
      </trkpt>
      <trkpt lat="50.06917" lon="4.23831">
        <ele>214.5</ele>
        <time>2020-06-24T17:28:33Z</time>
      </trkpt>
      <trkpt lat="50.06918" lon="4.23836">
        <ele>214.3</ele>
        <time>2020-06-24T17:28:34Z</time>
      </trkpt>
      <trkpt lat="50.0692" lon="4.23842">
        <ele>214.4</ele>
        <time>2020-06-24T17:28:35Z</time>
      </trkpt>
      <trkpt lat="50.0692" lon="4.23849">
        <ele>214.4</ele>
        <time>2020-06-24T17:28:36Z</time>
      </trkpt>
      <trkpt lat="50.06921" lon="4.23853">
        <ele>214.4</ele>
        <time>2020-06-24T17:28:37Z</time>
      </trkpt>
      <trkpt lat="50.06922" lon="4.2386">
        <ele>214.4</ele>
        <time>2020-06-24T17:28:38Z</time>
      </trkpt>
      <trkpt lat="50.06922" lon="4.23862">
        <ele>214.4</ele>
        <time>2020-06-24T17:28:39Z</time>
      </trkpt>
      <trkpt lat="50.06923" lon="4.23868">
        <ele>214.4</ele>
        <time>2020-06-24T17:28:40Z</time>
      </trkpt>
      <trkpt lat="50.06923" lon="4.23874">
        <ele>214.3</ele>
        <time>2020-06-24T17:28:41Z</time>
      </trkpt>
      <trkpt lat="50.06923" lon="4.2388">
        <ele>214.3</ele>
        <time>2020-06-24T17:28:42Z</time>
      </trkpt>
      <trkpt lat="50.06923" lon="4.23885">
        <ele>214.2</ele>
        <time>2020-06-24T17:28:43Z</time>
      </trkpt>
      <trkpt lat="50.06924" lon="4.23892">
        <ele>214</ele>
        <time>2020-06-24T17:28:44Z</time>
      </trkpt>
      <trkpt lat="50.06925" lon="4.23898">
        <ele>213.8</ele>
        <time>2020-06-24T17:28:45Z</time>
      </trkpt>
      <trkpt lat="50.06927" lon="4.23905">
        <ele>213.6</ele>
        <time>2020-06-24T17:28:46Z</time>
      </trkpt>
      <trkpt lat="50.06928" lon="4.23913">
        <ele>213.3</ele>
        <time>2020-06-24T17:28:47Z</time>
      </trkpt>
      <trkpt lat="50.06929" lon="4.2392">
        <ele>213.1</ele>
        <time>2020-06-24T17:28:48Z</time>
      </trkpt>
      <trkpt lat="50.06931" lon="4.23929">
        <ele>212.7</ele>
        <time>2020-06-24T17:28:49Z</time>
      </trkpt>
      <trkpt lat="50.06933" lon="4.23939">
        <ele>212.4</ele>
        <time>2020-06-24T17:28:50Z</time>
      </trkpt>
      <trkpt lat="50.06935" lon="4.23948">
        <ele>212</ele>
        <time>2020-06-24T17:28:51Z</time>
      </trkpt>
      <trkpt lat="50.06937" lon="4.23959">
        <ele>211.7</ele>
        <time>2020-06-24T17:28:52Z</time>
      </trkpt>
      <trkpt lat="50.06939" lon="4.2397">
        <ele>211.3</ele>
        <time>2020-06-24T17:28:53Z</time>
      </trkpt>
      <trkpt lat="50.0694" lon="4.23978">
        <ele>211.1</ele>
        <time>2020-06-24T17:28:54Z</time>
      </trkpt>
      <trkpt lat="50.06942" lon="4.23986">
        <ele>210.9</ele>
        <time>2020-06-24T17:28:55Z</time>
      </trkpt>
      <trkpt lat="50.06946" lon="4.23996">
        <ele>210.6</ele>
        <time>2020-06-24T17:28:56Z</time>
      </trkpt>
      <trkpt lat="50.06951" lon="4.24005">
        <ele>210.4</ele>
        <time>2020-06-24T17:28:57Z</time>
      </trkpt>
      <trkpt lat="50.06956" lon="4.24015">
        <ele>210.2</ele>
        <time>2020-06-24T17:28:58Z</time>
      </trkpt>
      <trkpt lat="50.06961" lon="4.24025">
        <ele>210.1</ele>
        <time>2020-06-24T17:28:59Z</time>
      </trkpt>
      <trkpt lat="50.06966" lon="4.24033">
        <ele>210</ele>
        <time>2020-06-24T17:29:00Z</time>
      </trkpt>
      <trkpt lat="50.0697" lon="4.2404">
        <ele>210</ele>
        <time>2020-06-24T17:29:01Z</time>
      </trkpt>
      <trkpt lat="50.06975" lon="4.24048">
        <ele>210</ele>
        <time>2020-06-24T17:29:02Z</time>
      </trkpt>
      <trkpt lat="50.06979" lon="4.24056">
        <ele>209.9</ele>
        <time>2020-06-24T17:29:03Z</time>
      </trkpt>
      <trkpt lat="50.06983" lon="4.24064">
        <ele>210</ele>
        <time>2020-06-24T17:29:04Z</time>
      </trkpt>
      <trkpt lat="50.06987" lon="4.24072">
        <ele>210</ele>
        <time>2020-06-24T17:29:05Z</time>
      </trkpt>
      <trkpt lat="50.0699" lon="4.24079">
        <ele>210.1</ele>
        <time>2020-06-24T17:29:06Z</time>
      </trkpt>
      <trkpt lat="50.06994" lon="4.24087">
        <ele>210.1</ele>
        <time>2020-06-24T17:29:07Z</time>
      </trkpt>
      <trkpt lat="50.06998" lon="4.24095">
        <ele>210.3</ele>
        <time>2020-06-24T17:29:08Z</time>
      </trkpt>
      <trkpt lat="50.07001" lon="4.24102">
        <ele>210.5</ele>
        <time>2020-06-24T17:29:09Z</time>
      </trkpt>
      <trkpt lat="50.07003" lon="4.24109">
        <ele>210.6</ele>
        <time>2020-06-24T17:29:10Z</time>
      </trkpt>
      <trkpt lat="50.07006" lon="4.24116">
        <ele>210.7</ele>
        <time>2020-06-24T17:29:11Z</time>
      </trkpt>
      <trkpt lat="50.07009" lon="4.24124">
        <ele>210.9</ele>
        <time>2020-06-24T17:29:12Z</time>
      </trkpt>
      <trkpt lat="50.07011" lon="4.24131">
        <ele>211</ele>
        <time>2020-06-24T17:29:13Z</time>
      </trkpt>
      <trkpt lat="50.07013" lon="4.24138">
        <ele>211.1</ele>
        <time>2020-06-24T17:29:14Z</time>
      </trkpt>
      <trkpt lat="50.07016" lon="4.24144">
        <ele>211.2</ele>
        <time>2020-06-24T17:29:15Z</time>
      </trkpt>
      <trkpt lat="50.07018" lon="4.24153">
        <ele>211.3</ele>
        <time>2020-06-24T17:29:16Z</time>
      </trkpt>
      <trkpt lat="50.0702" lon="4.24161">
        <ele>211.4</ele>
        <time>2020-06-24T17:29:17Z</time>
      </trkpt>
      <trkpt lat="50.07023" lon="4.24169">
        <ele>211.5</ele>
        <time>2020-06-24T17:29:18Z</time>
      </trkpt>
      <trkpt lat="50.07025" lon="4.24177">
        <ele>211.6</ele>
        <time>2020-06-24T17:29:19Z</time>
      </trkpt>
      <trkpt lat="50.07028" lon="4.24185">
        <ele>211.7</ele>
        <time>2020-06-24T17:29:20Z</time>
      </trkpt>
      <trkpt lat="50.07029" lon="4.24192">
        <ele>211.7</ele>
        <time>2020-06-24T17:29:21Z</time>
      </trkpt>
      <trkpt lat="50.07031" lon="4.24199">
        <ele>211.8</ele>
        <time>2020-06-24T17:29:22Z</time>
      </trkpt>
      <trkpt lat="50.07033" lon="4.24207">
        <ele>211.9</ele>
        <time>2020-06-24T17:29:23Z</time>
      </trkpt>
      <trkpt lat="50.07035" lon="4.24215">
        <ele>211.9</ele>
        <time>2020-06-24T17:29:24Z</time>
      </trkpt>
      <trkpt lat="50.07037" lon="4.24222">
        <ele>212</ele>
        <time>2020-06-24T17:29:25Z</time>
      </trkpt>
      <trkpt lat="50.07039" lon="4.24229">
        <ele>212.1</ele>
        <time>2020-06-24T17:29:26Z</time>
      </trkpt>
      <trkpt lat="50.0704" lon="4.24237">
        <ele>212.2</ele>
        <time>2020-06-24T17:29:27Z</time>
      </trkpt>
      <trkpt lat="50.07042" lon="4.24244">
        <ele>212.3</ele>
        <time>2020-06-24T17:29:28Z</time>
      </trkpt>
      <trkpt lat="50.07043" lon="4.24253">
        <ele>212.4</ele>
        <time>2020-06-24T17:29:29Z</time>
      </trkpt>
      <trkpt lat="50.07044" lon="4.24259">
        <ele>212.5</ele>
        <time>2020-06-24T17:29:30Z</time>
      </trkpt>
      <trkpt lat="50.07046" lon="4.24267">
        <ele>212.6</ele>
        <time>2020-06-24T17:29:31Z</time>
      </trkpt>
      <trkpt lat="50.07047" lon="4.24273">
        <ele>212.6</ele>
        <time>2020-06-24T17:29:32Z</time>
      </trkpt>
      <trkpt lat="50.07048" lon="4.2428">
        <ele>212.7</ele>
        <time>2020-06-24T17:29:33Z</time>
      </trkpt>
      <trkpt lat="50.07049" lon="4.24287">
        <ele>212.8</ele>
        <time>2020-06-24T17:29:34Z</time>
      </trkpt>
      <trkpt lat="50.0705" lon="4.24293">
        <ele>212.9</ele>
        <time>2020-06-24T17:29:35Z</time>
      </trkpt>
      <trkpt lat="50.07051" lon="4.243">
        <ele>213</ele>
        <time>2020-06-24T17:29:36Z</time>
      </trkpt>
      <trkpt lat="50.07052" lon="4.24307">
        <ele>213.1</ele>
        <time>2020-06-24T17:29:37Z</time>
      </trkpt>
      <trkpt lat="50.07053" lon="4.24312">
        <ele>213.2</ele>
        <time>2020-06-24T17:29:38Z</time>
      </trkpt>
      <trkpt lat="50.07053" lon="4.24318">
        <ele>213.3</ele>
        <time>2020-06-24T17:29:39Z</time>
      </trkpt>
      <trkpt lat="50.07054" lon="4.24325">
        <ele>213.4</ele>
        <time>2020-06-24T17:29:40Z</time>
      </trkpt>
      <trkpt lat="50.07055" lon="4.24332">
        <ele>213.5</ele>
        <time>2020-06-24T17:29:41Z</time>
      </trkpt>
      <trkpt lat="50.07056" lon="4.24339">
        <ele>213.7</ele>
        <time>2020-06-24T17:29:42Z</time>
      </trkpt>
      <trkpt lat="50.07057" lon="4.24346">
        <ele>213.8</ele>
        <time>2020-06-24T17:29:43Z</time>
      </trkpt>
      <trkpt lat="50.07059" lon="4.24353">
        <ele>214</ele>
        <time>2020-06-24T17:29:44Z</time>
      </trkpt>
      <trkpt lat="50.0706" lon="4.24361">
        <ele>214.1</ele>
        <time>2020-06-24T17:29:45Z</time>
      </trkpt>
      <trkpt lat="50.07062" lon="4.24368">
        <ele>214.3</ele>
        <time>2020-06-24T17:29:46Z</time>
      </trkpt>
      <trkpt lat="50.07063" lon="4.24374">
        <ele>214.4</ele>
        <time>2020-06-24T17:29:47Z</time>
      </trkpt>
      <trkpt lat="50.07064" lon="4.24381">
        <ele>214.5</ele>
        <time>2020-06-24T17:29:48Z</time>
      </trkpt>
      <trkpt lat="50.07065" lon="4.24388">
        <ele>214.6</ele>
        <time>2020-06-24T17:29:49Z</time>
      </trkpt>
      <trkpt lat="50.07066" lon="4.24395">
        <ele>214.7</ele>
        <time>2020-06-24T17:29:50Z</time>
      </trkpt>
      <trkpt lat="50.07067" lon="4.24402">
        <ele>214.8</ele>
        <time>2020-06-24T17:29:51Z</time>
      </trkpt>
      <trkpt lat="50.07068" lon="4.24408">
        <ele>215</ele>
        <time>2020-06-24T17:29:52Z</time>
      </trkpt>
      <trkpt lat="50.07069" lon="4.24415">
        <ele>215.1</ele>
        <time>2020-06-24T17:29:53Z</time>
      </trkpt>
      <trkpt lat="50.0707" lon="4.24421">
        <ele>215.2</ele>
        <time>2020-06-24T17:29:54Z</time>
      </trkpt>
      <trkpt lat="50.07071" lon="4.24428">
        <ele>215.3</ele>
        <time>2020-06-24T17:29:55Z</time>
      </trkpt>
      <trkpt lat="50.07072" lon="4.24434">
        <ele>215.5</ele>
        <time>2020-06-24T17:29:56Z</time>
      </trkpt>
      <trkpt lat="50.07073" lon="4.2444">
        <ele>215.6</ele>
        <time>2020-06-24T17:29:57Z</time>
      </trkpt>
      <trkpt lat="50.07074" lon="4.24447">
        <ele>215.7</ele>
        <time>2020-06-24T17:29:58Z</time>
      </trkpt>
      <trkpt lat="50.07074" lon="4.24454">
        <ele>215.8</ele>
        <time>2020-06-24T17:29:59Z</time>
      </trkpt>
      <trkpt lat="50.07075" lon="4.2446">
        <ele>215.9</ele>
        <time>2020-06-24T17:30:00Z</time>
      </trkpt>
      <trkpt lat="50.07076" lon="4.24466">
        <ele>215.9</ele>
        <time>2020-06-24T17:30:01Z</time>
      </trkpt>
      <trkpt lat="50.07077" lon="4.24474">
        <ele>216</ele>
        <time>2020-06-24T17:30:02Z</time>
      </trkpt>
      <trkpt lat="50.07078" lon="4.24481">
        <ele>216.1</ele>
        <time>2020-06-24T17:30:03Z</time>
      </trkpt>
      <trkpt lat="50.0708" lon="4.24488">
        <ele>216.2</ele>
        <time>2020-06-24T17:30:04Z</time>
      </trkpt>
      <trkpt lat="50.07081" lon="4.24495">
        <ele>216.3</ele>
        <time>2020-06-24T17:30:05Z</time>
      </trkpt>
      <trkpt lat="50.07082" lon="4.24501">
        <ele>216.3</ele>
        <time>2020-06-24T17:30:06Z</time>
      </trkpt>
      <trkpt lat="50.07083" lon="4.24508">
        <ele>216.4</ele>
        <time>2020-06-24T17:30:07Z</time>
      </trkpt>
      <trkpt lat="50.07085" lon="4.24516">
        <ele>216.4</ele>
        <time>2020-06-24T17:30:08Z</time>
      </trkpt>
      <trkpt lat="50.07086" lon="4.24523">
        <ele>216.5</ele>
        <time>2020-06-24T17:30:09Z</time>
      </trkpt>
      <trkpt lat="50.07087" lon="4.2453">
        <ele>216.6</ele>
        <time>2020-06-24T17:30:10Z</time>
      </trkpt>
      <trkpt lat="50.07088" lon="4.24538">
        <ele>216.7</ele>
        <time>2020-06-24T17:30:11Z</time>
      </trkpt>
      <trkpt lat="50.07089" lon="4.24546">
        <ele>216.8</ele>
        <time>2020-06-24T17:30:12Z</time>
      </trkpt>
      <trkpt lat="50.07091" lon="4.24554">
        <ele>216.9</ele>
        <time>2020-06-24T17:30:13Z</time>
      </trkpt>
      <trkpt lat="50.07092" lon="4.24561">
        <ele>216.9</ele>
        <time>2020-06-24T17:30:14Z</time>
      </trkpt>
      <trkpt lat="50.07093" lon="4.24568">
        <ele>217</ele>
        <time>2020-06-24T17:30:15Z</time>
      </trkpt>
      <trkpt lat="50.07094" lon="4.24575">
        <ele>217.1</ele>
        <time>2020-06-24T17:30:16Z</time>
      </trkpt>
      <trkpt lat="50.07095" lon="4.24582">
        <ele>217.1</ele>
        <time>2020-06-24T17:30:17Z</time>
      </trkpt>
      <trkpt lat="50.07096" lon="4.2459">
        <ele>217.2</ele>
        <time>2020-06-24T17:30:18Z</time>
      </trkpt>
      <trkpt lat="50.07097" lon="4.24598">
        <ele>217.3</ele>
        <time>2020-06-24T17:30:19Z</time>
      </trkpt>
      <trkpt lat="50.07098" lon="4.24605">
        <ele>217.3</ele>
        <time>2020-06-24T17:30:20Z</time>
      </trkpt>
      <trkpt lat="50.07099" lon="4.24613">
        <ele>217.4</ele>
        <time>2020-06-24T17:30:21Z</time>
      </trkpt>
      <trkpt lat="50.071" lon="4.24621">
        <ele>217.5</ele>
        <time>2020-06-24T17:30:22Z</time>
      </trkpt>
      <trkpt lat="50.07102" lon="4.24629">
        <ele>217.6</ele>
        <time>2020-06-24T17:30:23Z</time>
      </trkpt>
      <trkpt lat="50.07102" lon="4.24635">
        <ele>217.6</ele>
        <time>2020-06-24T17:30:24Z</time>
      </trkpt>
      <trkpt lat="50.07103" lon="4.24643">
        <ele>217.7</ele>
        <time>2020-06-24T17:30:25Z</time>
      </trkpt>
      <trkpt lat="50.07104" lon="4.24651">
        <ele>217.8</ele>
        <time>2020-06-24T17:30:26Z</time>
      </trkpt>
      <trkpt lat="50.07105" lon="4.24659">
        <ele>217.8</ele>
        <time>2020-06-24T17:30:27Z</time>
      </trkpt>
      <trkpt lat="50.07106" lon="4.24667">
        <ele>217.9</ele>
        <time>2020-06-24T17:30:28Z</time>
      </trkpt>
      <trkpt lat="50.07107" lon="4.24675">
        <ele>217.9</ele>
        <time>2020-06-24T17:30:29Z</time>
      </trkpt>
      <trkpt lat="50.07108" lon="4.24684">
        <ele>218</ele>
        <time>2020-06-24T17:30:30Z</time>
      </trkpt>
      <trkpt lat="50.07109" lon="4.24693">
        <ele>218</ele>
        <time>2020-06-24T17:30:31Z</time>
      </trkpt>
      <trkpt lat="50.07109" lon="4.24701">
        <ele>218</ele>
        <time>2020-06-24T17:30:32Z</time>
      </trkpt>
      <trkpt lat="50.07109" lon="4.24709">
        <ele>218</ele>
        <time>2020-06-24T17:30:33Z</time>
      </trkpt>
      <trkpt lat="50.0711" lon="4.24718">
        <ele>218.1</ele>
        <time>2020-06-24T17:30:34Z</time>
      </trkpt>
      <trkpt lat="50.0711" lon="4.24727">
        <ele>218.1</ele>
        <time>2020-06-24T17:30:35Z</time>
      </trkpt>
      <trkpt lat="50.0711" lon="4.24736">
        <ele>218.2</ele>
        <time>2020-06-24T17:30:36Z</time>
      </trkpt>
      <trkpt lat="50.0711" lon="4.24744">
        <ele>218.2</ele>
        <time>2020-06-24T17:30:37Z</time>
      </trkpt>
      <trkpt lat="50.0711" lon="4.24752">
        <ele>218.2</ele>
        <time>2020-06-24T17:30:38Z</time>
      </trkpt>
      <trkpt lat="50.07109" lon="4.2476">
        <ele>218.3</ele>
        <time>2020-06-24T17:30:39Z</time>
      </trkpt>
      <trkpt lat="50.07109" lon="4.24768">
        <ele>218.3</ele>
        <time>2020-06-24T17:30:40Z</time>
      </trkpt>
      <trkpt lat="50.07109" lon="4.24776">
        <ele>218.4</ele>
        <time>2020-06-24T17:30:41Z</time>
      </trkpt>
      <trkpt lat="50.07109" lon="4.24786">
        <ele>218.4</ele>
        <time>2020-06-24T17:30:42Z</time>
      </trkpt>
      <trkpt lat="50.0711" lon="4.24796">
        <ele>218.5</ele>
        <time>2020-06-24T17:30:43Z</time>
      </trkpt>
      <trkpt lat="50.07111" lon="4.24805">
        <ele>218.5</ele>
        <time>2020-06-24T17:30:44Z</time>
      </trkpt>
      <trkpt lat="50.07113" lon="4.24813">
        <ele>218.5</ele>
        <time>2020-06-24T17:30:45Z</time>
      </trkpt>
      <trkpt lat="50.07115" lon="4.2482">
        <ele>218.4</ele>
        <time>2020-06-24T17:30:46Z</time>
      </trkpt>
      <trkpt lat="50.07118" lon="4.24829">
        <ele>218.4</ele>
        <time>2020-06-24T17:30:47Z</time>
      </trkpt>
      <trkpt lat="50.0712" lon="4.24837">
        <ele>218.3</ele>
        <time>2020-06-24T17:30:48Z</time>
      </trkpt>
      <trkpt lat="50.07123" lon="4.24844">
        <ele>218.3</ele>
        <time>2020-06-24T17:30:49Z</time>
      </trkpt>
      <trkpt lat="50.07126" lon="4.24852">
        <ele>218.3</ele>
        <time>2020-06-24T17:30:50Z</time>
      </trkpt>
      <trkpt lat="50.07129" lon="4.24859">
        <ele>218.2</ele>
        <time>2020-06-24T17:30:51Z</time>
      </trkpt>
      <trkpt lat="50.07132" lon="4.24867">
        <ele>218.2</ele>
        <time>2020-06-24T17:30:52Z</time>
      </trkpt>
      <trkpt lat="50.07136" lon="4.24875">
        <ele>218.2</ele>
        <time>2020-06-24T17:30:53Z</time>
      </trkpt>
      <trkpt lat="50.07139" lon="4.24882">
        <ele>218.2</ele>
        <time>2020-06-24T17:30:54Z</time>
      </trkpt>
      <trkpt lat="50.07142" lon="4.2489">
        <ele>218.2</ele>
        <time>2020-06-24T17:30:55Z</time>
      </trkpt>
      <trkpt lat="50.07145" lon="4.24897">
        <ele>218.3</ele>
        <time>2020-06-24T17:30:56Z</time>
      </trkpt>
      <trkpt lat="50.07148" lon="4.24904">
        <ele>218.3</ele>
        <time>2020-06-24T17:30:57Z</time>
      </trkpt>
      <trkpt lat="50.07151" lon="4.24911">
        <ele>218.3</ele>
        <time>2020-06-24T17:30:58Z</time>
      </trkpt>
      <trkpt lat="50.07154" lon="4.24918">
        <ele>218.3</ele>
        <time>2020-06-24T17:30:59Z</time>
      </trkpt>
      <trkpt lat="50.07158" lon="4.24925">
        <ele>218.3</ele>
        <time>2020-06-24T17:31:00Z</time>
      </trkpt>
      <trkpt lat="50.07161" lon="4.24933">
        <ele>218.4</ele>
        <time>2020-06-24T17:31:01Z</time>
      </trkpt>
      <trkpt lat="50.07164" lon="4.24941">
        <ele>218.4</ele>
        <time>2020-06-24T17:31:02Z</time>
      </trkpt>
      <trkpt lat="50.07167" lon="4.24948">
        <ele>218.4</ele>
        <time>2020-06-24T17:31:03Z</time>
      </trkpt>
      <trkpt lat="50.0717" lon="4.24956">
        <ele>218.4</ele>
        <time>2020-06-24T17:31:04Z</time>
      </trkpt>
      <trkpt lat="50.07173" lon="4.24963">
        <ele>218.4</ele>
        <time>2020-06-24T17:31:05Z</time>
      </trkpt>
      <trkpt lat="50.07175" lon="4.24971">
        <ele>218.3</ele>
        <time>2020-06-24T17:31:06Z</time>
      </trkpt>
      <trkpt lat="50.07178" lon="4.24978">
        <ele>218.3</ele>
        <time>2020-06-24T17:31:07Z</time>
      </trkpt>
      <trkpt lat="50.0718" lon="4.24986">
        <ele>218.3</ele>
        <time>2020-06-24T17:31:08Z</time>
      </trkpt>
      <trkpt lat="50.07182" lon="4.24994">
        <ele>218.3</ele>
        <time>2020-06-24T17:31:09Z</time>
      </trkpt>
      <trkpt lat="50.07185" lon="4.25002">
        <ele>218.2</ele>
        <time>2020-06-24T17:31:10Z</time>
      </trkpt>
      <trkpt lat="50.07187" lon="4.25011">
        <ele>218.2</ele>
        <time>2020-06-24T17:31:11Z</time>
      </trkpt>
      <trkpt lat="50.07188" lon="4.25019">
        <ele>218.1</ele>
        <time>2020-06-24T17:31:12Z</time>
      </trkpt>
      <trkpt lat="50.0719" lon="4.25027">
        <ele>218</ele>
        <time>2020-06-24T17:31:13Z</time>
      </trkpt>
      <trkpt lat="50.07192" lon="4.25034">
        <ele>217.9</ele>
        <time>2020-06-24T17:31:14Z</time>
      </trkpt>
      <trkpt lat="50.07194" lon="4.25042">
        <ele>217.8</ele>
        <time>2020-06-24T17:31:15Z</time>
      </trkpt>
      <trkpt lat="50.07196" lon="4.25049">
        <ele>217.7</ele>
        <time>2020-06-24T17:31:16Z</time>
      </trkpt>
      <trkpt lat="50.07198" lon="4.25057">
        <ele>217.6</ele>
        <time>2020-06-24T17:31:17Z</time>
      </trkpt>
      <trkpt lat="50.072" lon="4.25065">
        <ele>217.4</ele>
        <time>2020-06-24T17:31:18Z</time>
      </trkpt>
      <trkpt lat="50.07202" lon="4.25073">
        <ele>217.3</ele>
        <time>2020-06-24T17:31:19Z</time>
      </trkpt>
      <trkpt lat="50.07204" lon="4.25082">
        <ele>217.1</ele>
        <time>2020-06-24T17:31:20Z</time>
      </trkpt>
      <trkpt lat="50.07207" lon="4.25089">
        <ele>217</ele>
        <time>2020-06-24T17:31:21Z</time>
      </trkpt>
      <trkpt lat="50.07209" lon="4.25097">
        <ele>216.8</ele>
        <time>2020-06-24T17:31:22Z</time>
      </trkpt>
      <trkpt lat="50.07211" lon="4.25105">
        <ele>216.7</ele>
        <time>2020-06-24T17:31:23Z</time>
      </trkpt>
      <trkpt lat="50.07213" lon="4.25113">
        <ele>216.5</ele>
        <time>2020-06-24T17:31:24Z</time>
      </trkpt>
      <trkpt lat="50.07216" lon="4.25123">
        <ele>216.3</ele>
        <time>2020-06-24T17:31:25Z</time>
      </trkpt>
      <trkpt lat="50.07218" lon="4.25133">
        <ele>216.1</ele>
        <time>2020-06-24T17:31:26Z</time>
      </trkpt>
      <trkpt lat="50.0722" lon="4.25142">
        <ele>215.9</ele>
        <time>2020-06-24T17:31:27Z</time>
      </trkpt>
      <trkpt lat="50.07222" lon="4.25151">
        <ele>215.6</ele>
        <time>2020-06-24T17:31:28Z</time>
      </trkpt>
      <trkpt lat="50.07224" lon="4.2516">
        <ele>215.4</ele>
        <time>2020-06-24T17:31:29Z</time>
      </trkpt>
      <trkpt lat="50.07225" lon="4.25171">
        <ele>215.2</ele>
        <time>2020-06-24T17:31:30Z</time>
      </trkpt>
      <trkpt lat="50.07226" lon="4.25182">
        <ele>214.9</ele>
        <time>2020-06-24T17:31:31Z</time>
      </trkpt>
      <trkpt lat="50.07226" lon="4.25193">
        <ele>214.6</ele>
        <time>2020-06-24T17:31:32Z</time>
      </trkpt>
      <trkpt lat="50.07226" lon="4.25204">
        <ele>214.4</ele>
        <time>2020-06-24T17:31:33Z</time>
      </trkpt>
      <trkpt lat="50.07227" lon="4.25214">
        <ele>214.1</ele>
        <time>2020-06-24T17:31:34Z</time>
      </trkpt>
      <trkpt lat="50.07226" lon="4.25225">
        <ele>213.9</ele>
        <time>2020-06-24T17:31:35Z</time>
      </trkpt>
      <trkpt lat="50.07226" lon="4.25236">
        <ele>213.7</ele>
        <time>2020-06-24T17:31:36Z</time>
      </trkpt>
      <trkpt lat="50.07226" lon="4.25246">
        <ele>213.5</ele>
        <time>2020-06-24T17:31:37Z</time>
      </trkpt>
      <trkpt lat="50.07225" lon="4.25257">
        <ele>213.3</ele>
        <time>2020-06-24T17:31:38Z</time>
      </trkpt>
      <trkpt lat="50.07224" lon="4.25268">
        <ele>213.2</ele>
        <time>2020-06-24T17:31:39Z</time>
      </trkpt>
      <trkpt lat="50.07224" lon="4.2528">
        <ele>213.1</ele>
        <time>2020-06-24T17:31:40Z</time>
      </trkpt>
      <trkpt lat="50.07223" lon="4.2529">
        <ele>213</ele>
        <time>2020-06-24T17:31:41Z</time>
      </trkpt>
      <trkpt lat="50.07223" lon="4.25302">
        <ele>213</ele>
        <time>2020-06-24T17:31:42Z</time>
      </trkpt>
      <trkpt lat="50.07222" lon="4.25313">
        <ele>212.9</ele>
        <time>2020-06-24T17:31:43Z</time>
      </trkpt>
      <trkpt lat="50.07221" lon="4.25324">
        <ele>212.9</ele>
        <time>2020-06-24T17:31:44Z</time>
      </trkpt>
      <trkpt lat="50.07221" lon="4.25336">
        <ele>212.8</ele>
        <time>2020-06-24T17:31:45Z</time>
      </trkpt>
      <trkpt lat="50.0722" lon="4.25347">
        <ele>212.7</ele>
        <time>2020-06-24T17:31:46Z</time>
      </trkpt>
      <trkpt lat="50.07219" lon="4.25358">
        <ele>212.6</ele>
        <time>2020-06-24T17:31:47Z</time>
      </trkpt>
      <trkpt lat="50.07218" lon="4.2537">
        <ele>212.6</ele>
        <time>2020-06-24T17:31:48Z</time>
      </trkpt>
      <trkpt lat="50.07218" lon="4.25381">
        <ele>212.5</ele>
        <time>2020-06-24T17:31:49Z</time>
      </trkpt>
      <trkpt lat="50.07217" lon="4.25392">
        <ele>212.5</ele>
        <time>2020-06-24T17:31:50Z</time>
      </trkpt>
      <trkpt lat="50.07217" lon="4.25404">
        <ele>212.5</ele>
        <time>2020-06-24T17:31:51Z</time>
      </trkpt>
      <trkpt lat="50.07217" lon="4.25416">
        <ele>212.6</ele>
        <time>2020-06-24T17:31:52Z</time>
      </trkpt>
      <trkpt lat="50.07217" lon="4.25427">
        <ele>212.6</ele>
        <time>2020-06-24T17:31:53Z</time>
      </trkpt>
      <trkpt lat="50.07218" lon="4.25437">
        <ele>212.6</ele>
        <time>2020-06-24T17:31:54Z</time>
      </trkpt>
      <trkpt lat="50.07218" lon="4.25447">
        <ele>212.7</ele>
        <time>2020-06-24T17:31:55Z</time>
      </trkpt>
      <trkpt lat="50.07218" lon="4.25458">
        <ele>212.7</ele>
        <time>2020-06-24T17:31:56Z</time>
      </trkpt>
      <trkpt lat="50.07219" lon="4.25469">
        <ele>212.8</ele>
        <time>2020-06-24T17:31:57Z</time>
      </trkpt>
      <trkpt lat="50.07219" lon="4.2548">
        <ele>212.8</ele>
        <time>2020-06-24T17:31:58Z</time>
      </trkpt>
      <trkpt lat="50.07219" lon="4.2549">
        <ele>212.8</ele>
        <time>2020-06-24T17:31:59Z</time>
      </trkpt>
      <trkpt lat="50.07219" lon="4.25501">
        <ele>212.8</ele>
        <time>2020-06-24T17:32:00Z</time>
      </trkpt>
      <trkpt lat="50.07219" lon="4.25513">
        <ele>212.7</ele>
        <time>2020-06-24T17:32:01Z</time>
      </trkpt>
      <trkpt lat="50.07219" lon="4.25524">
        <ele>212.7</ele>
        <time>2020-06-24T17:32:02Z</time>
      </trkpt>
      <trkpt lat="50.07219" lon="4.25535">
        <ele>212.6</ele>
        <time>2020-06-24T17:32:03Z</time>
      </trkpt>
      <trkpt lat="50.0722" lon="4.25548">
        <ele>212.5</ele>
        <time>2020-06-24T17:32:04Z</time>
      </trkpt>
      <trkpt lat="50.07221" lon="4.25559">
        <ele>212.5</ele>
        <time>2020-06-24T17:32:05Z</time>
      </trkpt>
      <trkpt lat="50.07221" lon="4.2557">
        <ele>212.4</ele>
        <time>2020-06-24T17:32:06Z</time>
      </trkpt>
      <trkpt lat="50.07222" lon="4.25581">
        <ele>212.3</ele>
        <time>2020-06-24T17:32:07Z</time>
      </trkpt>
      <trkpt lat="50.07224" lon="4.25594">
        <ele>212.3</ele>
        <time>2020-06-24T17:32:08Z</time>
      </trkpt>
      <trkpt lat="50.07225" lon="4.25605">
        <ele>212.2</ele>
        <time>2020-06-24T17:32:09Z</time>
      </trkpt>
      <trkpt lat="50.07226" lon="4.25616">
        <ele>212</ele>
        <time>2020-06-24T17:32:10Z</time>
      </trkpt>
      <trkpt lat="50.07227" lon="4.25626">
        <ele>211.9</ele>
        <time>2020-06-24T17:32:11Z</time>
      </trkpt>
      <trkpt lat="50.07228" lon="4.25636">
        <ele>211.7</ele>
        <time>2020-06-24T17:32:12Z</time>
      </trkpt>
      <trkpt lat="50.07229" lon="4.25648">
        <ele>211.6</ele>
        <time>2020-06-24T17:32:13Z</time>
      </trkpt>
      <trkpt lat="50.0723" lon="4.25661">
        <ele>211.4</ele>
        <time>2020-06-24T17:32:14Z</time>
      </trkpt>
      <trkpt lat="50.07232" lon="4.25672">
        <ele>211.3</ele>
        <time>2020-06-24T17:32:15Z</time>
      </trkpt>
      <trkpt lat="50.07233" lon="4.25684">
        <ele>211.1</ele>
        <time>2020-06-24T17:32:16Z</time>
      </trkpt>
      <trkpt lat="50.07235" lon="4.25694">
        <ele>210.9</ele>
        <time>2020-06-24T17:32:17Z</time>
      </trkpt>
      <trkpt lat="50.07236" lon="4.25704">
        <ele>210.7</ele>
        <time>2020-06-24T17:32:18Z</time>
      </trkpt>
      <trkpt lat="50.07237" lon="4.25715">
        <ele>210.5</ele>
        <time>2020-06-24T17:32:19Z</time>
      </trkpt>
      <trkpt lat="50.07237" lon="4.25728">
        <ele>210.2</ele>
        <time>2020-06-24T17:32:20Z</time>
      </trkpt>
      <trkpt lat="50.07237" lon="4.25741">
        <ele>209.8</ele>
        <time>2020-06-24T17:32:21Z</time>
      </trkpt>
      <trkpt lat="50.07238" lon="4.25753">
        <ele>209.3</ele>
        <time>2020-06-24T17:32:22Z</time>
      </trkpt>
      <trkpt lat="50.07237" lon="4.25766">
        <ele>209</ele>
        <time>2020-06-24T17:32:23Z</time>
      </trkpt>
      <trkpt lat="50.07237" lon="4.25779">
        <ele>208.6</ele>
        <time>2020-06-24T17:32:24Z</time>
      </trkpt>
      <trkpt lat="50.07235" lon="4.25792">
        <ele>208.4</ele>
        <time>2020-06-24T17:32:25Z</time>
      </trkpt>
      <trkpt lat="50.07233" lon="4.25805">
        <ele>208.2</ele>
        <time>2020-06-24T17:32:26Z</time>
      </trkpt>
      <trkpt lat="50.07231" lon="4.25818">
        <ele>208.1</ele>
        <time>2020-06-24T17:32:27Z</time>
      </trkpt>
      <trkpt lat="50.07229" lon="4.25831">
        <ele>208</ele>
        <time>2020-06-24T17:32:28Z</time>
      </trkpt>
      <trkpt lat="50.07227" lon="4.25843">
        <ele>208</ele>
        <time>2020-06-24T17:32:29Z</time>
      </trkpt>
      <trkpt lat="50.07225" lon="4.25857">
        <ele>208.1</ele>
        <time>2020-06-24T17:32:30Z</time>
      </trkpt>
      <trkpt lat="50.07225" lon="4.2587">
        <ele>208.2</ele>
        <time>2020-06-24T17:32:31Z</time>
      </trkpt>
      <trkpt lat="50.07228" lon="4.25881">
        <ele>208.2</ele>
        <time>2020-06-24T17:32:32Z</time>
      </trkpt>
      <trkpt lat="50.07231" lon="4.25892">
        <ele>208.3</ele>
        <time>2020-06-24T17:32:33Z</time>
      </trkpt>
      <trkpt lat="50.07235" lon="4.25901">
        <ele>208.4</ele>
        <time>2020-06-24T17:32:34Z</time>
      </trkpt>
      <trkpt lat="50.07239" lon="4.2591">
        <ele>208.6</ele>
        <time>2020-06-24T17:32:35Z</time>
      </trkpt>
      <trkpt lat="50.07244" lon="4.25919">
        <ele>208.7</ele>
        <time>2020-06-24T17:32:36Z</time>
      </trkpt>
      <trkpt lat="50.07248" lon="4.25927">
        <ele>208.9</ele>
        <time>2020-06-24T17:32:37Z</time>
      </trkpt>
      <trkpt lat="50.07251" lon="4.25936">
        <ele>209.1</ele>
        <time>2020-06-24T17:32:38Z</time>
      </trkpt>
      <trkpt lat="50.07255" lon="4.25947">
        <ele>209.3</ele>
        <time>2020-06-24T17:32:39Z</time>
      </trkpt>
      <trkpt lat="50.07257" lon="4.25956">
        <ele>209.4</ele>
        <time>2020-06-24T17:32:40Z</time>
      </trkpt>
      <trkpt lat="50.07259" lon="4.25965">
        <ele>209.6</ele>
        <time>2020-06-24T17:32:41Z</time>
      </trkpt>
      <trkpt lat="50.07261" lon="4.25975">
        <ele>209.9</ele>
        <time>2020-06-24T17:32:42Z</time>
      </trkpt>
      <trkpt lat="50.07262" lon="4.25984">
        <ele>210.1</ele>
        <time>2020-06-24T17:32:43Z</time>
      </trkpt>
      <trkpt lat="50.07264" lon="4.25993">
        <ele>210.4</ele>
        <time>2020-06-24T17:32:44Z</time>
      </trkpt>
      <trkpt lat="50.07265" lon="4.26001">
        <ele>210.7</ele>
        <time>2020-06-24T17:32:45Z</time>
      </trkpt>
      <trkpt lat="50.07266" lon="4.2601">
        <ele>211</ele>
        <time>2020-06-24T17:32:46Z</time>
      </trkpt>
      <trkpt lat="50.07267" lon="4.26018">
        <ele>211.3</ele>
        <time>2020-06-24T17:32:47Z</time>
      </trkpt>
      <trkpt lat="50.07268" lon="4.26025">
        <ele>211.6</ele>
        <time>2020-06-24T17:32:48Z</time>
      </trkpt>
      <trkpt lat="50.07268" lon="4.26032">
        <ele>211.8</ele>
        <time>2020-06-24T17:32:49Z</time>
      </trkpt>
      <trkpt lat="50.07268" lon="4.2604">
        <ele>212.1</ele>
        <time>2020-06-24T17:32:50Z</time>
      </trkpt>
      <trkpt lat="50.07269" lon="4.26048">
        <ele>212.4</ele>
        <time>2020-06-24T17:32:51Z</time>
      </trkpt>
      <trkpt lat="50.07269" lon="4.26056">
        <ele>212.7</ele>
        <time>2020-06-24T17:32:52Z</time>
      </trkpt>
      <trkpt lat="50.0727" lon="4.26063">
        <ele>213</ele>
        <time>2020-06-24T17:32:53Z</time>
      </trkpt>
      <trkpt lat="50.07271" lon="4.2607">
        <ele>213.2</ele>
        <time>2020-06-24T17:32:54Z</time>
      </trkpt>
      <trkpt lat="50.07271" lon="4.26077">
        <ele>213.5</ele>
        <time>2020-06-24T17:32:55Z</time>
      </trkpt>
      <trkpt lat="50.07272" lon="4.26085">
        <ele>213.8</ele>
        <time>2020-06-24T17:32:56Z</time>
      </trkpt>
      <trkpt lat="50.07272" lon="4.26092">
        <ele>214.1</ele>
        <time>2020-06-24T17:32:57Z</time>
      </trkpt>
      <trkpt lat="50.07273" lon="4.261">
        <ele>214.3</ele>
        <time>2020-06-24T17:32:58Z</time>
      </trkpt>
      <trkpt lat="50.07274" lon="4.26106">
        <ele>214.6</ele>
        <time>2020-06-24T17:32:59Z</time>
      </trkpt>
      <trkpt lat="50.07275" lon="4.26113">
        <ele>214.8</ele>
        <time>2020-06-24T17:33:00Z</time>
      </trkpt>
      <trkpt lat="50.07275" lon="4.2612">
        <ele>215.1</ele>
        <time>2020-06-24T17:33:01Z</time>
      </trkpt>
      <trkpt lat="50.07276" lon="4.26126">
        <ele>215.3</ele>
        <time>2020-06-24T17:33:02Z</time>
      </trkpt>
      <trkpt lat="50.07277" lon="4.26132">
        <ele>215.5</ele>
        <time>2020-06-24T17:33:03Z</time>
      </trkpt>
      <trkpt lat="50.07277" lon="4.26138">
        <ele>215.7</ele>
        <time>2020-06-24T17:33:04Z</time>
      </trkpt>
      <trkpt lat="50.07278" lon="4.26144">
        <ele>215.9</ele>
        <time>2020-06-24T17:33:05Z</time>
      </trkpt>
      <trkpt lat="50.0728" lon="4.2615">
        <ele>216.2</ele>
        <time>2020-06-24T17:33:06Z</time>
      </trkpt>
      <trkpt lat="50.07281" lon="4.26157">
        <ele>216.4</ele>
        <time>2020-06-24T17:33:07Z</time>
      </trkpt>
      <trkpt lat="50.07281" lon="4.26164">
        <ele>216.6</ele>
        <time>2020-06-24T17:33:08Z</time>
      </trkpt>
      <trkpt lat="50.07282" lon="4.26171">
        <ele>216.9</ele>
        <time>2020-06-24T17:33:09Z</time>
      </trkpt>
      <trkpt lat="50.07283" lon="4.26177">
        <ele>217.1</ele>
        <time>2020-06-24T17:33:10Z</time>
      </trkpt>
      <trkpt lat="50.07284" lon="4.26183">
        <ele>217.3</ele>
        <time>2020-06-24T17:33:11Z</time>
      </trkpt>
      <trkpt lat="50.07285" lon="4.26191">
        <ele>217.6</ele>
        <time>2020-06-24T17:33:12Z</time>
      </trkpt>
      <trkpt lat="50.07285" lon="4.26198">
        <ele>217.8</ele>
        <time>2020-06-24T17:33:13Z</time>
      </trkpt>
      <trkpt lat="50.07285" lon="4.26206">
        <ele>218.1</ele>
        <time>2020-06-24T17:33:14Z</time>
      </trkpt>
      <trkpt lat="50.07285" lon="4.26212">
        <ele>218.3</ele>
        <time>2020-06-24T17:33:15Z</time>
      </trkpt>
      <trkpt lat="50.07286" lon="4.26217">
        <ele>218.5</ele>
        <time>2020-06-24T17:33:16Z</time>
      </trkpt>
      <trkpt lat="50.07287" lon="4.26223">
        <ele>218.7</ele>
        <time>2020-06-24T17:33:17Z</time>
      </trkpt>
      <trkpt lat="50.07287" lon="4.26229">
        <ele>219</ele>
        <time>2020-06-24T17:33:18Z</time>
      </trkpt>
      <trkpt lat="50.07288" lon="4.26234">
        <ele>219.2</ele>
        <time>2020-06-24T17:33:19Z</time>
      </trkpt>
      <trkpt lat="50.07287" lon="4.2624">
        <ele>219.4</ele>
        <time>2020-06-24T17:33:20Z</time>
      </trkpt>
      <trkpt lat="50.07286" lon="4.26242">
        <ele>219.5</ele>
        <time>2020-06-24T17:33:21Z</time>
      </trkpt>
      <trkpt lat="50.07287" lon="4.26248">
        <ele>219.7</ele>
        <time>2020-06-24T17:33:22Z</time>
      </trkpt>
      <trkpt lat="50.07287" lon="4.26251">
        <ele>219.8</ele>
        <time>2020-06-24T17:33:23Z</time>
      </trkpt>
      <trkpt lat="50.07287" lon="4.26257">
        <ele>220</ele>
        <time>2020-06-24T17:33:24Z</time>
      </trkpt>
      <trkpt lat="50.07288" lon="4.26263">
        <ele>220.3</ele>
        <time>2020-06-24T17:33:25Z</time>
      </trkpt>
      <trkpt lat="50.0729" lon="4.26267">
        <ele>220.5</ele>
        <time>2020-06-24T17:33:26Z</time>
      </trkpt>
      <trkpt lat="50.07291" lon="4.26271">
        <ele>220.6</ele>
        <time>2020-06-24T17:33:27Z</time>
      </trkpt>
      <trkpt lat="50.07292" lon="4.26276">
        <ele>220.8</ele>
        <time>2020-06-24T17:33:28Z</time>
      </trkpt>
      <trkpt lat="50.07291" lon="4.26283">
        <ele>221</ele>
        <time>2020-06-24T17:33:29Z</time>
      </trkpt>
      <trkpt lat="50.07292" lon="4.26288">
        <ele>221.2</ele>
        <time>2020-06-24T17:33:30Z</time>
      </trkpt>
      <trkpt lat="50.07292" lon="4.26294">
        <ele>221.5</ele>
        <time>2020-06-24T17:33:31Z</time>
      </trkpt>
      <trkpt lat="50.07292" lon="4.263">
        <ele>221.7</ele>
        <time>2020-06-24T17:33:32Z</time>
      </trkpt>
      <trkpt lat="50.07293" lon="4.26306">
        <ele>222</ele>
        <time>2020-06-24T17:33:33Z</time>
      </trkpt>
      <trkpt lat="50.07294" lon="4.26312">
        <ele>222.3</ele>
        <time>2020-06-24T17:33:34Z</time>
      </trkpt>
      <trkpt lat="50.07295" lon="4.26319">
        <ele>222.5</ele>
        <time>2020-06-24T17:33:35Z</time>
      </trkpt>
      <trkpt lat="50.07296" lon="4.26323">
        <ele>222.7</ele>
        <time>2020-06-24T17:33:36Z</time>
      </trkpt>
      <trkpt lat="50.07297" lon="4.26328">
        <ele>222.9</ele>
        <time>2020-06-24T17:33:37Z</time>
      </trkpt>
      <trkpt lat="50.07297" lon="4.26333">
        <ele>223.1</ele>
        <time>2020-06-24T17:33:38Z</time>
      </trkpt>
      <trkpt lat="50.07298" lon="4.26339">
        <ele>223.4</ele>
        <time>2020-06-24T17:33:39Z</time>
      </trkpt>
      <trkpt lat="50.07298" lon="4.26342">
        <ele>223.5</ele>
        <time>2020-06-24T17:33:40Z</time>
      </trkpt>
      <trkpt lat="50.07299" lon="4.26347">
        <ele>223.7</ele>
        <time>2020-06-24T17:33:41Z</time>
      </trkpt>
      <trkpt lat="50.073" lon="4.26351">
        <ele>223.9</ele>
        <time>2020-06-24T17:33:42Z</time>
      </trkpt>
      <trkpt lat="50.073" lon="4.26356">
        <ele>224.1</ele>
        <time>2020-06-24T17:33:43Z</time>
      </trkpt>
      <trkpt lat="50.07301" lon="4.26361">
        <ele>224.3</ele>
        <time>2020-06-24T17:33:44Z</time>
      </trkpt>
      <trkpt lat="50.07301" lon="4.26366">
        <ele>224.5</ele>
        <time>2020-06-24T17:33:45Z</time>
      </trkpt>
      <trkpt lat="50.07301" lon="4.26371">
        <ele>224.8</ele>
        <time>2020-06-24T17:33:46Z</time>
      </trkpt>
      <trkpt lat="50.07301" lon="4.26376">
        <ele>225</ele>
        <time>2020-06-24T17:33:47Z</time>
      </trkpt>
      <trkpt lat="50.07301" lon="4.26382">
        <ele>225.2</ele>
        <time>2020-06-24T17:33:48Z</time>
      </trkpt>
      <trkpt lat="50.07301" lon="4.26386">
        <ele>225.4</ele>
        <time>2020-06-24T17:33:49Z</time>
      </trkpt>
      <trkpt lat="50.07301" lon="4.26392">
        <ele>225.6</ele>
        <time>2020-06-24T17:33:50Z</time>
      </trkpt>
      <trkpt lat="50.07302" lon="4.26398">
        <ele>225.9</ele>
        <time>2020-06-24T17:33:51Z</time>
      </trkpt>
      <trkpt lat="50.07303" lon="4.26402">
        <ele>226.1</ele>
        <time>2020-06-24T17:33:52Z</time>
      </trkpt>
      <trkpt lat="50.07304" lon="4.26408">
        <ele>226.3</ele>
        <time>2020-06-24T17:33:53Z</time>
      </trkpt>
      <trkpt lat="50.07305" lon="4.26413">
        <ele>226.5</ele>
        <time>2020-06-24T17:33:54Z</time>
      </trkpt>
      <trkpt lat="50.07306" lon="4.26418">
        <ele>226.7</ele>
        <time>2020-06-24T17:33:55Z</time>
      </trkpt>
      <trkpt lat="50.07306" lon="4.26423">
        <ele>226.9</ele>
        <time>2020-06-24T17:33:56Z</time>
      </trkpt>
      <trkpt lat="50.07306" lon="4.26429">
        <ele>227.1</ele>
        <time>2020-06-24T17:33:57Z</time>
      </trkpt>
      <trkpt lat="50.07305" lon="4.26436">
        <ele>227.4</ele>
        <time>2020-06-24T17:33:58Z</time>
      </trkpt>
      <trkpt lat="50.07306" lon="4.2644">
        <ele>227.5</ele>
        <time>2020-06-24T17:33:59Z</time>
      </trkpt>
      <trkpt lat="50.07306" lon="4.26445">
        <ele>227.7</ele>
        <time>2020-06-24T17:34:00Z</time>
      </trkpt>
      <trkpt lat="50.07306" lon="4.2645">
        <ele>227.9</ele>
        <time>2020-06-24T17:34:01Z</time>
      </trkpt>
      <trkpt lat="50.07307" lon="4.26456">
        <ele>228.2</ele>
        <time>2020-06-24T17:34:02Z</time>
      </trkpt>
      <trkpt lat="50.07306" lon="4.26462">
        <ele>228.4</ele>
        <time>2020-06-24T17:34:03Z</time>
      </trkpt>
      <trkpt lat="50.07307" lon="4.26468">
        <ele>228.6</ele>
        <time>2020-06-24T17:34:04Z</time>
      </trkpt>
      <trkpt lat="50.07308" lon="4.26473">
        <ele>228.8</ele>
        <time>2020-06-24T17:34:05Z</time>
      </trkpt>
      <trkpt lat="50.07309" lon="4.26479">
        <ele>229.1</ele>
        <time>2020-06-24T17:34:06Z</time>
      </trkpt>
      <trkpt lat="50.0731" lon="4.26484">
        <ele>229.3</ele>
        <time>2020-06-24T17:34:07Z</time>
      </trkpt>
      <trkpt lat="50.07311" lon="4.2649">
        <ele>229.6</ele>
        <time>2020-06-24T17:34:08Z</time>
      </trkpt>
      <trkpt lat="50.07312" lon="4.26496">
        <ele>229.8</ele>
        <time>2020-06-24T17:34:09Z</time>
      </trkpt>
      <trkpt lat="50.07312" lon="4.265">
        <ele>230</ele>
        <time>2020-06-24T17:34:10Z</time>
      </trkpt>
      <trkpt lat="50.07311" lon="4.26505">
        <ele>230.2</ele>
        <time>2020-06-24T17:34:11Z</time>
      </trkpt>
      <trkpt lat="50.07311" lon="4.2651">
        <ele>230.4</ele>
        <time>2020-06-24T17:34:12Z</time>
      </trkpt>
      <trkpt lat="50.07311" lon="4.26516">
        <ele>230.6</ele>
        <time>2020-06-24T17:34:13Z</time>
      </trkpt>
      <trkpt lat="50.0731" lon="4.26522">
        <ele>230.9</ele>
        <time>2020-06-24T17:34:14Z</time>
      </trkpt>
      <trkpt lat="50.0731" lon="4.26529">
        <ele>231.2</ele>
        <time>2020-06-24T17:34:15Z</time>
      </trkpt>
      <trkpt lat="50.0731" lon="4.26535">
        <ele>231.4</ele>
        <time>2020-06-24T17:34:16Z</time>
      </trkpt>
      <trkpt lat="50.0731" lon="4.26541">
        <ele>231.6</ele>
        <time>2020-06-24T17:34:17Z</time>
      </trkpt>
      <trkpt lat="50.0731" lon="4.26547">
        <ele>231.9</ele>
        <time>2020-06-24T17:34:18Z</time>
      </trkpt>
      <trkpt lat="50.0731" lon="4.26553">
        <ele>232.1</ele>
        <time>2020-06-24T17:34:19Z</time>
      </trkpt>
      <trkpt lat="50.07309" lon="4.26559">
        <ele>232.3</ele>
        <time>2020-06-24T17:34:20Z</time>
      </trkpt>
      <trkpt lat="50.07309" lon="4.26563">
        <ele>232.5</ele>
        <time>2020-06-24T17:34:21Z</time>
      </trkpt>
      <trkpt lat="50.07309" lon="4.26568">
        <ele>232.7</ele>
        <time>2020-06-24T17:34:22Z</time>
      </trkpt>
      <trkpt lat="50.07309" lon="4.26574">
        <ele>232.8</ele>
        <time>2020-06-24T17:34:23Z</time>
      </trkpt>
      <trkpt lat="50.07309" lon="4.26579">
        <ele>233</ele>
        <time>2020-06-24T17:34:24Z</time>
      </trkpt>
      <trkpt lat="50.07309" lon="4.26584">
        <ele>233.2</ele>
        <time>2020-06-24T17:34:25Z</time>
      </trkpt>
      <trkpt lat="50.07308" lon="4.26586">
        <ele>233.2</ele>
        <time>2020-06-24T17:34:26Z</time>
      </trkpt>
      <trkpt lat="50.07308" lon="4.26591">
        <ele>233.4</ele>
        <time>2020-06-24T17:34:27Z</time>
      </trkpt>
      <trkpt lat="50.07307" lon="4.26596">
        <ele>233.5</ele>
        <time>2020-06-24T17:34:28Z</time>
      </trkpt>
      <trkpt lat="50.07307" lon="4.26602">
        <ele>233.7</ele>
        <time>2020-06-24T17:34:29Z</time>
      </trkpt>
      <trkpt lat="50.07306" lon="4.26608">
        <ele>233.9</ele>
        <time>2020-06-24T17:34:30Z</time>
      </trkpt>
      <trkpt lat="50.07306" lon="4.26614">
        <ele>234.1</ele>
        <time>2020-06-24T17:34:31Z</time>
      </trkpt>
      <trkpt lat="50.07306" lon="4.2662">
        <ele>234.2</ele>
        <time>2020-06-24T17:34:32Z</time>
      </trkpt>
      <trkpt lat="50.07306" lon="4.26627">
        <ele>234.4</ele>
        <time>2020-06-24T17:34:33Z</time>
      </trkpt>
      <trkpt lat="50.07305" lon="4.26633">
        <ele>234.6</ele>
        <time>2020-06-24T17:34:34Z</time>
      </trkpt>
      <trkpt lat="50.07305" lon="4.26639">
        <ele>234.8</ele>
        <time>2020-06-24T17:34:35Z</time>
      </trkpt>
      <trkpt lat="50.07304" lon="4.26645">
        <ele>235</ele>
        <time>2020-06-24T17:34:36Z</time>
      </trkpt>
      <trkpt lat="50.07303" lon="4.26652">
        <ele>235.2</ele>
        <time>2020-06-24T17:34:37Z</time>
      </trkpt>
      <trkpt lat="50.07302" lon="4.2666">
        <ele>235.4</ele>
        <time>2020-06-24T17:34:38Z</time>
      </trkpt>
      <trkpt lat="50.07301" lon="4.26668">
        <ele>235.6</ele>
        <time>2020-06-24T17:34:39Z</time>
      </trkpt>
      <trkpt lat="50.07301" lon="4.26677">
        <ele>235.8</ele>
        <time>2020-06-24T17:34:40Z</time>
      </trkpt>
      <trkpt lat="50.073" lon="4.26685">
        <ele>236.1</ele>
        <time>2020-06-24T17:34:41Z</time>
      </trkpt>
      <trkpt lat="50.07299" lon="4.26693">
        <ele>236.3</ele>
        <time>2020-06-24T17:34:42Z</time>
      </trkpt>
      <trkpt lat="50.07298" lon="4.26701">
        <ele>236.5</ele>
        <time>2020-06-24T17:34:43Z</time>
      </trkpt>
      <trkpt lat="50.07298" lon="4.26708">
        <ele>236.7</ele>
        <time>2020-06-24T17:34:44Z</time>
      </trkpt>
      <trkpt lat="50.07298" lon="4.26714">
        <ele>236.8</ele>
        <time>2020-06-24T17:34:45Z</time>
      </trkpt>
      <trkpt lat="50.07297" lon="4.26722">
        <ele>237</ele>
        <time>2020-06-24T17:34:46Z</time>
      </trkpt>
      <trkpt lat="50.07297" lon="4.26728">
        <ele>237.1</ele>
        <time>2020-06-24T17:34:47Z</time>
      </trkpt>
      <trkpt lat="50.07297" lon="4.26734">
        <ele>237.2</ele>
        <time>2020-06-24T17:34:48Z</time>
      </trkpt>
      <trkpt lat="50.07296" lon="4.2674">
        <ele>237.4</ele>
        <time>2020-06-24T17:34:49Z</time>
      </trkpt>
      <trkpt lat="50.07296" lon="4.26748">
        <ele>237.5</ele>
        <time>2020-06-24T17:34:50Z</time>
      </trkpt>
      <trkpt lat="50.07296" lon="4.26755">
        <ele>237.7</ele>
        <time>2020-06-24T17:34:51Z</time>
      </trkpt>
      <trkpt lat="50.07295" lon="4.26762">
        <ele>237.8</ele>
        <time>2020-06-24T17:34:52Z</time>
      </trkpt>
      <trkpt lat="50.07295" lon="4.26768">
        <ele>237.9</ele>
        <time>2020-06-24T17:34:53Z</time>
      </trkpt>
      <trkpt lat="50.07294" lon="4.26775">
        <ele>238</ele>
        <time>2020-06-24T17:34:54Z</time>
      </trkpt>
      <trkpt lat="50.07294" lon="4.26782">
        <ele>238.2</ele>
        <time>2020-06-24T17:34:55Z</time>
      </trkpt>
      <trkpt lat="50.07293" lon="4.2679">
        <ele>238.3</ele>
        <time>2020-06-24T17:34:56Z</time>
      </trkpt>
      <trkpt lat="50.07292" lon="4.26797">
        <ele>238.5</ele>
        <time>2020-06-24T17:34:57Z</time>
      </trkpt>
      <trkpt lat="50.07291" lon="4.26803">
        <ele>238.6</ele>
        <time>2020-06-24T17:34:58Z</time>
      </trkpt>
      <trkpt lat="50.07291" lon="4.2681">
        <ele>238.7</ele>
        <time>2020-06-24T17:34:59Z</time>
      </trkpt>
      <trkpt lat="50.0729" lon="4.26817">
        <ele>238.9</ele>
        <time>2020-06-24T17:35:00Z</time>
      </trkpt>
      <trkpt lat="50.0729" lon="4.26824">
        <ele>239</ele>
        <time>2020-06-24T17:35:01Z</time>
      </trkpt>
      <trkpt lat="50.07289" lon="4.26831">
        <ele>239.1</ele>
        <time>2020-06-24T17:35:02Z</time>
      </trkpt>
      <trkpt lat="50.07289" lon="4.26838">
        <ele>239.3</ele>
        <time>2020-06-24T17:35:03Z</time>
      </trkpt>
      <trkpt lat="50.07288" lon="4.26845">
        <ele>239.4</ele>
        <time>2020-06-24T17:35:04Z</time>
      </trkpt>
      <trkpt lat="50.07288" lon="4.26853">
        <ele>239.5</ele>
        <time>2020-06-24T17:35:05Z</time>
      </trkpt>
      <trkpt lat="50.07288" lon="4.26862">
        <ele>239.7</ele>
        <time>2020-06-24T17:35:06Z</time>
      </trkpt>
      <trkpt lat="50.07288" lon="4.26871">
        <ele>239.9</ele>
        <time>2020-06-24T17:35:07Z</time>
      </trkpt>
      <trkpt lat="50.07288" lon="4.26879">
        <ele>240</ele>
        <time>2020-06-24T17:35:08Z</time>
      </trkpt>
      <trkpt lat="50.07288" lon="4.26887">
        <ele>240.2</ele>
        <time>2020-06-24T17:35:09Z</time>
      </trkpt>
      <trkpt lat="50.07287" lon="4.26893">
        <ele>240.3</ele>
        <time>2020-06-24T17:35:10Z</time>
      </trkpt>
      <trkpt lat="50.07287" lon="4.269">
        <ele>240.4</ele>
        <time>2020-06-24T17:35:11Z</time>
      </trkpt>
      <trkpt lat="50.07287" lon="4.26908">
        <ele>240.4</ele>
        <time>2020-06-24T17:35:12Z</time>
      </trkpt>
      <trkpt lat="50.07286" lon="4.26915">
        <ele>240.5</ele>
        <time>2020-06-24T17:35:13Z</time>
      </trkpt>
      <trkpt lat="50.07285" lon="4.26922">
        <ele>240.6</ele>
        <time>2020-06-24T17:35:14Z</time>
      </trkpt>
      <trkpt lat="50.07285" lon="4.26929">
        <ele>240.7</ele>
        <time>2020-06-24T17:35:15Z</time>
      </trkpt>
      <trkpt lat="50.07284" lon="4.26937">
        <ele>240.8</ele>
        <time>2020-06-24T17:35:16Z</time>
      </trkpt>
      <trkpt lat="50.07284" lon="4.26944">
        <ele>240.9</ele>
        <time>2020-06-24T17:35:17Z</time>
      </trkpt>
      <trkpt lat="50.07284" lon="4.26951">
        <ele>241</ele>
        <time>2020-06-24T17:35:18Z</time>
      </trkpt>
      <trkpt lat="50.07283" lon="4.26958">
        <ele>241.1</ele>
        <time>2020-06-24T17:35:19Z</time>
      </trkpt>
      <trkpt lat="50.07282" lon="4.26966">
        <ele>241.2</ele>
        <time>2020-06-24T17:35:20Z</time>
      </trkpt>
      <trkpt lat="50.07282" lon="4.26974">
        <ele>241.3</ele>
        <time>2020-06-24T17:35:21Z</time>
      </trkpt>
      <trkpt lat="50.07281" lon="4.26981">
        <ele>241.3</ele>
        <time>2020-06-24T17:35:22Z</time>
      </trkpt>
      <trkpt lat="50.0728" lon="4.26988">
        <ele>241.4</ele>
        <time>2020-06-24T17:35:23Z</time>
      </trkpt>
      <trkpt lat="50.0728" lon="4.26996">
        <ele>241.5</ele>
        <time>2020-06-24T17:35:24Z</time>
      </trkpt>
      <trkpt lat="50.07279" lon="4.27004">
        <ele>241.6</ele>
        <time>2020-06-24T17:35:25Z</time>
      </trkpt>
      <trkpt lat="50.07279" lon="4.27011">
        <ele>241.7</ele>
        <time>2020-06-24T17:35:26Z</time>
      </trkpt>
      <trkpt lat="50.07279" lon="4.27019">
        <ele>241.9</ele>
        <time>2020-06-24T17:35:27Z</time>
      </trkpt>
      <trkpt lat="50.07279" lon="4.27027">
        <ele>242</ele>
        <time>2020-06-24T17:35:28Z</time>
      </trkpt>
      <trkpt lat="50.07279" lon="4.27034">
        <ele>242.1</ele>
        <time>2020-06-24T17:35:29Z</time>
      </trkpt>
      <trkpt lat="50.07279" lon="4.27042">
        <ele>242.2</ele>
        <time>2020-06-24T17:35:30Z</time>
      </trkpt>
      <trkpt lat="50.07279" lon="4.2705">
        <ele>242.3</ele>
        <time>2020-06-24T17:35:31Z</time>
      </trkpt>
      <trkpt lat="50.07278" lon="4.27058">
        <ele>242.4</ele>
        <time>2020-06-24T17:35:32Z</time>
      </trkpt>
      <trkpt lat="50.07277" lon="4.27065">
        <ele>242.5</ele>
        <time>2020-06-24T17:35:33Z</time>
      </trkpt>
      <trkpt lat="50.07277" lon="4.27073">
        <ele>242.5</ele>
        <time>2020-06-24T17:35:34Z</time>
      </trkpt>
      <trkpt lat="50.07276" lon="4.27081">
        <ele>242.7</ele>
        <time>2020-06-24T17:35:35Z</time>
      </trkpt>
      <trkpt lat="50.07276" lon="4.27088">
        <ele>242.8</ele>
        <time>2020-06-24T17:35:36Z</time>
      </trkpt>
      <trkpt lat="50.07275" lon="4.27095">
        <ele>242.9</ele>
        <time>2020-06-24T17:35:37Z</time>
      </trkpt>
      <trkpt lat="50.07275" lon="4.27102">
        <ele>243</ele>
        <time>2020-06-24T17:35:38Z</time>
      </trkpt>
      <trkpt lat="50.07274" lon="4.2711">
        <ele>243.1</ele>
        <time>2020-06-24T17:35:39Z</time>
      </trkpt>
      <trkpt lat="50.07274" lon="4.27117">
        <ele>243.2</ele>
        <time>2020-06-24T17:35:40Z</time>
      </trkpt>
      <trkpt lat="50.07274" lon="4.27126">
        <ele>243.3</ele>
        <time>2020-06-24T17:35:41Z</time>
      </trkpt>
      <trkpt lat="50.07273" lon="4.27135">
        <ele>243.4</ele>
        <time>2020-06-24T17:35:42Z</time>
      </trkpt>
      <trkpt lat="50.07272" lon="4.27145">
        <ele>243.4</ele>
        <time>2020-06-24T17:35:43Z</time>
      </trkpt>
      <trkpt lat="50.07272" lon="4.27154">
        <ele>243.4</ele>
        <time>2020-06-24T17:35:44Z</time>
      </trkpt>
      <trkpt lat="50.07271" lon="4.27164">
        <ele>243.4</ele>
        <time>2020-06-24T17:35:45Z</time>
      </trkpt>
      <trkpt lat="50.07271" lon="4.27172">
        <ele>243.5</ele>
        <time>2020-06-24T17:35:46Z</time>
      </trkpt>
      <trkpt lat="50.0727" lon="4.2718">
        <ele>243.5</ele>
        <time>2020-06-24T17:35:47Z</time>
      </trkpt>
      <trkpt lat="50.0727" lon="4.27187">
        <ele>243.6</ele>
        <time>2020-06-24T17:35:48Z</time>
      </trkpt>
      <trkpt lat="50.07269" lon="4.27194">
        <ele>243.6</ele>
        <time>2020-06-24T17:35:49Z</time>
      </trkpt>
      <trkpt lat="50.07268" lon="4.27201">
        <ele>243.7</ele>
        <time>2020-06-24T17:35:50Z</time>
      </trkpt>
      <trkpt lat="50.07267" lon="4.27208">
        <ele>243.7</ele>
        <time>2020-06-24T17:35:51Z</time>
      </trkpt>
      <trkpt lat="50.07266" lon="4.27216">
        <ele>243.8</ele>
        <time>2020-06-24T17:35:52Z</time>
      </trkpt>
      <trkpt lat="50.07266" lon="4.27224">
        <ele>243.9</ele>
        <time>2020-06-24T17:35:53Z</time>
      </trkpt>
      <trkpt lat="50.07266" lon="4.27231">
        <ele>243.9</ele>
        <time>2020-06-24T17:35:54Z</time>
      </trkpt>
      <trkpt lat="50.07266" lon="4.2724">
        <ele>244</ele>
        <time>2020-06-24T17:35:55Z</time>
      </trkpt>
      <trkpt lat="50.07266" lon="4.27249">
        <ele>244.1</ele>
        <time>2020-06-24T17:35:56Z</time>
      </trkpt>
      <trkpt lat="50.07267" lon="4.27257">
        <ele>244.2</ele>
        <time>2020-06-24T17:35:57Z</time>
      </trkpt>
      <trkpt lat="50.07267" lon="4.27265">
        <ele>244.3</ele>
        <time>2020-06-24T17:35:58Z</time>
      </trkpt>
      <trkpt lat="50.07267" lon="4.27273">
        <ele>244.4</ele>
        <time>2020-06-24T17:35:59Z</time>
      </trkpt>
      <trkpt lat="50.07267" lon="4.27281">
        <ele>244.4</ele>
        <time>2020-06-24T17:36:00Z</time>
      </trkpt>
      <trkpt lat="50.07266" lon="4.27289">
        <ele>244.5</ele>
        <time>2020-06-24T17:36:01Z</time>
      </trkpt>
      <trkpt lat="50.07266" lon="4.27296">
        <ele>244.5</ele>
        <time>2020-06-24T17:36:02Z</time>
      </trkpt>
      <trkpt lat="50.07266" lon="4.27304">
        <ele>244.6</ele>
        <time>2020-06-24T17:36:03Z</time>
      </trkpt>
      <trkpt lat="50.07266" lon="4.27312">
        <ele>244.6</ele>
        <time>2020-06-24T17:36:04Z</time>
      </trkpt>
      <trkpt lat="50.07265" lon="4.2732">
        <ele>244.7</ele>
        <time>2020-06-24T17:36:05Z</time>
      </trkpt>
      <trkpt lat="50.07266" lon="4.27328">
        <ele>244.7</ele>
        <time>2020-06-24T17:36:06Z</time>
      </trkpt>
      <trkpt lat="50.07266" lon="4.27335">
        <ele>244.8</ele>
        <time>2020-06-24T17:36:07Z</time>
      </trkpt>
      <trkpt lat="50.07267" lon="4.27343">
        <ele>244.8</ele>
        <time>2020-06-24T17:36:08Z</time>
      </trkpt>
      <trkpt lat="50.07267" lon="4.27351">
        <ele>244.8</ele>
        <time>2020-06-24T17:36:09Z</time>
      </trkpt>
      <trkpt lat="50.07267" lon="4.27359">
        <ele>244.7</ele>
        <time>2020-06-24T17:36:10Z</time>
      </trkpt>
      <trkpt lat="50.07269" lon="4.27367">
        <ele>244.7</ele>
        <time>2020-06-24T17:36:11Z</time>
      </trkpt>
      <trkpt lat="50.07269" lon="4.27376">
        <ele>244.6</ele>
        <time>2020-06-24T17:36:12Z</time>
      </trkpt>
      <trkpt lat="50.07268" lon="4.27385">
        <ele>244.5</ele>
        <time>2020-06-24T17:36:13Z</time>
      </trkpt>
      <trkpt lat="50.07268" lon="4.27394">
        <ele>244.4</ele>
        <time>2020-06-24T17:36:14Z</time>
      </trkpt>
      <trkpt lat="50.07268" lon="4.27402">
        <ele>244.3</ele>
        <time>2020-06-24T17:36:15Z</time>
      </trkpt>
      <trkpt lat="50.07267" lon="4.2741">
        <ele>244.1</ele>
        <time>2020-06-24T17:36:16Z</time>
      </trkpt>
      <trkpt lat="50.07267" lon="4.27418">
        <ele>244</ele>
        <time>2020-06-24T17:36:17Z</time>
      </trkpt>
      <trkpt lat="50.07267" lon="4.27427">
        <ele>243.9</ele>
        <time>2020-06-24T17:36:18Z</time>
      </trkpt>
      <trkpt lat="50.07268" lon="4.27436">
        <ele>243.8</ele>
        <time>2020-06-24T17:36:19Z</time>
      </trkpt>
      <trkpt lat="50.07268" lon="4.27445">
        <ele>243.6</ele>
        <time>2020-06-24T17:36:20Z</time>
      </trkpt>
      <trkpt lat="50.07268" lon="4.27455">
        <ele>243.5</ele>
        <time>2020-06-24T17:36:21Z</time>
      </trkpt>
      <trkpt lat="50.07268" lon="4.27464">
        <ele>243.3</ele>
        <time>2020-06-24T17:36:22Z</time>
      </trkpt>
      <trkpt lat="50.07268" lon="4.27471">
        <ele>243.2</ele>
        <time>2020-06-24T17:36:23Z</time>
      </trkpt>
      <trkpt lat="50.07268" lon="4.2748">
        <ele>243.1</ele>
        <time>2020-06-24T17:36:24Z</time>
      </trkpt>
      <trkpt lat="50.07268" lon="4.27489">
        <ele>243</ele>
        <time>2020-06-24T17:36:25Z</time>
      </trkpt>
      <trkpt lat="50.07268" lon="4.27498">
        <ele>243</ele>
        <time>2020-06-24T17:36:26Z</time>
      </trkpt>
      <trkpt lat="50.07269" lon="4.27507">
        <ele>243</ele>
        <time>2020-06-24T17:36:27Z</time>
      </trkpt>
      <trkpt lat="50.07269" lon="4.27517">
        <ele>243</ele>
        <time>2020-06-24T17:36:28Z</time>
      </trkpt>
      <trkpt lat="50.07269" lon="4.27528">
        <ele>243</ele>
        <time>2020-06-24T17:36:29Z</time>
      </trkpt>
      <trkpt lat="50.0727" lon="4.27538">
        <ele>243.1</ele>
        <time>2020-06-24T17:36:30Z</time>
      </trkpt>
      <trkpt lat="50.0727" lon="4.27548">
        <ele>243.1</ele>
        <time>2020-06-24T17:36:31Z</time>
      </trkpt>
      <trkpt lat="50.0727" lon="4.27559">
        <ele>243.2</ele>
        <time>2020-06-24T17:36:32Z</time>
      </trkpt>
      <trkpt lat="50.07271" lon="4.27569">
        <ele>243.2</ele>
        <time>2020-06-24T17:36:33Z</time>
      </trkpt>
      <trkpt lat="50.07272" lon="4.27579">
        <ele>243.4</ele>
        <time>2020-06-24T17:36:34Z</time>
      </trkpt>
      <trkpt lat="50.07272" lon="4.2759">
        <ele>243.5</ele>
        <time>2020-06-24T17:36:35Z</time>
      </trkpt>
      <trkpt lat="50.07274" lon="4.27602">
        <ele>243.7</ele>
        <time>2020-06-24T17:36:36Z</time>
      </trkpt>
      <trkpt lat="50.07274" lon="4.27614">
        <ele>244</ele>
        <time>2020-06-24T17:36:37Z</time>
      </trkpt>
      <trkpt lat="50.07274" lon="4.27625">
        <ele>244.2</ele>
        <time>2020-06-24T17:36:38Z</time>
      </trkpt>
      <trkpt lat="50.07274" lon="4.27636">
        <ele>244.4</ele>
        <time>2020-06-24T17:36:39Z</time>
      </trkpt>
      <trkpt lat="50.07274" lon="4.27645">
        <ele>244.6</ele>
        <time>2020-06-24T17:36:40Z</time>
      </trkpt>
      <trkpt lat="50.07274" lon="4.27655">
        <ele>244.8</ele>
        <time>2020-06-24T17:36:41Z</time>
      </trkpt>
      <trkpt lat="50.07273" lon="4.27663">
        <ele>245</ele>
        <time>2020-06-24T17:36:42Z</time>
      </trkpt>
      <trkpt lat="50.07274" lon="4.27672">
        <ele>245.2</ele>
        <time>2020-06-24T17:36:43Z</time>
      </trkpt>
      <trkpt lat="50.07276" lon="4.27681">
        <ele>245.5</ele>
        <time>2020-06-24T17:36:44Z</time>
      </trkpt>
      <trkpt lat="50.07276" lon="4.2769">
        <ele>245.7</ele>
        <time>2020-06-24T17:36:45Z</time>
      </trkpt>
      <trkpt lat="50.07277" lon="4.27697">
        <ele>246</ele>
        <time>2020-06-24T17:36:46Z</time>
      </trkpt>
      <trkpt lat="50.07277" lon="4.27702">
        <ele>246.1</ele>
        <time>2020-06-24T17:36:47Z</time>
      </trkpt>
      <trkpt lat="50.07278" lon="4.27707">
        <ele>246.1</ele>
        <time>2020-06-24T17:36:48Z</time>
      </trkpt>
      <trkpt lat="50.0728" lon="4.27713">
        <ele>246.2</ele>
        <time>2020-06-24T17:36:49Z</time>
      </trkpt>
      <trkpt lat="50.07282" lon="4.27718">
        <ele>246.2</ele>
        <time>2020-06-24T17:36:50Z</time>
      </trkpt>
      <trkpt lat="50.07285" lon="4.27722">
        <ele>246.5</ele>
        <time>2020-06-24T17:36:51Z</time>
      </trkpt>
      <trkpt lat="50.07288" lon="4.27726">
        <ele>246.7</ele>
        <time>2020-06-24T17:36:52Z</time>
      </trkpt>
      <trkpt lat="50.07291" lon="4.2773">
        <ele>246.8</ele>
        <time>2020-06-24T17:36:53Z</time>
      </trkpt>
      <trkpt lat="50.07294" lon="4.27735">
        <ele>247</ele>
        <time>2020-06-24T17:36:54Z</time>
      </trkpt>
      <trkpt lat="50.07297" lon="4.27739">
        <ele>247.2</ele>
        <time>2020-06-24T17:36:55Z</time>
      </trkpt>
      <trkpt lat="50.073" lon="4.27742">
        <ele>247.4</ele>
        <time>2020-06-24T17:36:56Z</time>
      </trkpt>
      <trkpt lat="50.07302" lon="4.27746">
        <ele>247.5</ele>
        <time>2020-06-24T17:36:57Z</time>
      </trkpt>
      <trkpt lat="50.07304" lon="4.27753">
        <ele>247.7</ele>
        <time>2020-06-24T17:36:58Z</time>
      </trkpt>
      <trkpt lat="50.07306" lon="4.2776">
        <ele>247.9</ele>
        <time>2020-06-24T17:36:59Z</time>
      </trkpt>
      <trkpt lat="50.07307" lon="4.27766">
        <ele>248.1</ele>
        <time>2020-06-24T17:37:00Z</time>
      </trkpt>
      <trkpt lat="50.07309" lon="4.27772">
        <ele>248.2</ele>
        <time>2020-06-24T17:37:01Z</time>
      </trkpt>
      <trkpt lat="50.07309" lon="4.27778">
        <ele>248.3</ele>
        <time>2020-06-24T17:37:02Z</time>
      </trkpt>
      <trkpt lat="50.0731" lon="4.27784">
        <ele>248.5</ele>
        <time>2020-06-24T17:37:03Z</time>
      </trkpt>
      <trkpt lat="50.07311" lon="4.27792">
        <ele>248.6</ele>
        <time>2020-06-24T17:37:04Z</time>
      </trkpt>
      <trkpt lat="50.07311" lon="4.278">
        <ele>248.7</ele>
        <time>2020-06-24T17:37:05Z</time>
      </trkpt>
      <trkpt lat="50.0731" lon="4.27807">
        <ele>248.8</ele>
        <time>2020-06-24T17:37:06Z</time>
      </trkpt>
      <trkpt lat="50.0731" lon="4.27814">
        <ele>248.9</ele>
        <time>2020-06-24T17:37:07Z</time>
      </trkpt>
      <trkpt lat="50.07309" lon="4.27819">
        <ele>249</ele>
        <time>2020-06-24T17:37:08Z</time>
      </trkpt>
      <trkpt lat="50.07308" lon="4.27825">
        <ele>249.1</ele>
        <time>2020-06-24T17:37:09Z</time>
      </trkpt>
      <trkpt lat="50.07306" lon="4.27833">
        <ele>249.2</ele>
        <time>2020-06-24T17:37:10Z</time>
      </trkpt>
      <trkpt lat="50.07304" lon="4.2784">
        <ele>249.3</ele>
        <time>2020-06-24T17:37:11Z</time>
      </trkpt>
      <trkpt lat="50.07303" lon="4.27846">
        <ele>249.4</ele>
        <time>2020-06-24T17:37:12Z</time>
      </trkpt>
      <trkpt lat="50.07302" lon="4.27853">
        <ele>249.3</ele>
        <time>2020-06-24T17:37:13Z</time>
      </trkpt>
      <trkpt lat="50.07302" lon="4.2786">
        <ele>249.3</ele>
        <time>2020-06-24T17:37:14Z</time>
      </trkpt>
      <trkpt lat="50.07302" lon="4.2787">
        <ele>249.2</ele>
        <time>2020-06-24T17:37:15Z</time>
      </trkpt>
      <trkpt lat="50.073" lon="4.27882">
        <ele>249.1</ele>
        <time>2020-06-24T17:37:16Z</time>
      </trkpt>
      <trkpt lat="50.07299" lon="4.27892">
        <ele>249</ele>
        <time>2020-06-24T17:37:17Z</time>
      </trkpt>
      <trkpt lat="50.07298" lon="4.27899">
        <ele>249</ele>
        <time>2020-06-24T17:37:18Z</time>
      </trkpt>
      <trkpt lat="50.07298" lon="4.27907">
        <ele>248.9</ele>
        <time>2020-06-24T17:37:19Z</time>
      </trkpt>
      <trkpt lat="50.07297" lon="4.27916">
        <ele>248.9</ele>
        <time>2020-06-24T17:37:20Z</time>
      </trkpt>
      <trkpt lat="50.07296" lon="4.27926">
        <ele>248.9</ele>
        <time>2020-06-24T17:37:21Z</time>
      </trkpt>
      <trkpt lat="50.07296" lon="4.27935">
        <ele>248.9</ele>
        <time>2020-06-24T17:37:22Z</time>
      </trkpt>
      <trkpt lat="50.07294" lon="4.27943">
        <ele>248.9</ele>
        <time>2020-06-24T17:37:23Z</time>
      </trkpt>
      <trkpt lat="50.07293" lon="4.27952">
        <ele>248.8</ele>
        <time>2020-06-24T17:37:24Z</time>
      </trkpt>
      <trkpt lat="50.07291" lon="4.27963">
        <ele>248.8</ele>
        <time>2020-06-24T17:37:25Z</time>
      </trkpt>
      <trkpt lat="50.07291" lon="4.27973">
        <ele>249</ele>
        <time>2020-06-24T17:37:26Z</time>
      </trkpt>
      <trkpt lat="50.0729" lon="4.27983">
        <ele>249.1</ele>
        <time>2020-06-24T17:37:27Z</time>
      </trkpt>
      <trkpt lat="50.07289" lon="4.27993">
        <ele>249.3</ele>
        <time>2020-06-24T17:37:28Z</time>
      </trkpt>
      <trkpt lat="50.07288" lon="4.28003">
        <ele>249.5</ele>
        <time>2020-06-24T17:37:29Z</time>
      </trkpt>
      <trkpt lat="50.07287" lon="4.28013">
        <ele>249.7</ele>
        <time>2020-06-24T17:37:30Z</time>
      </trkpt>
      <trkpt lat="50.07286" lon="4.28022">
        <ele>249.9</ele>
        <time>2020-06-24T17:37:31Z</time>
      </trkpt>
      <trkpt lat="50.07286" lon="4.28031">
        <ele>249.3</ele>
        <time>2020-06-24T17:37:32Z</time>
      </trkpt>
      <trkpt lat="50.07286" lon="4.28041">
        <ele>249.3</ele>
        <time>2020-06-24T17:37:33Z</time>
      </trkpt>
      <trkpt lat="50.07286" lon="4.28049">
        <ele>249.2</ele>
        <time>2020-06-24T17:37:34Z</time>
      </trkpt>
      <trkpt lat="50.07286" lon="4.28057">
        <ele>249.2</ele>
        <time>2020-06-24T17:37:35Z</time>
      </trkpt>
      <trkpt lat="50.07286" lon="4.28065">
        <ele>249.2</ele>
        <time>2020-06-24T17:37:36Z</time>
      </trkpt>
      <trkpt lat="50.07286" lon="4.28073">
        <ele>249.2</ele>
        <time>2020-06-24T17:37:37Z</time>
      </trkpt>
      <trkpt lat="50.07286" lon="4.28082">
        <ele>249.2</ele>
        <time>2020-06-24T17:37:38Z</time>
      </trkpt>
      <trkpt lat="50.07286" lon="4.2809">
        <ele>249.2</ele>
        <time>2020-06-24T17:37:39Z</time>
      </trkpt>
      <trkpt lat="50.07287" lon="4.28097">
        <ele>249.3</ele>
        <time>2020-06-24T17:37:40Z</time>
      </trkpt>
      <trkpt lat="50.07288" lon="4.28106">
        <ele>249.3</ele>
        <time>2020-06-24T17:37:41Z</time>
      </trkpt>
      <trkpt lat="50.07289" lon="4.28114">
        <ele>249.3</ele>
        <time>2020-06-24T17:37:42Z</time>
      </trkpt>
      <trkpt lat="50.07289" lon="4.28122">
        <ele>249.3</ele>
        <time>2020-06-24T17:37:43Z</time>
      </trkpt>
      <trkpt lat="50.0729" lon="4.2813">
        <ele>249.3</ele>
        <time>2020-06-24T17:37:44Z</time>
      </trkpt>
      <trkpt lat="50.07291" lon="4.28137">
        <ele>249.4</ele>
        <time>2020-06-24T17:37:45Z</time>
      </trkpt>
      <trkpt lat="50.07292" lon="4.28143">
        <ele>249.4</ele>
        <time>2020-06-24T17:37:46Z</time>
      </trkpt>
      <trkpt lat="50.07293" lon="4.28152">
        <ele>249.4</ele>
        <time>2020-06-24T17:37:47Z</time>
      </trkpt>
      <trkpt lat="50.07293" lon="4.2816">
        <ele>249.4</ele>
        <time>2020-06-24T17:37:48Z</time>
      </trkpt>
      <trkpt lat="50.07293" lon="4.28167">
        <ele>249.5</ele>
        <time>2020-06-24T17:37:49Z</time>
      </trkpt>
      <trkpt lat="50.07293" lon="4.28175">
        <ele>249.5</ele>
        <time>2020-06-24T17:37:50Z</time>
      </trkpt>
      <trkpt lat="50.07293" lon="4.28182">
        <ele>249.6</ele>
        <time>2020-06-24T17:37:51Z</time>
      </trkpt>
      <trkpt lat="50.07293" lon="4.28191">
        <ele>249.6</ele>
        <time>2020-06-24T17:37:52Z</time>
      </trkpt>
      <trkpt lat="50.07292" lon="4.28198">
        <ele>249.6</ele>
        <time>2020-06-24T17:37:53Z</time>
      </trkpt>
      <trkpt lat="50.07291" lon="4.28205">
        <ele>249.7</ele>
        <time>2020-06-24T17:37:54Z</time>
      </trkpt>
      <trkpt lat="50.0729" lon="4.28213">
        <ele>249.7</ele>
        <time>2020-06-24T17:37:55Z</time>
      </trkpt>
      <trkpt lat="50.07289" lon="4.28222">
        <ele>249.8</ele>
        <time>2020-06-24T17:37:56Z</time>
      </trkpt>
      <trkpt lat="50.07286" lon="4.2823">
        <ele>249.9</ele>
        <time>2020-06-24T17:37:57Z</time>
      </trkpt>
      <trkpt lat="50.07283" lon="4.28236">
        <ele>249.9</ele>
        <time>2020-06-24T17:37:58Z</time>
      </trkpt>
      <trkpt lat="50.0728" lon="4.28242">
        <ele>250</ele>
        <time>2020-06-24T17:37:59Z</time>
      </trkpt>
      <trkpt lat="50.07276" lon="4.28249">
        <ele>250</ele>
        <time>2020-06-24T17:38:00Z</time>
      </trkpt>
      <trkpt lat="50.07272" lon="4.28256">
        <ele>250.1</ele>
        <time>2020-06-24T17:38:01Z</time>
      </trkpt>
      <trkpt lat="50.07268" lon="4.28262">
        <ele>250.2</ele>
        <time>2020-06-24T17:38:02Z</time>
      </trkpt>
      <trkpt lat="50.07263" lon="4.28268">
        <ele>250.3</ele>
        <time>2020-06-24T17:38:03Z</time>
      </trkpt>
      <trkpt lat="50.07259" lon="4.28273">
        <ele>250.4</ele>
        <time>2020-06-24T17:38:04Z</time>
      </trkpt>
      <trkpt lat="50.07255" lon="4.28277">
        <ele>250.5</ele>
        <time>2020-06-24T17:38:05Z</time>
      </trkpt>
      <trkpt lat="50.0725" lon="4.28282">
        <ele>250.5</ele>
        <time>2020-06-24T17:38:06Z</time>
      </trkpt>
      <trkpt lat="50.07245" lon="4.28289">
        <ele>251</ele>
        <time>2020-06-24T17:38:07Z</time>
      </trkpt>
      <trkpt lat="50.0724" lon="4.28294">
        <ele>251.3</ele>
        <time>2020-06-24T17:38:08Z</time>
      </trkpt>
      <trkpt lat="50.07236" lon="4.283">
        <ele>251.6</ele>
        <time>2020-06-24T17:38:09Z</time>
      </trkpt>
      <trkpt lat="50.07233" lon="4.28306">
        <ele>251.9</ele>
        <time>2020-06-24T17:38:10Z</time>
      </trkpt>
      <trkpt lat="50.0723" lon="4.28311">
        <ele>252.1</ele>
        <time>2020-06-24T17:38:11Z</time>
      </trkpt>
      <trkpt lat="50.07227" lon="4.28318">
        <ele>252.5</ele>
        <time>2020-06-24T17:38:12Z</time>
      </trkpt>
      <trkpt lat="50.07225" lon="4.28323">
        <ele>252.6</ele>
        <time>2020-06-24T17:38:13Z</time>
      </trkpt>
      <trkpt lat="50.07223" lon="4.28329">
        <ele>252.7</ele>
        <time>2020-06-24T17:38:14Z</time>
      </trkpt>
      <trkpt lat="50.07221" lon="4.28333">
        <ele>252.9</ele>
        <time>2020-06-24T17:38:15Z</time>
      </trkpt>
      <trkpt lat="50.0722" lon="4.28339">
        <ele>253</ele>
        <time>2020-06-24T17:38:16Z</time>
      </trkpt>
      <trkpt lat="50.07218" lon="4.28345">
        <ele>253.2</ele>
        <time>2020-06-24T17:38:17Z</time>
      </trkpt>
      <trkpt lat="50.07216" lon="4.28352">
        <ele>253.4</ele>
        <time>2020-06-24T17:38:18Z</time>
      </trkpt>
      <trkpt lat="50.07215" lon="4.28359">
        <ele>253.6</ele>
        <time>2020-06-24T17:38:19Z</time>
      </trkpt>
      <trkpt lat="50.07214" lon="4.28366">
        <ele>253.8</ele>
        <time>2020-06-24T17:38:20Z</time>
      </trkpt>
      <trkpt lat="50.07212" lon="4.28373">
        <ele>254</ele>
        <time>2020-06-24T17:38:21Z</time>
      </trkpt>
      <trkpt lat="50.0721" lon="4.2838">
        <ele>254.2</ele>
        <time>2020-06-24T17:38:22Z</time>
      </trkpt>
      <trkpt lat="50.07209" lon="4.28387">
        <ele>254.3</ele>
        <time>2020-06-24T17:38:23Z</time>
      </trkpt>
      <trkpt lat="50.07207" lon="4.28394">
        <ele>254.5</ele>
        <time>2020-06-24T17:38:24Z</time>
      </trkpt>
      <trkpt lat="50.07206" lon="4.284">
        <ele>254.6</ele>
        <time>2020-06-24T17:38:25Z</time>
      </trkpt>
      <trkpt lat="50.07205" lon="4.28407">
        <ele>254.8</ele>
        <time>2020-06-24T17:38:26Z</time>
      </trkpt>
      <trkpt lat="50.07203" lon="4.28414">
        <ele>254.9</ele>
        <time>2020-06-24T17:38:27Z</time>
      </trkpt>
      <trkpt lat="50.07201" lon="4.2842">
        <ele>255</ele>
        <time>2020-06-24T17:38:28Z</time>
      </trkpt>
      <trkpt lat="50.07199" lon="4.28426">
        <ele>255.2</ele>
        <time>2020-06-24T17:38:29Z</time>
      </trkpt>
      <trkpt lat="50.07197" lon="4.28434">
        <ele>255.3</ele>
        <time>2020-06-24T17:38:30Z</time>
      </trkpt>
      <trkpt lat="50.07196" lon="4.28441">
        <ele>255.4</ele>
        <time>2020-06-24T17:38:31Z</time>
      </trkpt>
      <trkpt lat="50.07195" lon="4.28449">
        <ele>255.5</ele>
        <time>2020-06-24T17:38:32Z</time>
      </trkpt>
      <trkpt lat="50.07193" lon="4.28456">
        <ele>255.6</ele>
        <time>2020-06-24T17:38:33Z</time>
      </trkpt>
      <trkpt lat="50.0719" lon="4.28464">
        <ele>255.7</ele>
        <time>2020-06-24T17:38:34Z</time>
      </trkpt>
      <trkpt lat="50.07187" lon="4.28472">
        <ele>255.7</ele>
        <time>2020-06-24T17:38:35Z</time>
      </trkpt>
      <trkpt lat="50.07186" lon="4.2848">
        <ele>255.8</ele>
        <time>2020-06-24T17:38:36Z</time>
      </trkpt>
      <trkpt lat="50.07184" lon="4.28489">
        <ele>255.9</ele>
        <time>2020-06-24T17:38:37Z</time>
      </trkpt>
      <trkpt lat="50.07183" lon="4.28497">
        <ele>255.9</ele>
        <time>2020-06-24T17:38:38Z</time>
      </trkpt>
      <trkpt lat="50.07181" lon="4.28505">
        <ele>256</ele>
        <time>2020-06-24T17:38:39Z</time>
      </trkpt>
      <trkpt lat="50.07179" lon="4.28513">
        <ele>256.1</ele>
        <time>2020-06-24T17:38:40Z</time>
      </trkpt>
      <trkpt lat="50.07178" lon="4.28521">
        <ele>256.1</ele>
        <time>2020-06-24T17:38:41Z</time>
      </trkpt>
      <trkpt lat="50.07176" lon="4.28529">
        <ele>256.2</ele>
        <time>2020-06-24T17:38:42Z</time>
      </trkpt>
      <trkpt lat="50.07174" lon="4.28535">
        <ele>256.2</ele>
        <time>2020-06-24T17:38:43Z</time>
      </trkpt>
      <trkpt lat="50.07172" lon="4.28542">
        <ele>256.3</ele>
        <time>2020-06-24T17:38:44Z</time>
      </trkpt>
      <trkpt lat="50.0717" lon="4.28549">
        <ele>256.4</ele>
        <time>2020-06-24T17:38:45Z</time>
      </trkpt>
      <trkpt lat="50.07169" lon="4.28556">
        <ele>256.4</ele>
        <time>2020-06-24T17:38:46Z</time>
      </trkpt>
      <trkpt lat="50.07168" lon="4.28561">
        <ele>256.1</ele>
        <time>2020-06-24T17:38:47Z</time>
      </trkpt>
      <trkpt lat="50.07167" lon="4.28567">
        <ele>255.9</ele>
        <time>2020-06-24T17:38:48Z</time>
      </trkpt>
      <trkpt lat="50.07166" lon="4.2857">
        <ele>255.8</ele>
        <time>2020-06-24T17:38:49Z</time>
      </trkpt>
      <trkpt lat="50.07165" lon="4.28574">
        <ele>255.6</ele>
        <time>2020-06-24T17:38:50Z</time>
      </trkpt>
      <trkpt lat="50.07165" lon="4.28575">
        <ele>255.6</ele>
        <time>2020-06-24T17:38:51Z</time>
      </trkpt>
      <trkpt lat="50.07165" lon="4.28577">
        <ele>255.5</ele>
        <time>2020-06-24T17:38:52Z</time>
      </trkpt>
      <trkpt lat="50.07166" lon="4.28578">
        <ele>255.4</ele>
        <time>2020-06-24T17:38:53Z</time>
      </trkpt>
      <trkpt lat="50.07166" lon="4.28579">
        <ele>255.4</ele>
        <time>2020-06-24T17:38:54Z</time>
      </trkpt>
      <trkpt lat="50.07167" lon="4.2858">
        <ele>255.3</ele>
        <time>2020-06-24T17:38:55Z</time>
      </trkpt>
      <trkpt lat="50.07168" lon="4.28582">
        <ele>255.2</ele>
        <time>2020-06-24T17:38:56Z</time>
      </trkpt>
      <trkpt lat="50.0717" lon="4.28582">
        <ele>255.1</ele>
        <time>2020-06-24T17:38:57Z</time>
      </trkpt>
      <trkpt lat="50.07172" lon="4.28585">
        <ele>254.9</ele>
        <time>2020-06-24T17:38:58Z</time>
      </trkpt>
      <trkpt lat="50.07174" lon="4.28588">
        <ele>254.7</ele>
        <time>2020-06-24T17:38:59Z</time>
      </trkpt>
      <trkpt lat="50.07176" lon="4.28593">
        <ele>254.4</ele>
        <time>2020-06-24T17:39:00Z</time>
      </trkpt>
      <trkpt lat="50.07179" lon="4.28598">
        <ele>254.2</ele>
        <time>2020-06-24T17:39:01Z</time>
      </trkpt>
      <trkpt lat="50.0718" lon="4.28604">
        <ele>253.9</ele>
        <time>2020-06-24T17:39:02Z</time>
      </trkpt>
      <trkpt lat="50.07181" lon="4.28611">
        <ele>253.7</ele>
        <time>2020-06-24T17:39:03Z</time>
      </trkpt>
      <trkpt lat="50.07181" lon="4.28618">
        <ele>253.4</ele>
        <time>2020-06-24T17:39:04Z</time>
      </trkpt>
      <trkpt lat="50.07182" lon="4.28625">
        <ele>253.1</ele>
        <time>2020-06-24T17:39:05Z</time>
      </trkpt>
      <trkpt lat="50.07183" lon="4.28631">
        <ele>252.9</ele>
        <time>2020-06-24T17:39:06Z</time>
      </trkpt>
      <trkpt lat="50.07184" lon="4.2864">
        <ele>252.6</ele>
        <time>2020-06-24T17:39:07Z</time>
      </trkpt>
      <trkpt lat="50.07185" lon="4.28649">
        <ele>252.2</ele>
        <time>2020-06-24T17:39:08Z</time>
      </trkpt>
      <trkpt lat="50.07186" lon="4.28659">
        <ele>252.1</ele>
        <time>2020-06-24T17:39:09Z</time>
      </trkpt>
      <trkpt lat="50.07187" lon="4.28668">
        <ele>252</ele>
        <time>2020-06-24T17:39:10Z</time>
      </trkpt>
      <trkpt lat="50.07188" lon="4.28677">
        <ele>251.6</ele>
        <time>2020-06-24T17:39:11Z</time>
      </trkpt>
      <trkpt lat="50.07189" lon="4.28687">
        <ele>251.3</ele>
        <time>2020-06-24T17:39:12Z</time>
      </trkpt>
      <trkpt lat="50.0719" lon="4.28696">
        <ele>251</ele>
        <time>2020-06-24T17:39:13Z</time>
      </trkpt>
      <trkpt lat="50.07191" lon="4.28706">
        <ele>250.6</ele>
        <time>2020-06-24T17:39:14Z</time>
      </trkpt>
      <trkpt lat="50.07192" lon="4.28717">
        <ele>250.2</ele>
        <time>2020-06-24T17:39:15Z</time>
      </trkpt>
      <trkpt lat="50.07193" lon="4.28728">
        <ele>249.8</ele>
        <time>2020-06-24T17:39:16Z</time>
      </trkpt>
      <trkpt lat="50.07194" lon="4.28739">
        <ele>249.4</ele>
        <time>2020-06-24T17:39:17Z</time>
      </trkpt>
      <trkpt lat="50.07195" lon="4.2875">
        <ele>249</ele>
        <time>2020-06-24T17:39:18Z</time>
      </trkpt>
      <trkpt lat="50.07197" lon="4.28761">
        <ele>248.6</ele>
        <time>2020-06-24T17:39:19Z</time>
      </trkpt>
      <trkpt lat="50.07198" lon="4.28772">
        <ele>248.3</ele>
        <time>2020-06-24T17:39:20Z</time>
      </trkpt>
      <trkpt lat="50.07199" lon="4.28784">
        <ele>247.9</ele>
        <time>2020-06-24T17:39:21Z</time>
      </trkpt>
      <trkpt lat="50.07201" lon="4.28796">
        <ele>247.6</ele>
        <time>2020-06-24T17:39:22Z</time>
      </trkpt>
      <trkpt lat="50.07202" lon="4.28807">
        <ele>247.4</ele>
        <time>2020-06-24T17:39:23Z</time>
      </trkpt>
      <trkpt lat="50.07203" lon="4.28816">
        <ele>247.2</ele>
        <time>2020-06-24T17:39:24Z</time>
      </trkpt>
      <trkpt lat="50.07204" lon="4.28824">
        <ele>247.1</ele>
        <time>2020-06-24T17:39:25Z</time>
      </trkpt>
      <trkpt lat="50.07205" lon="4.2883">
        <ele>247</ele>
        <time>2020-06-24T17:39:26Z</time>
      </trkpt>
      <trkpt lat="50.07205" lon="4.28837">
        <ele>247</ele>
        <time>2020-06-24T17:39:27Z</time>
      </trkpt>
      <trkpt lat="50.07205" lon="4.28844">
        <ele>246.9</ele>
        <time>2020-06-24T17:39:28Z</time>
      </trkpt>
      <trkpt lat="50.07205" lon="4.28851">
        <ele>246.9</ele>
        <time>2020-06-24T17:39:29Z</time>
      </trkpt>
      <trkpt lat="50.07204" lon="4.28856">
        <ele>246.8</ele>
        <time>2020-06-24T17:39:30Z</time>
      </trkpt>
      <trkpt lat="50.07202" lon="4.28861">
        <ele>246.8</ele>
        <time>2020-06-24T17:39:31Z</time>
      </trkpt>
      <trkpt lat="50.07202" lon="4.28862">
        <ele>246.8</ele>
        <time>2020-06-24T17:39:32Z</time>
      </trkpt>
      <trkpt lat="50.072" lon="4.28865">
        <ele>246.8</ele>
        <time>2020-06-24T17:39:33Z</time>
      </trkpt>
      <trkpt lat="50.07199" lon="4.28867">
        <ele>246.8</ele>
        <time>2020-06-24T17:39:34Z</time>
      </trkpt>
      <trkpt lat="50.07198" lon="4.28869">
        <ele>247.1</ele>
        <time>2020-06-24T17:39:35Z</time>
      </trkpt>
      <trkpt lat="50.07196" lon="4.28869">
        <ele>247.1</ele>
        <time>2020-06-24T17:39:36Z</time>
      </trkpt>
      <trkpt lat="50.07195" lon="4.28867">
        <ele>247.1</ele>
        <time>2020-06-24T17:39:37Z</time>
      </trkpt>
      <trkpt lat="50.07194" lon="4.28865">
        <ele>247.2</ele>
        <time>2020-06-24T17:39:38Z</time>
      </trkpt>
      <trkpt lat="50.07191" lon="4.28863">
        <ele>247.2</ele>
        <time>2020-06-24T17:39:39Z</time>
      </trkpt>
      <trkpt lat="50.07188" lon="4.28861">
        <ele>247.3</ele>
        <time>2020-06-24T17:39:40Z</time>
      </trkpt>
      <trkpt lat="50.07184" lon="4.28859">
        <ele>247.3</ele>
        <time>2020-06-24T17:39:41Z</time>
      </trkpt>
      <trkpt lat="50.0718" lon="4.28856">
        <ele>247.4</ele>
        <time>2020-06-24T17:39:42Z</time>
      </trkpt>
      <trkpt lat="50.07177" lon="4.28854">
        <ele>247.4</ele>
        <time>2020-06-24T17:39:43Z</time>
      </trkpt>
      <trkpt lat="50.07173" lon="4.28851">
        <ele>247.5</ele>
        <time>2020-06-24T17:39:44Z</time>
      </trkpt>
      <trkpt lat="50.07169" lon="4.28848">
        <ele>247.5</ele>
        <time>2020-06-24T17:39:45Z</time>
      </trkpt>
      <trkpt lat="50.07165" lon="4.28846">
        <ele>247.5</ele>
        <time>2020-06-24T17:39:46Z</time>
      </trkpt>
      <trkpt lat="50.07162" lon="4.28844">
        <ele>247.6</ele>
        <time>2020-06-24T17:39:47Z</time>
      </trkpt>
      <trkpt lat="50.07159" lon="4.28841">
        <ele>247.6</ele>
        <time>2020-06-24T17:39:48Z</time>
      </trkpt>
      <trkpt lat="50.07156" lon="4.28839">
        <ele>247.6</ele>
        <time>2020-06-24T17:39:49Z</time>
      </trkpt>
      <trkpt lat="50.07152" lon="4.28836">
        <ele>247.7</ele>
        <time>2020-06-24T17:39:50Z</time>
      </trkpt>
      <trkpt lat="50.07148" lon="4.28834">
        <ele>247.7</ele>
        <time>2020-06-24T17:39:51Z</time>
      </trkpt>
      <trkpt lat="50.07144" lon="4.28831">
        <ele>247.8</ele>
        <time>2020-06-24T17:39:52Z</time>
      </trkpt>
      <trkpt lat="50.0714" lon="4.28829">
        <ele>247.9</ele>
        <time>2020-06-24T17:39:53Z</time>
      </trkpt>
      <trkpt lat="50.07137" lon="4.28827">
        <ele>248</ele>
        <time>2020-06-24T17:39:54Z</time>
      </trkpt>
      <trkpt lat="50.07134" lon="4.28825">
        <ele>248</ele>
        <time>2020-06-24T17:39:55Z</time>
      </trkpt>
      <trkpt lat="50.0713" lon="4.28823">
        <ele>248.1</ele>
        <time>2020-06-24T17:39:56Z</time>
      </trkpt>
      <trkpt lat="50.07127" lon="4.28821">
        <ele>248.1</ele>
        <time>2020-06-24T17:39:57Z</time>
      </trkpt>
      <trkpt lat="50.07122" lon="4.28819">
        <ele>248.2</ele>
        <time>2020-06-24T17:39:58Z</time>
      </trkpt>
      <trkpt lat="50.07117" lon="4.28817">
        <ele>248.2</ele>
        <time>2020-06-24T17:39:59Z</time>
      </trkpt>
      <trkpt lat="50.07113" lon="4.28816">
        <ele>248.2</ele>
        <time>2020-06-24T17:40:00Z</time>
      </trkpt>
      <trkpt lat="50.07109" lon="4.28815">
        <ele>248.3</ele>
        <time>2020-06-24T17:40:01Z</time>
      </trkpt>
      <trkpt lat="50.07105" lon="4.28814">
        <ele>248.3</ele>
        <time>2020-06-24T17:40:02Z</time>
      </trkpt>
      <trkpt lat="50.07101" lon="4.28813">
        <ele>248.3</ele>
        <time>2020-06-24T17:40:03Z</time>
      </trkpt>
      <trkpt lat="50.07097" lon="4.28812">
        <ele>248.4</ele>
        <time>2020-06-24T17:40:04Z</time>
      </trkpt>
      <trkpt lat="50.07092" lon="4.28811">
        <ele>248.5</ele>
        <time>2020-06-24T17:40:05Z</time>
      </trkpt>
      <trkpt lat="50.07086" lon="4.2881">
        <ele>248.5</ele>
        <time>2020-06-24T17:40:06Z</time>
      </trkpt>
      <trkpt lat="50.0708" lon="4.28809">
        <ele>248.6</ele>
        <time>2020-06-24T17:40:07Z</time>
      </trkpt>
      <trkpt lat="50.07075" lon="4.28807">
        <ele>248.7</ele>
        <time>2020-06-24T17:40:08Z</time>
      </trkpt>
      <trkpt lat="50.07071" lon="4.28807">
        <ele>248.7</ele>
        <time>2020-06-24T17:40:09Z</time>
      </trkpt>
      <trkpt lat="50.07065" lon="4.28806">
        <ele>248.7</ele>
        <time>2020-06-24T17:40:10Z</time>
      </trkpt>
      <trkpt lat="50.07059" lon="4.28805">
        <ele>248.8</ele>
        <time>2020-06-24T17:40:11Z</time>
      </trkpt>
      <trkpt lat="50.07053" lon="4.28803">
        <ele>248.8</ele>
        <time>2020-06-24T17:40:12Z</time>
      </trkpt>
      <trkpt lat="50.07048" lon="4.28802">
        <ele>248.8</ele>
        <time>2020-06-24T17:40:13Z</time>
      </trkpt>
      <trkpt lat="50.07043" lon="4.288">
        <ele>248.8</ele>
        <time>2020-06-24T17:40:14Z</time>
      </trkpt>
      <trkpt lat="50.07037" lon="4.28798">
        <ele>248.8</ele>
        <time>2020-06-24T17:40:15Z</time>
      </trkpt>
      <trkpt lat="50.0703" lon="4.28795">
        <ele>248.9</ele>
        <time>2020-06-24T17:40:16Z</time>
      </trkpt>
      <trkpt lat="50.07023" lon="4.28793">
        <ele>248.9</ele>
        <time>2020-06-24T17:40:17Z</time>
      </trkpt>
      <trkpt lat="50.07017" lon="4.28791">
        <ele>249</ele>
        <time>2020-06-24T17:40:18Z</time>
      </trkpt>
      <trkpt lat="50.07011" lon="4.28788">
        <ele>249.1</ele>
        <time>2020-06-24T17:40:19Z</time>
      </trkpt>
      <trkpt lat="50.07005" lon="4.28786">
        <ele>249.2</ele>
        <time>2020-06-24T17:40:20Z</time>
      </trkpt>
      <trkpt lat="50.06999" lon="4.28784">
        <ele>249.3</ele>
        <time>2020-06-24T17:40:21Z</time>
      </trkpt>
      <trkpt lat="50.06992" lon="4.28781">
        <ele>249.5</ele>
        <time>2020-06-24T17:40:22Z</time>
      </trkpt>
      <trkpt lat="50.06986" lon="4.28779">
        <ele>249.6</ele>
        <time>2020-06-24T17:40:23Z</time>
      </trkpt>
      <trkpt lat="50.0698" lon="4.28776">
        <ele>249.7</ele>
        <time>2020-06-24T17:40:24Z</time>
      </trkpt>
      <trkpt lat="50.06974" lon="4.28774">
        <ele>249.8</ele>
        <time>2020-06-24T17:40:25Z</time>
      </trkpt>
      <trkpt lat="50.06967" lon="4.28773">
        <ele>249.9</ele>
        <time>2020-06-24T17:40:26Z</time>
      </trkpt>
      <trkpt lat="50.06961" lon="4.28771">
        <ele>250</ele>
        <time>2020-06-24T17:40:27Z</time>
      </trkpt>
      <trkpt lat="50.06955" lon="4.28769">
        <ele>250.1</ele>
        <time>2020-06-24T17:40:28Z</time>
      </trkpt>
      <trkpt lat="50.0695" lon="4.28765">
        <ele>250.2</ele>
        <time>2020-06-24T17:40:29Z</time>
      </trkpt>
      <trkpt lat="50.06944" lon="4.28762">
        <ele>250.3</ele>
        <time>2020-06-24T17:40:30Z</time>
      </trkpt>
      <trkpt lat="50.06938" lon="4.28759">
        <ele>250.4</ele>
        <time>2020-06-24T17:40:31Z</time>
      </trkpt>
      <trkpt lat="50.06932" lon="4.28756">
        <ele>250.6</ele>
        <time>2020-06-24T17:40:32Z</time>
      </trkpt>
      <trkpt lat="50.06926" lon="4.28754">
        <ele>250.7</ele>
        <time>2020-06-24T17:40:33Z</time>
      </trkpt>
      <trkpt lat="50.06919" lon="4.28753">
        <ele>250.9</ele>
        <time>2020-06-24T17:40:34Z</time>
      </trkpt>
      <trkpt lat="50.06913" lon="4.28753">
        <ele>251</ele>
        <time>2020-06-24T17:40:35Z</time>
      </trkpt>
      <trkpt lat="50.06907" lon="4.28752">
        <ele>251.2</ele>
        <time>2020-06-24T17:40:36Z</time>
      </trkpt>
      <trkpt lat="50.06902" lon="4.28751">
        <ele>251.3</ele>
        <time>2020-06-24T17:40:37Z</time>
      </trkpt>
      <trkpt lat="50.06897" lon="4.2875">
        <ele>251.4</ele>
        <time>2020-06-24T17:40:38Z</time>
      </trkpt>
      <trkpt lat="50.06892" lon="4.2875">
        <ele>251.5</ele>
        <time>2020-06-24T17:40:39Z</time>
      </trkpt>
      <trkpt lat="50.06888" lon="4.28749">
        <ele>251.6</ele>
        <time>2020-06-24T17:40:40Z</time>
      </trkpt>
      <trkpt lat="50.06883" lon="4.28749">
        <ele>251.8</ele>
        <time>2020-06-24T17:40:41Z</time>
      </trkpt>
      <trkpt lat="50.06879" lon="4.28749">
        <ele>251.9</ele>
        <time>2020-06-24T17:40:42Z</time>
      </trkpt>
      <trkpt lat="50.06875" lon="4.28749">
        <ele>252</ele>
        <time>2020-06-24T17:40:43Z</time>
      </trkpt>
      <trkpt lat="50.0687" lon="4.28748">
        <ele>252.1</ele>
        <time>2020-06-24T17:40:44Z</time>
      </trkpt>
      <trkpt lat="50.06865" lon="4.28748">
        <ele>252.2</ele>
        <time>2020-06-24T17:40:45Z</time>
      </trkpt>
      <trkpt lat="50.06861" lon="4.28747">
        <ele>252.3</ele>
        <time>2020-06-24T17:40:46Z</time>
      </trkpt>
      <trkpt lat="50.06857" lon="4.28747">
        <ele>252.4</ele>
        <time>2020-06-24T17:40:47Z</time>
      </trkpt>
      <trkpt lat="50.06852" lon="4.28747">
        <ele>252.5</ele>
        <time>2020-06-24T17:40:48Z</time>
      </trkpt>
      <trkpt lat="50.06846" lon="4.28748">
        <ele>252.7</ele>
        <time>2020-06-24T17:40:49Z</time>
      </trkpt>
      <trkpt lat="50.06841" lon="4.28749">
        <ele>252.8</ele>
        <time>2020-06-24T17:40:50Z</time>
      </trkpt>
      <trkpt lat="50.06836" lon="4.28752">
        <ele>252.9</ele>
        <time>2020-06-24T17:40:51Z</time>
      </trkpt>
      <trkpt lat="50.06831" lon="4.28754">
        <ele>253</ele>
        <time>2020-06-24T17:40:52Z</time>
      </trkpt>
      <trkpt lat="50.06826" lon="4.28756">
        <ele>253.1</ele>
        <time>2020-06-24T17:40:53Z</time>
      </trkpt>
      <trkpt lat="50.06821" lon="4.28758">
        <ele>253.2</ele>
        <time>2020-06-24T17:40:54Z</time>
      </trkpt>
      <trkpt lat="50.06816" lon="4.2876">
        <ele>253.3</ele>
        <time>2020-06-24T17:40:55Z</time>
      </trkpt>
      <trkpt lat="50.06811" lon="4.28761">
        <ele>253.4</ele>
        <time>2020-06-24T17:40:56Z</time>
      </trkpt>
      <trkpt lat="50.06806" lon="4.28763">
        <ele>253.5</ele>
        <time>2020-06-24T17:40:57Z</time>
      </trkpt>
      <trkpt lat="50.068" lon="4.28764">
        <ele>253.6</ele>
        <time>2020-06-24T17:40:58Z</time>
      </trkpt>
      <trkpt lat="50.06795" lon="4.28765">
        <ele>253.7</ele>
        <time>2020-06-24T17:40:59Z</time>
      </trkpt>
      <trkpt lat="50.0679" lon="4.28766">
        <ele>253.9</ele>
        <time>2020-06-24T17:41:00Z</time>
      </trkpt>
      <trkpt lat="50.06783" lon="4.28766">
        <ele>254</ele>
        <time>2020-06-24T17:41:01Z</time>
      </trkpt>
      <trkpt lat="50.06776" lon="4.28766">
        <ele>254.1</ele>
        <time>2020-06-24T17:41:02Z</time>
      </trkpt>
      <trkpt lat="50.0677" lon="4.28767">
        <ele>254.2</ele>
        <time>2020-06-24T17:41:03Z</time>
      </trkpt>
      <trkpt lat="50.06764" lon="4.28767">
        <ele>254.3</ele>
        <time>2020-06-24T17:41:04Z</time>
      </trkpt>
      <trkpt lat="50.06758" lon="4.28767">
        <ele>254.4</ele>
        <time>2020-06-24T17:41:05Z</time>
      </trkpt>
      <trkpt lat="50.06753" lon="4.28769">
        <ele>254.5</ele>
        <time>2020-06-24T17:41:06Z</time>
      </trkpt>
      <trkpt lat="50.06744" lon="4.28773">
        <ele>254.6</ele>
        <time>2020-06-24T17:41:07Z</time>
      </trkpt>
      <trkpt lat="50.06741" lon="4.28774">
        <ele>254.6</ele>
        <time>2020-06-24T17:41:08Z</time>
      </trkpt>
      <trkpt lat="50.06737" lon="4.28776">
        <ele>254.7</ele>
        <time>2020-06-24T17:41:09Z</time>
      </trkpt>
      <trkpt lat="50.06732" lon="4.28778">
        <ele>254.7</ele>
        <time>2020-06-24T17:41:10Z</time>
      </trkpt>
      <trkpt lat="50.06728" lon="4.28778">
        <ele>254.8</ele>
        <time>2020-06-24T17:41:11Z</time>
      </trkpt>
      <trkpt lat="50.06722" lon="4.28778">
        <ele>254.8</ele>
        <time>2020-06-24T17:41:12Z</time>
      </trkpt>
      <trkpt lat="50.06716" lon="4.28779">
        <ele>254.9</ele>
        <time>2020-06-24T17:41:13Z</time>
      </trkpt>
      <trkpt lat="50.06711" lon="4.28782">
        <ele>255</ele>
        <time>2020-06-24T17:41:14Z</time>
      </trkpt>
      <trkpt lat="50.06705" lon="4.28784">
        <ele>255.1</ele>
        <time>2020-06-24T17:41:15Z</time>
      </trkpt>
      <trkpt lat="50.067" lon="4.28787">
        <ele>255.2</ele>
        <time>2020-06-24T17:41:16Z</time>
      </trkpt>
      <trkpt lat="50.06695" lon="4.28789">
        <ele>255.3</ele>
        <time>2020-06-24T17:41:17Z</time>
      </trkpt>
      <trkpt lat="50.06691" lon="4.28792">
        <ele>255.4</ele>
        <time>2020-06-24T17:41:18Z</time>
      </trkpt>
      <trkpt lat="50.06686" lon="4.28795">
        <ele>255.4</ele>
        <time>2020-06-24T17:41:19Z</time>
      </trkpt>
      <trkpt lat="50.06681" lon="4.28799">
        <ele>255.5</ele>
        <time>2020-06-24T17:41:20Z</time>
      </trkpt>
      <trkpt lat="50.06675" lon="4.288">
        <ele>255.5</ele>
        <time>2020-06-24T17:41:21Z</time>
      </trkpt>
      <trkpt lat="50.0667" lon="4.28803">
        <ele>255.6</ele>
        <time>2020-06-24T17:41:22Z</time>
      </trkpt>
      <trkpt lat="50.06664" lon="4.28805">
        <ele>255.6</ele>
        <time>2020-06-24T17:41:23Z</time>
      </trkpt>
      <trkpt lat="50.06659" lon="4.28808">
        <ele>255.6</ele>
        <time>2020-06-24T17:41:24Z</time>
      </trkpt>
      <trkpt lat="50.06654" lon="4.2881">
        <ele>255.6</ele>
        <time>2020-06-24T17:41:25Z</time>
      </trkpt>
      <trkpt lat="50.06648" lon="4.28814">
        <ele>255.6</ele>
        <time>2020-06-24T17:41:26Z</time>
      </trkpt>
      <trkpt lat="50.06643" lon="4.28818">
        <ele>255.6</ele>
        <time>2020-06-24T17:41:27Z</time>
      </trkpt>
      <trkpt lat="50.06636" lon="4.2882">
        <ele>255.6</ele>
        <time>2020-06-24T17:41:28Z</time>
      </trkpt>
      <trkpt lat="50.0663" lon="4.28823">
        <ele>255.6</ele>
        <time>2020-06-24T17:41:29Z</time>
      </trkpt>
      <trkpt lat="50.06623" lon="4.28823">
        <ele>255.6</ele>
        <time>2020-06-24T17:41:30Z</time>
      </trkpt>
      <trkpt lat="50.06616" lon="4.28823">
        <ele>255.5</ele>
        <time>2020-06-24T17:41:31Z</time>
      </trkpt>
      <trkpt lat="50.06609" lon="4.28825">
        <ele>255.5</ele>
        <time>2020-06-24T17:41:32Z</time>
      </trkpt>
      <trkpt lat="50.06603" lon="4.28827">
        <ele>255.4</ele>
        <time>2020-06-24T17:41:33Z</time>
      </trkpt>
      <trkpt lat="50.06597" lon="4.28829">
        <ele>255.4</ele>
        <time>2020-06-24T17:41:34Z</time>
      </trkpt>
      <trkpt lat="50.0659" lon="4.28832">
        <ele>255.4</ele>
        <time>2020-06-24T17:41:35Z</time>
      </trkpt>
      <trkpt lat="50.06584" lon="4.28835">
        <ele>255.3</ele>
        <time>2020-06-24T17:41:36Z</time>
      </trkpt>
      <trkpt lat="50.06577" lon="4.28838">
        <ele>255.3</ele>
        <time>2020-06-24T17:41:37Z</time>
      </trkpt>
      <trkpt lat="50.06571" lon="4.28841">
        <ele>255.3</ele>
        <time>2020-06-24T17:41:38Z</time>
      </trkpt>
      <trkpt lat="50.06564" lon="4.28843">
        <ele>255.3</ele>
        <time>2020-06-24T17:41:39Z</time>
      </trkpt>
      <trkpt lat="50.06558" lon="4.28847">
        <ele>255.3</ele>
        <time>2020-06-24T17:41:40Z</time>
      </trkpt>
      <trkpt lat="50.06552" lon="4.2885">
        <ele>255.3</ele>
        <time>2020-06-24T17:41:41Z</time>
      </trkpt>
      <trkpt lat="50.06546" lon="4.28853">
        <ele>255.3</ele>
        <time>2020-06-24T17:41:42Z</time>
      </trkpt>
      <trkpt lat="50.0654" lon="4.28856">
        <ele>255.3</ele>
        <time>2020-06-24T17:41:43Z</time>
      </trkpt>
      <trkpt lat="50.06534" lon="4.28857">
        <ele>255.2</ele>
        <time>2020-06-24T17:41:44Z</time>
      </trkpt>
      <trkpt lat="50.06528" lon="4.2886">
        <ele>255.1</ele>
        <time>2020-06-24T17:41:45Z</time>
      </trkpt>
      <trkpt lat="50.06521" lon="4.28863">
        <ele>255</ele>
        <time>2020-06-24T17:41:46Z</time>
      </trkpt>
      <trkpt lat="50.06516" lon="4.28867">
        <ele>254.9</ele>
        <time>2020-06-24T17:41:47Z</time>
      </trkpt>
      <trkpt lat="50.0651" lon="4.28871">
        <ele>254.8</ele>
        <time>2020-06-24T17:41:48Z</time>
      </trkpt>
      <trkpt lat="50.06504" lon="4.28875">
        <ele>254.7</ele>
        <time>2020-06-24T17:41:49Z</time>
      </trkpt>
      <trkpt lat="50.06498" lon="4.2888">
        <ele>254.5</ele>
        <time>2020-06-24T17:41:50Z</time>
      </trkpt>
      <trkpt lat="50.06492" lon="4.28885">
        <ele>254.4</ele>
        <time>2020-06-24T17:41:51Z</time>
      </trkpt>
      <trkpt lat="50.06485" lon="4.2889">
        <ele>254.3</ele>
        <time>2020-06-24T17:41:52Z</time>
      </trkpt>
      <trkpt lat="50.06479" lon="4.28895">
        <ele>254.1</ele>
        <time>2020-06-24T17:41:53Z</time>
      </trkpt>
      <trkpt lat="50.06473" lon="4.289">
        <ele>254</ele>
        <time>2020-06-24T17:41:54Z</time>
      </trkpt>
      <trkpt lat="50.06466" lon="4.28904">
        <ele>253.9</ele>
        <time>2020-06-24T17:41:55Z</time>
      </trkpt>
      <trkpt lat="50.0646" lon="4.28909">
        <ele>253.7</ele>
        <time>2020-06-24T17:41:56Z</time>
      </trkpt>
      <trkpt lat="50.06455" lon="4.28914">
        <ele>253.6</ele>
        <time>2020-06-24T17:41:57Z</time>
      </trkpt>
      <trkpt lat="50.06448" lon="4.28918">
        <ele>253.4</ele>
        <time>2020-06-24T17:41:58Z</time>
      </trkpt>
      <trkpt lat="50.06442" lon="4.28923">
        <ele>253.3</ele>
        <time>2020-06-24T17:41:59Z</time>
      </trkpt>
      <trkpt lat="50.06436" lon="4.28928">
        <ele>253.1</ele>
        <time>2020-06-24T17:42:00Z</time>
      </trkpt>
      <trkpt lat="50.0643" lon="4.28932">
        <ele>252.9</ele>
        <time>2020-06-24T17:42:01Z</time>
      </trkpt>
      <trkpt lat="50.06424" lon="4.28937">
        <ele>252.8</ele>
        <time>2020-06-24T17:42:02Z</time>
      </trkpt>
      <trkpt lat="50.06418" lon="4.28942">
        <ele>252.6</ele>
        <time>2020-06-24T17:42:03Z</time>
      </trkpt>
      <trkpt lat="50.06412" lon="4.28946">
        <ele>252.4</ele>
        <time>2020-06-24T17:42:04Z</time>
      </trkpt>
      <trkpt lat="50.06406" lon="4.2895">
        <ele>252.2</ele>
        <time>2020-06-24T17:42:05Z</time>
      </trkpt>
      <trkpt lat="50.064" lon="4.28954">
        <ele>252.1</ele>
        <time>2020-06-24T17:42:06Z</time>
      </trkpt>
      <trkpt lat="50.06394" lon="4.28959">
        <ele>252</ele>
        <time>2020-06-24T17:42:07Z</time>
      </trkpt>
      <trkpt lat="50.06388" lon="4.28964">
        <ele>251.9</ele>
        <time>2020-06-24T17:42:08Z</time>
      </trkpt>
      <trkpt lat="50.06381" lon="4.2897">
        <ele>251.7</ele>
        <time>2020-06-24T17:42:09Z</time>
      </trkpt>
      <trkpt lat="50.06374" lon="4.28975">
        <ele>251.6</ele>
        <time>2020-06-24T17:42:10Z</time>
      </trkpt>
      <trkpt lat="50.06368" lon="4.2898">
        <ele>251.4</ele>
        <time>2020-06-24T17:42:11Z</time>
      </trkpt>
      <trkpt lat="50.06361" lon="4.28985">
        <ele>251.3</ele>
        <time>2020-06-24T17:42:12Z</time>
      </trkpt>
      <trkpt lat="50.06355" lon="4.2899">
        <ele>251.1</ele>
        <time>2020-06-24T17:42:13Z</time>
      </trkpt>
      <trkpt lat="50.06348" lon="4.28995">
        <ele>250.9</ele>
        <time>2020-06-24T17:42:14Z</time>
      </trkpt>
      <trkpt lat="50.06342" lon="4.28999">
        <ele>250.7</ele>
        <time>2020-06-24T17:42:15Z</time>
      </trkpt>
      <trkpt lat="50.06335" lon="4.29003">
        <ele>250.5</ele>
        <time>2020-06-24T17:42:16Z</time>
      </trkpt>
      <trkpt lat="50.06329" lon="4.29008">
        <ele>250.2</ele>
        <time>2020-06-24T17:42:17Z</time>
      </trkpt>
      <trkpt lat="50.06322" lon="4.29014">
        <ele>250</ele>
        <time>2020-06-24T17:42:18Z</time>
      </trkpt>
      <trkpt lat="50.06315" lon="4.29019">
        <ele>249.8</ele>
        <time>2020-06-24T17:42:19Z</time>
      </trkpt>
      <trkpt lat="50.06308" lon="4.29024">
        <ele>249.6</ele>
        <time>2020-06-24T17:42:20Z</time>
      </trkpt>
      <trkpt lat="50.06302" lon="4.29029">
        <ele>249.4</ele>
        <time>2020-06-24T17:42:21Z</time>
      </trkpt>
      <trkpt lat="50.06295" lon="4.29035">
        <ele>249.2</ele>
        <time>2020-06-24T17:42:22Z</time>
      </trkpt>
      <trkpt lat="50.06288" lon="4.2904">
        <ele>249.1</ele>
        <time>2020-06-24T17:42:23Z</time>
      </trkpt>
      <trkpt lat="50.06281" lon="4.29046">
        <ele>249</ele>
        <time>2020-06-24T17:42:24Z</time>
      </trkpt>
      <trkpt lat="50.06274" lon="4.29051">
        <ele>248.8</ele>
        <time>2020-06-24T17:42:25Z</time>
      </trkpt>
      <trkpt lat="50.06267" lon="4.29056">
        <ele>248.6</ele>
        <time>2020-06-24T17:42:26Z</time>
      </trkpt>
      <trkpt lat="50.0626" lon="4.29061">
        <ele>248.5</ele>
        <time>2020-06-24T17:42:27Z</time>
      </trkpt>
      <trkpt lat="50.06254" lon="4.29067">
        <ele>248.3</ele>
        <time>2020-06-24T17:42:28Z</time>
      </trkpt>
      <trkpt lat="50.06247" lon="4.29072">
        <ele>248.2</ele>
        <time>2020-06-24T17:42:29Z</time>
      </trkpt>
      <trkpt lat="50.0624" lon="4.29077">
        <ele>248.1</ele>
        <time>2020-06-24T17:42:30Z</time>
      </trkpt>
      <trkpt lat="50.06234" lon="4.29082">
        <ele>247.9</ele>
        <time>2020-06-24T17:42:31Z</time>
      </trkpt>
      <trkpt lat="50.06228" lon="4.29087">
        <ele>247.7</ele>
        <time>2020-06-24T17:42:32Z</time>
      </trkpt>
      <trkpt lat="50.06221" lon="4.29092">
        <ele>247.6</ele>
        <time>2020-06-24T17:42:33Z</time>
      </trkpt>
      <trkpt lat="50.06214" lon="4.29097">
        <ele>247.4</ele>
        <time>2020-06-24T17:42:34Z</time>
      </trkpt>
      <trkpt lat="50.06207" lon="4.29103">
        <ele>247.2</ele>
        <time>2020-06-24T17:42:35Z</time>
      </trkpt>
      <trkpt lat="50.06201" lon="4.29109">
        <ele>247.1</ele>
        <time>2020-06-24T17:42:36Z</time>
      </trkpt>
      <trkpt lat="50.06194" lon="4.29114">
        <ele>246.9</ele>
        <time>2020-06-24T17:42:37Z</time>
      </trkpt>
      <trkpt lat="50.06187" lon="4.2912">
        <ele>246.8</ele>
        <time>2020-06-24T17:42:38Z</time>
      </trkpt>
      <trkpt lat="50.06179" lon="4.29125">
        <ele>246.7</ele>
        <time>2020-06-24T17:42:39Z</time>
      </trkpt>
      <trkpt lat="50.06172" lon="4.2913">
        <ele>246.5</ele>
        <time>2020-06-24T17:42:40Z</time>
      </trkpt>
      <trkpt lat="50.06165" lon="4.29135">
        <ele>246.4</ele>
        <time>2020-06-24T17:42:41Z</time>
      </trkpt>
      <trkpt lat="50.06158" lon="4.2914">
        <ele>246.2</ele>
        <time>2020-06-24T17:42:42Z</time>
      </trkpt>
      <trkpt lat="50.06151" lon="4.29146">
        <ele>246.1</ele>
        <time>2020-06-24T17:42:43Z</time>
      </trkpt>
      <trkpt lat="50.06144" lon="4.29152">
        <ele>245.9</ele>
        <time>2020-06-24T17:42:44Z</time>
      </trkpt>
      <trkpt lat="50.06137" lon="4.29158">
        <ele>245.8</ele>
        <time>2020-06-24T17:42:45Z</time>
      </trkpt>
      <trkpt lat="50.0613" lon="4.29163">
        <ele>245.7</ele>
        <time>2020-06-24T17:42:46Z</time>
      </trkpt>
      <trkpt lat="50.06124" lon="4.29168">
        <ele>245.6</ele>
        <time>2020-06-24T17:42:47Z</time>
      </trkpt>
      <trkpt lat="50.06117" lon="4.29174">
        <ele>245.5</ele>
        <time>2020-06-24T17:42:48Z</time>
      </trkpt>
      <trkpt lat="50.06111" lon="4.29179">
        <ele>245.4</ele>
        <time>2020-06-24T17:42:49Z</time>
      </trkpt>
      <trkpt lat="50.06104" lon="4.29183">
        <ele>245.3</ele>
        <time>2020-06-24T17:42:50Z</time>
      </trkpt>
      <trkpt lat="50.06097" lon="4.29188">
        <ele>245.2</ele>
        <time>2020-06-24T17:42:51Z</time>
      </trkpt>
      <trkpt lat="50.06091" lon="4.29193">
        <ele>245</ele>
        <time>2020-06-24T17:42:52Z</time>
      </trkpt>
      <trkpt lat="50.06084" lon="4.29198">
        <ele>244.8</ele>
        <time>2020-06-24T17:42:53Z</time>
      </trkpt>
      <trkpt lat="50.06077" lon="4.29203">
        <ele>244.7</ele>
        <time>2020-06-24T17:42:54Z</time>
      </trkpt>
      <trkpt lat="50.0607" lon="4.29209">
        <ele>244.6</ele>
        <time>2020-06-24T17:42:55Z</time>
      </trkpt>
      <trkpt lat="50.06063" lon="4.29214">
        <ele>244.5</ele>
        <time>2020-06-24T17:42:56Z</time>
      </trkpt>
      <trkpt lat="50.06056" lon="4.29219">
        <ele>244.4</ele>
        <time>2020-06-24T17:42:57Z</time>
      </trkpt>
      <trkpt lat="50.06049" lon="4.29225">
        <ele>244.4</ele>
        <time>2020-06-24T17:42:58Z</time>
      </trkpt>
      <trkpt lat="50.06042" lon="4.29231">
        <ele>244.3</ele>
        <time>2020-06-24T17:42:59Z</time>
      </trkpt>
      <trkpt lat="50.06035" lon="4.29236">
        <ele>244.2</ele>
        <time>2020-06-24T17:43:00Z</time>
      </trkpt>
      <trkpt lat="50.06028" lon="4.29242">
        <ele>244.2</ele>
        <time>2020-06-24T17:43:01Z</time>
      </trkpt>
      <trkpt lat="50.06021" lon="4.29248">
        <ele>244.1</ele>
        <time>2020-06-24T17:43:02Z</time>
      </trkpt>
      <trkpt lat="50.06014" lon="4.29254">
        <ele>244.1</ele>
        <time>2020-06-24T17:43:03Z</time>
      </trkpt>
      <trkpt lat="50.06007" lon="4.2926">
        <ele>244.2</ele>
        <time>2020-06-24T17:43:04Z</time>
      </trkpt>
      <trkpt lat="50.06" lon="4.29265">
        <ele>244.2</ele>
        <time>2020-06-24T17:43:05Z</time>
      </trkpt>
      <trkpt lat="50.05993" lon="4.29271">
        <ele>244.3</ele>
        <time>2020-06-24T17:43:06Z</time>
      </trkpt>
      <trkpt lat="50.05986" lon="4.29276">
        <ele>244.3</ele>
        <time>2020-06-24T17:43:07Z</time>
      </trkpt>
      <trkpt lat="50.0598" lon="4.29281">
        <ele>244.2</ele>
        <time>2020-06-24T17:43:08Z</time>
      </trkpt>
      <trkpt lat="50.05973" lon="4.29286">
        <ele>244.2</ele>
        <time>2020-06-24T17:43:09Z</time>
      </trkpt>
      <trkpt lat="50.05967" lon="4.29292">
        <ele>244.2</ele>
        <time>2020-06-24T17:43:10Z</time>
      </trkpt>
      <trkpt lat="50.0596" lon="4.29298">
        <ele>244.2</ele>
        <time>2020-06-24T17:43:11Z</time>
      </trkpt>
      <trkpt lat="50.05953" lon="4.29304">
        <ele>244.2</ele>
        <time>2020-06-24T17:43:12Z</time>
      </trkpt>
      <trkpt lat="50.05946" lon="4.29309">
        <ele>244.2</ele>
        <time>2020-06-24T17:43:13Z</time>
      </trkpt>
      <trkpt lat="50.0594" lon="4.29315">
        <ele>244.2</ele>
        <time>2020-06-24T17:43:14Z</time>
      </trkpt>
      <trkpt lat="50.05933" lon="4.2932">
        <ele>244.2</ele>
        <time>2020-06-24T17:43:15Z</time>
      </trkpt>
      <trkpt lat="50.05927" lon="4.29326">
        <ele>244.2</ele>
        <time>2020-06-24T17:43:16Z</time>
      </trkpt>
      <trkpt lat="50.0592" lon="4.29331">
        <ele>244.2</ele>
        <time>2020-06-24T17:43:17Z</time>
      </trkpt>
      <trkpt lat="50.05913" lon="4.29337">
        <ele>244.2</ele>
        <time>2020-06-24T17:43:18Z</time>
      </trkpt>
      <trkpt lat="50.05906" lon="4.29342">
        <ele>244.3</ele>
        <time>2020-06-24T17:43:19Z</time>
      </trkpt>
      <trkpt lat="50.059" lon="4.29347">
        <ele>244.3</ele>
        <time>2020-06-24T17:43:20Z</time>
      </trkpt>
      <trkpt lat="50.05893" lon="4.29352">
        <ele>244.4</ele>
        <time>2020-06-24T17:43:21Z</time>
      </trkpt>
      <trkpt lat="50.05886" lon="4.29358">
        <ele>244.5</ele>
        <time>2020-06-24T17:43:22Z</time>
      </trkpt>
      <trkpt lat="50.0588" lon="4.29364">
        <ele>244.7</ele>
        <time>2020-06-24T17:43:23Z</time>
      </trkpt>
      <trkpt lat="50.05873" lon="4.2937">
        <ele>244.9</ele>
        <time>2020-06-24T17:43:24Z</time>
      </trkpt>
      <trkpt lat="50.05867" lon="4.29375">
        <ele>245</ele>
        <time>2020-06-24T17:43:25Z</time>
      </trkpt>
      <trkpt lat="50.05861" lon="4.2938">
        <ele>245.2</ele>
        <time>2020-06-24T17:43:26Z</time>
      </trkpt>
      <trkpt lat="50.05854" lon="4.29384">
        <ele>245.5</ele>
        <time>2020-06-24T17:43:27Z</time>
      </trkpt>
      <trkpt lat="50.05849" lon="4.29389">
        <ele>245.7</ele>
        <time>2020-06-24T17:43:28Z</time>
      </trkpt>
      <trkpt lat="50.05843" lon="4.29393">
        <ele>245.8</ele>
        <time>2020-06-24T17:43:29Z</time>
      </trkpt>
      <trkpt lat="50.05837" lon="4.29397">
        <ele>246</ele>
        <time>2020-06-24T17:43:30Z</time>
      </trkpt>
      <trkpt lat="50.05832" lon="4.29402">
        <ele>246.1</ele>
        <time>2020-06-24T17:43:31Z</time>
      </trkpt>
      <trkpt lat="50.05827" lon="4.29406">
        <ele>246.3</ele>
        <time>2020-06-24T17:43:32Z</time>
      </trkpt>
      <trkpt lat="50.05822" lon="4.29408">
        <ele>246.3</ele>
        <time>2020-06-24T17:43:33Z</time>
      </trkpt>
      <trkpt lat="50.05817" lon="4.29406">
        <ele>246.2</ele>
        <time>2020-06-24T17:43:34Z</time>
      </trkpt>
      <trkpt lat="50.05812" lon="4.29403">
        <ele>246</ele>
        <time>2020-06-24T17:43:35Z</time>
      </trkpt>
      <trkpt lat="50.05807" lon="4.29401">
        <ele>245.6</ele>
        <time>2020-06-24T17:43:36Z</time>
      </trkpt>
      <trkpt lat="50.05802" lon="4.29402">
        <ele>245.5</ele>
        <time>2020-06-24T17:43:37Z</time>
      </trkpt>
      <trkpt lat="50.05796" lon="4.29404">
        <ele>245.4</ele>
        <time>2020-06-24T17:43:38Z</time>
      </trkpt>
      <trkpt lat="50.05791" lon="4.29407">
        <ele>245.3</ele>
        <time>2020-06-24T17:43:39Z</time>
      </trkpt>
      <trkpt lat="50.05786" lon="4.29409">
        <ele>245.3</ele>
        <time>2020-06-24T17:43:40Z</time>
      </trkpt>
      <trkpt lat="50.0578" lon="4.29413">
        <ele>245.1</ele>
        <time>2020-06-24T17:43:41Z</time>
      </trkpt>
      <trkpt lat="50.05774" lon="4.29417">
        <ele>245</ele>
        <time>2020-06-24T17:43:42Z</time>
      </trkpt>
      <trkpt lat="50.05768" lon="4.29421">
        <ele>244.8</ele>
        <time>2020-06-24T17:43:43Z</time>
      </trkpt>
      <trkpt lat="50.05762" lon="4.29425">
        <ele>244.6</ele>
        <time>2020-06-24T17:43:44Z</time>
      </trkpt>
      <trkpt lat="50.05756" lon="4.2943">
        <ele>244.4</ele>
        <time>2020-06-24T17:43:45Z</time>
      </trkpt>
      <trkpt lat="50.0575" lon="4.29434">
        <ele>244.2</ele>
        <time>2020-06-24T17:43:46Z</time>
      </trkpt>
      <trkpt lat="50.05743" lon="4.29439">
        <ele>244</ele>
        <time>2020-06-24T17:43:47Z</time>
      </trkpt>
      <trkpt lat="50.05736" lon="4.29444">
        <ele>243.8</ele>
        <time>2020-06-24T17:43:48Z</time>
      </trkpt>
      <trkpt lat="50.05729" lon="4.29451">
        <ele>243.6</ele>
        <time>2020-06-24T17:43:49Z</time>
      </trkpt>
      <trkpt lat="50.05724" lon="4.2946">
        <ele>243.5</ele>
        <time>2020-06-24T17:43:50Z</time>
      </trkpt>
      <trkpt lat="50.05719" lon="4.29469">
        <ele>243.4</ele>
        <time>2020-06-24T17:43:51Z</time>
      </trkpt>
      <trkpt lat="50.05715" lon="4.29478">
        <ele>243.4</ele>
        <time>2020-06-24T17:43:52Z</time>
      </trkpt>
      <trkpt lat="50.05711" lon="4.29487">
        <ele>243.5</ele>
        <time>2020-06-24T17:43:53Z</time>
      </trkpt>
      <trkpt lat="50.05705" lon="4.29495">
        <ele>243.6</ele>
        <time>2020-06-24T17:43:54Z</time>
      </trkpt>
      <trkpt lat="50.05699" lon="4.29501">
        <ele>243.8</ele>
        <time>2020-06-24T17:43:55Z</time>
      </trkpt>
      <trkpt lat="50.05693" lon="4.29507">
        <ele>244</ele>
        <time>2020-06-24T17:43:56Z</time>
      </trkpt>
      <trkpt lat="50.05688" lon="4.29512">
        <ele>244.3</ele>
        <time>2020-06-24T17:43:57Z</time>
      </trkpt>
      <trkpt lat="50.05682" lon="4.29517">
        <ele>244.5</ele>
        <time>2020-06-24T17:43:58Z</time>
      </trkpt>
      <trkpt lat="50.05676" lon="4.29521">
        <ele>244.7</ele>
        <time>2020-06-24T17:43:59Z</time>
      </trkpt>
      <trkpt lat="50.05671" lon="4.29526">
        <ele>245</ele>
        <time>2020-06-24T17:44:00Z</time>
      </trkpt>
      <trkpt lat="50.05665" lon="4.2953">
        <ele>245.2</ele>
        <time>2020-06-24T17:44:01Z</time>
      </trkpt>
      <trkpt lat="50.0566" lon="4.29534">
        <ele>245.4</ele>
        <time>2020-06-24T17:44:02Z</time>
      </trkpt>
      <trkpt lat="50.05655" lon="4.29538">
        <ele>245.7</ele>
        <time>2020-06-24T17:44:03Z</time>
      </trkpt>
      <trkpt lat="50.05651" lon="4.29541">
        <ele>245.9</ele>
        <time>2020-06-24T17:44:04Z</time>
      </trkpt>
      <trkpt lat="50.05646" lon="4.29545">
        <ele>246</ele>
        <time>2020-06-24T17:44:05Z</time>
      </trkpt>
      <trkpt lat="50.05642" lon="4.29548">
        <ele>246.1</ele>
        <time>2020-06-24T17:44:06Z</time>
      </trkpt>
      <trkpt lat="50.05638" lon="4.29552">
        <ele>246.3</ele>
        <time>2020-06-24T17:44:07Z</time>
      </trkpt>
      <trkpt lat="50.05634" lon="4.29555">
        <ele>246.4</ele>
        <time>2020-06-24T17:44:08Z</time>
      </trkpt>
      <trkpt lat="50.0563" lon="4.29559">
        <ele>246.5</ele>
        <time>2020-06-24T17:44:09Z</time>
      </trkpt>
      <trkpt lat="50.05626" lon="4.29563">
        <ele>246.5</ele>
        <time>2020-06-24T17:44:10Z</time>
      </trkpt>
      <trkpt lat="50.05622" lon="4.29565">
        <ele>246.6</ele>
        <time>2020-06-24T17:44:11Z</time>
      </trkpt>
      <trkpt lat="50.05618" lon="4.29568">
        <ele>246.7</ele>
        <time>2020-06-24T17:44:12Z</time>
      </trkpt>
      <trkpt lat="50.05614" lon="4.29572">
        <ele>246.7</ele>
        <time>2020-06-24T17:44:13Z</time>
      </trkpt>
      <trkpt lat="50.05609" lon="4.29576">
        <ele>246.7</ele>
        <time>2020-06-24T17:44:14Z</time>
      </trkpt>
      <trkpt lat="50.05604" lon="4.29579">
        <ele>246.7</ele>
        <time>2020-06-24T17:44:15Z</time>
      </trkpt>
      <trkpt lat="50.056" lon="4.29583">
        <ele>246.8</ele>
        <time>2020-06-24T17:44:16Z</time>
      </trkpt>
      <trkpt lat="50.05596" lon="4.29587">
        <ele>246.8</ele>
        <time>2020-06-24T17:44:17Z</time>
      </trkpt>
      <trkpt lat="50.05591" lon="4.2959">
        <ele>246.8</ele>
        <time>2020-06-24T17:44:18Z</time>
      </trkpt>
      <trkpt lat="50.05587" lon="4.29593">
        <ele>246.8</ele>
        <time>2020-06-24T17:44:19Z</time>
      </trkpt>
      <trkpt lat="50.05582" lon="4.29597">
        <ele>246.8</ele>
        <time>2020-06-24T17:44:20Z</time>
      </trkpt>
      <trkpt lat="50.05577" lon="4.29601">
        <ele>246.8</ele>
        <time>2020-06-24T17:44:21Z</time>
      </trkpt>
      <trkpt lat="50.05572" lon="4.29606">
        <ele>246.9</ele>
        <time>2020-06-24T17:44:22Z</time>
      </trkpt>
      <trkpt lat="50.05567" lon="4.2961">
        <ele>246.9</ele>
        <time>2020-06-24T17:44:23Z</time>
      </trkpt>
      <trkpt lat="50.05562" lon="4.29614">
        <ele>246.9</ele>
        <time>2020-06-24T17:44:24Z</time>
      </trkpt>
      <trkpt lat="50.05556" lon="4.29618">
        <ele>247</ele>
        <time>2020-06-24T17:44:25Z</time>
      </trkpt>
      <trkpt lat="50.05551" lon="4.29622">
        <ele>247</ele>
        <time>2020-06-24T17:44:26Z</time>
      </trkpt>
      <trkpt lat="50.05545" lon="4.29626">
        <ele>247.1</ele>
        <time>2020-06-24T17:44:27Z</time>
      </trkpt>
      <trkpt lat="50.0554" lon="4.2963">
        <ele>247.1</ele>
        <time>2020-06-24T17:44:28Z</time>
      </trkpt>
      <trkpt lat="50.05534" lon="4.29633">
        <ele>247.1</ele>
        <time>2020-06-24T17:44:29Z</time>
      </trkpt>
      <trkpt lat="50.05529" lon="4.29636">
        <ele>247.2</ele>
        <time>2020-06-24T17:44:30Z</time>
      </trkpt>
      <trkpt lat="50.05523" lon="4.2964">
        <ele>247.2</ele>
        <time>2020-06-24T17:44:31Z</time>
      </trkpt>
      <trkpt lat="50.05518" lon="4.29644">
        <ele>247.3</ele>
        <time>2020-06-24T17:44:32Z</time>
      </trkpt>
      <trkpt lat="50.05512" lon="4.29649">
        <ele>247.4</ele>
        <time>2020-06-24T17:44:33Z</time>
      </trkpt>
      <trkpt lat="50.05506" lon="4.29654">
        <ele>247.5</ele>
        <time>2020-06-24T17:44:34Z</time>
      </trkpt>
      <trkpt lat="50.055" lon="4.29659">
        <ele>247.6</ele>
        <time>2020-06-24T17:44:35Z</time>
      </trkpt>
      <trkpt lat="50.05494" lon="4.29664">
        <ele>247.8</ele>
        <time>2020-06-24T17:44:36Z</time>
      </trkpt>
      <trkpt lat="50.05488" lon="4.29668">
        <ele>247.9</ele>
        <time>2020-06-24T17:44:37Z</time>
      </trkpt>
      <trkpt lat="50.05482" lon="4.29672">
        <ele>248.1</ele>
        <time>2020-06-24T17:44:38Z</time>
      </trkpt>
      <trkpt lat="50.05476" lon="4.29676">
        <ele>248.2</ele>
        <time>2020-06-24T17:44:39Z</time>
      </trkpt>
      <trkpt lat="50.0547" lon="4.2968">
        <ele>248.4</ele>
        <time>2020-06-24T17:44:40Z</time>
      </trkpt>
      <trkpt lat="50.05465" lon="4.29683">
        <ele>248.5</ele>
        <time>2020-06-24T17:44:41Z</time>
      </trkpt>
      <trkpt lat="50.05459" lon="4.29685">
        <ele>248.6</ele>
        <time>2020-06-24T17:44:42Z</time>
      </trkpt>
      <trkpt lat="50.05454" lon="4.29687">
        <ele>248.7</ele>
        <time>2020-06-24T17:44:43Z</time>
      </trkpt>
      <trkpt lat="50.05448" lon="4.29688">
        <ele>248.8</ele>
        <time>2020-06-24T17:44:44Z</time>
      </trkpt>
      <trkpt lat="50.05442" lon="4.29689">
        <ele>248.9</ele>
        <time>2020-06-24T17:44:45Z</time>
      </trkpt>
      <trkpt lat="50.05436" lon="4.29691">
        <ele>249</ele>
        <time>2020-06-24T17:44:46Z</time>
      </trkpt>
      <trkpt lat="50.0543" lon="4.29692">
        <ele>249.1</ele>
        <time>2020-06-24T17:44:47Z</time>
      </trkpt>
      <trkpt lat="50.05424" lon="4.29694">
        <ele>249.3</ele>
        <time>2020-06-24T17:44:48Z</time>
      </trkpt>
      <trkpt lat="50.05419" lon="4.29695">
        <ele>249.4</ele>
        <time>2020-06-24T17:44:49Z</time>
      </trkpt>
      <trkpt lat="50.05413" lon="4.29696">
        <ele>249.5</ele>
        <time>2020-06-24T17:44:50Z</time>
      </trkpt>
      <trkpt lat="50.05408" lon="4.29697">
        <ele>249.6</ele>
        <time>2020-06-24T17:44:51Z</time>
      </trkpt>
      <trkpt lat="50.05401" lon="4.29699">
        <ele>249.7</ele>
        <time>2020-06-24T17:44:52Z</time>
      </trkpt>
      <trkpt lat="50.05396" lon="4.297">
        <ele>249.8</ele>
        <time>2020-06-24T17:44:53Z</time>
      </trkpt>
      <trkpt lat="50.0539" lon="4.29701">
        <ele>249.8</ele>
        <time>2020-06-24T17:44:54Z</time>
      </trkpt>
      <trkpt lat="50.05385" lon="4.29702">
        <ele>249.8</ele>
        <time>2020-06-24T17:44:55Z</time>
      </trkpt>
      <trkpt lat="50.05381" lon="4.29703">
        <ele>249.8</ele>
        <time>2020-06-24T17:44:56Z</time>
      </trkpt>
      <trkpt lat="50.05376" lon="4.29704">
        <ele>249.7</ele>
        <time>2020-06-24T17:44:57Z</time>
      </trkpt>
      <trkpt lat="50.05372" lon="4.29705">
        <ele>249.7</ele>
        <time>2020-06-24T17:44:58Z</time>
      </trkpt>
      <trkpt lat="50.05368" lon="4.29706">
        <ele>249.7</ele>
        <time>2020-06-24T17:44:59Z</time>
      </trkpt>
      <trkpt lat="50.05363" lon="4.29707">
        <ele>249.6</ele>
        <time>2020-06-24T17:45:00Z</time>
      </trkpt>
      <trkpt lat="50.05359" lon="4.29708">
        <ele>249.5</ele>
        <time>2020-06-24T17:45:01Z</time>
      </trkpt>
      <trkpt lat="50.05355" lon="4.29709">
        <ele>249.5</ele>
        <time>2020-06-24T17:45:02Z</time>
      </trkpt>
      <trkpt lat="50.05351" lon="4.2971">
        <ele>249.4</ele>
        <time>2020-06-24T17:45:03Z</time>
      </trkpt>
      <trkpt lat="50.05348" lon="4.29713">
        <ele>249.4</ele>
        <time>2020-06-24T17:45:04Z</time>
      </trkpt>
      <trkpt lat="50.05345" lon="4.29715">
        <ele>249.3</ele>
        <time>2020-06-24T17:45:05Z</time>
      </trkpt>
      <trkpt lat="50.05343" lon="4.29717">
        <ele>249.2</ele>
        <time>2020-06-24T17:45:06Z</time>
      </trkpt>
      <trkpt lat="50.05339" lon="4.29718">
        <ele>249.1</ele>
        <time>2020-06-24T17:45:07Z</time>
      </trkpt>
      <trkpt lat="50.05335" lon="4.29716">
        <ele>249.1</ele>
        <time>2020-06-24T17:45:08Z</time>
      </trkpt>
      <trkpt lat="50.05331" lon="4.29715">
        <ele>249.1</ele>
        <time>2020-06-24T17:45:09Z</time>
      </trkpt>
      <trkpt lat="50.05327" lon="4.29715">
        <ele>249.1</ele>
        <time>2020-06-24T17:45:10Z</time>
      </trkpt>
      <trkpt lat="50.05324" lon="4.29716">
        <ele>249.1</ele>
        <time>2020-06-24T17:45:11Z</time>
      </trkpt>
      <trkpt lat="50.0532" lon="4.29716">
        <ele>249.1</ele>
        <time>2020-06-24T17:45:12Z</time>
      </trkpt>
      <trkpt lat="50.05315" lon="4.29717">
        <ele>249.1</ele>
        <time>2020-06-24T17:45:13Z</time>
      </trkpt>
      <trkpt lat="50.05311" lon="4.29718">
        <ele>249.1</ele>
        <time>2020-06-24T17:45:14Z</time>
      </trkpt>
      <trkpt lat="50.05308" lon="4.29718">
        <ele>249.2</ele>
        <time>2020-06-24T17:45:15Z</time>
      </trkpt>
      <trkpt lat="50.05303" lon="4.29719">
        <ele>249.2</ele>
        <time>2020-06-24T17:45:16Z</time>
      </trkpt>
      <trkpt lat="50.05299" lon="4.2972">
        <ele>249.2</ele>
        <time>2020-06-24T17:45:17Z</time>
      </trkpt>
      <trkpt lat="50.05295" lon="4.29721">
        <ele>249.2</ele>
        <time>2020-06-24T17:45:18Z</time>
      </trkpt>
      <trkpt lat="50.05291" lon="4.29722">
        <ele>249.1</ele>
        <time>2020-06-24T17:45:19Z</time>
      </trkpt>
      <trkpt lat="50.05287" lon="4.29723">
        <ele>249.1</ele>
        <time>2020-06-24T17:45:20Z</time>
      </trkpt>
      <trkpt lat="50.05283" lon="4.29724">
        <ele>249.1</ele>
        <time>2020-06-24T17:45:21Z</time>
      </trkpt>
      <trkpt lat="50.0528" lon="4.29725">
        <ele>249.1</ele>
        <time>2020-06-24T17:45:22Z</time>
      </trkpt>
      <trkpt lat="50.05276" lon="4.29725">
        <ele>249.1</ele>
        <time>2020-06-24T17:45:23Z</time>
      </trkpt>
      <trkpt lat="50.05272" lon="4.29726">
        <ele>249.1</ele>
        <time>2020-06-24T17:45:24Z</time>
      </trkpt>
      <trkpt lat="50.05268" lon="4.29726">
        <ele>249.1</ele>
        <time>2020-06-24T17:45:25Z</time>
      </trkpt>
      <trkpt lat="50.05265" lon="4.29726">
        <ele>249.1</ele>
        <time>2020-06-24T17:45:26Z</time>
      </trkpt>
      <trkpt lat="50.05262" lon="4.29729">
        <ele>249.1</ele>
        <time>2020-06-24T17:45:27Z</time>
      </trkpt>
      <trkpt lat="50.05261" lon="4.2973">
        <ele>249</ele>
        <time>2020-06-24T17:45:28Z</time>
      </trkpt>
      <trkpt lat="50.05259" lon="4.29735">
        <ele>249</ele>
        <time>2020-06-24T17:45:29Z</time>
      </trkpt>
      <trkpt lat="50.05258" lon="4.29741">
        <ele>248.9</ele>
        <time>2020-06-24T17:45:30Z</time>
      </trkpt>
      <trkpt lat="50.05257" lon="4.29747">
        <ele>248.9</ele>
        <time>2020-06-24T17:45:31Z</time>
      </trkpt>
      <trkpt lat="50.05255" lon="4.29755">
        <ele>248.8</ele>
        <time>2020-06-24T17:45:32Z</time>
      </trkpt>
      <trkpt lat="50.05254" lon="4.29761">
        <ele>248.7</ele>
        <time>2020-06-24T17:45:33Z</time>
      </trkpt>
      <trkpt lat="50.05253" lon="4.29768">
        <ele>248.6</ele>
        <time>2020-06-24T17:45:34Z</time>
      </trkpt>
      <trkpt lat="50.05251" lon="4.29776">
        <ele>248.5</ele>
        <time>2020-06-24T17:45:35Z</time>
      </trkpt>
      <trkpt lat="50.0525" lon="4.29784">
        <ele>248.5</ele>
        <time>2020-06-24T17:45:36Z</time>
      </trkpt>
      <trkpt lat="50.05248" lon="4.29792">
        <ele>248.4</ele>
        <time>2020-06-24T17:45:37Z</time>
      </trkpt>
      <trkpt lat="50.05246" lon="4.29801">
        <ele>248.4</ele>
        <time>2020-06-24T17:45:38Z</time>
      </trkpt>
      <trkpt lat="50.05244" lon="4.2981">
        <ele>248.3</ele>
        <time>2020-06-24T17:45:39Z</time>
      </trkpt>
      <trkpt lat="50.05242" lon="4.29818">
        <ele>248.3</ele>
        <time>2020-06-24T17:45:40Z</time>
      </trkpt>
      <trkpt lat="50.05241" lon="4.29827">
        <ele>248.3</ele>
        <time>2020-06-24T17:45:41Z</time>
      </trkpt>
      <trkpt lat="50.05239" lon="4.29836">
        <ele>248.3</ele>
        <time>2020-06-24T17:45:42Z</time>
      </trkpt>
      <trkpt lat="50.05237" lon="4.29845">
        <ele>248.3</ele>
        <time>2020-06-24T17:45:43Z</time>
      </trkpt>
      <trkpt lat="50.05236" lon="4.29853">
        <ele>248.3</ele>
        <time>2020-06-24T17:45:44Z</time>
      </trkpt>
      <trkpt lat="50.05234" lon="4.29861">
        <ele>248.3</ele>
        <time>2020-06-24T17:45:45Z</time>
      </trkpt>
      <trkpt lat="50.05232" lon="4.29869">
        <ele>248.3</ele>
        <time>2020-06-24T17:45:46Z</time>
      </trkpt>
      <trkpt lat="50.05231" lon="4.29875">
        <ele>248.3</ele>
        <time>2020-06-24T17:45:47Z</time>
      </trkpt>
      <trkpt lat="50.0523" lon="4.29881">
        <ele>248.3</ele>
        <time>2020-06-24T17:45:48Z</time>
      </trkpt>
      <trkpt lat="50.05229" lon="4.29885">
        <ele>248.3</ele>
        <time>2020-06-24T17:45:49Z</time>
      </trkpt>
      <trkpt lat="50.05227" lon="4.29889">
        <ele>248.3</ele>
        <time>2020-06-24T17:45:50Z</time>
      </trkpt>
      <trkpt lat="50.05224" lon="4.29892">
        <ele>248.2</ele>
        <time>2020-06-24T17:45:51Z</time>
      </trkpt>
      <trkpt lat="50.05223" lon="4.29893">
        <ele>248.2</ele>
        <time>2020-06-24T17:45:52Z</time>
      </trkpt>
      <trkpt lat="50.05221" lon="4.29892">
        <ele>248.2</ele>
        <time>2020-06-24T17:45:53Z</time>
      </trkpt>
      <trkpt lat="50.0522" lon="4.29891">
        <ele>248.1</ele>
        <time>2020-06-24T17:45:54Z</time>
      </trkpt>
      <trkpt lat="50.05219" lon="4.29889">
        <ele>248.1</ele>
        <time>2020-06-24T17:45:55Z</time>
      </trkpt>
      <trkpt lat="50.05217" lon="4.2989">
        <ele>248.1</ele>
        <time>2020-06-24T17:45:56Z</time>
      </trkpt>
      <trkpt lat="50.05215" lon="4.29891">
        <ele>248</ele>
        <time>2020-06-24T17:45:57Z</time>
      </trkpt>
      <trkpt lat="50.05213" lon="4.2989">
        <ele>248</ele>
        <time>2020-06-24T17:45:58Z</time>
      </trkpt>
      <trkpt lat="50.05211" lon="4.29892">
        <ele>247.9</ele>
        <time>2020-06-24T17:45:59Z</time>
      </trkpt>
      <trkpt lat="50.0521" lon="4.29894">
        <ele>247.8</ele>
        <time>2020-06-24T17:46:00Z</time>
      </trkpt>
      <trkpt lat="50.05208" lon="4.29897">
        <ele>247.7</ele>
        <time>2020-06-24T17:46:01Z</time>
      </trkpt>
      <trkpt lat="50.05205" lon="4.299">
        <ele>247.6</ele>
        <time>2020-06-24T17:46:02Z</time>
      </trkpt>
      <trkpt lat="50.05202" lon="4.29904">
        <ele>247.4</ele>
        <time>2020-06-24T17:46:03Z</time>
      </trkpt>
      <trkpt lat="50.05197" lon="4.29908">
        <ele>247.2</ele>
        <time>2020-06-24T17:46:04Z</time>
      </trkpt>
      <trkpt lat="50.05193" lon="4.29911">
        <ele>247</ele>
        <time>2020-06-24T17:46:05Z</time>
      </trkpt>
      <trkpt lat="50.05188" lon="4.29915">
        <ele>246.8</ele>
        <time>2020-06-24T17:46:06Z</time>
      </trkpt>
      <trkpt lat="50.05183" lon="4.29919">
        <ele>246.5</ele>
        <time>2020-06-24T17:46:07Z</time>
      </trkpt>
      <trkpt lat="50.05178" lon="4.29923">
        <ele>246.3</ele>
        <time>2020-06-24T17:46:08Z</time>
      </trkpt>
      <trkpt lat="50.05173" lon="4.29929">
        <ele>246.1</ele>
        <time>2020-06-24T17:46:09Z</time>
      </trkpt>
      <trkpt lat="50.05167" lon="4.29934">
        <ele>245.8</ele>
        <time>2020-06-24T17:46:10Z</time>
      </trkpt>
      <trkpt lat="50.05162" lon="4.29939">
        <ele>245.5</ele>
        <time>2020-06-24T17:46:11Z</time>
      </trkpt>
      <trkpt lat="50.05156" lon="4.29944">
        <ele>245.1</ele>
        <time>2020-06-24T17:46:12Z</time>
      </trkpt>
      <trkpt lat="50.0515" lon="4.29949">
        <ele>244.7</ele>
        <time>2020-06-24T17:46:13Z</time>
      </trkpt>
      <trkpt lat="50.05144" lon="4.29955">
        <ele>244.3</ele>
        <time>2020-06-24T17:46:14Z</time>
      </trkpt>
      <trkpt lat="50.05137" lon="4.29961">
        <ele>243.8</ele>
        <time>2020-06-24T17:46:15Z</time>
      </trkpt>
      <trkpt lat="50.0513" lon="4.29966">
        <ele>243.3</ele>
        <time>2020-06-24T17:46:16Z</time>
      </trkpt>
      <trkpt lat="50.05123" lon="4.29972">
        <ele>242.7</ele>
        <time>2020-06-24T17:46:17Z</time>
      </trkpt>
      <trkpt lat="50.05116" lon="4.29979">
        <ele>242</ele>
        <time>2020-06-24T17:46:18Z</time>
      </trkpt>
      <trkpt lat="50.05109" lon="4.29985">
        <ele>241.3</ele>
        <time>2020-06-24T17:46:19Z</time>
      </trkpt>
      <trkpt lat="50.05101" lon="4.29992">
        <ele>240.6</ele>
        <time>2020-06-24T17:46:20Z</time>
      </trkpt>
      <trkpt lat="50.05093" lon="4.3">
        <ele>239.9</ele>
        <time>2020-06-24T17:46:21Z</time>
      </trkpt>
      <trkpt lat="50.05085" lon="4.30008">
        <ele>239.2</ele>
        <time>2020-06-24T17:46:22Z</time>
      </trkpt>
      <trkpt lat="50.05076" lon="4.30016">
        <ele>238.7</ele>
        <time>2020-06-24T17:46:23Z</time>
      </trkpt>
      <trkpt lat="50.05067" lon="4.30024">
        <ele>238.3</ele>
        <time>2020-06-24T17:46:24Z</time>
      </trkpt>
      <trkpt lat="50.05057" lon="4.30032">
        <ele>238</ele>
        <time>2020-06-24T17:46:25Z</time>
      </trkpt>
      <trkpt lat="50.05048" lon="4.3004">
        <ele>237.8</ele>
        <time>2020-06-24T17:46:26Z</time>
      </trkpt>
      <trkpt lat="50.05039" lon="4.30046">
        <ele>237.7</ele>
        <time>2020-06-24T17:46:27Z</time>
      </trkpt>
      <trkpt lat="50.0503" lon="4.30052">
        <ele>237.5</ele>
        <time>2020-06-24T17:46:28Z</time>
      </trkpt>
      <trkpt lat="50.05023" lon="4.30058">
        <ele>237.3</ele>
        <time>2020-06-24T17:46:29Z</time>
      </trkpt>
      <trkpt lat="50.05014" lon="4.30064">
        <ele>237.1</ele>
        <time>2020-06-24T17:46:30Z</time>
      </trkpt>
      <trkpt lat="50.05006" lon="4.30071">
        <ele>236.9</ele>
        <time>2020-06-24T17:46:31Z</time>
      </trkpt>
      <trkpt lat="50.04998" lon="4.30077">
        <ele>236.7</ele>
        <time>2020-06-24T17:46:32Z</time>
      </trkpt>
      <trkpt lat="50.0499" lon="4.30085">
        <ele>236.5</ele>
        <time>2020-06-24T17:46:33Z</time>
      </trkpt>
      <trkpt lat="50.04981" lon="4.30091">
        <ele>236.4</ele>
        <time>2020-06-24T17:46:34Z</time>
      </trkpt>
      <trkpt lat="50.04974" lon="4.30097">
        <ele>236.2</ele>
        <time>2020-06-24T17:46:35Z</time>
      </trkpt>
      <trkpt lat="50.04966" lon="4.30104">
        <ele>236.1</ele>
        <time>2020-06-24T17:46:36Z</time>
      </trkpt>
      <trkpt lat="50.04959" lon="4.3011">
        <ele>235.9</ele>
        <time>2020-06-24T17:46:37Z</time>
      </trkpt>
      <trkpt lat="50.04951" lon="4.30117">
        <ele>235.8</ele>
        <time>2020-06-24T17:46:38Z</time>
      </trkpt>
      <trkpt lat="50.04944" lon="4.30123">
        <ele>235.7</ele>
        <time>2020-06-24T17:46:39Z</time>
      </trkpt>
      <trkpt lat="50.04936" lon="4.30129">
        <ele>235.5</ele>
        <time>2020-06-24T17:46:40Z</time>
      </trkpt>
      <trkpt lat="50.04928" lon="4.30134">
        <ele>235.3</ele>
        <time>2020-06-24T17:46:41Z</time>
      </trkpt>
      <trkpt lat="50.04921" lon="4.3014">
        <ele>235.1</ele>
        <time>2020-06-24T17:46:42Z</time>
      </trkpt>
      <trkpt lat="50.04913" lon="4.30146">
        <ele>235</ele>
        <time>2020-06-24T17:46:43Z</time>
      </trkpt>
      <trkpt lat="50.04905" lon="4.30153">
        <ele>234.9</ele>
        <time>2020-06-24T17:46:44Z</time>
      </trkpt>
      <trkpt lat="50.04898" lon="4.30159">
        <ele>234.8</ele>
        <time>2020-06-24T17:46:45Z</time>
      </trkpt>
      <trkpt lat="50.0489" lon="4.30165">
        <ele>234.7</ele>
        <time>2020-06-24T17:46:46Z</time>
      </trkpt>
      <trkpt lat="50.04883" lon="4.30171">
        <ele>234.6</ele>
        <time>2020-06-24T17:46:47Z</time>
      </trkpt>
      <trkpt lat="50.04876" lon="4.30177">
        <ele>234.4</ele>
        <time>2020-06-24T17:46:48Z</time>
      </trkpt>
      <trkpt lat="50.04869" lon="4.30182">
        <ele>234.2</ele>
        <time>2020-06-24T17:46:49Z</time>
      </trkpt>
      <trkpt lat="50.04861" lon="4.30188">
        <ele>234.1</ele>
        <time>2020-06-24T17:46:50Z</time>
      </trkpt>
      <trkpt lat="50.04854" lon="4.30195">
        <ele>233.9</ele>
        <time>2020-06-24T17:46:51Z</time>
      </trkpt>
      <trkpt lat="50.04847" lon="4.302">
        <ele>233.8</ele>
        <time>2020-06-24T17:46:52Z</time>
      </trkpt>
      <trkpt lat="50.04839" lon="4.30206">
        <ele>233.7</ele>
        <time>2020-06-24T17:46:53Z</time>
      </trkpt>
      <trkpt lat="50.04831" lon="4.30213">
        <ele>233.6</ele>
        <time>2020-06-24T17:46:54Z</time>
      </trkpt>
      <trkpt lat="50.04824" lon="4.30221">
        <ele>233.4</ele>
        <time>2020-06-24T17:46:55Z</time>
      </trkpt>
      <trkpt lat="50.04816" lon="4.30228">
        <ele>233.3</ele>
        <time>2020-06-24T17:46:56Z</time>
      </trkpt>
      <trkpt lat="50.04809" lon="4.30236">
        <ele>233.2</ele>
        <time>2020-06-24T17:46:57Z</time>
      </trkpt>
      <trkpt lat="50.04802" lon="4.30243">
        <ele>233.1</ele>
        <time>2020-06-24T17:46:58Z</time>
      </trkpt>
      <trkpt lat="50.04795" lon="4.30251">
        <ele>233</ele>
        <time>2020-06-24T17:46:59Z</time>
      </trkpt>
      <trkpt lat="50.04787" lon="4.30259">
        <ele>232.9</ele>
        <time>2020-06-24T17:47:00Z</time>
      </trkpt>
      <trkpt lat="50.04782" lon="4.30268">
        <ele>232.8</ele>
        <time>2020-06-24T17:47:01Z</time>
      </trkpt>
      <trkpt lat="50.04776" lon="4.30279">
        <ele>232.7</ele>
        <time>2020-06-24T17:47:02Z</time>
      </trkpt>
      <trkpt lat="50.04771" lon="4.30289">
        <ele>232.6</ele>
        <time>2020-06-24T17:47:03Z</time>
      </trkpt>
      <trkpt lat="50.04766" lon="4.30299">
        <ele>232.5</ele>
        <time>2020-06-24T17:47:04Z</time>
      </trkpt>
      <trkpt lat="50.04761" lon="4.30308">
        <ele>232.4</ele>
        <time>2020-06-24T17:47:05Z</time>
      </trkpt>
      <trkpt lat="50.04755" lon="4.30316">
        <ele>232.3</ele>
        <time>2020-06-24T17:47:06Z</time>
      </trkpt>
      <trkpt lat="50.04749" lon="4.30325">
        <ele>232.3</ele>
        <time>2020-06-24T17:47:07Z</time>
      </trkpt>
      <trkpt lat="50.04744" lon="4.30333">
        <ele>232.3</ele>
        <time>2020-06-24T17:47:08Z</time>
      </trkpt>
      <trkpt lat="50.04739" lon="4.3034">
        <ele>232.2</ele>
        <time>2020-06-24T17:47:09Z</time>
      </trkpt>
      <trkpt lat="50.04733" lon="4.30347">
        <ele>232.2</ele>
        <time>2020-06-24T17:47:10Z</time>
      </trkpt>
      <trkpt lat="50.04729" lon="4.30352">
        <ele>232.1</ele>
        <time>2020-06-24T17:47:11Z</time>
      </trkpt>
      <trkpt lat="50.04725" lon="4.30357">
        <ele>232.1</ele>
        <time>2020-06-24T17:47:12Z</time>
      </trkpt>
      <trkpt lat="50.04723" lon="4.30361">
        <ele>232.1</ele>
        <time>2020-06-24T17:47:13Z</time>
      </trkpt>
      <trkpt lat="50.0472" lon="4.30366">
        <ele>232</ele>
        <time>2020-06-24T17:47:14Z</time>
      </trkpt>
      <trkpt lat="50.04719" lon="4.30368">
        <ele>232</ele>
        <time>2020-06-24T17:47:15Z</time>
      </trkpt>
      <trkpt lat="50.04717" lon="4.30371">
        <ele>231.9</ele>
        <time>2020-06-24T17:47:16Z</time>
      </trkpt>
      <trkpt lat="50.04714" lon="4.30375">
        <ele>231.8</ele>
        <time>2020-06-24T17:47:17Z</time>
      </trkpt>
      <trkpt lat="50.04713" lon="4.30377">
        <ele>231.8</ele>
        <time>2020-06-24T17:47:18Z</time>
      </trkpt>
      <trkpt lat="50.04711" lon="4.30381">
        <ele>231.8</ele>
        <time>2020-06-24T17:47:19Z</time>
      </trkpt>
      <trkpt lat="50.04708" lon="4.30385">
        <ele>231.7</ele>
        <time>2020-06-24T17:47:20Z</time>
      </trkpt>
      <trkpt lat="50.04707" lon="4.30388">
        <ele>231.7</ele>
        <time>2020-06-24T17:47:21Z</time>
      </trkpt>
      <trkpt lat="50.04703" lon="4.30389">
        <ele>231.6</ele>
        <time>2020-06-24T17:47:22Z</time>
      </trkpt>
      <trkpt lat="50.04702" lon="4.30389">
        <ele>231.6</ele>
        <time>2020-06-24T17:47:23Z</time>
      </trkpt>
      <trkpt lat="50.04701" lon="4.30394">
        <ele>231.4</ele>
        <time>2020-06-24T17:47:24Z</time>
      </trkpt>
      <trkpt lat="50.04701" lon="4.30397">
        <ele>231.4</ele>
        <time>2020-06-24T17:47:25Z</time>
      </trkpt>
      <trkpt lat="50.04698" lon="4.30401">
        <ele>231.3</ele>
        <time>2020-06-24T17:47:26Z</time>
      </trkpt>
      <trkpt lat="50.04695" lon="4.30406">
        <ele>231.2</ele>
        <time>2020-06-24T17:47:27Z</time>
      </trkpt>
      <trkpt lat="50.04693" lon="4.30411">
        <ele>231</ele>
        <time>2020-06-24T17:47:28Z</time>
      </trkpt>
      <trkpt lat="50.0469" lon="4.30418">
        <ele>230.9</ele>
        <time>2020-06-24T17:47:29Z</time>
      </trkpt>
      <trkpt lat="50.04686" lon="4.30425">
        <ele>230.7</ele>
        <time>2020-06-24T17:47:30Z</time>
      </trkpt>
      <trkpt lat="50.04683" lon="4.30432">
        <ele>230.6</ele>
        <time>2020-06-24T17:47:31Z</time>
      </trkpt>
      <trkpt lat="50.0468" lon="4.30441">
        <ele>230.4</ele>
        <time>2020-06-24T17:47:32Z</time>
      </trkpt>
      <trkpt lat="50.04676" lon="4.3045">
        <ele>230.3</ele>
        <time>2020-06-24T17:47:33Z</time>
      </trkpt>
      <trkpt lat="50.04671" lon="4.30459">
        <ele>230.1</ele>
        <time>2020-06-24T17:47:34Z</time>
      </trkpt>
      <trkpt lat="50.04666" lon="4.30466">
        <ele>230</ele>
        <time>2020-06-24T17:47:35Z</time>
      </trkpt>
      <trkpt lat="50.04662" lon="4.30477">
        <ele>229.9</ele>
        <time>2020-06-24T17:47:36Z</time>
      </trkpt>
      <trkpt lat="50.04658" lon="4.30489">
        <ele>229.8</ele>
        <time>2020-06-24T17:47:37Z</time>
      </trkpt>
      <trkpt lat="50.04653" lon="4.305">
        <ele>229.7</ele>
        <time>2020-06-24T17:47:38Z</time>
      </trkpt>
      <trkpt lat="50.04648" lon="4.30511">
        <ele>229.7</ele>
        <time>2020-06-24T17:47:39Z</time>
      </trkpt>
      <trkpt lat="50.04643" lon="4.30523">
        <ele>229.7</ele>
        <time>2020-06-24T17:47:40Z</time>
      </trkpt>
      <trkpt lat="50.04639" lon="4.30534">
        <ele>229.7</ele>
        <time>2020-06-24T17:47:41Z</time>
      </trkpt>
      <trkpt lat="50.04635" lon="4.30547">
        <ele>229.8</ele>
        <time>2020-06-24T17:47:42Z</time>
      </trkpt>
      <trkpt lat="50.04631" lon="4.30558">
        <ele>229.8</ele>
        <time>2020-06-24T17:47:43Z</time>
      </trkpt>
      <trkpt lat="50.04627" lon="4.30571">
        <ele>229.8</ele>
        <time>2020-06-24T17:47:44Z</time>
      </trkpt>
      <trkpt lat="50.04624" lon="4.30583">
        <ele>229.8</ele>
        <time>2020-06-24T17:47:45Z</time>
      </trkpt>
      <trkpt lat="50.0462" lon="4.30594">
        <ele>229.8</ele>
        <time>2020-06-24T17:47:46Z</time>
      </trkpt>
      <trkpt lat="50.04617" lon="4.30607">
        <ele>229.7</ele>
        <time>2020-06-24T17:47:47Z</time>
      </trkpt>
      <trkpt lat="50.04614" lon="4.30619">
        <ele>229.6</ele>
        <time>2020-06-24T17:47:48Z</time>
      </trkpt>
      <trkpt lat="50.04612" lon="4.3063">
        <ele>229.5</ele>
        <time>2020-06-24T17:47:49Z</time>
      </trkpt>
      <trkpt lat="50.0461" lon="4.3064">
        <ele>229.4</ele>
        <time>2020-06-24T17:47:50Z</time>
      </trkpt>
      <trkpt lat="50.04608" lon="4.30649">
        <ele>229.2</ele>
        <time>2020-06-24T17:47:51Z</time>
      </trkpt>
      <trkpt lat="50.04606" lon="4.3066">
        <ele>228.9</ele>
        <time>2020-06-24T17:47:52Z</time>
      </trkpt>
      <trkpt lat="50.04604" lon="4.30671">
        <ele>228.6</ele>
        <time>2020-06-24T17:47:53Z</time>
      </trkpt>
      <trkpt lat="50.04602" lon="4.30683">
        <ele>228.3</ele>
        <time>2020-06-24T17:47:54Z</time>
      </trkpt>
      <trkpt lat="50.046" lon="4.30694">
        <ele>228</ele>
        <time>2020-06-24T17:47:55Z</time>
      </trkpt>
      <trkpt lat="50.04599" lon="4.30704">
        <ele>227.7</ele>
        <time>2020-06-24T17:47:56Z</time>
      </trkpt>
      <trkpt lat="50.04598" lon="4.30713">
        <ele>227.4</ele>
        <time>2020-06-24T17:47:57Z</time>
      </trkpt>
      <trkpt lat="50.04597" lon="4.30719">
        <ele>227.1</ele>
        <time>2020-06-24T17:47:58Z</time>
      </trkpt>
      <trkpt lat="50.04596" lon="4.30723">
        <ele>226.9</ele>
        <time>2020-06-24T17:47:59Z</time>
      </trkpt>
      <trkpt lat="50.04595" lon="4.30728">
        <ele>226.7</ele>
        <time>2020-06-24T17:48:00Z</time>
      </trkpt>
      <trkpt lat="50.04596" lon="4.30731">
        <ele>226.6</ele>
        <time>2020-06-24T17:48:01Z</time>
      </trkpt>
      <trkpt lat="50.04595" lon="4.30735">
        <ele>226.4</ele>
        <time>2020-06-24T17:48:02Z</time>
      </trkpt>
      <trkpt lat="50.04595" lon="4.30738">
        <ele>226.4</ele>
        <time>2020-06-24T17:48:03Z</time>
      </trkpt>
      <trkpt lat="50.04592" lon="4.30743">
        <ele>226.1</ele>
        <time>2020-06-24T17:48:04Z</time>
      </trkpt>
      <trkpt lat="50.0459" lon="4.30747">
        <ele>226</ele>
        <time>2020-06-24T17:48:05Z</time>
      </trkpt>
      <trkpt lat="50.04587" lon="4.30751">
        <ele>225.8</ele>
        <time>2020-06-24T17:48:06Z</time>
      </trkpt>
      <trkpt lat="50.04586" lon="4.30753">
        <ele>225.8</ele>
        <time>2020-06-24T17:48:07Z</time>
      </trkpt>
      <trkpt lat="50.04584" lon="4.30757">
        <ele>225.8</ele>
        <time>2020-06-24T17:48:08Z</time>
      </trkpt>
      <trkpt lat="50.04584" lon="4.30759">
        <ele>225.8</ele>
        <time>2020-06-24T17:48:09Z</time>
      </trkpt>
      <trkpt lat="50.04585" lon="4.30766">
        <ele>225.9</ele>
        <time>2020-06-24T17:48:10Z</time>
      </trkpt>
      <trkpt lat="50.04589" lon="4.30771">
        <ele>226</ele>
        <time>2020-06-24T17:48:11Z</time>
      </trkpt>
      <trkpt lat="50.04591" lon="4.30776">
        <ele>226.1</ele>
        <time>2020-06-24T17:48:12Z</time>
      </trkpt>
      <trkpt lat="50.04593" lon="4.30783">
        <ele>226.2</ele>
        <time>2020-06-24T17:48:13Z</time>
      </trkpt>
      <trkpt lat="50.04594" lon="4.30791">
        <ele>226.5</ele>
        <time>2020-06-24T17:48:14Z</time>
      </trkpt>
      <trkpt lat="50.04594" lon="4.30798">
        <ele>226.7</ele>
        <time>2020-06-24T17:48:15Z</time>
      </trkpt>
      <trkpt lat="50.04593" lon="4.30806">
        <ele>227</ele>
        <time>2020-06-24T17:48:16Z</time>
      </trkpt>
      <trkpt lat="50.04592" lon="4.30814">
        <ele>227.3</ele>
        <time>2020-06-24T17:48:17Z</time>
      </trkpt>
      <trkpt lat="50.04591" lon="4.30823">
        <ele>227.6</ele>
        <time>2020-06-24T17:48:18Z</time>
      </trkpt>
      <trkpt lat="50.04589" lon="4.30831">
        <ele>227.9</ele>
        <time>2020-06-24T17:48:19Z</time>
      </trkpt>
      <trkpt lat="50.04588" lon="4.30841">
        <ele>228.3</ele>
        <time>2020-06-24T17:48:20Z</time>
      </trkpt>
      <trkpt lat="50.04587" lon="4.3085">
        <ele>228.7</ele>
        <time>2020-06-24T17:48:21Z</time>
      </trkpt>
      <trkpt lat="50.04586" lon="4.30859">
        <ele>229.1</ele>
        <time>2020-06-24T17:48:22Z</time>
      </trkpt>
      <trkpt lat="50.04585" lon="4.30867">
        <ele>229.4</ele>
        <time>2020-06-24T17:48:23Z</time>
      </trkpt>
      <trkpt lat="50.04584" lon="4.30876">
        <ele>229.8</ele>
        <time>2020-06-24T17:48:24Z</time>
      </trkpt>
      <trkpt lat="50.04583" lon="4.30884">
        <ele>230.2</ele>
        <time>2020-06-24T17:48:25Z</time>
      </trkpt>
      <trkpt lat="50.04582" lon="4.30891">
        <ele>230.5</ele>
        <time>2020-06-24T17:48:26Z</time>
      </trkpt>
      <trkpt lat="50.04581" lon="4.30899">
        <ele>230.9</ele>
        <time>2020-06-24T17:48:27Z</time>
      </trkpt>
      <trkpt lat="50.04579" lon="4.30907">
        <ele>231.3</ele>
        <time>2020-06-24T17:48:28Z</time>
      </trkpt>
      <trkpt lat="50.04578" lon="4.30915">
        <ele>231.6</ele>
        <time>2020-06-24T17:48:29Z</time>
      </trkpt>
      <trkpt lat="50.04577" lon="4.30923">
        <ele>232</ele>
        <time>2020-06-24T17:48:30Z</time>
      </trkpt>
      <trkpt lat="50.04577" lon="4.30931">
        <ele>232.3</ele>
        <time>2020-06-24T17:48:31Z</time>
      </trkpt>
      <trkpt lat="50.04577" lon="4.30939">
        <ele>232.7</ele>
        <time>2020-06-24T17:48:32Z</time>
      </trkpt>
      <trkpt lat="50.04577" lon="4.30947">
        <ele>233</ele>
        <time>2020-06-24T17:48:33Z</time>
      </trkpt>
      <trkpt lat="50.04576" lon="4.30955">
        <ele>233.2</ele>
        <time>2020-06-24T17:48:34Z</time>
      </trkpt>
      <trkpt lat="50.04576" lon="4.30962">
        <ele>233.4</ele>
        <time>2020-06-24T17:48:35Z</time>
      </trkpt>
      <trkpt lat="50.04575" lon="4.30968">
        <ele>233.4</ele>
        <time>2020-06-24T17:48:36Z</time>
      </trkpt>
      <trkpt lat="50.04576" lon="4.30972">
        <ele>233.4</ele>
        <time>2020-06-24T17:48:37Z</time>
      </trkpt>
      <trkpt lat="50.04576" lon="4.30976">
        <ele>233.4</ele>
        <time>2020-06-24T17:48:38Z</time>
      </trkpt>
      <trkpt lat="50.04576" lon="4.30982">
        <ele>233.4</ele>
        <time>2020-06-24T17:48:39Z</time>
      </trkpt>
      <trkpt lat="50.04575" lon="4.3099">
        <ele>233.4</ele>
        <time>2020-06-24T17:48:40Z</time>
      </trkpt>
      <trkpt lat="50.04575" lon="4.30998">
        <ele>233.3</ele>
        <time>2020-06-24T17:48:41Z</time>
      </trkpt>
      <trkpt lat="50.04575" lon="4.31007">
        <ele>233.3</ele>
        <time>2020-06-24T17:48:42Z</time>
      </trkpt>
      <trkpt lat="50.04575" lon="4.31014">
        <ele>233.3</ele>
        <time>2020-06-24T17:48:43Z</time>
      </trkpt>
      <trkpt lat="50.04575" lon="4.31022">
        <ele>233.4</ele>
        <time>2020-06-24T17:48:44Z</time>
      </trkpt>
      <trkpt lat="50.04576" lon="4.3103">
        <ele>233.4</ele>
        <time>2020-06-24T17:48:45Z</time>
      </trkpt>
      <trkpt lat="50.04576" lon="4.31038">
        <ele>233.5</ele>
        <time>2020-06-24T17:48:46Z</time>
      </trkpt>
      <trkpt lat="50.04576" lon="4.31045">
        <ele>233.5</ele>
        <time>2020-06-24T17:48:47Z</time>
      </trkpt>
      <trkpt lat="50.04577" lon="4.31052">
        <ele>233.6</ele>
        <time>2020-06-24T17:48:48Z</time>
      </trkpt>
      <trkpt lat="50.04576" lon="4.31061">
        <ele>233.6</ele>
        <time>2020-06-24T17:48:49Z</time>
      </trkpt>
      <trkpt lat="50.04576" lon="4.3107">
        <ele>233.7</ele>
        <time>2020-06-24T17:48:50Z</time>
      </trkpt>
      <trkpt lat="50.04576" lon="4.3108">
        <ele>233.7</ele>
        <time>2020-06-24T17:48:51Z</time>
      </trkpt>
      <trkpt lat="50.04576" lon="4.31089">
        <ele>233.8</ele>
        <time>2020-06-24T17:48:52Z</time>
      </trkpt>
      <trkpt lat="50.04577" lon="4.31099">
        <ele>233.9</ele>
        <time>2020-06-24T17:48:53Z</time>
      </trkpt>
      <trkpt lat="50.04577" lon="4.31108">
        <ele>233.9</ele>
        <time>2020-06-24T17:48:54Z</time>
      </trkpt>
      <trkpt lat="50.04578" lon="4.31117">
        <ele>234</ele>
        <time>2020-06-24T17:48:55Z</time>
      </trkpt>
      <trkpt lat="50.04579" lon="4.31127">
        <ele>234</ele>
        <time>2020-06-24T17:48:56Z</time>
      </trkpt>
      <trkpt lat="50.0458" lon="4.31137">
        <ele>234.1</ele>
        <time>2020-06-24T17:48:57Z</time>
      </trkpt>
      <trkpt lat="50.04582" lon="4.31147">
        <ele>234.2</ele>
        <time>2020-06-24T17:48:58Z</time>
      </trkpt>
      <trkpt lat="50.04584" lon="4.31157">
        <ele>234.4</ele>
        <time>2020-06-24T17:48:59Z</time>
      </trkpt>
      <trkpt lat="50.04585" lon="4.31164">
        <ele>234.5</ele>
        <time>2020-06-24T17:49:00Z</time>
      </trkpt>
      <trkpt lat="50.04587" lon="4.31173">
        <ele>234.7</ele>
        <time>2020-06-24T17:49:01Z</time>
      </trkpt>
      <trkpt lat="50.04589" lon="4.31181">
        <ele>234.8</ele>
        <time>2020-06-24T17:49:02Z</time>
      </trkpt>
      <trkpt lat="50.04591" lon="4.31189">
        <ele>235</ele>
        <time>2020-06-24T17:49:03Z</time>
      </trkpt>
      <trkpt lat="50.04593" lon="4.31197">
        <ele>235.1</ele>
        <time>2020-06-24T17:49:04Z</time>
      </trkpt>
      <trkpt lat="50.04594" lon="4.31204">
        <ele>235.2</ele>
        <time>2020-06-24T17:49:05Z</time>
      </trkpt>
      <trkpt lat="50.04596" lon="4.31212">
        <ele>235.3</ele>
        <time>2020-06-24T17:49:06Z</time>
      </trkpt>
      <trkpt lat="50.04597" lon="4.31221">
        <ele>235.4</ele>
        <time>2020-06-24T17:49:07Z</time>
      </trkpt>
      <trkpt lat="50.04599" lon="4.31229">
        <ele>235.5</ele>
        <time>2020-06-24T17:49:08Z</time>
      </trkpt>
      <trkpt lat="50.04602" lon="4.31237">
        <ele>235.6</ele>
        <time>2020-06-24T17:49:09Z</time>
      </trkpt>
      <trkpt lat="50.04604" lon="4.31245">
        <ele>235.7</ele>
        <time>2020-06-24T17:49:10Z</time>
      </trkpt>
      <trkpt lat="50.04606" lon="4.31254">
        <ele>235.8</ele>
        <time>2020-06-24T17:49:11Z</time>
      </trkpt>
      <trkpt lat="50.04609" lon="4.31262">
        <ele>235.9</ele>
        <time>2020-06-24T17:49:12Z</time>
      </trkpt>
      <trkpt lat="50.04612" lon="4.31272">
        <ele>236.1</ele>
        <time>2020-06-24T17:49:13Z</time>
      </trkpt>
      <trkpt lat="50.04615" lon="4.3128">
        <ele>236.2</ele>
        <time>2020-06-24T17:49:14Z</time>
      </trkpt>
      <trkpt lat="50.04617" lon="4.31289">
        <ele>236.4</ele>
        <time>2020-06-24T17:49:15Z</time>
      </trkpt>
      <trkpt lat="50.04619" lon="4.31298">
        <ele>236.5</ele>
        <time>2020-06-24T17:49:16Z</time>
      </trkpt>
      <trkpt lat="50.04621" lon="4.31307">
        <ele>236.7</ele>
        <time>2020-06-24T17:49:17Z</time>
      </trkpt>
      <trkpt lat="50.04623" lon="4.31316">
        <ele>236.9</ele>
        <time>2020-06-24T17:49:18Z</time>
      </trkpt>
      <trkpt lat="50.04625" lon="4.31323">
        <ele>237.1</ele>
        <time>2020-06-24T17:49:19Z</time>
      </trkpt>
      <trkpt lat="50.04627" lon="4.31328">
        <ele>237.2</ele>
        <time>2020-06-24T17:49:20Z</time>
      </trkpt>
      <trkpt lat="50.04628" lon="4.3133">
        <ele>237.3</ele>
        <time>2020-06-24T17:49:21Z</time>
      </trkpt>
      <trkpt lat="50.04628" lon="4.31333">
        <ele>237.3</ele>
        <time>2020-06-24T17:49:22Z</time>
      </trkpt>
      <trkpt lat="50.04629" lon="4.31339">
        <ele>237.5</ele>
        <time>2020-06-24T17:49:23Z</time>
      </trkpt>
      <trkpt lat="50.0463" lon="4.31341">
        <ele>237.5</ele>
        <time>2020-06-24T17:49:24Z</time>
      </trkpt>
      <trkpt lat="50.04631" lon="4.31345">
        <ele>237.6</ele>
        <time>2020-06-24T17:49:25Z</time>
      </trkpt>
      <trkpt lat="50.04633" lon="4.31351">
        <ele>237.7</ele>
        <time>2020-06-24T17:49:26Z</time>
      </trkpt>
      <trkpt lat="50.04634" lon="4.31353">
        <ele>237.7</ele>
        <time>2020-06-24T17:49:27Z</time>
      </trkpt>
      <trkpt lat="50.04634" lon="4.31358">
        <ele>237.6</ele>
        <time>2020-06-24T17:49:28Z</time>
      </trkpt>
      <trkpt lat="50.04634" lon="4.31359">
        <ele>237.6</ele>
        <time>2020-06-24T17:49:29Z</time>
      </trkpt>
      <trkpt lat="50.04634" lon="4.31362">
        <ele>237.6</ele>
        <time>2020-06-24T17:49:30Z</time>
      </trkpt>
      <trkpt lat="50.04634" lon="4.31364">
        <ele>237.6</ele>
        <time>2020-06-24T17:49:31Z</time>
      </trkpt>
      <trkpt lat="50.04637" lon="4.31367">
        <ele>237.6</ele>
        <time>2020-06-24T17:49:32Z</time>
      </trkpt>
      <trkpt lat="50.04638" lon="4.31368">
        <ele>237.6</ele>
        <time>2020-06-24T17:49:33Z</time>
      </trkpt>
      <trkpt lat="50.0464" lon="4.31373">
        <ele>237.6</ele>
        <time>2020-06-24T17:49:34Z</time>
      </trkpt>
      <trkpt lat="50.0464" lon="4.31375">
        <ele>237.6</ele>
        <time>2020-06-24T17:49:35Z</time>
      </trkpt>
      <trkpt lat="50.04641" lon="4.31381">
        <ele>237.6</ele>
        <time>2020-06-24T17:49:36Z</time>
      </trkpt>
      <trkpt lat="50.04642" lon="4.31386">
        <ele>237.6</ele>
        <time>2020-06-24T17:49:37Z</time>
      </trkpt>
      <trkpt lat="50.04643" lon="4.31393">
        <ele>237.6</ele>
        <time>2020-06-24T17:49:38Z</time>
      </trkpt>
      <trkpt lat="50.04644" lon="4.314">
        <ele>237.6</ele>
        <time>2020-06-24T17:49:39Z</time>
      </trkpt>
      <trkpt lat="50.04645" lon="4.31408">
        <ele>237.6</ele>
        <time>2020-06-24T17:49:40Z</time>
      </trkpt>
      <trkpt lat="50.04647" lon="4.31415">
        <ele>237.7</ele>
        <time>2020-06-24T17:49:41Z</time>
      </trkpt>
      <trkpt lat="50.04649" lon="4.31423">
        <ele>237.7</ele>
        <time>2020-06-24T17:49:42Z</time>
      </trkpt>
      <trkpt lat="50.04651" lon="4.31431">
        <ele>237.7</ele>
        <time>2020-06-24T17:49:43Z</time>
      </trkpt>
      <trkpt lat="50.04654" lon="4.31439">
        <ele>237.8</ele>
        <time>2020-06-24T17:49:44Z</time>
      </trkpt>
      <trkpt lat="50.04657" lon="4.31449">
        <ele>237.9</ele>
        <time>2020-06-24T17:49:45Z</time>
      </trkpt>
      <trkpt lat="50.04662" lon="4.31459">
        <ele>238</ele>
        <time>2020-06-24T17:49:46Z</time>
      </trkpt>
      <trkpt lat="50.04665" lon="4.31469">
        <ele>238</ele>
        <time>2020-06-24T17:49:47Z</time>
      </trkpt>
      <trkpt lat="50.04667" lon="4.31478">
        <ele>238.1</ele>
        <time>2020-06-24T17:49:48Z</time>
      </trkpt>
      <trkpt lat="50.04669" lon="4.31487">
        <ele>238.2</ele>
        <time>2020-06-24T17:49:49Z</time>
      </trkpt>
      <trkpt lat="50.04671" lon="4.31496">
        <ele>238.3</ele>
        <time>2020-06-24T17:49:50Z</time>
      </trkpt>
      <trkpt lat="50.04673" lon="4.31505">
        <ele>238.4</ele>
        <time>2020-06-24T17:49:51Z</time>
      </trkpt>
      <trkpt lat="50.04675" lon="4.31512">
        <ele>238.5</ele>
        <time>2020-06-24T17:49:52Z</time>
      </trkpt>
      <trkpt lat="50.04678" lon="4.31518">
        <ele>238.6</ele>
        <time>2020-06-24T17:49:53Z</time>
      </trkpt>
      <trkpt lat="50.0468" lon="4.31525">
        <ele>238.7</ele>
        <time>2020-06-24T17:49:54Z</time>
      </trkpt>
      <trkpt lat="50.04683" lon="4.31532">
        <ele>238.9</ele>
        <time>2020-06-24T17:49:55Z</time>
      </trkpt>
      <trkpt lat="50.04686" lon="4.31541">
        <ele>239</ele>
        <time>2020-06-24T17:49:56Z</time>
      </trkpt>
      <trkpt lat="50.04688" lon="4.31548">
        <ele>239.1</ele>
        <time>2020-06-24T17:49:57Z</time>
      </trkpt>
      <trkpt lat="50.0469" lon="4.31553">
        <ele>239.2</ele>
        <time>2020-06-24T17:49:58Z</time>
      </trkpt>
      <trkpt lat="50.04693" lon="4.3156">
        <ele>239.4</ele>
        <time>2020-06-24T17:49:59Z</time>
      </trkpt>
      <trkpt lat="50.04696" lon="4.31566">
        <ele>239.5</ele>
        <time>2020-06-24T17:50:00Z</time>
      </trkpt>
      <trkpt lat="50.04697" lon="4.3157">
        <ele>239.5</ele>
        <time>2020-06-24T17:50:01Z</time>
      </trkpt>
      <trkpt lat="50.047" lon="4.31574">
        <ele>239.7</ele>
        <time>2020-06-24T17:50:02Z</time>
      </trkpt>
      <trkpt lat="50.04701" lon="4.31576">
        <ele>239.7</ele>
        <time>2020-06-24T17:50:03Z</time>
      </trkpt>
      <trkpt lat="50.04702" lon="4.31581">
        <ele>239.6</ele>
        <time>2020-06-24T17:50:04Z</time>
      </trkpt>
      <trkpt lat="50.04703" lon="4.31587">
        <ele>239.6</ele>
        <time>2020-06-24T17:50:05Z</time>
      </trkpt>
      <trkpt lat="50.04704" lon="4.31589">
        <ele>239.6</ele>
        <time>2020-06-24T17:50:06Z</time>
      </trkpt>
      <trkpt lat="50.04705" lon="4.31595">
        <ele>239.6</ele>
        <time>2020-06-24T17:50:07Z</time>
      </trkpt>
      <trkpt lat="50.04707" lon="4.31602">
        <ele>239.7</ele>
        <time>2020-06-24T17:50:08Z</time>
      </trkpt>
      <trkpt lat="50.04709" lon="4.3161">
        <ele>239.7</ele>
        <time>2020-06-24T17:50:09Z</time>
      </trkpt>
      <trkpt lat="50.04712" lon="4.3162">
        <ele>239.8</ele>
        <time>2020-06-24T17:50:10Z</time>
      </trkpt>
      <trkpt lat="50.04715" lon="4.31629">
        <ele>239.9</ele>
        <time>2020-06-24T17:50:11Z</time>
      </trkpt>
      <trkpt lat="50.04717" lon="4.3164">
        <ele>240</ele>
        <time>2020-06-24T17:50:12Z</time>
      </trkpt>
      <trkpt lat="50.0472" lon="4.3165">
        <ele>240.1</ele>
        <time>2020-06-24T17:50:13Z</time>
      </trkpt>
      <trkpt lat="50.04722" lon="4.31659">
        <ele>240.3</ele>
        <time>2020-06-24T17:50:14Z</time>
      </trkpt>
      <trkpt lat="50.04724" lon="4.31667">
        <ele>240.4</ele>
        <time>2020-06-24T17:50:15Z</time>
      </trkpt>
      <trkpt lat="50.04726" lon="4.31673">
        <ele>240.5</ele>
        <time>2020-06-24T17:50:16Z</time>
      </trkpt>
      <trkpt lat="50.04728" lon="4.31681">
        <ele>240.7</ele>
        <time>2020-06-24T17:50:17Z</time>
      </trkpt>
      <trkpt lat="50.0473" lon="4.31687">
        <ele>240.8</ele>
        <time>2020-06-24T17:50:18Z</time>
      </trkpt>
      <trkpt lat="50.04731" lon="4.31694">
        <ele>240.9</ele>
        <time>2020-06-24T17:50:19Z</time>
      </trkpt>
      <trkpt lat="50.04732" lon="4.31699">
        <ele>240.9</ele>
        <time>2020-06-24T17:50:20Z</time>
      </trkpt>
      <trkpt lat="50.04733" lon="4.31704">
        <ele>241</ele>
        <time>2020-06-24T17:50:21Z</time>
      </trkpt>
      <trkpt lat="50.0473" lon="4.31709">
        <ele>240.9</ele>
        <time>2020-06-24T17:50:22Z</time>
      </trkpt>
      <trkpt lat="50.04729" lon="4.31712">
        <ele>240.9</ele>
        <time>2020-06-24T17:50:23Z</time>
      </trkpt>
      <trkpt lat="50.04726" lon="4.31715">
        <ele>240.9</ele>
        <time>2020-06-24T17:50:24Z</time>
      </trkpt>
      <trkpt lat="50.04723" lon="4.31717">
        <ele>240.9</ele>
        <time>2020-06-24T17:50:25Z</time>
      </trkpt>
      <trkpt lat="50.04719" lon="4.3172">
        <ele>240.8</ele>
        <time>2020-06-24T17:50:26Z</time>
      </trkpt>
      <trkpt lat="50.04715" lon="4.31722">
        <ele>240.9</ele>
        <time>2020-06-24T17:50:27Z</time>
      </trkpt>
      <trkpt lat="50.0471" lon="4.31725">
        <ele>241.1</ele>
        <time>2020-06-24T17:50:28Z</time>
      </trkpt>
      <trkpt lat="50.04707" lon="4.31729">
        <ele>241.2</ele>
        <time>2020-06-24T17:50:29Z</time>
      </trkpt>
      <trkpt lat="50.04702" lon="4.31731">
        <ele>241.4</ele>
        <time>2020-06-24T17:50:30Z</time>
      </trkpt>
      <trkpt lat="50.04698" lon="4.31732">
        <ele>241.5</ele>
        <time>2020-06-24T17:50:31Z</time>
      </trkpt>
      <trkpt lat="50.04694" lon="4.31735">
        <ele>241.6</ele>
        <time>2020-06-24T17:50:32Z</time>
      </trkpt>
      <trkpt lat="50.04691" lon="4.31738">
        <ele>241.7</ele>
        <time>2020-06-24T17:50:33Z</time>
      </trkpt>
      <trkpt lat="50.04687" lon="4.31741">
        <ele>241.8</ele>
        <time>2020-06-24T17:50:34Z</time>
      </trkpt>
      <trkpt lat="50.04684" lon="4.31745">
        <ele>241.9</ele>
        <time>2020-06-24T17:50:35Z</time>
      </trkpt>
      <trkpt lat="50.04681" lon="4.31753">
        <ele>242.2</ele>
        <time>2020-06-24T17:50:36Z</time>
      </trkpt>
      <trkpt lat="50.0468" lon="4.31762">
        <ele>242.3</ele>
        <time>2020-06-24T17:50:37Z</time>
      </trkpt>
      <trkpt lat="50.04679" lon="4.3177">
        <ele>242.5</ele>
        <time>2020-06-24T17:50:38Z</time>
      </trkpt>
      <trkpt lat="50.0468" lon="4.31777">
        <ele>242.6</ele>
        <time>2020-06-24T17:50:39Z</time>
      </trkpt>
      <trkpt lat="50.04684" lon="4.31783">
        <ele>242.7</ele>
        <time>2020-06-24T17:50:40Z</time>
      </trkpt>
      <trkpt lat="50.04688" lon="4.31789">
        <ele>243</ele>
        <time>2020-06-24T17:50:41Z</time>
      </trkpt>
      <trkpt lat="50.0469" lon="4.31794">
        <ele>243</ele>
        <time>2020-06-24T17:50:42Z</time>
      </trkpt>
      <trkpt lat="50.04692" lon="4.31799">
        <ele>243</ele>
        <time>2020-06-24T17:50:43Z</time>
      </trkpt>
      <trkpt lat="50.04692" lon="4.318">
        <ele>243</ele>
        <time>2020-06-24T17:50:44Z</time>
      </trkpt>
      <trkpt lat="50.04694" lon="4.31806">
        <ele>243</ele>
        <time>2020-06-24T17:50:45Z</time>
      </trkpt>
      <trkpt lat="50.04695" lon="4.31808">
        <ele>243.1</ele>
        <time>2020-06-24T17:50:46Z</time>
      </trkpt>
      <trkpt lat="50.04697" lon="4.31811">
        <ele>243.1</ele>
        <time>2020-06-24T17:50:47Z</time>
      </trkpt>
      <trkpt lat="50.047" lon="4.31814">
        <ele>243.1</ele>
        <time>2020-06-24T17:50:48Z</time>
      </trkpt>
      <trkpt lat="50.04701" lon="4.31819">
        <ele>243.1</ele>
        <time>2020-06-24T17:50:49Z</time>
      </trkpt>
      <trkpt lat="50.04702" lon="4.31825">
        <ele>243.1</ele>
        <time>2020-06-24T17:50:50Z</time>
      </trkpt>
      <trkpt lat="50.04702" lon="4.31826">
        <ele>243.1</ele>
        <time>2020-06-24T17:50:51Z</time>
      </trkpt>
      <trkpt lat="50.04704" lon="4.3183">
        <ele>243.1</ele>
        <time>2020-06-24T17:50:52Z</time>
      </trkpt>
      <trkpt lat="50.04705" lon="4.31833">
        <ele>243.2</ele>
        <time>2020-06-24T17:50:53Z</time>
      </trkpt>
      <trkpt lat="50.04705" lon="4.31835">
        <ele>243.2</ele>
        <time>2020-06-24T17:50:54Z</time>
      </trkpt>
      <trkpt lat="50.04707" lon="4.31841">
        <ele>243.2</ele>
        <time>2020-06-24T17:50:55Z</time>
      </trkpt>
      <trkpt lat="50.04708" lon="4.31843">
        <ele>243.2</ele>
        <time>2020-06-24T17:50:56Z</time>
      </trkpt>
      <trkpt lat="50.04709" lon="4.31848">
        <ele>243.2</ele>
        <time>2020-06-24T17:50:57Z</time>
      </trkpt>
      <trkpt lat="50.04709" lon="4.31852">
        <ele>243.2</ele>
        <time>2020-06-24T17:50:58Z</time>
      </trkpt>
      <trkpt lat="50.04711" lon="4.31857">
        <ele>243.2</ele>
        <time>2020-06-24T17:50:59Z</time>
      </trkpt>
      <trkpt lat="50.04713" lon="4.31861">
        <ele>243.2</ele>
        <time>2020-06-24T17:51:00Z</time>
      </trkpt>
      <trkpt lat="50.04715" lon="4.31866">
        <ele>243.2</ele>
        <time>2020-06-24T17:51:01Z</time>
      </trkpt>
      <trkpt lat="50.04718" lon="4.3187">
        <ele>243.2</ele>
        <time>2020-06-24T17:51:02Z</time>
      </trkpt>
      <trkpt lat="50.04719" lon="4.31873">
        <ele>243.2</ele>
        <time>2020-06-24T17:51:03Z</time>
      </trkpt>
      <trkpt lat="50.04721" lon="4.31878">
        <ele>243.2</ele>
        <time>2020-06-24T17:51:04Z</time>
      </trkpt>
      <trkpt lat="50.04722" lon="4.31883">
        <ele>243.3</ele>
        <time>2020-06-24T17:51:05Z</time>
      </trkpt>
      <trkpt lat="50.04723" lon="4.31885">
        <ele>243.3</ele>
        <time>2020-06-24T17:51:06Z</time>
      </trkpt>
      <trkpt lat="50.04723" lon="4.3189">
        <ele>243.3</ele>
        <time>2020-06-24T17:51:07Z</time>
      </trkpt>
      <trkpt lat="50.04723" lon="4.31893">
        <ele>243.3</ele>
        <time>2020-06-24T17:51:08Z</time>
      </trkpt>
      <trkpt lat="50.04723" lon="4.31899">
        <ele>243.3</ele>
        <time>2020-06-24T17:51:09Z</time>
      </trkpt>
      <trkpt lat="50.04723" lon="4.31901">
        <ele>243.3</ele>
        <time>2020-06-24T17:51:10Z</time>
      </trkpt>
      <trkpt lat="50.04723" lon="4.31906">
        <ele>243.4</ele>
        <time>2020-06-24T17:51:11Z</time>
      </trkpt>
      <trkpt lat="50.04723" lon="4.31908">
        <ele>243.4</ele>
        <time>2020-06-24T17:51:12Z</time>
      </trkpt>
      <trkpt lat="50.04723" lon="4.31913">
        <ele>243.4</ele>
        <time>2020-06-24T17:51:13Z</time>
      </trkpt>
      <trkpt lat="50.04722" lon="4.31918">
        <ele>243.4</ele>
        <time>2020-06-24T17:51:14Z</time>
      </trkpt>
      <trkpt lat="50.04721" lon="4.31924">
        <ele>243.5</ele>
        <time>2020-06-24T17:51:15Z</time>
      </trkpt>
      <trkpt lat="50.0472" lon="4.31929">
        <ele>243.5</ele>
        <time>2020-06-24T17:51:16Z</time>
      </trkpt>
      <trkpt lat="50.0472" lon="4.31931">
        <ele>243.6</ele>
        <time>2020-06-24T17:51:17Z</time>
      </trkpt>
      <trkpt lat="50.04718" lon="4.31935">
        <ele>243.6</ele>
        <time>2020-06-24T17:51:18Z</time>
      </trkpt>
      <trkpt lat="50.04717" lon="4.3194">
        <ele>243.7</ele>
        <time>2020-06-24T17:51:19Z</time>
      </trkpt>
      <trkpt lat="50.04716" lon="4.31945">
        <ele>243.7</ele>
        <time>2020-06-24T17:51:20Z</time>
      </trkpt>
      <trkpt lat="50.04715" lon="4.3195">
        <ele>243.8</ele>
        <time>2020-06-24T17:51:21Z</time>
      </trkpt>
      <trkpt lat="50.04715" lon="4.31955">
        <ele>243.8</ele>
        <time>2020-06-24T17:51:22Z</time>
      </trkpt>
      <trkpt lat="50.04714" lon="4.3196">
        <ele>243.9</ele>
        <time>2020-06-24T17:51:23Z</time>
      </trkpt>
      <trkpt lat="50.04714" lon="4.31966">
        <ele>243.9</ele>
        <time>2020-06-24T17:51:24Z</time>
      </trkpt>
      <trkpt lat="50.04713" lon="4.31972">
        <ele>244</ele>
        <time>2020-06-24T17:51:25Z</time>
      </trkpt>
      <trkpt lat="50.04712" lon="4.31978">
        <ele>244.1</ele>
        <time>2020-06-24T17:51:26Z</time>
      </trkpt>
      <trkpt lat="50.04711" lon="4.31983">
        <ele>244.1</ele>
        <time>2020-06-24T17:51:27Z</time>
      </trkpt>
      <trkpt lat="50.0471" lon="4.31987">
        <ele>244.2</ele>
        <time>2020-06-24T17:51:28Z</time>
      </trkpt>
      <trkpt lat="50.0471" lon="4.31991">
        <ele>244.3</ele>
        <time>2020-06-24T17:51:29Z</time>
      </trkpt>
      <trkpt lat="50.04709" lon="4.31995">
        <ele>244.3</ele>
        <time>2020-06-24T17:51:30Z</time>
      </trkpt>
      <trkpt lat="50.04708" lon="4.32">
        <ele>244.4</ele>
        <time>2020-06-24T17:51:31Z</time>
      </trkpt>
      <trkpt lat="50.04707" lon="4.32005">
        <ele>244.5</ele>
        <time>2020-06-24T17:51:32Z</time>
      </trkpt>
      <trkpt lat="50.04706" lon="4.32011">
        <ele>244.7</ele>
        <time>2020-06-24T17:51:33Z</time>
      </trkpt>
      <trkpt lat="50.04706" lon="4.32018">
        <ele>244.8</ele>
        <time>2020-06-24T17:51:34Z</time>
      </trkpt>
      <trkpt lat="50.04705" lon="4.32025">
        <ele>244.9</ele>
        <time>2020-06-24T17:51:35Z</time>
      </trkpt>
      <trkpt lat="50.04705" lon="4.32032">
        <ele>245</ele>
        <time>2020-06-24T17:51:36Z</time>
      </trkpt>
      <trkpt lat="50.04703" lon="4.32038">
        <ele>245.1</ele>
        <time>2020-06-24T17:51:37Z</time>
      </trkpt>
      <trkpt lat="50.04703" lon="4.32044">
        <ele>245.2</ele>
        <time>2020-06-24T17:51:38Z</time>
      </trkpt>
      <trkpt lat="50.04702" lon="4.32051">
        <ele>245.4</ele>
        <time>2020-06-24T17:51:39Z</time>
      </trkpt>
      <trkpt lat="50.047" lon="4.32059">
        <ele>245.5</ele>
        <time>2020-06-24T17:51:40Z</time>
      </trkpt>
      <trkpt lat="50.047" lon="4.32066">
        <ele>245.7</ele>
        <time>2020-06-24T17:51:41Z</time>
      </trkpt>
      <trkpt lat="50.04699" lon="4.32074">
        <ele>245.8</ele>
        <time>2020-06-24T17:51:42Z</time>
      </trkpt>
      <trkpt lat="50.04698" lon="4.32082">
        <ele>246</ele>
        <time>2020-06-24T17:51:43Z</time>
      </trkpt>
      <trkpt lat="50.04697" lon="4.3209">
        <ele>246.1</ele>
        <time>2020-06-24T17:51:44Z</time>
      </trkpt>
      <trkpt lat="50.04695" lon="4.32098">
        <ele>246.3</ele>
        <time>2020-06-24T17:51:45Z</time>
      </trkpt>
      <trkpt lat="50.04695" lon="4.32106">
        <ele>246.5</ele>
        <time>2020-06-24T17:51:46Z</time>
      </trkpt>
      <trkpt lat="50.04694" lon="4.32113">
        <ele>246.6</ele>
        <time>2020-06-24T17:51:47Z</time>
      </trkpt>
      <trkpt lat="50.04694" lon="4.3212">
        <ele>246.8</ele>
        <time>2020-06-24T17:51:48Z</time>
      </trkpt>
      <trkpt lat="50.04693" lon="4.32128">
        <ele>246.9</ele>
        <time>2020-06-24T17:51:49Z</time>
      </trkpt>
      <trkpt lat="50.04692" lon="4.32135">
        <ele>247.1</ele>
        <time>2020-06-24T17:51:50Z</time>
      </trkpt>
      <trkpt lat="50.04691" lon="4.32142">
        <ele>247.3</ele>
        <time>2020-06-24T17:51:51Z</time>
      </trkpt>
      <trkpt lat="50.04691" lon="4.32149">
        <ele>247.5</ele>
        <time>2020-06-24T17:51:52Z</time>
      </trkpt>
      <trkpt lat="50.0469" lon="4.32156">
        <ele>247.6</ele>
        <time>2020-06-24T17:51:53Z</time>
      </trkpt>
      <trkpt lat="50.04689" lon="4.32164">
        <ele>247.8</ele>
        <time>2020-06-24T17:51:54Z</time>
      </trkpt>
      <trkpt lat="50.04688" lon="4.32173">
        <ele>248</ele>
        <time>2020-06-24T17:51:55Z</time>
      </trkpt>
      <trkpt lat="50.04687" lon="4.32179">
        <ele>248.2</ele>
        <time>2020-06-24T17:51:56Z</time>
      </trkpt>
      <trkpt lat="50.04685" lon="4.32183">
        <ele>248.3</ele>
        <time>2020-06-24T17:51:57Z</time>
      </trkpt>
      <trkpt lat="50.04683" lon="4.32186">
        <ele>248.5</ele>
        <time>2020-06-24T17:51:58Z</time>
      </trkpt>
      <trkpt lat="50.0468" lon="4.3219">
        <ele>248.6</ele>
        <time>2020-06-24T17:51:59Z</time>
      </trkpt>
      <trkpt lat="50.04677" lon="4.32194">
        <ele>248.7</ele>
        <time>2020-06-24T17:52:00Z</time>
      </trkpt>
      <trkpt lat="50.04675" lon="4.32198">
        <ele>248.8</ele>
        <time>2020-06-24T17:52:01Z</time>
      </trkpt>
      <trkpt lat="50.04673" lon="4.32202">
        <ele>249.1</ele>
        <time>2020-06-24T17:52:02Z</time>
      </trkpt>
      <trkpt lat="50.04672" lon="4.32209">
        <ele>249.1</ele>
        <time>2020-06-24T17:52:03Z</time>
      </trkpt>
      <trkpt lat="50.04672" lon="4.32211">
        <ele>249.1</ele>
        <time>2020-06-24T17:52:04Z</time>
      </trkpt>
      <trkpt lat="50.04673" lon="4.32215">
        <ele>249.1</ele>
        <time>2020-06-24T17:52:05Z</time>
      </trkpt>
      <trkpt lat="50.04673" lon="4.3222">
        <ele>249.9</ele>
        <time>2020-06-24T17:52:06Z</time>
      </trkpt>
      <trkpt lat="50.04674" lon="4.32225">
        <ele>249.9</ele>
        <time>2020-06-24T17:52:07Z</time>
      </trkpt>
      <trkpt lat="50.04673" lon="4.32231">
        <ele>250</ele>
        <time>2020-06-24T17:52:08Z</time>
      </trkpt>
      <trkpt lat="50.04673" lon="4.32233">
        <ele>250</ele>
        <time>2020-06-24T17:52:09Z</time>
      </trkpt>
      <trkpt lat="50.04673" lon="4.32239">
        <ele>250.1</ele>
        <time>2020-06-24T17:52:10Z</time>
      </trkpt>
      <trkpt lat="50.04672" lon="4.32244">
        <ele>250.1</ele>
        <time>2020-06-24T17:52:11Z</time>
      </trkpt>
      <trkpt lat="50.04672" lon="4.3225">
        <ele>250.2</ele>
        <time>2020-06-24T17:52:12Z</time>
      </trkpt>
      <trkpt lat="50.04671" lon="4.32255">
        <ele>250.2</ele>
        <time>2020-06-24T17:52:13Z</time>
      </trkpt>
      <trkpt lat="50.0467" lon="4.3226">
        <ele>250.3</ele>
        <time>2020-06-24T17:52:14Z</time>
      </trkpt>
      <trkpt lat="50.0467" lon="4.32265">
        <ele>250.3</ele>
        <time>2020-06-24T17:52:15Z</time>
      </trkpt>
      <trkpt lat="50.04669" lon="4.32271">
        <ele>250.4</ele>
        <time>2020-06-24T17:52:16Z</time>
      </trkpt>
      <trkpt lat="50.04668" lon="4.32277">
        <ele>250.4</ele>
        <time>2020-06-24T17:52:17Z</time>
      </trkpt>
      <trkpt lat="50.04666" lon="4.32283">
        <ele>250.5</ele>
        <time>2020-06-24T17:52:18Z</time>
      </trkpt>
      <trkpt lat="50.04665" lon="4.32289">
        <ele>250.5</ele>
        <time>2020-06-24T17:52:19Z</time>
      </trkpt>
      <trkpt lat="50.04663" lon="4.32296">
        <ele>250.6</ele>
        <time>2020-06-24T17:52:20Z</time>
      </trkpt>
      <trkpt lat="50.04662" lon="4.32304">
        <ele>250.7</ele>
        <time>2020-06-24T17:52:21Z</time>
      </trkpt>
      <trkpt lat="50.0466" lon="4.32312">
        <ele>250.7</ele>
        <time>2020-06-24T17:52:22Z</time>
      </trkpt>
      <trkpt lat="50.04659" lon="4.32319">
        <ele>250.8</ele>
        <time>2020-06-24T17:52:23Z</time>
      </trkpt>
      <trkpt lat="50.04657" lon="4.32326">
        <ele>250.9</ele>
        <time>2020-06-24T17:52:24Z</time>
      </trkpt>
      <trkpt lat="50.04656" lon="4.32333">
        <ele>251</ele>
        <time>2020-06-24T17:52:25Z</time>
      </trkpt>
      <trkpt lat="50.04654" lon="4.32341">
        <ele>251.1</ele>
        <time>2020-06-24T17:52:26Z</time>
      </trkpt>
      <trkpt lat="50.04652" lon="4.32349">
        <ele>251.3</ele>
        <time>2020-06-24T17:52:27Z</time>
      </trkpt>
      <trkpt lat="50.04649" lon="4.32357">
        <ele>251.4</ele>
        <time>2020-06-24T17:52:28Z</time>
      </trkpt>
      <trkpt lat="50.04647" lon="4.32367">
        <ele>251.6</ele>
        <time>2020-06-24T17:52:29Z</time>
      </trkpt>
      <trkpt lat="50.04644" lon="4.32375">
        <ele>251.7</ele>
        <time>2020-06-24T17:52:30Z</time>
      </trkpt>
      <trkpt lat="50.04641" lon="4.32383">
        <ele>251.8</ele>
        <time>2020-06-24T17:52:31Z</time>
      </trkpt>
      <trkpt lat="50.04638" lon="4.32393">
        <ele>252</ele>
        <time>2020-06-24T17:52:32Z</time>
      </trkpt>
      <trkpt lat="50.04636" lon="4.32402">
        <ele>252.1</ele>
        <time>2020-06-24T17:52:33Z</time>
      </trkpt>
      <trkpt lat="50.04634" lon="4.3241">
        <ele>252.2</ele>
        <time>2020-06-24T17:52:34Z</time>
      </trkpt>
      <trkpt lat="50.04632" lon="4.32419">
        <ele>252.3</ele>
        <time>2020-06-24T17:52:35Z</time>
      </trkpt>
      <trkpt lat="50.0463" lon="4.32427">
        <ele>252.4</ele>
        <time>2020-06-24T17:52:36Z</time>
      </trkpt>
      <trkpt lat="50.04628" lon="4.32435">
        <ele>252.5</ele>
        <time>2020-06-24T17:52:37Z</time>
      </trkpt>
      <trkpt lat="50.04626" lon="4.32443">
        <ele>252.6</ele>
        <time>2020-06-24T17:52:38Z</time>
      </trkpt>
      <trkpt lat="50.04624" lon="4.32451">
        <ele>252.8</ele>
        <time>2020-06-24T17:52:39Z</time>
      </trkpt>
      <trkpt lat="50.04622" lon="4.32459">
        <ele>252.9</ele>
        <time>2020-06-24T17:52:40Z</time>
      </trkpt>
      <trkpt lat="50.0462" lon="4.32468">
        <ele>253</ele>
        <time>2020-06-24T17:52:41Z</time>
      </trkpt>
      <trkpt lat="50.04618" lon="4.32475">
        <ele>253.1</ele>
        <time>2020-06-24T17:52:42Z</time>
      </trkpt>
      <trkpt lat="50.04616" lon="4.32484">
        <ele>253.2</ele>
        <time>2020-06-24T17:52:43Z</time>
      </trkpt>
      <trkpt lat="50.04614" lon="4.32491">
        <ele>253.4</ele>
        <time>2020-06-24T17:52:44Z</time>
      </trkpt>
      <trkpt lat="50.04613" lon="4.32497">
        <ele>253.5</ele>
        <time>2020-06-24T17:52:45Z</time>
      </trkpt>
      <trkpt lat="50.04611" lon="4.32505">
        <ele>253.7</ele>
        <time>2020-06-24T17:52:46Z</time>
      </trkpt>
      <trkpt lat="50.04609" lon="4.32513">
        <ele>253.9</ele>
        <time>2020-06-24T17:52:47Z</time>
      </trkpt>
      <trkpt lat="50.04607" lon="4.32522">
        <ele>254</ele>
        <time>2020-06-24T17:52:48Z</time>
      </trkpt>
      <trkpt lat="50.04605" lon="4.32531">
        <ele>254.2</ele>
        <time>2020-06-24T17:52:49Z</time>
      </trkpt>
      <trkpt lat="50.04603" lon="4.32541">
        <ele>254.3</ele>
        <time>2020-06-24T17:52:50Z</time>
      </trkpt>
      <trkpt lat="50.04601" lon="4.32551">
        <ele>254.5</ele>
        <time>2020-06-24T17:52:51Z</time>
      </trkpt>
      <trkpt lat="50.04599" lon="4.3256">
        <ele>254.7</ele>
        <time>2020-06-24T17:52:52Z</time>
      </trkpt>
      <trkpt lat="50.04597" lon="4.32569">
        <ele>254.9</ele>
        <time>2020-06-24T17:52:53Z</time>
      </trkpt>
      <trkpt lat="50.04595" lon="4.32578">
        <ele>255.1</ele>
        <time>2020-06-24T17:52:54Z</time>
      </trkpt>
      <trkpt lat="50.04593" lon="4.32588">
        <ele>255.3</ele>
        <time>2020-06-24T17:52:55Z</time>
      </trkpt>
      <trkpt lat="50.04591" lon="4.32597">
        <ele>255.4</ele>
        <time>2020-06-24T17:52:56Z</time>
      </trkpt>
      <trkpt lat="50.04589" lon="4.32605">
        <ele>255.6</ele>
        <time>2020-06-24T17:52:57Z</time>
      </trkpt>
      <trkpt lat="50.04587" lon="4.32616">
        <ele>255.8</ele>
        <time>2020-06-24T17:52:58Z</time>
      </trkpt>
      <trkpt lat="50.04584" lon="4.32626">
        <ele>256</ele>
        <time>2020-06-24T17:52:59Z</time>
      </trkpt>
      <trkpt lat="50.04581" lon="4.32637">
        <ele>256</ele>
        <time>2020-06-24T17:53:00Z</time>
      </trkpt>
      <trkpt lat="50.04578" lon="4.32649">
        <ele>256.1</ele>
        <time>2020-06-24T17:53:01Z</time>
      </trkpt>
      <trkpt lat="50.04576" lon="4.32659">
        <ele>256.2</ele>
        <time>2020-06-24T17:53:02Z</time>
      </trkpt>
      <trkpt lat="50.04574" lon="4.32668">
        <ele>256.3</ele>
        <time>2020-06-24T17:53:03Z</time>
      </trkpt>
      <trkpt lat="50.04572" lon="4.32676">
        <ele>256.4</ele>
        <time>2020-06-24T17:53:04Z</time>
      </trkpt>
      <trkpt lat="50.0457" lon="4.32687">
        <ele>256.5</ele>
        <time>2020-06-24T17:53:05Z</time>
      </trkpt>
      <trkpt lat="50.04567" lon="4.32697">
        <ele>256.6</ele>
        <time>2020-06-24T17:53:06Z</time>
      </trkpt>
      <trkpt lat="50.04565" lon="4.32707">
        <ele>256.7</ele>
        <time>2020-06-24T17:53:07Z</time>
      </trkpt>
      <trkpt lat="50.04563" lon="4.32716">
        <ele>256.8</ele>
        <time>2020-06-24T17:53:08Z</time>
      </trkpt>
      <trkpt lat="50.04561" lon="4.32723">
        <ele>257</ele>
        <time>2020-06-24T17:53:09Z</time>
      </trkpt>
      <trkpt lat="50.04558" lon="4.32733">
        <ele>257.1</ele>
        <time>2020-06-24T17:53:10Z</time>
      </trkpt>
      <trkpt lat="50.04556" lon="4.32741">
        <ele>257.3</ele>
        <time>2020-06-24T17:53:11Z</time>
      </trkpt>
      <trkpt lat="50.04554" lon="4.32751">
        <ele>257.5</ele>
        <time>2020-06-24T17:53:12Z</time>
      </trkpt>
      <trkpt lat="50.04552" lon="4.3276">
        <ele>257.7</ele>
        <time>2020-06-24T17:53:13Z</time>
      </trkpt>
      <trkpt lat="50.04551" lon="4.32768">
        <ele>257.9</ele>
        <time>2020-06-24T17:53:14Z</time>
      </trkpt>
      <trkpt lat="50.04549" lon="4.32778">
        <ele>258.1</ele>
        <time>2020-06-24T17:53:15Z</time>
      </trkpt>
      <trkpt lat="50.04547" lon="4.32786">
        <ele>258.3</ele>
        <time>2020-06-24T17:53:16Z</time>
      </trkpt>
      <trkpt lat="50.04545" lon="4.32795">
        <ele>258.4</ele>
        <time>2020-06-24T17:53:17Z</time>
      </trkpt>
      <trkpt lat="50.04543" lon="4.32803">
        <ele>258.5</ele>
        <time>2020-06-24T17:53:18Z</time>
      </trkpt>
      <trkpt lat="50.0454" lon="4.32812">
        <ele>258.7</ele>
        <time>2020-06-24T17:53:19Z</time>
      </trkpt>
      <trkpt lat="50.04538" lon="4.32821">
        <ele>258.9</ele>
        <time>2020-06-24T17:53:20Z</time>
      </trkpt>
      <trkpt lat="50.04536" lon="4.3283">
        <ele>259</ele>
        <time>2020-06-24T17:53:21Z</time>
      </trkpt>
      <trkpt lat="50.04534" lon="4.32836">
        <ele>259.2</ele>
        <time>2020-06-24T17:53:22Z</time>
      </trkpt>
      <trkpt lat="50.04532" lon="4.32843">
        <ele>259.3</ele>
        <time>2020-06-24T17:53:23Z</time>
      </trkpt>
      <trkpt lat="50.0453" lon="4.32848">
        <ele>259.4</ele>
        <time>2020-06-24T17:53:24Z</time>
      </trkpt>
      <trkpt lat="50.04528" lon="4.32856">
        <ele>259.6</ele>
        <time>2020-06-24T17:53:25Z</time>
      </trkpt>
      <trkpt lat="50.04527" lon="4.32863">
        <ele>259.7</ele>
        <time>2020-06-24T17:53:26Z</time>
      </trkpt>
      <trkpt lat="50.04526" lon="4.3287">
        <ele>259.9</ele>
        <time>2020-06-24T17:53:27Z</time>
      </trkpt>
      <trkpt lat="50.04524" lon="4.32878">
        <ele>260</ele>
        <time>2020-06-24T17:53:28Z</time>
      </trkpt>
      <trkpt lat="50.04522" lon="4.32888">
        <ele>260.1</ele>
        <time>2020-06-24T17:53:29Z</time>
      </trkpt>
      <trkpt lat="50.0452" lon="4.32896">
        <ele>260.3</ele>
        <time>2020-06-24T17:53:30Z</time>
      </trkpt>
      <trkpt lat="50.04519" lon="4.32904">
        <ele>260.4</ele>
        <time>2020-06-24T17:53:31Z</time>
      </trkpt>
      <trkpt lat="50.04517" lon="4.32912">
        <ele>260.6</ele>
        <time>2020-06-24T17:53:32Z</time>
      </trkpt>
      <trkpt lat="50.04515" lon="4.3292">
        <ele>260.8</ele>
        <time>2020-06-24T17:53:33Z</time>
      </trkpt>
      <trkpt lat="50.04514" lon="4.32928">
        <ele>260.9</ele>
        <time>2020-06-24T17:53:34Z</time>
      </trkpt>
      <trkpt lat="50.04512" lon="4.32935">
        <ele>261.1</ele>
        <time>2020-06-24T17:53:35Z</time>
      </trkpt>
      <trkpt lat="50.04511" lon="4.32944">
        <ele>261.2</ele>
        <time>2020-06-24T17:53:36Z</time>
      </trkpt>
      <trkpt lat="50.04509" lon="4.32951">
        <ele>261.4</ele>
        <time>2020-06-24T17:53:37Z</time>
      </trkpt>
      <trkpt lat="50.04508" lon="4.32958">
        <ele>261.6</ele>
        <time>2020-06-24T17:53:38Z</time>
      </trkpt>
      <trkpt lat="50.04506" lon="4.32966">
        <ele>261.7</ele>
        <time>2020-06-24T17:53:39Z</time>
      </trkpt>
      <trkpt lat="50.04505" lon="4.32974">
        <ele>261.8</ele>
        <time>2020-06-24T17:53:40Z</time>
      </trkpt>
      <trkpt lat="50.04502" lon="4.32981">
        <ele>261.9</ele>
        <time>2020-06-24T17:53:41Z</time>
      </trkpt>
      <trkpt lat="50.045" lon="4.3299">
        <ele>261.9</ele>
        <time>2020-06-24T17:53:42Z</time>
      </trkpt>
      <trkpt lat="50.04498" lon="4.32996">
        <ele>262</ele>
        <time>2020-06-24T17:53:43Z</time>
      </trkpt>
      <trkpt lat="50.04496" lon="4.33003">
        <ele>262.1</ele>
        <time>2020-06-24T17:53:44Z</time>
      </trkpt>
      <trkpt lat="50.04494" lon="4.33012">
        <ele>262.2</ele>
        <time>2020-06-24T17:53:45Z</time>
      </trkpt>
      <trkpt lat="50.04492" lon="4.3302">
        <ele>262.4</ele>
        <time>2020-06-24T17:53:46Z</time>
      </trkpt>
      <trkpt lat="50.0449" lon="4.33028">
        <ele>262.5</ele>
        <time>2020-06-24T17:53:47Z</time>
      </trkpt>
      <trkpt lat="50.04488" lon="4.33036">
        <ele>262.7</ele>
        <time>2020-06-24T17:53:48Z</time>
      </trkpt>
      <trkpt lat="50.04486" lon="4.33044">
        <ele>262.8</ele>
        <time>2020-06-24T17:53:49Z</time>
      </trkpt>
      <trkpt lat="50.04485" lon="4.3305">
        <ele>262.9</ele>
        <time>2020-06-24T17:53:50Z</time>
      </trkpt>
      <trkpt lat="50.04484" lon="4.33059">
        <ele>262.9</ele>
        <time>2020-06-24T17:53:51Z</time>
      </trkpt>
      <trkpt lat="50.04482" lon="4.33067">
        <ele>263</ele>
        <time>2020-06-24T17:53:52Z</time>
      </trkpt>
      <trkpt lat="50.04481" lon="4.33074">
        <ele>263.1</ele>
        <time>2020-06-24T17:53:53Z</time>
      </trkpt>
      <trkpt lat="50.04479" lon="4.33082">
        <ele>263.1</ele>
        <time>2020-06-24T17:53:54Z</time>
      </trkpt>
      <trkpt lat="50.04476" lon="4.33091">
        <ele>263.2</ele>
        <time>2020-06-24T17:53:55Z</time>
      </trkpt>
      <trkpt lat="50.04473" lon="4.331">
        <ele>263.3</ele>
        <time>2020-06-24T17:53:56Z</time>
      </trkpt>
      <trkpt lat="50.04472" lon="4.33107">
        <ele>263.4</ele>
        <time>2020-06-24T17:53:57Z</time>
      </trkpt>
      <trkpt lat="50.0447" lon="4.33114">
        <ele>263.5</ele>
        <time>2020-06-24T17:53:58Z</time>
      </trkpt>
      <trkpt lat="50.04468" lon="4.33122">
        <ele>263.7</ele>
        <time>2020-06-24T17:53:59Z</time>
      </trkpt>
      <trkpt lat="50.04467" lon="4.33134">
        <ele>263.9</ele>
        <time>2020-06-24T17:54:00Z</time>
      </trkpt>
      <trkpt lat="50.04466" lon="4.33143">
        <ele>264</ele>
        <time>2020-06-24T17:54:01Z</time>
      </trkpt>
      <trkpt lat="50.04465" lon="4.33151">
        <ele>264.1</ele>
        <time>2020-06-24T17:54:02Z</time>
      </trkpt>
      <trkpt lat="50.04464" lon="4.33159">
        <ele>264.2</ele>
        <time>2020-06-24T17:54:03Z</time>
      </trkpt>
      <trkpt lat="50.04463" lon="4.33168">
        <ele>264.2</ele>
        <time>2020-06-24T17:54:04Z</time>
      </trkpt>
      <trkpt lat="50.04462" lon="4.33176">
        <ele>264.3</ele>
        <time>2020-06-24T17:54:05Z</time>
      </trkpt>
      <trkpt lat="50.04461" lon="4.33183">
        <ele>264.4</ele>
        <time>2020-06-24T17:54:06Z</time>
      </trkpt>
      <trkpt lat="50.0446" lon="4.33188">
        <ele>264.4</ele>
        <time>2020-06-24T17:54:07Z</time>
      </trkpt>
      <trkpt lat="50.0446" lon="4.33195">
        <ele>264.5</ele>
        <time>2020-06-24T17:54:08Z</time>
      </trkpt>
      <trkpt lat="50.04462" lon="4.33201">
        <ele>264.6</ele>
        <time>2020-06-24T17:54:09Z</time>
      </trkpt>
      <trkpt lat="50.04465" lon="4.33203">
        <ele>264.6</ele>
        <time>2020-06-24T17:54:10Z</time>
      </trkpt>
      <trkpt lat="50.04469" lon="4.332">
        <ele>264.7</ele>
        <time>2020-06-24T17:54:11Z</time>
      </trkpt>
      <trkpt lat="50.04472" lon="4.33194">
        <ele>264.7</ele>
        <time>2020-06-24T17:54:12Z</time>
      </trkpt>
      <trkpt lat="50.04474" lon="4.33189">
        <ele>264.8</ele>
        <time>2020-06-24T17:54:13Z</time>
      </trkpt>
      <trkpt lat="50.04475" lon="4.33187">
        <ele>264.8</ele>
        <time>2020-06-24T17:54:14Z</time>
      </trkpt>
      <trkpt lat="50.04476" lon="4.33185">
        <ele>264.8</ele>
        <time>2020-06-24T17:54:15Z</time>
      </trkpt>
      <trkpt lat="50.04477" lon="4.33184">
        <ele>264.9</ele>
        <time>2020-06-24T17:54:16Z</time>
      </trkpt>
      <trkpt lat="50.04479" lon="4.33184">
        <ele>264.9</ele>
        <time>2020-06-24T17:54:17Z</time>
      </trkpt>
      <trkpt lat="50.0448" lon="4.33184">
        <ele>264.9</ele>
        <time>2020-06-24T17:54:18Z</time>
      </trkpt>
      <trkpt lat="50.04481" lon="4.33183">
        <ele>264.9</ele>
        <time>2020-06-24T17:54:19Z</time>
      </trkpt>
      <trkpt lat="50.04481" lon="4.33183">
        <ele>264.9</ele>
        <time>2020-06-24T17:54:20Z</time>
      </trkpt>
      <trkpt lat="50.04481" lon="4.33183">
        <ele>264.9</ele>
        <time>2020-06-24T17:54:21Z</time>
      </trkpt>
      <trkpt lat="50.04481" lon="4.33183">
        <ele>264.9</ele>
        <time>2020-06-24T17:54:22Z</time>
      </trkpt>
      <trkpt lat="50.04482" lon="4.33182">
        <ele>264.9</ele>
        <time>2020-06-24T17:54:23Z</time>
      </trkpt>
      <trkpt lat="50.04481" lon="4.33183">
        <ele>264.9</ele>
        <time>2020-06-24T17:54:24Z</time>
      </trkpt>
      <trkpt lat="50.04481" lon="4.33183">
        <ele>264.9</ele>
        <time>2020-06-24T17:54:25Z</time>
      </trkpt>
      <trkpt lat="50.04483" lon="4.33183">
        <ele>264.9</ele>
        <time>2020-06-24T17:54:26Z</time>
      </trkpt>
      <trkpt lat="50.04483" lon="4.33182">
        <ele>264.9</ele>
        <time>2020-06-24T17:54:27Z</time>
      </trkpt>
      <trkpt lat="50.04483" lon="4.33183">
        <ele>265</ele>
        <time>2020-06-24T17:54:28Z</time>
      </trkpt>
      <trkpt lat="50.04483" lon="4.33183">
        <ele>265</ele>
        <time>2020-06-24T17:54:29Z</time>
      </trkpt>
      <trkpt lat="50.04483" lon="4.33182">
        <ele>265</ele>
        <time>2020-06-24T17:54:30Z</time>
      </trkpt>
      <trkpt lat="50.04484" lon="4.33183">
        <ele>265</ele>
        <time>2020-06-24T17:54:31Z</time>
      </trkpt>
      <trkpt lat="50.04484" lon="4.33182">
        <ele>265</ele>
        <time>2020-06-24T17:54:32Z</time>
      </trkpt>
      <trkpt lat="50.04483" lon="4.33182">
        <ele>265</ele>
        <time>2020-06-24T17:54:33Z</time>
      </trkpt>
      <trkpt lat="50.04483" lon="4.3318">
        <ele>265</ele>
        <time>2020-06-24T17:54:34Z</time>
      </trkpt>
      <trkpt lat="50.04483" lon="4.33179">
        <ele>265</ele>
        <time>2020-06-24T17:54:35Z</time>
      </trkpt>
      <trkpt lat="50.04483" lon="4.33179">
        <ele>265</ele>
        <time>2020-06-24T17:54:36Z</time>
      </trkpt>
      <trkpt lat="50.04483" lon="4.33179">
        <ele>265</ele>
        <time>2020-06-24T17:54:37Z</time>
      </trkpt>
      <trkpt lat="50.04483" lon="4.33179">
        <ele>265</ele>
        <time>2020-06-24T17:54:38Z</time>
      </trkpt>
      <trkpt lat="50.04483" lon="4.33179">
        <ele>265</ele>
        <time>2020-06-24T17:54:39Z</time>
      </trkpt>
      <trkpt lat="50.04483" lon="4.33179">
        <ele>265</ele>
        <time>2020-06-24T17:54:40Z</time>
      </trkpt>
      <trkpt lat="50.04483" lon="4.33179">
        <ele>265</ele>
        <time>2020-06-24T17:54:41Z</time>
      </trkpt>
      <trkpt lat="50.04483" lon="4.33179">
        <ele>265</ele>
        <time>2020-06-24T17:54:42Z</time>
      </trkpt>
      <trkpt lat="50.04483" lon="4.33179">
        <ele>265</ele>
        <time>2020-06-24T17:54:43Z</time>
      </trkpt>
      <trkpt lat="50.04483" lon="4.33179">
        <ele>265</ele>
        <time>2020-06-24T17:54:44Z</time>
      </trkpt>
      <trkpt lat="50.04483" lon="4.33179">
        <ele>265</ele>
        <time>2020-06-24T17:54:45Z</time>
      </trkpt>
      <trkpt lat="50.04483" lon="4.33179">
        <ele>265</ele>
        <time>2020-06-24T17:54:46Z</time>
      </trkpt>
      <trkpt lat="50.0448" lon="4.33189">
        <ele>265.1</ele>
        <time>2020-06-24T18:17:09Z</time>
      </trkpt>
      <trkpt lat="50.0448" lon="4.33191">
        <ele>265.1</ele>
        <time>2020-06-24T18:17:10Z</time>
      </trkpt>
      <trkpt lat="50.04479" lon="4.33191">
        <ele>265.1</ele>
        <time>2020-06-24T18:17:11Z</time>
      </trkpt>
      <trkpt lat="50.04479" lon="4.33191">
        <ele>265.2</ele>
        <time>2020-06-24T18:17:12Z</time>
      </trkpt>
      <trkpt lat="50.04478" lon="4.33192">
        <ele>265.2</ele>
        <time>2020-06-24T18:17:13Z</time>
      </trkpt>
      <trkpt lat="50.04478" lon="4.33192">
        <ele>265.2</ele>
        <time>2020-06-24T18:17:14Z</time>
      </trkpt>
      <trkpt lat="50.04478" lon="4.33192">
        <ele>265.2</ele>
        <time>2020-06-24T18:17:15Z</time>
      </trkpt>
      <trkpt lat="50.04478" lon="4.33192">
        <ele>265.2</ele>
        <time>2020-06-24T18:17:16Z</time>
      </trkpt>
      <trkpt lat="50.04478" lon="4.33193">
        <ele>265.2</ele>
        <time>2020-06-24T18:17:17Z</time>
      </trkpt>
      <trkpt lat="50.04478" lon="4.33194">
        <ele>265.2</ele>
        <time>2020-06-24T18:17:18Z</time>
      </trkpt>
      <trkpt lat="50.04477" lon="4.33197">
        <ele>265.3</ele>
        <time>2020-06-24T18:17:19Z</time>
      </trkpt>
      <trkpt lat="50.04476" lon="4.33198">
        <ele>265.3</ele>
        <time>2020-06-24T18:17:20Z</time>
      </trkpt>
      <trkpt lat="50.04475" lon="4.33199">
        <ele>265.3</ele>
        <time>2020-06-24T18:17:21Z</time>
      </trkpt>
      <trkpt lat="50.04473" lon="4.33203">
        <ele>265.4</ele>
        <time>2020-06-24T18:17:22Z</time>
      </trkpt>
      <trkpt lat="50.04472" lon="4.33204">
        <ele>265.4</ele>
        <time>2020-06-24T18:17:23Z</time>
      </trkpt>
      <trkpt lat="50.0447" lon="4.33204">
        <ele>265.5</ele>
        <time>2020-06-24T18:17:24Z</time>
      </trkpt>
      <trkpt lat="50.04468" lon="4.33204">
        <ele>265.5</ele>
        <time>2020-06-24T18:17:25Z</time>
      </trkpt>
      <trkpt lat="50.04467" lon="4.33201">
        <ele>265.6</ele>
        <time>2020-06-24T18:17:26Z</time>
      </trkpt>
      <trkpt lat="50.04467" lon="4.33199">
        <ele>265.6</ele>
        <time>2020-06-24T18:17:27Z</time>
      </trkpt>
      <trkpt lat="50.04466" lon="4.33196">
        <ele>265.7</ele>
        <time>2020-06-24T18:17:28Z</time>
      </trkpt>
      <trkpt lat="50.04466" lon="4.33195">
        <ele>265.7</ele>
        <time>2020-06-24T18:17:29Z</time>
      </trkpt>
      <trkpt lat="50.04465" lon="4.33195">
        <ele>265.7</ele>
        <time>2020-06-24T18:17:30Z</time>
      </trkpt>
      <trkpt lat="50.04464" lon="4.33195">
        <ele>265.7</ele>
        <time>2020-06-24T18:17:31Z</time>
      </trkpt>
      <trkpt lat="50.04463" lon="4.33195">
        <ele>265.7</ele>
        <time>2020-06-24T18:17:32Z</time>
      </trkpt>
      <trkpt lat="50.04462" lon="4.33196">
        <ele>265.8</ele>
        <time>2020-06-24T18:17:33Z</time>
      </trkpt>
      <trkpt lat="50.04462" lon="4.33196">
        <ele>265.8</ele>
        <time>2020-06-24T18:17:34Z</time>
      </trkpt>
      <trkpt lat="50.04459" lon="4.33196">
        <ele>265.8</ele>
        <time>2020-06-24T18:17:35Z</time>
      </trkpt>
      <trkpt lat="50.04459" lon="4.33195">
        <ele>265.8</ele>
        <time>2020-06-24T18:17:36Z</time>
      </trkpt>
      <trkpt lat="50.04458" lon="4.33195">
        <ele>265.8</ele>
        <time>2020-06-24T18:17:37Z</time>
      </trkpt>
      <trkpt lat="50.04455" lon="4.33199">
        <ele>265.9</ele>
        <time>2020-06-24T18:17:38Z</time>
      </trkpt>
      <trkpt lat="50.04454" lon="4.332">
        <ele>265.9</ele>
        <time>2020-06-24T18:17:39Z</time>
      </trkpt>
      <trkpt lat="50.04452" lon="4.33205">
        <ele>265.9</ele>
        <time>2020-06-24T18:17:40Z</time>
      </trkpt>
      <trkpt lat="50.04451" lon="4.3321">
        <ele>266</ele>
        <time>2020-06-24T18:17:41Z</time>
      </trkpt>
      <trkpt lat="50.04449" lon="4.33215">
        <ele>266</ele>
        <time>2020-06-24T18:17:42Z</time>
      </trkpt>
      <trkpt lat="50.04446" lon="4.3322">
        <ele>266</ele>
        <time>2020-06-24T18:17:43Z</time>
      </trkpt>
      <trkpt lat="50.04444" lon="4.33225">
        <ele>266.1</ele>
        <time>2020-06-24T18:17:44Z</time>
      </trkpt>
      <trkpt lat="50.04443" lon="4.3323">
        <ele>266.1</ele>
        <time>2020-06-24T18:17:45Z</time>
      </trkpt>
      <trkpt lat="50.04442" lon="4.33234">
        <ele>266.1</ele>
        <time>2020-06-24T18:17:46Z</time>
      </trkpt>
      <trkpt lat="50.0444" lon="4.33239">
        <ele>266.1</ele>
        <time>2020-06-24T18:17:47Z</time>
      </trkpt>
      <trkpt lat="50.04439" lon="4.33244">
        <ele>266.2</ele>
        <time>2020-06-24T18:17:48Z</time>
      </trkpt>
      <trkpt lat="50.04438" lon="4.33249">
        <ele>266.2</ele>
        <time>2020-06-24T18:17:49Z</time>
      </trkpt>
      <trkpt lat="50.04437" lon="4.33253">
        <ele>266.2</ele>
        <time>2020-06-24T18:17:50Z</time>
      </trkpt>
      <trkpt lat="50.04436" lon="4.33258">
        <ele>266.2</ele>
        <time>2020-06-24T18:17:51Z</time>
      </trkpt>
      <trkpt lat="50.04434" lon="4.33262">
        <ele>266.3</ele>
        <time>2020-06-24T18:17:52Z</time>
      </trkpt>
      <trkpt lat="50.04433" lon="4.33267">
        <ele>266.3</ele>
        <time>2020-06-24T18:17:53Z</time>
      </trkpt>
      <trkpt lat="50.04431" lon="4.33272">
        <ele>266.3</ele>
        <time>2020-06-24T18:17:54Z</time>
      </trkpt>
      <trkpt lat="50.0443" lon="4.33273">
        <ele>266.3</ele>
        <time>2020-06-24T18:17:55Z</time>
      </trkpt>
      <trkpt lat="50.04428" lon="4.33277">
        <ele>266.3</ele>
        <time>2020-06-24T18:17:56Z</time>
      </trkpt>
      <trkpt lat="50.04427" lon="4.33279">
        <ele>266.4</ele>
        <time>2020-06-24T18:17:57Z</time>
      </trkpt>
      <trkpt lat="50.04426" lon="4.33283">
        <ele>266.4</ele>
        <time>2020-06-24T18:17:58Z</time>
      </trkpt>
      <trkpt lat="50.04425" lon="4.33288">
        <ele>266.4</ele>
        <time>2020-06-24T18:17:59Z</time>
      </trkpt>
      <trkpt lat="50.04424" lon="4.33292">
        <ele>266.4</ele>
        <time>2020-06-24T18:18:00Z</time>
      </trkpt>
      <trkpt lat="50.04423" lon="4.33298">
        <ele>266.5</ele>
        <time>2020-06-24T18:18:01Z</time>
      </trkpt>
      <trkpt lat="50.04422" lon="4.33305">
        <ele>266.5</ele>
        <time>2020-06-24T18:18:02Z</time>
      </trkpt>
      <trkpt lat="50.04421" lon="4.33311">
        <ele>266.6</ele>
        <time>2020-06-24T18:18:03Z</time>
      </trkpt>
      <trkpt lat="50.0442" lon="4.33317">
        <ele>266.6</ele>
        <time>2020-06-24T18:18:04Z</time>
      </trkpt>
      <trkpt lat="50.04418" lon="4.33324">
        <ele>266.6</ele>
        <time>2020-06-24T18:18:05Z</time>
      </trkpt>
      <trkpt lat="50.04416" lon="4.3333">
        <ele>266.6</ele>
        <time>2020-06-24T18:18:06Z</time>
      </trkpt>
      <trkpt lat="50.04415" lon="4.33337">
        <ele>266.6</ele>
        <time>2020-06-24T18:18:07Z</time>
      </trkpt>
      <trkpt lat="50.04413" lon="4.33343">
        <ele>266.6</ele>
        <time>2020-06-24T18:18:08Z</time>
      </trkpt>
      <trkpt lat="50.04412" lon="4.33349">
        <ele>266.6</ele>
        <time>2020-06-24T18:18:09Z</time>
      </trkpt>
      <trkpt lat="50.04411" lon="4.33355">
        <ele>266.6</ele>
        <time>2020-06-24T18:18:10Z</time>
      </trkpt>
      <trkpt lat="50.0441" lon="4.3336">
        <ele>266.6</ele>
        <time>2020-06-24T18:18:11Z</time>
      </trkpt>
      <trkpt lat="50.04409" lon="4.33365">
        <ele>266.7</ele>
        <time>2020-06-24T18:18:12Z</time>
      </trkpt>
      <trkpt lat="50.04407" lon="4.3337">
        <ele>266.7</ele>
        <time>2020-06-24T18:18:13Z</time>
      </trkpt>
      <trkpt lat="50.04405" lon="4.33377">
        <ele>266.7</ele>
        <time>2020-06-24T18:18:14Z</time>
      </trkpt>
      <trkpt lat="50.04404" lon="4.33383">
        <ele>266.7</ele>
        <time>2020-06-24T18:18:15Z</time>
      </trkpt>
      <trkpt lat="50.04403" lon="4.3339">
        <ele>266.7</ele>
        <time>2020-06-24T18:18:16Z</time>
      </trkpt>
      <trkpt lat="50.04402" lon="4.33395">
        <ele>266.7</ele>
        <time>2020-06-24T18:18:17Z</time>
      </trkpt>
      <trkpt lat="50.04401" lon="4.33401">
        <ele>266.7</ele>
        <time>2020-06-24T18:18:18Z</time>
      </trkpt>
      <trkpt lat="50.04401" lon="4.33408">
        <ele>266.7</ele>
        <time>2020-06-24T18:18:19Z</time>
      </trkpt>
      <trkpt lat="50.044" lon="4.33413">
        <ele>266.7</ele>
        <time>2020-06-24T18:18:20Z</time>
      </trkpt>
      <trkpt lat="50.04399" lon="4.33418">
        <ele>266.7</ele>
        <time>2020-06-24T18:18:21Z</time>
      </trkpt>
      <trkpt lat="50.04398" lon="4.33423">
        <ele>266.7</ele>
        <time>2020-06-24T18:18:22Z</time>
      </trkpt>
      <trkpt lat="50.04397" lon="4.33429">
        <ele>266.7</ele>
        <time>2020-06-24T18:18:23Z</time>
      </trkpt>
      <trkpt lat="50.04396" lon="4.33434">
        <ele>266.7</ele>
        <time>2020-06-24T18:18:24Z</time>
      </trkpt>
      <trkpt lat="50.04395" lon="4.3344">
        <ele>266.7</ele>
        <time>2020-06-24T18:18:25Z</time>
      </trkpt>
      <trkpt lat="50.04393" lon="4.33446">
        <ele>266.7</ele>
        <time>2020-06-24T18:18:26Z</time>
      </trkpt>
      <trkpt lat="50.04392" lon="4.33452">
        <ele>266.7</ele>
        <time>2020-06-24T18:18:27Z</time>
      </trkpt>
      <trkpt lat="50.04391" lon="4.33458">
        <ele>266.7</ele>
        <time>2020-06-24T18:18:28Z</time>
      </trkpt>
      <trkpt lat="50.04389" lon="4.33464">
        <ele>266.7</ele>
        <time>2020-06-24T18:18:29Z</time>
      </trkpt>
      <trkpt lat="50.04388" lon="4.33469">
        <ele>266.8</ele>
        <time>2020-06-24T18:18:30Z</time>
      </trkpt>
      <trkpt lat="50.04386" lon="4.33475">
        <ele>266.8</ele>
        <time>2020-06-24T18:18:31Z</time>
      </trkpt>
      <trkpt lat="50.04385" lon="4.3348">
        <ele>266.9</ele>
        <time>2020-06-24T18:18:32Z</time>
      </trkpt>
      <trkpt lat="50.04384" lon="4.33485">
        <ele>267</ele>
        <time>2020-06-24T18:18:33Z</time>
      </trkpt>
      <trkpt lat="50.04382" lon="4.3349">
        <ele>267</ele>
        <time>2020-06-24T18:18:34Z</time>
      </trkpt>
      <trkpt lat="50.04381" lon="4.33495">
        <ele>267.1</ele>
        <time>2020-06-24T18:18:35Z</time>
      </trkpt>
      <trkpt lat="50.04379" lon="4.33501">
        <ele>267.1</ele>
        <time>2020-06-24T18:18:36Z</time>
      </trkpt>
      <trkpt lat="50.04378" lon="4.33506">
        <ele>267.2</ele>
        <time>2020-06-24T18:18:37Z</time>
      </trkpt>
      <trkpt lat="50.04377" lon="4.33512">
        <ele>267.2</ele>
        <time>2020-06-24T18:18:38Z</time>
      </trkpt>
      <trkpt lat="50.04376" lon="4.33519">
        <ele>267.2</ele>
        <time>2020-06-24T18:18:39Z</time>
      </trkpt>
      <trkpt lat="50.04374" lon="4.33525">
        <ele>267.2</ele>
        <time>2020-06-24T18:18:40Z</time>
      </trkpt>
      <trkpt lat="50.04373" lon="4.33531">
        <ele>267.2</ele>
        <time>2020-06-24T18:18:41Z</time>
      </trkpt>
      <trkpt lat="50.04372" lon="4.33538">
        <ele>267.2</ele>
        <time>2020-06-24T18:18:42Z</time>
      </trkpt>
      <trkpt lat="50.0437" lon="4.33543">
        <ele>267.2</ele>
        <time>2020-06-24T18:18:43Z</time>
      </trkpt>
      <trkpt lat="50.04369" lon="4.33548">
        <ele>267.2</ele>
        <time>2020-06-24T18:18:44Z</time>
      </trkpt>
      <trkpt lat="50.04368" lon="4.33554">
        <ele>267.2</ele>
        <time>2020-06-24T18:18:45Z</time>
      </trkpt>
      <trkpt lat="50.04366" lon="4.3356">
        <ele>267.2</ele>
        <time>2020-06-24T18:18:46Z</time>
      </trkpt>
      <trkpt lat="50.04365" lon="4.33565">
        <ele>267.2</ele>
        <time>2020-06-24T18:18:47Z</time>
      </trkpt>
      <trkpt lat="50.04364" lon="4.33571">
        <ele>267.2</ele>
        <time>2020-06-24T18:18:48Z</time>
      </trkpt>
      <trkpt lat="50.04363" lon="4.33577">
        <ele>267.2</ele>
        <time>2020-06-24T18:18:49Z</time>
      </trkpt>
      <trkpt lat="50.04361" lon="4.33582">
        <ele>267.2</ele>
        <time>2020-06-24T18:18:50Z</time>
      </trkpt>
      <trkpt lat="50.0436" lon="4.33589">
        <ele>267.2</ele>
        <time>2020-06-24T18:18:51Z</time>
      </trkpt>
      <trkpt lat="50.04358" lon="4.33596">
        <ele>267.2</ele>
        <time>2020-06-24T18:18:52Z</time>
      </trkpt>
      <trkpt lat="50.04356" lon="4.33603">
        <ele>267.3</ele>
        <time>2020-06-24T18:18:53Z</time>
      </trkpt>
      <trkpt lat="50.04355" lon="4.33609">
        <ele>267.3</ele>
        <time>2020-06-24T18:18:54Z</time>
      </trkpt>
      <trkpt lat="50.04354" lon="4.33616">
        <ele>267.3</ele>
        <time>2020-06-24T18:18:55Z</time>
      </trkpt>
      <trkpt lat="50.04352" lon="4.33623">
        <ele>267.3</ele>
        <time>2020-06-24T18:18:56Z</time>
      </trkpt>
      <trkpt lat="50.04351" lon="4.33629">
        <ele>267.4</ele>
        <time>2020-06-24T18:18:57Z</time>
      </trkpt>
      <trkpt lat="50.04349" lon="4.33635">
        <ele>267.4</ele>
        <time>2020-06-24T18:18:58Z</time>
      </trkpt>
      <trkpt lat="50.04348" lon="4.33641">
        <ele>267.4</ele>
        <time>2020-06-24T18:18:59Z</time>
      </trkpt>
      <trkpt lat="50.04347" lon="4.33646">
        <ele>267.4</ele>
        <time>2020-06-24T18:19:00Z</time>
      </trkpt>
      <trkpt lat="50.04346" lon="4.33653">
        <ele>267.4</ele>
        <time>2020-06-24T18:19:01Z</time>
      </trkpt>
      <trkpt lat="50.04344" lon="4.33659">
        <ele>267.4</ele>
        <time>2020-06-24T18:19:02Z</time>
      </trkpt>
      <trkpt lat="50.04343" lon="4.33667">
        <ele>267.4</ele>
        <time>2020-06-24T18:19:03Z</time>
      </trkpt>
      <trkpt lat="50.04341" lon="4.33674">
        <ele>267.4</ele>
        <time>2020-06-24T18:19:04Z</time>
      </trkpt>
      <trkpt lat="50.0434" lon="4.3368">
        <ele>267.4</ele>
        <time>2020-06-24T18:19:05Z</time>
      </trkpt>
      <trkpt lat="50.04339" lon="4.33686">
        <ele>267.4</ele>
        <time>2020-06-24T18:19:06Z</time>
      </trkpt>
      <trkpt lat="50.04337" lon="4.33693">
        <ele>267.4</ele>
        <time>2020-06-24T18:19:07Z</time>
      </trkpt>
      <trkpt lat="50.04336" lon="4.33698">
        <ele>267.4</ele>
        <time>2020-06-24T18:19:08Z</time>
      </trkpt>
      <trkpt lat="50.04335" lon="4.33704">
        <ele>267.4</ele>
        <time>2020-06-24T18:19:09Z</time>
      </trkpt>
      <trkpt lat="50.04333" lon="4.3371">
        <ele>267.5</ele>
        <time>2020-06-24T18:19:10Z</time>
      </trkpt>
      <trkpt lat="50.04332" lon="4.33716">
        <ele>267.5</ele>
        <time>2020-06-24T18:19:11Z</time>
      </trkpt>
      <trkpt lat="50.0433" lon="4.33721">
        <ele>267.5</ele>
        <time>2020-06-24T18:19:12Z</time>
      </trkpt>
      <trkpt lat="50.04329" lon="4.33728">
        <ele>267.5</ele>
        <time>2020-06-24T18:19:13Z</time>
      </trkpt>
      <trkpt lat="50.04327" lon="4.33733">
        <ele>267.5</ele>
        <time>2020-06-24T18:19:14Z</time>
      </trkpt>
      <trkpt lat="50.04326" lon="4.3374">
        <ele>267.5</ele>
        <time>2020-06-24T18:19:15Z</time>
      </trkpt>
      <trkpt lat="50.04324" lon="4.33745">
        <ele>267.5</ele>
        <time>2020-06-24T18:19:16Z</time>
      </trkpt>
      <trkpt lat="50.04323" lon="4.33752">
        <ele>267.5</ele>
        <time>2020-06-24T18:19:17Z</time>
      </trkpt>
      <trkpt lat="50.04321" lon="4.33758">
        <ele>267.5</ele>
        <time>2020-06-24T18:19:18Z</time>
      </trkpt>
      <trkpt lat="50.0432" lon="4.33763">
        <ele>267.5</ele>
        <time>2020-06-24T18:19:19Z</time>
      </trkpt>
      <trkpt lat="50.04319" lon="4.33768">
        <ele>267.5</ele>
        <time>2020-06-24T18:19:20Z</time>
      </trkpt>
      <trkpt lat="50.04318" lon="4.33773">
        <ele>267.4</ele>
        <time>2020-06-24T18:19:21Z</time>
      </trkpt>
      <trkpt lat="50.04316" lon="4.33778">
        <ele>267.4</ele>
        <time>2020-06-24T18:19:22Z</time>
      </trkpt>
      <trkpt lat="50.04315" lon="4.33785">
        <ele>267.4</ele>
        <time>2020-06-24T18:19:23Z</time>
      </trkpt>
      <trkpt lat="50.04313" lon="4.33792">
        <ele>267.3</ele>
        <time>2020-06-24T18:19:24Z</time>
      </trkpt>
      <trkpt lat="50.04312" lon="4.33799">
        <ele>267.2</ele>
        <time>2020-06-24T18:19:25Z</time>
      </trkpt>
      <trkpt lat="50.0431" lon="4.33805">
        <ele>267.1</ele>
        <time>2020-06-24T18:19:26Z</time>
      </trkpt>
      <trkpt lat="50.04309" lon="4.33811">
        <ele>267</ele>
        <time>2020-06-24T18:19:27Z</time>
      </trkpt>
      <trkpt lat="50.04307" lon="4.33817">
        <ele>266.9</ele>
        <time>2020-06-24T18:19:28Z</time>
      </trkpt>
      <trkpt lat="50.04305" lon="4.33823">
        <ele>266.8</ele>
        <time>2020-06-24T18:19:29Z</time>
      </trkpt>
      <trkpt lat="50.04303" lon="4.33829">
        <ele>266.7</ele>
        <time>2020-06-24T18:19:30Z</time>
      </trkpt>
      <trkpt lat="50.04301" lon="4.33835">
        <ele>266.6</ele>
        <time>2020-06-24T18:19:31Z</time>
      </trkpt>
      <trkpt lat="50.04299" lon="4.33842">
        <ele>266.4</ele>
        <time>2020-06-24T18:19:32Z</time>
      </trkpt>
      <trkpt lat="50.04297" lon="4.33849">
        <ele>266.2</ele>
        <time>2020-06-24T18:19:33Z</time>
      </trkpt>
      <trkpt lat="50.04295" lon="4.33856">
        <ele>266</ele>
        <time>2020-06-24T18:19:34Z</time>
      </trkpt>
      <trkpt lat="50.04292" lon="4.33864">
        <ele>265.9</ele>
        <time>2020-06-24T18:19:35Z</time>
      </trkpt>
      <trkpt lat="50.0429" lon="4.33871">
        <ele>265.7</ele>
        <time>2020-06-24T18:19:36Z</time>
      </trkpt>
      <trkpt lat="50.04287" lon="4.33879">
        <ele>265.6</ele>
        <time>2020-06-24T18:19:37Z</time>
      </trkpt>
      <trkpt lat="50.04285" lon="4.33886">
        <ele>265.4</ele>
        <time>2020-06-24T18:19:38Z</time>
      </trkpt>
      <trkpt lat="50.04282" lon="4.33894">
        <ele>265.2</ele>
        <time>2020-06-24T18:19:39Z</time>
      </trkpt>
      <trkpt lat="50.0428" lon="4.33903">
        <ele>265.1</ele>
        <time>2020-06-24T18:19:40Z</time>
      </trkpt>
      <trkpt lat="50.04277" lon="4.3391">
        <ele>264.9</ele>
        <time>2020-06-24T18:19:41Z</time>
      </trkpt>
      <trkpt lat="50.04275" lon="4.33919">
        <ele>264.7</ele>
        <time>2020-06-24T18:19:42Z</time>
      </trkpt>
      <trkpt lat="50.04272" lon="4.33928">
        <ele>264.6</ele>
        <time>2020-06-24T18:19:43Z</time>
      </trkpt>
      <trkpt lat="50.0427" lon="4.33937">
        <ele>264.4</ele>
        <time>2020-06-24T18:19:44Z</time>
      </trkpt>
      <trkpt lat="50.04267" lon="4.33945">
        <ele>264.2</ele>
        <time>2020-06-24T18:19:45Z</time>
      </trkpt>
      <trkpt lat="50.04264" lon="4.33954">
        <ele>264.1</ele>
        <time>2020-06-24T18:19:46Z</time>
      </trkpt>
      <trkpt lat="50.04262" lon="4.33963">
        <ele>264</ele>
        <time>2020-06-24T18:19:47Z</time>
      </trkpt>
      <trkpt lat="50.04259" lon="4.33972">
        <ele>263.9</ele>
        <time>2020-06-24T18:19:48Z</time>
      </trkpt>
      <trkpt lat="50.04256" lon="4.33981">
        <ele>263.7</ele>
        <time>2020-06-24T18:19:49Z</time>
      </trkpt>
      <trkpt lat="50.04254" lon="4.3399">
        <ele>263.4</ele>
        <time>2020-06-24T18:19:50Z</time>
      </trkpt>
      <trkpt lat="50.04251" lon="4.33998">
        <ele>263.1</ele>
        <time>2020-06-24T18:19:51Z</time>
      </trkpt>
      <trkpt lat="50.04248" lon="4.34008">
        <ele>262.9</ele>
        <time>2020-06-24T18:19:52Z</time>
      </trkpt>
      <trkpt lat="50.04246" lon="4.34016">
        <ele>262.6</ele>
        <time>2020-06-24T18:19:53Z</time>
      </trkpt>
      <trkpt lat="50.04244" lon="4.34024">
        <ele>262.4</ele>
        <time>2020-06-24T18:19:54Z</time>
      </trkpt>
      <trkpt lat="50.04242" lon="4.34031">
        <ele>262.3</ele>
        <time>2020-06-24T18:19:55Z</time>
      </trkpt>
      <trkpt lat="50.04239" lon="4.3404">
        <ele>262.2</ele>
        <time>2020-06-24T18:19:56Z</time>
      </trkpt>
      <trkpt lat="50.04237" lon="4.3405">
        <ele>262</ele>
        <time>2020-06-24T18:19:57Z</time>
      </trkpt>
      <trkpt lat="50.04234" lon="4.3406">
        <ele>261.9</ele>
        <time>2020-06-24T18:19:58Z</time>
      </trkpt>
      <trkpt lat="50.04231" lon="4.3407">
        <ele>261.8</ele>
        <time>2020-06-24T18:19:59Z</time>
      </trkpt>
      <trkpt lat="50.04229" lon="4.34077">
        <ele>261.6</ele>
        <time>2020-06-24T18:20:00Z</time>
      </trkpt>
      <trkpt lat="50.04226" lon="4.34086">
        <ele>261.4</ele>
        <time>2020-06-24T18:20:01Z</time>
      </trkpt>
      <trkpt lat="50.04224" lon="4.34095">
        <ele>261.1</ele>
        <time>2020-06-24T18:20:02Z</time>
      </trkpt>
      <trkpt lat="50.04221" lon="4.34103">
        <ele>260.9</ele>
        <time>2020-06-24T18:20:03Z</time>
      </trkpt>
      <trkpt lat="50.04219" lon="4.34112">
        <ele>260.6</ele>
        <time>2020-06-24T18:20:04Z</time>
      </trkpt>
      <trkpt lat="50.04216" lon="4.34121">
        <ele>260.4</ele>
        <time>2020-06-24T18:20:05Z</time>
      </trkpt>
      <trkpt lat="50.04214" lon="4.34129">
        <ele>260.3</ele>
        <time>2020-06-24T18:20:06Z</time>
      </trkpt>
      <trkpt lat="50.04211" lon="4.34138">
        <ele>260.1</ele>
        <time>2020-06-24T18:20:07Z</time>
      </trkpt>
      <trkpt lat="50.04208" lon="4.34148">
        <ele>260</ele>
        <time>2020-06-24T18:20:08Z</time>
      </trkpt>
      <trkpt lat="50.04205" lon="4.34158">
        <ele>259.8</ele>
        <time>2020-06-24T18:20:09Z</time>
      </trkpt>
      <trkpt lat="50.04203" lon="4.34167">
        <ele>259.7</ele>
        <time>2020-06-24T18:20:10Z</time>
      </trkpt>
      <trkpt lat="50.04201" lon="4.34176">
        <ele>259.6</ele>
        <time>2020-06-24T18:20:11Z</time>
      </trkpt>
      <trkpt lat="50.04198" lon="4.34185">
        <ele>259.4</ele>
        <time>2020-06-24T18:20:12Z</time>
      </trkpt>
      <trkpt lat="50.04196" lon="4.34194">
        <ele>259.3</ele>
        <time>2020-06-24T18:20:13Z</time>
      </trkpt>
      <trkpt lat="50.04193" lon="4.34202">
        <ele>259.1</ele>
        <time>2020-06-24T18:20:14Z</time>
      </trkpt>
      <trkpt lat="50.0419" lon="4.34212">
        <ele>259</ele>
        <time>2020-06-24T18:20:15Z</time>
      </trkpt>
      <trkpt lat="50.04187" lon="4.34221">
        <ele>258.9</ele>
        <time>2020-06-24T18:20:16Z</time>
      </trkpt>
      <trkpt lat="50.04184" lon="4.3423">
        <ele>258.9</ele>
        <time>2020-06-24T18:20:17Z</time>
      </trkpt>
      <trkpt lat="50.04182" lon="4.34238">
        <ele>258.9</ele>
        <time>2020-06-24T18:20:18Z</time>
      </trkpt>
      <trkpt lat="50.04179" lon="4.34247">
        <ele>258.9</ele>
        <time>2020-06-24T18:20:19Z</time>
      </trkpt>
      <trkpt lat="50.04176" lon="4.34255">
        <ele>258.9</ele>
        <time>2020-06-24T18:20:20Z</time>
      </trkpt>
      <trkpt lat="50.04174" lon="4.34265">
        <ele>258.9</ele>
        <time>2020-06-24T18:20:21Z</time>
      </trkpt>
      <trkpt lat="50.04171" lon="4.34272">
        <ele>258.8</ele>
        <time>2020-06-24T18:20:22Z</time>
      </trkpt>
      <trkpt lat="50.04169" lon="4.34281">
        <ele>258.8</ele>
        <time>2020-06-24T18:20:23Z</time>
      </trkpt>
      <trkpt lat="50.04167" lon="4.34288">
        <ele>258.8</ele>
        <time>2020-06-24T18:20:24Z</time>
      </trkpt>
      <trkpt lat="50.04165" lon="4.34297">
        <ele>258.8</ele>
        <time>2020-06-24T18:20:25Z</time>
      </trkpt>
      <trkpt lat="50.04162" lon="4.34306">
        <ele>258.8</ele>
        <time>2020-06-24T18:20:26Z</time>
      </trkpt>
      <trkpt lat="50.0416" lon="4.34312">
        <ele>258.8</ele>
        <time>2020-06-24T18:20:27Z</time>
      </trkpt>
      <trkpt lat="50.04158" lon="4.3432">
        <ele>258.8</ele>
        <time>2020-06-24T18:20:28Z</time>
      </trkpt>
      <trkpt lat="50.04155" lon="4.34328">
        <ele>258.8</ele>
        <time>2020-06-24T18:20:29Z</time>
      </trkpt>
      <trkpt lat="50.04154" lon="4.34335">
        <ele>258.8</ele>
        <time>2020-06-24T18:20:30Z</time>
      </trkpt>
      <trkpt lat="50.04152" lon="4.34342">
        <ele>258.8</ele>
        <time>2020-06-24T18:20:31Z</time>
      </trkpt>
      <trkpt lat="50.0415" lon="4.34348">
        <ele>258.7</ele>
        <time>2020-06-24T18:20:32Z</time>
      </trkpt>
      <trkpt lat="50.04147" lon="4.34355">
        <ele>258.7</ele>
        <time>2020-06-24T18:20:33Z</time>
      </trkpt>
      <trkpt lat="50.04145" lon="4.34363">
        <ele>258.6</ele>
        <time>2020-06-24T18:20:34Z</time>
      </trkpt>
      <trkpt lat="50.04142" lon="4.34372">
        <ele>258.6</ele>
        <time>2020-06-24T18:20:35Z</time>
      </trkpt>
      <trkpt lat="50.0414" lon="4.34379">
        <ele>258.5</ele>
        <time>2020-06-24T18:20:36Z</time>
      </trkpt>
      <trkpt lat="50.04138" lon="4.34387">
        <ele>258.5</ele>
        <time>2020-06-24T18:20:37Z</time>
      </trkpt>
      <trkpt lat="50.04136" lon="4.34394">
        <ele>258.5</ele>
        <time>2020-06-24T18:20:38Z</time>
      </trkpt>
      <trkpt lat="50.04133" lon="4.34402">
        <ele>258.5</ele>
        <time>2020-06-24T18:20:39Z</time>
      </trkpt>
      <trkpt lat="50.04131" lon="4.34409">
        <ele>258.6</ele>
        <time>2020-06-24T18:20:40Z</time>
      </trkpt>
      <trkpt lat="50.04129" lon="4.34417">
        <ele>258.6</ele>
        <time>2020-06-24T18:20:41Z</time>
      </trkpt>
      <trkpt lat="50.04127" lon="4.34425">
        <ele>258.6</ele>
        <time>2020-06-24T18:20:42Z</time>
      </trkpt>
      <trkpt lat="50.04124" lon="4.34431">
        <ele>258.6</ele>
        <time>2020-06-24T18:20:43Z</time>
      </trkpt>
      <trkpt lat="50.04123" lon="4.34437">
        <ele>258.6</ele>
        <time>2020-06-24T18:20:44Z</time>
      </trkpt>
      <trkpt lat="50.04121" lon="4.34443">
        <ele>258.6</ele>
        <time>2020-06-24T18:20:45Z</time>
      </trkpt>
      <trkpt lat="50.04119" lon="4.34449">
        <ele>258.7</ele>
        <time>2020-06-24T18:20:46Z</time>
      </trkpt>
      <trkpt lat="50.04117" lon="4.34456">
        <ele>258.7</ele>
        <time>2020-06-24T18:20:47Z</time>
      </trkpt>
      <trkpt lat="50.04115" lon="4.34463">
        <ele>258.8</ele>
        <time>2020-06-24T18:20:48Z</time>
      </trkpt>
      <trkpt lat="50.04113" lon="4.34471">
        <ele>259</ele>
        <time>2020-06-24T18:20:49Z</time>
      </trkpt>
      <trkpt lat="50.04111" lon="4.34477">
        <ele>259.1</ele>
        <time>2020-06-24T18:20:50Z</time>
      </trkpt>
      <trkpt lat="50.0411" lon="4.34483">
        <ele>259.3</ele>
        <time>2020-06-24T18:20:51Z</time>
      </trkpt>
      <trkpt lat="50.04108" lon="4.3449">
        <ele>259.5</ele>
        <time>2020-06-24T18:20:52Z</time>
      </trkpt>
      <trkpt lat="50.04107" lon="4.34496">
        <ele>259.8</ele>
        <time>2020-06-24T18:20:53Z</time>
      </trkpt>
      <trkpt lat="50.04105" lon="4.34502">
        <ele>260.1</ele>
        <time>2020-06-24T18:20:54Z</time>
      </trkpt>
      <trkpt lat="50.04103" lon="4.34508">
        <ele>260.4</ele>
        <time>2020-06-24T18:20:55Z</time>
      </trkpt>
      <trkpt lat="50.041" lon="4.34513">
        <ele>260.7</ele>
        <time>2020-06-24T18:20:56Z</time>
      </trkpt>
      <trkpt lat="50.04096" lon="4.34516">
        <ele>261.2</ele>
        <time>2020-06-24T18:20:57Z</time>
      </trkpt>
      <trkpt lat="50.0409" lon="4.34514">
        <ele>261.3</ele>
        <time>2020-06-24T18:20:58Z</time>
      </trkpt>
      <trkpt lat="50.04084" lon="4.34511">
        <ele>261.3</ele>
        <time>2020-06-24T18:20:59Z</time>
      </trkpt>
      <trkpt lat="50.04079" lon="4.34507">
        <ele>261.3</ele>
        <time>2020-06-24T18:21:00Z</time>
      </trkpt>
      <trkpt lat="50.04075" lon="4.34506">
        <ele>261.2</ele>
        <time>2020-06-24T18:21:01Z</time>
      </trkpt>
      <trkpt lat="50.04069" lon="4.34504">
        <ele>261.2</ele>
        <time>2020-06-24T18:21:02Z</time>
      </trkpt>
      <trkpt lat="50.04065" lon="4.34501">
        <ele>261.2</ele>
        <time>2020-06-24T18:21:03Z</time>
      </trkpt>
      <trkpt lat="50.04061" lon="4.34499">
        <ele>261.2</ele>
        <time>2020-06-24T18:21:04Z</time>
      </trkpt>
      <trkpt lat="50.04057" lon="4.34497">
        <ele>261.2</ele>
        <time>2020-06-24T18:21:05Z</time>
      </trkpt>
      <trkpt lat="50.04051" lon="4.34495">
        <ele>261.3</ele>
        <time>2020-06-24T18:21:06Z</time>
      </trkpt>
      <trkpt lat="50.04047" lon="4.34494">
        <ele>261.3</ele>
        <time>2020-06-24T18:21:07Z</time>
      </trkpt>
      <trkpt lat="50.04043" lon="4.34493">
        <ele>261.3</ele>
        <time>2020-06-24T18:21:08Z</time>
      </trkpt>
      <trkpt lat="50.04038" lon="4.34494">
        <ele>261.3</ele>
        <time>2020-06-24T18:21:09Z</time>
      </trkpt>
      <trkpt lat="50.04032" lon="4.34495">
        <ele>261.4</ele>
        <time>2020-06-24T18:21:10Z</time>
      </trkpt>
      <trkpt lat="50.04028" lon="4.34495">
        <ele>261.4</ele>
        <time>2020-06-24T18:21:11Z</time>
      </trkpt>
      <trkpt lat="50.04025" lon="4.34496">
        <ele>261.5</ele>
        <time>2020-06-24T18:21:12Z</time>
      </trkpt>
      <trkpt lat="50.0402" lon="4.34496">
        <ele>261.5</ele>
        <time>2020-06-24T18:21:13Z</time>
      </trkpt>
      <trkpt lat="50.04015" lon="4.34497">
        <ele>261.6</ele>
        <time>2020-06-24T18:21:14Z</time>
      </trkpt>
      <trkpt lat="50.04011" lon="4.34497">
        <ele>261.7</ele>
        <time>2020-06-24T18:21:15Z</time>
      </trkpt>
      <trkpt lat="50.04006" lon="4.34497">
        <ele>261.8</ele>
        <time>2020-06-24T18:21:16Z</time>
      </trkpt>
      <trkpt lat="50.04001" lon="4.34497">
        <ele>262</ele>
        <time>2020-06-24T18:21:17Z</time>
      </trkpt>
      <trkpt lat="50.03997" lon="4.34497">
        <ele>262.1</ele>
        <time>2020-06-24T18:21:18Z</time>
      </trkpt>
      <trkpt lat="50.03992" lon="4.34496">
        <ele>262.2</ele>
        <time>2020-06-24T18:21:19Z</time>
      </trkpt>
      <trkpt lat="50.03989" lon="4.34496">
        <ele>262.3</ele>
        <time>2020-06-24T18:21:20Z</time>
      </trkpt>
      <trkpt lat="50.03984" lon="4.34496">
        <ele>262.4</ele>
        <time>2020-06-24T18:21:21Z</time>
      </trkpt>
      <trkpt lat="50.0398" lon="4.34496">
        <ele>262.5</ele>
        <time>2020-06-24T18:21:22Z</time>
      </trkpt>
      <trkpt lat="50.03977" lon="4.34496">
        <ele>262.6</ele>
        <time>2020-06-24T18:21:23Z</time>
      </trkpt>
      <trkpt lat="50.03973" lon="4.34496">
        <ele>262.8</ele>
        <time>2020-06-24T18:21:24Z</time>
      </trkpt>
      <trkpt lat="50.0397" lon="4.34496">
        <ele>262.9</ele>
        <time>2020-06-24T18:21:25Z</time>
      </trkpt>
      <trkpt lat="50.03966" lon="4.34495">
        <ele>263</ele>
        <time>2020-06-24T18:21:26Z</time>
      </trkpt>
      <trkpt lat="50.03961" lon="4.34495">
        <ele>263.1</ele>
        <time>2020-06-24T18:21:27Z</time>
      </trkpt>
      <trkpt lat="50.03957" lon="4.34494">
        <ele>263.2</ele>
        <time>2020-06-24T18:21:28Z</time>
      </trkpt>
      <trkpt lat="50.03954" lon="4.34492">
        <ele>263.3</ele>
        <time>2020-06-24T18:21:29Z</time>
      </trkpt>
      <trkpt lat="50.0395" lon="4.34491">
        <ele>263.4</ele>
        <time>2020-06-24T18:21:30Z</time>
      </trkpt>
      <trkpt lat="50.03945" lon="4.3449">
        <ele>263.4</ele>
        <time>2020-06-24T18:21:31Z</time>
      </trkpt>
      <trkpt lat="50.03941" lon="4.34489">
        <ele>263.5</ele>
        <time>2020-06-24T18:21:32Z</time>
      </trkpt>
      <trkpt lat="50.03937" lon="4.34489">
        <ele>263.5</ele>
        <time>2020-06-24T18:21:33Z</time>
      </trkpt>
      <trkpt lat="50.03933" lon="4.34489">
        <ele>263.4</ele>
        <time>2020-06-24T18:21:34Z</time>
      </trkpt>
      <trkpt lat="50.03929" lon="4.34489">
        <ele>263.4</ele>
        <time>2020-06-24T18:21:35Z</time>
      </trkpt>
      <trkpt lat="50.03926" lon="4.34488">
        <ele>263.4</ele>
        <time>2020-06-24T18:21:36Z</time>
      </trkpt>
      <trkpt lat="50.03922" lon="4.34488">
        <ele>263.3</ele>
        <time>2020-06-24T18:21:37Z</time>
      </trkpt>
      <trkpt lat="50.03918" lon="4.34486">
        <ele>263.3</ele>
        <time>2020-06-24T18:21:38Z</time>
      </trkpt>
      <trkpt lat="50.03915" lon="4.34486">
        <ele>263.3</ele>
        <time>2020-06-24T18:21:39Z</time>
      </trkpt>
      <trkpt lat="50.03911" lon="4.34485">
        <ele>263.2</ele>
        <time>2020-06-24T18:21:40Z</time>
      </trkpt>
      <trkpt lat="50.03907" lon="4.34484">
        <ele>263.2</ele>
        <time>2020-06-24T18:21:41Z</time>
      </trkpt>
      <trkpt lat="50.03904" lon="4.34483">
        <ele>263.2</ele>
        <time>2020-06-24T18:21:42Z</time>
      </trkpt>
      <trkpt lat="50.03901" lon="4.34482">
        <ele>263.2</ele>
        <time>2020-06-24T18:21:43Z</time>
      </trkpt>
      <trkpt lat="50.03897" lon="4.34481">
        <ele>263.1</ele>
        <time>2020-06-24T18:21:44Z</time>
      </trkpt>
      <trkpt lat="50.03894" lon="4.34481">
        <ele>263.1</ele>
        <time>2020-06-24T18:21:45Z</time>
      </trkpt>
      <trkpt lat="50.0389" lon="4.3448">
        <ele>263.1</ele>
        <time>2020-06-24T18:21:46Z</time>
      </trkpt>
      <trkpt lat="50.03887" lon="4.3448">
        <ele>263.1</ele>
        <time>2020-06-24T18:21:47Z</time>
      </trkpt>
      <trkpt lat="50.03883" lon="4.34479">
        <ele>263</ele>
        <time>2020-06-24T18:21:48Z</time>
      </trkpt>
      <trkpt lat="50.03879" lon="4.34478">
        <ele>263</ele>
        <time>2020-06-24T18:21:49Z</time>
      </trkpt>
      <trkpt lat="50.03876" lon="4.34479">
        <ele>263</ele>
        <time>2020-06-24T18:21:50Z</time>
      </trkpt>
      <trkpt lat="50.03872" lon="4.34478">
        <ele>262.9</ele>
        <time>2020-06-24T18:21:51Z</time>
      </trkpt>
      <trkpt lat="50.03868" lon="4.34477">
        <ele>262.9</ele>
        <time>2020-06-24T18:21:52Z</time>
      </trkpt>
      <trkpt lat="50.03865" lon="4.34477">
        <ele>262.8</ele>
        <time>2020-06-24T18:21:53Z</time>
      </trkpt>
      <trkpt lat="50.0386" lon="4.34476">
        <ele>262.8</ele>
        <time>2020-06-24T18:21:54Z</time>
      </trkpt>
      <trkpt lat="50.03857" lon="4.34474">
        <ele>262.7</ele>
        <time>2020-06-24T18:21:55Z</time>
      </trkpt>
      <trkpt lat="50.03852" lon="4.3447">
        <ele>262.6</ele>
        <time>2020-06-24T18:21:56Z</time>
      </trkpt>
      <trkpt lat="50.03848" lon="4.34468">
        <ele>262.5</ele>
        <time>2020-06-24T18:21:57Z</time>
      </trkpt>
      <trkpt lat="50.03844" lon="4.34466">
        <ele>262.4</ele>
        <time>2020-06-24T18:21:58Z</time>
      </trkpt>
      <trkpt lat="50.03839" lon="4.34464">
        <ele>262.3</ele>
        <time>2020-06-24T18:21:59Z</time>
      </trkpt>
      <trkpt lat="50.03834" lon="4.34461">
        <ele>262.2</ele>
        <time>2020-06-24T18:22:00Z</time>
      </trkpt>
      <trkpt lat="50.03829" lon="4.34458">
        <ele>262</ele>
        <time>2020-06-24T18:22:01Z</time>
      </trkpt>
      <trkpt lat="50.03824" lon="4.34456">
        <ele>261.9</ele>
        <time>2020-06-24T18:22:02Z</time>
      </trkpt>
      <trkpt lat="50.0382" lon="4.34453">
        <ele>261.8</ele>
        <time>2020-06-24T18:22:03Z</time>
      </trkpt>
      <trkpt lat="50.03815" lon="4.34451">
        <ele>261.7</ele>
        <time>2020-06-24T18:22:04Z</time>
      </trkpt>
      <trkpt lat="50.0381" lon="4.34447">
        <ele>261.5</ele>
        <time>2020-06-24T18:22:05Z</time>
      </trkpt>
      <trkpt lat="50.03805" lon="4.34445">
        <ele>261.3</ele>
        <time>2020-06-24T18:22:06Z</time>
      </trkpt>
      <trkpt lat="50.03799" lon="4.34442">
        <ele>261</ele>
        <time>2020-06-24T18:22:07Z</time>
      </trkpt>
      <trkpt lat="50.03794" lon="4.34439">
        <ele>260.8</ele>
        <time>2020-06-24T18:22:08Z</time>
      </trkpt>
      <trkpt lat="50.03789" lon="4.34438">
        <ele>260.6</ele>
        <time>2020-06-24T18:22:09Z</time>
      </trkpt>
      <trkpt lat="50.03784" lon="4.34435">
        <ele>260.3</ele>
        <time>2020-06-24T18:22:10Z</time>
      </trkpt>
      <trkpt lat="50.03779" lon="4.34431">
        <ele>260</ele>
        <time>2020-06-24T18:22:11Z</time>
      </trkpt>
      <trkpt lat="50.03774" lon="4.34428">
        <ele>259.7</ele>
        <time>2020-06-24T18:22:12Z</time>
      </trkpt>
      <trkpt lat="50.03769" lon="4.34425">
        <ele>259.4</ele>
        <time>2020-06-24T18:22:13Z</time>
      </trkpt>
      <trkpt lat="50.03764" lon="4.34423">
        <ele>259.1</ele>
        <time>2020-06-24T18:22:14Z</time>
      </trkpt>
      <trkpt lat="50.03759" lon="4.34422">
        <ele>258.9</ele>
        <time>2020-06-24T18:22:15Z</time>
      </trkpt>
      <trkpt lat="50.03755" lon="4.34421">
        <ele>258.7</ele>
        <time>2020-06-24T18:22:16Z</time>
      </trkpt>
      <trkpt lat="50.03751" lon="4.3442">
        <ele>258.5</ele>
        <time>2020-06-24T18:22:17Z</time>
      </trkpt>
      <trkpt lat="50.03745" lon="4.34419">
        <ele>258.1</ele>
        <time>2020-06-24T18:22:18Z</time>
      </trkpt>
      <trkpt lat="50.03739" lon="4.34417">
        <ele>257.8</ele>
        <time>2020-06-24T18:22:19Z</time>
      </trkpt>
      <trkpt lat="50.03733" lon="4.34416">
        <ele>257.4</ele>
        <time>2020-06-24T18:22:20Z</time>
      </trkpt>
      <trkpt lat="50.03727" lon="4.34415">
        <ele>257</ele>
        <time>2020-06-24T18:22:21Z</time>
      </trkpt>
      <trkpt lat="50.03723" lon="4.34415">
        <ele>256.7</ele>
        <time>2020-06-24T18:22:22Z</time>
      </trkpt>
      <trkpt lat="50.03718" lon="4.34415">
        <ele>256.4</ele>
        <time>2020-06-24T18:22:23Z</time>
      </trkpt>
      <trkpt lat="50.03713" lon="4.34414">
        <ele>256</ele>
        <time>2020-06-24T18:22:24Z</time>
      </trkpt>
      <trkpt lat="50.03708" lon="4.34414">
        <ele>255.5</ele>
        <time>2020-06-24T18:22:25Z</time>
      </trkpt>
      <trkpt lat="50.03701" lon="4.34414">
        <ele>255.1</ele>
        <time>2020-06-24T18:22:26Z</time>
      </trkpt>
      <trkpt lat="50.03696" lon="4.34413">
        <ele>254.7</ele>
        <time>2020-06-24T18:22:27Z</time>
      </trkpt>
      <trkpt lat="50.0369" lon="4.34413">
        <ele>254.4</ele>
        <time>2020-06-24T18:22:28Z</time>
      </trkpt>
      <trkpt lat="50.03683" lon="4.34416">
        <ele>254</ele>
        <time>2020-06-24T18:22:29Z</time>
      </trkpt>
      <trkpt lat="50.03677" lon="4.34416">
        <ele>253.7</ele>
        <time>2020-06-24T18:22:30Z</time>
      </trkpt>
      <trkpt lat="50.0367" lon="4.34416">
        <ele>253.4</ele>
        <time>2020-06-24T18:22:31Z</time>
      </trkpt>
      <trkpt lat="50.03664" lon="4.34415">
        <ele>253.1</ele>
        <time>2020-06-24T18:22:32Z</time>
      </trkpt>
      <trkpt lat="50.03659" lon="4.34414">
        <ele>252.9</ele>
        <time>2020-06-24T18:22:33Z</time>
      </trkpt>
      <trkpt lat="50.03651" lon="4.34412">
        <ele>252.5</ele>
        <time>2020-06-24T18:22:34Z</time>
      </trkpt>
      <trkpt lat="50.03647" lon="4.34412">
        <ele>252.3</ele>
        <time>2020-06-24T18:22:35Z</time>
      </trkpt>
      <trkpt lat="50.03642" lon="4.34414">
        <ele>252.2</ele>
        <time>2020-06-24T18:22:36Z</time>
      </trkpt>
      <trkpt lat="50.03637" lon="4.34414">
        <ele>252</ele>
        <time>2020-06-24T18:22:37Z</time>
      </trkpt>
      <trkpt lat="50.03631" lon="4.34414">
        <ele>251.8</ele>
        <time>2020-06-24T18:22:38Z</time>
      </trkpt>
      <trkpt lat="50.03627" lon="4.34414">
        <ele>251.6</ele>
        <time>2020-06-24T18:22:39Z</time>
      </trkpt>
      <trkpt lat="50.03622" lon="4.34414">
        <ele>251.5</ele>
        <time>2020-06-24T18:22:40Z</time>
      </trkpt>
      <trkpt lat="50.03617" lon="4.34415">
        <ele>251.4</ele>
        <time>2020-06-24T18:22:41Z</time>
      </trkpt>
      <trkpt lat="50.03612" lon="4.34415">
        <ele>251.2</ele>
        <time>2020-06-24T18:22:42Z</time>
      </trkpt>
      <trkpt lat="50.03607" lon="4.34414">
        <ele>251.1</ele>
        <time>2020-06-24T18:22:43Z</time>
      </trkpt>
      <trkpt lat="50.03601" lon="4.34414">
        <ele>251</ele>
        <time>2020-06-24T18:22:44Z</time>
      </trkpt>
      <trkpt lat="50.03597" lon="4.34414">
        <ele>250.9</ele>
        <time>2020-06-24T18:22:45Z</time>
      </trkpt>
      <trkpt lat="50.03591" lon="4.34414">
        <ele>250.8</ele>
        <time>2020-06-24T18:22:46Z</time>
      </trkpt>
      <trkpt lat="50.03585" lon="4.34414">
        <ele>250.7</ele>
        <time>2020-06-24T18:22:47Z</time>
      </trkpt>
      <trkpt lat="50.03579" lon="4.34414">
        <ele>250.6</ele>
        <time>2020-06-24T18:22:48Z</time>
      </trkpt>
      <trkpt lat="50.03572" lon="4.34413">
        <ele>250.5</ele>
        <time>2020-06-24T18:22:49Z</time>
      </trkpt>
      <trkpt lat="50.03567" lon="4.34413">
        <ele>250.4</ele>
        <time>2020-06-24T18:22:50Z</time>
      </trkpt>
      <trkpt lat="50.03561" lon="4.34413">
        <ele>250.3</ele>
        <time>2020-06-24T18:22:51Z</time>
      </trkpt>
      <trkpt lat="50.03555" lon="4.34413">
        <ele>250.2</ele>
        <time>2020-06-24T18:22:52Z</time>
      </trkpt>
      <trkpt lat="50.0355" lon="4.34413">
        <ele>250</ele>
        <time>2020-06-24T18:22:53Z</time>
      </trkpt>
      <trkpt lat="50.03545" lon="4.34414">
        <ele>249.9</ele>
        <time>2020-06-24T18:22:54Z</time>
      </trkpt>
      <trkpt lat="50.0354" lon="4.34412">
        <ele>249.8</ele>
        <time>2020-06-24T18:22:55Z</time>
      </trkpt>
      <trkpt lat="50.03535" lon="4.34412">
        <ele>249.7</ele>
        <time>2020-06-24T18:22:56Z</time>
      </trkpt>
      <trkpt lat="50.0353" lon="4.34412">
        <ele>249.6</ele>
        <time>2020-06-24T18:22:57Z</time>
      </trkpt>
      <trkpt lat="50.03525" lon="4.34412">
        <ele>249.5</ele>
        <time>2020-06-24T18:22:58Z</time>
      </trkpt>
      <trkpt lat="50.0352" lon="4.34411">
        <ele>249.3</ele>
        <time>2020-06-24T18:22:59Z</time>
      </trkpt>
      <trkpt lat="50.03515" lon="4.34411">
        <ele>249.1</ele>
        <time>2020-06-24T18:23:00Z</time>
      </trkpt>
      <trkpt lat="50.0351" lon="4.34411">
        <ele>248.9</ele>
        <time>2020-06-24T18:23:01Z</time>
      </trkpt>
      <trkpt lat="50.03505" lon="4.3441">
        <ele>248.7</ele>
        <time>2020-06-24T18:23:02Z</time>
      </trkpt>
      <trkpt lat="50.035" lon="4.3441">
        <ele>248.5</ele>
        <time>2020-06-24T18:23:03Z</time>
      </trkpt>
      <trkpt lat="50.03494" lon="4.34409">
        <ele>248.3</ele>
        <time>2020-06-24T18:23:04Z</time>
      </trkpt>
      <trkpt lat="50.03489" lon="4.34407">
        <ele>248</ele>
        <time>2020-06-24T18:23:05Z</time>
      </trkpt>
      <trkpt lat="50.03483" lon="4.34406">
        <ele>247.8</ele>
        <time>2020-06-24T18:23:06Z</time>
      </trkpt>
      <trkpt lat="50.03478" lon="4.34406">
        <ele>247.5</ele>
        <time>2020-06-24T18:23:07Z</time>
      </trkpt>
      <trkpt lat="50.03472" lon="4.34406">
        <ele>247.3</ele>
        <time>2020-06-24T18:23:08Z</time>
      </trkpt>
      <trkpt lat="50.03467" lon="4.34405">
        <ele>247.1</ele>
        <time>2020-06-24T18:23:09Z</time>
      </trkpt>
      <trkpt lat="50.03461" lon="4.34405">
        <ele>246.9</ele>
        <time>2020-06-24T18:23:10Z</time>
      </trkpt>
      <trkpt lat="50.03456" lon="4.34405">
        <ele>246.7</ele>
        <time>2020-06-24T18:23:11Z</time>
      </trkpt>
      <trkpt lat="50.03451" lon="4.34406">
        <ele>246.5</ele>
        <time>2020-06-24T18:23:12Z</time>
      </trkpt>
      <trkpt lat="50.03445" lon="4.34406">
        <ele>246.4</ele>
        <time>2020-06-24T18:23:13Z</time>
      </trkpt>
      <trkpt lat="50.0344" lon="4.34407">
        <ele>246.2</ele>
        <time>2020-06-24T18:23:14Z</time>
      </trkpt>
      <trkpt lat="50.03434" lon="4.34408">
        <ele>246.1</ele>
        <time>2020-06-24T18:23:15Z</time>
      </trkpt>
      <trkpt lat="50.03428" lon="4.34411">
        <ele>246</ele>
        <time>2020-06-24T18:23:16Z</time>
      </trkpt>
      <trkpt lat="50.03421" lon="4.34411">
        <ele>245.9</ele>
        <time>2020-06-24T18:23:17Z</time>
      </trkpt>
      <trkpt lat="50.03415" lon="4.34412">
        <ele>245.9</ele>
        <time>2020-06-24T18:23:18Z</time>
      </trkpt>
      <trkpt lat="50.0341" lon="4.34412">
        <ele>245.8</ele>
        <time>2020-06-24T18:23:19Z</time>
      </trkpt>
      <trkpt lat="50.03404" lon="4.34414">
        <ele>245.8</ele>
        <time>2020-06-24T18:23:20Z</time>
      </trkpt>
      <trkpt lat="50.03398" lon="4.34414">
        <ele>245.7</ele>
        <time>2020-06-24T18:23:21Z</time>
      </trkpt>
      <trkpt lat="50.03392" lon="4.34416">
        <ele>245.6</ele>
        <time>2020-06-24T18:23:22Z</time>
      </trkpt>
      <trkpt lat="50.03386" lon="4.34417">
        <ele>245.6</ele>
        <time>2020-06-24T18:23:23Z</time>
      </trkpt>
      <trkpt lat="50.03381" lon="4.34418">
        <ele>245.5</ele>
        <time>2020-06-24T18:23:24Z</time>
      </trkpt>
      <trkpt lat="50.03375" lon="4.34416">
        <ele>245.5</ele>
        <time>2020-06-24T18:23:25Z</time>
      </trkpt>
      <trkpt lat="50.03368" lon="4.34415">
        <ele>245.4</ele>
        <time>2020-06-24T18:23:26Z</time>
      </trkpt>
      <trkpt lat="50.03363" lon="4.34415">
        <ele>245.4</ele>
        <time>2020-06-24T18:23:27Z</time>
      </trkpt>
      <trkpt lat="50.03358" lon="4.34415">
        <ele>245.3</ele>
        <time>2020-06-24T18:23:28Z</time>
      </trkpt>
      <trkpt lat="50.03353" lon="4.34414">
        <ele>245.3</ele>
        <time>2020-06-24T18:23:29Z</time>
      </trkpt>
      <trkpt lat="50.03348" lon="4.34414">
        <ele>245.3</ele>
        <time>2020-06-24T18:23:30Z</time>
      </trkpt>
      <trkpt lat="50.03343" lon="4.34412">
        <ele>245.2</ele>
        <time>2020-06-24T18:23:31Z</time>
      </trkpt>
      <trkpt lat="50.03337" lon="4.34411">
        <ele>245.1</ele>
        <time>2020-06-24T18:23:32Z</time>
      </trkpt>
      <trkpt lat="50.03332" lon="4.34408">
        <ele>245</ele>
        <time>2020-06-24T18:23:33Z</time>
      </trkpt>
      <trkpt lat="50.03328" lon="4.34407">
        <ele>245</ele>
        <time>2020-06-24T18:23:34Z</time>
      </trkpt>
      <trkpt lat="50.03323" lon="4.34405">
        <ele>245.1</ele>
        <time>2020-06-24T18:23:35Z</time>
      </trkpt>
      <trkpt lat="50.03318" lon="4.34403">
        <ele>245.1</ele>
        <time>2020-06-24T18:23:36Z</time>
      </trkpt>
      <trkpt lat="50.03314" lon="4.34401">
        <ele>245.1</ele>
        <time>2020-06-24T18:23:37Z</time>
      </trkpt>
      <trkpt lat="50.03309" lon="4.34398">
        <ele>245.2</ele>
        <time>2020-06-24T18:23:38Z</time>
      </trkpt>
      <trkpt lat="50.03305" lon="4.34396">
        <ele>245.2</ele>
        <time>2020-06-24T18:23:39Z</time>
      </trkpt>
      <trkpt lat="50.033" lon="4.34393">
        <ele>245.3</ele>
        <time>2020-06-24T18:23:40Z</time>
      </trkpt>
      <trkpt lat="50.03296" lon="4.34392">
        <ele>245.3</ele>
        <time>2020-06-24T18:23:41Z</time>
      </trkpt>
      <trkpt lat="50.03291" lon="4.3439">
        <ele>245.4</ele>
        <time>2020-06-24T18:23:42Z</time>
      </trkpt>
      <trkpt lat="50.03287" lon="4.34388">
        <ele>245.4</ele>
        <time>2020-06-24T18:23:43Z</time>
      </trkpt>
      <trkpt lat="50.03282" lon="4.34386">
        <ele>245.5</ele>
        <time>2020-06-24T18:23:44Z</time>
      </trkpt>
      <trkpt lat="50.03277" lon="4.34384">
        <ele>245.6</ele>
        <time>2020-06-24T18:23:45Z</time>
      </trkpt>
      <trkpt lat="50.03272" lon="4.34381">
        <ele>245.6</ele>
        <time>2020-06-24T18:23:46Z</time>
      </trkpt>
      <trkpt lat="50.03267" lon="4.34378">
        <ele>245.7</ele>
        <time>2020-06-24T18:23:47Z</time>
      </trkpt>
      <trkpt lat="50.03262" lon="4.34375">
        <ele>245.8</ele>
        <time>2020-06-24T18:23:48Z</time>
      </trkpt>
      <trkpt lat="50.03257" lon="4.34372">
        <ele>245.8</ele>
        <time>2020-06-24T18:23:49Z</time>
      </trkpt>
      <trkpt lat="50.03253" lon="4.34369">
        <ele>245.9</ele>
        <time>2020-06-24T18:23:50Z</time>
      </trkpt>
      <trkpt lat="50.03248" lon="4.34367">
        <ele>245.9</ele>
        <time>2020-06-24T18:23:51Z</time>
      </trkpt>
      <trkpt lat="50.03243" lon="4.34364">
        <ele>246</ele>
        <time>2020-06-24T18:23:52Z</time>
      </trkpt>
      <trkpt lat="50.03238" lon="4.34362">
        <ele>246</ele>
        <time>2020-06-24T18:23:53Z</time>
      </trkpt>
      <trkpt lat="50.03233" lon="4.3436">
        <ele>246.1</ele>
        <time>2020-06-24T18:23:54Z</time>
      </trkpt>
      <trkpt lat="50.03229" lon="4.34358">
        <ele>246.1</ele>
        <time>2020-06-24T18:23:55Z</time>
      </trkpt>
      <trkpt lat="50.03224" lon="4.34355">
        <ele>246.2</ele>
        <time>2020-06-24T18:23:56Z</time>
      </trkpt>
      <trkpt lat="50.03219" lon="4.34354">
        <ele>246.2</ele>
        <time>2020-06-24T18:23:57Z</time>
      </trkpt>
      <trkpt lat="50.03214" lon="4.34352">
        <ele>246.2</ele>
        <time>2020-06-24T18:23:58Z</time>
      </trkpt>
      <trkpt lat="50.03209" lon="4.3435">
        <ele>246.3</ele>
        <time>2020-06-24T18:23:59Z</time>
      </trkpt>
      <trkpt lat="50.03204" lon="4.34348">
        <ele>246.3</ele>
        <time>2020-06-24T18:24:00Z</time>
      </trkpt>
      <trkpt lat="50.03199" lon="4.34345">
        <ele>246.4</ele>
        <time>2020-06-24T18:24:01Z</time>
      </trkpt>
      <trkpt lat="50.03195" lon="4.34342">
        <ele>246.5</ele>
        <time>2020-06-24T18:24:02Z</time>
      </trkpt>
      <trkpt lat="50.0319" lon="4.34339">
        <ele>246.6</ele>
        <time>2020-06-24T18:24:03Z</time>
      </trkpt>
      <trkpt lat="50.03185" lon="4.34337">
        <ele>246.7</ele>
        <time>2020-06-24T18:24:04Z</time>
      </trkpt>
      <trkpt lat="50.03181" lon="4.34334">
        <ele>246.8</ele>
        <time>2020-06-24T18:24:05Z</time>
      </trkpt>
      <trkpt lat="50.03177" lon="4.34333">
        <ele>246.8</ele>
        <time>2020-06-24T18:24:06Z</time>
      </trkpt>
      <trkpt lat="50.03172" lon="4.34331">
        <ele>247</ele>
        <time>2020-06-24T18:24:07Z</time>
      </trkpt>
      <trkpt lat="50.03168" lon="4.34328">
        <ele>247.1</ele>
        <time>2020-06-24T18:24:08Z</time>
      </trkpt>
      <trkpt lat="50.03163" lon="4.34327">
        <ele>247.2</ele>
        <time>2020-06-24T18:24:09Z</time>
      </trkpt>
      <trkpt lat="50.03159" lon="4.34325">
        <ele>247.3</ele>
        <time>2020-06-24T18:24:10Z</time>
      </trkpt>
      <trkpt lat="50.03154" lon="4.34323">
        <ele>247.5</ele>
        <time>2020-06-24T18:24:11Z</time>
      </trkpt>
      <trkpt lat="50.03149" lon="4.34322">
        <ele>247.6</ele>
        <time>2020-06-24T18:24:12Z</time>
      </trkpt>
      <trkpt lat="50.03145" lon="4.34321">
        <ele>247.7</ele>
        <time>2020-06-24T18:24:13Z</time>
      </trkpt>
      <trkpt lat="50.0314" lon="4.3432">
        <ele>247.9</ele>
        <time>2020-06-24T18:24:14Z</time>
      </trkpt>
      <trkpt lat="50.03136" lon="4.34318">
        <ele>248</ele>
        <time>2020-06-24T18:24:15Z</time>
      </trkpt>
      <trkpt lat="50.03132" lon="4.34316">
        <ele>248</ele>
        <time>2020-06-24T18:24:16Z</time>
      </trkpt>
      <trkpt lat="50.03128" lon="4.34314">
        <ele>248.1</ele>
        <time>2020-06-24T18:24:17Z</time>
      </trkpt>
      <trkpt lat="50.03123" lon="4.34312">
        <ele>248.2</ele>
        <time>2020-06-24T18:24:18Z</time>
      </trkpt>
      <trkpt lat="50.03119" lon="4.34312">
        <ele>248.3</ele>
        <time>2020-06-24T18:24:19Z</time>
      </trkpt>
      <trkpt lat="50.03114" lon="4.34311">
        <ele>248.4</ele>
        <time>2020-06-24T18:24:20Z</time>
      </trkpt>
      <trkpt lat="50.0311" lon="4.34309">
        <ele>248.5</ele>
        <time>2020-06-24T18:24:21Z</time>
      </trkpt>
      <trkpt lat="50.03106" lon="4.34308">
        <ele>248.5</ele>
        <time>2020-06-24T18:24:22Z</time>
      </trkpt>
      <trkpt lat="50.03102" lon="4.34306">
        <ele>248.6</ele>
        <time>2020-06-24T18:24:23Z</time>
      </trkpt>
      <trkpt lat="50.03098" lon="4.34305">
        <ele>248.7</ele>
        <time>2020-06-24T18:24:24Z</time>
      </trkpt>
      <trkpt lat="50.03092" lon="4.34303">
        <ele>248.8</ele>
        <time>2020-06-24T18:24:25Z</time>
      </trkpt>
      <trkpt lat="50.03087" lon="4.34301">
        <ele>248.9</ele>
        <time>2020-06-24T18:24:26Z</time>
      </trkpt>
      <trkpt lat="50.03083" lon="4.343">
        <ele>249</ele>
        <time>2020-06-24T18:24:27Z</time>
      </trkpt>
      <trkpt lat="50.03079" lon="4.34299">
        <ele>249.1</ele>
        <time>2020-06-24T18:24:28Z</time>
      </trkpt>
      <trkpt lat="50.03075" lon="4.34297">
        <ele>249.2</ele>
        <time>2020-06-24T18:24:29Z</time>
      </trkpt>
      <trkpt lat="50.0307" lon="4.34295">
        <ele>249.2</ele>
        <time>2020-06-24T18:24:30Z</time>
      </trkpt>
      <trkpt lat="50.03066" lon="4.34294">
        <ele>249.3</ele>
        <time>2020-06-24T18:24:31Z</time>
      </trkpt>
      <trkpt lat="50.0306" lon="4.34293">
        <ele>249.3</ele>
        <time>2020-06-24T18:24:32Z</time>
      </trkpt>
      <trkpt lat="50.03055" lon="4.34291">
        <ele>249.4</ele>
        <time>2020-06-24T18:24:33Z</time>
      </trkpt>
      <trkpt lat="50.0305" lon="4.34289">
        <ele>249.5</ele>
        <time>2020-06-24T18:24:34Z</time>
      </trkpt>
      <trkpt lat="50.03046" lon="4.34287">
        <ele>249.6</ele>
        <time>2020-06-24T18:24:35Z</time>
      </trkpt>
      <trkpt lat="50.03041" lon="4.34286">
        <ele>249.7</ele>
        <time>2020-06-24T18:24:36Z</time>
      </trkpt>
      <trkpt lat="50.03036" lon="4.34285">
        <ele>249.7</ele>
        <time>2020-06-24T18:24:37Z</time>
      </trkpt>
      <trkpt lat="50.03032" lon="4.34283">
        <ele>249.8</ele>
        <time>2020-06-24T18:24:38Z</time>
      </trkpt>
      <trkpt lat="50.03027" lon="4.3428">
        <ele>249.9</ele>
        <time>2020-06-24T18:24:39Z</time>
      </trkpt>
      <trkpt lat="50.03023" lon="4.34278">
        <ele>249.9</ele>
        <time>2020-06-24T18:24:40Z</time>
      </trkpt>
      <trkpt lat="50.03018" lon="4.34276">
        <ele>250</ele>
        <time>2020-06-24T18:24:41Z</time>
      </trkpt>
      <trkpt lat="50.03013" lon="4.34274">
        <ele>250.1</ele>
        <time>2020-06-24T18:24:42Z</time>
      </trkpt>
      <trkpt lat="50.03009" lon="4.34272">
        <ele>250.2</ele>
        <time>2020-06-24T18:24:43Z</time>
      </trkpt>
      <trkpt lat="50.03004" lon="4.34269">
        <ele>250.2</ele>
        <time>2020-06-24T18:24:44Z</time>
      </trkpt>
      <trkpt lat="50.02999" lon="4.34267">
        <ele>250.3</ele>
        <time>2020-06-24T18:24:45Z</time>
      </trkpt>
      <trkpt lat="50.02994" lon="4.34266">
        <ele>250.3</ele>
        <time>2020-06-24T18:24:46Z</time>
      </trkpt>
      <trkpt lat="50.02989" lon="4.34264">
        <ele>250.4</ele>
        <time>2020-06-24T18:24:47Z</time>
      </trkpt>
      <trkpt lat="50.02984" lon="4.34262">
        <ele>250.4</ele>
        <time>2020-06-24T18:24:48Z</time>
      </trkpt>
      <trkpt lat="50.02979" lon="4.3426">
        <ele>250.5</ele>
        <time>2020-06-24T18:24:49Z</time>
      </trkpt>
      <trkpt lat="50.02974" lon="4.34259">
        <ele>250.5</ele>
        <time>2020-06-24T18:24:50Z</time>
      </trkpt>
      <trkpt lat="50.0297" lon="4.34258">
        <ele>250.5</ele>
        <time>2020-06-24T18:24:51Z</time>
      </trkpt>
      <trkpt lat="50.02965" lon="4.34256">
        <ele>250.6</ele>
        <time>2020-06-24T18:24:52Z</time>
      </trkpt>
      <trkpt lat="50.0296" lon="4.34254">
        <ele>250.6</ele>
        <time>2020-06-24T18:24:53Z</time>
      </trkpt>
      <trkpt lat="50.02954" lon="4.34252">
        <ele>250.7</ele>
        <time>2020-06-24T18:24:54Z</time>
      </trkpt>
      <trkpt lat="50.02949" lon="4.3425">
        <ele>250.7</ele>
        <time>2020-06-24T18:24:55Z</time>
      </trkpt>
      <trkpt lat="50.02944" lon="4.34249">
        <ele>250.8</ele>
        <time>2020-06-24T18:24:56Z</time>
      </trkpt>
      <trkpt lat="50.0294" lon="4.34246">
        <ele>250.9</ele>
        <time>2020-06-24T18:24:57Z</time>
      </trkpt>
      <trkpt lat="50.02935" lon="4.34245">
        <ele>250.9</ele>
        <time>2020-06-24T18:24:58Z</time>
      </trkpt>
      <trkpt lat="50.0293" lon="4.34244">
        <ele>251</ele>
        <time>2020-06-24T18:24:59Z</time>
      </trkpt>
      <trkpt lat="50.02924" lon="4.34242">
        <ele>251.1</ele>
        <time>2020-06-24T18:25:00Z</time>
      </trkpt>
      <trkpt lat="50.0292" lon="4.34241">
        <ele>251.2</ele>
        <time>2020-06-24T18:25:01Z</time>
      </trkpt>
      <trkpt lat="50.02916" lon="4.34239">
        <ele>251.2</ele>
        <time>2020-06-24T18:25:02Z</time>
      </trkpt>
      <trkpt lat="50.02912" lon="4.34237">
        <ele>251.3</ele>
        <time>2020-06-24T18:25:03Z</time>
      </trkpt>
      <trkpt lat="50.02907" lon="4.34234">
        <ele>251.3</ele>
        <time>2020-06-24T18:25:04Z</time>
      </trkpt>
      <trkpt lat="50.02904" lon="4.34232">
        <ele>251.4</ele>
        <time>2020-06-24T18:25:05Z</time>
      </trkpt>
      <trkpt lat="50.029" lon="4.34229">
        <ele>251.4</ele>
        <time>2020-06-24T18:25:06Z</time>
      </trkpt>
      <trkpt lat="50.02897" lon="4.34228">
        <ele>251.4</ele>
        <time>2020-06-24T18:25:07Z</time>
      </trkpt>
      <trkpt lat="50.02893" lon="4.34227">
        <ele>251.4</ele>
        <time>2020-06-24T18:25:08Z</time>
      </trkpt>
      <trkpt lat="50.02889" lon="4.34225">
        <ele>251.5</ele>
        <time>2020-06-24T18:25:09Z</time>
      </trkpt>
      <trkpt lat="50.02885" lon="4.34223">
        <ele>251.5</ele>
        <time>2020-06-24T18:25:10Z</time>
      </trkpt>
      <trkpt lat="50.02882" lon="4.34221">
        <ele>251.5</ele>
        <time>2020-06-24T18:25:11Z</time>
      </trkpt>
      <trkpt lat="50.02878" lon="4.34219">
        <ele>251.5</ele>
        <time>2020-06-24T18:25:12Z</time>
      </trkpt>
      <trkpt lat="50.02874" lon="4.34218">
        <ele>251.6</ele>
        <time>2020-06-24T18:25:13Z</time>
      </trkpt>
      <trkpt lat="50.02869" lon="4.34216">
        <ele>251.5</ele>
        <time>2020-06-24T18:25:14Z</time>
      </trkpt>
      <trkpt lat="50.02865" lon="4.34213">
        <ele>251.5</ele>
        <time>2020-06-24T18:25:15Z</time>
      </trkpt>
      <trkpt lat="50.0286" lon="4.3421">
        <ele>251.5</ele>
        <time>2020-06-24T18:25:16Z</time>
      </trkpt>
      <trkpt lat="50.02856" lon="4.34208">
        <ele>251.5</ele>
        <time>2020-06-24T18:25:17Z</time>
      </trkpt>
      <trkpt lat="50.02852" lon="4.34205">
        <ele>251.4</ele>
        <time>2020-06-24T18:25:18Z</time>
      </trkpt>
      <trkpt lat="50.02847" lon="4.34201">
        <ele>251.5</ele>
        <time>2020-06-24T18:25:19Z</time>
      </trkpt>
      <trkpt lat="50.02843" lon="4.34199">
        <ele>251.5</ele>
        <time>2020-06-24T18:25:20Z</time>
      </trkpt>
      <trkpt lat="50.02839" lon="4.34196">
        <ele>251.5</ele>
        <time>2020-06-24T18:25:21Z</time>
      </trkpt>
      <trkpt lat="50.02835" lon="4.34194">
        <ele>251.5</ele>
        <time>2020-06-24T18:25:22Z</time>
      </trkpt>
      <trkpt lat="50.0283" lon="4.34193">
        <ele>251.6</ele>
        <time>2020-06-24T18:25:23Z</time>
      </trkpt>
      <trkpt lat="50.02826" lon="4.34191">
        <ele>251.6</ele>
        <time>2020-06-24T18:25:24Z</time>
      </trkpt>
      <trkpt lat="50.02822" lon="4.34189">
        <ele>251.6</ele>
        <time>2020-06-24T18:25:25Z</time>
      </trkpt>
      <trkpt lat="50.02817" lon="4.34186">
        <ele>251.6</ele>
        <time>2020-06-24T18:25:26Z</time>
      </trkpt>
      <trkpt lat="50.02813" lon="4.34183">
        <ele>251.6</ele>
        <time>2020-06-24T18:25:27Z</time>
      </trkpt>
      <trkpt lat="50.02809" lon="4.3418">
        <ele>251.6</ele>
        <time>2020-06-24T18:25:28Z</time>
      </trkpt>
      <trkpt lat="50.02804" lon="4.34176">
        <ele>251.7</ele>
        <time>2020-06-24T18:25:29Z</time>
      </trkpt>
      <trkpt lat="50.028" lon="4.34173">
        <ele>251.7</ele>
        <time>2020-06-24T18:25:30Z</time>
      </trkpt>
      <trkpt lat="50.02796" lon="4.3417">
        <ele>251.8</ele>
        <time>2020-06-24T18:25:31Z</time>
      </trkpt>
      <trkpt lat="50.02792" lon="4.34168">
        <ele>251.8</ele>
        <time>2020-06-24T18:25:32Z</time>
      </trkpt>
      <trkpt lat="50.02787" lon="4.34166">
        <ele>251.9</ele>
        <time>2020-06-24T18:25:33Z</time>
      </trkpt>
      <trkpt lat="50.02784" lon="4.34164">
        <ele>252</ele>
        <time>2020-06-24T18:25:34Z</time>
      </trkpt>
      <trkpt lat="50.0278" lon="4.34162">
        <ele>252</ele>
        <time>2020-06-24T18:25:35Z</time>
      </trkpt>
      <trkpt lat="50.02776" lon="4.34161">
        <ele>252.1</ele>
        <time>2020-06-24T18:25:36Z</time>
      </trkpt>
      <trkpt lat="50.02772" lon="4.3416">
        <ele>252.2</ele>
        <time>2020-06-24T18:25:37Z</time>
      </trkpt>
      <trkpt lat="50.02769" lon="4.34158">
        <ele>252.2</ele>
        <time>2020-06-24T18:25:38Z</time>
      </trkpt>
      <trkpt lat="50.02765" lon="4.34157">
        <ele>252.2</ele>
        <time>2020-06-24T18:25:39Z</time>
      </trkpt>
      <trkpt lat="50.02761" lon="4.34156">
        <ele>252.3</ele>
        <time>2020-06-24T18:25:40Z</time>
      </trkpt>
      <trkpt lat="50.02757" lon="4.34154">
        <ele>252.3</ele>
        <time>2020-06-24T18:25:41Z</time>
      </trkpt>
      <trkpt lat="50.02753" lon="4.34152">
        <ele>252.4</ele>
        <time>2020-06-24T18:25:42Z</time>
      </trkpt>
      <trkpt lat="50.02749" lon="4.34151">
        <ele>252.4</ele>
        <time>2020-06-24T18:25:43Z</time>
      </trkpt>
      <trkpt lat="50.02744" lon="4.3415">
        <ele>252.5</ele>
        <time>2020-06-24T18:25:44Z</time>
      </trkpt>
      <trkpt lat="50.0274" lon="4.34149">
        <ele>252.5</ele>
        <time>2020-06-24T18:25:45Z</time>
      </trkpt>
      <trkpt lat="50.02735" lon="4.34148">
        <ele>252.6</ele>
        <time>2020-06-24T18:25:46Z</time>
      </trkpt>
      <trkpt lat="50.02732" lon="4.34146">
        <ele>252.6</ele>
        <time>2020-06-24T18:25:47Z</time>
      </trkpt>
      <trkpt lat="50.02728" lon="4.34142">
        <ele>252.6</ele>
        <time>2020-06-24T18:25:48Z</time>
      </trkpt>
      <trkpt lat="50.02726" lon="4.34136">
        <ele>252.6</ele>
        <time>2020-06-24T18:25:49Z</time>
      </trkpt>
      <trkpt lat="50.02725" lon="4.34129">
        <ele>252.7</ele>
        <time>2020-06-24T18:25:50Z</time>
      </trkpt>
      <trkpt lat="50.02725" lon="4.34122">
        <ele>252.7</ele>
        <time>2020-06-24T18:25:51Z</time>
      </trkpt>
      <trkpt lat="50.02723" lon="4.34116">
        <ele>252.7</ele>
        <time>2020-06-24T18:25:52Z</time>
      </trkpt>
      <trkpt lat="50.0272" lon="4.34112">
        <ele>252.7</ele>
        <time>2020-06-24T18:25:53Z</time>
      </trkpt>
      <trkpt lat="50.02717" lon="4.34107">
        <ele>252.7</ele>
        <time>2020-06-24T18:25:54Z</time>
      </trkpt>
      <trkpt lat="50.02713" lon="4.34103">
        <ele>252.7</ele>
        <time>2020-06-24T18:25:55Z</time>
      </trkpt>
      <trkpt lat="50.02709" lon="4.34101">
        <ele>252.6</ele>
        <time>2020-06-24T18:25:56Z</time>
      </trkpt>
      <trkpt lat="50.02705" lon="4.341">
        <ele>252.6</ele>
        <time>2020-06-24T18:25:57Z</time>
      </trkpt>
      <trkpt lat="50.02702" lon="4.341">
        <ele>252.6</ele>
        <time>2020-06-24T18:25:58Z</time>
      </trkpt>
      <trkpt lat="50.02699" lon="4.341">
        <ele>252.6</ele>
        <time>2020-06-24T18:25:59Z</time>
      </trkpt>
      <trkpt lat="50.02696" lon="4.34101">
        <ele>252.5</ele>
        <time>2020-06-24T18:26:00Z</time>
      </trkpt>
      <trkpt lat="50.02693" lon="4.34102">
        <ele>252.5</ele>
        <time>2020-06-24T18:26:01Z</time>
      </trkpt>
      <trkpt lat="50.02689" lon="4.34103">
        <ele>252.5</ele>
        <time>2020-06-24T18:26:02Z</time>
      </trkpt>
      <trkpt lat="50.02687" lon="4.34103">
        <ele>252.5</ele>
        <time>2020-06-24T18:26:03Z</time>
      </trkpt>
      <trkpt lat="50.02683" lon="4.34104">
        <ele>252.5</ele>
        <time>2020-06-24T18:26:04Z</time>
      </trkpt>
      <trkpt lat="50.0268" lon="4.34105">
        <ele>252.5</ele>
        <time>2020-06-24T18:26:05Z</time>
      </trkpt>
      <trkpt lat="50.02677" lon="4.34106">
        <ele>252.5</ele>
        <time>2020-06-24T18:26:06Z</time>
      </trkpt>
      <trkpt lat="50.02673" lon="4.34106">
        <ele>252.5</ele>
        <time>2020-06-24T18:26:07Z</time>
      </trkpt>
      <trkpt lat="50.02669" lon="4.34107">
        <ele>252.5</ele>
        <time>2020-06-24T18:26:08Z</time>
      </trkpt>
      <trkpt lat="50.02665" lon="4.34108">
        <ele>252.5</ele>
        <time>2020-06-24T18:26:09Z</time>
      </trkpt>
      <trkpt lat="50.02661" lon="4.34109">
        <ele>252.5</ele>
        <time>2020-06-24T18:26:10Z</time>
      </trkpt>
      <trkpt lat="50.02657" lon="4.3411">
        <ele>252.5</ele>
        <time>2020-06-24T18:26:11Z</time>
      </trkpt>
      <trkpt lat="50.02653" lon="4.34112">
        <ele>252.5</ele>
        <time>2020-06-24T18:26:12Z</time>
      </trkpt>
      <trkpt lat="50.02648" lon="4.34114">
        <ele>252.5</ele>
        <time>2020-06-24T18:26:13Z</time>
      </trkpt>
      <trkpt lat="50.02644" lon="4.34115">
        <ele>252.5</ele>
        <time>2020-06-24T18:26:14Z</time>
      </trkpt>
      <trkpt lat="50.02639" lon="4.34117">
        <ele>252.5</ele>
        <time>2020-06-24T18:26:15Z</time>
      </trkpt>
      <trkpt lat="50.02635" lon="4.34118">
        <ele>252.6</ele>
        <time>2020-06-24T18:26:16Z</time>
      </trkpt>
      <trkpt lat="50.0263" lon="4.3412">
        <ele>252.6</ele>
        <time>2020-06-24T18:26:17Z</time>
      </trkpt>
      <trkpt lat="50.02627" lon="4.34121">
        <ele>252.6</ele>
        <time>2020-06-24T18:26:18Z</time>
      </trkpt>
      <trkpt lat="50.02623" lon="4.3412">
        <ele>252.6</ele>
        <time>2020-06-24T18:26:19Z</time>
      </trkpt>
      <trkpt lat="50.02618" lon="4.34121">
        <ele>252.6</ele>
        <time>2020-06-24T18:26:20Z</time>
      </trkpt>
      <trkpt lat="50.02612" lon="4.34121">
        <ele>252.6</ele>
        <time>2020-06-24T18:26:21Z</time>
      </trkpt>
      <trkpt lat="50.02607" lon="4.34121">
        <ele>252.6</ele>
        <time>2020-06-24T18:26:22Z</time>
      </trkpt>
      <trkpt lat="50.02602" lon="4.34121">
        <ele>252.7</ele>
        <time>2020-06-24T18:26:23Z</time>
      </trkpt>
      <trkpt lat="50.02597" lon="4.34121">
        <ele>252.7</ele>
        <time>2020-06-24T18:26:24Z</time>
      </trkpt>
      <trkpt lat="50.02592" lon="4.34121">
        <ele>252.7</ele>
        <time>2020-06-24T18:26:25Z</time>
      </trkpt>
      <trkpt lat="50.02588" lon="4.3412">
        <ele>252.7</ele>
        <time>2020-06-24T18:26:26Z</time>
      </trkpt>
      <trkpt lat="50.02584" lon="4.3412">
        <ele>252.7</ele>
        <time>2020-06-24T18:26:27Z</time>
      </trkpt>
      <trkpt lat="50.02579" lon="4.34119">
        <ele>252.7</ele>
        <time>2020-06-24T18:26:28Z</time>
      </trkpt>
      <trkpt lat="50.02574" lon="4.34119">
        <ele>252.8</ele>
        <time>2020-06-24T18:26:29Z</time>
      </trkpt>
      <trkpt lat="50.02569" lon="4.34118">
        <ele>252.8</ele>
        <time>2020-06-24T18:26:30Z</time>
      </trkpt>
      <trkpt lat="50.02563" lon="4.34118">
        <ele>252.8</ele>
        <time>2020-06-24T18:26:31Z</time>
      </trkpt>
      <trkpt lat="50.02558" lon="4.34117">
        <ele>252.8</ele>
        <time>2020-06-24T18:26:32Z</time>
      </trkpt>
      <trkpt lat="50.02553" lon="4.34115">
        <ele>252.8</ele>
        <time>2020-06-24T18:26:33Z</time>
      </trkpt>
      <trkpt lat="50.02548" lon="4.34113">
        <ele>252.9</ele>
        <time>2020-06-24T18:26:34Z</time>
      </trkpt>
      <trkpt lat="50.02543" lon="4.34112">
        <ele>252.9</ele>
        <time>2020-06-24T18:26:35Z</time>
      </trkpt>
      <trkpt lat="50.02538" lon="4.3411">
        <ele>253</ele>
        <time>2020-06-24T18:26:36Z</time>
      </trkpt>
      <trkpt lat="50.02533" lon="4.34106">
        <ele>253.1</ele>
        <time>2020-06-24T18:26:37Z</time>
      </trkpt>
      <trkpt lat="50.02528" lon="4.34103">
        <ele>253.1</ele>
        <time>2020-06-24T18:26:38Z</time>
      </trkpt>
      <trkpt lat="50.02524" lon="4.341">
        <ele>253.2</ele>
        <time>2020-06-24T18:26:39Z</time>
      </trkpt>
      <trkpt lat="50.0252" lon="4.34097">
        <ele>253.3</ele>
        <time>2020-06-24T18:26:40Z</time>
      </trkpt>
      <trkpt lat="50.02516" lon="4.34093">
        <ele>253.4</ele>
        <time>2020-06-24T18:26:41Z</time>
      </trkpt>
      <trkpt lat="50.02512" lon="4.3409">
        <ele>253.5</ele>
        <time>2020-06-24T18:26:42Z</time>
      </trkpt>
      <trkpt lat="50.02507" lon="4.34086">
        <ele>253.7</ele>
        <time>2020-06-24T18:26:43Z</time>
      </trkpt>
      <trkpt lat="50.02503" lon="4.34081">
        <ele>253.8</ele>
        <time>2020-06-24T18:26:44Z</time>
      </trkpt>
      <trkpt lat="50.02498" lon="4.34076">
        <ele>253.9</ele>
        <time>2020-06-24T18:26:45Z</time>
      </trkpt>
      <trkpt lat="50.02493" lon="4.34071">
        <ele>254</ele>
        <time>2020-06-24T18:26:46Z</time>
      </trkpt>
      <trkpt lat="50.02489" lon="4.34066">
        <ele>254</ele>
        <time>2020-06-24T18:26:47Z</time>
      </trkpt>
      <trkpt lat="50.02485" lon="4.34062">
        <ele>254.1</ele>
        <time>2020-06-24T18:26:48Z</time>
      </trkpt>
      <trkpt lat="50.02482" lon="4.34059">
        <ele>254.2</ele>
        <time>2020-06-24T18:26:49Z</time>
      </trkpt>
      <trkpt lat="50.02478" lon="4.34056">
        <ele>254.3</ele>
        <time>2020-06-24T18:26:50Z</time>
      </trkpt>
      <trkpt lat="50.02474" lon="4.34052">
        <ele>254.4</ele>
        <time>2020-06-24T18:26:51Z</time>
      </trkpt>
      <trkpt lat="50.02471" lon="4.34048">
        <ele>254.5</ele>
        <time>2020-06-24T18:26:52Z</time>
      </trkpt>
      <trkpt lat="50.02467" lon="4.34045">
        <ele>254.6</ele>
        <time>2020-06-24T18:26:53Z</time>
      </trkpt>
      <trkpt lat="50.02463" lon="4.34041">
        <ele>254.6</ele>
        <time>2020-06-24T18:26:54Z</time>
      </trkpt>
      <trkpt lat="50.0246" lon="4.34038">
        <ele>254.7</ele>
        <time>2020-06-24T18:26:55Z</time>
      </trkpt>
      <trkpt lat="50.02456" lon="4.34034">
        <ele>254.8</ele>
        <time>2020-06-24T18:26:56Z</time>
      </trkpt>
      <trkpt lat="50.02452" lon="4.34031">
        <ele>254.9</ele>
        <time>2020-06-24T18:26:57Z</time>
      </trkpt>
      <trkpt lat="50.02448" lon="4.34028">
        <ele>255</ele>
        <time>2020-06-24T18:26:58Z</time>
      </trkpt>
      <trkpt lat="50.02444" lon="4.34025">
        <ele>255.1</ele>
        <time>2020-06-24T18:26:59Z</time>
      </trkpt>
      <trkpt lat="50.02441" lon="4.34022">
        <ele>255.2</ele>
        <time>2020-06-24T18:27:00Z</time>
      </trkpt>
      <trkpt lat="50.02437" lon="4.3402">
        <ele>255.3</ele>
        <time>2020-06-24T18:27:01Z</time>
      </trkpt>
      <trkpt lat="50.02434" lon="4.34017">
        <ele>255.4</ele>
        <time>2020-06-24T18:27:02Z</time>
      </trkpt>
      <trkpt lat="50.0243" lon="4.34015">
        <ele>255.5</ele>
        <time>2020-06-24T18:27:03Z</time>
      </trkpt>
      <trkpt lat="50.02427" lon="4.34013">
        <ele>255.6</ele>
        <time>2020-06-24T18:27:04Z</time>
      </trkpt>
      <trkpt lat="50.02423" lon="4.3401">
        <ele>255.7</ele>
        <time>2020-06-24T18:27:05Z</time>
      </trkpt>
      <trkpt lat="50.02419" lon="4.34007">
        <ele>255.8</ele>
        <time>2020-06-24T18:27:06Z</time>
      </trkpt>
      <trkpt lat="50.02415" lon="4.34004">
        <ele>255.9</ele>
        <time>2020-06-24T18:27:07Z</time>
      </trkpt>
      <trkpt lat="50.02412" lon="4.34002">
        <ele>256</ele>
        <time>2020-06-24T18:27:08Z</time>
      </trkpt>
      <trkpt lat="50.02407" lon="4.33999">
        <ele>256.1</ele>
        <time>2020-06-24T18:27:09Z</time>
      </trkpt>
      <trkpt lat="50.02403" lon="4.33995">
        <ele>256.3</ele>
        <time>2020-06-24T18:27:10Z</time>
      </trkpt>
      <trkpt lat="50.02399" lon="4.33992">
        <ele>256.4</ele>
        <time>2020-06-24T18:27:11Z</time>
      </trkpt>
      <trkpt lat="50.02395" lon="4.33989">
        <ele>256.5</ele>
        <time>2020-06-24T18:27:12Z</time>
      </trkpt>
      <trkpt lat="50.02391" lon="4.33986">
        <ele>256.6</ele>
        <time>2020-06-24T18:27:13Z</time>
      </trkpt>
      <trkpt lat="50.02387" lon="4.33983">
        <ele>256.7</ele>
        <time>2020-06-24T18:27:14Z</time>
      </trkpt>
      <trkpt lat="50.02383" lon="4.33979">
        <ele>256.8</ele>
        <time>2020-06-24T18:27:15Z</time>
      </trkpt>
      <trkpt lat="50.02379" lon="4.33975">
        <ele>256.9</ele>
        <time>2020-06-24T18:27:16Z</time>
      </trkpt>
      <trkpt lat="50.02376" lon="4.33973">
        <ele>257</ele>
        <time>2020-06-24T18:27:17Z</time>
      </trkpt>
      <trkpt lat="50.02372" lon="4.3397">
        <ele>257.2</ele>
        <time>2020-06-24T18:27:18Z</time>
      </trkpt>
      <trkpt lat="50.02368" lon="4.33966">
        <ele>257.3</ele>
        <time>2020-06-24T18:27:19Z</time>
      </trkpt>
      <trkpt lat="50.02365" lon="4.33963">
        <ele>257.4</ele>
        <time>2020-06-24T18:27:20Z</time>
      </trkpt>
      <trkpt lat="50.02361" lon="4.33961">
        <ele>257.5</ele>
        <time>2020-06-24T18:27:21Z</time>
      </trkpt>
      <trkpt lat="50.02358" lon="4.33957">
        <ele>257.6</ele>
        <time>2020-06-24T18:27:22Z</time>
      </trkpt>
      <trkpt lat="50.02353" lon="4.33954">
        <ele>257.7</ele>
        <time>2020-06-24T18:27:23Z</time>
      </trkpt>
      <trkpt lat="50.02349" lon="4.3395">
        <ele>257.8</ele>
        <time>2020-06-24T18:27:24Z</time>
      </trkpt>
      <trkpt lat="50.02345" lon="4.33948">
        <ele>257.9</ele>
        <time>2020-06-24T18:27:25Z</time>
      </trkpt>
      <trkpt lat="50.02341" lon="4.33945">
        <ele>258</ele>
        <time>2020-06-24T18:27:26Z</time>
      </trkpt>
      <trkpt lat="50.02337" lon="4.33942">
        <ele>258.1</ele>
        <time>2020-06-24T18:27:27Z</time>
      </trkpt>
      <trkpt lat="50.02333" lon="4.33939">
        <ele>258.3</ele>
        <time>2020-06-24T18:27:28Z</time>
      </trkpt>
      <trkpt lat="50.02329" lon="4.33936">
        <ele>258.4</ele>
        <time>2020-06-24T18:27:29Z</time>
      </trkpt>
      <trkpt lat="50.02325" lon="4.33934">
        <ele>258.6</ele>
        <time>2020-06-24T18:27:30Z</time>
      </trkpt>
      <trkpt lat="50.02321" lon="4.33931">
        <ele>258.7</ele>
        <time>2020-06-24T18:27:31Z</time>
      </trkpt>
      <trkpt lat="50.02317" lon="4.33928">
        <ele>258.9</ele>
        <time>2020-06-24T18:27:32Z</time>
      </trkpt>
      <trkpt lat="50.02313" lon="4.33926">
        <ele>259</ele>
        <time>2020-06-24T18:27:33Z</time>
      </trkpt>
      <trkpt lat="50.02309" lon="4.33923">
        <ele>259.1</ele>
        <time>2020-06-24T18:27:34Z</time>
      </trkpt>
      <trkpt lat="50.02305" lon="4.33921">
        <ele>259.3</ele>
        <time>2020-06-24T18:27:35Z</time>
      </trkpt>
      <trkpt lat="50.02301" lon="4.33919">
        <ele>259.4</ele>
        <time>2020-06-24T18:27:36Z</time>
      </trkpt>
      <trkpt lat="50.02298" lon="4.33916">
        <ele>259.6</ele>
        <time>2020-06-24T18:27:37Z</time>
      </trkpt>
      <trkpt lat="50.02294" lon="4.33913">
        <ele>259.8</ele>
        <time>2020-06-24T18:27:38Z</time>
      </trkpt>
      <trkpt lat="50.0229" lon="4.33911">
        <ele>260</ele>
        <time>2020-06-24T18:27:39Z</time>
      </trkpt>
      <trkpt lat="50.02287" lon="4.33909">
        <ele>260.1</ele>
        <time>2020-06-24T18:27:40Z</time>
      </trkpt>
      <trkpt lat="50.02284" lon="4.33907">
        <ele>260.3</ele>
        <time>2020-06-24T18:27:41Z</time>
      </trkpt>
      <trkpt lat="50.0228" lon="4.33905">
        <ele>260.5</ele>
        <time>2020-06-24T18:27:42Z</time>
      </trkpt>
      <trkpt lat="50.02277" lon="4.33903">
        <ele>260.7</ele>
        <time>2020-06-24T18:27:43Z</time>
      </trkpt>
      <trkpt lat="50.02274" lon="4.339">
        <ele>260.9</ele>
        <time>2020-06-24T18:27:44Z</time>
      </trkpt>
      <trkpt lat="50.02271" lon="4.33898">
        <ele>261.1</ele>
        <time>2020-06-24T18:27:45Z</time>
      </trkpt>
      <trkpt lat="50.02268" lon="4.33894">
        <ele>261.3</ele>
        <time>2020-06-24T18:27:46Z</time>
      </trkpt>
      <trkpt lat="50.02265" lon="4.33892">
        <ele>261.5</ele>
        <time>2020-06-24T18:27:47Z</time>
      </trkpt>
      <trkpt lat="50.02261" lon="4.33889">
        <ele>261.8</ele>
        <time>2020-06-24T18:27:48Z</time>
      </trkpt>
      <trkpt lat="50.02258" lon="4.33887">
        <ele>262</ele>
        <time>2020-06-24T18:27:49Z</time>
      </trkpt>
      <trkpt lat="50.02255" lon="4.33885">
        <ele>262.2</ele>
        <time>2020-06-24T18:27:50Z</time>
      </trkpt>
      <trkpt lat="50.02252" lon="4.33883">
        <ele>262.4</ele>
        <time>2020-06-24T18:27:51Z</time>
      </trkpt>
      <trkpt lat="50.02249" lon="4.33882">
        <ele>262.6</ele>
        <time>2020-06-24T18:27:52Z</time>
      </trkpt>
      <trkpt lat="50.02246" lon="4.3388">
        <ele>262.8</ele>
        <time>2020-06-24T18:27:53Z</time>
      </trkpt>
      <trkpt lat="50.02244" lon="4.33878">
        <ele>262.9</ele>
        <time>2020-06-24T18:27:54Z</time>
      </trkpt>
      <trkpt lat="50.02241" lon="4.33876">
        <ele>263.1</ele>
        <time>2020-06-24T18:27:55Z</time>
      </trkpt>
      <trkpt lat="50.02238" lon="4.33874">
        <ele>263.3</ele>
        <time>2020-06-24T18:27:56Z</time>
      </trkpt>
      <trkpt lat="50.02236" lon="4.33873">
        <ele>263.5</ele>
        <time>2020-06-24T18:27:57Z</time>
      </trkpt>
      <trkpt lat="50.02232" lon="4.33871">
        <ele>263.7</ele>
        <time>2020-06-24T18:27:58Z</time>
      </trkpt>
      <trkpt lat="50.02229" lon="4.33869">
        <ele>263.9</ele>
        <time>2020-06-24T18:27:59Z</time>
      </trkpt>
      <trkpt lat="50.02226" lon="4.33867">
        <ele>264.1</ele>
        <time>2020-06-24T18:28:00Z</time>
      </trkpt>
      <trkpt lat="50.02223" lon="4.33865">
        <ele>264.3</ele>
        <time>2020-06-24T18:28:01Z</time>
      </trkpt>
      <trkpt lat="50.02219" lon="4.33862">
        <ele>264.6</ele>
        <time>2020-06-24T18:28:02Z</time>
      </trkpt>
      <trkpt lat="50.02216" lon="4.33861">
        <ele>264.8</ele>
        <time>2020-06-24T18:28:03Z</time>
      </trkpt>
      <trkpt lat="50.02213" lon="4.33859">
        <ele>265</ele>
        <time>2020-06-24T18:28:04Z</time>
      </trkpt>
      <trkpt lat="50.02211" lon="4.33856">
        <ele>265.1</ele>
        <time>2020-06-24T18:28:05Z</time>
      </trkpt>
      <trkpt lat="50.02208" lon="4.33854">
        <ele>265.3</ele>
        <time>2020-06-24T18:28:06Z</time>
      </trkpt>
      <trkpt lat="50.02205" lon="4.33852">
        <ele>265.5</ele>
        <time>2020-06-24T18:28:07Z</time>
      </trkpt>
      <trkpt lat="50.02202" lon="4.33851">
        <ele>265.7</ele>
        <time>2020-06-24T18:28:08Z</time>
      </trkpt>
      <trkpt lat="50.02201" lon="4.33851">
        <ele>265.8</ele>
        <time>2020-06-24T18:28:09Z</time>
      </trkpt>
      <trkpt lat="50.02196" lon="4.33848">
        <ele>266.1</ele>
        <time>2020-06-24T18:28:10Z</time>
      </trkpt>
      <trkpt lat="50.02195" lon="4.33846">
        <ele>266.2</ele>
        <time>2020-06-24T18:28:11Z</time>
      </trkpt>
      <trkpt lat="50.02192" lon="4.33843">
        <ele>266.4</ele>
        <time>2020-06-24T18:28:12Z</time>
      </trkpt>
      <trkpt lat="50.02189" lon="4.33841">
        <ele>266.6</ele>
        <time>2020-06-24T18:28:13Z</time>
      </trkpt>
      <trkpt lat="50.02187" lon="4.33838">
        <ele>266.8</ele>
        <time>2020-06-24T18:28:14Z</time>
      </trkpt>
      <trkpt lat="50.02184" lon="4.33835">
        <ele>267</ele>
        <time>2020-06-24T18:28:15Z</time>
      </trkpt>
      <trkpt lat="50.02183" lon="4.33834">
        <ele>267.1</ele>
        <time>2020-06-24T18:28:16Z</time>
      </trkpt>
      <trkpt lat="50.02179" lon="4.33831">
        <ele>267.3</ele>
        <time>2020-06-24T18:28:17Z</time>
      </trkpt>
      <trkpt lat="50.02177" lon="4.3383">
        <ele>267.5</ele>
        <time>2020-06-24T18:28:18Z</time>
      </trkpt>
      <trkpt lat="50.02174" lon="4.33829">
        <ele>267.7</ele>
        <time>2020-06-24T18:28:19Z</time>
      </trkpt>
      <trkpt lat="50.0217" lon="4.33828">
        <ele>267.9</ele>
        <time>2020-06-24T18:28:20Z</time>
      </trkpt>
      <trkpt lat="50.02169" lon="4.33827">
        <ele>268</ele>
        <time>2020-06-24T18:28:21Z</time>
      </trkpt>
      <trkpt lat="50.02166" lon="4.33825">
        <ele>268.2</ele>
        <time>2020-06-24T18:28:22Z</time>
      </trkpt>
      <trkpt lat="50.02162" lon="4.33822">
        <ele>268.4</ele>
        <time>2020-06-24T18:28:23Z</time>
      </trkpt>
      <trkpt lat="50.02161" lon="4.3382">
        <ele>268.5</ele>
        <time>2020-06-24T18:28:24Z</time>
      </trkpt>
      <trkpt lat="50.02158" lon="4.33817">
        <ele>268.8</ele>
        <time>2020-06-24T18:28:25Z</time>
      </trkpt>
      <trkpt lat="50.02157" lon="4.33816">
        <ele>268.9</ele>
        <time>2020-06-24T18:28:26Z</time>
      </trkpt>
      <trkpt lat="50.02154" lon="4.33815">
        <ele>269.1</ele>
        <time>2020-06-24T18:28:27Z</time>
      </trkpt>
      <trkpt lat="50.02152" lon="4.33813">
        <ele>269.2</ele>
        <time>2020-06-24T18:28:28Z</time>
      </trkpt>
      <trkpt lat="50.02148" lon="4.33811">
        <ele>269.5</ele>
        <time>2020-06-24T18:28:29Z</time>
      </trkpt>
      <trkpt lat="50.02147" lon="4.33811">
        <ele>269.6</ele>
        <time>2020-06-24T18:28:30Z</time>
      </trkpt>
      <trkpt lat="50.02144" lon="4.3381">
        <ele>269.7</ele>
        <time>2020-06-24T18:28:31Z</time>
      </trkpt>
      <trkpt lat="50.02141" lon="4.33809">
        <ele>269.9</ele>
        <time>2020-06-24T18:28:32Z</time>
      </trkpt>
      <trkpt lat="50.02138" lon="4.33809">
        <ele>270.1</ele>
        <time>2020-06-24T18:28:33Z</time>
      </trkpt>
      <trkpt lat="50.02134" lon="4.33808">
        <ele>270.4</ele>
        <time>2020-06-24T18:28:34Z</time>
      </trkpt>
      <trkpt lat="50.02133" lon="4.33807">
        <ele>270.5</ele>
        <time>2020-06-24T18:28:35Z</time>
      </trkpt>
      <trkpt lat="50.0213" lon="4.33806">
        <ele>270.7</ele>
        <time>2020-06-24T18:28:36Z</time>
      </trkpt>
      <trkpt lat="50.02129" lon="4.33805">
        <ele>270.8</ele>
        <time>2020-06-24T18:28:37Z</time>
      </trkpt>
      <trkpt lat="50.02126" lon="4.33802">
        <ele>271</ele>
        <time>2020-06-24T18:28:38Z</time>
      </trkpt>
      <trkpt lat="50.02124" lon="4.33801">
        <ele>271.1</ele>
        <time>2020-06-24T18:28:39Z</time>
      </trkpt>
      <trkpt lat="50.02122" lon="4.33799">
        <ele>271.3</ele>
        <time>2020-06-24T18:28:40Z</time>
      </trkpt>
      <trkpt lat="50.02118" lon="4.33798">
        <ele>271.5</ele>
        <time>2020-06-24T18:28:41Z</time>
      </trkpt>
      <trkpt lat="50.02117" lon="4.33798">
        <ele>271.6</ele>
        <time>2020-06-24T18:28:42Z</time>
      </trkpt>
      <trkpt lat="50.02114" lon="4.33798">
        <ele>271.8</ele>
        <time>2020-06-24T18:28:43Z</time>
      </trkpt>
      <trkpt lat="50.02111" lon="4.33797">
        <ele>271.9</ele>
        <time>2020-06-24T18:28:44Z</time>
      </trkpt>
      <trkpt lat="50.02107" lon="4.33796">
        <ele>272.1</ele>
        <time>2020-06-24T18:28:45Z</time>
      </trkpt>
      <trkpt lat="50.02104" lon="4.33795">
        <ele>272.3</ele>
        <time>2020-06-24T18:28:46Z</time>
      </trkpt>
      <trkpt lat="50.02101" lon="4.33794">
        <ele>272.5</ele>
        <time>2020-06-24T18:28:47Z</time>
      </trkpt>
      <trkpt lat="50.02099" lon="4.33793">
        <ele>272.7</ele>
        <time>2020-06-24T18:28:48Z</time>
      </trkpt>
      <trkpt lat="50.02095" lon="4.33792">
        <ele>272.8</ele>
        <time>2020-06-24T18:28:49Z</time>
      </trkpt>
      <trkpt lat="50.02094" lon="4.33792">
        <ele>272.9</ele>
        <time>2020-06-24T18:28:50Z</time>
      </trkpt>
      <trkpt lat="50.02091" lon="4.33791">
        <ele>273</ele>
        <time>2020-06-24T18:28:51Z</time>
      </trkpt>
      <trkpt lat="50.02088" lon="4.33791">
        <ele>273.2</ele>
        <time>2020-06-24T18:28:52Z</time>
      </trkpt>
      <trkpt lat="50.02085" lon="4.33791">
        <ele>273.3</ele>
        <time>2020-06-24T18:28:53Z</time>
      </trkpt>
      <trkpt lat="50.02082" lon="4.3379">
        <ele>273.5</ele>
        <time>2020-06-24T18:28:54Z</time>
      </trkpt>
      <trkpt lat="50.02078" lon="4.3379">
        <ele>273.8</ele>
        <time>2020-06-24T18:28:55Z</time>
      </trkpt>
      <trkpt lat="50.02077" lon="4.3379">
        <ele>273.8</ele>
        <time>2020-06-24T18:28:56Z</time>
      </trkpt>
      <trkpt lat="50.02074" lon="4.3379">
        <ele>274</ele>
        <time>2020-06-24T18:28:57Z</time>
      </trkpt>
      <trkpt lat="50.02071" lon="4.3379">
        <ele>274.2</ele>
        <time>2020-06-24T18:28:58Z</time>
      </trkpt>
      <trkpt lat="50.02067" lon="4.3379">
        <ele>274.5</ele>
        <time>2020-06-24T18:28:59Z</time>
      </trkpt>
      <trkpt lat="50.02065" lon="4.33789">
        <ele>274.6</ele>
        <time>2020-06-24T18:29:00Z</time>
      </trkpt>
      <trkpt lat="50.02062" lon="4.33787">
        <ele>274.8</ele>
        <time>2020-06-24T18:29:01Z</time>
      </trkpt>
      <trkpt lat="50.02062" lon="4.33786">
        <ele>274.8</ele>
        <time>2020-06-24T18:29:02Z</time>
      </trkpt>
      <trkpt lat="50.02058" lon="4.33786">
        <ele>275.1</ele>
        <time>2020-06-24T18:29:03Z</time>
      </trkpt>
      <trkpt lat="50.02056" lon="4.33785">
        <ele>275.2</ele>
        <time>2020-06-24T18:29:04Z</time>
      </trkpt>
      <trkpt lat="50.02053" lon="4.33784">
        <ele>275.4</ele>
        <time>2020-06-24T18:29:05Z</time>
      </trkpt>
      <trkpt lat="50.0205" lon="4.33784">
        <ele>275.6</ele>
        <time>2020-06-24T18:29:06Z</time>
      </trkpt>
      <trkpt lat="50.02047" lon="4.33784">
        <ele>275.8</ele>
        <time>2020-06-24T18:29:07Z</time>
      </trkpt>
      <trkpt lat="50.02044" lon="4.33783">
        <ele>276</ele>
        <time>2020-06-24T18:29:08Z</time>
      </trkpt>
      <trkpt lat="50.0204" lon="4.33783">
        <ele>276.2</ele>
        <time>2020-06-24T18:29:09Z</time>
      </trkpt>
      <trkpt lat="50.02037" lon="4.33782">
        <ele>276.4</ele>
        <time>2020-06-24T18:29:10Z</time>
      </trkpt>
      <trkpt lat="50.02034" lon="4.33781">
        <ele>276.6</ele>
        <time>2020-06-24T18:29:11Z</time>
      </trkpt>
      <trkpt lat="50.02031" lon="4.33781">
        <ele>276.8</ele>
        <time>2020-06-24T18:29:12Z</time>
      </trkpt>
      <trkpt lat="50.02028" lon="4.33781">
        <ele>277</ele>
        <time>2020-06-24T18:29:13Z</time>
      </trkpt>
      <trkpt lat="50.02025" lon="4.3378">
        <ele>277.2</ele>
        <time>2020-06-24T18:29:14Z</time>
      </trkpt>
      <trkpt lat="50.02022" lon="4.3378">
        <ele>277.4</ele>
        <time>2020-06-24T18:29:15Z</time>
      </trkpt>
      <trkpt lat="50.02019" lon="4.33779">
        <ele>277.6</ele>
        <time>2020-06-24T18:29:16Z</time>
      </trkpt>
      <trkpt lat="50.02015" lon="4.33778">
        <ele>277.8</ele>
        <time>2020-06-24T18:29:17Z</time>
      </trkpt>
      <trkpt lat="50.02012" lon="4.33777">
        <ele>278</ele>
        <time>2020-06-24T18:29:18Z</time>
      </trkpt>
      <trkpt lat="50.02009" lon="4.33776">
        <ele>278.2</ele>
        <time>2020-06-24T18:29:19Z</time>
      </trkpt>
      <trkpt lat="50.02008" lon="4.33776">
        <ele>278.3</ele>
        <time>2020-06-24T18:29:20Z</time>
      </trkpt>
      <trkpt lat="50.02005" lon="4.33776">
        <ele>278.5</ele>
        <time>2020-06-24T18:29:21Z</time>
      </trkpt>
      <trkpt lat="50.02002" lon="4.33775">
        <ele>278.6</ele>
        <time>2020-06-24T18:29:22Z</time>
      </trkpt>
      <trkpt lat="50.01999" lon="4.33774">
        <ele>278.8</ele>
        <time>2020-06-24T18:29:23Z</time>
      </trkpt>
      <trkpt lat="50.01995" lon="4.33772">
        <ele>279.1</ele>
        <time>2020-06-24T18:29:24Z</time>
      </trkpt>
      <trkpt lat="50.01994" lon="4.33772">
        <ele>279.1</ele>
        <time>2020-06-24T18:29:25Z</time>
      </trkpt>
      <trkpt lat="50.0199" lon="4.33771">
        <ele>279.4</ele>
        <time>2020-06-24T18:29:26Z</time>
      </trkpt>
      <trkpt lat="50.01988" lon="4.33772">
        <ele>279.5</ele>
        <time>2020-06-24T18:29:27Z</time>
      </trkpt>
      <trkpt lat="50.01986" lon="4.33771">
        <ele>279.6</ele>
        <time>2020-06-24T18:29:28Z</time>
      </trkpt>
      <trkpt lat="50.01982" lon="4.3377">
        <ele>279.9</ele>
        <time>2020-06-24T18:29:29Z</time>
      </trkpt>
      <trkpt lat="50.0198" lon="4.33769">
        <ele>280</ele>
        <time>2020-06-24T18:29:30Z</time>
      </trkpt>
      <trkpt lat="50.01978" lon="4.33768">
        <ele>280.2</ele>
        <time>2020-06-24T18:29:31Z</time>
      </trkpt>
      <trkpt lat="50.01974" lon="4.33768">
        <ele>280.4</ele>
        <time>2020-06-24T18:29:32Z</time>
      </trkpt>
      <trkpt lat="50.01972" lon="4.33768">
        <ele>280.5</ele>
        <time>2020-06-24T18:29:33Z</time>
      </trkpt>
      <trkpt lat="50.01969" lon="4.33768">
        <ele>280.7</ele>
        <time>2020-06-24T18:29:34Z</time>
      </trkpt>
      <trkpt lat="50.01965" lon="4.33767">
        <ele>280.9</ele>
        <time>2020-06-24T18:29:35Z</time>
      </trkpt>
      <trkpt lat="50.01962" lon="4.33766">
        <ele>281.1</ele>
        <time>2020-06-24T18:29:36Z</time>
      </trkpt>
      <trkpt lat="50.0196" lon="4.33766">
        <ele>281.3</ele>
        <time>2020-06-24T18:29:37Z</time>
      </trkpt>
      <trkpt lat="50.01959" lon="4.33766">
        <ele>281.4</ele>
        <time>2020-06-24T18:29:38Z</time>
      </trkpt>
      <trkpt lat="50.01956" lon="4.33765">
        <ele>281.5</ele>
        <time>2020-06-24T18:29:39Z</time>
      </trkpt>
      <trkpt lat="50.01953" lon="4.33764">
        <ele>281.7</ele>
        <time>2020-06-24T18:29:40Z</time>
      </trkpt>
      <trkpt lat="50.01949" lon="4.33763">
        <ele>281.9</ele>
        <time>2020-06-24T18:29:41Z</time>
      </trkpt>
      <trkpt lat="50.01948" lon="4.33763">
        <ele>282</ele>
        <time>2020-06-24T18:29:42Z</time>
      </trkpt>
      <trkpt lat="50.01944" lon="4.33763">
        <ele>282.2</ele>
        <time>2020-06-24T18:29:43Z</time>
      </trkpt>
      <trkpt lat="50.01941" lon="4.33763">
        <ele>282.5</ele>
        <time>2020-06-24T18:29:44Z</time>
      </trkpt>
      <trkpt lat="50.01939" lon="4.33763">
        <ele>282.6</ele>
        <time>2020-06-24T18:29:45Z</time>
      </trkpt>
      <trkpt lat="50.01935" lon="4.33762">
        <ele>282.8</ele>
        <time>2020-06-24T18:29:46Z</time>
      </trkpt>
      <trkpt lat="50.01933" lon="4.33762">
        <ele>282.9</ele>
        <time>2020-06-24T18:29:47Z</time>
      </trkpt>
      <trkpt lat="50.0193" lon="4.3376">
        <ele>283.1</ele>
        <time>2020-06-24T18:29:48Z</time>
      </trkpt>
      <trkpt lat="50.01928" lon="4.3376">
        <ele>283.3</ele>
        <time>2020-06-24T18:29:49Z</time>
      </trkpt>
      <trkpt lat="50.01924" lon="4.33759">
        <ele>283.5</ele>
        <time>2020-06-24T18:29:50Z</time>
      </trkpt>
      <trkpt lat="50.01922" lon="4.33759">
        <ele>283.6</ele>
        <time>2020-06-24T18:29:51Z</time>
      </trkpt>
      <trkpt lat="50.01918" lon="4.33759">
        <ele>283.9</ele>
        <time>2020-06-24T18:29:52Z</time>
      </trkpt>
      <trkpt lat="50.01917" lon="4.33759">
        <ele>284</ele>
        <time>2020-06-24T18:29:53Z</time>
      </trkpt>
      <trkpt lat="50.01914" lon="4.33759">
        <ele>284.2</ele>
        <time>2020-06-24T18:29:54Z</time>
      </trkpt>
      <trkpt lat="50.01911" lon="4.33758">
        <ele>284.3</ele>
        <time>2020-06-24T18:29:55Z</time>
      </trkpt>
      <trkpt lat="50.01908" lon="4.33756">
        <ele>284.5</ele>
        <time>2020-06-24T18:29:56Z</time>
      </trkpt>
      <trkpt lat="50.01904" lon="4.33756">
        <ele>284.8</ele>
        <time>2020-06-24T18:29:57Z</time>
      </trkpt>
      <trkpt lat="50.01902" lon="4.33757">
        <ele>284.9</ele>
        <time>2020-06-24T18:29:58Z</time>
      </trkpt>
      <trkpt lat="50.01899" lon="4.33758">
        <ele>285.1</ele>
        <time>2020-06-24T18:29:59Z</time>
      </trkpt>
      <trkpt lat="50.01896" lon="4.33759">
        <ele>285.3</ele>
        <time>2020-06-24T18:30:00Z</time>
      </trkpt>
      <trkpt lat="50.01893" lon="4.33758">
        <ele>285.5</ele>
        <time>2020-06-24T18:30:01Z</time>
      </trkpt>
      <trkpt lat="50.0189" lon="4.33758">
        <ele>285.7</ele>
        <time>2020-06-24T18:30:02Z</time>
      </trkpt>
      <trkpt lat="50.01886" lon="4.33756">
        <ele>285.9</ele>
        <time>2020-06-24T18:30:03Z</time>
      </trkpt>
      <trkpt lat="50.01885" lon="4.33755">
        <ele>286</ele>
        <time>2020-06-24T18:30:04Z</time>
      </trkpt>
      <trkpt lat="50.01882" lon="4.33753">
        <ele>286.2</ele>
        <time>2020-06-24T18:30:05Z</time>
      </trkpt>
      <trkpt lat="50.01879" lon="4.33752">
        <ele>286.4</ele>
        <time>2020-06-24T18:30:06Z</time>
      </trkpt>
      <trkpt lat="50.01876" lon="4.33751">
        <ele>286.6</ele>
        <time>2020-06-24T18:30:07Z</time>
      </trkpt>
      <trkpt lat="50.01872" lon="4.3375">
        <ele>286.9</ele>
        <time>2020-06-24T18:30:08Z</time>
      </trkpt>
      <trkpt lat="50.01871" lon="4.3375">
        <ele>287</ele>
        <time>2020-06-24T18:30:09Z</time>
      </trkpt>
      <trkpt lat="50.01868" lon="4.3375">
        <ele>287.2</ele>
        <time>2020-06-24T18:30:10Z</time>
      </trkpt>
      <trkpt lat="50.01865" lon="4.33748">
        <ele>287.4</ele>
        <time>2020-06-24T18:30:11Z</time>
      </trkpt>
      <trkpt lat="50.01862" lon="4.33748">
        <ele>287.6</ele>
        <time>2020-06-24T18:30:12Z</time>
      </trkpt>
      <trkpt lat="50.01859" lon="4.33747">
        <ele>287.8</ele>
        <time>2020-06-24T18:30:13Z</time>
      </trkpt>
      <trkpt lat="50.01855" lon="4.33747">
        <ele>288</ele>
        <time>2020-06-24T18:30:14Z</time>
      </trkpt>
      <trkpt lat="50.01852" lon="4.33747">
        <ele>288.2</ele>
        <time>2020-06-24T18:30:15Z</time>
      </trkpt>
      <trkpt lat="50.01849" lon="4.33747">
        <ele>288.4</ele>
        <time>2020-06-24T18:30:16Z</time>
      </trkpt>
      <trkpt lat="50.01846" lon="4.33748">
        <ele>288.6</ele>
        <time>2020-06-24T18:30:17Z</time>
      </trkpt>
      <trkpt lat="50.01843" lon="4.33748">
        <ele>288.8</ele>
        <time>2020-06-24T18:30:18Z</time>
      </trkpt>
      <trkpt lat="50.01839" lon="4.33748">
        <ele>289</ele>
        <time>2020-06-24T18:30:19Z</time>
      </trkpt>
      <trkpt lat="50.01838" lon="4.33748">
        <ele>289.1</ele>
        <time>2020-06-24T18:30:20Z</time>
      </trkpt>
      <trkpt lat="50.01835" lon="4.33747">
        <ele>289.2</ele>
        <time>2020-06-24T18:30:21Z</time>
      </trkpt>
      <trkpt lat="50.01832" lon="4.33747">
        <ele>289.4</ele>
        <time>2020-06-24T18:30:22Z</time>
      </trkpt>
      <trkpt lat="50.0183" lon="4.33747">
        <ele>289.6</ele>
        <time>2020-06-24T18:30:23Z</time>
      </trkpt>
      <trkpt lat="50.01826" lon="4.33745">
        <ele>289.8</ele>
        <time>2020-06-24T18:30:24Z</time>
      </trkpt>
      <trkpt lat="50.01825" lon="4.33745">
        <ele>289.9</ele>
        <time>2020-06-24T18:30:25Z</time>
      </trkpt>
      <trkpt lat="50.01821" lon="4.33743">
        <ele>290.2</ele>
        <time>2020-06-24T18:30:26Z</time>
      </trkpt>
      <trkpt lat="50.0182" lon="4.33743">
        <ele>290.2</ele>
        <time>2020-06-24T18:30:27Z</time>
      </trkpt>
      <trkpt lat="50.01817" lon="4.33742">
        <ele>290.4</ele>
        <time>2020-06-24T18:30:28Z</time>
      </trkpt>
      <trkpt lat="50.01814" lon="4.33741">
        <ele>290.6</ele>
        <time>2020-06-24T18:30:29Z</time>
      </trkpt>
      <trkpt lat="50.01811" lon="4.3374">
        <ele>290.8</ele>
        <time>2020-06-24T18:30:30Z</time>
      </trkpt>
      <trkpt lat="50.01807" lon="4.33739">
        <ele>291.1</ele>
        <time>2020-06-24T18:30:31Z</time>
      </trkpt>
      <trkpt lat="50.01805" lon="4.33739">
        <ele>291.2</ele>
        <time>2020-06-24T18:30:32Z</time>
      </trkpt>
      <trkpt lat="50.01801" lon="4.33738">
        <ele>291.3</ele>
        <time>2020-06-24T18:30:33Z</time>
      </trkpt>
      <trkpt lat="50.01798" lon="4.33738">
        <ele>291.5</ele>
        <time>2020-06-24T18:30:34Z</time>
      </trkpt>
      <trkpt lat="50.01795" lon="4.33737">
        <ele>291.6</ele>
        <time>2020-06-24T18:30:35Z</time>
      </trkpt>
      <trkpt lat="50.01792" lon="4.33736">
        <ele>291.7</ele>
        <time>2020-06-24T18:30:36Z</time>
      </trkpt>
      <trkpt lat="50.01789" lon="4.33737">
        <ele>291.8</ele>
        <time>2020-06-24T18:30:37Z</time>
      </trkpt>
      <trkpt lat="50.01786" lon="4.33736">
        <ele>291.9</ele>
        <time>2020-06-24T18:30:38Z</time>
      </trkpt>
      <trkpt lat="50.01783" lon="4.33736">
        <ele>292</ele>
        <time>2020-06-24T18:30:39Z</time>
      </trkpt>
      <trkpt lat="50.0178" lon="4.33735">
        <ele>292.1</ele>
        <time>2020-06-24T18:30:40Z</time>
      </trkpt>
      <trkpt lat="50.01776" lon="4.33734">
        <ele>292.2</ele>
        <time>2020-06-24T18:30:41Z</time>
      </trkpt>
      <trkpt lat="50.01774" lon="4.33734">
        <ele>292.3</ele>
        <time>2020-06-24T18:30:42Z</time>
      </trkpt>
      <trkpt lat="50.01771" lon="4.33734">
        <ele>292.4</ele>
        <time>2020-06-24T18:30:43Z</time>
      </trkpt>
      <trkpt lat="50.01767" lon="4.33734">
        <ele>292.5</ele>
        <time>2020-06-24T18:30:44Z</time>
      </trkpt>
      <trkpt lat="50.01764" lon="4.33732">
        <ele>292.6</ele>
        <time>2020-06-24T18:30:45Z</time>
      </trkpt>
      <trkpt lat="50.0176" lon="4.33731">
        <ele>292.7</ele>
        <time>2020-06-24T18:30:46Z</time>
      </trkpt>
      <trkpt lat="50.01757" lon="4.33729">
        <ele>292.8</ele>
        <time>2020-06-24T18:30:47Z</time>
      </trkpt>
      <trkpt lat="50.01753" lon="4.33728">
        <ele>292.9</ele>
        <time>2020-06-24T18:30:48Z</time>
      </trkpt>
      <trkpt lat="50.01749" lon="4.33727">
        <ele>293</ele>
        <time>2020-06-24T18:30:49Z</time>
      </trkpt>
      <trkpt lat="50.01745" lon="4.33726">
        <ele>293.2</ele>
        <time>2020-06-24T18:30:50Z</time>
      </trkpt>
      <trkpt lat="50.01741" lon="4.33726">
        <ele>293.3</ele>
        <time>2020-06-24T18:30:51Z</time>
      </trkpt>
      <trkpt lat="50.01738" lon="4.33726">
        <ele>293.4</ele>
        <time>2020-06-24T18:30:52Z</time>
      </trkpt>
      <trkpt lat="50.01734" lon="4.33726">
        <ele>293.5</ele>
        <time>2020-06-24T18:30:53Z</time>
      </trkpt>
      <trkpt lat="50.01731" lon="4.33726">
        <ele>293.6</ele>
        <time>2020-06-24T18:30:54Z</time>
      </trkpt>
      <trkpt lat="50.01728" lon="4.33726">
        <ele>293.7</ele>
        <time>2020-06-24T18:30:55Z</time>
      </trkpt>
      <trkpt lat="50.01725" lon="4.33724">
        <ele>293.8</ele>
        <time>2020-06-24T18:30:56Z</time>
      </trkpt>
      <trkpt lat="50.01722" lon="4.33724">
        <ele>294</ele>
        <time>2020-06-24T18:30:57Z</time>
      </trkpt>
      <trkpt lat="50.01718" lon="4.33723">
        <ele>294.1</ele>
        <time>2020-06-24T18:30:58Z</time>
      </trkpt>
      <trkpt lat="50.01715" lon="4.33722">
        <ele>294.2</ele>
        <time>2020-06-24T18:30:59Z</time>
      </trkpt>
      <trkpt lat="50.01711" lon="4.3372">
        <ele>294.3</ele>
        <time>2020-06-24T18:31:00Z</time>
      </trkpt>
      <trkpt lat="50.01707" lon="4.33718">
        <ele>294.5</ele>
        <time>2020-06-24T18:31:01Z</time>
      </trkpt>
      <trkpt lat="50.01704" lon="4.33717">
        <ele>294.6</ele>
        <time>2020-06-24T18:31:02Z</time>
      </trkpt>
      <trkpt lat="50.01701" lon="4.33716">
        <ele>294.7</ele>
        <time>2020-06-24T18:31:03Z</time>
      </trkpt>
      <trkpt lat="50.01697" lon="4.33715">
        <ele>294.8</ele>
        <time>2020-06-24T18:31:04Z</time>
      </trkpt>
      <trkpt lat="50.01694" lon="4.33715">
        <ele>294.9</ele>
        <time>2020-06-24T18:31:05Z</time>
      </trkpt>
      <trkpt lat="50.0169" lon="4.33715">
        <ele>295</ele>
        <time>2020-06-24T18:31:06Z</time>
      </trkpt>
      <trkpt lat="50.01686" lon="4.33714">
        <ele>295.1</ele>
        <time>2020-06-24T18:31:07Z</time>
      </trkpt>
      <trkpt lat="50.01683" lon="4.33712">
        <ele>295.2</ele>
        <time>2020-06-24T18:31:08Z</time>
      </trkpt>
      <trkpt lat="50.01679" lon="4.33712">
        <ele>295.4</ele>
        <time>2020-06-24T18:31:09Z</time>
      </trkpt>
      <trkpt lat="50.01675" lon="4.33713">
        <ele>295.5</ele>
        <time>2020-06-24T18:31:10Z</time>
      </trkpt>
      <trkpt lat="50.01672" lon="4.33714">
        <ele>295.6</ele>
        <time>2020-06-24T18:31:11Z</time>
      </trkpt>
      <trkpt lat="50.01668" lon="4.33713">
        <ele>295.7</ele>
        <time>2020-06-24T18:31:12Z</time>
      </trkpt>
      <trkpt lat="50.01665" lon="4.33711">
        <ele>295.7</ele>
        <time>2020-06-24T18:31:13Z</time>
      </trkpt>
      <trkpt lat="50.01663" lon="4.33708">
        <ele>295.8</ele>
        <time>2020-06-24T18:31:14Z</time>
      </trkpt>
      <trkpt lat="50.01659" lon="4.33706">
        <ele>295.8</ele>
        <time>2020-06-24T18:31:15Z</time>
      </trkpt>
      <trkpt lat="50.01654" lon="4.33706">
        <ele>295.9</ele>
        <time>2020-06-24T18:31:16Z</time>
      </trkpt>
      <trkpt lat="50.0165" lon="4.33706">
        <ele>295.9</ele>
        <time>2020-06-24T18:31:17Z</time>
      </trkpt>
      <trkpt lat="50.01646" lon="4.33706">
        <ele>296</ele>
        <time>2020-06-24T18:31:18Z</time>
      </trkpt>
      <trkpt lat="50.01643" lon="4.33706">
        <ele>296</ele>
        <time>2020-06-24T18:31:19Z</time>
      </trkpt>
      <trkpt lat="50.0164" lon="4.33705">
        <ele>296.1</ele>
        <time>2020-06-24T18:31:20Z</time>
      </trkpt>
      <trkpt lat="50.01635" lon="4.33704">
        <ele>296.2</ele>
        <time>2020-06-24T18:31:21Z</time>
      </trkpt>
      <trkpt lat="50.01631" lon="4.33703">
        <ele>296.2</ele>
        <time>2020-06-24T18:31:22Z</time>
      </trkpt>
      <trkpt lat="50.01627" lon="4.33702">
        <ele>296.3</ele>
        <time>2020-06-24T18:31:23Z</time>
      </trkpt>
      <trkpt lat="50.01623" lon="4.33702">
        <ele>296.4</ele>
        <time>2020-06-24T18:31:24Z</time>
      </trkpt>
      <trkpt lat="50.01619" lon="4.33702">
        <ele>296.4</ele>
        <time>2020-06-24T18:31:25Z</time>
      </trkpt>
      <trkpt lat="50.01615" lon="4.33701">
        <ele>296.5</ele>
        <time>2020-06-24T18:31:26Z</time>
      </trkpt>
      <trkpt lat="50.01611" lon="4.337">
        <ele>296.6</ele>
        <time>2020-06-24T18:31:27Z</time>
      </trkpt>
      <trkpt lat="50.01607" lon="4.33699">
        <ele>296.6</ele>
        <time>2020-06-24T18:31:28Z</time>
      </trkpt>
      <trkpt lat="50.01604" lon="4.33697">
        <ele>296.7</ele>
        <time>2020-06-24T18:31:29Z</time>
      </trkpt>
      <trkpt lat="50.016" lon="4.33697">
        <ele>296.7</ele>
        <time>2020-06-24T18:31:30Z</time>
      </trkpt>
      <trkpt lat="50.01596" lon="4.33696">
        <ele>296.8</ele>
        <time>2020-06-24T18:31:31Z</time>
      </trkpt>
      <trkpt lat="50.01592" lon="4.33695">
        <ele>296.9</ele>
        <time>2020-06-24T18:31:32Z</time>
      </trkpt>
      <trkpt lat="50.01588" lon="4.33694">
        <ele>296.9</ele>
        <time>2020-06-24T18:31:33Z</time>
      </trkpt>
      <trkpt lat="50.01584" lon="4.33693">
        <ele>297</ele>
        <time>2020-06-24T18:31:34Z</time>
      </trkpt>
      <trkpt lat="50.01579" lon="4.33692">
        <ele>297.1</ele>
        <time>2020-06-24T18:31:35Z</time>
      </trkpt>
      <trkpt lat="50.01575" lon="4.33691">
        <ele>297.1</ele>
        <time>2020-06-24T18:31:36Z</time>
      </trkpt>
      <trkpt lat="50.0157" lon="4.3369">
        <ele>297.2</ele>
        <time>2020-06-24T18:31:37Z</time>
      </trkpt>
      <trkpt lat="50.01567" lon="4.33689">
        <ele>297.3</ele>
        <time>2020-06-24T18:31:38Z</time>
      </trkpt>
      <trkpt lat="50.01563" lon="4.33689">
        <ele>297.4</ele>
        <time>2020-06-24T18:31:39Z</time>
      </trkpt>
      <trkpt lat="50.01558" lon="4.33688">
        <ele>297.5</ele>
        <time>2020-06-24T18:31:40Z</time>
      </trkpt>
      <trkpt lat="50.01554" lon="4.33687">
        <ele>297.5</ele>
        <time>2020-06-24T18:31:41Z</time>
      </trkpt>
      <trkpt lat="50.0155" lon="4.33686">
        <ele>297.6</ele>
        <time>2020-06-24T18:31:42Z</time>
      </trkpt>
      <trkpt lat="50.01546" lon="4.33684">
        <ele>297.7</ele>
        <time>2020-06-24T18:31:43Z</time>
      </trkpt>
      <trkpt lat="50.01541" lon="4.33684">
        <ele>297.8</ele>
        <time>2020-06-24T18:31:44Z</time>
      </trkpt>
      <trkpt lat="50.01537" lon="4.33684">
        <ele>297.9</ele>
        <time>2020-06-24T18:31:45Z</time>
      </trkpt>
      <trkpt lat="50.01533" lon="4.33683">
        <ele>297.9</ele>
        <time>2020-06-24T18:31:46Z</time>
      </trkpt>
      <trkpt lat="50.0153" lon="4.33683">
        <ele>298</ele>
        <time>2020-06-24T18:31:47Z</time>
      </trkpt>
      <trkpt lat="50.01526" lon="4.33682">
        <ele>298</ele>
        <time>2020-06-24T18:31:48Z</time>
      </trkpt>
      <trkpt lat="50.01523" lon="4.33682">
        <ele>298.1</ele>
        <time>2020-06-24T18:31:49Z</time>
      </trkpt>
      <trkpt lat="50.0152" lon="4.33681">
        <ele>298.2</ele>
        <time>2020-06-24T18:31:50Z</time>
      </trkpt>
      <trkpt lat="50.01517" lon="4.33681">
        <ele>298.3</ele>
        <time>2020-06-24T18:31:51Z</time>
      </trkpt>
      <trkpt lat="50.01513" lon="4.3368">
        <ele>298.4</ele>
        <time>2020-06-24T18:31:52Z</time>
      </trkpt>
      <trkpt lat="50.01509" lon="4.33679">
        <ele>298.5</ele>
        <time>2020-06-24T18:31:53Z</time>
      </trkpt>
      <trkpt lat="50.01505" lon="4.33678">
        <ele>298.5</ele>
        <time>2020-06-24T18:31:54Z</time>
      </trkpt>
      <trkpt lat="50.01501" lon="4.33678">
        <ele>298.6</ele>
        <time>2020-06-24T18:31:55Z</time>
      </trkpt>
      <trkpt lat="50.01497" lon="4.33677">
        <ele>298.6</ele>
        <time>2020-06-24T18:31:56Z</time>
      </trkpt>
      <trkpt lat="50.01493" lon="4.33677">
        <ele>298.7</ele>
        <time>2020-06-24T18:31:57Z</time>
      </trkpt>
      <trkpt lat="50.01489" lon="4.33677">
        <ele>298.7</ele>
        <time>2020-06-24T18:31:58Z</time>
      </trkpt>
      <trkpt lat="50.01485" lon="4.33676">
        <ele>298.7</ele>
        <time>2020-06-24T18:31:59Z</time>
      </trkpt>
      <trkpt lat="50.0148" lon="4.33674">
        <ele>298.7</ele>
        <time>2020-06-24T18:32:00Z</time>
      </trkpt>
      <trkpt lat="50.01476" lon="4.33674">
        <ele>298.7</ele>
        <time>2020-06-24T18:32:01Z</time>
      </trkpt>
      <trkpt lat="50.01472" lon="4.33674">
        <ele>298.7</ele>
        <time>2020-06-24T18:32:02Z</time>
      </trkpt>
      <trkpt lat="50.01468" lon="4.33673">
        <ele>298.7</ele>
        <time>2020-06-24T18:32:03Z</time>
      </trkpt>
      <trkpt lat="50.01463" lon="4.33672">
        <ele>298.7</ele>
        <time>2020-06-24T18:32:04Z</time>
      </trkpt>
      <trkpt lat="50.0146" lon="4.33671">
        <ele>298.7</ele>
        <time>2020-06-24T18:32:05Z</time>
      </trkpt>
      <trkpt lat="50.01455" lon="4.3367">
        <ele>298.6</ele>
        <time>2020-06-24T18:32:06Z</time>
      </trkpt>
      <trkpt lat="50.01451" lon="4.3367">
        <ele>298.6</ele>
        <time>2020-06-24T18:32:07Z</time>
      </trkpt>
      <trkpt lat="50.01446" lon="4.33669">
        <ele>298.6</ele>
        <time>2020-06-24T18:32:08Z</time>
      </trkpt>
      <trkpt lat="50.01441" lon="4.33669">
        <ele>298.6</ele>
        <time>2020-06-24T18:32:09Z</time>
      </trkpt>
      <trkpt lat="50.01436" lon="4.33669">
        <ele>298.6</ele>
        <time>2020-06-24T18:32:10Z</time>
      </trkpt>
      <trkpt lat="50.01431" lon="4.33669">
        <ele>298.5</ele>
        <time>2020-06-24T18:32:11Z</time>
      </trkpt>
      <trkpt lat="50.01426" lon="4.33671">
        <ele>298.5</ele>
        <time>2020-06-24T18:32:12Z</time>
      </trkpt>
      <trkpt lat="50.01422" lon="4.33671">
        <ele>298.5</ele>
        <time>2020-06-24T18:32:13Z</time>
      </trkpt>
      <trkpt lat="50.01417" lon="4.33673">
        <ele>298.5</ele>
        <time>2020-06-24T18:32:14Z</time>
      </trkpt>
      <trkpt lat="50.01413" lon="4.33674">
        <ele>298.4</ele>
        <time>2020-06-24T18:32:15Z</time>
      </trkpt>
      <trkpt lat="50.01408" lon="4.33675">
        <ele>298.4</ele>
        <time>2020-06-24T18:32:16Z</time>
      </trkpt>
      <trkpt lat="50.01404" lon="4.33676">
        <ele>298.4</ele>
        <time>2020-06-24T18:32:17Z</time>
      </trkpt>
      <trkpt lat="50.014" lon="4.33677">
        <ele>298.3</ele>
        <time>2020-06-24T18:32:18Z</time>
      </trkpt>
      <trkpt lat="50.01395" lon="4.33677">
        <ele>298.3</ele>
        <time>2020-06-24T18:32:19Z</time>
      </trkpt>
      <trkpt lat="50.0139" lon="4.33679">
        <ele>298.2</ele>
        <time>2020-06-24T18:32:20Z</time>
      </trkpt>
      <trkpt lat="50.01385" lon="4.3368">
        <ele>298.1</ele>
        <time>2020-06-24T18:32:21Z</time>
      </trkpt>
      <trkpt lat="50.0138" lon="4.33682">
        <ele>298</ele>
        <time>2020-06-24T18:32:22Z</time>
      </trkpt>
      <trkpt lat="50.01375" lon="4.33685">
        <ele>297.9</ele>
        <time>2020-06-24T18:32:23Z</time>
      </trkpt>
      <trkpt lat="50.0137" lon="4.33687">
        <ele>297.8</ele>
        <time>2020-06-24T18:32:24Z</time>
      </trkpt>
      <trkpt lat="50.01364" lon="4.3369">
        <ele>297.7</ele>
        <time>2020-06-24T18:32:25Z</time>
      </trkpt>
      <trkpt lat="50.01359" lon="4.33693">
        <ele>297.5</ele>
        <time>2020-06-24T18:32:26Z</time>
      </trkpt>
      <trkpt lat="50.01353" lon="4.33696">
        <ele>297.4</ele>
        <time>2020-06-24T18:32:27Z</time>
      </trkpt>
      <trkpt lat="50.01347" lon="4.33699">
        <ele>297.3</ele>
        <time>2020-06-24T18:32:28Z</time>
      </trkpt>
      <trkpt lat="50.01341" lon="4.33703">
        <ele>297.2</ele>
        <time>2020-06-24T18:32:29Z</time>
      </trkpt>
      <trkpt lat="50.01335" lon="4.33707">
        <ele>297</ele>
        <time>2020-06-24T18:32:30Z</time>
      </trkpt>
      <trkpt lat="50.01329" lon="4.3371">
        <ele>296.9</ele>
        <time>2020-06-24T18:32:31Z</time>
      </trkpt>
      <trkpt lat="50.01323" lon="4.33714">
        <ele>296.8</ele>
        <time>2020-06-24T18:32:32Z</time>
      </trkpt>
      <trkpt lat="50.01317" lon="4.33717">
        <ele>296.6</ele>
        <time>2020-06-24T18:32:33Z</time>
      </trkpt>
      <trkpt lat="50.01311" lon="4.3372">
        <ele>296.5</ele>
        <time>2020-06-24T18:32:34Z</time>
      </trkpt>
      <trkpt lat="50.01305" lon="4.33723">
        <ele>296.3</ele>
        <time>2020-06-24T18:32:35Z</time>
      </trkpt>
      <trkpt lat="50.01299" lon="4.33726">
        <ele>296.2</ele>
        <time>2020-06-24T18:32:36Z</time>
      </trkpt>
      <trkpt lat="50.01294" lon="4.33728">
        <ele>296.1</ele>
        <time>2020-06-24T18:32:37Z</time>
      </trkpt>
      <trkpt lat="50.01289" lon="4.33731">
        <ele>296</ele>
        <time>2020-06-24T18:32:38Z</time>
      </trkpt>
      <trkpt lat="50.01284" lon="4.33733">
        <ele>295.9</ele>
        <time>2020-06-24T18:32:39Z</time>
      </trkpt>
      <trkpt lat="50.01279" lon="4.33736">
        <ele>295.7</ele>
        <time>2020-06-24T18:32:40Z</time>
      </trkpt>
      <trkpt lat="50.01273" lon="4.3374">
        <ele>295.6</ele>
        <time>2020-06-24T18:32:41Z</time>
      </trkpt>
      <trkpt lat="50.01268" lon="4.33744">
        <ele>295.5</ele>
        <time>2020-06-24T18:32:42Z</time>
      </trkpt>
      <trkpt lat="50.01262" lon="4.33747">
        <ele>295.4</ele>
        <time>2020-06-24T18:32:43Z</time>
      </trkpt>
      <trkpt lat="50.01257" lon="4.3375">
        <ele>295.3</ele>
        <time>2020-06-24T18:32:44Z</time>
      </trkpt>
      <trkpt lat="50.01252" lon="4.33753">
        <ele>295.2</ele>
        <time>2020-06-24T18:32:45Z</time>
      </trkpt>
      <trkpt lat="50.01246" lon="4.33755">
        <ele>295.2</ele>
        <time>2020-06-24T18:32:46Z</time>
      </trkpt>
      <trkpt lat="50.01241" lon="4.33758">
        <ele>295.1</ele>
        <time>2020-06-24T18:32:47Z</time>
      </trkpt>
      <trkpt lat="50.01235" lon="4.33761">
        <ele>295</ele>
        <time>2020-06-24T18:32:48Z</time>
      </trkpt>
      <trkpt lat="50.0123" lon="4.33765">
        <ele>294.9</ele>
        <time>2020-06-24T18:32:49Z</time>
      </trkpt>
      <trkpt lat="50.01224" lon="4.33768">
        <ele>294.8</ele>
        <time>2020-06-24T18:32:50Z</time>
      </trkpt>
      <trkpt lat="50.01219" lon="4.3377">
        <ele>294.7</ele>
        <time>2020-06-24T18:32:51Z</time>
      </trkpt>
      <trkpt lat="50.01213" lon="4.33774">
        <ele>294.6</ele>
        <time>2020-06-24T18:32:52Z</time>
      </trkpt>
      <trkpt lat="50.01207" lon="4.33778">
        <ele>294.5</ele>
        <time>2020-06-24T18:32:53Z</time>
      </trkpt>
      <trkpt lat="50.012" lon="4.33781">
        <ele>294.3</ele>
        <time>2020-06-24T18:32:54Z</time>
      </trkpt>
      <trkpt lat="50.01193" lon="4.33785">
        <ele>294.2</ele>
        <time>2020-06-24T18:32:55Z</time>
      </trkpt>
      <trkpt lat="50.01187" lon="4.33787">
        <ele>294.1</ele>
        <time>2020-06-24T18:32:56Z</time>
      </trkpt>
      <trkpt lat="50.01182" lon="4.33791">
        <ele>294</ele>
        <time>2020-06-24T18:32:57Z</time>
      </trkpt>
      <trkpt lat="50.01175" lon="4.33794">
        <ele>293.8</ele>
        <time>2020-06-24T18:32:58Z</time>
      </trkpt>
      <trkpt lat="50.01169" lon="4.33797">
        <ele>293.7</ele>
        <time>2020-06-24T18:32:59Z</time>
      </trkpt>
      <trkpt lat="50.01162" lon="4.33799">
        <ele>293.6</ele>
        <time>2020-06-24T18:33:00Z</time>
      </trkpt>
      <trkpt lat="50.01156" lon="4.33802">
        <ele>293.5</ele>
        <time>2020-06-24T18:33:01Z</time>
      </trkpt>
      <trkpt lat="50.01149" lon="4.33806">
        <ele>293.3</ele>
        <time>2020-06-24T18:33:02Z</time>
      </trkpt>
      <trkpt lat="50.01143" lon="4.3381">
        <ele>293.2</ele>
        <time>2020-06-24T18:33:03Z</time>
      </trkpt>
      <trkpt lat="50.01137" lon="4.33814">
        <ele>293.1</ele>
        <time>2020-06-24T18:33:04Z</time>
      </trkpt>
      <trkpt lat="50.01131" lon="4.33818">
        <ele>292.9</ele>
        <time>2020-06-24T18:33:05Z</time>
      </trkpt>
      <trkpt lat="50.01126" lon="4.33822">
        <ele>292.8</ele>
        <time>2020-06-24T18:33:06Z</time>
      </trkpt>
      <trkpt lat="50.0112" lon="4.33825">
        <ele>292.8</ele>
        <time>2020-06-24T18:33:07Z</time>
      </trkpt>
      <trkpt lat="50.01115" lon="4.33827">
        <ele>292.7</ele>
        <time>2020-06-24T18:33:08Z</time>
      </trkpt>
      <trkpt lat="50.0111" lon="4.33831">
        <ele>292.7</ele>
        <time>2020-06-24T18:33:09Z</time>
      </trkpt>
      <trkpt lat="50.01103" lon="4.33835">
        <ele>292.6</ele>
        <time>2020-06-24T18:33:10Z</time>
      </trkpt>
      <trkpt lat="50.01097" lon="4.33839">
        <ele>292.5</ele>
        <time>2020-06-24T18:33:11Z</time>
      </trkpt>
      <trkpt lat="50.01091" lon="4.33842">
        <ele>292.4</ele>
        <time>2020-06-24T18:33:12Z</time>
      </trkpt>
      <trkpt lat="50.01084" lon="4.33845">
        <ele>292.3</ele>
        <time>2020-06-24T18:33:13Z</time>
      </trkpt>
      <trkpt lat="50.01078" lon="4.33849">
        <ele>292.2</ele>
        <time>2020-06-24T18:33:14Z</time>
      </trkpt>
      <trkpt lat="50.01072" lon="4.33852">
        <ele>292.1</ele>
        <time>2020-06-24T18:33:15Z</time>
      </trkpt>
      <trkpt lat="50.01066" lon="4.33855">
        <ele>292</ele>
        <time>2020-06-24T18:33:16Z</time>
      </trkpt>
      <trkpt lat="50.01061" lon="4.33857">
        <ele>292</ele>
        <time>2020-06-24T18:33:17Z</time>
      </trkpt>
      <trkpt lat="50.01057" lon="4.3386">
        <ele>291.9</ele>
        <time>2020-06-24T18:33:18Z</time>
      </trkpt>
      <trkpt lat="50.01051" lon="4.33863">
        <ele>291.8</ele>
        <time>2020-06-24T18:33:19Z</time>
      </trkpt>
      <trkpt lat="50.01045" lon="4.33866">
        <ele>291.7</ele>
        <time>2020-06-24T18:33:20Z</time>
      </trkpt>
      <trkpt lat="50.01037" lon="4.33869">
        <ele>291.6</ele>
        <time>2020-06-24T18:33:21Z</time>
      </trkpt>
      <trkpt lat="50.0103" lon="4.33873">
        <ele>291.5</ele>
        <time>2020-06-24T18:33:22Z</time>
      </trkpt>
      <trkpt lat="50.01023" lon="4.33876">
        <ele>291.4</ele>
        <time>2020-06-24T18:33:23Z</time>
      </trkpt>
      <trkpt lat="50.01016" lon="4.3388">
        <ele>291.3</ele>
        <time>2020-06-24T18:33:24Z</time>
      </trkpt>
      <trkpt lat="50.01009" lon="4.33884">
        <ele>291.2</ele>
        <time>2020-06-24T18:33:25Z</time>
      </trkpt>
      <trkpt lat="50.01001" lon="4.33888">
        <ele>291</ele>
        <time>2020-06-24T18:33:26Z</time>
      </trkpt>
      <trkpt lat="50.00994" lon="4.33892">
        <ele>290.9</ele>
        <time>2020-06-24T18:33:27Z</time>
      </trkpt>
      <trkpt lat="50.00987" lon="4.33896">
        <ele>290.7</ele>
        <time>2020-06-24T18:33:28Z</time>
      </trkpt>
      <trkpt lat="50.0098" lon="4.339">
        <ele>290.6</ele>
        <time>2020-06-24T18:33:29Z</time>
      </trkpt>
      <trkpt lat="50.00974" lon="4.33903">
        <ele>290.5</ele>
        <time>2020-06-24T18:33:30Z</time>
      </trkpt>
      <trkpt lat="50.00967" lon="4.33906">
        <ele>290.5</ele>
        <time>2020-06-24T18:33:31Z</time>
      </trkpt>
      <trkpt lat="50.00961" lon="4.33909">
        <ele>290.4</ele>
        <time>2020-06-24T18:33:32Z</time>
      </trkpt>
      <trkpt lat="50.00956" lon="4.33913">
        <ele>290.4</ele>
        <time>2020-06-24T18:33:33Z</time>
      </trkpt>
      <trkpt lat="50.00949" lon="4.33916">
        <ele>290.3</ele>
        <time>2020-06-24T18:33:34Z</time>
      </trkpt>
      <trkpt lat="50.00943" lon="4.33918">
        <ele>290.3</ele>
        <time>2020-06-24T18:33:35Z</time>
      </trkpt>
      <trkpt lat="50.00938" lon="4.33919">
        <ele>290.2</ele>
        <time>2020-06-24T18:33:36Z</time>
      </trkpt>
      <trkpt lat="50.00932" lon="4.33922">
        <ele>290.2</ele>
        <time>2020-06-24T18:33:37Z</time>
      </trkpt>
      <trkpt lat="50.00927" lon="4.33925">
        <ele>290.2</ele>
        <time>2020-06-24T18:33:38Z</time>
      </trkpt>
      <trkpt lat="50.00921" lon="4.33928">
        <ele>290.3</ele>
        <time>2020-06-24T18:33:39Z</time>
      </trkpt>
      <trkpt lat="50.00915" lon="4.33932">
        <ele>290.3</ele>
        <time>2020-06-24T18:33:40Z</time>
      </trkpt>
      <trkpt lat="50.0091" lon="4.33935">
        <ele>290.3</ele>
        <time>2020-06-24T18:33:41Z</time>
      </trkpt>
      <trkpt lat="50.00904" lon="4.33939">
        <ele>290.4</ele>
        <time>2020-06-24T18:33:42Z</time>
      </trkpt>
      <trkpt lat="50.00898" lon="4.33943">
        <ele>290.5</ele>
        <time>2020-06-24T18:33:43Z</time>
      </trkpt>
      <trkpt lat="50.00894" lon="4.33947">
        <ele>290.6</ele>
        <time>2020-06-24T18:33:44Z</time>
      </trkpt>
      <trkpt lat="50.00888" lon="4.3395">
        <ele>290.8</ele>
        <time>2020-06-24T18:33:45Z</time>
      </trkpt>
      <trkpt lat="50.00883" lon="4.33953">
        <ele>291</ele>
        <time>2020-06-24T18:33:46Z</time>
      </trkpt>
      <trkpt lat="50.00878" lon="4.33956">
        <ele>291.2</ele>
        <time>2020-06-24T18:33:47Z</time>
      </trkpt>
      <trkpt lat="50.00872" lon="4.33958">
        <ele>291.5</ele>
        <time>2020-06-24T18:33:48Z</time>
      </trkpt>
      <trkpt lat="50.00866" lon="4.3396">
        <ele>291.8</ele>
        <time>2020-06-24T18:33:49Z</time>
      </trkpt>
      <trkpt lat="50.0086" lon="4.33963">
        <ele>292.2</ele>
        <time>2020-06-24T18:33:50Z</time>
      </trkpt>
      <trkpt lat="50.00856" lon="4.33964">
        <ele>292.5</ele>
        <time>2020-06-24T18:33:51Z</time>
      </trkpt>
      <trkpt lat="50.00852" lon="4.33967">
        <ele>292.8</ele>
        <time>2020-06-24T18:33:52Z</time>
      </trkpt>
      <trkpt lat="50.00848" lon="4.33969">
        <ele>293.1</ele>
        <time>2020-06-24T18:33:53Z</time>
      </trkpt>
      <trkpt lat="50.00843" lon="4.33971">
        <ele>293.5</ele>
        <time>2020-06-24T18:33:54Z</time>
      </trkpt>
      <trkpt lat="50.00838" lon="4.33974">
        <ele>293.8</ele>
        <time>2020-06-24T18:33:55Z</time>
      </trkpt>
      <trkpt lat="50.00833" lon="4.33977">
        <ele>294.2</ele>
        <time>2020-06-24T18:33:56Z</time>
      </trkpt>
      <trkpt lat="50.00829" lon="4.3398">
        <ele>294.5</ele>
        <time>2020-06-24T18:33:57Z</time>
      </trkpt>
      <trkpt lat="50.00826" lon="4.33982">
        <ele>294.7</ele>
        <time>2020-06-24T18:33:58Z</time>
      </trkpt>
      <trkpt lat="50.00823" lon="4.33984">
        <ele>294.9</ele>
        <time>2020-06-24T18:33:59Z</time>
      </trkpt>
      <trkpt lat="50.0082" lon="4.33986">
        <ele>295.2</ele>
        <time>2020-06-24T18:34:00Z</time>
      </trkpt>
      <trkpt lat="50.00816" lon="4.33988">
        <ele>295.4</ele>
        <time>2020-06-24T18:34:01Z</time>
      </trkpt>
      <trkpt lat="50.00813" lon="4.3399">
        <ele>295.6</ele>
        <time>2020-06-24T18:34:02Z</time>
      </trkpt>
      <trkpt lat="50.00808" lon="4.33993">
        <ele>296</ele>
        <time>2020-06-24T18:34:03Z</time>
      </trkpt>
      <trkpt lat="50.00805" lon="4.33996">
        <ele>296.3</ele>
        <time>2020-06-24T18:34:04Z</time>
      </trkpt>
      <trkpt lat="50.00802" lon="4.33998">
        <ele>296.5</ele>
        <time>2020-06-24T18:34:05Z</time>
      </trkpt>
      <trkpt lat="50.00799" lon="4.34001">
        <ele>296.8</ele>
        <time>2020-06-24T18:34:06Z</time>
      </trkpt>
      <trkpt lat="50.00795" lon="4.34004">
        <ele>297.1</ele>
        <time>2020-06-24T18:34:07Z</time>
      </trkpt>
      <trkpt lat="50.0079" lon="4.34006">
        <ele>297.4</ele>
        <time>2020-06-24T18:34:08Z</time>
      </trkpt>
      <trkpt lat="50.00787" lon="4.34007">
        <ele>297.6</ele>
        <time>2020-06-24T18:34:09Z</time>
      </trkpt>
      <trkpt lat="50.00784" lon="4.34009">
        <ele>297.8</ele>
        <time>2020-06-24T18:34:10Z</time>
      </trkpt>
      <trkpt lat="50.00781" lon="4.3401">
        <ele>298.1</ele>
        <time>2020-06-24T18:34:11Z</time>
      </trkpt>
      <trkpt lat="50.00777" lon="4.34013">
        <ele>298.3</ele>
        <time>2020-06-24T18:34:12Z</time>
      </trkpt>
      <trkpt lat="50.00774" lon="4.34016">
        <ele>298.5</ele>
        <time>2020-06-24T18:34:13Z</time>
      </trkpt>
      <trkpt lat="50.00771" lon="4.34017">
        <ele>298.7</ele>
        <time>2020-06-24T18:34:14Z</time>
      </trkpt>
      <trkpt lat="50.00768" lon="4.34018">
        <ele>298.9</ele>
        <time>2020-06-24T18:34:15Z</time>
      </trkpt>
      <trkpt lat="50.00765" lon="4.3402">
        <ele>299.1</ele>
        <time>2020-06-24T18:34:16Z</time>
      </trkpt>
      <trkpt lat="50.00762" lon="4.34023">
        <ele>299.4</ele>
        <time>2020-06-24T18:34:17Z</time>
      </trkpt>
      <trkpt lat="50.00757" lon="4.34026">
        <ele>299.7</ele>
        <time>2020-06-24T18:34:18Z</time>
      </trkpt>
      <trkpt lat="50.00754" lon="4.34028">
        <ele>300</ele>
        <time>2020-06-24T18:34:19Z</time>
      </trkpt>
      <trkpt lat="50.00753" lon="4.34028">
        <ele>300.1</ele>
        <time>2020-06-24T18:34:20Z</time>
      </trkpt>
      <trkpt lat="50.0075" lon="4.3403">
        <ele>300.3</ele>
        <time>2020-06-24T18:34:21Z</time>
      </trkpt>
      <trkpt lat="50.00746" lon="4.34032">
        <ele>300.5</ele>
        <time>2020-06-24T18:34:22Z</time>
      </trkpt>
      <trkpt lat="50.00745" lon="4.34033">
        <ele>300.6</ele>
        <time>2020-06-24T18:34:23Z</time>
      </trkpt>
      <trkpt lat="50.00742" lon="4.34035">
        <ele>300.8</ele>
        <time>2020-06-24T18:34:24Z</time>
      </trkpt>
      <trkpt lat="50.00738" lon="4.34037">
        <ele>301.1</ele>
        <time>2020-06-24T18:34:25Z</time>
      </trkpt>
      <trkpt lat="50.00737" lon="4.34037">
        <ele>301.2</ele>
        <time>2020-06-24T18:34:26Z</time>
      </trkpt>
      <trkpt lat="50.00734" lon="4.34039">
        <ele>301.4</ele>
        <time>2020-06-24T18:34:27Z</time>
      </trkpt>
      <trkpt lat="50.0073" lon="4.34042">
        <ele>301.7</ele>
        <time>2020-06-24T18:34:28Z</time>
      </trkpt>
      <trkpt lat="50.00726" lon="4.34043">
        <ele>301.9</ele>
        <time>2020-06-24T18:34:29Z</time>
      </trkpt>
      <trkpt lat="50.00724" lon="4.34043">
        <ele>302.1</ele>
        <time>2020-06-24T18:34:30Z</time>
      </trkpt>
      <trkpt lat="50.0072" lon="4.34045">
        <ele>302.3</ele>
        <time>2020-06-24T18:34:31Z</time>
      </trkpt>
      <trkpt lat="50.00719" lon="4.34046">
        <ele>302.4</ele>
        <time>2020-06-24T18:34:32Z</time>
      </trkpt>
      <trkpt lat="50.00716" lon="4.34048">
        <ele>302.7</ele>
        <time>2020-06-24T18:34:33Z</time>
      </trkpt>
      <trkpt lat="50.00712" lon="4.34051">
        <ele>303</ele>
        <time>2020-06-24T18:34:34Z</time>
      </trkpt>
      <trkpt lat="50.00708" lon="4.34054">
        <ele>303.2</ele>
        <time>2020-06-24T18:34:35Z</time>
      </trkpt>
      <trkpt lat="50.00705" lon="4.34056">
        <ele>303.5</ele>
        <time>2020-06-24T18:34:36Z</time>
      </trkpt>
      <trkpt lat="50.00704" lon="4.34057">
        <ele>303.6</ele>
        <time>2020-06-24T18:34:37Z</time>
      </trkpt>
      <trkpt lat="50.007" lon="4.34058">
        <ele>303.8</ele>
        <time>2020-06-24T18:34:38Z</time>
      </trkpt>
      <trkpt lat="50.00697" lon="4.34058">
        <ele>304</ele>
        <time>2020-06-24T18:34:39Z</time>
      </trkpt>
      <trkpt lat="50.00694" lon="4.34059">
        <ele>304.2</ele>
        <time>2020-06-24T18:34:40Z</time>
      </trkpt>
      <trkpt lat="50.00692" lon="4.3406">
        <ele>304.4</ele>
        <time>2020-06-24T18:34:41Z</time>
      </trkpt>
      <trkpt lat="50.00688" lon="4.34062">
        <ele>304.6</ele>
        <time>2020-06-24T18:34:42Z</time>
      </trkpt>
      <trkpt lat="50.00685" lon="4.34064">
        <ele>304.8</ele>
        <time>2020-06-24T18:34:43Z</time>
      </trkpt>
      <trkpt lat="50.00682" lon="4.34066">
        <ele>305</ele>
        <time>2020-06-24T18:34:44Z</time>
      </trkpt>
      <trkpt lat="50.00679" lon="4.34068">
        <ele>305.2</ele>
        <time>2020-06-24T18:34:45Z</time>
      </trkpt>
      <trkpt lat="50.00675" lon="4.3407">
        <ele>305.5</ele>
        <time>2020-06-24T18:34:46Z</time>
      </trkpt>
      <trkpt lat="50.00671" lon="4.34072">
        <ele>305.8</ele>
        <time>2020-06-24T18:34:47Z</time>
      </trkpt>
      <trkpt lat="50.00666" lon="4.34074">
        <ele>306.1</ele>
        <time>2020-06-24T18:34:48Z</time>
      </trkpt>
      <trkpt lat="50.00663" lon="4.34075">
        <ele>306.3</ele>
        <time>2020-06-24T18:34:49Z</time>
      </trkpt>
      <trkpt lat="50.00661" lon="4.34076">
        <ele>306.5</ele>
        <time>2020-06-24T18:34:50Z</time>
      </trkpt>
      <trkpt lat="50.00657" lon="4.34078">
        <ele>306.8</ele>
        <time>2020-06-24T18:34:51Z</time>
      </trkpt>
      <trkpt lat="50.00653" lon="4.3408">
        <ele>307.1</ele>
        <time>2020-06-24T18:34:52Z</time>
      </trkpt>
      <trkpt lat="50.00649" lon="4.34082">
        <ele>307.4</ele>
        <time>2020-06-24T18:34:53Z</time>
      </trkpt>
      <trkpt lat="50.00646" lon="4.34084">
        <ele>307.7</ele>
        <time>2020-06-24T18:34:54Z</time>
      </trkpt>
      <trkpt lat="50.00642" lon="4.34085">
        <ele>307.9</ele>
        <time>2020-06-24T18:34:55Z</time>
      </trkpt>
      <trkpt lat="50.00638" lon="4.34087">
        <ele>308.2</ele>
        <time>2020-06-24T18:34:56Z</time>
      </trkpt>
      <trkpt lat="50.00634" lon="4.34089">
        <ele>308.5</ele>
        <time>2020-06-24T18:34:57Z</time>
      </trkpt>
      <trkpt lat="50.00631" lon="4.3409">
        <ele>308.7</ele>
        <time>2020-06-24T18:34:58Z</time>
      </trkpt>
      <trkpt lat="50.00628" lon="4.34091">
        <ele>308.9</ele>
        <time>2020-06-24T18:34:59Z</time>
      </trkpt>
      <trkpt lat="50.00625" lon="4.34093">
        <ele>309.1</ele>
        <time>2020-06-24T18:35:00Z</time>
      </trkpt>
      <trkpt lat="50.00624" lon="4.34094">
        <ele>309.1</ele>
        <time>2020-06-24T18:35:01Z</time>
      </trkpt>
      <trkpt lat="50.00621" lon="4.34095">
        <ele>309.3</ele>
        <time>2020-06-24T18:35:02Z</time>
      </trkpt>
      <trkpt lat="50.0062" lon="4.34096">
        <ele>309.4</ele>
        <time>2020-06-24T18:35:03Z</time>
      </trkpt>
      <trkpt lat="50.00616" lon="4.34098">
        <ele>309.6</ele>
        <time>2020-06-24T18:35:04Z</time>
      </trkpt>
      <trkpt lat="50.00614" lon="4.34099">
        <ele>309.7</ele>
        <time>2020-06-24T18:35:05Z</time>
      </trkpt>
      <trkpt lat="50.00611" lon="4.34102">
        <ele>310</ele>
        <time>2020-06-24T18:35:06Z</time>
      </trkpt>
      <trkpt lat="50.00607" lon="4.34104">
        <ele>310.1</ele>
        <time>2020-06-24T18:35:07Z</time>
      </trkpt>
      <trkpt lat="50.00604" lon="4.34106">
        <ele>310.4</ele>
        <time>2020-06-24T18:35:08Z</time>
      </trkpt>
      <trkpt lat="50.00602" lon="4.34107">
        <ele>310.4</ele>
        <time>2020-06-24T18:35:09Z</time>
      </trkpt>
      <trkpt lat="50.00601" lon="4.34107">
        <ele>310.5</ele>
        <time>2020-06-24T18:35:10Z</time>
      </trkpt>
      <trkpt lat="50.006" lon="4.34108">
        <ele>310.6</ele>
        <time>2020-06-24T18:35:11Z</time>
      </trkpt>
      <trkpt lat="50.00598" lon="4.34109">
        <ele>310.7</ele>
        <time>2020-06-24T18:35:12Z</time>
      </trkpt>
      <trkpt lat="50.00596" lon="4.3411">
        <ele>310.8</ele>
        <time>2020-06-24T18:35:13Z</time>
      </trkpt>
      <trkpt lat="50.00593" lon="4.34112">
        <ele>311</ele>
        <time>2020-06-24T18:35:14Z</time>
      </trkpt>
      <trkpt lat="50.00591" lon="4.34113">
        <ele>311.1</ele>
        <time>2020-06-24T18:35:15Z</time>
      </trkpt>
      <trkpt lat="50.00588" lon="4.34115">
        <ele>311.2</ele>
        <time>2020-06-24T18:35:16Z</time>
      </trkpt>
      <trkpt lat="50.00584" lon="4.34117">
        <ele>311.5</ele>
        <time>2020-06-24T18:35:17Z</time>
      </trkpt>
      <trkpt lat="50.00582" lon="4.34117">
        <ele>311.6</ele>
        <time>2020-06-24T18:35:18Z</time>
      </trkpt>
      <trkpt lat="50.00578" lon="4.34119">
        <ele>311.8</ele>
        <time>2020-06-24T18:35:19Z</time>
      </trkpt>
      <trkpt lat="50.00575" lon="4.34121">
        <ele>312</ele>
        <time>2020-06-24T18:35:20Z</time>
      </trkpt>
      <trkpt lat="50.00572" lon="4.34123">
        <ele>312.1</ele>
        <time>2020-06-24T18:35:21Z</time>
      </trkpt>
      <trkpt lat="50.00567" lon="4.34125">
        <ele>312.4</ele>
        <time>2020-06-24T18:35:22Z</time>
      </trkpt>
      <trkpt lat="50.00565" lon="4.34126">
        <ele>312.4</ele>
        <time>2020-06-24T18:35:23Z</time>
      </trkpt>
      <trkpt lat="50.00562" lon="4.34127">
        <ele>312.6</ele>
        <time>2020-06-24T18:35:24Z</time>
      </trkpt>
      <trkpt lat="50.00559" lon="4.34128">
        <ele>312.7</ele>
        <time>2020-06-24T18:35:25Z</time>
      </trkpt>
      <trkpt lat="50.00556" lon="4.34129">
        <ele>312.9</ele>
        <time>2020-06-24T18:35:26Z</time>
      </trkpt>
      <trkpt lat="50.00554" lon="4.3413">
        <ele>313</ele>
        <time>2020-06-24T18:35:27Z</time>
      </trkpt>
      <trkpt lat="50.00551" lon="4.34132">
        <ele>313.2</ele>
        <time>2020-06-24T18:35:28Z</time>
      </trkpt>
      <trkpt lat="50.00547" lon="4.34134">
        <ele>313.3</ele>
        <time>2020-06-24T18:35:29Z</time>
      </trkpt>
      <trkpt lat="50.00545" lon="4.34135">
        <ele>313.5</ele>
        <time>2020-06-24T18:35:30Z</time>
      </trkpt>
      <trkpt lat="50.00542" lon="4.34136">
        <ele>313.6</ele>
        <time>2020-06-24T18:35:31Z</time>
      </trkpt>
      <trkpt lat="50.00541" lon="4.34137">
        <ele>313.7</ele>
        <time>2020-06-24T18:35:32Z</time>
      </trkpt>
      <trkpt lat="50.00537" lon="4.34139">
        <ele>313.8</ele>
        <time>2020-06-24T18:35:33Z</time>
      </trkpt>
      <trkpt lat="50.00536" lon="4.34139">
        <ele>313.9</ele>
        <time>2020-06-24T18:35:34Z</time>
      </trkpt>
      <trkpt lat="50.00533" lon="4.34141">
        <ele>314</ele>
        <time>2020-06-24T18:35:35Z</time>
      </trkpt>
      <trkpt lat="50.00531" lon="4.34142">
        <ele>314.1</ele>
        <time>2020-06-24T18:35:36Z</time>
      </trkpt>
      <trkpt lat="50.00527" lon="4.34144">
        <ele>314.3</ele>
        <time>2020-06-24T18:35:37Z</time>
      </trkpt>
      <trkpt lat="50.00525" lon="4.34145">
        <ele>314.4</ele>
        <time>2020-06-24T18:35:38Z</time>
      </trkpt>
      <trkpt lat="50.00522" lon="4.34147">
        <ele>314.5</ele>
        <time>2020-06-24T18:35:39Z</time>
      </trkpt>
      <trkpt lat="50.00518" lon="4.34147">
        <ele>314.7</ele>
        <time>2020-06-24T18:35:40Z</time>
      </trkpt>
      <trkpt lat="50.00517" lon="4.34148">
        <ele>314.7</ele>
        <time>2020-06-24T18:35:41Z</time>
      </trkpt>
      <trkpt lat="50.00514" lon="4.34148">
        <ele>314.9</ele>
        <time>2020-06-24T18:35:42Z</time>
      </trkpt>
      <trkpt lat="50.00511" lon="4.34149">
        <ele>315</ele>
        <time>2020-06-24T18:35:43Z</time>
      </trkpt>
      <trkpt lat="50.00507" lon="4.3415">
        <ele>315.2</ele>
        <time>2020-06-24T18:35:44Z</time>
      </trkpt>
      <trkpt lat="50.00503" lon="4.34151">
        <ele>315.3</ele>
        <time>2020-06-24T18:35:45Z</time>
      </trkpt>
      <trkpt lat="50.00499" lon="4.34152">
        <ele>315.4</ele>
        <time>2020-06-24T18:35:46Z</time>
      </trkpt>
      <trkpt lat="50.00496" lon="4.34152">
        <ele>315.6</ele>
        <time>2020-06-24T18:35:47Z</time>
      </trkpt>
      <trkpt lat="50.00493" lon="4.34152">
        <ele>315.7</ele>
        <time>2020-06-24T18:35:48Z</time>
      </trkpt>
      <trkpt lat="50.0049" lon="4.34152">
        <ele>315.8</ele>
        <time>2020-06-24T18:35:49Z</time>
      </trkpt>
      <trkpt lat="50.00486" lon="4.34152">
        <ele>315.9</ele>
        <time>2020-06-24T18:35:50Z</time>
      </trkpt>
      <trkpt lat="50.00482" lon="4.34153">
        <ele>316</ele>
        <time>2020-06-24T18:35:51Z</time>
      </trkpt>
      <trkpt lat="50.00477" lon="4.34154">
        <ele>316.2</ele>
        <time>2020-06-24T18:35:52Z</time>
      </trkpt>
      <trkpt lat="50.00475" lon="4.34154">
        <ele>316.3</ele>
        <time>2020-06-24T18:35:53Z</time>
      </trkpt>
      <trkpt lat="50.0047" lon="4.34154">
        <ele>316.4</ele>
        <time>2020-06-24T18:35:54Z</time>
      </trkpt>
      <trkpt lat="50.00468" lon="4.34153">
        <ele>316.4</ele>
        <time>2020-06-24T18:35:55Z</time>
      </trkpt>
      <trkpt lat="50.00465" lon="4.34153">
        <ele>316.5</ele>
        <time>2020-06-24T18:35:56Z</time>
      </trkpt>
      <trkpt lat="50.00462" lon="4.34152">
        <ele>316.6</ele>
        <time>2020-06-24T18:35:57Z</time>
      </trkpt>
      <trkpt lat="50.00459" lon="4.34152">
        <ele>316.7</ele>
        <time>2020-06-24T18:35:58Z</time>
      </trkpt>
      <trkpt lat="50.00455" lon="4.34153">
        <ele>316.9</ele>
        <time>2020-06-24T18:35:59Z</time>
      </trkpt>
      <trkpt lat="50.00452" lon="4.34153">
        <ele>316.9</ele>
        <time>2020-06-24T18:36:00Z</time>
      </trkpt>
      <trkpt lat="50.00447" lon="4.34154">
        <ele>317.1</ele>
        <time>2020-06-24T18:36:01Z</time>
      </trkpt>
      <trkpt lat="50.00445" lon="4.34154">
        <ele>317.1</ele>
        <time>2020-06-24T18:36:02Z</time>
      </trkpt>
      <trkpt lat="50.00441" lon="4.34154">
        <ele>317.2</ele>
        <time>2020-06-24T18:36:03Z</time>
      </trkpt>
      <trkpt lat="50.00439" lon="4.34154">
        <ele>317.3</ele>
        <time>2020-06-24T18:36:04Z</time>
      </trkpt>
      <trkpt lat="50.00435" lon="4.34154">
        <ele>317.3</ele>
        <time>2020-06-24T18:36:05Z</time>
      </trkpt>
      <trkpt lat="50.00434" lon="4.34154">
        <ele>317.4</ele>
        <time>2020-06-24T18:36:06Z</time>
      </trkpt>
      <trkpt lat="50.00431" lon="4.34155">
        <ele>317.4</ele>
        <time>2020-06-24T18:36:07Z</time>
      </trkpt>
      <trkpt lat="50.00427" lon="4.34154">
        <ele>317.5</ele>
        <time>2020-06-24T18:36:08Z</time>
      </trkpt>
      <trkpt lat="50.00423" lon="4.34154">
        <ele>317.5</ele>
        <time>2020-06-24T18:36:09Z</time>
      </trkpt>
      <trkpt lat="50.0042" lon="4.34152">
        <ele>317.6</ele>
        <time>2020-06-24T18:36:10Z</time>
      </trkpt>
      <trkpt lat="50.00416" lon="4.3415">
        <ele>317.6</ele>
        <time>2020-06-24T18:36:11Z</time>
      </trkpt>
      <trkpt lat="50.00413" lon="4.34149">
        <ele>317.7</ele>
        <time>2020-06-24T18:36:12Z</time>
      </trkpt>
      <trkpt lat="50.0041" lon="4.34148">
        <ele>317.7</ele>
        <time>2020-06-24T18:36:13Z</time>
      </trkpt>
      <trkpt lat="50.00407" lon="4.34147">
        <ele>317.7</ele>
        <time>2020-06-24T18:36:14Z</time>
      </trkpt>
      <trkpt lat="50.00402" lon="4.34145">
        <ele>317.7</ele>
        <time>2020-06-24T18:36:15Z</time>
      </trkpt>
      <trkpt lat="50.00399" lon="4.34143">
        <ele>317.7</ele>
        <time>2020-06-24T18:36:16Z</time>
      </trkpt>
      <trkpt lat="50.00395" lon="4.3414">
        <ele>317.7</ele>
        <time>2020-06-24T18:36:17Z</time>
      </trkpt>
      <trkpt lat="50.00391" lon="4.34139">
        <ele>317.7</ele>
        <time>2020-06-24T18:36:18Z</time>
      </trkpt>
      <trkpt lat="50.00387" lon="4.34137">
        <ele>317.7</ele>
        <time>2020-06-24T18:36:19Z</time>
      </trkpt>
      <trkpt lat="50.00383" lon="4.34135">
        <ele>317.7</ele>
        <time>2020-06-24T18:36:20Z</time>
      </trkpt>
      <trkpt lat="50.0038" lon="4.34132">
        <ele>317.7</ele>
        <time>2020-06-24T18:36:21Z</time>
      </trkpt>
      <trkpt lat="50.00378" lon="4.3413">
        <ele>317.7</ele>
        <time>2020-06-24T18:36:22Z</time>
      </trkpt>
      <trkpt lat="50.00374" lon="4.34128">
        <ele>317.6</ele>
        <time>2020-06-24T18:36:23Z</time>
      </trkpt>
      <trkpt lat="50.00372" lon="4.34126">
        <ele>317.6</ele>
        <time>2020-06-24T18:36:24Z</time>
      </trkpt>
      <trkpt lat="50.00368" lon="4.34124">
        <ele>317.6</ele>
        <time>2020-06-24T18:36:25Z</time>
      </trkpt>
      <trkpt lat="50.00366" lon="4.34121">
        <ele>317.5</ele>
        <time>2020-06-24T18:36:26Z</time>
      </trkpt>
      <trkpt lat="50.00362" lon="4.34119">
        <ele>317.5</ele>
        <time>2020-06-24T18:36:27Z</time>
      </trkpt>
      <trkpt lat="50.00359" lon="4.34115">
        <ele>317.5</ele>
        <time>2020-06-24T18:36:28Z</time>
      </trkpt>
      <trkpt lat="50.00355" lon="4.34113">
        <ele>317.4</ele>
        <time>2020-06-24T18:36:29Z</time>
      </trkpt>
      <trkpt lat="50.00351" lon="4.34111">
        <ele>317.4</ele>
        <time>2020-06-24T18:36:30Z</time>
      </trkpt>
      <trkpt lat="50.00347" lon="4.34108">
        <ele>317.3</ele>
        <time>2020-06-24T18:36:31Z</time>
      </trkpt>
      <trkpt lat="50.00342" lon="4.34105">
        <ele>317.3</ele>
        <time>2020-06-24T18:36:32Z</time>
      </trkpt>
      <trkpt lat="50.00338" lon="4.34102">
        <ele>317.2</ele>
        <time>2020-06-24T18:36:33Z</time>
      </trkpt>
      <trkpt lat="50.00334" lon="4.34099">
        <ele>317.2</ele>
        <time>2020-06-24T18:36:34Z</time>
      </trkpt>
      <trkpt lat="50.0033" lon="4.34095">
        <ele>317.1</ele>
        <time>2020-06-24T18:36:35Z</time>
      </trkpt>
      <trkpt lat="50.00327" lon="4.34092">
        <ele>317</ele>
        <time>2020-06-24T18:36:36Z</time>
      </trkpt>
      <trkpt lat="50.00323" lon="4.34088">
        <ele>316.9</ele>
        <time>2020-06-24T18:36:37Z</time>
      </trkpt>
      <trkpt lat="50.00319" lon="4.34085">
        <ele>316.8</ele>
        <time>2020-06-24T18:36:38Z</time>
      </trkpt>
      <trkpt lat="50.00314" lon="4.34082">
        <ele>316.7</ele>
        <time>2020-06-24T18:36:39Z</time>
      </trkpt>
      <trkpt lat="50.00309" lon="4.34078">
        <ele>316.6</ele>
        <time>2020-06-24T18:36:40Z</time>
      </trkpt>
      <trkpt lat="50.00305" lon="4.34074">
        <ele>316.4</ele>
        <time>2020-06-24T18:36:41Z</time>
      </trkpt>
      <trkpt lat="50.003" lon="4.3407">
        <ele>316.3</ele>
        <time>2020-06-24T18:36:42Z</time>
      </trkpt>
      <trkpt lat="50.00296" lon="4.34067">
        <ele>316.2</ele>
        <time>2020-06-24T18:36:43Z</time>
      </trkpt>
      <trkpt lat="50.00291" lon="4.34064">
        <ele>316</ele>
        <time>2020-06-24T18:36:44Z</time>
      </trkpt>
      <trkpt lat="50.00287" lon="4.34061">
        <ele>315.9</ele>
        <time>2020-06-24T18:36:45Z</time>
      </trkpt>
      <trkpt lat="50.00282" lon="4.34058">
        <ele>315.8</ele>
        <time>2020-06-24T18:36:46Z</time>
      </trkpt>
      <trkpt lat="50.00278" lon="4.34054">
        <ele>315.6</ele>
        <time>2020-06-24T18:36:47Z</time>
      </trkpt>
      <trkpt lat="50.00273" lon="4.34051">
        <ele>315.5</ele>
        <time>2020-06-24T18:36:48Z</time>
      </trkpt>
      <trkpt lat="50.00268" lon="4.34048">
        <ele>315.4</ele>
        <time>2020-06-24T18:36:49Z</time>
      </trkpt>
      <trkpt lat="50.00263" lon="4.34044">
        <ele>315.2</ele>
        <time>2020-06-24T18:36:50Z</time>
      </trkpt>
      <trkpt lat="50.00258" lon="4.3404">
        <ele>315.1</ele>
        <time>2020-06-24T18:36:51Z</time>
      </trkpt>
      <trkpt lat="50.00253" lon="4.34036">
        <ele>314.9</ele>
        <time>2020-06-24T18:36:52Z</time>
      </trkpt>
      <trkpt lat="50.00248" lon="4.34032">
        <ele>314.7</ele>
        <time>2020-06-24T18:36:53Z</time>
      </trkpt>
      <trkpt lat="50.00243" lon="4.34029">
        <ele>314.6</ele>
        <time>2020-06-24T18:36:54Z</time>
      </trkpt>
      <trkpt lat="50.00238" lon="4.34025">
        <ele>314.4</ele>
        <time>2020-06-24T18:36:55Z</time>
      </trkpt>
      <trkpt lat="50.00232" lon="4.34022">
        <ele>314.2</ele>
        <time>2020-06-24T18:36:56Z</time>
      </trkpt>
      <trkpt lat="50.00227" lon="4.34018">
        <ele>314</ele>
        <time>2020-06-24T18:36:57Z</time>
      </trkpt>
      <trkpt lat="50.00221" lon="4.34013">
        <ele>313.8</ele>
        <time>2020-06-24T18:36:58Z</time>
      </trkpt>
      <trkpt lat="50.00216" lon="4.34009">
        <ele>313.6</ele>
        <time>2020-06-24T18:36:59Z</time>
      </trkpt>
      <trkpt lat="50.0021" lon="4.34005">
        <ele>313.4</ele>
        <time>2020-06-24T18:37:00Z</time>
      </trkpt>
      <trkpt lat="50.00204" lon="4.34001">
        <ele>313.2</ele>
        <time>2020-06-24T18:37:01Z</time>
      </trkpt>
      <trkpt lat="50.00198" lon="4.33996">
        <ele>313</ele>
        <time>2020-06-24T18:37:02Z</time>
      </trkpt>
      <trkpt lat="50.00193" lon="4.33992">
        <ele>312.8</ele>
        <time>2020-06-24T18:37:03Z</time>
      </trkpt>
      <trkpt lat="50.00187" lon="4.33988">
        <ele>312.6</ele>
        <time>2020-06-24T18:37:04Z</time>
      </trkpt>
      <trkpt lat="50.00181" lon="4.33984">
        <ele>312.4</ele>
        <time>2020-06-24T18:37:05Z</time>
      </trkpt>
      <trkpt lat="50.00176" lon="4.33979">
        <ele>312.1</ele>
        <time>2020-06-24T18:37:06Z</time>
      </trkpt>
      <trkpt lat="50.00169" lon="4.33974">
        <ele>311.8</ele>
        <time>2020-06-24T18:37:07Z</time>
      </trkpt>
      <trkpt lat="50.00163" lon="4.3397">
        <ele>311.5</ele>
        <time>2020-06-24T18:37:08Z</time>
      </trkpt>
      <trkpt lat="50.00158" lon="4.33965">
        <ele>311.3</ele>
        <time>2020-06-24T18:37:09Z</time>
      </trkpt>
      <trkpt lat="50.00151" lon="4.33961">
        <ele>311</ele>
        <time>2020-06-24T18:37:10Z</time>
      </trkpt>
      <trkpt lat="50.00145" lon="4.33956">
        <ele>310.7</ele>
        <time>2020-06-24T18:37:11Z</time>
      </trkpt>
      <trkpt lat="50.00138" lon="4.33952">
        <ele>310.4</ele>
        <time>2020-06-24T18:37:12Z</time>
      </trkpt>
      <trkpt lat="50.00132" lon="4.33947">
        <ele>310</ele>
        <time>2020-06-24T18:37:13Z</time>
      </trkpt>
      <trkpt lat="50.00125" lon="4.33942">
        <ele>309.8</ele>
        <time>2020-06-24T18:37:14Z</time>
      </trkpt>
      <trkpt lat="50.00118" lon="4.33937">
        <ele>309.6</ele>
        <time>2020-06-24T18:37:15Z</time>
      </trkpt>
      <trkpt lat="50.00111" lon="4.33933">
        <ele>309.3</ele>
        <time>2020-06-24T18:37:16Z</time>
      </trkpt>
      <trkpt lat="50.00104" lon="4.33928">
        <ele>309.1</ele>
        <time>2020-06-24T18:37:17Z</time>
      </trkpt>
      <trkpt lat="50.00097" lon="4.33923">
        <ele>308.8</ele>
        <time>2020-06-24T18:37:18Z</time>
      </trkpt>
      <trkpt lat="50.00089" lon="4.33919">
        <ele>308.4</ele>
        <time>2020-06-24T18:37:19Z</time>
      </trkpt>
      <trkpt lat="50.00082" lon="4.33913">
        <ele>308</ele>
        <time>2020-06-24T18:37:20Z</time>
      </trkpt>
      <trkpt lat="50.00074" lon="4.33907">
        <ele>307.7</ele>
        <time>2020-06-24T18:37:21Z</time>
      </trkpt>
      <trkpt lat="50.00066" lon="4.339">
        <ele>307.3</ele>
        <time>2020-06-24T18:37:22Z</time>
      </trkpt>
      <trkpt lat="50.00058" lon="4.33893">
        <ele>307</ele>
        <time>2020-06-24T18:37:23Z</time>
      </trkpt>
      <trkpt lat="50.0005" lon="4.33886">
        <ele>306.7</ele>
        <time>2020-06-24T18:37:24Z</time>
      </trkpt>
      <trkpt lat="50.00042" lon="4.3388">
        <ele>306.4</ele>
        <time>2020-06-24T18:37:25Z</time>
      </trkpt>
      <trkpt lat="50.00034" lon="4.33874">
        <ele>306</ele>
        <time>2020-06-24T18:37:26Z</time>
      </trkpt>
      <trkpt lat="50.00026" lon="4.33869">
        <ele>305.6</ele>
        <time>2020-06-24T18:37:27Z</time>
      </trkpt>
      <trkpt lat="50.00018" lon="4.33863">
        <ele>305.3</ele>
        <time>2020-06-24T18:37:28Z</time>
      </trkpt>
      <trkpt lat="50.00011" lon="4.33857">
        <ele>305</ele>
        <time>2020-06-24T18:37:29Z</time>
      </trkpt>
      <trkpt lat="50.00003" lon="4.33851">
        <ele>304.6</ele>
        <time>2020-06-24T18:37:30Z</time>
      </trkpt>
      <trkpt lat="49.99995" lon="4.33845">
        <ele>304.3</ele>
        <time>2020-06-24T18:37:31Z</time>
      </trkpt>
      <trkpt lat="49.99987" lon="4.3384">
        <ele>304</ele>
        <time>2020-06-24T18:37:32Z</time>
      </trkpt>
      <trkpt lat="49.9998" lon="4.33834">
        <ele>303.7</ele>
        <time>2020-06-24T18:37:33Z</time>
      </trkpt>
      <trkpt lat="49.99972" lon="4.33828">
        <ele>303.4</ele>
        <time>2020-06-24T18:37:34Z</time>
      </trkpt>
      <trkpt lat="49.99965" lon="4.33823">
        <ele>303.2</ele>
        <time>2020-06-24T18:37:35Z</time>
      </trkpt>
      <trkpt lat="49.99957" lon="4.33818">
        <ele>303</ele>
        <time>2020-06-24T18:37:36Z</time>
      </trkpt>
      <trkpt lat="49.99949" lon="4.33813">
        <ele>302.7</ele>
        <time>2020-06-24T18:37:37Z</time>
      </trkpt>
      <trkpt lat="49.9994" lon="4.33807">
        <ele>302.4</ele>
        <time>2020-06-24T18:37:38Z</time>
      </trkpt>
      <trkpt lat="49.99932" lon="4.33801">
        <ele>302.2</ele>
        <time>2020-06-24T18:37:39Z</time>
      </trkpt>
      <trkpt lat="49.99924" lon="4.33795">
        <ele>301.9</ele>
        <time>2020-06-24T18:37:40Z</time>
      </trkpt>
      <trkpt lat="49.99916" lon="4.33789">
        <ele>301.7</ele>
        <time>2020-06-24T18:37:41Z</time>
      </trkpt>
      <trkpt lat="49.99909" lon="4.33783">
        <ele>301.5</ele>
        <time>2020-06-24T18:37:42Z</time>
      </trkpt>
      <trkpt lat="49.99902" lon="4.33777">
        <ele>301.3</ele>
        <time>2020-06-24T18:37:43Z</time>
      </trkpt>
      <trkpt lat="49.99894" lon="4.33771">
        <ele>301.1</ele>
        <time>2020-06-24T18:37:44Z</time>
      </trkpt>
      <trkpt lat="49.99885" lon="4.33765">
        <ele>300.9</ele>
        <time>2020-06-24T18:37:45Z</time>
      </trkpt>
      <trkpt lat="49.99877" lon="4.33759">
        <ele>300.7</ele>
        <time>2020-06-24T18:37:46Z</time>
      </trkpt>
      <trkpt lat="49.99869" lon="4.33752">
        <ele>300.5</ele>
        <time>2020-06-24T18:37:47Z</time>
      </trkpt>
      <trkpt lat="49.99862" lon="4.33747">
        <ele>300.3</ele>
        <time>2020-06-24T18:37:48Z</time>
      </trkpt>
      <trkpt lat="49.99855" lon="4.33741">
        <ele>300.1</ele>
        <time>2020-06-24T18:37:49Z</time>
      </trkpt>
      <trkpt lat="49.99847" lon="4.33736">
        <ele>300</ele>
        <time>2020-06-24T18:37:50Z</time>
      </trkpt>
      <trkpt lat="49.9984" lon="4.3373">
        <ele>299.8</ele>
        <time>2020-06-24T18:37:51Z</time>
      </trkpt>
      <trkpt lat="49.99833" lon="4.33725">
        <ele>299.7</ele>
        <time>2020-06-24T18:37:52Z</time>
      </trkpt>
      <trkpt lat="49.99827" lon="4.3372">
        <ele>299.6</ele>
        <time>2020-06-24T18:37:53Z</time>
      </trkpt>
      <trkpt lat="49.9982" lon="4.33714">
        <ele>299.5</ele>
        <time>2020-06-24T18:37:54Z</time>
      </trkpt>
      <trkpt lat="49.99813" lon="4.33708">
        <ele>299.5</ele>
        <time>2020-06-24T18:37:55Z</time>
      </trkpt>
      <trkpt lat="49.99807" lon="4.33703">
        <ele>299.4</ele>
        <time>2020-06-24T18:37:56Z</time>
      </trkpt>
      <trkpt lat="49.99801" lon="4.33699">
        <ele>299.3</ele>
        <time>2020-06-24T18:37:57Z</time>
      </trkpt>
      <trkpt lat="49.99795" lon="4.33694">
        <ele>299.2</ele>
        <time>2020-06-24T18:37:58Z</time>
      </trkpt>
      <trkpt lat="49.99789" lon="4.3369">
        <ele>299.1</ele>
        <time>2020-06-24T18:37:59Z</time>
      </trkpt>
      <trkpt lat="49.99783" lon="4.33686">
        <ele>299.1</ele>
        <time>2020-06-24T18:38:00Z</time>
      </trkpt>
      <trkpt lat="49.99778" lon="4.33682">
        <ele>299</ele>
        <time>2020-06-24T18:38:01Z</time>
      </trkpt>
      <trkpt lat="49.99771" lon="4.33677">
        <ele>299</ele>
        <time>2020-06-24T18:38:02Z</time>
      </trkpt>
      <trkpt lat="49.99766" lon="4.33673">
        <ele>298.9</ele>
        <time>2020-06-24T18:38:03Z</time>
      </trkpt>
      <trkpt lat="49.9976" lon="4.3367">
        <ele>298.8</ele>
        <time>2020-06-24T18:38:04Z</time>
      </trkpt>
      <trkpt lat="49.99753" lon="4.33666">
        <ele>298.7</ele>
        <time>2020-06-24T18:38:05Z</time>
      </trkpt>
      <trkpt lat="49.99747" lon="4.33662">
        <ele>298.6</ele>
        <time>2020-06-24T18:38:06Z</time>
      </trkpt>
      <trkpt lat="49.99741" lon="4.33658">
        <ele>298.6</ele>
        <time>2020-06-24T18:38:07Z</time>
      </trkpt>
      <trkpt lat="49.99735" lon="4.33655">
        <ele>298.5</ele>
        <time>2020-06-24T18:38:08Z</time>
      </trkpt>
      <trkpt lat="49.99729" lon="4.33652">
        <ele>298.5</ele>
        <time>2020-06-24T18:38:09Z</time>
      </trkpt>
      <trkpt lat="49.99723" lon="4.33649">
        <ele>298.4</ele>
        <time>2020-06-24T18:38:10Z</time>
      </trkpt>
      <trkpt lat="49.99716" lon="4.33647">
        <ele>298.4</ele>
        <time>2020-06-24T18:38:11Z</time>
      </trkpt>
      <trkpt lat="49.9971" lon="4.33644">
        <ele>298.3</ele>
        <time>2020-06-24T18:38:12Z</time>
      </trkpt>
      <trkpt lat="49.99704" lon="4.33642">
        <ele>298.3</ele>
        <time>2020-06-24T18:38:13Z</time>
      </trkpt>
      <trkpt lat="49.99697" lon="4.33639">
        <ele>298.2</ele>
        <time>2020-06-24T18:38:14Z</time>
      </trkpt>
      <trkpt lat="49.99692" lon="4.33637">
        <ele>298.2</ele>
        <time>2020-06-24T18:38:15Z</time>
      </trkpt>
      <trkpt lat="49.99687" lon="4.33636">
        <ele>298.1</ele>
        <time>2020-06-24T18:38:16Z</time>
      </trkpt>
      <trkpt lat="49.99681" lon="4.33635">
        <ele>298.1</ele>
        <time>2020-06-24T18:38:17Z</time>
      </trkpt>
      <trkpt lat="49.99676" lon="4.33633">
        <ele>298.1</ele>
        <time>2020-06-24T18:38:18Z</time>
      </trkpt>
      <trkpt lat="49.99671" lon="4.33632">
        <ele>298</ele>
        <time>2020-06-24T18:38:19Z</time>
      </trkpt>
      <trkpt lat="49.99666" lon="4.33631">
        <ele>298</ele>
        <time>2020-06-24T18:38:20Z</time>
      </trkpt>
      <trkpt lat="49.9966" lon="4.3363">
        <ele>298</ele>
        <time>2020-06-24T18:38:21Z</time>
      </trkpt>
      <trkpt lat="49.99654" lon="4.33629">
        <ele>298</ele>
        <time>2020-06-24T18:38:22Z</time>
      </trkpt>
      <trkpt lat="49.99649" lon="4.33629">
        <ele>298</ele>
        <time>2020-06-24T18:38:23Z</time>
      </trkpt>
      <trkpt lat="49.99645" lon="4.33628">
        <ele>298</ele>
        <time>2020-06-24T18:38:24Z</time>
      </trkpt>
      <trkpt lat="49.9964" lon="4.33628">
        <ele>298</ele>
        <time>2020-06-24T18:38:25Z</time>
      </trkpt>
      <trkpt lat="49.99634" lon="4.33628">
        <ele>298</ele>
        <time>2020-06-24T18:38:26Z</time>
      </trkpt>
      <trkpt lat="49.99629" lon="4.33628">
        <ele>298.1</ele>
        <time>2020-06-24T18:38:27Z</time>
      </trkpt>
      <trkpt lat="49.99624" lon="4.33627">
        <ele>298.2</ele>
        <time>2020-06-24T18:38:28Z</time>
      </trkpt>
      <trkpt lat="49.9962" lon="4.33627">
        <ele>298.2</ele>
        <time>2020-06-24T18:38:29Z</time>
      </trkpt>
      <trkpt lat="49.99614" lon="4.33627">
        <ele>298.3</ele>
        <time>2020-06-24T18:38:30Z</time>
      </trkpt>
      <trkpt lat="49.99609" lon="4.33628">
        <ele>298.4</ele>
        <time>2020-06-24T18:38:31Z</time>
      </trkpt>
      <trkpt lat="49.99603" lon="4.33628">
        <ele>298.5</ele>
        <time>2020-06-24T18:38:32Z</time>
      </trkpt>
      <trkpt lat="49.99598" lon="4.33628">
        <ele>298.6</ele>
        <time>2020-06-24T18:38:33Z</time>
      </trkpt>
      <trkpt lat="49.99593" lon="4.33629">
        <ele>298.8</ele>
        <time>2020-06-24T18:38:34Z</time>
      </trkpt>
      <trkpt lat="49.99588" lon="4.3363">
        <ele>298.9</ele>
        <time>2020-06-24T18:38:35Z</time>
      </trkpt>
      <trkpt lat="49.99583" lon="4.3363">
        <ele>299.1</ele>
        <time>2020-06-24T18:38:36Z</time>
      </trkpt>
      <trkpt lat="49.99577" lon="4.33632">
        <ele>299.3</ele>
        <time>2020-06-24T18:38:37Z</time>
      </trkpt>
      <trkpt lat="49.99572" lon="4.33633">
        <ele>299.4</ele>
        <time>2020-06-24T18:38:38Z</time>
      </trkpt>
      <trkpt lat="49.99567" lon="4.33635">
        <ele>299.6</ele>
        <time>2020-06-24T18:38:39Z</time>
      </trkpt>
      <trkpt lat="49.99561" lon="4.33636">
        <ele>299.8</ele>
        <time>2020-06-24T18:38:40Z</time>
      </trkpt>
      <trkpt lat="49.99557" lon="4.33637">
        <ele>299.9</ele>
        <time>2020-06-24T18:38:41Z</time>
      </trkpt>
      <trkpt lat="49.99552" lon="4.33639">
        <ele>300.1</ele>
        <time>2020-06-24T18:38:42Z</time>
      </trkpt>
      <trkpt lat="49.99548" lon="4.33641">
        <ele>300.2</ele>
        <time>2020-06-24T18:38:43Z</time>
      </trkpt>
      <trkpt lat="49.99543" lon="4.33643">
        <ele>300.4</ele>
        <time>2020-06-24T18:38:44Z</time>
      </trkpt>
      <trkpt lat="49.99538" lon="4.33644">
        <ele>300.6</ele>
        <time>2020-06-24T18:38:45Z</time>
      </trkpt>
      <trkpt lat="49.99533" lon="4.33646">
        <ele>300.8</ele>
        <time>2020-06-24T18:38:46Z</time>
      </trkpt>
      <trkpt lat="49.99528" lon="4.33648">
        <ele>300.9</ele>
        <time>2020-06-24T18:38:47Z</time>
      </trkpt>
      <trkpt lat="49.99524" lon="4.33649">
        <ele>301.1</ele>
        <time>2020-06-24T18:38:48Z</time>
      </trkpt>
      <trkpt lat="49.99519" lon="4.33651">
        <ele>301.3</ele>
        <time>2020-06-24T18:38:49Z</time>
      </trkpt>
      <trkpt lat="49.99513" lon="4.33653">
        <ele>301.6</ele>
        <time>2020-06-24T18:38:50Z</time>
      </trkpt>
      <trkpt lat="49.99508" lon="4.33655">
        <ele>301.8</ele>
        <time>2020-06-24T18:38:51Z</time>
      </trkpt>
      <trkpt lat="49.99504" lon="4.33656">
        <ele>302</ele>
        <time>2020-06-24T18:38:52Z</time>
      </trkpt>
      <trkpt lat="49.99499" lon="4.33658">
        <ele>302.2</ele>
        <time>2020-06-24T18:38:53Z</time>
      </trkpt>
      <trkpt lat="49.99495" lon="4.33659">
        <ele>302.5</ele>
        <time>2020-06-24T18:38:54Z</time>
      </trkpt>
      <trkpt lat="49.99491" lon="4.33661">
        <ele>302.6</ele>
        <time>2020-06-24T18:38:55Z</time>
      </trkpt>
      <trkpt lat="49.99487" lon="4.33662">
        <ele>302.8</ele>
        <time>2020-06-24T18:38:56Z</time>
      </trkpt>
      <trkpt lat="49.99483" lon="4.33663">
        <ele>302.9</ele>
        <time>2020-06-24T18:38:57Z</time>
      </trkpt>
      <trkpt lat="49.99478" lon="4.33665">
        <ele>303.1</ele>
        <time>2020-06-24T18:38:58Z</time>
      </trkpt>
      <trkpt lat="49.99473" lon="4.33667">
        <ele>303.3</ele>
        <time>2020-06-24T18:38:59Z</time>
      </trkpt>
      <trkpt lat="49.99469" lon="4.33669">
        <ele>303.5</ele>
        <time>2020-06-24T18:39:00Z</time>
      </trkpt>
      <trkpt lat="49.99465" lon="4.3367">
        <ele>303.7</ele>
        <time>2020-06-24T18:39:01Z</time>
      </trkpt>
      <trkpt lat="49.99462" lon="4.33671">
        <ele>303.8</ele>
        <time>2020-06-24T18:39:02Z</time>
      </trkpt>
      <trkpt lat="49.99457" lon="4.33672">
        <ele>304</ele>
        <time>2020-06-24T18:39:03Z</time>
      </trkpt>
      <trkpt lat="49.99453" lon="4.33673">
        <ele>304.2</ele>
        <time>2020-06-24T18:39:04Z</time>
      </trkpt>
      <trkpt lat="49.99449" lon="4.33674">
        <ele>304.4</ele>
        <time>2020-06-24T18:39:05Z</time>
      </trkpt>
      <trkpt lat="49.99445" lon="4.33675">
        <ele>304.5</ele>
        <time>2020-06-24T18:39:06Z</time>
      </trkpt>
      <trkpt lat="49.9944" lon="4.33677">
        <ele>304.7</ele>
        <time>2020-06-24T18:39:07Z</time>
      </trkpt>
      <trkpt lat="49.99435" lon="4.33679">
        <ele>304.9</ele>
        <time>2020-06-24T18:39:08Z</time>
      </trkpt>
      <trkpt lat="49.99431" lon="4.33681">
        <ele>305</ele>
        <time>2020-06-24T18:39:09Z</time>
      </trkpt>
      <trkpt lat="49.99426" lon="4.33682">
        <ele>305.2</ele>
        <time>2020-06-24T18:39:10Z</time>
      </trkpt>
      <trkpt lat="49.99423" lon="4.33683">
        <ele>305.3</ele>
        <time>2020-06-24T18:39:11Z</time>
      </trkpt>
      <trkpt lat="49.99419" lon="4.33684">
        <ele>305.5</ele>
        <time>2020-06-24T18:39:12Z</time>
      </trkpt>
      <trkpt lat="49.99414" lon="4.33686">
        <ele>305.7</ele>
        <time>2020-06-24T18:39:13Z</time>
      </trkpt>
      <trkpt lat="49.99411" lon="4.33687">
        <ele>305.8</ele>
        <time>2020-06-24T18:39:14Z</time>
      </trkpt>
      <trkpt lat="49.99406" lon="4.33688">
        <ele>306</ele>
        <time>2020-06-24T18:39:15Z</time>
      </trkpt>
      <trkpt lat="49.99402" lon="4.3369">
        <ele>306.2</ele>
        <time>2020-06-24T18:39:16Z</time>
      </trkpt>
      <trkpt lat="49.99398" lon="4.33691">
        <ele>306.3</ele>
        <time>2020-06-24T18:39:17Z</time>
      </trkpt>
      <trkpt lat="49.99393" lon="4.33693">
        <ele>306.5</ele>
        <time>2020-06-24T18:39:18Z</time>
      </trkpt>
      <trkpt lat="49.99388" lon="4.33695">
        <ele>306.5</ele>
        <time>2020-06-24T18:39:19Z</time>
      </trkpt>
      <trkpt lat="49.99384" lon="4.33696">
        <ele>306.6</ele>
        <time>2020-06-24T18:39:20Z</time>
      </trkpt>
      <trkpt lat="49.9938" lon="4.33697">
        <ele>306.7</ele>
        <time>2020-06-24T18:39:21Z</time>
      </trkpt>
      <trkpt lat="49.99377" lon="4.33697">
        <ele>306.8</ele>
        <time>2020-06-24T18:39:22Z</time>
      </trkpt>
      <trkpt lat="49.99373" lon="4.33699">
        <ele>306.9</ele>
        <time>2020-06-24T18:39:23Z</time>
      </trkpt>
      <trkpt lat="49.99369" lon="4.33701">
        <ele>307</ele>
        <time>2020-06-24T18:39:24Z</time>
      </trkpt>
      <trkpt lat="49.99365" lon="4.33703">
        <ele>307.1</ele>
        <time>2020-06-24T18:39:25Z</time>
      </trkpt>
      <trkpt lat="49.99361" lon="4.33705">
        <ele>307.2</ele>
        <time>2020-06-24T18:39:26Z</time>
      </trkpt>
      <trkpt lat="49.99357" lon="4.33706">
        <ele>307.3</ele>
        <time>2020-06-24T18:39:27Z</time>
      </trkpt>
      <trkpt lat="49.99353" lon="4.33708">
        <ele>307.4</ele>
        <time>2020-06-24T18:39:28Z</time>
      </trkpt>
      <trkpt lat="49.99349" lon="4.3371">
        <ele>307.5</ele>
        <time>2020-06-24T18:39:29Z</time>
      </trkpt>
      <trkpt lat="49.99345" lon="4.33712">
        <ele>307.7</ele>
        <time>2020-06-24T18:39:30Z</time>
      </trkpt>
      <trkpt lat="49.99341" lon="4.33714">
        <ele>307.8</ele>
        <time>2020-06-24T18:39:31Z</time>
      </trkpt>
      <trkpt lat="49.99338" lon="4.33715">
        <ele>307.9</ele>
        <time>2020-06-24T18:39:32Z</time>
      </trkpt>
      <trkpt lat="49.99334" lon="4.33717">
        <ele>308</ele>
        <time>2020-06-24T18:39:33Z</time>
      </trkpt>
      <trkpt lat="49.9933" lon="4.33718">
        <ele>308.1</ele>
        <time>2020-06-24T18:39:34Z</time>
      </trkpt>
      <trkpt lat="49.99326" lon="4.33719">
        <ele>308.2</ele>
        <time>2020-06-24T18:39:35Z</time>
      </trkpt>
      <trkpt lat="49.99322" lon="4.3372">
        <ele>308.3</ele>
        <time>2020-06-24T18:39:36Z</time>
      </trkpt>
      <trkpt lat="49.99319" lon="4.33721">
        <ele>308.4</ele>
        <time>2020-06-24T18:39:37Z</time>
      </trkpt>
      <trkpt lat="49.99316" lon="4.33721">
        <ele>308.4</ele>
        <time>2020-06-24T18:39:38Z</time>
      </trkpt>
      <trkpt lat="49.99312" lon="4.33721">
        <ele>308.5</ele>
        <time>2020-06-24T18:39:39Z</time>
      </trkpt>
      <trkpt lat="49.99307" lon="4.33722">
        <ele>308.6</ele>
        <time>2020-06-24T18:39:40Z</time>
      </trkpt>
      <trkpt lat="49.99303" lon="4.33724">
        <ele>308.8</ele>
        <time>2020-06-24T18:39:41Z</time>
      </trkpt>
      <trkpt lat="49.99299" lon="4.33725">
        <ele>308.8</ele>
        <time>2020-06-24T18:39:42Z</time>
      </trkpt>
      <trkpt lat="49.99294" lon="4.33727">
        <ele>308.9</ele>
        <time>2020-06-24T18:39:43Z</time>
      </trkpt>
      <trkpt lat="49.9929" lon="4.3373">
        <ele>309</ele>
        <time>2020-06-24T18:39:44Z</time>
      </trkpt>
      <trkpt lat="49.99286" lon="4.33732">
        <ele>309.1</ele>
        <time>2020-06-24T18:39:45Z</time>
      </trkpt>
      <trkpt lat="49.99282" lon="4.33734">
        <ele>309.2</ele>
        <time>2020-06-24T18:39:46Z</time>
      </trkpt>
      <trkpt lat="49.99278" lon="4.33735">
        <ele>309.2</ele>
        <time>2020-06-24T18:39:47Z</time>
      </trkpt>
      <trkpt lat="49.99274" lon="4.33737">
        <ele>309.3</ele>
        <time>2020-06-24T18:39:48Z</time>
      </trkpt>
      <trkpt lat="49.9927" lon="4.33739">
        <ele>309.4</ele>
        <time>2020-06-24T18:39:49Z</time>
      </trkpt>
      <trkpt lat="49.99266" lon="4.33741">
        <ele>309.5</ele>
        <time>2020-06-24T18:39:50Z</time>
      </trkpt>
      <trkpt lat="49.99262" lon="4.33743">
        <ele>309.5</ele>
        <time>2020-06-24T18:39:51Z</time>
      </trkpt>
      <trkpt lat="49.99257" lon="4.33744">
        <ele>309.6</ele>
        <time>2020-06-24T18:39:52Z</time>
      </trkpt>
      <trkpt lat="49.99252" lon="4.33745">
        <ele>309.7</ele>
        <time>2020-06-24T18:39:53Z</time>
      </trkpt>
      <trkpt lat="49.99248" lon="4.33747">
        <ele>309.8</ele>
        <time>2020-06-24T18:39:54Z</time>
      </trkpt>
      <trkpt lat="49.99244" lon="4.33747">
        <ele>309.8</ele>
        <time>2020-06-24T18:39:55Z</time>
      </trkpt>
      <trkpt lat="49.9924" lon="4.33748">
        <ele>309.9</ele>
        <time>2020-06-24T18:39:56Z</time>
      </trkpt>
      <trkpt lat="49.99235" lon="4.33748">
        <ele>309.9</ele>
        <time>2020-06-24T18:39:57Z</time>
      </trkpt>
      <trkpt lat="49.9923" lon="4.33749">
        <ele>310</ele>
        <time>2020-06-24T18:39:58Z</time>
      </trkpt>
      <trkpt lat="49.99225" lon="4.3375">
        <ele>310.1</ele>
        <time>2020-06-24T18:39:59Z</time>
      </trkpt>
      <trkpt lat="49.9922" lon="4.33753">
        <ele>310.1</ele>
        <time>2020-06-24T18:40:00Z</time>
      </trkpt>
      <trkpt lat="49.99215" lon="4.33755">
        <ele>310.2</ele>
        <time>2020-06-24T18:40:01Z</time>
      </trkpt>
      <trkpt lat="49.99211" lon="4.33757">
        <ele>310.2</ele>
        <time>2020-06-24T18:40:02Z</time>
      </trkpt>
      <trkpt lat="49.99207" lon="4.33758">
        <ele>310.3</ele>
        <time>2020-06-24T18:40:03Z</time>
      </trkpt>
      <trkpt lat="49.99202" lon="4.3376">
        <ele>310.3</ele>
        <time>2020-06-24T18:40:04Z</time>
      </trkpt>
      <trkpt lat="49.99197" lon="4.33761">
        <ele>310.4</ele>
        <time>2020-06-24T18:40:05Z</time>
      </trkpt>
      <trkpt lat="49.99192" lon="4.33761">
        <ele>310.4</ele>
        <time>2020-06-24T18:40:06Z</time>
      </trkpt>
      <trkpt lat="49.99188" lon="4.33762">
        <ele>310.5</ele>
        <time>2020-06-24T18:40:07Z</time>
      </trkpt>
      <trkpt lat="49.99183" lon="4.33763">
        <ele>310.6</ele>
        <time>2020-06-24T18:40:08Z</time>
      </trkpt>
      <trkpt lat="49.99178" lon="4.33764">
        <ele>310.6</ele>
        <time>2020-06-24T18:40:09Z</time>
      </trkpt>
      <trkpt lat="49.99174" lon="4.33765">
        <ele>310.7</ele>
        <time>2020-06-24T18:40:10Z</time>
      </trkpt>
      <trkpt lat="49.99169" lon="4.33768">
        <ele>310.7</ele>
        <time>2020-06-24T18:40:11Z</time>
      </trkpt>
      <trkpt lat="49.99164" lon="4.33769">
        <ele>310.8</ele>
        <time>2020-06-24T18:40:12Z</time>
      </trkpt>
      <trkpt lat="49.9916" lon="4.33771">
        <ele>310.9</ele>
        <time>2020-06-24T18:40:13Z</time>
      </trkpt>
      <trkpt lat="49.99155" lon="4.33773">
        <ele>310.9</ele>
        <time>2020-06-24T18:40:14Z</time>
      </trkpt>
      <trkpt lat="49.9915" lon="4.33774">
        <ele>311</ele>
        <time>2020-06-24T18:40:15Z</time>
      </trkpt>
      <trkpt lat="49.99145" lon="4.33777">
        <ele>311.1</ele>
        <time>2020-06-24T18:40:16Z</time>
      </trkpt>
      <trkpt lat="49.99141" lon="4.3378">
        <ele>311.1</ele>
        <time>2020-06-24T18:40:17Z</time>
      </trkpt>
      <trkpt lat="49.99136" lon="4.33783">
        <ele>311.2</ele>
        <time>2020-06-24T18:40:18Z</time>
      </trkpt>
      <trkpt lat="49.9913" lon="4.33786">
        <ele>311.4</ele>
        <time>2020-06-24T18:40:19Z</time>
      </trkpt>
      <trkpt lat="49.99125" lon="4.33789">
        <ele>311.5</ele>
        <time>2020-06-24T18:40:20Z</time>
      </trkpt>
      <trkpt lat="49.99121" lon="4.33793">
        <ele>311.6</ele>
        <time>2020-06-24T18:40:21Z</time>
      </trkpt>
      <trkpt lat="49.99116" lon="4.33796">
        <ele>311.7</ele>
        <time>2020-06-24T18:40:22Z</time>
      </trkpt>
      <trkpt lat="49.99111" lon="4.33799">
        <ele>311.8</ele>
        <time>2020-06-24T18:40:23Z</time>
      </trkpt>
      <trkpt lat="49.99107" lon="4.33802">
        <ele>311.8</ele>
        <time>2020-06-24T18:40:24Z</time>
      </trkpt>
      <trkpt lat="49.99103" lon="4.33804">
        <ele>311.9</ele>
        <time>2020-06-24T18:40:25Z</time>
      </trkpt>
      <trkpt lat="49.99098" lon="4.33808">
        <ele>312</ele>
        <time>2020-06-24T18:40:26Z</time>
      </trkpt>
      <trkpt lat="49.99094" lon="4.33811">
        <ele>312.1</ele>
        <time>2020-06-24T18:40:27Z</time>
      </trkpt>
      <trkpt lat="49.99089" lon="4.33814">
        <ele>312.2</ele>
        <time>2020-06-24T18:40:28Z</time>
      </trkpt>
      <trkpt lat="49.99084" lon="4.33817">
        <ele>312.3</ele>
        <time>2020-06-24T18:40:29Z</time>
      </trkpt>
      <trkpt lat="49.9908" lon="4.3382">
        <ele>312.4</ele>
        <time>2020-06-24T18:40:30Z</time>
      </trkpt>
      <trkpt lat="49.99076" lon="4.33823">
        <ele>312.5</ele>
        <time>2020-06-24T18:40:31Z</time>
      </trkpt>
      <trkpt lat="49.99072" lon="4.33827">
        <ele>312.6</ele>
        <time>2020-06-24T18:40:32Z</time>
      </trkpt>
      <trkpt lat="49.99068" lon="4.33831">
        <ele>312.7</ele>
        <time>2020-06-24T18:40:33Z</time>
      </trkpt>
      <trkpt lat="49.99064" lon="4.33835">
        <ele>312.8</ele>
        <time>2020-06-24T18:40:34Z</time>
      </trkpt>
      <trkpt lat="49.9906" lon="4.33839">
        <ele>312.9</ele>
        <time>2020-06-24T18:40:35Z</time>
      </trkpt>
      <trkpt lat="49.99056" lon="4.33843">
        <ele>313</ele>
        <time>2020-06-24T18:40:36Z</time>
      </trkpt>
      <trkpt lat="49.99053" lon="4.33847">
        <ele>313.1</ele>
        <time>2020-06-24T18:40:37Z</time>
      </trkpt>
      <trkpt lat="49.99049" lon="4.33851">
        <ele>313.2</ele>
        <time>2020-06-24T18:40:38Z</time>
      </trkpt>
      <trkpt lat="49.99045" lon="4.33856">
        <ele>313.3</ele>
        <time>2020-06-24T18:40:39Z</time>
      </trkpt>
      <trkpt lat="49.99042" lon="4.3386">
        <ele>313.5</ele>
        <time>2020-06-24T18:40:40Z</time>
      </trkpt>
      <trkpt lat="49.99039" lon="4.33863">
        <ele>313.6</ele>
        <time>2020-06-24T18:40:41Z</time>
      </trkpt>
      <trkpt lat="49.99035" lon="4.33867">
        <ele>313.7</ele>
        <time>2020-06-24T18:40:42Z</time>
      </trkpt>
      <trkpt lat="49.99032" lon="4.33871">
        <ele>313.8</ele>
        <time>2020-06-24T18:40:43Z</time>
      </trkpt>
      <trkpt lat="49.99028" lon="4.33875">
        <ele>313.9</ele>
        <time>2020-06-24T18:40:44Z</time>
      </trkpt>
      <trkpt lat="49.99025" lon="4.3388">
        <ele>314</ele>
        <time>2020-06-24T18:40:45Z</time>
      </trkpt>
      <trkpt lat="49.99022" lon="4.33885">
        <ele>314.1</ele>
        <time>2020-06-24T18:40:46Z</time>
      </trkpt>
      <trkpt lat="49.99018" lon="4.3389">
        <ele>314.2</ele>
        <time>2020-06-24T18:40:47Z</time>
      </trkpt>
      <trkpt lat="49.99015" lon="4.33895">
        <ele>314.3</ele>
        <time>2020-06-24T18:40:48Z</time>
      </trkpt>
      <trkpt lat="49.99011" lon="4.339">
        <ele>314.4</ele>
        <time>2020-06-24T18:40:49Z</time>
      </trkpt>
      <trkpt lat="49.99008" lon="4.33905">
        <ele>314.4</ele>
        <time>2020-06-24T18:40:50Z</time>
      </trkpt>
      <trkpt lat="49.99005" lon="4.33909">
        <ele>314.5</ele>
        <time>2020-06-24T18:40:51Z</time>
      </trkpt>
      <trkpt lat="49.99002" lon="4.33913">
        <ele>314.5</ele>
        <time>2020-06-24T18:40:52Z</time>
      </trkpt>
      <trkpt lat="49.98999" lon="4.33918">
        <ele>314.6</ele>
        <time>2020-06-24T18:40:53Z</time>
      </trkpt>
      <trkpt lat="49.98996" lon="4.33923">
        <ele>314.7</ele>
        <time>2020-06-24T18:40:54Z</time>
      </trkpt>
      <trkpt lat="49.98993" lon="4.33928">
        <ele>314.7</ele>
        <time>2020-06-24T18:40:55Z</time>
      </trkpt>
      <trkpt lat="49.9899" lon="4.33935">
        <ele>314.7</ele>
        <time>2020-06-24T18:40:56Z</time>
      </trkpt>
      <trkpt lat="49.98987" lon="4.3394">
        <ele>314.7</ele>
        <time>2020-06-24T18:40:57Z</time>
      </trkpt>
      <trkpt lat="49.98983" lon="4.33945">
        <ele>314.7</ele>
        <time>2020-06-24T18:40:58Z</time>
      </trkpt>
      <trkpt lat="49.9898" lon="4.3395">
        <ele>314.7</ele>
        <time>2020-06-24T18:40:59Z</time>
      </trkpt>
      <trkpt lat="49.98976" lon="4.33955">
        <ele>314.7</ele>
        <time>2020-06-24T18:41:00Z</time>
      </trkpt>
      <trkpt lat="49.98972" lon="4.33961">
        <ele>314.7</ele>
        <time>2020-06-24T18:41:01Z</time>
      </trkpt>
      <trkpt lat="49.98969" lon="4.33967">
        <ele>314.8</ele>
        <time>2020-06-24T18:41:02Z</time>
      </trkpt>
      <trkpt lat="49.98965" lon="4.33973">
        <ele>314.8</ele>
        <time>2020-06-24T18:41:03Z</time>
      </trkpt>
      <trkpt lat="49.98961" lon="4.33979">
        <ele>314.8</ele>
        <time>2020-06-24T18:41:04Z</time>
      </trkpt>
      <trkpt lat="49.98957" lon="4.33984">
        <ele>314.9</ele>
        <time>2020-06-24T18:41:05Z</time>
      </trkpt>
      <trkpt lat="49.98954" lon="4.33991">
        <ele>314.9</ele>
        <time>2020-06-24T18:41:06Z</time>
      </trkpt>
      <trkpt lat="49.9895" lon="4.33997">
        <ele>314.9</ele>
        <time>2020-06-24T18:41:07Z</time>
      </trkpt>
      <trkpt lat="49.98947" lon="4.34003">
        <ele>315</ele>
        <time>2020-06-24T18:41:08Z</time>
      </trkpt>
      <trkpt lat="49.98944" lon="4.34009">
        <ele>315</ele>
        <time>2020-06-24T18:41:09Z</time>
      </trkpt>
      <trkpt lat="49.9894" lon="4.34015">
        <ele>315</ele>
        <time>2020-06-24T18:41:10Z</time>
      </trkpt>
      <trkpt lat="49.98937" lon="4.34022">
        <ele>315</ele>
        <time>2020-06-24T18:41:11Z</time>
      </trkpt>
      <trkpt lat="49.98933" lon="4.34028">
        <ele>315</ele>
        <time>2020-06-24T18:41:12Z</time>
      </trkpt>
      <trkpt lat="49.9893" lon="4.34035">
        <ele>314.9</ele>
        <time>2020-06-24T18:41:13Z</time>
      </trkpt>
      <trkpt lat="49.98927" lon="4.3404">
        <ele>314.9</ele>
        <time>2020-06-24T18:41:14Z</time>
      </trkpt>
      <trkpt lat="49.98925" lon="4.34046">
        <ele>314.9</ele>
        <time>2020-06-24T18:41:15Z</time>
      </trkpt>
      <trkpt lat="49.98922" lon="4.34052">
        <ele>314.9</ele>
        <time>2020-06-24T18:41:16Z</time>
      </trkpt>
      <trkpt lat="49.98919" lon="4.34056">
        <ele>315</ele>
        <time>2020-06-24T18:41:17Z</time>
      </trkpt>
      <trkpt lat="49.98915" lon="4.34064">
        <ele>315.1</ele>
        <time>2020-06-24T18:41:18Z</time>
      </trkpt>
      <trkpt lat="49.98911" lon="4.34071">
        <ele>315.2</ele>
        <time>2020-06-24T18:41:19Z</time>
      </trkpt>
      <trkpt lat="49.98907" lon="4.34077">
        <ele>315.3</ele>
        <time>2020-06-24T18:41:20Z</time>
      </trkpt>
      <trkpt lat="49.98904" lon="4.34082">
        <ele>315.4</ele>
        <time>2020-06-24T18:41:21Z</time>
      </trkpt>
      <trkpt lat="49.989" lon="4.34087">
        <ele>315.5</ele>
        <time>2020-06-24T18:41:22Z</time>
      </trkpt>
      <trkpt lat="49.98897" lon="4.34093">
        <ele>315.6</ele>
        <time>2020-06-24T18:41:23Z</time>
      </trkpt>
      <trkpt lat="49.98894" lon="4.34098">
        <ele>315.7</ele>
        <time>2020-06-24T18:41:24Z</time>
      </trkpt>
      <trkpt lat="49.9889" lon="4.34104">
        <ele>315.8</ele>
        <time>2020-06-24T18:41:25Z</time>
      </trkpt>
      <trkpt lat="49.98887" lon="4.34109">
        <ele>315.9</ele>
        <time>2020-06-24T18:41:26Z</time>
      </trkpt>
      <trkpt lat="49.98883" lon="4.34114">
        <ele>316</ele>
        <time>2020-06-24T18:41:27Z</time>
      </trkpt>
      <trkpt lat="49.98879" lon="4.34119">
        <ele>316.1</ele>
        <time>2020-06-24T18:41:28Z</time>
      </trkpt>
      <trkpt lat="49.98876" lon="4.34124">
        <ele>316.2</ele>
        <time>2020-06-24T18:41:29Z</time>
      </trkpt>
      <trkpt lat="49.98873" lon="4.34129">
        <ele>316.2</ele>
        <time>2020-06-24T18:41:30Z</time>
      </trkpt>
      <trkpt lat="49.9887" lon="4.34134">
        <ele>316.3</ele>
        <time>2020-06-24T18:41:31Z</time>
      </trkpt>
      <trkpt lat="49.98866" lon="4.34139">
        <ele>316.4</ele>
        <time>2020-06-24T18:41:32Z</time>
      </trkpt>
      <trkpt lat="49.98863" lon="4.34144">
        <ele>316.5</ele>
        <time>2020-06-24T18:41:33Z</time>
      </trkpt>
      <trkpt lat="49.9886" lon="4.34149">
        <ele>316.5</ele>
        <time>2020-06-24T18:41:34Z</time>
      </trkpt>
      <trkpt lat="49.98856" lon="4.34153">
        <ele>316.6</ele>
        <time>2020-06-24T18:41:35Z</time>
      </trkpt>
      <trkpt lat="49.98853" lon="4.34158">
        <ele>316.7</ele>
        <time>2020-06-24T18:41:36Z</time>
      </trkpt>
      <trkpt lat="49.98849" lon="4.34163">
        <ele>316.7</ele>
        <time>2020-06-24T18:41:37Z</time>
      </trkpt>
      <trkpt lat="49.98846" lon="4.34169">
        <ele>316.8</ele>
        <time>2020-06-24T18:41:38Z</time>
      </trkpt>
      <trkpt lat="49.98843" lon="4.34175">
        <ele>316.8</ele>
        <time>2020-06-24T18:41:39Z</time>
      </trkpt>
      <trkpt lat="49.98839" lon="4.34182">
        <ele>316.9</ele>
        <time>2020-06-24T18:41:40Z</time>
      </trkpt>
      <trkpt lat="49.98836" lon="4.34188">
        <ele>316.9</ele>
        <time>2020-06-24T18:41:41Z</time>
      </trkpt>
      <trkpt lat="49.98833" lon="4.34195">
        <ele>317</ele>
        <time>2020-06-24T18:41:42Z</time>
      </trkpt>
      <trkpt lat="49.98831" lon="4.34201">
        <ele>317.1</ele>
        <time>2020-06-24T18:41:43Z</time>
      </trkpt>
      <trkpt lat="49.98828" lon="4.34206">
        <ele>317.1</ele>
        <time>2020-06-24T18:41:44Z</time>
      </trkpt>
      <trkpt lat="49.98826" lon="4.34211">
        <ele>317.2</ele>
        <time>2020-06-24T18:41:45Z</time>
      </trkpt>
      <trkpt lat="49.98823" lon="4.34216">
        <ele>317.3</ele>
        <time>2020-06-24T18:41:46Z</time>
      </trkpt>
      <trkpt lat="49.9882" lon="4.34221">
        <ele>317.3</ele>
        <time>2020-06-24T18:41:47Z</time>
      </trkpt>
      <trkpt lat="49.98817" lon="4.34227">
        <ele>317.4</ele>
        <time>2020-06-24T18:41:48Z</time>
      </trkpt>
      <trkpt lat="49.98814" lon="4.34232">
        <ele>317.5</ele>
        <time>2020-06-24T18:41:49Z</time>
      </trkpt>
      <trkpt lat="49.98812" lon="4.34237">
        <ele>317.6</ele>
        <time>2020-06-24T18:41:50Z</time>
      </trkpt>
      <trkpt lat="49.98809" lon="4.34242">
        <ele>317.7</ele>
        <time>2020-06-24T18:41:51Z</time>
      </trkpt>
      <trkpt lat="49.98806" lon="4.34247">
        <ele>317.8</ele>
        <time>2020-06-24T18:41:52Z</time>
      </trkpt>
      <trkpt lat="49.98804" lon="4.34253">
        <ele>317.9</ele>
        <time>2020-06-24T18:41:53Z</time>
      </trkpt>
      <trkpt lat="49.98801" lon="4.34259">
        <ele>318.1</ele>
        <time>2020-06-24T18:41:54Z</time>
      </trkpt>
      <trkpt lat="49.98798" lon="4.34264">
        <ele>318.2</ele>
        <time>2020-06-24T18:41:55Z</time>
      </trkpt>
      <trkpt lat="49.98795" lon="4.34269">
        <ele>318.3</ele>
        <time>2020-06-24T18:41:56Z</time>
      </trkpt>
      <trkpt lat="49.98792" lon="4.34272">
        <ele>318.4</ele>
        <time>2020-06-24T18:41:57Z</time>
      </trkpt>
      <trkpt lat="49.98789" lon="4.34276">
        <ele>318.6</ele>
        <time>2020-06-24T18:41:58Z</time>
      </trkpt>
      <trkpt lat="49.98786" lon="4.3428">
        <ele>318.7</ele>
        <time>2020-06-24T18:41:59Z</time>
      </trkpt>
      <trkpt lat="49.98784" lon="4.34284">
        <ele>318.8</ele>
        <time>2020-06-24T18:42:00Z</time>
      </trkpt>
      <trkpt lat="49.98781" lon="4.34289">
        <ele>319</ele>
        <time>2020-06-24T18:42:01Z</time>
      </trkpt>
      <trkpt lat="49.98778" lon="4.34294">
        <ele>319.1</ele>
        <time>2020-06-24T18:42:02Z</time>
      </trkpt>
      <trkpt lat="49.98775" lon="4.34298">
        <ele>319.2</ele>
        <time>2020-06-24T18:42:03Z</time>
      </trkpt>
      <trkpt lat="49.98772" lon="4.34302">
        <ele>319.4</ele>
        <time>2020-06-24T18:42:04Z</time>
      </trkpt>
      <trkpt lat="49.98769" lon="4.34307">
        <ele>319.5</ele>
        <time>2020-06-24T18:42:05Z</time>
      </trkpt>
      <trkpt lat="49.98765" lon="4.34313">
        <ele>319.7</ele>
        <time>2020-06-24T18:42:06Z</time>
      </trkpt>
      <trkpt lat="49.98762" lon="4.34319">
        <ele>319.8</ele>
        <time>2020-06-24T18:42:07Z</time>
      </trkpt>
      <trkpt lat="49.98759" lon="4.34324">
        <ele>319.9</ele>
        <time>2020-06-24T18:42:08Z</time>
      </trkpt>
      <trkpt lat="49.98755" lon="4.34329">
        <ele>320</ele>
        <time>2020-06-24T18:42:09Z</time>
      </trkpt>
      <trkpt lat="49.98751" lon="4.34333">
        <ele>320.1</ele>
        <time>2020-06-24T18:42:10Z</time>
      </trkpt>
      <trkpt lat="49.98747" lon="4.34337">
        <ele>320.3</ele>
        <time>2020-06-24T18:42:11Z</time>
      </trkpt>
      <trkpt lat="49.98743" lon="4.34341">
        <ele>320.4</ele>
        <time>2020-06-24T18:42:12Z</time>
      </trkpt>
      <trkpt lat="49.9874" lon="4.34345">
        <ele>320.5</ele>
        <time>2020-06-24T18:42:13Z</time>
      </trkpt>
      <trkpt lat="49.98737" lon="4.34349">
        <ele>320.6</ele>
        <time>2020-06-24T18:42:14Z</time>
      </trkpt>
      <trkpt lat="49.98734" lon="4.34353">
        <ele>320.7</ele>
        <time>2020-06-24T18:42:15Z</time>
      </trkpt>
      <trkpt lat="49.9873" lon="4.34357">
        <ele>320.8</ele>
        <time>2020-06-24T18:42:16Z</time>
      </trkpt>
      <trkpt lat="49.98726" lon="4.34361">
        <ele>321</ele>
        <time>2020-06-24T18:42:17Z</time>
      </trkpt>
      <trkpt lat="49.98723" lon="4.34364">
        <ele>321.1</ele>
        <time>2020-06-24T18:42:18Z</time>
      </trkpt>
      <trkpt lat="49.98719" lon="4.34367">
        <ele>321.2</ele>
        <time>2020-06-24T18:42:19Z</time>
      </trkpt>
      <trkpt lat="49.98716" lon="4.3437">
        <ele>321.2</ele>
        <time>2020-06-24T18:42:20Z</time>
      </trkpt>
      <trkpt lat="49.98713" lon="4.34373">
        <ele>321.3</ele>
        <time>2020-06-24T18:42:21Z</time>
      </trkpt>
      <trkpt lat="49.98709" lon="4.34377">
        <ele>321.4</ele>
        <time>2020-06-24T18:42:22Z</time>
      </trkpt>
      <trkpt lat="49.98705" lon="4.34381">
        <ele>321.4</ele>
        <time>2020-06-24T18:42:23Z</time>
      </trkpt>
      <trkpt lat="49.98702" lon="4.34385">
        <ele>321.5</ele>
        <time>2020-06-24T18:42:24Z</time>
      </trkpt>
      <trkpt lat="49.98698" lon="4.34388">
        <ele>321.5</ele>
        <time>2020-06-24T18:42:25Z</time>
      </trkpt>
      <trkpt lat="49.98694" lon="4.34391">
        <ele>321.6</ele>
        <time>2020-06-24T18:42:26Z</time>
      </trkpt>
      <trkpt lat="49.98691" lon="4.34395">
        <ele>321.6</ele>
        <time>2020-06-24T18:42:27Z</time>
      </trkpt>
      <trkpt lat="49.98687" lon="4.34399">
        <ele>321.7</ele>
        <time>2020-06-24T18:42:28Z</time>
      </trkpt>
      <trkpt lat="49.98684" lon="4.34402">
        <ele>321.7</ele>
        <time>2020-06-24T18:42:29Z</time>
      </trkpt>
      <trkpt lat="49.98681" lon="4.34406">
        <ele>321.7</ele>
        <time>2020-06-24T18:42:30Z</time>
      </trkpt>
      <trkpt lat="49.98678" lon="4.3441">
        <ele>321.7</ele>
        <time>2020-06-24T18:42:31Z</time>
      </trkpt>
      <trkpt lat="49.98674" lon="4.34414">
        <ele>321.7</ele>
        <time>2020-06-24T18:42:32Z</time>
      </trkpt>
      <trkpt lat="49.9867" lon="4.34418">
        <ele>321.7</ele>
        <time>2020-06-24T18:42:33Z</time>
      </trkpt>
      <trkpt lat="49.98666" lon="4.34421">
        <ele>321.7</ele>
        <time>2020-06-24T18:42:34Z</time>
      </trkpt>
      <trkpt lat="49.98662" lon="4.34424">
        <ele>321.6</ele>
        <time>2020-06-24T18:42:35Z</time>
      </trkpt>
      <trkpt lat="49.98658" lon="4.34427">
        <ele>321.6</ele>
        <time>2020-06-24T18:42:36Z</time>
      </trkpt>
      <trkpt lat="49.98654" lon="4.3443">
        <ele>321.6</ele>
        <time>2020-06-24T18:42:37Z</time>
      </trkpt>
      <trkpt lat="49.98649" lon="4.34432">
        <ele>321.6</ele>
        <time>2020-06-24T18:42:38Z</time>
      </trkpt>
      <trkpt lat="49.98645" lon="4.34436">
        <ele>321.6</ele>
        <time>2020-06-24T18:42:39Z</time>
      </trkpt>
      <trkpt lat="49.9864" lon="4.34438">
        <ele>321.7</ele>
        <time>2020-06-24T18:42:40Z</time>
      </trkpt>
      <trkpt lat="49.98636" lon="4.3444">
        <ele>321.7</ele>
        <time>2020-06-24T18:42:41Z</time>
      </trkpt>
      <trkpt lat="49.98631" lon="4.34443">
        <ele>321.7</ele>
        <time>2020-06-24T18:42:42Z</time>
      </trkpt>
      <trkpt lat="49.98627" lon="4.34446">
        <ele>321.7</ele>
        <time>2020-06-24T18:42:43Z</time>
      </trkpt>
      <trkpt lat="49.98622" lon="4.34448">
        <ele>321.7</ele>
        <time>2020-06-24T18:42:44Z</time>
      </trkpt>
      <trkpt lat="49.98617" lon="4.34451">
        <ele>321.8</ele>
        <time>2020-06-24T18:42:45Z</time>
      </trkpt>
      <trkpt lat="49.98613" lon="4.34453">
        <ele>321.8</ele>
        <time>2020-06-24T18:42:46Z</time>
      </trkpt>
      <trkpt lat="49.98608" lon="4.34456">
        <ele>321.9</ele>
        <time>2020-06-24T18:42:47Z</time>
      </trkpt>
      <trkpt lat="49.98603" lon="4.34457">
        <ele>321.9</ele>
        <time>2020-06-24T18:42:48Z</time>
      </trkpt>
      <trkpt lat="49.98598" lon="4.34459">
        <ele>321.9</ele>
        <time>2020-06-24T18:42:49Z</time>
      </trkpt>
      <trkpt lat="49.98594" lon="4.34461">
        <ele>322</ele>
        <time>2020-06-24T18:42:50Z</time>
      </trkpt>
      <trkpt lat="49.9859" lon="4.34462">
        <ele>322</ele>
        <time>2020-06-24T18:42:51Z</time>
      </trkpt>
      <trkpt lat="49.98585" lon="4.34465">
        <ele>322</ele>
        <time>2020-06-24T18:42:52Z</time>
      </trkpt>
      <trkpt lat="49.9858" lon="4.34467">
        <ele>322.1</ele>
        <time>2020-06-24T18:42:53Z</time>
      </trkpt>
      <trkpt lat="49.98575" lon="4.34469">
        <ele>322.1</ele>
        <time>2020-06-24T18:42:54Z</time>
      </trkpt>
      <trkpt lat="49.9857" lon="4.3447">
        <ele>322.2</ele>
        <time>2020-06-24T18:42:55Z</time>
      </trkpt>
      <trkpt lat="49.98566" lon="4.34472">
        <ele>322.3</ele>
        <time>2020-06-24T18:42:56Z</time>
      </trkpt>
      <trkpt lat="49.98561" lon="4.34474">
        <ele>322.3</ele>
        <time>2020-06-24T18:42:57Z</time>
      </trkpt>
      <trkpt lat="49.98556" lon="4.34476">
        <ele>322.4</ele>
        <time>2020-06-24T18:42:58Z</time>
      </trkpt>
      <trkpt lat="49.98552" lon="4.34478">
        <ele>322.5</ele>
        <time>2020-06-24T18:42:59Z</time>
      </trkpt>
      <trkpt lat="49.98547" lon="4.3448">
        <ele>322.7</ele>
        <time>2020-06-24T18:43:00Z</time>
      </trkpt>
      <trkpt lat="49.98541" lon="4.34482">
        <ele>322.8</ele>
        <time>2020-06-24T18:43:01Z</time>
      </trkpt>
      <trkpt lat="49.98536" lon="4.34484">
        <ele>322.9</ele>
        <time>2020-06-24T18:43:02Z</time>
      </trkpt>
      <trkpt lat="49.98532" lon="4.34486">
        <ele>323.1</ele>
        <time>2020-06-24T18:43:03Z</time>
      </trkpt>
      <trkpt lat="49.98527" lon="4.34488">
        <ele>323.2</ele>
        <time>2020-06-24T18:43:04Z</time>
      </trkpt>
      <trkpt lat="49.98523" lon="4.34489">
        <ele>323.3</ele>
        <time>2020-06-24T18:43:05Z</time>
      </trkpt>
      <trkpt lat="49.98518" lon="4.34491">
        <ele>323.4</ele>
        <time>2020-06-24T18:43:06Z</time>
      </trkpt>
      <trkpt lat="49.98514" lon="4.34492">
        <ele>323.6</ele>
        <time>2020-06-24T18:43:07Z</time>
      </trkpt>
      <trkpt lat="49.9851" lon="4.34494">
        <ele>323.7</ele>
        <time>2020-06-24T18:43:08Z</time>
      </trkpt>
      <trkpt lat="49.98506" lon="4.34496">
        <ele>323.8</ele>
        <time>2020-06-24T18:43:09Z</time>
      </trkpt>
      <trkpt lat="49.98501" lon="4.34497">
        <ele>323.9</ele>
        <time>2020-06-24T18:43:10Z</time>
      </trkpt>
      <trkpt lat="49.98498" lon="4.34498">
        <ele>324</ele>
        <time>2020-06-24T18:43:11Z</time>
      </trkpt>
      <trkpt lat="49.98494" lon="4.34498">
        <ele>324.1</ele>
        <time>2020-06-24T18:43:12Z</time>
      </trkpt>
      <trkpt lat="49.9849" lon="4.34499">
        <ele>324.2</ele>
        <time>2020-06-24T18:43:13Z</time>
      </trkpt>
      <trkpt lat="49.98486" lon="4.345">
        <ele>324.3</ele>
        <time>2020-06-24T18:43:14Z</time>
      </trkpt>
      <trkpt lat="49.98482" lon="4.34502">
        <ele>324.4</ele>
        <time>2020-06-24T18:43:15Z</time>
      </trkpt>
      <trkpt lat="49.98477" lon="4.34503">
        <ele>324.6</ele>
        <time>2020-06-24T18:43:16Z</time>
      </trkpt>
      <trkpt lat="49.98473" lon="4.34505">
        <ele>324.7</ele>
        <time>2020-06-24T18:43:17Z</time>
      </trkpt>
      <trkpt lat="49.98468" lon="4.34507">
        <ele>324.8</ele>
        <time>2020-06-24T18:43:18Z</time>
      </trkpt>
      <trkpt lat="49.98463" lon="4.34508">
        <ele>324.9</ele>
        <time>2020-06-24T18:43:19Z</time>
      </trkpt>
      <trkpt lat="49.98459" lon="4.3451">
        <ele>324.9</ele>
        <time>2020-06-24T18:43:20Z</time>
      </trkpt>
      <trkpt lat="49.98455" lon="4.34511">
        <ele>325</ele>
        <time>2020-06-24T18:43:21Z</time>
      </trkpt>
      <trkpt lat="49.9845" lon="4.34514">
        <ele>325</ele>
        <time>2020-06-24T18:43:22Z</time>
      </trkpt>
      <trkpt lat="49.98447" lon="4.34516">
        <ele>325.1</ele>
        <time>2020-06-24T18:43:23Z</time>
      </trkpt>
      <trkpt lat="49.98443" lon="4.34518">
        <ele>325.1</ele>
        <time>2020-06-24T18:43:24Z</time>
      </trkpt>
      <trkpt lat="49.98439" lon="4.34519">
        <ele>325.1</ele>
        <time>2020-06-24T18:43:25Z</time>
      </trkpt>
      <trkpt lat="49.98438" lon="4.34519">
        <ele>325.1</ele>
        <time>2020-06-24T18:43:26Z</time>
      </trkpt>
      <trkpt lat="49.98434" lon="4.34521">
        <ele>325.1</ele>
        <time>2020-06-24T18:43:27Z</time>
      </trkpt>
      <trkpt lat="49.98433" lon="4.34521">
        <ele>325.1</ele>
        <time>2020-06-24T18:43:28Z</time>
      </trkpt>
      <trkpt lat="49.98429" lon="4.34523">
        <ele>325.1</ele>
        <time>2020-06-24T18:43:29Z</time>
      </trkpt>
      <trkpt lat="49.98426" lon="4.34524">
        <ele>325.1</ele>
        <time>2020-06-24T18:43:30Z</time>
      </trkpt>
      <trkpt lat="49.98423" lon="4.34526">
        <ele>325.1</ele>
        <time>2020-06-24T18:43:31Z</time>
      </trkpt>
      <trkpt lat="49.9842" lon="4.34527">
        <ele>325</ele>
        <time>2020-06-24T18:43:32Z</time>
      </trkpt>
      <trkpt lat="49.98416" lon="4.34529">
        <ele>325</ele>
        <time>2020-06-24T18:43:33Z</time>
      </trkpt>
      <trkpt lat="49.98413" lon="4.34532">
        <ele>324.9</ele>
        <time>2020-06-24T18:43:34Z</time>
      </trkpt>
      <trkpt lat="49.98409" lon="4.34534">
        <ele>324.8</ele>
        <time>2020-06-24T18:43:35Z</time>
      </trkpt>
      <trkpt lat="49.98405" lon="4.34536">
        <ele>324.8</ele>
        <time>2020-06-24T18:43:36Z</time>
      </trkpt>
      <trkpt lat="49.98401" lon="4.34538">
        <ele>324.7</ele>
        <time>2020-06-24T18:43:37Z</time>
      </trkpt>
      <trkpt lat="49.98397" lon="4.34539">
        <ele>324.6</ele>
        <time>2020-06-24T18:43:38Z</time>
      </trkpt>
      <trkpt lat="49.98392" lon="4.34539">
        <ele>324.5</ele>
        <time>2020-06-24T18:43:39Z</time>
      </trkpt>
      <trkpt lat="49.98388" lon="4.34537">
        <ele>324.4</ele>
        <time>2020-06-24T18:43:40Z</time>
      </trkpt>
      <trkpt lat="49.98383" lon="4.34533">
        <ele>324</ele>
        <time>2020-06-24T18:43:41Z</time>
      </trkpt>
      <trkpt lat="49.9838" lon="4.34527">
        <ele>324</ele>
        <time>2020-06-24T18:43:42Z</time>
      </trkpt>
      <trkpt lat="49.98377" lon="4.34521">
        <ele>324</ele>
        <time>2020-06-24T18:43:43Z</time>
      </trkpt>
      <trkpt lat="49.98375" lon="4.34513">
        <ele>324</ele>
        <time>2020-06-24T18:43:44Z</time>
      </trkpt>
      <trkpt lat="49.98374" lon="4.34505">
        <ele>324</ele>
        <time>2020-06-24T18:43:45Z</time>
      </trkpt>
      <trkpt lat="49.98374" lon="4.34498">
        <ele>324.1</ele>
        <time>2020-06-24T18:43:46Z</time>
      </trkpt>
      <trkpt lat="49.98373" lon="4.34491">
        <ele>324.1</ele>
        <time>2020-06-24T18:43:47Z</time>
      </trkpt>
      <trkpt lat="49.98372" lon="4.34485">
        <ele>324.1</ele>
        <time>2020-06-24T18:43:48Z</time>
      </trkpt>
      <trkpt lat="49.98372" lon="4.34478">
        <ele>324.2</ele>
        <time>2020-06-24T18:43:49Z</time>
      </trkpt>
      <trkpt lat="49.98371" lon="4.34472">
        <ele>324.2</ele>
        <time>2020-06-24T18:43:50Z</time>
      </trkpt>
      <trkpt lat="49.98371" lon="4.34466">
        <ele>324.3</ele>
        <time>2020-06-24T18:43:51Z</time>
      </trkpt>
      <trkpt lat="49.98371" lon="4.3446">
        <ele>324.3</ele>
        <time>2020-06-24T18:43:52Z</time>
      </trkpt>
      <trkpt lat="49.98371" lon="4.34453">
        <ele>324.3</ele>
        <time>2020-06-24T18:43:53Z</time>
      </trkpt>
      <trkpt lat="49.98371" lon="4.34446">
        <ele>324.4</ele>
        <time>2020-06-24T18:43:54Z</time>
      </trkpt>
      <trkpt lat="49.98371" lon="4.34439">
        <ele>324.4</ele>
        <time>2020-06-24T18:43:55Z</time>
      </trkpt>
      <trkpt lat="49.98371" lon="4.34433">
        <ele>324.5</ele>
        <time>2020-06-24T18:43:56Z</time>
      </trkpt>
      <trkpt lat="49.98371" lon="4.34427">
        <ele>324.5</ele>
        <time>2020-06-24T18:43:57Z</time>
      </trkpt>
      <trkpt lat="49.98371" lon="4.3442">
        <ele>324.5</ele>
        <time>2020-06-24T18:43:58Z</time>
      </trkpt>
      <trkpt lat="49.98371" lon="4.34413">
        <ele>324.6</ele>
        <time>2020-06-24T18:43:59Z</time>
      </trkpt>
      <trkpt lat="49.9837" lon="4.34406">
        <ele>324.7</ele>
        <time>2020-06-24T18:44:00Z</time>
      </trkpt>
      <trkpt lat="49.9837" lon="4.34399">
        <ele>324.7</ele>
        <time>2020-06-24T18:44:01Z</time>
      </trkpt>
      <trkpt lat="49.9837" lon="4.34393">
        <ele>324.8</ele>
        <time>2020-06-24T18:44:02Z</time>
      </trkpt>
      <trkpt lat="49.98369" lon="4.34385">
        <ele>324.9</ele>
        <time>2020-06-24T18:44:03Z</time>
      </trkpt>
      <trkpt lat="49.98369" lon="4.34377">
        <ele>325</ele>
        <time>2020-06-24T18:44:04Z</time>
      </trkpt>
      <trkpt lat="49.98369" lon="4.3437">
        <ele>325</ele>
        <time>2020-06-24T18:44:05Z</time>
      </trkpt>
      <trkpt lat="49.98369" lon="4.34363">
        <ele>325.1</ele>
        <time>2020-06-24T18:44:06Z</time>
      </trkpt>
      <trkpt lat="49.98369" lon="4.34355">
        <ele>325.2</ele>
        <time>2020-06-24T18:44:07Z</time>
      </trkpt>
      <trkpt lat="49.98369" lon="4.34348">
        <ele>325.2</ele>
        <time>2020-06-24T18:44:08Z</time>
      </trkpt>
      <trkpt lat="49.98369" lon="4.34341">
        <ele>325.3</ele>
        <time>2020-06-24T18:44:09Z</time>
      </trkpt>
      <trkpt lat="49.98369" lon="4.34334">
        <ele>325.4</ele>
        <time>2020-06-24T18:44:10Z</time>
      </trkpt>
      <trkpt lat="49.98369" lon="4.34327">
        <ele>325.5</ele>
        <time>2020-06-24T18:44:11Z</time>
      </trkpt>
      <trkpt lat="49.98369" lon="4.34319">
        <ele>325.6</ele>
        <time>2020-06-24T18:44:12Z</time>
      </trkpt>
      <trkpt lat="49.98369" lon="4.34312">
        <ele>325.7</ele>
        <time>2020-06-24T18:44:13Z</time>
      </trkpt>
      <trkpt lat="49.98368" lon="4.34305">
        <ele>325.7</ele>
        <time>2020-06-24T18:44:14Z</time>
      </trkpt>
      <trkpt lat="49.98368" lon="4.34298">
        <ele>325.8</ele>
        <time>2020-06-24T18:44:15Z</time>
      </trkpt>
      <trkpt lat="49.98367" lon="4.34292">
        <ele>325.8</ele>
        <time>2020-06-24T18:44:16Z</time>
      </trkpt>
      <trkpt lat="49.98367" lon="4.34285">
        <ele>325.9</ele>
        <time>2020-06-24T18:44:17Z</time>
      </trkpt>
      <trkpt lat="49.98367" lon="4.34278">
        <ele>326</ele>
        <time>2020-06-24T18:44:18Z</time>
      </trkpt>
      <trkpt lat="49.98367" lon="4.34272">
        <ele>326</ele>
        <time>2020-06-24T18:44:19Z</time>
      </trkpt>
      <trkpt lat="49.98366" lon="4.34265">
        <ele>326.1</ele>
        <time>2020-06-24T18:44:20Z</time>
      </trkpt>
      <trkpt lat="49.98366" lon="4.34258">
        <ele>326.1</ele>
        <time>2020-06-24T18:44:21Z</time>
      </trkpt>
      <trkpt lat="49.98366" lon="4.3425">
        <ele>326.2</ele>
        <time>2020-06-24T18:44:22Z</time>
      </trkpt>
      <trkpt lat="49.98366" lon="4.34242">
        <ele>326.3</ele>
        <time>2020-06-24T18:44:23Z</time>
      </trkpt>
      <trkpt lat="49.98366" lon="4.34236">
        <ele>326.3</ele>
        <time>2020-06-24T18:44:24Z</time>
      </trkpt>
      <trkpt lat="49.98366" lon="4.3423">
        <ele>326.3</ele>
        <time>2020-06-24T18:44:25Z</time>
      </trkpt>
      <trkpt lat="49.98365" lon="4.34223">
        <ele>326.4</ele>
        <time>2020-06-24T18:44:26Z</time>
      </trkpt>
      <trkpt lat="49.98365" lon="4.34215">
        <ele>326.4</ele>
        <time>2020-06-24T18:44:27Z</time>
      </trkpt>
      <trkpt lat="49.98365" lon="4.34208">
        <ele>326.5</ele>
        <time>2020-06-24T18:44:28Z</time>
      </trkpt>
      <trkpt lat="49.98365" lon="4.34201">
        <ele>326.5</ele>
        <time>2020-06-24T18:44:29Z</time>
      </trkpt>
      <trkpt lat="49.98365" lon="4.34194">
        <ele>326.5</ele>
        <time>2020-06-24T18:44:30Z</time>
      </trkpt>
      <trkpt lat="49.98365" lon="4.34188">
        <ele>326.5</ele>
        <time>2020-06-24T18:44:31Z</time>
      </trkpt>
      <trkpt lat="49.98365" lon="4.3418">
        <ele>326.6</ele>
        <time>2020-06-24T18:44:32Z</time>
      </trkpt>
      <trkpt lat="49.98365" lon="4.34171">
        <ele>326.6</ele>
        <time>2020-06-24T18:44:33Z</time>
      </trkpt>
      <trkpt lat="49.98365" lon="4.34163">
        <ele>326.6</ele>
        <time>2020-06-24T18:44:34Z</time>
      </trkpt>
      <trkpt lat="49.98365" lon="4.34154">
        <ele>326.6</ele>
        <time>2020-06-24T18:44:35Z</time>
      </trkpt>
      <trkpt lat="49.98365" lon="4.34147">
        <ele>326.6</ele>
        <time>2020-06-24T18:44:36Z</time>
      </trkpt>
      <trkpt lat="49.98364" lon="4.3414">
        <ele>326.6</ele>
        <time>2020-06-24T18:44:37Z</time>
      </trkpt>
      <trkpt lat="49.98364" lon="4.34132">
        <ele>326.6</ele>
        <time>2020-06-24T18:44:38Z</time>
      </trkpt>
      <trkpt lat="49.98363" lon="4.34124">
        <ele>326.6</ele>
        <time>2020-06-24T18:44:39Z</time>
      </trkpt>
      <trkpt lat="49.98364" lon="4.34115">
        <ele>326.6</ele>
        <time>2020-06-24T18:44:40Z</time>
      </trkpt>
      <trkpt lat="49.98363" lon="4.34107">
        <ele>326.5</ele>
        <time>2020-06-24T18:44:41Z</time>
      </trkpt>
      <trkpt lat="49.98363" lon="4.341">
        <ele>326.5</ele>
        <time>2020-06-24T18:44:42Z</time>
      </trkpt>
      <trkpt lat="49.98362" lon="4.3409">
        <ele>326.5</ele>
        <time>2020-06-24T18:44:43Z</time>
      </trkpt>
      <trkpt lat="49.98361" lon="4.34081">
        <ele>326.4</ele>
        <time>2020-06-24T18:44:44Z</time>
      </trkpt>
      <trkpt lat="49.9836" lon="4.34071">
        <ele>326.3</ele>
        <time>2020-06-24T18:44:45Z</time>
      </trkpt>
      <trkpt lat="49.98359" lon="4.34061">
        <ele>326.1</ele>
        <time>2020-06-24T18:44:46Z</time>
      </trkpt>
      <trkpt lat="49.98358" lon="4.34052">
        <ele>326</ele>
        <time>2020-06-24T18:44:47Z</time>
      </trkpt>
      <trkpt lat="49.98358" lon="4.34044">
        <ele>325.9</ele>
        <time>2020-06-24T18:44:48Z</time>
      </trkpt>
      <trkpt lat="49.98358" lon="4.34034">
        <ele>325.8</ele>
        <time>2020-06-24T18:44:49Z</time>
      </trkpt>
      <trkpt lat="49.98358" lon="4.34025">
        <ele>325.7</ele>
        <time>2020-06-24T18:44:50Z</time>
      </trkpt>
      <trkpt lat="49.98357" lon="4.34015">
        <ele>325.6</ele>
        <time>2020-06-24T18:44:51Z</time>
      </trkpt>
      <trkpt lat="49.98356" lon="4.34006">
        <ele>325.5</ele>
        <time>2020-06-24T18:44:52Z</time>
      </trkpt>
      <trkpt lat="49.98355" lon="4.33997">
        <ele>325.4</ele>
        <time>2020-06-24T18:44:53Z</time>
      </trkpt>
      <trkpt lat="49.98353" lon="4.33986">
        <ele>325.3</ele>
        <time>2020-06-24T18:44:54Z</time>
      </trkpt>
      <trkpt lat="49.98352" lon="4.33975">
        <ele>325.1</ele>
        <time>2020-06-24T18:44:55Z</time>
      </trkpt>
      <trkpt lat="49.98352" lon="4.33965">
        <ele>325</ele>
        <time>2020-06-24T18:44:56Z</time>
      </trkpt>
      <trkpt lat="49.98351" lon="4.33955">
        <ele>324.9</ele>
        <time>2020-06-24T18:44:57Z</time>
      </trkpt>
      <trkpt lat="49.9835" lon="4.33944">
        <ele>324.8</ele>
        <time>2020-06-24T18:44:58Z</time>
      </trkpt>
      <trkpt lat="49.98347" lon="4.33934">
        <ele>324.7</ele>
        <time>2020-06-24T18:44:59Z</time>
      </trkpt>
      <trkpt lat="49.98345" lon="4.33924">
        <ele>324.6</ele>
        <time>2020-06-24T18:45:00Z</time>
      </trkpt>
      <trkpt lat="49.98343" lon="4.33915">
        <ele>324.5</ele>
        <time>2020-06-24T18:45:01Z</time>
      </trkpt>
      <trkpt lat="49.98341" lon="4.33907">
        <ele>324.4</ele>
        <time>2020-06-24T18:45:02Z</time>
      </trkpt>
      <trkpt lat="49.9834" lon="4.33898">
        <ele>324.2</ele>
        <time>2020-06-24T18:45:03Z</time>
      </trkpt>
      <trkpt lat="49.98339" lon="4.3389">
        <ele>324.1</ele>
        <time>2020-06-24T18:45:04Z</time>
      </trkpt>
      <trkpt lat="49.98339" lon="4.33881">
        <ele>324</ele>
        <time>2020-06-24T18:45:05Z</time>
      </trkpt>
      <trkpt lat="49.98338" lon="4.33872">
        <ele>324</ele>
        <time>2020-06-24T18:45:06Z</time>
      </trkpt>
      <trkpt lat="49.98338" lon="4.33863">
        <ele>323.9</ele>
        <time>2020-06-24T18:45:07Z</time>
      </trkpt>
      <trkpt lat="49.98338" lon="4.33856">
        <ele>323.8</ele>
        <time>2020-06-24T18:45:08Z</time>
      </trkpt>
      <trkpt lat="49.98338" lon="4.33849">
        <ele>323.8</ele>
        <time>2020-06-24T18:45:09Z</time>
      </trkpt>
      <trkpt lat="49.98337" lon="4.33842">
        <ele>323.7</ele>
        <time>2020-06-24T18:45:10Z</time>
      </trkpt>
      <trkpt lat="49.98337" lon="4.33835">
        <ele>323.7</ele>
        <time>2020-06-24T18:45:11Z</time>
      </trkpt>
      <trkpt lat="49.98337" lon="4.33828">
        <ele>323.6</ele>
        <time>2020-06-24T18:45:12Z</time>
      </trkpt>
      <trkpt lat="49.98337" lon="4.3382">
        <ele>323.6</ele>
        <time>2020-06-24T18:45:13Z</time>
      </trkpt>
      <trkpt lat="49.98337" lon="4.33811">
        <ele>323.4</ele>
        <time>2020-06-24T18:45:14Z</time>
      </trkpt>
      <trkpt lat="49.98337" lon="4.33801">
        <ele>323.3</ele>
        <time>2020-06-24T18:45:15Z</time>
      </trkpt>
      <trkpt lat="49.98337" lon="4.33792">
        <ele>323.2</ele>
        <time>2020-06-24T18:45:16Z</time>
      </trkpt>
      <trkpt lat="49.98337" lon="4.33782">
        <ele>323</ele>
        <time>2020-06-24T18:45:17Z</time>
      </trkpt>
      <trkpt lat="49.98336" lon="4.33774">
        <ele>322.9</ele>
        <time>2020-06-24T18:45:18Z</time>
      </trkpt>
      <trkpt lat="49.98335" lon="4.33765">
        <ele>322.7</ele>
        <time>2020-06-24T18:45:19Z</time>
      </trkpt>
      <trkpt lat="49.98335" lon="4.33756">
        <ele>322.6</ele>
        <time>2020-06-24T18:45:20Z</time>
      </trkpt>
      <trkpt lat="49.98334" lon="4.33748">
        <ele>322.4</ele>
        <time>2020-06-24T18:45:21Z</time>
      </trkpt>
      <trkpt lat="49.98333" lon="4.33741">
        <ele>322.3</ele>
        <time>2020-06-24T18:45:22Z</time>
      </trkpt>
      <trkpt lat="49.9833" lon="4.33735">
        <ele>322.2</ele>
        <time>2020-06-24T18:45:23Z</time>
      </trkpt>
      <trkpt lat="49.98327" lon="4.3373">
        <ele>322.1</ele>
        <time>2020-06-24T18:45:24Z</time>
      </trkpt>
      <trkpt lat="49.98324" lon="4.33726">
        <ele>322</ele>
        <time>2020-06-24T18:45:25Z</time>
      </trkpt>
      <trkpt lat="49.9832" lon="4.33721">
        <ele>321.9</ele>
        <time>2020-06-24T18:45:26Z</time>
      </trkpt>
      <trkpt lat="49.98318" lon="4.33719">
        <ele>321.9</ele>
        <time>2020-06-24T18:45:27Z</time>
      </trkpt>
      <trkpt lat="49.98314" lon="4.33718">
        <ele>321.8</ele>
        <time>2020-06-24T18:45:28Z</time>
      </trkpt>
      <trkpt lat="49.98313" lon="4.33718">
        <ele>322</ele>
        <time>2020-06-24T18:45:29Z</time>
      </trkpt>
      <trkpt lat="49.98309" lon="4.33718">
        <ele>322.2</ele>
        <time>2020-06-24T18:45:30Z</time>
      </trkpt>
      <trkpt lat="49.98307" lon="4.33718">
        <ele>322.4</ele>
        <time>2020-06-24T18:45:31Z</time>
      </trkpt>
      <trkpt lat="49.98304" lon="4.33717">
        <ele>322.6</ele>
        <time>2020-06-24T18:45:32Z</time>
      </trkpt>
      <trkpt lat="49.98303" lon="4.33717">
        <ele>322.7</ele>
        <time>2020-06-24T18:45:33Z</time>
      </trkpt>
      <trkpt lat="49.983" lon="4.33717">
        <ele>322.9</ele>
        <time>2020-06-24T18:45:34Z</time>
      </trkpt>
      <trkpt lat="49.98298" lon="4.33717">
        <ele>323.1</ele>
        <time>2020-06-24T18:45:35Z</time>
      </trkpt>
      <trkpt lat="49.98295" lon="4.33718">
        <ele>323.3</ele>
        <time>2020-06-24T18:45:36Z</time>
      </trkpt>
      <trkpt lat="49.98293" lon="4.33719">
        <ele>323.5</ele>
        <time>2020-06-24T18:45:37Z</time>
      </trkpt>
      <trkpt lat="49.98291" lon="4.33719">
        <ele>323.7</ele>
        <time>2020-06-24T18:45:38Z</time>
      </trkpt>
      <trkpt lat="49.98287" lon="4.33719">
        <ele>323.9</ele>
        <time>2020-06-24T18:45:39Z</time>
      </trkpt>
      <trkpt lat="49.98284" lon="4.33719">
        <ele>324.1</ele>
        <time>2020-06-24T18:45:40Z</time>
      </trkpt>
      <trkpt lat="49.98281" lon="4.33719">
        <ele>324.2</ele>
        <time>2020-06-24T18:45:41Z</time>
      </trkpt>
      <trkpt lat="49.98278" lon="4.33719">
        <ele>324.4</ele>
        <time>2020-06-24T18:45:42Z</time>
      </trkpt>
      <trkpt lat="49.98274" lon="4.3372">
        <ele>324.7</ele>
        <time>2020-06-24T18:45:43Z</time>
      </trkpt>
      <trkpt lat="49.98273" lon="4.3372">
        <ele>324.8</ele>
        <time>2020-06-24T18:45:44Z</time>
      </trkpt>
      <trkpt lat="49.9827" lon="4.3372">
        <ele>325</ele>
        <time>2020-06-24T18:45:45Z</time>
      </trkpt>
      <trkpt lat="49.98267" lon="4.3372">
        <ele>325.2</ele>
        <time>2020-06-24T18:45:46Z</time>
      </trkpt>
      <trkpt lat="49.98264" lon="4.33719">
        <ele>325.4</ele>
        <time>2020-06-24T18:45:47Z</time>
      </trkpt>
      <trkpt lat="49.98261" lon="4.33719">
        <ele>325.6</ele>
        <time>2020-06-24T18:45:48Z</time>
      </trkpt>
      <trkpt lat="49.98257" lon="4.33719">
        <ele>325.8</ele>
        <time>2020-06-24T18:45:49Z</time>
      </trkpt>
      <trkpt lat="49.98256" lon="4.33718">
        <ele>326</ele>
        <time>2020-06-24T18:45:50Z</time>
      </trkpt>
      <trkpt lat="49.98253" lon="4.33717">
        <ele>326</ele>
        <time>2020-06-24T18:45:51Z</time>
      </trkpt>
      <trkpt lat="49.98252" lon="4.33717">
        <ele>326</ele>
        <time>2020-06-24T18:45:52Z</time>
      </trkpt>
      <trkpt lat="49.98251" lon="4.33717">
        <ele>326</ele>
        <time>2020-06-24T18:45:53Z</time>
      </trkpt>
      <trkpt lat="49.98249" lon="4.33716">
        <ele>326</ele>
        <time>2020-06-24T18:45:54Z</time>
      </trkpt>
      <trkpt lat="49.98249" lon="4.33716">
        <ele>326</ele>
        <time>2020-06-24T18:45:55Z</time>
      </trkpt>
      <trkpt lat="49.98249" lon="4.33716">
        <ele>326</ele>
        <time>2020-06-24T18:45:56Z</time>
      </trkpt>
      <trkpt lat="49.98249" lon="4.33715">
        <ele>326</ele>
        <time>2020-06-24T18:45:57Z</time>
      </trkpt>
      <trkpt lat="49.98249" lon="4.33716">
        <ele>326</ele>
        <time>2020-06-24T18:45:58Z</time>
      </trkpt>
      <trkpt lat="49.98249" lon="4.33715">
        <ele>326</ele>
        <time>2020-06-24T18:45:59Z</time>
      </trkpt>
      <trkpt lat="49.98248" lon="4.33715">
        <ele>326</ele>
        <time>2020-06-24T18:46:00Z</time>
      </trkpt>
      <trkpt lat="49.98248" lon="4.33715">
        <ele>326</ele>
        <time>2020-06-24T18:46:01Z</time>
      </trkpt>
      <trkpt lat="49.98248" lon="4.33715">
        <ele>326</ele>
        <time>2020-06-24T18:46:02Z</time>
      </trkpt>
      <trkpt lat="49.98248" lon="4.33715">
        <ele>326</ele>
        <time>2020-06-24T18:46:03Z</time>
      </trkpt>
      <trkpt lat="49.98248" lon="4.33715">
        <ele>326</ele>
        <time>2020-06-24T18:46:04Z</time>
      </trkpt>
      <trkpt lat="49.98247" lon="4.33715">
        <ele>326</ele>
        <time>2020-06-24T18:46:05Z</time>
      </trkpt>
      <trkpt lat="49.98247" lon="4.33716">
        <ele>326</ele>
        <time>2020-06-24T18:46:06Z</time>
      </trkpt>
      <trkpt lat="49.98246" lon="4.33716">
        <ele>326</ele>
        <time>2020-06-24T18:46:07Z</time>
      </trkpt>
      <trkpt lat="49.98246" lon="4.33716">
        <ele>326</ele>
        <time>2020-06-24T18:46:08Z</time>
      </trkpt>
      <trkpt lat="49.98246" lon="4.33716">
        <ele>326</ele>
        <time>2020-06-24T18:46:09Z</time>
      </trkpt>
      <trkpt lat="49.98246" lon="4.33716">
        <ele>326</ele>
        <time>2020-06-24T18:46:10Z</time>
      </trkpt>
      <trkpt lat="49.98246" lon="4.33716">
        <ele>326</ele>
        <time>2020-06-24T18:46:11Z</time>
      </trkpt>
      <trkpt lat="49.98246" lon="4.33716">
        <ele>326</ele>
        <time>2020-06-24T18:46:12Z</time>
      </trkpt>
      <trkpt lat="49.98246" lon="4.33716">
        <ele>326</ele>
        <time>2020-06-24T18:46:13Z</time>
      </trkpt>
      <trkpt lat="49.9847" lon="4.33679">
        <ele>322.1</ele>
        <time>2020-06-24T19:32:08Z</time>
      </trkpt>
      <trkpt lat="49.98354" lon="4.33696">
        <ele>321.5</ele>
        <time>2020-06-24T19:32:09Z</time>
      </trkpt>
      <trkpt lat="49.9835" lon="4.33688">
        <ele>321.5</ele>
        <time>2020-06-24T19:32:10Z</time>
      </trkpt>
      <trkpt lat="49.98346" lon="4.33679">
        <ele>321.5</ele>
        <time>2020-06-24T19:32:11Z</time>
      </trkpt>
      <trkpt lat="49.98342" lon="4.33671">
        <ele>321.5</ele>
        <time>2020-06-24T19:32:12Z</time>
      </trkpt>
      <trkpt lat="49.98338" lon="4.33663">
        <ele>321.4</ele>
        <time>2020-06-24T19:32:13Z</time>
      </trkpt>
      <trkpt lat="49.98334" lon="4.33654">
        <ele>321.1</ele>
        <time>2020-06-24T19:32:14Z</time>
      </trkpt>
      <trkpt lat="49.9833" lon="4.33646">
        <ele>321</ele>
        <time>2020-06-24T19:32:15Z</time>
      </trkpt>
      <trkpt lat="49.98325" lon="4.33638">
        <ele>320.9</ele>
        <time>2020-06-24T19:32:16Z</time>
      </trkpt>
      <trkpt lat="49.98321" lon="4.33629">
        <ele>320.8</ele>
        <time>2020-06-24T19:32:35Z</time>
      </trkpt>
      <trkpt lat="49.98317" lon="4.33621">
        <ele>320.7</ele>
        <time>2020-06-24T19:32:36Z</time>
      </trkpt>
      <trkpt lat="49.98317" lon="4.33613">
        <ele>320.6</ele>
        <time>2020-06-24T19:32:37Z</time>
      </trkpt>
      <trkpt lat="49.98316" lon="4.33603">
        <ele>320.5</ele>
        <time>2020-06-24T19:32:38Z</time>
      </trkpt>
      <trkpt lat="49.98315" lon="4.33596">
        <ele>320.4</ele>
        <time>2020-06-24T19:32:39Z</time>
      </trkpt>
      <trkpt lat="49.98316" lon="4.33591">
        <ele>320.4</ele>
        <time>2020-06-24T19:32:40Z</time>
      </trkpt>
      <trkpt lat="49.98316" lon="4.33589">
        <ele>320.4</ele>
        <time>2020-06-24T19:32:41Z</time>
      </trkpt>
      <trkpt lat="49.98316" lon="4.33582">
        <ele>320.3</ele>
        <time>2020-06-24T19:32:42Z</time>
      </trkpt>
      <trkpt lat="49.98316" lon="4.33579">
        <ele>320.3</ele>
        <time>2020-06-24T19:32:43Z</time>
      </trkpt>
      <trkpt lat="49.98316" lon="4.33573">
        <ele>320.2</ele>
        <time>2020-06-24T19:32:44Z</time>
      </trkpt>
      <trkpt lat="49.98315" lon="4.33568">
        <ele>320.1</ele>
        <time>2020-06-24T19:32:45Z</time>
      </trkpt>
      <trkpt lat="49.98314" lon="4.33563">
        <ele>320.1</ele>
        <time>2020-06-24T19:32:46Z</time>
      </trkpt>
      <trkpt lat="49.98313" lon="4.33557">
        <ele>320</ele>
        <time>2020-06-24T19:32:47Z</time>
      </trkpt>
      <trkpt lat="49.98313" lon="4.33555">
        <ele>320</ele>
        <time>2020-06-24T19:32:48Z</time>
      </trkpt>
      <trkpt lat="49.98314" lon="4.3355">
        <ele>320</ele>
        <time>2020-06-24T19:32:49Z</time>
      </trkpt>
      <trkpt lat="49.98315" lon="4.33548">
        <ele>320</ele>
        <time>2020-06-24T19:32:50Z</time>
      </trkpt>
      <trkpt lat="49.98315" lon="4.33546">
        <ele>319.9</ele>
        <time>2020-06-24T19:32:51Z</time>
      </trkpt>
      <trkpt lat="49.98315" lon="4.33544">
        <ele>319.9</ele>
        <time>2020-06-24T19:32:52Z</time>
      </trkpt>
      <trkpt lat="49.98316" lon="4.33541">
        <ele>319.9</ele>
        <time>2020-06-24T19:32:53Z</time>
      </trkpt>
      <trkpt lat="49.98316" lon="4.33539">
        <ele>319.9</ele>
        <time>2020-06-24T19:32:54Z</time>
      </trkpt>
      <trkpt lat="49.98316" lon="4.33535">
        <ele>319.9</ele>
        <time>2020-06-24T19:32:55Z</time>
      </trkpt>
      <trkpt lat="49.98316" lon="4.3353">
        <ele>319.8</ele>
        <time>2020-06-24T19:32:56Z</time>
      </trkpt>
      <trkpt lat="49.98315" lon="4.33528">
        <ele>319.8</ele>
        <time>2020-06-24T19:32:57Z</time>
      </trkpt>
      <trkpt lat="49.98315" lon="4.33524">
        <ele>319.8</ele>
        <time>2020-06-24T19:32:58Z</time>
      </trkpt>
      <trkpt lat="49.98315" lon="4.33522">
        <ele>319.8</ele>
        <time>2020-06-24T19:32:59Z</time>
      </trkpt>
      <trkpt lat="49.98314" lon="4.33519">
        <ele>319.8</ele>
        <time>2020-06-24T19:33:00Z</time>
      </trkpt>
      <trkpt lat="49.98313" lon="4.33517">
        <ele>319.8</ele>
        <time>2020-06-24T19:33:01Z</time>
      </trkpt>
      <trkpt lat="49.98312" lon="4.33514">
        <ele>319.8</ele>
        <time>2020-06-24T19:33:02Z</time>
      </trkpt>
      <trkpt lat="49.98311" lon="4.33507">
        <ele>319.8</ele>
        <time>2020-06-24T19:33:03Z</time>
      </trkpt>
      <trkpt lat="49.9831" lon="4.33503">
        <ele>319.8</ele>
        <time>2020-06-24T19:33:04Z</time>
      </trkpt>
      <trkpt lat="49.98309" lon="4.33494">
        <ele>319.7</ele>
        <time>2020-06-24T19:33:05Z</time>
      </trkpt>
      <trkpt lat="49.98309" lon="4.33484">
        <ele>319.7</ele>
        <time>2020-06-24T19:33:06Z</time>
      </trkpt>
      <trkpt lat="49.98308" lon="4.33477">
        <ele>319.7</ele>
        <time>2020-06-24T19:33:07Z</time>
      </trkpt>
      <trkpt lat="49.98306" lon="4.33471">
        <ele>319.7</ele>
        <time>2020-06-24T19:33:08Z</time>
      </trkpt>
      <trkpt lat="49.98306" lon="4.3346">
        <ele>319.7</ele>
        <time>2020-06-24T19:33:09Z</time>
      </trkpt>
      <trkpt lat="49.98304" lon="4.33451">
        <ele>319.7</ele>
        <time>2020-06-24T19:33:10Z</time>
      </trkpt>
      <trkpt lat="49.98302" lon="4.33441">
        <ele>319.6</ele>
        <time>2020-06-24T19:33:11Z</time>
      </trkpt>
      <trkpt lat="49.983" lon="4.33432">
        <ele>319.6</ele>
        <time>2020-06-24T19:33:12Z</time>
      </trkpt>
      <trkpt lat="49.983" lon="4.33425">
        <ele>319.6</ele>
        <time>2020-06-24T19:33:13Z</time>
      </trkpt>
      <trkpt lat="49.98299" lon="4.33418">
        <ele>319.6</ele>
        <time>2020-06-24T19:33:14Z</time>
      </trkpt>
      <trkpt lat="49.98299" lon="4.33409">
        <ele>319.7</ele>
        <time>2020-06-24T19:33:15Z</time>
      </trkpt>
      <trkpt lat="49.98298" lon="4.33401">
        <ele>319.7</ele>
        <time>2020-06-24T19:33:16Z</time>
      </trkpt>
      <trkpt lat="49.98298" lon="4.33388">
        <ele>319.7</ele>
        <time>2020-06-24T19:33:17Z</time>
      </trkpt>
      <trkpt lat="49.98297" lon="4.33366">
        <ele>319.7</ele>
        <time>2020-06-24T19:33:18Z</time>
      </trkpt>
      <trkpt lat="49.98295" lon="4.33347">
        <ele>319.7</ele>
        <time>2020-06-24T19:33:19Z</time>
      </trkpt>
      <trkpt lat="49.98294" lon="4.33326">
        <ele>319.8</ele>
        <time>2020-06-24T19:33:20Z</time>
      </trkpt>
      <trkpt lat="49.98294" lon="4.33316">
        <ele>319.8</ele>
        <time>2020-06-24T19:33:21Z</time>
      </trkpt>
      <trkpt lat="49.98293" lon="4.33308">
        <ele>319.8</ele>
        <time>2020-06-24T19:33:22Z</time>
      </trkpt>
      <trkpt lat="49.98293" lon="4.33299">
        <ele>319.8</ele>
        <time>2020-06-24T19:33:23Z</time>
      </trkpt>
      <trkpt lat="49.98295" lon="4.33292">
        <ele>319.8</ele>
        <time>2020-06-24T19:33:24Z</time>
      </trkpt>
      <trkpt lat="49.98294" lon="4.33285">
        <ele>319.8</ele>
        <time>2020-06-24T19:33:25Z</time>
      </trkpt>
      <trkpt lat="49.98293" lon="4.33275">
        <ele>319.7</ele>
        <time>2020-06-24T19:33:26Z</time>
      </trkpt>
      <trkpt lat="49.98293" lon="4.33267">
        <ele>319.7</ele>
        <time>2020-06-24T19:33:27Z</time>
      </trkpt>
      <trkpt lat="49.98293" lon="4.3326">
        <ele>319.7</ele>
        <time>2020-06-24T19:33:28Z</time>
      </trkpt>
      <trkpt lat="49.98292" lon="4.33252">
        <ele>319.6</ele>
        <time>2020-06-24T19:33:29Z</time>
      </trkpt>
      <trkpt lat="49.98292" lon="4.33245">
        <ele>319.6</ele>
        <time>2020-06-24T19:33:30Z</time>
      </trkpt>
      <trkpt lat="49.98291" lon="4.33237">
        <ele>319.5</ele>
        <time>2020-06-24T19:33:31Z</time>
      </trkpt>
      <trkpt lat="49.98291" lon="4.33229">
        <ele>319.5</ele>
        <time>2020-06-24T19:33:32Z</time>
      </trkpt>
      <trkpt lat="49.98291" lon="4.33221">
        <ele>319.4</ele>
        <time>2020-06-24T19:33:33Z</time>
      </trkpt>
      <trkpt lat="49.9829" lon="4.33213">
        <ele>319.3</ele>
        <time>2020-06-24T19:33:34Z</time>
      </trkpt>
      <trkpt lat="49.9829" lon="4.33204">
        <ele>319.3</ele>
        <time>2020-06-24T19:33:35Z</time>
      </trkpt>
      <trkpt lat="49.98289" lon="4.33195">
        <ele>319.2</ele>
        <time>2020-06-24T19:33:36Z</time>
      </trkpt>
      <trkpt lat="49.98289" lon="4.33187">
        <ele>319.2</ele>
        <time>2020-06-24T19:33:37Z</time>
      </trkpt>
      <trkpt lat="49.98288" lon="4.33181">
        <ele>319.1</ele>
        <time>2020-06-24T19:33:38Z</time>
      </trkpt>
      <trkpt lat="49.98288" lon="4.33174">
        <ele>319.1</ele>
        <time>2020-06-24T19:33:39Z</time>
      </trkpt>
      <trkpt lat="49.98287" lon="4.33167">
        <ele>319.1</ele>
        <time>2020-06-24T19:33:40Z</time>
      </trkpt>
      <trkpt lat="49.98287" lon="4.33161">
        <ele>319</ele>
        <time>2020-06-24T19:33:41Z</time>
      </trkpt>
      <trkpt lat="49.98287" lon="4.33152">
        <ele>318.9</ele>
        <time>2020-06-24T19:33:42Z</time>
      </trkpt>
      <trkpt lat="49.98287" lon="4.33145">
        <ele>318.9</ele>
        <time>2020-06-24T19:33:43Z</time>
      </trkpt>
      <trkpt lat="49.98287" lon="4.33137">
        <ele>318.8</ele>
        <time>2020-06-24T19:33:44Z</time>
      </trkpt>
      <trkpt lat="49.98287" lon="4.3313">
        <ele>318.8</ele>
        <time>2020-06-24T19:33:45Z</time>
      </trkpt>
      <trkpt lat="49.98286" lon="4.33123">
        <ele>318.7</ele>
        <time>2020-06-24T19:33:46Z</time>
      </trkpt>
      <trkpt lat="49.98286" lon="4.33115">
        <ele>318.7</ele>
        <time>2020-06-24T19:33:47Z</time>
      </trkpt>
      <trkpt lat="49.98285" lon="4.33107">
        <ele>318.6</ele>
        <time>2020-06-24T19:33:48Z</time>
      </trkpt>
      <trkpt lat="49.98285" lon="4.33099">
        <ele>318.6</ele>
        <time>2020-06-24T19:33:49Z</time>
      </trkpt>
      <trkpt lat="49.98284" lon="4.33092">
        <ele>318.5</ele>
        <time>2020-06-24T19:33:50Z</time>
      </trkpt>
      <trkpt lat="49.98284" lon="4.33085">
        <ele>318.5</ele>
        <time>2020-06-24T19:33:51Z</time>
      </trkpt>
      <trkpt lat="49.98284" lon="4.33078">
        <ele>318.5</ele>
        <time>2020-06-24T19:33:52Z</time>
      </trkpt>
      <trkpt lat="49.98283" lon="4.3307">
        <ele>318.4</ele>
        <time>2020-06-24T19:33:53Z</time>
      </trkpt>
      <trkpt lat="49.98283" lon="4.33064">
        <ele>318.4</ele>
        <time>2020-06-24T19:33:54Z</time>
      </trkpt>
      <trkpt lat="49.98282" lon="4.33056">
        <ele>318.3</ele>
        <time>2020-06-24T19:33:55Z</time>
      </trkpt>
      <trkpt lat="49.98282" lon="4.33048">
        <ele>318.3</ele>
        <time>2020-06-24T19:33:56Z</time>
      </trkpt>
      <trkpt lat="49.98281" lon="4.33041">
        <ele>318.3</ele>
        <time>2020-06-24T19:33:57Z</time>
      </trkpt>
      <trkpt lat="49.98281" lon="4.33034">
        <ele>318.3</ele>
        <time>2020-06-24T19:33:58Z</time>
      </trkpt>
      <trkpt lat="49.9828" lon="4.33026">
        <ele>318.3</ele>
        <time>2020-06-24T19:33:59Z</time>
      </trkpt>
      <trkpt lat="49.9828" lon="4.33019">
        <ele>318.3</ele>
        <time>2020-06-24T19:34:00Z</time>
      </trkpt>
      <trkpt lat="49.98279" lon="4.33012">
        <ele>318.2</ele>
        <time>2020-06-24T19:34:01Z</time>
      </trkpt>
      <trkpt lat="49.98278" lon="4.33005">
        <ele>318.2</ele>
        <time>2020-06-24T19:34:02Z</time>
      </trkpt>
      <trkpt lat="49.98278" lon="4.32999">
        <ele>318.1</ele>
        <time>2020-06-24T19:34:03Z</time>
      </trkpt>
      <trkpt lat="49.98277" lon="4.32993">
        <ele>318.1</ele>
        <time>2020-06-24T19:34:04Z</time>
      </trkpt>
      <trkpt lat="49.98277" lon="4.32988">
        <ele>318.1</ele>
        <time>2020-06-24T19:34:05Z</time>
      </trkpt>
      <trkpt lat="49.98277" lon="4.32983">
        <ele>318</ele>
        <time>2020-06-24T19:34:06Z</time>
      </trkpt>
      <trkpt lat="49.98276" lon="4.32979">
        <ele>318</ele>
        <time>2020-06-24T19:34:07Z</time>
      </trkpt>
      <trkpt lat="49.98276" lon="4.32978">
        <ele>318</ele>
        <time>2020-06-24T19:34:08Z</time>
      </trkpt>
      <trkpt lat="49.98275" lon="4.32977">
        <ele>318</ele>
        <time>2020-06-24T19:34:09Z</time>
      </trkpt>
      <trkpt lat="49.98274" lon="4.32977">
        <ele>318</ele>
        <time>2020-06-24T19:34:10Z</time>
      </trkpt>
      <trkpt lat="49.98272" lon="4.32978">
        <ele>318</ele>
        <time>2020-06-24T19:34:11Z</time>
      </trkpt>
      <trkpt lat="49.98271" lon="4.3298">
        <ele>318</ele>
        <time>2020-06-24T19:34:12Z</time>
      </trkpt>
      <trkpt lat="49.9827" lon="4.32982">
        <ele>318.1</ele>
        <time>2020-06-24T19:34:13Z</time>
      </trkpt>
      <trkpt lat="49.98269" lon="4.32984">
        <ele>318.1</ele>
        <time>2020-06-24T19:34:14Z</time>
      </trkpt>
      <trkpt lat="49.98268" lon="4.32985">
        <ele>318.1</ele>
        <time>2020-06-24T19:34:15Z</time>
      </trkpt>
      <trkpt lat="49.98268" lon="4.32986">
        <ele>318.1</ele>
        <time>2020-06-24T19:34:16Z</time>
      </trkpt>
      <trkpt lat="49.98267" lon="4.32987">
        <ele>318.1</ele>
        <time>2020-06-24T19:34:17Z</time>
      </trkpt>
      <trkpt lat="49.98266" lon="4.32988">
        <ele>318.1</ele>
        <time>2020-06-24T19:34:18Z</time>
      </trkpt>
      <trkpt lat="49.98265" lon="4.32989">
        <ele>318.1</ele>
        <time>2020-06-24T19:34:19Z</time>
      </trkpt>
      <trkpt lat="49.98265" lon="4.32989">
        <ele>318.1</ele>
        <time>2020-06-24T19:34:20Z</time>
      </trkpt>
      <trkpt lat="49.98264" lon="4.3299">
        <ele>318.1</ele>
        <time>2020-06-24T19:34:21Z</time>
      </trkpt>
      <trkpt lat="49.98263" lon="4.32991">
        <ele>318.1</ele>
        <time>2020-06-24T19:34:22Z</time>
      </trkpt>
      <trkpt lat="49.98263" lon="4.32992">
        <ele>318.1</ele>
        <time>2020-06-24T19:34:23Z</time>
      </trkpt>
      <trkpt lat="49.98263" lon="4.32992">
        <ele>318.1</ele>
        <time>2020-06-24T19:34:24Z</time>
      </trkpt>
      <trkpt lat="49.98262" lon="4.32992">
        <ele>318.1</ele>
        <time>2020-06-24T19:34:25Z</time>
      </trkpt>
      <trkpt lat="49.98262" lon="4.32992">
        <ele>318.1</ele>
        <time>2020-06-24T19:34:26Z</time>
      </trkpt>
      <trkpt lat="49.98262" lon="4.32992">
        <ele>318.1</ele>
        <time>2020-06-24T19:34:27Z</time>
      </trkpt>
      <trkpt lat="49.98262" lon="4.32992">
        <ele>318.1</ele>
        <time>2020-06-24T19:34:28Z</time>
      </trkpt>
      <trkpt lat="49.98261" lon="4.32993">
        <ele>318.1</ele>
        <time>2020-06-24T19:34:29Z</time>
      </trkpt>
      <trkpt lat="49.9826" lon="4.32994">
        <ele>318.1</ele>
        <time>2020-06-24T19:34:30Z</time>
      </trkpt>
      <trkpt lat="49.9826" lon="4.32994">
        <ele>318.1</ele>
        <time>2020-06-24T19:34:31Z</time>
      </trkpt>
      <trkpt lat="49.98259" lon="4.32995">
        <ele>318.1</ele>
        <time>2020-06-24T19:34:32Z</time>
      </trkpt>
      <trkpt lat="49.98259" lon="4.32995">
        <ele>318.1</ele>
        <time>2020-06-24T19:34:33Z</time>
      </trkpt>
      <trkpt lat="49.98258" lon="4.32996">
        <ele>318.1</ele>
        <time>2020-06-24T19:34:34Z</time>
      </trkpt>
      <trkpt lat="49.98258" lon="4.32996">
        <ele>318.1</ele>
        <time>2020-06-24T19:34:35Z</time>
      </trkpt>
      <trkpt lat="49.98258" lon="4.32996">
        <ele>318.1</ele>
        <time>2020-06-24T19:34:36Z</time>
      </trkpt>
      <trkpt lat="49.98258" lon="4.32996">
        <ele>318.1</ele>
        <time>2020-06-24T19:34:37Z</time>
      </trkpt>
      <trkpt lat="49.98257" lon="4.32997">
        <ele>318.1</ele>
        <time>2020-06-24T19:34:38Z</time>
      </trkpt>
      <trkpt lat="49.98257" lon="4.32997">
        <ele>318.1</ele>
        <time>2020-06-24T19:34:39Z</time>
      </trkpt>
      <trkpt lat="49.98257" lon="4.32997">
        <ele>318.1</ele>
        <time>2020-06-24T19:34:40Z</time>
      </trkpt>
      <trkpt lat="49.98257" lon="4.32996">
        <ele>318.1</ele>
        <time>2020-06-24T19:34:41Z</time>
      </trkpt>
      <trkpt lat="49.98257" lon="4.32995">
        <ele>318.1</ele>
        <time>2020-06-24T19:34:42Z</time>
      </trkpt>
      <trkpt lat="49.98257" lon="4.32996">
        <ele>318.1</ele>
        <time>2020-06-24T19:34:43Z</time>
      </trkpt>
      <trkpt lat="49.98256" lon="4.32995">
        <ele>318.1</ele>
        <time>2020-06-24T19:34:44Z</time>
      </trkpt>
      <trkpt lat="49.98256" lon="4.32995">
        <ele>318.1</ele>
        <time>2020-06-24T19:34:45Z</time>
      </trkpt>
      <trkpt lat="49.98255" lon="4.32995">
        <ele>318.1</ele>
        <time>2020-06-24T19:34:46Z</time>
      </trkpt>
      <trkpt lat="49.98255" lon="4.32995">
        <ele>318.1</ele>
        <time>2020-06-24T19:34:47Z</time>
      </trkpt>
      <trkpt lat="49.98254" lon="4.32996">
        <ele>318.1</ele>
        <time>2020-06-24T19:34:48Z</time>
      </trkpt>
      <trkpt lat="49.98254" lon="4.32996">
        <ele>318.1</ele>
        <time>2020-06-24T19:34:49Z</time>
      </trkpt>
      <trkpt lat="49.98253" lon="4.32997">
        <ele>318.1</ele>
        <time>2020-06-24T19:34:50Z</time>
      </trkpt>
      <trkpt lat="49.98253" lon="4.32998">
        <ele>318.1</ele>
        <time>2020-06-24T19:34:51Z</time>
      </trkpt>
      <trkpt lat="49.98253" lon="4.33">
        <ele>318.1</ele>
        <time>2020-06-24T19:34:52Z</time>
      </trkpt>
      <trkpt lat="49.98252" lon="4.33002">
        <ele>318.1</ele>
        <time>2020-06-24T19:34:53Z</time>
      </trkpt>
      <trkpt lat="49.98251" lon="4.33002">
        <ele>318.1</ele>
        <time>2020-06-24T19:34:54Z</time>
      </trkpt>
      <trkpt lat="49.98251" lon="4.33003">
        <ele>318.1</ele>
        <time>2020-06-24T19:34:55Z</time>
      </trkpt>
      <trkpt lat="49.98251" lon="4.33003">
        <ele>318.1</ele>
        <time>2020-06-24T19:34:56Z</time>
      </trkpt>
      <trkpt lat="49.98251" lon="4.33002">
        <ele>318.1</ele>
        <time>2020-06-24T19:34:57Z</time>
      </trkpt>
      <trkpt lat="49.98251" lon="4.33002">
        <ele>318.1</ele>
        <time>2020-06-24T19:34:58Z</time>
      </trkpt>
      <trkpt lat="49.9825" lon="4.33001">
        <ele>318.1</ele>
        <time>2020-06-24T19:34:59Z</time>
      </trkpt>
      <trkpt lat="49.98251" lon="4.33">
        <ele>318.1</ele>
        <time>2020-06-24T19:35:00Z</time>
      </trkpt>
      <trkpt lat="49.98251" lon="4.33001">
        <ele>318.1</ele>
        <time>2020-06-24T19:35:01Z</time>
      </trkpt>
      <trkpt lat="49.98251" lon="4.33001">
        <ele>318.1</ele>
        <time>2020-06-24T19:35:02Z</time>
      </trkpt>
      <trkpt lat="49.9825" lon="4.33001">
        <ele>318.1</ele>
        <time>2020-06-24T19:35:03Z</time>
      </trkpt>
      <trkpt lat="49.9825" lon="4.33">
        <ele>318.1</ele>
        <time>2020-06-24T19:35:04Z</time>
      </trkpt>
      <trkpt lat="49.9825" lon="4.33">
        <ele>318.1</ele>
        <time>2020-06-24T19:35:05Z</time>
      </trkpt>
      <trkpt lat="49.98251" lon="4.32999">
        <ele>318.1</ele>
        <time>2020-06-24T19:35:06Z</time>
      </trkpt>
      <trkpt lat="49.98252" lon="4.32999">
        <ele>318.1</ele>
        <time>2020-06-24T19:35:07Z</time>
      </trkpt>
      <trkpt lat="49.98252" lon="4.32999">
        <ele>318.1</ele>
        <time>2020-06-24T19:35:08Z</time>
      </trkpt>
      <trkpt lat="49.98253" lon="4.32999">
        <ele>318.1</ele>
        <time>2020-06-24T19:35:09Z</time>
      </trkpt>
      <trkpt lat="49.98253" lon="4.32999">
        <ele>318.1</ele>
        <time>2020-06-24T19:35:10Z</time>
      </trkpt>
      <trkpt lat="49.98254" lon="4.32999">
        <ele>318.1</ele>
        <time>2020-06-24T19:35:11Z</time>
      </trkpt>
      <trkpt lat="49.98255" lon="4.33">
        <ele>318.1</ele>
        <time>2020-06-24T19:35:12Z</time>
      </trkpt>
      <trkpt lat="49.98256" lon="4.32999">
        <ele>318.1</ele>
        <time>2020-06-24T19:35:13Z</time>
      </trkpt>
      <trkpt lat="49.98257" lon="4.32997">
        <ele>318.1</ele>
        <time>2020-06-24T19:35:14Z</time>
      </trkpt>
      <trkpt lat="49.98258" lon="4.32997">
        <ele>318.1</ele>
        <time>2020-06-24T19:35:15Z</time>
      </trkpt>
      <trkpt lat="49.98259" lon="4.32997">
        <ele>318.1</ele>
        <time>2020-06-24T19:35:16Z</time>
      </trkpt>
      <trkpt lat="49.9826" lon="4.32997">
        <ele>318.1</ele>
        <time>2020-06-24T19:35:17Z</time>
      </trkpt>
      <trkpt lat="49.9826" lon="4.32997">
        <ele>318.1</ele>
        <time>2020-06-24T19:35:18Z</time>
      </trkpt>
      <trkpt lat="49.9826" lon="4.32997">
        <ele>318.1</ele>
        <time>2020-06-24T19:35:19Z</time>
      </trkpt>
      <trkpt lat="49.9826" lon="4.32997">
        <ele>318.1</ele>
        <time>2020-06-24T19:35:20Z</time>
      </trkpt>
      <trkpt lat="49.9826" lon="4.32997">
        <ele>318.1</ele>
        <time>2020-06-24T19:35:21Z</time>
      </trkpt>
      <trkpt lat="49.9826" lon="4.32997">
        <ele>318.1</ele>
        <time>2020-06-24T19:35:22Z</time>
      </trkpt>
      <trkpt lat="49.9826" lon="4.32997">
        <ele>318.1</ele>
        <time>2020-06-24T19:35:23Z</time>
      </trkpt>
      <trkpt lat="49.9826" lon="4.32997">
        <ele>318.1</ele>
        <time>2020-06-24T19:35:24Z</time>
      </trkpt>
      <trkpt lat="49.9826" lon="4.32997">
        <ele>318.1</ele>
        <time>2020-06-24T19:35:25Z</time>
      </trkpt>
      <trkpt lat="49.9826" lon="4.32997">
        <ele>318.1</ele>
        <time>2020-06-24T19:35:26Z</time>
      </trkpt>
      <trkpt lat="49.98261" lon="4.3299">
        <ele>318.2</ele>
        <time>2020-06-24T19:35:35Z</time>
      </trkpt>
      <trkpt lat="49.98261" lon="4.32989">
        <ele>318.2</ele>
        <time>2020-06-24T19:35:36Z</time>
      </trkpt>
      <trkpt lat="49.98261" lon="4.32988">
        <ele>318.2</ele>
        <time>2020-06-24T19:35:37Z</time>
      </trkpt>
      <trkpt lat="49.98262" lon="4.32987">
        <ele>318.2</ele>
        <time>2020-06-24T19:35:38Z</time>
      </trkpt>
      <trkpt lat="49.98262" lon="4.32986">
        <ele>318.2</ele>
        <time>2020-06-24T19:35:39Z</time>
      </trkpt>
      <trkpt lat="49.98262" lon="4.32986">
        <ele>318.2</ele>
        <time>2020-06-24T19:35:40Z</time>
      </trkpt>
      <trkpt lat="49.98262" lon="4.32986">
        <ele>318.2</ele>
        <time>2020-06-24T19:35:41Z</time>
      </trkpt>
      <trkpt lat="49.98262" lon="4.32986">
        <ele>318.2</ele>
        <time>2020-06-24T19:35:42Z</time>
      </trkpt>
      <trkpt lat="49.98261" lon="4.32988">
        <ele>318.2</ele>
        <time>2020-06-24T19:35:43Z</time>
      </trkpt>
      <trkpt lat="49.98262" lon="4.32988">
        <ele>318.2</ele>
        <time>2020-06-24T19:35:44Z</time>
      </trkpt>
      <trkpt lat="49.98261" lon="4.3299">
        <ele>318.2</ele>
        <time>2020-06-24T19:35:45Z</time>
      </trkpt>
      <trkpt lat="49.98261" lon="4.32991">
        <ele>318.2</ele>
        <time>2020-06-24T19:35:46Z</time>
      </trkpt>
      <trkpt lat="49.98255" lon="4.32992">
        <ele>318.2</ele>
        <time>2020-06-24T19:35:54Z</time>
      </trkpt>
      <trkpt lat="49.98253" lon="4.32992">
        <ele>318.2</ele>
        <time>2020-06-24T19:35:55Z</time>
      </trkpt>
      <trkpt lat="49.98252" lon="4.32992">
        <ele>318.2</ele>
        <time>2020-06-24T19:35:56Z</time>
      </trkpt>
      <trkpt lat="49.98251" lon="4.32992">
        <ele>318.2</ele>
        <time>2020-06-24T19:35:57Z</time>
      </trkpt>
      <trkpt lat="49.9825" lon="4.32991">
        <ele>318.2</ele>
        <time>2020-06-24T19:35:58Z</time>
      </trkpt>
      <trkpt lat="49.9825" lon="4.32991">
        <ele>318.2</ele>
        <time>2020-06-24T19:35:59Z</time>
      </trkpt>
      <trkpt lat="49.98249" lon="4.32992">
        <ele>318.2</ele>
        <time>2020-06-24T19:36:00Z</time>
      </trkpt>
      <trkpt lat="49.98248" lon="4.32992">
        <ele>318.2</ele>
        <time>2020-06-24T19:36:01Z</time>
      </trkpt>
      <trkpt lat="49.98248" lon="4.32993">
        <ele>318.2</ele>
        <time>2020-06-24T19:36:02Z</time>
      </trkpt>
      <trkpt lat="49.98246" lon="4.32993">
        <ele>318.2</ele>
        <time>2020-06-24T19:36:03Z</time>
      </trkpt>
      <trkpt lat="49.98246" lon="4.32993">
        <ele>318.2</ele>
        <time>2020-06-24T19:36:04Z</time>
      </trkpt>
      <trkpt lat="49.98245" lon="4.32992">
        <ele>318.2</ele>
        <time>2020-06-24T19:36:05Z</time>
      </trkpt>
      <trkpt lat="49.98243" lon="4.32994">
        <ele>318.2</ele>
        <time>2020-06-24T19:36:06Z</time>
      </trkpt>
      <trkpt lat="49.98242" lon="4.32994">
        <ele>318.2</ele>
        <time>2020-06-24T19:36:07Z</time>
      </trkpt>
      <trkpt lat="49.9824" lon="4.32997">
        <ele>318.2</ele>
        <time>2020-06-24T19:36:08Z</time>
      </trkpt>
      <trkpt lat="49.98239" lon="4.32997">
        <ele>318.2</ele>
        <time>2020-06-24T19:36:09Z</time>
      </trkpt>
      <trkpt lat="49.98237" lon="4.32998">
        <ele>318.2</ele>
        <time>2020-06-24T19:36:10Z</time>
      </trkpt>
      <trkpt lat="49.98235" lon="4.32999">
        <ele>318.2</ele>
        <time>2020-06-24T19:36:11Z</time>
      </trkpt>
      <trkpt lat="49.98234" lon="4.32999">
        <ele>318.2</ele>
        <time>2020-06-24T19:36:12Z</time>
      </trkpt>
      <trkpt lat="49.98233" lon="4.33">
        <ele>318.2</ele>
        <time>2020-06-24T19:36:13Z</time>
      </trkpt>
      <trkpt lat="49.98231" lon="4.33001">
        <ele>318.2</ele>
        <time>2020-06-24T19:36:14Z</time>
      </trkpt>
      <trkpt lat="49.9823" lon="4.33002">
        <ele>318.2</ele>
        <time>2020-06-24T19:36:15Z</time>
      </trkpt>
      <trkpt lat="49.98229" lon="4.33003">
        <ele>318.2</ele>
        <time>2020-06-24T19:36:16Z</time>
      </trkpt>
      <trkpt lat="49.98227" lon="4.33003">
        <ele>318.2</ele>
        <time>2020-06-24T19:36:17Z</time>
      </trkpt>
      <trkpt lat="49.98226" lon="4.33003">
        <ele>318.2</ele>
        <time>2020-06-24T19:36:18Z</time>
      </trkpt>
      <trkpt lat="49.98224" lon="4.33004">
        <ele>318.2</ele>
        <time>2020-06-24T19:36:19Z</time>
      </trkpt>
      <trkpt lat="49.98223" lon="4.33004">
        <ele>318.2</ele>
        <time>2020-06-24T19:36:20Z</time>
      </trkpt>
      <trkpt lat="49.98221" lon="4.33004">
        <ele>318.2</ele>
        <time>2020-06-24T19:36:21Z</time>
      </trkpt>
      <trkpt lat="49.9822" lon="4.33003">
        <ele>318.2</ele>
        <time>2020-06-24T19:36:22Z</time>
      </trkpt>
      <trkpt lat="49.98218" lon="4.33002">
        <ele>318.3</ele>
        <time>2020-06-24T19:36:23Z</time>
      </trkpt>
      <trkpt lat="49.98217" lon="4.33">
        <ele>318.3</ele>
        <time>2020-06-24T19:36:24Z</time>
      </trkpt>
      <trkpt lat="49.98217" lon="4.32999">
        <ele>318.3</ele>
        <time>2020-06-24T19:36:25Z</time>
      </trkpt>
      <trkpt lat="49.98216" lon="4.32998">
        <ele>318.3</ele>
        <time>2020-06-24T19:36:26Z</time>
      </trkpt>
      <trkpt lat="49.98214" lon="4.32997">
        <ele>318.3</ele>
        <time>2020-06-24T19:36:27Z</time>
      </trkpt>
      <trkpt lat="49.98214" lon="4.32997">
        <ele>318.3</ele>
        <time>2020-06-24T19:36:28Z</time>
      </trkpt>
      <trkpt lat="49.98213" lon="4.32997">
        <ele>318.3</ele>
        <time>2020-06-24T19:36:29Z</time>
      </trkpt>
      <trkpt lat="49.98213" lon="4.32997">
        <ele>318.3</ele>
        <time>2020-06-24T19:36:30Z</time>
      </trkpt>
      <trkpt lat="49.98212" lon="4.32996">
        <ele>318.3</ele>
        <time>2020-06-24T19:36:31Z</time>
      </trkpt>
      <trkpt lat="49.98212" lon="4.32996">
        <ele>318.3</ele>
        <time>2020-06-24T19:36:32Z</time>
      </trkpt>
      <trkpt lat="49.98212" lon="4.32996">
        <ele>318.3</ele>
        <time>2020-06-24T19:36:33Z</time>
      </trkpt>
      <trkpt lat="49.98212" lon="4.32996">
        <ele>318.3</ele>
        <time>2020-06-24T19:36:34Z</time>
      </trkpt>
      <trkpt lat="49.98211" lon="4.32996">
        <ele>318.3</ele>
        <time>2020-06-24T19:36:35Z</time>
      </trkpt>
      <trkpt lat="49.98211" lon="4.32996">
        <ele>318.3</ele>
        <time>2020-06-24T19:36:36Z</time>
      </trkpt>
      <trkpt lat="49.98211" lon="4.32996">
        <ele>318.3</ele>
        <time>2020-06-24T19:36:37Z</time>
      </trkpt>
      <trkpt lat="49.9821" lon="4.32996">
        <ele>318.3</ele>
        <time>2020-06-24T19:36:38Z</time>
      </trkpt>
      <trkpt lat="49.98209" lon="4.32995">
        <ele>318.3</ele>
        <time>2020-06-24T19:36:39Z</time>
      </trkpt>
      <trkpt lat="49.98209" lon="4.32995">
        <ele>318.3</ele>
        <time>2020-06-24T19:36:40Z</time>
      </trkpt>
      <trkpt lat="49.98208" lon="4.32995">
        <ele>318.3</ele>
        <time>2020-06-24T19:36:41Z</time>
      </trkpt>
      <trkpt lat="49.98208" lon="4.32995">
        <ele>318.3</ele>
        <time>2020-06-24T19:36:42Z</time>
      </trkpt>
      <trkpt lat="49.98207" lon="4.32995">
        <ele>318.3</ele>
        <time>2020-06-24T19:36:43Z</time>
      </trkpt>
      <trkpt lat="49.98207" lon="4.32994">
        <ele>318.3</ele>
        <time>2020-06-24T19:36:44Z</time>
      </trkpt>
      <trkpt lat="49.98207" lon="4.32994">
        <ele>318.3</ele>
        <time>2020-06-24T19:36:45Z</time>
      </trkpt>
      <trkpt lat="49.98206" lon="4.32993">
        <ele>318.3</ele>
        <time>2020-06-24T19:36:46Z</time>
      </trkpt>
      <trkpt lat="49.98205" lon="4.32993">
        <ele>318.3</ele>
        <time>2020-06-24T19:36:47Z</time>
      </trkpt>
      <trkpt lat="49.98205" lon="4.32993">
        <ele>318.3</ele>
        <time>2020-06-24T19:36:48Z</time>
      </trkpt>
      <trkpt lat="49.98204" lon="4.32992">
        <ele>318.3</ele>
        <time>2020-06-24T19:36:49Z</time>
      </trkpt>
      <trkpt lat="49.98204" lon="4.32992">
        <ele>318.3</ele>
        <time>2020-06-24T19:36:50Z</time>
      </trkpt>
      <trkpt lat="49.98203" lon="4.32992">
        <ele>318.3</ele>
        <time>2020-06-24T19:36:51Z</time>
      </trkpt>
      <trkpt lat="49.98204" lon="4.32991">
        <ele>318.3</ele>
        <time>2020-06-24T19:36:52Z</time>
      </trkpt>
      <trkpt lat="49.98204" lon="4.3299">
        <ele>318.3</ele>
        <time>2020-06-24T19:36:53Z</time>
      </trkpt>
      <trkpt lat="49.98204" lon="4.3299">
        <ele>318.3</ele>
        <time>2020-06-24T19:36:54Z</time>
      </trkpt>
      <trkpt lat="49.98204" lon="4.3299">
        <ele>318.3</ele>
        <time>2020-06-24T19:36:55Z</time>
      </trkpt>
      <trkpt lat="49.98204" lon="4.32991">
        <ele>318.3</ele>
        <time>2020-06-24T19:36:56Z</time>
      </trkpt>
      <trkpt lat="49.98205" lon="4.32991">
        <ele>318.3</ele>
        <time>2020-06-24T19:36:57Z</time>
      </trkpt>
      <trkpt lat="49.98205" lon="4.32991">
        <ele>318.3</ele>
        <time>2020-06-24T19:36:58Z</time>
      </trkpt>
      <trkpt lat="49.98205" lon="4.3299">
        <ele>318.3</ele>
        <time>2020-06-24T19:36:59Z</time>
      </trkpt>
      <trkpt lat="49.98205" lon="4.32992">
        <ele>318.3</ele>
        <time>2020-06-24T19:37:00Z</time>
      </trkpt>
      <trkpt lat="49.98204" lon="4.32992">
        <ele>318.3</ele>
        <time>2020-06-24T19:37:01Z</time>
      </trkpt>
      <trkpt lat="49.98204" lon="4.32993">
        <ele>318.3</ele>
        <time>2020-06-24T19:37:02Z</time>
      </trkpt>
      <trkpt lat="49.98204" lon="4.32993">
        <ele>318.3</ele>
        <time>2020-06-24T19:37:03Z</time>
      </trkpt>
      <trkpt lat="49.98203" lon="4.32993">
        <ele>318.3</ele>
        <time>2020-06-24T19:37:04Z</time>
      </trkpt>
      <trkpt lat="49.98203" lon="4.32993">
        <ele>318.3</ele>
        <time>2020-06-24T19:37:05Z</time>
      </trkpt>
      <trkpt lat="49.98203" lon="4.32993">
        <ele>318.3</ele>
        <time>2020-06-24T19:37:06Z</time>
      </trkpt>
      <trkpt lat="49.98203" lon="4.32993">
        <ele>318.3</ele>
        <time>2020-06-24T19:37:07Z</time>
      </trkpt>
      <trkpt lat="49.98204" lon="4.32993">
        <ele>318.3</ele>
        <time>2020-06-24T19:37:08Z</time>
      </trkpt>
      <trkpt lat="49.98204" lon="4.32994">
        <ele>318.3</ele>
        <time>2020-06-24T19:37:09Z</time>
      </trkpt>
      <trkpt lat="49.98204" lon="4.32993">
        <ele>318.3</ele>
        <time>2020-06-24T19:37:10Z</time>
      </trkpt>
      <trkpt lat="49.98205" lon="4.32994">
        <ele>318.3</ele>
        <time>2020-06-24T19:37:11Z</time>
      </trkpt>
      <trkpt lat="49.98205" lon="4.32995">
        <ele>318.3</ele>
        <time>2020-06-24T19:37:12Z</time>
      </trkpt>
      <trkpt lat="49.98206" lon="4.32995">
        <ele>318.3</ele>
        <time>2020-06-24T19:37:13Z</time>
      </trkpt>
      <trkpt lat="49.98206" lon="4.32995">
        <ele>318.3</ele>
        <time>2020-06-24T19:37:14Z</time>
      </trkpt>
      <trkpt lat="49.98206" lon="4.32995">
        <ele>318.3</ele>
        <time>2020-06-24T19:37:15Z</time>
      </trkpt>
      <trkpt lat="49.98206" lon="4.32995">
        <ele>318.3</ele>
        <time>2020-06-24T19:37:16Z</time>
      </trkpt>
      <trkpt lat="49.98206" lon="4.32995">
        <ele>318.3</ele>
        <time>2020-06-24T19:37:17Z</time>
      </trkpt>
      <trkpt lat="49.98206" lon="4.32996">
        <ele>318.3</ele>
        <time>2020-06-24T19:37:18Z</time>
      </trkpt>
      <trkpt lat="49.98212" lon="4.33005">
        <ele>318.3</ele>
        <time>2020-06-24T19:38:03Z</time>
      </trkpt>
      <trkpt lat="49.98212" lon="4.33005">
        <ele>318.3</ele>
        <time>2020-06-24T19:38:04Z</time>
      </trkpt>
      <trkpt lat="49.98213" lon="4.33004">
        <ele>318.3</ele>
        <time>2020-06-24T19:38:05Z</time>
      </trkpt>
      <trkpt lat="49.98213" lon="4.33004">
        <ele>318.3</ele>
        <time>2020-06-24T19:38:06Z</time>
      </trkpt>
      <trkpt lat="49.98214" lon="4.33004">
        <ele>318.3</ele>
        <time>2020-06-24T19:38:07Z</time>
      </trkpt>
      <trkpt lat="49.98214" lon="4.33004">
        <ele>318.3</ele>
        <time>2020-06-24T19:38:08Z</time>
      </trkpt>
      <trkpt lat="49.98215" lon="4.33004">
        <ele>318.3</ele>
        <time>2020-06-24T19:38:09Z</time>
      </trkpt>
      <trkpt lat="49.98216" lon="4.33004">
        <ele>318.3</ele>
        <time>2020-06-24T19:38:10Z</time>
      </trkpt>
      <trkpt lat="49.98217" lon="4.33004">
        <ele>318.3</ele>
        <time>2020-06-24T19:38:11Z</time>
      </trkpt>
      <trkpt lat="49.98218" lon="4.33004">
        <ele>318.3</ele>
        <time>2020-06-24T19:38:12Z</time>
      </trkpt>
      <trkpt lat="49.98218" lon="4.33005">
        <ele>318.3</ele>
        <time>2020-06-24T19:38:13Z</time>
      </trkpt>
      <trkpt lat="49.9822" lon="4.33006">
        <ele>318.3</ele>
        <time>2020-06-24T19:38:14Z</time>
      </trkpt>
      <trkpt lat="49.98221" lon="4.33006">
        <ele>318.3</ele>
        <time>2020-06-24T19:38:15Z</time>
      </trkpt>
      <trkpt lat="49.98222" lon="4.33006">
        <ele>318.3</ele>
        <time>2020-06-24T19:38:16Z</time>
      </trkpt>
      <trkpt lat="49.98223" lon="4.33005">
        <ele>318.3</ele>
        <time>2020-06-24T19:38:17Z</time>
      </trkpt>
      <trkpt lat="49.98224" lon="4.33005">
        <ele>318.3</ele>
        <time>2020-06-24T19:38:18Z</time>
      </trkpt>
      <trkpt lat="49.98225" lon="4.33004">
        <ele>318.3</ele>
        <time>2020-06-24T19:38:19Z</time>
      </trkpt>
      <trkpt lat="49.98226" lon="4.33004">
        <ele>318.3</ele>
        <time>2020-06-24T19:38:20Z</time>
      </trkpt>
      <trkpt lat="49.98226" lon="4.33003">
        <ele>318.3</ele>
        <time>2020-06-24T19:38:21Z</time>
      </trkpt>
      <trkpt lat="49.98226" lon="4.33003">
        <ele>318.3</ele>
        <time>2020-06-24T19:38:22Z</time>
      </trkpt>
      <trkpt lat="49.98226" lon="4.33003">
        <ele>318.3</ele>
        <time>2020-06-24T19:38:23Z</time>
      </trkpt>
      <trkpt lat="49.98226" lon="4.33003">
        <ele>318.3</ele>
        <time>2020-06-24T19:38:24Z</time>
      </trkpt>
      <trkpt lat="49.98226" lon="4.33003">
        <ele>318.3</ele>
        <time>2020-06-24T19:38:25Z</time>
      </trkpt>
      <trkpt lat="49.98226" lon="4.33003">
        <ele>318.3</ele>
        <time>2020-06-24T19:38:26Z</time>
      </trkpt>
      <trkpt lat="49.98226" lon="4.33002">
        <ele>318.3</ele>
        <time>2020-06-24T19:38:27Z</time>
      </trkpt>
      <trkpt lat="49.98227" lon="4.33002">
        <ele>318.3</ele>
        <time>2020-06-24T19:38:28Z</time>
      </trkpt>
      <trkpt lat="49.98227" lon="4.33001">
        <ele>318.3</ele>
        <time>2020-06-24T19:38:29Z</time>
      </trkpt>
      <trkpt lat="49.98227" lon="4.33001">
        <ele>318.3</ele>
        <time>2020-06-24T19:38:30Z</time>
      </trkpt>
      <trkpt lat="49.98228" lon="4.33001">
        <ele>318.3</ele>
        <time>2020-06-24T19:38:31Z</time>
      </trkpt>
      <trkpt lat="49.98228" lon="4.33001">
        <ele>318.3</ele>
        <time>2020-06-24T19:38:32Z</time>
      </trkpt>
      <trkpt lat="49.98229" lon="4.33001">
        <ele>318.3</ele>
        <time>2020-06-24T19:38:33Z</time>
      </trkpt>
      <trkpt lat="49.98229" lon="4.33001">
        <ele>318.3</ele>
        <time>2020-06-24T19:38:34Z</time>
      </trkpt>
      <trkpt lat="49.98229" lon="4.33001">
        <ele>318.3</ele>
        <time>2020-06-24T19:38:35Z</time>
      </trkpt>
      <trkpt lat="49.98229" lon="4.33001">
        <ele>318.3</ele>
        <time>2020-06-24T19:38:36Z</time>
      </trkpt>
      <trkpt lat="49.98229" lon="4.33001">
        <ele>318.3</ele>
        <time>2020-06-24T19:38:37Z</time>
      </trkpt>
      <trkpt lat="49.98229" lon="4.33001">
        <ele>318.3</ele>
        <time>2020-06-24T19:38:38Z</time>
      </trkpt>
      <trkpt lat="49.98229" lon="4.33001">
        <ele>318.3</ele>
        <time>2020-06-24T19:38:39Z</time>
      </trkpt>
      <trkpt lat="49.98229" lon="4.33001">
        <ele>318.3</ele>
        <time>2020-06-24T19:38:40Z</time>
      </trkpt>
      <trkpt lat="49.9823" lon="4.33001">
        <ele>318.3</ele>
        <time>2020-06-24T19:38:41Z</time>
      </trkpt>
      <trkpt lat="49.9823" lon="4.33001">
        <ele>318.3</ele>
        <time>2020-06-24T19:38:42Z</time>
      </trkpt>
      <trkpt lat="49.98231" lon="4.33001">
        <ele>318.3</ele>
        <time>2020-06-24T19:38:43Z</time>
      </trkpt>
      <trkpt lat="49.98232" lon="4.33">
        <ele>318.3</ele>
        <time>2020-06-24T19:38:44Z</time>
      </trkpt>
      <trkpt lat="49.98232" lon="4.33">
        <ele>318.3</ele>
        <time>2020-06-24T19:38:45Z</time>
      </trkpt>
      <trkpt lat="49.98233" lon="4.33">
        <ele>318.3</ele>
        <time>2020-06-24T19:38:46Z</time>
      </trkpt>
      <trkpt lat="49.98234" lon="4.33001">
        <ele>318.3</ele>
        <time>2020-06-24T19:38:47Z</time>
      </trkpt>
      <trkpt lat="49.98235" lon="4.33001">
        <ele>318.3</ele>
        <time>2020-06-24T19:38:48Z</time>
      </trkpt>
      <trkpt lat="49.98237" lon="4.33">
        <ele>318.3</ele>
        <time>2020-06-24T19:38:49Z</time>
      </trkpt>
      <trkpt lat="49.98237" lon="4.32999">
        <ele>318.3</ele>
        <time>2020-06-24T19:38:50Z</time>
      </trkpt>
      <trkpt lat="49.98239" lon="4.32999">
        <ele>318.3</ele>
        <time>2020-06-24T19:38:51Z</time>
      </trkpt>
      <trkpt lat="49.9824" lon="4.33">
        <ele>318.3</ele>
        <time>2020-06-24T19:38:52Z</time>
      </trkpt>
      <trkpt lat="49.98241" lon="4.32999">
        <ele>318.3</ele>
        <time>2020-06-24T19:38:53Z</time>
      </trkpt>
      <trkpt lat="49.98242" lon="4.32998">
        <ele>318.3</ele>
        <time>2020-06-24T19:38:54Z</time>
      </trkpt>
      <trkpt lat="49.98242" lon="4.32998">
        <ele>318.3</ele>
        <time>2020-06-24T19:38:55Z</time>
      </trkpt>
      <trkpt lat="49.98242" lon="4.32998">
        <ele>318.3</ele>
        <time>2020-06-24T19:38:56Z</time>
      </trkpt>
      <trkpt lat="49.98242" lon="4.32997">
        <ele>318.3</ele>
        <time>2020-06-24T19:38:57Z</time>
      </trkpt>
      <trkpt lat="49.98243" lon="4.32998">
        <ele>318.3</ele>
        <time>2020-06-24T19:38:58Z</time>
      </trkpt>
      <trkpt lat="49.98242" lon="4.32997">
        <ele>318.3</ele>
        <time>2020-06-24T19:38:59Z</time>
      </trkpt>
      <trkpt lat="49.98242" lon="4.32998">
        <ele>318.3</ele>
        <time>2020-06-24T19:39:00Z</time>
      </trkpt>
      <trkpt lat="49.98242" lon="4.32998">
        <ele>318.3</ele>
        <time>2020-06-24T19:39:01Z</time>
      </trkpt>
      <trkpt lat="49.98242" lon="4.32998">
        <ele>318.3</ele>
        <time>2020-06-24T19:39:02Z</time>
      </trkpt>
      <trkpt lat="49.98242" lon="4.32998">
        <ele>318.3</ele>
        <time>2020-06-24T19:39:03Z</time>
      </trkpt>
      <trkpt lat="49.98242" lon="4.32998">
        <ele>318.3</ele>
        <time>2020-06-24T19:39:04Z</time>
      </trkpt>
      <trkpt lat="49.98242" lon="4.32998">
        <ele>318.3</ele>
        <time>2020-06-24T19:39:05Z</time>
      </trkpt>
      <trkpt lat="49.98242" lon="4.32997">
        <ele>318.3</ele>
        <time>2020-06-24T19:39:06Z</time>
      </trkpt>
      <trkpt lat="49.98242" lon="4.32997">
        <ele>318.3</ele>
        <time>2020-06-24T19:39:07Z</time>
      </trkpt>
      <trkpt lat="49.98242" lon="4.32997">
        <ele>318.3</ele>
        <time>2020-06-24T19:39:08Z</time>
      </trkpt>
      <trkpt lat="49.98246" lon="4.32997">
        <ele>318.3</ele>
        <time>2020-06-24T19:39:27Z</time>
      </trkpt>
      <trkpt lat="49.98248" lon="4.32996">
        <ele>318.3</ele>
        <time>2020-06-24T19:39:28Z</time>
      </trkpt>
      <trkpt lat="49.9825" lon="4.32995">
        <ele>318.3</ele>
        <time>2020-06-24T19:39:29Z</time>
      </trkpt>
      <trkpt lat="49.98251" lon="4.32995">
        <ele>318.3</ele>
        <time>2020-06-24T19:39:30Z</time>
      </trkpt>
      <trkpt lat="49.98253" lon="4.32996">
        <ele>318.3</ele>
        <time>2020-06-24T19:39:31Z</time>
      </trkpt>
      <trkpt lat="49.98254" lon="4.32996">
        <ele>318.3</ele>
        <time>2020-06-24T19:39:32Z</time>
      </trkpt>
      <trkpt lat="49.98255" lon="4.32996">
        <ele>318.3</ele>
        <time>2020-06-24T19:39:33Z</time>
      </trkpt>
      <trkpt lat="49.98255" lon="4.32996">
        <ele>318.3</ele>
        <time>2020-06-24T19:39:34Z</time>
      </trkpt>
      <trkpt lat="49.98256" lon="4.32996">
        <ele>318.3</ele>
        <time>2020-06-24T19:39:35Z</time>
      </trkpt>
      <trkpt lat="49.98256" lon="4.32996">
        <ele>318.3</ele>
        <time>2020-06-24T19:39:36Z</time>
      </trkpt>
      <trkpt lat="49.98256" lon="4.32996">
        <ele>318.3</ele>
        <time>2020-06-24T19:39:37Z</time>
      </trkpt>
      <trkpt lat="49.98256" lon="4.32996">
        <ele>318.3</ele>
        <time>2020-06-24T19:39:38Z</time>
      </trkpt>
      <trkpt lat="49.98256" lon="4.32996">
        <ele>318.3</ele>
        <time>2020-06-24T19:39:39Z</time>
      </trkpt>
      <trkpt lat="49.98256" lon="4.32995">
        <ele>318.3</ele>
        <time>2020-06-24T19:39:40Z</time>
      </trkpt>
      <trkpt lat="49.98255" lon="4.32995">
        <ele>318.3</ele>
        <time>2020-06-24T19:39:41Z</time>
      </trkpt>
      <trkpt lat="49.98255" lon="4.32995">
        <ele>318.3</ele>
        <time>2020-06-24T19:39:42Z</time>
      </trkpt>
      <trkpt lat="49.98255" lon="4.32995">
        <ele>318.3</ele>
        <time>2020-06-24T19:39:43Z</time>
      </trkpt>
      <trkpt lat="49.98255" lon="4.32994">
        <ele>318.3</ele>
        <time>2020-06-24T19:39:44Z</time>
      </trkpt>
      <trkpt lat="49.98255" lon="4.32994">
        <ele>318.3</ele>
        <time>2020-06-24T19:39:45Z</time>
      </trkpt>
      <trkpt lat="49.98255" lon="4.32993">
        <ele>318.3</ele>
        <time>2020-06-24T19:39:46Z</time>
      </trkpt>
      <trkpt lat="49.98255" lon="4.33002">
        <ele>318.3</ele>
        <time>2020-06-24T19:40:14Z</time>
      </trkpt>
      <trkpt lat="49.98255" lon="4.33003">
        <ele>318.3</ele>
        <time>2020-06-24T19:40:15Z</time>
      </trkpt>
      <trkpt lat="49.98255" lon="4.33004">
        <ele>318.3</ele>
        <time>2020-06-24T19:40:16Z</time>
      </trkpt>
      <trkpt lat="49.98255" lon="4.33005">
        <ele>318.3</ele>
        <time>2020-06-24T19:40:17Z</time>
      </trkpt>
      <trkpt lat="49.98256" lon="4.33006">
        <ele>318.3</ele>
        <time>2020-06-24T19:40:18Z</time>
      </trkpt>
      <trkpt lat="49.98256" lon="4.33008">
        <ele>318.3</ele>
        <time>2020-06-24T19:40:19Z</time>
      </trkpt>
      <trkpt lat="49.98257" lon="4.33009">
        <ele>318.3</ele>
        <time>2020-06-24T19:40:20Z</time>
      </trkpt>
      <trkpt lat="49.98257" lon="4.3301">
        <ele>318.3</ele>
        <time>2020-06-24T19:40:21Z</time>
      </trkpt>
      <trkpt lat="49.98257" lon="4.3301">
        <ele>318.3</ele>
        <time>2020-06-24T19:40:22Z</time>
      </trkpt>
      <trkpt lat="49.98257" lon="4.33009">
        <ele>318.3</ele>
        <time>2020-06-24T19:40:23Z</time>
      </trkpt>
      <trkpt lat="49.98257" lon="4.33009">
        <ele>318.3</ele>
        <time>2020-06-24T19:40:24Z</time>
      </trkpt>
      <trkpt lat="49.98256" lon="4.33008">
        <ele>318.3</ele>
        <time>2020-06-24T19:40:25Z</time>
      </trkpt>
      <trkpt lat="49.98256" lon="4.33007">
        <ele>318.3</ele>
        <time>2020-06-24T19:40:26Z</time>
      </trkpt>
      <trkpt lat="49.98256" lon="4.33007">
        <ele>318.3</ele>
        <time>2020-06-24T19:40:27Z</time>
      </trkpt>
      <trkpt lat="49.98256" lon="4.33008">
        <ele>318.3</ele>
        <time>2020-06-24T19:40:28Z</time>
      </trkpt>
      <trkpt lat="49.98256" lon="4.33008">
        <ele>318.3</ele>
        <time>2020-06-24T19:40:29Z</time>
      </trkpt>
      <trkpt lat="49.98256" lon="4.33009">
        <ele>318.3</ele>
        <time>2020-06-24T19:40:30Z</time>
      </trkpt>
      <trkpt lat="49.98257" lon="4.33009">
        <ele>318.3</ele>
        <time>2020-06-24T19:40:31Z</time>
      </trkpt>
      <trkpt lat="49.98257" lon="4.3301">
        <ele>318.3</ele>
        <time>2020-06-24T19:40:32Z</time>
      </trkpt>
      <trkpt lat="49.9824" lon="4.33041">
        <ele>318.4</ele>
        <time>2020-06-24T19:40:51Z</time>
      </trkpt>
      <trkpt lat="49.98238" lon="4.33043">
        <ele>318.4</ele>
        <time>2020-06-24T19:40:52Z</time>
      </trkpt>
      <trkpt lat="49.98238" lon="4.33043">
        <ele>318.4</ele>
        <time>2020-06-24T19:40:53Z</time>
      </trkpt>
      <trkpt lat="49.98237" lon="4.33043">
        <ele>318.4</ele>
        <time>2020-06-24T19:40:54Z</time>
      </trkpt>
      <trkpt lat="49.98235" lon="4.33044">
        <ele>318.4</ele>
        <time>2020-06-24T19:40:55Z</time>
      </trkpt>
      <trkpt lat="49.98233" lon="4.33045">
        <ele>318.4</ele>
        <time>2020-06-24T19:40:56Z</time>
      </trkpt>
      <trkpt lat="49.98231" lon="4.33047">
        <ele>318.4</ele>
        <time>2020-06-24T19:40:57Z</time>
      </trkpt>
      <trkpt lat="49.98229" lon="4.33048">
        <ele>318.4</ele>
        <time>2020-06-24T19:40:58Z</time>
      </trkpt>
      <trkpt lat="49.98228" lon="4.33049">
        <ele>318.4</ele>
        <time>2020-06-24T19:40:59Z</time>
      </trkpt>
      <trkpt lat="49.98227" lon="4.3305">
        <ele>318.4</ele>
        <time>2020-06-24T19:41:00Z</time>
      </trkpt>
      <trkpt lat="49.98226" lon="4.33051">
        <ele>318.4</ele>
        <time>2020-06-24T19:41:01Z</time>
      </trkpt>
      <trkpt lat="49.98213" lon="4.33068">
        <ele>318.4</ele>
        <time>2020-06-24T19:41:12Z</time>
      </trkpt>
      <trkpt lat="49.98211" lon="4.33072">
        <ele>318.4</ele>
        <time>2020-06-24T19:41:13Z</time>
      </trkpt>
      <trkpt lat="49.98208" lon="4.33074">
        <ele>318.4</ele>
        <time>2020-06-24T19:41:14Z</time>
      </trkpt>
      <trkpt lat="49.98207" lon="4.33077">
        <ele>318.4</ele>
        <time>2020-06-24T19:41:15Z</time>
      </trkpt>
      <trkpt lat="49.98204" lon="4.3308">
        <ele>318.4</ele>
        <time>2020-06-24T19:41:16Z</time>
      </trkpt>
      <trkpt lat="49.98201" lon="4.33083">
        <ele>318.4</ele>
        <time>2020-06-24T19:41:17Z</time>
      </trkpt>
      <trkpt lat="49.98198" lon="4.33085">
        <ele>318.4</ele>
        <time>2020-06-24T19:41:18Z</time>
      </trkpt>
      <trkpt lat="49.98195" lon="4.33088">
        <ele>318.5</ele>
        <time>2020-06-24T19:41:19Z</time>
      </trkpt>
      <trkpt lat="49.98191" lon="4.33091">
        <ele>318.5</ele>
        <time>2020-06-24T19:41:20Z</time>
      </trkpt>
      <trkpt lat="49.98188" lon="4.33094">
        <ele>318.5</ele>
        <time>2020-06-24T19:41:21Z</time>
      </trkpt>
      <trkpt lat="49.98184" lon="4.33097">
        <ele>318.5</ele>
        <time>2020-06-24T19:41:22Z</time>
      </trkpt>
      <trkpt lat="49.9823" lon="4.3306">
        <ele>318.3</ele>
        <time>2020-06-24T19:41:57Z</time>
      </trkpt>
      <trkpt lat="49.98231" lon="4.33059">
        <ele>318.3</ele>
        <time>2020-06-24T19:41:58Z</time>
      </trkpt>
      <trkpt lat="49.98232" lon="4.33059">
        <ele>318.3</ele>
        <time>2020-06-24T19:41:59Z</time>
      </trkpt>
      <trkpt lat="49.98233" lon="4.3306">
        <ele>318.3</ele>
        <time>2020-06-24T19:42:00Z</time>
      </trkpt>
      <trkpt lat="49.98234" lon="4.33061">
        <ele>318.3</ele>
        <time>2020-06-24T19:42:01Z</time>
      </trkpt>
      <trkpt lat="49.98235" lon="4.33061">
        <ele>318.3</ele>
        <time>2020-06-24T19:42:02Z</time>
      </trkpt>
      <trkpt lat="49.98236" lon="4.33062">
        <ele>318.3</ele>
        <time>2020-06-24T19:42:03Z</time>
      </trkpt>
      <trkpt lat="49.98236" lon="4.3306">
        <ele>318.3</ele>
        <time>2020-06-24T19:42:04Z</time>
      </trkpt>
      <trkpt lat="49.98234" lon="4.33056">
        <ele>318.3</ele>
        <time>2020-06-24T19:42:05Z</time>
      </trkpt>
      <trkpt lat="49.98231" lon="4.33043">
        <ele>318.3</ele>
        <time>2020-06-24T19:42:06Z</time>
      </trkpt>
      <trkpt lat="49.9823" lon="4.33041">
        <ele>318.3</ele>
        <time>2020-06-24T19:42:07Z</time>
      </trkpt>
      <trkpt lat="49.98229" lon="4.33038">
        <ele>318.3</ele>
        <time>2020-06-24T19:42:08Z</time>
      </trkpt>
      <trkpt lat="49.98229" lon="4.33036">
        <ele>318.3</ele>
        <time>2020-06-24T19:42:09Z</time>
      </trkpt>
      <trkpt lat="49.98228" lon="4.33031">
        <ele>318.3</ele>
        <time>2020-06-24T19:42:10Z</time>
      </trkpt>
      <trkpt lat="49.98228" lon="4.33029">
        <ele>318.3</ele>
        <time>2020-06-24T19:42:11Z</time>
      </trkpt>
      <trkpt lat="49.98228" lon="4.33026">
        <ele>318.3</ele>
        <time>2020-06-24T19:42:12Z</time>
      </trkpt>
      <trkpt lat="49.98228" lon="4.33024">
        <ele>318.3</ele>
        <time>2020-06-24T19:42:13Z</time>
      </trkpt>
      <trkpt lat="49.98229" lon="4.3302">
        <ele>318.3</ele>
        <time>2020-06-24T19:42:14Z</time>
      </trkpt>
      <trkpt lat="49.98229" lon="4.33013">
        <ele>318.3</ele>
        <time>2020-06-24T19:42:15Z</time>
      </trkpt>
      <trkpt lat="49.9823" lon="4.3301">
        <ele>318.3</ele>
        <time>2020-06-24T19:42:16Z</time>
      </trkpt>
      <trkpt lat="49.98231" lon="4.33006">
        <ele>318.3</ele>
        <time>2020-06-24T19:42:17Z</time>
      </trkpt>
      <trkpt lat="49.98233" lon="4.33001">
        <ele>318.3</ele>
        <time>2020-06-24T19:42:18Z</time>
      </trkpt>
      <trkpt lat="49.98233" lon="4.33">
        <ele>318.3</ele>
        <time>2020-06-24T19:42:19Z</time>
      </trkpt>
      <trkpt lat="49.98233" lon="4.32999">
        <ele>318.3</ele>
        <time>2020-06-24T19:42:20Z</time>
      </trkpt>
      <trkpt lat="49.98234" lon="4.32999">
        <ele>318.3</ele>
        <time>2020-06-24T19:42:21Z</time>
      </trkpt>
      <trkpt lat="49.98234" lon="4.32998">
        <ele>318.3</ele>
        <time>2020-06-24T19:42:22Z</time>
      </trkpt>
      <trkpt lat="49.98234" lon="4.32998">
        <ele>318.3</ele>
        <time>2020-06-24T19:42:23Z</time>
      </trkpt>
      <trkpt lat="49.98234" lon="4.32998">
        <ele>318.3</ele>
        <time>2020-06-24T19:42:24Z</time>
      </trkpt>
      <trkpt lat="49.98234" lon="4.32998">
        <ele>318.3</ele>
        <time>2020-06-24T19:42:25Z</time>
      </trkpt>
      <trkpt lat="49.98235" lon="4.32998">
        <ele>318.3</ele>
        <time>2020-06-24T19:42:26Z</time>
      </trkpt>
      <trkpt lat="49.98236" lon="4.32998">
        <ele>318.3</ele>
        <time>2020-06-24T19:42:27Z</time>
      </trkpt>
      <trkpt lat="49.98236" lon="4.32998">
        <ele>318.3</ele>
        <time>2020-06-24T19:42:28Z</time>
      </trkpt>
      <trkpt lat="49.98238" lon="4.32998">
        <ele>318.3</ele>
        <time>2020-06-24T19:42:29Z</time>
      </trkpt>
      <trkpt lat="49.98239" lon="4.32999">
        <ele>318.3</ele>
        <time>2020-06-24T19:42:30Z</time>
      </trkpt>
      <trkpt lat="49.98246" lon="4.33004">
        <ele>318.3</ele>
        <time>2020-06-24T19:42:38Z</time>
      </trkpt>
      <trkpt lat="49.98247" lon="4.33005">
        <ele>318.3</ele>
        <time>2020-06-24T19:42:39Z</time>
      </trkpt>
      <trkpt lat="49.98248" lon="4.33006">
        <ele>318.3</ele>
        <time>2020-06-24T19:42:40Z</time>
      </trkpt>
      <trkpt lat="49.98249" lon="4.33007">
        <ele>318.3</ele>
        <time>2020-06-24T19:42:41Z</time>
      </trkpt>
      <trkpt lat="49.98249" lon="4.33008">
        <ele>318.3</ele>
        <time>2020-06-24T19:42:42Z</time>
      </trkpt>
      <trkpt lat="49.9825" lon="4.3301">
        <ele>318.3</ele>
        <time>2020-06-24T19:42:43Z</time>
      </trkpt>
      <trkpt lat="49.98251" lon="4.33011">
        <ele>318.3</ele>
        <time>2020-06-24T19:42:44Z</time>
      </trkpt>
      <trkpt lat="49.98252" lon="4.33011">
        <ele>318.3</ele>
        <time>2020-06-24T19:42:45Z</time>
      </trkpt>
      <trkpt lat="49.98252" lon="4.33011">
        <ele>318.3</ele>
        <time>2020-06-24T19:42:46Z</time>
      </trkpt>
      <trkpt lat="49.98253" lon="4.33011">
        <ele>318.3</ele>
        <time>2020-06-24T19:42:47Z</time>
      </trkpt>
      <trkpt lat="49.98253" lon="4.33011">
        <ele>318.3</ele>
        <time>2020-06-24T19:42:48Z</time>
      </trkpt>
      <trkpt lat="49.98254" lon="4.33011">
        <ele>318.3</ele>
        <time>2020-06-24T19:42:49Z</time>
      </trkpt>
      <trkpt lat="49.98254" lon="4.33011">
        <ele>318.3</ele>
        <time>2020-06-24T19:42:50Z</time>
      </trkpt>
      <trkpt lat="49.98254" lon="4.33011">
        <ele>318.3</ele>
        <time>2020-06-24T19:42:51Z</time>
      </trkpt>
      <trkpt lat="49.98254" lon="4.33011">
        <ele>318.3</ele>
        <time>2020-06-24T19:42:52Z</time>
      </trkpt>
      <trkpt lat="49.98254" lon="4.33011">
        <ele>318.3</ele>
        <time>2020-06-24T19:42:53Z</time>
      </trkpt>
      <trkpt lat="49.98255" lon="4.33011">
        <ele>318.3</ele>
        <time>2020-06-24T19:42:54Z</time>
      </trkpt>
      <trkpt lat="49.98255" lon="4.33011">
        <ele>318.3</ele>
        <time>2020-06-24T19:42:55Z</time>
      </trkpt>
      <trkpt lat="49.98259" lon="4.32989">
        <ele>318.3</ele>
        <time>2020-06-24T19:44:56Z</time>
      </trkpt>
      <trkpt lat="49.98259" lon="4.3299">
        <ele>318.3</ele>
        <time>2020-06-24T19:44:57Z</time>
      </trkpt>
      <trkpt lat="49.98259" lon="4.32991">
        <ele>318.3</ele>
        <time>2020-06-24T19:44:58Z</time>
      </trkpt>
      <trkpt lat="49.98259" lon="4.32992">
        <ele>318.3</ele>
        <time>2020-06-24T19:44:59Z</time>
      </trkpt>
      <trkpt lat="49.98259" lon="4.32992">
        <ele>318.3</ele>
        <time>2020-06-24T19:45:00Z</time>
      </trkpt>
      <trkpt lat="49.98258" lon="4.32992">
        <ele>318.3</ele>
        <time>2020-06-24T19:45:01Z</time>
      </trkpt>
      <trkpt lat="49.98258" lon="4.32992">
        <ele>318.3</ele>
        <time>2020-06-24T19:45:02Z</time>
      </trkpt>
      <trkpt lat="49.98257" lon="4.32992">
        <ele>318.3</ele>
        <time>2020-06-24T19:45:03Z</time>
      </trkpt>
      <trkpt lat="49.98257" lon="4.32993">
        <ele>318.3</ele>
        <time>2020-06-24T19:45:04Z</time>
      </trkpt>
      <trkpt lat="49.98257" lon="4.32993">
        <ele>318.3</ele>
        <time>2020-06-24T19:45:05Z</time>
      </trkpt>
      <trkpt lat="49.98257" lon="4.32994">
        <ele>318.3</ele>
        <time>2020-06-24T19:45:06Z</time>
      </trkpt>
      <trkpt lat="49.98257" lon="4.32992">
        <ele>318.3</ele>
        <time>2020-06-24T19:45:07Z</time>
      </trkpt>
      <trkpt lat="49.98257" lon="4.32992">
        <ele>318.3</ele>
        <time>2020-06-24T19:45:08Z</time>
      </trkpt>
      <trkpt lat="49.98257" lon="4.32993">
        <ele>318.3</ele>
        <time>2020-06-24T19:45:09Z</time>
      </trkpt>
      <trkpt lat="49.98257" lon="4.32995">
        <ele>318.3</ele>
        <time>2020-06-24T19:45:10Z</time>
      </trkpt>
      <trkpt lat="49.98257" lon="4.32996">
        <ele>318.3</ele>
        <time>2020-06-24T19:45:11Z</time>
      </trkpt>
      <trkpt lat="49.98257" lon="4.32996">
        <ele>318.3</ele>
        <time>2020-06-24T19:45:12Z</time>
      </trkpt>
      <trkpt lat="49.98257" lon="4.32998">
        <ele>318.3</ele>
        <time>2020-06-24T19:45:13Z</time>
      </trkpt>
      <trkpt lat="49.98257" lon="4.32998">
        <ele>318.3</ele>
        <time>2020-06-24T19:45:14Z</time>
      </trkpt>
      <trkpt lat="49.98256" lon="4.32997">
        <ele>318.3</ele>
        <time>2020-06-24T19:46:46Z</time>
      </trkpt>
      <trkpt lat="49.98255" lon="4.32995">
        <ele>318.3</ele>
        <time>2020-06-24T19:46:47Z</time>
      </trkpt>
      <trkpt lat="49.98255" lon="4.32994">
        <ele>318.3</ele>
        <time>2020-06-24T19:46:48Z</time>
      </trkpt>
      <trkpt lat="49.98254" lon="4.32994">
        <ele>318.3</ele>
        <time>2020-06-24T19:46:49Z</time>
      </trkpt>
      <trkpt lat="49.98254" lon="4.32993">
        <ele>318.3</ele>
        <time>2020-06-24T19:46:50Z</time>
      </trkpt>
      <trkpt lat="49.98253" lon="4.32993">
        <ele>318.3</ele>
        <time>2020-06-24T19:46:51Z</time>
      </trkpt>
      <trkpt lat="49.98254" lon="4.32993">
        <ele>318.3</ele>
        <time>2020-06-24T19:46:52Z</time>
      </trkpt>
      <trkpt lat="49.98253" lon="4.32993">
        <ele>318.3</ele>
        <time>2020-06-24T19:46:53Z</time>
      </trkpt>
      <trkpt lat="49.98253" lon="4.32993">
        <ele>318.3</ele>
        <time>2020-06-24T19:46:54Z</time>
      </trkpt>
      <trkpt lat="49.98253" lon="4.32993">
        <ele>318.3</ele>
        <time>2020-06-24T19:46:55Z</time>
      </trkpt>
      <trkpt lat="49.98253" lon="4.32992">
        <ele>318.3</ele>
        <time>2020-06-24T19:46:56Z</time>
      </trkpt>
      <trkpt lat="49.98253" lon="4.32992">
        <ele>318.3</ele>
        <time>2020-06-24T19:46:57Z</time>
      </trkpt>
      <trkpt lat="49.98253" lon="4.32992">
        <ele>318.3</ele>
        <time>2020-06-24T19:46:58Z</time>
      </trkpt>
      <trkpt lat="49.98253" lon="4.32991">
        <ele>318.3</ele>
        <time>2020-06-24T19:46:59Z</time>
      </trkpt>
      <trkpt lat="49.98253" lon="4.3299">
        <ele>318.3</ele>
        <time>2020-06-24T19:47:00Z</time>
      </trkpt>
      <trkpt lat="49.98253" lon="4.32991">
        <ele>318.3</ele>
        <time>2020-06-24T19:47:01Z</time>
      </trkpt>
      <trkpt lat="49.98253" lon="4.32991">
        <ele>318.3</ele>
        <time>2020-06-24T19:47:02Z</time>
      </trkpt>
      <trkpt lat="49.98253" lon="4.32991">
        <ele>318.3</ele>
        <time>2020-06-24T19:47:03Z</time>
      </trkpt>
      <trkpt lat="49.98253" lon="4.32992">
        <ele>318.3</ele>
        <time>2020-06-24T19:47:04Z</time>
      </trkpt>
      <trkpt lat="49.98254" lon="4.32993">
        <ele>318.3</ele>
        <time>2020-06-24T19:47:05Z</time>
      </trkpt>
      <trkpt lat="49.98254" lon="4.32994">
        <ele>318.3</ele>
        <time>2020-06-24T19:47:06Z</time>
      </trkpt>
      <trkpt lat="49.98254" lon="4.32996">
        <ele>318.3</ele>
        <time>2020-06-24T19:47:07Z</time>
      </trkpt>
      <trkpt lat="49.98255" lon="4.32997">
        <ele>318.3</ele>
        <time>2020-06-24T19:47:08Z</time>
      </trkpt>
      <trkpt lat="49.98255" lon="4.32997">
        <ele>318.3</ele>
        <time>2020-06-24T19:47:09Z</time>
      </trkpt>
      <trkpt lat="49.98255" lon="4.32998">
        <ele>318.3</ele>
        <time>2020-06-24T19:47:10Z</time>
      </trkpt>
      <trkpt lat="49.98256" lon="4.32999">
        <ele>318.2</ele>
        <time>2020-06-24T19:47:11Z</time>
      </trkpt>
      <trkpt lat="49.98257" lon="4.32999">
        <ele>318.2</ele>
        <time>2020-06-24T19:47:12Z</time>
      </trkpt>
      <trkpt lat="49.98257" lon="4.32999">
        <ele>318.2</ele>
        <time>2020-06-24T19:47:13Z</time>
      </trkpt>
      <trkpt lat="49.98257" lon="4.32999">
        <ele>318.2</ele>
        <time>2020-06-24T19:47:14Z</time>
      </trkpt>
      <trkpt lat="49.98257" lon="4.32999">
        <ele>318.2</ele>
        <time>2020-06-24T19:47:15Z</time>
      </trkpt>
      <trkpt lat="49.98257" lon="4.32999">
        <ele>318.2</ele>
        <time>2020-06-24T19:47:16Z</time>
      </trkpt>
      <trkpt lat="49.98257" lon="4.32999">
        <ele>318.2</ele>
        <time>2020-06-24T19:47:17Z</time>
      </trkpt>
      <trkpt lat="49.98257" lon="4.32999">
        <ele>318.2</ele>
        <time>2020-06-24T19:47:18Z</time>
      </trkpt>
      <trkpt lat="49.98257" lon="4.32998">
        <ele>318.2</ele>
        <time>2020-06-24T19:48:10Z</time>
      </trkpt>
      <trkpt lat="49.98256" lon="4.32997">
        <ele>318.2</ele>
        <time>2020-06-24T19:48:11Z</time>
      </trkpt>
      <trkpt lat="49.98256" lon="4.32996">
        <ele>318.2</ele>
        <time>2020-06-24T19:48:12Z</time>
      </trkpt>
      <trkpt lat="49.98255" lon="4.32995">
        <ele>318.2</ele>
        <time>2020-06-24T19:48:13Z</time>
      </trkpt>
      <trkpt lat="49.98254" lon="4.32995">
        <ele>318.2</ele>
        <time>2020-06-24T19:48:14Z</time>
      </trkpt>
      <trkpt lat="49.98254" lon="4.32993">
        <ele>318.2</ele>
        <time>2020-06-24T19:48:15Z</time>
      </trkpt>
      <trkpt lat="49.98253" lon="4.32993">
        <ele>318.2</ele>
        <time>2020-06-24T19:48:16Z</time>
      </trkpt>
      <trkpt lat="49.98253" lon="4.32992">
        <ele>318.2</ele>
        <time>2020-06-24T19:48:17Z</time>
      </trkpt>
      <trkpt lat="49.98253" lon="4.32991">
        <ele>318.2</ele>
        <time>2020-06-24T19:48:18Z</time>
      </trkpt>
      <trkpt lat="49.98253" lon="4.32991">
        <ele>318.2</ele>
        <time>2020-06-24T19:48:19Z</time>
      </trkpt>
      <trkpt lat="49.98252" lon="4.32991">
        <ele>318.2</ele>
        <time>2020-06-24T19:48:20Z</time>
      </trkpt>
      <trkpt lat="49.98252" lon="4.3299">
        <ele>318.2</ele>
        <time>2020-06-24T19:48:21Z</time>
      </trkpt>
      <trkpt lat="49.98252" lon="4.32989">
        <ele>318.2</ele>
        <time>2020-06-24T19:48:22Z</time>
      </trkpt>
      <trkpt lat="49.98253" lon="4.32988">
        <ele>318.2</ele>
        <time>2020-06-24T19:48:23Z</time>
      </trkpt>
      <trkpt lat="49.98255" lon="4.32988">
        <ele>318.2</ele>
        <time>2020-06-24T19:48:24Z</time>
      </trkpt>
      <trkpt lat="49.98255" lon="4.32988">
        <ele>318.2</ele>
        <time>2020-06-24T19:48:25Z</time>
      </trkpt>
      <trkpt lat="49.98254" lon="4.32989">
        <ele>318.2</ele>
        <time>2020-06-24T19:48:26Z</time>
      </trkpt>
      <trkpt lat="49.98254" lon="4.32989">
        <ele>318.2</ele>
        <time>2020-06-24T19:48:27Z</time>
      </trkpt>
      <trkpt lat="49.98253" lon="4.32989">
        <ele>318.2</ele>
        <time>2020-06-24T19:48:28Z</time>
      </trkpt>
      <trkpt lat="49.98253" lon="4.32988">
        <ele>318.2</ele>
        <time>2020-06-24T19:48:29Z</time>
      </trkpt>
      <trkpt lat="49.98253" lon="4.32989">
        <ele>318.2</ele>
        <time>2020-06-24T19:48:30Z</time>
      </trkpt>
      <trkpt lat="49.98253" lon="4.32989">
        <ele>318.2</ele>
        <time>2020-06-24T19:48:31Z</time>
      </trkpt>
      <trkpt lat="49.98254" lon="4.32989">
        <ele>318.2</ele>
        <time>2020-06-24T19:48:32Z</time>
      </trkpt>
      <trkpt lat="49.98254" lon="4.32989">
        <ele>318.2</ele>
        <time>2020-06-24T19:48:33Z</time>
      </trkpt>
      <trkpt lat="49.98254" lon="4.32989">
        <ele>318.2</ele>
        <time>2020-06-24T19:48:34Z</time>
      </trkpt>
      <trkpt lat="49.98254" lon="4.32989">
        <ele>318.2</ele>
        <time>2020-06-24T19:48:35Z</time>
      </trkpt>
      <trkpt lat="49.98254" lon="4.32989">
        <ele>318.2</ele>
        <time>2020-06-24T19:48:36Z</time>
      </trkpt>
      <trkpt lat="49.98254" lon="4.32989">
        <ele>318.2</ele>
        <time>2020-06-24T19:48:37Z</time>
      </trkpt>
      <trkpt lat="49.98254" lon="4.32989">
        <ele>318.2</ele>
        <time>2020-06-24T19:48:38Z</time>
      </trkpt>
      <trkpt lat="49.98254" lon="4.32989">
        <ele>318.2</ele>
        <time>2020-06-24T19:48:39Z</time>
      </trkpt>
      <trkpt lat="49.98253" lon="4.32989">
        <ele>318.2</ele>
        <time>2020-06-24T19:48:40Z</time>
      </trkpt>
      <trkpt lat="49.98253" lon="4.3299">
        <ele>318.2</ele>
        <time>2020-06-24T19:48:41Z</time>
      </trkpt>
      <trkpt lat="49.98252" lon="4.3299">
        <ele>318.2</ele>
        <time>2020-06-24T19:48:42Z</time>
      </trkpt>
      <trkpt lat="49.98251" lon="4.32991">
        <ele>318.2</ele>
        <time>2020-06-24T19:48:43Z</time>
      </trkpt>
      <trkpt lat="49.98251" lon="4.32992">
        <ele>318.2</ele>
        <time>2020-06-24T19:48:44Z</time>
      </trkpt>
      <trkpt lat="49.98251" lon="4.32992">
        <ele>318.2</ele>
        <time>2020-06-24T19:48:45Z</time>
      </trkpt>
      <trkpt lat="49.98251" lon="4.32992">
        <ele>318.2</ele>
        <time>2020-06-24T19:48:46Z</time>
      </trkpt>
      <trkpt lat="49.98251" lon="4.32993">
        <ele>318.2</ele>
        <time>2020-06-24T19:48:47Z</time>
      </trkpt>
      <trkpt lat="49.98251" lon="4.32993">
        <ele>318.2</ele>
        <time>2020-06-24T19:48:48Z</time>
      </trkpt>
      <trkpt lat="49.98251" lon="4.32993">
        <ele>318.2</ele>
        <time>2020-06-24T19:48:49Z</time>
      </trkpt>
      <trkpt lat="49.98251" lon="4.32993">
        <ele>318.2</ele>
        <time>2020-06-24T19:48:50Z</time>
      </trkpt>
      <trkpt lat="49.98251" lon="4.32993">
        <ele>318.2</ele>
        <time>2020-06-24T19:48:51Z</time>
      </trkpt>
      <trkpt lat="49.98251" lon="4.32993">
        <ele>318.2</ele>
        <time>2020-06-24T19:48:52Z</time>
      </trkpt>
      <trkpt lat="49.98251" lon="4.32993">
        <ele>318.2</ele>
        <time>2020-06-24T19:48:53Z</time>
      </trkpt>
      <trkpt lat="49.98251" lon="4.32993">
        <ele>318.2</ele>
        <time>2020-06-24T19:48:54Z</time>
      </trkpt>
      <trkpt lat="49.98251" lon="4.32993">
        <ele>318.2</ele>
        <time>2020-06-24T19:48:55Z</time>
      </trkpt>
      <trkpt lat="49.98251" lon="4.32993">
        <ele>318.2</ele>
        <time>2020-06-24T19:48:56Z</time>
      </trkpt>
      <trkpt lat="49.9825" lon="4.32992">
        <ele>318.2</ele>
        <time>2020-06-24T19:48:57Z</time>
      </trkpt>
      <trkpt lat="49.9825" lon="4.32993">
        <ele>318.2</ele>
        <time>2020-06-24T19:48:58Z</time>
      </trkpt>
      <trkpt lat="49.98259" lon="4.33004">
        <ele>318.2</ele>
        <time>2020-06-24T19:51:30Z</time>
      </trkpt>
      <trkpt lat="49.98258" lon="4.33004">
        <ele>318.2</ele>
        <time>2020-06-24T19:51:31Z</time>
      </trkpt>
      <trkpt lat="49.98258" lon="4.33004">
        <ele>318.2</ele>
        <time>2020-06-24T19:51:32Z</time>
      </trkpt>
      <trkpt lat="49.98258" lon="4.33004">
        <ele>318.2</ele>
        <time>2020-06-24T19:51:33Z</time>
      </trkpt>
      <trkpt lat="49.98258" lon="4.33004">
        <ele>318.2</ele>
        <time>2020-06-24T19:51:34Z</time>
      </trkpt>
      <trkpt lat="49.98257" lon="4.33004">
        <ele>318.2</ele>
        <time>2020-06-24T19:51:35Z</time>
      </trkpt>
      <trkpt lat="49.98257" lon="4.33004">
        <ele>318.2</ele>
        <time>2020-06-24T19:51:36Z</time>
      </trkpt>
      <trkpt lat="49.98257" lon="4.33004">
        <ele>318.2</ele>
        <time>2020-06-24T19:51:37Z</time>
      </trkpt>
      <trkpt lat="49.98257" lon="4.33004">
        <ele>318.2</ele>
        <time>2020-06-24T19:51:38Z</time>
      </trkpt>
      <trkpt lat="49.98257" lon="4.33004">
        <ele>318.2</ele>
        <time>2020-06-24T19:51:39Z</time>
      </trkpt>
      <trkpt lat="49.98257" lon="4.33004">
        <ele>318.2</ele>
        <time>2020-06-24T19:51:40Z</time>
      </trkpt>
      <trkpt lat="49.98257" lon="4.33004">
        <ele>318.2</ele>
        <time>2020-06-24T19:51:41Z</time>
      </trkpt>
      <trkpt lat="49.98257" lon="4.33004">
        <ele>318.2</ele>
        <time>2020-06-24T19:51:42Z</time>
      </trkpt>
      <trkpt lat="49.98257" lon="4.33004">
        <ele>318.2</ele>
        <time>2020-06-24T19:51:43Z</time>
      </trkpt>
      <trkpt lat="49.98257" lon="4.33004">
        <ele>318.2</ele>
        <time>2020-06-24T19:51:44Z</time>
      </trkpt>
      <trkpt lat="49.98257" lon="4.33004">
        <ele>318.2</ele>
        <time>2020-06-24T19:51:45Z</time>
      </trkpt>
      <trkpt lat="49.98257" lon="4.33004">
        <ele>318.2</ele>
        <time>2020-06-24T19:51:46Z</time>
      </trkpt>
      <trkpt lat="49.98256" lon="4.33005">
        <ele>318.2</ele>
        <time>2020-06-24T19:51:55Z</time>
      </trkpt>
      <trkpt lat="49.98255" lon="4.33005">
        <ele>318.2</ele>
        <time>2020-06-24T19:51:56Z</time>
      </trkpt>
      <trkpt lat="49.98255" lon="4.33005">
        <ele>318.2</ele>
        <time>2020-06-24T19:51:57Z</time>
      </trkpt>
      <trkpt lat="49.98255" lon="4.33005">
        <ele>318.2</ele>
        <time>2020-06-24T19:51:58Z</time>
      </trkpt>
      <trkpt lat="49.98254" lon="4.33006">
        <ele>318.2</ele>
        <time>2020-06-24T19:51:59Z</time>
      </trkpt>
      <trkpt lat="49.98255" lon="4.33006">
        <ele>318.2</ele>
        <time>2020-06-24T19:52:00Z</time>
      </trkpt>
      <trkpt lat="49.98255" lon="4.33006">
        <ele>318.2</ele>
        <time>2020-06-24T19:52:01Z</time>
      </trkpt>
      <trkpt lat="49.98255" lon="4.33006">
        <ele>318.2</ele>
        <time>2020-06-24T19:52:02Z</time>
      </trkpt>
      <trkpt lat="49.98255" lon="4.33005">
        <ele>318.2</ele>
        <time>2020-06-24T19:52:03Z</time>
      </trkpt>
      <trkpt lat="49.98255" lon="4.33005">
        <ele>318.2</ele>
        <time>2020-06-24T19:52:04Z</time>
      </trkpt>
      <trkpt lat="49.98255" lon="4.33006">
        <ele>318.2</ele>
        <time>2020-06-24T19:52:05Z</time>
      </trkpt>
      <trkpt lat="49.98256" lon="4.33006">
        <ele>318.2</ele>
        <time>2020-06-24T19:52:06Z</time>
      </trkpt>
      <trkpt lat="49.98256" lon="4.33006">
        <ele>318.2</ele>
        <time>2020-06-24T19:52:07Z</time>
      </trkpt>
      <trkpt lat="49.98256" lon="4.33006">
        <ele>318.2</ele>
        <time>2020-06-24T19:52:08Z</time>
      </trkpt>
      <trkpt lat="49.98255" lon="4.33007">
        <ele>318.2</ele>
        <time>2020-06-24T19:52:09Z</time>
      </trkpt>
      <trkpt lat="49.98255" lon="4.33007">
        <ele>318.2</ele>
        <time>2020-06-24T19:52:10Z</time>
      </trkpt>
      <trkpt lat="49.98254" lon="4.33007">
        <ele>318.2</ele>
        <time>2020-06-24T19:52:11Z</time>
      </trkpt>
      <trkpt lat="49.98254" lon="4.33007">
        <ele>318.2</ele>
        <time>2020-06-24T19:52:12Z</time>
      </trkpt>
      <trkpt lat="49.98254" lon="4.33008">
        <ele>318.2</ele>
        <time>2020-06-24T19:52:13Z</time>
      </trkpt>
      <trkpt lat="49.98254" lon="4.33008">
        <ele>318.2</ele>
        <time>2020-06-24T19:52:14Z</time>
      </trkpt>
      <trkpt lat="49.98254" lon="4.33008">
        <ele>318.2</ele>
        <time>2020-06-24T19:52:15Z</time>
      </trkpt>
      <trkpt lat="49.98254" lon="4.33008">
        <ele>318.2</ele>
        <time>2020-06-24T19:52:16Z</time>
      </trkpt>
      <trkpt lat="49.98254" lon="4.33008">
        <ele>318.2</ele>
        <time>2020-06-24T19:52:17Z</time>
      </trkpt>
      <trkpt lat="49.98254" lon="4.33009">
        <ele>318.2</ele>
        <time>2020-06-24T19:52:18Z</time>
      </trkpt>
      <trkpt lat="49.98254" lon="4.33009">
        <ele>318.2</ele>
        <time>2020-06-24T19:52:19Z</time>
      </trkpt>
      <trkpt lat="49.98254" lon="4.3301">
        <ele>318.2</ele>
        <time>2020-06-24T19:52:20Z</time>
      </trkpt>
      <trkpt lat="49.98254" lon="4.33009">
        <ele>318.2</ele>
        <time>2020-06-24T19:52:21Z</time>
      </trkpt>
      <trkpt lat="49.98254" lon="4.33012">
        <ele>318.2</ele>
        <time>2020-06-24T19:52:22Z</time>
      </trkpt>
      <trkpt lat="49.98254" lon="4.33017">
        <ele>318.2</ele>
        <time>2020-06-24T19:52:23Z</time>
      </trkpt>
      <trkpt lat="49.98254" lon="4.33018">
        <ele>318.1</ele>
        <time>2020-06-24T19:52:24Z</time>
      </trkpt>
      <trkpt lat="49.98255" lon="4.33019">
        <ele>318.1</ele>
        <time>2020-06-24T19:52:25Z</time>
      </trkpt>
      <trkpt lat="49.98255" lon="4.33019">
        <ele>318.1</ele>
        <time>2020-06-24T19:52:26Z</time>
      </trkpt>
      <trkpt lat="49.98255" lon="4.33019">
        <ele>318.1</ele>
        <time>2020-06-24T19:52:27Z</time>
      </trkpt>
      <trkpt lat="49.98254" lon="4.3302">
        <ele>318.1</ele>
        <time>2020-06-24T19:52:28Z</time>
      </trkpt>
      <trkpt lat="49.98255" lon="4.33021">
        <ele>318.1</ele>
        <time>2020-06-24T19:52:29Z</time>
      </trkpt>
      <trkpt lat="49.98256" lon="4.33022">
        <ele>318.1</ele>
        <time>2020-06-24T19:52:30Z</time>
      </trkpt>
      <trkpt lat="49.98258" lon="4.33023">
        <ele>318.1</ele>
        <time>2020-06-24T19:52:31Z</time>
      </trkpt>
      <trkpt lat="49.98258" lon="4.33023">
        <ele>318.1</ele>
        <time>2020-06-24T19:52:32Z</time>
      </trkpt>
      <trkpt lat="49.98259" lon="4.33023">
        <ele>318.1</ele>
        <time>2020-06-24T19:52:33Z</time>
      </trkpt>
      <trkpt lat="49.9826" lon="4.33023">
        <ele>318.1</ele>
        <time>2020-06-24T19:52:34Z</time>
      </trkpt>
      <trkpt lat="49.98261" lon="4.33024">
        <ele>318.1</ele>
        <time>2020-06-24T19:52:35Z</time>
      </trkpt>
      <trkpt lat="49.98262" lon="4.33025">
        <ele>318.1</ele>
        <time>2020-06-24T19:52:36Z</time>
      </trkpt>
      <trkpt lat="49.98263" lon="4.33025">
        <ele>318.1</ele>
        <time>2020-06-24T19:52:37Z</time>
      </trkpt>
      <trkpt lat="49.98264" lon="4.33026">
        <ele>318.1</ele>
        <time>2020-06-24T19:52:38Z</time>
      </trkpt>
      <trkpt lat="49.98265" lon="4.33028">
        <ele>318.1</ele>
        <time>2020-06-24T19:52:39Z</time>
      </trkpt>
      <trkpt lat="49.98265" lon="4.33029">
        <ele>318.1</ele>
        <time>2020-06-24T19:52:40Z</time>
      </trkpt>
      <trkpt lat="49.98266" lon="4.3303">
        <ele>318.1</ele>
        <time>2020-06-24T19:52:41Z</time>
      </trkpt>
      <trkpt lat="49.98267" lon="4.3303">
        <ele>318.1</ele>
        <time>2020-06-24T19:52:42Z</time>
      </trkpt>
      <trkpt lat="49.98267" lon="4.3303">
        <ele>318.1</ele>
        <time>2020-06-24T19:52:43Z</time>
      </trkpt>
      <trkpt lat="49.98267" lon="4.33029">
        <ele>318.1</ele>
        <time>2020-06-24T19:52:44Z</time>
      </trkpt>
      <trkpt lat="49.98266" lon="4.33028">
        <ele>318.1</ele>
        <time>2020-06-24T19:52:45Z</time>
      </trkpt>
      <trkpt lat="49.98266" lon="4.33027">
        <ele>318.1</ele>
        <time>2020-06-24T19:52:46Z</time>
      </trkpt>
      <trkpt lat="49.98266" lon="4.33026">
        <ele>318.1</ele>
        <time>2020-06-24T19:52:47Z</time>
      </trkpt>
      <trkpt lat="49.98266" lon="4.33026">
        <ele>318.1</ele>
        <time>2020-06-24T19:52:48Z</time>
      </trkpt>
      <trkpt lat="49.98266" lon="4.33026">
        <ele>318.1</ele>
        <time>2020-06-24T19:52:49Z</time>
      </trkpt>
      <trkpt lat="49.98265" lon="4.33025">
        <ele>318.1</ele>
        <time>2020-06-24T19:52:50Z</time>
      </trkpt>
      <trkpt lat="49.98265" lon="4.33024">
        <ele>318.1</ele>
        <time>2020-06-24T19:52:51Z</time>
      </trkpt>
      <trkpt lat="49.98265" lon="4.33023">
        <ele>318.1</ele>
        <time>2020-06-24T19:52:52Z</time>
      </trkpt>
      <trkpt lat="49.98265" lon="4.33023">
        <ele>318.1</ele>
        <time>2020-06-24T19:52:53Z</time>
      </trkpt>
      <trkpt lat="49.98265" lon="4.33022">
        <ele>318.1</ele>
        <time>2020-06-24T19:52:54Z</time>
      </trkpt>
      <trkpt lat="49.98265" lon="4.33023">
        <ele>318.1</ele>
        <time>2020-06-24T19:52:55Z</time>
      </trkpt>
      <trkpt lat="49.98265" lon="4.33023">
        <ele>318.1</ele>
        <time>2020-06-24T19:52:56Z</time>
      </trkpt>
      <trkpt lat="49.98265" lon="4.33023">
        <ele>318.1</ele>
        <time>2020-06-24T19:52:57Z</time>
      </trkpt>
      <trkpt lat="49.98264" lon="4.33023">
        <ele>318.1</ele>
        <time>2020-06-24T19:52:58Z</time>
      </trkpt>
      <trkpt lat="49.98264" lon="4.33023">
        <ele>318.1</ele>
        <time>2020-06-24T19:52:59Z</time>
      </trkpt>
      <trkpt lat="49.98263" lon="4.33001">
        <ele>318.1</ele>
        <time>2020-06-24T19:53:30Z</time>
      </trkpt>
      <trkpt lat="49.98262" lon="4.32999">
        <ele>318.1</ele>
        <time>2020-06-24T19:53:31Z</time>
      </trkpt>
      <trkpt lat="49.98261" lon="4.32993">
        <ele>318.1</ele>
        <time>2020-06-24T19:53:32Z</time>
      </trkpt>
      <trkpt lat="49.98261" lon="4.32991">
        <ele>318.1</ele>
        <time>2020-06-24T19:53:33Z</time>
      </trkpt>
      <trkpt lat="49.98259" lon="4.32985">
        <ele>318.1</ele>
        <time>2020-06-24T19:53:34Z</time>
      </trkpt>
      <trkpt lat="49.98259" lon="4.32983">
        <ele>318.1</ele>
        <time>2020-06-24T19:53:35Z</time>
      </trkpt>
      <trkpt lat="49.98258" lon="4.3298">
        <ele>318</ele>
        <time>2020-06-24T19:53:36Z</time>
      </trkpt>
      <trkpt lat="49.98257" lon="4.32978">
        <ele>318</ele>
        <time>2020-06-24T19:53:37Z</time>
      </trkpt>
      <trkpt lat="49.98257" lon="4.32976">
        <ele>318</ele>
        <time>2020-06-24T19:53:38Z</time>
      </trkpt>
      <trkpt lat="49.98256" lon="4.32974">
        <ele>318</ele>
        <time>2020-06-24T19:53:39Z</time>
      </trkpt>
      <trkpt lat="49.98255" lon="4.32972">
        <ele>318</ele>
        <time>2020-06-24T19:53:40Z</time>
      </trkpt>
      <trkpt lat="49.98255" lon="4.32971">
        <ele>318</ele>
        <time>2020-06-24T19:53:41Z</time>
      </trkpt>
      <trkpt lat="49.98255" lon="4.3297">
        <ele>318</ele>
        <time>2020-06-24T19:53:42Z</time>
      </trkpt>
      <trkpt lat="49.98255" lon="4.32969">
        <ele>318</ele>
        <time>2020-06-24T19:53:43Z</time>
      </trkpt>
      <trkpt lat="49.98255" lon="4.32969">
        <ele>318</ele>
        <time>2020-06-24T19:53:44Z</time>
      </trkpt>
      <trkpt lat="49.98255" lon="4.32969">
        <ele>318</ele>
        <time>2020-06-24T19:53:45Z</time>
      </trkpt>
      <trkpt lat="49.98255" lon="4.32968">
        <ele>318</ele>
        <time>2020-06-24T19:53:46Z</time>
      </trkpt>
      <trkpt lat="49.98255" lon="4.32969">
        <ele>318</ele>
        <time>2020-06-24T19:53:47Z</time>
      </trkpt>
      <trkpt lat="49.98255" lon="4.3297">
        <ele>318</ele>
        <time>2020-06-24T19:53:48Z</time>
      </trkpt>
      <trkpt lat="49.98256" lon="4.3297">
        <ele>318</ele>
        <time>2020-06-24T19:53:49Z</time>
      </trkpt>
      <trkpt lat="49.98256" lon="4.3297">
        <ele>318</ele>
        <time>2020-06-24T19:53:50Z</time>
      </trkpt>
      <trkpt lat="49.98256" lon="4.3297">
        <ele>318</ele>
        <time>2020-06-24T19:53:51Z</time>
      </trkpt>
      <trkpt lat="49.98256" lon="4.3297">
        <ele>318</ele>
        <time>2020-06-24T19:53:52Z</time>
      </trkpt>
      <trkpt lat="49.98257" lon="4.3297">
        <ele>318</ele>
        <time>2020-06-24T19:53:53Z</time>
      </trkpt>
      <trkpt lat="49.98257" lon="4.32969">
        <ele>318</ele>
        <time>2020-06-24T19:53:54Z</time>
      </trkpt>
      <trkpt lat="49.98257" lon="4.3297">
        <ele>318</ele>
        <time>2020-06-24T19:53:55Z</time>
      </trkpt>
      <trkpt lat="49.98257" lon="4.3297">
        <ele>318</ele>
        <time>2020-06-24T19:53:56Z</time>
      </trkpt>
      <trkpt lat="49.98257" lon="4.32969">
        <ele>318</ele>
        <time>2020-06-24T19:53:57Z</time>
      </trkpt>
      <trkpt lat="49.98257" lon="4.32969">
        <ele>318</ele>
        <time>2020-06-24T19:53:58Z</time>
      </trkpt>
      <trkpt lat="49.98256" lon="4.32969">
        <ele>318</ele>
        <time>2020-06-24T19:53:59Z</time>
      </trkpt>
      <trkpt lat="49.98256" lon="4.3297">
        <ele>318</ele>
        <time>2020-06-24T19:54:00Z</time>
      </trkpt>
      <trkpt lat="49.98255" lon="4.3297">
        <ele>318</ele>
        <time>2020-06-24T19:54:01Z</time>
      </trkpt>
      <trkpt lat="49.98255" lon="4.32971">
        <ele>318</ele>
        <time>2020-06-24T19:54:02Z</time>
      </trkpt>
      <trkpt lat="49.98254" lon="4.32972">
        <ele>318</ele>
        <time>2020-06-24T19:54:03Z</time>
      </trkpt>
      <trkpt lat="49.98253" lon="4.32973">
        <ele>318</ele>
        <time>2020-06-24T19:54:04Z</time>
      </trkpt>
      <trkpt lat="49.98253" lon="4.32974">
        <ele>318</ele>
        <time>2020-06-24T19:54:05Z</time>
      </trkpt>
      <trkpt lat="49.98254" lon="4.32975">
        <ele>318</ele>
        <time>2020-06-24T19:54:06Z</time>
      </trkpt>
      <trkpt lat="49.98254" lon="4.32976">
        <ele>318</ele>
        <time>2020-06-24T19:54:07Z</time>
      </trkpt>
      <trkpt lat="49.98254" lon="4.32977">
        <ele>318</ele>
        <time>2020-06-24T19:54:08Z</time>
      </trkpt>
      <trkpt lat="49.98254" lon="4.32977">
        <ele>318</ele>
        <time>2020-06-24T19:54:09Z</time>
      </trkpt>
      <trkpt lat="49.98254" lon="4.32977">
        <ele>318</ele>
        <time>2020-06-24T19:54:10Z</time>
      </trkpt>
      <trkpt lat="49.98255" lon="4.32978">
        <ele>318</ele>
        <time>2020-06-24T19:54:11Z</time>
      </trkpt>
      <trkpt lat="49.98255" lon="4.32979">
        <ele>318</ele>
        <time>2020-06-24T19:54:12Z</time>
      </trkpt>
      <trkpt lat="49.98256" lon="4.3298">
        <ele>318</ele>
        <time>2020-06-24T19:54:13Z</time>
      </trkpt>
      <trkpt lat="49.98256" lon="4.32981">
        <ele>318</ele>
        <time>2020-06-24T19:54:14Z</time>
      </trkpt>
      <trkpt lat="49.98256" lon="4.32981">
        <ele>318</ele>
        <time>2020-06-24T19:54:15Z</time>
      </trkpt>
      <trkpt lat="49.98256" lon="4.32982">
        <ele>318</ele>
        <time>2020-06-24T19:54:16Z</time>
      </trkpt>
      <trkpt lat="49.98256" lon="4.32982">
        <ele>318</ele>
        <time>2020-06-24T19:54:17Z</time>
      </trkpt>
      <trkpt lat="49.98256" lon="4.32982">
        <ele>318</ele>
        <time>2020-06-24T19:54:18Z</time>
      </trkpt>
    </trkseg>
  </trk>
</gpx>